<?xml version="1.0" encoding="UTF-8" standalone="no" ?>
<gpx xmlns="http://www.topografix.com/GPX/1/1" xmlns:xsi="http://www.w3.org/2001/XMLSchema-instance" xsi:schemaLocation="http://www.topografix.com/GPX/1/1 http://www.topografix.com/GPX/1/1/gpx.xsd" version="1.1" creator="VisuGPX - https://www.visugpx.com">
  <metadata>
    <name>voyage total </name>
  </metadata>
  <trk>
    <name><![CDATA[T27]]></name>
    <trkseg>
      <trkpt lat="49.09724" lon="3.72715">
        <ele>64.4</ele>
        <time>2020-07-01T06:00:56Z</time>
      </trkpt>
      <trkpt lat="49.09724" lon="3.72722">
        <ele>64.3</ele>
        <time>2020-07-01T06:00:57Z</time>
      </trkpt>
      <trkpt lat="49.09723" lon="3.72719">
        <ele>64.3</ele>
        <time>2020-07-01T06:00:58Z</time>
      </trkpt>
      <trkpt lat="49.09721" lon="3.72714">
        <ele>64.3</ele>
        <time>2020-07-01T06:00:59Z</time>
      </trkpt>
      <trkpt lat="49.09722" lon="3.72716">
        <ele>64.3</ele>
        <time>2020-07-01T06:01:00Z</time>
      </trkpt>
      <trkpt lat="49.09722" lon="3.72716">
        <ele>64.2</ele>
        <time>2020-07-01T06:01:01Z</time>
      </trkpt>
      <trkpt lat="49.09722" lon="3.72721">
        <ele>64.2</ele>
        <time>2020-07-01T06:01:02Z</time>
      </trkpt>
      <trkpt lat="49.09723" lon="3.72725">
        <ele>64.2</ele>
        <time>2020-07-01T06:01:03Z</time>
      </trkpt>
      <trkpt lat="49.09725" lon="3.72726">
        <ele>64.2</ele>
        <time>2020-07-01T06:01:05Z</time>
      </trkpt>
      <trkpt lat="49.09736" lon="3.72723">
        <ele>64.1</ele>
        <time>2020-07-01T06:02:49Z</time>
      </trkpt>
      <trkpt lat="49.09737" lon="3.72722">
        <ele>64.1</ele>
        <time>2020-07-01T06:02:50Z</time>
      </trkpt>
      <trkpt lat="49.0974" lon="3.72718">
        <ele>64</ele>
        <time>2020-07-01T06:02:51Z</time>
      </trkpt>
      <trkpt lat="49.09741" lon="3.72717">
        <ele>64</ele>
        <time>2020-07-01T06:02:52Z</time>
      </trkpt>
      <trkpt lat="49.09743" lon="3.72714">
        <ele>64</ele>
        <time>2020-07-01T06:02:53Z</time>
      </trkpt>
      <trkpt lat="49.09747" lon="3.72712">
        <ele>63.9</ele>
        <time>2020-07-01T06:02:54Z</time>
      </trkpt>
      <trkpt lat="49.0975" lon="3.72709">
        <ele>63.9</ele>
        <time>2020-07-01T06:02:55Z</time>
      </trkpt>
      <trkpt lat="49.09754" lon="3.72706">
        <ele>63.9</ele>
        <time>2020-07-01T06:02:56Z</time>
      </trkpt>
      <trkpt lat="49.09757" lon="3.72704">
        <ele>63.8</ele>
        <time>2020-07-01T06:02:57Z</time>
      </trkpt>
      <trkpt lat="49.09761" lon="3.72702">
        <ele>63.8</ele>
        <time>2020-07-01T06:02:58Z</time>
      </trkpt>
      <trkpt lat="49.09764" lon="3.727">
        <ele>63.8</ele>
        <time>2020-07-01T06:02:59Z</time>
      </trkpt>
      <trkpt lat="49.09767" lon="3.72697">
        <ele>63.8</ele>
        <time>2020-07-01T06:03:00Z</time>
      </trkpt>
      <trkpt lat="49.0977" lon="3.72695">
        <ele>63.8</ele>
        <time>2020-07-01T06:03:01Z</time>
      </trkpt>
      <trkpt lat="49.09774" lon="3.72692">
        <ele>63.7</ele>
        <time>2020-07-01T06:03:02Z</time>
      </trkpt>
      <trkpt lat="49.09778" lon="3.72688">
        <ele>63.7</ele>
        <time>2020-07-01T06:03:03Z</time>
      </trkpt>
      <trkpt lat="49.09782" lon="3.72685">
        <ele>63.7</ele>
        <time>2020-07-01T06:03:04Z</time>
      </trkpt>
      <trkpt lat="49.09787" lon="3.72682">
        <ele>63.7</ele>
        <time>2020-07-01T06:03:05Z</time>
      </trkpt>
      <trkpt lat="49.09791" lon="3.7268">
        <ele>63.6</ele>
        <time>2020-07-01T06:03:06Z</time>
      </trkpt>
      <trkpt lat="49.09795" lon="3.72676">
        <ele>63.6</ele>
        <time>2020-07-01T06:03:07Z</time>
      </trkpt>
      <trkpt lat="49.09798" lon="3.72675">
        <ele>63.6</ele>
        <time>2020-07-01T06:03:08Z</time>
      </trkpt>
      <trkpt lat="49.09801" lon="3.72673">
        <ele>63.6</ele>
        <time>2020-07-01T06:03:09Z</time>
      </trkpt>
      <trkpt lat="49.09805" lon="3.72672">
        <ele>63.6</ele>
        <time>2020-07-01T06:03:10Z</time>
      </trkpt>
      <trkpt lat="49.09807" lon="3.72668">
        <ele>63.5</ele>
        <time>2020-07-01T06:03:11Z</time>
      </trkpt>
      <trkpt lat="49.09811" lon="3.72667">
        <ele>63.5</ele>
        <time>2020-07-01T06:03:12Z</time>
      </trkpt>
      <trkpt lat="49.09815" lon="3.72665">
        <ele>63.5</ele>
        <time>2020-07-01T06:03:13Z</time>
      </trkpt>
      <trkpt lat="49.09819" lon="3.72661">
        <ele>63.5</ele>
        <time>2020-07-01T06:03:14Z</time>
      </trkpt>
      <trkpt lat="49.09823" lon="3.72657">
        <ele>63.5</ele>
        <time>2020-07-01T06:03:15Z</time>
      </trkpt>
      <trkpt lat="49.09825" lon="3.72654">
        <ele>63.5</ele>
        <time>2020-07-01T06:03:16Z</time>
      </trkpt>
      <trkpt lat="49.09828" lon="3.72651">
        <ele>63.5</ele>
        <time>2020-07-01T06:03:17Z</time>
      </trkpt>
      <trkpt lat="49.0983" lon="3.72645">
        <ele>63.4</ele>
        <time>2020-07-01T06:03:18Z</time>
      </trkpt>
      <trkpt lat="49.09832" lon="3.72641">
        <ele>63.4</ele>
        <time>2020-07-01T06:03:19Z</time>
      </trkpt>
      <trkpt lat="49.09835" lon="3.72637">
        <ele>63.4</ele>
        <time>2020-07-01T06:03:20Z</time>
      </trkpt>
      <trkpt lat="49.09838" lon="3.7263">
        <ele>63.4</ele>
        <time>2020-07-01T06:03:21Z</time>
      </trkpt>
      <trkpt lat="49.0984" lon="3.72625">
        <ele>63.4</ele>
        <time>2020-07-01T06:03:22Z</time>
      </trkpt>
      <trkpt lat="49.09843" lon="3.72619">
        <ele>63.4</ele>
        <time>2020-07-01T06:03:23Z</time>
      </trkpt>
      <trkpt lat="49.09845" lon="3.72614">
        <ele>63.4</ele>
        <time>2020-07-01T06:03:24Z</time>
      </trkpt>
      <trkpt lat="49.09847" lon="3.72608">
        <ele>63.4</ele>
        <time>2020-07-01T06:03:25Z</time>
      </trkpt>
      <trkpt lat="49.09849" lon="3.72604">
        <ele>63.4</ele>
        <time>2020-07-01T06:03:26Z</time>
      </trkpt>
      <trkpt lat="49.09851" lon="3.72599">
        <ele>63.4</ele>
        <time>2020-07-01T06:03:27Z</time>
      </trkpt>
      <trkpt lat="49.09852" lon="3.72594">
        <ele>63.4</ele>
        <time>2020-07-01T06:03:28Z</time>
      </trkpt>
      <trkpt lat="49.09854" lon="3.7259">
        <ele>63.5</ele>
        <time>2020-07-01T06:03:29Z</time>
      </trkpt>
      <trkpt lat="49.09856" lon="3.72586">
        <ele>63.5</ele>
        <time>2020-07-01T06:03:30Z</time>
      </trkpt>
      <trkpt lat="49.09858" lon="3.72582">
        <ele>63.5</ele>
        <time>2020-07-01T06:03:31Z</time>
      </trkpt>
      <trkpt lat="49.0986" lon="3.72577">
        <ele>63.5</ele>
        <time>2020-07-01T06:03:32Z</time>
      </trkpt>
      <trkpt lat="49.09862" lon="3.72571">
        <ele>63.5</ele>
        <time>2020-07-01T06:03:33Z</time>
      </trkpt>
      <trkpt lat="49.09864" lon="3.72566">
        <ele>63.5</ele>
        <time>2020-07-01T06:03:34Z</time>
      </trkpt>
      <trkpt lat="49.09867" lon="3.72561">
        <ele>63.5</ele>
        <time>2020-07-01T06:03:35Z</time>
      </trkpt>
      <trkpt lat="49.09869" lon="3.72556">
        <ele>63.5</ele>
        <time>2020-07-01T06:03:36Z</time>
      </trkpt>
      <trkpt lat="49.0987" lon="3.72549">
        <ele>63.4</ele>
        <time>2020-07-01T06:03:37Z</time>
      </trkpt>
      <trkpt lat="49.09872" lon="3.72545">
        <ele>63.4</ele>
        <time>2020-07-01T06:03:38Z</time>
      </trkpt>
      <trkpt lat="49.09875" lon="3.72539">
        <ele>63.4</ele>
        <time>2020-07-01T06:03:39Z</time>
      </trkpt>
      <trkpt lat="49.09877" lon="3.72534">
        <ele>63.4</ele>
        <time>2020-07-01T06:03:40Z</time>
      </trkpt>
      <trkpt lat="49.09879" lon="3.72528">
        <ele>63.4</ele>
        <time>2020-07-01T06:03:41Z</time>
      </trkpt>
      <trkpt lat="49.09881" lon="3.72519">
        <ele>63.4</ele>
        <time>2020-07-01T06:03:42Z</time>
      </trkpt>
      <trkpt lat="49.09882" lon="3.72515">
        <ele>63.4</ele>
        <time>2020-07-01T06:03:43Z</time>
      </trkpt>
      <trkpt lat="49.09884" lon="3.72508">
        <ele>63.4</ele>
        <time>2020-07-01T06:03:44Z</time>
      </trkpt>
      <trkpt lat="49.09886" lon="3.72501">
        <ele>63.4</ele>
        <time>2020-07-01T06:03:45Z</time>
      </trkpt>
      <trkpt lat="49.09887" lon="3.72494">
        <ele>63.3</ele>
        <time>2020-07-01T06:03:46Z</time>
      </trkpt>
      <trkpt lat="49.09888" lon="3.72487">
        <ele>63.3</ele>
        <time>2020-07-01T06:03:47Z</time>
      </trkpt>
      <trkpt lat="49.09888" lon="3.7248">
        <ele>63.3</ele>
        <time>2020-07-01T06:03:48Z</time>
      </trkpt>
      <trkpt lat="49.09889" lon="3.72472">
        <ele>63.3</ele>
        <time>2020-07-01T06:03:49Z</time>
      </trkpt>
      <trkpt lat="49.0989" lon="3.72465">
        <ele>63.3</ele>
        <time>2020-07-01T06:03:50Z</time>
      </trkpt>
      <trkpt lat="49.09891" lon="3.72459">
        <ele>63.3</ele>
        <time>2020-07-01T06:03:51Z</time>
      </trkpt>
      <trkpt lat="49.09891" lon="3.72452">
        <ele>63.3</ele>
        <time>2020-07-01T06:03:52Z</time>
      </trkpt>
      <trkpt lat="49.0989" lon="3.72447">
        <ele>63.3</ele>
        <time>2020-07-01T06:03:53Z</time>
      </trkpt>
      <trkpt lat="49.0989" lon="3.7244">
        <ele>63.3</ele>
        <time>2020-07-01T06:03:54Z</time>
      </trkpt>
      <trkpt lat="49.09891" lon="3.72434">
        <ele>63.3</ele>
        <time>2020-07-01T06:03:55Z</time>
      </trkpt>
      <trkpt lat="49.09891" lon="3.72427">
        <ele>63.3</ele>
        <time>2020-07-01T06:03:56Z</time>
      </trkpt>
      <trkpt lat="49.09891" lon="3.7242">
        <ele>63.3</ele>
        <time>2020-07-01T06:03:57Z</time>
      </trkpt>
      <trkpt lat="49.09891" lon="3.72411">
        <ele>63.3</ele>
        <time>2020-07-01T06:03:58Z</time>
      </trkpt>
      <trkpt lat="49.0989" lon="3.72404">
        <ele>63.3</ele>
        <time>2020-07-01T06:03:59Z</time>
      </trkpt>
      <trkpt lat="49.0989" lon="3.72397">
        <ele>63.3</ele>
        <time>2020-07-01T06:04:00Z</time>
      </trkpt>
      <trkpt lat="49.0989" lon="3.72389">
        <ele>63.2</ele>
        <time>2020-07-01T06:04:01Z</time>
      </trkpt>
      <trkpt lat="49.09889" lon="3.72382">
        <ele>63.2</ele>
        <time>2020-07-01T06:04:02Z</time>
      </trkpt>
      <trkpt lat="49.09889" lon="3.72375">
        <ele>63.1</ele>
        <time>2020-07-01T06:04:03Z</time>
      </trkpt>
      <trkpt lat="49.09888" lon="3.72368">
        <ele>63.1</ele>
        <time>2020-07-01T06:04:04Z</time>
      </trkpt>
      <trkpt lat="49.09887" lon="3.72363">
        <ele>63</ele>
        <time>2020-07-01T06:04:05Z</time>
      </trkpt>
      <trkpt lat="49.09886" lon="3.72356">
        <ele>63</ele>
        <time>2020-07-01T06:04:06Z</time>
      </trkpt>
      <trkpt lat="49.09885" lon="3.7235">
        <ele>62.9</ele>
        <time>2020-07-01T06:04:07Z</time>
      </trkpt>
      <trkpt lat="49.09883" lon="3.72343">
        <ele>62.9</ele>
        <time>2020-07-01T06:04:08Z</time>
      </trkpt>
      <trkpt lat="49.09881" lon="3.72335">
        <ele>62.8</ele>
        <time>2020-07-01T06:04:09Z</time>
      </trkpt>
      <trkpt lat="49.09879" lon="3.72329">
        <ele>62.8</ele>
        <time>2020-07-01T06:04:10Z</time>
      </trkpt>
      <trkpt lat="49.09878" lon="3.72321">
        <ele>62.8</ele>
        <time>2020-07-01T06:04:11Z</time>
      </trkpt>
      <trkpt lat="49.09876" lon="3.72315">
        <ele>62.8</ele>
        <time>2020-07-01T06:04:12Z</time>
      </trkpt>
      <trkpt lat="49.09874" lon="3.72309">
        <ele>62.9</ele>
        <time>2020-07-01T06:04:13Z</time>
      </trkpt>
      <trkpt lat="49.0987" lon="3.72303">
        <ele>62.9</ele>
        <time>2020-07-01T06:04:14Z</time>
      </trkpt>
      <trkpt lat="49.09868" lon="3.72298">
        <ele>62.9</ele>
        <time>2020-07-01T06:04:15Z</time>
      </trkpt>
      <trkpt lat="49.09866" lon="3.72292">
        <ele>63</ele>
        <time>2020-07-01T06:04:16Z</time>
      </trkpt>
      <trkpt lat="49.09864" lon="3.72287">
        <ele>63</ele>
        <time>2020-07-01T06:04:17Z</time>
      </trkpt>
      <trkpt lat="49.09862" lon="3.72282">
        <ele>63</ele>
        <time>2020-07-01T06:04:18Z</time>
      </trkpt>
      <trkpt lat="49.0986" lon="3.72277">
        <ele>63</ele>
        <time>2020-07-01T06:04:19Z</time>
      </trkpt>
      <trkpt lat="49.09858" lon="3.72272">
        <ele>63.1</ele>
        <time>2020-07-01T06:04:20Z</time>
      </trkpt>
      <trkpt lat="49.09855" lon="3.72269">
        <ele>63.1</ele>
        <time>2020-07-01T06:04:21Z</time>
      </trkpt>
      <trkpt lat="49.09853" lon="3.72263">
        <ele>63</ele>
        <time>2020-07-01T06:04:22Z</time>
      </trkpt>
      <trkpt lat="49.0985" lon="3.72257">
        <ele>63</ele>
        <time>2020-07-01T06:04:23Z</time>
      </trkpt>
      <trkpt lat="49.09848" lon="3.7225">
        <ele>63</ele>
        <time>2020-07-01T06:04:24Z</time>
      </trkpt>
      <trkpt lat="49.09845" lon="3.72243">
        <ele>63</ele>
        <time>2020-07-01T06:04:25Z</time>
      </trkpt>
      <trkpt lat="49.09843" lon="3.72236">
        <ele>63</ele>
        <time>2020-07-01T06:04:26Z</time>
      </trkpt>
      <trkpt lat="49.09841" lon="3.72231">
        <ele>63</ele>
        <time>2020-07-01T06:04:27Z</time>
      </trkpt>
      <trkpt lat="49.09839" lon="3.72225">
        <ele>63.1</ele>
        <time>2020-07-01T06:04:28Z</time>
      </trkpt>
      <trkpt lat="49.09837" lon="3.72219">
        <ele>63.1</ele>
        <time>2020-07-01T06:04:29Z</time>
      </trkpt>
      <trkpt lat="49.09836" lon="3.72213">
        <ele>63.1</ele>
        <time>2020-07-01T06:04:30Z</time>
      </trkpt>
      <trkpt lat="49.09835" lon="3.72207">
        <ele>63.2</ele>
        <time>2020-07-01T06:04:31Z</time>
      </trkpt>
      <trkpt lat="49.09834" lon="3.72199">
        <ele>63.2</ele>
        <time>2020-07-01T06:04:32Z</time>
      </trkpt>
      <trkpt lat="49.09833" lon="3.72192">
        <ele>63.2</ele>
        <time>2020-07-01T06:04:33Z</time>
      </trkpt>
      <trkpt lat="49.09832" lon="3.72186">
        <ele>63.2</ele>
        <time>2020-07-01T06:04:34Z</time>
      </trkpt>
      <trkpt lat="49.09831" lon="3.7218">
        <ele>63.2</ele>
        <time>2020-07-01T06:04:35Z</time>
      </trkpt>
      <trkpt lat="49.0983" lon="3.72173">
        <ele>63.2</ele>
        <time>2020-07-01T06:04:36Z</time>
      </trkpt>
      <trkpt lat="49.09829" lon="3.72165">
        <ele>63.2</ele>
        <time>2020-07-01T06:04:37Z</time>
      </trkpt>
      <trkpt lat="49.09829" lon="3.72158">
        <ele>63.2</ele>
        <time>2020-07-01T06:04:38Z</time>
      </trkpt>
      <trkpt lat="49.09829" lon="3.72151">
        <ele>63.2</ele>
        <time>2020-07-01T06:04:39Z</time>
      </trkpt>
      <trkpt lat="49.09829" lon="3.72144">
        <ele>63.3</ele>
        <time>2020-07-01T06:04:40Z</time>
      </trkpt>
      <trkpt lat="49.09829" lon="3.72136">
        <ele>63.3</ele>
        <time>2020-07-01T06:04:41Z</time>
      </trkpt>
      <trkpt lat="49.0983" lon="3.7213">
        <ele>63.3</ele>
        <time>2020-07-01T06:04:42Z</time>
      </trkpt>
      <trkpt lat="49.09831" lon="3.72123">
        <ele>63.3</ele>
        <time>2020-07-01T06:04:43Z</time>
      </trkpt>
      <trkpt lat="49.09831" lon="3.72117">
        <ele>63.3</ele>
        <time>2020-07-01T06:04:44Z</time>
      </trkpt>
      <trkpt lat="49.09832" lon="3.72111">
        <ele>63.2</ele>
        <time>2020-07-01T06:04:45Z</time>
      </trkpt>
      <trkpt lat="49.09833" lon="3.72103">
        <ele>63.2</ele>
        <time>2020-07-01T06:04:46Z</time>
      </trkpt>
      <trkpt lat="49.09834" lon="3.72095">
        <ele>63.1</ele>
        <time>2020-07-01T06:04:47Z</time>
      </trkpt>
      <trkpt lat="49.09835" lon="3.72088">
        <ele>63.1</ele>
        <time>2020-07-01T06:04:48Z</time>
      </trkpt>
      <trkpt lat="49.09836" lon="3.72081">
        <ele>63.1</ele>
        <time>2020-07-01T06:04:49Z</time>
      </trkpt>
      <trkpt lat="49.09836" lon="3.72074">
        <ele>63.1</ele>
        <time>2020-07-01T06:04:50Z</time>
      </trkpt>
      <trkpt lat="49.09836" lon="3.72066">
        <ele>63.1</ele>
        <time>2020-07-01T06:04:51Z</time>
      </trkpt>
      <trkpt lat="49.09837" lon="3.72058">
        <ele>63.1</ele>
        <time>2020-07-01T06:04:52Z</time>
      </trkpt>
      <trkpt lat="49.09837" lon="3.72051">
        <ele>63.1</ele>
        <time>2020-07-01T06:04:53Z</time>
      </trkpt>
      <trkpt lat="49.09838" lon="3.72044">
        <ele>63.1</ele>
        <time>2020-07-01T06:04:54Z</time>
      </trkpt>
      <trkpt lat="49.09839" lon="3.72037">
        <ele>63.1</ele>
        <time>2020-07-01T06:04:55Z</time>
      </trkpt>
      <trkpt lat="49.09839" lon="3.7203">
        <ele>63.1</ele>
        <time>2020-07-01T06:04:56Z</time>
      </trkpt>
      <trkpt lat="49.09839" lon="3.72024">
        <ele>63.1</ele>
        <time>2020-07-01T06:04:57Z</time>
      </trkpt>
      <trkpt lat="49.0984" lon="3.72017">
        <ele>63.1</ele>
        <time>2020-07-01T06:04:58Z</time>
      </trkpt>
      <trkpt lat="49.09841" lon="3.72009">
        <ele>63.1</ele>
        <time>2020-07-01T06:04:59Z</time>
      </trkpt>
      <trkpt lat="49.09841" lon="3.72003">
        <ele>63.1</ele>
        <time>2020-07-01T06:05:00Z</time>
      </trkpt>
      <trkpt lat="49.09841" lon="3.71997">
        <ele>63.1</ele>
        <time>2020-07-01T06:05:01Z</time>
      </trkpt>
      <trkpt lat="49.09841" lon="3.7199">
        <ele>63.1</ele>
        <time>2020-07-01T06:05:02Z</time>
      </trkpt>
      <trkpt lat="49.09841" lon="3.71983">
        <ele>63.1</ele>
        <time>2020-07-01T06:05:03Z</time>
      </trkpt>
      <trkpt lat="49.09841" lon="3.71976">
        <ele>63.1</ele>
        <time>2020-07-01T06:05:04Z</time>
      </trkpt>
      <trkpt lat="49.09842" lon="3.71968">
        <ele>63.1</ele>
        <time>2020-07-01T06:05:05Z</time>
      </trkpt>
      <trkpt lat="49.09842" lon="3.7196">
        <ele>63.1</ele>
        <time>2020-07-01T06:05:06Z</time>
      </trkpt>
      <trkpt lat="49.09842" lon="3.71952">
        <ele>63.1</ele>
        <time>2020-07-01T06:05:07Z</time>
      </trkpt>
      <trkpt lat="49.09841" lon="3.71946">
        <ele>63.1</ele>
        <time>2020-07-01T06:05:08Z</time>
      </trkpt>
      <trkpt lat="49.0984" lon="3.71939">
        <ele>63.1</ele>
        <time>2020-07-01T06:05:09Z</time>
      </trkpt>
      <trkpt lat="49.0984" lon="3.71932">
        <ele>63.1</ele>
        <time>2020-07-01T06:05:10Z</time>
      </trkpt>
      <trkpt lat="49.09839" lon="3.71925">
        <ele>63.1</ele>
        <time>2020-07-01T06:05:11Z</time>
      </trkpt>
      <trkpt lat="49.09838" lon="3.71918">
        <ele>63.1</ele>
        <time>2020-07-01T06:05:12Z</time>
      </trkpt>
      <trkpt lat="49.09837" lon="3.71911">
        <ele>63.1</ele>
        <time>2020-07-01T06:05:13Z</time>
      </trkpt>
      <trkpt lat="49.09836" lon="3.71903">
        <ele>63.1</ele>
        <time>2020-07-01T06:05:14Z</time>
      </trkpt>
      <trkpt lat="49.09835" lon="3.71896">
        <ele>63.1</ele>
        <time>2020-07-01T06:05:15Z</time>
      </trkpt>
      <trkpt lat="49.09835" lon="3.71888">
        <ele>63.1</ele>
        <time>2020-07-01T06:05:16Z</time>
      </trkpt>
      <trkpt lat="49.09834" lon="3.71881">
        <ele>63.1</ele>
        <time>2020-07-01T06:05:17Z</time>
      </trkpt>
      <trkpt lat="49.09833" lon="3.71874">
        <ele>63.2</ele>
        <time>2020-07-01T06:05:18Z</time>
      </trkpt>
      <trkpt lat="49.09832" lon="3.71866">
        <ele>63.2</ele>
        <time>2020-07-01T06:05:19Z</time>
      </trkpt>
      <trkpt lat="49.09831" lon="3.71859">
        <ele>63.2</ele>
        <time>2020-07-01T06:05:20Z</time>
      </trkpt>
      <trkpt lat="49.0983" lon="3.71852">
        <ele>63.3</ele>
        <time>2020-07-01T06:05:21Z</time>
      </trkpt>
      <trkpt lat="49.0983" lon="3.71845">
        <ele>63.3</ele>
        <time>2020-07-01T06:05:22Z</time>
      </trkpt>
      <trkpt lat="49.09829" lon="3.71838">
        <ele>63.3</ele>
        <time>2020-07-01T06:05:23Z</time>
      </trkpt>
      <trkpt lat="49.09828" lon="3.71831">
        <ele>63.3</ele>
        <time>2020-07-01T06:05:24Z</time>
      </trkpt>
      <trkpt lat="49.09827" lon="3.71824">
        <ele>63.3</ele>
        <time>2020-07-01T06:05:25Z</time>
      </trkpt>
      <trkpt lat="49.09827" lon="3.71816">
        <ele>63.3</ele>
        <time>2020-07-01T06:05:26Z</time>
      </trkpt>
      <trkpt lat="49.09827" lon="3.71809">
        <ele>63.3</ele>
        <time>2020-07-01T06:05:27Z</time>
      </trkpt>
      <trkpt lat="49.09827" lon="3.71801">
        <ele>63.3</ele>
        <time>2020-07-01T06:05:28Z</time>
      </trkpt>
      <trkpt lat="49.09826" lon="3.71793">
        <ele>63.3</ele>
        <time>2020-07-01T06:05:29Z</time>
      </trkpt>
      <trkpt lat="49.09826" lon="3.71787">
        <ele>63.3</ele>
        <time>2020-07-01T06:05:30Z</time>
      </trkpt>
      <trkpt lat="49.09825" lon="3.71779">
        <ele>63.3</ele>
        <time>2020-07-01T06:05:31Z</time>
      </trkpt>
      <trkpt lat="49.09826" lon="3.71772">
        <ele>63.3</ele>
        <time>2020-07-01T06:05:32Z</time>
      </trkpt>
      <trkpt lat="49.09825" lon="3.71766">
        <ele>63.2</ele>
        <time>2020-07-01T06:05:33Z</time>
      </trkpt>
      <trkpt lat="49.09825" lon="3.71759">
        <ele>63.2</ele>
        <time>2020-07-01T06:05:34Z</time>
      </trkpt>
      <trkpt lat="49.09825" lon="3.71751">
        <ele>63.2</ele>
        <time>2020-07-01T06:05:35Z</time>
      </trkpt>
      <trkpt lat="49.09825" lon="3.71744">
        <ele>63.2</ele>
        <time>2020-07-01T06:05:36Z</time>
      </trkpt>
      <trkpt lat="49.09824" lon="3.71736">
        <ele>63.1</ele>
        <time>2020-07-01T06:05:37Z</time>
      </trkpt>
      <trkpt lat="49.09823" lon="3.71728">
        <ele>63.1</ele>
        <time>2020-07-01T06:05:38Z</time>
      </trkpt>
      <trkpt lat="49.09823" lon="3.71721">
        <ele>63</ele>
        <time>2020-07-01T06:05:39Z</time>
      </trkpt>
      <trkpt lat="49.09822" lon="3.71714">
        <ele>63</ele>
        <time>2020-07-01T06:05:40Z</time>
      </trkpt>
      <trkpt lat="49.09821" lon="3.71706">
        <ele>63</ele>
        <time>2020-07-01T06:05:41Z</time>
      </trkpt>
      <trkpt lat="49.09819" lon="3.71699">
        <ele>62.9</ele>
        <time>2020-07-01T06:05:42Z</time>
      </trkpt>
      <trkpt lat="49.09819" lon="3.71692">
        <ele>62.9</ele>
        <time>2020-07-01T06:05:43Z</time>
      </trkpt>
      <trkpt lat="49.09818" lon="3.71685">
        <ele>62.8</ele>
        <time>2020-07-01T06:05:44Z</time>
      </trkpt>
      <trkpt lat="49.09816" lon="3.71678">
        <ele>62.8</ele>
        <time>2020-07-01T06:05:45Z</time>
      </trkpt>
      <trkpt lat="49.09815" lon="3.71673">
        <ele>62.8</ele>
        <time>2020-07-01T06:05:46Z</time>
      </trkpt>
      <trkpt lat="49.09812" lon="3.71666">
        <ele>62.7</ele>
        <time>2020-07-01T06:05:47Z</time>
      </trkpt>
      <trkpt lat="49.0981" lon="3.7166">
        <ele>62.7</ele>
        <time>2020-07-01T06:05:48Z</time>
      </trkpt>
      <trkpt lat="49.09809" lon="3.71653">
        <ele>62.7</ele>
        <time>2020-07-01T06:05:49Z</time>
      </trkpt>
      <trkpt lat="49.09807" lon="3.71645">
        <ele>62.6</ele>
        <time>2020-07-01T06:05:50Z</time>
      </trkpt>
      <trkpt lat="49.09805" lon="3.71638">
        <ele>62.6</ele>
        <time>2020-07-01T06:05:51Z</time>
      </trkpt>
      <trkpt lat="49.09803" lon="3.71631">
        <ele>62.6</ele>
        <time>2020-07-01T06:05:52Z</time>
      </trkpt>
      <trkpt lat="49.09802" lon="3.71625">
        <ele>62.5</ele>
        <time>2020-07-01T06:05:53Z</time>
      </trkpt>
      <trkpt lat="49.09801" lon="3.71618">
        <ele>62.5</ele>
        <time>2020-07-01T06:05:54Z</time>
      </trkpt>
      <trkpt lat="49.09799" lon="3.71609">
        <ele>62.4</ele>
        <time>2020-07-01T06:05:55Z</time>
      </trkpt>
      <trkpt lat="49.09797" lon="3.71601">
        <ele>62.4</ele>
        <time>2020-07-01T06:05:56Z</time>
      </trkpt>
      <trkpt lat="49.09795" lon="3.71594">
        <ele>62.3</ele>
        <time>2020-07-01T06:05:57Z</time>
      </trkpt>
      <trkpt lat="49.09793" lon="3.71586">
        <ele>62.3</ele>
        <time>2020-07-01T06:05:58Z</time>
      </trkpt>
      <trkpt lat="49.09791" lon="3.71579">
        <ele>62.3</ele>
        <time>2020-07-01T06:05:59Z</time>
      </trkpt>
      <trkpt lat="49.09789" lon="3.71573">
        <ele>62.3</ele>
        <time>2020-07-01T06:06:00Z</time>
      </trkpt>
      <trkpt lat="49.09787" lon="3.71565">
        <ele>62.3</ele>
        <time>2020-07-01T06:06:01Z</time>
      </trkpt>
      <trkpt lat="49.09785" lon="3.71558">
        <ele>62.3</ele>
        <time>2020-07-01T06:06:02Z</time>
      </trkpt>
      <trkpt lat="49.09783" lon="3.7155">
        <ele>62.3</ele>
        <time>2020-07-01T06:06:03Z</time>
      </trkpt>
      <trkpt lat="49.09781" lon="3.71543">
        <ele>62.3</ele>
        <time>2020-07-01T06:06:04Z</time>
      </trkpt>
      <trkpt lat="49.09779" lon="3.71537">
        <ele>62.3</ele>
        <time>2020-07-01T06:06:05Z</time>
      </trkpt>
      <trkpt lat="49.09777" lon="3.71531">
        <ele>62.4</ele>
        <time>2020-07-01T06:06:06Z</time>
      </trkpt>
      <trkpt lat="49.09776" lon="3.71525">
        <ele>62.4</ele>
        <time>2020-07-01T06:06:07Z</time>
      </trkpt>
      <trkpt lat="49.09773" lon="3.71519">
        <ele>62.4</ele>
        <time>2020-07-01T06:06:08Z</time>
      </trkpt>
      <trkpt lat="49.09771" lon="3.71514">
        <ele>62.4</ele>
        <time>2020-07-01T06:06:09Z</time>
      </trkpt>
      <trkpt lat="49.09768" lon="3.71506">
        <ele>62.4</ele>
        <time>2020-07-01T06:06:10Z</time>
      </trkpt>
      <trkpt lat="49.09766" lon="3.71498">
        <ele>62.4</ele>
        <time>2020-07-01T06:06:11Z</time>
      </trkpt>
      <trkpt lat="49.09763" lon="3.71491">
        <ele>62.4</ele>
        <time>2020-07-01T06:06:12Z</time>
      </trkpt>
      <trkpt lat="49.09761" lon="3.71485">
        <ele>62.4</ele>
        <time>2020-07-01T06:06:13Z</time>
      </trkpt>
      <trkpt lat="49.09758" lon="3.71478">
        <ele>62.4</ele>
        <time>2020-07-01T06:06:14Z</time>
      </trkpt>
      <trkpt lat="49.09756" lon="3.71471">
        <ele>62.5</ele>
        <time>2020-07-01T06:06:15Z</time>
      </trkpt>
      <trkpt lat="49.09754" lon="3.71465">
        <ele>62.5</ele>
        <time>2020-07-01T06:06:16Z</time>
      </trkpt>
      <trkpt lat="49.09751" lon="3.71458">
        <ele>62.5</ele>
        <time>2020-07-01T06:06:17Z</time>
      </trkpt>
      <trkpt lat="49.09748" lon="3.71451">
        <ele>62.6</ele>
        <time>2020-07-01T06:06:18Z</time>
      </trkpt>
      <trkpt lat="49.09745" lon="3.71446">
        <ele>62.6</ele>
        <time>2020-07-01T06:06:19Z</time>
      </trkpt>
      <trkpt lat="49.09743" lon="3.71438">
        <ele>62.6</ele>
        <time>2020-07-01T06:06:20Z</time>
      </trkpt>
      <trkpt lat="49.09741" lon="3.71431">
        <ele>62.7</ele>
        <time>2020-07-01T06:06:21Z</time>
      </trkpt>
      <trkpt lat="49.09739" lon="3.71426">
        <ele>62.7</ele>
        <time>2020-07-01T06:06:22Z</time>
      </trkpt>
      <trkpt lat="49.09737" lon="3.7142">
        <ele>62.7</ele>
        <time>2020-07-01T06:06:23Z</time>
      </trkpt>
      <trkpt lat="49.09734" lon="3.71414">
        <ele>62.7</ele>
        <time>2020-07-01T06:06:24Z</time>
      </trkpt>
      <trkpt lat="49.09732" lon="3.71408">
        <ele>62.7</ele>
        <time>2020-07-01T06:06:25Z</time>
      </trkpt>
      <trkpt lat="49.09729" lon="3.71402">
        <ele>62.7</ele>
        <time>2020-07-01T06:06:26Z</time>
      </trkpt>
      <trkpt lat="49.09726" lon="3.71396">
        <ele>62.7</ele>
        <time>2020-07-01T06:06:27Z</time>
      </trkpt>
      <trkpt lat="49.09724" lon="3.7139">
        <ele>62.8</ele>
        <time>2020-07-01T06:06:28Z</time>
      </trkpt>
      <trkpt lat="49.09721" lon="3.71385">
        <ele>62.8</ele>
        <time>2020-07-01T06:06:29Z</time>
      </trkpt>
      <trkpt lat="49.09719" lon="3.71377">
        <ele>62.8</ele>
        <time>2020-07-01T06:06:30Z</time>
      </trkpt>
      <trkpt lat="49.09716" lon="3.71371">
        <ele>62.8</ele>
        <time>2020-07-01T06:06:31Z</time>
      </trkpt>
      <trkpt lat="49.09713" lon="3.71365">
        <ele>62.8</ele>
        <time>2020-07-01T06:06:32Z</time>
      </trkpt>
      <trkpt lat="49.0971" lon="3.7136">
        <ele>62.8</ele>
        <time>2020-07-01T06:06:33Z</time>
      </trkpt>
      <trkpt lat="49.09707" lon="3.71356">
        <ele>62.8</ele>
        <time>2020-07-01T06:06:34Z</time>
      </trkpt>
      <trkpt lat="49.09703" lon="3.71353">
        <ele>62.8</ele>
        <time>2020-07-01T06:06:35Z</time>
      </trkpt>
      <trkpt lat="49.09701" lon="3.71352">
        <ele>62.8</ele>
        <time>2020-07-01T06:06:36Z</time>
      </trkpt>
      <trkpt lat="49.09697" lon="3.71349">
        <ele>62.8</ele>
        <time>2020-07-01T06:06:37Z</time>
      </trkpt>
      <trkpt lat="49.09694" lon="3.71345">
        <ele>62.8</ele>
        <time>2020-07-01T06:06:38Z</time>
      </trkpt>
      <trkpt lat="49.09692" lon="3.71339">
        <ele>62.8</ele>
        <time>2020-07-01T06:06:39Z</time>
      </trkpt>
      <trkpt lat="49.0969" lon="3.71333">
        <ele>62.8</ele>
        <time>2020-07-01T06:06:40Z</time>
      </trkpt>
      <trkpt lat="49.09686" lon="3.71327">
        <ele>62.8</ele>
        <time>2020-07-01T06:06:41Z</time>
      </trkpt>
      <trkpt lat="49.09683" lon="3.71322">
        <ele>62.8</ele>
        <time>2020-07-01T06:06:42Z</time>
      </trkpt>
      <trkpt lat="49.09679" lon="3.71316">
        <ele>62.8</ele>
        <time>2020-07-01T06:06:43Z</time>
      </trkpt>
      <trkpt lat="49.09676" lon="3.71312">
        <ele>62.8</ele>
        <time>2020-07-01T06:06:44Z</time>
      </trkpt>
      <trkpt lat="49.09672" lon="3.71307">
        <ele>62.8</ele>
        <time>2020-07-01T06:06:45Z</time>
      </trkpt>
      <trkpt lat="49.09668" lon="3.71301">
        <ele>62.8</ele>
        <time>2020-07-01T06:06:46Z</time>
      </trkpt>
      <trkpt lat="49.09665" lon="3.71296">
        <ele>62.8</ele>
        <time>2020-07-01T06:06:47Z</time>
      </trkpt>
      <trkpt lat="49.09662" lon="3.71291">
        <ele>62.8</ele>
        <time>2020-07-01T06:06:48Z</time>
      </trkpt>
      <trkpt lat="49.09658" lon="3.71287">
        <ele>62.7</ele>
        <time>2020-07-01T06:06:49Z</time>
      </trkpt>
      <trkpt lat="49.09654" lon="3.71282">
        <ele>62.7</ele>
        <time>2020-07-01T06:06:50Z</time>
      </trkpt>
      <trkpt lat="49.0965" lon="3.71278">
        <ele>62.7</ele>
        <time>2020-07-01T06:06:51Z</time>
      </trkpt>
      <trkpt lat="49.09645" lon="3.71273">
        <ele>62.7</ele>
        <time>2020-07-01T06:06:52Z</time>
      </trkpt>
      <trkpt lat="49.09641" lon="3.71269">
        <ele>62.7</ele>
        <time>2020-07-01T06:06:53Z</time>
      </trkpt>
      <trkpt lat="49.09638" lon="3.71264">
        <ele>62.7</ele>
        <time>2020-07-01T06:06:54Z</time>
      </trkpt>
      <trkpt lat="49.09633" lon="3.7126">
        <ele>62.7</ele>
        <time>2020-07-01T06:06:55Z</time>
      </trkpt>
      <trkpt lat="49.09629" lon="3.71255">
        <ele>62.6</ele>
        <time>2020-07-01T06:06:56Z</time>
      </trkpt>
      <trkpt lat="49.09625" lon="3.71251">
        <ele>62.6</ele>
        <time>2020-07-01T06:06:57Z</time>
      </trkpt>
      <trkpt lat="49.0962" lon="3.71245">
        <ele>62.6</ele>
        <time>2020-07-01T06:06:58Z</time>
      </trkpt>
      <trkpt lat="49.09616" lon="3.71241">
        <ele>62.6</ele>
        <time>2020-07-01T06:06:59Z</time>
      </trkpt>
      <trkpt lat="49.09611" lon="3.71236">
        <ele>62.5</ele>
        <time>2020-07-01T06:07:00Z</time>
      </trkpt>
      <trkpt lat="49.09605" lon="3.71232">
        <ele>62.6</ele>
        <time>2020-07-01T06:07:01Z</time>
      </trkpt>
      <trkpt lat="49.09601" lon="3.71227">
        <ele>62.6</ele>
        <time>2020-07-01T06:07:02Z</time>
      </trkpt>
      <trkpt lat="49.09596" lon="3.71223">
        <ele>62.6</ele>
        <time>2020-07-01T06:07:03Z</time>
      </trkpt>
      <trkpt lat="49.09591" lon="3.71219">
        <ele>62.6</ele>
        <time>2020-07-01T06:07:04Z</time>
      </trkpt>
      <trkpt lat="49.09586" lon="3.71213">
        <ele>62.6</ele>
        <time>2020-07-01T06:07:05Z</time>
      </trkpt>
      <trkpt lat="49.09581" lon="3.71208">
        <ele>62.7</ele>
        <time>2020-07-01T06:07:06Z</time>
      </trkpt>
      <trkpt lat="49.09577" lon="3.71204">
        <ele>62.7</ele>
        <time>2020-07-01T06:07:07Z</time>
      </trkpt>
      <trkpt lat="49.09574" lon="3.71201">
        <ele>62.8</ele>
        <time>2020-07-01T06:07:08Z</time>
      </trkpt>
      <trkpt lat="49.09571" lon="3.71198">
        <ele>62.8</ele>
        <time>2020-07-01T06:07:09Z</time>
      </trkpt>
      <trkpt lat="49.09567" lon="3.71195">
        <ele>62.8</ele>
        <time>2020-07-01T06:07:10Z</time>
      </trkpt>
      <trkpt lat="49.09564" lon="3.71191">
        <ele>62.8</ele>
        <time>2020-07-01T06:07:11Z</time>
      </trkpt>
      <trkpt lat="49.09562" lon="3.71188">
        <ele>62.8</ele>
        <time>2020-07-01T06:07:12Z</time>
      </trkpt>
      <trkpt lat="49.09558" lon="3.71184">
        <ele>62.8</ele>
        <time>2020-07-01T06:07:13Z</time>
      </trkpt>
      <trkpt lat="49.09555" lon="3.71179">
        <ele>62.8</ele>
        <time>2020-07-01T06:07:14Z</time>
      </trkpt>
      <trkpt lat="49.09552" lon="3.71176">
        <ele>62.9</ele>
        <time>2020-07-01T06:07:15Z</time>
      </trkpt>
      <trkpt lat="49.09549" lon="3.71171">
        <ele>62.9</ele>
        <time>2020-07-01T06:07:16Z</time>
      </trkpt>
      <trkpt lat="49.09546" lon="3.71168">
        <ele>62.9</ele>
        <time>2020-07-01T06:07:17Z</time>
      </trkpt>
      <trkpt lat="49.09542" lon="3.71165">
        <ele>62.9</ele>
        <time>2020-07-01T06:07:18Z</time>
      </trkpt>
      <trkpt lat="49.09539" lon="3.71161">
        <ele>62.9</ele>
        <time>2020-07-01T06:07:19Z</time>
      </trkpt>
      <trkpt lat="49.09535" lon="3.71157">
        <ele>62.9</ele>
        <time>2020-07-01T06:07:20Z</time>
      </trkpt>
      <trkpt lat="49.0953" lon="3.71154">
        <ele>62.9</ele>
        <time>2020-07-01T06:07:21Z</time>
      </trkpt>
      <trkpt lat="49.09526" lon="3.71151">
        <ele>62.9</ele>
        <time>2020-07-01T06:07:22Z</time>
      </trkpt>
      <trkpt lat="49.09521" lon="3.71147">
        <ele>62.8</ele>
        <time>2020-07-01T06:07:23Z</time>
      </trkpt>
      <trkpt lat="49.09518" lon="3.71145">
        <ele>62.8</ele>
        <time>2020-07-01T06:07:24Z</time>
      </trkpt>
      <trkpt lat="49.09514" lon="3.71141">
        <ele>62.7</ele>
        <time>2020-07-01T06:07:25Z</time>
      </trkpt>
      <trkpt lat="49.0951" lon="3.71138">
        <ele>62.7</ele>
        <time>2020-07-01T06:07:26Z</time>
      </trkpt>
      <trkpt lat="49.09506" lon="3.71135">
        <ele>62.6</ele>
        <time>2020-07-01T06:07:27Z</time>
      </trkpt>
      <trkpt lat="49.09502" lon="3.71134">
        <ele>62.6</ele>
        <time>2020-07-01T06:07:28Z</time>
      </trkpt>
      <trkpt lat="49.09496" lon="3.71133">
        <ele>62.6</ele>
        <time>2020-07-01T06:07:29Z</time>
      </trkpt>
      <trkpt lat="49.09491" lon="3.71128">
        <ele>62.6</ele>
        <time>2020-07-01T06:07:30Z</time>
      </trkpt>
      <trkpt lat="49.09486" lon="3.71124">
        <ele>62.6</ele>
        <time>2020-07-01T06:07:31Z</time>
      </trkpt>
      <trkpt lat="49.09481" lon="3.71119">
        <ele>62.6</ele>
        <time>2020-07-01T06:07:32Z</time>
      </trkpt>
      <trkpt lat="49.09477" lon="3.71114">
        <ele>62.7</ele>
        <time>2020-07-01T06:07:33Z</time>
      </trkpt>
      <trkpt lat="49.09473" lon="3.71111">
        <ele>62.8</ele>
        <time>2020-07-01T06:07:34Z</time>
      </trkpt>
      <trkpt lat="49.0947" lon="3.71106">
        <ele>62.8</ele>
        <time>2020-07-01T06:07:35Z</time>
      </trkpt>
      <trkpt lat="49.09465" lon="3.71101">
        <ele>62.9</ele>
        <time>2020-07-01T06:07:36Z</time>
      </trkpt>
      <trkpt lat="49.09461" lon="3.71096">
        <ele>62.9</ele>
        <time>2020-07-01T06:07:37Z</time>
      </trkpt>
      <trkpt lat="49.09459" lon="3.71092">
        <ele>63</ele>
        <time>2020-07-01T06:07:38Z</time>
      </trkpt>
      <trkpt lat="49.09455" lon="3.71088">
        <ele>63</ele>
        <time>2020-07-01T06:07:39Z</time>
      </trkpt>
      <trkpt lat="49.09453" lon="3.71083">
        <ele>63</ele>
        <time>2020-07-01T06:07:40Z</time>
      </trkpt>
      <trkpt lat="49.0945" lon="3.71078">
        <ele>63</ele>
        <time>2020-07-01T06:07:41Z</time>
      </trkpt>
      <trkpt lat="49.09446" lon="3.71072">
        <ele>63</ele>
        <time>2020-07-01T06:07:42Z</time>
      </trkpt>
      <trkpt lat="49.09443" lon="3.71066">
        <ele>63</ele>
        <time>2020-07-01T06:07:43Z</time>
      </trkpt>
      <trkpt lat="49.0944" lon="3.71061">
        <ele>63</ele>
        <time>2020-07-01T06:07:44Z</time>
      </trkpt>
      <trkpt lat="49.09436" lon="3.71055">
        <ele>63</ele>
        <time>2020-07-01T06:07:45Z</time>
      </trkpt>
      <trkpt lat="49.09434" lon="3.71049">
        <ele>63</ele>
        <time>2020-07-01T06:07:46Z</time>
      </trkpt>
      <trkpt lat="49.09431" lon="3.71043">
        <ele>63</ele>
        <time>2020-07-01T06:07:47Z</time>
      </trkpt>
      <trkpt lat="49.09427" lon="3.71036">
        <ele>63</ele>
        <time>2020-07-01T06:07:48Z</time>
      </trkpt>
      <trkpt lat="49.09425" lon="3.7103">
        <ele>63</ele>
        <time>2020-07-01T06:07:49Z</time>
      </trkpt>
      <trkpt lat="49.09423" lon="3.71025">
        <ele>63</ele>
        <time>2020-07-01T06:07:50Z</time>
      </trkpt>
      <trkpt lat="49.0942" lon="3.71019">
        <ele>63</ele>
        <time>2020-07-01T06:07:51Z</time>
      </trkpt>
      <trkpt lat="49.09418" lon="3.71012">
        <ele>63</ele>
        <time>2020-07-01T06:07:52Z</time>
      </trkpt>
      <trkpt lat="49.09415" lon="3.71006">
        <ele>63</ele>
        <time>2020-07-01T06:07:53Z</time>
      </trkpt>
      <trkpt lat="49.09413" lon="3.70997">
        <ele>63</ele>
        <time>2020-07-01T06:07:54Z</time>
      </trkpt>
      <trkpt lat="49.0941" lon="3.70992">
        <ele>63</ele>
        <time>2020-07-01T06:07:55Z</time>
      </trkpt>
      <trkpt lat="49.09408" lon="3.70985">
        <ele>63</ele>
        <time>2020-07-01T06:07:56Z</time>
      </trkpt>
      <trkpt lat="49.09406" lon="3.70979">
        <ele>63</ele>
        <time>2020-07-01T06:07:57Z</time>
      </trkpt>
      <trkpt lat="49.09404" lon="3.70973">
        <ele>63</ele>
        <time>2020-07-01T06:07:58Z</time>
      </trkpt>
      <trkpt lat="49.09402" lon="3.70967">
        <ele>62.9</ele>
        <time>2020-07-01T06:07:59Z</time>
      </trkpt>
      <trkpt lat="49.094" lon="3.7096">
        <ele>62.9</ele>
        <time>2020-07-01T06:08:00Z</time>
      </trkpt>
      <trkpt lat="49.09398" lon="3.70953">
        <ele>62.9</ele>
        <time>2020-07-01T06:08:01Z</time>
      </trkpt>
      <trkpt lat="49.09397" lon="3.70946">
        <ele>62.9</ele>
        <time>2020-07-01T06:08:02Z</time>
      </trkpt>
      <trkpt lat="49.09396" lon="3.70939">
        <ele>62.8</ele>
        <time>2020-07-01T06:08:03Z</time>
      </trkpt>
      <trkpt lat="49.09394" lon="3.70931">
        <ele>62.8</ele>
        <time>2020-07-01T06:08:04Z</time>
      </trkpt>
      <trkpt lat="49.09392" lon="3.70923">
        <ele>62.8</ele>
        <time>2020-07-01T06:08:05Z</time>
      </trkpt>
      <trkpt lat="49.0939" lon="3.70914">
        <ele>62.8</ele>
        <time>2020-07-01T06:08:06Z</time>
      </trkpt>
      <trkpt lat="49.09388" lon="3.70905">
        <ele>62.8</ele>
        <time>2020-07-01T06:08:07Z</time>
      </trkpt>
      <trkpt lat="49.09385" lon="3.70897">
        <ele>62.8</ele>
        <time>2020-07-01T06:08:08Z</time>
      </trkpt>
      <trkpt lat="49.09382" lon="3.70889">
        <ele>62.8</ele>
        <time>2020-07-01T06:08:09Z</time>
      </trkpt>
      <trkpt lat="49.09378" lon="3.70882">
        <ele>62.8</ele>
        <time>2020-07-01T06:08:10Z</time>
      </trkpt>
      <trkpt lat="49.09375" lon="3.70875">
        <ele>62.8</ele>
        <time>2020-07-01T06:08:11Z</time>
      </trkpt>
      <trkpt lat="49.09371" lon="3.70867">
        <ele>62.8</ele>
        <time>2020-07-01T06:08:12Z</time>
      </trkpt>
      <trkpt lat="49.09367" lon="3.7086">
        <ele>62.8</ele>
        <time>2020-07-01T06:08:13Z</time>
      </trkpt>
      <trkpt lat="49.09364" lon="3.70853">
        <ele>62.8</ele>
        <time>2020-07-01T06:08:14Z</time>
      </trkpt>
      <trkpt lat="49.0936" lon="3.70846">
        <ele>62.9</ele>
        <time>2020-07-01T06:08:15Z</time>
      </trkpt>
      <trkpt lat="49.09357" lon="3.70838">
        <ele>62.9</ele>
        <time>2020-07-01T06:08:16Z</time>
      </trkpt>
      <trkpt lat="49.09354" lon="3.70831">
        <ele>62.9</ele>
        <time>2020-07-01T06:08:17Z</time>
      </trkpt>
      <trkpt lat="49.09351" lon="3.70824">
        <ele>63</ele>
        <time>2020-07-01T06:08:18Z</time>
      </trkpt>
      <trkpt lat="49.09348" lon="3.70817">
        <ele>63</ele>
        <time>2020-07-01T06:08:19Z</time>
      </trkpt>
      <trkpt lat="49.09344" lon="3.7081">
        <ele>63</ele>
        <time>2020-07-01T06:08:20Z</time>
      </trkpt>
      <trkpt lat="49.0934" lon="3.70802">
        <ele>63.1</ele>
        <time>2020-07-01T06:08:21Z</time>
      </trkpt>
      <trkpt lat="49.09337" lon="3.70795">
        <ele>63.1</ele>
        <time>2020-07-01T06:08:22Z</time>
      </trkpt>
      <trkpt lat="49.09333" lon="3.70787">
        <ele>63.2</ele>
        <time>2020-07-01T06:08:23Z</time>
      </trkpt>
      <trkpt lat="49.09331" lon="3.70781">
        <ele>63.2</ele>
        <time>2020-07-01T06:08:24Z</time>
      </trkpt>
      <trkpt lat="49.0933" lon="3.70773">
        <ele>63.3</ele>
        <time>2020-07-01T06:08:25Z</time>
      </trkpt>
      <trkpt lat="49.09328" lon="3.70766">
        <ele>63.3</ele>
        <time>2020-07-01T06:08:26Z</time>
      </trkpt>
      <trkpt lat="49.09325" lon="3.70758">
        <ele>63.4</ele>
        <time>2020-07-01T06:08:27Z</time>
      </trkpt>
      <trkpt lat="49.09322" lon="3.70749">
        <ele>63.4</ele>
        <time>2020-07-01T06:08:28Z</time>
      </trkpt>
      <trkpt lat="49.09319" lon="3.70742">
        <ele>63.4</ele>
        <time>2020-07-01T06:08:29Z</time>
      </trkpt>
      <trkpt lat="49.09316" lon="3.70735">
        <ele>63.4</ele>
        <time>2020-07-01T06:08:30Z</time>
      </trkpt>
      <trkpt lat="49.09313" lon="3.70729">
        <ele>63.4</ele>
        <time>2020-07-01T06:08:31Z</time>
      </trkpt>
      <trkpt lat="49.0931" lon="3.70722">
        <ele>63.5</ele>
        <time>2020-07-01T06:08:32Z</time>
      </trkpt>
      <trkpt lat="49.09307" lon="3.70717">
        <ele>63.5</ele>
        <time>2020-07-01T06:08:33Z</time>
      </trkpt>
      <trkpt lat="49.09303" lon="3.70712">
        <ele>63.5</ele>
        <time>2020-07-01T06:08:34Z</time>
      </trkpt>
      <trkpt lat="49.09299" lon="3.70706">
        <ele>63.5</ele>
        <time>2020-07-01T06:08:35Z</time>
      </trkpt>
      <trkpt lat="49.09295" lon="3.707">
        <ele>63.6</ele>
        <time>2020-07-01T06:08:36Z</time>
      </trkpt>
      <trkpt lat="49.0929" lon="3.70695">
        <ele>63.6</ele>
        <time>2020-07-01T06:08:37Z</time>
      </trkpt>
      <trkpt lat="49.09286" lon="3.70689">
        <ele>63.6</ele>
        <time>2020-07-01T06:08:38Z</time>
      </trkpt>
      <trkpt lat="49.09285" lon="3.70682">
        <ele>63.6</ele>
        <time>2020-07-01T06:08:39Z</time>
      </trkpt>
      <trkpt lat="49.09282" lon="3.70674">
        <ele>63.7</ele>
        <time>2020-07-01T06:08:40Z</time>
      </trkpt>
      <trkpt lat="49.09279" lon="3.70668">
        <ele>63.7</ele>
        <time>2020-07-01T06:08:41Z</time>
      </trkpt>
      <trkpt lat="49.09276" lon="3.70663">
        <ele>63.7</ele>
        <time>2020-07-01T06:08:42Z</time>
      </trkpt>
      <trkpt lat="49.09273" lon="3.70656">
        <ele>63.7</ele>
        <time>2020-07-01T06:08:43Z</time>
      </trkpt>
      <trkpt lat="49.0927" lon="3.70649">
        <ele>63.7</ele>
        <time>2020-07-01T06:08:44Z</time>
      </trkpt>
      <trkpt lat="49.09267" lon="3.70643">
        <ele>63.7</ele>
        <time>2020-07-01T06:08:45Z</time>
      </trkpt>
      <trkpt lat="49.09263" lon="3.70638">
        <ele>63.7</ele>
        <time>2020-07-01T06:08:46Z</time>
      </trkpt>
      <trkpt lat="49.0926" lon="3.70632">
        <ele>63.7</ele>
        <time>2020-07-01T06:08:47Z</time>
      </trkpt>
      <trkpt lat="49.09257" lon="3.70627">
        <ele>63.7</ele>
        <time>2020-07-01T06:08:48Z</time>
      </trkpt>
      <trkpt lat="49.09254" lon="3.70622">
        <ele>63.7</ele>
        <time>2020-07-01T06:08:49Z</time>
      </trkpt>
      <trkpt lat="49.09251" lon="3.70617">
        <ele>63.7</ele>
        <time>2020-07-01T06:08:50Z</time>
      </trkpt>
      <trkpt lat="49.09248" lon="3.70612">
        <ele>63.7</ele>
        <time>2020-07-01T06:08:51Z</time>
      </trkpt>
      <trkpt lat="49.09246" lon="3.70607">
        <ele>63.7</ele>
        <time>2020-07-01T06:08:52Z</time>
      </trkpt>
      <trkpt lat="49.09243" lon="3.70601">
        <ele>63.7</ele>
        <time>2020-07-01T06:08:53Z</time>
      </trkpt>
      <trkpt lat="49.0924" lon="3.70596">
        <ele>63.6</ele>
        <time>2020-07-01T06:08:54Z</time>
      </trkpt>
      <trkpt lat="49.09236" lon="3.7059">
        <ele>63.6</ele>
        <time>2020-07-01T06:08:55Z</time>
      </trkpt>
      <trkpt lat="49.09232" lon="3.70584">
        <ele>63.6</ele>
        <time>2020-07-01T06:08:56Z</time>
      </trkpt>
      <trkpt lat="49.09229" lon="3.70578">
        <ele>63.5</ele>
        <time>2020-07-01T06:08:57Z</time>
      </trkpt>
      <trkpt lat="49.09225" lon="3.70572">
        <ele>63.4</ele>
        <time>2020-07-01T06:08:58Z</time>
      </trkpt>
      <trkpt lat="49.0922" lon="3.70566">
        <ele>63.4</ele>
        <time>2020-07-01T06:08:59Z</time>
      </trkpt>
      <trkpt lat="49.09216" lon="3.7056">
        <ele>63.3</ele>
        <time>2020-07-01T06:09:00Z</time>
      </trkpt>
      <trkpt lat="49.09212" lon="3.70553">
        <ele>63.2</ele>
        <time>2020-07-01T06:09:01Z</time>
      </trkpt>
      <trkpt lat="49.0921" lon="3.70545">
        <ele>63.1</ele>
        <time>2020-07-01T06:09:02Z</time>
      </trkpt>
      <trkpt lat="49.09206" lon="3.70539">
        <ele>63.1</ele>
        <time>2020-07-01T06:09:03Z</time>
      </trkpt>
      <trkpt lat="49.09203" lon="3.70533">
        <ele>63</ele>
        <time>2020-07-01T06:09:04Z</time>
      </trkpt>
      <trkpt lat="49.09199" lon="3.70529">
        <ele>62.9</ele>
        <time>2020-07-01T06:09:05Z</time>
      </trkpt>
      <trkpt lat="49.09195" lon="3.70523">
        <ele>62.9</ele>
        <time>2020-07-01T06:09:06Z</time>
      </trkpt>
      <trkpt lat="49.09191" lon="3.70517">
        <ele>62.8</ele>
        <time>2020-07-01T06:09:07Z</time>
      </trkpt>
      <trkpt lat="49.09188" lon="3.70512">
        <ele>62.7</ele>
        <time>2020-07-01T06:09:08Z</time>
      </trkpt>
      <trkpt lat="49.09185" lon="3.70507">
        <ele>62.7</ele>
        <time>2020-07-01T06:09:09Z</time>
      </trkpt>
      <trkpt lat="49.09182" lon="3.70502">
        <ele>62.7</ele>
        <time>2020-07-01T06:09:10Z</time>
      </trkpt>
      <trkpt lat="49.09178" lon="3.70497">
        <ele>62.6</ele>
        <time>2020-07-01T06:09:11Z</time>
      </trkpt>
      <trkpt lat="49.09174" lon="3.70491">
        <ele>62.6</ele>
        <time>2020-07-01T06:09:12Z</time>
      </trkpt>
      <trkpt lat="49.0917" lon="3.70486">
        <ele>62.6</ele>
        <time>2020-07-01T06:09:13Z</time>
      </trkpt>
      <trkpt lat="49.09166" lon="3.70481">
        <ele>62.6</ele>
        <time>2020-07-01T06:09:14Z</time>
      </trkpt>
      <trkpt lat="49.09163" lon="3.70476">
        <ele>62.6</ele>
        <time>2020-07-01T06:09:15Z</time>
      </trkpt>
      <trkpt lat="49.09161" lon="3.7047">
        <ele>62.6</ele>
        <time>2020-07-01T06:09:16Z</time>
      </trkpt>
      <trkpt lat="49.09158" lon="3.70464">
        <ele>62.6</ele>
        <time>2020-07-01T06:09:17Z</time>
      </trkpt>
      <trkpt lat="49.09154" lon="3.70457">
        <ele>62.6</ele>
        <time>2020-07-01T06:09:18Z</time>
      </trkpt>
      <trkpt lat="49.09151" lon="3.70452">
        <ele>62.6</ele>
        <time>2020-07-01T06:09:19Z</time>
      </trkpt>
      <trkpt lat="49.09148" lon="3.70445">
        <ele>62.6</ele>
        <time>2020-07-01T06:09:20Z</time>
      </trkpt>
      <trkpt lat="49.09144" lon="3.70439">
        <ele>62.6</ele>
        <time>2020-07-01T06:09:21Z</time>
      </trkpt>
      <trkpt lat="49.09141" lon="3.70433">
        <ele>62.7</ele>
        <time>2020-07-01T06:09:22Z</time>
      </trkpt>
      <trkpt lat="49.09137" lon="3.70428">
        <ele>62.7</ele>
        <time>2020-07-01T06:09:23Z</time>
      </trkpt>
      <trkpt lat="49.09133" lon="3.70422">
        <ele>62.7</ele>
        <time>2020-07-01T06:09:24Z</time>
      </trkpt>
      <trkpt lat="49.09129" lon="3.70414">
        <ele>62.7</ele>
        <time>2020-07-01T06:09:25Z</time>
      </trkpt>
      <trkpt lat="49.09125" lon="3.70408">
        <ele>62.7</ele>
        <time>2020-07-01T06:09:26Z</time>
      </trkpt>
      <trkpt lat="49.09122" lon="3.70401">
        <ele>62.7</ele>
        <time>2020-07-01T06:09:27Z</time>
      </trkpt>
      <trkpt lat="49.09118" lon="3.70395">
        <ele>62.7</ele>
        <time>2020-07-01T06:09:28Z</time>
      </trkpt>
      <trkpt lat="49.09114" lon="3.70388">
        <ele>62.6</ele>
        <time>2020-07-01T06:09:29Z</time>
      </trkpt>
      <trkpt lat="49.0911" lon="3.70381">
        <ele>62.6</ele>
        <time>2020-07-01T06:09:30Z</time>
      </trkpt>
      <trkpt lat="49.09106" lon="3.70375">
        <ele>62.6</ele>
        <time>2020-07-01T06:09:31Z</time>
      </trkpt>
      <trkpt lat="49.09103" lon="3.7037">
        <ele>62.6</ele>
        <time>2020-07-01T06:09:32Z</time>
      </trkpt>
      <trkpt lat="49.09099" lon="3.70365">
        <ele>62.6</ele>
        <time>2020-07-01T06:09:33Z</time>
      </trkpt>
      <trkpt lat="49.09096" lon="3.70359">
        <ele>62.6</ele>
        <time>2020-07-01T06:09:34Z</time>
      </trkpt>
      <trkpt lat="49.09093" lon="3.70354">
        <ele>62.6</ele>
        <time>2020-07-01T06:09:35Z</time>
      </trkpt>
      <trkpt lat="49.0909" lon="3.70348">
        <ele>62.6</ele>
        <time>2020-07-01T06:09:36Z</time>
      </trkpt>
      <trkpt lat="49.09088" lon="3.70341">
        <ele>62.6</ele>
        <time>2020-07-01T06:09:37Z</time>
      </trkpt>
      <trkpt lat="49.09086" lon="3.70334">
        <ele>62.6</ele>
        <time>2020-07-01T06:09:38Z</time>
      </trkpt>
      <trkpt lat="49.09084" lon="3.70326">
        <ele>62.6</ele>
        <time>2020-07-01T06:09:39Z</time>
      </trkpt>
      <trkpt lat="49.09082" lon="3.70319">
        <ele>62.7</ele>
        <time>2020-07-01T06:09:40Z</time>
      </trkpt>
      <trkpt lat="49.09079" lon="3.70311">
        <ele>62.7</ele>
        <time>2020-07-01T06:09:41Z</time>
      </trkpt>
      <trkpt lat="49.09077" lon="3.70302">
        <ele>62.7</ele>
        <time>2020-07-01T06:09:42Z</time>
      </trkpt>
      <trkpt lat="49.09074" lon="3.70295">
        <ele>62.8</ele>
        <time>2020-07-01T06:09:43Z</time>
      </trkpt>
      <trkpt lat="49.09072" lon="3.70288">
        <ele>62.8</ele>
        <time>2020-07-01T06:09:44Z</time>
      </trkpt>
      <trkpt lat="49.0907" lon="3.70282">
        <ele>62.9</ele>
        <time>2020-07-01T06:09:45Z</time>
      </trkpt>
      <trkpt lat="49.09068" lon="3.70275">
        <ele>62.9</ele>
        <time>2020-07-01T06:09:46Z</time>
      </trkpt>
      <trkpt lat="49.09066" lon="3.70266">
        <ele>62.9</ele>
        <time>2020-07-01T06:09:47Z</time>
      </trkpt>
      <trkpt lat="49.09065" lon="3.70257">
        <ele>62.9</ele>
        <time>2020-07-01T06:09:48Z</time>
      </trkpt>
      <trkpt lat="49.09064" lon="3.70249">
        <ele>62.9</ele>
        <time>2020-07-01T06:09:49Z</time>
      </trkpt>
      <trkpt lat="49.09064" lon="3.70241">
        <ele>62.9</ele>
        <time>2020-07-01T06:09:50Z</time>
      </trkpt>
      <trkpt lat="49.09063" lon="3.70233">
        <ele>62.9</ele>
        <time>2020-07-01T06:09:51Z</time>
      </trkpt>
      <trkpt lat="49.09063" lon="3.70225">
        <ele>62.9</ele>
        <time>2020-07-01T06:09:52Z</time>
      </trkpt>
      <trkpt lat="49.09064" lon="3.70215">
        <ele>62.9</ele>
        <time>2020-07-01T06:09:53Z</time>
      </trkpt>
      <trkpt lat="49.09064" lon="3.70206">
        <ele>62.9</ele>
        <time>2020-07-01T06:09:54Z</time>
      </trkpt>
      <trkpt lat="49.09063" lon="3.70197">
        <ele>62.9</ele>
        <time>2020-07-01T06:09:55Z</time>
      </trkpt>
      <trkpt lat="49.09063" lon="3.70189">
        <ele>62.9</ele>
        <time>2020-07-01T06:09:56Z</time>
      </trkpt>
      <trkpt lat="49.09062" lon="3.70179">
        <ele>62.9</ele>
        <time>2020-07-01T06:09:57Z</time>
      </trkpt>
      <trkpt lat="49.09062" lon="3.7017">
        <ele>62.9</ele>
        <time>2020-07-01T06:09:58Z</time>
      </trkpt>
      <trkpt lat="49.09061" lon="3.70162">
        <ele>62.9</ele>
        <time>2020-07-01T06:09:59Z</time>
      </trkpt>
      <trkpt lat="49.0906" lon="3.70152">
        <ele>62.9</ele>
        <time>2020-07-01T06:10:00Z</time>
      </trkpt>
      <trkpt lat="49.09059" lon="3.70143">
        <ele>62.9</ele>
        <time>2020-07-01T06:10:01Z</time>
      </trkpt>
      <trkpt lat="49.09058" lon="3.70135">
        <ele>62.9</ele>
        <time>2020-07-01T06:10:02Z</time>
      </trkpt>
      <trkpt lat="49.09057" lon="3.70126">
        <ele>62.9</ele>
        <time>2020-07-01T06:10:03Z</time>
      </trkpt>
      <trkpt lat="49.09055" lon="3.70117">
        <ele>62.9</ele>
        <time>2020-07-01T06:10:04Z</time>
      </trkpt>
      <trkpt lat="49.09055" lon="3.70108">
        <ele>62.9</ele>
        <time>2020-07-01T06:10:05Z</time>
      </trkpt>
      <trkpt lat="49.09054" lon="3.70099">
        <ele>62.9</ele>
        <time>2020-07-01T06:10:06Z</time>
      </trkpt>
      <trkpt lat="49.09053" lon="3.70092">
        <ele>62.9</ele>
        <time>2020-07-01T06:10:07Z</time>
      </trkpt>
      <trkpt lat="49.09052" lon="3.70085">
        <ele>62.9</ele>
        <time>2020-07-01T06:10:08Z</time>
      </trkpt>
      <trkpt lat="49.0905" lon="3.70077">
        <ele>62.9</ele>
        <time>2020-07-01T06:10:09Z</time>
      </trkpt>
      <trkpt lat="49.0905" lon="3.70068">
        <ele>62.9</ele>
        <time>2020-07-01T06:10:10Z</time>
      </trkpt>
      <trkpt lat="49.09047" lon="3.7006">
        <ele>62.9</ele>
        <time>2020-07-01T06:10:11Z</time>
      </trkpt>
      <trkpt lat="49.09046" lon="3.70052">
        <ele>62.9</ele>
        <time>2020-07-01T06:10:12Z</time>
      </trkpt>
      <trkpt lat="49.09043" lon="3.70043">
        <ele>62.9</ele>
        <time>2020-07-01T06:10:13Z</time>
      </trkpt>
      <trkpt lat="49.09041" lon="3.70036">
        <ele>63</ele>
        <time>2020-07-01T06:10:14Z</time>
      </trkpt>
      <trkpt lat="49.09038" lon="3.70029">
        <ele>62.9</ele>
        <time>2020-07-01T06:10:15Z</time>
      </trkpt>
      <trkpt lat="49.09036" lon="3.70022">
        <ele>62.9</ele>
        <time>2020-07-01T06:10:16Z</time>
      </trkpt>
      <trkpt lat="49.09034" lon="3.70015">
        <ele>62.9</ele>
        <time>2020-07-01T06:10:17Z</time>
      </trkpt>
      <trkpt lat="49.09031" lon="3.70008">
        <ele>62.8</ele>
        <time>2020-07-01T06:10:18Z</time>
      </trkpt>
      <trkpt lat="49.09028" lon="3.70001">
        <ele>62.7</ele>
        <time>2020-07-01T06:10:19Z</time>
      </trkpt>
      <trkpt lat="49.09024" lon="3.69995">
        <ele>62.6</ele>
        <time>2020-07-01T06:10:20Z</time>
      </trkpt>
      <trkpt lat="49.09022" lon="3.69987">
        <ele>62.5</ele>
        <time>2020-07-01T06:10:21Z</time>
      </trkpt>
      <trkpt lat="49.09019" lon="3.69979">
        <ele>62.4</ele>
        <time>2020-07-01T06:10:22Z</time>
      </trkpt>
      <trkpt lat="49.09017" lon="3.6997">
        <ele>62.3</ele>
        <time>2020-07-01T06:10:23Z</time>
      </trkpt>
      <trkpt lat="49.09014" lon="3.69963">
        <ele>62.3</ele>
        <time>2020-07-01T06:10:24Z</time>
      </trkpt>
      <trkpt lat="49.09012" lon="3.69955">
        <ele>62.3</ele>
        <time>2020-07-01T06:10:25Z</time>
      </trkpt>
      <trkpt lat="49.0901" lon="3.69947">
        <ele>62.2</ele>
        <time>2020-07-01T06:10:26Z</time>
      </trkpt>
      <trkpt lat="49.09008" lon="3.69939">
        <ele>62.2</ele>
        <time>2020-07-01T06:10:27Z</time>
      </trkpt>
      <trkpt lat="49.09005" lon="3.69932">
        <ele>62.2</ele>
        <time>2020-07-01T06:10:28Z</time>
      </trkpt>
      <trkpt lat="49.09004" lon="3.69924">
        <ele>62.3</ele>
        <time>2020-07-01T06:10:29Z</time>
      </trkpt>
      <trkpt lat="49.09002" lon="3.69916">
        <ele>62.2</ele>
        <time>2020-07-01T06:10:30Z</time>
      </trkpt>
      <trkpt lat="49.09" lon="3.69909">
        <ele>62.2</ele>
        <time>2020-07-01T06:10:31Z</time>
      </trkpt>
      <trkpt lat="49.08998" lon="3.69901">
        <ele>62.2</ele>
        <time>2020-07-01T06:10:32Z</time>
      </trkpt>
      <trkpt lat="49.08997" lon="3.69892">
        <ele>62.2</ele>
        <time>2020-07-01T06:10:33Z</time>
      </trkpt>
      <trkpt lat="49.08996" lon="3.69883">
        <ele>62.2</ele>
        <time>2020-07-01T06:10:34Z</time>
      </trkpt>
      <trkpt lat="49.08994" lon="3.69875">
        <ele>62.2</ele>
        <time>2020-07-01T06:10:35Z</time>
      </trkpt>
      <trkpt lat="49.08993" lon="3.69866">
        <ele>62.2</ele>
        <time>2020-07-01T06:10:36Z</time>
      </trkpt>
      <trkpt lat="49.08992" lon="3.69856">
        <ele>62.2</ele>
        <time>2020-07-01T06:10:37Z</time>
      </trkpt>
      <trkpt lat="49.0899" lon="3.69847">
        <ele>62.2</ele>
        <time>2020-07-01T06:10:38Z</time>
      </trkpt>
      <trkpt lat="49.08989" lon="3.69837">
        <ele>62.3</ele>
        <time>2020-07-01T06:10:39Z</time>
      </trkpt>
      <trkpt lat="49.08987" lon="3.69829">
        <ele>62.3</ele>
        <time>2020-07-01T06:10:40Z</time>
      </trkpt>
      <trkpt lat="49.08986" lon="3.69819">
        <ele>62.3</ele>
        <time>2020-07-01T06:10:41Z</time>
      </trkpt>
      <trkpt lat="49.08984" lon="3.69811">
        <ele>62.3</ele>
        <time>2020-07-01T06:10:42Z</time>
      </trkpt>
      <trkpt lat="49.08983" lon="3.69802">
        <ele>62.3</ele>
        <time>2020-07-01T06:10:43Z</time>
      </trkpt>
      <trkpt lat="49.08983" lon="3.69793">
        <ele>62.4</ele>
        <time>2020-07-01T06:10:44Z</time>
      </trkpt>
      <trkpt lat="49.08982" lon="3.69785">
        <ele>62.4</ele>
        <time>2020-07-01T06:10:45Z</time>
      </trkpt>
      <trkpt lat="49.08982" lon="3.69776">
        <ele>62.4</ele>
        <time>2020-07-01T06:10:46Z</time>
      </trkpt>
      <trkpt lat="49.08981" lon="3.69769">
        <ele>62.4</ele>
        <time>2020-07-01T06:10:47Z</time>
      </trkpt>
      <trkpt lat="49.08981" lon="3.6976">
        <ele>62.4</ele>
        <time>2020-07-01T06:10:48Z</time>
      </trkpt>
      <trkpt lat="49.08981" lon="3.69752">
        <ele>62.4</ele>
        <time>2020-07-01T06:10:49Z</time>
      </trkpt>
      <trkpt lat="49.08981" lon="3.69743">
        <ele>62.4</ele>
        <time>2020-07-01T06:10:50Z</time>
      </trkpt>
      <trkpt lat="49.0898" lon="3.69736">
        <ele>62.4</ele>
        <time>2020-07-01T06:10:51Z</time>
      </trkpt>
      <trkpt lat="49.0898" lon="3.69727">
        <ele>62.4</ele>
        <time>2020-07-01T06:10:52Z</time>
      </trkpt>
      <trkpt lat="49.08979" lon="3.69718">
        <ele>62.3</ele>
        <time>2020-07-01T06:10:53Z</time>
      </trkpt>
      <trkpt lat="49.08978" lon="3.69709">
        <ele>62.3</ele>
        <time>2020-07-01T06:10:54Z</time>
      </trkpt>
      <trkpt lat="49.08978" lon="3.69699">
        <ele>62.2</ele>
        <time>2020-07-01T06:10:55Z</time>
      </trkpt>
      <trkpt lat="49.08977" lon="3.6969">
        <ele>62.1</ele>
        <time>2020-07-01T06:10:56Z</time>
      </trkpt>
      <trkpt lat="49.08977" lon="3.69681">
        <ele>62.1</ele>
        <time>2020-07-01T06:10:57Z</time>
      </trkpt>
      <trkpt lat="49.08976" lon="3.69672">
        <ele>62</ele>
        <time>2020-07-01T06:10:58Z</time>
      </trkpt>
      <trkpt lat="49.08975" lon="3.69662">
        <ele>62</ele>
        <time>2020-07-01T06:10:59Z</time>
      </trkpt>
      <trkpt lat="49.08975" lon="3.69653">
        <ele>62.1</ele>
        <time>2020-07-01T06:11:00Z</time>
      </trkpt>
      <trkpt lat="49.08974" lon="3.69644">
        <ele>62.1</ele>
        <time>2020-07-01T06:11:01Z</time>
      </trkpt>
      <trkpt lat="49.08973" lon="3.69636">
        <ele>62.2</ele>
        <time>2020-07-01T06:11:02Z</time>
      </trkpt>
      <trkpt lat="49.08972" lon="3.69627">
        <ele>62.3</ele>
        <time>2020-07-01T06:11:03Z</time>
      </trkpt>
      <trkpt lat="49.08971" lon="3.69617">
        <ele>62.5</ele>
        <time>2020-07-01T06:11:04Z</time>
      </trkpt>
      <trkpt lat="49.0897" lon="3.69608">
        <ele>62.6</ele>
        <time>2020-07-01T06:11:05Z</time>
      </trkpt>
      <trkpt lat="49.08969" lon="3.696">
        <ele>62.7</ele>
        <time>2020-07-01T06:11:06Z</time>
      </trkpt>
      <trkpt lat="49.08968" lon="3.69592">
        <ele>62.7</ele>
        <time>2020-07-01T06:11:07Z</time>
      </trkpt>
      <trkpt lat="49.08967" lon="3.69585">
        <ele>62.8</ele>
        <time>2020-07-01T06:11:08Z</time>
      </trkpt>
      <trkpt lat="49.08966" lon="3.69579">
        <ele>62.9</ele>
        <time>2020-07-01T06:11:09Z</time>
      </trkpt>
      <trkpt lat="49.08964" lon="3.69572">
        <ele>62.9</ele>
        <time>2020-07-01T06:11:10Z</time>
      </trkpt>
      <trkpt lat="49.08963" lon="3.69565">
        <ele>62.9</ele>
        <time>2020-07-01T06:11:11Z</time>
      </trkpt>
      <trkpt lat="49.08962" lon="3.69558">
        <ele>63</ele>
        <time>2020-07-01T06:11:12Z</time>
      </trkpt>
      <trkpt lat="49.08961" lon="3.6955">
        <ele>63</ele>
        <time>2020-07-01T06:11:13Z</time>
      </trkpt>
      <trkpt lat="49.08959" lon="3.69543">
        <ele>63.1</ele>
        <time>2020-07-01T06:11:14Z</time>
      </trkpt>
      <trkpt lat="49.08957" lon="3.69535">
        <ele>63.2</ele>
        <time>2020-07-01T06:11:15Z</time>
      </trkpt>
      <trkpt lat="49.08955" lon="3.69527">
        <ele>63.2</ele>
        <time>2020-07-01T06:11:16Z</time>
      </trkpt>
      <trkpt lat="49.08953" lon="3.69519">
        <ele>63.3</ele>
        <time>2020-07-01T06:11:17Z</time>
      </trkpt>
      <trkpt lat="49.0895" lon="3.69512">
        <ele>63.3</ele>
        <time>2020-07-01T06:11:18Z</time>
      </trkpt>
      <trkpt lat="49.08948" lon="3.69504">
        <ele>63.3</ele>
        <time>2020-07-01T06:11:19Z</time>
      </trkpt>
      <trkpt lat="49.08946" lon="3.69496">
        <ele>63.3</ele>
        <time>2020-07-01T06:11:20Z</time>
      </trkpt>
      <trkpt lat="49.08943" lon="3.69489">
        <ele>63.3</ele>
        <time>2020-07-01T06:11:21Z</time>
      </trkpt>
      <trkpt lat="49.08941" lon="3.69482">
        <ele>63.3</ele>
        <time>2020-07-01T06:11:22Z</time>
      </trkpt>
      <trkpt lat="49.08939" lon="3.69474">
        <ele>63.3</ele>
        <time>2020-07-01T06:11:23Z</time>
      </trkpt>
      <trkpt lat="49.08936" lon="3.69467">
        <ele>63.2</ele>
        <time>2020-07-01T06:11:24Z</time>
      </trkpt>
      <trkpt lat="49.08935" lon="3.69459">
        <ele>63.2</ele>
        <time>2020-07-01T06:11:25Z</time>
      </trkpt>
      <trkpt lat="49.08932" lon="3.6945">
        <ele>63.1</ele>
        <time>2020-07-01T06:11:26Z</time>
      </trkpt>
      <trkpt lat="49.08928" lon="3.69443">
        <ele>63.1</ele>
        <time>2020-07-01T06:11:27Z</time>
      </trkpt>
      <trkpt lat="49.08926" lon="3.69435">
        <ele>63.1</ele>
        <time>2020-07-01T06:11:28Z</time>
      </trkpt>
      <trkpt lat="49.08924" lon="3.69427">
        <ele>63</ele>
        <time>2020-07-01T06:11:29Z</time>
      </trkpt>
      <trkpt lat="49.08921" lon="3.6942">
        <ele>63</ele>
        <time>2020-07-01T06:11:30Z</time>
      </trkpt>
      <trkpt lat="49.08919" lon="3.69413">
        <ele>63</ele>
        <time>2020-07-01T06:11:31Z</time>
      </trkpt>
      <trkpt lat="49.08916" lon="3.69404">
        <ele>63</ele>
        <time>2020-07-01T06:11:32Z</time>
      </trkpt>
      <trkpt lat="49.08913" lon="3.69396">
        <ele>63</ele>
        <time>2020-07-01T06:11:33Z</time>
      </trkpt>
      <trkpt lat="49.08911" lon="3.69387">
        <ele>63</ele>
        <time>2020-07-01T06:11:34Z</time>
      </trkpt>
      <trkpt lat="49.08909" lon="3.69379">
        <ele>63</ele>
        <time>2020-07-01T06:11:35Z</time>
      </trkpt>
      <trkpt lat="49.08905" lon="3.69372">
        <ele>63</ele>
        <time>2020-07-01T06:11:36Z</time>
      </trkpt>
      <trkpt lat="49.08902" lon="3.69364">
        <ele>63</ele>
        <time>2020-07-01T06:11:37Z</time>
      </trkpt>
      <trkpt lat="49.08899" lon="3.69357">
        <ele>63</ele>
        <time>2020-07-01T06:11:38Z</time>
      </trkpt>
      <trkpt lat="49.08896" lon="3.69348">
        <ele>63</ele>
        <time>2020-07-01T06:11:39Z</time>
      </trkpt>
      <trkpt lat="49.08892" lon="3.69341">
        <ele>63</ele>
        <time>2020-07-01T06:11:40Z</time>
      </trkpt>
      <trkpt lat="49.08889" lon="3.69337">
        <ele>63</ele>
        <time>2020-07-01T06:11:41Z</time>
      </trkpt>
      <trkpt lat="49.08886" lon="3.69329">
        <ele>63</ele>
        <time>2020-07-01T06:11:42Z</time>
      </trkpt>
      <trkpt lat="49.08883" lon="3.69323">
        <ele>63</ele>
        <time>2020-07-01T06:11:43Z</time>
      </trkpt>
      <trkpt lat="49.08879" lon="3.69317">
        <ele>63</ele>
        <time>2020-07-01T06:11:44Z</time>
      </trkpt>
      <trkpt lat="49.08876" lon="3.69309">
        <ele>63</ele>
        <time>2020-07-01T06:11:45Z</time>
      </trkpt>
      <trkpt lat="49.08873" lon="3.69304">
        <ele>63</ele>
        <time>2020-07-01T06:11:46Z</time>
      </trkpt>
      <trkpt lat="49.08871" lon="3.69298">
        <ele>63</ele>
        <time>2020-07-01T06:11:47Z</time>
      </trkpt>
      <trkpt lat="49.08868" lon="3.69292">
        <ele>62.9</ele>
        <time>2020-07-01T06:11:48Z</time>
      </trkpt>
      <trkpt lat="49.08866" lon="3.69289">
        <ele>62.9</ele>
        <time>2020-07-01T06:11:49Z</time>
      </trkpt>
      <trkpt lat="49.08864" lon="3.69283">
        <ele>62.9</ele>
        <time>2020-07-01T06:11:50Z</time>
      </trkpt>
      <trkpt lat="49.08861" lon="3.69278">
        <ele>62.9</ele>
        <time>2020-07-01T06:11:51Z</time>
      </trkpt>
      <trkpt lat="49.08858" lon="3.69274">
        <ele>62.9</ele>
        <time>2020-07-01T06:11:52Z</time>
      </trkpt>
      <trkpt lat="49.08855" lon="3.69268">
        <ele>62.9</ele>
        <time>2020-07-01T06:11:53Z</time>
      </trkpt>
      <trkpt lat="49.08853" lon="3.69264">
        <ele>62.9</ele>
        <time>2020-07-01T06:11:54Z</time>
      </trkpt>
      <trkpt lat="49.08851" lon="3.6926">
        <ele>62.9</ele>
        <time>2020-07-01T06:11:55Z</time>
      </trkpt>
      <trkpt lat="49.08849" lon="3.69255">
        <ele>62.8</ele>
        <time>2020-07-01T06:11:56Z</time>
      </trkpt>
      <trkpt lat="49.08847" lon="3.69249">
        <ele>62.8</ele>
        <time>2020-07-01T06:11:57Z</time>
      </trkpt>
      <trkpt lat="49.08845" lon="3.69243">
        <ele>62.8</ele>
        <time>2020-07-01T06:11:58Z</time>
      </trkpt>
      <trkpt lat="49.08842" lon="3.69239">
        <ele>62.8</ele>
        <time>2020-07-01T06:11:59Z</time>
      </trkpt>
      <trkpt lat="49.08839" lon="3.69233">
        <ele>62.7</ele>
        <time>2020-07-01T06:12:00Z</time>
      </trkpt>
      <trkpt lat="49.08836" lon="3.69226">
        <ele>62.7</ele>
        <time>2020-07-01T06:12:01Z</time>
      </trkpt>
      <trkpt lat="49.08834" lon="3.69219">
        <ele>62.6</ele>
        <time>2020-07-01T06:12:02Z</time>
      </trkpt>
      <trkpt lat="49.08831" lon="3.6921">
        <ele>62.6</ele>
        <time>2020-07-01T06:12:03Z</time>
      </trkpt>
      <trkpt lat="49.08828" lon="3.69201">
        <ele>62.5</ele>
        <time>2020-07-01T06:12:04Z</time>
      </trkpt>
      <trkpt lat="49.08826" lon="3.69193">
        <ele>62.5</ele>
        <time>2020-07-01T06:12:05Z</time>
      </trkpt>
      <trkpt lat="49.08823" lon="3.69185">
        <ele>62.5</ele>
        <time>2020-07-01T06:12:06Z</time>
      </trkpt>
      <trkpt lat="49.08821" lon="3.69176">
        <ele>62.5</ele>
        <time>2020-07-01T06:12:07Z</time>
      </trkpt>
      <trkpt lat="49.08818" lon="3.69167">
        <ele>62.4</ele>
        <time>2020-07-01T06:12:08Z</time>
      </trkpt>
      <trkpt lat="49.08815" lon="3.69159">
        <ele>62.4</ele>
        <time>2020-07-01T06:12:09Z</time>
      </trkpt>
      <trkpt lat="49.08813" lon="3.69151">
        <ele>62.4</ele>
        <time>2020-07-01T06:12:10Z</time>
      </trkpt>
      <trkpt lat="49.08811" lon="3.69143">
        <ele>62.4</ele>
        <time>2020-07-01T06:12:11Z</time>
      </trkpt>
      <trkpt lat="49.08809" lon="3.69136">
        <ele>62.4</ele>
        <time>2020-07-01T06:12:12Z</time>
      </trkpt>
      <trkpt lat="49.08808" lon="3.69129">
        <ele>62.4</ele>
        <time>2020-07-01T06:12:13Z</time>
      </trkpt>
      <trkpt lat="49.08807" lon="3.6912">
        <ele>62.4</ele>
        <time>2020-07-01T06:12:14Z</time>
      </trkpt>
      <trkpt lat="49.08806" lon="3.69113">
        <ele>62.4</ele>
        <time>2020-07-01T06:12:15Z</time>
      </trkpt>
      <trkpt lat="49.08806" lon="3.69106">
        <ele>62.4</ele>
        <time>2020-07-01T06:12:16Z</time>
      </trkpt>
      <trkpt lat="49.08806" lon="3.691">
        <ele>62.4</ele>
        <time>2020-07-01T06:12:17Z</time>
      </trkpt>
      <trkpt lat="49.08807" lon="3.69092">
        <ele>62.4</ele>
        <time>2020-07-01T06:12:18Z</time>
      </trkpt>
      <trkpt lat="49.08807" lon="3.69085">
        <ele>62.4</ele>
        <time>2020-07-01T06:12:19Z</time>
      </trkpt>
      <trkpt lat="49.08807" lon="3.69078">
        <ele>62.4</ele>
        <time>2020-07-01T06:12:20Z</time>
      </trkpt>
      <trkpt lat="49.08807" lon="3.6907">
        <ele>62.3</ele>
        <time>2020-07-01T06:12:21Z</time>
      </trkpt>
      <trkpt lat="49.08807" lon="3.69063">
        <ele>62.3</ele>
        <time>2020-07-01T06:12:22Z</time>
      </trkpt>
      <trkpt lat="49.08807" lon="3.69055">
        <ele>62.2</ele>
        <time>2020-07-01T06:12:23Z</time>
      </trkpt>
      <trkpt lat="49.08807" lon="3.69046">
        <ele>62.2</ele>
        <time>2020-07-01T06:12:24Z</time>
      </trkpt>
      <trkpt lat="49.08807" lon="3.6904">
        <ele>62.2</ele>
        <time>2020-07-01T06:12:25Z</time>
      </trkpt>
      <trkpt lat="49.08808" lon="3.69033">
        <ele>62.2</ele>
        <time>2020-07-01T06:12:26Z</time>
      </trkpt>
      <trkpt lat="49.08808" lon="3.69026">
        <ele>62.2</ele>
        <time>2020-07-01T06:12:27Z</time>
      </trkpt>
      <trkpt lat="49.08808" lon="3.69018">
        <ele>62.2</ele>
        <time>2020-07-01T06:12:28Z</time>
      </trkpt>
      <trkpt lat="49.08809" lon="3.6901">
        <ele>62.2</ele>
        <time>2020-07-01T06:12:29Z</time>
      </trkpt>
      <trkpt lat="49.08809" lon="3.69">
        <ele>62.2</ele>
        <time>2020-07-01T06:12:30Z</time>
      </trkpt>
      <trkpt lat="49.0881" lon="3.68989">
        <ele>62.2</ele>
        <time>2020-07-01T06:12:31Z</time>
      </trkpt>
      <trkpt lat="49.08812" lon="3.68981">
        <ele>62.1</ele>
        <time>2020-07-01T06:12:32Z</time>
      </trkpt>
      <trkpt lat="49.08814" lon="3.68968">
        <ele>62.1</ele>
        <time>2020-07-01T06:12:33Z</time>
      </trkpt>
      <trkpt lat="49.08816" lon="3.68959">
        <ele>62.1</ele>
        <time>2020-07-01T06:12:34Z</time>
      </trkpt>
      <trkpt lat="49.08818" lon="3.68949">
        <ele>62</ele>
        <time>2020-07-01T06:12:35Z</time>
      </trkpt>
      <trkpt lat="49.08821" lon="3.68942">
        <ele>62</ele>
        <time>2020-07-01T06:12:36Z</time>
      </trkpt>
      <trkpt lat="49.08824" lon="3.68935">
        <ele>62</ele>
        <time>2020-07-01T06:12:37Z</time>
      </trkpt>
      <trkpt lat="49.08825" lon="3.68926">
        <ele>62</ele>
        <time>2020-07-01T06:12:38Z</time>
      </trkpt>
      <trkpt lat="49.08827" lon="3.68915">
        <ele>62</ele>
        <time>2020-07-01T06:12:39Z</time>
      </trkpt>
      <trkpt lat="49.08829" lon="3.68905">
        <ele>62</ele>
        <time>2020-07-01T06:12:40Z</time>
      </trkpt>
      <trkpt lat="49.08832" lon="3.68895">
        <ele>61.9</ele>
        <time>2020-07-01T06:12:41Z</time>
      </trkpt>
      <trkpt lat="49.08834" lon="3.68886">
        <ele>61.9</ele>
        <time>2020-07-01T06:12:42Z</time>
      </trkpt>
      <trkpt lat="49.08836" lon="3.68876">
        <ele>62</ele>
        <time>2020-07-01T06:12:43Z</time>
      </trkpt>
      <trkpt lat="49.08838" lon="3.68867">
        <ele>62</ele>
        <time>2020-07-01T06:12:44Z</time>
      </trkpt>
      <trkpt lat="49.08839" lon="3.68859">
        <ele>62</ele>
        <time>2020-07-01T06:12:45Z</time>
      </trkpt>
      <trkpt lat="49.08841" lon="3.68851">
        <ele>62</ele>
        <time>2020-07-01T06:12:46Z</time>
      </trkpt>
      <trkpt lat="49.08843" lon="3.68841">
        <ele>62</ele>
        <time>2020-07-01T06:12:47Z</time>
      </trkpt>
      <trkpt lat="49.08845" lon="3.68833">
        <ele>62</ele>
        <time>2020-07-01T06:12:48Z</time>
      </trkpt>
      <trkpt lat="49.08848" lon="3.68825">
        <ele>62</ele>
        <time>2020-07-01T06:12:49Z</time>
      </trkpt>
      <trkpt lat="49.0885" lon="3.68818">
        <ele>62</ele>
        <time>2020-07-01T06:12:50Z</time>
      </trkpt>
      <trkpt lat="49.08853" lon="3.6881">
        <ele>62</ele>
        <time>2020-07-01T06:12:51Z</time>
      </trkpt>
      <trkpt lat="49.08855" lon="3.68804">
        <ele>62</ele>
        <time>2020-07-01T06:12:52Z</time>
      </trkpt>
      <trkpt lat="49.08857" lon="3.68798">
        <ele>62.1</ele>
        <time>2020-07-01T06:12:53Z</time>
      </trkpt>
      <trkpt lat="49.08859" lon="3.68792">
        <ele>62.1</ele>
        <time>2020-07-01T06:12:54Z</time>
      </trkpt>
      <trkpt lat="49.0886" lon="3.68785">
        <ele>62.1</ele>
        <time>2020-07-01T06:12:55Z</time>
      </trkpt>
      <trkpt lat="49.08862" lon="3.68776">
        <ele>62.2</ele>
        <time>2020-07-01T06:12:56Z</time>
      </trkpt>
      <trkpt lat="49.08865" lon="3.68768">
        <ele>62.2</ele>
        <time>2020-07-01T06:12:57Z</time>
      </trkpt>
      <trkpt lat="49.08868" lon="3.6876">
        <ele>62.3</ele>
        <time>2020-07-01T06:12:58Z</time>
      </trkpt>
      <trkpt lat="49.0887" lon="3.68752">
        <ele>62.4</ele>
        <time>2020-07-01T06:12:59Z</time>
      </trkpt>
      <trkpt lat="49.08873" lon="3.68745">
        <ele>62.4</ele>
        <time>2020-07-01T06:13:00Z</time>
      </trkpt>
      <trkpt lat="49.08876" lon="3.68736">
        <ele>62.4</ele>
        <time>2020-07-01T06:13:01Z</time>
      </trkpt>
      <trkpt lat="49.08879" lon="3.68729">
        <ele>62.5</ele>
        <time>2020-07-01T06:13:02Z</time>
      </trkpt>
      <trkpt lat="49.0888" lon="3.68719">
        <ele>62.5</ele>
        <time>2020-07-01T06:13:03Z</time>
      </trkpt>
      <trkpt lat="49.08882" lon="3.68711">
        <ele>62.5</ele>
        <time>2020-07-01T06:13:04Z</time>
      </trkpt>
      <trkpt lat="49.08885" lon="3.68701">
        <ele>62.6</ele>
        <time>2020-07-01T06:13:05Z</time>
      </trkpt>
      <trkpt lat="49.08887" lon="3.68692">
        <ele>62.6</ele>
        <time>2020-07-01T06:13:06Z</time>
      </trkpt>
      <trkpt lat="49.08889" lon="3.68683">
        <ele>62.6</ele>
        <time>2020-07-01T06:13:07Z</time>
      </trkpt>
      <trkpt lat="49.08891" lon="3.68675">
        <ele>62.7</ele>
        <time>2020-07-01T06:13:08Z</time>
      </trkpt>
      <trkpt lat="49.08892" lon="3.68666">
        <ele>62.7</ele>
        <time>2020-07-01T06:13:09Z</time>
      </trkpt>
      <trkpt lat="49.08892" lon="3.68657">
        <ele>62.7</ele>
        <time>2020-07-01T06:13:10Z</time>
      </trkpt>
      <trkpt lat="49.08893" lon="3.68647">
        <ele>62.7</ele>
        <time>2020-07-01T06:13:11Z</time>
      </trkpt>
      <trkpt lat="49.08893" lon="3.68638">
        <ele>62.8</ele>
        <time>2020-07-01T06:13:12Z</time>
      </trkpt>
      <trkpt lat="49.08894" lon="3.68628">
        <ele>62.8</ele>
        <time>2020-07-01T06:13:13Z</time>
      </trkpt>
      <trkpt lat="49.08894" lon="3.68619">
        <ele>62.8</ele>
        <time>2020-07-01T06:13:14Z</time>
      </trkpt>
      <trkpt lat="49.08893" lon="3.68609">
        <ele>62.9</ele>
        <time>2020-07-01T06:13:15Z</time>
      </trkpt>
      <trkpt lat="49.08893" lon="3.68601">
        <ele>62.9</ele>
        <time>2020-07-01T06:13:16Z</time>
      </trkpt>
      <trkpt lat="49.08892" lon="3.68593">
        <ele>62.9</ele>
        <time>2020-07-01T06:13:17Z</time>
      </trkpt>
      <trkpt lat="49.08891" lon="3.68585">
        <ele>62.9</ele>
        <time>2020-07-01T06:13:18Z</time>
      </trkpt>
      <trkpt lat="49.0889" lon="3.68576">
        <ele>62.9</ele>
        <time>2020-07-01T06:13:19Z</time>
      </trkpt>
      <trkpt lat="49.0889" lon="3.68567">
        <ele>62.9</ele>
        <time>2020-07-01T06:13:20Z</time>
      </trkpt>
      <trkpt lat="49.08889" lon="3.68559">
        <ele>62.9</ele>
        <time>2020-07-01T06:13:21Z</time>
      </trkpt>
      <trkpt lat="49.08888" lon="3.68551">
        <ele>62.9</ele>
        <time>2020-07-01T06:13:22Z</time>
      </trkpt>
      <trkpt lat="49.08888" lon="3.68543">
        <ele>62.9</ele>
        <time>2020-07-01T06:13:23Z</time>
      </trkpt>
      <trkpt lat="49.08887" lon="3.68534">
        <ele>62.9</ele>
        <time>2020-07-01T06:13:24Z</time>
      </trkpt>
      <trkpt lat="49.08887" lon="3.68526">
        <ele>62.9</ele>
        <time>2020-07-01T06:13:25Z</time>
      </trkpt>
      <trkpt lat="49.08886" lon="3.68518">
        <ele>62.9</ele>
        <time>2020-07-01T06:13:26Z</time>
      </trkpt>
      <trkpt lat="49.08885" lon="3.68509">
        <ele>62.8</ele>
        <time>2020-07-01T06:13:27Z</time>
      </trkpt>
      <trkpt lat="49.08884" lon="3.68501">
        <ele>62.8</ele>
        <time>2020-07-01T06:13:28Z</time>
      </trkpt>
      <trkpt lat="49.08882" lon="3.68493">
        <ele>62.8</ele>
        <time>2020-07-01T06:13:29Z</time>
      </trkpt>
      <trkpt lat="49.0888" lon="3.68485">
        <ele>62.8</ele>
        <time>2020-07-01T06:13:30Z</time>
      </trkpt>
      <trkpt lat="49.08878" lon="3.68478">
        <ele>62.9</ele>
        <time>2020-07-01T06:13:31Z</time>
      </trkpt>
      <trkpt lat="49.08875" lon="3.68473">
        <ele>62.9</ele>
        <time>2020-07-01T06:13:32Z</time>
      </trkpt>
      <trkpt lat="49.08872" lon="3.68466">
        <ele>62.8</ele>
        <time>2020-07-01T06:13:33Z</time>
      </trkpt>
      <trkpt lat="49.08869" lon="3.68458">
        <ele>62.8</ele>
        <time>2020-07-01T06:13:34Z</time>
      </trkpt>
      <trkpt lat="49.08866" lon="3.68451">
        <ele>62.8</ele>
        <time>2020-07-01T06:13:35Z</time>
      </trkpt>
      <trkpt lat="49.08862" lon="3.68444">
        <ele>62.8</ele>
        <time>2020-07-01T06:13:36Z</time>
      </trkpt>
      <trkpt lat="49.08859" lon="3.68437">
        <ele>62.7</ele>
        <time>2020-07-01T06:13:37Z</time>
      </trkpt>
      <trkpt lat="49.08854" lon="3.68431">
        <ele>62.7</ele>
        <time>2020-07-01T06:13:38Z</time>
      </trkpt>
      <trkpt lat="49.08851" lon="3.68425">
        <ele>62.7</ele>
        <time>2020-07-01T06:13:39Z</time>
      </trkpt>
      <trkpt lat="49.08848" lon="3.68418">
        <ele>62.6</ele>
        <time>2020-07-01T06:13:40Z</time>
      </trkpt>
      <trkpt lat="49.08844" lon="3.68412">
        <ele>62.5</ele>
        <time>2020-07-01T06:13:41Z</time>
      </trkpt>
      <trkpt lat="49.0884" lon="3.68406">
        <ele>62.4</ele>
        <time>2020-07-01T06:13:42Z</time>
      </trkpt>
      <trkpt lat="49.08836" lon="3.68399">
        <ele>62.3</ele>
        <time>2020-07-01T06:13:43Z</time>
      </trkpt>
      <trkpt lat="49.08831" lon="3.68393">
        <ele>62.2</ele>
        <time>2020-07-01T06:13:44Z</time>
      </trkpt>
      <trkpt lat="49.08827" lon="3.68388">
        <ele>62.2</ele>
        <time>2020-07-01T06:13:45Z</time>
      </trkpt>
      <trkpt lat="49.08822" lon="3.68382">
        <ele>62.1</ele>
        <time>2020-07-01T06:13:46Z</time>
      </trkpt>
      <trkpt lat="49.08818" lon="3.68376">
        <ele>62.1</ele>
        <time>2020-07-01T06:13:47Z</time>
      </trkpt>
      <trkpt lat="49.08814" lon="3.68371">
        <ele>62.1</ele>
        <time>2020-07-01T06:13:48Z</time>
      </trkpt>
      <trkpt lat="49.0881" lon="3.68366">
        <ele>62.2</ele>
        <time>2020-07-01T06:13:49Z</time>
      </trkpt>
      <trkpt lat="49.08805" lon="3.68363">
        <ele>62.2</ele>
        <time>2020-07-01T06:13:50Z</time>
      </trkpt>
      <trkpt lat="49.088" lon="3.68359">
        <ele>62.2</ele>
        <time>2020-07-01T06:13:51Z</time>
      </trkpt>
      <trkpt lat="49.08795" lon="3.68355">
        <ele>62.2</ele>
        <time>2020-07-01T06:13:52Z</time>
      </trkpt>
      <trkpt lat="49.08791" lon="3.6835">
        <ele>62.3</ele>
        <time>2020-07-01T06:13:53Z</time>
      </trkpt>
      <trkpt lat="49.08786" lon="3.68346">
        <ele>62.3</ele>
        <time>2020-07-01T06:13:54Z</time>
      </trkpt>
      <trkpt lat="49.08781" lon="3.68342">
        <ele>62.4</ele>
        <time>2020-07-01T06:13:55Z</time>
      </trkpt>
      <trkpt lat="49.08777" lon="3.68338">
        <ele>62.5</ele>
        <time>2020-07-01T06:13:56Z</time>
      </trkpt>
      <trkpt lat="49.08772" lon="3.68334">
        <ele>62.5</ele>
        <time>2020-07-01T06:13:57Z</time>
      </trkpt>
      <trkpt lat="49.08769" lon="3.68329">
        <ele>62.6</ele>
        <time>2020-07-01T06:13:58Z</time>
      </trkpt>
      <trkpt lat="49.08765" lon="3.68324">
        <ele>62.7</ele>
        <time>2020-07-01T06:13:59Z</time>
      </trkpt>
      <trkpt lat="49.0876" lon="3.68316">
        <ele>62.8</ele>
        <time>2020-07-01T06:14:00Z</time>
      </trkpt>
      <trkpt lat="49.08756" lon="3.68311">
        <ele>62.9</ele>
        <time>2020-07-01T06:14:01Z</time>
      </trkpt>
      <trkpt lat="49.08752" lon="3.68306">
        <ele>63</ele>
        <time>2020-07-01T06:14:02Z</time>
      </trkpt>
      <trkpt lat="49.08749" lon="3.68303">
        <ele>63</ele>
        <time>2020-07-01T06:14:03Z</time>
      </trkpt>
      <trkpt lat="49.08745" lon="3.68297">
        <ele>63.1</ele>
        <time>2020-07-01T06:14:04Z</time>
      </trkpt>
      <trkpt lat="49.08741" lon="3.68292">
        <ele>63.1</ele>
        <time>2020-07-01T06:14:05Z</time>
      </trkpt>
      <trkpt lat="49.08737" lon="3.68286">
        <ele>63.1</ele>
        <time>2020-07-01T06:14:06Z</time>
      </trkpt>
      <trkpt lat="49.08733" lon="3.68281">
        <ele>63.2</ele>
        <time>2020-07-01T06:14:07Z</time>
      </trkpt>
      <trkpt lat="49.0873" lon="3.68275">
        <ele>63.2</ele>
        <time>2020-07-01T06:14:08Z</time>
      </trkpt>
      <trkpt lat="49.08726" lon="3.6827">
        <ele>63.2</ele>
        <time>2020-07-01T06:14:09Z</time>
      </trkpt>
      <trkpt lat="49.08722" lon="3.68263">
        <ele>63.2</ele>
        <time>2020-07-01T06:14:10Z</time>
      </trkpt>
      <trkpt lat="49.08717" lon="3.68256">
        <ele>63.1</ele>
        <time>2020-07-01T06:14:11Z</time>
      </trkpt>
      <trkpt lat="49.08714" lon="3.6825">
        <ele>63.1</ele>
        <time>2020-07-01T06:14:12Z</time>
      </trkpt>
      <trkpt lat="49.08711" lon="3.68243">
        <ele>63.1</ele>
        <time>2020-07-01T06:14:13Z</time>
      </trkpt>
      <trkpt lat="49.08709" lon="3.68234">
        <ele>63.1</ele>
        <time>2020-07-01T06:14:14Z</time>
      </trkpt>
      <trkpt lat="49.08707" lon="3.68226">
        <ele>63.1</ele>
        <time>2020-07-01T06:14:15Z</time>
      </trkpt>
      <trkpt lat="49.08706" lon="3.68219">
        <ele>63.1</ele>
        <time>2020-07-01T06:14:16Z</time>
      </trkpt>
      <trkpt lat="49.08703" lon="3.68211">
        <ele>63.1</ele>
        <time>2020-07-01T06:14:17Z</time>
      </trkpt>
      <trkpt lat="49.08701" lon="3.68205">
        <ele>63</ele>
        <time>2020-07-01T06:14:18Z</time>
      </trkpt>
      <trkpt lat="49.08698" lon="3.68197">
        <ele>63</ele>
        <time>2020-07-01T06:14:19Z</time>
      </trkpt>
      <trkpt lat="49.08696" lon="3.68189">
        <ele>63</ele>
        <time>2020-07-01T06:14:20Z</time>
      </trkpt>
      <trkpt lat="49.08693" lon="3.68181">
        <ele>63</ele>
        <time>2020-07-01T06:14:21Z</time>
      </trkpt>
      <trkpt lat="49.08689" lon="3.68174">
        <ele>62.9</ele>
        <time>2020-07-01T06:14:22Z</time>
      </trkpt>
      <trkpt lat="49.08686" lon="3.68166">
        <ele>62.9</ele>
        <time>2020-07-01T06:14:23Z</time>
      </trkpt>
      <trkpt lat="49.08683" lon="3.68158">
        <ele>62.9</ele>
        <time>2020-07-01T06:14:24Z</time>
      </trkpt>
      <trkpt lat="49.0868" lon="3.68149">
        <ele>62.9</ele>
        <time>2020-07-01T06:14:25Z</time>
      </trkpt>
      <trkpt lat="49.08678" lon="3.68141">
        <ele>62.8</ele>
        <time>2020-07-01T06:14:26Z</time>
      </trkpt>
      <trkpt lat="49.08675" lon="3.68134">
        <ele>62.8</ele>
        <time>2020-07-01T06:14:27Z</time>
      </trkpt>
      <trkpt lat="49.08672" lon="3.68127">
        <ele>62.8</ele>
        <time>2020-07-01T06:14:28Z</time>
      </trkpt>
      <trkpt lat="49.08668" lon="3.6812">
        <ele>62.7</ele>
        <time>2020-07-01T06:14:29Z</time>
      </trkpt>
      <trkpt lat="49.08666" lon="3.68112">
        <ele>62.7</ele>
        <time>2020-07-01T06:14:30Z</time>
      </trkpt>
      <trkpt lat="49.08662" lon="3.68106">
        <ele>62.6</ele>
        <time>2020-07-01T06:14:31Z</time>
      </trkpt>
      <trkpt lat="49.08659" lon="3.68098">
        <ele>62.6</ele>
        <time>2020-07-01T06:14:32Z</time>
      </trkpt>
      <trkpt lat="49.08656" lon="3.68092">
        <ele>62.6</ele>
        <time>2020-07-01T06:14:33Z</time>
      </trkpt>
      <trkpt lat="49.08653" lon="3.68085">
        <ele>62.6</ele>
        <time>2020-07-01T06:14:34Z</time>
      </trkpt>
      <trkpt lat="49.0865" lon="3.68077">
        <ele>62.5</ele>
        <time>2020-07-01T06:14:35Z</time>
      </trkpt>
      <trkpt lat="49.08646" lon="3.6807">
        <ele>62.5</ele>
        <time>2020-07-01T06:14:36Z</time>
      </trkpt>
      <trkpt lat="49.08643" lon="3.68063">
        <ele>62.5</ele>
        <time>2020-07-01T06:14:37Z</time>
      </trkpt>
      <trkpt lat="49.08639" lon="3.68055">
        <ele>62.5</ele>
        <time>2020-07-01T06:14:38Z</time>
      </trkpt>
      <trkpt lat="49.08636" lon="3.68048">
        <ele>62.5</ele>
        <time>2020-07-01T06:14:39Z</time>
      </trkpt>
      <trkpt lat="49.08632" lon="3.68041">
        <ele>62.5</ele>
        <time>2020-07-01T06:14:40Z</time>
      </trkpt>
      <trkpt lat="49.08628" lon="3.68034">
        <ele>62.5</ele>
        <time>2020-07-01T06:14:41Z</time>
      </trkpt>
      <trkpt lat="49.08624" lon="3.68026">
        <ele>62.5</ele>
        <time>2020-07-01T06:14:42Z</time>
      </trkpt>
      <trkpt lat="49.08621" lon="3.68019">
        <ele>62.5</ele>
        <time>2020-07-01T06:14:43Z</time>
      </trkpt>
      <trkpt lat="49.08616" lon="3.68012">
        <ele>62.5</ele>
        <time>2020-07-01T06:14:44Z</time>
      </trkpt>
      <trkpt lat="49.08613" lon="3.68004">
        <ele>62.5</ele>
        <time>2020-07-01T06:14:45Z</time>
      </trkpt>
      <trkpt lat="49.0861" lon="3.67998">
        <ele>62.5</ele>
        <time>2020-07-01T06:14:46Z</time>
      </trkpt>
      <trkpt lat="49.08607" lon="3.6799">
        <ele>62.5</ele>
        <time>2020-07-01T06:14:47Z</time>
      </trkpt>
      <trkpt lat="49.08603" lon="3.67983">
        <ele>62.5</ele>
        <time>2020-07-01T06:14:48Z</time>
      </trkpt>
      <trkpt lat="49.086" lon="3.67976">
        <ele>62.5</ele>
        <time>2020-07-01T06:14:49Z</time>
      </trkpt>
      <trkpt lat="49.08597" lon="3.67969">
        <ele>62.5</ele>
        <time>2020-07-01T06:14:50Z</time>
      </trkpt>
      <trkpt lat="49.08593" lon="3.67961">
        <ele>62.5</ele>
        <time>2020-07-01T06:14:51Z</time>
      </trkpt>
      <trkpt lat="49.0859" lon="3.67955">
        <ele>62.5</ele>
        <time>2020-07-01T06:14:52Z</time>
      </trkpt>
      <trkpt lat="49.08588" lon="3.67946">
        <ele>62.5</ele>
        <time>2020-07-01T06:14:53Z</time>
      </trkpt>
      <trkpt lat="49.08585" lon="3.67939">
        <ele>62.5</ele>
        <time>2020-07-01T06:14:54Z</time>
      </trkpt>
      <trkpt lat="49.08583" lon="3.6793">
        <ele>62.4</ele>
        <time>2020-07-01T06:14:55Z</time>
      </trkpt>
      <trkpt lat="49.08581" lon="3.67921">
        <ele>62.4</ele>
        <time>2020-07-01T06:14:56Z</time>
      </trkpt>
      <trkpt lat="49.08579" lon="3.67913">
        <ele>62.4</ele>
        <time>2020-07-01T06:14:57Z</time>
      </trkpt>
      <trkpt lat="49.08578" lon="3.67903">
        <ele>62.4</ele>
        <time>2020-07-01T06:14:58Z</time>
      </trkpt>
      <trkpt lat="49.08577" lon="3.67893">
        <ele>62.5</ele>
        <time>2020-07-01T06:14:59Z</time>
      </trkpt>
      <trkpt lat="49.08576" lon="3.67884">
        <ele>62.5</ele>
        <time>2020-07-01T06:15:00Z</time>
      </trkpt>
      <trkpt lat="49.08575" lon="3.67874">
        <ele>62.5</ele>
        <time>2020-07-01T06:15:01Z</time>
      </trkpt>
      <trkpt lat="49.08575" lon="3.67864">
        <ele>62.5</ele>
        <time>2020-07-01T06:15:02Z</time>
      </trkpt>
      <trkpt lat="49.08575" lon="3.67855">
        <ele>62.5</ele>
        <time>2020-07-01T06:15:03Z</time>
      </trkpt>
      <trkpt lat="49.08575" lon="3.67847">
        <ele>62.6</ele>
        <time>2020-07-01T06:15:04Z</time>
      </trkpt>
      <trkpt lat="49.08575" lon="3.67836">
        <ele>62.6</ele>
        <time>2020-07-01T06:15:05Z</time>
      </trkpt>
      <trkpt lat="49.08575" lon="3.67827">
        <ele>62.6</ele>
        <time>2020-07-01T06:15:06Z</time>
      </trkpt>
      <trkpt lat="49.08575" lon="3.67818">
        <ele>62.7</ele>
        <time>2020-07-01T06:15:07Z</time>
      </trkpt>
      <trkpt lat="49.08576" lon="3.67807">
        <ele>62.7</ele>
        <time>2020-07-01T06:15:08Z</time>
      </trkpt>
      <trkpt lat="49.08577" lon="3.67797">
        <ele>62.7</ele>
        <time>2020-07-01T06:15:09Z</time>
      </trkpt>
      <trkpt lat="49.08579" lon="3.67788">
        <ele>62.7</ele>
        <time>2020-07-01T06:15:10Z</time>
      </trkpt>
      <trkpt lat="49.0858" lon="3.67778">
        <ele>62.7</ele>
        <time>2020-07-01T06:15:11Z</time>
      </trkpt>
      <trkpt lat="49.08583" lon="3.6777">
        <ele>62.8</ele>
        <time>2020-07-01T06:15:12Z</time>
      </trkpt>
      <trkpt lat="49.08586" lon="3.67762">
        <ele>62.8</ele>
        <time>2020-07-01T06:15:13Z</time>
      </trkpt>
      <trkpt lat="49.08587" lon="3.67755">
        <ele>62.8</ele>
        <time>2020-07-01T06:15:14Z</time>
      </trkpt>
      <trkpt lat="49.08589" lon="3.67747">
        <ele>62.8</ele>
        <time>2020-07-01T06:15:15Z</time>
      </trkpt>
      <trkpt lat="49.08591" lon="3.6774">
        <ele>62.9</ele>
        <time>2020-07-01T06:15:16Z</time>
      </trkpt>
      <trkpt lat="49.08594" lon="3.67732">
        <ele>62.9</ele>
        <time>2020-07-01T06:15:17Z</time>
      </trkpt>
      <trkpt lat="49.08597" lon="3.67724">
        <ele>62.9</ele>
        <time>2020-07-01T06:15:18Z</time>
      </trkpt>
      <trkpt lat="49.08599" lon="3.67716">
        <ele>62.9</ele>
        <time>2020-07-01T06:15:19Z</time>
      </trkpt>
      <trkpt lat="49.08603" lon="3.67708">
        <ele>62.9</ele>
        <time>2020-07-01T06:15:20Z</time>
      </trkpt>
      <trkpt lat="49.08606" lon="3.677">
        <ele>62.9</ele>
        <time>2020-07-01T06:15:21Z</time>
      </trkpt>
      <trkpt lat="49.08609" lon="3.67692">
        <ele>62.9</ele>
        <time>2020-07-01T06:15:22Z</time>
      </trkpt>
      <trkpt lat="49.08613" lon="3.67683">
        <ele>62.9</ele>
        <time>2020-07-01T06:15:23Z</time>
      </trkpt>
      <trkpt lat="49.08616" lon="3.67676">
        <ele>62.9</ele>
        <time>2020-07-01T06:15:24Z</time>
      </trkpt>
      <trkpt lat="49.08619" lon="3.67668">
        <ele>62.9</ele>
        <time>2020-07-01T06:15:25Z</time>
      </trkpt>
      <trkpt lat="49.08624" lon="3.67661">
        <ele>62.9</ele>
        <time>2020-07-01T06:15:26Z</time>
      </trkpt>
      <trkpt lat="49.08628" lon="3.67653">
        <ele>62.9</ele>
        <time>2020-07-01T06:15:27Z</time>
      </trkpt>
      <trkpt lat="49.08632" lon="3.67646">
        <ele>62.9</ele>
        <time>2020-07-01T06:15:28Z</time>
      </trkpt>
      <trkpt lat="49.08635" lon="3.67639">
        <ele>62.9</ele>
        <time>2020-07-01T06:15:29Z</time>
      </trkpt>
      <trkpt lat="49.08639" lon="3.67633">
        <ele>63</ele>
        <time>2020-07-01T06:15:30Z</time>
      </trkpt>
      <trkpt lat="49.08643" lon="3.67627">
        <ele>63</ele>
        <time>2020-07-01T06:15:31Z</time>
      </trkpt>
      <trkpt lat="49.08646" lon="3.67621">
        <ele>63</ele>
        <time>2020-07-01T06:15:32Z</time>
      </trkpt>
      <trkpt lat="49.08649" lon="3.67615">
        <ele>63</ele>
        <time>2020-07-01T06:15:33Z</time>
      </trkpt>
      <trkpt lat="49.08652" lon="3.67609">
        <ele>63</ele>
        <time>2020-07-01T06:15:34Z</time>
      </trkpt>
      <trkpt lat="49.08656" lon="3.67601">
        <ele>62.9</ele>
        <time>2020-07-01T06:15:35Z</time>
      </trkpt>
      <trkpt lat="49.0866" lon="3.67594">
        <ele>62.9</ele>
        <time>2020-07-01T06:15:36Z</time>
      </trkpt>
      <trkpt lat="49.08664" lon="3.67588">
        <ele>62.9</ele>
        <time>2020-07-01T06:15:37Z</time>
      </trkpt>
      <trkpt lat="49.08668" lon="3.67581">
        <ele>62.9</ele>
        <time>2020-07-01T06:15:38Z</time>
      </trkpt>
      <trkpt lat="49.08671" lon="3.67574">
        <ele>62.9</ele>
        <time>2020-07-01T06:15:39Z</time>
      </trkpt>
      <trkpt lat="49.08675" lon="3.67567">
        <ele>62.9</ele>
        <time>2020-07-01T06:15:40Z</time>
      </trkpt>
      <trkpt lat="49.08678" lon="3.6756">
        <ele>62.9</ele>
        <time>2020-07-01T06:15:41Z</time>
      </trkpt>
      <trkpt lat="49.08681" lon="3.67553">
        <ele>62.9</ele>
        <time>2020-07-01T06:15:42Z</time>
      </trkpt>
      <trkpt lat="49.08685" lon="3.67545">
        <ele>62.9</ele>
        <time>2020-07-01T06:15:43Z</time>
      </trkpt>
      <trkpt lat="49.08689" lon="3.67538">
        <ele>62.9</ele>
        <time>2020-07-01T06:15:44Z</time>
      </trkpt>
      <trkpt lat="49.08692" lon="3.6753">
        <ele>62.9</ele>
        <time>2020-07-01T06:15:45Z</time>
      </trkpt>
      <trkpt lat="49.08696" lon="3.67521">
        <ele>62.9</ele>
        <time>2020-07-01T06:15:46Z</time>
      </trkpt>
      <trkpt lat="49.08699" lon="3.67513">
        <ele>62.9</ele>
        <time>2020-07-01T06:15:47Z</time>
      </trkpt>
      <trkpt lat="49.08703" lon="3.67505">
        <ele>62.9</ele>
        <time>2020-07-01T06:15:48Z</time>
      </trkpt>
      <trkpt lat="49.08706" lon="3.67497">
        <ele>62.9</ele>
        <time>2020-07-01T06:15:49Z</time>
      </trkpt>
      <trkpt lat="49.08709" lon="3.67489">
        <ele>62.9</ele>
        <time>2020-07-01T06:15:50Z</time>
      </trkpt>
      <trkpt lat="49.08713" lon="3.67481">
        <ele>63</ele>
        <time>2020-07-01T06:15:51Z</time>
      </trkpt>
      <trkpt lat="49.08716" lon="3.67474">
        <ele>63</ele>
        <time>2020-07-01T06:15:52Z</time>
      </trkpt>
      <trkpt lat="49.08719" lon="3.67466">
        <ele>63</ele>
        <time>2020-07-01T06:15:53Z</time>
      </trkpt>
      <trkpt lat="49.08723" lon="3.67459">
        <ele>63.1</ele>
        <time>2020-07-01T06:15:54Z</time>
      </trkpt>
      <trkpt lat="49.08725" lon="3.67452">
        <ele>63.2</ele>
        <time>2020-07-01T06:15:55Z</time>
      </trkpt>
      <trkpt lat="49.08728" lon="3.67445">
        <ele>63.2</ele>
        <time>2020-07-01T06:15:56Z</time>
      </trkpt>
      <trkpt lat="49.0873" lon="3.67438">
        <ele>63.3</ele>
        <time>2020-07-01T06:15:57Z</time>
      </trkpt>
      <trkpt lat="49.08733" lon="3.67432">
        <ele>63.4</ele>
        <time>2020-07-01T06:15:58Z</time>
      </trkpt>
      <trkpt lat="49.08736" lon="3.67425">
        <ele>63.5</ele>
        <time>2020-07-01T06:15:59Z</time>
      </trkpt>
      <trkpt lat="49.08738" lon="3.67418">
        <ele>63.5</ele>
        <time>2020-07-01T06:16:00Z</time>
      </trkpt>
      <trkpt lat="49.0874" lon="3.6741">
        <ele>63.6</ele>
        <time>2020-07-01T06:16:01Z</time>
      </trkpt>
      <trkpt lat="49.08743" lon="3.67402">
        <ele>63.6</ele>
        <time>2020-07-01T06:16:02Z</time>
      </trkpt>
      <trkpt lat="49.08745" lon="3.67394">
        <ele>63.6</ele>
        <time>2020-07-01T06:16:03Z</time>
      </trkpt>
      <trkpt lat="49.08748" lon="3.67386">
        <ele>63.6</ele>
        <time>2020-07-01T06:16:04Z</time>
      </trkpt>
      <trkpt lat="49.0875" lon="3.67378">
        <ele>63.6</ele>
        <time>2020-07-01T06:16:05Z</time>
      </trkpt>
      <trkpt lat="49.08753" lon="3.67368">
        <ele>63.5</ele>
        <time>2020-07-01T06:16:06Z</time>
      </trkpt>
      <trkpt lat="49.08755" lon="3.6736">
        <ele>63.5</ele>
        <time>2020-07-01T06:16:07Z</time>
      </trkpt>
      <trkpt lat="49.08757" lon="3.67352">
        <ele>63.5</ele>
        <time>2020-07-01T06:16:08Z</time>
      </trkpt>
      <trkpt lat="49.08758" lon="3.67343">
        <ele>63.5</ele>
        <time>2020-07-01T06:16:09Z</time>
      </trkpt>
      <trkpt lat="49.08759" lon="3.67334">
        <ele>63.4</ele>
        <time>2020-07-01T06:16:10Z</time>
      </trkpt>
      <trkpt lat="49.08761" lon="3.67324">
        <ele>63.4</ele>
        <time>2020-07-01T06:16:11Z</time>
      </trkpt>
      <trkpt lat="49.08762" lon="3.67315">
        <ele>63.4</ele>
        <time>2020-07-01T06:16:12Z</time>
      </trkpt>
      <trkpt lat="49.08763" lon="3.67307">
        <ele>63.3</ele>
        <time>2020-07-01T06:16:13Z</time>
      </trkpt>
      <trkpt lat="49.08764" lon="3.67298">
        <ele>63.2</ele>
        <time>2020-07-01T06:16:14Z</time>
      </trkpt>
      <trkpt lat="49.08765" lon="3.6729">
        <ele>63.2</ele>
        <time>2020-07-01T06:16:15Z</time>
      </trkpt>
      <trkpt lat="49.08766" lon="3.67281">
        <ele>63.1</ele>
        <time>2020-07-01T06:16:16Z</time>
      </trkpt>
      <trkpt lat="49.08767" lon="3.67271">
        <ele>63.1</ele>
        <time>2020-07-01T06:16:17Z</time>
      </trkpt>
      <trkpt lat="49.08768" lon="3.67261">
        <ele>63</ele>
        <time>2020-07-01T06:16:18Z</time>
      </trkpt>
      <trkpt lat="49.08769" lon="3.67251">
        <ele>63</ele>
        <time>2020-07-01T06:16:19Z</time>
      </trkpt>
      <trkpt lat="49.08771" lon="3.67242">
        <ele>63</ele>
        <time>2020-07-01T06:16:20Z</time>
      </trkpt>
      <trkpt lat="49.08772" lon="3.67232">
        <ele>63</ele>
        <time>2020-07-01T06:16:21Z</time>
      </trkpt>
      <trkpt lat="49.08773" lon="3.67222">
        <ele>63</ele>
        <time>2020-07-01T06:16:22Z</time>
      </trkpt>
      <trkpt lat="49.08774" lon="3.67213">
        <ele>63</ele>
        <time>2020-07-01T06:16:23Z</time>
      </trkpt>
      <trkpt lat="49.08775" lon="3.67204">
        <ele>63</ele>
        <time>2020-07-01T06:16:24Z</time>
      </trkpt>
      <trkpt lat="49.08777" lon="3.67196">
        <ele>63</ele>
        <time>2020-07-01T06:16:25Z</time>
      </trkpt>
      <trkpt lat="49.08779" lon="3.67188">
        <ele>63.1</ele>
        <time>2020-07-01T06:16:26Z</time>
      </trkpt>
      <trkpt lat="49.08781" lon="3.67178">
        <ele>63.1</ele>
        <time>2020-07-01T06:16:27Z</time>
      </trkpt>
      <trkpt lat="49.08783" lon="3.67169">
        <ele>63.1</ele>
        <time>2020-07-01T06:16:28Z</time>
      </trkpt>
      <trkpt lat="49.08784" lon="3.6716">
        <ele>63.2</ele>
        <time>2020-07-01T06:16:29Z</time>
      </trkpt>
      <trkpt lat="49.08785" lon="3.67152">
        <ele>63.2</ele>
        <time>2020-07-01T06:16:30Z</time>
      </trkpt>
      <trkpt lat="49.08787" lon="3.67144">
        <ele>63.2</ele>
        <time>2020-07-01T06:16:31Z</time>
      </trkpt>
      <trkpt lat="49.08789" lon="3.67134">
        <ele>63.2</ele>
        <time>2020-07-01T06:16:32Z</time>
      </trkpt>
      <trkpt lat="49.0879" lon="3.67124">
        <ele>63.2</ele>
        <time>2020-07-01T06:16:33Z</time>
      </trkpt>
      <trkpt lat="49.08792" lon="3.67115">
        <ele>63.2</ele>
        <time>2020-07-01T06:16:34Z</time>
      </trkpt>
      <trkpt lat="49.08793" lon="3.67107">
        <ele>63.2</ele>
        <time>2020-07-01T06:16:35Z</time>
      </trkpt>
      <trkpt lat="49.08795" lon="3.67098">
        <ele>63.2</ele>
        <time>2020-07-01T06:16:36Z</time>
      </trkpt>
      <trkpt lat="49.08797" lon="3.67089">
        <ele>63.2</ele>
        <time>2020-07-01T06:16:37Z</time>
      </trkpt>
      <trkpt lat="49.08799" lon="3.67081">
        <ele>63.3</ele>
        <time>2020-07-01T06:16:38Z</time>
      </trkpt>
      <trkpt lat="49.08801" lon="3.67074">
        <ele>63.3</ele>
        <time>2020-07-01T06:16:39Z</time>
      </trkpt>
      <trkpt lat="49.08802" lon="3.67066">
        <ele>63.3</ele>
        <time>2020-07-01T06:16:40Z</time>
      </trkpt>
      <trkpt lat="49.08804" lon="3.67056">
        <ele>63.3</ele>
        <time>2020-07-01T06:16:41Z</time>
      </trkpt>
      <trkpt lat="49.08805" lon="3.67048">
        <ele>63.4</ele>
        <time>2020-07-01T06:16:42Z</time>
      </trkpt>
      <trkpt lat="49.08806" lon="3.6704">
        <ele>63.4</ele>
        <time>2020-07-01T06:16:43Z</time>
      </trkpt>
      <trkpt lat="49.08808" lon="3.6703">
        <ele>63.5</ele>
        <time>2020-07-01T06:16:44Z</time>
      </trkpt>
      <trkpt lat="49.0881" lon="3.6702">
        <ele>63.6</ele>
        <time>2020-07-01T06:16:45Z</time>
      </trkpt>
      <trkpt lat="49.08811" lon="3.67011">
        <ele>63.6</ele>
        <time>2020-07-01T06:16:46Z</time>
      </trkpt>
      <trkpt lat="49.08812" lon="3.67003">
        <ele>63.7</ele>
        <time>2020-07-01T06:16:47Z</time>
      </trkpt>
      <trkpt lat="49.08813" lon="3.66994">
        <ele>63.7</ele>
        <time>2020-07-01T06:16:48Z</time>
      </trkpt>
      <trkpt lat="49.08816" lon="3.66985">
        <ele>63.8</ele>
        <time>2020-07-01T06:16:49Z</time>
      </trkpt>
      <trkpt lat="49.08817" lon="3.66977">
        <ele>63.8</ele>
        <time>2020-07-01T06:16:50Z</time>
      </trkpt>
      <trkpt lat="49.0882" lon="3.66967">
        <ele>63.9</ele>
        <time>2020-07-01T06:16:51Z</time>
      </trkpt>
      <trkpt lat="49.08821" lon="3.66959">
        <ele>63.9</ele>
        <time>2020-07-01T06:16:52Z</time>
      </trkpt>
      <trkpt lat="49.08822" lon="3.66951">
        <ele>63.9</ele>
        <time>2020-07-01T06:16:53Z</time>
      </trkpt>
      <trkpt lat="49.08824" lon="3.66943">
        <ele>63.9</ele>
        <time>2020-07-01T06:16:54Z</time>
      </trkpt>
      <trkpt lat="49.08825" lon="3.66934">
        <ele>63.9</ele>
        <time>2020-07-01T06:16:55Z</time>
      </trkpt>
      <trkpt lat="49.08827" lon="3.66925">
        <ele>63.9</ele>
        <time>2020-07-01T06:16:56Z</time>
      </trkpt>
      <trkpt lat="49.08828" lon="3.66916">
        <ele>63.9</ele>
        <time>2020-07-01T06:16:57Z</time>
      </trkpt>
      <trkpt lat="49.0883" lon="3.66907">
        <ele>63.9</ele>
        <time>2020-07-01T06:16:58Z</time>
      </trkpt>
      <trkpt lat="49.08831" lon="3.66898">
        <ele>64</ele>
        <time>2020-07-01T06:16:59Z</time>
      </trkpt>
      <trkpt lat="49.08832" lon="3.66889">
        <ele>64</ele>
        <time>2020-07-01T06:17:00Z</time>
      </trkpt>
      <trkpt lat="49.08833" lon="3.66881">
        <ele>64</ele>
        <time>2020-07-01T06:17:01Z</time>
      </trkpt>
      <trkpt lat="49.08834" lon="3.66874">
        <ele>64</ele>
        <time>2020-07-01T06:17:02Z</time>
      </trkpt>
      <trkpt lat="49.08835" lon="3.66867">
        <ele>64</ele>
        <time>2020-07-01T06:17:03Z</time>
      </trkpt>
      <trkpt lat="49.08837" lon="3.66858">
        <ele>63.9</ele>
        <time>2020-07-01T06:17:04Z</time>
      </trkpt>
      <trkpt lat="49.08838" lon="3.6685">
        <ele>63.9</ele>
        <time>2020-07-01T06:17:05Z</time>
      </trkpt>
      <trkpt lat="49.08839" lon="3.66843">
        <ele>63.8</ele>
        <time>2020-07-01T06:17:06Z</time>
      </trkpt>
      <trkpt lat="49.08841" lon="3.66835">
        <ele>63.8</ele>
        <time>2020-07-01T06:17:07Z</time>
      </trkpt>
      <trkpt lat="49.08842" lon="3.66826">
        <ele>63.8</ele>
        <time>2020-07-01T06:17:08Z</time>
      </trkpt>
      <trkpt lat="49.08842" lon="3.66817">
        <ele>63.8</ele>
        <time>2020-07-01T06:17:09Z</time>
      </trkpt>
      <trkpt lat="49.08844" lon="3.66808">
        <ele>63.8</ele>
        <time>2020-07-01T06:17:10Z</time>
      </trkpt>
      <trkpt lat="49.08845" lon="3.66799">
        <ele>63.8</ele>
        <time>2020-07-01T06:17:11Z</time>
      </trkpt>
      <trkpt lat="49.08846" lon="3.66791">
        <ele>63.8</ele>
        <time>2020-07-01T06:17:12Z</time>
      </trkpt>
      <trkpt lat="49.08848" lon="3.66782">
        <ele>63.9</ele>
        <time>2020-07-01T06:17:13Z</time>
      </trkpt>
      <trkpt lat="49.08849" lon="3.66773">
        <ele>63.9</ele>
        <time>2020-07-01T06:17:14Z</time>
      </trkpt>
      <trkpt lat="49.0885" lon="3.66764">
        <ele>64</ele>
        <time>2020-07-01T06:17:15Z</time>
      </trkpt>
      <trkpt lat="49.0885" lon="3.66756">
        <ele>64</ele>
        <time>2020-07-01T06:17:16Z</time>
      </trkpt>
      <trkpt lat="49.08851" lon="3.66748">
        <ele>64</ele>
        <time>2020-07-01T06:17:17Z</time>
      </trkpt>
      <trkpt lat="49.08852" lon="3.6674">
        <ele>64</ele>
        <time>2020-07-01T06:17:18Z</time>
      </trkpt>
      <trkpt lat="49.08853" lon="3.66732">
        <ele>64.1</ele>
        <time>2020-07-01T06:17:19Z</time>
      </trkpt>
      <trkpt lat="49.08854" lon="3.66723">
        <ele>64.1</ele>
        <time>2020-07-01T06:17:20Z</time>
      </trkpt>
      <trkpt lat="49.08855" lon="3.66716">
        <ele>64</ele>
        <time>2020-07-01T06:17:21Z</time>
      </trkpt>
      <trkpt lat="49.08857" lon="3.66708">
        <ele>64</ele>
        <time>2020-07-01T06:17:22Z</time>
      </trkpt>
      <trkpt lat="49.08859" lon="3.66698">
        <ele>64</ele>
        <time>2020-07-01T06:17:23Z</time>
      </trkpt>
      <trkpt lat="49.0886" lon="3.66689">
        <ele>64</ele>
        <time>2020-07-01T06:17:24Z</time>
      </trkpt>
      <trkpt lat="49.08861" lon="3.6668">
        <ele>64</ele>
        <time>2020-07-01T06:17:25Z</time>
      </trkpt>
      <trkpt lat="49.08863" lon="3.66672">
        <ele>64</ele>
        <time>2020-07-01T06:17:26Z</time>
      </trkpt>
      <trkpt lat="49.08864" lon="3.66663">
        <ele>63.9</ele>
        <time>2020-07-01T06:17:27Z</time>
      </trkpt>
      <trkpt lat="49.08865" lon="3.66656">
        <ele>63.9</ele>
        <time>2020-07-01T06:17:28Z</time>
      </trkpt>
      <trkpt lat="49.08866" lon="3.66648">
        <ele>63.9</ele>
        <time>2020-07-01T06:17:29Z</time>
      </trkpt>
      <trkpt lat="49.08866" lon="3.6664">
        <ele>63.9</ele>
        <time>2020-07-01T06:17:30Z</time>
      </trkpt>
      <trkpt lat="49.08866" lon="3.66633">
        <ele>63.9</ele>
        <time>2020-07-01T06:17:31Z</time>
      </trkpt>
      <trkpt lat="49.08866" lon="3.66626">
        <ele>63.8</ele>
        <time>2020-07-01T06:17:32Z</time>
      </trkpt>
      <trkpt lat="49.08866" lon="3.6662">
        <ele>63.8</ele>
        <time>2020-07-01T06:17:33Z</time>
      </trkpt>
      <trkpt lat="49.08868" lon="3.66612">
        <ele>63.8</ele>
        <time>2020-07-01T06:17:34Z</time>
      </trkpt>
      <trkpt lat="49.0887" lon="3.66604">
        <ele>63.7</ele>
        <time>2020-07-01T06:17:35Z</time>
      </trkpt>
      <trkpt lat="49.08872" lon="3.66595">
        <ele>63.7</ele>
        <time>2020-07-01T06:17:36Z</time>
      </trkpt>
      <trkpt lat="49.08874" lon="3.66588">
        <ele>63.7</ele>
        <time>2020-07-01T06:17:37Z</time>
      </trkpt>
      <trkpt lat="49.08877" lon="3.66581">
        <ele>63.7</ele>
        <time>2020-07-01T06:17:38Z</time>
      </trkpt>
      <trkpt lat="49.0888" lon="3.66574">
        <ele>63.7</ele>
        <time>2020-07-01T06:17:39Z</time>
      </trkpt>
      <trkpt lat="49.08883" lon="3.66566">
        <ele>63.7</ele>
        <time>2020-07-01T06:17:40Z</time>
      </trkpt>
      <trkpt lat="49.08886" lon="3.66557">
        <ele>63.6</ele>
        <time>2020-07-01T06:17:41Z</time>
      </trkpt>
      <trkpt lat="49.08888" lon="3.66548">
        <ele>63.6</ele>
        <time>2020-07-01T06:17:42Z</time>
      </trkpt>
      <trkpt lat="49.08889" lon="3.66539">
        <ele>63.6</ele>
        <time>2020-07-01T06:17:43Z</time>
      </trkpt>
      <trkpt lat="49.08891" lon="3.6653">
        <ele>63.6</ele>
        <time>2020-07-01T06:17:44Z</time>
      </trkpt>
      <trkpt lat="49.08893" lon="3.66523">
        <ele>63.6</ele>
        <time>2020-07-01T06:17:45Z</time>
      </trkpt>
      <trkpt lat="49.08895" lon="3.66516">
        <ele>63.6</ele>
        <time>2020-07-01T06:17:46Z</time>
      </trkpt>
      <trkpt lat="49.08896" lon="3.66508">
        <ele>63.6</ele>
        <time>2020-07-01T06:17:47Z</time>
      </trkpt>
      <trkpt lat="49.08898" lon="3.665">
        <ele>63.6</ele>
        <time>2020-07-01T06:17:48Z</time>
      </trkpt>
      <trkpt lat="49.08899" lon="3.66491">
        <ele>63.6</ele>
        <time>2020-07-01T06:17:49Z</time>
      </trkpt>
      <trkpt lat="49.089" lon="3.66483">
        <ele>63.6</ele>
        <time>2020-07-01T06:17:50Z</time>
      </trkpt>
      <trkpt lat="49.08901" lon="3.66475">
        <ele>63.5</ele>
        <time>2020-07-01T06:17:51Z</time>
      </trkpt>
      <trkpt lat="49.08902" lon="3.66467">
        <ele>63.5</ele>
        <time>2020-07-01T06:17:52Z</time>
      </trkpt>
      <trkpt lat="49.08902" lon="3.66457">
        <ele>63.4</ele>
        <time>2020-07-01T06:17:53Z</time>
      </trkpt>
      <trkpt lat="49.08903" lon="3.66447">
        <ele>63.3</ele>
        <time>2020-07-01T06:17:54Z</time>
      </trkpt>
      <trkpt lat="49.08905" lon="3.66438">
        <ele>63.3</ele>
        <time>2020-07-01T06:17:55Z</time>
      </trkpt>
      <trkpt lat="49.08906" lon="3.66428">
        <ele>63.2</ele>
        <time>2020-07-01T06:17:56Z</time>
      </trkpt>
      <trkpt lat="49.08907" lon="3.66418">
        <ele>63.2</ele>
        <time>2020-07-01T06:17:57Z</time>
      </trkpt>
      <trkpt lat="49.08908" lon="3.66409">
        <ele>63.2</ele>
        <time>2020-07-01T06:17:58Z</time>
      </trkpt>
      <trkpt lat="49.0891" lon="3.664">
        <ele>63.3</ele>
        <time>2020-07-01T06:17:59Z</time>
      </trkpt>
      <trkpt lat="49.0891" lon="3.66391">
        <ele>63.3</ele>
        <time>2020-07-01T06:18:00Z</time>
      </trkpt>
      <trkpt lat="49.08912" lon="3.66382">
        <ele>63.3</ele>
        <time>2020-07-01T06:18:01Z</time>
      </trkpt>
      <trkpt lat="49.08912" lon="3.66375">
        <ele>63.3</ele>
        <time>2020-07-01T06:18:02Z</time>
      </trkpt>
      <trkpt lat="49.08913" lon="3.66366">
        <ele>63.3</ele>
        <time>2020-07-01T06:18:03Z</time>
      </trkpt>
      <trkpt lat="49.08913" lon="3.66359">
        <ele>63.4</ele>
        <time>2020-07-01T06:18:04Z</time>
      </trkpt>
      <trkpt lat="49.08914" lon="3.66351">
        <ele>63.4</ele>
        <time>2020-07-01T06:18:05Z</time>
      </trkpt>
      <trkpt lat="49.08914" lon="3.66343">
        <ele>63.4</ele>
        <time>2020-07-01T06:18:06Z</time>
      </trkpt>
      <trkpt lat="49.08914" lon="3.66333">
        <ele>63.5</ele>
        <time>2020-07-01T06:18:07Z</time>
      </trkpt>
      <trkpt lat="49.08914" lon="3.66325">
        <ele>63.5</ele>
        <time>2020-07-01T06:18:08Z</time>
      </trkpt>
      <trkpt lat="49.08915" lon="3.66316">
        <ele>63.5</ele>
        <time>2020-07-01T06:18:09Z</time>
      </trkpt>
      <trkpt lat="49.08916" lon="3.66308">
        <ele>63.6</ele>
        <time>2020-07-01T06:18:10Z</time>
      </trkpt>
      <trkpt lat="49.08917" lon="3.66299">
        <ele>63.6</ele>
        <time>2020-07-01T06:18:11Z</time>
      </trkpt>
      <trkpt lat="49.08918" lon="3.6629">
        <ele>63.6</ele>
        <time>2020-07-01T06:18:12Z</time>
      </trkpt>
      <trkpt lat="49.08919" lon="3.66281">
        <ele>63.6</ele>
        <time>2020-07-01T06:18:13Z</time>
      </trkpt>
      <trkpt lat="49.0892" lon="3.66272">
        <ele>63.6</ele>
        <time>2020-07-01T06:18:14Z</time>
      </trkpt>
      <trkpt lat="49.08921" lon="3.66264">
        <ele>63.6</ele>
        <time>2020-07-01T06:18:15Z</time>
      </trkpt>
      <trkpt lat="49.08922" lon="3.66255">
        <ele>63.5</ele>
        <time>2020-07-01T06:18:16Z</time>
      </trkpt>
      <trkpt lat="49.08923" lon="3.66246">
        <ele>63.5</ele>
        <time>2020-07-01T06:18:17Z</time>
      </trkpt>
      <trkpt lat="49.08924" lon="3.66238">
        <ele>63.5</ele>
        <time>2020-07-01T06:18:18Z</time>
      </trkpt>
      <trkpt lat="49.08926" lon="3.66228">
        <ele>63.5</ele>
        <time>2020-07-01T06:18:19Z</time>
      </trkpt>
      <trkpt lat="49.08926" lon="3.66218">
        <ele>63.5</ele>
        <time>2020-07-01T06:18:20Z</time>
      </trkpt>
      <trkpt lat="49.08927" lon="3.66209">
        <ele>63.5</ele>
        <time>2020-07-01T06:18:21Z</time>
      </trkpt>
      <trkpt lat="49.08929" lon="3.662">
        <ele>63.5</ele>
        <time>2020-07-01T06:18:22Z</time>
      </trkpt>
      <trkpt lat="49.0893" lon="3.66191">
        <ele>63.5</ele>
        <time>2020-07-01T06:18:23Z</time>
      </trkpt>
      <trkpt lat="49.0893" lon="3.66182">
        <ele>63.5</ele>
        <time>2020-07-01T06:18:24Z</time>
      </trkpt>
      <trkpt lat="49.08931" lon="3.66173">
        <ele>63.5</ele>
        <time>2020-07-01T06:18:25Z</time>
      </trkpt>
      <trkpt lat="49.08931" lon="3.66164">
        <ele>63.5</ele>
        <time>2020-07-01T06:18:26Z</time>
      </trkpt>
      <trkpt lat="49.08933" lon="3.66155">
        <ele>63.5</ele>
        <time>2020-07-01T06:18:27Z</time>
      </trkpt>
      <trkpt lat="49.08935" lon="3.66145">
        <ele>63.6</ele>
        <time>2020-07-01T06:18:28Z</time>
      </trkpt>
      <trkpt lat="49.08935" lon="3.66137">
        <ele>63.5</ele>
        <time>2020-07-01T06:18:29Z</time>
      </trkpt>
      <trkpt lat="49.08936" lon="3.66129">
        <ele>63.5</ele>
        <time>2020-07-01T06:18:30Z</time>
      </trkpt>
      <trkpt lat="49.08936" lon="3.66119">
        <ele>63.5</ele>
        <time>2020-07-01T06:18:31Z</time>
      </trkpt>
      <trkpt lat="49.08936" lon="3.66109">
        <ele>63.5</ele>
        <time>2020-07-01T06:18:32Z</time>
      </trkpt>
      <trkpt lat="49.08936" lon="3.66099">
        <ele>63.5</ele>
        <time>2020-07-01T06:18:33Z</time>
      </trkpt>
      <trkpt lat="49.08936" lon="3.66089">
        <ele>63.5</ele>
        <time>2020-07-01T06:18:34Z</time>
      </trkpt>
      <trkpt lat="49.08938" lon="3.66079">
        <ele>63.4</ele>
        <time>2020-07-01T06:18:35Z</time>
      </trkpt>
      <trkpt lat="49.08939" lon="3.6607">
        <ele>63.4</ele>
        <time>2020-07-01T06:18:36Z</time>
      </trkpt>
      <trkpt lat="49.08939" lon="3.66063">
        <ele>63.4</ele>
        <time>2020-07-01T06:18:37Z</time>
      </trkpt>
      <trkpt lat="49.0894" lon="3.66053">
        <ele>63.3</ele>
        <time>2020-07-01T06:18:38Z</time>
      </trkpt>
      <trkpt lat="49.08941" lon="3.66043">
        <ele>63.3</ele>
        <time>2020-07-01T06:18:39Z</time>
      </trkpt>
      <trkpt lat="49.0894" lon="3.66032">
        <ele>63.3</ele>
        <time>2020-07-01T06:18:40Z</time>
      </trkpt>
      <trkpt lat="49.08941" lon="3.66021">
        <ele>63.3</ele>
        <time>2020-07-01T06:18:41Z</time>
      </trkpt>
      <trkpt lat="49.08941" lon="3.6601">
        <ele>63.4</ele>
        <time>2020-07-01T06:18:42Z</time>
      </trkpt>
      <trkpt lat="49.08942" lon="3.66002">
        <ele>63.4</ele>
        <time>2020-07-01T06:18:43Z</time>
      </trkpt>
      <trkpt lat="49.08943" lon="3.65995">
        <ele>63.5</ele>
        <time>2020-07-01T06:18:44Z</time>
      </trkpt>
      <trkpt lat="49.08944" lon="3.65984">
        <ele>63.5</ele>
        <time>2020-07-01T06:18:45Z</time>
      </trkpt>
      <trkpt lat="49.08944" lon="3.65975">
        <ele>63.5</ele>
        <time>2020-07-01T06:18:46Z</time>
      </trkpt>
      <trkpt lat="49.08945" lon="3.65966">
        <ele>63.5</ele>
        <time>2020-07-01T06:18:47Z</time>
      </trkpt>
      <trkpt lat="49.08945" lon="3.65959">
        <ele>63.4</ele>
        <time>2020-07-01T06:18:48Z</time>
      </trkpt>
      <trkpt lat="49.08946" lon="3.65949">
        <ele>63.4</ele>
        <time>2020-07-01T06:18:49Z</time>
      </trkpt>
      <trkpt lat="49.08946" lon="3.65941">
        <ele>63.4</ele>
        <time>2020-07-01T06:18:50Z</time>
      </trkpt>
      <trkpt lat="49.08946" lon="3.65931">
        <ele>63.4</ele>
        <time>2020-07-01T06:18:51Z</time>
      </trkpt>
      <trkpt lat="49.08945" lon="3.65921">
        <ele>63.4</ele>
        <time>2020-07-01T06:18:52Z</time>
      </trkpt>
      <trkpt lat="49.08945" lon="3.65911">
        <ele>63.4</ele>
        <time>2020-07-01T06:18:53Z</time>
      </trkpt>
      <trkpt lat="49.08944" lon="3.65899">
        <ele>63.5</ele>
        <time>2020-07-01T06:18:54Z</time>
      </trkpt>
      <trkpt lat="49.08944" lon="3.65889">
        <ele>63.5</ele>
        <time>2020-07-01T06:18:55Z</time>
      </trkpt>
      <trkpt lat="49.08942" lon="3.6588">
        <ele>63.5</ele>
        <time>2020-07-01T06:18:56Z</time>
      </trkpt>
      <trkpt lat="49.08941" lon="3.65873">
        <ele>63.5</ele>
        <time>2020-07-01T06:18:57Z</time>
      </trkpt>
      <trkpt lat="49.08941" lon="3.65865">
        <ele>63.5</ele>
        <time>2020-07-01T06:18:58Z</time>
      </trkpt>
      <trkpt lat="49.0894" lon="3.65856">
        <ele>63.5</ele>
        <time>2020-07-01T06:18:59Z</time>
      </trkpt>
      <trkpt lat="49.0894" lon="3.65846">
        <ele>63.5</ele>
        <time>2020-07-01T06:19:00Z</time>
      </trkpt>
      <trkpt lat="49.08939" lon="3.65836">
        <ele>63.5</ele>
        <time>2020-07-01T06:19:01Z</time>
      </trkpt>
      <trkpt lat="49.08939" lon="3.65827">
        <ele>63.6</ele>
        <time>2020-07-01T06:19:02Z</time>
      </trkpt>
      <trkpt lat="49.08938" lon="3.65818">
        <ele>63.6</ele>
        <time>2020-07-01T06:19:03Z</time>
      </trkpt>
      <trkpt lat="49.08938" lon="3.65808">
        <ele>63.6</ele>
        <time>2020-07-01T06:19:04Z</time>
      </trkpt>
      <trkpt lat="49.08937" lon="3.65799">
        <ele>63.6</ele>
        <time>2020-07-01T06:19:05Z</time>
      </trkpt>
      <trkpt lat="49.08937" lon="3.65791">
        <ele>63.6</ele>
        <time>2020-07-01T06:19:06Z</time>
      </trkpt>
      <trkpt lat="49.08936" lon="3.65784">
        <ele>63.6</ele>
        <time>2020-07-01T06:19:07Z</time>
      </trkpt>
      <trkpt lat="49.08935" lon="3.65777">
        <ele>63.6</ele>
        <time>2020-07-01T06:19:08Z</time>
      </trkpt>
      <trkpt lat="49.08935" lon="3.65767">
        <ele>63.6</ele>
        <time>2020-07-01T06:19:09Z</time>
      </trkpt>
      <trkpt lat="49.08935" lon="3.65756">
        <ele>63.6</ele>
        <time>2020-07-01T06:19:10Z</time>
      </trkpt>
      <trkpt lat="49.08934" lon="3.65749">
        <ele>63.6</ele>
        <time>2020-07-01T06:19:11Z</time>
      </trkpt>
      <trkpt lat="49.08934" lon="3.65741">
        <ele>63.6</ele>
        <time>2020-07-01T06:19:12Z</time>
      </trkpt>
      <trkpt lat="49.08934" lon="3.65733">
        <ele>63.6</ele>
        <time>2020-07-01T06:19:13Z</time>
      </trkpt>
      <trkpt lat="49.08933" lon="3.65726">
        <ele>63.6</ele>
        <time>2020-07-01T06:19:14Z</time>
      </trkpt>
      <trkpt lat="49.08934" lon="3.65718">
        <ele>63.6</ele>
        <time>2020-07-01T06:19:15Z</time>
      </trkpt>
      <trkpt lat="49.08934" lon="3.65705">
        <ele>63.6</ele>
        <time>2020-07-01T06:19:16Z</time>
      </trkpt>
      <trkpt lat="49.08934" lon="3.65697">
        <ele>63.6</ele>
        <time>2020-07-01T06:19:17Z</time>
      </trkpt>
      <trkpt lat="49.08935" lon="3.65685">
        <ele>63.6</ele>
        <time>2020-07-01T06:19:18Z</time>
      </trkpt>
      <trkpt lat="49.08936" lon="3.65676">
        <ele>63.7</ele>
        <time>2020-07-01T06:19:19Z</time>
      </trkpt>
      <trkpt lat="49.08936" lon="3.65668">
        <ele>63.7</ele>
        <time>2020-07-01T06:19:20Z</time>
      </trkpt>
      <trkpt lat="49.08937" lon="3.65659">
        <ele>63.7</ele>
        <time>2020-07-01T06:19:21Z</time>
      </trkpt>
      <trkpt lat="49.08937" lon="3.65651">
        <ele>63.8</ele>
        <time>2020-07-01T06:19:22Z</time>
      </trkpt>
      <trkpt lat="49.08938" lon="3.65642">
        <ele>63.8</ele>
        <time>2020-07-01T06:19:23Z</time>
      </trkpt>
      <trkpt lat="49.08939" lon="3.65636">
        <ele>63.8</ele>
        <time>2020-07-01T06:19:24Z</time>
      </trkpt>
      <trkpt lat="49.0894" lon="3.65627">
        <ele>63.8</ele>
        <time>2020-07-01T06:19:25Z</time>
      </trkpt>
      <trkpt lat="49.08941" lon="3.65618">
        <ele>63.8</ele>
        <time>2020-07-01T06:19:26Z</time>
      </trkpt>
      <trkpt lat="49.08941" lon="3.65607">
        <ele>63.9</ele>
        <time>2020-07-01T06:19:27Z</time>
      </trkpt>
      <trkpt lat="49.08942" lon="3.65599">
        <ele>63.9</ele>
        <time>2020-07-01T06:19:28Z</time>
      </trkpt>
      <trkpt lat="49.08942" lon="3.6559">
        <ele>63.9</ele>
        <time>2020-07-01T06:19:29Z</time>
      </trkpt>
      <trkpt lat="49.08943" lon="3.65581">
        <ele>63.9</ele>
        <time>2020-07-01T06:19:30Z</time>
      </trkpt>
      <trkpt lat="49.08943" lon="3.6557">
        <ele>63.9</ele>
        <time>2020-07-01T06:19:31Z</time>
      </trkpt>
      <trkpt lat="49.08944" lon="3.65561">
        <ele>63.9</ele>
        <time>2020-07-01T06:19:32Z</time>
      </trkpt>
      <trkpt lat="49.08945" lon="3.65551">
        <ele>63.9</ele>
        <time>2020-07-01T06:19:33Z</time>
      </trkpt>
      <trkpt lat="49.08946" lon="3.65542">
        <ele>63.8</ele>
        <time>2020-07-01T06:19:34Z</time>
      </trkpt>
      <trkpt lat="49.08947" lon="3.65533">
        <ele>63.8</ele>
        <time>2020-07-01T06:19:35Z</time>
      </trkpt>
      <trkpt lat="49.08948" lon="3.65525">
        <ele>63.7</ele>
        <time>2020-07-01T06:19:36Z</time>
      </trkpt>
      <trkpt lat="49.0895" lon="3.65516">
        <ele>63.7</ele>
        <time>2020-07-01T06:19:37Z</time>
      </trkpt>
      <trkpt lat="49.08952" lon="3.65507">
        <ele>63.6</ele>
        <time>2020-07-01T06:19:38Z</time>
      </trkpt>
      <trkpt lat="49.08954" lon="3.65498">
        <ele>63.6</ele>
        <time>2020-07-01T06:19:39Z</time>
      </trkpt>
      <trkpt lat="49.08956" lon="3.6549">
        <ele>63.5</ele>
        <time>2020-07-01T06:19:40Z</time>
      </trkpt>
      <trkpt lat="49.08958" lon="3.65482">
        <ele>63.5</ele>
        <time>2020-07-01T06:19:41Z</time>
      </trkpt>
      <trkpt lat="49.08961" lon="3.65474">
        <ele>63.6</ele>
        <time>2020-07-01T06:19:42Z</time>
      </trkpt>
      <trkpt lat="49.08964" lon="3.65466">
        <ele>63.6</ele>
        <time>2020-07-01T06:19:43Z</time>
      </trkpt>
      <trkpt lat="49.08966" lon="3.65457">
        <ele>63.6</ele>
        <time>2020-07-01T06:19:44Z</time>
      </trkpt>
      <trkpt lat="49.08967" lon="3.65449">
        <ele>63.6</ele>
        <time>2020-07-01T06:19:45Z</time>
      </trkpt>
      <trkpt lat="49.08969" lon="3.6544">
        <ele>63.6</ele>
        <time>2020-07-01T06:19:46Z</time>
      </trkpt>
      <trkpt lat="49.08972" lon="3.65432">
        <ele>63.7</ele>
        <time>2020-07-01T06:19:47Z</time>
      </trkpt>
      <trkpt lat="49.08974" lon="3.65423">
        <ele>63.7</ele>
        <time>2020-07-01T06:19:48Z</time>
      </trkpt>
      <trkpt lat="49.08977" lon="3.65414">
        <ele>63.7</ele>
        <time>2020-07-01T06:19:49Z</time>
      </trkpt>
      <trkpt lat="49.0898" lon="3.65405">
        <ele>63.7</ele>
        <time>2020-07-01T06:19:50Z</time>
      </trkpt>
      <trkpt lat="49.08983" lon="3.65398">
        <ele>63.7</ele>
        <time>2020-07-01T06:19:51Z</time>
      </trkpt>
      <trkpt lat="49.08986" lon="3.65392">
        <ele>63.7</ele>
        <time>2020-07-01T06:19:52Z</time>
      </trkpt>
      <trkpt lat="49.08988" lon="3.65384">
        <ele>63.7</ele>
        <time>2020-07-01T06:19:53Z</time>
      </trkpt>
      <trkpt lat="49.0899" lon="3.65376">
        <ele>63.7</ele>
        <time>2020-07-01T06:19:54Z</time>
      </trkpt>
      <trkpt lat="49.08993" lon="3.65366">
        <ele>63.7</ele>
        <time>2020-07-01T06:19:55Z</time>
      </trkpt>
      <trkpt lat="49.08996" lon="3.65359">
        <ele>63.7</ele>
        <time>2020-07-01T06:19:56Z</time>
      </trkpt>
      <trkpt lat="49.08999" lon="3.65352">
        <ele>63.7</ele>
        <time>2020-07-01T06:19:57Z</time>
      </trkpt>
      <trkpt lat="49.09001" lon="3.65345">
        <ele>63.7</ele>
        <time>2020-07-01T06:19:58Z</time>
      </trkpt>
      <trkpt lat="49.09004" lon="3.65336">
        <ele>63.7</ele>
        <time>2020-07-01T06:19:59Z</time>
      </trkpt>
      <trkpt lat="49.09006" lon="3.65329">
        <ele>63.7</ele>
        <time>2020-07-01T06:20:00Z</time>
      </trkpt>
      <trkpt lat="49.0901" lon="3.65321">
        <ele>63.7</ele>
        <time>2020-07-01T06:20:01Z</time>
      </trkpt>
      <trkpt lat="49.09013" lon="3.65311">
        <ele>63.7</ele>
        <time>2020-07-01T06:20:02Z</time>
      </trkpt>
      <trkpt lat="49.09016" lon="3.65302">
        <ele>63.7</ele>
        <time>2020-07-01T06:20:03Z</time>
      </trkpt>
      <trkpt lat="49.09019" lon="3.65293">
        <ele>63.7</ele>
        <time>2020-07-01T06:20:04Z</time>
      </trkpt>
      <trkpt lat="49.09022" lon="3.65282">
        <ele>63.7</ele>
        <time>2020-07-01T06:20:05Z</time>
      </trkpt>
      <trkpt lat="49.09025" lon="3.65274">
        <ele>63.7</ele>
        <time>2020-07-01T06:20:06Z</time>
      </trkpt>
      <trkpt lat="49.09028" lon="3.65266">
        <ele>63.8</ele>
        <time>2020-07-01T06:20:07Z</time>
      </trkpt>
      <trkpt lat="49.0903" lon="3.65259">
        <ele>63.8</ele>
        <time>2020-07-01T06:20:08Z</time>
      </trkpt>
      <trkpt lat="49.09033" lon="3.65251">
        <ele>63.9</ele>
        <time>2020-07-01T06:20:09Z</time>
      </trkpt>
      <trkpt lat="49.09035" lon="3.65242">
        <ele>63.9</ele>
        <time>2020-07-01T06:20:10Z</time>
      </trkpt>
      <trkpt lat="49.09037" lon="3.65234">
        <ele>64</ele>
        <time>2020-07-01T06:20:11Z</time>
      </trkpt>
      <trkpt lat="49.09038" lon="3.65227">
        <ele>64</ele>
        <time>2020-07-01T06:20:12Z</time>
      </trkpt>
      <trkpt lat="49.09041" lon="3.6522">
        <ele>64</ele>
        <time>2020-07-01T06:20:13Z</time>
      </trkpt>
      <trkpt lat="49.09043" lon="3.65211">
        <ele>64</ele>
        <time>2020-07-01T06:20:14Z</time>
      </trkpt>
      <trkpt lat="49.09046" lon="3.65203">
        <ele>64</ele>
        <time>2020-07-01T06:20:15Z</time>
      </trkpt>
      <trkpt lat="49.09048" lon="3.65194">
        <ele>63.9</ele>
        <time>2020-07-01T06:20:16Z</time>
      </trkpt>
      <trkpt lat="49.09049" lon="3.65188">
        <ele>63.9</ele>
        <time>2020-07-01T06:20:17Z</time>
      </trkpt>
      <trkpt lat="49.09051" lon="3.65182">
        <ele>63.9</ele>
        <time>2020-07-01T06:20:18Z</time>
      </trkpt>
      <trkpt lat="49.09052" lon="3.65174">
        <ele>63.9</ele>
        <time>2020-07-01T06:20:19Z</time>
      </trkpt>
      <trkpt lat="49.09053" lon="3.65166">
        <ele>63.9</ele>
        <time>2020-07-01T06:20:20Z</time>
      </trkpt>
      <trkpt lat="49.09054" lon="3.65157">
        <ele>63.9</ele>
        <time>2020-07-01T06:20:21Z</time>
      </trkpt>
      <trkpt lat="49.09055" lon="3.65148">
        <ele>63.9</ele>
        <time>2020-07-01T06:20:22Z</time>
      </trkpt>
      <trkpt lat="49.09056" lon="3.65139">
        <ele>63.9</ele>
        <time>2020-07-01T06:20:23Z</time>
      </trkpt>
      <trkpt lat="49.09058" lon="3.65128">
        <ele>63.9</ele>
        <time>2020-07-01T06:20:24Z</time>
      </trkpt>
      <trkpt lat="49.09058" lon="3.6512">
        <ele>63.9</ele>
        <time>2020-07-01T06:20:25Z</time>
      </trkpt>
      <trkpt lat="49.09058" lon="3.65108">
        <ele>63.9</ele>
        <time>2020-07-01T06:20:26Z</time>
      </trkpt>
      <trkpt lat="49.09059" lon="3.65099">
        <ele>63.9</ele>
        <time>2020-07-01T06:20:27Z</time>
      </trkpt>
      <trkpt lat="49.0906" lon="3.65088">
        <ele>63.9</ele>
        <time>2020-07-01T06:20:28Z</time>
      </trkpt>
      <trkpt lat="49.0906" lon="3.65079">
        <ele>63.9</ele>
        <time>2020-07-01T06:20:29Z</time>
      </trkpt>
      <trkpt lat="49.09061" lon="3.65069">
        <ele>63.8</ele>
        <time>2020-07-01T06:20:30Z</time>
      </trkpt>
      <trkpt lat="49.09062" lon="3.65059">
        <ele>63.8</ele>
        <time>2020-07-01T06:20:31Z</time>
      </trkpt>
      <trkpt lat="49.09063" lon="3.65051">
        <ele>63.8</ele>
        <time>2020-07-01T06:20:32Z</time>
      </trkpt>
      <trkpt lat="49.09063" lon="3.65043">
        <ele>63.8</ele>
        <time>2020-07-01T06:20:33Z</time>
      </trkpt>
      <trkpt lat="49.09063" lon="3.65034">
        <ele>63.8</ele>
        <time>2020-07-01T06:20:34Z</time>
      </trkpt>
      <trkpt lat="49.09064" lon="3.65024">
        <ele>63.7</ele>
        <time>2020-07-01T06:20:35Z</time>
      </trkpt>
      <trkpt lat="49.09065" lon="3.65015">
        <ele>63.7</ele>
        <time>2020-07-01T06:20:36Z</time>
      </trkpt>
      <trkpt lat="49.09066" lon="3.65007">
        <ele>63.7</ele>
        <time>2020-07-01T06:20:37Z</time>
      </trkpt>
      <trkpt lat="49.09068" lon="3.64999">
        <ele>63.7</ele>
        <time>2020-07-01T06:20:38Z</time>
      </trkpt>
      <trkpt lat="49.09069" lon="3.6499">
        <ele>63.6</ele>
        <time>2020-07-01T06:20:39Z</time>
      </trkpt>
      <trkpt lat="49.0907" lon="3.64981">
        <ele>63.5</ele>
        <time>2020-07-01T06:20:40Z</time>
      </trkpt>
      <trkpt lat="49.09071" lon="3.64973">
        <ele>63.5</ele>
        <time>2020-07-01T06:20:41Z</time>
      </trkpt>
      <trkpt lat="49.09073" lon="3.64964">
        <ele>63.4</ele>
        <time>2020-07-01T06:20:42Z</time>
      </trkpt>
      <trkpt lat="49.09074" lon="3.64954">
        <ele>63.4</ele>
        <time>2020-07-01T06:20:43Z</time>
      </trkpt>
      <trkpt lat="49.09075" lon="3.64945">
        <ele>63.4</ele>
        <time>2020-07-01T06:20:44Z</time>
      </trkpt>
      <trkpt lat="49.09076" lon="3.64936">
        <ele>63.3</ele>
        <time>2020-07-01T06:20:45Z</time>
      </trkpt>
      <trkpt lat="49.09077" lon="3.6493">
        <ele>63.3</ele>
        <time>2020-07-01T06:20:46Z</time>
      </trkpt>
      <trkpt lat="49.09079" lon="3.64922">
        <ele>63.3</ele>
        <time>2020-07-01T06:20:47Z</time>
      </trkpt>
      <trkpt lat="49.0908" lon="3.64913">
        <ele>63.3</ele>
        <time>2020-07-01T06:20:48Z</time>
      </trkpt>
      <trkpt lat="49.09082" lon="3.64903">
        <ele>63.3</ele>
        <time>2020-07-01T06:20:49Z</time>
      </trkpt>
      <trkpt lat="49.09082" lon="3.64897">
        <ele>63.3</ele>
        <time>2020-07-01T06:20:50Z</time>
      </trkpt>
      <trkpt lat="49.09083" lon="3.64889">
        <ele>63.2</ele>
        <time>2020-07-01T06:20:51Z</time>
      </trkpt>
      <trkpt lat="49.09084" lon="3.6488">
        <ele>63.2</ele>
        <time>2020-07-01T06:20:52Z</time>
      </trkpt>
      <trkpt lat="49.09085" lon="3.6487">
        <ele>63.2</ele>
        <time>2020-07-01T06:20:53Z</time>
      </trkpt>
      <trkpt lat="49.09087" lon="3.6486">
        <ele>63.2</ele>
        <time>2020-07-01T06:20:54Z</time>
      </trkpt>
      <trkpt lat="49.09088" lon="3.64852">
        <ele>63.2</ele>
        <time>2020-07-01T06:20:55Z</time>
      </trkpt>
      <trkpt lat="49.09089" lon="3.64844">
        <ele>63.3</ele>
        <time>2020-07-01T06:20:56Z</time>
      </trkpt>
      <trkpt lat="49.0909" lon="3.64837">
        <ele>63.3</ele>
        <time>2020-07-01T06:20:57Z</time>
      </trkpt>
      <trkpt lat="49.09091" lon="3.64828">
        <ele>63.3</ele>
        <time>2020-07-01T06:20:58Z</time>
      </trkpt>
      <trkpt lat="49.09091" lon="3.64819">
        <ele>63.3</ele>
        <time>2020-07-01T06:20:59Z</time>
      </trkpt>
      <trkpt lat="49.09092" lon="3.6481">
        <ele>63.3</ele>
        <time>2020-07-01T06:21:00Z</time>
      </trkpt>
      <trkpt lat="49.09092" lon="3.64804">
        <ele>63.3</ele>
        <time>2020-07-01T06:21:01Z</time>
      </trkpt>
      <trkpt lat="49.09092" lon="3.64797">
        <ele>63.2</ele>
        <time>2020-07-01T06:21:02Z</time>
      </trkpt>
      <trkpt lat="49.09092" lon="3.64788">
        <ele>63.3</ele>
        <time>2020-07-01T06:21:03Z</time>
      </trkpt>
      <trkpt lat="49.09091" lon="3.64781">
        <ele>63.3</ele>
        <time>2020-07-01T06:21:04Z</time>
      </trkpt>
      <trkpt lat="49.09091" lon="3.64773">
        <ele>63.3</ele>
        <time>2020-07-01T06:21:05Z</time>
      </trkpt>
      <trkpt lat="49.0909" lon="3.64766">
        <ele>63.3</ele>
        <time>2020-07-01T06:21:06Z</time>
      </trkpt>
      <trkpt lat="49.0909" lon="3.64756">
        <ele>63.3</ele>
        <time>2020-07-01T06:21:07Z</time>
      </trkpt>
      <trkpt lat="49.0909" lon="3.64747">
        <ele>63.3</ele>
        <time>2020-07-01T06:21:08Z</time>
      </trkpt>
      <trkpt lat="49.0909" lon="3.6474">
        <ele>63.3</ele>
        <time>2020-07-01T06:21:09Z</time>
      </trkpt>
      <trkpt lat="49.0909" lon="3.64733">
        <ele>63.4</ele>
        <time>2020-07-01T06:21:10Z</time>
      </trkpt>
      <trkpt lat="49.0909" lon="3.64725">
        <ele>63.4</ele>
        <time>2020-07-01T06:21:11Z</time>
      </trkpt>
      <trkpt lat="49.0909" lon="3.64717">
        <ele>63.4</ele>
        <time>2020-07-01T06:21:12Z</time>
      </trkpt>
      <trkpt lat="49.09091" lon="3.64709">
        <ele>63.4</ele>
        <time>2020-07-01T06:21:13Z</time>
      </trkpt>
      <trkpt lat="49.09091" lon="3.64701">
        <ele>63.5</ele>
        <time>2020-07-01T06:21:14Z</time>
      </trkpt>
      <trkpt lat="49.09091" lon="3.64694">
        <ele>63.5</ele>
        <time>2020-07-01T06:21:15Z</time>
      </trkpt>
      <trkpt lat="49.09091" lon="3.64686">
        <ele>63.5</ele>
        <time>2020-07-01T06:21:16Z</time>
      </trkpt>
      <trkpt lat="49.09092" lon="3.64678">
        <ele>63.5</ele>
        <time>2020-07-01T06:21:17Z</time>
      </trkpt>
      <trkpt lat="49.09093" lon="3.6467">
        <ele>63.5</ele>
        <time>2020-07-01T06:21:18Z</time>
      </trkpt>
      <trkpt lat="49.09094" lon="3.64664">
        <ele>63.5</ele>
        <time>2020-07-01T06:21:19Z</time>
      </trkpt>
      <trkpt lat="49.09093" lon="3.64655">
        <ele>63.5</ele>
        <time>2020-07-01T06:21:20Z</time>
      </trkpt>
      <trkpt lat="49.09093" lon="3.64651">
        <ele>63.5</ele>
        <time>2020-07-01T06:21:21Z</time>
      </trkpt>
      <trkpt lat="49.09094" lon="3.64644">
        <ele>63.5</ele>
        <time>2020-07-01T06:21:22Z</time>
      </trkpt>
      <trkpt lat="49.09095" lon="3.64636">
        <ele>63.5</ele>
        <time>2020-07-01T06:21:23Z</time>
      </trkpt>
      <trkpt lat="49.09096" lon="3.64631">
        <ele>63.5</ele>
        <time>2020-07-01T06:21:24Z</time>
      </trkpt>
      <trkpt lat="49.09098" lon="3.64626">
        <ele>63.7</ele>
        <time>2020-07-01T06:21:25Z</time>
      </trkpt>
      <trkpt lat="49.091" lon="3.64622">
        <ele>63.8</ele>
        <time>2020-07-01T06:21:26Z</time>
      </trkpt>
      <trkpt lat="49.09102" lon="3.64619">
        <ele>64</ele>
        <time>2020-07-01T06:21:27Z</time>
      </trkpt>
      <trkpt lat="49.09105" lon="3.64615">
        <ele>64.2</ele>
        <time>2020-07-01T06:21:28Z</time>
      </trkpt>
      <trkpt lat="49.09106" lon="3.64614">
        <ele>64.2</ele>
        <time>2020-07-01T06:21:29Z</time>
      </trkpt>
      <trkpt lat="49.09109" lon="3.64612">
        <ele>64.5</ele>
        <time>2020-07-01T06:21:30Z</time>
      </trkpt>
      <trkpt lat="49.09112" lon="3.6461">
        <ele>64.6</ele>
        <time>2020-07-01T06:21:31Z</time>
      </trkpt>
      <trkpt lat="49.09114" lon="3.64606">
        <ele>64.8</ele>
        <time>2020-07-01T06:21:32Z</time>
      </trkpt>
      <trkpt lat="49.09117" lon="3.64603">
        <ele>65</ele>
        <time>2020-07-01T06:21:33Z</time>
      </trkpt>
      <trkpt lat="49.09118" lon="3.64601">
        <ele>65.1</ele>
        <time>2020-07-01T06:21:34Z</time>
      </trkpt>
      <trkpt lat="49.09118" lon="3.64597">
        <ele>65.3</ele>
        <time>2020-07-01T06:21:35Z</time>
      </trkpt>
      <trkpt lat="49.0912" lon="3.64593">
        <ele>65.6</ele>
        <time>2020-07-01T06:21:36Z</time>
      </trkpt>
      <trkpt lat="49.09123" lon="3.6459">
        <ele>65.8</ele>
        <time>2020-07-01T06:21:37Z</time>
      </trkpt>
      <trkpt lat="49.09125" lon="3.64587">
        <ele>66.1</ele>
        <time>2020-07-01T06:21:38Z</time>
      </trkpt>
      <trkpt lat="49.09128" lon="3.64585">
        <ele>66.3</ele>
        <time>2020-07-01T06:21:39Z</time>
      </trkpt>
      <trkpt lat="49.09132" lon="3.64583">
        <ele>66.7</ele>
        <time>2020-07-01T06:21:40Z</time>
      </trkpt>
      <trkpt lat="49.09135" lon="3.6458">
        <ele>67</ele>
        <time>2020-07-01T06:21:41Z</time>
      </trkpt>
      <trkpt lat="49.09138" lon="3.64575">
        <ele>67.4</ele>
        <time>2020-07-01T06:21:42Z</time>
      </trkpt>
      <trkpt lat="49.0914" lon="3.64571">
        <ele>67.7</ele>
        <time>2020-07-01T06:21:43Z</time>
      </trkpt>
      <trkpt lat="49.09142" lon="3.64567">
        <ele>68</ele>
        <time>2020-07-01T06:21:44Z</time>
      </trkpt>
      <trkpt lat="49.09145" lon="3.64564">
        <ele>68.3</ele>
        <time>2020-07-01T06:21:45Z</time>
      </trkpt>
      <trkpt lat="49.09147" lon="3.64561">
        <ele>68.6</ele>
        <time>2020-07-01T06:21:46Z</time>
      </trkpt>
      <trkpt lat="49.09151" lon="3.64556">
        <ele>69.1</ele>
        <time>2020-07-01T06:21:47Z</time>
      </trkpt>
      <trkpt lat="49.09153" lon="3.64553">
        <ele>69.3</ele>
        <time>2020-07-01T06:21:48Z</time>
      </trkpt>
      <trkpt lat="49.09156" lon="3.64549">
        <ele>69.8</ele>
        <time>2020-07-01T06:21:49Z</time>
      </trkpt>
      <trkpt lat="49.09157" lon="3.64548">
        <ele>70</ele>
        <time>2020-07-01T06:21:50Z</time>
      </trkpt>
      <trkpt lat="49.0916" lon="3.64546">
        <ele>70.3</ele>
        <time>2020-07-01T06:21:51Z</time>
      </trkpt>
      <trkpt lat="49.09163" lon="3.64542">
        <ele>70.7</ele>
        <time>2020-07-01T06:21:52Z</time>
      </trkpt>
      <trkpt lat="49.09166" lon="3.64539">
        <ele>71.2</ele>
        <time>2020-07-01T06:21:53Z</time>
      </trkpt>
      <trkpt lat="49.09169" lon="3.64537">
        <ele>71.5</ele>
        <time>2020-07-01T06:21:54Z</time>
      </trkpt>
      <trkpt lat="49.09173" lon="3.64534">
        <ele>72</ele>
        <time>2020-07-01T06:21:55Z</time>
      </trkpt>
      <trkpt lat="49.09174" lon="3.64533">
        <ele>72.1</ele>
        <time>2020-07-01T06:21:56Z</time>
      </trkpt>
      <trkpt lat="49.09176" lon="3.6453">
        <ele>72.4</ele>
        <time>2020-07-01T06:21:57Z</time>
      </trkpt>
      <trkpt lat="49.09178" lon="3.64529">
        <ele>72.8</ele>
        <time>2020-07-01T06:21:58Z</time>
      </trkpt>
      <trkpt lat="49.09179" lon="3.64528">
        <ele>72.9</ele>
        <time>2020-07-01T06:21:59Z</time>
      </trkpt>
      <trkpt lat="49.09182" lon="3.64526">
        <ele>73.3</ele>
        <time>2020-07-01T06:22:00Z</time>
      </trkpt>
      <trkpt lat="49.09185" lon="3.64523">
        <ele>73.8</ele>
        <time>2020-07-01T06:22:01Z</time>
      </trkpt>
      <trkpt lat="49.09186" lon="3.64522">
        <ele>73.9</ele>
        <time>2020-07-01T06:22:02Z</time>
      </trkpt>
      <trkpt lat="49.09189" lon="3.64519">
        <ele>74.3</ele>
        <time>2020-07-01T06:22:03Z</time>
      </trkpt>
      <trkpt lat="49.0919" lon="3.64518">
        <ele>74.5</ele>
        <time>2020-07-01T06:22:04Z</time>
      </trkpt>
      <trkpt lat="49.09192" lon="3.64515">
        <ele>74.9</ele>
        <time>2020-07-01T06:22:05Z</time>
      </trkpt>
      <trkpt lat="49.09193" lon="3.64514">
        <ele>75</ele>
        <time>2020-07-01T06:22:06Z</time>
      </trkpt>
      <trkpt lat="49.09195" lon="3.64512">
        <ele>75.2</ele>
        <time>2020-07-01T06:22:07Z</time>
      </trkpt>
      <trkpt lat="49.09196" lon="3.64511">
        <ele>75.4</ele>
        <time>2020-07-01T06:22:08Z</time>
      </trkpt>
      <trkpt lat="49.09197" lon="3.64509">
        <ele>75.6</ele>
        <time>2020-07-01T06:22:09Z</time>
      </trkpt>
      <trkpt lat="49.09198" lon="3.64507">
        <ele>75.7</ele>
        <time>2020-07-01T06:22:10Z</time>
      </trkpt>
      <trkpt lat="49.09199" lon="3.64506">
        <ele>75.9</ele>
        <time>2020-07-01T06:22:11Z</time>
      </trkpt>
      <trkpt lat="49.09202" lon="3.64505">
        <ele>76.2</ele>
        <time>2020-07-01T06:22:12Z</time>
      </trkpt>
      <trkpt lat="49.09203" lon="3.64504">
        <ele>76.3</ele>
        <time>2020-07-01T06:22:13Z</time>
      </trkpt>
      <trkpt lat="49.09206" lon="3.64502">
        <ele>76.6</ele>
        <time>2020-07-01T06:22:14Z</time>
      </trkpt>
      <trkpt lat="49.09206" lon="3.64501">
        <ele>76.7</ele>
        <time>2020-07-01T06:22:15Z</time>
      </trkpt>
      <trkpt lat="49.09208" lon="3.64498">
        <ele>77</ele>
        <time>2020-07-01T06:22:16Z</time>
      </trkpt>
      <trkpt lat="49.09211" lon="3.64493">
        <ele>77.4</ele>
        <time>2020-07-01T06:22:17Z</time>
      </trkpt>
      <trkpt lat="49.09212" lon="3.64491">
        <ele>77.5</ele>
        <time>2020-07-01T06:22:18Z</time>
      </trkpt>
      <trkpt lat="49.09215" lon="3.64488">
        <ele>77.8</ele>
        <time>2020-07-01T06:22:19Z</time>
      </trkpt>
      <trkpt lat="49.09216" lon="3.64487">
        <ele>77.9</ele>
        <time>2020-07-01T06:22:20Z</time>
      </trkpt>
      <trkpt lat="49.09217" lon="3.64486">
        <ele>78</ele>
        <time>2020-07-01T06:22:21Z</time>
      </trkpt>
      <trkpt lat="49.09219" lon="3.64484">
        <ele>78.2</ele>
        <time>2020-07-01T06:22:22Z</time>
      </trkpt>
      <trkpt lat="49.09222" lon="3.64483">
        <ele>78.4</ele>
        <time>2020-07-01T06:22:23Z</time>
      </trkpt>
      <trkpt lat="49.09223" lon="3.64482">
        <ele>78.5</ele>
        <time>2020-07-01T06:22:24Z</time>
      </trkpt>
      <trkpt lat="49.09226" lon="3.64478">
        <ele>78.9</ele>
        <time>2020-07-01T06:22:25Z</time>
      </trkpt>
      <trkpt lat="49.09228" lon="3.64477">
        <ele>79.1</ele>
        <time>2020-07-01T06:22:26Z</time>
      </trkpt>
      <trkpt lat="49.09231" lon="3.64473">
        <ele>79.4</ele>
        <time>2020-07-01T06:22:27Z</time>
      </trkpt>
      <trkpt lat="49.09235" lon="3.6447">
        <ele>79.8</ele>
        <time>2020-07-01T06:22:28Z</time>
      </trkpt>
      <trkpt lat="49.09237" lon="3.64469">
        <ele>80</ele>
        <time>2020-07-01T06:22:29Z</time>
      </trkpt>
      <trkpt lat="49.09239" lon="3.64466">
        <ele>80.2</ele>
        <time>2020-07-01T06:22:30Z</time>
      </trkpt>
      <trkpt lat="49.09241" lon="3.64464">
        <ele>80.4</ele>
        <time>2020-07-01T06:22:31Z</time>
      </trkpt>
      <trkpt lat="49.09242" lon="3.64463">
        <ele>80.5</ele>
        <time>2020-07-01T06:22:32Z</time>
      </trkpt>
      <trkpt lat="49.09245" lon="3.6446">
        <ele>80.8</ele>
        <time>2020-07-01T06:22:33Z</time>
      </trkpt>
      <trkpt lat="49.09245" lon="3.6446">
        <ele>80.9</ele>
        <time>2020-07-01T06:22:34Z</time>
      </trkpt>
      <trkpt lat="49.09247" lon="3.64458">
        <ele>81.1</ele>
        <time>2020-07-01T06:22:35Z</time>
      </trkpt>
      <trkpt lat="49.09248" lon="3.64457">
        <ele>81.2</ele>
        <time>2020-07-01T06:22:36Z</time>
      </trkpt>
      <trkpt lat="49.09249" lon="3.64456">
        <ele>81.3</ele>
        <time>2020-07-01T06:22:37Z</time>
      </trkpt>
      <trkpt lat="49.09251" lon="3.64455">
        <ele>81.4</ele>
        <time>2020-07-01T06:22:38Z</time>
      </trkpt>
      <trkpt lat="49.09253" lon="3.64454">
        <ele>81.6</ele>
        <time>2020-07-01T06:22:39Z</time>
      </trkpt>
      <trkpt lat="49.09254" lon="3.64453">
        <ele>81.7</ele>
        <time>2020-07-01T06:22:40Z</time>
      </trkpt>
      <trkpt lat="49.09256" lon="3.6445">
        <ele>81.9</ele>
        <time>2020-07-01T06:22:41Z</time>
      </trkpt>
      <trkpt lat="49.09257" lon="3.64449">
        <ele>82</ele>
        <time>2020-07-01T06:22:42Z</time>
      </trkpt>
      <trkpt lat="49.0926" lon="3.64447">
        <ele>82.2</ele>
        <time>2020-07-01T06:22:43Z</time>
      </trkpt>
      <trkpt lat="49.09263" lon="3.64444">
        <ele>82.4</ele>
        <time>2020-07-01T06:22:44Z</time>
      </trkpt>
      <trkpt lat="49.09264" lon="3.64444">
        <ele>82.4</ele>
        <time>2020-07-01T06:22:45Z</time>
      </trkpt>
      <trkpt lat="49.09267" lon="3.64442">
        <ele>82.6</ele>
        <time>2020-07-01T06:22:46Z</time>
      </trkpt>
      <trkpt lat="49.09269" lon="3.6444">
        <ele>82.7</ele>
        <time>2020-07-01T06:22:47Z</time>
      </trkpt>
      <trkpt lat="49.09271" lon="3.64438">
        <ele>82.8</ele>
        <time>2020-07-01T06:22:48Z</time>
      </trkpt>
      <trkpt lat="49.09272" lon="3.64436">
        <ele>82.9</ele>
        <time>2020-07-01T06:22:49Z</time>
      </trkpt>
      <trkpt lat="49.09273" lon="3.64435">
        <ele>83</ele>
        <time>2020-07-01T06:22:50Z</time>
      </trkpt>
      <trkpt lat="49.09274" lon="3.64432">
        <ele>83.1</ele>
        <time>2020-07-01T06:22:51Z</time>
      </trkpt>
      <trkpt lat="49.09276" lon="3.64429">
        <ele>83.1</ele>
        <time>2020-07-01T06:22:52Z</time>
      </trkpt>
      <trkpt lat="49.09277" lon="3.64428">
        <ele>83.2</ele>
        <time>2020-07-01T06:22:53Z</time>
      </trkpt>
      <trkpt lat="49.09278" lon="3.64426">
        <ele>83.2</ele>
        <time>2020-07-01T06:22:54Z</time>
      </trkpt>
      <trkpt lat="49.09279" lon="3.64424">
        <ele>83.3</ele>
        <time>2020-07-01T06:22:55Z</time>
      </trkpt>
      <trkpt lat="49.09281" lon="3.64419">
        <ele>83.4</ele>
        <time>2020-07-01T06:22:56Z</time>
      </trkpt>
      <trkpt lat="49.09281" lon="3.64416">
        <ele>83.5</ele>
        <time>2020-07-01T06:22:57Z</time>
      </trkpt>
      <trkpt lat="49.09282" lon="3.64412">
        <ele>83.6</ele>
        <time>2020-07-01T06:22:58Z</time>
      </trkpt>
      <trkpt lat="49.09281" lon="3.64405">
        <ele>83.8</ele>
        <time>2020-07-01T06:22:59Z</time>
      </trkpt>
      <trkpt lat="49.09281" lon="3.64402">
        <ele>84</ele>
        <time>2020-07-01T06:23:00Z</time>
      </trkpt>
      <trkpt lat="49.09281" lon="3.64399">
        <ele>84.1</ele>
        <time>2020-07-01T06:23:01Z</time>
      </trkpt>
      <trkpt lat="49.09281" lon="3.64397">
        <ele>84.3</ele>
        <time>2020-07-01T06:23:02Z</time>
      </trkpt>
      <trkpt lat="49.0928" lon="3.64392">
        <ele>84.6</ele>
        <time>2020-07-01T06:23:03Z</time>
      </trkpt>
      <trkpt lat="49.09281" lon="3.6439">
        <ele>84.7</ele>
        <time>2020-07-01T06:23:04Z</time>
      </trkpt>
      <trkpt lat="49.09281" lon="3.64386">
        <ele>84.9</ele>
        <time>2020-07-01T06:23:05Z</time>
      </trkpt>
      <trkpt lat="49.09281" lon="3.64385">
        <ele>84.9</ele>
        <time>2020-07-01T06:23:06Z</time>
      </trkpt>
      <trkpt lat="49.0928" lon="3.64381">
        <ele>85.2</ele>
        <time>2020-07-01T06:23:07Z</time>
      </trkpt>
      <trkpt lat="49.09279" lon="3.6438">
        <ele>85.3</ele>
        <time>2020-07-01T06:23:08Z</time>
      </trkpt>
      <trkpt lat="49.09279" lon="3.64378">
        <ele>85.4</ele>
        <time>2020-07-01T06:23:09Z</time>
      </trkpt>
      <trkpt lat="49.09278" lon="3.64376">
        <ele>85.6</ele>
        <time>2020-07-01T06:23:10Z</time>
      </trkpt>
      <trkpt lat="49.09277" lon="3.64374">
        <ele>85.7</ele>
        <time>2020-07-01T06:23:11Z</time>
      </trkpt>
      <trkpt lat="49.09275" lon="3.6437">
        <ele>85.9</ele>
        <time>2020-07-01T06:23:12Z</time>
      </trkpt>
      <trkpt lat="49.09275" lon="3.64369">
        <ele>86</ele>
        <time>2020-07-01T06:23:13Z</time>
      </trkpt>
      <trkpt lat="49.09273" lon="3.64362">
        <ele>86.4</ele>
        <time>2020-07-01T06:23:14Z</time>
      </trkpt>
      <trkpt lat="49.09271" lon="3.64359">
        <ele>86.6</ele>
        <time>2020-07-01T06:23:15Z</time>
      </trkpt>
      <trkpt lat="49.09268" lon="3.64354">
        <ele>87</ele>
        <time>2020-07-01T06:23:16Z</time>
      </trkpt>
      <trkpt lat="49.09268" lon="3.64353">
        <ele>87.1</ele>
        <time>2020-07-01T06:23:17Z</time>
      </trkpt>
      <trkpt lat="49.09266" lon="3.64349">
        <ele>87.3</ele>
        <time>2020-07-01T06:23:18Z</time>
      </trkpt>
      <trkpt lat="49.09265" lon="3.64345">
        <ele>87.5</ele>
        <time>2020-07-01T06:23:19Z</time>
      </trkpt>
      <trkpt lat="49.09265" lon="3.64342">
        <ele>87.7</ele>
        <time>2020-07-01T06:23:20Z</time>
      </trkpt>
      <trkpt lat="49.09264" lon="3.64341">
        <ele>87.8</ele>
        <time>2020-07-01T06:23:21Z</time>
      </trkpt>
      <trkpt lat="49.09263" lon="3.64337">
        <ele>88</ele>
        <time>2020-07-01T06:23:22Z</time>
      </trkpt>
      <trkpt lat="49.09263" lon="3.64336">
        <ele>88</ele>
        <time>2020-07-01T06:23:23Z</time>
      </trkpt>
      <trkpt lat="49.09261" lon="3.64332">
        <ele>88.3</ele>
        <time>2020-07-01T06:23:24Z</time>
      </trkpt>
      <trkpt lat="49.0926" lon="3.64331">
        <ele>88.4</ele>
        <time>2020-07-01T06:23:25Z</time>
      </trkpt>
      <trkpt lat="49.09258" lon="3.64328">
        <ele>88.6</ele>
        <time>2020-07-01T06:23:26Z</time>
      </trkpt>
      <trkpt lat="49.09257" lon="3.64325">
        <ele>88.8</ele>
        <time>2020-07-01T06:23:27Z</time>
      </trkpt>
      <trkpt lat="49.09255" lon="3.64322">
        <ele>89</ele>
        <time>2020-07-01T06:23:28Z</time>
      </trkpt>
      <trkpt lat="49.09253" lon="3.64318">
        <ele>89.2</ele>
        <time>2020-07-01T06:23:29Z</time>
      </trkpt>
      <trkpt lat="49.0925" lon="3.64312">
        <ele>89.5</ele>
        <time>2020-07-01T06:23:30Z</time>
      </trkpt>
      <trkpt lat="49.09249" lon="3.64309">
        <ele>89.7</ele>
        <time>2020-07-01T06:23:31Z</time>
      </trkpt>
      <trkpt lat="49.09248" lon="3.64304">
        <ele>90.1</ele>
        <time>2020-07-01T06:23:32Z</time>
      </trkpt>
      <trkpt lat="49.09247" lon="3.64303">
        <ele>90.2</ele>
        <time>2020-07-01T06:23:33Z</time>
      </trkpt>
      <trkpt lat="49.09247" lon="3.64301">
        <ele>90.2</ele>
        <time>2020-07-01T06:23:34Z</time>
      </trkpt>
      <trkpt lat="49.09246" lon="3.64299">
        <ele>90.3</ele>
        <time>2020-07-01T06:23:35Z</time>
      </trkpt>
      <trkpt lat="49.09243" lon="3.64294">
        <ele>90.5</ele>
        <time>2020-07-01T06:23:36Z</time>
      </trkpt>
      <trkpt lat="49.09241" lon="3.6429">
        <ele>90.7</ele>
        <time>2020-07-01T06:23:37Z</time>
      </trkpt>
      <trkpt lat="49.0924" lon="3.64289">
        <ele>90.8</ele>
        <time>2020-07-01T06:23:38Z</time>
      </trkpt>
      <trkpt lat="49.09238" lon="3.64286">
        <ele>90.9</ele>
        <time>2020-07-01T06:23:39Z</time>
      </trkpt>
      <trkpt lat="49.09237" lon="3.64282">
        <ele>91.1</ele>
        <time>2020-07-01T06:23:40Z</time>
      </trkpt>
      <trkpt lat="49.09234" lon="3.64277">
        <ele>91.3</ele>
        <time>2020-07-01T06:23:41Z</time>
      </trkpt>
      <trkpt lat="49.09234" lon="3.64276">
        <ele>91.4</ele>
        <time>2020-07-01T06:23:42Z</time>
      </trkpt>
      <trkpt lat="49.09232" lon="3.64272">
        <ele>91.5</ele>
        <time>2020-07-01T06:23:43Z</time>
      </trkpt>
      <trkpt lat="49.09231" lon="3.6427">
        <ele>91.6</ele>
        <time>2020-07-01T06:23:44Z</time>
      </trkpt>
      <trkpt lat="49.09231" lon="3.64263">
        <ele>91.9</ele>
        <time>2020-07-01T06:23:45Z</time>
      </trkpt>
      <trkpt lat="49.09229" lon="3.64259">
        <ele>92</ele>
        <time>2020-07-01T06:23:46Z</time>
      </trkpt>
      <trkpt lat="49.09228" lon="3.64257">
        <ele>92.1</ele>
        <time>2020-07-01T06:23:47Z</time>
      </trkpt>
      <trkpt lat="49.09227" lon="3.64253">
        <ele>92.2</ele>
        <time>2020-07-01T06:23:48Z</time>
      </trkpt>
      <trkpt lat="49.09225" lon="3.64249">
        <ele>92.3</ele>
        <time>2020-07-01T06:23:49Z</time>
      </trkpt>
      <trkpt lat="49.09224" lon="3.64245">
        <ele>92.4</ele>
        <time>2020-07-01T06:23:50Z</time>
      </trkpt>
      <trkpt lat="49.09222" lon="3.64241">
        <ele>92.5</ele>
        <time>2020-07-01T06:23:51Z</time>
      </trkpt>
      <trkpt lat="49.09221" lon="3.64234">
        <ele>92.8</ele>
        <time>2020-07-01T06:23:52Z</time>
      </trkpt>
      <trkpt lat="49.09219" lon="3.64227">
        <ele>93</ele>
        <time>2020-07-01T06:23:53Z</time>
      </trkpt>
      <trkpt lat="49.09218" lon="3.64223">
        <ele>93.2</ele>
        <time>2020-07-01T06:23:54Z</time>
      </trkpt>
      <trkpt lat="49.09216" lon="3.64219">
        <ele>93.3</ele>
        <time>2020-07-01T06:23:55Z</time>
      </trkpt>
      <trkpt lat="49.09214" lon="3.64214">
        <ele>93.5</ele>
        <time>2020-07-01T06:23:56Z</time>
      </trkpt>
      <trkpt lat="49.09212" lon="3.6421">
        <ele>93.6</ele>
        <time>2020-07-01T06:23:57Z</time>
      </trkpt>
      <trkpt lat="49.09209" lon="3.64203">
        <ele>93.9</ele>
        <time>2020-07-01T06:23:58Z</time>
      </trkpt>
      <trkpt lat="49.09208" lon="3.64198">
        <ele>94</ele>
        <time>2020-07-01T06:23:59Z</time>
      </trkpt>
      <trkpt lat="49.09205" lon="3.64194">
        <ele>94.2</ele>
        <time>2020-07-01T06:24:00Z</time>
      </trkpt>
      <trkpt lat="49.09204" lon="3.64192">
        <ele>94.2</ele>
        <time>2020-07-01T06:24:01Z</time>
      </trkpt>
      <trkpt lat="49.09202" lon="3.64189">
        <ele>94.4</ele>
        <time>2020-07-01T06:24:02Z</time>
      </trkpt>
      <trkpt lat="49.09198" lon="3.64184">
        <ele>94.6</ele>
        <time>2020-07-01T06:24:03Z</time>
      </trkpt>
      <trkpt lat="49.09197" lon="3.64182">
        <ele>94.6</ele>
        <time>2020-07-01T06:24:04Z</time>
      </trkpt>
      <trkpt lat="49.09196" lon="3.64177">
        <ele>94.9</ele>
        <time>2020-07-01T06:24:05Z</time>
      </trkpt>
      <trkpt lat="49.09195" lon="3.6417">
        <ele>94.8</ele>
        <time>2020-07-01T06:24:06Z</time>
      </trkpt>
      <trkpt lat="49.09194" lon="3.64166">
        <ele>94.8</ele>
        <time>2020-07-01T06:24:07Z</time>
      </trkpt>
      <trkpt lat="49.09192" lon="3.6416">
        <ele>94.8</ele>
        <time>2020-07-01T06:24:08Z</time>
      </trkpt>
      <trkpt lat="49.09191" lon="3.64158">
        <ele>95</ele>
        <time>2020-07-01T06:24:09Z</time>
      </trkpt>
      <trkpt lat="49.09189" lon="3.64151">
        <ele>95.1</ele>
        <time>2020-07-01T06:24:10Z</time>
      </trkpt>
      <trkpt lat="49.09187" lon="3.64146">
        <ele>95.3</ele>
        <time>2020-07-01T06:24:11Z</time>
      </trkpt>
      <trkpt lat="49.09185" lon="3.6414">
        <ele>95.4</ele>
        <time>2020-07-01T06:24:12Z</time>
      </trkpt>
      <trkpt lat="49.09182" lon="3.64135">
        <ele>95.6</ele>
        <time>2020-07-01T06:24:13Z</time>
      </trkpt>
      <trkpt lat="49.0918" lon="3.64129">
        <ele>95.7</ele>
        <time>2020-07-01T06:24:14Z</time>
      </trkpt>
      <trkpt lat="49.09178" lon="3.64125">
        <ele>95.8</ele>
        <time>2020-07-01T06:24:15Z</time>
      </trkpt>
      <trkpt lat="49.09176" lon="3.6412">
        <ele>96</ele>
        <time>2020-07-01T06:24:16Z</time>
      </trkpt>
      <trkpt lat="49.09174" lon="3.64116">
        <ele>96.1</ele>
        <time>2020-07-01T06:24:17Z</time>
      </trkpt>
      <trkpt lat="49.09173" lon="3.64114">
        <ele>96.2</ele>
        <time>2020-07-01T06:24:18Z</time>
      </trkpt>
      <trkpt lat="49.09171" lon="3.64109">
        <ele>96.3</ele>
        <time>2020-07-01T06:24:19Z</time>
      </trkpt>
      <trkpt lat="49.09167" lon="3.64106">
        <ele>96.4</ele>
        <time>2020-07-01T06:24:20Z</time>
      </trkpt>
      <trkpt lat="49.09166" lon="3.64103">
        <ele>96.5</ele>
        <time>2020-07-01T06:24:21Z</time>
      </trkpt>
      <trkpt lat="49.09164" lon="3.64098">
        <ele>96.6</ele>
        <time>2020-07-01T06:24:22Z</time>
      </trkpt>
      <trkpt lat="49.09161" lon="3.64096">
        <ele>96.7</ele>
        <time>2020-07-01T06:24:23Z</time>
      </trkpt>
      <trkpt lat="49.09159" lon="3.64092">
        <ele>96.8</ele>
        <time>2020-07-01T06:24:24Z</time>
      </trkpt>
      <trkpt lat="49.09157" lon="3.64089">
        <ele>96.9</ele>
        <time>2020-07-01T06:24:25Z</time>
      </trkpt>
      <trkpt lat="49.09154" lon="3.64085">
        <ele>97</ele>
        <time>2020-07-01T06:24:26Z</time>
      </trkpt>
      <trkpt lat="49.09152" lon="3.64081">
        <ele>97.1</ele>
        <time>2020-07-01T06:24:27Z</time>
      </trkpt>
      <trkpt lat="49.09149" lon="3.64075">
        <ele>97.3</ele>
        <time>2020-07-01T06:24:28Z</time>
      </trkpt>
      <trkpt lat="49.09148" lon="3.64071">
        <ele>97.3</ele>
        <time>2020-07-01T06:24:29Z</time>
      </trkpt>
      <trkpt lat="49.09146" lon="3.64067">
        <ele>97.4</ele>
        <time>2020-07-01T06:24:30Z</time>
      </trkpt>
      <trkpt lat="49.09145" lon="3.64066">
        <ele>97.4</ele>
        <time>2020-07-01T06:24:31Z</time>
      </trkpt>
      <trkpt lat="49.09144" lon="3.64061">
        <ele>97.5</ele>
        <time>2020-07-01T06:24:32Z</time>
      </trkpt>
      <trkpt lat="49.09144" lon="3.64059">
        <ele>97.6</ele>
        <time>2020-07-01T06:24:33Z</time>
      </trkpt>
      <trkpt lat="49.09142" lon="3.64054">
        <ele>97.7</ele>
        <time>2020-07-01T06:24:34Z</time>
      </trkpt>
      <trkpt lat="49.0914" lon="3.64051">
        <ele>97.7</ele>
        <time>2020-07-01T06:24:35Z</time>
      </trkpt>
      <trkpt lat="49.09137" lon="3.64048">
        <ele>97.8</ele>
        <time>2020-07-01T06:24:36Z</time>
      </trkpt>
      <trkpt lat="49.09134" lon="3.64041">
        <ele>98</ele>
        <time>2020-07-01T06:24:37Z</time>
      </trkpt>
      <trkpt lat="49.09131" lon="3.64037">
        <ele>98.1</ele>
        <time>2020-07-01T06:24:38Z</time>
      </trkpt>
      <trkpt lat="49.0913" lon="3.64034">
        <ele>98.1</ele>
        <time>2020-07-01T06:24:39Z</time>
      </trkpt>
      <trkpt lat="49.09127" lon="3.6403">
        <ele>98.2</ele>
        <time>2020-07-01T06:24:40Z</time>
      </trkpt>
      <trkpt lat="49.09126" lon="3.64025">
        <ele>98.3</ele>
        <time>2020-07-01T06:24:41Z</time>
      </trkpt>
      <trkpt lat="49.09124" lon="3.6402">
        <ele>98.4</ele>
        <time>2020-07-01T06:24:42Z</time>
      </trkpt>
      <trkpt lat="49.09123" lon="3.64015">
        <ele>98.5</ele>
        <time>2020-07-01T06:24:43Z</time>
      </trkpt>
      <trkpt lat="49.09121" lon="3.64011">
        <ele>98.6</ele>
        <time>2020-07-01T06:24:44Z</time>
      </trkpt>
      <trkpt lat="49.0912" lon="3.64007">
        <ele>98.7</ele>
        <time>2020-07-01T06:24:45Z</time>
      </trkpt>
      <trkpt lat="49.09118" lon="3.64002">
        <ele>98.8</ele>
        <time>2020-07-01T06:24:46Z</time>
      </trkpt>
      <trkpt lat="49.09115" lon="3.63998">
        <ele>98.9</ele>
        <time>2020-07-01T06:24:47Z</time>
      </trkpt>
      <trkpt lat="49.09113" lon="3.63993">
        <ele>99</ele>
        <time>2020-07-01T06:24:48Z</time>
      </trkpt>
      <trkpt lat="49.0911" lon="3.63991">
        <ele>99.1</ele>
        <time>2020-07-01T06:24:49Z</time>
      </trkpt>
      <trkpt lat="49.09108" lon="3.6399">
        <ele>99.1</ele>
        <time>2020-07-01T06:24:50Z</time>
      </trkpt>
      <trkpt lat="49.09106" lon="3.63986">
        <ele>99.3</ele>
        <time>2020-07-01T06:24:51Z</time>
      </trkpt>
      <trkpt lat="49.09102" lon="3.63982">
        <ele>99.3</ele>
        <time>2020-07-01T06:24:52Z</time>
      </trkpt>
      <trkpt lat="49.09099" lon="3.63977">
        <ele>99.3</ele>
        <time>2020-07-01T06:24:53Z</time>
      </trkpt>
      <trkpt lat="49.09097" lon="3.63972">
        <ele>99.4</ele>
        <time>2020-07-01T06:24:54Z</time>
      </trkpt>
      <trkpt lat="49.09093" lon="3.63964">
        <ele>99.5</ele>
        <time>2020-07-01T06:24:55Z</time>
      </trkpt>
      <trkpt lat="49.0909" lon="3.63959">
        <ele>99.5</ele>
        <time>2020-07-01T06:24:56Z</time>
      </trkpt>
      <trkpt lat="49.09086" lon="3.63955">
        <ele>99.6</ele>
        <time>2020-07-01T06:24:57Z</time>
      </trkpt>
      <trkpt lat="49.09084" lon="3.63951">
        <ele>99.6</ele>
        <time>2020-07-01T06:24:58Z</time>
      </trkpt>
      <trkpt lat="49.09082" lon="3.63947">
        <ele>99.7</ele>
        <time>2020-07-01T06:24:59Z</time>
      </trkpt>
      <trkpt lat="49.09079" lon="3.63942">
        <ele>99.7</ele>
        <time>2020-07-01T06:25:00Z</time>
      </trkpt>
      <trkpt lat="49.09076" lon="3.63938">
        <ele>99.8</ele>
        <time>2020-07-01T06:25:01Z</time>
      </trkpt>
      <trkpt lat="49.09074" lon="3.63932">
        <ele>99.8</ele>
        <time>2020-07-01T06:25:02Z</time>
      </trkpt>
      <trkpt lat="49.09072" lon="3.63928">
        <ele>99.9</ele>
        <time>2020-07-01T06:25:03Z</time>
      </trkpt>
      <trkpt lat="49.09069" lon="3.63925">
        <ele>99.9</ele>
        <time>2020-07-01T06:25:04Z</time>
      </trkpt>
      <trkpt lat="49.09067" lon="3.63921">
        <ele>99.9</ele>
        <time>2020-07-01T06:25:05Z</time>
      </trkpt>
      <trkpt lat="49.09064" lon="3.63916">
        <ele>100</ele>
        <time>2020-07-01T06:25:06Z</time>
      </trkpt>
      <trkpt lat="49.09061" lon="3.63911">
        <ele>100</ele>
        <time>2020-07-01T06:25:07Z</time>
      </trkpt>
      <trkpt lat="49.09059" lon="3.63908">
        <ele>100.1</ele>
        <time>2020-07-01T06:25:08Z</time>
      </trkpt>
      <trkpt lat="49.09057" lon="3.63904">
        <ele>100.1</ele>
        <time>2020-07-01T06:25:09Z</time>
      </trkpt>
      <trkpt lat="49.09055" lon="3.63899">
        <ele>100.1</ele>
        <time>2020-07-01T06:25:10Z</time>
      </trkpt>
      <trkpt lat="49.09054" lon="3.63896">
        <ele>100.2</ele>
        <time>2020-07-01T06:25:11Z</time>
      </trkpt>
      <trkpt lat="49.09051" lon="3.63892">
        <ele>100.2</ele>
        <time>2020-07-01T06:25:12Z</time>
      </trkpt>
      <trkpt lat="49.09048" lon="3.6389">
        <ele>100.2</ele>
        <time>2020-07-01T06:25:13Z</time>
      </trkpt>
      <trkpt lat="49.09045" lon="3.63886">
        <ele>100.3</ele>
        <time>2020-07-01T06:25:14Z</time>
      </trkpt>
      <trkpt lat="49.09042" lon="3.63882">
        <ele>100.3</ele>
        <time>2020-07-01T06:25:15Z</time>
      </trkpt>
      <trkpt lat="49.09039" lon="3.63878">
        <ele>100.3</ele>
        <time>2020-07-01T06:25:16Z</time>
      </trkpt>
      <trkpt lat="49.09037" lon="3.63874">
        <ele>100.4</ele>
        <time>2020-07-01T06:25:17Z</time>
      </trkpt>
      <trkpt lat="49.09035" lon="3.6387">
        <ele>100.4</ele>
        <time>2020-07-01T06:25:18Z</time>
      </trkpt>
      <trkpt lat="49.09033" lon="3.63867">
        <ele>100.4</ele>
        <time>2020-07-01T06:25:19Z</time>
      </trkpt>
      <trkpt lat="49.09031" lon="3.63862">
        <ele>100.4</ele>
        <time>2020-07-01T06:25:20Z</time>
      </trkpt>
      <trkpt lat="49.09028" lon="3.63855">
        <ele>100.5</ele>
        <time>2020-07-01T06:25:21Z</time>
      </trkpt>
      <trkpt lat="49.09026" lon="3.63849">
        <ele>100.5</ele>
        <time>2020-07-01T06:25:22Z</time>
      </trkpt>
      <trkpt lat="49.09023" lon="3.63844">
        <ele>100.5</ele>
        <time>2020-07-01T06:25:23Z</time>
      </trkpt>
      <trkpt lat="49.0902" lon="3.6384">
        <ele>100.6</ele>
        <time>2020-07-01T06:25:24Z</time>
      </trkpt>
      <trkpt lat="49.09017" lon="3.63835">
        <ele>100.5</ele>
        <time>2020-07-01T06:25:25Z</time>
      </trkpt>
      <trkpt lat="49.09014" lon="3.63829">
        <ele>100.5</ele>
        <time>2020-07-01T06:25:26Z</time>
      </trkpt>
      <trkpt lat="49.09012" lon="3.63826">
        <ele>100.5</ele>
        <time>2020-07-01T06:25:27Z</time>
      </trkpt>
      <trkpt lat="49.09009" lon="3.63821">
        <ele>100.5</ele>
        <time>2020-07-01T06:25:28Z</time>
      </trkpt>
      <trkpt lat="49.09007" lon="3.63817">
        <ele>100.5</ele>
        <time>2020-07-01T06:25:29Z</time>
      </trkpt>
      <trkpt lat="49.09004" lon="3.63813">
        <ele>100.5</ele>
        <time>2020-07-01T06:25:30Z</time>
      </trkpt>
      <trkpt lat="49.09001" lon="3.63809">
        <ele>100.5</ele>
        <time>2020-07-01T06:25:31Z</time>
      </trkpt>
      <trkpt lat="49.08999" lon="3.63804">
        <ele>100.5</ele>
        <time>2020-07-01T06:25:32Z</time>
      </trkpt>
      <trkpt lat="49.08997" lon="3.63799">
        <ele>100.4</ele>
        <time>2020-07-01T06:25:33Z</time>
      </trkpt>
      <trkpt lat="49.08995" lon="3.63794">
        <ele>100.4</ele>
        <time>2020-07-01T06:25:34Z</time>
      </trkpt>
      <trkpt lat="49.08993" lon="3.6379">
        <ele>100.4</ele>
        <time>2020-07-01T06:25:35Z</time>
      </trkpt>
      <trkpt lat="49.08989" lon="3.63784">
        <ele>100.4</ele>
        <time>2020-07-01T06:25:36Z</time>
      </trkpt>
      <trkpt lat="49.08987" lon="3.63779">
        <ele>100.4</ele>
        <time>2020-07-01T06:25:37Z</time>
      </trkpt>
      <trkpt lat="49.08985" lon="3.63775">
        <ele>100.4</ele>
        <time>2020-07-01T06:25:38Z</time>
      </trkpt>
      <trkpt lat="49.08982" lon="3.6377">
        <ele>100.3</ele>
        <time>2020-07-01T06:25:39Z</time>
      </trkpt>
      <trkpt lat="49.08979" lon="3.63766">
        <ele>100.3</ele>
        <time>2020-07-01T06:25:40Z</time>
      </trkpt>
      <trkpt lat="49.08976" lon="3.6376">
        <ele>100.2</ele>
        <time>2020-07-01T06:25:41Z</time>
      </trkpt>
      <trkpt lat="49.08974" lon="3.63754">
        <ele>100.1</ele>
        <time>2020-07-01T06:25:42Z</time>
      </trkpt>
      <trkpt lat="49.08973" lon="3.63751">
        <ele>100</ele>
        <time>2020-07-01T06:25:43Z</time>
      </trkpt>
      <trkpt lat="49.08971" lon="3.63747">
        <ele>99.9</ele>
        <time>2020-07-01T06:25:44Z</time>
      </trkpt>
      <trkpt lat="49.08968" lon="3.63741">
        <ele>99.8</ele>
        <time>2020-07-01T06:25:45Z</time>
      </trkpt>
      <trkpt lat="49.08964" lon="3.63737">
        <ele>99.6</ele>
        <time>2020-07-01T06:25:46Z</time>
      </trkpt>
      <trkpt lat="49.08958" lon="3.63731">
        <ele>99.3</ele>
        <time>2020-07-01T06:25:47Z</time>
      </trkpt>
      <trkpt lat="49.08953" lon="3.63727">
        <ele>99.1</ele>
        <time>2020-07-01T06:25:48Z</time>
      </trkpt>
      <trkpt lat="49.08949" lon="3.63723">
        <ele>98.8</ele>
        <time>2020-07-01T06:25:49Z</time>
      </trkpt>
      <trkpt lat="49.08944" lon="3.6372">
        <ele>98.6</ele>
        <time>2020-07-01T06:25:50Z</time>
      </trkpt>
      <trkpt lat="49.0894" lon="3.63717">
        <ele>98.4</ele>
        <time>2020-07-01T06:25:51Z</time>
      </trkpt>
      <trkpt lat="49.08936" lon="3.63714">
        <ele>98.1</ele>
        <time>2020-07-01T06:25:52Z</time>
      </trkpt>
      <trkpt lat="49.08931" lon="3.6371">
        <ele>97.8</ele>
        <time>2020-07-01T06:25:53Z</time>
      </trkpt>
      <trkpt lat="49.08926" lon="3.63706">
        <ele>97.5</ele>
        <time>2020-07-01T06:25:54Z</time>
      </trkpt>
      <trkpt lat="49.08921" lon="3.637">
        <ele>97.1</ele>
        <time>2020-07-01T06:25:55Z</time>
      </trkpt>
      <trkpt lat="49.08915" lon="3.63695">
        <ele>96.7</ele>
        <time>2020-07-01T06:25:56Z</time>
      </trkpt>
      <trkpt lat="49.0891" lon="3.6369">
        <ele>96.4</ele>
        <time>2020-07-01T06:25:57Z</time>
      </trkpt>
      <trkpt lat="49.08905" lon="3.63685">
        <ele>96</ele>
        <time>2020-07-01T06:25:58Z</time>
      </trkpt>
      <trkpt lat="49.08899" lon="3.6368">
        <ele>95.7</ele>
        <time>2020-07-01T06:25:59Z</time>
      </trkpt>
      <trkpt lat="49.08893" lon="3.63674">
        <ele>95.2</ele>
        <time>2020-07-01T06:26:00Z</time>
      </trkpt>
      <trkpt lat="49.08889" lon="3.63671">
        <ele>95.1</ele>
        <time>2020-07-01T06:26:01Z</time>
      </trkpt>
      <trkpt lat="49.08884" lon="3.63667">
        <ele>94.9</ele>
        <time>2020-07-01T06:26:02Z</time>
      </trkpt>
      <trkpt lat="49.08878" lon="3.63662">
        <ele>94.6</ele>
        <time>2020-07-01T06:26:03Z</time>
      </trkpt>
      <trkpt lat="49.08873" lon="3.63658">
        <ele>94.4</ele>
        <time>2020-07-01T06:26:04Z</time>
      </trkpt>
      <trkpt lat="49.08868" lon="3.63652">
        <ele>94.1</ele>
        <time>2020-07-01T06:26:05Z</time>
      </trkpt>
      <trkpt lat="49.08863" lon="3.63647">
        <ele>93.8</ele>
        <time>2020-07-01T06:26:06Z</time>
      </trkpt>
      <trkpt lat="49.08857" lon="3.63642">
        <ele>93.5</ele>
        <time>2020-07-01T06:26:07Z</time>
      </trkpt>
      <trkpt lat="49.08852" lon="3.63635">
        <ele>93.1</ele>
        <time>2020-07-01T06:26:08Z</time>
      </trkpt>
      <trkpt lat="49.08847" lon="3.6363">
        <ele>92.9</ele>
        <time>2020-07-01T06:26:09Z</time>
      </trkpt>
      <trkpt lat="49.08843" lon="3.63625">
        <ele>92.6</ele>
        <time>2020-07-01T06:26:10Z</time>
      </trkpt>
      <trkpt lat="49.08839" lon="3.6362">
        <ele>92.3</ele>
        <time>2020-07-01T06:26:11Z</time>
      </trkpt>
      <trkpt lat="49.08834" lon="3.63615">
        <ele>92</ele>
        <time>2020-07-01T06:26:12Z</time>
      </trkpt>
      <trkpt lat="49.0883" lon="3.63609">
        <ele>91.8</ele>
        <time>2020-07-01T06:26:13Z</time>
      </trkpt>
      <trkpt lat="49.08825" lon="3.63603">
        <ele>91.5</ele>
        <time>2020-07-01T06:26:14Z</time>
      </trkpt>
      <trkpt lat="49.0882" lon="3.63596">
        <ele>91.2</ele>
        <time>2020-07-01T06:26:15Z</time>
      </trkpt>
      <trkpt lat="49.08816" lon="3.63589">
        <ele>90.9</ele>
        <time>2020-07-01T06:26:16Z</time>
      </trkpt>
      <trkpt lat="49.08811" lon="3.63581">
        <ele>90.5</ele>
        <time>2020-07-01T06:26:17Z</time>
      </trkpt>
      <trkpt lat="49.08807" lon="3.63572">
        <ele>90.2</ele>
        <time>2020-07-01T06:26:18Z</time>
      </trkpt>
      <trkpt lat="49.08803" lon="3.63564">
        <ele>89.9</ele>
        <time>2020-07-01T06:26:19Z</time>
      </trkpt>
      <trkpt lat="49.08799" lon="3.63556">
        <ele>89.7</ele>
        <time>2020-07-01T06:26:20Z</time>
      </trkpt>
      <trkpt lat="49.08795" lon="3.63548">
        <ele>89.4</ele>
        <time>2020-07-01T06:26:21Z</time>
      </trkpt>
      <trkpt lat="49.08792" lon="3.6354">
        <ele>89.3</ele>
        <time>2020-07-01T06:26:22Z</time>
      </trkpt>
      <trkpt lat="49.08789" lon="3.63532">
        <ele>89.1</ele>
        <time>2020-07-01T06:26:23Z</time>
      </trkpt>
      <trkpt lat="49.08786" lon="3.63525">
        <ele>89</ele>
        <time>2020-07-01T06:26:24Z</time>
      </trkpt>
      <trkpt lat="49.08782" lon="3.63518">
        <ele>88.9</ele>
        <time>2020-07-01T06:26:25Z</time>
      </trkpt>
      <trkpt lat="49.08779" lon="3.6351">
        <ele>88.8</ele>
        <time>2020-07-01T06:26:26Z</time>
      </trkpt>
      <trkpt lat="49.08776" lon="3.63501">
        <ele>88.7</ele>
        <time>2020-07-01T06:26:27Z</time>
      </trkpt>
      <trkpt lat="49.08773" lon="3.63492">
        <ele>88.6</ele>
        <time>2020-07-01T06:26:28Z</time>
      </trkpt>
      <trkpt lat="49.0877" lon="3.63483">
        <ele>88.6</ele>
        <time>2020-07-01T06:26:29Z</time>
      </trkpt>
      <trkpt lat="49.08767" lon="3.63475">
        <ele>88.6</ele>
        <time>2020-07-01T06:26:30Z</time>
      </trkpt>
      <trkpt lat="49.08764" lon="3.63468">
        <ele>88.7</ele>
        <time>2020-07-01T06:26:31Z</time>
      </trkpt>
      <trkpt lat="49.08762" lon="3.63462">
        <ele>88.7</ele>
        <time>2020-07-01T06:26:32Z</time>
      </trkpt>
      <trkpt lat="49.08759" lon="3.63455">
        <ele>88.7</ele>
        <time>2020-07-01T06:26:33Z</time>
      </trkpt>
      <trkpt lat="49.08757" lon="3.63448">
        <ele>88.7</ele>
        <time>2020-07-01T06:26:34Z</time>
      </trkpt>
      <trkpt lat="49.08755" lon="3.63442">
        <ele>88.7</ele>
        <time>2020-07-01T06:26:35Z</time>
      </trkpt>
      <trkpt lat="49.08753" lon="3.63437">
        <ele>88.7</ele>
        <time>2020-07-01T06:26:36Z</time>
      </trkpt>
      <trkpt lat="49.08751" lon="3.63434">
        <ele>88.7</ele>
        <time>2020-07-01T06:26:37Z</time>
      </trkpt>
      <trkpt lat="49.08749" lon="3.63428">
        <ele>88.6</ele>
        <time>2020-07-01T06:26:38Z</time>
      </trkpt>
      <trkpt lat="49.08747" lon="3.63425">
        <ele>88.6</ele>
        <time>2020-07-01T06:26:39Z</time>
      </trkpt>
      <trkpt lat="49.08746" lon="3.6342">
        <ele>88.6</ele>
        <time>2020-07-01T06:26:40Z</time>
      </trkpt>
      <trkpt lat="49.08744" lon="3.63415">
        <ele>88.5</ele>
        <time>2020-07-01T06:26:41Z</time>
      </trkpt>
      <trkpt lat="49.08743" lon="3.6341">
        <ele>88.5</ele>
        <time>2020-07-01T06:26:42Z</time>
      </trkpt>
      <trkpt lat="49.08742" lon="3.63408">
        <ele>88.5</ele>
        <time>2020-07-01T06:26:43Z</time>
      </trkpt>
      <trkpt lat="49.08739" lon="3.63403">
        <ele>88.5</ele>
        <time>2020-07-01T06:26:44Z</time>
      </trkpt>
      <trkpt lat="49.08739" lon="3.63402">
        <ele>88.5</ele>
        <time>2020-07-01T06:26:45Z</time>
      </trkpt>
      <trkpt lat="49.08737" lon="3.63396">
        <ele>88.5</ele>
        <time>2020-07-01T06:26:46Z</time>
      </trkpt>
      <trkpt lat="49.08736" lon="3.63394">
        <ele>88.5</ele>
        <time>2020-07-01T06:26:47Z</time>
      </trkpt>
      <trkpt lat="49.08735" lon="3.63391">
        <ele>88.5</ele>
        <time>2020-07-01T06:26:48Z</time>
      </trkpt>
      <trkpt lat="49.08733" lon="3.63387">
        <ele>88.5</ele>
        <time>2020-07-01T06:26:49Z</time>
      </trkpt>
      <trkpt lat="49.08732" lon="3.63383">
        <ele>88.5</ele>
        <time>2020-07-01T06:26:50Z</time>
      </trkpt>
      <trkpt lat="49.0873" lon="3.63379">
        <ele>88.5</ele>
        <time>2020-07-01T06:26:51Z</time>
      </trkpt>
      <trkpt lat="49.08728" lon="3.63373">
        <ele>88.6</ele>
        <time>2020-07-01T06:26:52Z</time>
      </trkpt>
      <trkpt lat="49.08726" lon="3.63368">
        <ele>88.6</ele>
        <time>2020-07-01T06:26:53Z</time>
      </trkpt>
      <trkpt lat="49.08723" lon="3.63362">
        <ele>88.7</ele>
        <time>2020-07-01T06:26:54Z</time>
      </trkpt>
      <trkpt lat="49.08721" lon="3.63356">
        <ele>88.8</ele>
        <time>2020-07-01T06:26:55Z</time>
      </trkpt>
      <trkpt lat="49.08719" lon="3.63352">
        <ele>88.8</ele>
        <time>2020-07-01T06:26:56Z</time>
      </trkpt>
      <trkpt lat="49.08717" lon="3.63347">
        <ele>88.9</ele>
        <time>2020-07-01T06:26:57Z</time>
      </trkpt>
      <trkpt lat="49.08715" lon="3.63342">
        <ele>88.9</ele>
        <time>2020-07-01T06:26:58Z</time>
      </trkpt>
      <trkpt lat="49.08714" lon="3.6334">
        <ele>89</ele>
        <time>2020-07-01T06:26:59Z</time>
      </trkpt>
      <trkpt lat="49.08712" lon="3.63335">
        <ele>89</ele>
        <time>2020-07-01T06:27:00Z</time>
      </trkpt>
      <trkpt lat="49.08709" lon="3.6333">
        <ele>89.1</ele>
        <time>2020-07-01T06:27:01Z</time>
      </trkpt>
      <trkpt lat="49.08708" lon="3.63328">
        <ele>89.1</ele>
        <time>2020-07-01T06:27:02Z</time>
      </trkpt>
      <trkpt lat="49.08706" lon="3.63324">
        <ele>89.1</ele>
        <time>2020-07-01T06:27:03Z</time>
      </trkpt>
      <trkpt lat="49.08705" lon="3.63323">
        <ele>89.2</ele>
        <time>2020-07-01T06:27:04Z</time>
      </trkpt>
      <trkpt lat="49.08704" lon="3.63317">
        <ele>89.2</ele>
        <time>2020-07-01T06:27:05Z</time>
      </trkpt>
      <trkpt lat="49.08701" lon="3.63312">
        <ele>89.3</ele>
        <time>2020-07-01T06:27:06Z</time>
      </trkpt>
      <trkpt lat="49.087" lon="3.63309">
        <ele>89.3</ele>
        <time>2020-07-01T06:27:07Z</time>
      </trkpt>
      <trkpt lat="49.08699" lon="3.63305">
        <ele>89.4</ele>
        <time>2020-07-01T06:27:08Z</time>
      </trkpt>
      <trkpt lat="49.08698" lon="3.63303">
        <ele>89.4</ele>
        <time>2020-07-01T06:27:09Z</time>
      </trkpt>
      <trkpt lat="49.08698" lon="3.633">
        <ele>89.5</ele>
        <time>2020-07-01T06:27:10Z</time>
      </trkpt>
      <trkpt lat="49.08698" lon="3.63298">
        <ele>89.5</ele>
        <time>2020-07-01T06:27:11Z</time>
      </trkpt>
      <trkpt lat="49.08698" lon="3.63298">
        <ele>89.5</ele>
        <time>2020-07-01T06:27:12Z</time>
      </trkpt>
      <trkpt lat="49.08697" lon="3.63298">
        <ele>89.5</ele>
        <time>2020-07-01T06:27:13Z</time>
      </trkpt>
      <trkpt lat="49.08698" lon="3.63298">
        <ele>89.5</ele>
        <time>2020-07-01T06:27:14Z</time>
      </trkpt>
      <trkpt lat="49.08699" lon="3.63299">
        <ele>89.5</ele>
        <time>2020-07-01T06:27:15Z</time>
      </trkpt>
      <trkpt lat="49.08699" lon="3.63298">
        <ele>89.5</ele>
        <time>2020-07-01T06:27:16Z</time>
      </trkpt>
      <trkpt lat="49.08699" lon="3.63297">
        <ele>89.5</ele>
        <time>2020-07-01T06:27:17Z</time>
      </trkpt>
      <trkpt lat="49.08699" lon="3.63297">
        <ele>89.5</ele>
        <time>2020-07-01T06:27:18Z</time>
      </trkpt>
      <trkpt lat="49.08699" lon="3.63298">
        <ele>89.6</ele>
        <time>2020-07-01T06:27:19Z</time>
      </trkpt>
      <trkpt lat="49.08699" lon="3.63299">
        <ele>89.6</ele>
        <time>2020-07-01T06:27:20Z</time>
      </trkpt>
      <trkpt lat="49.08699" lon="3.63299">
        <ele>89.6</ele>
        <time>2020-07-01T06:27:21Z</time>
      </trkpt>
      <trkpt lat="49.087" lon="3.63299">
        <ele>89.6</ele>
        <time>2020-07-01T06:27:22Z</time>
      </trkpt>
      <trkpt lat="49.08697" lon="3.63295">
        <ele>89.6</ele>
        <time>2020-07-01T06:29:36Z</time>
      </trkpt>
      <trkpt lat="49.08697" lon="3.63293">
        <ele>89.6</ele>
        <time>2020-07-01T06:29:37Z</time>
      </trkpt>
      <trkpt lat="49.08695" lon="3.6329">
        <ele>89.7</ele>
        <time>2020-07-01T06:29:38Z</time>
      </trkpt>
      <trkpt lat="49.08695" lon="3.63289">
        <ele>89.7</ele>
        <time>2020-07-01T06:29:39Z</time>
      </trkpt>
      <trkpt lat="49.08696" lon="3.63289">
        <ele>89.7</ele>
        <time>2020-07-01T06:29:40Z</time>
      </trkpt>
      <trkpt lat="49.08696" lon="3.63289">
        <ele>89.7</ele>
        <time>2020-07-01T06:29:41Z</time>
      </trkpt>
      <trkpt lat="49.08696" lon="3.63289">
        <ele>89.7</ele>
        <time>2020-07-01T06:29:42Z</time>
      </trkpt>
      <trkpt lat="49.08695" lon="3.63288">
        <ele>89.7</ele>
        <time>2020-07-01T06:29:43Z</time>
      </trkpt>
      <trkpt lat="49.08696" lon="3.63288">
        <ele>89.7</ele>
        <time>2020-07-01T06:29:44Z</time>
      </trkpt>
      <trkpt lat="49.08696" lon="3.63288">
        <ele>89.7</ele>
        <time>2020-07-01T06:29:45Z</time>
      </trkpt>
      <trkpt lat="49.08696" lon="3.63287">
        <ele>89.7</ele>
        <time>2020-07-01T06:29:46Z</time>
      </trkpt>
      <trkpt lat="49.08696" lon="3.63287">
        <ele>89.7</ele>
        <time>2020-07-01T06:29:47Z</time>
      </trkpt>
      <trkpt lat="49.08697" lon="3.63286">
        <ele>89.7</ele>
        <time>2020-07-01T06:29:48Z</time>
      </trkpt>
      <trkpt lat="49.08697" lon="3.63286">
        <ele>89.7</ele>
        <time>2020-07-01T06:29:49Z</time>
      </trkpt>
      <trkpt lat="49.08697" lon="3.63286">
        <ele>89.7</ele>
        <time>2020-07-01T06:29:50Z</time>
      </trkpt>
      <trkpt lat="49.08697" lon="3.63285">
        <ele>89.7</ele>
        <time>2020-07-01T06:29:51Z</time>
      </trkpt>
      <trkpt lat="49.08698" lon="3.63285">
        <ele>89.7</ele>
        <time>2020-07-01T06:29:52Z</time>
      </trkpt>
      <trkpt lat="49.08698" lon="3.63284">
        <ele>89.8</ele>
        <time>2020-07-01T06:29:53Z</time>
      </trkpt>
      <trkpt lat="49.08698" lon="3.63284">
        <ele>89.8</ele>
        <time>2020-07-01T06:29:54Z</time>
      </trkpt>
      <trkpt lat="49.08698" lon="3.63283">
        <ele>89.8</ele>
        <time>2020-07-01T06:30:10Z</time>
      </trkpt>
      <trkpt lat="49.08699" lon="3.63283">
        <ele>89.8</ele>
        <time>2020-07-01T06:30:11Z</time>
      </trkpt>
      <trkpt lat="49.08699" lon="3.63282">
        <ele>89.8</ele>
        <time>2020-07-01T06:30:12Z</time>
      </trkpt>
      <trkpt lat="49.08699" lon="3.63282">
        <ele>89.8</ele>
        <time>2020-07-01T06:30:13Z</time>
      </trkpt>
      <trkpt lat="49.08699" lon="3.63282">
        <ele>89.8</ele>
        <time>2020-07-01T06:30:14Z</time>
      </trkpt>
      <trkpt lat="49.087" lon="3.63281">
        <ele>89.8</ele>
        <time>2020-07-01T06:30:15Z</time>
      </trkpt>
      <trkpt lat="49.087" lon="3.63281">
        <ele>89.8</ele>
        <time>2020-07-01T06:30:16Z</time>
      </trkpt>
      <trkpt lat="49.08699" lon="3.6328">
        <ele>89.8</ele>
        <time>2020-07-01T06:30:17Z</time>
      </trkpt>
      <trkpt lat="49.08699" lon="3.63279">
        <ele>89.8</ele>
        <time>2020-07-01T06:30:18Z</time>
      </trkpt>
      <trkpt lat="49.08699" lon="3.63279">
        <ele>89.8</ele>
        <time>2020-07-01T06:30:19Z</time>
      </trkpt>
      <trkpt lat="49.08699" lon="3.63279">
        <ele>89.8</ele>
        <time>2020-07-01T06:30:20Z</time>
      </trkpt>
      <trkpt lat="49.08698" lon="3.63279">
        <ele>89.8</ele>
        <time>2020-07-01T06:30:21Z</time>
      </trkpt>
      <trkpt lat="49.08698" lon="3.63278">
        <ele>89.8</ele>
        <time>2020-07-01T06:30:22Z</time>
      </trkpt>
      <trkpt lat="49.08698" lon="3.63278">
        <ele>89.8</ele>
        <time>2020-07-01T06:30:23Z</time>
      </trkpt>
      <trkpt lat="49.08697" lon="3.63278">
        <ele>89.8</ele>
        <time>2020-07-01T06:30:24Z</time>
      </trkpt>
      <trkpt lat="49.08697" lon="3.63278">
        <ele>89.8</ele>
        <time>2020-07-01T06:30:25Z</time>
      </trkpt>
      <trkpt lat="49.08697" lon="3.63277">
        <ele>89.8</ele>
        <time>2020-07-01T06:30:26Z</time>
      </trkpt>
      <trkpt lat="49.08697" lon="3.63277">
        <ele>89.9</ele>
        <time>2020-07-01T06:30:27Z</time>
      </trkpt>
      <trkpt lat="49.08696" lon="3.63277">
        <ele>89.9</ele>
        <time>2020-07-01T06:30:28Z</time>
      </trkpt>
      <trkpt lat="49.08696" lon="3.63277">
        <ele>89.9</ele>
        <time>2020-07-01T06:30:29Z</time>
      </trkpt>
      <trkpt lat="49.08696" lon="3.63276">
        <ele>89.9</ele>
        <time>2020-07-01T06:30:30Z</time>
      </trkpt>
      <trkpt lat="49.08696" lon="3.63276">
        <ele>89.9</ele>
        <time>2020-07-01T06:30:31Z</time>
      </trkpt>
      <trkpt lat="49.08695" lon="3.63276">
        <ele>89.9</ele>
        <time>2020-07-01T06:30:32Z</time>
      </trkpt>
      <trkpt lat="49.08695" lon="3.63276">
        <ele>89.9</ele>
        <time>2020-07-01T06:30:49Z</time>
      </trkpt>
      <trkpt lat="49.08695" lon="3.63275">
        <ele>89.9</ele>
        <time>2020-07-01T06:30:50Z</time>
      </trkpt>
      <trkpt lat="49.08693" lon="3.63271">
        <ele>89.9</ele>
        <time>2020-07-01T06:30:51Z</time>
      </trkpt>
      <trkpt lat="49.08692" lon="3.6327">
        <ele>89.9</ele>
        <time>2020-07-01T06:30:52Z</time>
      </trkpt>
      <trkpt lat="49.0869" lon="3.63265">
        <ele>90</ele>
        <time>2020-07-01T06:30:53Z</time>
      </trkpt>
      <trkpt lat="49.08689" lon="3.63262">
        <ele>90</ele>
        <time>2020-07-01T06:30:54Z</time>
      </trkpt>
      <trkpt lat="49.08686" lon="3.63257">
        <ele>90</ele>
        <time>2020-07-01T06:30:55Z</time>
      </trkpt>
      <trkpt lat="49.08684" lon="3.63251">
        <ele>90</ele>
        <time>2020-07-01T06:30:56Z</time>
      </trkpt>
      <trkpt lat="49.08681" lon="3.63246">
        <ele>89.9</ele>
        <time>2020-07-01T06:30:57Z</time>
      </trkpt>
      <trkpt lat="49.08679" lon="3.6324">
        <ele>89.9</ele>
        <time>2020-07-01T06:30:58Z</time>
      </trkpt>
      <trkpt lat="49.08677" lon="3.63234">
        <ele>89.8</ele>
        <time>2020-07-01T06:30:59Z</time>
      </trkpt>
      <trkpt lat="49.08675" lon="3.63229">
        <ele>89.8</ele>
        <time>2020-07-01T06:31:00Z</time>
      </trkpt>
      <trkpt lat="49.08672" lon="3.63223">
        <ele>89.8</ele>
        <time>2020-07-01T06:31:01Z</time>
      </trkpt>
      <trkpt lat="49.0867" lon="3.63218">
        <ele>89.8</ele>
        <time>2020-07-01T06:31:02Z</time>
      </trkpt>
      <trkpt lat="49.08668" lon="3.63212">
        <ele>89.7</ele>
        <time>2020-07-01T06:31:03Z</time>
      </trkpt>
      <trkpt lat="49.08665" lon="3.63206">
        <ele>89.7</ele>
        <time>2020-07-01T06:31:04Z</time>
      </trkpt>
      <trkpt lat="49.08662" lon="3.63202">
        <ele>89.7</ele>
        <time>2020-07-01T06:31:05Z</time>
      </trkpt>
      <trkpt lat="49.08659" lon="3.63196">
        <ele>89.7</ele>
        <time>2020-07-01T06:31:06Z</time>
      </trkpt>
      <trkpt lat="49.08657" lon="3.63192">
        <ele>89.7</ele>
        <time>2020-07-01T06:31:07Z</time>
      </trkpt>
      <trkpt lat="49.08654" lon="3.63187">
        <ele>89.8</ele>
        <time>2020-07-01T06:31:08Z</time>
      </trkpt>
      <trkpt lat="49.08651" lon="3.63182">
        <ele>89.8</ele>
        <time>2020-07-01T06:31:09Z</time>
      </trkpt>
      <trkpt lat="49.08648" lon="3.63177">
        <ele>89.9</ele>
        <time>2020-07-01T06:31:10Z</time>
      </trkpt>
      <trkpt lat="49.08645" lon="3.63171">
        <ele>90</ele>
        <time>2020-07-01T06:31:11Z</time>
      </trkpt>
      <trkpt lat="49.08642" lon="3.63166">
        <ele>90.1</ele>
        <time>2020-07-01T06:31:12Z</time>
      </trkpt>
      <trkpt lat="49.08639" lon="3.63162">
        <ele>90.2</ele>
        <time>2020-07-01T06:31:13Z</time>
      </trkpt>
      <trkpt lat="49.08636" lon="3.63158">
        <ele>90.3</ele>
        <time>2020-07-01T06:31:14Z</time>
      </trkpt>
      <trkpt lat="49.08633" lon="3.63154">
        <ele>90.4</ele>
        <time>2020-07-01T06:31:15Z</time>
      </trkpt>
      <trkpt lat="49.0863" lon="3.63148">
        <ele>90.5</ele>
        <time>2020-07-01T06:31:16Z</time>
      </trkpt>
      <trkpt lat="49.08628" lon="3.63144">
        <ele>90.6</ele>
        <time>2020-07-01T06:31:17Z</time>
      </trkpt>
      <trkpt lat="49.08624" lon="3.6314">
        <ele>90.6</ele>
        <time>2020-07-01T06:31:18Z</time>
      </trkpt>
      <trkpt lat="49.08622" lon="3.63136">
        <ele>90.6</ele>
        <time>2020-07-01T06:31:19Z</time>
      </trkpt>
      <trkpt lat="49.0862" lon="3.63132">
        <ele>90.7</ele>
        <time>2020-07-01T06:31:20Z</time>
      </trkpt>
      <trkpt lat="49.08617" lon="3.63129">
        <ele>90.7</ele>
        <time>2020-07-01T06:31:21Z</time>
      </trkpt>
      <trkpt lat="49.08616" lon="3.63128">
        <ele>90.7</ele>
        <time>2020-07-01T06:31:22Z</time>
      </trkpt>
      <trkpt lat="49.08613" lon="3.63125">
        <ele>90.8</ele>
        <time>2020-07-01T06:31:23Z</time>
      </trkpt>
      <trkpt lat="49.0861" lon="3.63121">
        <ele>90.8</ele>
        <time>2020-07-01T06:31:24Z</time>
      </trkpt>
      <trkpt lat="49.08606" lon="3.63117">
        <ele>90.9</ele>
        <time>2020-07-01T06:31:25Z</time>
      </trkpt>
      <trkpt lat="49.08603" lon="3.63114">
        <ele>90.9</ele>
        <time>2020-07-01T06:31:26Z</time>
      </trkpt>
      <trkpt lat="49.08599" lon="3.63108">
        <ele>90.9</ele>
        <time>2020-07-01T06:31:27Z</time>
      </trkpt>
      <trkpt lat="49.08596" lon="3.63104">
        <ele>91</ele>
        <time>2020-07-01T06:31:28Z</time>
      </trkpt>
      <trkpt lat="49.08593" lon="3.631">
        <ele>91</ele>
        <time>2020-07-01T06:31:29Z</time>
      </trkpt>
      <trkpt lat="49.08589" lon="3.63096">
        <ele>91.1</ele>
        <time>2020-07-01T06:31:30Z</time>
      </trkpt>
      <trkpt lat="49.08587" lon="3.63092">
        <ele>91.1</ele>
        <time>2020-07-01T06:31:31Z</time>
      </trkpt>
      <trkpt lat="49.08584" lon="3.63088">
        <ele>91.1</ele>
        <time>2020-07-01T06:31:32Z</time>
      </trkpt>
      <trkpt lat="49.08583" lon="3.63082">
        <ele>91.2</ele>
        <time>2020-07-01T06:31:33Z</time>
      </trkpt>
      <trkpt lat="49.08578" lon="3.63077">
        <ele>91.2</ele>
        <time>2020-07-01T06:31:34Z</time>
      </trkpt>
      <trkpt lat="49.08575" lon="3.63072">
        <ele>91.3</ele>
        <time>2020-07-01T06:31:35Z</time>
      </trkpt>
      <trkpt lat="49.0857" lon="3.63068">
        <ele>91.3</ele>
        <time>2020-07-01T06:31:36Z</time>
      </trkpt>
      <trkpt lat="49.08567" lon="3.63064">
        <ele>91.4</ele>
        <time>2020-07-01T06:31:37Z</time>
      </trkpt>
      <trkpt lat="49.08563" lon="3.63059">
        <ele>91.4</ele>
        <time>2020-07-01T06:31:38Z</time>
      </trkpt>
      <trkpt lat="49.0856" lon="3.63053">
        <ele>91.5</ele>
        <time>2020-07-01T06:31:39Z</time>
      </trkpt>
      <trkpt lat="49.08556" lon="3.63048">
        <ele>91.6</ele>
        <time>2020-07-01T06:31:40Z</time>
      </trkpt>
      <trkpt lat="49.08553" lon="3.63044">
        <ele>91.7</ele>
        <time>2020-07-01T06:31:41Z</time>
      </trkpt>
      <trkpt lat="49.08549" lon="3.63041">
        <ele>91.7</ele>
        <time>2020-07-01T06:31:42Z</time>
      </trkpt>
      <trkpt lat="49.08546" lon="3.63036">
        <ele>91.8</ele>
        <time>2020-07-01T06:31:43Z</time>
      </trkpt>
      <trkpt lat="49.08542" lon="3.63033">
        <ele>91.8</ele>
        <time>2020-07-01T06:31:44Z</time>
      </trkpt>
      <trkpt lat="49.08539" lon="3.63031">
        <ele>91.9</ele>
        <time>2020-07-01T06:31:45Z</time>
      </trkpt>
      <trkpt lat="49.08536" lon="3.63027">
        <ele>91.9</ele>
        <time>2020-07-01T06:31:46Z</time>
      </trkpt>
      <trkpt lat="49.08532" lon="3.63024">
        <ele>92</ele>
        <time>2020-07-01T06:31:47Z</time>
      </trkpt>
      <trkpt lat="49.08529" lon="3.63022">
        <ele>92</ele>
        <time>2020-07-01T06:31:48Z</time>
      </trkpt>
      <trkpt lat="49.08526" lon="3.63018">
        <ele>92.1</ele>
        <time>2020-07-01T06:31:49Z</time>
      </trkpt>
      <trkpt lat="49.08522" lon="3.63015">
        <ele>92.1</ele>
        <time>2020-07-01T06:31:50Z</time>
      </trkpt>
      <trkpt lat="49.08519" lon="3.63012">
        <ele>92.1</ele>
        <time>2020-07-01T06:31:51Z</time>
      </trkpt>
      <trkpt lat="49.08515" lon="3.6301">
        <ele>92.2</ele>
        <time>2020-07-01T06:31:52Z</time>
      </trkpt>
      <trkpt lat="49.08511" lon="3.63007">
        <ele>92.2</ele>
        <time>2020-07-01T06:31:53Z</time>
      </trkpt>
      <trkpt lat="49.08507" lon="3.63003">
        <ele>92.2</ele>
        <time>2020-07-01T06:31:54Z</time>
      </trkpt>
      <trkpt lat="49.08504" lon="3.63001">
        <ele>92.2</ele>
        <time>2020-07-01T06:31:55Z</time>
      </trkpt>
      <trkpt lat="49.08499" lon="3.62998">
        <ele>92.3</ele>
        <time>2020-07-01T06:31:56Z</time>
      </trkpt>
      <trkpt lat="49.08495" lon="3.62996">
        <ele>92.5</ele>
        <time>2020-07-01T06:31:57Z</time>
      </trkpt>
      <trkpt lat="49.08491" lon="3.62994">
        <ele>92.5</ele>
        <time>2020-07-01T06:31:58Z</time>
      </trkpt>
      <trkpt lat="49.08486" lon="3.62991">
        <ele>92.6</ele>
        <time>2020-07-01T06:31:59Z</time>
      </trkpt>
      <trkpt lat="49.08481" lon="3.62988">
        <ele>92.7</ele>
        <time>2020-07-01T06:32:00Z</time>
      </trkpt>
      <trkpt lat="49.08477" lon="3.62986">
        <ele>92.8</ele>
        <time>2020-07-01T06:32:01Z</time>
      </trkpt>
      <trkpt lat="49.08473" lon="3.62983">
        <ele>92.9</ele>
        <time>2020-07-01T06:32:02Z</time>
      </trkpt>
      <trkpt lat="49.08469" lon="3.6298">
        <ele>93</ele>
        <time>2020-07-01T06:32:03Z</time>
      </trkpt>
      <trkpt lat="49.08465" lon="3.62977">
        <ele>93.1</ele>
        <time>2020-07-01T06:32:04Z</time>
      </trkpt>
      <trkpt lat="49.08461" lon="3.62975">
        <ele>93.2</ele>
        <time>2020-07-01T06:32:05Z</time>
      </trkpt>
      <trkpt lat="49.08457" lon="3.62972">
        <ele>93.3</ele>
        <time>2020-07-01T06:32:06Z</time>
      </trkpt>
      <trkpt lat="49.08453" lon="3.6297">
        <ele>93.3</ele>
        <time>2020-07-01T06:32:07Z</time>
      </trkpt>
      <trkpt lat="49.08449" lon="3.62966">
        <ele>93.4</ele>
        <time>2020-07-01T06:32:08Z</time>
      </trkpt>
      <trkpt lat="49.08445" lon="3.62962">
        <ele>93.5</ele>
        <time>2020-07-01T06:32:09Z</time>
      </trkpt>
      <trkpt lat="49.08442" lon="3.62958">
        <ele>93.6</ele>
        <time>2020-07-01T06:32:10Z</time>
      </trkpt>
      <trkpt lat="49.08438" lon="3.62954">
        <ele>93.8</ele>
        <time>2020-07-01T06:32:11Z</time>
      </trkpt>
      <trkpt lat="49.08434" lon="3.62951">
        <ele>93.9</ele>
        <time>2020-07-01T06:32:12Z</time>
      </trkpt>
      <trkpt lat="49.0843" lon="3.62949">
        <ele>94</ele>
        <time>2020-07-01T06:32:13Z</time>
      </trkpt>
      <trkpt lat="49.08426" lon="3.62946">
        <ele>94.1</ele>
        <time>2020-07-01T06:32:14Z</time>
      </trkpt>
      <trkpt lat="49.08423" lon="3.62943">
        <ele>94.2</ele>
        <time>2020-07-01T06:32:15Z</time>
      </trkpt>
      <trkpt lat="49.08419" lon="3.6294">
        <ele>94.4</ele>
        <time>2020-07-01T06:32:16Z</time>
      </trkpt>
      <trkpt lat="49.08416" lon="3.62937">
        <ele>94.5</ele>
        <time>2020-07-01T06:32:17Z</time>
      </trkpt>
      <trkpt lat="49.08414" lon="3.62935">
        <ele>94.6</ele>
        <time>2020-07-01T06:32:18Z</time>
      </trkpt>
      <trkpt lat="49.0841" lon="3.62933">
        <ele>94.7</ele>
        <time>2020-07-01T06:32:19Z</time>
      </trkpt>
      <trkpt lat="49.08407" lon="3.6293">
        <ele>94.8</ele>
        <time>2020-07-01T06:32:20Z</time>
      </trkpt>
      <trkpt lat="49.08404" lon="3.62927">
        <ele>94.9</ele>
        <time>2020-07-01T06:32:21Z</time>
      </trkpt>
      <trkpt lat="49.08401" lon="3.62923">
        <ele>95.1</ele>
        <time>2020-07-01T06:32:22Z</time>
      </trkpt>
      <trkpt lat="49.08398" lon="3.62919">
        <ele>95.2</ele>
        <time>2020-07-01T06:32:23Z</time>
      </trkpt>
      <trkpt lat="49.08395" lon="3.62915">
        <ele>95.4</ele>
        <time>2020-07-01T06:32:24Z</time>
      </trkpt>
      <trkpt lat="49.08392" lon="3.62912">
        <ele>95.5</ele>
        <time>2020-07-01T06:32:25Z</time>
      </trkpt>
      <trkpt lat="49.08389" lon="3.62909">
        <ele>95.6</ele>
        <time>2020-07-01T06:32:26Z</time>
      </trkpt>
      <trkpt lat="49.08387" lon="3.62906">
        <ele>95.7</ele>
        <time>2020-07-01T06:32:27Z</time>
      </trkpt>
      <trkpt lat="49.08384" lon="3.62903">
        <ele>95.8</ele>
        <time>2020-07-01T06:32:28Z</time>
      </trkpt>
      <trkpt lat="49.08381" lon="3.629">
        <ele>95.9</ele>
        <time>2020-07-01T06:32:29Z</time>
      </trkpt>
      <trkpt lat="49.08377" lon="3.62896">
        <ele>96.1</ele>
        <time>2020-07-01T06:32:30Z</time>
      </trkpt>
      <trkpt lat="49.08374" lon="3.62892">
        <ele>96.2</ele>
        <time>2020-07-01T06:32:31Z</time>
      </trkpt>
      <trkpt lat="49.08371" lon="3.6289">
        <ele>96.3</ele>
        <time>2020-07-01T06:32:32Z</time>
      </trkpt>
      <trkpt lat="49.08367" lon="3.62887">
        <ele>96.4</ele>
        <time>2020-07-01T06:32:33Z</time>
      </trkpt>
      <trkpt lat="49.08364" lon="3.62884">
        <ele>96.5</ele>
        <time>2020-07-01T06:32:34Z</time>
      </trkpt>
      <trkpt lat="49.0836" lon="3.62879">
        <ele>96.6</ele>
        <time>2020-07-01T06:32:35Z</time>
      </trkpt>
      <trkpt lat="49.08356" lon="3.62875">
        <ele>96.7</ele>
        <time>2020-07-01T06:32:36Z</time>
      </trkpt>
      <trkpt lat="49.08354" lon="3.6287">
        <ele>96.8</ele>
        <time>2020-07-01T06:32:37Z</time>
      </trkpt>
      <trkpt lat="49.08351" lon="3.62865">
        <ele>96.9</ele>
        <time>2020-07-01T06:32:38Z</time>
      </trkpt>
      <trkpt lat="49.08348" lon="3.62861">
        <ele>97</ele>
        <time>2020-07-01T06:32:39Z</time>
      </trkpt>
      <trkpt lat="49.08346" lon="3.62858">
        <ele>97.1</ele>
        <time>2020-07-01T06:32:40Z</time>
      </trkpt>
      <trkpt lat="49.08343" lon="3.62855">
        <ele>97.2</ele>
        <time>2020-07-01T06:32:41Z</time>
      </trkpt>
      <trkpt lat="49.08341" lon="3.62851">
        <ele>97.3</ele>
        <time>2020-07-01T06:32:42Z</time>
      </trkpt>
      <trkpt lat="49.08338" lon="3.62848">
        <ele>97.4</ele>
        <time>2020-07-01T06:32:43Z</time>
      </trkpt>
      <trkpt lat="49.08336" lon="3.62844">
        <ele>97.5</ele>
        <time>2020-07-01T06:32:44Z</time>
      </trkpt>
      <trkpt lat="49.08333" lon="3.62839">
        <ele>97.6</ele>
        <time>2020-07-01T06:32:45Z</time>
      </trkpt>
      <trkpt lat="49.0833" lon="3.62834">
        <ele>97.6</ele>
        <time>2020-07-01T06:32:46Z</time>
      </trkpt>
      <trkpt lat="49.08328" lon="3.6283">
        <ele>97.7</ele>
        <time>2020-07-01T06:32:47Z</time>
      </trkpt>
      <trkpt lat="49.08325" lon="3.62827">
        <ele>97.7</ele>
        <time>2020-07-01T06:32:48Z</time>
      </trkpt>
      <trkpt lat="49.08323" lon="3.62824">
        <ele>97.7</ele>
        <time>2020-07-01T06:32:49Z</time>
      </trkpt>
      <trkpt lat="49.08321" lon="3.6282">
        <ele>97.8</ele>
        <time>2020-07-01T06:32:50Z</time>
      </trkpt>
      <trkpt lat="49.08318" lon="3.62817">
        <ele>97.8</ele>
        <time>2020-07-01T06:32:51Z</time>
      </trkpt>
      <trkpt lat="49.08316" lon="3.62813">
        <ele>97.8</ele>
        <time>2020-07-01T06:32:52Z</time>
      </trkpt>
      <trkpt lat="49.08313" lon="3.6281">
        <ele>97.9</ele>
        <time>2020-07-01T06:32:53Z</time>
      </trkpt>
      <trkpt lat="49.0831" lon="3.62805">
        <ele>98</ele>
        <time>2020-07-01T06:32:54Z</time>
      </trkpt>
      <trkpt lat="49.08307" lon="3.62799">
        <ele>98</ele>
        <time>2020-07-01T06:32:55Z</time>
      </trkpt>
      <trkpt lat="49.08303" lon="3.62793">
        <ele>98</ele>
        <time>2020-07-01T06:32:56Z</time>
      </trkpt>
      <trkpt lat="49.08299" lon="3.62787">
        <ele>98</ele>
        <time>2020-07-01T06:32:57Z</time>
      </trkpt>
      <trkpt lat="49.08296" lon="3.62781">
        <ele>97.9</ele>
        <time>2020-07-01T06:32:58Z</time>
      </trkpt>
      <trkpt lat="49.08293" lon="3.62776">
        <ele>97.9</ele>
        <time>2020-07-01T06:32:59Z</time>
      </trkpt>
      <trkpt lat="49.0829" lon="3.62769">
        <ele>97.9</ele>
        <time>2020-07-01T06:33:00Z</time>
      </trkpt>
      <trkpt lat="49.08287" lon="3.62763">
        <ele>97.9</ele>
        <time>2020-07-01T06:33:01Z</time>
      </trkpt>
      <trkpt lat="49.08284" lon="3.62757">
        <ele>97.9</ele>
        <time>2020-07-01T06:33:02Z</time>
      </trkpt>
      <trkpt lat="49.08281" lon="3.62751">
        <ele>97.9</ele>
        <time>2020-07-01T06:33:03Z</time>
      </trkpt>
      <trkpt lat="49.08279" lon="3.62746">
        <ele>97.9</ele>
        <time>2020-07-01T06:33:04Z</time>
      </trkpt>
      <trkpt lat="49.08276" lon="3.6274">
        <ele>97.9</ele>
        <time>2020-07-01T06:33:05Z</time>
      </trkpt>
      <trkpt lat="49.08273" lon="3.62733">
        <ele>97.9</ele>
        <time>2020-07-01T06:33:06Z</time>
      </trkpt>
      <trkpt lat="49.08272" lon="3.62729">
        <ele>97.9</ele>
        <time>2020-07-01T06:33:07Z</time>
      </trkpt>
      <trkpt lat="49.08269" lon="3.62722">
        <ele>97.9</ele>
        <time>2020-07-01T06:33:08Z</time>
      </trkpt>
      <trkpt lat="49.08267" lon="3.62716">
        <ele>97.8</ele>
        <time>2020-07-01T06:33:09Z</time>
      </trkpt>
      <trkpt lat="49.08265" lon="3.62709">
        <ele>97.8</ele>
        <time>2020-07-01T06:33:10Z</time>
      </trkpt>
      <trkpt lat="49.08263" lon="3.62703">
        <ele>97.8</ele>
        <time>2020-07-01T06:33:11Z</time>
      </trkpt>
      <trkpt lat="49.0826" lon="3.62697">
        <ele>97.8</ele>
        <time>2020-07-01T06:33:12Z</time>
      </trkpt>
      <trkpt lat="49.08258" lon="3.62693">
        <ele>97.8</ele>
        <time>2020-07-01T06:33:13Z</time>
      </trkpt>
      <trkpt lat="49.08256" lon="3.62686">
        <ele>97.8</ele>
        <time>2020-07-01T06:33:14Z</time>
      </trkpt>
      <trkpt lat="49.08253" lon="3.62679">
        <ele>97.8</ele>
        <time>2020-07-01T06:33:15Z</time>
      </trkpt>
      <trkpt lat="49.08251" lon="3.62673">
        <ele>97.8</ele>
        <time>2020-07-01T06:33:16Z</time>
      </trkpt>
      <trkpt lat="49.08248" lon="3.62666">
        <ele>97.8</ele>
        <time>2020-07-01T06:33:17Z</time>
      </trkpt>
      <trkpt lat="49.08245" lon="3.6266">
        <ele>97.8</ele>
        <time>2020-07-01T06:33:18Z</time>
      </trkpt>
      <trkpt lat="49.08243" lon="3.62654">
        <ele>97.8</ele>
        <time>2020-07-01T06:33:19Z</time>
      </trkpt>
      <trkpt lat="49.08241" lon="3.62651">
        <ele>97.8</ele>
        <time>2020-07-01T06:33:20Z</time>
      </trkpt>
      <trkpt lat="49.08239" lon="3.62645">
        <ele>97.8</ele>
        <time>2020-07-01T06:33:21Z</time>
      </trkpt>
      <trkpt lat="49.08237" lon="3.6264">
        <ele>97.9</ele>
        <time>2020-07-01T06:33:22Z</time>
      </trkpt>
      <trkpt lat="49.08235" lon="3.62635">
        <ele>97.9</ele>
        <time>2020-07-01T06:33:23Z</time>
      </trkpt>
      <trkpt lat="49.08233" lon="3.62629">
        <ele>97.9</ele>
        <time>2020-07-01T06:33:24Z</time>
      </trkpt>
      <trkpt lat="49.0823" lon="3.62622">
        <ele>97.9</ele>
        <time>2020-07-01T06:33:25Z</time>
      </trkpt>
      <trkpt lat="49.08228" lon="3.62617">
        <ele>98</ele>
        <time>2020-07-01T06:33:26Z</time>
      </trkpt>
      <trkpt lat="49.08226" lon="3.62611">
        <ele>98</ele>
        <time>2020-07-01T06:33:27Z</time>
      </trkpt>
      <trkpt lat="49.08223" lon="3.62607">
        <ele>98</ele>
        <time>2020-07-01T06:33:28Z</time>
      </trkpt>
      <trkpt lat="49.08221" lon="3.62601">
        <ele>98</ele>
        <time>2020-07-01T06:33:29Z</time>
      </trkpt>
      <trkpt lat="49.08218" lon="3.62596">
        <ele>98</ele>
        <time>2020-07-01T06:33:30Z</time>
      </trkpt>
      <trkpt lat="49.08216" lon="3.6259">
        <ele>98</ele>
        <time>2020-07-01T06:33:31Z</time>
      </trkpt>
      <trkpt lat="49.08214" lon="3.62585">
        <ele>98</ele>
        <time>2020-07-01T06:33:32Z</time>
      </trkpt>
      <trkpt lat="49.08211" lon="3.62579">
        <ele>97.9</ele>
        <time>2020-07-01T06:33:33Z</time>
      </trkpt>
      <trkpt lat="49.08208" lon="3.62572">
        <ele>97.9</ele>
        <time>2020-07-01T06:33:34Z</time>
      </trkpt>
      <trkpt lat="49.08206" lon="3.62567">
        <ele>97.8</ele>
        <time>2020-07-01T06:33:35Z</time>
      </trkpt>
      <trkpt lat="49.08203" lon="3.62562">
        <ele>97.8</ele>
        <time>2020-07-01T06:33:36Z</time>
      </trkpt>
      <trkpt lat="49.08201" lon="3.62558">
        <ele>97.7</ele>
        <time>2020-07-01T06:33:37Z</time>
      </trkpt>
      <trkpt lat="49.08197" lon="3.62553">
        <ele>97.7</ele>
        <time>2020-07-01T06:33:38Z</time>
      </trkpt>
      <trkpt lat="49.08194" lon="3.62549">
        <ele>97.7</ele>
        <time>2020-07-01T06:33:39Z</time>
      </trkpt>
      <trkpt lat="49.08192" lon="3.62545">
        <ele>97.6</ele>
        <time>2020-07-01T06:33:40Z</time>
      </trkpt>
      <trkpt lat="49.08189" lon="3.62541">
        <ele>97.6</ele>
        <time>2020-07-01T06:33:41Z</time>
      </trkpt>
      <trkpt lat="49.08185" lon="3.62535">
        <ele>97.5</ele>
        <time>2020-07-01T06:33:42Z</time>
      </trkpt>
      <trkpt lat="49.08182" lon="3.62531">
        <ele>97.4</ele>
        <time>2020-07-01T06:33:43Z</time>
      </trkpt>
      <trkpt lat="49.08179" lon="3.62527">
        <ele>97.3</ele>
        <time>2020-07-01T06:33:44Z</time>
      </trkpt>
      <trkpt lat="49.08176" lon="3.62523">
        <ele>97.3</ele>
        <time>2020-07-01T06:33:45Z</time>
      </trkpt>
      <trkpt lat="49.08174" lon="3.6252">
        <ele>97.2</ele>
        <time>2020-07-01T06:33:46Z</time>
      </trkpt>
      <trkpt lat="49.08172" lon="3.62517">
        <ele>97.2</ele>
        <time>2020-07-01T06:33:47Z</time>
      </trkpt>
      <trkpt lat="49.0817" lon="3.62514">
        <ele>97.1</ele>
        <time>2020-07-01T06:33:48Z</time>
      </trkpt>
      <trkpt lat="49.08166" lon="3.6251">
        <ele>97.1</ele>
        <time>2020-07-01T06:33:49Z</time>
      </trkpt>
      <trkpt lat="49.08165" lon="3.62506">
        <ele>97</ele>
        <time>2020-07-01T06:33:50Z</time>
      </trkpt>
      <trkpt lat="49.08162" lon="3.62503">
        <ele>96.9</ele>
        <time>2020-07-01T06:33:51Z</time>
      </trkpt>
      <trkpt lat="49.08159" lon="3.62501">
        <ele>96.9</ele>
        <time>2020-07-01T06:33:52Z</time>
      </trkpt>
      <trkpt lat="49.08157" lon="3.62498">
        <ele>96.8</ele>
        <time>2020-07-01T06:33:53Z</time>
      </trkpt>
      <trkpt lat="49.08153" lon="3.62495">
        <ele>96.7</ele>
        <time>2020-07-01T06:33:54Z</time>
      </trkpt>
      <trkpt lat="49.0815" lon="3.62491">
        <ele>96.6</ele>
        <time>2020-07-01T06:33:55Z</time>
      </trkpt>
      <trkpt lat="49.08146" lon="3.62486">
        <ele>96.5</ele>
        <time>2020-07-01T06:33:56Z</time>
      </trkpt>
      <trkpt lat="49.08143" lon="3.62479">
        <ele>96.1</ele>
        <time>2020-07-01T06:33:57Z</time>
      </trkpt>
      <trkpt lat="49.0814" lon="3.62473">
        <ele>96</ele>
        <time>2020-07-01T06:33:58Z</time>
      </trkpt>
      <trkpt lat="49.08138" lon="3.62469">
        <ele>95.8</ele>
        <time>2020-07-01T06:33:59Z</time>
      </trkpt>
      <trkpt lat="49.08136" lon="3.62464">
        <ele>95.7</ele>
        <time>2020-07-01T06:34:00Z</time>
      </trkpt>
      <trkpt lat="49.08134" lon="3.6246">
        <ele>95.6</ele>
        <time>2020-07-01T06:34:01Z</time>
      </trkpt>
      <trkpt lat="49.08132" lon="3.62456">
        <ele>95.5</ele>
        <time>2020-07-01T06:34:02Z</time>
      </trkpt>
      <trkpt lat="49.08132" lon="3.62449">
        <ele>95.4</ele>
        <time>2020-07-01T06:34:03Z</time>
      </trkpt>
      <trkpt lat="49.0813" lon="3.62443">
        <ele>95.3</ele>
        <time>2020-07-01T06:34:04Z</time>
      </trkpt>
      <trkpt lat="49.08128" lon="3.62438">
        <ele>95.2</ele>
        <time>2020-07-01T06:34:05Z</time>
      </trkpt>
      <trkpt lat="49.08126" lon="3.62434">
        <ele>95</ele>
        <time>2020-07-01T06:34:06Z</time>
      </trkpt>
      <trkpt lat="49.08122" lon="3.62431">
        <ele>94.9</ele>
        <time>2020-07-01T06:34:07Z</time>
      </trkpt>
      <trkpt lat="49.08117" lon="3.62428">
        <ele>94.8</ele>
        <time>2020-07-01T06:34:08Z</time>
      </trkpt>
      <trkpt lat="49.08112" lon="3.62425">
        <ele>94.6</ele>
        <time>2020-07-01T06:34:09Z</time>
      </trkpt>
      <trkpt lat="49.08107" lon="3.62418">
        <ele>94.4</ele>
        <time>2020-07-01T06:34:10Z</time>
      </trkpt>
      <trkpt lat="49.08102" lon="3.62412">
        <ele>94.3</ele>
        <time>2020-07-01T06:34:11Z</time>
      </trkpt>
      <trkpt lat="49.08099" lon="3.62405">
        <ele>94.2</ele>
        <time>2020-07-01T06:34:12Z</time>
      </trkpt>
      <trkpt lat="49.08094" lon="3.62396">
        <ele>94.1</ele>
        <time>2020-07-01T06:34:13Z</time>
      </trkpt>
      <trkpt lat="49.0809" lon="3.62388">
        <ele>94.1</ele>
        <time>2020-07-01T06:34:14Z</time>
      </trkpt>
      <trkpt lat="49.08087" lon="3.62379">
        <ele>94.2</ele>
        <time>2020-07-01T06:34:15Z</time>
      </trkpt>
      <trkpt lat="49.08084" lon="3.6237">
        <ele>94.2</ele>
        <time>2020-07-01T06:34:16Z</time>
      </trkpt>
      <trkpt lat="49.08081" lon="3.62362">
        <ele>94.3</ele>
        <time>2020-07-01T06:34:17Z</time>
      </trkpt>
      <trkpt lat="49.0808" lon="3.62355">
        <ele>94.4</ele>
        <time>2020-07-01T06:34:18Z</time>
      </trkpt>
      <trkpt lat="49.08079" lon="3.62349">
        <ele>94.5</ele>
        <time>2020-07-01T06:34:19Z</time>
      </trkpt>
      <trkpt lat="49.08078" lon="3.62344">
        <ele>94.6</ele>
        <time>2020-07-01T06:34:20Z</time>
      </trkpt>
      <trkpt lat="49.08078" lon="3.62341">
        <ele>94.7</ele>
        <time>2020-07-01T06:34:21Z</time>
      </trkpt>
      <trkpt lat="49.08077" lon="3.62336">
        <ele>94.8</ele>
        <time>2020-07-01T06:34:22Z</time>
      </trkpt>
      <trkpt lat="49.08076" lon="3.62333">
        <ele>95</ele>
        <time>2020-07-01T06:34:23Z</time>
      </trkpt>
      <trkpt lat="49.08073" lon="3.62327">
        <ele>95.2</ele>
        <time>2020-07-01T06:34:24Z</time>
      </trkpt>
      <trkpt lat="49.08071" lon="3.62323">
        <ele>95.4</ele>
        <time>2020-07-01T06:34:25Z</time>
      </trkpt>
      <trkpt lat="49.08069" lon="3.62319">
        <ele>95.6</ele>
        <time>2020-07-01T06:34:26Z</time>
      </trkpt>
      <trkpt lat="49.08068" lon="3.62318">
        <ele>95.6</ele>
        <time>2020-07-01T06:34:27Z</time>
      </trkpt>
      <trkpt lat="49.08065" lon="3.62314">
        <ele>95.9</ele>
        <time>2020-07-01T06:34:28Z</time>
      </trkpt>
      <trkpt lat="49.08063" lon="3.62311">
        <ele>96</ele>
        <time>2020-07-01T06:34:29Z</time>
      </trkpt>
      <trkpt lat="49.08061" lon="3.62305">
        <ele>96.3</ele>
        <time>2020-07-01T06:34:30Z</time>
      </trkpt>
      <trkpt lat="49.08061" lon="3.62303">
        <ele>96.4</ele>
        <time>2020-07-01T06:34:31Z</time>
      </trkpt>
      <trkpt lat="49.08058" lon="3.62301">
        <ele>96.6</ele>
        <time>2020-07-01T06:34:32Z</time>
      </trkpt>
      <trkpt lat="49.08056" lon="3.62296">
        <ele>96.8</ele>
        <time>2020-07-01T06:34:33Z</time>
      </trkpt>
      <trkpt lat="49.08053" lon="3.62292">
        <ele>97.1</ele>
        <time>2020-07-01T06:34:34Z</time>
      </trkpt>
      <trkpt lat="49.08052" lon="3.62291">
        <ele>97.1</ele>
        <time>2020-07-01T06:34:35Z</time>
      </trkpt>
      <trkpt lat="49.08051" lon="3.62287">
        <ele>97.3</ele>
        <time>2020-07-01T06:34:36Z</time>
      </trkpt>
      <trkpt lat="49.08049" lon="3.62282">
        <ele>97.5</ele>
        <time>2020-07-01T06:34:37Z</time>
      </trkpt>
      <trkpt lat="49.08046" lon="3.62278">
        <ele>97.7</ele>
        <time>2020-07-01T06:34:38Z</time>
      </trkpt>
      <trkpt lat="49.08045" lon="3.62276">
        <ele>97.8</ele>
        <time>2020-07-01T06:34:39Z</time>
      </trkpt>
      <trkpt lat="49.08043" lon="3.62272">
        <ele>98</ele>
        <time>2020-07-01T06:34:40Z</time>
      </trkpt>
      <trkpt lat="49.0804" lon="3.62267">
        <ele>98.2</ele>
        <time>2020-07-01T06:34:41Z</time>
      </trkpt>
      <trkpt lat="49.08039" lon="3.62265">
        <ele>98.3</ele>
        <time>2020-07-01T06:34:42Z</time>
      </trkpt>
      <trkpt lat="49.08037" lon="3.6226">
        <ele>98.5</ele>
        <time>2020-07-01T06:34:43Z</time>
      </trkpt>
      <trkpt lat="49.08036" lon="3.62258">
        <ele>98.5</ele>
        <time>2020-07-01T06:34:44Z</time>
      </trkpt>
      <trkpt lat="49.08035" lon="3.62254">
        <ele>98.7</ele>
        <time>2020-07-01T06:34:45Z</time>
      </trkpt>
      <trkpt lat="49.08033" lon="3.62248">
        <ele>98.9</ele>
        <time>2020-07-01T06:34:46Z</time>
      </trkpt>
      <trkpt lat="49.0803" lon="3.62244">
        <ele>99</ele>
        <time>2020-07-01T06:34:47Z</time>
      </trkpt>
      <trkpt lat="49.08028" lon="3.62239">
        <ele>99.2</ele>
        <time>2020-07-01T06:34:48Z</time>
      </trkpt>
      <trkpt lat="49.08026" lon="3.62236">
        <ele>99.3</ele>
        <time>2020-07-01T06:34:49Z</time>
      </trkpt>
      <trkpt lat="49.08023" lon="3.62231">
        <ele>99.5</ele>
        <time>2020-07-01T06:34:50Z</time>
      </trkpt>
      <trkpt lat="49.08022" lon="3.62227">
        <ele>99.6</ele>
        <time>2020-07-01T06:34:51Z</time>
      </trkpt>
      <trkpt lat="49.0802" lon="3.62224">
        <ele>99.7</ele>
        <time>2020-07-01T06:34:52Z</time>
      </trkpt>
      <trkpt lat="49.08018" lon="3.6222">
        <ele>99.8</ele>
        <time>2020-07-01T06:34:53Z</time>
      </trkpt>
      <trkpt lat="49.08017" lon="3.62218">
        <ele>99.9</ele>
        <time>2020-07-01T06:34:54Z</time>
      </trkpt>
      <trkpt lat="49.08015" lon="3.62213">
        <ele>100</ele>
        <time>2020-07-01T06:34:55Z</time>
      </trkpt>
      <trkpt lat="49.08014" lon="3.62212">
        <ele>100</ele>
        <time>2020-07-01T06:34:56Z</time>
      </trkpt>
      <trkpt lat="49.08013" lon="3.62208">
        <ele>100</ele>
        <time>2020-07-01T06:34:57Z</time>
      </trkpt>
      <trkpt lat="49.08011" lon="3.62206">
        <ele>100.1</ele>
        <time>2020-07-01T06:34:58Z</time>
      </trkpt>
      <trkpt lat="49.08008" lon="3.62202">
        <ele>100.1</ele>
        <time>2020-07-01T06:34:59Z</time>
      </trkpt>
      <trkpt lat="49.08006" lon="3.62199">
        <ele>100.1</ele>
        <time>2020-07-01T06:35:00Z</time>
      </trkpt>
      <trkpt lat="49.08003" lon="3.62195">
        <ele>100.1</ele>
        <time>2020-07-01T06:35:01Z</time>
      </trkpt>
      <trkpt lat="49.08002" lon="3.62193">
        <ele>100.1</ele>
        <time>2020-07-01T06:35:02Z</time>
      </trkpt>
      <trkpt lat="49.07999" lon="3.6219">
        <ele>100.1</ele>
        <time>2020-07-01T06:35:03Z</time>
      </trkpt>
      <trkpt lat="49.07997" lon="3.62187">
        <ele>100.1</ele>
        <time>2020-07-01T06:35:04Z</time>
      </trkpt>
      <trkpt lat="49.07997" lon="3.62187">
        <ele>100.1</ele>
        <time>2020-07-01T06:35:05Z</time>
      </trkpt>
      <trkpt lat="49.07996" lon="3.62185">
        <ele>100</ele>
        <time>2020-07-01T06:35:06Z</time>
      </trkpt>
      <trkpt lat="49.07995" lon="3.62183">
        <ele>100</ele>
        <time>2020-07-01T06:35:07Z</time>
      </trkpt>
      <trkpt lat="49.07992" lon="3.62181">
        <ele>99.9</ele>
        <time>2020-07-01T06:35:08Z</time>
      </trkpt>
      <trkpt lat="49.07991" lon="3.6218">
        <ele>99.9</ele>
        <time>2020-07-01T06:35:09Z</time>
      </trkpt>
      <trkpt lat="49.07989" lon="3.62177">
        <ele>99.8</ele>
        <time>2020-07-01T06:35:10Z</time>
      </trkpt>
      <trkpt lat="49.07984" lon="3.62172">
        <ele>99.5</ele>
        <time>2020-07-01T06:35:11Z</time>
      </trkpt>
      <trkpt lat="49.07981" lon="3.62168">
        <ele>99.3</ele>
        <time>2020-07-01T06:35:12Z</time>
      </trkpt>
      <trkpt lat="49.07979" lon="3.62164">
        <ele>99.1</ele>
        <time>2020-07-01T06:35:13Z</time>
      </trkpt>
      <trkpt lat="49.07977" lon="3.62159">
        <ele>98.9</ele>
        <time>2020-07-01T06:35:14Z</time>
      </trkpt>
      <trkpt lat="49.07976" lon="3.62154">
        <ele>98.8</ele>
        <time>2020-07-01T06:35:15Z</time>
      </trkpt>
      <trkpt lat="49.07974" lon="3.62148">
        <ele>98.6</ele>
        <time>2020-07-01T06:35:16Z</time>
      </trkpt>
      <trkpt lat="49.07972" lon="3.62143">
        <ele>98.4</ele>
        <time>2020-07-01T06:35:17Z</time>
      </trkpt>
      <trkpt lat="49.07971" lon="3.62138">
        <ele>98.2</ele>
        <time>2020-07-01T06:35:18Z</time>
      </trkpt>
      <trkpt lat="49.07967" lon="3.62133">
        <ele>98</ele>
        <time>2020-07-01T06:35:19Z</time>
      </trkpt>
      <trkpt lat="49.07965" lon="3.6213">
        <ele>97.9</ele>
        <time>2020-07-01T06:35:20Z</time>
      </trkpt>
      <trkpt lat="49.07962" lon="3.62122">
        <ele>97.7</ele>
        <time>2020-07-01T06:35:21Z</time>
      </trkpt>
      <trkpt lat="49.0796" lon="3.62116">
        <ele>97.6</ele>
        <time>2020-07-01T06:35:22Z</time>
      </trkpt>
      <trkpt lat="49.07957" lon="3.62109">
        <ele>97.4</ele>
        <time>2020-07-01T06:35:23Z</time>
      </trkpt>
      <trkpt lat="49.07955" lon="3.62103">
        <ele>97.2</ele>
        <time>2020-07-01T06:35:24Z</time>
      </trkpt>
      <trkpt lat="49.07953" lon="3.62096">
        <ele>97.1</ele>
        <time>2020-07-01T06:35:25Z</time>
      </trkpt>
      <trkpt lat="49.07951" lon="3.62089">
        <ele>96.9</ele>
        <time>2020-07-01T06:35:26Z</time>
      </trkpt>
      <trkpt lat="49.07948" lon="3.62079">
        <ele>96.6</ele>
        <time>2020-07-01T06:35:27Z</time>
      </trkpt>
      <trkpt lat="49.07947" lon="3.62072">
        <ele>96.5</ele>
        <time>2020-07-01T06:35:28Z</time>
      </trkpt>
      <trkpt lat="49.07944" lon="3.62063">
        <ele>96.3</ele>
        <time>2020-07-01T06:35:29Z</time>
      </trkpt>
      <trkpt lat="49.07942" lon="3.62053">
        <ele>96.1</ele>
        <time>2020-07-01T06:35:30Z</time>
      </trkpt>
      <trkpt lat="49.07938" lon="3.62045">
        <ele>95.9</ele>
        <time>2020-07-01T06:35:31Z</time>
      </trkpt>
      <trkpt lat="49.07936" lon="3.62036">
        <ele>95.8</ele>
        <time>2020-07-01T06:35:32Z</time>
      </trkpt>
      <trkpt lat="49.07935" lon="3.62033">
        <ele>95.7</ele>
        <time>2020-07-01T06:35:33Z</time>
      </trkpt>
      <trkpt lat="49.07932" lon="3.62026">
        <ele>95.6</ele>
        <time>2020-07-01T06:35:34Z</time>
      </trkpt>
      <trkpt lat="49.0793" lon="3.62017">
        <ele>95.5</ele>
        <time>2020-07-01T06:35:35Z</time>
      </trkpt>
      <trkpt lat="49.07928" lon="3.62009">
        <ele>95.3</ele>
        <time>2020-07-01T06:35:36Z</time>
      </trkpt>
      <trkpt lat="49.07926" lon="3.62">
        <ele>95.2</ele>
        <time>2020-07-01T06:35:37Z</time>
      </trkpt>
      <trkpt lat="49.07923" lon="3.61992">
        <ele>95</ele>
        <time>2020-07-01T06:35:38Z</time>
      </trkpt>
      <trkpt lat="49.07921" lon="3.61984">
        <ele>94.9</ele>
        <time>2020-07-01T06:35:39Z</time>
      </trkpt>
      <trkpt lat="49.0792" lon="3.61978">
        <ele>94.8</ele>
        <time>2020-07-01T06:35:40Z</time>
      </trkpt>
      <trkpt lat="49.07918" lon="3.61972">
        <ele>94.7</ele>
        <time>2020-07-01T06:35:41Z</time>
      </trkpt>
      <trkpt lat="49.07916" lon="3.61965">
        <ele>94.6</ele>
        <time>2020-07-01T06:35:42Z</time>
      </trkpt>
      <trkpt lat="49.07914" lon="3.61957">
        <ele>94.5</ele>
        <time>2020-07-01T06:35:43Z</time>
      </trkpt>
      <trkpt lat="49.07911" lon="3.61949">
        <ele>94.3</ele>
        <time>2020-07-01T06:35:44Z</time>
      </trkpt>
      <trkpt lat="49.07908" lon="3.61941">
        <ele>94.2</ele>
        <time>2020-07-01T06:35:45Z</time>
      </trkpt>
      <trkpt lat="49.07904" lon="3.6193">
        <ele>94</ele>
        <time>2020-07-01T06:35:46Z</time>
      </trkpt>
      <trkpt lat="49.079" lon="3.61922">
        <ele>93.9</ele>
        <time>2020-07-01T06:35:47Z</time>
      </trkpt>
      <trkpt lat="49.07899" lon="3.61917">
        <ele>93.8</ele>
        <time>2020-07-01T06:35:48Z</time>
      </trkpt>
      <trkpt lat="49.07897" lon="3.61911">
        <ele>93.6</ele>
        <time>2020-07-01T06:35:49Z</time>
      </trkpt>
      <trkpt lat="49.07895" lon="3.61905">
        <ele>93.5</ele>
        <time>2020-07-01T06:35:50Z</time>
      </trkpt>
      <trkpt lat="49.07893" lon="3.61897">
        <ele>93.4</ele>
        <time>2020-07-01T06:35:51Z</time>
      </trkpt>
      <trkpt lat="49.07891" lon="3.6189">
        <ele>93.2</ele>
        <time>2020-07-01T06:35:52Z</time>
      </trkpt>
      <trkpt lat="49.07889" lon="3.61883">
        <ele>93.1</ele>
        <time>2020-07-01T06:35:53Z</time>
      </trkpt>
      <trkpt lat="49.07885" lon="3.61874">
        <ele>92.9</ele>
        <time>2020-07-01T06:35:54Z</time>
      </trkpt>
      <trkpt lat="49.07883" lon="3.61867">
        <ele>92.7</ele>
        <time>2020-07-01T06:35:55Z</time>
      </trkpt>
      <trkpt lat="49.07882" lon="3.61861">
        <ele>92.6</ele>
        <time>2020-07-01T06:35:56Z</time>
      </trkpt>
      <trkpt lat="49.0788" lon="3.61855">
        <ele>92.4</ele>
        <time>2020-07-01T06:35:57Z</time>
      </trkpt>
      <trkpt lat="49.07878" lon="3.61846">
        <ele>92.2</ele>
        <time>2020-07-01T06:35:58Z</time>
      </trkpt>
      <trkpt lat="49.07875" lon="3.6184">
        <ele>92</ele>
        <time>2020-07-01T06:35:59Z</time>
      </trkpt>
      <trkpt lat="49.07873" lon="3.61834">
        <ele>91.9</ele>
        <time>2020-07-01T06:36:00Z</time>
      </trkpt>
      <trkpt lat="49.07871" lon="3.61828">
        <ele>91.7</ele>
        <time>2020-07-01T06:36:01Z</time>
      </trkpt>
      <trkpt lat="49.07868" lon="3.61821">
        <ele>91.5</ele>
        <time>2020-07-01T06:36:02Z</time>
      </trkpt>
      <trkpt lat="49.07864" lon="3.61813">
        <ele>91.3</ele>
        <time>2020-07-01T06:36:03Z</time>
      </trkpt>
      <trkpt lat="49.07862" lon="3.61808">
        <ele>91.1</ele>
        <time>2020-07-01T06:36:04Z</time>
      </trkpt>
      <trkpt lat="49.07858" lon="3.618">
        <ele>90.9</ele>
        <time>2020-07-01T06:36:05Z</time>
      </trkpt>
      <trkpt lat="49.07854" lon="3.61793">
        <ele>90.6</ele>
        <time>2020-07-01T06:36:06Z</time>
      </trkpt>
      <trkpt lat="49.07851" lon="3.61786">
        <ele>90.4</ele>
        <time>2020-07-01T06:36:07Z</time>
      </trkpt>
      <trkpt lat="49.07848" lon="3.6178">
        <ele>90.2</ele>
        <time>2020-07-01T06:36:08Z</time>
      </trkpt>
      <trkpt lat="49.07844" lon="3.61772">
        <ele>90</ele>
        <time>2020-07-01T06:36:09Z</time>
      </trkpt>
      <trkpt lat="49.07841" lon="3.61766">
        <ele>89.8</ele>
        <time>2020-07-01T06:36:10Z</time>
      </trkpt>
      <trkpt lat="49.07838" lon="3.61758">
        <ele>89.7</ele>
        <time>2020-07-01T06:36:11Z</time>
      </trkpt>
      <trkpt lat="49.07836" lon="3.61752">
        <ele>89.5</ele>
        <time>2020-07-01T06:36:12Z</time>
      </trkpt>
      <trkpt lat="49.07831" lon="3.61744">
        <ele>89.3</ele>
        <time>2020-07-01T06:36:13Z</time>
      </trkpt>
      <trkpt lat="49.07827" lon="3.61737">
        <ele>89.1</ele>
        <time>2020-07-01T06:36:14Z</time>
      </trkpt>
      <trkpt lat="49.07823" lon="3.6173">
        <ele>88.9</ele>
        <time>2020-07-01T06:36:15Z</time>
      </trkpt>
      <trkpt lat="49.07819" lon="3.61722">
        <ele>88.7</ele>
        <time>2020-07-01T06:36:16Z</time>
      </trkpt>
      <trkpt lat="49.07815" lon="3.61713">
        <ele>88.4</ele>
        <time>2020-07-01T06:36:17Z</time>
      </trkpt>
      <trkpt lat="49.07813" lon="3.61704">
        <ele>88.2</ele>
        <time>2020-07-01T06:36:18Z</time>
      </trkpt>
      <trkpt lat="49.0781" lon="3.61696">
        <ele>88</ele>
        <time>2020-07-01T06:36:19Z</time>
      </trkpt>
      <trkpt lat="49.07809" lon="3.61688">
        <ele>87.8</ele>
        <time>2020-07-01T06:36:20Z</time>
      </trkpt>
      <trkpt lat="49.07807" lon="3.6168">
        <ele>87.7</ele>
        <time>2020-07-01T06:36:21Z</time>
      </trkpt>
      <trkpt lat="49.07806" lon="3.61673">
        <ele>87.5</ele>
        <time>2020-07-01T06:36:22Z</time>
      </trkpt>
      <trkpt lat="49.07805" lon="3.61667">
        <ele>87.4</ele>
        <time>2020-07-01T06:36:23Z</time>
      </trkpt>
      <trkpt lat="49.07803" lon="3.6166">
        <ele>87.2</ele>
        <time>2020-07-01T06:36:24Z</time>
      </trkpt>
      <trkpt lat="49.078" lon="3.61652">
        <ele>87.1</ele>
        <time>2020-07-01T06:36:25Z</time>
      </trkpt>
      <trkpt lat="49.07798" lon="3.61645">
        <ele>86.9</ele>
        <time>2020-07-01T06:36:26Z</time>
      </trkpt>
      <trkpt lat="49.07796" lon="3.61637">
        <ele>86.8</ele>
        <time>2020-07-01T06:36:27Z</time>
      </trkpt>
      <trkpt lat="49.07793" lon="3.61626">
        <ele>86.6</ele>
        <time>2020-07-01T06:36:28Z</time>
      </trkpt>
      <trkpt lat="49.07791" lon="3.61619">
        <ele>86.4</ele>
        <time>2020-07-01T06:36:29Z</time>
      </trkpt>
      <trkpt lat="49.07788" lon="3.6161">
        <ele>86.2</ele>
        <time>2020-07-01T06:36:30Z</time>
      </trkpt>
      <trkpt lat="49.07786" lon="3.61604">
        <ele>86.1</ele>
        <time>2020-07-01T06:36:31Z</time>
      </trkpt>
      <trkpt lat="49.07785" lon="3.61598">
        <ele>85.9</ele>
        <time>2020-07-01T06:36:32Z</time>
      </trkpt>
      <trkpt lat="49.07783" lon="3.61591">
        <ele>85.8</ele>
        <time>2020-07-01T06:36:33Z</time>
      </trkpt>
      <trkpt lat="49.0778" lon="3.61583">
        <ele>85.6</ele>
        <time>2020-07-01T06:36:34Z</time>
      </trkpt>
      <trkpt lat="49.07777" lon="3.61574">
        <ele>85.4</ele>
        <time>2020-07-01T06:36:35Z</time>
      </trkpt>
      <trkpt lat="49.07774" lon="3.61565">
        <ele>85.2</ele>
        <time>2020-07-01T06:36:36Z</time>
      </trkpt>
      <trkpt lat="49.07772" lon="3.61558">
        <ele>85</ele>
        <time>2020-07-01T06:36:37Z</time>
      </trkpt>
      <trkpt lat="49.0777" lon="3.6155">
        <ele>84.8</ele>
        <time>2020-07-01T06:36:38Z</time>
      </trkpt>
      <trkpt lat="49.07769" lon="3.61542">
        <ele>84.6</ele>
        <time>2020-07-01T06:36:39Z</time>
      </trkpt>
      <trkpt lat="49.07766" lon="3.61533">
        <ele>84.4</ele>
        <time>2020-07-01T06:36:40Z</time>
      </trkpt>
      <trkpt lat="49.07763" lon="3.61524">
        <ele>84.2</ele>
        <time>2020-07-01T06:36:41Z</time>
      </trkpt>
      <trkpt lat="49.07761" lon="3.61515">
        <ele>84.1</ele>
        <time>2020-07-01T06:36:42Z</time>
      </trkpt>
      <trkpt lat="49.07759" lon="3.61505">
        <ele>83.9</ele>
        <time>2020-07-01T06:36:43Z</time>
      </trkpt>
      <trkpt lat="49.07755" lon="3.61495">
        <ele>83.6</ele>
        <time>2020-07-01T06:36:44Z</time>
      </trkpt>
      <trkpt lat="49.07753" lon="3.61487">
        <ele>83.5</ele>
        <time>2020-07-01T06:36:45Z</time>
      </trkpt>
      <trkpt lat="49.07751" lon="3.6148">
        <ele>83.3</ele>
        <time>2020-07-01T06:36:46Z</time>
      </trkpt>
      <trkpt lat="49.07748" lon="3.61472">
        <ele>83.1</ele>
        <time>2020-07-01T06:36:47Z</time>
      </trkpt>
      <trkpt lat="49.07746" lon="3.61463">
        <ele>83</ele>
        <time>2020-07-01T06:36:48Z</time>
      </trkpt>
      <trkpt lat="49.07744" lon="3.61457">
        <ele>82.8</ele>
        <time>2020-07-01T06:36:49Z</time>
      </trkpt>
      <trkpt lat="49.07742" lon="3.61448">
        <ele>82.7</ele>
        <time>2020-07-01T06:36:50Z</time>
      </trkpt>
      <trkpt lat="49.07741" lon="3.61443">
        <ele>82.6</ele>
        <time>2020-07-01T06:36:51Z</time>
      </trkpt>
      <trkpt lat="49.07738" lon="3.61435">
        <ele>82.4</ele>
        <time>2020-07-01T06:36:52Z</time>
      </trkpt>
      <trkpt lat="49.07736" lon="3.61425">
        <ele>82.3</ele>
        <time>2020-07-01T06:36:53Z</time>
      </trkpt>
      <trkpt lat="49.07733" lon="3.61417">
        <ele>82.1</ele>
        <time>2020-07-01T06:36:54Z</time>
      </trkpt>
      <trkpt lat="49.07731" lon="3.61409">
        <ele>82</ele>
        <time>2020-07-01T06:36:55Z</time>
      </trkpt>
      <trkpt lat="49.07729" lon="3.61402">
        <ele>81.8</ele>
        <time>2020-07-01T06:36:56Z</time>
      </trkpt>
      <trkpt lat="49.07726" lon="3.61394">
        <ele>81.6</ele>
        <time>2020-07-01T06:36:57Z</time>
      </trkpt>
      <trkpt lat="49.07725" lon="3.61388">
        <ele>81.5</ele>
        <time>2020-07-01T06:36:58Z</time>
      </trkpt>
      <trkpt lat="49.07722" lon="3.61381">
        <ele>81.4</ele>
        <time>2020-07-01T06:36:59Z</time>
      </trkpt>
      <trkpt lat="49.07719" lon="3.61372">
        <ele>81.3</ele>
        <time>2020-07-01T06:37:00Z</time>
      </trkpt>
      <trkpt lat="49.07716" lon="3.61365">
        <ele>81.1</ele>
        <time>2020-07-01T06:37:01Z</time>
      </trkpt>
      <trkpt lat="49.07714" lon="3.61358">
        <ele>81</ele>
        <time>2020-07-01T06:37:02Z</time>
      </trkpt>
      <trkpt lat="49.07712" lon="3.61352">
        <ele>80.9</ele>
        <time>2020-07-01T06:37:03Z</time>
      </trkpt>
      <trkpt lat="49.07711" lon="3.61345">
        <ele>80.8</ele>
        <time>2020-07-01T06:37:04Z</time>
      </trkpt>
      <trkpt lat="49.07708" lon="3.61336">
        <ele>80.7</ele>
        <time>2020-07-01T06:37:05Z</time>
      </trkpt>
      <trkpt lat="49.07705" lon="3.61328">
        <ele>80.5</ele>
        <time>2020-07-01T06:37:06Z</time>
      </trkpt>
      <trkpt lat="49.07703" lon="3.61321">
        <ele>80.4</ele>
        <time>2020-07-01T06:37:07Z</time>
      </trkpt>
      <trkpt lat="49.07701" lon="3.61312">
        <ele>80.2</ele>
        <time>2020-07-01T06:37:08Z</time>
      </trkpt>
      <trkpt lat="49.07699" lon="3.61306">
        <ele>80.1</ele>
        <time>2020-07-01T06:37:09Z</time>
      </trkpt>
      <trkpt lat="49.07697" lon="3.61296">
        <ele>79.9</ele>
        <time>2020-07-01T06:37:10Z</time>
      </trkpt>
      <trkpt lat="49.07694" lon="3.61288">
        <ele>79.8</ele>
        <time>2020-07-01T06:37:11Z</time>
      </trkpt>
      <trkpt lat="49.07692" lon="3.61279">
        <ele>79.6</ele>
        <time>2020-07-01T06:37:12Z</time>
      </trkpt>
      <trkpt lat="49.07691" lon="3.61273">
        <ele>79.4</ele>
        <time>2020-07-01T06:37:13Z</time>
      </trkpt>
      <trkpt lat="49.07687" lon="3.61263">
        <ele>79.2</ele>
        <time>2020-07-01T06:37:14Z</time>
      </trkpt>
      <trkpt lat="49.07685" lon="3.61255">
        <ele>79</ele>
        <time>2020-07-01T06:37:15Z</time>
      </trkpt>
      <trkpt lat="49.07683" lon="3.61247">
        <ele>78.9</ele>
        <time>2020-07-01T06:37:16Z</time>
      </trkpt>
      <trkpt lat="49.07681" lon="3.6124">
        <ele>78.8</ele>
        <time>2020-07-01T06:37:17Z</time>
      </trkpt>
      <trkpt lat="49.0768" lon="3.61233">
        <ele>78.6</ele>
        <time>2020-07-01T06:37:18Z</time>
      </trkpt>
      <trkpt lat="49.07678" lon="3.61226">
        <ele>78.5</ele>
        <time>2020-07-01T06:37:19Z</time>
      </trkpt>
      <trkpt lat="49.07676" lon="3.6122">
        <ele>78.4</ele>
        <time>2020-07-01T06:37:20Z</time>
      </trkpt>
      <trkpt lat="49.07674" lon="3.61213">
        <ele>78.3</ele>
        <time>2020-07-01T06:37:21Z</time>
      </trkpt>
      <trkpt lat="49.0767" lon="3.61204">
        <ele>78.1</ele>
        <time>2020-07-01T06:37:22Z</time>
      </trkpt>
      <trkpt lat="49.07667" lon="3.61196">
        <ele>78</ele>
        <time>2020-07-01T06:37:23Z</time>
      </trkpt>
      <trkpt lat="49.07665" lon="3.6119">
        <ele>77.9</ele>
        <time>2020-07-01T06:37:24Z</time>
      </trkpt>
      <trkpt lat="49.07662" lon="3.61184">
        <ele>77.8</ele>
        <time>2020-07-01T06:37:25Z</time>
      </trkpt>
      <trkpt lat="49.0766" lon="3.61179">
        <ele>77.6</ele>
        <time>2020-07-01T06:37:26Z</time>
      </trkpt>
      <trkpt lat="49.07657" lon="3.61168">
        <ele>77.4</ele>
        <time>2020-07-01T06:37:27Z</time>
      </trkpt>
      <trkpt lat="49.07655" lon="3.61162">
        <ele>77.2</ele>
        <time>2020-07-01T06:37:28Z</time>
      </trkpt>
      <trkpt lat="49.07654" lon="3.61155">
        <ele>77</ele>
        <time>2020-07-01T06:37:29Z</time>
      </trkpt>
      <trkpt lat="49.07652" lon="3.61149">
        <ele>76.9</ele>
        <time>2020-07-01T06:37:30Z</time>
      </trkpt>
      <trkpt lat="49.07649" lon="3.61143">
        <ele>76.7</ele>
        <time>2020-07-01T06:37:31Z</time>
      </trkpt>
      <trkpt lat="49.07646" lon="3.61136">
        <ele>76.6</ele>
        <time>2020-07-01T06:37:32Z</time>
      </trkpt>
      <trkpt lat="49.07643" lon="3.61129">
        <ele>76.4</ele>
        <time>2020-07-01T06:37:33Z</time>
      </trkpt>
      <trkpt lat="49.0764" lon="3.61123">
        <ele>76.3</ele>
        <time>2020-07-01T06:37:34Z</time>
      </trkpt>
      <trkpt lat="49.07637" lon="3.61118">
        <ele>76.2</ele>
        <time>2020-07-01T06:37:35Z</time>
      </trkpt>
      <trkpt lat="49.07636" lon="3.61115">
        <ele>76.1</ele>
        <time>2020-07-01T06:37:36Z</time>
      </trkpt>
      <trkpt lat="49.07632" lon="3.61106">
        <ele>75.9</ele>
        <time>2020-07-01T06:37:37Z</time>
      </trkpt>
      <trkpt lat="49.07629" lon="3.61101">
        <ele>75.9</ele>
        <time>2020-07-01T06:37:38Z</time>
      </trkpt>
      <trkpt lat="49.07628" lon="3.61099">
        <ele>75.7</ele>
        <time>2020-07-01T06:37:39Z</time>
      </trkpt>
      <trkpt lat="49.07625" lon="3.61095">
        <ele>75.6</ele>
        <time>2020-07-01T06:37:40Z</time>
      </trkpt>
      <trkpt lat="49.07622" lon="3.6109">
        <ele>75.5</ele>
        <time>2020-07-01T06:37:41Z</time>
      </trkpt>
      <trkpt lat="49.07619" lon="3.61085">
        <ele>75.4</ele>
        <time>2020-07-01T06:37:42Z</time>
      </trkpt>
      <trkpt lat="49.07616" lon="3.61081">
        <ele>75.2</ele>
        <time>2020-07-01T06:37:43Z</time>
      </trkpt>
      <trkpt lat="49.07613" lon="3.61076">
        <ele>75.1</ele>
        <time>2020-07-01T06:37:44Z</time>
      </trkpt>
      <trkpt lat="49.0761" lon="3.61071">
        <ele>75</ele>
        <time>2020-07-01T06:37:45Z</time>
      </trkpt>
      <trkpt lat="49.07608" lon="3.61067">
        <ele>74.8</ele>
        <time>2020-07-01T06:37:46Z</time>
      </trkpt>
      <trkpt lat="49.07605" lon="3.61061">
        <ele>74.7</ele>
        <time>2020-07-01T06:37:47Z</time>
      </trkpt>
      <trkpt lat="49.07602" lon="3.61056">
        <ele>74.5</ele>
        <time>2020-07-01T06:37:48Z</time>
      </trkpt>
      <trkpt lat="49.07599" lon="3.6105">
        <ele>74.4</ele>
        <time>2020-07-01T06:37:49Z</time>
      </trkpt>
      <trkpt lat="49.07595" lon="3.61045">
        <ele>74.2</ele>
        <time>2020-07-01T06:37:50Z</time>
      </trkpt>
      <trkpt lat="49.07592" lon="3.61039">
        <ele>74.1</ele>
        <time>2020-07-01T06:37:51Z</time>
      </trkpt>
      <trkpt lat="49.0759" lon="3.61035">
        <ele>74</ele>
        <time>2020-07-01T06:37:52Z</time>
      </trkpt>
      <trkpt lat="49.07587" lon="3.6103">
        <ele>73.8</ele>
        <time>2020-07-01T06:37:53Z</time>
      </trkpt>
      <trkpt lat="49.07584" lon="3.61026">
        <ele>73.7</ele>
        <time>2020-07-01T06:37:54Z</time>
      </trkpt>
      <trkpt lat="49.07582" lon="3.61022">
        <ele>73.6</ele>
        <time>2020-07-01T06:37:55Z</time>
      </trkpt>
      <trkpt lat="49.0758" lon="3.61018">
        <ele>73.5</ele>
        <time>2020-07-01T06:37:56Z</time>
      </trkpt>
      <trkpt lat="49.07577" lon="3.61012">
        <ele>73.4</ele>
        <time>2020-07-01T06:37:57Z</time>
      </trkpt>
      <trkpt lat="49.07575" lon="3.61006">
        <ele>73.4</ele>
        <time>2020-07-01T06:37:58Z</time>
      </trkpt>
      <trkpt lat="49.07573" lon="3.61001">
        <ele>73.3</ele>
        <time>2020-07-01T06:37:59Z</time>
      </trkpt>
      <trkpt lat="49.07569" lon="3.60997">
        <ele>73.2</ele>
        <time>2020-07-01T06:38:00Z</time>
      </trkpt>
      <trkpt lat="49.07565" lon="3.60991">
        <ele>73.1</ele>
        <time>2020-07-01T06:38:01Z</time>
      </trkpt>
      <trkpt lat="49.07561" lon="3.60984">
        <ele>73</ele>
        <time>2020-07-01T06:38:02Z</time>
      </trkpt>
      <trkpt lat="49.07559" lon="3.60979">
        <ele>72.9</ele>
        <time>2020-07-01T06:38:03Z</time>
      </trkpt>
      <trkpt lat="49.07555" lon="3.60976">
        <ele>72.8</ele>
        <time>2020-07-01T06:38:04Z</time>
      </trkpt>
      <trkpt lat="49.07554" lon="3.60972">
        <ele>72.8</ele>
        <time>2020-07-01T06:38:05Z</time>
      </trkpt>
      <trkpt lat="49.07553" lon="3.60966">
        <ele>72.7</ele>
        <time>2020-07-01T06:38:06Z</time>
      </trkpt>
      <trkpt lat="49.07554" lon="3.60959">
        <ele>72.6</ele>
        <time>2020-07-01T06:38:07Z</time>
      </trkpt>
      <trkpt lat="49.07556" lon="3.60953">
        <ele>72.5</ele>
        <time>2020-07-01T06:38:08Z</time>
      </trkpt>
      <trkpt lat="49.07558" lon="3.60947">
        <ele>72.5</ele>
        <time>2020-07-01T06:38:09Z</time>
      </trkpt>
      <trkpt lat="49.0756" lon="3.60942">
        <ele>72.4</ele>
        <time>2020-07-01T06:38:10Z</time>
      </trkpt>
      <trkpt lat="49.07561" lon="3.60938">
        <ele>72.3</ele>
        <time>2020-07-01T06:38:11Z</time>
      </trkpt>
      <trkpt lat="49.07563" lon="3.60934">
        <ele>72.3</ele>
        <time>2020-07-01T06:38:12Z</time>
      </trkpt>
      <trkpt lat="49.07565" lon="3.60929">
        <ele>72.2</ele>
        <time>2020-07-01T06:38:13Z</time>
      </trkpt>
      <trkpt lat="49.07565" lon="3.60928">
        <ele>72.2</ele>
        <time>2020-07-01T06:38:14Z</time>
      </trkpt>
      <trkpt lat="49.07567" lon="3.60925">
        <ele>72.2</ele>
        <time>2020-07-01T06:38:15Z</time>
      </trkpt>
      <trkpt lat="49.0757" lon="3.60921">
        <ele>72.1</ele>
        <time>2020-07-01T06:38:16Z</time>
      </trkpt>
      <trkpt lat="49.0757" lon="3.60919">
        <ele>72.1</ele>
        <time>2020-07-01T06:38:17Z</time>
      </trkpt>
      <trkpt lat="49.07571" lon="3.60914">
        <ele>72</ele>
        <time>2020-07-01T06:38:18Z</time>
      </trkpt>
      <trkpt lat="49.07572" lon="3.6091">
        <ele>72</ele>
        <time>2020-07-01T06:38:19Z</time>
      </trkpt>
      <trkpt lat="49.07572" lon="3.60909">
        <ele>72</ele>
        <time>2020-07-01T06:38:20Z</time>
      </trkpt>
      <trkpt lat="49.07574" lon="3.60904">
        <ele>72</ele>
        <time>2020-07-01T06:38:21Z</time>
      </trkpt>
      <trkpt lat="49.07574" lon="3.60903">
        <ele>71.9</ele>
        <time>2020-07-01T06:38:22Z</time>
      </trkpt>
      <trkpt lat="49.07576" lon="3.609">
        <ele>71.9</ele>
        <time>2020-07-01T06:38:23Z</time>
      </trkpt>
      <trkpt lat="49.07578" lon="3.60897">
        <ele>71.9</ele>
        <time>2020-07-01T06:38:24Z</time>
      </trkpt>
      <trkpt lat="49.07576" lon="3.60895">
        <ele>71.9</ele>
        <time>2020-07-01T06:38:25Z</time>
      </trkpt>
      <trkpt lat="49.07575" lon="3.60897">
        <ele>72</ele>
        <time>2020-07-01T06:38:26Z</time>
      </trkpt>
      <trkpt lat="49.07575" lon="3.609">
        <ele>72</ele>
        <time>2020-07-01T06:38:27Z</time>
      </trkpt>
      <trkpt lat="49.07574" lon="3.60905">
        <ele>72</ele>
        <time>2020-07-01T06:38:28Z</time>
      </trkpt>
      <trkpt lat="49.07574" lon="3.60907">
        <ele>72</ele>
        <time>2020-07-01T06:38:29Z</time>
      </trkpt>
      <trkpt lat="49.07573" lon="3.60911">
        <ele>72</ele>
        <time>2020-07-01T06:38:30Z</time>
      </trkpt>
      <trkpt lat="49.07574" lon="3.60916">
        <ele>72.1</ele>
        <time>2020-07-01T06:38:31Z</time>
      </trkpt>
      <trkpt lat="49.07572" lon="3.6092">
        <ele>72.1</ele>
        <time>2020-07-01T06:38:32Z</time>
      </trkpt>
      <trkpt lat="49.07572" lon="3.60921">
        <ele>72.1</ele>
        <time>2020-07-01T06:38:33Z</time>
      </trkpt>
      <trkpt lat="49.0757" lon="3.60925">
        <ele>72.1</ele>
        <time>2020-07-01T06:38:34Z</time>
      </trkpt>
      <trkpt lat="49.0757" lon="3.60927">
        <ele>72.1</ele>
        <time>2020-07-01T06:38:35Z</time>
      </trkpt>
      <trkpt lat="49.0757" lon="3.60928">
        <ele>72.1</ele>
        <time>2020-07-01T06:38:36Z</time>
      </trkpt>
      <trkpt lat="49.0757" lon="3.60927">
        <ele>72.2</ele>
        <time>2020-07-01T06:38:37Z</time>
      </trkpt>
      <trkpt lat="49.07571" lon="3.60927">
        <ele>72.2</ele>
        <time>2020-07-01T06:38:38Z</time>
      </trkpt>
      <trkpt lat="49.0757" lon="3.60927">
        <ele>72.2</ele>
        <time>2020-07-01T06:38:39Z</time>
      </trkpt>
      <trkpt lat="49.0757" lon="3.60927">
        <ele>72.2</ele>
        <time>2020-07-01T06:38:40Z</time>
      </trkpt>
      <trkpt lat="49.0757" lon="3.60928">
        <ele>72.2</ele>
        <time>2020-07-01T06:38:41Z</time>
      </trkpt>
      <trkpt lat="49.07569" lon="3.60928">
        <ele>72.2</ele>
        <time>2020-07-01T06:38:42Z</time>
      </trkpt>
      <trkpt lat="49.07569" lon="3.60928">
        <ele>72.2</ele>
        <time>2020-07-01T06:38:43Z</time>
      </trkpt>
      <trkpt lat="49.07569" lon="3.60929">
        <ele>72.2</ele>
        <time>2020-07-01T06:38:44Z</time>
      </trkpt>
      <trkpt lat="49.07569" lon="3.6093">
        <ele>72.2</ele>
        <time>2020-07-01T06:38:45Z</time>
      </trkpt>
      <trkpt lat="49.07568" lon="3.60931">
        <ele>72.2</ele>
        <time>2020-07-01T06:38:46Z</time>
      </trkpt>
      <trkpt lat="49.07568" lon="3.60931">
        <ele>72.2</ele>
        <time>2020-07-01T06:38:47Z</time>
      </trkpt>
      <trkpt lat="49.07569" lon="3.60932">
        <ele>72.2</ele>
        <time>2020-07-01T06:38:48Z</time>
      </trkpt>
      <trkpt lat="49.07569" lon="3.60931">
        <ele>72.2</ele>
        <time>2020-07-01T06:38:49Z</time>
      </trkpt>
      <trkpt lat="49.07569" lon="3.60931">
        <ele>72.2</ele>
        <time>2020-07-01T06:38:50Z</time>
      </trkpt>
      <trkpt lat="49.07569" lon="3.60931">
        <ele>72.2</ele>
        <time>2020-07-01T06:38:51Z</time>
      </trkpt>
      <trkpt lat="49.07569" lon="3.6093">
        <ele>72.2</ele>
        <time>2020-07-01T06:38:52Z</time>
      </trkpt>
      <trkpt lat="49.07569" lon="3.6093">
        <ele>72.2</ele>
        <time>2020-07-01T06:38:53Z</time>
      </trkpt>
      <trkpt lat="49.07569" lon="3.6093">
        <ele>72.2</ele>
        <time>2020-07-01T06:38:54Z</time>
      </trkpt>
      <trkpt lat="49.07569" lon="3.6093">
        <ele>72.2</ele>
        <time>2020-07-01T06:38:55Z</time>
      </trkpt>
      <trkpt lat="49.07569" lon="3.6093">
        <ele>72.2</ele>
        <time>2020-07-01T06:38:56Z</time>
      </trkpt>
      <trkpt lat="49.07569" lon="3.60929">
        <ele>72.2</ele>
        <time>2020-07-01T06:38:57Z</time>
      </trkpt>
      <trkpt lat="49.07569" lon="3.60929">
        <ele>72.2</ele>
        <time>2020-07-01T06:38:58Z</time>
      </trkpt>
      <trkpt lat="49.07565" lon="3.60934">
        <ele>72.3</ele>
        <time>2020-07-01T06:42:31Z</time>
      </trkpt>
      <trkpt lat="49.07564" lon="3.60933">
        <ele>72.3</ele>
        <time>2020-07-01T06:42:32Z</time>
      </trkpt>
      <trkpt lat="49.07563" lon="3.60933">
        <ele>72.3</ele>
        <time>2020-07-01T06:42:33Z</time>
      </trkpt>
      <trkpt lat="49.07561" lon="3.60933">
        <ele>72.3</ele>
        <time>2020-07-01T06:42:34Z</time>
      </trkpt>
      <trkpt lat="49.0756" lon="3.60937">
        <ele>72.3</ele>
        <time>2020-07-01T06:42:35Z</time>
      </trkpt>
      <trkpt lat="49.07559" lon="3.60941">
        <ele>72.4</ele>
        <time>2020-07-01T06:42:36Z</time>
      </trkpt>
      <trkpt lat="49.07557" lon="3.60945">
        <ele>72.4</ele>
        <time>2020-07-01T06:42:37Z</time>
      </trkpt>
      <trkpt lat="49.07557" lon="3.60947">
        <ele>72.4</ele>
        <time>2020-07-01T06:42:38Z</time>
      </trkpt>
      <trkpt lat="49.07556" lon="3.60951">
        <ele>72.5</ele>
        <time>2020-07-01T06:42:39Z</time>
      </trkpt>
      <trkpt lat="49.07555" lon="3.60956">
        <ele>72.6</ele>
        <time>2020-07-01T06:42:40Z</time>
      </trkpt>
      <trkpt lat="49.07555" lon="3.60958">
        <ele>72.6</ele>
        <time>2020-07-01T06:42:41Z</time>
      </trkpt>
      <trkpt lat="49.07554" lon="3.60961">
        <ele>72.6</ele>
        <time>2020-07-01T06:42:42Z</time>
      </trkpt>
      <trkpt lat="49.07554" lon="3.60963">
        <ele>72.6</ele>
        <time>2020-07-01T06:42:43Z</time>
      </trkpt>
      <trkpt lat="49.07553" lon="3.60965">
        <ele>72.7</ele>
        <time>2020-07-01T06:42:44Z</time>
      </trkpt>
      <trkpt lat="49.07552" lon="3.60967">
        <ele>72.7</ele>
        <time>2020-07-01T06:42:45Z</time>
      </trkpt>
      <trkpt lat="49.07552" lon="3.60968">
        <ele>72.7</ele>
        <time>2020-07-01T06:42:46Z</time>
      </trkpt>
      <trkpt lat="49.07551" lon="3.60972">
        <ele>72.8</ele>
        <time>2020-07-01T06:42:47Z</time>
      </trkpt>
      <trkpt lat="49.07551" lon="3.60974">
        <ele>72.8</ele>
        <time>2020-07-01T06:42:48Z</time>
      </trkpt>
      <trkpt lat="49.07552" lon="3.60978">
        <ele>72.8</ele>
        <time>2020-07-01T06:42:49Z</time>
      </trkpt>
      <trkpt lat="49.07553" lon="3.6098">
        <ele>72.8</ele>
        <time>2020-07-01T06:42:50Z</time>
      </trkpt>
      <trkpt lat="49.07554" lon="3.60984">
        <ele>72.9</ele>
        <time>2020-07-01T06:42:51Z</time>
      </trkpt>
      <trkpt lat="49.07555" lon="3.6099">
        <ele>73</ele>
        <time>2020-07-01T06:42:52Z</time>
      </trkpt>
      <trkpt lat="49.07558" lon="3.60994">
        <ele>73</ele>
        <time>2020-07-01T06:42:53Z</time>
      </trkpt>
      <trkpt lat="49.0756" lon="3.60999">
        <ele>73.1</ele>
        <time>2020-07-01T06:42:54Z</time>
      </trkpt>
      <trkpt lat="49.07562" lon="3.61002">
        <ele>73.1</ele>
        <time>2020-07-01T06:42:55Z</time>
      </trkpt>
      <trkpt lat="49.07564" lon="3.61008">
        <ele>73.2</ele>
        <time>2020-07-01T06:42:56Z</time>
      </trkpt>
      <trkpt lat="49.07565" lon="3.61009">
        <ele>73.2</ele>
        <time>2020-07-01T06:42:57Z</time>
      </trkpt>
      <trkpt lat="49.07567" lon="3.61013">
        <ele>73.3</ele>
        <time>2020-07-01T06:42:58Z</time>
      </trkpt>
      <trkpt lat="49.07567" lon="3.61014">
        <ele>73.3</ele>
        <time>2020-07-01T06:42:59Z</time>
      </trkpt>
      <trkpt lat="49.07571" lon="3.61017">
        <ele>73.4</ele>
        <time>2020-07-01T06:43:00Z</time>
      </trkpt>
      <trkpt lat="49.07573" lon="3.61018">
        <ele>73.4</ele>
        <time>2020-07-01T06:43:01Z</time>
      </trkpt>
      <trkpt lat="49.07577" lon="3.61018">
        <ele>73.5</ele>
        <time>2020-07-01T06:43:02Z</time>
      </trkpt>
      <trkpt lat="49.0758" lon="3.61021">
        <ele>73.6</ele>
        <time>2020-07-01T06:43:03Z</time>
      </trkpt>
      <trkpt lat="49.07582" lon="3.61024">
        <ele>73.7</ele>
        <time>2020-07-01T06:43:04Z</time>
      </trkpt>
      <trkpt lat="49.07585" lon="3.61027">
        <ele>73.8</ele>
        <time>2020-07-01T06:43:05Z</time>
      </trkpt>
      <trkpt lat="49.07587" lon="3.61033">
        <ele>73.9</ele>
        <time>2020-07-01T06:43:06Z</time>
      </trkpt>
      <trkpt lat="49.07588" lon="3.61035">
        <ele>74</ele>
        <time>2020-07-01T06:43:07Z</time>
      </trkpt>
      <trkpt lat="49.0759" lon="3.61039">
        <ele>74</ele>
        <time>2020-07-01T06:43:08Z</time>
      </trkpt>
      <trkpt lat="49.07593" lon="3.61043">
        <ele>74.2</ele>
        <time>2020-07-01T06:43:09Z</time>
      </trkpt>
      <trkpt lat="49.07597" lon="3.61048">
        <ele>74.3</ele>
        <time>2020-07-01T06:43:10Z</time>
      </trkpt>
      <trkpt lat="49.07599" lon="3.61052">
        <ele>74.4</ele>
        <time>2020-07-01T06:43:11Z</time>
      </trkpt>
      <trkpt lat="49.07601" lon="3.61055">
        <ele>74.5</ele>
        <time>2020-07-01T06:43:12Z</time>
      </trkpt>
      <trkpt lat="49.07603" lon="3.61058">
        <ele>74.6</ele>
        <time>2020-07-01T06:43:13Z</time>
      </trkpt>
      <trkpt lat="49.07605" lon="3.61063">
        <ele>74.7</ele>
        <time>2020-07-01T06:43:14Z</time>
      </trkpt>
      <trkpt lat="49.07606" lon="3.61064">
        <ele>74.7</ele>
        <time>2020-07-01T06:43:15Z</time>
      </trkpt>
      <trkpt lat="49.07608" lon="3.61067">
        <ele>74.9</ele>
        <time>2020-07-01T06:43:16Z</time>
      </trkpt>
      <trkpt lat="49.07609" lon="3.61069">
        <ele>74.9</ele>
        <time>2020-07-01T06:43:17Z</time>
      </trkpt>
      <trkpt lat="49.07611" lon="3.61072">
        <ele>75</ele>
        <time>2020-07-01T06:43:18Z</time>
      </trkpt>
      <trkpt lat="49.07613" lon="3.61075">
        <ele>75.1</ele>
        <time>2020-07-01T06:43:19Z</time>
      </trkpt>
      <trkpt lat="49.07616" lon="3.6108">
        <ele>75.2</ele>
        <time>2020-07-01T06:43:20Z</time>
      </trkpt>
      <trkpt lat="49.0762" lon="3.61084">
        <ele>75.4</ele>
        <time>2020-07-01T06:43:21Z</time>
      </trkpt>
      <trkpt lat="49.07623" lon="3.61089">
        <ele>75.5</ele>
        <time>2020-07-01T06:43:22Z</time>
      </trkpt>
      <trkpt lat="49.07624" lon="3.61094">
        <ele>75.6</ele>
        <time>2020-07-01T06:43:23Z</time>
      </trkpt>
      <trkpt lat="49.07626" lon="3.61097">
        <ele>75.7</ele>
        <time>2020-07-01T06:43:24Z</time>
      </trkpt>
      <trkpt lat="49.07628" lon="3.611">
        <ele>75.7</ele>
        <time>2020-07-01T06:43:25Z</time>
      </trkpt>
      <trkpt lat="49.0763" lon="3.61104">
        <ele>75.9</ele>
        <time>2020-07-01T06:43:26Z</time>
      </trkpt>
      <trkpt lat="49.07632" lon="3.61108">
        <ele>76</ele>
        <time>2020-07-01T06:43:27Z</time>
      </trkpt>
      <trkpt lat="49.07634" lon="3.61112">
        <ele>76</ele>
        <time>2020-07-01T06:43:28Z</time>
      </trkpt>
      <trkpt lat="49.07634" lon="3.61114">
        <ele>76.1</ele>
        <time>2020-07-01T06:43:29Z</time>
      </trkpt>
      <trkpt lat="49.07636" lon="3.61118">
        <ele>76.1</ele>
        <time>2020-07-01T06:43:30Z</time>
      </trkpt>
      <trkpt lat="49.07638" lon="3.61122">
        <ele>76.2</ele>
        <time>2020-07-01T06:43:31Z</time>
      </trkpt>
      <trkpt lat="49.07639" lon="3.61126">
        <ele>76.3</ele>
        <time>2020-07-01T06:43:32Z</time>
      </trkpt>
      <trkpt lat="49.07642" lon="3.61131">
        <ele>76.4</ele>
        <time>2020-07-01T06:43:33Z</time>
      </trkpt>
      <trkpt lat="49.07645" lon="3.61136">
        <ele>76.5</ele>
        <time>2020-07-01T06:43:34Z</time>
      </trkpt>
      <trkpt lat="49.07646" lon="3.6114">
        <ele>76.6</ele>
        <time>2020-07-01T06:43:35Z</time>
      </trkpt>
      <trkpt lat="49.07649" lon="3.61144">
        <ele>76.7</ele>
        <time>2020-07-01T06:43:36Z</time>
      </trkpt>
      <trkpt lat="49.0765" lon="3.61148">
        <ele>76.8</ele>
        <time>2020-07-01T06:43:37Z</time>
      </trkpt>
      <trkpt lat="49.07652" lon="3.61153">
        <ele>77</ele>
        <time>2020-07-01T06:43:38Z</time>
      </trkpt>
      <trkpt lat="49.07654" lon="3.61159">
        <ele>77.1</ele>
        <time>2020-07-01T06:43:39Z</time>
      </trkpt>
      <trkpt lat="49.07655" lon="3.61163">
        <ele>77.2</ele>
        <time>2020-07-01T06:43:40Z</time>
      </trkpt>
      <trkpt lat="49.07658" lon="3.61168">
        <ele>77.3</ele>
        <time>2020-07-01T06:43:41Z</time>
      </trkpt>
      <trkpt lat="49.0766" lon="3.61172">
        <ele>77.5</ele>
        <time>2020-07-01T06:43:42Z</time>
      </trkpt>
      <trkpt lat="49.07663" lon="3.61176">
        <ele>77.6</ele>
        <time>2020-07-01T06:43:43Z</time>
      </trkpt>
      <trkpt lat="49.07665" lon="3.6118">
        <ele>77.7</ele>
        <time>2020-07-01T06:43:44Z</time>
      </trkpt>
      <trkpt lat="49.07666" lon="3.61184">
        <ele>77.8</ele>
        <time>2020-07-01T06:43:45Z</time>
      </trkpt>
      <trkpt lat="49.07668" lon="3.61189">
        <ele>77.9</ele>
        <time>2020-07-01T06:43:46Z</time>
      </trkpt>
      <trkpt lat="49.07669" lon="3.61193">
        <ele>78</ele>
        <time>2020-07-01T06:43:47Z</time>
      </trkpt>
      <trkpt lat="49.07669" lon="3.61198">
        <ele>78</ele>
        <time>2020-07-01T06:43:48Z</time>
      </trkpt>
      <trkpt lat="49.0767" lon="3.61204">
        <ele>78.1</ele>
        <time>2020-07-01T06:43:49Z</time>
      </trkpt>
      <trkpt lat="49.07671" lon="3.61211">
        <ele>78.2</ele>
        <time>2020-07-01T06:43:50Z</time>
      </trkpt>
      <trkpt lat="49.07673" lon="3.61218">
        <ele>78.3</ele>
        <time>2020-07-01T06:43:51Z</time>
      </trkpt>
      <trkpt lat="49.07674" lon="3.61224">
        <ele>78.4</ele>
        <time>2020-07-01T06:43:52Z</time>
      </trkpt>
      <trkpt lat="49.07675" lon="3.6123">
        <ele>78.5</ele>
        <time>2020-07-01T06:43:53Z</time>
      </trkpt>
      <trkpt lat="49.07677" lon="3.61235">
        <ele>78.6</ele>
        <time>2020-07-01T06:43:54Z</time>
      </trkpt>
      <trkpt lat="49.07679" lon="3.61242">
        <ele>78.7</ele>
        <time>2020-07-01T06:43:55Z</time>
      </trkpt>
      <trkpt lat="49.07682" lon="3.61247">
        <ele>78.9</ele>
        <time>2020-07-01T06:43:56Z</time>
      </trkpt>
      <trkpt lat="49.07683" lon="3.61252">
        <ele>79</ele>
        <time>2020-07-01T06:43:57Z</time>
      </trkpt>
      <trkpt lat="49.07685" lon="3.61257">
        <ele>79.1</ele>
        <time>2020-07-01T06:43:58Z</time>
      </trkpt>
      <trkpt lat="49.07686" lon="3.61261">
        <ele>79.1</ele>
        <time>2020-07-01T06:43:59Z</time>
      </trkpt>
      <trkpt lat="49.07687" lon="3.61266">
        <ele>79.2</ele>
        <time>2020-07-01T06:44:00Z</time>
      </trkpt>
      <trkpt lat="49.07689" lon="3.61271">
        <ele>79.4</ele>
        <time>2020-07-01T06:44:01Z</time>
      </trkpt>
      <trkpt lat="49.07691" lon="3.61277">
        <ele>79.5</ele>
        <time>2020-07-01T06:44:02Z</time>
      </trkpt>
      <trkpt lat="49.07693" lon="3.61283">
        <ele>79.6</ele>
        <time>2020-07-01T06:44:03Z</time>
      </trkpt>
      <trkpt lat="49.07695" lon="3.61289">
        <ele>79.8</ele>
        <time>2020-07-01T06:44:04Z</time>
      </trkpt>
      <trkpt lat="49.07696" lon="3.61296">
        <ele>79.9</ele>
        <time>2020-07-01T06:44:05Z</time>
      </trkpt>
      <trkpt lat="49.07697" lon="3.61301">
        <ele>80</ele>
        <time>2020-07-01T06:44:06Z</time>
      </trkpt>
      <trkpt lat="49.07699" lon="3.61307">
        <ele>80.1</ele>
        <time>2020-07-01T06:44:07Z</time>
      </trkpt>
      <trkpt lat="49.077" lon="3.61312">
        <ele>80.2</ele>
        <time>2020-07-01T06:44:08Z</time>
      </trkpt>
      <trkpt lat="49.07701" lon="3.61317">
        <ele>80.3</ele>
        <time>2020-07-01T06:44:09Z</time>
      </trkpt>
      <trkpt lat="49.07702" lon="3.61322">
        <ele>80.4</ele>
        <time>2020-07-01T06:44:10Z</time>
      </trkpt>
      <trkpt lat="49.07703" lon="3.61328">
        <ele>80.5</ele>
        <time>2020-07-01T06:44:11Z</time>
      </trkpt>
      <trkpt lat="49.07704" lon="3.61335">
        <ele>80.6</ele>
        <time>2020-07-01T06:44:12Z</time>
      </trkpt>
      <trkpt lat="49.07706" lon="3.61341">
        <ele>80.7</ele>
        <time>2020-07-01T06:44:13Z</time>
      </trkpt>
      <trkpt lat="49.07707" lon="3.61346">
        <ele>80.8</ele>
        <time>2020-07-01T06:44:14Z</time>
      </trkpt>
      <trkpt lat="49.07709" lon="3.61351">
        <ele>80.9</ele>
        <time>2020-07-01T06:44:15Z</time>
      </trkpt>
      <trkpt lat="49.0771" lon="3.61357">
        <ele>81</ele>
        <time>2020-07-01T06:44:16Z</time>
      </trkpt>
      <trkpt lat="49.07713" lon="3.61363">
        <ele>81.1</ele>
        <time>2020-07-01T06:44:17Z</time>
      </trkpt>
      <trkpt lat="49.07715" lon="3.6137">
        <ele>81.2</ele>
        <time>2020-07-01T06:44:18Z</time>
      </trkpt>
      <trkpt lat="49.07717" lon="3.61376">
        <ele>81.3</ele>
        <time>2020-07-01T06:44:19Z</time>
      </trkpt>
      <trkpt lat="49.07719" lon="3.61382">
        <ele>81.4</ele>
        <time>2020-07-01T06:44:20Z</time>
      </trkpt>
      <trkpt lat="49.07721" lon="3.61387">
        <ele>81.5</ele>
        <time>2020-07-01T06:44:21Z</time>
      </trkpt>
      <trkpt lat="49.07723" lon="3.61393">
        <ele>81.6</ele>
        <time>2020-07-01T06:44:22Z</time>
      </trkpt>
      <trkpt lat="49.07725" lon="3.61399">
        <ele>81.7</ele>
        <time>2020-07-01T06:44:23Z</time>
      </trkpt>
      <trkpt lat="49.07727" lon="3.61404">
        <ele>81.8</ele>
        <time>2020-07-01T06:44:24Z</time>
      </trkpt>
      <trkpt lat="49.07729" lon="3.6141">
        <ele>81.9</ele>
        <time>2020-07-01T06:44:25Z</time>
      </trkpt>
      <trkpt lat="49.0773" lon="3.61416">
        <ele>82</ele>
        <time>2020-07-01T06:44:26Z</time>
      </trkpt>
      <trkpt lat="49.07732" lon="3.61422">
        <ele>82.2</ele>
        <time>2020-07-01T06:44:27Z</time>
      </trkpt>
      <trkpt lat="49.07734" lon="3.61428">
        <ele>82.3</ele>
        <time>2020-07-01T06:44:28Z</time>
      </trkpt>
      <trkpt lat="49.07735" lon="3.61433">
        <ele>82.4</ele>
        <time>2020-07-01T06:44:29Z</time>
      </trkpt>
      <trkpt lat="49.07736" lon="3.61439">
        <ele>82.5</ele>
        <time>2020-07-01T06:44:30Z</time>
      </trkpt>
      <trkpt lat="49.07739" lon="3.61446">
        <ele>82.6</ele>
        <time>2020-07-01T06:44:31Z</time>
      </trkpt>
      <trkpt lat="49.0774" lon="3.61451">
        <ele>82.7</ele>
        <time>2020-07-01T06:44:32Z</time>
      </trkpt>
      <trkpt lat="49.07742" lon="3.61457">
        <ele>82.8</ele>
        <time>2020-07-01T06:44:33Z</time>
      </trkpt>
      <trkpt lat="49.07743" lon="3.61462">
        <ele>82.9</ele>
        <time>2020-07-01T06:44:34Z</time>
      </trkpt>
      <trkpt lat="49.07745" lon="3.61468">
        <ele>83</ele>
        <time>2020-07-01T06:44:35Z</time>
      </trkpt>
      <trkpt lat="49.07747" lon="3.61475">
        <ele>83.2</ele>
        <time>2020-07-01T06:44:36Z</time>
      </trkpt>
      <trkpt lat="49.07749" lon="3.61481">
        <ele>83.3</ele>
        <time>2020-07-01T06:44:37Z</time>
      </trkpt>
      <trkpt lat="49.07751" lon="3.61488">
        <ele>83.4</ele>
        <time>2020-07-01T06:44:38Z</time>
      </trkpt>
      <trkpt lat="49.07752" lon="3.61494">
        <ele>83.6</ele>
        <time>2020-07-01T06:44:39Z</time>
      </trkpt>
      <trkpt lat="49.07753" lon="3.61501">
        <ele>83.7</ele>
        <time>2020-07-01T06:44:40Z</time>
      </trkpt>
      <trkpt lat="49.07756" lon="3.61507">
        <ele>83.8</ele>
        <time>2020-07-01T06:44:41Z</time>
      </trkpt>
      <trkpt lat="49.07757" lon="3.61513">
        <ele>84</ele>
        <time>2020-07-01T06:44:42Z</time>
      </trkpt>
      <trkpt lat="49.07758" lon="3.61519">
        <ele>84.1</ele>
        <time>2020-07-01T06:44:43Z</time>
      </trkpt>
      <trkpt lat="49.0776" lon="3.61526">
        <ele>84.2</ele>
        <time>2020-07-01T06:44:44Z</time>
      </trkpt>
      <trkpt lat="49.07762" lon="3.61532">
        <ele>84.4</ele>
        <time>2020-07-01T06:44:45Z</time>
      </trkpt>
      <trkpt lat="49.07763" lon="3.61538">
        <ele>84.5</ele>
        <time>2020-07-01T06:44:46Z</time>
      </trkpt>
      <trkpt lat="49.07765" lon="3.61545">
        <ele>84.6</ele>
        <time>2020-07-01T06:44:47Z</time>
      </trkpt>
      <trkpt lat="49.07767" lon="3.61551">
        <ele>84.8</ele>
        <time>2020-07-01T06:44:48Z</time>
      </trkpt>
      <trkpt lat="49.07769" lon="3.61556">
        <ele>84.9</ele>
        <time>2020-07-01T06:44:49Z</time>
      </trkpt>
      <trkpt lat="49.07771" lon="3.61562">
        <ele>85.1</ele>
        <time>2020-07-01T06:44:50Z</time>
      </trkpt>
      <trkpt lat="49.07772" lon="3.61567">
        <ele>85.2</ele>
        <time>2020-07-01T06:44:51Z</time>
      </trkpt>
      <trkpt lat="49.07774" lon="3.61573">
        <ele>85.3</ele>
        <time>2020-07-01T06:44:52Z</time>
      </trkpt>
      <trkpt lat="49.07775" lon="3.61579">
        <ele>85.5</ele>
        <time>2020-07-01T06:44:53Z</time>
      </trkpt>
      <trkpt lat="49.07777" lon="3.61585">
        <ele>85.6</ele>
        <time>2020-07-01T06:44:54Z</time>
      </trkpt>
      <trkpt lat="49.07778" lon="3.6159">
        <ele>85.7</ele>
        <time>2020-07-01T06:44:55Z</time>
      </trkpt>
      <trkpt lat="49.07781" lon="3.61596">
        <ele>85.8</ele>
        <time>2020-07-01T06:44:56Z</time>
      </trkpt>
      <trkpt lat="49.07783" lon="3.61602">
        <ele>86</ele>
        <time>2020-07-01T06:44:57Z</time>
      </trkpt>
      <trkpt lat="49.07785" lon="3.61608">
        <ele>86.1</ele>
        <time>2020-07-01T06:44:58Z</time>
      </trkpt>
      <trkpt lat="49.07787" lon="3.61613">
        <ele>86.3</ele>
        <time>2020-07-01T06:44:59Z</time>
      </trkpt>
      <trkpt lat="49.07789" lon="3.61618">
        <ele>86.4</ele>
        <time>2020-07-01T06:45:00Z</time>
      </trkpt>
      <trkpt lat="49.07791" lon="3.61624">
        <ele>86.5</ele>
        <time>2020-07-01T06:45:01Z</time>
      </trkpt>
      <trkpt lat="49.07793" lon="3.6163">
        <ele>86.7</ele>
        <time>2020-07-01T06:45:02Z</time>
      </trkpt>
      <trkpt lat="49.07795" lon="3.61636">
        <ele>86.8</ele>
        <time>2020-07-01T06:45:03Z</time>
      </trkpt>
      <trkpt lat="49.07797" lon="3.61642">
        <ele>86.9</ele>
        <time>2020-07-01T06:45:04Z</time>
      </trkpt>
      <trkpt lat="49.07798" lon="3.61647">
        <ele>87</ele>
        <time>2020-07-01T06:45:05Z</time>
      </trkpt>
      <trkpt lat="49.07799" lon="3.61653">
        <ele>87.1</ele>
        <time>2020-07-01T06:45:06Z</time>
      </trkpt>
      <trkpt lat="49.07801" lon="3.6166">
        <ele>87.2</ele>
        <time>2020-07-01T06:45:07Z</time>
      </trkpt>
      <trkpt lat="49.07802" lon="3.61666">
        <ele>87.3</ele>
        <time>2020-07-01T06:45:08Z</time>
      </trkpt>
      <trkpt lat="49.07804" lon="3.61671">
        <ele>87.5</ele>
        <time>2020-07-01T06:45:09Z</time>
      </trkpt>
      <trkpt lat="49.07806" lon="3.61678">
        <ele>87.6</ele>
        <time>2020-07-01T06:45:10Z</time>
      </trkpt>
      <trkpt lat="49.07808" lon="3.61685">
        <ele>87.8</ele>
        <time>2020-07-01T06:45:11Z</time>
      </trkpt>
      <trkpt lat="49.0781" lon="3.61691">
        <ele>87.9</ele>
        <time>2020-07-01T06:45:12Z</time>
      </trkpt>
      <trkpt lat="49.07811" lon="3.61697">
        <ele>88</ele>
        <time>2020-07-01T06:45:13Z</time>
      </trkpt>
      <trkpt lat="49.07812" lon="3.61702">
        <ele>88.2</ele>
        <time>2020-07-01T06:45:14Z</time>
      </trkpt>
      <trkpt lat="49.07814" lon="3.61708">
        <ele>88.3</ele>
        <time>2020-07-01T06:45:15Z</time>
      </trkpt>
      <trkpt lat="49.07815" lon="3.61714">
        <ele>88.5</ele>
        <time>2020-07-01T06:45:16Z</time>
      </trkpt>
      <trkpt lat="49.07817" lon="3.6172">
        <ele>88.6</ele>
        <time>2020-07-01T06:45:17Z</time>
      </trkpt>
      <trkpt lat="49.07818" lon="3.61727">
        <ele>88.8</ele>
        <time>2020-07-01T06:45:18Z</time>
      </trkpt>
      <trkpt lat="49.0782" lon="3.61733">
        <ele>88.9</ele>
        <time>2020-07-01T06:45:19Z</time>
      </trkpt>
      <trkpt lat="49.07821" lon="3.61739">
        <ele>89.1</ele>
        <time>2020-07-01T06:45:20Z</time>
      </trkpt>
      <trkpt lat="49.07821" lon="3.61745">
        <ele>89.1</ele>
        <time>2020-07-01T06:45:21Z</time>
      </trkpt>
      <trkpt lat="49.07823" lon="3.61749">
        <ele>89.1</ele>
        <time>2020-07-01T06:45:22Z</time>
      </trkpt>
      <trkpt lat="49.07825" lon="3.61754">
        <ele>89.2</ele>
        <time>2020-07-01T06:45:23Z</time>
      </trkpt>
      <trkpt lat="49.07827" lon="3.6176">
        <ele>89.2</ele>
        <time>2020-07-01T06:45:24Z</time>
      </trkpt>
      <trkpt lat="49.07827" lon="3.61766">
        <ele>89.2</ele>
        <time>2020-07-01T06:45:25Z</time>
      </trkpt>
      <trkpt lat="49.07827" lon="3.61772">
        <ele>89.3</ele>
        <time>2020-07-01T06:45:26Z</time>
      </trkpt>
      <trkpt lat="49.07829" lon="3.61779">
        <ele>89.3</ele>
        <time>2020-07-01T06:45:27Z</time>
      </trkpt>
      <trkpt lat="49.0783" lon="3.61785">
        <ele>89.4</ele>
        <time>2020-07-01T06:45:28Z</time>
      </trkpt>
      <trkpt lat="49.07831" lon="3.61791">
        <ele>89.4</ele>
        <time>2020-07-01T06:45:29Z</time>
      </trkpt>
      <trkpt lat="49.07831" lon="3.61799">
        <ele>89.5</ele>
        <time>2020-07-01T06:45:30Z</time>
      </trkpt>
      <trkpt lat="49.07832" lon="3.61805">
        <ele>89.5</ele>
        <time>2020-07-01T06:45:31Z</time>
      </trkpt>
      <trkpt lat="49.07833" lon="3.61812">
        <ele>89.5</ele>
        <time>2020-07-01T06:45:32Z</time>
      </trkpt>
      <trkpt lat="49.07833" lon="3.61819">
        <ele>89.5</ele>
        <time>2020-07-01T06:45:33Z</time>
      </trkpt>
      <trkpt lat="49.07834" lon="3.61826">
        <ele>89.5</ele>
        <time>2020-07-01T06:45:34Z</time>
      </trkpt>
      <trkpt lat="49.07834" lon="3.61834">
        <ele>89.5</ele>
        <time>2020-07-01T06:45:35Z</time>
      </trkpt>
      <trkpt lat="49.07835" lon="3.61841">
        <ele>89.4</ele>
        <time>2020-07-01T06:45:36Z</time>
      </trkpt>
      <trkpt lat="49.07834" lon="3.61847">
        <ele>89.4</ele>
        <time>2020-07-01T06:45:37Z</time>
      </trkpt>
      <trkpt lat="49.07834" lon="3.61854">
        <ele>89.4</ele>
        <time>2020-07-01T06:45:38Z</time>
      </trkpt>
      <trkpt lat="49.07834" lon="3.61861">
        <ele>89.3</ele>
        <time>2020-07-01T06:45:39Z</time>
      </trkpt>
      <trkpt lat="49.07833" lon="3.61868">
        <ele>89.3</ele>
        <time>2020-07-01T06:45:40Z</time>
      </trkpt>
      <trkpt lat="49.07833" lon="3.61875">
        <ele>89.2</ele>
        <time>2020-07-01T06:45:41Z</time>
      </trkpt>
      <trkpt lat="49.07833" lon="3.61883">
        <ele>89</ele>
        <time>2020-07-01T06:45:42Z</time>
      </trkpt>
      <trkpt lat="49.07833" lon="3.6189">
        <ele>88.9</ele>
        <time>2020-07-01T06:45:43Z</time>
      </trkpt>
      <trkpt lat="49.07833" lon="3.61897">
        <ele>88.8</ele>
        <time>2020-07-01T06:45:44Z</time>
      </trkpt>
      <trkpt lat="49.07834" lon="3.61906">
        <ele>88.6</ele>
        <time>2020-07-01T06:45:45Z</time>
      </trkpt>
      <trkpt lat="49.07834" lon="3.61915">
        <ele>88.4</ele>
        <time>2020-07-01T06:45:46Z</time>
      </trkpt>
      <trkpt lat="49.07835" lon="3.61924">
        <ele>88.1</ele>
        <time>2020-07-01T06:45:47Z</time>
      </trkpt>
      <trkpt lat="49.07835" lon="3.61933">
        <ele>87.9</ele>
        <time>2020-07-01T06:45:48Z</time>
      </trkpt>
      <trkpt lat="49.07835" lon="3.61941">
        <ele>87.7</ele>
        <time>2020-07-01T06:45:49Z</time>
      </trkpt>
      <trkpt lat="49.07834" lon="3.61949">
        <ele>87.5</ele>
        <time>2020-07-01T06:45:50Z</time>
      </trkpt>
      <trkpt lat="49.07835" lon="3.61959">
        <ele>87.2</ele>
        <time>2020-07-01T06:45:51Z</time>
      </trkpt>
      <trkpt lat="49.07835" lon="3.61969">
        <ele>86.9</ele>
        <time>2020-07-01T06:45:52Z</time>
      </trkpt>
      <trkpt lat="49.07835" lon="3.6198">
        <ele>86.6</ele>
        <time>2020-07-01T06:45:53Z</time>
      </trkpt>
      <trkpt lat="49.07835" lon="3.61991">
        <ele>86.3</ele>
        <time>2020-07-01T06:45:54Z</time>
      </trkpt>
      <trkpt lat="49.07835" lon="3.62003">
        <ele>85.9</ele>
        <time>2020-07-01T06:45:55Z</time>
      </trkpt>
      <trkpt lat="49.07835" lon="3.62015">
        <ele>85.6</ele>
        <time>2020-07-01T06:45:56Z</time>
      </trkpt>
      <trkpt lat="49.07835" lon="3.62028">
        <ele>85.2</ele>
        <time>2020-07-01T06:45:57Z</time>
      </trkpt>
      <trkpt lat="49.07835" lon="3.6204">
        <ele>84.8</ele>
        <time>2020-07-01T06:45:58Z</time>
      </trkpt>
      <trkpt lat="49.07835" lon="3.62052">
        <ele>84.4</ele>
        <time>2020-07-01T06:45:59Z</time>
      </trkpt>
      <trkpt lat="49.07835" lon="3.62065">
        <ele>84.1</ele>
        <time>2020-07-01T06:46:00Z</time>
      </trkpt>
      <trkpt lat="49.07835" lon="3.62078">
        <ele>83.7</ele>
        <time>2020-07-01T06:46:01Z</time>
      </trkpt>
      <trkpt lat="49.07835" lon="3.62091">
        <ele>83.4</ele>
        <time>2020-07-01T06:46:02Z</time>
      </trkpt>
      <trkpt lat="49.07835" lon="3.62104">
        <ele>83.1</ele>
        <time>2020-07-01T06:46:03Z</time>
      </trkpt>
      <trkpt lat="49.07834" lon="3.62118">
        <ele>82.7</ele>
        <time>2020-07-01T06:46:04Z</time>
      </trkpt>
      <trkpt lat="49.07834" lon="3.62131">
        <ele>82.4</ele>
        <time>2020-07-01T06:46:05Z</time>
      </trkpt>
      <trkpt lat="49.07834" lon="3.62145">
        <ele>82.1</ele>
        <time>2020-07-01T06:46:06Z</time>
      </trkpt>
      <trkpt lat="49.07834" lon="3.62159">
        <ele>81.8</ele>
        <time>2020-07-01T06:46:07Z</time>
      </trkpt>
      <trkpt lat="49.07835" lon="3.62172">
        <ele>81.4</ele>
        <time>2020-07-01T06:46:08Z</time>
      </trkpt>
      <trkpt lat="49.07835" lon="3.62187">
        <ele>81</ele>
        <time>2020-07-01T06:46:09Z</time>
      </trkpt>
      <trkpt lat="49.07836" lon="3.62201">
        <ele>80.6</ele>
        <time>2020-07-01T06:46:10Z</time>
      </trkpt>
      <trkpt lat="49.07836" lon="3.62214">
        <ele>80.2</ele>
        <time>2020-07-01T06:46:11Z</time>
      </trkpt>
      <trkpt lat="49.07836" lon="3.62228">
        <ele>79.9</ele>
        <time>2020-07-01T06:46:12Z</time>
      </trkpt>
      <trkpt lat="49.07835" lon="3.62242">
        <ele>79.5</ele>
        <time>2020-07-01T06:46:13Z</time>
      </trkpt>
      <trkpt lat="49.07835" lon="3.62255">
        <ele>79.1</ele>
        <time>2020-07-01T06:46:14Z</time>
      </trkpt>
      <trkpt lat="49.07836" lon="3.62269">
        <ele>78.7</ele>
        <time>2020-07-01T06:46:15Z</time>
      </trkpt>
      <trkpt lat="49.07836" lon="3.62283">
        <ele>78.3</ele>
        <time>2020-07-01T06:46:16Z</time>
      </trkpt>
      <trkpt lat="49.07836" lon="3.62297">
        <ele>77.9</ele>
        <time>2020-07-01T06:46:17Z</time>
      </trkpt>
      <trkpt lat="49.07836" lon="3.62311">
        <ele>77.5</ele>
        <time>2020-07-01T06:46:18Z</time>
      </trkpt>
      <trkpt lat="49.07836" lon="3.62325">
        <ele>77.1</ele>
        <time>2020-07-01T06:46:19Z</time>
      </trkpt>
      <trkpt lat="49.07837" lon="3.62339">
        <ele>76.8</ele>
        <time>2020-07-01T06:46:20Z</time>
      </trkpt>
      <trkpt lat="49.07836" lon="3.62353">
        <ele>76.4</ele>
        <time>2020-07-01T06:46:21Z</time>
      </trkpt>
      <trkpt lat="49.07837" lon="3.62367">
        <ele>76</ele>
        <time>2020-07-01T06:46:22Z</time>
      </trkpt>
      <trkpt lat="49.07837" lon="3.62382">
        <ele>75.6</ele>
        <time>2020-07-01T06:46:23Z</time>
      </trkpt>
      <trkpt lat="49.07837" lon="3.62396">
        <ele>75.2</ele>
        <time>2020-07-01T06:46:24Z</time>
      </trkpt>
      <trkpt lat="49.07837" lon="3.62411">
        <ele>74.7</ele>
        <time>2020-07-01T06:46:25Z</time>
      </trkpt>
      <trkpt lat="49.07837" lon="3.62426">
        <ele>74.3</ele>
        <time>2020-07-01T06:46:26Z</time>
      </trkpt>
      <trkpt lat="49.07838" lon="3.6244">
        <ele>73.9</ele>
        <time>2020-07-01T06:46:27Z</time>
      </trkpt>
      <trkpt lat="49.07838" lon="3.62455">
        <ele>73.4</ele>
        <time>2020-07-01T06:46:28Z</time>
      </trkpt>
      <trkpt lat="49.07838" lon="3.6247">
        <ele>72.9</ele>
        <time>2020-07-01T06:46:29Z</time>
      </trkpt>
      <trkpt lat="49.07839" lon="3.62484">
        <ele>72.4</ele>
        <time>2020-07-01T06:46:30Z</time>
      </trkpt>
      <trkpt lat="49.07839" lon="3.625">
        <ele>72</ele>
        <time>2020-07-01T06:46:31Z</time>
      </trkpt>
      <trkpt lat="49.07838" lon="3.62515">
        <ele>71.5</ele>
        <time>2020-07-01T06:46:32Z</time>
      </trkpt>
      <trkpt lat="49.07839" lon="3.6253">
        <ele>71</ele>
        <time>2020-07-01T06:46:33Z</time>
      </trkpt>
      <trkpt lat="49.07838" lon="3.62545">
        <ele>70.6</ele>
        <time>2020-07-01T06:46:34Z</time>
      </trkpt>
      <trkpt lat="49.07838" lon="3.6256">
        <ele>70.1</ele>
        <time>2020-07-01T06:46:35Z</time>
      </trkpt>
      <trkpt lat="49.07837" lon="3.62575">
        <ele>69.7</ele>
        <time>2020-07-01T06:46:36Z</time>
      </trkpt>
      <trkpt lat="49.07837" lon="3.6259">
        <ele>69.2</ele>
        <time>2020-07-01T06:46:37Z</time>
      </trkpt>
      <trkpt lat="49.07838" lon="3.62606">
        <ele>68.7</ele>
        <time>2020-07-01T06:46:38Z</time>
      </trkpt>
      <trkpt lat="49.07839" lon="3.62621">
        <ele>68.3</ele>
        <time>2020-07-01T06:46:39Z</time>
      </trkpt>
      <trkpt lat="49.07839" lon="3.62636">
        <ele>67.8</ele>
        <time>2020-07-01T06:46:40Z</time>
      </trkpt>
      <trkpt lat="49.07839" lon="3.62652">
        <ele>67.3</ele>
        <time>2020-07-01T06:46:41Z</time>
      </trkpt>
      <trkpt lat="49.07838" lon="3.62667">
        <ele>66.8</ele>
        <time>2020-07-01T06:46:42Z</time>
      </trkpt>
      <trkpt lat="49.07836" lon="3.62682">
        <ele>66.4</ele>
        <time>2020-07-01T06:46:43Z</time>
      </trkpt>
      <trkpt lat="49.07834" lon="3.62698">
        <ele>66</ele>
        <time>2020-07-01T06:46:44Z</time>
      </trkpt>
      <trkpt lat="49.07832" lon="3.62713">
        <ele>65.6</ele>
        <time>2020-07-01T06:46:45Z</time>
      </trkpt>
      <trkpt lat="49.07828" lon="3.62728">
        <ele>65.4</ele>
        <time>2020-07-01T06:46:46Z</time>
      </trkpt>
      <trkpt lat="49.07825" lon="3.62743">
        <ele>65.3</ele>
        <time>2020-07-01T06:46:47Z</time>
      </trkpt>
      <trkpt lat="49.07821" lon="3.62756">
        <ele>65.3</ele>
        <time>2020-07-01T06:46:48Z</time>
      </trkpt>
      <trkpt lat="49.07817" lon="3.6277">
        <ele>65.1</ele>
        <time>2020-07-01T06:46:49Z</time>
      </trkpt>
      <trkpt lat="49.07813" lon="3.62784">
        <ele>64.9</ele>
        <time>2020-07-01T06:46:50Z</time>
      </trkpt>
      <trkpt lat="49.0781" lon="3.62797">
        <ele>64.6</ele>
        <time>2020-07-01T06:46:51Z</time>
      </trkpt>
      <trkpt lat="49.07806" lon="3.6281">
        <ele>64.5</ele>
        <time>2020-07-01T06:46:52Z</time>
      </trkpt>
      <trkpt lat="49.07803" lon="3.62823">
        <ele>64.4</ele>
        <time>2020-07-01T06:46:53Z</time>
      </trkpt>
      <trkpt lat="49.07799" lon="3.62836">
        <ele>64.3</ele>
        <time>2020-07-01T06:46:54Z</time>
      </trkpt>
      <trkpt lat="49.07795" lon="3.62848">
        <ele>64.3</ele>
        <time>2020-07-01T06:46:55Z</time>
      </trkpt>
      <trkpt lat="49.07792" lon="3.6286">
        <ele>64.3</ele>
        <time>2020-07-01T06:46:56Z</time>
      </trkpt>
      <trkpt lat="49.07789" lon="3.62872">
        <ele>64.3</ele>
        <time>2020-07-01T06:46:57Z</time>
      </trkpt>
      <trkpt lat="49.07785" lon="3.62882">
        <ele>64.4</ele>
        <time>2020-07-01T06:46:58Z</time>
      </trkpt>
      <trkpt lat="49.07782" lon="3.62893">
        <ele>64.4</ele>
        <time>2020-07-01T06:46:59Z</time>
      </trkpt>
      <trkpt lat="49.0778" lon="3.62903">
        <ele>64.4</ele>
        <time>2020-07-01T06:47:00Z</time>
      </trkpt>
      <trkpt lat="49.07777" lon="3.62913">
        <ele>64.4</ele>
        <time>2020-07-01T06:47:01Z</time>
      </trkpt>
      <trkpt lat="49.07774" lon="3.62923">
        <ele>64.4</ele>
        <time>2020-07-01T06:47:02Z</time>
      </trkpt>
      <trkpt lat="49.07771" lon="3.62933">
        <ele>64.3</ele>
        <time>2020-07-01T06:47:03Z</time>
      </trkpt>
      <trkpt lat="49.07768" lon="3.62942">
        <ele>64.3</ele>
        <time>2020-07-01T06:47:04Z</time>
      </trkpt>
      <trkpt lat="49.07766" lon="3.62952">
        <ele>64.2</ele>
        <time>2020-07-01T06:47:05Z</time>
      </trkpt>
      <trkpt lat="49.07764" lon="3.62961">
        <ele>64.2</ele>
        <time>2020-07-01T06:47:06Z</time>
      </trkpt>
      <trkpt lat="49.07762" lon="3.6297">
        <ele>64.1</ele>
        <time>2020-07-01T06:47:07Z</time>
      </trkpt>
      <trkpt lat="49.07758" lon="3.62978">
        <ele>64.2</ele>
        <time>2020-07-01T06:47:08Z</time>
      </trkpt>
      <trkpt lat="49.07756" lon="3.62985">
        <ele>64.2</ele>
        <time>2020-07-01T06:47:09Z</time>
      </trkpt>
      <trkpt lat="49.07753" lon="3.62993">
        <ele>64.2</ele>
        <time>2020-07-01T06:47:10Z</time>
      </trkpt>
      <trkpt lat="49.07751" lon="3.63001">
        <ele>64.2</ele>
        <time>2020-07-01T06:47:11Z</time>
      </trkpt>
      <trkpt lat="49.07749" lon="3.63008">
        <ele>64.2</ele>
        <time>2020-07-01T06:47:12Z</time>
      </trkpt>
      <trkpt lat="49.07747" lon="3.63016">
        <ele>64.2</ele>
        <time>2020-07-01T06:47:13Z</time>
      </trkpt>
      <trkpt lat="49.07745" lon="3.63025">
        <ele>64.3</ele>
        <time>2020-07-01T06:47:14Z</time>
      </trkpt>
      <trkpt lat="49.07743" lon="3.63033">
        <ele>64.3</ele>
        <time>2020-07-01T06:47:15Z</time>
      </trkpt>
      <trkpt lat="49.0774" lon="3.63042">
        <ele>64.3</ele>
        <time>2020-07-01T06:47:16Z</time>
      </trkpt>
      <trkpt lat="49.07737" lon="3.63052">
        <ele>64.3</ele>
        <time>2020-07-01T06:47:17Z</time>
      </trkpt>
      <trkpt lat="49.07734" lon="3.63061">
        <ele>64.3</ele>
        <time>2020-07-01T06:47:18Z</time>
      </trkpt>
      <trkpt lat="49.07732" lon="3.63071">
        <ele>64.3</ele>
        <time>2020-07-01T06:47:19Z</time>
      </trkpt>
      <trkpt lat="49.07729" lon="3.6308">
        <ele>64.3</ele>
        <time>2020-07-01T06:47:20Z</time>
      </trkpt>
      <trkpt lat="49.07726" lon="3.63089">
        <ele>64.3</ele>
        <time>2020-07-01T06:47:21Z</time>
      </trkpt>
      <trkpt lat="49.07724" lon="3.63099">
        <ele>64.2</ele>
        <time>2020-07-01T06:47:22Z</time>
      </trkpt>
      <trkpt lat="49.07722" lon="3.63109">
        <ele>64.2</ele>
        <time>2020-07-01T06:47:23Z</time>
      </trkpt>
      <trkpt lat="49.07719" lon="3.63118">
        <ele>64.3</ele>
        <time>2020-07-01T06:47:24Z</time>
      </trkpt>
      <trkpt lat="49.07716" lon="3.63128">
        <ele>64.3</ele>
        <time>2020-07-01T06:47:25Z</time>
      </trkpt>
      <trkpt lat="49.07714" lon="3.63137">
        <ele>64.3</ele>
        <time>2020-07-01T06:47:26Z</time>
      </trkpt>
      <trkpt lat="49.0771" lon="3.63145">
        <ele>64.3</ele>
        <time>2020-07-01T06:47:27Z</time>
      </trkpt>
      <trkpt lat="49.07708" lon="3.63154">
        <ele>64.3</ele>
        <time>2020-07-01T06:47:28Z</time>
      </trkpt>
      <trkpt lat="49.07706" lon="3.63163">
        <ele>64.3</ele>
        <time>2020-07-01T06:47:29Z</time>
      </trkpt>
      <trkpt lat="49.07705" lon="3.63172">
        <ele>64.4</ele>
        <time>2020-07-01T06:47:30Z</time>
      </trkpt>
      <trkpt lat="49.07702" lon="3.63181">
        <ele>64.4</ele>
        <time>2020-07-01T06:47:31Z</time>
      </trkpt>
      <trkpt lat="49.07699" lon="3.6319">
        <ele>64.4</ele>
        <time>2020-07-01T06:47:32Z</time>
      </trkpt>
      <trkpt lat="49.07696" lon="3.63198">
        <ele>64.4</ele>
        <time>2020-07-01T06:47:33Z</time>
      </trkpt>
      <trkpt lat="49.07694" lon="3.63207">
        <ele>64.5</ele>
        <time>2020-07-01T06:47:34Z</time>
      </trkpt>
      <trkpt lat="49.07691" lon="3.63216">
        <ele>64.5</ele>
        <time>2020-07-01T06:47:35Z</time>
      </trkpt>
      <trkpt lat="49.07689" lon="3.63225">
        <ele>64.5</ele>
        <time>2020-07-01T06:47:36Z</time>
      </trkpt>
      <trkpt lat="49.07687" lon="3.63234">
        <ele>64.5</ele>
        <time>2020-07-01T06:47:37Z</time>
      </trkpt>
      <trkpt lat="49.07685" lon="3.63243">
        <ele>64.5</ele>
        <time>2020-07-01T06:47:38Z</time>
      </trkpt>
      <trkpt lat="49.07682" lon="3.63251">
        <ele>64.5</ele>
        <time>2020-07-01T06:47:39Z</time>
      </trkpt>
      <trkpt lat="49.0768" lon="3.6326">
        <ele>64.5</ele>
        <time>2020-07-01T06:47:40Z</time>
      </trkpt>
      <trkpt lat="49.07678" lon="3.63269">
        <ele>64.5</ele>
        <time>2020-07-01T06:47:41Z</time>
      </trkpt>
      <trkpt lat="49.07675" lon="3.63277">
        <ele>64.5</ele>
        <time>2020-07-01T06:47:42Z</time>
      </trkpt>
      <trkpt lat="49.07673" lon="3.63286">
        <ele>64.4</ele>
        <time>2020-07-01T06:47:43Z</time>
      </trkpt>
      <trkpt lat="49.0767" lon="3.63295">
        <ele>64.4</ele>
        <time>2020-07-01T06:47:44Z</time>
      </trkpt>
      <trkpt lat="49.07668" lon="3.63303">
        <ele>64.4</ele>
        <time>2020-07-01T06:47:45Z</time>
      </trkpt>
      <trkpt lat="49.07666" lon="3.63312">
        <ele>64.4</ele>
        <time>2020-07-01T06:47:46Z</time>
      </trkpt>
      <trkpt lat="49.07663" lon="3.63321">
        <ele>64.4</ele>
        <time>2020-07-01T06:47:47Z</time>
      </trkpt>
      <trkpt lat="49.07661" lon="3.63329">
        <ele>64.4</ele>
        <time>2020-07-01T06:47:48Z</time>
      </trkpt>
      <trkpt lat="49.07659" lon="3.63338">
        <ele>64.4</ele>
        <time>2020-07-01T06:47:49Z</time>
      </trkpt>
      <trkpt lat="49.07657" lon="3.63347">
        <ele>64.4</ele>
        <time>2020-07-01T06:47:50Z</time>
      </trkpt>
      <trkpt lat="49.07654" lon="3.63355">
        <ele>64.3</ele>
        <time>2020-07-01T06:47:51Z</time>
      </trkpt>
      <trkpt lat="49.07652" lon="3.63363">
        <ele>64.3</ele>
        <time>2020-07-01T06:47:52Z</time>
      </trkpt>
      <trkpt lat="49.07649" lon="3.63372">
        <ele>64.3</ele>
        <time>2020-07-01T06:47:53Z</time>
      </trkpt>
      <trkpt lat="49.07646" lon="3.6338">
        <ele>64.3</ele>
        <time>2020-07-01T06:47:54Z</time>
      </trkpt>
      <trkpt lat="49.07644" lon="3.63389">
        <ele>64.4</ele>
        <time>2020-07-01T06:47:55Z</time>
      </trkpt>
      <trkpt lat="49.07642" lon="3.63398">
        <ele>64.4</ele>
        <time>2020-07-01T06:47:56Z</time>
      </trkpt>
      <trkpt lat="49.07639" lon="3.63407">
        <ele>64.4</ele>
        <time>2020-07-01T06:47:57Z</time>
      </trkpt>
      <trkpt lat="49.07637" lon="3.63416">
        <ele>64.5</ele>
        <time>2020-07-01T06:47:58Z</time>
      </trkpt>
      <trkpt lat="49.07634" lon="3.63424">
        <ele>64.5</ele>
        <time>2020-07-01T06:47:59Z</time>
      </trkpt>
      <trkpt lat="49.07632" lon="3.63433">
        <ele>64.5</ele>
        <time>2020-07-01T06:48:00Z</time>
      </trkpt>
      <trkpt lat="49.07629" lon="3.63441">
        <ele>64.5</ele>
        <time>2020-07-01T06:48:01Z</time>
      </trkpt>
      <trkpt lat="49.07626" lon="3.63448">
        <ele>64.5</ele>
        <time>2020-07-01T06:48:02Z</time>
      </trkpt>
      <trkpt lat="49.07624" lon="3.63457">
        <ele>64.5</ele>
        <time>2020-07-01T06:48:03Z</time>
      </trkpt>
      <trkpt lat="49.07622" lon="3.63466">
        <ele>64.5</ele>
        <time>2020-07-01T06:48:04Z</time>
      </trkpt>
      <trkpt lat="49.07619" lon="3.63475">
        <ele>64.6</ele>
        <time>2020-07-01T06:48:05Z</time>
      </trkpt>
      <trkpt lat="49.07617" lon="3.63483">
        <ele>64.6</ele>
        <time>2020-07-01T06:48:06Z</time>
      </trkpt>
      <trkpt lat="49.07615" lon="3.63492">
        <ele>64.7</ele>
        <time>2020-07-01T06:48:07Z</time>
      </trkpt>
      <trkpt lat="49.07613" lon="3.635">
        <ele>64.8</ele>
        <time>2020-07-01T06:48:08Z</time>
      </trkpt>
      <trkpt lat="49.07611" lon="3.63509">
        <ele>64.8</ele>
        <time>2020-07-01T06:48:09Z</time>
      </trkpt>
      <trkpt lat="49.07608" lon="3.63518">
        <ele>64.9</ele>
        <time>2020-07-01T06:48:10Z</time>
      </trkpt>
      <trkpt lat="49.07606" lon="3.63527">
        <ele>65.1</ele>
        <time>2020-07-01T06:48:11Z</time>
      </trkpt>
      <trkpt lat="49.07604" lon="3.63535">
        <ele>65.3</ele>
        <time>2020-07-01T06:48:12Z</time>
      </trkpt>
      <trkpt lat="49.07602" lon="3.63544">
        <ele>65.6</ele>
        <time>2020-07-01T06:48:13Z</time>
      </trkpt>
      <trkpt lat="49.076" lon="3.63553">
        <ele>66</ele>
        <time>2020-07-01T06:48:14Z</time>
      </trkpt>
      <trkpt lat="49.07598" lon="3.63562">
        <ele>66.4</ele>
        <time>2020-07-01T06:48:15Z</time>
      </trkpt>
      <trkpt lat="49.07594" lon="3.63571">
        <ele>66.8</ele>
        <time>2020-07-01T06:48:16Z</time>
      </trkpt>
      <trkpt lat="49.07592" lon="3.63579">
        <ele>67.2</ele>
        <time>2020-07-01T06:48:17Z</time>
      </trkpt>
      <trkpt lat="49.0759" lon="3.63585">
        <ele>67.5</ele>
        <time>2020-07-01T06:48:18Z</time>
      </trkpt>
      <trkpt lat="49.07588" lon="3.63592">
        <ele>67.8</ele>
        <time>2020-07-01T06:48:19Z</time>
      </trkpt>
      <trkpt lat="49.07587" lon="3.63597">
        <ele>68.1</ele>
        <time>2020-07-01T06:48:20Z</time>
      </trkpt>
      <trkpt lat="49.07585" lon="3.63603">
        <ele>68.4</ele>
        <time>2020-07-01T06:48:21Z</time>
      </trkpt>
      <trkpt lat="49.07584" lon="3.63608">
        <ele>68.6</ele>
        <time>2020-07-01T06:48:22Z</time>
      </trkpt>
      <trkpt lat="49.07583" lon="3.63613">
        <ele>68.9</ele>
        <time>2020-07-01T06:48:23Z</time>
      </trkpt>
      <trkpt lat="49.07581" lon="3.63619">
        <ele>69.2</ele>
        <time>2020-07-01T06:48:24Z</time>
      </trkpt>
      <trkpt lat="49.0758" lon="3.63623">
        <ele>69.4</ele>
        <time>2020-07-01T06:48:25Z</time>
      </trkpt>
      <trkpt lat="49.07578" lon="3.63628">
        <ele>69.6</ele>
        <time>2020-07-01T06:48:26Z</time>
      </trkpt>
      <trkpt lat="49.07578" lon="3.63629">
        <ele>69.7</ele>
        <time>2020-07-01T06:48:27Z</time>
      </trkpt>
      <trkpt lat="49.07576" lon="3.63633">
        <ele>69.9</ele>
        <time>2020-07-01T06:48:28Z</time>
      </trkpt>
      <trkpt lat="49.07574" lon="3.63638">
        <ele>70.1</ele>
        <time>2020-07-01T06:48:29Z</time>
      </trkpt>
      <trkpt lat="49.07573" lon="3.63639">
        <ele>70.1</ele>
        <time>2020-07-01T06:48:30Z</time>
      </trkpt>
      <trkpt lat="49.07571" lon="3.63642">
        <ele>70.2</ele>
        <time>2020-07-01T06:48:31Z</time>
      </trkpt>
      <trkpt lat="49.07569" lon="3.63646">
        <ele>70.3</ele>
        <time>2020-07-01T06:48:32Z</time>
      </trkpt>
      <trkpt lat="49.07567" lon="3.63651">
        <ele>70.4</ele>
        <time>2020-07-01T06:48:33Z</time>
      </trkpt>
      <trkpt lat="49.07566" lon="3.63652">
        <ele>70.4</ele>
        <time>2020-07-01T06:48:34Z</time>
      </trkpt>
      <trkpt lat="49.07564" lon="3.63655">
        <ele>70.5</ele>
        <time>2020-07-01T06:48:35Z</time>
      </trkpt>
      <trkpt lat="49.07564" lon="3.63657">
        <ele>70.5</ele>
        <time>2020-07-01T06:48:36Z</time>
      </trkpt>
      <trkpt lat="49.07562" lon="3.63661">
        <ele>70.6</ele>
        <time>2020-07-01T06:48:37Z</time>
      </trkpt>
      <trkpt lat="49.0756" lon="3.63666">
        <ele>70.6</ele>
        <time>2020-07-01T06:48:38Z</time>
      </trkpt>
      <trkpt lat="49.07559" lon="3.63668">
        <ele>70.7</ele>
        <time>2020-07-01T06:48:39Z</time>
      </trkpt>
      <trkpt lat="49.07556" lon="3.63673">
        <ele>70.7</ele>
        <time>2020-07-01T06:48:40Z</time>
      </trkpt>
      <trkpt lat="49.07556" lon="3.63675">
        <ele>70.7</ele>
        <time>2020-07-01T06:48:41Z</time>
      </trkpt>
      <trkpt lat="49.07554" lon="3.63679">
        <ele>70.7</ele>
        <time>2020-07-01T06:48:42Z</time>
      </trkpt>
      <trkpt lat="49.07552" lon="3.63683">
        <ele>70.8</ele>
        <time>2020-07-01T06:48:43Z</time>
      </trkpt>
      <trkpt lat="49.0755" lon="3.63686">
        <ele>70.8</ele>
        <time>2020-07-01T06:48:44Z</time>
      </trkpt>
      <trkpt lat="49.07548" lon="3.63691">
        <ele>70.8</ele>
        <time>2020-07-01T06:48:45Z</time>
      </trkpt>
      <trkpt lat="49.07545" lon="3.63697">
        <ele>70.8</ele>
        <time>2020-07-01T06:48:46Z</time>
      </trkpt>
      <trkpt lat="49.07543" lon="3.637">
        <ele>70.8</ele>
        <time>2020-07-01T06:48:47Z</time>
      </trkpt>
      <trkpt lat="49.0754" lon="3.63705">
        <ele>70.8</ele>
        <time>2020-07-01T06:48:48Z</time>
      </trkpt>
      <trkpt lat="49.07538" lon="3.6371">
        <ele>70.8</ele>
        <time>2020-07-01T06:48:49Z</time>
      </trkpt>
      <trkpt lat="49.07534" lon="3.63717">
        <ele>70.8</ele>
        <time>2020-07-01T06:48:50Z</time>
      </trkpt>
      <trkpt lat="49.07533" lon="3.6372">
        <ele>70.8</ele>
        <time>2020-07-01T06:48:51Z</time>
      </trkpt>
      <trkpt lat="49.07529" lon="3.63728">
        <ele>70.7</ele>
        <time>2020-07-01T06:48:52Z</time>
      </trkpt>
      <trkpt lat="49.07526" lon="3.63736">
        <ele>70.6</ele>
        <time>2020-07-01T06:48:53Z</time>
      </trkpt>
      <trkpt lat="49.07523" lon="3.63741">
        <ele>70.5</ele>
        <time>2020-07-01T06:48:54Z</time>
      </trkpt>
      <trkpt lat="49.07522" lon="3.63743">
        <ele>70.5</ele>
        <time>2020-07-01T06:48:55Z</time>
      </trkpt>
      <trkpt lat="49.07518" lon="3.63752">
        <ele>70.4</ele>
        <time>2020-07-01T06:48:56Z</time>
      </trkpt>
      <trkpt lat="49.07516" lon="3.63757">
        <ele>70.3</ele>
        <time>2020-07-01T06:48:57Z</time>
      </trkpt>
      <trkpt lat="49.07512" lon="3.63763">
        <ele>70.2</ele>
        <time>2020-07-01T06:48:58Z</time>
      </trkpt>
      <trkpt lat="49.07511" lon="3.63768">
        <ele>70.2</ele>
        <time>2020-07-01T06:48:59Z</time>
      </trkpt>
      <trkpt lat="49.07508" lon="3.63773">
        <ele>70.1</ele>
        <time>2020-07-01T06:49:00Z</time>
      </trkpt>
      <trkpt lat="49.07504" lon="3.63782">
        <ele>70.1</ele>
        <time>2020-07-01T06:49:01Z</time>
      </trkpt>
      <trkpt lat="49.07501" lon="3.63788">
        <ele>70.2</ele>
        <time>2020-07-01T06:49:02Z</time>
      </trkpt>
      <trkpt lat="49.07496" lon="3.63796">
        <ele>70.2</ele>
        <time>2020-07-01T06:49:03Z</time>
      </trkpt>
      <trkpt lat="49.07491" lon="3.63803">
        <ele>70.3</ele>
        <time>2020-07-01T06:49:04Z</time>
      </trkpt>
      <trkpt lat="49.07486" lon="3.63809">
        <ele>70.4</ele>
        <time>2020-07-01T06:49:05Z</time>
      </trkpt>
      <trkpt lat="49.07482" lon="3.63813">
        <ele>70.5</ele>
        <time>2020-07-01T06:49:06Z</time>
      </trkpt>
      <trkpt lat="49.07479" lon="3.63816">
        <ele>70.6</ele>
        <time>2020-07-01T06:49:07Z</time>
      </trkpt>
      <trkpt lat="49.07477" lon="3.63818">
        <ele>70.7</ele>
        <time>2020-07-01T06:49:08Z</time>
      </trkpt>
      <trkpt lat="49.07475" lon="3.63822">
        <ele>70.8</ele>
        <time>2020-07-01T06:49:09Z</time>
      </trkpt>
      <trkpt lat="49.07474" lon="3.63823">
        <ele>70.8</ele>
        <time>2020-07-01T06:49:10Z</time>
      </trkpt>
      <trkpt lat="49.07473" lon="3.63823">
        <ele>70.9</ele>
        <time>2020-07-01T06:49:11Z</time>
      </trkpt>
      <trkpt lat="49.07472" lon="3.63823">
        <ele>70.9</ele>
        <time>2020-07-01T06:49:12Z</time>
      </trkpt>
      <trkpt lat="49.07471" lon="3.63823">
        <ele>70.9</ele>
        <time>2020-07-01T06:49:13Z</time>
      </trkpt>
      <trkpt lat="49.07468" lon="3.63822">
        <ele>71</ele>
        <time>2020-07-01T06:49:14Z</time>
      </trkpt>
      <trkpt lat="49.07465" lon="3.63821">
        <ele>71.2</ele>
        <time>2020-07-01T06:49:15Z</time>
      </trkpt>
      <trkpt lat="49.0746" lon="3.63818">
        <ele>71.2</ele>
        <time>2020-07-01T06:49:16Z</time>
      </trkpt>
      <trkpt lat="49.07456" lon="3.63818">
        <ele>71.2</ele>
        <time>2020-07-01T06:49:17Z</time>
      </trkpt>
      <trkpt lat="49.07454" lon="3.63818">
        <ele>71.2</ele>
        <time>2020-07-01T06:49:18Z</time>
      </trkpt>
      <trkpt lat="49.0745" lon="3.63823">
        <ele>71.2</ele>
        <time>2020-07-01T06:49:19Z</time>
      </trkpt>
      <trkpt lat="49.07448" lon="3.63827">
        <ele>71.2</ele>
        <time>2020-07-01T06:49:20Z</time>
      </trkpt>
      <trkpt lat="49.07447" lon="3.63829">
        <ele>71.2</ele>
        <time>2020-07-01T06:49:21Z</time>
      </trkpt>
      <trkpt lat="49.07446" lon="3.63835">
        <ele>71.2</ele>
        <time>2020-07-01T06:49:22Z</time>
      </trkpt>
      <trkpt lat="49.07446" lon="3.6384">
        <ele>71.6</ele>
        <time>2020-07-01T06:49:23Z</time>
      </trkpt>
      <trkpt lat="49.07448" lon="3.63845">
        <ele>71.6</ele>
        <time>2020-07-01T06:49:24Z</time>
      </trkpt>
      <trkpt lat="49.07449" lon="3.63847">
        <ele>71.6</ele>
        <time>2020-07-01T06:49:25Z</time>
      </trkpt>
      <trkpt lat="49.07452" lon="3.63851">
        <ele>71.6</ele>
        <time>2020-07-01T06:49:26Z</time>
      </trkpt>
      <trkpt lat="49.07454" lon="3.63853">
        <ele>71.6</ele>
        <time>2020-07-01T06:49:27Z</time>
      </trkpt>
      <trkpt lat="49.07459" lon="3.63855">
        <ele>71.6</ele>
        <time>2020-07-01T06:49:28Z</time>
      </trkpt>
      <trkpt lat="49.07464" lon="3.63856">
        <ele>71.5</ele>
        <time>2020-07-01T06:49:29Z</time>
      </trkpt>
      <trkpt lat="49.07467" lon="3.63853">
        <ele>71.3</ele>
        <time>2020-07-01T06:49:30Z</time>
      </trkpt>
      <trkpt lat="49.07471" lon="3.63852">
        <ele>71.3</ele>
        <time>2020-07-01T06:49:31Z</time>
      </trkpt>
      <trkpt lat="49.07477" lon="3.63855">
        <ele>71.3</ele>
        <time>2020-07-01T06:49:32Z</time>
      </trkpt>
      <trkpt lat="49.07481" lon="3.63858">
        <ele>71.3</ele>
        <time>2020-07-01T06:49:33Z</time>
      </trkpt>
      <trkpt lat="49.07485" lon="3.63862">
        <ele>71.3</ele>
        <time>2020-07-01T06:49:34Z</time>
      </trkpt>
      <trkpt lat="49.07489" lon="3.63865">
        <ele>71.3</ele>
        <time>2020-07-01T06:49:35Z</time>
      </trkpt>
      <trkpt lat="49.07491" lon="3.63868">
        <ele>71.3</ele>
        <time>2020-07-01T06:49:36Z</time>
      </trkpt>
      <trkpt lat="49.07497" lon="3.63872">
        <ele>71.3</ele>
        <time>2020-07-01T06:49:37Z</time>
      </trkpt>
      <trkpt lat="49.075" lon="3.63876">
        <ele>71.3</ele>
        <time>2020-07-01T06:49:38Z</time>
      </trkpt>
      <trkpt lat="49.07503" lon="3.63881">
        <ele>71.3</ele>
        <time>2020-07-01T06:49:39Z</time>
      </trkpt>
      <trkpt lat="49.07505" lon="3.63886">
        <ele>71.3</ele>
        <time>2020-07-01T06:49:40Z</time>
      </trkpt>
      <trkpt lat="49.07507" lon="3.63889">
        <ele>71.3</ele>
        <time>2020-07-01T06:49:41Z</time>
      </trkpt>
      <trkpt lat="49.07509" lon="3.63892">
        <ele>71.3</ele>
        <time>2020-07-01T06:49:42Z</time>
      </trkpt>
      <trkpt lat="49.07513" lon="3.63895">
        <ele>71.3</ele>
        <time>2020-07-01T06:49:43Z</time>
      </trkpt>
      <trkpt lat="49.07516" lon="3.63898">
        <ele>71.3</ele>
        <time>2020-07-01T06:49:44Z</time>
      </trkpt>
      <trkpt lat="49.07519" lon="3.639">
        <ele>71.3</ele>
        <time>2020-07-01T06:49:45Z</time>
      </trkpt>
      <trkpt lat="49.07522" lon="3.63903">
        <ele>71.3</ele>
        <time>2020-07-01T06:49:46Z</time>
      </trkpt>
      <trkpt lat="49.07525" lon="3.63906">
        <ele>71.4</ele>
        <time>2020-07-01T06:49:47Z</time>
      </trkpt>
      <trkpt lat="49.07529" lon="3.6391">
        <ele>71.4</ele>
        <time>2020-07-01T06:49:48Z</time>
      </trkpt>
      <trkpt lat="49.07532" lon="3.63914">
        <ele>71.4</ele>
        <time>2020-07-01T06:49:49Z</time>
      </trkpt>
      <trkpt lat="49.07533" lon="3.63915">
        <ele>71.4</ele>
        <time>2020-07-01T06:49:50Z</time>
      </trkpt>
      <trkpt lat="49.07534" lon="3.63916">
        <ele>71.4</ele>
        <time>2020-07-01T06:49:51Z</time>
      </trkpt>
      <trkpt lat="49.07535" lon="3.63916">
        <ele>71.4</ele>
        <time>2020-07-01T06:49:52Z</time>
      </trkpt>
      <trkpt lat="49.07534" lon="3.63915">
        <ele>71.4</ele>
        <time>2020-07-01T06:49:53Z</time>
      </trkpt>
      <trkpt lat="49.07535" lon="3.63915">
        <ele>71.4</ele>
        <time>2020-07-01T06:49:54Z</time>
      </trkpt>
      <trkpt lat="49.07535" lon="3.63914">
        <ele>71.4</ele>
        <time>2020-07-01T06:49:55Z</time>
      </trkpt>
      <trkpt lat="49.07534" lon="3.63913">
        <ele>71.4</ele>
        <time>2020-07-01T06:49:56Z</time>
      </trkpt>
      <trkpt lat="49.07534" lon="3.63912">
        <ele>71.4</ele>
        <time>2020-07-01T06:49:57Z</time>
      </trkpt>
      <trkpt lat="49.07534" lon="3.63911">
        <ele>71.4</ele>
        <time>2020-07-01T06:49:58Z</time>
      </trkpt>
      <trkpt lat="49.07535" lon="3.63912">
        <ele>71.4</ele>
        <time>2020-07-01T06:49:59Z</time>
      </trkpt>
      <trkpt lat="49.07535" lon="3.63912">
        <ele>71.4</ele>
        <time>2020-07-01T06:50:00Z</time>
      </trkpt>
      <trkpt lat="49.07536" lon="3.63914">
        <ele>71.4</ele>
        <time>2020-07-01T06:50:01Z</time>
      </trkpt>
      <trkpt lat="49.07537" lon="3.63914">
        <ele>71.4</ele>
        <time>2020-07-01T06:50:02Z</time>
      </trkpt>
      <trkpt lat="49.07538" lon="3.63914">
        <ele>71.4</ele>
        <time>2020-07-01T06:50:03Z</time>
      </trkpt>
      <trkpt lat="49.07538" lon="3.63914">
        <ele>71.4</ele>
        <time>2020-07-01T06:50:04Z</time>
      </trkpt>
      <trkpt lat="49.07538" lon="3.63914">
        <ele>71.6</ele>
        <time>2020-07-01T06:50:05Z</time>
      </trkpt>
      <trkpt lat="49.07539" lon="3.63914">
        <ele>71.6</ele>
        <time>2020-07-01T06:50:06Z</time>
      </trkpt>
      <trkpt lat="49.07539" lon="3.63914">
        <ele>71.6</ele>
        <time>2020-07-01T06:50:07Z</time>
      </trkpt>
      <trkpt lat="49.07539" lon="3.63914">
        <ele>71.6</ele>
        <time>2020-07-01T06:50:08Z</time>
      </trkpt>
      <trkpt lat="49.07539" lon="3.63914">
        <ele>71.6</ele>
        <time>2020-07-01T06:50:09Z</time>
      </trkpt>
      <trkpt lat="49.0754" lon="3.63914">
        <ele>71.6</ele>
        <time>2020-07-01T06:50:10Z</time>
      </trkpt>
      <trkpt lat="49.0754" lon="3.63914">
        <ele>71.6</ele>
        <time>2020-07-01T06:50:11Z</time>
      </trkpt>
      <trkpt lat="49.0754" lon="3.63914">
        <ele>71.6</ele>
        <time>2020-07-01T06:50:12Z</time>
      </trkpt>
      <trkpt lat="49.07543" lon="3.63916">
        <ele>71.7</ele>
        <time>2020-07-01T06:50:13Z</time>
      </trkpt>
      <trkpt lat="49.07544" lon="3.63917">
        <ele>71.7</ele>
        <time>2020-07-01T06:50:14Z</time>
      </trkpt>
      <trkpt lat="49.07547" lon="3.63919">
        <ele>71.8</ele>
        <time>2020-07-01T06:50:15Z</time>
      </trkpt>
      <trkpt lat="49.07548" lon="3.6392">
        <ele>71.9</ele>
        <time>2020-07-01T06:50:16Z</time>
      </trkpt>
      <trkpt lat="49.07551" lon="3.63924">
        <ele>72</ele>
        <time>2020-07-01T06:50:17Z</time>
      </trkpt>
      <trkpt lat="49.07552" lon="3.63926">
        <ele>72</ele>
        <time>2020-07-01T06:50:18Z</time>
      </trkpt>
      <trkpt lat="49.07555" lon="3.6393">
        <ele>72.1</ele>
        <time>2020-07-01T06:50:19Z</time>
      </trkpt>
      <trkpt lat="49.07557" lon="3.63934">
        <ele>72.2</ele>
        <time>2020-07-01T06:50:20Z</time>
      </trkpt>
      <trkpt lat="49.07561" lon="3.63937">
        <ele>72.4</ele>
        <time>2020-07-01T06:50:21Z</time>
      </trkpt>
      <trkpt lat="49.07565" lon="3.63942">
        <ele>72.5</ele>
        <time>2020-07-01T06:50:22Z</time>
      </trkpt>
      <trkpt lat="49.07568" lon="3.63945">
        <ele>72.6</ele>
        <time>2020-07-01T06:50:23Z</time>
      </trkpt>
      <trkpt lat="49.07571" lon="3.63949">
        <ele>72.7</ele>
        <time>2020-07-01T06:50:24Z</time>
      </trkpt>
      <trkpt lat="49.07573" lon="3.63951">
        <ele>72.9</ele>
        <time>2020-07-01T06:50:25Z</time>
      </trkpt>
      <trkpt lat="49.07578" lon="3.63956">
        <ele>72.9</ele>
        <time>2020-07-01T06:50:26Z</time>
      </trkpt>
      <trkpt lat="49.07581" lon="3.6396">
        <ele>73</ele>
        <time>2020-07-01T06:50:27Z</time>
      </trkpt>
      <trkpt lat="49.07585" lon="3.63965">
        <ele>73</ele>
        <time>2020-07-01T06:50:28Z</time>
      </trkpt>
      <trkpt lat="49.07591" lon="3.63969">
        <ele>73</ele>
        <time>2020-07-01T06:50:29Z</time>
      </trkpt>
      <trkpt lat="49.07597" lon="3.63975">
        <ele>73.1</ele>
        <time>2020-07-01T06:50:30Z</time>
      </trkpt>
      <trkpt lat="49.07602" lon="3.6398">
        <ele>73.1</ele>
        <time>2020-07-01T06:50:31Z</time>
      </trkpt>
      <trkpt lat="49.07607" lon="3.63983">
        <ele>73.2</ele>
        <time>2020-07-01T06:50:32Z</time>
      </trkpt>
      <trkpt lat="49.07612" lon="3.63989">
        <ele>73.2</ele>
        <time>2020-07-01T06:50:33Z</time>
      </trkpt>
      <trkpt lat="49.07617" lon="3.63993">
        <ele>73.1</ele>
        <time>2020-07-01T06:50:34Z</time>
      </trkpt>
      <trkpt lat="49.07621" lon="3.63996">
        <ele>73.1</ele>
        <time>2020-07-01T06:50:35Z</time>
      </trkpt>
      <trkpt lat="49.07623" lon="3.64">
        <ele>73.1</ele>
        <time>2020-07-01T06:50:36Z</time>
      </trkpt>
      <trkpt lat="49.07627" lon="3.64003">
        <ele>73.1</ele>
        <time>2020-07-01T06:50:37Z</time>
      </trkpt>
      <trkpt lat="49.07631" lon="3.64007">
        <ele>73.2</ele>
        <time>2020-07-01T06:50:38Z</time>
      </trkpt>
      <trkpt lat="49.07635" lon="3.64011">
        <ele>73.2</ele>
        <time>2020-07-01T06:50:39Z</time>
      </trkpt>
      <trkpt lat="49.07639" lon="3.64016">
        <ele>73.3</ele>
        <time>2020-07-01T06:50:40Z</time>
      </trkpt>
      <trkpt lat="49.07645" lon="3.64021">
        <ele>73.3</ele>
        <time>2020-07-01T06:50:41Z</time>
      </trkpt>
      <trkpt lat="49.07648" lon="3.64025">
        <ele>73.3</ele>
        <time>2020-07-01T06:50:42Z</time>
      </trkpt>
      <trkpt lat="49.07651" lon="3.64028">
        <ele>73.4</ele>
        <time>2020-07-01T06:50:43Z</time>
      </trkpt>
      <trkpt lat="49.07652" lon="3.64028">
        <ele>73.4</ele>
        <time>2020-07-01T06:50:44Z</time>
      </trkpt>
      <trkpt lat="49.07656" lon="3.64031">
        <ele>73.4</ele>
        <time>2020-07-01T06:50:45Z</time>
      </trkpt>
      <trkpt lat="49.07659" lon="3.64035">
        <ele>73.4</ele>
        <time>2020-07-01T06:50:46Z</time>
      </trkpt>
      <trkpt lat="49.07662" lon="3.64038">
        <ele>73.4</ele>
        <time>2020-07-01T06:50:47Z</time>
      </trkpt>
      <trkpt lat="49.07664" lon="3.64042">
        <ele>73.4</ele>
        <time>2020-07-01T06:50:48Z</time>
      </trkpt>
      <trkpt lat="49.07665" lon="3.64046">
        <ele>73.4</ele>
        <time>2020-07-01T06:50:49Z</time>
      </trkpt>
      <trkpt lat="49.07668" lon="3.6405">
        <ele>73.5</ele>
        <time>2020-07-01T06:50:50Z</time>
      </trkpt>
      <trkpt lat="49.07671" lon="3.64054">
        <ele>73.5</ele>
        <time>2020-07-01T06:50:51Z</time>
      </trkpt>
      <trkpt lat="49.07673" lon="3.64059">
        <ele>73.5</ele>
        <time>2020-07-01T06:50:52Z</time>
      </trkpt>
      <trkpt lat="49.07677" lon="3.64062">
        <ele>73.6</ele>
        <time>2020-07-01T06:50:53Z</time>
      </trkpt>
      <trkpt lat="49.07679" lon="3.64065">
        <ele>73.6</ele>
        <time>2020-07-01T06:50:54Z</time>
      </trkpt>
      <trkpt lat="49.07683" lon="3.64067">
        <ele>73.6</ele>
        <time>2020-07-01T06:50:55Z</time>
      </trkpt>
      <trkpt lat="49.07687" lon="3.64072">
        <ele>73.6</ele>
        <time>2020-07-01T06:50:56Z</time>
      </trkpt>
      <trkpt lat="49.07692" lon="3.64077">
        <ele>73.6</ele>
        <time>2020-07-01T06:50:57Z</time>
      </trkpt>
      <trkpt lat="49.07695" lon="3.6408">
        <ele>73.6</ele>
        <time>2020-07-01T06:50:58Z</time>
      </trkpt>
      <trkpt lat="49.07698" lon="3.64084">
        <ele>73.7</ele>
        <time>2020-07-01T06:50:59Z</time>
      </trkpt>
      <trkpt lat="49.07702" lon="3.64087">
        <ele>73.7</ele>
        <time>2020-07-01T06:51:00Z</time>
      </trkpt>
      <trkpt lat="49.07704" lon="3.64091">
        <ele>73.7</ele>
        <time>2020-07-01T06:51:01Z</time>
      </trkpt>
      <trkpt lat="49.07706" lon="3.64094">
        <ele>73.6</ele>
        <time>2020-07-01T06:51:02Z</time>
      </trkpt>
      <trkpt lat="49.07711" lon="3.641">
        <ele>73.6</ele>
        <time>2020-07-01T06:51:03Z</time>
      </trkpt>
      <trkpt lat="49.07714" lon="3.64103">
        <ele>73.6</ele>
        <time>2020-07-01T06:51:04Z</time>
      </trkpt>
      <trkpt lat="49.07717" lon="3.64107">
        <ele>73.6</ele>
        <time>2020-07-01T06:51:05Z</time>
      </trkpt>
      <trkpt lat="49.07719" lon="3.64111">
        <ele>73.5</ele>
        <time>2020-07-01T06:51:06Z</time>
      </trkpt>
      <trkpt lat="49.07721" lon="3.64117">
        <ele>73.5</ele>
        <time>2020-07-01T06:51:07Z</time>
      </trkpt>
      <trkpt lat="49.07722" lon="3.64119">
        <ele>73.5</ele>
        <time>2020-07-01T06:51:08Z</time>
      </trkpt>
      <trkpt lat="49.07723" lon="3.64121">
        <ele>73.5</ele>
        <time>2020-07-01T06:51:09Z</time>
      </trkpt>
      <trkpt lat="49.07721" lon="3.64121">
        <ele>73.5</ele>
        <time>2020-07-01T06:51:10Z</time>
      </trkpt>
      <trkpt lat="49.0772" lon="3.64121">
        <ele>73.5</ele>
        <time>2020-07-01T06:51:11Z</time>
      </trkpt>
      <trkpt lat="49.0772" lon="3.64122">
        <ele>73.5</ele>
        <time>2020-07-01T06:51:12Z</time>
      </trkpt>
      <trkpt lat="49.0772" lon="3.64122">
        <ele>73.5</ele>
        <time>2020-07-01T06:51:13Z</time>
      </trkpt>
      <trkpt lat="49.07721" lon="3.64123">
        <ele>73.5</ele>
        <time>2020-07-01T06:51:14Z</time>
      </trkpt>
      <trkpt lat="49.07722" lon="3.64124">
        <ele>73.5</ele>
        <time>2020-07-01T06:51:15Z</time>
      </trkpt>
      <trkpt lat="49.07722" lon="3.64124">
        <ele>73.5</ele>
        <time>2020-07-01T06:51:16Z</time>
      </trkpt>
      <trkpt lat="49.07723" lon="3.64125">
        <ele>73.5</ele>
        <time>2020-07-01T06:51:17Z</time>
      </trkpt>
      <trkpt lat="49.07723" lon="3.64125">
        <ele>73.5</ele>
        <time>2020-07-01T06:51:18Z</time>
      </trkpt>
      <trkpt lat="49.07724" lon="3.64126">
        <ele>73.5</ele>
        <time>2020-07-01T06:51:19Z</time>
      </trkpt>
      <trkpt lat="49.07724" lon="3.64127">
        <ele>73.5</ele>
        <time>2020-07-01T06:51:20Z</time>
      </trkpt>
      <trkpt lat="49.07725" lon="3.64127">
        <ele>73.5</ele>
        <time>2020-07-01T06:51:21Z</time>
      </trkpt>
      <trkpt lat="49.07726" lon="3.64128">
        <ele>73.5</ele>
        <time>2020-07-01T07:17:03Z</time>
      </trkpt>
      <trkpt lat="49.07726" lon="3.64129">
        <ele>73.5</ele>
        <time>2020-07-01T07:17:04Z</time>
      </trkpt>
      <trkpt lat="49.07727" lon="3.64129">
        <ele>73.5</ele>
        <time>2020-07-01T07:17:05Z</time>
      </trkpt>
      <trkpt lat="49.0773" lon="3.64132">
        <ele>73.5</ele>
        <time>2020-07-01T07:17:06Z</time>
      </trkpt>
      <trkpt lat="49.0773" lon="3.64134">
        <ele>73.5</ele>
        <time>2020-07-01T07:17:07Z</time>
      </trkpt>
      <trkpt lat="49.07733" lon="3.64139">
        <ele>73.5</ele>
        <time>2020-07-01T07:17:08Z</time>
      </trkpt>
      <trkpt lat="49.07735" lon="3.64141">
        <ele>73.5</ele>
        <time>2020-07-01T07:17:09Z</time>
      </trkpt>
      <trkpt lat="49.07738" lon="3.64144">
        <ele>73.5</ele>
        <time>2020-07-01T07:17:10Z</time>
      </trkpt>
      <trkpt lat="49.07741" lon="3.64148">
        <ele>73.5</ele>
        <time>2020-07-01T07:17:11Z</time>
      </trkpt>
      <trkpt lat="49.07743" lon="3.64154">
        <ele>73.5</ele>
        <time>2020-07-01T07:17:12Z</time>
      </trkpt>
      <trkpt lat="49.07745" lon="3.64158">
        <ele>73.5</ele>
        <time>2020-07-01T07:17:13Z</time>
      </trkpt>
      <trkpt lat="49.07747" lon="3.64161">
        <ele>73.4</ele>
        <time>2020-07-01T07:17:14Z</time>
      </trkpt>
      <trkpt lat="49.07751" lon="3.64164">
        <ele>73.4</ele>
        <time>2020-07-01T07:17:15Z</time>
      </trkpt>
      <trkpt lat="49.07756" lon="3.64168">
        <ele>73.4</ele>
        <time>2020-07-01T07:17:16Z</time>
      </trkpt>
      <trkpt lat="49.0776" lon="3.64172">
        <ele>73.5</ele>
        <time>2020-07-01T07:17:17Z</time>
      </trkpt>
      <trkpt lat="49.07764" lon="3.64176">
        <ele>73.5</ele>
        <time>2020-07-01T07:17:18Z</time>
      </trkpt>
      <trkpt lat="49.07766" lon="3.64181">
        <ele>73.5</ele>
        <time>2020-07-01T07:17:19Z</time>
      </trkpt>
      <trkpt lat="49.07769" lon="3.64184">
        <ele>73.5</ele>
        <time>2020-07-01T07:17:20Z</time>
      </trkpt>
      <trkpt lat="49.07771" lon="3.64187">
        <ele>73.5</ele>
        <time>2020-07-01T07:17:21Z</time>
      </trkpt>
      <trkpt lat="49.07775" lon="3.64191">
        <ele>73.5</ele>
        <time>2020-07-01T07:17:22Z</time>
      </trkpt>
      <trkpt lat="49.07778" lon="3.64196">
        <ele>73.5</ele>
        <time>2020-07-01T07:17:23Z</time>
      </trkpt>
      <trkpt lat="49.07781" lon="3.64201">
        <ele>73.6</ele>
        <time>2020-07-01T07:17:24Z</time>
      </trkpt>
      <trkpt lat="49.07784" lon="3.64207">
        <ele>73.6</ele>
        <time>2020-07-01T07:17:25Z</time>
      </trkpt>
      <trkpt lat="49.07787" lon="3.64212">
        <ele>73.6</ele>
        <time>2020-07-01T07:17:26Z</time>
      </trkpt>
      <trkpt lat="49.07791" lon="3.64218">
        <ele>73.6</ele>
        <time>2020-07-01T07:17:27Z</time>
      </trkpt>
      <trkpt lat="49.07795" lon="3.64224">
        <ele>73.6</ele>
        <time>2020-07-01T07:17:28Z</time>
      </trkpt>
      <trkpt lat="49.07797" lon="3.64229">
        <ele>73.7</ele>
        <time>2020-07-01T07:17:29Z</time>
      </trkpt>
      <trkpt lat="49.078" lon="3.64236">
        <ele>73.7</ele>
        <time>2020-07-01T07:17:30Z</time>
      </trkpt>
      <trkpt lat="49.07802" lon="3.64242">
        <ele>73.8</ele>
        <time>2020-07-01T07:17:31Z</time>
      </trkpt>
      <trkpt lat="49.07805" lon="3.64246">
        <ele>73.7</ele>
        <time>2020-07-01T07:17:32Z</time>
      </trkpt>
      <trkpt lat="49.07807" lon="3.64252">
        <ele>73.7</ele>
        <time>2020-07-01T07:17:33Z</time>
      </trkpt>
      <trkpt lat="49.0781" lon="3.64258">
        <ele>73.6</ele>
        <time>2020-07-01T07:17:34Z</time>
      </trkpt>
      <trkpt lat="49.07815" lon="3.64264">
        <ele>73.6</ele>
        <time>2020-07-01T07:17:35Z</time>
      </trkpt>
      <trkpt lat="49.07818" lon="3.64271">
        <ele>73.5</ele>
        <time>2020-07-01T07:17:36Z</time>
      </trkpt>
      <trkpt lat="49.0782" lon="3.64278">
        <ele>73.4</ele>
        <time>2020-07-01T07:17:37Z</time>
      </trkpt>
      <trkpt lat="49.07822" lon="3.64284">
        <ele>73.4</ele>
        <time>2020-07-01T07:17:38Z</time>
      </trkpt>
      <trkpt lat="49.07825" lon="3.64292">
        <ele>73.3</ele>
        <time>2020-07-01T07:17:39Z</time>
      </trkpt>
      <trkpt lat="49.07829" lon="3.64299">
        <ele>73.3</ele>
        <time>2020-07-01T07:17:40Z</time>
      </trkpt>
      <trkpt lat="49.07832" lon="3.64306">
        <ele>73.3</ele>
        <time>2020-07-01T07:17:41Z</time>
      </trkpt>
      <trkpt lat="49.07838" lon="3.64314">
        <ele>73.2</ele>
        <time>2020-07-01T07:17:42Z</time>
      </trkpt>
      <trkpt lat="49.07842" lon="3.64323">
        <ele>73.2</ele>
        <time>2020-07-01T07:17:43Z</time>
      </trkpt>
      <trkpt lat="49.07845" lon="3.6433">
        <ele>73.2</ele>
        <time>2020-07-01T07:17:44Z</time>
      </trkpt>
      <trkpt lat="49.07849" lon="3.64338">
        <ele>73.1</ele>
        <time>2020-07-01T07:17:45Z</time>
      </trkpt>
      <trkpt lat="49.07851" lon="3.64345">
        <ele>73.1</ele>
        <time>2020-07-01T07:17:46Z</time>
      </trkpt>
      <trkpt lat="49.07854" lon="3.64352">
        <ele>73</ele>
        <time>2020-07-01T07:17:47Z</time>
      </trkpt>
      <trkpt lat="49.07856" lon="3.64361">
        <ele>73</ele>
        <time>2020-07-01T07:17:48Z</time>
      </trkpt>
      <trkpt lat="49.07859" lon="3.6437">
        <ele>73</ele>
        <time>2020-07-01T07:17:49Z</time>
      </trkpt>
      <trkpt lat="49.07862" lon="3.64377">
        <ele>72.9</ele>
        <time>2020-07-01T07:17:50Z</time>
      </trkpt>
      <trkpt lat="49.07864" lon="3.64384">
        <ele>72.9</ele>
        <time>2020-07-01T07:17:51Z</time>
      </trkpt>
      <trkpt lat="49.07867" lon="3.64391">
        <ele>72.9</ele>
        <time>2020-07-01T07:17:52Z</time>
      </trkpt>
      <trkpt lat="49.07869" lon="3.644">
        <ele>72.9</ele>
        <time>2020-07-01T07:17:53Z</time>
      </trkpt>
      <trkpt lat="49.07872" lon="3.64406">
        <ele>72.9</ele>
        <time>2020-07-01T07:17:54Z</time>
      </trkpt>
      <trkpt lat="49.07875" lon="3.64413">
        <ele>72.9</ele>
        <time>2020-07-01T07:17:55Z</time>
      </trkpt>
      <trkpt lat="49.07878" lon="3.64421">
        <ele>72.9</ele>
        <time>2020-07-01T07:17:56Z</time>
      </trkpt>
      <trkpt lat="49.07882" lon="3.64428">
        <ele>72.9</ele>
        <time>2020-07-01T07:17:57Z</time>
      </trkpt>
      <trkpt lat="49.07885" lon="3.64436">
        <ele>72.9</ele>
        <time>2020-07-01T07:17:58Z</time>
      </trkpt>
      <trkpt lat="49.07891" lon="3.64444">
        <ele>72.9</ele>
        <time>2020-07-01T07:17:59Z</time>
      </trkpt>
      <trkpt lat="49.07894" lon="3.64452">
        <ele>72.9</ele>
        <time>2020-07-01T07:18:00Z</time>
      </trkpt>
      <trkpt lat="49.07898" lon="3.6446">
        <ele>72.9</ele>
        <time>2020-07-01T07:18:01Z</time>
      </trkpt>
      <trkpt lat="49.07901" lon="3.64468">
        <ele>72.8</ele>
        <time>2020-07-01T07:18:02Z</time>
      </trkpt>
      <trkpt lat="49.07905" lon="3.64475">
        <ele>72.8</ele>
        <time>2020-07-01T07:18:03Z</time>
      </trkpt>
      <trkpt lat="49.07908" lon="3.64483">
        <ele>72.8</ele>
        <time>2020-07-01T07:18:04Z</time>
      </trkpt>
      <trkpt lat="49.0791" lon="3.6449">
        <ele>72.8</ele>
        <time>2020-07-01T07:18:05Z</time>
      </trkpt>
      <trkpt lat="49.07913" lon="3.64498">
        <ele>72.8</ele>
        <time>2020-07-01T07:18:06Z</time>
      </trkpt>
      <trkpt lat="49.07916" lon="3.64506">
        <ele>72.9</ele>
        <time>2020-07-01T07:18:07Z</time>
      </trkpt>
      <trkpt lat="49.0792" lon="3.64514">
        <ele>72.9</ele>
        <time>2020-07-01T07:18:08Z</time>
      </trkpt>
      <trkpt lat="49.07923" lon="3.64522">
        <ele>72.9</ele>
        <time>2020-07-01T07:18:09Z</time>
      </trkpt>
      <trkpt lat="49.07927" lon="3.6453">
        <ele>72.9</ele>
        <time>2020-07-01T07:18:10Z</time>
      </trkpt>
      <trkpt lat="49.0793" lon="3.64537">
        <ele>73</ele>
        <time>2020-07-01T07:18:11Z</time>
      </trkpt>
      <trkpt lat="49.07933" lon="3.64545">
        <ele>73</ele>
        <time>2020-07-01T07:18:12Z</time>
      </trkpt>
      <trkpt lat="49.07936" lon="3.64553">
        <ele>73</ele>
        <time>2020-07-01T07:18:13Z</time>
      </trkpt>
      <trkpt lat="49.07939" lon="3.64562">
        <ele>73</ele>
        <time>2020-07-01T07:18:14Z</time>
      </trkpt>
      <trkpt lat="49.07942" lon="3.64571">
        <ele>73</ele>
        <time>2020-07-01T07:18:15Z</time>
      </trkpt>
      <trkpt lat="49.07945" lon="3.64581">
        <ele>73.1</ele>
        <time>2020-07-01T07:18:16Z</time>
      </trkpt>
      <trkpt lat="49.07948" lon="3.64588">
        <ele>73.1</ele>
        <time>2020-07-01T07:18:17Z</time>
      </trkpt>
      <trkpt lat="49.07951" lon="3.64596">
        <ele>73.2</ele>
        <time>2020-07-01T07:18:18Z</time>
      </trkpt>
      <trkpt lat="49.07954" lon="3.64602">
        <ele>73.2</ele>
        <time>2020-07-01T07:18:19Z</time>
      </trkpt>
      <trkpt lat="49.07957" lon="3.64608">
        <ele>73.2</ele>
        <time>2020-07-01T07:18:20Z</time>
      </trkpt>
      <trkpt lat="49.0796" lon="3.64618">
        <ele>73.3</ele>
        <time>2020-07-01T07:18:21Z</time>
      </trkpt>
      <trkpt lat="49.07962" lon="3.64625">
        <ele>73.4</ele>
        <time>2020-07-01T07:18:22Z</time>
      </trkpt>
      <trkpt lat="49.07965" lon="3.64631">
        <ele>73.4</ele>
        <time>2020-07-01T07:18:23Z</time>
      </trkpt>
      <trkpt lat="49.07968" lon="3.64638">
        <ele>73.5</ele>
        <time>2020-07-01T07:18:24Z</time>
      </trkpt>
      <trkpt lat="49.07971" lon="3.64646">
        <ele>73.6</ele>
        <time>2020-07-01T07:18:25Z</time>
      </trkpt>
      <trkpt lat="49.07974" lon="3.64653">
        <ele>73.7</ele>
        <time>2020-07-01T07:18:26Z</time>
      </trkpt>
      <trkpt lat="49.07977" lon="3.64662">
        <ele>73.7</ele>
        <time>2020-07-01T07:18:27Z</time>
      </trkpt>
      <trkpt lat="49.0798" lon="3.64669">
        <ele>73.8</ele>
        <time>2020-07-01T07:18:28Z</time>
      </trkpt>
      <trkpt lat="49.07983" lon="3.64676">
        <ele>73.8</ele>
        <time>2020-07-01T07:18:29Z</time>
      </trkpt>
      <trkpt lat="49.07987" lon="3.64683">
        <ele>73.9</ele>
        <time>2020-07-01T07:18:30Z</time>
      </trkpt>
      <trkpt lat="49.0799" lon="3.64691">
        <ele>74</ele>
        <time>2020-07-01T07:18:31Z</time>
      </trkpt>
      <trkpt lat="49.07992" lon="3.64698">
        <ele>74</ele>
        <time>2020-07-01T07:18:32Z</time>
      </trkpt>
      <trkpt lat="49.07995" lon="3.64705">
        <ele>74.1</ele>
        <time>2020-07-01T07:18:33Z</time>
      </trkpt>
      <trkpt lat="49.07998" lon="3.64714">
        <ele>74.2</ele>
        <time>2020-07-01T07:18:34Z</time>
      </trkpt>
      <trkpt lat="49.08001" lon="3.64723">
        <ele>74.3</ele>
        <time>2020-07-01T07:18:35Z</time>
      </trkpt>
      <trkpt lat="49.08004" lon="3.64729">
        <ele>74.3</ele>
        <time>2020-07-01T07:18:36Z</time>
      </trkpt>
      <trkpt lat="49.08007" lon="3.64737">
        <ele>74.3</ele>
        <time>2020-07-01T07:18:37Z</time>
      </trkpt>
      <trkpt lat="49.08011" lon="3.64745">
        <ele>74.4</ele>
        <time>2020-07-01T07:18:38Z</time>
      </trkpt>
      <trkpt lat="49.08014" lon="3.64752">
        <ele>74.4</ele>
        <time>2020-07-01T07:18:39Z</time>
      </trkpt>
      <trkpt lat="49.08017" lon="3.6476">
        <ele>74.5</ele>
        <time>2020-07-01T07:18:40Z</time>
      </trkpt>
      <trkpt lat="49.08021" lon="3.64768">
        <ele>74.6</ele>
        <time>2020-07-01T07:18:41Z</time>
      </trkpt>
      <trkpt lat="49.08024" lon="3.64775">
        <ele>74.6</ele>
        <time>2020-07-01T07:18:42Z</time>
      </trkpt>
      <trkpt lat="49.08028" lon="3.64782">
        <ele>74.7</ele>
        <time>2020-07-01T07:18:43Z</time>
      </trkpt>
      <trkpt lat="49.08033" lon="3.6479">
        <ele>74.8</ele>
        <time>2020-07-01T07:18:44Z</time>
      </trkpt>
      <trkpt lat="49.08036" lon="3.64798">
        <ele>74.9</ele>
        <time>2020-07-01T07:18:45Z</time>
      </trkpt>
      <trkpt lat="49.08038" lon="3.64804">
        <ele>75</ele>
        <time>2020-07-01T07:18:46Z</time>
      </trkpt>
      <trkpt lat="49.08041" lon="3.64811">
        <ele>75.1</ele>
        <time>2020-07-01T07:18:47Z</time>
      </trkpt>
      <trkpt lat="49.08044" lon="3.64818">
        <ele>75.2</ele>
        <time>2020-07-01T07:18:48Z</time>
      </trkpt>
      <trkpt lat="49.08047" lon="3.64825">
        <ele>75.3</ele>
        <time>2020-07-01T07:18:49Z</time>
      </trkpt>
      <trkpt lat="49.0805" lon="3.64832">
        <ele>75.3</ele>
        <time>2020-07-01T07:18:50Z</time>
      </trkpt>
      <trkpt lat="49.08052" lon="3.64839">
        <ele>75.4</ele>
        <time>2020-07-01T07:18:51Z</time>
      </trkpt>
      <trkpt lat="49.08056" lon="3.64848">
        <ele>75.6</ele>
        <time>2020-07-01T07:18:52Z</time>
      </trkpt>
      <trkpt lat="49.08058" lon="3.64854">
        <ele>75.7</ele>
        <time>2020-07-01T07:18:53Z</time>
      </trkpt>
      <trkpt lat="49.08061" lon="3.64861">
        <ele>75.8</ele>
        <time>2020-07-01T07:18:54Z</time>
      </trkpt>
      <trkpt lat="49.08064" lon="3.64868">
        <ele>76</ele>
        <time>2020-07-01T07:18:55Z</time>
      </trkpt>
      <trkpt lat="49.08067" lon="3.64875">
        <ele>76.1</ele>
        <time>2020-07-01T07:18:56Z</time>
      </trkpt>
      <trkpt lat="49.0807" lon="3.64881">
        <ele>76.2</ele>
        <time>2020-07-01T07:18:57Z</time>
      </trkpt>
      <trkpt lat="49.08073" lon="3.64887">
        <ele>76.4</ele>
        <time>2020-07-01T07:18:58Z</time>
      </trkpt>
      <trkpt lat="49.08075" lon="3.64894">
        <ele>76.5</ele>
        <time>2020-07-01T07:18:59Z</time>
      </trkpt>
      <trkpt lat="49.08078" lon="3.649">
        <ele>76.6</ele>
        <time>2020-07-01T07:19:00Z</time>
      </trkpt>
      <trkpt lat="49.08081" lon="3.64905">
        <ele>76.6</ele>
        <time>2020-07-01T07:19:01Z</time>
      </trkpt>
      <trkpt lat="49.08083" lon="3.64911">
        <ele>76.6</ele>
        <time>2020-07-01T07:19:02Z</time>
      </trkpt>
      <trkpt lat="49.08085" lon="3.64917">
        <ele>76.5</ele>
        <time>2020-07-01T07:19:03Z</time>
      </trkpt>
      <trkpt lat="49.08087" lon="3.64922">
        <ele>76.5</ele>
        <time>2020-07-01T07:19:04Z</time>
      </trkpt>
      <trkpt lat="49.08089" lon="3.64929">
        <ele>76.5</ele>
        <time>2020-07-01T07:19:05Z</time>
      </trkpt>
      <trkpt lat="49.08091" lon="3.64935">
        <ele>76.5</ele>
        <time>2020-07-01T07:19:06Z</time>
      </trkpt>
      <trkpt lat="49.08093" lon="3.64942">
        <ele>76.5</ele>
        <time>2020-07-01T07:19:07Z</time>
      </trkpt>
      <trkpt lat="49.08095" lon="3.64947">
        <ele>76.4</ele>
        <time>2020-07-01T07:19:08Z</time>
      </trkpt>
      <trkpt lat="49.08097" lon="3.64952">
        <ele>76.4</ele>
        <time>2020-07-01T07:19:09Z</time>
      </trkpt>
      <trkpt lat="49.081" lon="3.64958">
        <ele>76.4</ele>
        <time>2020-07-01T07:19:10Z</time>
      </trkpt>
      <trkpt lat="49.08102" lon="3.64963">
        <ele>76.4</ele>
        <time>2020-07-01T07:19:11Z</time>
      </trkpt>
      <trkpt lat="49.08104" lon="3.64968">
        <ele>76.4</ele>
        <time>2020-07-01T07:19:12Z</time>
      </trkpt>
      <trkpt lat="49.08106" lon="3.64972">
        <ele>76.4</ele>
        <time>2020-07-01T07:19:13Z</time>
      </trkpt>
      <trkpt lat="49.08108" lon="3.64976">
        <ele>76.4</ele>
        <time>2020-07-01T07:19:14Z</time>
      </trkpt>
      <trkpt lat="49.0811" lon="3.6498">
        <ele>76.4</ele>
        <time>2020-07-01T07:19:15Z</time>
      </trkpt>
      <trkpt lat="49.08111" lon="3.64984">
        <ele>76.5</ele>
        <time>2020-07-01T07:19:16Z</time>
      </trkpt>
      <trkpt lat="49.08113" lon="3.64989">
        <ele>76.5</ele>
        <time>2020-07-01T07:19:17Z</time>
      </trkpt>
      <trkpt lat="49.08115" lon="3.64991">
        <ele>76.5</ele>
        <time>2020-07-01T07:19:18Z</time>
      </trkpt>
      <trkpt lat="49.08116" lon="3.64996">
        <ele>76.6</ele>
        <time>2020-07-01T07:19:19Z</time>
      </trkpt>
      <trkpt lat="49.08117" lon="3.64997">
        <ele>76.6</ele>
        <time>2020-07-01T07:19:20Z</time>
      </trkpt>
      <trkpt lat="49.08118" lon="3.65001">
        <ele>76.6</ele>
        <time>2020-07-01T07:19:21Z</time>
      </trkpt>
      <trkpt lat="49.08119" lon="3.65003">
        <ele>76.6</ele>
        <time>2020-07-01T07:19:22Z</time>
      </trkpt>
      <trkpt lat="49.08119" lon="3.65005">
        <ele>76.6</ele>
        <time>2020-07-01T07:19:23Z</time>
      </trkpt>
      <trkpt lat="49.08119" lon="3.65007">
        <ele>76.6</ele>
        <time>2020-07-01T07:19:24Z</time>
      </trkpt>
      <trkpt lat="49.08119" lon="3.65008">
        <ele>76.6</ele>
        <time>2020-07-01T07:19:25Z</time>
      </trkpt>
      <trkpt lat="49.08119" lon="3.65008">
        <ele>76.6</ele>
        <time>2020-07-01T07:19:26Z</time>
      </trkpt>
      <trkpt lat="49.08119" lon="3.65009">
        <ele>76.6</ele>
        <time>2020-07-01T07:19:27Z</time>
      </trkpt>
      <trkpt lat="49.08119" lon="3.65009">
        <ele>76.7</ele>
        <time>2020-07-01T07:19:28Z</time>
      </trkpt>
      <trkpt lat="49.08119" lon="3.65008">
        <ele>76.7</ele>
        <time>2020-07-01T07:19:29Z</time>
      </trkpt>
      <trkpt lat="49.08118" lon="3.65006">
        <ele>76.7</ele>
        <time>2020-07-01T07:19:30Z</time>
      </trkpt>
      <trkpt lat="49.08118" lon="3.65005">
        <ele>76.7</ele>
        <time>2020-07-01T07:19:31Z</time>
      </trkpt>
      <trkpt lat="49.08118" lon="3.65005">
        <ele>76.7</ele>
        <time>2020-07-01T07:19:32Z</time>
      </trkpt>
      <trkpt lat="49.08117" lon="3.65005">
        <ele>76.7</ele>
        <time>2020-07-01T07:19:33Z</time>
      </trkpt>
      <trkpt lat="49.08118" lon="3.65005">
        <ele>76.7</ele>
        <time>2020-07-01T07:19:34Z</time>
      </trkpt>
      <trkpt lat="49.08118" lon="3.65007">
        <ele>76.7</ele>
        <time>2020-07-01T07:19:35Z</time>
      </trkpt>
      <trkpt lat="49.08118" lon="3.65008">
        <ele>76.7</ele>
        <time>2020-07-01T07:19:36Z</time>
      </trkpt>
      <trkpt lat="49.08118" lon="3.65008">
        <ele>76.7</ele>
        <time>2020-07-01T07:19:37Z</time>
      </trkpt>
      <trkpt lat="49.08117" lon="3.65007">
        <ele>76.7</ele>
        <time>2020-07-01T07:19:38Z</time>
      </trkpt>
      <trkpt lat="49.08116" lon="3.65007">
        <ele>76.7</ele>
        <time>2020-07-01T07:19:39Z</time>
      </trkpt>
      <trkpt lat="49.08116" lon="3.65007">
        <ele>76.7</ele>
        <time>2020-07-01T07:19:40Z</time>
      </trkpt>
      <trkpt lat="49.08116" lon="3.65009">
        <ele>76.8</ele>
        <time>2020-07-01T07:19:41Z</time>
      </trkpt>
      <trkpt lat="49.08115" lon="3.65008">
        <ele>76.8</ele>
        <time>2020-07-01T07:19:42Z</time>
      </trkpt>
      <trkpt lat="49.08115" lon="3.6501">
        <ele>76.8</ele>
        <time>2020-07-01T07:19:43Z</time>
      </trkpt>
      <trkpt lat="49.08115" lon="3.6501">
        <ele>76.8</ele>
        <time>2020-07-01T07:19:44Z</time>
      </trkpt>
      <trkpt lat="49.08115" lon="3.65009">
        <ele>76.8</ele>
        <time>2020-07-01T07:19:45Z</time>
      </trkpt>
      <trkpt lat="49.08115" lon="3.65009">
        <ele>76.8</ele>
        <time>2020-07-01T07:19:46Z</time>
      </trkpt>
      <trkpt lat="49.08115" lon="3.65009">
        <ele>76.8</ele>
        <time>2020-07-01T07:19:47Z</time>
      </trkpt>
      <trkpt lat="49.07755" lon="3.64102">
        <ele>72.2</ele>
        <time>2020-07-01T07:38:39Z</time>
      </trkpt>
      <trkpt lat="49.07751" lon="3.641">
        <ele>72.4</ele>
        <time>2020-07-01T07:38:40Z</time>
      </trkpt>
      <trkpt lat="49.07747" lon="3.64101">
        <ele>72.6</ele>
        <time>2020-07-01T07:38:41Z</time>
      </trkpt>
      <trkpt lat="49.07743" lon="3.64102">
        <ele>72.8</ele>
        <time>2020-07-01T07:38:42Z</time>
      </trkpt>
      <trkpt lat="49.07739" lon="3.64103">
        <ele>73</ele>
        <time>2020-07-01T07:38:43Z</time>
      </trkpt>
      <trkpt lat="49.07735" lon="3.64103">
        <ele>73.2</ele>
        <time>2020-07-01T07:38:44Z</time>
      </trkpt>
      <trkpt lat="49.07731" lon="3.64104">
        <ele>73.4</ele>
        <time>2020-07-01T07:38:46Z</time>
      </trkpt>
      <trkpt lat="49.07727" lon="3.64105">
        <ele>73.5</ele>
        <time>2020-07-01T07:38:47Z</time>
      </trkpt>
      <trkpt lat="49.07724" lon="3.64106">
        <ele>73.5</ele>
        <time>2020-07-01T07:38:48Z</time>
      </trkpt>
      <trkpt lat="49.0772" lon="3.64106">
        <ele>73.6</ele>
        <time>2020-07-01T07:38:49Z</time>
      </trkpt>
      <trkpt lat="49.07716" lon="3.64107">
        <ele>73.6</ele>
        <time>2020-07-01T07:40:17Z</time>
      </trkpt>
      <trkpt lat="49.07712" lon="3.64108">
        <ele>73.6</ele>
        <time>2020-07-01T07:40:18Z</time>
      </trkpt>
      <trkpt lat="49.07709" lon="3.64104">
        <ele>73.6</ele>
        <time>2020-07-01T07:40:19Z</time>
      </trkpt>
      <trkpt lat="49.07708" lon="3.64103">
        <ele>73.6</ele>
        <time>2020-07-01T07:40:20Z</time>
      </trkpt>
      <trkpt lat="49.07707" lon="3.64102">
        <ele>73.6</ele>
        <time>2020-07-01T07:40:21Z</time>
      </trkpt>
      <trkpt lat="49.07705" lon="3.641">
        <ele>73.6</ele>
        <time>2020-07-01T07:40:22Z</time>
      </trkpt>
      <trkpt lat="49.07704" lon="3.64099">
        <ele>73.6</ele>
        <time>2020-07-01T07:40:23Z</time>
      </trkpt>
      <trkpt lat="49.07703" lon="3.64098">
        <ele>73.6</ele>
        <time>2020-07-01T07:40:24Z</time>
      </trkpt>
      <trkpt lat="49.07703" lon="3.64098">
        <ele>73.6</ele>
        <time>2020-07-01T07:40:25Z</time>
      </trkpt>
      <trkpt lat="49.07703" lon="3.64097">
        <ele>73.7</ele>
        <time>2020-07-01T07:40:26Z</time>
      </trkpt>
      <trkpt lat="49.07703" lon="3.64096">
        <ele>73.7</ele>
        <time>2020-07-01T07:40:27Z</time>
      </trkpt>
      <trkpt lat="49.07702" lon="3.64096">
        <ele>73.7</ele>
        <time>2020-07-01T07:40:28Z</time>
      </trkpt>
      <trkpt lat="49.07702" lon="3.64095">
        <ele>73.7</ele>
        <time>2020-07-01T07:40:29Z</time>
      </trkpt>
      <trkpt lat="49.07702" lon="3.64094">
        <ele>73.7</ele>
        <time>2020-07-01T07:40:30Z</time>
      </trkpt>
      <trkpt lat="49.07701" lon="3.64094">
        <ele>73.7</ele>
        <time>2020-07-01T07:40:31Z</time>
      </trkpt>
      <trkpt lat="49.07701" lon="3.64093">
        <ele>73.7</ele>
        <time>2020-07-01T07:40:32Z</time>
      </trkpt>
      <trkpt lat="49.07701" lon="3.64092">
        <ele>73.7</ele>
        <time>2020-07-01T07:40:33Z</time>
      </trkpt>
      <trkpt lat="49.07698" lon="3.64089">
        <ele>73.7</ele>
        <time>2020-07-01T07:40:34Z</time>
      </trkpt>
      <trkpt lat="49.07697" lon="3.64088">
        <ele>73.7</ele>
        <time>2020-07-01T07:40:35Z</time>
      </trkpt>
      <trkpt lat="49.07695" lon="3.64086">
        <ele>73.6</ele>
        <time>2020-07-01T07:40:36Z</time>
      </trkpt>
      <trkpt lat="49.07693" lon="3.64082">
        <ele>73.6</ele>
        <time>2020-07-01T07:40:37Z</time>
      </trkpt>
      <trkpt lat="49.07691" lon="3.64077">
        <ele>73.6</ele>
        <time>2020-07-01T07:40:38Z</time>
      </trkpt>
      <trkpt lat="49.0769" lon="3.64075">
        <ele>73.6</ele>
        <time>2020-07-01T07:40:39Z</time>
      </trkpt>
      <trkpt lat="49.07687" lon="3.6407">
        <ele>73.6</ele>
        <time>2020-07-01T07:40:40Z</time>
      </trkpt>
      <trkpt lat="49.07684" lon="3.64066">
        <ele>73.6</ele>
        <time>2020-07-01T07:40:41Z</time>
      </trkpt>
      <trkpt lat="49.07682" lon="3.64061">
        <ele>73.6</ele>
        <time>2020-07-01T07:40:42Z</time>
      </trkpt>
      <trkpt lat="49.07679" lon="3.64057">
        <ele>73.6</ele>
        <time>2020-07-01T07:40:43Z</time>
      </trkpt>
      <trkpt lat="49.07677" lon="3.64053">
        <ele>73.5</ele>
        <time>2020-07-01T07:40:44Z</time>
      </trkpt>
      <trkpt lat="49.07675" lon="3.64049">
        <ele>73.5</ele>
        <time>2020-07-01T07:40:45Z</time>
      </trkpt>
      <trkpt lat="49.07672" lon="3.64046">
        <ele>73.5</ele>
        <time>2020-07-01T07:40:46Z</time>
      </trkpt>
      <trkpt lat="49.07672" lon="3.64037">
        <ele>73.5</ele>
        <time>2020-07-01T07:40:47Z</time>
      </trkpt>
      <trkpt lat="49.07668" lon="3.64034">
        <ele>73.4</ele>
        <time>2020-07-01T07:40:48Z</time>
      </trkpt>
      <trkpt lat="49.07665" lon="3.64032">
        <ele>73.4</ele>
        <time>2020-07-01T07:40:49Z</time>
      </trkpt>
      <trkpt lat="49.07662" lon="3.64029">
        <ele>73.4</ele>
        <time>2020-07-01T07:40:50Z</time>
      </trkpt>
      <trkpt lat="49.07659" lon="3.64024">
        <ele>73.4</ele>
        <time>2020-07-01T07:40:51Z</time>
      </trkpt>
      <trkpt lat="49.07656" lon="3.6402">
        <ele>73.4</ele>
        <time>2020-07-01T07:40:52Z</time>
      </trkpt>
      <trkpt lat="49.07653" lon="3.64017">
        <ele>73.3</ele>
        <time>2020-07-01T07:40:53Z</time>
      </trkpt>
      <trkpt lat="49.07651" lon="3.64012">
        <ele>73.3</ele>
        <time>2020-07-01T07:40:54Z</time>
      </trkpt>
      <trkpt lat="49.07647" lon="3.64008">
        <ele>73.3</ele>
        <time>2020-07-01T07:40:55Z</time>
      </trkpt>
      <trkpt lat="49.07645" lon="3.64005">
        <ele>73.3</ele>
        <time>2020-07-01T07:40:56Z</time>
      </trkpt>
      <trkpt lat="49.07641" lon="3.64002">
        <ele>73.2</ele>
        <time>2020-07-01T07:40:57Z</time>
      </trkpt>
      <trkpt lat="49.07639" lon="3.63997">
        <ele>73.2</ele>
        <time>2020-07-01T07:40:58Z</time>
      </trkpt>
      <trkpt lat="49.07635" lon="3.63993">
        <ele>73.1</ele>
        <time>2020-07-01T07:40:59Z</time>
      </trkpt>
      <trkpt lat="49.07631" lon="3.63991">
        <ele>73.1</ele>
        <time>2020-07-01T07:41:00Z</time>
      </trkpt>
      <trkpt lat="49.07628" lon="3.63988">
        <ele>73.1</ele>
        <time>2020-07-01T07:41:01Z</time>
      </trkpt>
      <trkpt lat="49.07624" lon="3.63985">
        <ele>73.1</ele>
        <time>2020-07-01T07:41:02Z</time>
      </trkpt>
      <trkpt lat="49.0762" lon="3.63982">
        <ele>73.1</ele>
        <time>2020-07-01T07:41:03Z</time>
      </trkpt>
      <trkpt lat="49.07616" lon="3.63979">
        <ele>73.2</ele>
        <time>2020-07-01T07:41:04Z</time>
      </trkpt>
      <trkpt lat="49.07612" lon="3.63977">
        <ele>73.2</ele>
        <time>2020-07-01T07:41:05Z</time>
      </trkpt>
      <trkpt lat="49.07608" lon="3.63973">
        <ele>73.2</ele>
        <time>2020-07-01T07:41:06Z</time>
      </trkpt>
      <trkpt lat="49.07603" lon="3.6397">
        <ele>73.1</ele>
        <time>2020-07-01T07:41:07Z</time>
      </trkpt>
      <trkpt lat="49.07599" lon="3.63967">
        <ele>73.1</ele>
        <time>2020-07-01T07:41:08Z</time>
      </trkpt>
      <trkpt lat="49.07594" lon="3.63964">
        <ele>73</ele>
        <time>2020-07-01T07:41:09Z</time>
      </trkpt>
      <trkpt lat="49.07588" lon="3.63961">
        <ele>73</ele>
        <time>2020-07-01T07:41:10Z</time>
      </trkpt>
      <trkpt lat="49.07582" lon="3.63956">
        <ele>72.9</ele>
        <time>2020-07-01T07:41:11Z</time>
      </trkpt>
      <trkpt lat="49.07579" lon="3.63951">
        <ele>72.8</ele>
        <time>2020-07-01T07:41:12Z</time>
      </trkpt>
      <trkpt lat="49.07574" lon="3.63947">
        <ele>72.7</ele>
        <time>2020-07-01T07:41:13Z</time>
      </trkpt>
      <trkpt lat="49.0757" lon="3.63941">
        <ele>72.5</ele>
        <time>2020-07-01T07:41:14Z</time>
      </trkpt>
      <trkpt lat="49.07565" lon="3.63937">
        <ele>72.4</ele>
        <time>2020-07-01T07:41:15Z</time>
      </trkpt>
      <trkpt lat="49.0756" lon="3.63933">
        <ele>72.2</ele>
        <time>2020-07-01T07:41:16Z</time>
      </trkpt>
      <trkpt lat="49.07555" lon="3.6393">
        <ele>72.1</ele>
        <time>2020-07-01T07:41:17Z</time>
      </trkpt>
      <trkpt lat="49.07549" lon="3.63924">
        <ele>71.9</ele>
        <time>2020-07-01T07:41:18Z</time>
      </trkpt>
      <trkpt lat="49.07544" lon="3.63922">
        <ele>71.8</ele>
        <time>2020-07-01T07:41:19Z</time>
      </trkpt>
      <trkpt lat="49.07539" lon="3.63919">
        <ele>71.6</ele>
        <time>2020-07-01T07:41:20Z</time>
      </trkpt>
      <trkpt lat="49.07534" lon="3.63915">
        <ele>71.4</ele>
        <time>2020-07-01T07:41:21Z</time>
      </trkpt>
      <trkpt lat="49.0753" lon="3.63912">
        <ele>71.4</ele>
        <time>2020-07-01T07:41:22Z</time>
      </trkpt>
      <trkpt lat="49.07526" lon="3.63908">
        <ele>71.4</ele>
        <time>2020-07-01T07:41:23Z</time>
      </trkpt>
      <trkpt lat="49.07521" lon="3.63903">
        <ele>71.4</ele>
        <time>2020-07-01T07:41:24Z</time>
      </trkpt>
      <trkpt lat="49.07516" lon="3.63898">
        <ele>71.4</ele>
        <time>2020-07-01T07:41:25Z</time>
      </trkpt>
      <trkpt lat="49.07512" lon="3.63895">
        <ele>71.3</ele>
        <time>2020-07-01T07:41:26Z</time>
      </trkpt>
      <trkpt lat="49.07508" lon="3.63892">
        <ele>71.3</ele>
        <time>2020-07-01T07:41:27Z</time>
      </trkpt>
      <trkpt lat="49.07503" lon="3.63888">
        <ele>71.3</ele>
        <time>2020-07-01T07:41:28Z</time>
      </trkpt>
      <trkpt lat="49.07499" lon="3.63883">
        <ele>71.3</ele>
        <time>2020-07-01T07:41:29Z</time>
      </trkpt>
      <trkpt lat="49.07495" lon="3.6388">
        <ele>71.3</ele>
        <time>2020-07-01T07:41:30Z</time>
      </trkpt>
      <trkpt lat="49.07491" lon="3.63875">
        <ele>71.3</ele>
        <time>2020-07-01T07:41:31Z</time>
      </trkpt>
      <trkpt lat="49.07487" lon="3.63871">
        <ele>71.3</ele>
        <time>2020-07-01T07:41:32Z</time>
      </trkpt>
      <trkpt lat="49.07483" lon="3.63868">
        <ele>71.3</ele>
        <time>2020-07-01T07:41:33Z</time>
      </trkpt>
      <trkpt lat="49.07479" lon="3.63866">
        <ele>71.3</ele>
        <time>2020-07-01T07:41:34Z</time>
      </trkpt>
      <trkpt lat="49.07475" lon="3.63863">
        <ele>71.3</ele>
        <time>2020-07-01T07:41:35Z</time>
      </trkpt>
      <trkpt lat="49.07471" lon="3.6386">
        <ele>71.3</ele>
        <time>2020-07-01T07:41:36Z</time>
      </trkpt>
      <trkpt lat="49.07467" lon="3.63855">
        <ele>71.3</ele>
        <time>2020-07-01T07:41:37Z</time>
      </trkpt>
      <trkpt lat="49.07465" lon="3.63849">
        <ele>71.3</ele>
        <time>2020-07-01T07:41:38Z</time>
      </trkpt>
      <trkpt lat="49.07463" lon="3.63842">
        <ele>71.4</ele>
        <time>2020-07-01T07:41:39Z</time>
      </trkpt>
      <trkpt lat="49.07463" lon="3.63832">
        <ele>71.2</ele>
        <time>2020-07-01T07:41:40Z</time>
      </trkpt>
      <trkpt lat="49.07464" lon="3.63822">
        <ele>71</ele>
        <time>2020-07-01T07:41:41Z</time>
      </trkpt>
      <trkpt lat="49.07468" lon="3.63817">
        <ele>70.8</ele>
        <time>2020-07-01T07:41:42Z</time>
      </trkpt>
      <trkpt lat="49.07472" lon="3.63813">
        <ele>70.7</ele>
        <time>2020-07-01T07:41:43Z</time>
      </trkpt>
      <trkpt lat="49.07476" lon="3.63809">
        <ele>70.6</ele>
        <time>2020-07-01T07:41:44Z</time>
      </trkpt>
      <trkpt lat="49.0748" lon="3.63804">
        <ele>70.4</ele>
        <time>2020-07-01T07:41:45Z</time>
      </trkpt>
      <trkpt lat="49.07484" lon="3.63797">
        <ele>70.3</ele>
        <time>2020-07-01T07:41:46Z</time>
      </trkpt>
      <trkpt lat="49.07488" lon="3.63789">
        <ele>70.2</ele>
        <time>2020-07-01T07:41:47Z</time>
      </trkpt>
      <trkpt lat="49.07493" lon="3.63778">
        <ele>70.2</ele>
        <time>2020-07-01T07:41:48Z</time>
      </trkpt>
      <trkpt lat="49.07498" lon="3.63771">
        <ele>70.1</ele>
        <time>2020-07-01T07:41:49Z</time>
      </trkpt>
      <trkpt lat="49.07503" lon="3.63767">
        <ele>70.1</ele>
        <time>2020-07-01T07:41:50Z</time>
      </trkpt>
      <trkpt lat="49.07506" lon="3.63761">
        <ele>70.2</ele>
        <time>2020-07-01T07:41:51Z</time>
      </trkpt>
      <trkpt lat="49.0751" lon="3.63755">
        <ele>70.3</ele>
        <time>2020-07-01T07:41:52Z</time>
      </trkpt>
      <trkpt lat="49.07513" lon="3.63749">
        <ele>70.4</ele>
        <time>2020-07-01T07:41:53Z</time>
      </trkpt>
      <trkpt lat="49.07515" lon="3.63744">
        <ele>70.4</ele>
        <time>2020-07-01T07:41:54Z</time>
      </trkpt>
      <trkpt lat="49.07517" lon="3.6374">
        <ele>70.5</ele>
        <time>2020-07-01T07:41:55Z</time>
      </trkpt>
      <trkpt lat="49.0752" lon="3.63735">
        <ele>70.6</ele>
        <time>2020-07-01T07:41:56Z</time>
      </trkpt>
      <trkpt lat="49.07523" lon="3.63732">
        <ele>70.7</ele>
        <time>2020-07-01T07:41:57Z</time>
      </trkpt>
      <trkpt lat="49.07525" lon="3.63729">
        <ele>70.7</ele>
        <time>2020-07-01T07:41:58Z</time>
      </trkpt>
      <trkpt lat="49.07528" lon="3.63725">
        <ele>70.8</ele>
        <time>2020-07-01T07:41:59Z</time>
      </trkpt>
      <trkpt lat="49.0753" lon="3.63721">
        <ele>70.8</ele>
        <time>2020-07-01T07:42:00Z</time>
      </trkpt>
      <trkpt lat="49.07533" lon="3.63716">
        <ele>70.8</ele>
        <time>2020-07-01T07:42:01Z</time>
      </trkpt>
      <trkpt lat="49.07535" lon="3.63711">
        <ele>70.8</ele>
        <time>2020-07-01T07:42:02Z</time>
      </trkpt>
      <trkpt lat="49.07538" lon="3.63707">
        <ele>70.8</ele>
        <time>2020-07-01T07:42:03Z</time>
      </trkpt>
      <trkpt lat="49.0754" lon="3.63702">
        <ele>70.8</ele>
        <time>2020-07-01T07:42:04Z</time>
      </trkpt>
      <trkpt lat="49.07543" lon="3.63696">
        <ele>70.8</ele>
        <time>2020-07-01T07:42:05Z</time>
      </trkpt>
      <trkpt lat="49.07546" lon="3.63691">
        <ele>70.8</ele>
        <time>2020-07-01T07:42:06Z</time>
      </trkpt>
      <trkpt lat="49.0755" lon="3.63687">
        <ele>70.8</ele>
        <time>2020-07-01T07:42:07Z</time>
      </trkpt>
      <trkpt lat="49.07553" lon="3.63681">
        <ele>70.8</ele>
        <time>2020-07-01T07:42:08Z</time>
      </trkpt>
      <trkpt lat="49.07556" lon="3.63676">
        <ele>70.7</ele>
        <time>2020-07-01T07:42:09Z</time>
      </trkpt>
      <trkpt lat="49.07559" lon="3.63669">
        <ele>70.7</ele>
        <time>2020-07-01T07:42:10Z</time>
      </trkpt>
      <trkpt lat="49.07561" lon="3.63664">
        <ele>70.6</ele>
        <time>2020-07-01T07:42:11Z</time>
      </trkpt>
      <trkpt lat="49.07564" lon="3.63659">
        <ele>70.5</ele>
        <time>2020-07-01T07:42:12Z</time>
      </trkpt>
      <trkpt lat="49.07566" lon="3.63654">
        <ele>70.4</ele>
        <time>2020-07-01T07:42:13Z</time>
      </trkpt>
      <trkpt lat="49.07568" lon="3.63649">
        <ele>70.3</ele>
        <time>2020-07-01T07:42:14Z</time>
      </trkpt>
      <trkpt lat="49.07571" lon="3.63645">
        <ele>70.2</ele>
        <time>2020-07-01T07:42:15Z</time>
      </trkpt>
      <trkpt lat="49.07573" lon="3.6364">
        <ele>70</ele>
        <time>2020-07-01T07:42:16Z</time>
      </trkpt>
      <trkpt lat="49.07576" lon="3.63634">
        <ele>69.7</ele>
        <time>2020-07-01T07:42:17Z</time>
      </trkpt>
      <trkpt lat="49.07579" lon="3.63628">
        <ele>69.4</ele>
        <time>2020-07-01T07:42:18Z</time>
      </trkpt>
      <trkpt lat="49.07583" lon="3.63622">
        <ele>69</ele>
        <time>2020-07-01T07:42:19Z</time>
      </trkpt>
      <trkpt lat="49.07585" lon="3.63616">
        <ele>68.7</ele>
        <time>2020-07-01T07:42:20Z</time>
      </trkpt>
      <trkpt lat="49.07588" lon="3.63608">
        <ele>68.3</ele>
        <time>2020-07-01T07:42:21Z</time>
      </trkpt>
      <trkpt lat="49.07591" lon="3.636">
        <ele>67.8</ele>
        <time>2020-07-01T07:42:22Z</time>
      </trkpt>
      <trkpt lat="49.07595" lon="3.6359">
        <ele>67.4</ele>
        <time>2020-07-01T07:42:23Z</time>
      </trkpt>
      <trkpt lat="49.07599" lon="3.63582">
        <ele>67</ele>
        <time>2020-07-01T07:42:24Z</time>
      </trkpt>
      <trkpt lat="49.07602" lon="3.63572">
        <ele>66.5</ele>
        <time>2020-07-01T07:42:25Z</time>
      </trkpt>
      <trkpt lat="49.07606" lon="3.63561">
        <ele>66</ele>
        <time>2020-07-01T07:42:26Z</time>
      </trkpt>
      <trkpt lat="49.0761" lon="3.63549">
        <ele>65.6</ele>
        <time>2020-07-01T07:42:27Z</time>
      </trkpt>
      <trkpt lat="49.07614" lon="3.63538">
        <ele>65.2</ele>
        <time>2020-07-01T07:42:28Z</time>
      </trkpt>
      <trkpt lat="49.07617" lon="3.63525">
        <ele>65</ele>
        <time>2020-07-01T07:42:29Z</time>
      </trkpt>
      <trkpt lat="49.07621" lon="3.63512">
        <ele>64.8</ele>
        <time>2020-07-01T07:42:30Z</time>
      </trkpt>
      <trkpt lat="49.07624" lon="3.63501">
        <ele>64.7</ele>
        <time>2020-07-01T07:42:31Z</time>
      </trkpt>
      <trkpt lat="49.07628" lon="3.63489">
        <ele>64.6</ele>
        <time>2020-07-01T07:42:32Z</time>
      </trkpt>
      <trkpt lat="49.0763" lon="3.6348">
        <ele>64.6</ele>
        <time>2020-07-01T07:42:33Z</time>
      </trkpt>
      <trkpt lat="49.07633" lon="3.6347">
        <ele>64.5</ele>
        <time>2020-07-01T07:42:34Z</time>
      </trkpt>
      <trkpt lat="49.07636" lon="3.63461">
        <ele>64.5</ele>
        <time>2020-07-01T07:42:35Z</time>
      </trkpt>
      <trkpt lat="49.07639" lon="3.63452">
        <ele>64.5</ele>
        <time>2020-07-01T07:42:36Z</time>
      </trkpt>
      <trkpt lat="49.07641" lon="3.63443">
        <ele>64.5</ele>
        <time>2020-07-01T07:42:37Z</time>
      </trkpt>
      <trkpt lat="49.07643" lon="3.63435">
        <ele>64.5</ele>
        <time>2020-07-01T07:42:38Z</time>
      </trkpt>
      <trkpt lat="49.07646" lon="3.63426">
        <ele>64.5</ele>
        <time>2020-07-01T07:42:39Z</time>
      </trkpt>
      <trkpt lat="49.07648" lon="3.63419">
        <ele>64.5</ele>
        <time>2020-07-01T07:42:40Z</time>
      </trkpt>
      <trkpt lat="49.0765" lon="3.63412">
        <ele>64.4</ele>
        <time>2020-07-01T07:42:41Z</time>
      </trkpt>
      <trkpt lat="49.07652" lon="3.63404">
        <ele>64.4</ele>
        <time>2020-07-01T07:42:42Z</time>
      </trkpt>
      <trkpt lat="49.07654" lon="3.63396">
        <ele>64.4</ele>
        <time>2020-07-01T07:42:43Z</time>
      </trkpt>
      <trkpt lat="49.07656" lon="3.63389">
        <ele>64.3</ele>
        <time>2020-07-01T07:42:44Z</time>
      </trkpt>
      <trkpt lat="49.07658" lon="3.63381">
        <ele>64.3</ele>
        <time>2020-07-01T07:42:45Z</time>
      </trkpt>
      <trkpt lat="49.0766" lon="3.63373">
        <ele>64.3</ele>
        <time>2020-07-01T07:42:46Z</time>
      </trkpt>
      <trkpt lat="49.07662" lon="3.63365">
        <ele>64.3</ele>
        <time>2020-07-01T07:42:47Z</time>
      </trkpt>
      <trkpt lat="49.07664" lon="3.63358">
        <ele>64.4</ele>
        <time>2020-07-01T07:42:48Z</time>
      </trkpt>
      <trkpt lat="49.07666" lon="3.6335">
        <ele>64.4</ele>
        <time>2020-07-01T07:42:49Z</time>
      </trkpt>
      <trkpt lat="49.07667" lon="3.63342">
        <ele>64.4</ele>
        <time>2020-07-01T07:42:50Z</time>
      </trkpt>
      <trkpt lat="49.07669" lon="3.63335">
        <ele>64.4</ele>
        <time>2020-07-01T07:42:51Z</time>
      </trkpt>
      <trkpt lat="49.0767" lon="3.63327">
        <ele>64.4</ele>
        <time>2020-07-01T07:42:52Z</time>
      </trkpt>
      <trkpt lat="49.07672" lon="3.6332">
        <ele>64.4</ele>
        <time>2020-07-01T07:42:53Z</time>
      </trkpt>
      <trkpt lat="49.07674" lon="3.63312">
        <ele>64.4</ele>
        <time>2020-07-01T07:42:54Z</time>
      </trkpt>
      <trkpt lat="49.07676" lon="3.63305">
        <ele>64.4</ele>
        <time>2020-07-01T07:42:55Z</time>
      </trkpt>
      <trkpt lat="49.07678" lon="3.63297">
        <ele>64.4</ele>
        <time>2020-07-01T07:42:56Z</time>
      </trkpt>
      <trkpt lat="49.0768" lon="3.6329">
        <ele>64.4</ele>
        <time>2020-07-01T07:42:57Z</time>
      </trkpt>
      <trkpt lat="49.07681" lon="3.63283">
        <ele>64.5</ele>
        <time>2020-07-01T07:42:58Z</time>
      </trkpt>
      <trkpt lat="49.07683" lon="3.63276">
        <ele>64.5</ele>
        <time>2020-07-01T07:42:59Z</time>
      </trkpt>
      <trkpt lat="49.07685" lon="3.63268">
        <ele>64.5</ele>
        <time>2020-07-01T07:43:00Z</time>
      </trkpt>
      <trkpt lat="49.07687" lon="3.63261">
        <ele>64.5</ele>
        <time>2020-07-01T07:43:01Z</time>
      </trkpt>
      <trkpt lat="49.07688" lon="3.63253">
        <ele>64.5</ele>
        <time>2020-07-01T07:43:02Z</time>
      </trkpt>
      <trkpt lat="49.0769" lon="3.63246">
        <ele>64.5</ele>
        <time>2020-07-01T07:43:03Z</time>
      </trkpt>
      <trkpt lat="49.07692" lon="3.63239">
        <ele>64.5</ele>
        <time>2020-07-01T07:43:04Z</time>
      </trkpt>
      <trkpt lat="49.07694" lon="3.63231">
        <ele>64.5</ele>
        <time>2020-07-01T07:43:05Z</time>
      </trkpt>
      <trkpt lat="49.07696" lon="3.63224">
        <ele>64.5</ele>
        <time>2020-07-01T07:43:06Z</time>
      </trkpt>
      <trkpt lat="49.07698" lon="3.63216">
        <ele>64.5</ele>
        <time>2020-07-01T07:43:07Z</time>
      </trkpt>
      <trkpt lat="49.077" lon="3.63209">
        <ele>64.5</ele>
        <time>2020-07-01T07:43:08Z</time>
      </trkpt>
      <trkpt lat="49.07702" lon="3.63202">
        <ele>64.4</ele>
        <time>2020-07-01T07:43:09Z</time>
      </trkpt>
      <trkpt lat="49.07704" lon="3.63195">
        <ele>64.4</ele>
        <time>2020-07-01T07:43:10Z</time>
      </trkpt>
      <trkpt lat="49.07705" lon="3.63187">
        <ele>64.4</ele>
        <time>2020-07-01T07:43:11Z</time>
      </trkpt>
      <trkpt lat="49.07706" lon="3.63179">
        <ele>64.4</ele>
        <time>2020-07-01T07:43:12Z</time>
      </trkpt>
      <trkpt lat="49.07708" lon="3.63172">
        <ele>64.4</ele>
        <time>2020-07-01T07:43:13Z</time>
      </trkpt>
      <trkpt lat="49.0771" lon="3.63165">
        <ele>64.3</ele>
        <time>2020-07-01T07:43:14Z</time>
      </trkpt>
      <trkpt lat="49.07712" lon="3.63158">
        <ele>64.3</ele>
        <time>2020-07-01T07:43:15Z</time>
      </trkpt>
      <trkpt lat="49.07714" lon="3.63151">
        <ele>64.3</ele>
        <time>2020-07-01T07:43:16Z</time>
      </trkpt>
      <trkpt lat="49.07715" lon="3.63143">
        <ele>64.3</ele>
        <time>2020-07-01T07:43:17Z</time>
      </trkpt>
      <trkpt lat="49.07717" lon="3.63136">
        <ele>64.3</ele>
        <time>2020-07-01T07:43:18Z</time>
      </trkpt>
      <trkpt lat="49.07719" lon="3.63129">
        <ele>64.3</ele>
        <time>2020-07-01T07:43:19Z</time>
      </trkpt>
      <trkpt lat="49.07721" lon="3.63121">
        <ele>64.3</ele>
        <time>2020-07-01T07:43:20Z</time>
      </trkpt>
      <trkpt lat="49.07723" lon="3.63114">
        <ele>64.2</ele>
        <time>2020-07-01T07:43:21Z</time>
      </trkpt>
      <trkpt lat="49.07724" lon="3.63107">
        <ele>64.2</ele>
        <time>2020-07-01T07:43:22Z</time>
      </trkpt>
      <trkpt lat="49.07727" lon="3.631">
        <ele>64.2</ele>
        <time>2020-07-01T07:43:23Z</time>
      </trkpt>
      <trkpt lat="49.0773" lon="3.63094">
        <ele>64.3</ele>
        <time>2020-07-01T07:43:24Z</time>
      </trkpt>
      <trkpt lat="49.07732" lon="3.63087">
        <ele>64.3</ele>
        <time>2020-07-01T07:43:25Z</time>
      </trkpt>
      <trkpt lat="49.07735" lon="3.6308">
        <ele>64.3</ele>
        <time>2020-07-01T07:43:26Z</time>
      </trkpt>
      <trkpt lat="49.07737" lon="3.63073">
        <ele>64.3</ele>
        <time>2020-07-01T07:43:27Z</time>
      </trkpt>
      <trkpt lat="49.07739" lon="3.63065">
        <ele>64.3</ele>
        <time>2020-07-01T07:43:28Z</time>
      </trkpt>
      <trkpt lat="49.07741" lon="3.63058">
        <ele>64.3</ele>
        <time>2020-07-01T07:43:29Z</time>
      </trkpt>
      <trkpt lat="49.07743" lon="3.63051">
        <ele>64.3</ele>
        <time>2020-07-01T07:43:30Z</time>
      </trkpt>
      <trkpt lat="49.07745" lon="3.63043">
        <ele>64.3</ele>
        <time>2020-07-01T07:43:31Z</time>
      </trkpt>
      <trkpt lat="49.07747" lon="3.63036">
        <ele>64.3</ele>
        <time>2020-07-01T07:43:32Z</time>
      </trkpt>
      <trkpt lat="49.07749" lon="3.63029">
        <ele>64.3</ele>
        <time>2020-07-01T07:43:33Z</time>
      </trkpt>
      <trkpt lat="49.07751" lon="3.63022">
        <ele>64.2</ele>
        <time>2020-07-01T07:43:34Z</time>
      </trkpt>
      <trkpt lat="49.07753" lon="3.63016">
        <ele>64.2</ele>
        <time>2020-07-01T07:43:35Z</time>
      </trkpt>
      <trkpt lat="49.07755" lon="3.63009">
        <ele>64.2</ele>
        <time>2020-07-01T07:43:36Z</time>
      </trkpt>
      <trkpt lat="49.07757" lon="3.63001">
        <ele>64.2</ele>
        <time>2020-07-01T07:43:37Z</time>
      </trkpt>
      <trkpt lat="49.07759" lon="3.62994">
        <ele>64.2</ele>
        <time>2020-07-01T07:43:38Z</time>
      </trkpt>
      <trkpt lat="49.07761" lon="3.62987">
        <ele>64.2</ele>
        <time>2020-07-01T07:43:39Z</time>
      </trkpt>
      <trkpt lat="49.07763" lon="3.6298">
        <ele>64.2</ele>
        <time>2020-07-01T07:43:40Z</time>
      </trkpt>
      <trkpt lat="49.07765" lon="3.62973">
        <ele>64.1</ele>
        <time>2020-07-01T07:43:41Z</time>
      </trkpt>
      <trkpt lat="49.07767" lon="3.62966">
        <ele>64.2</ele>
        <time>2020-07-01T07:43:42Z</time>
      </trkpt>
      <trkpt lat="49.07769" lon="3.62959">
        <ele>64.2</ele>
        <time>2020-07-01T07:43:43Z</time>
      </trkpt>
      <trkpt lat="49.07771" lon="3.62952">
        <ele>64.2</ele>
        <time>2020-07-01T07:43:44Z</time>
      </trkpt>
      <trkpt lat="49.07774" lon="3.62944">
        <ele>64.3</ele>
        <time>2020-07-01T07:43:45Z</time>
      </trkpt>
      <trkpt lat="49.07776" lon="3.62937">
        <ele>64.3</ele>
        <time>2020-07-01T07:43:46Z</time>
      </trkpt>
      <trkpt lat="49.07777" lon="3.62929">
        <ele>64.4</ele>
        <time>2020-07-01T07:43:47Z</time>
      </trkpt>
      <trkpt lat="49.07778" lon="3.62922">
        <ele>64.4</ele>
        <time>2020-07-01T07:43:48Z</time>
      </trkpt>
      <trkpt lat="49.0778" lon="3.62915">
        <ele>64.4</ele>
        <time>2020-07-01T07:43:49Z</time>
      </trkpt>
      <trkpt lat="49.07782" lon="3.62907">
        <ele>64.4</ele>
        <time>2020-07-01T07:43:50Z</time>
      </trkpt>
      <trkpt lat="49.07785" lon="3.629">
        <ele>64.4</ele>
        <time>2020-07-01T07:43:51Z</time>
      </trkpt>
      <trkpt lat="49.07787" lon="3.62893">
        <ele>64.4</ele>
        <time>2020-07-01T07:43:52Z</time>
      </trkpt>
      <trkpt lat="49.0779" lon="3.62886">
        <ele>64.3</ele>
        <time>2020-07-01T07:43:53Z</time>
      </trkpt>
      <trkpt lat="49.07792" lon="3.62879">
        <ele>64.3</ele>
        <time>2020-07-01T07:43:54Z</time>
      </trkpt>
      <trkpt lat="49.07794" lon="3.62872">
        <ele>64.3</ele>
        <time>2020-07-01T07:43:55Z</time>
      </trkpt>
      <trkpt lat="49.07795" lon="3.62865">
        <ele>64.3</ele>
        <time>2020-07-01T07:43:56Z</time>
      </trkpt>
      <trkpt lat="49.07797" lon="3.62858">
        <ele>64.3</ele>
        <time>2020-07-01T07:43:57Z</time>
      </trkpt>
      <trkpt lat="49.07799" lon="3.62851">
        <ele>64.3</ele>
        <time>2020-07-01T07:43:58Z</time>
      </trkpt>
      <trkpt lat="49.07801" lon="3.62843">
        <ele>64.3</ele>
        <time>2020-07-01T07:43:59Z</time>
      </trkpt>
      <trkpt lat="49.07802" lon="3.62835">
        <ele>64.3</ele>
        <time>2020-07-01T07:44:00Z</time>
      </trkpt>
      <trkpt lat="49.07804" lon="3.62828">
        <ele>64.4</ele>
        <time>2020-07-01T07:44:01Z</time>
      </trkpt>
      <trkpt lat="49.07807" lon="3.62821">
        <ele>64.4</ele>
        <time>2020-07-01T07:44:02Z</time>
      </trkpt>
      <trkpt lat="49.07808" lon="3.62815">
        <ele>64.5</ele>
        <time>2020-07-01T07:44:03Z</time>
      </trkpt>
      <trkpt lat="49.07811" lon="3.62808">
        <ele>64.5</ele>
        <time>2020-07-01T07:44:04Z</time>
      </trkpt>
      <trkpt lat="49.07813" lon="3.62801">
        <ele>64.6</ele>
        <time>2020-07-01T07:44:05Z</time>
      </trkpt>
      <trkpt lat="49.07815" lon="3.62794">
        <ele>64.7</ele>
        <time>2020-07-01T07:44:06Z</time>
      </trkpt>
      <trkpt lat="49.07816" lon="3.62787">
        <ele>64.8</ele>
        <time>2020-07-01T07:44:07Z</time>
      </trkpt>
      <trkpt lat="49.07818" lon="3.6278">
        <ele>65</ele>
        <time>2020-07-01T07:44:08Z</time>
      </trkpt>
      <trkpt lat="49.0782" lon="3.62773">
        <ele>65.1</ele>
        <time>2020-07-01T07:44:09Z</time>
      </trkpt>
      <trkpt lat="49.07822" lon="3.62766">
        <ele>65.3</ele>
        <time>2020-07-01T07:44:10Z</time>
      </trkpt>
      <trkpt lat="49.07823" lon="3.62759">
        <ele>65.3</ele>
        <time>2020-07-01T07:44:11Z</time>
      </trkpt>
      <trkpt lat="49.07826" lon="3.62753">
        <ele>65.3</ele>
        <time>2020-07-01T07:44:12Z</time>
      </trkpt>
      <trkpt lat="49.07828" lon="3.62747">
        <ele>65.3</ele>
        <time>2020-07-01T07:44:13Z</time>
      </trkpt>
      <trkpt lat="49.0783" lon="3.6274">
        <ele>65.3</ele>
        <time>2020-07-01T07:44:14Z</time>
      </trkpt>
      <trkpt lat="49.07832" lon="3.62734">
        <ele>65.3</ele>
        <time>2020-07-01T07:44:15Z</time>
      </trkpt>
      <trkpt lat="49.07834" lon="3.62728">
        <ele>65.4</ele>
        <time>2020-07-01T07:44:16Z</time>
      </trkpt>
      <trkpt lat="49.07835" lon="3.62721">
        <ele>65.5</ele>
        <time>2020-07-01T07:44:17Z</time>
      </trkpt>
      <trkpt lat="49.07837" lon="3.62715">
        <ele>65.6</ele>
        <time>2020-07-01T07:44:18Z</time>
      </trkpt>
      <trkpt lat="49.07838" lon="3.62709">
        <ele>65.7</ele>
        <time>2020-07-01T07:44:19Z</time>
      </trkpt>
      <trkpt lat="49.07839" lon="3.62703">
        <ele>65.9</ele>
        <time>2020-07-01T07:44:20Z</time>
      </trkpt>
      <trkpt lat="49.07839" lon="3.62696">
        <ele>66.1</ele>
        <time>2020-07-01T07:44:21Z</time>
      </trkpt>
      <trkpt lat="49.0784" lon="3.62691">
        <ele>66.2</ele>
        <time>2020-07-01T07:44:22Z</time>
      </trkpt>
      <trkpt lat="49.0784" lon="3.62685">
        <ele>66.4</ele>
        <time>2020-07-01T07:44:23Z</time>
      </trkpt>
      <trkpt lat="49.0784" lon="3.6268">
        <ele>66.5</ele>
        <time>2020-07-01T07:44:24Z</time>
      </trkpt>
      <trkpt lat="49.07842" lon="3.62675">
        <ele>66.7</ele>
        <time>2020-07-01T07:44:25Z</time>
      </trkpt>
      <trkpt lat="49.07842" lon="3.62669">
        <ele>66.8</ele>
        <time>2020-07-01T07:44:26Z</time>
      </trkpt>
      <trkpt lat="49.07843" lon="3.62664">
        <ele>67</ele>
        <time>2020-07-01T07:44:27Z</time>
      </trkpt>
      <trkpt lat="49.07844" lon="3.62658">
        <ele>67.2</ele>
        <time>2020-07-01T07:44:28Z</time>
      </trkpt>
      <trkpt lat="49.07845" lon="3.62653">
        <ele>67.3</ele>
        <time>2020-07-01T07:44:29Z</time>
      </trkpt>
      <trkpt lat="49.07845" lon="3.62647">
        <ele>67.5</ele>
        <time>2020-07-01T07:44:30Z</time>
      </trkpt>
      <trkpt lat="49.07845" lon="3.62642">
        <ele>67.7</ele>
        <time>2020-07-01T07:44:31Z</time>
      </trkpt>
      <trkpt lat="49.07846" lon="3.62636">
        <ele>67.9</ele>
        <time>2020-07-01T07:44:32Z</time>
      </trkpt>
      <trkpt lat="49.07846" lon="3.6263">
        <ele>68</ele>
        <time>2020-07-01T07:44:33Z</time>
      </trkpt>
      <trkpt lat="49.07846" lon="3.62624">
        <ele>68.2</ele>
        <time>2020-07-01T07:44:34Z</time>
      </trkpt>
      <trkpt lat="49.07846" lon="3.62618">
        <ele>68.4</ele>
        <time>2020-07-01T07:44:35Z</time>
      </trkpt>
      <trkpt lat="49.07846" lon="3.62612">
        <ele>68.6</ele>
        <time>2020-07-01T07:44:36Z</time>
      </trkpt>
      <trkpt lat="49.07845" lon="3.62606">
        <ele>68.8</ele>
        <time>2020-07-01T07:44:37Z</time>
      </trkpt>
      <trkpt lat="49.07845" lon="3.62601">
        <ele>68.9</ele>
        <time>2020-07-01T07:44:38Z</time>
      </trkpt>
      <trkpt lat="49.07845" lon="3.62596">
        <ele>69.1</ele>
        <time>2020-07-01T07:44:39Z</time>
      </trkpt>
      <trkpt lat="49.07845" lon="3.6259">
        <ele>69.2</ele>
        <time>2020-07-01T07:44:40Z</time>
      </trkpt>
      <trkpt lat="49.07845" lon="3.62585">
        <ele>69.4</ele>
        <time>2020-07-01T07:44:41Z</time>
      </trkpt>
      <trkpt lat="49.07845" lon="3.6258">
        <ele>69.6</ele>
        <time>2020-07-01T07:44:42Z</time>
      </trkpt>
      <trkpt lat="49.07844" lon="3.62574">
        <ele>69.7</ele>
        <time>2020-07-01T07:44:43Z</time>
      </trkpt>
      <trkpt lat="49.07843" lon="3.62567">
        <ele>69.9</ele>
        <time>2020-07-01T07:44:44Z</time>
      </trkpt>
      <trkpt lat="49.07843" lon="3.62561">
        <ele>70.1</ele>
        <time>2020-07-01T07:44:45Z</time>
      </trkpt>
      <trkpt lat="49.07843" lon="3.62555">
        <ele>70.3</ele>
        <time>2020-07-01T07:44:46Z</time>
      </trkpt>
      <trkpt lat="49.07843" lon="3.6255">
        <ele>70.5</ele>
        <time>2020-07-01T07:44:47Z</time>
      </trkpt>
      <trkpt lat="49.07843" lon="3.62544">
        <ele>70.6</ele>
        <time>2020-07-01T07:44:48Z</time>
      </trkpt>
      <trkpt lat="49.07844" lon="3.62539">
        <ele>70.8</ele>
        <time>2020-07-01T07:44:49Z</time>
      </trkpt>
      <trkpt lat="49.07843" lon="3.62533">
        <ele>71</ele>
        <time>2020-07-01T07:44:50Z</time>
      </trkpt>
      <trkpt lat="49.07843" lon="3.62527">
        <ele>71.2</ele>
        <time>2020-07-01T07:44:51Z</time>
      </trkpt>
      <trkpt lat="49.07843" lon="3.62522">
        <ele>71.3</ele>
        <time>2020-07-01T07:44:52Z</time>
      </trkpt>
      <trkpt lat="49.07842" lon="3.62517">
        <ele>71.5</ele>
        <time>2020-07-01T07:44:53Z</time>
      </trkpt>
      <trkpt lat="49.07843" lon="3.62511">
        <ele>71.7</ele>
        <time>2020-07-01T07:44:54Z</time>
      </trkpt>
      <trkpt lat="49.07844" lon="3.62505">
        <ele>71.8</ele>
        <time>2020-07-01T07:44:55Z</time>
      </trkpt>
      <trkpt lat="49.07845" lon="3.625">
        <ele>72</ele>
        <time>2020-07-01T07:44:56Z</time>
      </trkpt>
      <trkpt lat="49.07845" lon="3.62495">
        <ele>72.2</ele>
        <time>2020-07-01T07:44:57Z</time>
      </trkpt>
      <trkpt lat="49.07845" lon="3.62489">
        <ele>72.4</ele>
        <time>2020-07-01T07:44:58Z</time>
      </trkpt>
      <trkpt lat="49.07845" lon="3.62484">
        <ele>72.5</ele>
        <time>2020-07-01T07:44:59Z</time>
      </trkpt>
      <trkpt lat="49.07845" lon="3.62478">
        <ele>72.7</ele>
        <time>2020-07-01T07:45:00Z</time>
      </trkpt>
      <trkpt lat="49.07845" lon="3.62473">
        <ele>72.9</ele>
        <time>2020-07-01T07:45:01Z</time>
      </trkpt>
      <trkpt lat="49.07844" lon="3.62467">
        <ele>73</ele>
        <time>2020-07-01T07:45:02Z</time>
      </trkpt>
      <trkpt lat="49.07844" lon="3.62462">
        <ele>73.2</ele>
        <time>2020-07-01T07:45:03Z</time>
      </trkpt>
      <trkpt lat="49.07844" lon="3.62456">
        <ele>73.4</ele>
        <time>2020-07-01T07:45:04Z</time>
      </trkpt>
      <trkpt lat="49.07844" lon="3.62451">
        <ele>73.5</ele>
        <time>2020-07-01T07:45:05Z</time>
      </trkpt>
      <trkpt lat="49.07845" lon="3.62446">
        <ele>73.7</ele>
        <time>2020-07-01T07:45:06Z</time>
      </trkpt>
      <trkpt lat="49.07845" lon="3.6244">
        <ele>73.9</ele>
        <time>2020-07-01T07:45:07Z</time>
      </trkpt>
      <trkpt lat="49.07845" lon="3.62434">
        <ele>74.1</ele>
        <time>2020-07-01T07:45:08Z</time>
      </trkpt>
      <trkpt lat="49.07844" lon="3.62428">
        <ele>74.3</ele>
        <time>2020-07-01T07:45:09Z</time>
      </trkpt>
      <trkpt lat="49.07844" lon="3.62422">
        <ele>74.5</ele>
        <time>2020-07-01T07:45:10Z</time>
      </trkpt>
      <trkpt lat="49.07844" lon="3.62416">
        <ele>74.6</ele>
        <time>2020-07-01T07:45:11Z</time>
      </trkpt>
      <trkpt lat="49.07844" lon="3.62411">
        <ele>74.8</ele>
        <time>2020-07-01T07:45:12Z</time>
      </trkpt>
      <trkpt lat="49.07845" lon="3.62406">
        <ele>74.9</ele>
        <time>2020-07-01T07:45:13Z</time>
      </trkpt>
      <trkpt lat="49.07845" lon="3.62401">
        <ele>75.1</ele>
        <time>2020-07-01T07:45:14Z</time>
      </trkpt>
      <trkpt lat="49.07844" lon="3.62396">
        <ele>75.2</ele>
        <time>2020-07-01T07:45:15Z</time>
      </trkpt>
      <trkpt lat="49.07844" lon="3.62391">
        <ele>75.3</ele>
        <time>2020-07-01T07:45:16Z</time>
      </trkpt>
      <trkpt lat="49.07845" lon="3.62386">
        <ele>75.5</ele>
        <time>2020-07-01T07:45:17Z</time>
      </trkpt>
      <trkpt lat="49.07845" lon="3.6238">
        <ele>75.6</ele>
        <time>2020-07-01T07:45:18Z</time>
      </trkpt>
      <trkpt lat="49.07845" lon="3.62375">
        <ele>75.8</ele>
        <time>2020-07-01T07:45:19Z</time>
      </trkpt>
      <trkpt lat="49.07844" lon="3.62371">
        <ele>75.9</ele>
        <time>2020-07-01T07:45:20Z</time>
      </trkpt>
      <trkpt lat="49.07844" lon="3.62366">
        <ele>76</ele>
        <time>2020-07-01T07:45:21Z</time>
      </trkpt>
      <trkpt lat="49.07844" lon="3.62362">
        <ele>76.1</ele>
        <time>2020-07-01T07:45:22Z</time>
      </trkpt>
      <trkpt lat="49.07845" lon="3.62356">
        <ele>76.3</ele>
        <time>2020-07-01T07:45:23Z</time>
      </trkpt>
      <trkpt lat="49.07845" lon="3.62348">
        <ele>76.5</ele>
        <time>2020-07-01T07:45:24Z</time>
      </trkpt>
      <trkpt lat="49.07845" lon="3.62341">
        <ele>76.7</ele>
        <time>2020-07-01T07:45:25Z</time>
      </trkpt>
      <trkpt lat="49.07845" lon="3.62336">
        <ele>76.9</ele>
        <time>2020-07-01T07:45:26Z</time>
      </trkpt>
      <trkpt lat="49.07844" lon="3.62331">
        <ele>77</ele>
        <time>2020-07-01T07:45:27Z</time>
      </trkpt>
      <trkpt lat="49.07844" lon="3.62325">
        <ele>77.2</ele>
        <time>2020-07-01T07:45:28Z</time>
      </trkpt>
      <trkpt lat="49.07844" lon="3.6232">
        <ele>77.3</ele>
        <time>2020-07-01T07:45:29Z</time>
      </trkpt>
      <trkpt lat="49.07844" lon="3.62313">
        <ele>77.5</ele>
        <time>2020-07-01T07:45:30Z</time>
      </trkpt>
      <trkpt lat="49.07844" lon="3.62308">
        <ele>77.7</ele>
        <time>2020-07-01T07:45:31Z</time>
      </trkpt>
      <trkpt lat="49.07844" lon="3.62302">
        <ele>77.8</ele>
        <time>2020-07-01T07:45:32Z</time>
      </trkpt>
      <trkpt lat="49.07843" lon="3.62296">
        <ele>78</ele>
        <time>2020-07-01T07:45:33Z</time>
      </trkpt>
      <trkpt lat="49.07843" lon="3.62292">
        <ele>78.1</ele>
        <time>2020-07-01T07:45:34Z</time>
      </trkpt>
      <trkpt lat="49.07843" lon="3.62287">
        <ele>78.2</ele>
        <time>2020-07-01T07:45:35Z</time>
      </trkpt>
      <trkpt lat="49.07843" lon="3.62281">
        <ele>78.4</ele>
        <time>2020-07-01T07:45:36Z</time>
      </trkpt>
      <trkpt lat="49.07843" lon="3.62278">
        <ele>78.4</ele>
        <time>2020-07-01T07:45:37Z</time>
      </trkpt>
      <trkpt lat="49.07843" lon="3.62274">
        <ele>78.6</ele>
        <time>2020-07-01T07:45:38Z</time>
      </trkpt>
      <trkpt lat="49.07842" lon="3.62268">
        <ele>78.7</ele>
        <time>2020-07-01T07:45:39Z</time>
      </trkpt>
      <trkpt lat="49.07842" lon="3.62263">
        <ele>78.9</ele>
        <time>2020-07-01T07:45:40Z</time>
      </trkpt>
      <trkpt lat="49.07842" lon="3.62257">
        <ele>79.1</ele>
        <time>2020-07-01T07:45:41Z</time>
      </trkpt>
      <trkpt lat="49.07842" lon="3.62251">
        <ele>79.2</ele>
        <time>2020-07-01T07:45:42Z</time>
      </trkpt>
      <trkpt lat="49.07842" lon="3.62244">
        <ele>79.4</ele>
        <time>2020-07-01T07:45:43Z</time>
      </trkpt>
      <trkpt lat="49.07842" lon="3.62237">
        <ele>79.6</ele>
        <time>2020-07-01T07:45:44Z</time>
      </trkpt>
      <trkpt lat="49.07841" lon="3.62232">
        <ele>79.8</ele>
        <time>2020-07-01T07:45:45Z</time>
      </trkpt>
      <trkpt lat="49.07841" lon="3.62226">
        <ele>79.9</ele>
        <time>2020-07-01T07:45:46Z</time>
      </trkpt>
      <trkpt lat="49.07841" lon="3.62221">
        <ele>80</ele>
        <time>2020-07-01T07:45:47Z</time>
      </trkpt>
      <trkpt lat="49.07841" lon="3.62216">
        <ele>80.2</ele>
        <time>2020-07-01T07:45:48Z</time>
      </trkpt>
      <trkpt lat="49.07841" lon="3.62211">
        <ele>80.3</ele>
        <time>2020-07-01T07:45:49Z</time>
      </trkpt>
      <trkpt lat="49.07841" lon="3.62206">
        <ele>80.5</ele>
        <time>2020-07-01T07:45:50Z</time>
      </trkpt>
      <trkpt lat="49.07841" lon="3.622">
        <ele>80.6</ele>
        <time>2020-07-01T07:45:51Z</time>
      </trkpt>
      <trkpt lat="49.07841" lon="3.62195">
        <ele>80.8</ele>
        <time>2020-07-01T07:45:52Z</time>
      </trkpt>
      <trkpt lat="49.07841" lon="3.62189">
        <ele>80.9</ele>
        <time>2020-07-01T07:45:53Z</time>
      </trkpt>
      <trkpt lat="49.0784" lon="3.62187">
        <ele>81</ele>
        <time>2020-07-01T07:45:54Z</time>
      </trkpt>
      <trkpt lat="49.07841" lon="3.62181">
        <ele>81.2</ele>
        <time>2020-07-01T07:45:55Z</time>
      </trkpt>
      <trkpt lat="49.07841" lon="3.62176">
        <ele>81.3</ele>
        <time>2020-07-01T07:45:56Z</time>
      </trkpt>
      <trkpt lat="49.07841" lon="3.62171">
        <ele>81.4</ele>
        <time>2020-07-01T07:45:57Z</time>
      </trkpt>
      <trkpt lat="49.07841" lon="3.62165">
        <ele>81.6</ele>
        <time>2020-07-01T07:45:58Z</time>
      </trkpt>
      <trkpt lat="49.07841" lon="3.6216">
        <ele>81.7</ele>
        <time>2020-07-01T07:45:59Z</time>
      </trkpt>
      <trkpt lat="49.07841" lon="3.62153">
        <ele>81.9</ele>
        <time>2020-07-01T07:46:00Z</time>
      </trkpt>
      <trkpt lat="49.07841" lon="3.62149">
        <ele>82</ele>
        <time>2020-07-01T07:46:01Z</time>
      </trkpt>
      <trkpt lat="49.07841" lon="3.62142">
        <ele>82.2</ele>
        <time>2020-07-01T07:46:02Z</time>
      </trkpt>
      <trkpt lat="49.07841" lon="3.6214">
        <ele>82.2</ele>
        <time>2020-07-01T07:46:03Z</time>
      </trkpt>
      <trkpt lat="49.07841" lon="3.62135">
        <ele>82.3</ele>
        <time>2020-07-01T07:46:04Z</time>
      </trkpt>
      <trkpt lat="49.07841" lon="3.6213">
        <ele>82.5</ele>
        <time>2020-07-01T07:46:05Z</time>
      </trkpt>
      <trkpt lat="49.07841" lon="3.62124">
        <ele>82.6</ele>
        <time>2020-07-01T07:46:06Z</time>
      </trkpt>
      <trkpt lat="49.07841" lon="3.62118">
        <ele>82.7</ele>
        <time>2020-07-01T07:46:07Z</time>
      </trkpt>
      <trkpt lat="49.07841" lon="3.62115">
        <ele>82.8</ele>
        <time>2020-07-01T07:46:08Z</time>
      </trkpt>
      <trkpt lat="49.07841" lon="3.6211">
        <ele>82.9</ele>
        <time>2020-07-01T07:46:09Z</time>
      </trkpt>
      <trkpt lat="49.07841" lon="3.62105">
        <ele>83.1</ele>
        <time>2020-07-01T07:46:10Z</time>
      </trkpt>
      <trkpt lat="49.07841" lon="3.621">
        <ele>83.2</ele>
        <time>2020-07-01T07:46:11Z</time>
      </trkpt>
      <trkpt lat="49.07841" lon="3.62095">
        <ele>83.3</ele>
        <time>2020-07-01T07:46:12Z</time>
      </trkpt>
      <trkpt lat="49.0784" lon="3.6209">
        <ele>83.4</ele>
        <time>2020-07-01T07:46:13Z</time>
      </trkpt>
      <trkpt lat="49.0784" lon="3.62085">
        <ele>83.5</ele>
        <time>2020-07-01T07:46:14Z</time>
      </trkpt>
      <trkpt lat="49.0784" lon="3.6208">
        <ele>83.7</ele>
        <time>2020-07-01T07:46:15Z</time>
      </trkpt>
      <trkpt lat="49.0784" lon="3.62075">
        <ele>83.8</ele>
        <time>2020-07-01T07:46:16Z</time>
      </trkpt>
      <trkpt lat="49.0784" lon="3.6207">
        <ele>83.9</ele>
        <time>2020-07-01T07:46:17Z</time>
      </trkpt>
      <trkpt lat="49.0784" lon="3.62065">
        <ele>84.1</ele>
        <time>2020-07-01T07:46:18Z</time>
      </trkpt>
      <trkpt lat="49.0784" lon="3.6206">
        <ele>84.2</ele>
        <time>2020-07-01T07:46:19Z</time>
      </trkpt>
      <trkpt lat="49.0784" lon="3.62054">
        <ele>84.4</ele>
        <time>2020-07-01T07:46:20Z</time>
      </trkpt>
      <trkpt lat="49.0784" lon="3.6205">
        <ele>84.5</ele>
        <time>2020-07-01T07:46:21Z</time>
      </trkpt>
      <trkpt lat="49.0784" lon="3.62044">
        <ele>84.7</ele>
        <time>2020-07-01T07:46:22Z</time>
      </trkpt>
      <trkpt lat="49.0784" lon="3.62039">
        <ele>84.8</ele>
        <time>2020-07-01T07:46:23Z</time>
      </trkpt>
      <trkpt lat="49.07839" lon="3.62033">
        <ele>85</ele>
        <time>2020-07-01T07:46:24Z</time>
      </trkpt>
      <trkpt lat="49.07839" lon="3.62027">
        <ele>85.2</ele>
        <time>2020-07-01T07:46:25Z</time>
      </trkpt>
      <trkpt lat="49.0784" lon="3.62023">
        <ele>85.3</ele>
        <time>2020-07-01T07:46:26Z</time>
      </trkpt>
      <trkpt lat="49.07839" lon="3.62018">
        <ele>85.5</ele>
        <time>2020-07-01T07:46:27Z</time>
      </trkpt>
      <trkpt lat="49.07839" lon="3.62012">
        <ele>85.7</ele>
        <time>2020-07-01T07:46:28Z</time>
      </trkpt>
      <trkpt lat="49.07839" lon="3.62009">
        <ele>85.8</ele>
        <time>2020-07-01T07:46:29Z</time>
      </trkpt>
      <trkpt lat="49.07839" lon="3.62004">
        <ele>86</ele>
        <time>2020-07-01T07:46:30Z</time>
      </trkpt>
      <trkpt lat="49.07839" lon="3.61998">
        <ele>86.1</ele>
        <time>2020-07-01T07:46:31Z</time>
      </trkpt>
      <trkpt lat="49.07839" lon="3.61992">
        <ele>86.3</ele>
        <time>2020-07-01T07:46:32Z</time>
      </trkpt>
      <trkpt lat="49.07838" lon="3.6199">
        <ele>86.4</ele>
        <time>2020-07-01T07:46:33Z</time>
      </trkpt>
      <trkpt lat="49.07838" lon="3.61986">
        <ele>86.5</ele>
        <time>2020-07-01T07:46:34Z</time>
      </trkpt>
      <trkpt lat="49.07838" lon="3.6198">
        <ele>86.7</ele>
        <time>2020-07-01T07:46:35Z</time>
      </trkpt>
      <trkpt lat="49.07838" lon="3.61973">
        <ele>86.8</ele>
        <time>2020-07-01T07:46:36Z</time>
      </trkpt>
      <trkpt lat="49.07838" lon="3.61968">
        <ele>87</ele>
        <time>2020-07-01T07:46:37Z</time>
      </trkpt>
      <trkpt lat="49.07838" lon="3.61962">
        <ele>87.1</ele>
        <time>2020-07-01T07:46:38Z</time>
      </trkpt>
      <trkpt lat="49.07838" lon="3.61956">
        <ele>87.3</ele>
        <time>2020-07-01T07:46:39Z</time>
      </trkpt>
      <trkpt lat="49.07838" lon="3.61951">
        <ele>87.4</ele>
        <time>2020-07-01T07:46:40Z</time>
      </trkpt>
      <trkpt lat="49.07838" lon="3.61946">
        <ele>87.6</ele>
        <time>2020-07-01T07:46:41Z</time>
      </trkpt>
      <trkpt lat="49.07838" lon="3.61941">
        <ele>87.7</ele>
        <time>2020-07-01T07:46:42Z</time>
      </trkpt>
      <trkpt lat="49.07838" lon="3.6194">
        <ele>87.7</ele>
        <time>2020-07-01T07:46:43Z</time>
      </trkpt>
      <trkpt lat="49.07838" lon="3.61935">
        <ele>87.8</ele>
        <time>2020-07-01T07:46:44Z</time>
      </trkpt>
      <trkpt lat="49.07838" lon="3.6193">
        <ele>88</ele>
        <time>2020-07-01T07:46:45Z</time>
      </trkpt>
      <trkpt lat="49.07838" lon="3.61928">
        <ele>88</ele>
        <time>2020-07-01T07:46:46Z</time>
      </trkpt>
      <trkpt lat="49.07838" lon="3.61924">
        <ele>88.1</ele>
        <time>2020-07-01T07:46:47Z</time>
      </trkpt>
      <trkpt lat="49.07838" lon="3.61918">
        <ele>88.3</ele>
        <time>2020-07-01T07:46:48Z</time>
      </trkpt>
      <trkpt lat="49.07839" lon="3.61913">
        <ele>88.4</ele>
        <time>2020-07-01T07:46:49Z</time>
      </trkpt>
      <trkpt lat="49.07839" lon="3.61908">
        <ele>88.5</ele>
        <time>2020-07-01T07:46:50Z</time>
      </trkpt>
      <trkpt lat="49.07839" lon="3.61903">
        <ele>88.6</ele>
        <time>2020-07-01T07:46:51Z</time>
      </trkpt>
      <trkpt lat="49.07839" lon="3.61901">
        <ele>88.7</ele>
        <time>2020-07-01T07:46:52Z</time>
      </trkpt>
      <trkpt lat="49.07839" lon="3.61895">
        <ele>88.8</ele>
        <time>2020-07-01T07:46:53Z</time>
      </trkpt>
      <trkpt lat="49.07838" lon="3.61891">
        <ele>88.9</ele>
        <time>2020-07-01T07:46:54Z</time>
      </trkpt>
      <trkpt lat="49.07839" lon="3.61886">
        <ele>89</ele>
        <time>2020-07-01T07:46:55Z</time>
      </trkpt>
      <trkpt lat="49.07838" lon="3.61884">
        <ele>89</ele>
        <time>2020-07-01T07:46:56Z</time>
      </trkpt>
      <trkpt lat="49.07839" lon="3.61879">
        <ele>89.1</ele>
        <time>2020-07-01T07:46:57Z</time>
      </trkpt>
      <trkpt lat="49.07839" lon="3.61877">
        <ele>89.1</ele>
        <time>2020-07-01T07:46:58Z</time>
      </trkpt>
      <trkpt lat="49.07839" lon="3.61872">
        <ele>89.2</ele>
        <time>2020-07-01T07:46:59Z</time>
      </trkpt>
      <trkpt lat="49.07839" lon="3.61868">
        <ele>89.3</ele>
        <time>2020-07-01T07:47:00Z</time>
      </trkpt>
      <trkpt lat="49.07839" lon="3.61862">
        <ele>89.3</ele>
        <time>2020-07-01T07:47:01Z</time>
      </trkpt>
      <trkpt lat="49.07839" lon="3.61859">
        <ele>89.4</ele>
        <time>2020-07-01T07:47:02Z</time>
      </trkpt>
      <trkpt lat="49.07839" lon="3.61854">
        <ele>89.4</ele>
        <time>2020-07-01T07:47:03Z</time>
      </trkpt>
      <trkpt lat="49.07839" lon="3.61851">
        <ele>89.4</ele>
        <time>2020-07-01T07:47:04Z</time>
      </trkpt>
      <trkpt lat="49.07839" lon="3.61847">
        <ele>89.4</ele>
        <time>2020-07-01T07:47:05Z</time>
      </trkpt>
      <trkpt lat="49.07839" lon="3.61841">
        <ele>89.4</ele>
        <time>2020-07-01T07:47:06Z</time>
      </trkpt>
      <trkpt lat="49.07839" lon="3.61839">
        <ele>89.5</ele>
        <time>2020-07-01T07:47:07Z</time>
      </trkpt>
      <trkpt lat="49.07839" lon="3.61834">
        <ele>89.5</ele>
        <time>2020-07-01T07:47:08Z</time>
      </trkpt>
      <trkpt lat="49.07838" lon="3.61828">
        <ele>89.5</ele>
        <time>2020-07-01T07:47:09Z</time>
      </trkpt>
      <trkpt lat="49.07838" lon="3.61822">
        <ele>89.5</ele>
        <time>2020-07-01T07:47:10Z</time>
      </trkpt>
      <trkpt lat="49.07838" lon="3.61816">
        <ele>89.5</ele>
        <time>2020-07-01T07:47:11Z</time>
      </trkpt>
      <trkpt lat="49.07837" lon="3.6181">
        <ele>89.5</ele>
        <time>2020-07-01T07:47:12Z</time>
      </trkpt>
      <trkpt lat="49.07837" lon="3.61807">
        <ele>89.5</ele>
        <time>2020-07-01T07:47:13Z</time>
      </trkpt>
      <trkpt lat="49.07836" lon="3.61802">
        <ele>89.5</ele>
        <time>2020-07-01T07:47:14Z</time>
      </trkpt>
      <trkpt lat="49.07836" lon="3.61797">
        <ele>89.5</ele>
        <time>2020-07-01T07:47:15Z</time>
      </trkpt>
      <trkpt lat="49.07836" lon="3.61791">
        <ele>89.4</ele>
        <time>2020-07-01T07:47:16Z</time>
      </trkpt>
      <trkpt lat="49.07836" lon="3.61786">
        <ele>89.4</ele>
        <time>2020-07-01T07:47:17Z</time>
      </trkpt>
      <trkpt lat="49.07836" lon="3.61781">
        <ele>89.4</ele>
        <time>2020-07-01T07:47:18Z</time>
      </trkpt>
      <trkpt lat="49.07836" lon="3.61777">
        <ele>89.3</ele>
        <time>2020-07-01T07:47:19Z</time>
      </trkpt>
      <trkpt lat="49.07836" lon="3.61771">
        <ele>89.3</ele>
        <time>2020-07-01T07:47:20Z</time>
      </trkpt>
      <trkpt lat="49.07835" lon="3.61764">
        <ele>89.2</ele>
        <time>2020-07-01T07:47:21Z</time>
      </trkpt>
      <trkpt lat="49.07834" lon="3.61758">
        <ele>89.2</ele>
        <time>2020-07-01T07:47:22Z</time>
      </trkpt>
      <trkpt lat="49.07833" lon="3.61752">
        <ele>89.1</ele>
        <time>2020-07-01T07:47:23Z</time>
      </trkpt>
      <trkpt lat="49.07832" lon="3.61744">
        <ele>89.1</ele>
        <time>2020-07-01T07:47:24Z</time>
      </trkpt>
      <trkpt lat="49.07831" lon="3.61737">
        <ele>89.1</ele>
        <time>2020-07-01T07:47:25Z</time>
      </trkpt>
      <trkpt lat="49.0783" lon="3.6173">
        <ele>88.9</ele>
        <time>2020-07-01T07:47:26Z</time>
      </trkpt>
      <trkpt lat="49.07829" lon="3.61725">
        <ele>88.8</ele>
        <time>2020-07-01T07:47:27Z</time>
      </trkpt>
      <trkpt lat="49.07827" lon="3.61719">
        <ele>88.7</ele>
        <time>2020-07-01T07:47:28Z</time>
      </trkpt>
      <trkpt lat="49.07826" lon="3.61712">
        <ele>88.5</ele>
        <time>2020-07-01T07:47:29Z</time>
      </trkpt>
      <trkpt lat="49.07825" lon="3.61707">
        <ele>88.4</ele>
        <time>2020-07-01T07:47:30Z</time>
      </trkpt>
      <trkpt lat="49.07823" lon="3.61701">
        <ele>88.2</ele>
        <time>2020-07-01T07:47:31Z</time>
      </trkpt>
      <trkpt lat="49.07821" lon="3.61694">
        <ele>88.1</ele>
        <time>2020-07-01T07:47:32Z</time>
      </trkpt>
      <trkpt lat="49.07819" lon="3.61684">
        <ele>87.8</ele>
        <time>2020-07-01T07:47:33Z</time>
      </trkpt>
      <trkpt lat="49.07816" lon="3.61676">
        <ele>87.7</ele>
        <time>2020-07-01T07:47:34Z</time>
      </trkpt>
      <trkpt lat="49.07814" lon="3.61669">
        <ele>87.5</ele>
        <time>2020-07-01T07:47:35Z</time>
      </trkpt>
      <trkpt lat="49.07812" lon="3.61662">
        <ele>87.3</ele>
        <time>2020-07-01T07:47:36Z</time>
      </trkpt>
      <trkpt lat="49.07809" lon="3.61654">
        <ele>87.2</ele>
        <time>2020-07-01T07:47:37Z</time>
      </trkpt>
      <trkpt lat="49.07807" lon="3.61646">
        <ele>87</ele>
        <time>2020-07-01T07:47:38Z</time>
      </trkpt>
      <trkpt lat="49.07805" lon="3.61637">
        <ele>86.9</ele>
        <time>2020-07-01T07:47:39Z</time>
      </trkpt>
      <trkpt lat="49.07802" lon="3.6163">
        <ele>86.7</ele>
        <time>2020-07-01T07:47:40Z</time>
      </trkpt>
      <trkpt lat="49.07799" lon="3.61622">
        <ele>86.6</ele>
        <time>2020-07-01T07:47:41Z</time>
      </trkpt>
      <trkpt lat="49.07797" lon="3.61613">
        <ele>86.4</ele>
        <time>2020-07-01T07:47:42Z</time>
      </trkpt>
      <trkpt lat="49.07795" lon="3.61606">
        <ele>86.2</ele>
        <time>2020-07-01T07:47:43Z</time>
      </trkpt>
      <trkpt lat="49.07792" lon="3.61598">
        <ele>86</ele>
        <time>2020-07-01T07:47:44Z</time>
      </trkpt>
      <trkpt lat="49.07789" lon="3.61589">
        <ele>85.8</ele>
        <time>2020-07-01T07:47:45Z</time>
      </trkpt>
      <trkpt lat="49.07786" lon="3.6158">
        <ele>85.6</ele>
        <time>2020-07-01T07:47:46Z</time>
      </trkpt>
      <trkpt lat="49.07784" lon="3.61573">
        <ele>85.5</ele>
        <time>2020-07-01T07:47:47Z</time>
      </trkpt>
      <trkpt lat="49.0778" lon="3.61565">
        <ele>85.2</ele>
        <time>2020-07-01T07:47:48Z</time>
      </trkpt>
      <trkpt lat="49.07778" lon="3.61556">
        <ele>85</ele>
        <time>2020-07-01T07:47:49Z</time>
      </trkpt>
      <trkpt lat="49.07776" lon="3.61549">
        <ele>84.9</ele>
        <time>2020-07-01T07:47:50Z</time>
      </trkpt>
      <trkpt lat="49.07774" lon="3.61541">
        <ele>84.7</ele>
        <time>2020-07-01T07:47:51Z</time>
      </trkpt>
      <trkpt lat="49.07772" lon="3.61533">
        <ele>84.5</ele>
        <time>2020-07-01T07:47:52Z</time>
      </trkpt>
      <trkpt lat="49.0777" lon="3.61527">
        <ele>84.4</ele>
        <time>2020-07-01T07:47:53Z</time>
      </trkpt>
      <trkpt lat="49.07768" lon="3.6152">
        <ele>84.2</ele>
        <time>2020-07-01T07:47:54Z</time>
      </trkpt>
      <trkpt lat="49.07766" lon="3.61512">
        <ele>84</ele>
        <time>2020-07-01T07:47:55Z</time>
      </trkpt>
      <trkpt lat="49.07763" lon="3.61505">
        <ele>83.9</ele>
        <time>2020-07-01T07:47:56Z</time>
      </trkpt>
      <trkpt lat="49.07761" lon="3.61498">
        <ele>83.8</ele>
        <time>2020-07-01T07:47:57Z</time>
      </trkpt>
      <trkpt lat="49.07759" lon="3.61491">
        <ele>83.6</ele>
        <time>2020-07-01T07:47:58Z</time>
      </trkpt>
      <trkpt lat="49.07756" lon="3.61483">
        <ele>83.4</ele>
        <time>2020-07-01T07:47:59Z</time>
      </trkpt>
      <trkpt lat="49.07754" lon="3.61473">
        <ele>83.2</ele>
        <time>2020-07-01T07:48:00Z</time>
      </trkpt>
      <trkpt lat="49.07752" lon="3.61463">
        <ele>83</ele>
        <time>2020-07-01T07:48:01Z</time>
      </trkpt>
      <trkpt lat="49.0775" lon="3.61454">
        <ele>82.8</ele>
        <time>2020-07-01T07:48:02Z</time>
      </trkpt>
      <trkpt lat="49.07747" lon="3.61446">
        <ele>82.7</ele>
        <time>2020-07-01T07:48:03Z</time>
      </trkpt>
      <trkpt lat="49.07745" lon="3.61439">
        <ele>82.6</ele>
        <time>2020-07-01T07:48:04Z</time>
      </trkpt>
      <trkpt lat="49.07743" lon="3.61431">
        <ele>82.4</ele>
        <time>2020-07-01T07:48:05Z</time>
      </trkpt>
      <trkpt lat="49.0774" lon="3.61423">
        <ele>82.3</ele>
        <time>2020-07-01T07:48:06Z</time>
      </trkpt>
      <trkpt lat="49.07737" lon="3.61413">
        <ele>82.1</ele>
        <time>2020-07-01T07:48:07Z</time>
      </trkpt>
      <trkpt lat="49.07735" lon="3.61402">
        <ele>81.9</ele>
        <time>2020-07-01T07:48:08Z</time>
      </trkpt>
      <trkpt lat="49.07732" lon="3.61394">
        <ele>81.7</ele>
        <time>2020-07-01T07:48:09Z</time>
      </trkpt>
      <trkpt lat="49.07729" lon="3.61386">
        <ele>81.6</ele>
        <time>2020-07-01T07:48:10Z</time>
      </trkpt>
      <trkpt lat="49.07726" lon="3.61378">
        <ele>81.4</ele>
        <time>2020-07-01T07:48:11Z</time>
      </trkpt>
      <trkpt lat="49.07724" lon="3.61369">
        <ele>81.3</ele>
        <time>2020-07-01T07:48:12Z</time>
      </trkpt>
      <trkpt lat="49.07721" lon="3.61359">
        <ele>81.1</ele>
        <time>2020-07-01T07:48:13Z</time>
      </trkpt>
      <trkpt lat="49.07719" lon="3.61352">
        <ele>81</ele>
        <time>2020-07-01T07:48:14Z</time>
      </trkpt>
      <trkpt lat="49.07717" lon="3.61344">
        <ele>80.9</ele>
        <time>2020-07-01T07:48:15Z</time>
      </trkpt>
      <trkpt lat="49.07716" lon="3.61336">
        <ele>80.7</ele>
        <time>2020-07-01T07:48:16Z</time>
      </trkpt>
      <trkpt lat="49.07713" lon="3.61325">
        <ele>80.5</ele>
        <time>2020-07-01T07:48:17Z</time>
      </trkpt>
      <trkpt lat="49.07711" lon="3.61317">
        <ele>80.4</ele>
        <time>2020-07-01T07:48:18Z</time>
      </trkpt>
      <trkpt lat="49.07708" lon="3.6131">
        <ele>80.3</ele>
        <time>2020-07-01T07:48:19Z</time>
      </trkpt>
      <trkpt lat="49.07705" lon="3.61301">
        <ele>80.1</ele>
        <time>2020-07-01T07:48:20Z</time>
      </trkpt>
      <trkpt lat="49.07702" lon="3.61293">
        <ele>80</ele>
        <time>2020-07-01T07:48:21Z</time>
      </trkpt>
      <trkpt lat="49.07699" lon="3.61284">
        <ele>79.8</ele>
        <time>2020-07-01T07:48:22Z</time>
      </trkpt>
      <trkpt lat="49.07696" lon="3.61274">
        <ele>79.6</ele>
        <time>2020-07-01T07:48:23Z</time>
      </trkpt>
      <trkpt lat="49.07693" lon="3.61265">
        <ele>79.4</ele>
        <time>2020-07-01T07:48:24Z</time>
      </trkpt>
      <trkpt lat="49.07691" lon="3.61256">
        <ele>79.2</ele>
        <time>2020-07-01T07:48:25Z</time>
      </trkpt>
      <trkpt lat="49.07688" lon="3.61247">
        <ele>79</ele>
        <time>2020-07-01T07:48:26Z</time>
      </trkpt>
      <trkpt lat="49.07686" lon="3.61238">
        <ele>78.8</ele>
        <time>2020-07-01T07:48:27Z</time>
      </trkpt>
      <trkpt lat="49.07684" lon="3.6123">
        <ele>78.6</ele>
        <time>2020-07-01T07:48:28Z</time>
      </trkpt>
      <trkpt lat="49.07681" lon="3.61221">
        <ele>78.5</ele>
        <time>2020-07-01T07:48:29Z</time>
      </trkpt>
      <trkpt lat="49.07679" lon="3.61212">
        <ele>78.3</ele>
        <time>2020-07-01T07:48:30Z</time>
      </trkpt>
      <trkpt lat="49.07676" lon="3.61202">
        <ele>78.2</ele>
        <time>2020-07-01T07:48:31Z</time>
      </trkpt>
      <trkpt lat="49.07674" lon="3.61194">
        <ele>78.1</ele>
        <time>2020-07-01T07:48:32Z</time>
      </trkpt>
      <trkpt lat="49.07671" lon="3.61185">
        <ele>77.9</ele>
        <time>2020-07-01T07:48:33Z</time>
      </trkpt>
      <trkpt lat="49.07669" lon="3.61177">
        <ele>77.8</ele>
        <time>2020-07-01T07:48:34Z</time>
      </trkpt>
      <trkpt lat="49.07667" lon="3.61169">
        <ele>77.5</ele>
        <time>2020-07-01T07:48:35Z</time>
      </trkpt>
      <trkpt lat="49.07664" lon="3.61161">
        <ele>77.3</ele>
        <time>2020-07-01T07:48:36Z</time>
      </trkpt>
      <trkpt lat="49.07662" lon="3.61155">
        <ele>77.2</ele>
        <time>2020-07-01T07:48:37Z</time>
      </trkpt>
      <trkpt lat="49.0766" lon="3.61149">
        <ele>77</ele>
        <time>2020-07-01T07:48:38Z</time>
      </trkpt>
      <trkpt lat="49.07657" lon="3.61142">
        <ele>76.9</ele>
        <time>2020-07-01T07:48:39Z</time>
      </trkpt>
      <trkpt lat="49.07654" lon="3.61136">
        <ele>76.7</ele>
        <time>2020-07-01T07:48:40Z</time>
      </trkpt>
      <trkpt lat="49.07652" lon="3.6113">
        <ele>76.6</ele>
        <time>2020-07-01T07:48:41Z</time>
      </trkpt>
      <trkpt lat="49.07649" lon="3.61124">
        <ele>76.4</ele>
        <time>2020-07-01T07:48:42Z</time>
      </trkpt>
      <trkpt lat="49.07646" lon="3.61118">
        <ele>76.3</ele>
        <time>2020-07-01T07:48:43Z</time>
      </trkpt>
      <trkpt lat="49.07643" lon="3.61113">
        <ele>76.2</ele>
        <time>2020-07-01T07:48:44Z</time>
      </trkpt>
      <trkpt lat="49.07639" lon="3.61107">
        <ele>76</ele>
        <time>2020-07-01T07:48:45Z</time>
      </trkpt>
      <trkpt lat="49.07633" lon="3.61101">
        <ele>75.9</ele>
        <time>2020-07-01T07:48:46Z</time>
      </trkpt>
      <trkpt lat="49.07629" lon="3.61094">
        <ele>75.8</ele>
        <time>2020-07-01T07:48:47Z</time>
      </trkpt>
      <trkpt lat="49.07625" lon="3.61088">
        <ele>75.6</ele>
        <time>2020-07-01T07:48:48Z</time>
      </trkpt>
      <trkpt lat="49.07621" lon="3.61083">
        <ele>75.4</ele>
        <time>2020-07-01T07:48:49Z</time>
      </trkpt>
      <trkpt lat="49.07616" lon="3.61076">
        <ele>75.2</ele>
        <time>2020-07-01T07:48:50Z</time>
      </trkpt>
      <trkpt lat="49.07612" lon="3.61068">
        <ele>75</ele>
        <time>2020-07-01T07:48:51Z</time>
      </trkpt>
      <trkpt lat="49.07607" lon="3.61062">
        <ele>74.8</ele>
        <time>2020-07-01T07:48:52Z</time>
      </trkpt>
      <trkpt lat="49.07603" lon="3.61056">
        <ele>74.6</ele>
        <time>2020-07-01T07:48:53Z</time>
      </trkpt>
      <trkpt lat="49.07599" lon="3.6105">
        <ele>74.4</ele>
        <time>2020-07-01T07:48:54Z</time>
      </trkpt>
      <trkpt lat="49.07595" lon="3.61045">
        <ele>74.3</ele>
        <time>2020-07-01T07:48:55Z</time>
      </trkpt>
      <trkpt lat="49.07591" lon="3.61039">
        <ele>74.1</ele>
        <time>2020-07-01T07:48:56Z</time>
      </trkpt>
      <trkpt lat="49.07589" lon="3.61032">
        <ele>73.9</ele>
        <time>2020-07-01T07:48:57Z</time>
      </trkpt>
      <trkpt lat="49.07585" lon="3.61024">
        <ele>73.7</ele>
        <time>2020-07-01T07:48:58Z</time>
      </trkpt>
      <trkpt lat="49.07581" lon="3.61017">
        <ele>73.6</ele>
        <time>2020-07-01T07:48:59Z</time>
      </trkpt>
      <trkpt lat="49.07577" lon="3.61011">
        <ele>73.4</ele>
        <time>2020-07-01T07:49:00Z</time>
      </trkpt>
      <trkpt lat="49.07574" lon="3.61005">
        <ele>73.3</ele>
        <time>2020-07-01T07:49:01Z</time>
      </trkpt>
      <trkpt lat="49.07569" lon="3.60998">
        <ele>73.1</ele>
        <time>2020-07-01T07:49:02Z</time>
      </trkpt>
      <trkpt lat="49.07565" lon="3.60988">
        <ele>73</ele>
        <time>2020-07-01T07:49:03Z</time>
      </trkpt>
      <trkpt lat="49.07562" lon="3.6098">
        <ele>72.9</ele>
        <time>2020-07-01T07:49:04Z</time>
      </trkpt>
      <trkpt lat="49.07559" lon="3.60971">
        <ele>72.8</ele>
        <time>2020-07-01T07:49:05Z</time>
      </trkpt>
      <trkpt lat="49.07557" lon="3.60961">
        <ele>72.7</ele>
        <time>2020-07-01T07:49:06Z</time>
      </trkpt>
      <trkpt lat="49.07557" lon="3.60951">
        <ele>72.6</ele>
        <time>2020-07-01T07:49:07Z</time>
      </trkpt>
      <trkpt lat="49.07559" lon="3.60943">
        <ele>72.5</ele>
        <time>2020-07-01T07:49:08Z</time>
      </trkpt>
      <trkpt lat="49.07562" lon="3.60935">
        <ele>72.3</ele>
        <time>2020-07-01T07:49:09Z</time>
      </trkpt>
      <trkpt lat="49.07565" lon="3.60928">
        <ele>72.2</ele>
        <time>2020-07-01T07:49:10Z</time>
      </trkpt>
      <trkpt lat="49.07568" lon="3.6092">
        <ele>72.1</ele>
        <time>2020-07-01T07:49:11Z</time>
      </trkpt>
      <trkpt lat="49.07571" lon="3.60913">
        <ele>72</ele>
        <time>2020-07-01T07:49:12Z</time>
      </trkpt>
      <trkpt lat="49.07573" lon="3.60906">
        <ele>72</ele>
        <time>2020-07-01T07:49:13Z</time>
      </trkpt>
      <trkpt lat="49.07576" lon="3.60897">
        <ele>71.9</ele>
        <time>2020-07-01T07:49:14Z</time>
      </trkpt>
      <trkpt lat="49.07581" lon="3.60889">
        <ele>71.8</ele>
        <time>2020-07-01T07:49:15Z</time>
      </trkpt>
      <trkpt lat="49.07585" lon="3.6088">
        <ele>71.7</ele>
        <time>2020-07-01T07:49:16Z</time>
      </trkpt>
      <trkpt lat="49.07588" lon="3.60871">
        <ele>71.6</ele>
        <time>2020-07-01T07:49:17Z</time>
      </trkpt>
      <trkpt lat="49.07592" lon="3.60861">
        <ele>71.5</ele>
        <time>2020-07-01T07:49:18Z</time>
      </trkpt>
      <trkpt lat="49.07595" lon="3.60853">
        <ele>71.4</ele>
        <time>2020-07-01T07:49:19Z</time>
      </trkpt>
      <trkpt lat="49.07598" lon="3.60845">
        <ele>71.4</ele>
        <time>2020-07-01T07:49:20Z</time>
      </trkpt>
      <trkpt lat="49.076" lon="3.60837">
        <ele>71.4</ele>
        <time>2020-07-01T07:49:21Z</time>
      </trkpt>
      <trkpt lat="49.07604" lon="3.60828">
        <ele>71.3</ele>
        <time>2020-07-01T07:49:22Z</time>
      </trkpt>
      <trkpt lat="49.07607" lon="3.6082">
        <ele>71.3</ele>
        <time>2020-07-01T07:49:23Z</time>
      </trkpt>
      <trkpt lat="49.07609" lon="3.6081">
        <ele>71.4</ele>
        <time>2020-07-01T07:49:24Z</time>
      </trkpt>
      <trkpt lat="49.07613" lon="3.60801">
        <ele>71.4</ele>
        <time>2020-07-01T07:49:25Z</time>
      </trkpt>
      <trkpt lat="49.07615" lon="3.60795">
        <ele>71.3</ele>
        <time>2020-07-01T07:49:26Z</time>
      </trkpt>
      <trkpt lat="49.07618" lon="3.6079">
        <ele>71.3</ele>
        <time>2020-07-01T07:49:27Z</time>
      </trkpt>
      <trkpt lat="49.07621" lon="3.60784">
        <ele>71.2</ele>
        <time>2020-07-01T07:49:28Z</time>
      </trkpt>
      <trkpt lat="49.07625" lon="3.60777">
        <ele>71.1</ele>
        <time>2020-07-01T07:49:29Z</time>
      </trkpt>
      <trkpt lat="49.07629" lon="3.60771">
        <ele>71.1</ele>
        <time>2020-07-01T07:49:30Z</time>
      </trkpt>
      <trkpt lat="49.07635" lon="3.60766">
        <ele>71</ele>
        <time>2020-07-01T07:49:31Z</time>
      </trkpt>
      <trkpt lat="49.0764" lon="3.60761">
        <ele>71</ele>
        <time>2020-07-01T07:49:32Z</time>
      </trkpt>
      <trkpt lat="49.07645" lon="3.60757">
        <ele>70.9</ele>
        <time>2020-07-01T07:49:33Z</time>
      </trkpt>
      <trkpt lat="49.07651" lon="3.60753">
        <ele>70.9</ele>
        <time>2020-07-01T07:49:34Z</time>
      </trkpt>
      <trkpt lat="49.07656" lon="3.6075">
        <ele>70.8</ele>
        <time>2020-07-01T07:49:35Z</time>
      </trkpt>
      <trkpt lat="49.07661" lon="3.60747">
        <ele>70.8</ele>
        <time>2020-07-01T07:49:36Z</time>
      </trkpt>
      <trkpt lat="49.07666" lon="3.60744">
        <ele>70.8</ele>
        <time>2020-07-01T07:49:37Z</time>
      </trkpt>
      <trkpt lat="49.07671" lon="3.60741">
        <ele>70.8</ele>
        <time>2020-07-01T07:49:38Z</time>
      </trkpt>
      <trkpt lat="49.07676" lon="3.60739">
        <ele>70.8</ele>
        <time>2020-07-01T07:49:39Z</time>
      </trkpt>
      <trkpt lat="49.07681" lon="3.60739">
        <ele>70.8</ele>
        <time>2020-07-01T07:49:40Z</time>
      </trkpt>
      <trkpt lat="49.07685" lon="3.60737">
        <ele>70.8</ele>
        <time>2020-07-01T07:49:41Z</time>
      </trkpt>
      <trkpt lat="49.07689" lon="3.60734">
        <ele>70.9</ele>
        <time>2020-07-01T07:49:42Z</time>
      </trkpt>
      <trkpt lat="49.07692" lon="3.60728">
        <ele>70.6</ele>
        <time>2020-07-01T07:49:43Z</time>
      </trkpt>
      <trkpt lat="49.07693" lon="3.60723">
        <ele>70.5</ele>
        <time>2020-07-01T07:49:44Z</time>
      </trkpt>
      <trkpt lat="49.07692" lon="3.60714">
        <ele>70.2</ele>
        <time>2020-07-01T07:49:45Z</time>
      </trkpt>
      <trkpt lat="49.0769" lon="3.60708">
        <ele>70.1</ele>
        <time>2020-07-01T07:49:46Z</time>
      </trkpt>
      <trkpt lat="49.07688" lon="3.60702">
        <ele>69.9</ele>
        <time>2020-07-01T07:49:47Z</time>
      </trkpt>
      <trkpt lat="49.07686" lon="3.60695">
        <ele>69.7</ele>
        <time>2020-07-01T07:49:48Z</time>
      </trkpt>
      <trkpt lat="49.07683" lon="3.60688">
        <ele>69.5</ele>
        <time>2020-07-01T07:49:49Z</time>
      </trkpt>
      <trkpt lat="49.07679" lon="3.60681">
        <ele>69.3</ele>
        <time>2020-07-01T07:49:50Z</time>
      </trkpt>
      <trkpt lat="49.07676" lon="3.60673">
        <ele>69.1</ele>
        <time>2020-07-01T07:49:51Z</time>
      </trkpt>
      <trkpt lat="49.07672" lon="3.60667">
        <ele>69</ele>
        <time>2020-07-01T07:49:52Z</time>
      </trkpt>
      <trkpt lat="49.07669" lon="3.6066">
        <ele>68.8</ele>
        <time>2020-07-01T07:49:53Z</time>
      </trkpt>
      <trkpt lat="49.07666" lon="3.60654">
        <ele>68.7</ele>
        <time>2020-07-01T07:49:54Z</time>
      </trkpt>
      <trkpt lat="49.07664" lon="3.60645">
        <ele>68.6</ele>
        <time>2020-07-01T07:49:55Z</time>
      </trkpt>
      <trkpt lat="49.07661" lon="3.60638">
        <ele>68.4</ele>
        <time>2020-07-01T07:49:56Z</time>
      </trkpt>
      <trkpt lat="49.07658" lon="3.60631">
        <ele>68.3</ele>
        <time>2020-07-01T07:49:57Z</time>
      </trkpt>
      <trkpt lat="49.07654" lon="3.60623">
        <ele>68.2</ele>
        <time>2020-07-01T07:49:58Z</time>
      </trkpt>
      <trkpt lat="49.07651" lon="3.60616">
        <ele>68.2</ele>
        <time>2020-07-01T07:49:59Z</time>
      </trkpt>
      <trkpt lat="49.07647" lon="3.60609">
        <ele>68.1</ele>
        <time>2020-07-01T07:50:00Z</time>
      </trkpt>
      <trkpt lat="49.07641" lon="3.60605">
        <ele>68</ele>
        <time>2020-07-01T07:50:01Z</time>
      </trkpt>
      <trkpt lat="49.07635" lon="3.606">
        <ele>67.8</ele>
        <time>2020-07-01T07:50:02Z</time>
      </trkpt>
      <trkpt lat="49.0763" lon="3.60598">
        <ele>67.6</ele>
        <time>2020-07-01T07:50:03Z</time>
      </trkpt>
      <trkpt lat="49.07624" lon="3.60596">
        <ele>67.5</ele>
        <time>2020-07-01T07:50:04Z</time>
      </trkpt>
      <trkpt lat="49.07618" lon="3.60592">
        <ele>67.5</ele>
        <time>2020-07-01T07:50:05Z</time>
      </trkpt>
      <trkpt lat="49.07613" lon="3.60587">
        <ele>67.4</ele>
        <time>2020-07-01T07:50:06Z</time>
      </trkpt>
      <trkpt lat="49.07607" lon="3.60584">
        <ele>67.4</ele>
        <time>2020-07-01T07:50:07Z</time>
      </trkpt>
      <trkpt lat="49.07601" lon="3.60581">
        <ele>67.4</ele>
        <time>2020-07-01T07:50:08Z</time>
      </trkpt>
      <trkpt lat="49.07595" lon="3.60578">
        <ele>67.4</ele>
        <time>2020-07-01T07:50:09Z</time>
      </trkpt>
      <trkpt lat="49.07589" lon="3.60576">
        <ele>67.5</ele>
        <time>2020-07-01T07:50:10Z</time>
      </trkpt>
      <trkpt lat="49.07583" lon="3.60574">
        <ele>67.5</ele>
        <time>2020-07-01T07:50:11Z</time>
      </trkpt>
      <trkpt lat="49.07578" lon="3.60572">
        <ele>67.5</ele>
        <time>2020-07-01T07:50:12Z</time>
      </trkpt>
      <trkpt lat="49.07572" lon="3.60569">
        <ele>67.6</ele>
        <time>2020-07-01T07:50:13Z</time>
      </trkpt>
      <trkpt lat="49.07567" lon="3.60566">
        <ele>67.6</ele>
        <time>2020-07-01T07:50:14Z</time>
      </trkpt>
      <trkpt lat="49.07562" lon="3.60563">
        <ele>67.6</ele>
        <time>2020-07-01T07:50:15Z</time>
      </trkpt>
      <trkpt lat="49.07558" lon="3.6056">
        <ele>67.7</ele>
        <time>2020-07-01T07:50:16Z</time>
      </trkpt>
      <trkpt lat="49.07553" lon="3.60557">
        <ele>67.7</ele>
        <time>2020-07-01T07:50:17Z</time>
      </trkpt>
      <trkpt lat="49.07548" lon="3.60554">
        <ele>67.7</ele>
        <time>2020-07-01T07:50:18Z</time>
      </trkpt>
      <trkpt lat="49.07543" lon="3.60552">
        <ele>67.8</ele>
        <time>2020-07-01T07:50:19Z</time>
      </trkpt>
      <trkpt lat="49.07538" lon="3.60549">
        <ele>67.8</ele>
        <time>2020-07-01T07:50:20Z</time>
      </trkpt>
      <trkpt lat="49.07533" lon="3.60545">
        <ele>67.9</ele>
        <time>2020-07-01T07:50:21Z</time>
      </trkpt>
      <trkpt lat="49.07528" lon="3.60541">
        <ele>67.9</ele>
        <time>2020-07-01T07:50:22Z</time>
      </trkpt>
      <trkpt lat="49.07526" lon="3.60536">
        <ele>68</ele>
        <time>2020-07-01T07:50:23Z</time>
      </trkpt>
      <trkpt lat="49.07522" lon="3.60531">
        <ele>68.1</ele>
        <time>2020-07-01T07:50:24Z</time>
      </trkpt>
      <trkpt lat="49.07519" lon="3.60525">
        <ele>68.1</ele>
        <time>2020-07-01T07:50:25Z</time>
      </trkpt>
      <trkpt lat="49.07515" lon="3.6052">
        <ele>68.2</ele>
        <time>2020-07-01T07:50:26Z</time>
      </trkpt>
      <trkpt lat="49.07512" lon="3.60514">
        <ele>68.3</ele>
        <time>2020-07-01T07:50:27Z</time>
      </trkpt>
      <trkpt lat="49.07509" lon="3.60508">
        <ele>68.4</ele>
        <time>2020-07-01T07:50:28Z</time>
      </trkpt>
      <trkpt lat="49.07507" lon="3.605">
        <ele>68.5</ele>
        <time>2020-07-01T07:50:29Z</time>
      </trkpt>
      <trkpt lat="49.07504" lon="3.60494">
        <ele>68.6</ele>
        <time>2020-07-01T07:50:30Z</time>
      </trkpt>
      <trkpt lat="49.07502" lon="3.60486">
        <ele>68.7</ele>
        <time>2020-07-01T07:50:31Z</time>
      </trkpt>
      <trkpt lat="49.075" lon="3.60479">
        <ele>68.9</ele>
        <time>2020-07-01T07:50:32Z</time>
      </trkpt>
      <trkpt lat="49.07498" lon="3.60473">
        <ele>69</ele>
        <time>2020-07-01T07:50:33Z</time>
      </trkpt>
      <trkpt lat="49.07496" lon="3.60467">
        <ele>69.2</ele>
        <time>2020-07-01T07:50:34Z</time>
      </trkpt>
      <trkpt lat="49.07494" lon="3.6046">
        <ele>69.3</ele>
        <time>2020-07-01T07:50:35Z</time>
      </trkpt>
      <trkpt lat="49.07493" lon="3.60454">
        <ele>69.5</ele>
        <time>2020-07-01T07:50:36Z</time>
      </trkpt>
      <trkpt lat="49.07491" lon="3.60448">
        <ele>69.7</ele>
        <time>2020-07-01T07:50:37Z</time>
      </trkpt>
      <trkpt lat="49.07489" lon="3.60442">
        <ele>69.8</ele>
        <time>2020-07-01T07:50:38Z</time>
      </trkpt>
      <trkpt lat="49.07487" lon="3.60437">
        <ele>70</ele>
        <time>2020-07-01T07:50:39Z</time>
      </trkpt>
      <trkpt lat="49.07485" lon="3.60431">
        <ele>70.1</ele>
        <time>2020-07-01T07:50:40Z</time>
      </trkpt>
      <trkpt lat="49.07484" lon="3.60426">
        <ele>70.3</ele>
        <time>2020-07-01T07:50:41Z</time>
      </trkpt>
      <trkpt lat="49.07482" lon="3.60421">
        <ele>70.4</ele>
        <time>2020-07-01T07:50:42Z</time>
      </trkpt>
      <trkpt lat="49.07481" lon="3.60417">
        <ele>70.5</ele>
        <time>2020-07-01T07:50:43Z</time>
      </trkpt>
      <trkpt lat="49.07479" lon="3.60412">
        <ele>70.6</ele>
        <time>2020-07-01T07:50:44Z</time>
      </trkpt>
      <trkpt lat="49.07478" lon="3.60407">
        <ele>70.8</ele>
        <time>2020-07-01T07:50:45Z</time>
      </trkpt>
      <trkpt lat="49.07476" lon="3.60402">
        <ele>70.9</ele>
        <time>2020-07-01T07:50:46Z</time>
      </trkpt>
      <trkpt lat="49.07475" lon="3.60397">
        <ele>71</ele>
        <time>2020-07-01T07:50:47Z</time>
      </trkpt>
      <trkpt lat="49.07473" lon="3.6039">
        <ele>71.1</ele>
        <time>2020-07-01T07:50:48Z</time>
      </trkpt>
      <trkpt lat="49.07472" lon="3.60385">
        <ele>71.2</ele>
        <time>2020-07-01T07:50:49Z</time>
      </trkpt>
      <trkpt lat="49.07471" lon="3.6038">
        <ele>71.3</ele>
        <time>2020-07-01T07:50:50Z</time>
      </trkpt>
      <trkpt lat="49.07469" lon="3.60374">
        <ele>71.4</ele>
        <time>2020-07-01T07:50:51Z</time>
      </trkpt>
      <trkpt lat="49.07467" lon="3.60369">
        <ele>71.6</ele>
        <time>2020-07-01T07:50:52Z</time>
      </trkpt>
      <trkpt lat="49.07465" lon="3.60363">
        <ele>71.7</ele>
        <time>2020-07-01T07:50:53Z</time>
      </trkpt>
      <trkpt lat="49.07464" lon="3.60359">
        <ele>71.8</ele>
        <time>2020-07-01T07:50:54Z</time>
      </trkpt>
      <trkpt lat="49.07463" lon="3.60354">
        <ele>71.9</ele>
        <time>2020-07-01T07:50:55Z</time>
      </trkpt>
      <trkpt lat="49.07462" lon="3.6035">
        <ele>72</ele>
        <time>2020-07-01T07:50:56Z</time>
      </trkpt>
      <trkpt lat="49.07461" lon="3.60346">
        <ele>72.1</ele>
        <time>2020-07-01T07:50:57Z</time>
      </trkpt>
      <trkpt lat="49.07459" lon="3.6034">
        <ele>72.2</ele>
        <time>2020-07-01T07:50:58Z</time>
      </trkpt>
      <trkpt lat="49.07457" lon="3.60335">
        <ele>72.3</ele>
        <time>2020-07-01T07:50:59Z</time>
      </trkpt>
      <trkpt lat="49.07455" lon="3.60331">
        <ele>72.3</ele>
        <time>2020-07-01T07:51:00Z</time>
      </trkpt>
      <trkpt lat="49.07453" lon="3.60326">
        <ele>72.4</ele>
        <time>2020-07-01T07:51:01Z</time>
      </trkpt>
      <trkpt lat="49.07451" lon="3.60322">
        <ele>72.4</ele>
        <time>2020-07-01T07:51:02Z</time>
      </trkpt>
      <trkpt lat="49.07449" lon="3.60316">
        <ele>72.5</ele>
        <time>2020-07-01T07:51:03Z</time>
      </trkpt>
      <trkpt lat="49.07447" lon="3.60312">
        <ele>72.6</ele>
        <time>2020-07-01T07:51:04Z</time>
      </trkpt>
      <trkpt lat="49.07445" lon="3.60307">
        <ele>72.6</ele>
        <time>2020-07-01T07:51:05Z</time>
      </trkpt>
      <trkpt lat="49.07443" lon="3.60303">
        <ele>72.7</ele>
        <time>2020-07-01T07:51:06Z</time>
      </trkpt>
      <trkpt lat="49.0744" lon="3.60296">
        <ele>72.8</ele>
        <time>2020-07-01T07:51:07Z</time>
      </trkpt>
      <trkpt lat="49.07438" lon="3.60291">
        <ele>72.9</ele>
        <time>2020-07-01T07:51:08Z</time>
      </trkpt>
      <trkpt lat="49.07436" lon="3.60286">
        <ele>72.9</ele>
        <time>2020-07-01T07:51:09Z</time>
      </trkpt>
      <trkpt lat="49.07434" lon="3.60282">
        <ele>73</ele>
        <time>2020-07-01T07:51:10Z</time>
      </trkpt>
      <trkpt lat="49.07433" lon="3.60277">
        <ele>73.1</ele>
        <time>2020-07-01T07:51:11Z</time>
      </trkpt>
      <trkpt lat="49.07431" lon="3.60273">
        <ele>73.2</ele>
        <time>2020-07-01T07:51:12Z</time>
      </trkpt>
      <trkpt lat="49.07429" lon="3.60268">
        <ele>73.3</ele>
        <time>2020-07-01T07:51:13Z</time>
      </trkpt>
      <trkpt lat="49.07427" lon="3.60264">
        <ele>73.3</ele>
        <time>2020-07-01T07:51:14Z</time>
      </trkpt>
      <trkpt lat="49.07425" lon="3.6026">
        <ele>73.4</ele>
        <time>2020-07-01T07:51:15Z</time>
      </trkpt>
      <trkpt lat="49.07422" lon="3.60254">
        <ele>73.5</ele>
        <time>2020-07-01T07:51:16Z</time>
      </trkpt>
      <trkpt lat="49.07419" lon="3.60249">
        <ele>73.6</ele>
        <time>2020-07-01T07:51:17Z</time>
      </trkpt>
      <trkpt lat="49.07417" lon="3.60245">
        <ele>73.7</ele>
        <time>2020-07-01T07:51:18Z</time>
      </trkpt>
      <trkpt lat="49.07415" lon="3.60241">
        <ele>73.8</ele>
        <time>2020-07-01T07:51:19Z</time>
      </trkpt>
      <trkpt lat="49.07412" lon="3.60237">
        <ele>73.8</ele>
        <time>2020-07-01T07:51:20Z</time>
      </trkpt>
      <trkpt lat="49.0741" lon="3.60233">
        <ele>73.9</ele>
        <time>2020-07-01T07:51:21Z</time>
      </trkpt>
      <trkpt lat="49.07407" lon="3.60229">
        <ele>74</ele>
        <time>2020-07-01T07:51:22Z</time>
      </trkpt>
      <trkpt lat="49.07405" lon="3.60225">
        <ele>74.1</ele>
        <time>2020-07-01T07:51:23Z</time>
      </trkpt>
      <trkpt lat="49.07403" lon="3.60221">
        <ele>74.2</ele>
        <time>2020-07-01T07:51:24Z</time>
      </trkpt>
      <trkpt lat="49.07401" lon="3.60217">
        <ele>74.3</ele>
        <time>2020-07-01T07:51:25Z</time>
      </trkpt>
      <trkpt lat="49.07398" lon="3.60213">
        <ele>74.4</ele>
        <time>2020-07-01T07:51:26Z</time>
      </trkpt>
      <trkpt lat="49.07395" lon="3.60209">
        <ele>74.5</ele>
        <time>2020-07-01T07:51:27Z</time>
      </trkpt>
      <trkpt lat="49.07392" lon="3.60205">
        <ele>74.6</ele>
        <time>2020-07-01T07:51:28Z</time>
      </trkpt>
      <trkpt lat="49.0739" lon="3.602">
        <ele>74.7</ele>
        <time>2020-07-01T07:51:29Z</time>
      </trkpt>
      <trkpt lat="49.07388" lon="3.60197">
        <ele>74.8</ele>
        <time>2020-07-01T07:51:30Z</time>
      </trkpt>
      <trkpt lat="49.07386" lon="3.60193">
        <ele>74.9</ele>
        <time>2020-07-01T07:51:31Z</time>
      </trkpt>
      <trkpt lat="49.07383" lon="3.60189">
        <ele>75</ele>
        <time>2020-07-01T07:51:32Z</time>
      </trkpt>
      <trkpt lat="49.0738" lon="3.60183">
        <ele>75.1</ele>
        <time>2020-07-01T07:51:33Z</time>
      </trkpt>
      <trkpt lat="49.07377" lon="3.60179">
        <ele>75.2</ele>
        <time>2020-07-01T07:51:34Z</time>
      </trkpt>
      <trkpt lat="49.07374" lon="3.60176">
        <ele>75.3</ele>
        <time>2020-07-01T07:51:35Z</time>
      </trkpt>
      <trkpt lat="49.07371" lon="3.60173">
        <ele>75.5</ele>
        <time>2020-07-01T07:51:36Z</time>
      </trkpt>
      <trkpt lat="49.07368" lon="3.6017">
        <ele>75.6</ele>
        <time>2020-07-01T07:51:37Z</time>
      </trkpt>
      <trkpt lat="49.07365" lon="3.60167">
        <ele>75.7</ele>
        <time>2020-07-01T07:51:38Z</time>
      </trkpt>
      <trkpt lat="49.07362" lon="3.60163">
        <ele>75.9</ele>
        <time>2020-07-01T07:51:39Z</time>
      </trkpt>
      <trkpt lat="49.0736" lon="3.60159">
        <ele>76</ele>
        <time>2020-07-01T07:51:40Z</time>
      </trkpt>
      <trkpt lat="49.07357" lon="3.60154">
        <ele>76.1</ele>
        <time>2020-07-01T07:51:41Z</time>
      </trkpt>
      <trkpt lat="49.07354" lon="3.60148">
        <ele>76.3</ele>
        <time>2020-07-01T07:51:42Z</time>
      </trkpt>
      <trkpt lat="49.07351" lon="3.60144">
        <ele>76.5</ele>
        <time>2020-07-01T07:51:43Z</time>
      </trkpt>
      <trkpt lat="49.07348" lon="3.6014">
        <ele>76.6</ele>
        <time>2020-07-01T07:51:44Z</time>
      </trkpt>
      <trkpt lat="49.07345" lon="3.60136">
        <ele>76.7</ele>
        <time>2020-07-01T07:51:45Z</time>
      </trkpt>
      <trkpt lat="49.07343" lon="3.60133">
        <ele>76.8</ele>
        <time>2020-07-01T07:51:46Z</time>
      </trkpt>
      <trkpt lat="49.07341" lon="3.60129">
        <ele>76.9</ele>
        <time>2020-07-01T07:51:47Z</time>
      </trkpt>
      <trkpt lat="49.07338" lon="3.60125">
        <ele>77.1</ele>
        <time>2020-07-01T07:51:48Z</time>
      </trkpt>
      <trkpt lat="49.07334" lon="3.60122">
        <ele>77.2</ele>
        <time>2020-07-01T07:51:49Z</time>
      </trkpt>
      <trkpt lat="49.07331" lon="3.60118">
        <ele>77.3</ele>
        <time>2020-07-01T07:51:50Z</time>
      </trkpt>
      <trkpt lat="49.07328" lon="3.60114">
        <ele>77.5</ele>
        <time>2020-07-01T07:51:51Z</time>
      </trkpt>
      <trkpt lat="49.07326" lon="3.6011">
        <ele>77.6</ele>
        <time>2020-07-01T07:51:52Z</time>
      </trkpt>
      <trkpt lat="49.07324" lon="3.60107">
        <ele>77.7</ele>
        <time>2020-07-01T07:51:53Z</time>
      </trkpt>
      <trkpt lat="49.07322" lon="3.60103">
        <ele>77.8</ele>
        <time>2020-07-01T07:51:54Z</time>
      </trkpt>
      <trkpt lat="49.07319" lon="3.60099">
        <ele>77.9</ele>
        <time>2020-07-01T07:51:55Z</time>
      </trkpt>
      <trkpt lat="49.07316" lon="3.60095">
        <ele>78</ele>
        <time>2020-07-01T07:51:56Z</time>
      </trkpt>
      <trkpt lat="49.07313" lon="3.60092">
        <ele>78.1</ele>
        <time>2020-07-01T07:51:57Z</time>
      </trkpt>
      <trkpt lat="49.07311" lon="3.60089">
        <ele>78.2</ele>
        <time>2020-07-01T07:51:58Z</time>
      </trkpt>
      <trkpt lat="49.07308" lon="3.60085">
        <ele>78.4</ele>
        <time>2020-07-01T07:51:59Z</time>
      </trkpt>
      <trkpt lat="49.07305" lon="3.60081">
        <ele>78.5</ele>
        <time>2020-07-01T07:52:00Z</time>
      </trkpt>
      <trkpt lat="49.07302" lon="3.60077">
        <ele>78.6</ele>
        <time>2020-07-01T07:52:01Z</time>
      </trkpt>
      <trkpt lat="49.07299" lon="3.60073">
        <ele>78.8</ele>
        <time>2020-07-01T07:52:02Z</time>
      </trkpt>
      <trkpt lat="49.07296" lon="3.60069">
        <ele>78.9</ele>
        <time>2020-07-01T07:52:03Z</time>
      </trkpt>
      <trkpt lat="49.07293" lon="3.60065">
        <ele>79</ele>
        <time>2020-07-01T07:52:04Z</time>
      </trkpt>
      <trkpt lat="49.0729" lon="3.60061">
        <ele>79.1</ele>
        <time>2020-07-01T07:52:05Z</time>
      </trkpt>
      <trkpt lat="49.07287" lon="3.60057">
        <ele>79.3</ele>
        <time>2020-07-01T07:52:06Z</time>
      </trkpt>
      <trkpt lat="49.07284" lon="3.60053">
        <ele>79.4</ele>
        <time>2020-07-01T07:52:07Z</time>
      </trkpt>
      <trkpt lat="49.07281" lon="3.6005">
        <ele>79.5</ele>
        <time>2020-07-01T07:52:08Z</time>
      </trkpt>
      <trkpt lat="49.07279" lon="3.60048">
        <ele>79.5</ele>
        <time>2020-07-01T07:52:09Z</time>
      </trkpt>
      <trkpt lat="49.07277" lon="3.60045">
        <ele>79.6</ele>
        <time>2020-07-01T07:52:10Z</time>
      </trkpt>
      <trkpt lat="49.07274" lon="3.60041">
        <ele>79.7</ele>
        <time>2020-07-01T07:52:11Z</time>
      </trkpt>
      <trkpt lat="49.07271" lon="3.60037">
        <ele>79.8</ele>
        <time>2020-07-01T07:52:12Z</time>
      </trkpt>
      <trkpt lat="49.07269" lon="3.60033">
        <ele>79.8</ele>
        <time>2020-07-01T07:52:13Z</time>
      </trkpt>
      <trkpt lat="49.07266" lon="3.60028">
        <ele>79.9</ele>
        <time>2020-07-01T07:52:14Z</time>
      </trkpt>
      <trkpt lat="49.07263" lon="3.60025">
        <ele>80</ele>
        <time>2020-07-01T07:52:15Z</time>
      </trkpt>
      <trkpt lat="49.07259" lon="3.60021">
        <ele>80.1</ele>
        <time>2020-07-01T07:52:16Z</time>
      </trkpt>
      <trkpt lat="49.07257" lon="3.60019">
        <ele>80.2</ele>
        <time>2020-07-01T07:52:17Z</time>
      </trkpt>
      <trkpt lat="49.07254" lon="3.60016">
        <ele>80.3</ele>
        <time>2020-07-01T07:52:18Z</time>
      </trkpt>
      <trkpt lat="49.07251" lon="3.60012">
        <ele>80.4</ele>
        <time>2020-07-01T07:52:19Z</time>
      </trkpt>
      <trkpt lat="49.0725" lon="3.6001">
        <ele>80.5</ele>
        <time>2020-07-01T07:52:20Z</time>
      </trkpt>
      <trkpt lat="49.07248" lon="3.60007">
        <ele>80.6</ele>
        <time>2020-07-01T07:52:21Z</time>
      </trkpt>
      <trkpt lat="49.07245" lon="3.60003">
        <ele>80.7</ele>
        <time>2020-07-01T07:52:22Z</time>
      </trkpt>
      <trkpt lat="49.07242" lon="3.59999">
        <ele>80.8</ele>
        <time>2020-07-01T07:52:23Z</time>
      </trkpt>
      <trkpt lat="49.07239" lon="3.59996">
        <ele>80.9</ele>
        <time>2020-07-01T07:52:24Z</time>
      </trkpt>
      <trkpt lat="49.07236" lon="3.59992">
        <ele>81</ele>
        <time>2020-07-01T07:52:25Z</time>
      </trkpt>
      <trkpt lat="49.07233" lon="3.59989">
        <ele>81.1</ele>
        <time>2020-07-01T07:52:26Z</time>
      </trkpt>
      <trkpt lat="49.0723" lon="3.59986">
        <ele>81.3</ele>
        <time>2020-07-01T07:52:27Z</time>
      </trkpt>
      <trkpt lat="49.07227" lon="3.59983">
        <ele>81.4</ele>
        <time>2020-07-01T07:52:28Z</time>
      </trkpt>
      <trkpt lat="49.07225" lon="3.5998">
        <ele>81.5</ele>
        <time>2020-07-01T07:52:29Z</time>
      </trkpt>
      <trkpt lat="49.07222" lon="3.59977">
        <ele>81.6</ele>
        <time>2020-07-01T07:52:30Z</time>
      </trkpt>
      <trkpt lat="49.07219" lon="3.59972">
        <ele>81.7</ele>
        <time>2020-07-01T07:52:31Z</time>
      </trkpt>
      <trkpt lat="49.07218" lon="3.5997">
        <ele>81.7</ele>
        <time>2020-07-01T07:52:32Z</time>
      </trkpt>
      <trkpt lat="49.07215" lon="3.59966">
        <ele>81.8</ele>
        <time>2020-07-01T07:52:33Z</time>
      </trkpt>
      <trkpt lat="49.07212" lon="3.59962">
        <ele>81.9</ele>
        <time>2020-07-01T07:52:34Z</time>
      </trkpt>
      <trkpt lat="49.0721" lon="3.5996">
        <ele>82</ele>
        <time>2020-07-01T07:52:35Z</time>
      </trkpt>
      <trkpt lat="49.07208" lon="3.59955">
        <ele>82.1</ele>
        <time>2020-07-01T07:52:36Z</time>
      </trkpt>
      <trkpt lat="49.07205" lon="3.59951">
        <ele>82.1</ele>
        <time>2020-07-01T07:52:37Z</time>
      </trkpt>
      <trkpt lat="49.07203" lon="3.59947">
        <ele>82.2</ele>
        <time>2020-07-01T07:52:38Z</time>
      </trkpt>
      <trkpt lat="49.072" lon="3.59942">
        <ele>82.3</ele>
        <time>2020-07-01T07:52:39Z</time>
      </trkpt>
      <trkpt lat="49.07197" lon="3.59939">
        <ele>82.4</ele>
        <time>2020-07-01T07:52:40Z</time>
      </trkpt>
      <trkpt lat="49.07194" lon="3.59935">
        <ele>82.5</ele>
        <time>2020-07-01T07:52:41Z</time>
      </trkpt>
      <trkpt lat="49.07191" lon="3.59931">
        <ele>82.6</ele>
        <time>2020-07-01T07:52:42Z</time>
      </trkpt>
      <trkpt lat="49.07189" lon="3.59925">
        <ele>82.7</ele>
        <time>2020-07-01T07:52:43Z</time>
      </trkpt>
      <trkpt lat="49.07186" lon="3.59921">
        <ele>82.8</ele>
        <time>2020-07-01T07:52:44Z</time>
      </trkpt>
      <trkpt lat="49.07184" lon="3.59918">
        <ele>82.8</ele>
        <time>2020-07-01T07:52:45Z</time>
      </trkpt>
      <trkpt lat="49.07182" lon="3.59914">
        <ele>82.9</ele>
        <time>2020-07-01T07:52:46Z</time>
      </trkpt>
      <trkpt lat="49.0718" lon="3.59911">
        <ele>83</ele>
        <time>2020-07-01T07:52:47Z</time>
      </trkpt>
      <trkpt lat="49.07178" lon="3.59908">
        <ele>83.1</ele>
        <time>2020-07-01T07:52:48Z</time>
      </trkpt>
      <trkpt lat="49.07176" lon="3.59905">
        <ele>83.2</ele>
        <time>2020-07-01T07:52:49Z</time>
      </trkpt>
      <trkpt lat="49.07174" lon="3.59901">
        <ele>83.3</ele>
        <time>2020-07-01T07:52:50Z</time>
      </trkpt>
      <trkpt lat="49.07171" lon="3.59897">
        <ele>83.4</ele>
        <time>2020-07-01T07:52:51Z</time>
      </trkpt>
      <trkpt lat="49.0717" lon="3.59895">
        <ele>83.4</ele>
        <time>2020-07-01T07:52:52Z</time>
      </trkpt>
      <trkpt lat="49.07168" lon="3.59891">
        <ele>83.5</ele>
        <time>2020-07-01T07:52:53Z</time>
      </trkpt>
      <trkpt lat="49.07165" lon="3.59888">
        <ele>83.5</ele>
        <time>2020-07-01T07:52:54Z</time>
      </trkpt>
      <trkpt lat="49.07163" lon="3.59884">
        <ele>83.6</ele>
        <time>2020-07-01T07:52:55Z</time>
      </trkpt>
      <trkpt lat="49.0716" lon="3.5988">
        <ele>83.7</ele>
        <time>2020-07-01T07:52:56Z</time>
      </trkpt>
      <trkpt lat="49.07157" lon="3.59875">
        <ele>83.8</ele>
        <time>2020-07-01T07:52:57Z</time>
      </trkpt>
      <trkpt lat="49.07155" lon="3.59871">
        <ele>83.8</ele>
        <time>2020-07-01T07:52:58Z</time>
      </trkpt>
      <trkpt lat="49.07152" lon="3.59867">
        <ele>83.9</ele>
        <time>2020-07-01T07:52:59Z</time>
      </trkpt>
      <trkpt lat="49.0715" lon="3.59863">
        <ele>84</ele>
        <time>2020-07-01T07:53:00Z</time>
      </trkpt>
      <trkpt lat="49.07148" lon="3.5986">
        <ele>84</ele>
        <time>2020-07-01T07:53:01Z</time>
      </trkpt>
      <trkpt lat="49.07145" lon="3.59855">
        <ele>84.1</ele>
        <time>2020-07-01T07:53:02Z</time>
      </trkpt>
      <trkpt lat="49.07143" lon="3.59853">
        <ele>84.1</ele>
        <time>2020-07-01T07:53:03Z</time>
      </trkpt>
      <trkpt lat="49.07141" lon="3.59849">
        <ele>84.2</ele>
        <time>2020-07-01T07:53:04Z</time>
      </trkpt>
      <trkpt lat="49.07139" lon="3.59845">
        <ele>84.2</ele>
        <time>2020-07-01T07:53:05Z</time>
      </trkpt>
      <trkpt lat="49.07137" lon="3.59842">
        <ele>84.3</ele>
        <time>2020-07-01T07:53:06Z</time>
      </trkpt>
      <trkpt lat="49.07135" lon="3.59838">
        <ele>84.3</ele>
        <time>2020-07-01T07:53:07Z</time>
      </trkpt>
      <trkpt lat="49.07133" lon="3.59834">
        <ele>84.3</ele>
        <time>2020-07-01T07:53:08Z</time>
      </trkpt>
      <trkpt lat="49.0713" lon="3.5983">
        <ele>84.3</ele>
        <time>2020-07-01T07:53:09Z</time>
      </trkpt>
      <trkpt lat="49.07128" lon="3.59825">
        <ele>84.4</ele>
        <time>2020-07-01T07:53:10Z</time>
      </trkpt>
      <trkpt lat="49.07125" lon="3.5982">
        <ele>84.4</ele>
        <time>2020-07-01T07:53:11Z</time>
      </trkpt>
      <trkpt lat="49.07122" lon="3.59816">
        <ele>84.3</ele>
        <time>2020-07-01T07:53:12Z</time>
      </trkpt>
      <trkpt lat="49.07119" lon="3.5981">
        <ele>84.3</ele>
        <time>2020-07-01T07:53:13Z</time>
      </trkpt>
      <trkpt lat="49.07116" lon="3.59805">
        <ele>84.3</ele>
        <time>2020-07-01T07:53:14Z</time>
      </trkpt>
      <trkpt lat="49.07114" lon="3.59799">
        <ele>84.2</ele>
        <time>2020-07-01T07:53:15Z</time>
      </trkpt>
      <trkpt lat="49.0711" lon="3.59794">
        <ele>84.1</ele>
        <time>2020-07-01T07:53:16Z</time>
      </trkpt>
      <trkpt lat="49.07108" lon="3.59789">
        <ele>84</ele>
        <time>2020-07-01T07:53:17Z</time>
      </trkpt>
      <trkpt lat="49.07105" lon="3.59783">
        <ele>83.9</ele>
        <time>2020-07-01T07:53:18Z</time>
      </trkpt>
      <trkpt lat="49.07102" lon="3.59778">
        <ele>83.8</ele>
        <time>2020-07-01T07:53:19Z</time>
      </trkpt>
      <trkpt lat="49.07099" lon="3.59771">
        <ele>83.6</ele>
        <time>2020-07-01T07:53:20Z</time>
      </trkpt>
      <trkpt lat="49.07096" lon="3.59764">
        <ele>83.5</ele>
        <time>2020-07-01T07:53:21Z</time>
      </trkpt>
      <trkpt lat="49.07093" lon="3.59757">
        <ele>83.3</ele>
        <time>2020-07-01T07:53:22Z</time>
      </trkpt>
      <trkpt lat="49.0709" lon="3.5975">
        <ele>83.2</ele>
        <time>2020-07-01T07:53:23Z</time>
      </trkpt>
      <trkpt lat="49.07086" lon="3.59742">
        <ele>83.1</ele>
        <time>2020-07-01T07:53:24Z</time>
      </trkpt>
      <trkpt lat="49.07082" lon="3.59735">
        <ele>83</ele>
        <time>2020-07-01T07:53:25Z</time>
      </trkpt>
      <trkpt lat="49.07078" lon="3.59728">
        <ele>82.9</ele>
        <time>2020-07-01T07:53:26Z</time>
      </trkpt>
      <trkpt lat="49.07073" lon="3.5972">
        <ele>82.8</ele>
        <time>2020-07-01T07:53:27Z</time>
      </trkpt>
      <trkpt lat="49.07068" lon="3.59713">
        <ele>82.7</ele>
        <time>2020-07-01T07:53:28Z</time>
      </trkpt>
      <trkpt lat="49.07063" lon="3.59707">
        <ele>82.7</ele>
        <time>2020-07-01T07:53:29Z</time>
      </trkpt>
      <trkpt lat="49.07059" lon="3.597">
        <ele>82.7</ele>
        <time>2020-07-01T07:53:30Z</time>
      </trkpt>
      <trkpt lat="49.07054" lon="3.59694">
        <ele>82.7</ele>
        <time>2020-07-01T07:53:31Z</time>
      </trkpt>
      <trkpt lat="49.07049" lon="3.59688">
        <ele>82.8</ele>
        <time>2020-07-01T07:53:32Z</time>
      </trkpt>
      <trkpt lat="49.07045" lon="3.59684">
        <ele>82.8</ele>
        <time>2020-07-01T07:53:33Z</time>
      </trkpt>
      <trkpt lat="49.07041" lon="3.5968">
        <ele>82.9</ele>
        <time>2020-07-01T07:53:34Z</time>
      </trkpt>
      <trkpt lat="49.07036" lon="3.59676">
        <ele>83.1</ele>
        <time>2020-07-01T07:53:35Z</time>
      </trkpt>
      <trkpt lat="49.07032" lon="3.59674">
        <ele>83.2</ele>
        <time>2020-07-01T07:53:36Z</time>
      </trkpt>
      <trkpt lat="49.07028" lon="3.59671">
        <ele>83.3</ele>
        <time>2020-07-01T07:53:37Z</time>
      </trkpt>
      <trkpt lat="49.07025" lon="3.59669">
        <ele>83.5</ele>
        <time>2020-07-01T07:53:38Z</time>
      </trkpt>
      <trkpt lat="49.07021" lon="3.59666">
        <ele>83.6</ele>
        <time>2020-07-01T07:53:39Z</time>
      </trkpt>
      <trkpt lat="49.07018" lon="3.59663">
        <ele>83.7</ele>
        <time>2020-07-01T07:53:40Z</time>
      </trkpt>
      <trkpt lat="49.07015" lon="3.5966">
        <ele>83.9</ele>
        <time>2020-07-01T07:53:41Z</time>
      </trkpt>
      <trkpt lat="49.07012" lon="3.59657">
        <ele>84</ele>
        <time>2020-07-01T07:53:42Z</time>
      </trkpt>
      <trkpt lat="49.07009" lon="3.59654">
        <ele>84.2</ele>
        <time>2020-07-01T07:53:43Z</time>
      </trkpt>
      <trkpt lat="49.07005" lon="3.59652">
        <ele>84.3</ele>
        <time>2020-07-01T07:53:44Z</time>
      </trkpt>
      <trkpt lat="49.07002" lon="3.59649">
        <ele>84.4</ele>
        <time>2020-07-01T07:53:45Z</time>
      </trkpt>
      <trkpt lat="49.06999" lon="3.59647">
        <ele>84.6</ele>
        <time>2020-07-01T07:53:46Z</time>
      </trkpt>
      <trkpt lat="49.06996" lon="3.59645">
        <ele>84.7</ele>
        <time>2020-07-01T07:53:47Z</time>
      </trkpt>
      <trkpt lat="49.06994" lon="3.59643">
        <ele>84.8</ele>
        <time>2020-07-01T07:53:48Z</time>
      </trkpt>
      <trkpt lat="49.06991" lon="3.5964">
        <ele>85</ele>
        <time>2020-07-01T07:53:49Z</time>
      </trkpt>
      <trkpt lat="49.06988" lon="3.59637">
        <ele>85.1</ele>
        <time>2020-07-01T07:53:50Z</time>
      </trkpt>
      <trkpt lat="49.06984" lon="3.59634">
        <ele>85.3</ele>
        <time>2020-07-01T07:53:51Z</time>
      </trkpt>
      <trkpt lat="49.06981" lon="3.59631">
        <ele>85.4</ele>
        <time>2020-07-01T07:53:52Z</time>
      </trkpt>
      <trkpt lat="49.06978" lon="3.59629">
        <ele>85.5</ele>
        <time>2020-07-01T07:53:53Z</time>
      </trkpt>
      <trkpt lat="49.06975" lon="3.59627">
        <ele>85.7</ele>
        <time>2020-07-01T07:53:54Z</time>
      </trkpt>
      <trkpt lat="49.06971" lon="3.59625">
        <ele>85.9</ele>
        <time>2020-07-01T07:53:55Z</time>
      </trkpt>
      <trkpt lat="49.06968" lon="3.59622">
        <ele>86</ele>
        <time>2020-07-01T07:53:56Z</time>
      </trkpt>
      <trkpt lat="49.06964" lon="3.5962">
        <ele>86.2</ele>
        <time>2020-07-01T07:53:57Z</time>
      </trkpt>
      <trkpt lat="49.06961" lon="3.59618">
        <ele>86.4</ele>
        <time>2020-07-01T07:53:58Z</time>
      </trkpt>
      <trkpt lat="49.06958" lon="3.59615">
        <ele>86.5</ele>
        <time>2020-07-01T07:53:59Z</time>
      </trkpt>
      <trkpt lat="49.06956" lon="3.59612">
        <ele>86.7</ele>
        <time>2020-07-01T07:54:00Z</time>
      </trkpt>
      <trkpt lat="49.06955" lon="3.59612">
        <ele>86.7</ele>
        <time>2020-07-01T07:54:01Z</time>
      </trkpt>
      <trkpt lat="49.06952" lon="3.5961">
        <ele>86.9</ele>
        <time>2020-07-01T07:54:02Z</time>
      </trkpt>
      <trkpt lat="49.06949" lon="3.59607">
        <ele>87</ele>
        <time>2020-07-01T07:54:03Z</time>
      </trkpt>
      <trkpt lat="49.06946" lon="3.59605">
        <ele>87.2</ele>
        <time>2020-07-01T07:54:04Z</time>
      </trkpt>
      <trkpt lat="49.06944" lon="3.59603">
        <ele>87.3</ele>
        <time>2020-07-01T07:54:05Z</time>
      </trkpt>
      <trkpt lat="49.0694" lon="3.59599">
        <ele>87.5</ele>
        <time>2020-07-01T07:54:06Z</time>
      </trkpt>
      <trkpt lat="49.06937" lon="3.59596">
        <ele>87.6</ele>
        <time>2020-07-01T07:54:07Z</time>
      </trkpt>
      <trkpt lat="49.06934" lon="3.59593">
        <ele>87.8</ele>
        <time>2020-07-01T07:54:08Z</time>
      </trkpt>
      <trkpt lat="49.06931" lon="3.5959">
        <ele>87.9</ele>
        <time>2020-07-01T07:54:09Z</time>
      </trkpt>
      <trkpt lat="49.06928" lon="3.59588">
        <ele>88</ele>
        <time>2020-07-01T07:54:10Z</time>
      </trkpt>
      <trkpt lat="49.06924" lon="3.59586">
        <ele>88.2</ele>
        <time>2020-07-01T07:54:11Z</time>
      </trkpt>
      <trkpt lat="49.06921" lon="3.59583">
        <ele>88.3</ele>
        <time>2020-07-01T07:54:12Z</time>
      </trkpt>
      <trkpt lat="49.06919" lon="3.59582">
        <ele>88.4</ele>
        <time>2020-07-01T07:54:13Z</time>
      </trkpt>
      <trkpt lat="49.06916" lon="3.59579">
        <ele>88.5</ele>
        <time>2020-07-01T07:54:14Z</time>
      </trkpt>
      <trkpt lat="49.06913" lon="3.59577">
        <ele>88.7</ele>
        <time>2020-07-01T07:54:15Z</time>
      </trkpt>
      <trkpt lat="49.0691" lon="3.59574">
        <ele>88.8</ele>
        <time>2020-07-01T07:54:16Z</time>
      </trkpt>
      <trkpt lat="49.06907" lon="3.59571">
        <ele>88.9</ele>
        <time>2020-07-01T07:54:17Z</time>
      </trkpt>
      <trkpt lat="49.06904" lon="3.59567">
        <ele>89.1</ele>
        <time>2020-07-01T07:54:18Z</time>
      </trkpt>
      <trkpt lat="49.06901" lon="3.59563">
        <ele>89.2</ele>
        <time>2020-07-01T07:54:19Z</time>
      </trkpt>
      <trkpt lat="49.06899" lon="3.59559">
        <ele>89.4</ele>
        <time>2020-07-01T07:54:20Z</time>
      </trkpt>
      <trkpt lat="49.06896" lon="3.59556">
        <ele>89.5</ele>
        <time>2020-07-01T07:54:21Z</time>
      </trkpt>
      <trkpt lat="49.06892" lon="3.59552">
        <ele>89.6</ele>
        <time>2020-07-01T07:54:22Z</time>
      </trkpt>
      <trkpt lat="49.0689" lon="3.59548">
        <ele>89.6</ele>
        <time>2020-07-01T07:54:23Z</time>
      </trkpt>
      <trkpt lat="49.06888" lon="3.59545">
        <ele>89.7</ele>
        <time>2020-07-01T07:54:24Z</time>
      </trkpt>
      <trkpt lat="49.06886" lon="3.59541">
        <ele>89.8</ele>
        <time>2020-07-01T07:54:25Z</time>
      </trkpt>
      <trkpt lat="49.06884" lon="3.59537">
        <ele>89.9</ele>
        <time>2020-07-01T07:54:26Z</time>
      </trkpt>
      <trkpt lat="49.06882" lon="3.59534">
        <ele>89.9</ele>
        <time>2020-07-01T07:54:27Z</time>
      </trkpt>
      <trkpt lat="49.06879" lon="3.59529">
        <ele>90</ele>
        <time>2020-07-01T07:54:28Z</time>
      </trkpt>
      <trkpt lat="49.06877" lon="3.59524">
        <ele>90</ele>
        <time>2020-07-01T07:54:29Z</time>
      </trkpt>
      <trkpt lat="49.06874" lon="3.59519">
        <ele>90.1</ele>
        <time>2020-07-01T07:54:30Z</time>
      </trkpt>
      <trkpt lat="49.06871" lon="3.59514">
        <ele>90.2</ele>
        <time>2020-07-01T07:54:31Z</time>
      </trkpt>
      <trkpt lat="49.06868" lon="3.5951">
        <ele>90.2</ele>
        <time>2020-07-01T07:54:32Z</time>
      </trkpt>
      <trkpt lat="49.06865" lon="3.59506">
        <ele>90.3</ele>
        <time>2020-07-01T07:54:33Z</time>
      </trkpt>
      <trkpt lat="49.06863" lon="3.59501">
        <ele>90.3</ele>
        <time>2020-07-01T07:54:34Z</time>
      </trkpt>
      <trkpt lat="49.0686" lon="3.59497">
        <ele>90.4</ele>
        <time>2020-07-01T07:54:35Z</time>
      </trkpt>
      <trkpt lat="49.06858" lon="3.59492">
        <ele>90.5</ele>
        <time>2020-07-01T07:54:36Z</time>
      </trkpt>
      <trkpt lat="49.06856" lon="3.59488">
        <ele>90.6</ele>
        <time>2020-07-01T07:54:37Z</time>
      </trkpt>
      <trkpt lat="49.06853" lon="3.59484">
        <ele>90.6</ele>
        <time>2020-07-01T07:54:38Z</time>
      </trkpt>
      <trkpt lat="49.06851" lon="3.59481">
        <ele>90.7</ele>
        <time>2020-07-01T07:54:39Z</time>
      </trkpt>
      <trkpt lat="49.06849" lon="3.59478">
        <ele>90.7</ele>
        <time>2020-07-01T07:54:40Z</time>
      </trkpt>
      <trkpt lat="49.06847" lon="3.59474">
        <ele>90.8</ele>
        <time>2020-07-01T07:54:41Z</time>
      </trkpt>
      <trkpt lat="49.06845" lon="3.59471">
        <ele>90.9</ele>
        <time>2020-07-01T07:54:42Z</time>
      </trkpt>
      <trkpt lat="49.06842" lon="3.59468">
        <ele>91</ele>
        <time>2020-07-01T07:54:43Z</time>
      </trkpt>
      <trkpt lat="49.0684" lon="3.59463">
        <ele>91.1</ele>
        <time>2020-07-01T07:54:44Z</time>
      </trkpt>
      <trkpt lat="49.06838" lon="3.59459">
        <ele>91.1</ele>
        <time>2020-07-01T07:54:45Z</time>
      </trkpt>
      <trkpt lat="49.06835" lon="3.59455">
        <ele>91.2</ele>
        <time>2020-07-01T07:54:46Z</time>
      </trkpt>
      <trkpt lat="49.06833" lon="3.59451">
        <ele>91.3</ele>
        <time>2020-07-01T07:54:47Z</time>
      </trkpt>
      <trkpt lat="49.06832" lon="3.59449">
        <ele>91.3</ele>
        <time>2020-07-01T07:54:48Z</time>
      </trkpt>
      <trkpt lat="49.0683" lon="3.59445">
        <ele>91.4</ele>
        <time>2020-07-01T07:54:49Z</time>
      </trkpt>
      <trkpt lat="49.06828" lon="3.59441">
        <ele>91.5</ele>
        <time>2020-07-01T07:54:50Z</time>
      </trkpt>
      <trkpt lat="49.06826" lon="3.59437">
        <ele>91.6</ele>
        <time>2020-07-01T07:54:51Z</time>
      </trkpt>
      <trkpt lat="49.06823" lon="3.59434">
        <ele>91.7</ele>
        <time>2020-07-01T07:54:52Z</time>
      </trkpt>
      <trkpt lat="49.0682" lon="3.5943">
        <ele>91.7</ele>
        <time>2020-07-01T07:54:53Z</time>
      </trkpt>
      <trkpt lat="49.06817" lon="3.59427">
        <ele>91.8</ele>
        <time>2020-07-01T07:54:54Z</time>
      </trkpt>
      <trkpt lat="49.06814" lon="3.59422">
        <ele>91.9</ele>
        <time>2020-07-01T07:54:55Z</time>
      </trkpt>
      <trkpt lat="49.06812" lon="3.59417">
        <ele>92</ele>
        <time>2020-07-01T07:54:56Z</time>
      </trkpt>
      <trkpt lat="49.06809" lon="3.59412">
        <ele>92.1</ele>
        <time>2020-07-01T07:54:57Z</time>
      </trkpt>
      <trkpt lat="49.06807" lon="3.59405">
        <ele>92.2</ele>
        <time>2020-07-01T07:54:58Z</time>
      </trkpt>
      <trkpt lat="49.06805" lon="3.594">
        <ele>92.2</ele>
        <time>2020-07-01T07:54:59Z</time>
      </trkpt>
      <trkpt lat="49.06803" lon="3.59394">
        <ele>92.3</ele>
        <time>2020-07-01T07:55:00Z</time>
      </trkpt>
      <trkpt lat="49.06801" lon="3.59389">
        <ele>92.4</ele>
        <time>2020-07-01T07:55:01Z</time>
      </trkpt>
      <trkpt lat="49.06799" lon="3.59384">
        <ele>92.4</ele>
        <time>2020-07-01T07:55:02Z</time>
      </trkpt>
      <trkpt lat="49.06797" lon="3.5938">
        <ele>92.5</ele>
        <time>2020-07-01T07:55:03Z</time>
      </trkpt>
      <trkpt lat="49.06794" lon="3.59375">
        <ele>92.5</ele>
        <time>2020-07-01T07:55:04Z</time>
      </trkpt>
      <trkpt lat="49.06791" lon="3.5937">
        <ele>92.5</ele>
        <time>2020-07-01T07:55:05Z</time>
      </trkpt>
      <trkpt lat="49.06788" lon="3.59364">
        <ele>92.6</ele>
        <time>2020-07-01T07:55:06Z</time>
      </trkpt>
      <trkpt lat="49.06785" lon="3.59359">
        <ele>92.6</ele>
        <time>2020-07-01T07:55:07Z</time>
      </trkpt>
      <trkpt lat="49.06782" lon="3.59354">
        <ele>92.6</ele>
        <time>2020-07-01T07:55:08Z</time>
      </trkpt>
      <trkpt lat="49.06778" lon="3.59349">
        <ele>92.7</ele>
        <time>2020-07-01T07:55:09Z</time>
      </trkpt>
      <trkpt lat="49.06774" lon="3.59344">
        <ele>92.7</ele>
        <time>2020-07-01T07:55:10Z</time>
      </trkpt>
      <trkpt lat="49.06771" lon="3.59339">
        <ele>92.8</ele>
        <time>2020-07-01T07:55:11Z</time>
      </trkpt>
      <trkpt lat="49.06769" lon="3.59335">
        <ele>92.8</ele>
        <time>2020-07-01T07:55:12Z</time>
      </trkpt>
      <trkpt lat="49.06766" lon="3.59329">
        <ele>92.9</ele>
        <time>2020-07-01T07:55:13Z</time>
      </trkpt>
      <trkpt lat="49.06763" lon="3.59326">
        <ele>92.9</ele>
        <time>2020-07-01T07:55:14Z</time>
      </trkpt>
      <trkpt lat="49.0676" lon="3.59321">
        <ele>93</ele>
        <time>2020-07-01T07:55:15Z</time>
      </trkpt>
      <trkpt lat="49.06757" lon="3.59316">
        <ele>93</ele>
        <time>2020-07-01T07:55:16Z</time>
      </trkpt>
      <trkpt lat="49.06755" lon="3.59312">
        <ele>93</ele>
        <time>2020-07-01T07:55:17Z</time>
      </trkpt>
      <trkpt lat="49.06752" lon="3.59308">
        <ele>93.1</ele>
        <time>2020-07-01T07:55:18Z</time>
      </trkpt>
      <trkpt lat="49.06749" lon="3.59305">
        <ele>93.1</ele>
        <time>2020-07-01T07:55:19Z</time>
      </trkpt>
      <trkpt lat="49.06747" lon="3.59302">
        <ele>93.1</ele>
        <time>2020-07-01T07:55:20Z</time>
      </trkpt>
      <trkpt lat="49.06744" lon="3.59299">
        <ele>93.1</ele>
        <time>2020-07-01T07:55:21Z</time>
      </trkpt>
      <trkpt lat="49.06742" lon="3.59296">
        <ele>93.1</ele>
        <time>2020-07-01T07:55:22Z</time>
      </trkpt>
      <trkpt lat="49.06739" lon="3.59293">
        <ele>93.1</ele>
        <time>2020-07-01T07:55:23Z</time>
      </trkpt>
      <trkpt lat="49.06736" lon="3.59288">
        <ele>93.1</ele>
        <time>2020-07-01T07:55:24Z</time>
      </trkpt>
      <trkpt lat="49.06734" lon="3.59284">
        <ele>93</ele>
        <time>2020-07-01T07:55:25Z</time>
      </trkpt>
      <trkpt lat="49.06731" lon="3.5928">
        <ele>92.9</ele>
        <time>2020-07-01T07:55:26Z</time>
      </trkpt>
      <trkpt lat="49.06728" lon="3.59276">
        <ele>92.8</ele>
        <time>2020-07-01T07:55:27Z</time>
      </trkpt>
      <trkpt lat="49.06724" lon="3.59273">
        <ele>92.6</ele>
        <time>2020-07-01T07:55:28Z</time>
      </trkpt>
      <trkpt lat="49.06721" lon="3.59267">
        <ele>92.5</ele>
        <time>2020-07-01T07:55:29Z</time>
      </trkpt>
      <trkpt lat="49.06717" lon="3.59264">
        <ele>92.3</ele>
        <time>2020-07-01T07:55:30Z</time>
      </trkpt>
      <trkpt lat="49.06713" lon="3.59262">
        <ele>92.2</ele>
        <time>2020-07-01T07:55:31Z</time>
      </trkpt>
      <trkpt lat="49.06709" lon="3.59259">
        <ele>92</ele>
        <time>2020-07-01T07:55:32Z</time>
      </trkpt>
      <trkpt lat="49.06705" lon="3.59257">
        <ele>91.7</ele>
        <time>2020-07-01T07:55:33Z</time>
      </trkpt>
      <trkpt lat="49.06701" lon="3.59256">
        <ele>91.5</ele>
        <time>2020-07-01T07:55:34Z</time>
      </trkpt>
      <trkpt lat="49.06696" lon="3.59254">
        <ele>91.3</ele>
        <time>2020-07-01T07:55:35Z</time>
      </trkpt>
      <trkpt lat="49.06692" lon="3.59252">
        <ele>91.1</ele>
        <time>2020-07-01T07:55:36Z</time>
      </trkpt>
      <trkpt lat="49.06687" lon="3.59252">
        <ele>90.8</ele>
        <time>2020-07-01T07:55:37Z</time>
      </trkpt>
      <trkpt lat="49.06683" lon="3.59255">
        <ele>90.8</ele>
        <time>2020-07-01T07:55:38Z</time>
      </trkpt>
      <trkpt lat="49.06678" lon="3.59261">
        <ele>90.1</ele>
        <time>2020-07-01T07:55:39Z</time>
      </trkpt>
      <trkpt lat="49.06674" lon="3.59265">
        <ele>89.7</ele>
        <time>2020-07-01T07:55:40Z</time>
      </trkpt>
      <trkpt lat="49.0667" lon="3.5927">
        <ele>89.2</ele>
        <time>2020-07-01T07:55:41Z</time>
      </trkpt>
      <trkpt lat="49.06665" lon="3.59277">
        <ele>88.6</ele>
        <time>2020-07-01T07:55:42Z</time>
      </trkpt>
      <trkpt lat="49.0666" lon="3.59284">
        <ele>88</ele>
        <time>2020-07-01T07:55:43Z</time>
      </trkpt>
      <trkpt lat="49.06656" lon="3.59289">
        <ele>87.8</ele>
        <time>2020-07-01T07:55:44Z</time>
      </trkpt>
      <trkpt lat="49.0665" lon="3.59295">
        <ele>87.6</ele>
        <time>2020-07-01T07:55:45Z</time>
      </trkpt>
      <trkpt lat="49.06644" lon="3.59298">
        <ele>87.3</ele>
        <time>2020-07-01T07:55:46Z</time>
      </trkpt>
      <trkpt lat="49.06636" lon="3.59297">
        <ele>86.5</ele>
        <time>2020-07-01T07:55:47Z</time>
      </trkpt>
      <trkpt lat="49.06628" lon="3.59292">
        <ele>85.7</ele>
        <time>2020-07-01T07:55:48Z</time>
      </trkpt>
      <trkpt lat="49.06622" lon="3.59284">
        <ele>85.2</ele>
        <time>2020-07-01T07:55:49Z</time>
      </trkpt>
      <trkpt lat="49.06616" lon="3.59277">
        <ele>84.8</ele>
        <time>2020-07-01T07:55:50Z</time>
      </trkpt>
      <trkpt lat="49.0661" lon="3.59271">
        <ele>84.5</ele>
        <time>2020-07-01T07:55:51Z</time>
      </trkpt>
      <trkpt lat="49.06605" lon="3.59265">
        <ele>84.2</ele>
        <time>2020-07-01T07:55:52Z</time>
      </trkpt>
      <trkpt lat="49.06599" lon="3.59258">
        <ele>83.9</ele>
        <time>2020-07-01T07:55:53Z</time>
      </trkpt>
      <trkpt lat="49.06593" lon="3.59251">
        <ele>83.5</ele>
        <time>2020-07-01T07:55:54Z</time>
      </trkpt>
      <trkpt lat="49.06588" lon="3.59245">
        <ele>83.4</ele>
        <time>2020-07-01T07:55:55Z</time>
      </trkpt>
      <trkpt lat="49.06582" lon="3.5924">
        <ele>83.4</ele>
        <time>2020-07-01T07:55:56Z</time>
      </trkpt>
      <trkpt lat="49.06576" lon="3.59234">
        <ele>83.4</ele>
        <time>2020-07-01T07:55:57Z</time>
      </trkpt>
      <trkpt lat="49.0657" lon="3.59228">
        <ele>83.4</ele>
        <time>2020-07-01T07:55:58Z</time>
      </trkpt>
      <trkpt lat="49.06564" lon="3.59222">
        <ele>83.4</ele>
        <time>2020-07-01T07:55:59Z</time>
      </trkpt>
      <trkpt lat="49.06559" lon="3.59215">
        <ele>83.6</ele>
        <time>2020-07-01T07:56:00Z</time>
      </trkpt>
      <trkpt lat="49.06553" lon="3.59209">
        <ele>83.8</ele>
        <time>2020-07-01T07:56:01Z</time>
      </trkpt>
      <trkpt lat="49.06547" lon="3.59202">
        <ele>84</ele>
        <time>2020-07-01T07:56:02Z</time>
      </trkpt>
      <trkpt lat="49.06542" lon="3.59197">
        <ele>84.3</ele>
        <time>2020-07-01T07:56:03Z</time>
      </trkpt>
      <trkpt lat="49.06538" lon="3.59193">
        <ele>84.5</ele>
        <time>2020-07-01T07:56:04Z</time>
      </trkpt>
      <trkpt lat="49.06533" lon="3.59188">
        <ele>84.8</ele>
        <time>2020-07-01T07:56:05Z</time>
      </trkpt>
      <trkpt lat="49.06529" lon="3.59184">
        <ele>85</ele>
        <time>2020-07-01T07:56:06Z</time>
      </trkpt>
      <trkpt lat="49.06525" lon="3.5918">
        <ele>85.2</ele>
        <time>2020-07-01T07:56:07Z</time>
      </trkpt>
      <trkpt lat="49.06522" lon="3.59177">
        <ele>85.4</ele>
        <time>2020-07-01T07:56:08Z</time>
      </trkpt>
      <trkpt lat="49.0652" lon="3.59175">
        <ele>85.6</ele>
        <time>2020-07-01T07:56:09Z</time>
      </trkpt>
      <trkpt lat="49.06517" lon="3.59172">
        <ele>85.8</ele>
        <time>2020-07-01T07:56:10Z</time>
      </trkpt>
      <trkpt lat="49.06516" lon="3.59171">
        <ele>85.8</ele>
        <time>2020-07-01T07:56:11Z</time>
      </trkpt>
      <trkpt lat="49.06513" lon="3.59167">
        <ele>86</ele>
        <time>2020-07-01T07:56:12Z</time>
      </trkpt>
      <trkpt lat="49.06512" lon="3.59166">
        <ele>86.1</ele>
        <time>2020-07-01T07:56:13Z</time>
      </trkpt>
      <trkpt lat="49.06509" lon="3.59162">
        <ele>86.3</ele>
        <time>2020-07-01T07:56:14Z</time>
      </trkpt>
      <trkpt lat="49.06508" lon="3.59161">
        <ele>86.4</ele>
        <time>2020-07-01T07:56:15Z</time>
      </trkpt>
      <trkpt lat="49.06505" lon="3.59158">
        <ele>86.6</ele>
        <time>2020-07-01T07:56:16Z</time>
      </trkpt>
      <trkpt lat="49.06504" lon="3.59157">
        <ele>86.6</ele>
        <time>2020-07-01T07:56:17Z</time>
      </trkpt>
      <trkpt lat="49.06501" lon="3.59153">
        <ele>86.8</ele>
        <time>2020-07-01T07:56:18Z</time>
      </trkpt>
      <trkpt lat="49.065" lon="3.59152">
        <ele>86.9</ele>
        <time>2020-07-01T07:56:19Z</time>
      </trkpt>
      <trkpt lat="49.06498" lon="3.59148">
        <ele>87.1</ele>
        <time>2020-07-01T07:56:20Z</time>
      </trkpt>
      <trkpt lat="49.06497" lon="3.59147">
        <ele>87.1</ele>
        <time>2020-07-01T07:56:21Z</time>
      </trkpt>
      <trkpt lat="49.06494" lon="3.59144">
        <ele>87.3</ele>
        <time>2020-07-01T07:56:22Z</time>
      </trkpt>
      <trkpt lat="49.06491" lon="3.59141">
        <ele>87.4</ele>
        <time>2020-07-01T07:56:23Z</time>
      </trkpt>
      <trkpt lat="49.0649" lon="3.5914">
        <ele>87.5</ele>
        <time>2020-07-01T07:56:24Z</time>
      </trkpt>
      <trkpt lat="49.06487" lon="3.59138">
        <ele>87.6</ele>
        <time>2020-07-01T07:56:25Z</time>
      </trkpt>
      <trkpt lat="49.06485" lon="3.59135">
        <ele>87.8</ele>
        <time>2020-07-01T07:56:26Z</time>
      </trkpt>
      <trkpt lat="49.06482" lon="3.59132">
        <ele>87.9</ele>
        <time>2020-07-01T07:56:27Z</time>
      </trkpt>
      <trkpt lat="49.06482" lon="3.59131">
        <ele>88</ele>
        <time>2020-07-01T07:56:28Z</time>
      </trkpt>
      <trkpt lat="49.0648" lon="3.59127">
        <ele>88.1</ele>
        <time>2020-07-01T07:56:29Z</time>
      </trkpt>
      <trkpt lat="49.06479" lon="3.59125">
        <ele>88.1</ele>
        <time>2020-07-01T07:56:30Z</time>
      </trkpt>
      <trkpt lat="49.06477" lon="3.59122">
        <ele>88.3</ele>
        <time>2020-07-01T07:56:31Z</time>
      </trkpt>
      <trkpt lat="49.06476" lon="3.59121">
        <ele>88.3</ele>
        <time>2020-07-01T07:56:32Z</time>
      </trkpt>
      <trkpt lat="49.06475" lon="3.5912">
        <ele>88.3</ele>
        <time>2020-07-01T07:56:33Z</time>
      </trkpt>
      <trkpt lat="49.06474" lon="3.59119">
        <ele>88.4</ele>
        <time>2020-07-01T07:56:34Z</time>
      </trkpt>
      <trkpt lat="49.06473" lon="3.59118">
        <ele>88.4</ele>
        <time>2020-07-01T07:56:35Z</time>
      </trkpt>
      <trkpt lat="49.06471" lon="3.59119">
        <ele>88.5</ele>
        <time>2020-07-01T07:56:36Z</time>
      </trkpt>
      <trkpt lat="49.0647" lon="3.5912">
        <ele>88.5</ele>
        <time>2020-07-01T07:56:37Z</time>
      </trkpt>
      <trkpt lat="49.0647" lon="3.59119">
        <ele>88.5</ele>
        <time>2020-07-01T07:56:38Z</time>
      </trkpt>
      <trkpt lat="49.06469" lon="3.59118">
        <ele>88.5</ele>
        <time>2020-07-01T07:56:39Z</time>
      </trkpt>
      <trkpt lat="49.06468" lon="3.59118">
        <ele>88.6</ele>
        <time>2020-07-01T07:56:40Z</time>
      </trkpt>
      <trkpt lat="49.06467" lon="3.59117">
        <ele>88.6</ele>
        <time>2020-07-01T07:56:41Z</time>
      </trkpt>
      <trkpt lat="49.06467" lon="3.59117">
        <ele>88.6</ele>
        <time>2020-07-01T07:56:42Z</time>
      </trkpt>
      <trkpt lat="49.06466" lon="3.59116">
        <ele>88.6</ele>
        <time>2020-07-01T07:56:43Z</time>
      </trkpt>
      <trkpt lat="49.06465" lon="3.59116">
        <ele>88.7</ele>
        <time>2020-07-01T07:56:44Z</time>
      </trkpt>
      <trkpt lat="49.06465" lon="3.59115">
        <ele>88.7</ele>
        <time>2020-07-01T07:56:45Z</time>
      </trkpt>
      <trkpt lat="49.06464" lon="3.59115">
        <ele>88.7</ele>
        <time>2020-07-01T07:56:46Z</time>
      </trkpt>
      <trkpt lat="49.06463" lon="3.59114">
        <ele>88.7</ele>
        <time>2020-07-01T07:56:47Z</time>
      </trkpt>
      <trkpt lat="49.06462" lon="3.59114">
        <ele>88.7</ele>
        <time>2020-07-01T07:56:48Z</time>
      </trkpt>
      <trkpt lat="49.06462" lon="3.59113">
        <ele>88.8</ele>
        <time>2020-07-01T07:58:36Z</time>
      </trkpt>
      <trkpt lat="49.06461" lon="3.59113">
        <ele>88.8</ele>
        <time>2020-07-01T07:58:37Z</time>
      </trkpt>
      <trkpt lat="49.06459" lon="3.5911">
        <ele>88.8</ele>
        <time>2020-07-01T07:58:38Z</time>
      </trkpt>
      <trkpt lat="49.06457" lon="3.59106">
        <ele>88.9</ele>
        <time>2020-07-01T07:58:39Z</time>
      </trkpt>
      <trkpt lat="49.06455" lon="3.59103">
        <ele>89</ele>
        <time>2020-07-01T07:58:40Z</time>
      </trkpt>
      <trkpt lat="49.06452" lon="3.59101">
        <ele>89.1</ele>
        <time>2020-07-01T07:58:41Z</time>
      </trkpt>
      <trkpt lat="49.06449" lon="3.59097">
        <ele>89.1</ele>
        <time>2020-07-01T07:58:42Z</time>
      </trkpt>
      <trkpt lat="49.06447" lon="3.59094">
        <ele>89.2</ele>
        <time>2020-07-01T07:58:43Z</time>
      </trkpt>
      <trkpt lat="49.06444" lon="3.59091">
        <ele>89.3</ele>
        <time>2020-07-01T07:58:44Z</time>
      </trkpt>
      <trkpt lat="49.06441" lon="3.59087">
        <ele>89.3</ele>
        <time>2020-07-01T07:58:45Z</time>
      </trkpt>
      <trkpt lat="49.06438" lon="3.59084">
        <ele>89.4</ele>
        <time>2020-07-01T07:58:46Z</time>
      </trkpt>
      <trkpt lat="49.06436" lon="3.59079">
        <ele>89.5</ele>
        <time>2020-07-01T07:58:47Z</time>
      </trkpt>
      <trkpt lat="49.06432" lon="3.59075">
        <ele>89.5</ele>
        <time>2020-07-01T07:58:48Z</time>
      </trkpt>
      <trkpt lat="49.06429" lon="3.5907">
        <ele>89.6</ele>
        <time>2020-07-01T07:58:49Z</time>
      </trkpt>
      <trkpt lat="49.06426" lon="3.59066">
        <ele>89.6</ele>
        <time>2020-07-01T07:58:50Z</time>
      </trkpt>
      <trkpt lat="49.06424" lon="3.59061">
        <ele>89.7</ele>
        <time>2020-07-01T07:58:51Z</time>
      </trkpt>
      <trkpt lat="49.06421" lon="3.59057">
        <ele>89.7</ele>
        <time>2020-07-01T07:58:52Z</time>
      </trkpt>
      <trkpt lat="49.06418" lon="3.59053">
        <ele>89.7</ele>
        <time>2020-07-01T07:58:53Z</time>
      </trkpt>
      <trkpt lat="49.06415" lon="3.59048">
        <ele>89.8</ele>
        <time>2020-07-01T07:58:54Z</time>
      </trkpt>
      <trkpt lat="49.06413" lon="3.59043">
        <ele>89.8</ele>
        <time>2020-07-01T07:58:55Z</time>
      </trkpt>
      <trkpt lat="49.0641" lon="3.59037">
        <ele>89.8</ele>
        <time>2020-07-01T07:58:56Z</time>
      </trkpt>
      <trkpt lat="49.06407" lon="3.59031">
        <ele>89.8</ele>
        <time>2020-07-01T07:58:57Z</time>
      </trkpt>
      <trkpt lat="49.06404" lon="3.59025">
        <ele>89.9</ele>
        <time>2020-07-01T07:58:58Z</time>
      </trkpt>
      <trkpt lat="49.06402" lon="3.59019">
        <ele>89.9</ele>
        <time>2020-07-01T07:58:59Z</time>
      </trkpt>
      <trkpt lat="49.06399" lon="3.59014">
        <ele>89.9</ele>
        <time>2020-07-01T07:59:00Z</time>
      </trkpt>
      <trkpt lat="49.06396" lon="3.59009">
        <ele>89.8</ele>
        <time>2020-07-01T07:59:01Z</time>
      </trkpt>
      <trkpt lat="49.06393" lon="3.59003">
        <ele>89.8</ele>
        <time>2020-07-01T07:59:02Z</time>
      </trkpt>
      <trkpt lat="49.06391" lon="3.58999">
        <ele>89.7</ele>
        <time>2020-07-01T07:59:03Z</time>
      </trkpt>
      <trkpt lat="49.06388" lon="3.58994">
        <ele>89.6</ele>
        <time>2020-07-01T07:59:04Z</time>
      </trkpt>
      <trkpt lat="49.06386" lon="3.58989">
        <ele>89.6</ele>
        <time>2020-07-01T07:59:05Z</time>
      </trkpt>
      <trkpt lat="49.06383" lon="3.58984">
        <ele>89.5</ele>
        <time>2020-07-01T07:59:06Z</time>
      </trkpt>
      <trkpt lat="49.0638" lon="3.58978">
        <ele>89.4</ele>
        <time>2020-07-01T07:59:07Z</time>
      </trkpt>
      <trkpt lat="49.06378" lon="3.58972">
        <ele>89.3</ele>
        <time>2020-07-01T07:59:08Z</time>
      </trkpt>
      <trkpt lat="49.06375" lon="3.58966">
        <ele>89.2</ele>
        <time>2020-07-01T07:59:09Z</time>
      </trkpt>
      <trkpt lat="49.06373" lon="3.58959">
        <ele>89.2</ele>
        <time>2020-07-01T07:59:10Z</time>
      </trkpt>
      <trkpt lat="49.0637" lon="3.58952">
        <ele>89.1</ele>
        <time>2020-07-01T07:59:11Z</time>
      </trkpt>
      <trkpt lat="49.06366" lon="3.58945">
        <ele>89.1</ele>
        <time>2020-07-01T07:59:12Z</time>
      </trkpt>
      <trkpt lat="49.06364" lon="3.5894">
        <ele>89</ele>
        <time>2020-07-01T07:59:13Z</time>
      </trkpt>
      <trkpt lat="49.06361" lon="3.58934">
        <ele>89</ele>
        <time>2020-07-01T07:59:14Z</time>
      </trkpt>
      <trkpt lat="49.06358" lon="3.58927">
        <ele>88.9</ele>
        <time>2020-07-01T07:59:15Z</time>
      </trkpt>
      <trkpt lat="49.06355" lon="3.58921">
        <ele>88.9</ele>
        <time>2020-07-01T07:59:16Z</time>
      </trkpt>
      <trkpt lat="49.06352" lon="3.58915">
        <ele>88.9</ele>
        <time>2020-07-01T07:59:17Z</time>
      </trkpt>
      <trkpt lat="49.0635" lon="3.58909">
        <ele>88.9</ele>
        <time>2020-07-01T07:59:18Z</time>
      </trkpt>
      <trkpt lat="49.06347" lon="3.58903">
        <ele>89</ele>
        <time>2020-07-01T07:59:19Z</time>
      </trkpt>
      <trkpt lat="49.06346" lon="3.58899">
        <ele>89</ele>
        <time>2020-07-01T07:59:20Z</time>
      </trkpt>
      <trkpt lat="49.06343" lon="3.58893">
        <ele>89.1</ele>
        <time>2020-07-01T07:59:21Z</time>
      </trkpt>
      <trkpt lat="49.06341" lon="3.58887">
        <ele>89.2</ele>
        <time>2020-07-01T07:59:22Z</time>
      </trkpt>
      <trkpt lat="49.06338" lon="3.58881">
        <ele>89.2</ele>
        <time>2020-07-01T07:59:23Z</time>
      </trkpt>
      <trkpt lat="49.06335" lon="3.58875">
        <ele>89.2</ele>
        <time>2020-07-01T07:59:24Z</time>
      </trkpt>
      <trkpt lat="49.06333" lon="3.5887">
        <ele>89.2</ele>
        <time>2020-07-01T07:59:25Z</time>
      </trkpt>
      <trkpt lat="49.0633" lon="3.58865">
        <ele>89.2</ele>
        <time>2020-07-01T07:59:26Z</time>
      </trkpt>
      <trkpt lat="49.06328" lon="3.58859">
        <ele>89.2</ele>
        <time>2020-07-01T07:59:27Z</time>
      </trkpt>
      <trkpt lat="49.06325" lon="3.58854">
        <ele>89.2</ele>
        <time>2020-07-01T07:59:28Z</time>
      </trkpt>
      <trkpt lat="49.06322" lon="3.58847">
        <ele>89.2</ele>
        <time>2020-07-01T07:59:29Z</time>
      </trkpt>
      <trkpt lat="49.06321" lon="3.58842">
        <ele>89.2</ele>
        <time>2020-07-01T07:59:30Z</time>
      </trkpt>
      <trkpt lat="49.06318" lon="3.58837">
        <ele>89.2</ele>
        <time>2020-07-01T07:59:31Z</time>
      </trkpt>
      <trkpt lat="49.06316" lon="3.58832">
        <ele>89.2</ele>
        <time>2020-07-01T07:59:32Z</time>
      </trkpt>
      <trkpt lat="49.06314" lon="3.58825">
        <ele>89.1</ele>
        <time>2020-07-01T07:59:33Z</time>
      </trkpt>
      <trkpt lat="49.06312" lon="3.5882">
        <ele>89.1</ele>
        <time>2020-07-01T07:59:34Z</time>
      </trkpt>
      <trkpt lat="49.0631" lon="3.58814">
        <ele>89.2</ele>
        <time>2020-07-01T07:59:35Z</time>
      </trkpt>
      <trkpt lat="49.06309" lon="3.5881">
        <ele>89.2</ele>
        <time>2020-07-01T07:59:36Z</time>
      </trkpt>
      <trkpt lat="49.06307" lon="3.58806">
        <ele>89.3</ele>
        <time>2020-07-01T07:59:37Z</time>
      </trkpt>
      <trkpt lat="49.06306" lon="3.58801">
        <ele>89.3</ele>
        <time>2020-07-01T07:59:38Z</time>
      </trkpt>
      <trkpt lat="49.06304" lon="3.58795">
        <ele>89.4</ele>
        <time>2020-07-01T07:59:39Z</time>
      </trkpt>
      <trkpt lat="49.06302" lon="3.58789">
        <ele>89.5</ele>
        <time>2020-07-01T07:59:40Z</time>
      </trkpt>
      <trkpt lat="49.063" lon="3.58784">
        <ele>89.6</ele>
        <time>2020-07-01T07:59:41Z</time>
      </trkpt>
      <trkpt lat="49.06299" lon="3.58779">
        <ele>89.6</ele>
        <time>2020-07-01T07:59:42Z</time>
      </trkpt>
      <trkpt lat="49.06298" lon="3.58774">
        <ele>89.7</ele>
        <time>2020-07-01T07:59:43Z</time>
      </trkpt>
      <trkpt lat="49.06296" lon="3.58768">
        <ele>89.7</ele>
        <time>2020-07-01T07:59:44Z</time>
      </trkpt>
      <trkpt lat="49.06295" lon="3.58763">
        <ele>89.7</ele>
        <time>2020-07-01T07:59:45Z</time>
      </trkpt>
      <trkpt lat="49.06294" lon="3.58759">
        <ele>89.8</ele>
        <time>2020-07-01T07:59:46Z</time>
      </trkpt>
      <trkpt lat="49.06292" lon="3.58755">
        <ele>89.8</ele>
        <time>2020-07-01T07:59:47Z</time>
      </trkpt>
      <trkpt lat="49.06291" lon="3.5875">
        <ele>89.8</ele>
        <time>2020-07-01T07:59:48Z</time>
      </trkpt>
      <trkpt lat="49.06289" lon="3.58743">
        <ele>89.8</ele>
        <time>2020-07-01T07:59:49Z</time>
      </trkpt>
      <trkpt lat="49.06287" lon="3.58737">
        <ele>89.9</ele>
        <time>2020-07-01T07:59:50Z</time>
      </trkpt>
      <trkpt lat="49.06285" lon="3.58731">
        <ele>89.9</ele>
        <time>2020-07-01T07:59:51Z</time>
      </trkpt>
      <trkpt lat="49.06282" lon="3.58725">
        <ele>89.9</ele>
        <time>2020-07-01T07:59:52Z</time>
      </trkpt>
      <trkpt lat="49.06279" lon="3.58717">
        <ele>89.9</ele>
        <time>2020-07-01T07:59:53Z</time>
      </trkpt>
      <trkpt lat="49.06276" lon="3.5871">
        <ele>89.9</ele>
        <time>2020-07-01T07:59:54Z</time>
      </trkpt>
      <trkpt lat="49.06274" lon="3.58704">
        <ele>89.9</ele>
        <time>2020-07-01T07:59:55Z</time>
      </trkpt>
      <trkpt lat="49.06272" lon="3.58698">
        <ele>89.9</ele>
        <time>2020-07-01T07:59:56Z</time>
      </trkpt>
      <trkpt lat="49.0627" lon="3.58691">
        <ele>89.9</ele>
        <time>2020-07-01T07:59:57Z</time>
      </trkpt>
      <trkpt lat="49.06268" lon="3.58685">
        <ele>90</ele>
        <time>2020-07-01T07:59:58Z</time>
      </trkpt>
      <trkpt lat="49.06266" lon="3.58678">
        <ele>90</ele>
        <time>2020-07-01T07:59:59Z</time>
      </trkpt>
      <trkpt lat="49.06264" lon="3.58671">
        <ele>90.1</ele>
        <time>2020-07-01T08:00:00Z</time>
      </trkpt>
      <trkpt lat="49.06262" lon="3.58664">
        <ele>90.1</ele>
        <time>2020-07-01T08:00:01Z</time>
      </trkpt>
      <trkpt lat="49.06259" lon="3.58657">
        <ele>90.2</ele>
        <time>2020-07-01T08:00:02Z</time>
      </trkpt>
      <trkpt lat="49.06256" lon="3.5865">
        <ele>90.3</ele>
        <time>2020-07-01T08:00:03Z</time>
      </trkpt>
      <trkpt lat="49.06255" lon="3.58645">
        <ele>90.3</ele>
        <time>2020-07-01T08:00:04Z</time>
      </trkpt>
      <trkpt lat="49.06253" lon="3.5864">
        <ele>90.3</ele>
        <time>2020-07-01T08:00:05Z</time>
      </trkpt>
      <trkpt lat="49.06251" lon="3.58635">
        <ele>90.3</ele>
        <time>2020-07-01T08:00:06Z</time>
      </trkpt>
      <trkpt lat="49.06249" lon="3.5863">
        <ele>90.4</ele>
        <time>2020-07-01T08:00:07Z</time>
      </trkpt>
      <trkpt lat="49.06247" lon="3.58623">
        <ele>90.4</ele>
        <time>2020-07-01T08:00:08Z</time>
      </trkpt>
      <trkpt lat="49.06244" lon="3.58617">
        <ele>90.5</ele>
        <time>2020-07-01T08:00:09Z</time>
      </trkpt>
      <trkpt lat="49.06242" lon="3.58611">
        <ele>90.5</ele>
        <time>2020-07-01T08:00:10Z</time>
      </trkpt>
      <trkpt lat="49.0624" lon="3.58605">
        <ele>90.6</ele>
        <time>2020-07-01T08:00:11Z</time>
      </trkpt>
      <trkpt lat="49.06237" lon="3.58599">
        <ele>90.7</ele>
        <time>2020-07-01T08:00:12Z</time>
      </trkpt>
      <trkpt lat="49.06236" lon="3.58594">
        <ele>90.7</ele>
        <time>2020-07-01T08:00:13Z</time>
      </trkpt>
      <trkpt lat="49.06234" lon="3.58588">
        <ele>90.8</ele>
        <time>2020-07-01T08:00:14Z</time>
      </trkpt>
      <trkpt lat="49.06232" lon="3.58582">
        <ele>90.9</ele>
        <time>2020-07-01T08:00:15Z</time>
      </trkpt>
      <trkpt lat="49.0623" lon="3.58577">
        <ele>90.9</ele>
        <time>2020-07-01T08:00:16Z</time>
      </trkpt>
      <trkpt lat="49.06228" lon="3.58571">
        <ele>91</ele>
        <time>2020-07-01T08:00:17Z</time>
      </trkpt>
      <trkpt lat="49.06227" lon="3.58566">
        <ele>91.1</ele>
        <time>2020-07-01T08:00:18Z</time>
      </trkpt>
      <trkpt lat="49.06225" lon="3.58561">
        <ele>91.1</ele>
        <time>2020-07-01T08:00:19Z</time>
      </trkpt>
      <trkpt lat="49.06223" lon="3.58555">
        <ele>91.2</ele>
        <time>2020-07-01T08:00:20Z</time>
      </trkpt>
      <trkpt lat="49.06222" lon="3.58549">
        <ele>91.2</ele>
        <time>2020-07-01T08:00:21Z</time>
      </trkpt>
      <trkpt lat="49.0622" lon="3.58544">
        <ele>91.3</ele>
        <time>2020-07-01T08:00:22Z</time>
      </trkpt>
      <trkpt lat="49.06218" lon="3.58539">
        <ele>91.4</ele>
        <time>2020-07-01T08:00:23Z</time>
      </trkpt>
      <trkpt lat="49.06216" lon="3.58533">
        <ele>91.5</ele>
        <time>2020-07-01T08:00:24Z</time>
      </trkpt>
      <trkpt lat="49.06214" lon="3.58527">
        <ele>91.5</ele>
        <time>2020-07-01T08:00:25Z</time>
      </trkpt>
      <trkpt lat="49.06212" lon="3.58521">
        <ele>91.6</ele>
        <time>2020-07-01T08:00:26Z</time>
      </trkpt>
      <trkpt lat="49.0621" lon="3.58515">
        <ele>91.7</ele>
        <time>2020-07-01T08:00:27Z</time>
      </trkpt>
      <trkpt lat="49.06208" lon="3.5851">
        <ele>91.8</ele>
        <time>2020-07-01T08:00:28Z</time>
      </trkpt>
      <trkpt lat="49.06207" lon="3.58505">
        <ele>91.8</ele>
        <time>2020-07-01T08:00:29Z</time>
      </trkpt>
      <trkpt lat="49.06205" lon="3.58499">
        <ele>91.9</ele>
        <time>2020-07-01T08:00:30Z</time>
      </trkpt>
      <trkpt lat="49.06203" lon="3.58493">
        <ele>92</ele>
        <time>2020-07-01T08:00:31Z</time>
      </trkpt>
      <trkpt lat="49.06201" lon="3.58489">
        <ele>92</ele>
        <time>2020-07-01T08:00:32Z</time>
      </trkpt>
      <trkpt lat="49.062" lon="3.58485">
        <ele>92.1</ele>
        <time>2020-07-01T08:00:33Z</time>
      </trkpt>
      <trkpt lat="49.06198" lon="3.5848">
        <ele>92.2</ele>
        <time>2020-07-01T08:00:34Z</time>
      </trkpt>
      <trkpt lat="49.06196" lon="3.58473">
        <ele>92.3</ele>
        <time>2020-07-01T08:00:35Z</time>
      </trkpt>
      <trkpt lat="49.06195" lon="3.58469">
        <ele>92.3</ele>
        <time>2020-07-01T08:00:36Z</time>
      </trkpt>
      <trkpt lat="49.06194" lon="3.58464">
        <ele>92.4</ele>
        <time>2020-07-01T08:00:37Z</time>
      </trkpt>
      <trkpt lat="49.06192" lon="3.5846">
        <ele>92.5</ele>
        <time>2020-07-01T08:00:38Z</time>
      </trkpt>
      <trkpt lat="49.06191" lon="3.58455">
        <ele>92.5</ele>
        <time>2020-07-01T08:00:39Z</time>
      </trkpt>
      <trkpt lat="49.06189" lon="3.5845">
        <ele>92.6</ele>
        <time>2020-07-01T08:00:40Z</time>
      </trkpt>
      <trkpt lat="49.06188" lon="3.58446">
        <ele>92.6</ele>
        <time>2020-07-01T08:00:41Z</time>
      </trkpt>
      <trkpt lat="49.06187" lon="3.58441">
        <ele>92.7</ele>
        <time>2020-07-01T08:00:42Z</time>
      </trkpt>
      <trkpt lat="49.06185" lon="3.58436">
        <ele>92.7</ele>
        <time>2020-07-01T08:00:43Z</time>
      </trkpt>
      <trkpt lat="49.06184" lon="3.58431">
        <ele>92.8</ele>
        <time>2020-07-01T08:00:44Z</time>
      </trkpt>
      <trkpt lat="49.06181" lon="3.58426">
        <ele>92.8</ele>
        <time>2020-07-01T08:00:45Z</time>
      </trkpt>
      <trkpt lat="49.0618" lon="3.58421">
        <ele>92.9</ele>
        <time>2020-07-01T08:00:46Z</time>
      </trkpt>
      <trkpt lat="49.06178" lon="3.58416">
        <ele>92.9</ele>
        <time>2020-07-01T08:00:47Z</time>
      </trkpt>
      <trkpt lat="49.06177" lon="3.58411">
        <ele>92.9</ele>
        <time>2020-07-01T08:00:48Z</time>
      </trkpt>
      <trkpt lat="49.06175" lon="3.58405">
        <ele>92.9</ele>
        <time>2020-07-01T08:00:49Z</time>
      </trkpt>
      <trkpt lat="49.06173" lon="3.58398">
        <ele>92.9</ele>
        <time>2020-07-01T08:00:50Z</time>
      </trkpt>
      <trkpt lat="49.06171" lon="3.58391">
        <ele>92.8</ele>
        <time>2020-07-01T08:00:51Z</time>
      </trkpt>
      <trkpt lat="49.06169" lon="3.58384">
        <ele>92.8</ele>
        <time>2020-07-01T08:00:52Z</time>
      </trkpt>
      <trkpt lat="49.06167" lon="3.58376">
        <ele>92.7</ele>
        <time>2020-07-01T08:00:53Z</time>
      </trkpt>
      <trkpt lat="49.06165" lon="3.5837">
        <ele>92.7</ele>
        <time>2020-07-01T08:00:54Z</time>
      </trkpt>
      <trkpt lat="49.06163" lon="3.58363">
        <ele>92.6</ele>
        <time>2020-07-01T08:00:55Z</time>
      </trkpt>
      <trkpt lat="49.06161" lon="3.58356">
        <ele>92.5</ele>
        <time>2020-07-01T08:00:56Z</time>
      </trkpt>
      <trkpt lat="49.06159" lon="3.58349">
        <ele>92.5</ele>
        <time>2020-07-01T08:00:57Z</time>
      </trkpt>
      <trkpt lat="49.06156" lon="3.58342">
        <ele>92.4</ele>
        <time>2020-07-01T08:00:58Z</time>
      </trkpt>
      <trkpt lat="49.06154" lon="3.58334">
        <ele>92.4</ele>
        <time>2020-07-01T08:00:59Z</time>
      </trkpt>
      <trkpt lat="49.06151" lon="3.58326">
        <ele>92.3</ele>
        <time>2020-07-01T08:01:00Z</time>
      </trkpt>
      <trkpt lat="49.06149" lon="3.58318">
        <ele>92.3</ele>
        <time>2020-07-01T08:01:01Z</time>
      </trkpt>
      <trkpt lat="49.06147" lon="3.58311">
        <ele>92.3</ele>
        <time>2020-07-01T08:01:02Z</time>
      </trkpt>
      <trkpt lat="49.06145" lon="3.58303">
        <ele>92.3</ele>
        <time>2020-07-01T08:01:03Z</time>
      </trkpt>
      <trkpt lat="49.06142" lon="3.58296">
        <ele>92.2</ele>
        <time>2020-07-01T08:01:04Z</time>
      </trkpt>
      <trkpt lat="49.0614" lon="3.58289">
        <ele>92.2</ele>
        <time>2020-07-01T08:01:05Z</time>
      </trkpt>
      <trkpt lat="49.06139" lon="3.58282">
        <ele>92.1</ele>
        <time>2020-07-01T08:01:06Z</time>
      </trkpt>
      <trkpt lat="49.06137" lon="3.58275">
        <ele>92.1</ele>
        <time>2020-07-01T08:01:07Z</time>
      </trkpt>
      <trkpt lat="49.06135" lon="3.58269">
        <ele>92</ele>
        <time>2020-07-01T08:01:08Z</time>
      </trkpt>
      <trkpt lat="49.06134" lon="3.58263">
        <ele>92</ele>
        <time>2020-07-01T08:01:09Z</time>
      </trkpt>
      <trkpt lat="49.06132" lon="3.58257">
        <ele>91.9</ele>
        <time>2020-07-01T08:01:10Z</time>
      </trkpt>
      <trkpt lat="49.0613" lon="3.58251">
        <ele>91.9</ele>
        <time>2020-07-01T08:01:11Z</time>
      </trkpt>
      <trkpt lat="49.06129" lon="3.58246">
        <ele>91.8</ele>
        <time>2020-07-01T08:01:12Z</time>
      </trkpt>
      <trkpt lat="49.06128" lon="3.5824">
        <ele>91.7</ele>
        <time>2020-07-01T08:01:13Z</time>
      </trkpt>
      <trkpt lat="49.06126" lon="3.58234">
        <ele>91.7</ele>
        <time>2020-07-01T08:01:14Z</time>
      </trkpt>
      <trkpt lat="49.06124" lon="3.58226">
        <ele>91.6</ele>
        <time>2020-07-01T08:01:15Z</time>
      </trkpt>
      <trkpt lat="49.06122" lon="3.58219">
        <ele>91.5</ele>
        <time>2020-07-01T08:01:16Z</time>
      </trkpt>
      <trkpt lat="49.0612" lon="3.58212">
        <ele>91.4</ele>
        <time>2020-07-01T08:01:17Z</time>
      </trkpt>
      <trkpt lat="49.06118" lon="3.58205">
        <ele>91.4</ele>
        <time>2020-07-01T08:01:18Z</time>
      </trkpt>
      <trkpt lat="49.06117" lon="3.58198">
        <ele>91.3</ele>
        <time>2020-07-01T08:01:19Z</time>
      </trkpt>
      <trkpt lat="49.06115" lon="3.5819">
        <ele>91.2</ele>
        <time>2020-07-01T08:01:20Z</time>
      </trkpt>
      <trkpt lat="49.06114" lon="3.58182">
        <ele>91</ele>
        <time>2020-07-01T08:01:21Z</time>
      </trkpt>
      <trkpt lat="49.06112" lon="3.58174">
        <ele>90.9</ele>
        <time>2020-07-01T08:01:22Z</time>
      </trkpt>
      <trkpt lat="49.06111" lon="3.58167">
        <ele>90.8</ele>
        <time>2020-07-01T08:01:23Z</time>
      </trkpt>
      <trkpt lat="49.0611" lon="3.5816">
        <ele>90.7</ele>
        <time>2020-07-01T08:01:24Z</time>
      </trkpt>
      <trkpt lat="49.06109" lon="3.58153">
        <ele>90.7</ele>
        <time>2020-07-01T08:01:25Z</time>
      </trkpt>
      <trkpt lat="49.06107" lon="3.58145">
        <ele>90.6</ele>
        <time>2020-07-01T08:01:26Z</time>
      </trkpt>
      <trkpt lat="49.06106" lon="3.58135">
        <ele>90.5</ele>
        <time>2020-07-01T08:01:27Z</time>
      </trkpt>
      <trkpt lat="49.06105" lon="3.58127">
        <ele>90.4</ele>
        <time>2020-07-01T08:01:28Z</time>
      </trkpt>
      <trkpt lat="49.06104" lon="3.58119">
        <ele>90.3</ele>
        <time>2020-07-01T08:01:29Z</time>
      </trkpt>
      <trkpt lat="49.06103" lon="3.5811">
        <ele>90.2</ele>
        <time>2020-07-01T08:01:30Z</time>
      </trkpt>
      <trkpt lat="49.06102" lon="3.58103">
        <ele>90.1</ele>
        <time>2020-07-01T08:01:31Z</time>
      </trkpt>
      <trkpt lat="49.06101" lon="3.58095">
        <ele>90</ele>
        <time>2020-07-01T08:01:32Z</time>
      </trkpt>
      <trkpt lat="49.06099" lon="3.58086">
        <ele>89.8</ele>
        <time>2020-07-01T08:01:33Z</time>
      </trkpt>
      <trkpt lat="49.06098" lon="3.58079">
        <ele>89.7</ele>
        <time>2020-07-01T08:01:34Z</time>
      </trkpt>
      <trkpt lat="49.06097" lon="3.5807">
        <ele>89.6</ele>
        <time>2020-07-01T08:01:35Z</time>
      </trkpt>
      <trkpt lat="49.06096" lon="3.58062">
        <ele>89.5</ele>
        <time>2020-07-01T08:01:36Z</time>
      </trkpt>
      <trkpt lat="49.06096" lon="3.58053">
        <ele>89.4</ele>
        <time>2020-07-01T08:01:37Z</time>
      </trkpt>
      <trkpt lat="49.06095" lon="3.58045">
        <ele>89.3</ele>
        <time>2020-07-01T08:01:38Z</time>
      </trkpt>
      <trkpt lat="49.06095" lon="3.58036">
        <ele>89.2</ele>
        <time>2020-07-01T08:01:39Z</time>
      </trkpt>
      <trkpt lat="49.06095" lon="3.58028">
        <ele>89.2</ele>
        <time>2020-07-01T08:01:40Z</time>
      </trkpt>
      <trkpt lat="49.06095" lon="3.5802">
        <ele>89.1</ele>
        <time>2020-07-01T08:01:41Z</time>
      </trkpt>
      <trkpt lat="49.06095" lon="3.58012">
        <ele>89</ele>
        <time>2020-07-01T08:01:42Z</time>
      </trkpt>
      <trkpt lat="49.06095" lon="3.58004">
        <ele>89</ele>
        <time>2020-07-01T08:01:43Z</time>
      </trkpt>
      <trkpt lat="49.06096" lon="3.57997">
        <ele>88.9</ele>
        <time>2020-07-01T08:01:44Z</time>
      </trkpt>
      <trkpt lat="49.06096" lon="3.57989">
        <ele>88.9</ele>
        <time>2020-07-01T08:01:45Z</time>
      </trkpt>
      <trkpt lat="49.06096" lon="3.57981">
        <ele>88.7</ele>
        <time>2020-07-01T08:01:46Z</time>
      </trkpt>
      <trkpt lat="49.06095" lon="3.57972">
        <ele>88.6</ele>
        <time>2020-07-01T08:01:47Z</time>
      </trkpt>
      <trkpt lat="49.06095" lon="3.57962">
        <ele>88.5</ele>
        <time>2020-07-01T08:01:48Z</time>
      </trkpt>
      <trkpt lat="49.06096" lon="3.57953">
        <ele>88.4</ele>
        <time>2020-07-01T08:01:49Z</time>
      </trkpt>
      <trkpt lat="49.06096" lon="3.57943">
        <ele>88.3</ele>
        <time>2020-07-01T08:01:50Z</time>
      </trkpt>
      <trkpt lat="49.06097" lon="3.57933">
        <ele>88.3</ele>
        <time>2020-07-01T08:01:51Z</time>
      </trkpt>
      <trkpt lat="49.06097" lon="3.57923">
        <ele>88.2</ele>
        <time>2020-07-01T08:01:52Z</time>
      </trkpt>
      <trkpt lat="49.06097" lon="3.57915">
        <ele>88.2</ele>
        <time>2020-07-01T08:01:53Z</time>
      </trkpt>
      <trkpt lat="49.06097" lon="3.57906">
        <ele>88.2</ele>
        <time>2020-07-01T08:01:54Z</time>
      </trkpt>
      <trkpt lat="49.06097" lon="3.57897">
        <ele>88.2</ele>
        <time>2020-07-01T08:01:55Z</time>
      </trkpt>
      <trkpt lat="49.06097" lon="3.57888">
        <ele>88.2</ele>
        <time>2020-07-01T08:01:56Z</time>
      </trkpt>
      <trkpt lat="49.06098" lon="3.57878">
        <ele>88.2</ele>
        <time>2020-07-01T08:01:57Z</time>
      </trkpt>
      <trkpt lat="49.06098" lon="3.5787">
        <ele>88.2</ele>
        <time>2020-07-01T08:01:58Z</time>
      </trkpt>
      <trkpt lat="49.06098" lon="3.57861">
        <ele>88.3</ele>
        <time>2020-07-01T08:01:59Z</time>
      </trkpt>
      <trkpt lat="49.06099" lon="3.57852">
        <ele>88.4</ele>
        <time>2020-07-01T08:02:00Z</time>
      </trkpt>
      <trkpt lat="49.061" lon="3.57844">
        <ele>88.5</ele>
        <time>2020-07-01T08:02:01Z</time>
      </trkpt>
      <trkpt lat="49.06101" lon="3.57836">
        <ele>88.5</ele>
        <time>2020-07-01T08:02:02Z</time>
      </trkpt>
      <trkpt lat="49.06101" lon="3.57828">
        <ele>88.6</ele>
        <time>2020-07-01T08:02:03Z</time>
      </trkpt>
      <trkpt lat="49.06101" lon="3.57819">
        <ele>88.6</ele>
        <time>2020-07-01T08:02:04Z</time>
      </trkpt>
      <trkpt lat="49.06101" lon="3.57811">
        <ele>88.6</ele>
        <time>2020-07-01T08:02:05Z</time>
      </trkpt>
      <trkpt lat="49.06101" lon="3.57803">
        <ele>88.7</ele>
        <time>2020-07-01T08:02:06Z</time>
      </trkpt>
      <trkpt lat="49.06101" lon="3.57797">
        <ele>88.7</ele>
        <time>2020-07-01T08:02:07Z</time>
      </trkpt>
      <trkpt lat="49.06102" lon="3.5779">
        <ele>88.7</ele>
        <time>2020-07-01T08:02:08Z</time>
      </trkpt>
      <trkpt lat="49.06102" lon="3.57783">
        <ele>88.6</ele>
        <time>2020-07-01T08:02:09Z</time>
      </trkpt>
      <trkpt lat="49.06102" lon="3.57776">
        <ele>88.6</ele>
        <time>2020-07-01T08:02:10Z</time>
      </trkpt>
      <trkpt lat="49.06102" lon="3.57769">
        <ele>88.5</ele>
        <time>2020-07-01T08:02:11Z</time>
      </trkpt>
      <trkpt lat="49.06101" lon="3.57762">
        <ele>88.5</ele>
        <time>2020-07-01T08:02:12Z</time>
      </trkpt>
      <trkpt lat="49.06101" lon="3.57756">
        <ele>88.4</ele>
        <time>2020-07-01T08:02:13Z</time>
      </trkpt>
      <trkpt lat="49.06101" lon="3.5775">
        <ele>88.3</ele>
        <time>2020-07-01T08:02:14Z</time>
      </trkpt>
      <trkpt lat="49.06101" lon="3.57743">
        <ele>88.2</ele>
        <time>2020-07-01T08:02:15Z</time>
      </trkpt>
      <trkpt lat="49.06101" lon="3.57735">
        <ele>88</ele>
        <time>2020-07-01T08:02:16Z</time>
      </trkpt>
      <trkpt lat="49.06101" lon="3.57727">
        <ele>87.9</ele>
        <time>2020-07-01T08:02:17Z</time>
      </trkpt>
      <trkpt lat="49.06101" lon="3.57719">
        <ele>87.7</ele>
        <time>2020-07-01T08:02:18Z</time>
      </trkpt>
      <trkpt lat="49.06101" lon="3.57711">
        <ele>87.6</ele>
        <time>2020-07-01T08:02:19Z</time>
      </trkpt>
      <trkpt lat="49.06101" lon="3.57703">
        <ele>87.4</ele>
        <time>2020-07-01T08:02:20Z</time>
      </trkpt>
      <trkpt lat="49.06101" lon="3.57696">
        <ele>87.2</ele>
        <time>2020-07-01T08:02:21Z</time>
      </trkpt>
      <trkpt lat="49.06102" lon="3.57688">
        <ele>87.1</ele>
        <time>2020-07-01T08:02:22Z</time>
      </trkpt>
      <trkpt lat="49.06102" lon="3.57679">
        <ele>86.9</ele>
        <time>2020-07-01T08:02:23Z</time>
      </trkpt>
      <trkpt lat="49.06102" lon="3.5767">
        <ele>86.7</ele>
        <time>2020-07-01T08:02:24Z</time>
      </trkpt>
      <trkpt lat="49.06102" lon="3.5766">
        <ele>86.5</ele>
        <time>2020-07-01T08:02:25Z</time>
      </trkpt>
      <trkpt lat="49.06102" lon="3.5765">
        <ele>86.4</ele>
        <time>2020-07-01T08:02:26Z</time>
      </trkpt>
      <trkpt lat="49.06103" lon="3.5764">
        <ele>86.2</ele>
        <time>2020-07-01T08:02:27Z</time>
      </trkpt>
      <trkpt lat="49.06103" lon="3.57629">
        <ele>86.1</ele>
        <time>2020-07-01T08:02:28Z</time>
      </trkpt>
      <trkpt lat="49.06103" lon="3.57619">
        <ele>85.9</ele>
        <time>2020-07-01T08:02:29Z</time>
      </trkpt>
      <trkpt lat="49.06103" lon="3.57609">
        <ele>85.8</ele>
        <time>2020-07-01T08:02:30Z</time>
      </trkpt>
      <trkpt lat="49.06104" lon="3.57599">
        <ele>85.7</ele>
        <time>2020-07-01T08:02:31Z</time>
      </trkpt>
      <trkpt lat="49.06104" lon="3.57589">
        <ele>85.6</ele>
        <time>2020-07-01T08:02:32Z</time>
      </trkpt>
      <trkpt lat="49.06104" lon="3.57578">
        <ele>85.6</ele>
        <time>2020-07-01T08:02:33Z</time>
      </trkpt>
      <trkpt lat="49.06104" lon="3.57568">
        <ele>85.5</ele>
        <time>2020-07-01T08:02:34Z</time>
      </trkpt>
      <trkpt lat="49.06104" lon="3.57558">
        <ele>85.5</ele>
        <time>2020-07-01T08:02:35Z</time>
      </trkpt>
      <trkpt lat="49.06104" lon="3.57548">
        <ele>85.5</ele>
        <time>2020-07-01T08:02:36Z</time>
      </trkpt>
      <trkpt lat="49.06104" lon="3.57537">
        <ele>85.5</ele>
        <time>2020-07-01T08:02:37Z</time>
      </trkpt>
      <trkpt lat="49.06105" lon="3.57527">
        <ele>85.5</ele>
        <time>2020-07-01T08:02:38Z</time>
      </trkpt>
      <trkpt lat="49.06104" lon="3.57518">
        <ele>85.5</ele>
        <time>2020-07-01T08:02:39Z</time>
      </trkpt>
      <trkpt lat="49.06104" lon="3.57508">
        <ele>85.6</ele>
        <time>2020-07-01T08:02:40Z</time>
      </trkpt>
      <trkpt lat="49.06104" lon="3.57499">
        <ele>85.7</ele>
        <time>2020-07-01T08:02:41Z</time>
      </trkpt>
      <trkpt lat="49.06104" lon="3.5749">
        <ele>85.8</ele>
        <time>2020-07-01T08:02:42Z</time>
      </trkpt>
      <trkpt lat="49.06105" lon="3.57481">
        <ele>85.8</ele>
        <time>2020-07-01T08:02:43Z</time>
      </trkpt>
      <trkpt lat="49.06105" lon="3.57474">
        <ele>85.9</ele>
        <time>2020-07-01T08:02:44Z</time>
      </trkpt>
      <trkpt lat="49.06105" lon="3.57466">
        <ele>86</ele>
        <time>2020-07-01T08:02:45Z</time>
      </trkpt>
      <trkpt lat="49.06105" lon="3.57458">
        <ele>86.1</ele>
        <time>2020-07-01T08:02:46Z</time>
      </trkpt>
      <trkpt lat="49.06105" lon="3.57449">
        <ele>86.2</ele>
        <time>2020-07-01T08:02:47Z</time>
      </trkpt>
      <trkpt lat="49.06106" lon="3.57442">
        <ele>86.3</ele>
        <time>2020-07-01T08:02:48Z</time>
      </trkpt>
      <trkpt lat="49.06106" lon="3.57435">
        <ele>86.4</ele>
        <time>2020-07-01T08:02:49Z</time>
      </trkpt>
      <trkpt lat="49.06106" lon="3.57427">
        <ele>86.5</ele>
        <time>2020-07-01T08:02:50Z</time>
      </trkpt>
      <trkpt lat="49.06106" lon="3.57419">
        <ele>86.6</ele>
        <time>2020-07-01T08:02:51Z</time>
      </trkpt>
      <trkpt lat="49.06107" lon="3.57412">
        <ele>86.7</ele>
        <time>2020-07-01T08:02:52Z</time>
      </trkpt>
      <trkpt lat="49.06106" lon="3.57404">
        <ele>86.8</ele>
        <time>2020-07-01T08:02:53Z</time>
      </trkpt>
      <trkpt lat="49.06107" lon="3.57395">
        <ele>86.9</ele>
        <time>2020-07-01T08:02:54Z</time>
      </trkpt>
      <trkpt lat="49.06107" lon="3.57387">
        <ele>86.9</ele>
        <time>2020-07-01T08:02:55Z</time>
      </trkpt>
      <trkpt lat="49.06107" lon="3.5738">
        <ele>86.9</ele>
        <time>2020-07-01T08:02:56Z</time>
      </trkpt>
      <trkpt lat="49.06108" lon="3.57373">
        <ele>86.9</ele>
        <time>2020-07-01T08:02:57Z</time>
      </trkpt>
      <trkpt lat="49.06109" lon="3.57366">
        <ele>87</ele>
        <time>2020-07-01T08:02:58Z</time>
      </trkpt>
      <trkpt lat="49.0611" lon="3.57359">
        <ele>87</ele>
        <time>2020-07-01T08:02:59Z</time>
      </trkpt>
      <trkpt lat="49.06111" lon="3.57352">
        <ele>87.1</ele>
        <time>2020-07-01T08:03:00Z</time>
      </trkpt>
      <trkpt lat="49.06112" lon="3.57346">
        <ele>87.1</ele>
        <time>2020-07-01T08:03:01Z</time>
      </trkpt>
      <trkpt lat="49.06114" lon="3.5734">
        <ele>87.2</ele>
        <time>2020-07-01T08:03:02Z</time>
      </trkpt>
      <trkpt lat="49.06115" lon="3.57332">
        <ele>87.2</ele>
        <time>2020-07-01T08:03:03Z</time>
      </trkpt>
      <trkpt lat="49.06117" lon="3.57326">
        <ele>87.3</ele>
        <time>2020-07-01T08:03:04Z</time>
      </trkpt>
      <trkpt lat="49.06119" lon="3.57321">
        <ele>87.3</ele>
        <time>2020-07-01T08:03:05Z</time>
      </trkpt>
      <trkpt lat="49.0612" lon="3.57314">
        <ele>87.4</ele>
        <time>2020-07-01T08:03:06Z</time>
      </trkpt>
      <trkpt lat="49.06122" lon="3.57307">
        <ele>87.4</ele>
        <time>2020-07-01T08:03:07Z</time>
      </trkpt>
      <trkpt lat="49.06123" lon="3.57301">
        <ele>87.5</ele>
        <time>2020-07-01T08:03:08Z</time>
      </trkpt>
      <trkpt lat="49.06125" lon="3.57295">
        <ele>87.5</ele>
        <time>2020-07-01T08:03:09Z</time>
      </trkpt>
      <trkpt lat="49.06127" lon="3.57287">
        <ele>87.5</ele>
        <time>2020-07-01T08:03:10Z</time>
      </trkpt>
      <trkpt lat="49.06129" lon="3.57281">
        <ele>87.6</ele>
        <time>2020-07-01T08:03:11Z</time>
      </trkpt>
      <trkpt lat="49.06131" lon="3.57273">
        <ele>87.6</ele>
        <time>2020-07-01T08:03:12Z</time>
      </trkpt>
      <trkpt lat="49.06134" lon="3.57266">
        <ele>87.6</ele>
        <time>2020-07-01T08:03:13Z</time>
      </trkpt>
      <trkpt lat="49.06137" lon="3.57258">
        <ele>87.6</ele>
        <time>2020-07-01T08:03:14Z</time>
      </trkpt>
      <trkpt lat="49.06139" lon="3.57251">
        <ele>87.6</ele>
        <time>2020-07-01T08:03:15Z</time>
      </trkpt>
      <trkpt lat="49.06142" lon="3.57245">
        <ele>87.6</ele>
        <time>2020-07-01T08:03:16Z</time>
      </trkpt>
      <trkpt lat="49.06145" lon="3.57238">
        <ele>87.6</ele>
        <time>2020-07-01T08:03:17Z</time>
      </trkpt>
      <trkpt lat="49.06149" lon="3.5723">
        <ele>87.5</ele>
        <time>2020-07-01T08:03:18Z</time>
      </trkpt>
      <trkpt lat="49.06152" lon="3.57225">
        <ele>87.4</ele>
        <time>2020-07-01T08:03:19Z</time>
      </trkpt>
      <trkpt lat="49.06155" lon="3.57217">
        <ele>87.4</ele>
        <time>2020-07-01T08:03:20Z</time>
      </trkpt>
      <trkpt lat="49.06158" lon="3.57211">
        <ele>87.3</ele>
        <time>2020-07-01T08:03:21Z</time>
      </trkpt>
      <trkpt lat="49.06161" lon="3.57204">
        <ele>87.3</ele>
        <time>2020-07-01T08:03:22Z</time>
      </trkpt>
      <trkpt lat="49.06164" lon="3.57197">
        <ele>87.2</ele>
        <time>2020-07-01T08:03:23Z</time>
      </trkpt>
      <trkpt lat="49.06168" lon="3.5719">
        <ele>87.2</ele>
        <time>2020-07-01T08:03:24Z</time>
      </trkpt>
      <trkpt lat="49.06171" lon="3.57182">
        <ele>87.1</ele>
        <time>2020-07-01T08:03:25Z</time>
      </trkpt>
      <trkpt lat="49.06175" lon="3.57174">
        <ele>87</ele>
        <time>2020-07-01T08:03:26Z</time>
      </trkpt>
      <trkpt lat="49.06179" lon="3.57166">
        <ele>86.9</ele>
        <time>2020-07-01T08:03:27Z</time>
      </trkpt>
      <trkpt lat="49.06183" lon="3.57157">
        <ele>86.8</ele>
        <time>2020-07-01T08:03:28Z</time>
      </trkpt>
      <trkpt lat="49.06187" lon="3.57149">
        <ele>86.8</ele>
        <time>2020-07-01T08:03:29Z</time>
      </trkpt>
      <trkpt lat="49.06191" lon="3.57141">
        <ele>86.7</ele>
        <time>2020-07-01T08:03:30Z</time>
      </trkpt>
      <trkpt lat="49.06195" lon="3.57132">
        <ele>86.6</ele>
        <time>2020-07-01T08:03:31Z</time>
      </trkpt>
      <trkpt lat="49.06199" lon="3.57123">
        <ele>86.5</ele>
        <time>2020-07-01T08:03:32Z</time>
      </trkpt>
      <trkpt lat="49.06202" lon="3.57115">
        <ele>86.4</ele>
        <time>2020-07-01T08:03:33Z</time>
      </trkpt>
      <trkpt lat="49.06206" lon="3.57106">
        <ele>86.3</ele>
        <time>2020-07-01T08:03:34Z</time>
      </trkpt>
      <trkpt lat="49.0621" lon="3.57098">
        <ele>86.3</ele>
        <time>2020-07-01T08:03:35Z</time>
      </trkpt>
      <trkpt lat="49.06214" lon="3.5709">
        <ele>86.3</ele>
        <time>2020-07-01T08:03:36Z</time>
      </trkpt>
      <trkpt lat="49.06218" lon="3.57081">
        <ele>86.3</ele>
        <time>2020-07-01T08:03:37Z</time>
      </trkpt>
      <trkpt lat="49.06222" lon="3.57073">
        <ele>86.4</ele>
        <time>2020-07-01T08:03:38Z</time>
      </trkpt>
      <trkpt lat="49.06226" lon="3.57066">
        <ele>86.4</ele>
        <time>2020-07-01T08:03:39Z</time>
      </trkpt>
      <trkpt lat="49.0623" lon="3.57058">
        <ele>86.6</ele>
        <time>2020-07-01T08:03:40Z</time>
      </trkpt>
      <trkpt lat="49.06234" lon="3.5705">
        <ele>86.7</ele>
        <time>2020-07-01T08:03:41Z</time>
      </trkpt>
      <trkpt lat="49.06239" lon="3.57043">
        <ele>86.9</ele>
        <time>2020-07-01T08:03:42Z</time>
      </trkpt>
      <trkpt lat="49.06243" lon="3.57037">
        <ele>87.1</ele>
        <time>2020-07-01T08:03:43Z</time>
      </trkpt>
      <trkpt lat="49.06247" lon="3.57031">
        <ele>87.3</ele>
        <time>2020-07-01T08:03:44Z</time>
      </trkpt>
      <trkpt lat="49.06251" lon="3.57025">
        <ele>87.6</ele>
        <time>2020-07-01T08:03:45Z</time>
      </trkpt>
      <trkpt lat="49.06254" lon="3.5702">
        <ele>87.9</ele>
        <time>2020-07-01T08:03:46Z</time>
      </trkpt>
      <trkpt lat="49.06258" lon="3.57013">
        <ele>88.3</ele>
        <time>2020-07-01T08:03:47Z</time>
      </trkpt>
      <trkpt lat="49.06261" lon="3.57008">
        <ele>88.6</ele>
        <time>2020-07-01T08:03:48Z</time>
      </trkpt>
      <trkpt lat="49.06264" lon="3.57003">
        <ele>88.9</ele>
        <time>2020-07-01T08:03:49Z</time>
      </trkpt>
      <trkpt lat="49.06268" lon="3.56999">
        <ele>89.3</ele>
        <time>2020-07-01T08:03:50Z</time>
      </trkpt>
      <trkpt lat="49.06271" lon="3.56995">
        <ele>89.6</ele>
        <time>2020-07-01T08:03:51Z</time>
      </trkpt>
      <trkpt lat="49.06274" lon="3.5699">
        <ele>89.9</ele>
        <time>2020-07-01T08:03:52Z</time>
      </trkpt>
      <trkpt lat="49.06277" lon="3.56986">
        <ele>90.2</ele>
        <time>2020-07-01T08:03:53Z</time>
      </trkpt>
      <trkpt lat="49.06279" lon="3.56982">
        <ele>90.5</ele>
        <time>2020-07-01T08:03:54Z</time>
      </trkpt>
      <trkpt lat="49.06282" lon="3.56978">
        <ele>90.8</ele>
        <time>2020-07-01T08:03:55Z</time>
      </trkpt>
      <trkpt lat="49.06284" lon="3.56974">
        <ele>91.1</ele>
        <time>2020-07-01T08:03:56Z</time>
      </trkpt>
      <trkpt lat="49.06286" lon="3.5697">
        <ele>91.3</ele>
        <time>2020-07-01T08:03:57Z</time>
      </trkpt>
      <trkpt lat="49.06288" lon="3.56965">
        <ele>91.6</ele>
        <time>2020-07-01T08:03:58Z</time>
      </trkpt>
      <trkpt lat="49.06291" lon="3.56962">
        <ele>91.8</ele>
        <time>2020-07-01T08:03:59Z</time>
      </trkpt>
      <trkpt lat="49.06293" lon="3.56958">
        <ele>92</ele>
        <time>2020-07-01T08:04:00Z</time>
      </trkpt>
      <trkpt lat="49.06295" lon="3.56955">
        <ele>92.3</ele>
        <time>2020-07-01T08:04:01Z</time>
      </trkpt>
      <trkpt lat="49.06297" lon="3.56952">
        <ele>92.5</ele>
        <time>2020-07-01T08:04:02Z</time>
      </trkpt>
      <trkpt lat="49.063" lon="3.56948">
        <ele>92.8</ele>
        <time>2020-07-01T08:04:03Z</time>
      </trkpt>
      <trkpt lat="49.06301" lon="3.56946">
        <ele>92.9</ele>
        <time>2020-07-01T08:04:04Z</time>
      </trkpt>
      <trkpt lat="49.06303" lon="3.56943">
        <ele>93</ele>
        <time>2020-07-01T08:04:05Z</time>
      </trkpt>
      <trkpt lat="49.06305" lon="3.5694">
        <ele>93.2</ele>
        <time>2020-07-01T08:04:06Z</time>
      </trkpt>
      <trkpt lat="49.06306" lon="3.56934">
        <ele>93.5</ele>
        <time>2020-07-01T08:04:07Z</time>
      </trkpt>
      <trkpt lat="49.06307" lon="3.56932">
        <ele>93.6</ele>
        <time>2020-07-01T08:04:08Z</time>
      </trkpt>
      <trkpt lat="49.06309" lon="3.56928">
        <ele>93.8</ele>
        <time>2020-07-01T08:04:09Z</time>
      </trkpt>
      <trkpt lat="49.06311" lon="3.56927">
        <ele>93.9</ele>
        <time>2020-07-01T08:04:10Z</time>
      </trkpt>
      <trkpt lat="49.06313" lon="3.56923">
        <ele>94.2</ele>
        <time>2020-07-01T08:04:11Z</time>
      </trkpt>
      <trkpt lat="49.06313" lon="3.56921">
        <ele>94.3</ele>
        <time>2020-07-01T08:04:12Z</time>
      </trkpt>
      <trkpt lat="49.06316" lon="3.56916">
        <ele>94.6</ele>
        <time>2020-07-01T08:04:13Z</time>
      </trkpt>
      <trkpt lat="49.06317" lon="3.56915">
        <ele>94.7</ele>
        <time>2020-07-01T08:04:14Z</time>
      </trkpt>
      <trkpt lat="49.06318" lon="3.56911">
        <ele>95</ele>
        <time>2020-07-01T08:04:15Z</time>
      </trkpt>
      <trkpt lat="49.06321" lon="3.56907">
        <ele>95.3</ele>
        <time>2020-07-01T08:04:16Z</time>
      </trkpt>
      <trkpt lat="49.06321" lon="3.56905">
        <ele>95.4</ele>
        <time>2020-07-01T08:04:17Z</time>
      </trkpt>
      <trkpt lat="49.06323" lon="3.56902">
        <ele>95.6</ele>
        <time>2020-07-01T08:04:18Z</time>
      </trkpt>
      <trkpt lat="49.06325" lon="3.56898">
        <ele>95.9</ele>
        <time>2020-07-01T08:04:19Z</time>
      </trkpt>
      <trkpt lat="49.06326" lon="3.56896">
        <ele>96</ele>
        <time>2020-07-01T08:04:20Z</time>
      </trkpt>
      <trkpt lat="49.06329" lon="3.56892">
        <ele>96.3</ele>
        <time>2020-07-01T08:04:21Z</time>
      </trkpt>
      <trkpt lat="49.0633" lon="3.56891">
        <ele>96.4</ele>
        <time>2020-07-01T08:04:22Z</time>
      </trkpt>
      <trkpt lat="49.06332" lon="3.56888">
        <ele>96.6</ele>
        <time>2020-07-01T08:04:23Z</time>
      </trkpt>
      <trkpt lat="49.06334" lon="3.56885">
        <ele>96.8</ele>
        <time>2020-07-01T08:04:24Z</time>
      </trkpt>
      <trkpt lat="49.06336" lon="3.56882">
        <ele>97.1</ele>
        <time>2020-07-01T08:04:25Z</time>
      </trkpt>
      <trkpt lat="49.06339" lon="3.5688">
        <ele>97.3</ele>
        <time>2020-07-01T08:04:26Z</time>
      </trkpt>
      <trkpt lat="49.06341" lon="3.56877">
        <ele>97.5</ele>
        <time>2020-07-01T08:04:27Z</time>
      </trkpt>
      <trkpt lat="49.06344" lon="3.56874">
        <ele>97.8</ele>
        <time>2020-07-01T08:04:28Z</time>
      </trkpt>
      <trkpt lat="49.06345" lon="3.56873">
        <ele>97.9</ele>
        <time>2020-07-01T08:04:29Z</time>
      </trkpt>
      <trkpt lat="49.06349" lon="3.5687">
        <ele>98.1</ele>
        <time>2020-07-01T08:04:30Z</time>
      </trkpt>
      <trkpt lat="49.0635" lon="3.56869">
        <ele>98.2</ele>
        <time>2020-07-01T08:04:31Z</time>
      </trkpt>
      <trkpt lat="49.06352" lon="3.56865">
        <ele>98.5</ele>
        <time>2020-07-01T08:04:32Z</time>
      </trkpt>
      <trkpt lat="49.06353" lon="3.56863">
        <ele>98.6</ele>
        <time>2020-07-01T08:04:33Z</time>
      </trkpt>
      <trkpt lat="49.06355" lon="3.5686">
        <ele>99</ele>
        <time>2020-07-01T08:04:34Z</time>
      </trkpt>
      <trkpt lat="49.06359" lon="3.56858">
        <ele>99.3</ele>
        <time>2020-07-01T08:04:35Z</time>
      </trkpt>
      <trkpt lat="49.0636" lon="3.56857">
        <ele>99.4</ele>
        <time>2020-07-01T08:04:36Z</time>
      </trkpt>
      <trkpt lat="49.06363" lon="3.56854">
        <ele>99.6</ele>
        <time>2020-07-01T08:04:37Z</time>
      </trkpt>
      <trkpt lat="49.06365" lon="3.56852">
        <ele>99.9</ele>
        <time>2020-07-01T08:04:38Z</time>
      </trkpt>
      <trkpt lat="49.06368" lon="3.5685">
        <ele>100.1</ele>
        <time>2020-07-01T08:04:39Z</time>
      </trkpt>
      <trkpt lat="49.0637" lon="3.56846">
        <ele>100.4</ele>
        <time>2020-07-01T08:04:40Z</time>
      </trkpt>
      <trkpt lat="49.06371" lon="3.56845">
        <ele>100.5</ele>
        <time>2020-07-01T08:04:41Z</time>
      </trkpt>
      <trkpt lat="49.06375" lon="3.56844">
        <ele>100.7</ele>
        <time>2020-07-01T08:04:42Z</time>
      </trkpt>
      <trkpt lat="49.06376" lon="3.56843">
        <ele>100.8</ele>
        <time>2020-07-01T08:04:43Z</time>
      </trkpt>
      <trkpt lat="49.06379" lon="3.56842">
        <ele>101</ele>
        <time>2020-07-01T08:04:44Z</time>
      </trkpt>
      <trkpt lat="49.06382" lon="3.56841">
        <ele>101.3</ele>
        <time>2020-07-01T08:04:45Z</time>
      </trkpt>
      <trkpt lat="49.06386" lon="3.56838">
        <ele>101.5</ele>
        <time>2020-07-01T08:04:46Z</time>
      </trkpt>
      <trkpt lat="49.06387" lon="3.56838">
        <ele>101.6</ele>
        <time>2020-07-01T08:04:47Z</time>
      </trkpt>
      <trkpt lat="49.06391" lon="3.56835">
        <ele>101.9</ele>
        <time>2020-07-01T08:04:48Z</time>
      </trkpt>
      <trkpt lat="49.06393" lon="3.56835">
        <ele>102</ele>
        <time>2020-07-01T08:04:49Z</time>
      </trkpt>
      <trkpt lat="49.06396" lon="3.56834">
        <ele>102.2</ele>
        <time>2020-07-01T08:04:50Z</time>
      </trkpt>
      <trkpt lat="49.06399" lon="3.56833">
        <ele>102.3</ele>
        <time>2020-07-01T08:04:51Z</time>
      </trkpt>
      <trkpt lat="49.06401" lon="3.56831">
        <ele>102.6</ele>
        <time>2020-07-01T08:04:52Z</time>
      </trkpt>
      <trkpt lat="49.06404" lon="3.5683">
        <ele>102.8</ele>
        <time>2020-07-01T08:04:53Z</time>
      </trkpt>
      <trkpt lat="49.06406" lon="3.5683">
        <ele>102.8</ele>
        <time>2020-07-01T08:04:54Z</time>
      </trkpt>
      <trkpt lat="49.06409" lon="3.56831">
        <ele>103</ele>
        <time>2020-07-01T08:04:55Z</time>
      </trkpt>
      <trkpt lat="49.0641" lon="3.5683">
        <ele>103.1</ele>
        <time>2020-07-01T08:04:56Z</time>
      </trkpt>
      <trkpt lat="49.06414" lon="3.5683">
        <ele>103.3</ele>
        <time>2020-07-01T08:04:57Z</time>
      </trkpt>
      <trkpt lat="49.06415" lon="3.56829">
        <ele>103.3</ele>
        <time>2020-07-01T08:04:58Z</time>
      </trkpt>
      <trkpt lat="49.06419" lon="3.56828">
        <ele>103.8</ele>
        <time>2020-07-01T08:04:59Z</time>
      </trkpt>
      <trkpt lat="49.0642" lon="3.56827">
        <ele>103.8</ele>
        <time>2020-07-01T08:05:00Z</time>
      </trkpt>
      <trkpt lat="49.06423" lon="3.56826">
        <ele>103.9</ele>
        <time>2020-07-01T08:05:01Z</time>
      </trkpt>
      <trkpt lat="49.06426" lon="3.56825">
        <ele>104</ele>
        <time>2020-07-01T08:05:02Z</time>
      </trkpt>
      <trkpt lat="49.0643" lon="3.56824">
        <ele>104.1</ele>
        <time>2020-07-01T08:05:03Z</time>
      </trkpt>
      <trkpt lat="49.06433" lon="3.56824">
        <ele>104.2</ele>
        <time>2020-07-01T08:05:04Z</time>
      </trkpt>
      <trkpt lat="49.06438" lon="3.56825">
        <ele>104.4</ele>
        <time>2020-07-01T08:05:05Z</time>
      </trkpt>
      <trkpt lat="49.06441" lon="3.56825">
        <ele>104.5</ele>
        <time>2020-07-01T08:05:06Z</time>
      </trkpt>
      <trkpt lat="49.06445" lon="3.56826">
        <ele>104.6</ele>
        <time>2020-07-01T08:05:07Z</time>
      </trkpt>
      <trkpt lat="49.06448" lon="3.56827">
        <ele>104.7</ele>
        <time>2020-07-01T08:05:08Z</time>
      </trkpt>
      <trkpt lat="49.06452" lon="3.56828">
        <ele>104.8</ele>
        <time>2020-07-01T08:05:09Z</time>
      </trkpt>
      <trkpt lat="49.06456" lon="3.56829">
        <ele>104.9</ele>
        <time>2020-07-01T08:05:10Z</time>
      </trkpt>
      <trkpt lat="49.06459" lon="3.5683">
        <ele>105</ele>
        <time>2020-07-01T08:05:11Z</time>
      </trkpt>
      <trkpt lat="49.06463" lon="3.56829">
        <ele>105.1</ele>
        <time>2020-07-01T08:05:12Z</time>
      </trkpt>
      <trkpt lat="49.06467" lon="3.5683">
        <ele>105.2</ele>
        <time>2020-07-01T08:05:13Z</time>
      </trkpt>
      <trkpt lat="49.0647" lon="3.5683">
        <ele>105.3</ele>
        <time>2020-07-01T08:05:14Z</time>
      </trkpt>
      <trkpt lat="49.06474" lon="3.56831">
        <ele>105.4</ele>
        <time>2020-07-01T08:05:15Z</time>
      </trkpt>
      <trkpt lat="49.06477" lon="3.56832">
        <ele>105.4</ele>
        <time>2020-07-01T08:05:16Z</time>
      </trkpt>
      <trkpt lat="49.0648" lon="3.56832">
        <ele>105.5</ele>
        <time>2020-07-01T08:05:17Z</time>
      </trkpt>
      <trkpt lat="49.06483" lon="3.56832">
        <ele>105.6</ele>
        <time>2020-07-01T08:05:18Z</time>
      </trkpt>
      <trkpt lat="49.06486" lon="3.56833">
        <ele>105.6</ele>
        <time>2020-07-01T08:05:19Z</time>
      </trkpt>
      <trkpt lat="49.0649" lon="3.56834">
        <ele>105.7</ele>
        <time>2020-07-01T08:05:20Z</time>
      </trkpt>
      <trkpt lat="49.06493" lon="3.56835">
        <ele>105.7</ele>
        <time>2020-07-01T08:05:21Z</time>
      </trkpt>
      <trkpt lat="49.06497" lon="3.56837">
        <ele>105.8</ele>
        <time>2020-07-01T08:05:22Z</time>
      </trkpt>
      <trkpt lat="49.065" lon="3.56838">
        <ele>105.8</ele>
        <time>2020-07-01T08:05:23Z</time>
      </trkpt>
      <trkpt lat="49.06503" lon="3.56838">
        <ele>105.8</ele>
        <time>2020-07-01T08:05:24Z</time>
      </trkpt>
      <trkpt lat="49.06506" lon="3.56839">
        <ele>105.8</ele>
        <time>2020-07-01T08:05:25Z</time>
      </trkpt>
      <trkpt lat="49.06509" lon="3.56838">
        <ele>105.8</ele>
        <time>2020-07-01T08:05:26Z</time>
      </trkpt>
      <trkpt lat="49.06512" lon="3.56839">
        <ele>105.8</ele>
        <time>2020-07-01T08:05:27Z</time>
      </trkpt>
      <trkpt lat="49.06516" lon="3.56838">
        <ele>105.8</ele>
        <time>2020-07-01T08:05:28Z</time>
      </trkpt>
      <trkpt lat="49.06519" lon="3.56838">
        <ele>105.8</ele>
        <time>2020-07-01T08:05:29Z</time>
      </trkpt>
      <trkpt lat="49.06523" lon="3.56838">
        <ele>105.7</ele>
        <time>2020-07-01T08:05:30Z</time>
      </trkpt>
      <trkpt lat="49.06527" lon="3.56839">
        <ele>105.6</ele>
        <time>2020-07-01T08:05:31Z</time>
      </trkpt>
      <trkpt lat="49.06532" lon="3.56839">
        <ele>105.5</ele>
        <time>2020-07-01T08:05:32Z</time>
      </trkpt>
      <trkpt lat="49.06536" lon="3.56839">
        <ele>105.4</ele>
        <time>2020-07-01T08:05:33Z</time>
      </trkpt>
      <trkpt lat="49.06541" lon="3.56838">
        <ele>105.3</ele>
        <time>2020-07-01T08:05:34Z</time>
      </trkpt>
      <trkpt lat="49.06546" lon="3.56836">
        <ele>105.1</ele>
        <time>2020-07-01T08:05:35Z</time>
      </trkpt>
      <trkpt lat="49.06552" lon="3.56836">
        <ele>105</ele>
        <time>2020-07-01T08:05:36Z</time>
      </trkpt>
      <trkpt lat="49.06557" lon="3.56834">
        <ele>104.8</ele>
        <time>2020-07-01T08:05:37Z</time>
      </trkpt>
      <trkpt lat="49.06563" lon="3.56832">
        <ele>104.6</ele>
        <time>2020-07-01T08:05:38Z</time>
      </trkpt>
      <trkpt lat="49.06568" lon="3.56831">
        <ele>104.4</ele>
        <time>2020-07-01T08:05:39Z</time>
      </trkpt>
      <trkpt lat="49.06574" lon="3.5683">
        <ele>104.2</ele>
        <time>2020-07-01T08:05:40Z</time>
      </trkpt>
      <trkpt lat="49.06581" lon="3.56828">
        <ele>103.9</ele>
        <time>2020-07-01T08:05:41Z</time>
      </trkpt>
      <trkpt lat="49.06587" lon="3.56826">
        <ele>103.6</ele>
        <time>2020-07-01T08:05:42Z</time>
      </trkpt>
      <trkpt lat="49.06594" lon="3.56825">
        <ele>103.3</ele>
        <time>2020-07-01T08:05:43Z</time>
      </trkpt>
      <trkpt lat="49.06601" lon="3.56823">
        <ele>103</ele>
        <time>2020-07-01T08:05:44Z</time>
      </trkpt>
      <trkpt lat="49.06608" lon="3.56821">
        <ele>102.7</ele>
        <time>2020-07-01T08:05:45Z</time>
      </trkpt>
      <trkpt lat="49.06615" lon="3.56818">
        <ele>102.3</ele>
        <time>2020-07-01T08:05:46Z</time>
      </trkpt>
      <trkpt lat="49.06623" lon="3.56816">
        <ele>101.9</ele>
        <time>2020-07-01T08:05:47Z</time>
      </trkpt>
      <trkpt lat="49.06631" lon="3.56813">
        <ele>101.4</ele>
        <time>2020-07-01T08:05:48Z</time>
      </trkpt>
      <trkpt lat="49.06639" lon="3.56811">
        <ele>100.9</ele>
        <time>2020-07-01T08:05:49Z</time>
      </trkpt>
      <trkpt lat="49.06647" lon="3.56806">
        <ele>100.3</ele>
        <time>2020-07-01T08:05:50Z</time>
      </trkpt>
      <trkpt lat="49.06655" lon="3.56802">
        <ele>99.9</ele>
        <time>2020-07-01T08:05:51Z</time>
      </trkpt>
      <trkpt lat="49.06663" lon="3.56798">
        <ele>99.4</ele>
        <time>2020-07-01T08:05:52Z</time>
      </trkpt>
      <trkpt lat="49.06671" lon="3.56795">
        <ele>98.9</ele>
        <time>2020-07-01T08:05:53Z</time>
      </trkpt>
      <trkpt lat="49.06679" lon="3.56791">
        <ele>98.3</ele>
        <time>2020-07-01T08:05:54Z</time>
      </trkpt>
      <trkpt lat="49.06688" lon="3.56787">
        <ele>97.8</ele>
        <time>2020-07-01T08:05:55Z</time>
      </trkpt>
      <trkpt lat="49.06697" lon="3.56783">
        <ele>97.1</ele>
        <time>2020-07-01T08:05:56Z</time>
      </trkpt>
      <trkpt lat="49.06706" lon="3.56777">
        <ele>96.5</ele>
        <time>2020-07-01T08:05:57Z</time>
      </trkpt>
      <trkpt lat="49.06715" lon="3.56771">
        <ele>96</ele>
        <time>2020-07-01T08:05:58Z</time>
      </trkpt>
      <trkpt lat="49.06725" lon="3.56765">
        <ele>95.5</ele>
        <time>2020-07-01T08:05:59Z</time>
      </trkpt>
      <trkpt lat="49.06734" lon="3.56758">
        <ele>95</ele>
        <time>2020-07-01T08:06:00Z</time>
      </trkpt>
      <trkpt lat="49.06743" lon="3.56752">
        <ele>94.6</ele>
        <time>2020-07-01T08:06:01Z</time>
      </trkpt>
      <trkpt lat="49.06752" lon="3.56746">
        <ele>94.2</ele>
        <time>2020-07-01T08:06:02Z</time>
      </trkpt>
      <trkpt lat="49.0676" lon="3.56739">
        <ele>93.9</ele>
        <time>2020-07-01T08:06:03Z</time>
      </trkpt>
      <trkpt lat="49.06769" lon="3.56733">
        <ele>93.6</ele>
        <time>2020-07-01T08:06:04Z</time>
      </trkpt>
      <trkpt lat="49.06778" lon="3.56726">
        <ele>93.3</ele>
        <time>2020-07-01T08:06:05Z</time>
      </trkpt>
      <trkpt lat="49.06786" lon="3.5672">
        <ele>93.2</ele>
        <time>2020-07-01T08:06:06Z</time>
      </trkpt>
      <trkpt lat="49.06795" lon="3.56714">
        <ele>93</ele>
        <time>2020-07-01T08:06:07Z</time>
      </trkpt>
      <trkpt lat="49.06803" lon="3.56709">
        <ele>92.8</ele>
        <time>2020-07-01T08:06:08Z</time>
      </trkpt>
      <trkpt lat="49.06811" lon="3.56703">
        <ele>92.6</ele>
        <time>2020-07-01T08:06:09Z</time>
      </trkpt>
      <trkpt lat="49.06819" lon="3.56698">
        <ele>92.5</ele>
        <time>2020-07-01T08:06:10Z</time>
      </trkpt>
      <trkpt lat="49.06827" lon="3.56693">
        <ele>92.3</ele>
        <time>2020-07-01T08:06:11Z</time>
      </trkpt>
      <trkpt lat="49.06836" lon="3.56688">
        <ele>92.1</ele>
        <time>2020-07-01T08:06:12Z</time>
      </trkpt>
      <trkpt lat="49.06844" lon="3.56684">
        <ele>92</ele>
        <time>2020-07-01T08:06:13Z</time>
      </trkpt>
      <trkpt lat="49.06852" lon="3.5668">
        <ele>91.8</ele>
        <time>2020-07-01T08:06:14Z</time>
      </trkpt>
      <trkpt lat="49.0686" lon="3.56676">
        <ele>91.6</ele>
        <time>2020-07-01T08:06:15Z</time>
      </trkpt>
      <trkpt lat="49.06868" lon="3.56674">
        <ele>91.4</ele>
        <time>2020-07-01T08:06:16Z</time>
      </trkpt>
      <trkpt lat="49.06876" lon="3.56671">
        <ele>91.2</ele>
        <time>2020-07-01T08:06:17Z</time>
      </trkpt>
      <trkpt lat="49.06884" lon="3.5667">
        <ele>90.9</ele>
        <time>2020-07-01T08:06:18Z</time>
      </trkpt>
      <trkpt lat="49.06892" lon="3.56667">
        <ele>90.6</ele>
        <time>2020-07-01T08:06:19Z</time>
      </trkpt>
      <trkpt lat="49.069" lon="3.56666">
        <ele>90.3</ele>
        <time>2020-07-01T08:06:20Z</time>
      </trkpt>
      <trkpt lat="49.06908" lon="3.56664">
        <ele>89.9</ele>
        <time>2020-07-01T08:06:21Z</time>
      </trkpt>
      <trkpt lat="49.06916" lon="3.5666">
        <ele>89.5</ele>
        <time>2020-07-01T08:06:22Z</time>
      </trkpt>
      <trkpt lat="49.06924" lon="3.56655">
        <ele>89.1</ele>
        <time>2020-07-01T08:06:23Z</time>
      </trkpt>
      <trkpt lat="49.06932" lon="3.56649">
        <ele>88.7</ele>
        <time>2020-07-01T08:06:24Z</time>
      </trkpt>
      <trkpt lat="49.0694" lon="3.56643">
        <ele>88.3</ele>
        <time>2020-07-01T08:06:25Z</time>
      </trkpt>
      <trkpt lat="49.06947" lon="3.56636">
        <ele>87.8</ele>
        <time>2020-07-01T08:06:26Z</time>
      </trkpt>
      <trkpt lat="49.06955" lon="3.56628">
        <ele>87.2</ele>
        <time>2020-07-01T08:06:27Z</time>
      </trkpt>
      <trkpt lat="49.06962" lon="3.5662">
        <ele>86.6</ele>
        <time>2020-07-01T08:06:28Z</time>
      </trkpt>
      <trkpt lat="49.0697" lon="3.56612">
        <ele>86.1</ele>
        <time>2020-07-01T08:06:29Z</time>
      </trkpt>
      <trkpt lat="49.06977" lon="3.56603">
        <ele>85.6</ele>
        <time>2020-07-01T08:06:30Z</time>
      </trkpt>
      <trkpt lat="49.06985" lon="3.56594">
        <ele>85.2</ele>
        <time>2020-07-01T08:06:31Z</time>
      </trkpt>
      <trkpt lat="49.06992" lon="3.56585">
        <ele>84.8</ele>
        <time>2020-07-01T08:06:32Z</time>
      </trkpt>
      <trkpt lat="49.07" lon="3.56576">
        <ele>84.3</ele>
        <time>2020-07-01T08:06:33Z</time>
      </trkpt>
      <trkpt lat="49.07007" lon="3.56566">
        <ele>83.9</ele>
        <time>2020-07-01T08:06:34Z</time>
      </trkpt>
      <trkpt lat="49.07015" lon="3.56557">
        <ele>83.5</ele>
        <time>2020-07-01T08:06:35Z</time>
      </trkpt>
      <trkpt lat="49.07022" lon="3.56547">
        <ele>83.1</ele>
        <time>2020-07-01T08:06:36Z</time>
      </trkpt>
      <trkpt lat="49.0703" lon="3.56538">
        <ele>82.9</ele>
        <time>2020-07-01T08:06:37Z</time>
      </trkpt>
      <trkpt lat="49.07038" lon="3.5653">
        <ele>82.6</ele>
        <time>2020-07-01T08:06:38Z</time>
      </trkpt>
      <trkpt lat="49.07046" lon="3.56523">
        <ele>82.5</ele>
        <time>2020-07-01T08:06:39Z</time>
      </trkpt>
      <trkpt lat="49.07054" lon="3.56516">
        <ele>82.3</ele>
        <time>2020-07-01T08:06:40Z</time>
      </trkpt>
      <trkpt lat="49.07061" lon="3.5651">
        <ele>82.2</ele>
        <time>2020-07-01T08:06:41Z</time>
      </trkpt>
      <trkpt lat="49.07069" lon="3.56504">
        <ele>82.2</ele>
        <time>2020-07-01T08:06:42Z</time>
      </trkpt>
      <trkpt lat="49.07077" lon="3.56499">
        <ele>82.2</ele>
        <time>2020-07-01T08:06:43Z</time>
      </trkpt>
      <trkpt lat="49.07085" lon="3.56493">
        <ele>82.2</ele>
        <time>2020-07-01T08:06:44Z</time>
      </trkpt>
      <trkpt lat="49.07092" lon="3.56487">
        <ele>82.3</ele>
        <time>2020-07-01T08:06:45Z</time>
      </trkpt>
      <trkpt lat="49.07099" lon="3.56483">
        <ele>82.3</ele>
        <time>2020-07-01T08:06:46Z</time>
      </trkpt>
      <trkpt lat="49.07106" lon="3.56478">
        <ele>82.4</ele>
        <time>2020-07-01T08:06:47Z</time>
      </trkpt>
      <trkpt lat="49.07113" lon="3.56474">
        <ele>82.5</ele>
        <time>2020-07-01T08:06:48Z</time>
      </trkpt>
      <trkpt lat="49.0712" lon="3.56469">
        <ele>82.7</ele>
        <time>2020-07-01T08:06:49Z</time>
      </trkpt>
      <trkpt lat="49.07126" lon="3.56465">
        <ele>82.9</ele>
        <time>2020-07-01T08:06:50Z</time>
      </trkpt>
      <trkpt lat="49.07133" lon="3.56461">
        <ele>83.2</ele>
        <time>2020-07-01T08:06:51Z</time>
      </trkpt>
      <trkpt lat="49.07139" lon="3.56457">
        <ele>83.4</ele>
        <time>2020-07-01T08:06:52Z</time>
      </trkpt>
      <trkpt lat="49.07145" lon="3.56454">
        <ele>83.6</ele>
        <time>2020-07-01T08:06:53Z</time>
      </trkpt>
      <trkpt lat="49.07151" lon="3.56452">
        <ele>83.8</ele>
        <time>2020-07-01T08:06:54Z</time>
      </trkpt>
      <trkpt lat="49.07157" lon="3.56449">
        <ele>83.9</ele>
        <time>2020-07-01T08:06:55Z</time>
      </trkpt>
      <trkpt lat="49.07163" lon="3.56447">
        <ele>84.1</ele>
        <time>2020-07-01T08:06:56Z</time>
      </trkpt>
      <trkpt lat="49.07168" lon="3.56445">
        <ele>84.2</ele>
        <time>2020-07-01T08:06:57Z</time>
      </trkpt>
      <trkpt lat="49.07173" lon="3.56443">
        <ele>84.2</ele>
        <time>2020-07-01T08:06:58Z</time>
      </trkpt>
      <trkpt lat="49.07179" lon="3.56442">
        <ele>84.3</ele>
        <time>2020-07-01T08:06:59Z</time>
      </trkpt>
      <trkpt lat="49.07184" lon="3.5644">
        <ele>84.3</ele>
        <time>2020-07-01T08:07:00Z</time>
      </trkpt>
      <trkpt lat="49.0719" lon="3.56438">
        <ele>84.3</ele>
        <time>2020-07-01T08:07:01Z</time>
      </trkpt>
      <trkpt lat="49.07195" lon="3.56435">
        <ele>84.4</ele>
        <time>2020-07-01T08:07:02Z</time>
      </trkpt>
      <trkpt lat="49.07201" lon="3.56433">
        <ele>84.4</ele>
        <time>2020-07-01T08:07:03Z</time>
      </trkpt>
      <trkpt lat="49.07206" lon="3.56432">
        <ele>84.5</ele>
        <time>2020-07-01T08:07:04Z</time>
      </trkpt>
      <trkpt lat="49.07212" lon="3.56431">
        <ele>84.7</ele>
        <time>2020-07-01T08:07:05Z</time>
      </trkpt>
      <trkpt lat="49.07218" lon="3.56432">
        <ele>84.8</ele>
        <time>2020-07-01T08:07:06Z</time>
      </trkpt>
      <trkpt lat="49.07223" lon="3.56433">
        <ele>84.9</ele>
        <time>2020-07-01T08:07:07Z</time>
      </trkpt>
      <trkpt lat="49.07229" lon="3.56434">
        <ele>84.9</ele>
        <time>2020-07-01T08:07:08Z</time>
      </trkpt>
      <trkpt lat="49.07235" lon="3.56433">
        <ele>85</ele>
        <time>2020-07-01T08:07:09Z</time>
      </trkpt>
      <trkpt lat="49.0724" lon="3.56434">
        <ele>85.1</ele>
        <time>2020-07-01T08:07:10Z</time>
      </trkpt>
      <trkpt lat="49.07246" lon="3.56433">
        <ele>85.2</ele>
        <time>2020-07-01T08:07:11Z</time>
      </trkpt>
      <trkpt lat="49.0725" lon="3.56432">
        <ele>85.2</ele>
        <time>2020-07-01T08:07:12Z</time>
      </trkpt>
      <trkpt lat="49.07255" lon="3.56431">
        <ele>85.2</ele>
        <time>2020-07-01T08:07:13Z</time>
      </trkpt>
      <trkpt lat="49.0726" lon="3.5643">
        <ele>85.3</ele>
        <time>2020-07-01T08:07:14Z</time>
      </trkpt>
      <trkpt lat="49.07265" lon="3.56427">
        <ele>85.3</ele>
        <time>2020-07-01T08:07:15Z</time>
      </trkpt>
      <trkpt lat="49.0727" lon="3.56427">
        <ele>85.3</ele>
        <time>2020-07-01T08:07:16Z</time>
      </trkpt>
      <trkpt lat="49.07274" lon="3.56424">
        <ele>85.4</ele>
        <time>2020-07-01T08:07:17Z</time>
      </trkpt>
      <trkpt lat="49.07279" lon="3.56422">
        <ele>85.4</ele>
        <time>2020-07-01T08:07:18Z</time>
      </trkpt>
      <trkpt lat="49.07284" lon="3.56419">
        <ele>85.4</ele>
        <time>2020-07-01T08:07:19Z</time>
      </trkpt>
      <trkpt lat="49.07289" lon="3.56416">
        <ele>85.4</ele>
        <time>2020-07-01T08:07:20Z</time>
      </trkpt>
      <trkpt lat="49.07294" lon="3.56413">
        <ele>85.4</ele>
        <time>2020-07-01T08:07:21Z</time>
      </trkpt>
      <trkpt lat="49.07299" lon="3.56409">
        <ele>85.4</ele>
        <time>2020-07-01T08:07:22Z</time>
      </trkpt>
      <trkpt lat="49.07303" lon="3.56403">
        <ele>85.4</ele>
        <time>2020-07-01T08:07:23Z</time>
      </trkpt>
      <trkpt lat="49.07308" lon="3.56397">
        <ele>85.3</ele>
        <time>2020-07-01T08:07:24Z</time>
      </trkpt>
      <trkpt lat="49.07313" lon="3.56392">
        <ele>85.3</ele>
        <time>2020-07-01T08:07:25Z</time>
      </trkpt>
      <trkpt lat="49.07318" lon="3.56386">
        <ele>85.2</ele>
        <time>2020-07-01T08:07:26Z</time>
      </trkpt>
      <trkpt lat="49.07323" lon="3.5638">
        <ele>85.2</ele>
        <time>2020-07-01T08:07:27Z</time>
      </trkpt>
      <trkpt lat="49.07327" lon="3.56374">
        <ele>85.1</ele>
        <time>2020-07-01T08:07:28Z</time>
      </trkpt>
      <trkpt lat="49.07331" lon="3.56368">
        <ele>85.1</ele>
        <time>2020-07-01T08:07:29Z</time>
      </trkpt>
      <trkpt lat="49.07335" lon="3.56362">
        <ele>85.1</ele>
        <time>2020-07-01T08:07:30Z</time>
      </trkpt>
      <trkpt lat="49.07339" lon="3.56357">
        <ele>85</ele>
        <time>2020-07-01T08:07:31Z</time>
      </trkpt>
      <trkpt lat="49.07343" lon="3.56351">
        <ele>84.9</ele>
        <time>2020-07-01T08:07:32Z</time>
      </trkpt>
      <trkpt lat="49.07347" lon="3.56346">
        <ele>84.9</ele>
        <time>2020-07-01T08:07:33Z</time>
      </trkpt>
      <trkpt lat="49.07351" lon="3.56341">
        <ele>84.8</ele>
        <time>2020-07-01T08:07:34Z</time>
      </trkpt>
      <trkpt lat="49.07355" lon="3.56336">
        <ele>84.7</ele>
        <time>2020-07-01T08:07:35Z</time>
      </trkpt>
      <trkpt lat="49.07358" lon="3.56329">
        <ele>84.6</ele>
        <time>2020-07-01T08:07:36Z</time>
      </trkpt>
      <trkpt lat="49.07362" lon="3.56323">
        <ele>84.5</ele>
        <time>2020-07-01T08:07:37Z</time>
      </trkpt>
      <trkpt lat="49.07365" lon="3.56317">
        <ele>84.4</ele>
        <time>2020-07-01T08:07:38Z</time>
      </trkpt>
      <trkpt lat="49.07368" lon="3.5631">
        <ele>84.3</ele>
        <time>2020-07-01T08:07:39Z</time>
      </trkpt>
      <trkpt lat="49.07371" lon="3.56302">
        <ele>84.2</ele>
        <time>2020-07-01T08:07:40Z</time>
      </trkpt>
      <trkpt lat="49.07374" lon="3.56295">
        <ele>84.1</ele>
        <time>2020-07-01T08:07:41Z</time>
      </trkpt>
      <trkpt lat="49.07377" lon="3.56287">
        <ele>84</ele>
        <time>2020-07-01T08:07:42Z</time>
      </trkpt>
      <trkpt lat="49.07381" lon="3.5628">
        <ele>84</ele>
        <time>2020-07-01T08:07:43Z</time>
      </trkpt>
      <trkpt lat="49.07385" lon="3.56274">
        <ele>83.8</ele>
        <time>2020-07-01T08:07:44Z</time>
      </trkpt>
      <trkpt lat="49.07388" lon="3.56266">
        <ele>83.7</ele>
        <time>2020-07-01T08:07:45Z</time>
      </trkpt>
      <trkpt lat="49.07393" lon="3.5626">
        <ele>83.6</ele>
        <time>2020-07-01T08:07:46Z</time>
      </trkpt>
      <trkpt lat="49.07397" lon="3.56255">
        <ele>83.3</ele>
        <time>2020-07-01T08:07:47Z</time>
      </trkpt>
      <trkpt lat="49.07401" lon="3.5625">
        <ele>83.3</ele>
        <time>2020-07-01T08:07:48Z</time>
      </trkpt>
      <trkpt lat="49.07407" lon="3.56247">
        <ele>83.3</ele>
        <time>2020-07-01T08:07:49Z</time>
      </trkpt>
      <trkpt lat="49.07412" lon="3.56244">
        <ele>83.2</ele>
        <time>2020-07-01T08:07:50Z</time>
      </trkpt>
      <trkpt lat="49.07418" lon="3.56241">
        <ele>83.2</ele>
        <time>2020-07-01T08:07:51Z</time>
      </trkpt>
      <trkpt lat="49.07424" lon="3.56239">
        <ele>83.2</ele>
        <time>2020-07-01T08:07:52Z</time>
      </trkpt>
      <trkpt lat="49.07429" lon="3.56235">
        <ele>83.1</ele>
        <time>2020-07-01T08:07:53Z</time>
      </trkpt>
      <trkpt lat="49.07434" lon="3.56233">
        <ele>83.1</ele>
        <time>2020-07-01T08:07:54Z</time>
      </trkpt>
      <trkpt lat="49.0744" lon="3.56231">
        <ele>83</ele>
        <time>2020-07-01T08:07:55Z</time>
      </trkpt>
      <trkpt lat="49.07446" lon="3.56229">
        <ele>82.9</ele>
        <time>2020-07-01T08:07:56Z</time>
      </trkpt>
      <trkpt lat="49.07451" lon="3.56227">
        <ele>82.8</ele>
        <time>2020-07-01T08:07:57Z</time>
      </trkpt>
      <trkpt lat="49.07457" lon="3.56224">
        <ele>82.8</ele>
        <time>2020-07-01T08:07:58Z</time>
      </trkpt>
      <trkpt lat="49.07463" lon="3.56222">
        <ele>82.6</ele>
        <time>2020-07-01T08:07:59Z</time>
      </trkpt>
      <trkpt lat="49.07468" lon="3.5622">
        <ele>82.6</ele>
        <time>2020-07-01T08:08:00Z</time>
      </trkpt>
      <trkpt lat="49.07474" lon="3.56218">
        <ele>82.6</ele>
        <time>2020-07-01T08:08:01Z</time>
      </trkpt>
      <trkpt lat="49.0748" lon="3.56217">
        <ele>82.6</ele>
        <time>2020-07-01T08:08:02Z</time>
      </trkpt>
      <trkpt lat="49.07484" lon="3.56216">
        <ele>82.5</ele>
        <time>2020-07-01T08:08:03Z</time>
      </trkpt>
      <trkpt lat="49.07489" lon="3.56215">
        <ele>82.5</ele>
        <time>2020-07-01T08:08:04Z</time>
      </trkpt>
      <trkpt lat="49.07494" lon="3.56213">
        <ele>82.4</ele>
        <time>2020-07-01T08:08:05Z</time>
      </trkpt>
      <trkpt lat="49.075" lon="3.56211">
        <ele>82.3</ele>
        <time>2020-07-01T08:08:06Z</time>
      </trkpt>
      <trkpt lat="49.07504" lon="3.56209">
        <ele>82.2</ele>
        <time>2020-07-01T08:08:07Z</time>
      </trkpt>
      <trkpt lat="49.07509" lon="3.56205">
        <ele>82.1</ele>
        <time>2020-07-01T08:08:08Z</time>
      </trkpt>
      <trkpt lat="49.07514" lon="3.56201">
        <ele>82</ele>
        <time>2020-07-01T08:08:09Z</time>
      </trkpt>
      <trkpt lat="49.07519" lon="3.56197">
        <ele>81.9</ele>
        <time>2020-07-01T08:08:10Z</time>
      </trkpt>
      <trkpt lat="49.07525" lon="3.56192">
        <ele>81.7</ele>
        <time>2020-07-01T08:08:11Z</time>
      </trkpt>
      <trkpt lat="49.07531" lon="3.56189">
        <ele>81.6</ele>
        <time>2020-07-01T08:08:12Z</time>
      </trkpt>
      <trkpt lat="49.07537" lon="3.56185">
        <ele>81.4</ele>
        <time>2020-07-01T08:08:13Z</time>
      </trkpt>
      <trkpt lat="49.07543" lon="3.56182">
        <ele>81.3</ele>
        <time>2020-07-01T08:08:14Z</time>
      </trkpt>
      <trkpt lat="49.07549" lon="3.56181">
        <ele>81.2</ele>
        <time>2020-07-01T08:08:15Z</time>
      </trkpt>
      <trkpt lat="49.07555" lon="3.56177">
        <ele>81.1</ele>
        <time>2020-07-01T08:08:16Z</time>
      </trkpt>
      <trkpt lat="49.07561" lon="3.56177">
        <ele>81</ele>
        <time>2020-07-01T08:08:17Z</time>
      </trkpt>
      <trkpt lat="49.07568" lon="3.56174">
        <ele>80.9</ele>
        <time>2020-07-01T08:08:18Z</time>
      </trkpt>
      <trkpt lat="49.07574" lon="3.56172">
        <ele>80.8</ele>
        <time>2020-07-01T08:08:19Z</time>
      </trkpt>
      <trkpt lat="49.0758" lon="3.5617">
        <ele>80.7</ele>
        <time>2020-07-01T08:08:20Z</time>
      </trkpt>
      <trkpt lat="49.07586" lon="3.56167">
        <ele>80.7</ele>
        <time>2020-07-01T08:08:21Z</time>
      </trkpt>
      <trkpt lat="49.07592" lon="3.56164">
        <ele>80.7</ele>
        <time>2020-07-01T08:08:22Z</time>
      </trkpt>
      <trkpt lat="49.07597" lon="3.56162">
        <ele>80.8</ele>
        <time>2020-07-01T08:08:23Z</time>
      </trkpt>
      <trkpt lat="49.07603" lon="3.5616">
        <ele>80.8</ele>
        <time>2020-07-01T08:08:24Z</time>
      </trkpt>
      <trkpt lat="49.07609" lon="3.56158">
        <ele>80.8</ele>
        <time>2020-07-01T08:08:25Z</time>
      </trkpt>
      <trkpt lat="49.07614" lon="3.56155">
        <ele>80.8</ele>
        <time>2020-07-01T08:08:26Z</time>
      </trkpt>
      <trkpt lat="49.0762" lon="3.56153">
        <ele>80.8</ele>
        <time>2020-07-01T08:08:27Z</time>
      </trkpt>
      <trkpt lat="49.07626" lon="3.5615">
        <ele>80.8</ele>
        <time>2020-07-01T08:08:28Z</time>
      </trkpt>
      <trkpt lat="49.07631" lon="3.56149">
        <ele>80.8</ele>
        <time>2020-07-01T08:08:29Z</time>
      </trkpt>
      <trkpt lat="49.07636" lon="3.56145">
        <ele>80.7</ele>
        <time>2020-07-01T08:08:30Z</time>
      </trkpt>
      <trkpt lat="49.07642" lon="3.56142">
        <ele>80.7</ele>
        <time>2020-07-01T08:08:31Z</time>
      </trkpt>
      <trkpt lat="49.07648" lon="3.5614">
        <ele>80.7</ele>
        <time>2020-07-01T08:08:32Z</time>
      </trkpt>
      <trkpt lat="49.07653" lon="3.56136">
        <ele>80.7</ele>
        <time>2020-07-01T08:08:33Z</time>
      </trkpt>
      <trkpt lat="49.07659" lon="3.56133">
        <ele>80.7</ele>
        <time>2020-07-01T08:08:34Z</time>
      </trkpt>
      <trkpt lat="49.07664" lon="3.56131">
        <ele>80.7</ele>
        <time>2020-07-01T08:08:35Z</time>
      </trkpt>
      <trkpt lat="49.0767" lon="3.56128">
        <ele>80.7</ele>
        <time>2020-07-01T08:08:36Z</time>
      </trkpt>
      <trkpt lat="49.07675" lon="3.56124">
        <ele>80.7</ele>
        <time>2020-07-01T08:08:37Z</time>
      </trkpt>
      <trkpt lat="49.07681" lon="3.56121">
        <ele>80.7</ele>
        <time>2020-07-01T08:08:38Z</time>
      </trkpt>
      <trkpt lat="49.07686" lon="3.56118">
        <ele>80.7</ele>
        <time>2020-07-01T08:08:39Z</time>
      </trkpt>
      <trkpt lat="49.07692" lon="3.56115">
        <ele>80.8</ele>
        <time>2020-07-01T08:08:40Z</time>
      </trkpt>
      <trkpt lat="49.07697" lon="3.56112">
        <ele>80.8</ele>
        <time>2020-07-01T08:08:41Z</time>
      </trkpt>
      <trkpt lat="49.07702" lon="3.56109">
        <ele>80.8</ele>
        <time>2020-07-01T08:08:42Z</time>
      </trkpt>
      <trkpt lat="49.07708" lon="3.56106">
        <ele>80.9</ele>
        <time>2020-07-01T08:08:43Z</time>
      </trkpt>
      <trkpt lat="49.07713" lon="3.56102">
        <ele>80.9</ele>
        <time>2020-07-01T08:08:44Z</time>
      </trkpt>
      <trkpt lat="49.07719" lon="3.56099">
        <ele>80.9</ele>
        <time>2020-07-01T08:08:45Z</time>
      </trkpt>
      <trkpt lat="49.07724" lon="3.56095">
        <ele>80.9</ele>
        <time>2020-07-01T08:08:46Z</time>
      </trkpt>
      <trkpt lat="49.07729" lon="3.56092">
        <ele>80.9</ele>
        <time>2020-07-01T08:08:47Z</time>
      </trkpt>
      <trkpt lat="49.07735" lon="3.56088">
        <ele>80.9</ele>
        <time>2020-07-01T08:08:48Z</time>
      </trkpt>
      <trkpt lat="49.0774" lon="3.56085">
        <ele>80.9</ele>
        <time>2020-07-01T08:08:49Z</time>
      </trkpt>
      <trkpt lat="49.07746" lon="3.56081">
        <ele>81</ele>
        <time>2020-07-01T08:08:50Z</time>
      </trkpt>
      <trkpt lat="49.07751" lon="3.56078">
        <ele>81</ele>
        <time>2020-07-01T08:08:51Z</time>
      </trkpt>
      <trkpt lat="49.07757" lon="3.56076">
        <ele>81</ele>
        <time>2020-07-01T08:08:52Z</time>
      </trkpt>
      <trkpt lat="49.07762" lon="3.56073">
        <ele>81</ele>
        <time>2020-07-01T08:08:53Z</time>
      </trkpt>
      <trkpt lat="49.07767" lon="3.5607">
        <ele>81</ele>
        <time>2020-07-01T08:08:54Z</time>
      </trkpt>
      <trkpt lat="49.07772" lon="3.56067">
        <ele>81</ele>
        <time>2020-07-01T08:08:55Z</time>
      </trkpt>
      <trkpt lat="49.07777" lon="3.56064">
        <ele>80.9</ele>
        <time>2020-07-01T08:08:56Z</time>
      </trkpt>
      <trkpt lat="49.07782" lon="3.56062">
        <ele>80.9</ele>
        <time>2020-07-01T08:08:57Z</time>
      </trkpt>
      <trkpt lat="49.07787" lon="3.5606">
        <ele>80.8</ele>
        <time>2020-07-01T08:08:58Z</time>
      </trkpt>
      <trkpt lat="49.07793" lon="3.56057">
        <ele>80.7</ele>
        <time>2020-07-01T08:08:59Z</time>
      </trkpt>
      <trkpt lat="49.07798" lon="3.56054">
        <ele>80.6</ele>
        <time>2020-07-01T08:09:00Z</time>
      </trkpt>
      <trkpt lat="49.07803" lon="3.56051">
        <ele>80.5</ele>
        <time>2020-07-01T08:09:01Z</time>
      </trkpt>
      <trkpt lat="49.07809" lon="3.56048">
        <ele>80.4</ele>
        <time>2020-07-01T08:09:02Z</time>
      </trkpt>
      <trkpt lat="49.07814" lon="3.56044">
        <ele>80.3</ele>
        <time>2020-07-01T08:09:03Z</time>
      </trkpt>
      <trkpt lat="49.0782" lon="3.56041">
        <ele>80.3</ele>
        <time>2020-07-01T08:09:04Z</time>
      </trkpt>
      <trkpt lat="49.07826" lon="3.56039">
        <ele>80.2</ele>
        <time>2020-07-01T08:09:05Z</time>
      </trkpt>
      <trkpt lat="49.07832" lon="3.56037">
        <ele>80.1</ele>
        <time>2020-07-01T08:09:06Z</time>
      </trkpt>
      <trkpt lat="49.07839" lon="3.56035">
        <ele>80.1</ele>
        <time>2020-07-01T08:09:07Z</time>
      </trkpt>
      <trkpt lat="49.07845" lon="3.56033">
        <ele>80.1</ele>
        <time>2020-07-01T08:09:08Z</time>
      </trkpt>
      <trkpt lat="49.07852" lon="3.5603">
        <ele>80</ele>
        <time>2020-07-01T08:09:09Z</time>
      </trkpt>
      <trkpt lat="49.07858" lon="3.56028">
        <ele>80</ele>
        <time>2020-07-01T08:09:10Z</time>
      </trkpt>
      <trkpt lat="49.07864" lon="3.56026">
        <ele>80</ele>
        <time>2020-07-01T08:09:11Z</time>
      </trkpt>
      <trkpt lat="49.07869" lon="3.56024">
        <ele>80</ele>
        <time>2020-07-01T08:09:12Z</time>
      </trkpt>
      <trkpt lat="49.07875" lon="3.56023">
        <ele>80.1</ele>
        <time>2020-07-01T08:09:13Z</time>
      </trkpt>
      <trkpt lat="49.07881" lon="3.56022">
        <ele>80.1</ele>
        <time>2020-07-01T08:09:14Z</time>
      </trkpt>
      <trkpt lat="49.07886" lon="3.56021">
        <ele>80.2</ele>
        <time>2020-07-01T08:09:15Z</time>
      </trkpt>
      <trkpt lat="49.07892" lon="3.5602">
        <ele>80.3</ele>
        <time>2020-07-01T08:09:16Z</time>
      </trkpt>
      <trkpt lat="49.07897" lon="3.56021">
        <ele>80.4</ele>
        <time>2020-07-01T08:09:17Z</time>
      </trkpt>
      <trkpt lat="49.07903" lon="3.56021">
        <ele>80.4</ele>
        <time>2020-07-01T08:09:18Z</time>
      </trkpt>
      <trkpt lat="49.07909" lon="3.56021">
        <ele>80.5</ele>
        <time>2020-07-01T08:09:19Z</time>
      </trkpt>
      <trkpt lat="49.07914" lon="3.5602">
        <ele>80.5</ele>
        <time>2020-07-01T08:09:20Z</time>
      </trkpt>
      <trkpt lat="49.0792" lon="3.5602">
        <ele>80.6</ele>
        <time>2020-07-01T08:09:21Z</time>
      </trkpt>
      <trkpt lat="49.07925" lon="3.5602">
        <ele>80.7</ele>
        <time>2020-07-01T08:09:22Z</time>
      </trkpt>
      <trkpt lat="49.0793" lon="3.56019">
        <ele>80.8</ele>
        <time>2020-07-01T08:09:23Z</time>
      </trkpt>
      <trkpt lat="49.07936" lon="3.56018">
        <ele>80.8</ele>
        <time>2020-07-01T08:09:24Z</time>
      </trkpt>
      <trkpt lat="49.07941" lon="3.56018">
        <ele>80.9</ele>
        <time>2020-07-01T08:09:25Z</time>
      </trkpt>
      <trkpt lat="49.07946" lon="3.56017">
        <ele>81</ele>
        <time>2020-07-01T08:09:26Z</time>
      </trkpt>
      <trkpt lat="49.07951" lon="3.56017">
        <ele>81.1</ele>
        <time>2020-07-01T08:09:27Z</time>
      </trkpt>
      <trkpt lat="49.07956" lon="3.56016">
        <ele>81.1</ele>
        <time>2020-07-01T08:09:28Z</time>
      </trkpt>
      <trkpt lat="49.07961" lon="3.56015">
        <ele>81.2</ele>
        <time>2020-07-01T08:09:29Z</time>
      </trkpt>
      <trkpt lat="49.07965" lon="3.56013">
        <ele>81.3</ele>
        <time>2020-07-01T08:09:30Z</time>
      </trkpt>
      <trkpt lat="49.0797" lon="3.56011">
        <ele>81.3</ele>
        <time>2020-07-01T08:09:31Z</time>
      </trkpt>
      <trkpt lat="49.07975" lon="3.56008">
        <ele>81.4</ele>
        <time>2020-07-01T08:09:32Z</time>
      </trkpt>
      <trkpt lat="49.0798" lon="3.56007">
        <ele>81.5</ele>
        <time>2020-07-01T08:09:33Z</time>
      </trkpt>
      <trkpt lat="49.07985" lon="3.56005">
        <ele>81.6</ele>
        <time>2020-07-01T08:09:34Z</time>
      </trkpt>
      <trkpt lat="49.0799" lon="3.56002">
        <ele>81.7</ele>
        <time>2020-07-01T08:09:35Z</time>
      </trkpt>
      <trkpt lat="49.07995" lon="3.55999">
        <ele>81.7</ele>
        <time>2020-07-01T08:09:36Z</time>
      </trkpt>
      <trkpt lat="49.08" lon="3.55997">
        <ele>81.8</ele>
        <time>2020-07-01T08:09:37Z</time>
      </trkpt>
      <trkpt lat="49.08006" lon="3.55997">
        <ele>81.9</ele>
        <time>2020-07-01T08:09:38Z</time>
      </trkpt>
      <trkpt lat="49.08011" lon="3.55994">
        <ele>82</ele>
        <time>2020-07-01T08:09:39Z</time>
      </trkpt>
      <trkpt lat="49.08015" lon="3.55991">
        <ele>82.1</ele>
        <time>2020-07-01T08:09:40Z</time>
      </trkpt>
      <trkpt lat="49.08021" lon="3.55989">
        <ele>82.1</ele>
        <time>2020-07-01T08:09:41Z</time>
      </trkpt>
      <trkpt lat="49.08026" lon="3.55987">
        <ele>82.2</ele>
        <time>2020-07-01T08:09:42Z</time>
      </trkpt>
      <trkpt lat="49.08031" lon="3.55984">
        <ele>82.3</ele>
        <time>2020-07-01T08:09:43Z</time>
      </trkpt>
      <trkpt lat="49.08035" lon="3.55981">
        <ele>82.3</ele>
        <time>2020-07-01T08:09:44Z</time>
      </trkpt>
      <trkpt lat="49.0804" lon="3.55977">
        <ele>82.4</ele>
        <time>2020-07-01T08:09:45Z</time>
      </trkpt>
      <trkpt lat="49.08044" lon="3.55974">
        <ele>82.5</ele>
        <time>2020-07-01T08:09:46Z</time>
      </trkpt>
      <trkpt lat="49.08048" lon="3.55968">
        <ele>82.5</ele>
        <time>2020-07-01T08:09:47Z</time>
      </trkpt>
      <trkpt lat="49.08052" lon="3.55964">
        <ele>82.5</ele>
        <time>2020-07-01T08:09:48Z</time>
      </trkpt>
      <trkpt lat="49.08057" lon="3.55961">
        <ele>82.5</ele>
        <time>2020-07-01T08:09:49Z</time>
      </trkpt>
      <trkpt lat="49.08061" lon="3.55957">
        <ele>82.5</ele>
        <time>2020-07-01T08:09:50Z</time>
      </trkpt>
      <trkpt lat="49.08066" lon="3.55954">
        <ele>82.5</ele>
        <time>2020-07-01T08:09:51Z</time>
      </trkpt>
      <trkpt lat="49.0807" lon="3.55951">
        <ele>82.5</ele>
        <time>2020-07-01T08:09:52Z</time>
      </trkpt>
      <trkpt lat="49.08075" lon="3.55947">
        <ele>82.4</ele>
        <time>2020-07-01T08:09:53Z</time>
      </trkpt>
      <trkpt lat="49.0808" lon="3.55944">
        <ele>82.4</ele>
        <time>2020-07-01T08:09:54Z</time>
      </trkpt>
      <trkpt lat="49.08085" lon="3.55941">
        <ele>82.3</ele>
        <time>2020-07-01T08:09:55Z</time>
      </trkpt>
      <trkpt lat="49.0809" lon="3.55939">
        <ele>82.2</ele>
        <time>2020-07-01T08:09:56Z</time>
      </trkpt>
      <trkpt lat="49.08095" lon="3.55938">
        <ele>82.2</ele>
        <time>2020-07-01T08:09:57Z</time>
      </trkpt>
      <trkpt lat="49.08101" lon="3.55936">
        <ele>82.1</ele>
        <time>2020-07-01T08:09:58Z</time>
      </trkpt>
      <trkpt lat="49.08106" lon="3.55934">
        <ele>82.1</ele>
        <time>2020-07-01T08:09:59Z</time>
      </trkpt>
      <trkpt lat="49.08112" lon="3.55933">
        <ele>82</ele>
        <time>2020-07-01T08:10:00Z</time>
      </trkpt>
      <trkpt lat="49.08118" lon="3.55933">
        <ele>82</ele>
        <time>2020-07-01T08:10:01Z</time>
      </trkpt>
      <trkpt lat="49.08124" lon="3.55932">
        <ele>81.9</ele>
        <time>2020-07-01T08:10:02Z</time>
      </trkpt>
      <trkpt lat="49.0813" lon="3.55931">
        <ele>81.8</ele>
        <time>2020-07-01T08:10:03Z</time>
      </trkpt>
      <trkpt lat="49.08136" lon="3.5593">
        <ele>81.7</ele>
        <time>2020-07-01T08:10:04Z</time>
      </trkpt>
      <trkpt lat="49.08142" lon="3.55929">
        <ele>81.6</ele>
        <time>2020-07-01T08:10:05Z</time>
      </trkpt>
      <trkpt lat="49.08149" lon="3.55929">
        <ele>81.6</ele>
        <time>2020-07-01T08:10:06Z</time>
      </trkpt>
      <trkpt lat="49.08155" lon="3.55929">
        <ele>81.5</ele>
        <time>2020-07-01T08:10:07Z</time>
      </trkpt>
      <trkpt lat="49.08162" lon="3.55929">
        <ele>81.4</ele>
        <time>2020-07-01T08:10:08Z</time>
      </trkpt>
      <trkpt lat="49.08168" lon="3.55926">
        <ele>81.4</ele>
        <time>2020-07-01T08:10:09Z</time>
      </trkpt>
      <trkpt lat="49.08174" lon="3.55925">
        <ele>81.3</ele>
        <time>2020-07-01T08:10:10Z</time>
      </trkpt>
      <trkpt lat="49.0818" lon="3.55923">
        <ele>81.3</ele>
        <time>2020-07-01T08:10:11Z</time>
      </trkpt>
      <trkpt lat="49.08187" lon="3.5592">
        <ele>81.2</ele>
        <time>2020-07-01T08:10:12Z</time>
      </trkpt>
      <trkpt lat="49.08193" lon="3.55918">
        <ele>81.2</ele>
        <time>2020-07-01T08:10:13Z</time>
      </trkpt>
      <trkpt lat="49.08199" lon="3.55915">
        <ele>81.1</ele>
        <time>2020-07-01T08:10:14Z</time>
      </trkpt>
      <trkpt lat="49.08206" lon="3.55911">
        <ele>81</ele>
        <time>2020-07-01T08:10:15Z</time>
      </trkpt>
      <trkpt lat="49.08212" lon="3.55906">
        <ele>80.8</ele>
        <time>2020-07-01T08:10:16Z</time>
      </trkpt>
      <trkpt lat="49.08218" lon="3.55901">
        <ele>80.7</ele>
        <time>2020-07-01T08:10:17Z</time>
      </trkpt>
      <trkpt lat="49.08224" lon="3.55896">
        <ele>80.6</ele>
        <time>2020-07-01T08:10:18Z</time>
      </trkpt>
      <trkpt lat="49.08231" lon="3.55892">
        <ele>80.5</ele>
        <time>2020-07-01T08:10:19Z</time>
      </trkpt>
      <trkpt lat="49.08237" lon="3.55887">
        <ele>80.4</ele>
        <time>2020-07-01T08:10:20Z</time>
      </trkpt>
      <trkpt lat="49.08243" lon="3.55882">
        <ele>80.3</ele>
        <time>2020-07-01T08:10:21Z</time>
      </trkpt>
      <trkpt lat="49.08249" lon="3.55877">
        <ele>80.3</ele>
        <time>2020-07-01T08:10:22Z</time>
      </trkpt>
      <trkpt lat="49.08255" lon="3.55873">
        <ele>80.2</ele>
        <time>2020-07-01T08:10:23Z</time>
      </trkpt>
      <trkpt lat="49.08261" lon="3.55868">
        <ele>80.1</ele>
        <time>2020-07-01T08:10:24Z</time>
      </trkpt>
      <trkpt lat="49.08267" lon="3.55863">
        <ele>80.1</ele>
        <time>2020-07-01T08:10:25Z</time>
      </trkpt>
      <trkpt lat="49.08273" lon="3.55859">
        <ele>80.1</ele>
        <time>2020-07-01T08:10:26Z</time>
      </trkpt>
      <trkpt lat="49.08279" lon="3.55853">
        <ele>80.2</ele>
        <time>2020-07-01T08:10:27Z</time>
      </trkpt>
      <trkpt lat="49.08285" lon="3.55849">
        <ele>80.2</ele>
        <time>2020-07-01T08:10:28Z</time>
      </trkpt>
      <trkpt lat="49.08291" lon="3.55844">
        <ele>80.1</ele>
        <time>2020-07-01T08:10:29Z</time>
      </trkpt>
      <trkpt lat="49.08296" lon="3.55839">
        <ele>79.9</ele>
        <time>2020-07-01T08:10:30Z</time>
      </trkpt>
      <trkpt lat="49.08302" lon="3.55833">
        <ele>79.8</ele>
        <time>2020-07-01T08:10:31Z</time>
      </trkpt>
      <trkpt lat="49.08308" lon="3.55828">
        <ele>79.6</ele>
        <time>2020-07-01T08:10:32Z</time>
      </trkpt>
      <trkpt lat="49.08313" lon="3.55824">
        <ele>79.5</ele>
        <time>2020-07-01T08:10:33Z</time>
      </trkpt>
      <trkpt lat="49.08319" lon="3.55818">
        <ele>79.4</ele>
        <time>2020-07-01T08:10:34Z</time>
      </trkpt>
      <trkpt lat="49.08324" lon="3.55814">
        <ele>79.4</ele>
        <time>2020-07-01T08:10:35Z</time>
      </trkpt>
      <trkpt lat="49.0833" lon="3.55809">
        <ele>79.4</ele>
        <time>2020-07-01T08:10:36Z</time>
      </trkpt>
      <trkpt lat="49.08336" lon="3.55804">
        <ele>79.3</ele>
        <time>2020-07-01T08:10:37Z</time>
      </trkpt>
      <trkpt lat="49.0834" lon="3.55798">
        <ele>79.3</ele>
        <time>2020-07-01T08:10:38Z</time>
      </trkpt>
      <trkpt lat="49.08345" lon="3.55792">
        <ele>79.2</ele>
        <time>2020-07-01T08:10:39Z</time>
      </trkpt>
      <trkpt lat="49.0835" lon="3.55786">
        <ele>79.2</ele>
        <time>2020-07-01T08:10:40Z</time>
      </trkpt>
      <trkpt lat="49.08354" lon="3.5578">
        <ele>79.1</ele>
        <time>2020-07-01T08:10:41Z</time>
      </trkpt>
      <trkpt lat="49.08358" lon="3.55773">
        <ele>79.1</ele>
        <time>2020-07-01T08:10:42Z</time>
      </trkpt>
      <trkpt lat="49.08361" lon="3.55766">
        <ele>79.1</ele>
        <time>2020-07-01T08:10:43Z</time>
      </trkpt>
      <trkpt lat="49.08365" lon="3.5576">
        <ele>79</ele>
        <time>2020-07-01T08:10:44Z</time>
      </trkpt>
      <trkpt lat="49.08369" lon="3.55753">
        <ele>78.9</ele>
        <time>2020-07-01T08:10:45Z</time>
      </trkpt>
      <trkpt lat="49.08372" lon="3.55747">
        <ele>78.8</ele>
        <time>2020-07-01T08:10:46Z</time>
      </trkpt>
      <trkpt lat="49.08375" lon="3.5574">
        <ele>78.7</ele>
        <time>2020-07-01T08:10:47Z</time>
      </trkpt>
      <trkpt lat="49.08378" lon="3.55733">
        <ele>78.6</ele>
        <time>2020-07-01T08:10:48Z</time>
      </trkpt>
      <trkpt lat="49.0838" lon="3.55725">
        <ele>78.5</ele>
        <time>2020-07-01T08:10:49Z</time>
      </trkpt>
      <trkpt lat="49.08382" lon="3.55717">
        <ele>78.4</ele>
        <time>2020-07-01T08:10:50Z</time>
      </trkpt>
      <trkpt lat="49.08384" lon="3.55709">
        <ele>78.2</ele>
        <time>2020-07-01T08:10:51Z</time>
      </trkpt>
      <trkpt lat="49.08388" lon="3.55702">
        <ele>78.1</ele>
        <time>2020-07-01T08:10:52Z</time>
      </trkpt>
      <trkpt lat="49.08391" lon="3.55695">
        <ele>78</ele>
        <time>2020-07-01T08:10:53Z</time>
      </trkpt>
      <trkpt lat="49.08393" lon="3.55686">
        <ele>77.9</ele>
        <time>2020-07-01T08:10:54Z</time>
      </trkpt>
      <trkpt lat="49.08395" lon="3.55679">
        <ele>77.9</ele>
        <time>2020-07-01T08:10:55Z</time>
      </trkpt>
      <trkpt lat="49.08399" lon="3.5567">
        <ele>77.8</ele>
        <time>2020-07-01T08:10:56Z</time>
      </trkpt>
      <trkpt lat="49.08403" lon="3.55663">
        <ele>77.8</ele>
        <time>2020-07-01T08:10:57Z</time>
      </trkpt>
      <trkpt lat="49.08407" lon="3.55656">
        <ele>77.7</ele>
        <time>2020-07-01T08:10:58Z</time>
      </trkpt>
      <trkpt lat="49.0841" lon="3.55647">
        <ele>77.7</ele>
        <time>2020-07-01T08:10:59Z</time>
      </trkpt>
      <trkpt lat="49.08414" lon="3.5564">
        <ele>77.7</ele>
        <time>2020-07-01T08:11:00Z</time>
      </trkpt>
      <trkpt lat="49.08418" lon="3.55633">
        <ele>77.7</ele>
        <time>2020-07-01T08:11:01Z</time>
      </trkpt>
      <trkpt lat="49.08423" lon="3.55627">
        <ele>77.8</ele>
        <time>2020-07-01T08:11:02Z</time>
      </trkpt>
      <trkpt lat="49.08427" lon="3.55621">
        <ele>77.8</ele>
        <time>2020-07-01T08:11:03Z</time>
      </trkpt>
      <trkpt lat="49.08431" lon="3.55614">
        <ele>77.9</ele>
        <time>2020-07-01T08:11:04Z</time>
      </trkpt>
      <trkpt lat="49.08435" lon="3.55608">
        <ele>77.9</ele>
        <time>2020-07-01T08:11:05Z</time>
      </trkpt>
      <trkpt lat="49.08439" lon="3.55601">
        <ele>78</ele>
        <time>2020-07-01T08:11:06Z</time>
      </trkpt>
      <trkpt lat="49.08443" lon="3.55594">
        <ele>78</ele>
        <time>2020-07-01T08:11:07Z</time>
      </trkpt>
      <trkpt lat="49.08446" lon="3.55588">
        <ele>78</ele>
        <time>2020-07-01T08:11:08Z</time>
      </trkpt>
      <trkpt lat="49.08449" lon="3.5558">
        <ele>78.1</ele>
        <time>2020-07-01T08:11:09Z</time>
      </trkpt>
      <trkpt lat="49.08453" lon="3.55574">
        <ele>78.1</ele>
        <time>2020-07-01T08:11:10Z</time>
      </trkpt>
      <trkpt lat="49.08456" lon="3.55567">
        <ele>78.2</ele>
        <time>2020-07-01T08:11:11Z</time>
      </trkpt>
      <trkpt lat="49.08459" lon="3.5556">
        <ele>78.2</ele>
        <time>2020-07-01T08:11:12Z</time>
      </trkpt>
      <trkpt lat="49.08463" lon="3.55553">
        <ele>78.3</ele>
        <time>2020-07-01T08:11:13Z</time>
      </trkpt>
      <trkpt lat="49.08466" lon="3.55546">
        <ele>78.3</ele>
        <time>2020-07-01T08:11:14Z</time>
      </trkpt>
      <trkpt lat="49.0847" lon="3.55539">
        <ele>78.4</ele>
        <time>2020-07-01T08:11:15Z</time>
      </trkpt>
      <trkpt lat="49.08473" lon="3.5553">
        <ele>78.4</ele>
        <time>2020-07-01T08:11:16Z</time>
      </trkpt>
      <trkpt lat="49.08477" lon="3.55522">
        <ele>78.5</ele>
        <time>2020-07-01T08:11:17Z</time>
      </trkpt>
      <trkpt lat="49.08479" lon="3.55513">
        <ele>78.6</ele>
        <time>2020-07-01T08:11:18Z</time>
      </trkpt>
      <trkpt lat="49.08482" lon="3.55505">
        <ele>78.7</ele>
        <time>2020-07-01T08:11:19Z</time>
      </trkpt>
      <trkpt lat="49.08484" lon="3.55499">
        <ele>78.8</ele>
        <time>2020-07-01T08:11:20Z</time>
      </trkpt>
      <trkpt lat="49.08487" lon="3.55492">
        <ele>78.9</ele>
        <time>2020-07-01T08:11:21Z</time>
      </trkpt>
      <trkpt lat="49.0849" lon="3.55484">
        <ele>79</ele>
        <time>2020-07-01T08:11:22Z</time>
      </trkpt>
      <trkpt lat="49.08494" lon="3.55477">
        <ele>79.1</ele>
        <time>2020-07-01T08:11:23Z</time>
      </trkpt>
      <trkpt lat="49.08496" lon="3.55469">
        <ele>79.2</ele>
        <time>2020-07-01T08:11:24Z</time>
      </trkpt>
      <trkpt lat="49.08499" lon="3.55462">
        <ele>79.3</ele>
        <time>2020-07-01T08:11:25Z</time>
      </trkpt>
      <trkpt lat="49.08502" lon="3.55457">
        <ele>79.4</ele>
        <time>2020-07-01T08:11:26Z</time>
      </trkpt>
      <trkpt lat="49.08505" lon="3.55451">
        <ele>79.5</ele>
        <time>2020-07-01T08:11:27Z</time>
      </trkpt>
      <trkpt lat="49.08508" lon="3.55444">
        <ele>79.6</ele>
        <time>2020-07-01T08:11:28Z</time>
      </trkpt>
      <trkpt lat="49.08511" lon="3.55437">
        <ele>79.8</ele>
        <time>2020-07-01T08:11:29Z</time>
      </trkpt>
      <trkpt lat="49.08515" lon="3.5543">
        <ele>79.9</ele>
        <time>2020-07-01T08:11:30Z</time>
      </trkpt>
      <trkpt lat="49.08517" lon="3.55423">
        <ele>80</ele>
        <time>2020-07-01T08:11:31Z</time>
      </trkpt>
      <trkpt lat="49.08521" lon="3.55417">
        <ele>80.1</ele>
        <time>2020-07-01T08:11:32Z</time>
      </trkpt>
      <trkpt lat="49.08524" lon="3.55412">
        <ele>80.2</ele>
        <time>2020-07-01T08:11:33Z</time>
      </trkpt>
      <trkpt lat="49.08527" lon="3.55407">
        <ele>80.4</ele>
        <time>2020-07-01T08:11:34Z</time>
      </trkpt>
      <trkpt lat="49.08529" lon="3.55401">
        <ele>80.5</ele>
        <time>2020-07-01T08:11:35Z</time>
      </trkpt>
      <trkpt lat="49.08532" lon="3.55395">
        <ele>80.6</ele>
        <time>2020-07-01T08:11:36Z</time>
      </trkpt>
      <trkpt lat="49.08538" lon="3.5539">
        <ele>80.8</ele>
        <time>2020-07-01T08:11:37Z</time>
      </trkpt>
      <trkpt lat="49.08543" lon="3.55386">
        <ele>81</ele>
        <time>2020-07-01T08:11:38Z</time>
      </trkpt>
      <trkpt lat="49.08547" lon="3.5538">
        <ele>81.2</ele>
        <time>2020-07-01T08:11:39Z</time>
      </trkpt>
      <trkpt lat="49.0855" lon="3.55374">
        <ele>81.4</ele>
        <time>2020-07-01T08:11:40Z</time>
      </trkpt>
      <trkpt lat="49.08552" lon="3.55369">
        <ele>81.6</ele>
        <time>2020-07-01T08:11:41Z</time>
      </trkpt>
      <trkpt lat="49.08554" lon="3.55364">
        <ele>81.8</ele>
        <time>2020-07-01T08:11:42Z</time>
      </trkpt>
      <trkpt lat="49.08557" lon="3.5536">
        <ele>82</ele>
        <time>2020-07-01T08:11:43Z</time>
      </trkpt>
      <trkpt lat="49.0856" lon="3.55355">
        <ele>82.2</ele>
        <time>2020-07-01T08:11:44Z</time>
      </trkpt>
      <trkpt lat="49.08562" lon="3.55351">
        <ele>82.3</ele>
        <time>2020-07-01T08:11:45Z</time>
      </trkpt>
      <trkpt lat="49.08565" lon="3.55346">
        <ele>82.5</ele>
        <time>2020-07-01T08:11:46Z</time>
      </trkpt>
      <trkpt lat="49.08568" lon="3.5534">
        <ele>82.7</ele>
        <time>2020-07-01T08:11:47Z</time>
      </trkpt>
      <trkpt lat="49.08571" lon="3.55334">
        <ele>82.9</ele>
        <time>2020-07-01T08:11:48Z</time>
      </trkpt>
      <trkpt lat="49.08573" lon="3.55329">
        <ele>83.1</ele>
        <time>2020-07-01T08:11:49Z</time>
      </trkpt>
      <trkpt lat="49.08576" lon="3.55325">
        <ele>83.1</ele>
        <time>2020-07-01T08:11:50Z</time>
      </trkpt>
      <trkpt lat="49.0858" lon="3.5532">
        <ele>83.4</ele>
        <time>2020-07-01T08:11:51Z</time>
      </trkpt>
      <trkpt lat="49.08583" lon="3.55314">
        <ele>83.7</ele>
        <time>2020-07-01T08:11:52Z</time>
      </trkpt>
      <trkpt lat="49.08586" lon="3.55309">
        <ele>83.9</ele>
        <time>2020-07-01T08:11:53Z</time>
      </trkpt>
      <trkpt lat="49.08589" lon="3.55304">
        <ele>84.2</ele>
        <time>2020-07-01T08:11:54Z</time>
      </trkpt>
      <trkpt lat="49.08591" lon="3.553">
        <ele>84.4</ele>
        <time>2020-07-01T08:11:55Z</time>
      </trkpt>
      <trkpt lat="49.08594" lon="3.55295">
        <ele>84.6</ele>
        <time>2020-07-01T08:11:56Z</time>
      </trkpt>
      <trkpt lat="49.08596" lon="3.55291">
        <ele>84.8</ele>
        <time>2020-07-01T08:11:57Z</time>
      </trkpt>
      <trkpt lat="49.08599" lon="3.55287">
        <ele>85</ele>
        <time>2020-07-01T08:11:58Z</time>
      </trkpt>
      <trkpt lat="49.08601" lon="3.55283">
        <ele>85.2</ele>
        <time>2020-07-01T08:11:59Z</time>
      </trkpt>
      <trkpt lat="49.08604" lon="3.55279">
        <ele>85.4</ele>
        <time>2020-07-01T08:12:00Z</time>
      </trkpt>
      <trkpt lat="49.08607" lon="3.55277">
        <ele>85.6</ele>
        <time>2020-07-01T08:12:01Z</time>
      </trkpt>
      <trkpt lat="49.08608" lon="3.55275">
        <ele>85.7</ele>
        <time>2020-07-01T08:12:02Z</time>
      </trkpt>
      <trkpt lat="49.08611" lon="3.55272">
        <ele>85.8</ele>
        <time>2020-07-01T08:12:03Z</time>
      </trkpt>
      <trkpt lat="49.08614" lon="3.55269">
        <ele>86</ele>
        <time>2020-07-01T08:12:04Z</time>
      </trkpt>
      <trkpt lat="49.08617" lon="3.55267">
        <ele>86.2</ele>
        <time>2020-07-01T08:12:05Z</time>
      </trkpt>
      <trkpt lat="49.0862" lon="3.55264">
        <ele>86.3</ele>
        <time>2020-07-01T08:12:06Z</time>
      </trkpt>
      <trkpt lat="49.08624" lon="3.55259">
        <ele>86.5</ele>
        <time>2020-07-01T08:12:07Z</time>
      </trkpt>
      <trkpt lat="49.08627" lon="3.55255">
        <ele>86.7</ele>
        <time>2020-07-01T08:12:08Z</time>
      </trkpt>
      <trkpt lat="49.0863" lon="3.5525">
        <ele>86.8</ele>
        <time>2020-07-01T08:12:09Z</time>
      </trkpt>
      <trkpt lat="49.08633" lon="3.55245">
        <ele>87</ele>
        <time>2020-07-01T08:12:10Z</time>
      </trkpt>
      <trkpt lat="49.08636" lon="3.5524">
        <ele>87.1</ele>
        <time>2020-07-01T08:12:11Z</time>
      </trkpt>
      <trkpt lat="49.08638" lon="3.55234">
        <ele>87.3</ele>
        <time>2020-07-01T08:12:12Z</time>
      </trkpt>
      <trkpt lat="49.08639" lon="3.55228">
        <ele>87.4</ele>
        <time>2020-07-01T08:12:13Z</time>
      </trkpt>
      <trkpt lat="49.08641" lon="3.55223">
        <ele>87.5</ele>
        <time>2020-07-01T08:12:14Z</time>
      </trkpt>
      <trkpt lat="49.08643" lon="3.55218">
        <ele>87.6</ele>
        <time>2020-07-01T08:12:15Z</time>
      </trkpt>
      <trkpt lat="49.08644" lon="3.55212">
        <ele>87.7</ele>
        <time>2020-07-01T08:12:16Z</time>
      </trkpt>
      <trkpt lat="49.08646" lon="3.55207">
        <ele>87.8</ele>
        <time>2020-07-01T08:12:17Z</time>
      </trkpt>
      <trkpt lat="49.08648" lon="3.55202">
        <ele>87.9</ele>
        <time>2020-07-01T08:12:18Z</time>
      </trkpt>
      <trkpt lat="49.0865" lon="3.55197">
        <ele>88</ele>
        <time>2020-07-01T08:12:19Z</time>
      </trkpt>
      <trkpt lat="49.08652" lon="3.55192">
        <ele>88.2</ele>
        <time>2020-07-01T08:12:20Z</time>
      </trkpt>
      <trkpt lat="49.08655" lon="3.55187">
        <ele>88.3</ele>
        <time>2020-07-01T08:12:21Z</time>
      </trkpt>
      <trkpt lat="49.08659" lon="3.55182">
        <ele>88.4</ele>
        <time>2020-07-01T08:12:22Z</time>
      </trkpt>
      <trkpt lat="49.08663" lon="3.55179">
        <ele>88.5</ele>
        <time>2020-07-01T08:12:23Z</time>
      </trkpt>
      <trkpt lat="49.08667" lon="3.55176">
        <ele>88.6</ele>
        <time>2020-07-01T08:12:24Z</time>
      </trkpt>
      <trkpt lat="49.08671" lon="3.55172">
        <ele>88.7</ele>
        <time>2020-07-01T08:12:25Z</time>
      </trkpt>
      <trkpt lat="49.08674" lon="3.55169">
        <ele>88.7</ele>
        <time>2020-07-01T08:12:26Z</time>
      </trkpt>
      <trkpt lat="49.08678" lon="3.55164">
        <ele>88.8</ele>
        <time>2020-07-01T08:12:27Z</time>
      </trkpt>
      <trkpt lat="49.08682" lon="3.55161">
        <ele>88.9</ele>
        <time>2020-07-01T08:12:28Z</time>
      </trkpt>
      <trkpt lat="49.08685" lon="3.55156">
        <ele>88.9</ele>
        <time>2020-07-01T08:12:29Z</time>
      </trkpt>
      <trkpt lat="49.08688" lon="3.55153">
        <ele>89.1</ele>
        <time>2020-07-01T08:12:30Z</time>
      </trkpt>
      <trkpt lat="49.08691" lon="3.55148">
        <ele>89.2</ele>
        <time>2020-07-01T08:12:31Z</time>
      </trkpt>
      <trkpt lat="49.08694" lon="3.55144">
        <ele>89.2</ele>
        <time>2020-07-01T08:12:32Z</time>
      </trkpt>
      <trkpt lat="49.08697" lon="3.55139">
        <ele>89.2</ele>
        <time>2020-07-01T08:12:33Z</time>
      </trkpt>
      <trkpt lat="49.087" lon="3.55133">
        <ele>89.2</ele>
        <time>2020-07-01T08:12:34Z</time>
      </trkpt>
      <trkpt lat="49.08702" lon="3.55126">
        <ele>89.1</ele>
        <time>2020-07-01T08:12:35Z</time>
      </trkpt>
      <trkpt lat="49.08704" lon="3.5512">
        <ele>89</ele>
        <time>2020-07-01T08:12:36Z</time>
      </trkpt>
      <trkpt lat="49.08707" lon="3.55114">
        <ele>89</ele>
        <time>2020-07-01T08:12:37Z</time>
      </trkpt>
      <trkpt lat="49.08708" lon="3.55107">
        <ele>88.9</ele>
        <time>2020-07-01T08:12:38Z</time>
      </trkpt>
      <trkpt lat="49.08711" lon="3.551">
        <ele>88.8</ele>
        <time>2020-07-01T08:12:39Z</time>
      </trkpt>
      <trkpt lat="49.08713" lon="3.55093">
        <ele>88.6</ele>
        <time>2020-07-01T08:12:40Z</time>
      </trkpt>
      <trkpt lat="49.08714" lon="3.55085">
        <ele>88.4</ele>
        <time>2020-07-01T08:12:41Z</time>
      </trkpt>
      <trkpt lat="49.08716" lon="3.55076">
        <ele>88.2</ele>
        <time>2020-07-01T08:12:42Z</time>
      </trkpt>
      <trkpt lat="49.08718" lon="3.55068">
        <ele>88</ele>
        <time>2020-07-01T08:12:43Z</time>
      </trkpt>
      <trkpt lat="49.0872" lon="3.5506">
        <ele>87.8</ele>
        <time>2020-07-01T08:12:44Z</time>
      </trkpt>
      <trkpt lat="49.08722" lon="3.55052">
        <ele>87.6</ele>
        <time>2020-07-01T08:12:45Z</time>
      </trkpt>
      <trkpt lat="49.08723" lon="3.55044">
        <ele>87.4</ele>
        <time>2020-07-01T08:12:46Z</time>
      </trkpt>
      <trkpt lat="49.08725" lon="3.55035">
        <ele>87.3</ele>
        <time>2020-07-01T08:12:47Z</time>
      </trkpt>
      <trkpt lat="49.08726" lon="3.55026">
        <ele>87.1</ele>
        <time>2020-07-01T08:12:48Z</time>
      </trkpt>
      <trkpt lat="49.08728" lon="3.55018">
        <ele>86.9</ele>
        <time>2020-07-01T08:12:49Z</time>
      </trkpt>
      <trkpt lat="49.0873" lon="3.55008">
        <ele>86.6</ele>
        <time>2020-07-01T08:12:50Z</time>
      </trkpt>
      <trkpt lat="49.08732" lon="3.54999">
        <ele>86.4</ele>
        <time>2020-07-01T08:12:51Z</time>
      </trkpt>
      <trkpt lat="49.08734" lon="3.5499">
        <ele>86.2</ele>
        <time>2020-07-01T08:12:52Z</time>
      </trkpt>
      <trkpt lat="49.08736" lon="3.54982">
        <ele>86</ele>
        <time>2020-07-01T08:12:53Z</time>
      </trkpt>
      <trkpt lat="49.08738" lon="3.54973">
        <ele>85.8</ele>
        <time>2020-07-01T08:12:54Z</time>
      </trkpt>
      <trkpt lat="49.0874" lon="3.54965">
        <ele>85.6</ele>
        <time>2020-07-01T08:12:55Z</time>
      </trkpt>
      <trkpt lat="49.08742" lon="3.54955">
        <ele>85.4</ele>
        <time>2020-07-01T08:12:56Z</time>
      </trkpt>
      <trkpt lat="49.08745" lon="3.54945">
        <ele>85.2</ele>
        <time>2020-07-01T08:12:57Z</time>
      </trkpt>
      <trkpt lat="49.08747" lon="3.54935">
        <ele>85.1</ele>
        <time>2020-07-01T08:12:58Z</time>
      </trkpt>
      <trkpt lat="49.08749" lon="3.54927">
        <ele>84.9</ele>
        <time>2020-07-01T08:12:59Z</time>
      </trkpt>
      <trkpt lat="49.08751" lon="3.54917">
        <ele>84.8</ele>
        <time>2020-07-01T08:13:00Z</time>
      </trkpt>
      <trkpt lat="49.08754" lon="3.54908">
        <ele>84.6</ele>
        <time>2020-07-01T08:13:01Z</time>
      </trkpt>
      <trkpt lat="49.08756" lon="3.54898">
        <ele>84.5</ele>
        <time>2020-07-01T08:13:02Z</time>
      </trkpt>
      <trkpt lat="49.08758" lon="3.54888">
        <ele>84.3</ele>
        <time>2020-07-01T08:13:03Z</time>
      </trkpt>
      <trkpt lat="49.0876" lon="3.54878">
        <ele>84.1</ele>
        <time>2020-07-01T08:13:04Z</time>
      </trkpt>
      <trkpt lat="49.08762" lon="3.54867">
        <ele>84</ele>
        <time>2020-07-01T08:13:05Z</time>
      </trkpt>
      <trkpt lat="49.08764" lon="3.54858">
        <ele>83.9</ele>
        <time>2020-07-01T08:13:06Z</time>
      </trkpt>
      <trkpt lat="49.08767" lon="3.54849">
        <ele>83.8</ele>
        <time>2020-07-01T08:13:07Z</time>
      </trkpt>
      <trkpt lat="49.08769" lon="3.5484">
        <ele>83.8</ele>
        <time>2020-07-01T08:13:08Z</time>
      </trkpt>
      <trkpt lat="49.08771" lon="3.54831">
        <ele>83.7</ele>
        <time>2020-07-01T08:13:09Z</time>
      </trkpt>
      <trkpt lat="49.08773" lon="3.54823">
        <ele>83.7</ele>
        <time>2020-07-01T08:13:10Z</time>
      </trkpt>
      <trkpt lat="49.08774" lon="3.54814">
        <ele>83.7</ele>
        <time>2020-07-01T08:13:11Z</time>
      </trkpt>
      <trkpt lat="49.08775" lon="3.54806">
        <ele>83.7</ele>
        <time>2020-07-01T08:13:12Z</time>
      </trkpt>
      <trkpt lat="49.08777" lon="3.54797">
        <ele>83.7</ele>
        <time>2020-07-01T08:13:13Z</time>
      </trkpt>
      <trkpt lat="49.08778" lon="3.54789">
        <ele>83.7</ele>
        <time>2020-07-01T08:13:14Z</time>
      </trkpt>
      <trkpt lat="49.0878" lon="3.5478">
        <ele>83.7</ele>
        <time>2020-07-01T08:13:15Z</time>
      </trkpt>
      <trkpt lat="49.08781" lon="3.54772">
        <ele>83.6</ele>
        <time>2020-07-01T08:13:16Z</time>
      </trkpt>
      <trkpt lat="49.08782" lon="3.54764">
        <ele>83.6</ele>
        <time>2020-07-01T08:13:17Z</time>
      </trkpt>
      <trkpt lat="49.08784" lon="3.54754">
        <ele>83.6</ele>
        <time>2020-07-01T08:13:18Z</time>
      </trkpt>
      <trkpt lat="49.08785" lon="3.54745">
        <ele>83.6</ele>
        <time>2020-07-01T08:13:19Z</time>
      </trkpt>
      <trkpt lat="49.08788" lon="3.54736">
        <ele>83.5</ele>
        <time>2020-07-01T08:13:20Z</time>
      </trkpt>
      <trkpt lat="49.0879" lon="3.54726">
        <ele>83.5</ele>
        <time>2020-07-01T08:13:21Z</time>
      </trkpt>
      <trkpt lat="49.08792" lon="3.54716">
        <ele>83.5</ele>
        <time>2020-07-01T08:13:22Z</time>
      </trkpt>
      <trkpt lat="49.08794" lon="3.54709">
        <ele>83.5</ele>
        <time>2020-07-01T08:13:23Z</time>
      </trkpt>
      <trkpt lat="49.08796" lon="3.54699">
        <ele>83.4</ele>
        <time>2020-07-01T08:13:24Z</time>
      </trkpt>
      <trkpt lat="49.08797" lon="3.54691">
        <ele>83.4</ele>
        <time>2020-07-01T08:13:25Z</time>
      </trkpt>
      <trkpt lat="49.08799" lon="3.54683">
        <ele>83.3</ele>
        <time>2020-07-01T08:13:26Z</time>
      </trkpt>
      <trkpt lat="49.088" lon="3.54673">
        <ele>83.3</ele>
        <time>2020-07-01T08:13:27Z</time>
      </trkpt>
      <trkpt lat="49.08803" lon="3.54664">
        <ele>83.2</ele>
        <time>2020-07-01T08:13:28Z</time>
      </trkpt>
      <trkpt lat="49.08805" lon="3.54655">
        <ele>83.1</ele>
        <time>2020-07-01T08:13:29Z</time>
      </trkpt>
      <trkpt lat="49.08807" lon="3.54645">
        <ele>83.1</ele>
        <time>2020-07-01T08:13:30Z</time>
      </trkpt>
      <trkpt lat="49.08808" lon="3.54636">
        <ele>83</ele>
        <time>2020-07-01T08:13:31Z</time>
      </trkpt>
      <trkpt lat="49.08809" lon="3.54625">
        <ele>83</ele>
        <time>2020-07-01T08:13:32Z</time>
      </trkpt>
      <trkpt lat="49.0881" lon="3.54616">
        <ele>82.9</ele>
        <time>2020-07-01T08:13:33Z</time>
      </trkpt>
      <trkpt lat="49.08812" lon="3.54607">
        <ele>82.9</ele>
        <time>2020-07-01T08:13:34Z</time>
      </trkpt>
      <trkpt lat="49.08814" lon="3.54597">
        <ele>82.8</ele>
        <time>2020-07-01T08:13:35Z</time>
      </trkpt>
      <trkpt lat="49.08816" lon="3.54589">
        <ele>82.8</ele>
        <time>2020-07-01T08:13:36Z</time>
      </trkpt>
      <trkpt lat="49.08817" lon="3.5458">
        <ele>82.7</ele>
        <time>2020-07-01T08:13:37Z</time>
      </trkpt>
      <trkpt lat="49.08819" lon="3.54571">
        <ele>82.7</ele>
        <time>2020-07-01T08:13:38Z</time>
      </trkpt>
      <trkpt lat="49.08821" lon="3.54562">
        <ele>82.7</ele>
        <time>2020-07-01T08:13:39Z</time>
      </trkpt>
      <trkpt lat="49.08823" lon="3.54553">
        <ele>82.6</ele>
        <time>2020-07-01T08:13:40Z</time>
      </trkpt>
      <trkpt lat="49.08825" lon="3.54545">
        <ele>82.6</ele>
        <time>2020-07-01T08:13:41Z</time>
      </trkpt>
      <trkpt lat="49.08827" lon="3.54536">
        <ele>82.6</ele>
        <time>2020-07-01T08:13:42Z</time>
      </trkpt>
      <trkpt lat="49.08828" lon="3.54527">
        <ele>82.5</ele>
        <time>2020-07-01T08:13:43Z</time>
      </trkpt>
      <trkpt lat="49.0883" lon="3.54518">
        <ele>82.5</ele>
        <time>2020-07-01T08:13:44Z</time>
      </trkpt>
      <trkpt lat="49.08831" lon="3.54508">
        <ele>82.4</ele>
        <time>2020-07-01T08:13:45Z</time>
      </trkpt>
      <trkpt lat="49.08833" lon="3.54499">
        <ele>82.3</ele>
        <time>2020-07-01T08:13:46Z</time>
      </trkpt>
      <trkpt lat="49.08833" lon="3.54491">
        <ele>82.2</ele>
        <time>2020-07-01T08:13:47Z</time>
      </trkpt>
      <trkpt lat="49.08834" lon="3.54482">
        <ele>82.1</ele>
        <time>2020-07-01T08:13:48Z</time>
      </trkpt>
      <trkpt lat="49.08835" lon="3.54473">
        <ele>81.9</ele>
        <time>2020-07-01T08:13:49Z</time>
      </trkpt>
      <trkpt lat="49.08835" lon="3.54464">
        <ele>81.7</ele>
        <time>2020-07-01T08:13:50Z</time>
      </trkpt>
      <trkpt lat="49.08834" lon="3.54455">
        <ele>81.5</ele>
        <time>2020-07-01T08:13:51Z</time>
      </trkpt>
      <trkpt lat="49.08834" lon="3.54445">
        <ele>81.2</ele>
        <time>2020-07-01T08:13:52Z</time>
      </trkpt>
      <trkpt lat="49.08832" lon="3.54438">
        <ele>81.1</ele>
        <time>2020-07-01T08:13:53Z</time>
      </trkpt>
      <trkpt lat="49.08831" lon="3.54427">
        <ele>80.8</ele>
        <time>2020-07-01T08:13:54Z</time>
      </trkpt>
      <trkpt lat="49.0883" lon="3.54417">
        <ele>80.6</ele>
        <time>2020-07-01T08:13:55Z</time>
      </trkpt>
      <trkpt lat="49.08829" lon="3.54407">
        <ele>80.3</ele>
        <time>2020-07-01T08:13:56Z</time>
      </trkpt>
      <trkpt lat="49.08829" lon="3.54396">
        <ele>79.9</ele>
        <time>2020-07-01T08:13:57Z</time>
      </trkpt>
      <trkpt lat="49.08828" lon="3.54385">
        <ele>79.6</ele>
        <time>2020-07-01T08:13:58Z</time>
      </trkpt>
      <trkpt lat="49.08828" lon="3.54375">
        <ele>79.4</ele>
        <time>2020-07-01T08:13:59Z</time>
      </trkpt>
      <trkpt lat="49.08829" lon="3.54365">
        <ele>79.2</ele>
        <time>2020-07-01T08:14:00Z</time>
      </trkpt>
      <trkpt lat="49.0883" lon="3.54354">
        <ele>79</ele>
        <time>2020-07-01T08:14:01Z</time>
      </trkpt>
      <trkpt lat="49.08831" lon="3.54344">
        <ele>78.8</ele>
        <time>2020-07-01T08:14:02Z</time>
      </trkpt>
      <trkpt lat="49.08832" lon="3.54333">
        <ele>78.5</ele>
        <time>2020-07-01T08:14:03Z</time>
      </trkpt>
      <trkpt lat="49.08833" lon="3.54323">
        <ele>78.2</ele>
        <time>2020-07-01T08:14:04Z</time>
      </trkpt>
      <trkpt lat="49.08833" lon="3.54313">
        <ele>78</ele>
        <time>2020-07-01T08:14:05Z</time>
      </trkpt>
      <trkpt lat="49.08834" lon="3.54302">
        <ele>77.7</ele>
        <time>2020-07-01T08:14:06Z</time>
      </trkpt>
      <trkpt lat="49.08835" lon="3.54291">
        <ele>77.5</ele>
        <time>2020-07-01T08:14:07Z</time>
      </trkpt>
      <trkpt lat="49.08836" lon="3.54281">
        <ele>77.3</ele>
        <time>2020-07-01T08:14:08Z</time>
      </trkpt>
      <trkpt lat="49.08837" lon="3.5427">
        <ele>77.1</ele>
        <time>2020-07-01T08:14:09Z</time>
      </trkpt>
      <trkpt lat="49.08839" lon="3.5426">
        <ele>76.9</ele>
        <time>2020-07-01T08:14:10Z</time>
      </trkpt>
      <trkpt lat="49.08841" lon="3.54249">
        <ele>76.7</ele>
        <time>2020-07-01T08:14:11Z</time>
      </trkpt>
      <trkpt lat="49.08842" lon="3.54239">
        <ele>76.6</ele>
        <time>2020-07-01T08:14:12Z</time>
      </trkpt>
      <trkpt lat="49.08843" lon="3.54229">
        <ele>76.4</ele>
        <time>2020-07-01T08:14:13Z</time>
      </trkpt>
      <trkpt lat="49.08845" lon="3.54218">
        <ele>76.3</ele>
        <time>2020-07-01T08:14:14Z</time>
      </trkpt>
      <trkpt lat="49.08846" lon="3.54208">
        <ele>76.2</ele>
        <time>2020-07-01T08:14:15Z</time>
      </trkpt>
      <trkpt lat="49.08847" lon="3.54197">
        <ele>76.1</ele>
        <time>2020-07-01T08:14:16Z</time>
      </trkpt>
      <trkpt lat="49.08849" lon="3.54187">
        <ele>76</ele>
        <time>2020-07-01T08:14:17Z</time>
      </trkpt>
      <trkpt lat="49.0885" lon="3.54178">
        <ele>75.9</ele>
        <time>2020-07-01T08:14:18Z</time>
      </trkpt>
      <trkpt lat="49.08851" lon="3.54168">
        <ele>75.9</ele>
        <time>2020-07-01T08:14:19Z</time>
      </trkpt>
      <trkpt lat="49.08853" lon="3.54159">
        <ele>75.8</ele>
        <time>2020-07-01T08:14:20Z</time>
      </trkpt>
      <trkpt lat="49.08855" lon="3.54149">
        <ele>75.7</ele>
        <time>2020-07-01T08:14:21Z</time>
      </trkpt>
      <trkpt lat="49.08857" lon="3.5414">
        <ele>75.7</ele>
        <time>2020-07-01T08:14:22Z</time>
      </trkpt>
      <trkpt lat="49.08858" lon="3.5413">
        <ele>75.7</ele>
        <time>2020-07-01T08:14:23Z</time>
      </trkpt>
      <trkpt lat="49.08859" lon="3.5412">
        <ele>75.6</ele>
        <time>2020-07-01T08:14:24Z</time>
      </trkpt>
      <trkpt lat="49.08861" lon="3.5411">
        <ele>75.6</ele>
        <time>2020-07-01T08:14:25Z</time>
      </trkpt>
      <trkpt lat="49.08863" lon="3.541">
        <ele>75.5</ele>
        <time>2020-07-01T08:14:26Z</time>
      </trkpt>
      <trkpt lat="49.08864" lon="3.54091">
        <ele>75.4</ele>
        <time>2020-07-01T08:14:27Z</time>
      </trkpt>
      <trkpt lat="49.08865" lon="3.54081">
        <ele>75.3</ele>
        <time>2020-07-01T08:14:28Z</time>
      </trkpt>
      <trkpt lat="49.08866" lon="3.54072">
        <ele>75.2</ele>
        <time>2020-07-01T08:14:29Z</time>
      </trkpt>
      <trkpt lat="49.08867" lon="3.54062">
        <ele>75.2</ele>
        <time>2020-07-01T08:14:30Z</time>
      </trkpt>
      <trkpt lat="49.08868" lon="3.54052">
        <ele>75.2</ele>
        <time>2020-07-01T08:14:31Z</time>
      </trkpt>
      <trkpt lat="49.08869" lon="3.54041">
        <ele>75.2</ele>
        <time>2020-07-01T08:14:32Z</time>
      </trkpt>
      <trkpt lat="49.0887" lon="3.54031">
        <ele>75.3</ele>
        <time>2020-07-01T08:14:33Z</time>
      </trkpt>
      <trkpt lat="49.08871" lon="3.5402">
        <ele>75.3</ele>
        <time>2020-07-01T08:14:34Z</time>
      </trkpt>
      <trkpt lat="49.08872" lon="3.5401">
        <ele>75.4</ele>
        <time>2020-07-01T08:14:35Z</time>
      </trkpt>
      <trkpt lat="49.08874" lon="3.54">
        <ele>75.5</ele>
        <time>2020-07-01T08:14:36Z</time>
      </trkpt>
      <trkpt lat="49.08875" lon="3.5399">
        <ele>75.6</ele>
        <time>2020-07-01T08:14:37Z</time>
      </trkpt>
      <trkpt lat="49.08876" lon="3.53981">
        <ele>75.7</ele>
        <time>2020-07-01T08:14:38Z</time>
      </trkpt>
      <trkpt lat="49.08877" lon="3.53971">
        <ele>75.8</ele>
        <time>2020-07-01T08:14:39Z</time>
      </trkpt>
      <trkpt lat="49.08879" lon="3.53962">
        <ele>75.9</ele>
        <time>2020-07-01T08:14:40Z</time>
      </trkpt>
      <trkpt lat="49.0888" lon="3.53953">
        <ele>76</ele>
        <time>2020-07-01T08:14:41Z</time>
      </trkpt>
      <trkpt lat="49.08881" lon="3.53945">
        <ele>76.1</ele>
        <time>2020-07-01T08:14:42Z</time>
      </trkpt>
      <trkpt lat="49.08882" lon="3.53937">
        <ele>76.1</ele>
        <time>2020-07-01T08:14:43Z</time>
      </trkpt>
      <trkpt lat="49.08883" lon="3.53928">
        <ele>76.1</ele>
        <time>2020-07-01T08:14:44Z</time>
      </trkpt>
      <trkpt lat="49.08884" lon="3.5392">
        <ele>76.1</ele>
        <time>2020-07-01T08:14:45Z</time>
      </trkpt>
      <trkpt lat="49.08884" lon="3.53913">
        <ele>76.1</ele>
        <time>2020-07-01T08:14:46Z</time>
      </trkpt>
      <trkpt lat="49.08884" lon="3.53905">
        <ele>76</ele>
        <time>2020-07-01T08:14:47Z</time>
      </trkpt>
      <trkpt lat="49.08885" lon="3.53898">
        <ele>75.9</ele>
        <time>2020-07-01T08:14:48Z</time>
      </trkpt>
      <trkpt lat="49.08885" lon="3.53892">
        <ele>75.8</ele>
        <time>2020-07-01T08:14:49Z</time>
      </trkpt>
      <trkpt lat="49.08885" lon="3.53885">
        <ele>75.7</ele>
        <time>2020-07-01T08:14:50Z</time>
      </trkpt>
      <trkpt lat="49.08884" lon="3.53879">
        <ele>75.6</ele>
        <time>2020-07-01T08:14:51Z</time>
      </trkpt>
      <trkpt lat="49.08884" lon="3.53871">
        <ele>75.3</ele>
        <time>2020-07-01T08:14:52Z</time>
      </trkpt>
      <trkpt lat="49.08883" lon="3.53862">
        <ele>74.9</ele>
        <time>2020-07-01T08:14:53Z</time>
      </trkpt>
      <trkpt lat="49.08881" lon="3.53853">
        <ele>74.5</ele>
        <time>2020-07-01T08:14:54Z</time>
      </trkpt>
      <trkpt lat="49.08879" lon="3.53843">
        <ele>74.1</ele>
        <time>2020-07-01T08:14:55Z</time>
      </trkpt>
      <trkpt lat="49.08877" lon="3.53834">
        <ele>73.6</ele>
        <time>2020-07-01T08:14:56Z</time>
      </trkpt>
      <trkpt lat="49.08875" lon="3.53823">
        <ele>73</ele>
        <time>2020-07-01T08:14:57Z</time>
      </trkpt>
      <trkpt lat="49.08873" lon="3.53813">
        <ele>72.5</ele>
        <time>2020-07-01T08:14:58Z</time>
      </trkpt>
      <trkpt lat="49.08872" lon="3.53801">
        <ele>71.9</ele>
        <time>2020-07-01T08:14:59Z</time>
      </trkpt>
      <trkpt lat="49.08871" lon="3.53788">
        <ele>71.2</ele>
        <time>2020-07-01T08:15:00Z</time>
      </trkpt>
      <trkpt lat="49.08869" lon="3.53776">
        <ele>70.5</ele>
        <time>2020-07-01T08:15:01Z</time>
      </trkpt>
      <trkpt lat="49.08868" lon="3.53763">
        <ele>69.8</ele>
        <time>2020-07-01T08:15:02Z</time>
      </trkpt>
      <trkpt lat="49.08866" lon="3.53751">
        <ele>69.2</ele>
        <time>2020-07-01T08:15:03Z</time>
      </trkpt>
      <trkpt lat="49.08864" lon="3.5374">
        <ele>68.6</ele>
        <time>2020-07-01T08:15:04Z</time>
      </trkpt>
      <trkpt lat="49.08863" lon="3.53729">
        <ele>68</ele>
        <time>2020-07-01T08:15:05Z</time>
      </trkpt>
      <trkpt lat="49.08862" lon="3.53717">
        <ele>67.6</ele>
        <time>2020-07-01T08:15:06Z</time>
      </trkpt>
      <trkpt lat="49.0886" lon="3.53706">
        <ele>67.2</ele>
        <time>2020-07-01T08:15:07Z</time>
      </trkpt>
      <trkpt lat="49.08859" lon="3.53694">
        <ele>66.7</ele>
        <time>2020-07-01T08:15:08Z</time>
      </trkpt>
      <trkpt lat="49.08858" lon="3.53681">
        <ele>66.2</ele>
        <time>2020-07-01T08:15:09Z</time>
      </trkpt>
      <trkpt lat="49.08859" lon="3.53669">
        <ele>65.8</ele>
        <time>2020-07-01T08:15:10Z</time>
      </trkpt>
      <trkpt lat="49.08862" lon="3.53656">
        <ele>65.4</ele>
        <time>2020-07-01T08:15:11Z</time>
      </trkpt>
      <trkpt lat="49.08863" lon="3.53642">
        <ele>65.2</ele>
        <time>2020-07-01T08:15:12Z</time>
      </trkpt>
      <trkpt lat="49.08864" lon="3.5363">
        <ele>65.1</ele>
        <time>2020-07-01T08:15:13Z</time>
      </trkpt>
      <trkpt lat="49.08865" lon="3.53618">
        <ele>65.1</ele>
        <time>2020-07-01T08:15:14Z</time>
      </trkpt>
      <trkpt lat="49.08865" lon="3.53606">
        <ele>65.1</ele>
        <time>2020-07-01T08:15:15Z</time>
      </trkpt>
      <trkpt lat="49.08862" lon="3.53596">
        <ele>65.2</ele>
        <time>2020-07-01T08:15:16Z</time>
      </trkpt>
      <trkpt lat="49.08858" lon="3.53588">
        <ele>65.3</ele>
        <time>2020-07-01T08:15:17Z</time>
      </trkpt>
      <trkpt lat="49.08853" lon="3.5358">
        <ele>65.5</ele>
        <time>2020-07-01T08:15:18Z</time>
      </trkpt>
      <trkpt lat="49.08847" lon="3.53576">
        <ele>65.7</ele>
        <time>2020-07-01T08:15:19Z</time>
      </trkpt>
      <trkpt lat="49.08843" lon="3.53571">
        <ele>65.9</ele>
        <time>2020-07-01T08:15:20Z</time>
      </trkpt>
      <trkpt lat="49.08839" lon="3.53567">
        <ele>66.1</ele>
        <time>2020-07-01T08:15:21Z</time>
      </trkpt>
      <trkpt lat="49.08835" lon="3.53561">
        <ele>66.4</ele>
        <time>2020-07-01T08:15:22Z</time>
      </trkpt>
      <trkpt lat="49.08833" lon="3.53556">
        <ele>66.9</ele>
        <time>2020-07-01T08:15:23Z</time>
      </trkpt>
      <trkpt lat="49.08831" lon="3.53551">
        <ele>66.8</ele>
        <time>2020-07-01T08:15:24Z</time>
      </trkpt>
      <trkpt lat="49.08831" lon="3.53546">
        <ele>66.8</ele>
        <time>2020-07-01T08:15:25Z</time>
      </trkpt>
      <trkpt lat="49.08831" lon="3.53544">
        <ele>66.7</ele>
        <time>2020-07-01T08:15:26Z</time>
      </trkpt>
      <trkpt lat="49.0883" lon="3.53545">
        <ele>66.7</ele>
        <time>2020-07-01T08:15:27Z</time>
      </trkpt>
      <trkpt lat="49.0883" lon="3.53544">
        <ele>66.7</ele>
        <time>2020-07-01T08:15:28Z</time>
      </trkpt>
      <trkpt lat="49.0883" lon="3.53544">
        <ele>66.7</ele>
        <time>2020-07-01T08:15:29Z</time>
      </trkpt>
      <trkpt lat="49.08829" lon="3.53545">
        <ele>66.7</ele>
        <time>2020-07-01T08:15:30Z</time>
      </trkpt>
      <trkpt lat="49.08829" lon="3.53547">
        <ele>66.7</ele>
        <time>2020-07-01T08:15:31Z</time>
      </trkpt>
      <trkpt lat="49.08828" lon="3.5355">
        <ele>66.6</ele>
        <time>2020-07-01T08:15:32Z</time>
      </trkpt>
      <trkpt lat="49.08825" lon="3.53552">
        <ele>66.6</ele>
        <time>2020-07-01T08:15:33Z</time>
      </trkpt>
      <trkpt lat="49.08821" lon="3.53552">
        <ele>66.5</ele>
        <time>2020-07-01T08:15:34Z</time>
      </trkpt>
      <trkpt lat="49.08816" lon="3.53552">
        <ele>66.3</ele>
        <time>2020-07-01T08:15:35Z</time>
      </trkpt>
      <trkpt lat="49.08812" lon="3.53549">
        <ele>66.2</ele>
        <time>2020-07-01T08:15:36Z</time>
      </trkpt>
      <trkpt lat="49.08808" lon="3.53548">
        <ele>66.1</ele>
        <time>2020-07-01T08:15:37Z</time>
      </trkpt>
      <trkpt lat="49.08804" lon="3.53548">
        <ele>66</ele>
        <time>2020-07-01T08:15:38Z</time>
      </trkpt>
      <trkpt lat="49.088" lon="3.5355">
        <ele>65.9</ele>
        <time>2020-07-01T08:15:39Z</time>
      </trkpt>
      <trkpt lat="49.08796" lon="3.5355">
        <ele>65.8</ele>
        <time>2020-07-01T08:15:40Z</time>
      </trkpt>
      <trkpt lat="49.08792" lon="3.5355">
        <ele>65.7</ele>
        <time>2020-07-01T08:15:41Z</time>
      </trkpt>
      <trkpt lat="49.08788" lon="3.53551">
        <ele>65.5</ele>
        <time>2020-07-01T08:15:42Z</time>
      </trkpt>
      <trkpt lat="49.08784" lon="3.53553">
        <ele>65.4</ele>
        <time>2020-07-01T08:15:43Z</time>
      </trkpt>
      <trkpt lat="49.0878" lon="3.53553">
        <ele>65.3</ele>
        <time>2020-07-01T08:15:44Z</time>
      </trkpt>
      <trkpt lat="49.08776" lon="3.53555">
        <ele>65.1</ele>
        <time>2020-07-01T08:15:45Z</time>
      </trkpt>
      <trkpt lat="49.08771" lon="3.53557">
        <ele>64.7</ele>
        <time>2020-07-01T08:15:46Z</time>
      </trkpt>
      <trkpt lat="49.08766" lon="3.53558">
        <ele>64.4</ele>
        <time>2020-07-01T08:15:47Z</time>
      </trkpt>
      <trkpt lat="49.08761" lon="3.53558">
        <ele>64</ele>
        <time>2020-07-01T08:15:48Z</time>
      </trkpt>
      <trkpt lat="49.08755" lon="3.5356">
        <ele>63.7</ele>
        <time>2020-07-01T08:15:49Z</time>
      </trkpt>
      <trkpt lat="49.08749" lon="3.53562">
        <ele>63.3</ele>
        <time>2020-07-01T08:15:50Z</time>
      </trkpt>
      <trkpt lat="49.08742" lon="3.53564">
        <ele>63</ele>
        <time>2020-07-01T08:15:51Z</time>
      </trkpt>
      <trkpt lat="49.08736" lon="3.53567">
        <ele>62.7</ele>
        <time>2020-07-01T08:15:52Z</time>
      </trkpt>
      <trkpt lat="49.08729" lon="3.5357">
        <ele>62.3</ele>
        <time>2020-07-01T08:15:53Z</time>
      </trkpt>
      <trkpt lat="49.08722" lon="3.53573">
        <ele>62.2</ele>
        <time>2020-07-01T08:15:54Z</time>
      </trkpt>
      <trkpt lat="49.08716" lon="3.53575">
        <ele>62.2</ele>
        <time>2020-07-01T08:15:55Z</time>
      </trkpt>
      <trkpt lat="49.08709" lon="3.53577">
        <ele>62.2</ele>
        <time>2020-07-01T08:15:56Z</time>
      </trkpt>
      <trkpt lat="49.08703" lon="3.53577">
        <ele>62.1</ele>
        <time>2020-07-01T08:15:57Z</time>
      </trkpt>
      <trkpt lat="49.08697" lon="3.53574">
        <ele>62.1</ele>
        <time>2020-07-01T08:15:58Z</time>
      </trkpt>
      <trkpt lat="49.08692" lon="3.53568">
        <ele>62</ele>
        <time>2020-07-01T08:15:59Z</time>
      </trkpt>
      <trkpt lat="49.08688" lon="3.53561">
        <ele>61.9</ele>
        <time>2020-07-01T08:16:00Z</time>
      </trkpt>
      <trkpt lat="49.08685" lon="3.53554">
        <ele>61.8</ele>
        <time>2020-07-01T08:16:01Z</time>
      </trkpt>
      <trkpt lat="49.08683" lon="3.53547">
        <ele>61.7</ele>
        <time>2020-07-01T08:16:02Z</time>
      </trkpt>
      <trkpt lat="49.0868" lon="3.53541">
        <ele>61.6</ele>
        <time>2020-07-01T08:16:03Z</time>
      </trkpt>
      <trkpt lat="49.08679" lon="3.53533">
        <ele>61.5</ele>
        <time>2020-07-01T08:16:04Z</time>
      </trkpt>
      <trkpt lat="49.08678" lon="3.53527">
        <ele>61.5</ele>
        <time>2020-07-01T08:16:05Z</time>
      </trkpt>
      <trkpt lat="49.08677" lon="3.53521">
        <ele>61.5</ele>
        <time>2020-07-01T08:16:06Z</time>
      </trkpt>
      <trkpt lat="49.08676" lon="3.53515">
        <ele>61.4</ele>
        <time>2020-07-01T08:16:07Z</time>
      </trkpt>
      <trkpt lat="49.08675" lon="3.53509">
        <ele>61.4</ele>
        <time>2020-07-01T08:16:08Z</time>
      </trkpt>
      <trkpt lat="49.08673" lon="3.53503">
        <ele>61.4</ele>
        <time>2020-07-01T08:16:09Z</time>
      </trkpt>
      <trkpt lat="49.08672" lon="3.53499">
        <ele>61.4</ele>
        <time>2020-07-01T08:16:10Z</time>
      </trkpt>
      <trkpt lat="49.08671" lon="3.53494">
        <ele>61.4</ele>
        <time>2020-07-01T08:16:11Z</time>
      </trkpt>
      <trkpt lat="49.0867" lon="3.5349">
        <ele>61.4</ele>
        <time>2020-07-01T08:16:12Z</time>
      </trkpt>
      <trkpt lat="49.08668" lon="3.53486">
        <ele>61.3</ele>
        <time>2020-07-01T08:16:13Z</time>
      </trkpt>
      <trkpt lat="49.08665" lon="3.53481">
        <ele>61.3</ele>
        <time>2020-07-01T08:16:14Z</time>
      </trkpt>
      <trkpt lat="49.08663" lon="3.53475">
        <ele>61.2</ele>
        <time>2020-07-01T08:16:15Z</time>
      </trkpt>
      <trkpt lat="49.08661" lon="3.53469">
        <ele>61.2</ele>
        <time>2020-07-01T08:16:16Z</time>
      </trkpt>
      <trkpt lat="49.0866" lon="3.53462">
        <ele>61.2</ele>
        <time>2020-07-01T08:16:17Z</time>
      </trkpt>
      <trkpt lat="49.08658" lon="3.53456">
        <ele>61.1</ele>
        <time>2020-07-01T08:16:18Z</time>
      </trkpt>
      <trkpt lat="49.08655" lon="3.5345">
        <ele>61.1</ele>
        <time>2020-07-01T08:16:19Z</time>
      </trkpt>
      <trkpt lat="49.08653" lon="3.53445">
        <ele>61.1</ele>
        <time>2020-07-01T08:16:20Z</time>
      </trkpt>
      <trkpt lat="49.08651" lon="3.53438">
        <ele>61.1</ele>
        <time>2020-07-01T08:16:21Z</time>
      </trkpt>
      <trkpt lat="49.08649" lon="3.53431">
        <ele>61</ele>
        <time>2020-07-01T08:16:22Z</time>
      </trkpt>
      <trkpt lat="49.08645" lon="3.53426">
        <ele>61</ele>
        <time>2020-07-01T08:16:23Z</time>
      </trkpt>
      <trkpt lat="49.08641" lon="3.53421">
        <ele>61</ele>
        <time>2020-07-01T08:16:24Z</time>
      </trkpt>
      <trkpt lat="49.08638" lon="3.53415">
        <ele>61</ele>
        <time>2020-07-01T08:16:25Z</time>
      </trkpt>
      <trkpt lat="49.08635" lon="3.53409">
        <ele>61</ele>
        <time>2020-07-01T08:16:26Z</time>
      </trkpt>
      <trkpt lat="49.08633" lon="3.53404">
        <ele>60.9</ele>
        <time>2020-07-01T08:16:27Z</time>
      </trkpt>
      <trkpt lat="49.0863" lon="3.53399">
        <ele>60.9</ele>
        <time>2020-07-01T08:16:28Z</time>
      </trkpt>
      <trkpt lat="49.08627" lon="3.53394">
        <ele>60.9</ele>
        <time>2020-07-01T08:16:29Z</time>
      </trkpt>
      <trkpt lat="49.08623" lon="3.53389">
        <ele>60.9</ele>
        <time>2020-07-01T08:16:30Z</time>
      </trkpt>
      <trkpt lat="49.0862" lon="3.53384">
        <ele>60.8</ele>
        <time>2020-07-01T08:16:31Z</time>
      </trkpt>
      <trkpt lat="49.08616" lon="3.53379">
        <ele>60.8</ele>
        <time>2020-07-01T08:16:32Z</time>
      </trkpt>
      <trkpt lat="49.08613" lon="3.53373">
        <ele>60.8</ele>
        <time>2020-07-01T08:16:33Z</time>
      </trkpt>
      <trkpt lat="49.0861" lon="3.53368">
        <ele>60.8</ele>
        <time>2020-07-01T08:16:34Z</time>
      </trkpt>
      <trkpt lat="49.08607" lon="3.53362">
        <ele>60.8</ele>
        <time>2020-07-01T08:16:35Z</time>
      </trkpt>
      <trkpt lat="49.08604" lon="3.53357">
        <ele>60.7</ele>
        <time>2020-07-01T08:16:36Z</time>
      </trkpt>
      <trkpt lat="49.08601" lon="3.53352">
        <ele>60.7</ele>
        <time>2020-07-01T08:16:37Z</time>
      </trkpt>
      <trkpt lat="49.08597" lon="3.53347">
        <ele>60.7</ele>
        <time>2020-07-01T08:16:38Z</time>
      </trkpt>
      <trkpt lat="49.08594" lon="3.53342">
        <ele>60.8</ele>
        <time>2020-07-01T08:16:39Z</time>
      </trkpt>
      <trkpt lat="49.08589" lon="3.53338">
        <ele>60.8</ele>
        <time>2020-07-01T08:16:40Z</time>
      </trkpt>
      <trkpt lat="49.08585" lon="3.53333">
        <ele>60.9</ele>
        <time>2020-07-01T08:16:41Z</time>
      </trkpt>
      <trkpt lat="49.08581" lon="3.53328">
        <ele>60.9</ele>
        <time>2020-07-01T08:16:42Z</time>
      </trkpt>
      <trkpt lat="49.08577" lon="3.53323">
        <ele>61</ele>
        <time>2020-07-01T08:16:43Z</time>
      </trkpt>
      <trkpt lat="49.08574" lon="3.53318">
        <ele>61</ele>
        <time>2020-07-01T08:16:44Z</time>
      </trkpt>
      <trkpt lat="49.08571" lon="3.53313">
        <ele>61.1</ele>
        <time>2020-07-01T08:16:45Z</time>
      </trkpt>
      <trkpt lat="49.08568" lon="3.53307">
        <ele>61.2</ele>
        <time>2020-07-01T08:16:46Z</time>
      </trkpt>
      <trkpt lat="49.08565" lon="3.53302">
        <ele>61.2</ele>
        <time>2020-07-01T08:16:47Z</time>
      </trkpt>
      <trkpt lat="49.08563" lon="3.53296">
        <ele>61.3</ele>
        <time>2020-07-01T08:16:48Z</time>
      </trkpt>
      <trkpt lat="49.0856" lon="3.53291">
        <ele>61.4</ele>
        <time>2020-07-01T08:16:49Z</time>
      </trkpt>
      <trkpt lat="49.08557" lon="3.53286">
        <ele>61.5</ele>
        <time>2020-07-01T08:16:50Z</time>
      </trkpt>
      <trkpt lat="49.08555" lon="3.53281">
        <ele>61.6</ele>
        <time>2020-07-01T08:16:51Z</time>
      </trkpt>
      <trkpt lat="49.08553" lon="3.53276">
        <ele>61.8</ele>
        <time>2020-07-01T08:16:52Z</time>
      </trkpt>
      <trkpt lat="49.08551" lon="3.5327">
        <ele>61.9</ele>
        <time>2020-07-01T08:16:53Z</time>
      </trkpt>
      <trkpt lat="49.0855" lon="3.53264">
        <ele>62.1</ele>
        <time>2020-07-01T08:16:54Z</time>
      </trkpt>
      <trkpt lat="49.08549" lon="3.53258">
        <ele>62.3</ele>
        <time>2020-07-01T08:16:55Z</time>
      </trkpt>
      <trkpt lat="49.08545" lon="3.53253">
        <ele>62.4</ele>
        <time>2020-07-01T08:16:56Z</time>
      </trkpt>
      <trkpt lat="49.08545" lon="3.53247">
        <ele>62.6</ele>
        <time>2020-07-01T08:16:57Z</time>
      </trkpt>
      <trkpt lat="49.08543" lon="3.53241">
        <ele>62.8</ele>
        <time>2020-07-01T08:16:58Z</time>
      </trkpt>
      <trkpt lat="49.08541" lon="3.53236">
        <ele>63</ele>
        <time>2020-07-01T08:16:59Z</time>
      </trkpt>
      <trkpt lat="49.08539" lon="3.53231">
        <ele>63.2</ele>
        <time>2020-07-01T08:17:00Z</time>
      </trkpt>
      <trkpt lat="49.08538" lon="3.53226">
        <ele>63.4</ele>
        <time>2020-07-01T08:17:01Z</time>
      </trkpt>
      <trkpt lat="49.08536" lon="3.53221">
        <ele>63.6</ele>
        <time>2020-07-01T08:17:02Z</time>
      </trkpt>
      <trkpt lat="49.08536" lon="3.53216">
        <ele>63.8</ele>
        <time>2020-07-01T08:17:03Z</time>
      </trkpt>
      <trkpt lat="49.08535" lon="3.53211">
        <ele>64</ele>
        <time>2020-07-01T08:17:04Z</time>
      </trkpt>
      <trkpt lat="49.08534" lon="3.53207">
        <ele>64.2</ele>
        <time>2020-07-01T08:17:05Z</time>
      </trkpt>
      <trkpt lat="49.08533" lon="3.53203">
        <ele>64.3</ele>
        <time>2020-07-01T08:17:06Z</time>
      </trkpt>
      <trkpt lat="49.08531" lon="3.532">
        <ele>64.5</ele>
        <time>2020-07-01T08:17:07Z</time>
      </trkpt>
      <trkpt lat="49.0853" lon="3.53195">
        <ele>64.7</ele>
        <time>2020-07-01T08:17:08Z</time>
      </trkpt>
      <trkpt lat="49.08529" lon="3.53191">
        <ele>64.9</ele>
        <time>2020-07-01T08:17:09Z</time>
      </trkpt>
      <trkpt lat="49.08528" lon="3.53187">
        <ele>65.1</ele>
        <time>2020-07-01T08:17:10Z</time>
      </trkpt>
      <trkpt lat="49.08527" lon="3.53182">
        <ele>65.3</ele>
        <time>2020-07-01T08:17:11Z</time>
      </trkpt>
      <trkpt lat="49.08525" lon="3.53179">
        <ele>65.4</ele>
        <time>2020-07-01T08:17:12Z</time>
      </trkpt>
      <trkpt lat="49.08525" lon="3.53173">
        <ele>65.7</ele>
        <time>2020-07-01T08:17:13Z</time>
      </trkpt>
      <trkpt lat="49.08525" lon="3.53172">
        <ele>65.7</ele>
        <time>2020-07-01T08:17:14Z</time>
      </trkpt>
      <trkpt lat="49.08524" lon="3.53169">
        <ele>65.8</ele>
        <time>2020-07-01T08:17:15Z</time>
      </trkpt>
      <trkpt lat="49.08523" lon="3.53167">
        <ele>65.9</ele>
        <time>2020-07-01T08:17:16Z</time>
      </trkpt>
      <trkpt lat="49.08523" lon="3.53162">
        <ele>66</ele>
        <time>2020-07-01T08:17:17Z</time>
      </trkpt>
      <trkpt lat="49.08523" lon="3.5316">
        <ele>66.1</ele>
        <time>2020-07-01T08:17:18Z</time>
      </trkpt>
      <trkpt lat="49.08521" lon="3.53156">
        <ele>66.2</ele>
        <time>2020-07-01T08:17:19Z</time>
      </trkpt>
      <trkpt lat="49.0852" lon="3.53155">
        <ele>66.3</ele>
        <time>2020-07-01T08:17:20Z</time>
      </trkpt>
      <trkpt lat="49.08517" lon="3.53152">
        <ele>66.3</ele>
        <time>2020-07-01T08:17:21Z</time>
      </trkpt>
      <trkpt lat="49.08514" lon="3.5315">
        <ele>66.6</ele>
        <time>2020-07-01T08:17:22Z</time>
      </trkpt>
      <trkpt lat="49.08511" lon="3.53147">
        <ele>66.7</ele>
        <time>2020-07-01T08:17:23Z</time>
      </trkpt>
      <trkpt lat="49.08507" lon="3.53145">
        <ele>66.8</ele>
        <time>2020-07-01T08:17:24Z</time>
      </trkpt>
      <trkpt lat="49.08503" lon="3.53142">
        <ele>66.9</ele>
        <time>2020-07-01T08:17:25Z</time>
      </trkpt>
      <trkpt lat="49.08499" lon="3.53142">
        <ele>67</ele>
        <time>2020-07-01T08:17:26Z</time>
      </trkpt>
      <trkpt lat="49.08495" lon="3.5314">
        <ele>67</ele>
        <time>2020-07-01T08:17:27Z</time>
      </trkpt>
      <trkpt lat="49.08492" lon="3.53138">
        <ele>67.1</ele>
        <time>2020-07-01T08:17:28Z</time>
      </trkpt>
      <trkpt lat="49.08489" lon="3.53135">
        <ele>67.1</ele>
        <time>2020-07-01T08:17:29Z</time>
      </trkpt>
      <trkpt lat="49.08486" lon="3.53132">
        <ele>67.1</ele>
        <time>2020-07-01T08:17:30Z</time>
      </trkpt>
      <trkpt lat="49.08484" lon="3.5313">
        <ele>67.1</ele>
        <time>2020-07-01T08:17:31Z</time>
      </trkpt>
      <trkpt lat="49.08481" lon="3.53126">
        <ele>67.1</ele>
        <time>2020-07-01T08:17:32Z</time>
      </trkpt>
      <trkpt lat="49.08479" lon="3.53123">
        <ele>67.1</ele>
        <time>2020-07-01T08:17:33Z</time>
      </trkpt>
      <trkpt lat="49.08478" lon="3.53119">
        <ele>67.2</ele>
        <time>2020-07-01T08:17:34Z</time>
      </trkpt>
      <trkpt lat="49.08477" lon="3.53114">
        <ele>67.4</ele>
        <time>2020-07-01T08:17:35Z</time>
      </trkpt>
      <trkpt lat="49.08478" lon="3.5311">
        <ele>67.5</ele>
        <time>2020-07-01T08:17:36Z</time>
      </trkpt>
      <trkpt lat="49.08478" lon="3.53105">
        <ele>67.6</ele>
        <time>2020-07-01T08:17:37Z</time>
      </trkpt>
      <trkpt lat="49.08479" lon="3.531">
        <ele>67.7</ele>
        <time>2020-07-01T08:17:38Z</time>
      </trkpt>
      <trkpt lat="49.0848" lon="3.53095">
        <ele>67.8</ele>
        <time>2020-07-01T08:17:39Z</time>
      </trkpt>
      <trkpt lat="49.0848" lon="3.5309">
        <ele>67.9</ele>
        <time>2020-07-01T08:17:40Z</time>
      </trkpt>
      <trkpt lat="49.0848" lon="3.53085">
        <ele>68</ele>
        <time>2020-07-01T08:17:41Z</time>
      </trkpt>
      <trkpt lat="49.0848" lon="3.5308">
        <ele>68.1</ele>
        <time>2020-07-01T08:17:42Z</time>
      </trkpt>
      <trkpt lat="49.0848" lon="3.53075">
        <ele>68.2</ele>
        <time>2020-07-01T08:17:43Z</time>
      </trkpt>
      <trkpt lat="49.0848" lon="3.5307">
        <ele>68.3</ele>
        <time>2020-07-01T08:17:44Z</time>
      </trkpt>
      <trkpt lat="49.08479" lon="3.53065">
        <ele>68.4</ele>
        <time>2020-07-01T08:17:45Z</time>
      </trkpt>
      <trkpt lat="49.08477" lon="3.53061">
        <ele>68.5</ele>
        <time>2020-07-01T08:17:46Z</time>
      </trkpt>
      <trkpt lat="49.08474" lon="3.53057">
        <ele>68.6</ele>
        <time>2020-07-01T08:17:47Z</time>
      </trkpt>
      <trkpt lat="49.08472" lon="3.53053">
        <ele>68.7</ele>
        <time>2020-07-01T08:17:48Z</time>
      </trkpt>
      <trkpt lat="49.0847" lon="3.5305">
        <ele>68.8</ele>
        <time>2020-07-01T08:17:49Z</time>
      </trkpt>
      <trkpt lat="49.08467" lon="3.53046">
        <ele>68.9</ele>
        <time>2020-07-01T08:17:50Z</time>
      </trkpt>
      <trkpt lat="49.08464" lon="3.53042">
        <ele>69.1</ele>
        <time>2020-07-01T08:17:51Z</time>
      </trkpt>
      <trkpt lat="49.0846" lon="3.5304">
        <ele>69.2</ele>
        <time>2020-07-01T08:17:52Z</time>
      </trkpt>
      <trkpt lat="49.08457" lon="3.53036">
        <ele>69.3</ele>
        <time>2020-07-01T08:17:53Z</time>
      </trkpt>
      <trkpt lat="49.08454" lon="3.53033">
        <ele>69.4</ele>
        <time>2020-07-01T08:17:54Z</time>
      </trkpt>
      <trkpt lat="49.0845" lon="3.53031">
        <ele>69.5</ele>
        <time>2020-07-01T08:17:55Z</time>
      </trkpt>
      <trkpt lat="49.08447" lon="3.53027">
        <ele>69.7</ele>
        <time>2020-07-01T08:17:56Z</time>
      </trkpt>
      <trkpt lat="49.08444" lon="3.53024">
        <ele>69.8</ele>
        <time>2020-07-01T08:17:57Z</time>
      </trkpt>
      <trkpt lat="49.08442" lon="3.53022">
        <ele>69.9</ele>
        <time>2020-07-01T08:17:58Z</time>
      </trkpt>
      <trkpt lat="49.0844" lon="3.53018">
        <ele>69.9</ele>
        <time>2020-07-01T08:17:59Z</time>
      </trkpt>
      <trkpt lat="49.08438" lon="3.53015">
        <ele>70</ele>
        <time>2020-07-01T08:18:00Z</time>
      </trkpt>
      <trkpt lat="49.08438" lon="3.53014">
        <ele>70.1</ele>
        <time>2020-07-01T08:18:01Z</time>
      </trkpt>
      <trkpt lat="49.08437" lon="3.53014">
        <ele>70.1</ele>
        <time>2020-07-01T08:18:02Z</time>
      </trkpt>
      <trkpt lat="49.08437" lon="3.53014">
        <ele>70.1</ele>
        <time>2020-07-01T08:18:03Z</time>
      </trkpt>
      <trkpt lat="49.08437" lon="3.53014">
        <ele>70.1</ele>
        <time>2020-07-01T08:18:04Z</time>
      </trkpt>
      <trkpt lat="49.08437" lon="3.53013">
        <ele>70.1</ele>
        <time>2020-07-01T08:18:05Z</time>
      </trkpt>
      <trkpt lat="49.08437" lon="3.53013">
        <ele>70.1</ele>
        <time>2020-07-01T08:18:06Z</time>
      </trkpt>
      <trkpt lat="49.08436" lon="3.53013">
        <ele>70.2</ele>
        <time>2020-07-01T08:18:07Z</time>
      </trkpt>
      <trkpt lat="49.08436" lon="3.53013">
        <ele>70.2</ele>
        <time>2020-07-01T08:18:08Z</time>
      </trkpt>
      <trkpt lat="49.08436" lon="3.53012">
        <ele>70.2</ele>
        <time>2020-07-01T08:18:09Z</time>
      </trkpt>
      <trkpt lat="49.08436" lon="3.53012">
        <ele>70.2</ele>
        <time>2020-07-01T08:18:10Z</time>
      </trkpt>
      <trkpt lat="49.08436" lon="3.53011">
        <ele>70.2</ele>
        <time>2020-07-01T08:18:11Z</time>
      </trkpt>
      <trkpt lat="49.08436" lon="3.53011">
        <ele>70.2</ele>
        <time>2020-07-01T08:18:12Z</time>
      </trkpt>
      <trkpt lat="49.08435" lon="3.53011">
        <ele>70.3</ele>
        <time>2020-07-01T08:18:13Z</time>
      </trkpt>
      <trkpt lat="49.08435" lon="3.53011">
        <ele>70.3</ele>
        <time>2020-07-01T08:18:14Z</time>
      </trkpt>
      <trkpt lat="49.08436" lon="3.53011">
        <ele>70.3</ele>
        <time>2020-07-01T08:18:15Z</time>
      </trkpt>
      <trkpt lat="49.08436" lon="3.5301">
        <ele>70.3</ele>
        <time>2020-07-01T08:18:16Z</time>
      </trkpt>
      <trkpt lat="49.08436" lon="3.5301">
        <ele>70.3</ele>
        <time>2020-07-01T08:18:17Z</time>
      </trkpt>
      <trkpt lat="49.08436" lon="3.5301">
        <ele>70.3</ele>
        <time>2020-07-01T08:18:18Z</time>
      </trkpt>
      <trkpt lat="49.08437" lon="3.53009">
        <ele>70.3</ele>
        <time>2020-07-01T08:18:19Z</time>
      </trkpt>
      <trkpt lat="49.08437" lon="3.53009">
        <ele>70.3</ele>
        <time>2020-07-01T08:18:20Z</time>
      </trkpt>
      <trkpt lat="49.08437" lon="3.53009">
        <ele>70.3</ele>
        <time>2020-07-01T08:18:21Z</time>
      </trkpt>
      <trkpt lat="49.08437" lon="3.53008">
        <ele>70.4</ele>
        <time>2020-07-01T08:18:22Z</time>
      </trkpt>
      <trkpt lat="49.08437" lon="3.53008">
        <ele>70.4</ele>
        <time>2020-07-01T08:18:23Z</time>
      </trkpt>
      <trkpt lat="49.08438" lon="3.53007">
        <ele>70.4</ele>
        <time>2020-07-01T08:18:24Z</time>
      </trkpt>
      <trkpt lat="49.08438" lon="3.53007">
        <ele>70.4</ele>
        <time>2020-07-01T08:18:25Z</time>
      </trkpt>
      <trkpt lat="49.08438" lon="3.53007">
        <ele>70.4</ele>
        <time>2020-07-01T08:18:26Z</time>
      </trkpt>
      <trkpt lat="49.08437" lon="3.53006">
        <ele>70.4</ele>
        <time>2020-07-01T08:18:27Z</time>
      </trkpt>
      <trkpt lat="49.08436" lon="3.53005">
        <ele>70.5</ele>
        <time>2020-07-01T08:18:28Z</time>
      </trkpt>
      <trkpt lat="49.08436" lon="3.53004">
        <ele>70.5</ele>
        <time>2020-07-01T08:18:29Z</time>
      </trkpt>
      <trkpt lat="49.08435" lon="3.53003">
        <ele>70.6</ele>
        <time>2020-07-01T08:18:30Z</time>
      </trkpt>
      <trkpt lat="49.08434" lon="3.53002">
        <ele>70.6</ele>
        <time>2020-07-01T08:18:31Z</time>
      </trkpt>
      <trkpt lat="49.08433" lon="3.53001">
        <ele>70.6</ele>
        <time>2020-07-01T08:18:32Z</time>
      </trkpt>
      <trkpt lat="49.08432" lon="3.53">
        <ele>70.7</ele>
        <time>2020-07-01T08:18:33Z</time>
      </trkpt>
      <trkpt lat="49.08432" lon="3.52999">
        <ele>70.7</ele>
        <time>2020-07-01T08:18:34Z</time>
      </trkpt>
      <trkpt lat="49.08431" lon="3.52999">
        <ele>70.7</ele>
        <time>2020-07-01T08:18:35Z</time>
      </trkpt>
      <trkpt lat="49.0843" lon="3.52998">
        <ele>70.8</ele>
        <time>2020-07-01T08:18:36Z</time>
      </trkpt>
      <trkpt lat="49.08429" lon="3.52997">
        <ele>70.8</ele>
        <time>2020-07-01T08:18:37Z</time>
      </trkpt>
      <trkpt lat="49.08428" lon="3.52996">
        <ele>70.9</ele>
        <time>2020-07-01T08:18:38Z</time>
      </trkpt>
      <trkpt lat="49.08428" lon="3.52995">
        <ele>70.9</ele>
        <time>2020-07-01T08:18:39Z</time>
      </trkpt>
      <trkpt lat="49.08427" lon="3.52994">
        <ele>70.9</ele>
        <time>2020-07-01T08:19:34Z</time>
      </trkpt>
      <trkpt lat="49.08426" lon="3.52993">
        <ele>71</ele>
        <time>2020-07-01T08:19:35Z</time>
      </trkpt>
      <trkpt lat="49.08425" lon="3.52992">
        <ele>71</ele>
        <time>2020-07-01T08:19:36Z</time>
      </trkpt>
      <trkpt lat="49.08423" lon="3.52989">
        <ele>71.1</ele>
        <time>2020-07-01T08:19:37Z</time>
      </trkpt>
      <trkpt lat="49.08421" lon="3.52987">
        <ele>71.2</ele>
        <time>2020-07-01T08:19:38Z</time>
      </trkpt>
      <trkpt lat="49.08418" lon="3.52982">
        <ele>71.3</ele>
        <time>2020-07-01T08:19:39Z</time>
      </trkpt>
      <trkpt lat="49.08417" lon="3.52981">
        <ele>71.4</ele>
        <time>2020-07-01T08:19:40Z</time>
      </trkpt>
      <trkpt lat="49.08415" lon="3.52977">
        <ele>71.5</ele>
        <time>2020-07-01T08:19:41Z</time>
      </trkpt>
      <trkpt lat="49.08415" lon="3.52975">
        <ele>71.5</ele>
        <time>2020-07-01T08:19:42Z</time>
      </trkpt>
      <trkpt lat="49.08414" lon="3.52973">
        <ele>71.6</ele>
        <time>2020-07-01T08:19:43Z</time>
      </trkpt>
      <trkpt lat="49.08413" lon="3.52971">
        <ele>71.6</ele>
        <time>2020-07-01T08:19:44Z</time>
      </trkpt>
      <trkpt lat="49.08411" lon="3.52968">
        <ele>71.7</ele>
        <time>2020-07-01T08:19:45Z</time>
      </trkpt>
      <trkpt lat="49.0841" lon="3.52967">
        <ele>71.8</ele>
        <time>2020-07-01T08:19:46Z</time>
      </trkpt>
      <trkpt lat="49.08407" lon="3.52964">
        <ele>71.9</ele>
        <time>2020-07-01T08:19:47Z</time>
      </trkpt>
      <trkpt lat="49.08405" lon="3.52964">
        <ele>71.9</ele>
        <time>2020-07-01T08:19:48Z</time>
      </trkpt>
      <trkpt lat="49.08403" lon="3.5296">
        <ele>72.1</ele>
        <time>2020-07-01T08:19:49Z</time>
      </trkpt>
      <trkpt lat="49.08402" lon="3.52959">
        <ele>72.1</ele>
        <time>2020-07-01T08:19:50Z</time>
      </trkpt>
      <trkpt lat="49.08399" lon="3.52955">
        <ele>72.3</ele>
        <time>2020-07-01T08:19:51Z</time>
      </trkpt>
      <trkpt lat="49.08399" lon="3.52954">
        <ele>72.3</ele>
        <time>2020-07-01T08:19:52Z</time>
      </trkpt>
      <trkpt lat="49.08396" lon="3.5295">
        <ele>72.5</ele>
        <time>2020-07-01T08:19:53Z</time>
      </trkpt>
      <trkpt lat="49.08395" lon="3.52949">
        <ele>72.5</ele>
        <time>2020-07-01T08:19:54Z</time>
      </trkpt>
      <trkpt lat="49.08392" lon="3.52948">
        <ele>72.7</ele>
        <time>2020-07-01T08:19:55Z</time>
      </trkpt>
      <trkpt lat="49.0839" lon="3.52944">
        <ele>72.8</ele>
        <time>2020-07-01T08:19:56Z</time>
      </trkpt>
      <trkpt lat="49.0839" lon="3.52942">
        <ele>72.9</ele>
        <time>2020-07-01T08:19:57Z</time>
      </trkpt>
      <trkpt lat="49.08387" lon="3.52937">
        <ele>73.1</ele>
        <time>2020-07-01T08:19:58Z</time>
      </trkpt>
      <trkpt lat="49.08387" lon="3.52936">
        <ele>73.2</ele>
        <time>2020-07-01T08:19:59Z</time>
      </trkpt>
      <trkpt lat="49.08385" lon="3.52932">
        <ele>73.3</ele>
        <time>2020-07-01T08:20:00Z</time>
      </trkpt>
      <trkpt lat="49.08384" lon="3.52927">
        <ele>73.5</ele>
        <time>2020-07-01T08:20:01Z</time>
      </trkpt>
      <trkpt lat="49.08384" lon="3.52925">
        <ele>73.6</ele>
        <time>2020-07-01T08:20:02Z</time>
      </trkpt>
      <trkpt lat="49.08382" lon="3.52921">
        <ele>73.8</ele>
        <time>2020-07-01T08:20:03Z</time>
      </trkpt>
      <trkpt lat="49.08382" lon="3.52919">
        <ele>73.9</ele>
        <time>2020-07-01T08:20:04Z</time>
      </trkpt>
      <trkpt lat="49.0838" lon="3.52915">
        <ele>74.1</ele>
        <time>2020-07-01T08:20:05Z</time>
      </trkpt>
      <trkpt lat="49.0838" lon="3.52913">
        <ele>74.2</ele>
        <time>2020-07-01T08:20:06Z</time>
      </trkpt>
      <trkpt lat="49.08376" lon="3.52911">
        <ele>74.4</ele>
        <time>2020-07-01T08:20:07Z</time>
      </trkpt>
      <trkpt lat="49.08375" lon="3.5291">
        <ele>74.5</ele>
        <time>2020-07-01T08:20:08Z</time>
      </trkpt>
      <trkpt lat="49.08373" lon="3.52908">
        <ele>74.7</ele>
        <time>2020-07-01T08:20:09Z</time>
      </trkpt>
      <trkpt lat="49.08369" lon="3.52906">
        <ele>74.6</ele>
        <time>2020-07-01T08:20:10Z</time>
      </trkpt>
      <trkpt lat="49.08366" lon="3.52903">
        <ele>74.5</ele>
        <time>2020-07-01T08:20:11Z</time>
      </trkpt>
      <trkpt lat="49.08363" lon="3.529">
        <ele>74.4</ele>
        <time>2020-07-01T08:20:12Z</time>
      </trkpt>
      <trkpt lat="49.08359" lon="3.52897">
        <ele>74.4</ele>
        <time>2020-07-01T08:20:13Z</time>
      </trkpt>
      <trkpt lat="49.08355" lon="3.52895">
        <ele>74.3</ele>
        <time>2020-07-01T08:20:14Z</time>
      </trkpt>
      <trkpt lat="49.08351" lon="3.52893">
        <ele>74.2</ele>
        <time>2020-07-01T08:20:15Z</time>
      </trkpt>
      <trkpt lat="49.08347" lon="3.5289">
        <ele>74.2</ele>
        <time>2020-07-01T08:20:16Z</time>
      </trkpt>
      <trkpt lat="49.08343" lon="3.52888">
        <ele>74.2</ele>
        <time>2020-07-01T08:20:17Z</time>
      </trkpt>
      <trkpt lat="49.08339" lon="3.52887">
        <ele>74.1</ele>
        <time>2020-07-01T08:20:18Z</time>
      </trkpt>
      <trkpt lat="49.08336" lon="3.52885">
        <ele>74.1</ele>
        <time>2020-07-01T08:20:19Z</time>
      </trkpt>
      <trkpt lat="49.08332" lon="3.52882">
        <ele>74.1</ele>
        <time>2020-07-01T08:20:20Z</time>
      </trkpt>
      <trkpt lat="49.08327" lon="3.52878">
        <ele>74</ele>
        <time>2020-07-01T08:20:21Z</time>
      </trkpt>
      <trkpt lat="49.08323" lon="3.52875">
        <ele>74</ele>
        <time>2020-07-01T08:20:22Z</time>
      </trkpt>
      <trkpt lat="49.08319" lon="3.52873">
        <ele>74</ele>
        <time>2020-07-01T08:20:23Z</time>
      </trkpt>
      <trkpt lat="49.08314" lon="3.5287">
        <ele>74</ele>
        <time>2020-07-01T08:20:24Z</time>
      </trkpt>
      <trkpt lat="49.0831" lon="3.52867">
        <ele>74</ele>
        <time>2020-07-01T08:20:25Z</time>
      </trkpt>
      <trkpt lat="49.08307" lon="3.52864">
        <ele>73.9</ele>
        <time>2020-07-01T08:20:26Z</time>
      </trkpt>
      <trkpt lat="49.08304" lon="3.52861">
        <ele>73.9</ele>
        <time>2020-07-01T08:20:27Z</time>
      </trkpt>
      <trkpt lat="49.083" lon="3.52858">
        <ele>73.9</ele>
        <time>2020-07-01T08:20:28Z</time>
      </trkpt>
      <trkpt lat="49.08295" lon="3.52855">
        <ele>73.8</ele>
        <time>2020-07-01T08:20:29Z</time>
      </trkpt>
      <trkpt lat="49.08291" lon="3.52853">
        <ele>73.8</ele>
        <time>2020-07-01T08:20:30Z</time>
      </trkpt>
      <trkpt lat="49.08286" lon="3.52849">
        <ele>73.7</ele>
        <time>2020-07-01T08:20:31Z</time>
      </trkpt>
      <trkpt lat="49.08283" lon="3.52847">
        <ele>73.7</ele>
        <time>2020-07-01T08:20:32Z</time>
      </trkpt>
      <trkpt lat="49.08278" lon="3.52844">
        <ele>73.7</ele>
        <time>2020-07-01T08:20:33Z</time>
      </trkpt>
      <trkpt lat="49.08274" lon="3.52841">
        <ele>73.6</ele>
        <time>2020-07-01T08:20:34Z</time>
      </trkpt>
      <trkpt lat="49.08269" lon="3.52838">
        <ele>73.6</ele>
        <time>2020-07-01T08:20:35Z</time>
      </trkpt>
      <trkpt lat="49.08265" lon="3.52835">
        <ele>73.5</ele>
        <time>2020-07-01T08:20:36Z</time>
      </trkpt>
      <trkpt lat="49.0826" lon="3.52832">
        <ele>73.5</ele>
        <time>2020-07-01T08:20:37Z</time>
      </trkpt>
      <trkpt lat="49.08256" lon="3.52828">
        <ele>73.4</ele>
        <time>2020-07-01T08:20:38Z</time>
      </trkpt>
      <trkpt lat="49.08252" lon="3.52826">
        <ele>73.4</ele>
        <time>2020-07-01T08:20:39Z</time>
      </trkpt>
      <trkpt lat="49.08248" lon="3.52824">
        <ele>73.3</ele>
        <time>2020-07-01T08:20:40Z</time>
      </trkpt>
      <trkpt lat="49.08242" lon="3.5282">
        <ele>73.2</ele>
        <time>2020-07-01T08:20:41Z</time>
      </trkpt>
      <trkpt lat="49.08237" lon="3.52817">
        <ele>73.2</ele>
        <time>2020-07-01T08:20:42Z</time>
      </trkpt>
      <trkpt lat="49.08233" lon="3.52814">
        <ele>73.1</ele>
        <time>2020-07-01T08:20:43Z</time>
      </trkpt>
      <trkpt lat="49.08229" lon="3.52811">
        <ele>73</ele>
        <time>2020-07-01T08:20:44Z</time>
      </trkpt>
      <trkpt lat="49.08224" lon="3.52808">
        <ele>72.9</ele>
        <time>2020-07-01T08:20:45Z</time>
      </trkpt>
      <trkpt lat="49.0822" lon="3.52805">
        <ele>72.9</ele>
        <time>2020-07-01T08:20:46Z</time>
      </trkpt>
      <trkpt lat="49.08215" lon="3.52802">
        <ele>72.8</ele>
        <time>2020-07-01T08:20:47Z</time>
      </trkpt>
      <trkpt lat="49.08209" lon="3.52798">
        <ele>72.7</ele>
        <time>2020-07-01T08:20:48Z</time>
      </trkpt>
      <trkpt lat="49.08203" lon="3.52795">
        <ele>72.6</ele>
        <time>2020-07-01T08:20:49Z</time>
      </trkpt>
      <trkpt lat="49.08198" lon="3.52791">
        <ele>72.6</ele>
        <time>2020-07-01T08:20:50Z</time>
      </trkpt>
      <trkpt lat="49.08192" lon="3.52788">
        <ele>72.6</ele>
        <time>2020-07-01T08:20:51Z</time>
      </trkpt>
      <trkpt lat="49.08186" lon="3.52783">
        <ele>72.6</ele>
        <time>2020-07-01T08:20:52Z</time>
      </trkpt>
      <trkpt lat="49.08181" lon="3.52779">
        <ele>72.7</ele>
        <time>2020-07-01T08:20:53Z</time>
      </trkpt>
      <trkpt lat="49.08176" lon="3.52776">
        <ele>72.8</ele>
        <time>2020-07-01T08:20:54Z</time>
      </trkpt>
      <trkpt lat="49.08171" lon="3.52772">
        <ele>72.9</ele>
        <time>2020-07-01T08:20:55Z</time>
      </trkpt>
      <trkpt lat="49.08166" lon="3.52768">
        <ele>73.1</ele>
        <time>2020-07-01T08:20:56Z</time>
      </trkpt>
      <trkpt lat="49.08161" lon="3.52765">
        <ele>73.3</ele>
        <time>2020-07-01T08:20:57Z</time>
      </trkpt>
      <trkpt lat="49.08157" lon="3.52763">
        <ele>73.5</ele>
        <time>2020-07-01T08:20:58Z</time>
      </trkpt>
      <trkpt lat="49.08152" lon="3.5276">
        <ele>73.7</ele>
        <time>2020-07-01T08:20:59Z</time>
      </trkpt>
      <trkpt lat="49.08147" lon="3.52757">
        <ele>73.8</ele>
        <time>2020-07-01T08:21:00Z</time>
      </trkpt>
      <trkpt lat="49.08143" lon="3.52754">
        <ele>74</ele>
        <time>2020-07-01T08:21:01Z</time>
      </trkpt>
      <trkpt lat="49.0814" lon="3.52752">
        <ele>74.1</ele>
        <time>2020-07-01T08:21:02Z</time>
      </trkpt>
      <trkpt lat="49.08135" lon="3.52749">
        <ele>74.3</ele>
        <time>2020-07-01T08:21:03Z</time>
      </trkpt>
      <trkpt lat="49.08132" lon="3.52746">
        <ele>74.5</ele>
        <time>2020-07-01T08:21:04Z</time>
      </trkpt>
      <trkpt lat="49.08128" lon="3.52743">
        <ele>74.8</ele>
        <time>2020-07-01T08:21:05Z</time>
      </trkpt>
      <trkpt lat="49.08124" lon="3.5274">
        <ele>75</ele>
        <time>2020-07-01T08:21:06Z</time>
      </trkpt>
      <trkpt lat="49.08121" lon="3.52738">
        <ele>75.2</ele>
        <time>2020-07-01T08:21:07Z</time>
      </trkpt>
      <trkpt lat="49.08118" lon="3.52736">
        <ele>75.4</ele>
        <time>2020-07-01T08:21:08Z</time>
      </trkpt>
      <trkpt lat="49.08114" lon="3.52733">
        <ele>75.6</ele>
        <time>2020-07-01T08:21:09Z</time>
      </trkpt>
      <trkpt lat="49.08111" lon="3.52731">
        <ele>75.9</ele>
        <time>2020-07-01T08:21:10Z</time>
      </trkpt>
      <trkpt lat="49.08108" lon="3.52729">
        <ele>76</ele>
        <time>2020-07-01T08:21:11Z</time>
      </trkpt>
      <trkpt lat="49.08103" lon="3.52726">
        <ele>76.3</ele>
        <time>2020-07-01T08:21:12Z</time>
      </trkpt>
      <trkpt lat="49.08099" lon="3.52723">
        <ele>76.6</ele>
        <time>2020-07-01T08:21:13Z</time>
      </trkpt>
      <trkpt lat="49.08095" lon="3.52721">
        <ele>76.8</ele>
        <time>2020-07-01T08:21:14Z</time>
      </trkpt>
      <trkpt lat="49.0809" lon="3.52718">
        <ele>77</ele>
        <time>2020-07-01T08:21:15Z</time>
      </trkpt>
      <trkpt lat="49.08087" lon="3.52716">
        <ele>77.2</ele>
        <time>2020-07-01T08:21:16Z</time>
      </trkpt>
      <trkpt lat="49.08084" lon="3.52714">
        <ele>77.4</ele>
        <time>2020-07-01T08:21:17Z</time>
      </trkpt>
      <trkpt lat="49.08081" lon="3.52712">
        <ele>77.5</ele>
        <time>2020-07-01T08:21:18Z</time>
      </trkpt>
      <trkpt lat="49.08078" lon="3.5271">
        <ele>77.7</ele>
        <time>2020-07-01T08:21:19Z</time>
      </trkpt>
      <trkpt lat="49.08075" lon="3.52709">
        <ele>77.8</ele>
        <time>2020-07-01T08:21:20Z</time>
      </trkpt>
      <trkpt lat="49.08072" lon="3.52707">
        <ele>78</ele>
        <time>2020-07-01T08:21:21Z</time>
      </trkpt>
      <trkpt lat="49.08068" lon="3.52705">
        <ele>78.1</ele>
        <time>2020-07-01T08:21:22Z</time>
      </trkpt>
      <trkpt lat="49.08066" lon="3.52703">
        <ele>78.2</ele>
        <time>2020-07-01T08:21:23Z</time>
      </trkpt>
      <trkpt lat="49.08063" lon="3.52701">
        <ele>78.3</ele>
        <time>2020-07-01T08:21:24Z</time>
      </trkpt>
      <trkpt lat="49.0806" lon="3.52699">
        <ele>78.5</ele>
        <time>2020-07-01T08:21:25Z</time>
      </trkpt>
      <trkpt lat="49.08057" lon="3.52697">
        <ele>78.6</ele>
        <time>2020-07-01T08:21:26Z</time>
      </trkpt>
      <trkpt lat="49.08053" lon="3.52695">
        <ele>78.7</ele>
        <time>2020-07-01T08:21:27Z</time>
      </trkpt>
      <trkpt lat="49.08049" lon="3.52691">
        <ele>78.9</ele>
        <time>2020-07-01T08:21:28Z</time>
      </trkpt>
      <trkpt lat="49.08046" lon="3.52689">
        <ele>79</ele>
        <time>2020-07-01T08:21:29Z</time>
      </trkpt>
      <trkpt lat="49.08041" lon="3.52685">
        <ele>79.1</ele>
        <time>2020-07-01T08:21:30Z</time>
      </trkpt>
      <trkpt lat="49.08037" lon="3.52683">
        <ele>79.3</ele>
        <time>2020-07-01T08:21:31Z</time>
      </trkpt>
      <trkpt lat="49.08033" lon="3.52681">
        <ele>79.3</ele>
        <time>2020-07-01T08:21:32Z</time>
      </trkpt>
      <trkpt lat="49.08029" lon="3.52678">
        <ele>79.4</ele>
        <time>2020-07-01T08:21:33Z</time>
      </trkpt>
      <trkpt lat="49.08025" lon="3.52675">
        <ele>79.5</ele>
        <time>2020-07-01T08:21:34Z</time>
      </trkpt>
      <trkpt lat="49.0802" lon="3.52672">
        <ele>79.5</ele>
        <time>2020-07-01T08:21:35Z</time>
      </trkpt>
      <trkpt lat="49.08018" lon="3.5267">
        <ele>79.5</ele>
        <time>2020-07-01T08:21:36Z</time>
      </trkpt>
      <trkpt lat="49.08014" lon="3.52668">
        <ele>79.6</ele>
        <time>2020-07-01T08:21:37Z</time>
      </trkpt>
      <trkpt lat="49.0801" lon="3.52665">
        <ele>79.6</ele>
        <time>2020-07-01T08:21:38Z</time>
      </trkpt>
      <trkpt lat="49.08006" lon="3.52661">
        <ele>79.6</ele>
        <time>2020-07-01T08:21:39Z</time>
      </trkpt>
      <trkpt lat="49.08003" lon="3.52658">
        <ele>79.6</ele>
        <time>2020-07-01T08:21:40Z</time>
      </trkpt>
      <trkpt lat="49.08" lon="3.52656">
        <ele>79.6</ele>
        <time>2020-07-01T08:21:41Z</time>
      </trkpt>
      <trkpt lat="49.07996" lon="3.52653">
        <ele>79.6</ele>
        <time>2020-07-01T08:21:42Z</time>
      </trkpt>
      <trkpt lat="49.07993" lon="3.5265">
        <ele>79.6</ele>
        <time>2020-07-01T08:21:43Z</time>
      </trkpt>
      <trkpt lat="49.07988" lon="3.52647">
        <ele>79.6</ele>
        <time>2020-07-01T08:21:44Z</time>
      </trkpt>
      <trkpt lat="49.07984" lon="3.52644">
        <ele>79.5</ele>
        <time>2020-07-01T08:21:45Z</time>
      </trkpt>
      <trkpt lat="49.0798" lon="3.5264">
        <ele>79.4</ele>
        <time>2020-07-01T08:21:46Z</time>
      </trkpt>
      <trkpt lat="49.07975" lon="3.52636">
        <ele>79.3</ele>
        <time>2020-07-01T08:21:47Z</time>
      </trkpt>
      <trkpt lat="49.0797" lon="3.52632">
        <ele>79.2</ele>
        <time>2020-07-01T08:21:48Z</time>
      </trkpt>
      <trkpt lat="49.07965" lon="3.52627">
        <ele>79.1</ele>
        <time>2020-07-01T08:21:49Z</time>
      </trkpt>
      <trkpt lat="49.0796" lon="3.52623">
        <ele>79</ele>
        <time>2020-07-01T08:21:50Z</time>
      </trkpt>
      <trkpt lat="49.07955" lon="3.52618">
        <ele>78.8</ele>
        <time>2020-07-01T08:21:51Z</time>
      </trkpt>
      <trkpt lat="49.07951" lon="3.52613">
        <ele>78.7</ele>
        <time>2020-07-01T08:21:52Z</time>
      </trkpt>
      <trkpt lat="49.07946" lon="3.52608">
        <ele>78.6</ele>
        <time>2020-07-01T08:21:53Z</time>
      </trkpt>
      <trkpt lat="49.0794" lon="3.52603">
        <ele>78.4</ele>
        <time>2020-07-01T08:21:54Z</time>
      </trkpt>
      <trkpt lat="49.07934" lon="3.52597">
        <ele>78.3</ele>
        <time>2020-07-01T08:21:55Z</time>
      </trkpt>
      <trkpt lat="49.07928" lon="3.52592">
        <ele>78.1</ele>
        <time>2020-07-01T08:21:56Z</time>
      </trkpt>
      <trkpt lat="49.07922" lon="3.52586">
        <ele>78.1</ele>
        <time>2020-07-01T08:21:57Z</time>
      </trkpt>
      <trkpt lat="49.07917" lon="3.52581">
        <ele>78</ele>
        <time>2020-07-01T08:21:58Z</time>
      </trkpt>
      <trkpt lat="49.07912" lon="3.52576">
        <ele>78</ele>
        <time>2020-07-01T08:21:59Z</time>
      </trkpt>
      <trkpt lat="49.07907" lon="3.52571">
        <ele>78</ele>
        <time>2020-07-01T08:22:00Z</time>
      </trkpt>
      <trkpt lat="49.07902" lon="3.52566">
        <ele>77.9</ele>
        <time>2020-07-01T08:22:01Z</time>
      </trkpt>
      <trkpt lat="49.07896" lon="3.52561">
        <ele>77.9</ele>
        <time>2020-07-01T08:22:02Z</time>
      </trkpt>
      <trkpt lat="49.07892" lon="3.52556">
        <ele>77.9</ele>
        <time>2020-07-01T08:22:03Z</time>
      </trkpt>
      <trkpt lat="49.07887" lon="3.52552">
        <ele>77.9</ele>
        <time>2020-07-01T08:22:04Z</time>
      </trkpt>
      <trkpt lat="49.07882" lon="3.52547">
        <ele>77.9</ele>
        <time>2020-07-01T08:22:05Z</time>
      </trkpt>
      <trkpt lat="49.07877" lon="3.52542">
        <ele>78</ele>
        <time>2020-07-01T08:22:06Z</time>
      </trkpt>
      <trkpt lat="49.07872" lon="3.52537">
        <ele>78</ele>
        <time>2020-07-01T08:22:07Z</time>
      </trkpt>
      <trkpt lat="49.07868" lon="3.52533">
        <ele>78.1</ele>
        <time>2020-07-01T08:22:08Z</time>
      </trkpt>
      <trkpt lat="49.07863" lon="3.52529">
        <ele>78.2</ele>
        <time>2020-07-01T08:22:09Z</time>
      </trkpt>
      <trkpt lat="49.07859" lon="3.52525">
        <ele>78.3</ele>
        <time>2020-07-01T08:22:10Z</time>
      </trkpt>
      <trkpt lat="49.07855" lon="3.52521">
        <ele>78.3</ele>
        <time>2020-07-01T08:22:11Z</time>
      </trkpt>
      <trkpt lat="49.0785" lon="3.52517">
        <ele>78.4</ele>
        <time>2020-07-01T08:22:12Z</time>
      </trkpt>
      <trkpt lat="49.07846" lon="3.52514">
        <ele>78.5</ele>
        <time>2020-07-01T08:22:13Z</time>
      </trkpt>
      <trkpt lat="49.07841" lon="3.5251">
        <ele>78.6</ele>
        <time>2020-07-01T08:22:14Z</time>
      </trkpt>
      <trkpt lat="49.07837" lon="3.52506">
        <ele>78.6</ele>
        <time>2020-07-01T08:22:15Z</time>
      </trkpt>
      <trkpt lat="49.07833" lon="3.52502">
        <ele>78.7</ele>
        <time>2020-07-01T08:22:16Z</time>
      </trkpt>
      <trkpt lat="49.07829" lon="3.52498">
        <ele>78.7</ele>
        <time>2020-07-01T08:22:17Z</time>
      </trkpt>
      <trkpt lat="49.07824" lon="3.52493">
        <ele>78.7</ele>
        <time>2020-07-01T08:22:18Z</time>
      </trkpt>
      <trkpt lat="49.0782" lon="3.52489">
        <ele>78.7</ele>
        <time>2020-07-01T08:22:19Z</time>
      </trkpt>
      <trkpt lat="49.07817" lon="3.52485">
        <ele>78.7</ele>
        <time>2020-07-01T08:22:20Z</time>
      </trkpt>
      <trkpt lat="49.07813" lon="3.5248">
        <ele>78.7</ele>
        <time>2020-07-01T08:22:21Z</time>
      </trkpt>
      <trkpt lat="49.07809" lon="3.52476">
        <ele>78.7</ele>
        <time>2020-07-01T08:22:22Z</time>
      </trkpt>
      <trkpt lat="49.07804" lon="3.52471">
        <ele>78.7</ele>
        <time>2020-07-01T08:22:23Z</time>
      </trkpt>
      <trkpt lat="49.07799" lon="3.52466">
        <ele>78.7</ele>
        <time>2020-07-01T08:22:24Z</time>
      </trkpt>
      <trkpt lat="49.07795" lon="3.52461">
        <ele>78.7</ele>
        <time>2020-07-01T08:22:25Z</time>
      </trkpt>
      <trkpt lat="49.07789" lon="3.52456">
        <ele>78.6</ele>
        <time>2020-07-01T08:22:26Z</time>
      </trkpt>
      <trkpt lat="49.07784" lon="3.5245">
        <ele>78.6</ele>
        <time>2020-07-01T08:22:27Z</time>
      </trkpt>
      <trkpt lat="49.07778" lon="3.52445">
        <ele>78.5</ele>
        <time>2020-07-01T08:22:28Z</time>
      </trkpt>
      <trkpt lat="49.07773" lon="3.52439">
        <ele>78.4</ele>
        <time>2020-07-01T08:22:29Z</time>
      </trkpt>
      <trkpt lat="49.07768" lon="3.52434">
        <ele>78.3</ele>
        <time>2020-07-01T08:22:30Z</time>
      </trkpt>
      <trkpt lat="49.07763" lon="3.52429">
        <ele>78.2</ele>
        <time>2020-07-01T08:22:31Z</time>
      </trkpt>
      <trkpt lat="49.07757" lon="3.52423">
        <ele>78.1</ele>
        <time>2020-07-01T08:22:32Z</time>
      </trkpt>
      <trkpt lat="49.07752" lon="3.52417">
        <ele>77.9</ele>
        <time>2020-07-01T08:22:33Z</time>
      </trkpt>
      <trkpt lat="49.07746" lon="3.52412">
        <ele>77.8</ele>
        <time>2020-07-01T08:22:34Z</time>
      </trkpt>
      <trkpt lat="49.0774" lon="3.52406">
        <ele>77.6</ele>
        <time>2020-07-01T08:22:35Z</time>
      </trkpt>
      <trkpt lat="49.07734" lon="3.52401">
        <ele>77.4</ele>
        <time>2020-07-01T08:22:36Z</time>
      </trkpt>
      <trkpt lat="49.07728" lon="3.52396">
        <ele>77.3</ele>
        <time>2020-07-01T08:22:37Z</time>
      </trkpt>
      <trkpt lat="49.07722" lon="3.5239">
        <ele>77.1</ele>
        <time>2020-07-01T08:22:38Z</time>
      </trkpt>
      <trkpt lat="49.07716" lon="3.52384">
        <ele>77</ele>
        <time>2020-07-01T08:22:39Z</time>
      </trkpt>
      <trkpt lat="49.0771" lon="3.52378">
        <ele>77</ele>
        <time>2020-07-01T08:22:40Z</time>
      </trkpt>
      <trkpt lat="49.07703" lon="3.52372">
        <ele>76.9</ele>
        <time>2020-07-01T08:22:41Z</time>
      </trkpt>
      <trkpt lat="49.07697" lon="3.52366">
        <ele>76.9</ele>
        <time>2020-07-01T08:22:42Z</time>
      </trkpt>
      <trkpt lat="49.07691" lon="3.5236">
        <ele>76.8</ele>
        <time>2020-07-01T08:22:43Z</time>
      </trkpt>
      <trkpt lat="49.07685" lon="3.52354">
        <ele>76.8</ele>
        <time>2020-07-01T08:22:44Z</time>
      </trkpt>
      <trkpt lat="49.07679" lon="3.52349">
        <ele>76.8</ele>
        <time>2020-07-01T08:22:45Z</time>
      </trkpt>
      <trkpt lat="49.07673" lon="3.52344">
        <ele>76.8</ele>
        <time>2020-07-01T08:22:46Z</time>
      </trkpt>
      <trkpt lat="49.07668" lon="3.52338">
        <ele>76.8</ele>
        <time>2020-07-01T08:22:47Z</time>
      </trkpt>
      <trkpt lat="49.07662" lon="3.52332">
        <ele>76.8</ele>
        <time>2020-07-01T08:22:48Z</time>
      </trkpt>
      <trkpt lat="49.07656" lon="3.52326">
        <ele>76.9</ele>
        <time>2020-07-01T08:22:49Z</time>
      </trkpt>
      <trkpt lat="49.07651" lon="3.52321">
        <ele>76.9</ele>
        <time>2020-07-01T08:22:50Z</time>
      </trkpt>
      <trkpt lat="49.07646" lon="3.52315">
        <ele>76.9</ele>
        <time>2020-07-01T08:22:51Z</time>
      </trkpt>
      <trkpt lat="49.07641" lon="3.5231">
        <ele>77</ele>
        <time>2020-07-01T08:22:52Z</time>
      </trkpt>
      <trkpt lat="49.07636" lon="3.52306">
        <ele>77.1</ele>
        <time>2020-07-01T08:22:53Z</time>
      </trkpt>
      <trkpt lat="49.07632" lon="3.52302">
        <ele>77.2</ele>
        <time>2020-07-01T08:22:54Z</time>
      </trkpt>
      <trkpt lat="49.07626" lon="3.52296">
        <ele>77.3</ele>
        <time>2020-07-01T08:22:55Z</time>
      </trkpt>
      <trkpt lat="49.07621" lon="3.52292">
        <ele>77.3</ele>
        <time>2020-07-01T08:22:56Z</time>
      </trkpt>
      <trkpt lat="49.07616" lon="3.52288">
        <ele>77.3</ele>
        <time>2020-07-01T08:22:57Z</time>
      </trkpt>
      <trkpt lat="49.07611" lon="3.52284">
        <ele>77.4</ele>
        <time>2020-07-01T08:22:58Z</time>
      </trkpt>
      <trkpt lat="49.07607" lon="3.5228">
        <ele>77.4</ele>
        <time>2020-07-01T08:22:59Z</time>
      </trkpt>
      <trkpt lat="49.07603" lon="3.52277">
        <ele>77.4</ele>
        <time>2020-07-01T08:23:00Z</time>
      </trkpt>
      <trkpt lat="49.07598" lon="3.52272">
        <ele>77.4</ele>
        <time>2020-07-01T08:23:01Z</time>
      </trkpt>
      <trkpt lat="49.07594" lon="3.52268">
        <ele>77.4</ele>
        <time>2020-07-01T08:23:02Z</time>
      </trkpt>
      <trkpt lat="49.0759" lon="3.52263">
        <ele>77.4</ele>
        <time>2020-07-01T08:23:03Z</time>
      </trkpt>
      <trkpt lat="49.07586" lon="3.5226">
        <ele>77.4</ele>
        <time>2020-07-01T08:23:04Z</time>
      </trkpt>
      <trkpt lat="49.07582" lon="3.52256">
        <ele>77.4</ele>
        <time>2020-07-01T08:23:05Z</time>
      </trkpt>
      <trkpt lat="49.07577" lon="3.52252">
        <ele>77.4</ele>
        <time>2020-07-01T08:23:06Z</time>
      </trkpt>
      <trkpt lat="49.07573" lon="3.52247">
        <ele>77.4</ele>
        <time>2020-07-01T08:23:07Z</time>
      </trkpt>
      <trkpt lat="49.07569" lon="3.52243">
        <ele>77.4</ele>
        <time>2020-07-01T08:23:08Z</time>
      </trkpt>
      <trkpt lat="49.07565" lon="3.52239">
        <ele>77.4</ele>
        <time>2020-07-01T08:23:09Z</time>
      </trkpt>
      <trkpt lat="49.07561" lon="3.52234">
        <ele>77.4</ele>
        <time>2020-07-01T08:23:10Z</time>
      </trkpt>
      <trkpt lat="49.07557" lon="3.5223">
        <ele>77.3</ele>
        <time>2020-07-01T08:23:11Z</time>
      </trkpt>
      <trkpt lat="49.07552" lon="3.52226">
        <ele>77.3</ele>
        <time>2020-07-01T08:23:12Z</time>
      </trkpt>
      <trkpt lat="49.07547" lon="3.5222">
        <ele>77.3</ele>
        <time>2020-07-01T08:23:13Z</time>
      </trkpt>
      <trkpt lat="49.07543" lon="3.52216">
        <ele>77.2</ele>
        <time>2020-07-01T08:23:14Z</time>
      </trkpt>
      <trkpt lat="49.07538" lon="3.52211">
        <ele>77.2</ele>
        <time>2020-07-01T08:23:15Z</time>
      </trkpt>
      <trkpt lat="49.07533" lon="3.52206">
        <ele>77.1</ele>
        <time>2020-07-01T08:23:16Z</time>
      </trkpt>
      <trkpt lat="49.07528" lon="3.52202">
        <ele>77.1</ele>
        <time>2020-07-01T08:23:17Z</time>
      </trkpt>
      <trkpt lat="49.07524" lon="3.52198">
        <ele>77</ele>
        <time>2020-07-01T08:23:18Z</time>
      </trkpt>
      <trkpt lat="49.07519" lon="3.52193">
        <ele>77</ele>
        <time>2020-07-01T08:23:19Z</time>
      </trkpt>
      <trkpt lat="49.07514" lon="3.52189">
        <ele>77</ele>
        <time>2020-07-01T08:23:20Z</time>
      </trkpt>
      <trkpt lat="49.07509" lon="3.52184">
        <ele>77.1</ele>
        <time>2020-07-01T08:23:21Z</time>
      </trkpt>
      <trkpt lat="49.07504" lon="3.52179">
        <ele>77.1</ele>
        <time>2020-07-01T08:23:22Z</time>
      </trkpt>
      <trkpt lat="49.07499" lon="3.52174">
        <ele>77.2</ele>
        <time>2020-07-01T08:23:23Z</time>
      </trkpt>
      <trkpt lat="49.07494" lon="3.5217">
        <ele>77.3</ele>
        <time>2020-07-01T08:23:24Z</time>
      </trkpt>
      <trkpt lat="49.07489" lon="3.52165">
        <ele>77.4</ele>
        <time>2020-07-01T08:23:25Z</time>
      </trkpt>
      <trkpt lat="49.07484" lon="3.52161">
        <ele>77.5</ele>
        <time>2020-07-01T08:23:26Z</time>
      </trkpt>
      <trkpt lat="49.07479" lon="3.52157">
        <ele>77.6</ele>
        <time>2020-07-01T08:23:27Z</time>
      </trkpt>
      <trkpt lat="49.07474" lon="3.52153">
        <ele>77.7</ele>
        <time>2020-07-01T08:23:28Z</time>
      </trkpt>
      <trkpt lat="49.0747" lon="3.52149">
        <ele>77.8</ele>
        <time>2020-07-01T08:23:29Z</time>
      </trkpt>
      <trkpt lat="49.07465" lon="3.52145">
        <ele>78</ele>
        <time>2020-07-01T08:23:30Z</time>
      </trkpt>
      <trkpt lat="49.0746" lon="3.5214">
        <ele>78.1</ele>
        <time>2020-07-01T08:23:31Z</time>
      </trkpt>
      <trkpt lat="49.07456" lon="3.52136">
        <ele>78.3</ele>
        <time>2020-07-01T08:23:32Z</time>
      </trkpt>
      <trkpt lat="49.07452" lon="3.52133">
        <ele>78.4</ele>
        <time>2020-07-01T08:23:33Z</time>
      </trkpt>
      <trkpt lat="49.07448" lon="3.5213">
        <ele>78.6</ele>
        <time>2020-07-01T08:23:34Z</time>
      </trkpt>
      <trkpt lat="49.07444" lon="3.52126">
        <ele>78.7</ele>
        <time>2020-07-01T08:23:35Z</time>
      </trkpt>
      <trkpt lat="49.0744" lon="3.52123">
        <ele>78.9</ele>
        <time>2020-07-01T08:23:36Z</time>
      </trkpt>
      <trkpt lat="49.07436" lon="3.5212">
        <ele>79</ele>
        <time>2020-07-01T08:23:37Z</time>
      </trkpt>
      <trkpt lat="49.07433" lon="3.52117">
        <ele>79.1</ele>
        <time>2020-07-01T08:23:38Z</time>
      </trkpt>
      <trkpt lat="49.07429" lon="3.52114">
        <ele>79.2</ele>
        <time>2020-07-01T08:23:39Z</time>
      </trkpt>
      <trkpt lat="49.07426" lon="3.5211">
        <ele>79.3</ele>
        <time>2020-07-01T08:23:40Z</time>
      </trkpt>
      <trkpt lat="49.07422" lon="3.52107">
        <ele>79.5</ele>
        <time>2020-07-01T08:23:41Z</time>
      </trkpt>
      <trkpt lat="49.07419" lon="3.52103">
        <ele>79.6</ele>
        <time>2020-07-01T08:23:42Z</time>
      </trkpt>
      <trkpt lat="49.07417" lon="3.521">
        <ele>79.6</ele>
        <time>2020-07-01T08:23:43Z</time>
      </trkpt>
      <trkpt lat="49.07414" lon="3.52098">
        <ele>79.7</ele>
        <time>2020-07-01T08:23:44Z</time>
      </trkpt>
      <trkpt lat="49.07411" lon="3.52093">
        <ele>79.9</ele>
        <time>2020-07-01T08:23:45Z</time>
      </trkpt>
      <trkpt lat="49.07409" lon="3.52092">
        <ele>79.9</ele>
        <time>2020-07-01T08:23:46Z</time>
      </trkpt>
      <trkpt lat="49.07406" lon="3.52088">
        <ele>80</ele>
        <time>2020-07-01T08:23:47Z</time>
      </trkpt>
      <trkpt lat="49.07404" lon="3.52084">
        <ele>80.1</ele>
        <time>2020-07-01T08:23:48Z</time>
      </trkpt>
      <trkpt lat="49.07401" lon="3.5208">
        <ele>80.2</ele>
        <time>2020-07-01T08:23:49Z</time>
      </trkpt>
      <trkpt lat="49.07398" lon="3.52075">
        <ele>80.2</ele>
        <time>2020-07-01T08:23:50Z</time>
      </trkpt>
      <trkpt lat="49.07396" lon="3.52071">
        <ele>80.3</ele>
        <time>2020-07-01T08:23:51Z</time>
      </trkpt>
      <trkpt lat="49.07393" lon="3.52067">
        <ele>80.4</ele>
        <time>2020-07-01T08:23:52Z</time>
      </trkpt>
      <trkpt lat="49.0739" lon="3.52062">
        <ele>80.5</ele>
        <time>2020-07-01T08:23:53Z</time>
      </trkpt>
      <trkpt lat="49.07388" lon="3.52058">
        <ele>80.5</ele>
        <time>2020-07-01T08:23:54Z</time>
      </trkpt>
      <trkpt lat="49.07385" lon="3.52054">
        <ele>80.6</ele>
        <time>2020-07-01T08:23:55Z</time>
      </trkpt>
      <trkpt lat="49.07383" lon="3.52048">
        <ele>80.7</ele>
        <time>2020-07-01T08:23:56Z</time>
      </trkpt>
      <trkpt lat="49.0738" lon="3.52043">
        <ele>80.8</ele>
        <time>2020-07-01T08:23:57Z</time>
      </trkpt>
      <trkpt lat="49.07378" lon="3.52038">
        <ele>80.8</ele>
        <time>2020-07-01T08:23:58Z</time>
      </trkpt>
      <trkpt lat="49.07375" lon="3.52033">
        <ele>80.9</ele>
        <time>2020-07-01T08:23:59Z</time>
      </trkpt>
      <trkpt lat="49.07374" lon="3.52029">
        <ele>80.9</ele>
        <time>2020-07-01T08:24:00Z</time>
      </trkpt>
      <trkpt lat="49.07372" lon="3.52025">
        <ele>81</ele>
        <time>2020-07-01T08:24:01Z</time>
      </trkpt>
      <trkpt lat="49.0737" lon="3.52019">
        <ele>81</ele>
        <time>2020-07-01T08:24:02Z</time>
      </trkpt>
      <trkpt lat="49.07368" lon="3.52013">
        <ele>81.1</ele>
        <time>2020-07-01T08:24:03Z</time>
      </trkpt>
      <trkpt lat="49.07366" lon="3.52007">
        <ele>81.1</ele>
        <time>2020-07-01T08:24:04Z</time>
      </trkpt>
      <trkpt lat="49.07365" lon="3.52">
        <ele>81.2</ele>
        <time>2020-07-01T08:24:05Z</time>
      </trkpt>
      <trkpt lat="49.07363" lon="3.51993">
        <ele>81.2</ele>
        <time>2020-07-01T08:24:06Z</time>
      </trkpt>
      <trkpt lat="49.07361" lon="3.51986">
        <ele>81.2</ele>
        <time>2020-07-01T08:24:07Z</time>
      </trkpt>
      <trkpt lat="49.07359" lon="3.51979">
        <ele>81.2</ele>
        <time>2020-07-01T08:24:08Z</time>
      </trkpt>
      <trkpt lat="49.07358" lon="3.51972">
        <ele>81.2</ele>
        <time>2020-07-01T08:24:09Z</time>
      </trkpt>
      <trkpt lat="49.07356" lon="3.51964">
        <ele>81.2</ele>
        <time>2020-07-01T08:24:10Z</time>
      </trkpt>
      <trkpt lat="49.07355" lon="3.51958">
        <ele>81.2</ele>
        <time>2020-07-01T08:24:11Z</time>
      </trkpt>
      <trkpt lat="49.07354" lon="3.5195">
        <ele>81.2</ele>
        <time>2020-07-01T08:24:12Z</time>
      </trkpt>
      <trkpt lat="49.07353" lon="3.51944">
        <ele>81.1</ele>
        <time>2020-07-01T08:24:13Z</time>
      </trkpt>
      <trkpt lat="49.07352" lon="3.51936">
        <ele>81.1</ele>
        <time>2020-07-01T08:24:14Z</time>
      </trkpt>
      <trkpt lat="49.07351" lon="3.51928">
        <ele>81.1</ele>
        <time>2020-07-01T08:24:15Z</time>
      </trkpt>
      <trkpt lat="49.0735" lon="3.5192">
        <ele>81</ele>
        <time>2020-07-01T08:24:16Z</time>
      </trkpt>
      <trkpt lat="49.0735" lon="3.51911">
        <ele>81</ele>
        <time>2020-07-01T08:24:17Z</time>
      </trkpt>
      <trkpt lat="49.07349" lon="3.51903">
        <ele>81</ele>
        <time>2020-07-01T08:24:18Z</time>
      </trkpt>
      <trkpt lat="49.07349" lon="3.51895">
        <ele>81</ele>
        <time>2020-07-01T08:24:19Z</time>
      </trkpt>
      <trkpt lat="49.07349" lon="3.51887">
        <ele>81</ele>
        <time>2020-07-01T08:24:20Z</time>
      </trkpt>
      <trkpt lat="49.07349" lon="3.51879">
        <ele>81</ele>
        <time>2020-07-01T08:24:21Z</time>
      </trkpt>
      <trkpt lat="49.0735" lon="3.51871">
        <ele>81</ele>
        <time>2020-07-01T08:24:22Z</time>
      </trkpt>
      <trkpt lat="49.0735" lon="3.51862">
        <ele>81.1</ele>
        <time>2020-07-01T08:24:23Z</time>
      </trkpt>
      <trkpt lat="49.07351" lon="3.51854">
        <ele>81.1</ele>
        <time>2020-07-01T08:24:24Z</time>
      </trkpt>
      <trkpt lat="49.07352" lon="3.51846">
        <ele>81.2</ele>
        <time>2020-07-01T08:24:25Z</time>
      </trkpt>
      <trkpt lat="49.07353" lon="3.51838">
        <ele>81.3</ele>
        <time>2020-07-01T08:24:26Z</time>
      </trkpt>
      <trkpt lat="49.07354" lon="3.51832">
        <ele>81.3</ele>
        <time>2020-07-01T08:24:27Z</time>
      </trkpt>
      <trkpt lat="49.07355" lon="3.51825">
        <ele>81.4</ele>
        <time>2020-07-01T08:24:28Z</time>
      </trkpt>
      <trkpt lat="49.07356" lon="3.51819">
        <ele>81.4</ele>
        <time>2020-07-01T08:24:29Z</time>
      </trkpt>
      <trkpt lat="49.07357" lon="3.51813">
        <ele>81.5</ele>
        <time>2020-07-01T08:24:30Z</time>
      </trkpt>
      <trkpt lat="49.07358" lon="3.51805">
        <ele>81.6</ele>
        <time>2020-07-01T08:24:31Z</time>
      </trkpt>
      <trkpt lat="49.0736" lon="3.51799">
        <ele>81.6</ele>
        <time>2020-07-01T08:24:32Z</time>
      </trkpt>
      <trkpt lat="49.07361" lon="3.51793">
        <ele>81.7</ele>
        <time>2020-07-01T08:24:33Z</time>
      </trkpt>
      <trkpt lat="49.07361" lon="3.51787">
        <ele>81.8</ele>
        <time>2020-07-01T08:24:34Z</time>
      </trkpt>
      <trkpt lat="49.07362" lon="3.51782">
        <ele>81.8</ele>
        <time>2020-07-01T08:24:35Z</time>
      </trkpt>
      <trkpt lat="49.07363" lon="3.51776">
        <ele>81.9</ele>
        <time>2020-07-01T08:24:36Z</time>
      </trkpt>
      <trkpt lat="49.07363" lon="3.51771">
        <ele>81.9</ele>
        <time>2020-07-01T08:24:37Z</time>
      </trkpt>
      <trkpt lat="49.07364" lon="3.51764">
        <ele>82</ele>
        <time>2020-07-01T08:24:38Z</time>
      </trkpt>
      <trkpt lat="49.07366" lon="3.51758">
        <ele>82.1</ele>
        <time>2020-07-01T08:24:39Z</time>
      </trkpt>
      <trkpt lat="49.07367" lon="3.51751">
        <ele>82.1</ele>
        <time>2020-07-01T08:24:40Z</time>
      </trkpt>
      <trkpt lat="49.07368" lon="3.51744">
        <ele>82.2</ele>
        <time>2020-07-01T08:24:41Z</time>
      </trkpt>
      <trkpt lat="49.07368" lon="3.51738">
        <ele>82.3</ele>
        <time>2020-07-01T08:24:42Z</time>
      </trkpt>
      <trkpt lat="49.07369" lon="3.51731">
        <ele>82.4</ele>
        <time>2020-07-01T08:24:43Z</time>
      </trkpt>
      <trkpt lat="49.0737" lon="3.51725">
        <ele>82.5</ele>
        <time>2020-07-01T08:24:44Z</time>
      </trkpt>
      <trkpt lat="49.07371" lon="3.51719">
        <ele>82.6</ele>
        <time>2020-07-01T08:24:45Z</time>
      </trkpt>
      <trkpt lat="49.07372" lon="3.51712">
        <ele>82.7</ele>
        <time>2020-07-01T08:24:46Z</time>
      </trkpt>
      <trkpt lat="49.07373" lon="3.51705">
        <ele>82.8</ele>
        <time>2020-07-01T08:24:47Z</time>
      </trkpt>
      <trkpt lat="49.07374" lon="3.51697">
        <ele>82.9</ele>
        <time>2020-07-01T08:24:48Z</time>
      </trkpt>
      <trkpt lat="49.07375" lon="3.5169">
        <ele>83</ele>
        <time>2020-07-01T08:24:49Z</time>
      </trkpt>
      <trkpt lat="49.07376" lon="3.51683">
        <ele>83.1</ele>
        <time>2020-07-01T08:24:50Z</time>
      </trkpt>
      <trkpt lat="49.07377" lon="3.51677">
        <ele>83.1</ele>
        <time>2020-07-01T08:24:51Z</time>
      </trkpt>
      <trkpt lat="49.07378" lon="3.51671">
        <ele>83.2</ele>
        <time>2020-07-01T08:24:52Z</time>
      </trkpt>
      <trkpt lat="49.07379" lon="3.51665">
        <ele>83.3</ele>
        <time>2020-07-01T08:24:53Z</time>
      </trkpt>
      <trkpt lat="49.0738" lon="3.51657">
        <ele>83.4</ele>
        <time>2020-07-01T08:24:54Z</time>
      </trkpt>
      <trkpt lat="49.07381" lon="3.51648">
        <ele>83.6</ele>
        <time>2020-07-01T08:24:55Z</time>
      </trkpt>
      <trkpt lat="49.07383" lon="3.51641">
        <ele>83.7</ele>
        <time>2020-07-01T08:24:56Z</time>
      </trkpt>
      <trkpt lat="49.07383" lon="3.51634">
        <ele>83.8</ele>
        <time>2020-07-01T08:24:57Z</time>
      </trkpt>
      <trkpt lat="49.07384" lon="3.51627">
        <ele>83.9</ele>
        <time>2020-07-01T08:24:58Z</time>
      </trkpt>
      <trkpt lat="49.07385" lon="3.5162">
        <ele>83.9</ele>
        <time>2020-07-01T08:24:59Z</time>
      </trkpt>
      <trkpt lat="49.07386" lon="3.51613">
        <ele>84</ele>
        <time>2020-07-01T08:25:00Z</time>
      </trkpt>
      <trkpt lat="49.07387" lon="3.51607">
        <ele>84.1</ele>
        <time>2020-07-01T08:25:01Z</time>
      </trkpt>
      <trkpt lat="49.07388" lon="3.516">
        <ele>84.2</ele>
        <time>2020-07-01T08:25:02Z</time>
      </trkpt>
      <trkpt lat="49.07389" lon="3.51593">
        <ele>84.2</ele>
        <time>2020-07-01T08:25:03Z</time>
      </trkpt>
      <trkpt lat="49.0739" lon="3.51586">
        <ele>84.3</ele>
        <time>2020-07-01T08:25:04Z</time>
      </trkpt>
      <trkpt lat="49.07392" lon="3.51578">
        <ele>84.4</ele>
        <time>2020-07-01T08:25:05Z</time>
      </trkpt>
      <trkpt lat="49.07393" lon="3.5157">
        <ele>84.5</ele>
        <time>2020-07-01T08:25:06Z</time>
      </trkpt>
      <trkpt lat="49.07394" lon="3.51563">
        <ele>84.5</ele>
        <time>2020-07-01T08:25:07Z</time>
      </trkpt>
      <trkpt lat="49.07396" lon="3.51556">
        <ele>84.6</ele>
        <time>2020-07-01T08:25:08Z</time>
      </trkpt>
      <trkpt lat="49.07397" lon="3.51548">
        <ele>84.6</ele>
        <time>2020-07-01T08:25:09Z</time>
      </trkpt>
      <trkpt lat="49.074" lon="3.51541">
        <ele>84.6</ele>
        <time>2020-07-01T08:25:10Z</time>
      </trkpt>
      <trkpt lat="49.07402" lon="3.51534">
        <ele>84.6</ele>
        <time>2020-07-01T08:25:11Z</time>
      </trkpt>
      <trkpt lat="49.07404" lon="3.51527">
        <ele>84.6</ele>
        <time>2020-07-01T08:25:12Z</time>
      </trkpt>
      <trkpt lat="49.07405" lon="3.5152">
        <ele>84.5</ele>
        <time>2020-07-01T08:25:13Z</time>
      </trkpt>
      <trkpt lat="49.07408" lon="3.51514">
        <ele>84.5</ele>
        <time>2020-07-01T08:25:14Z</time>
      </trkpt>
      <trkpt lat="49.0741" lon="3.51507">
        <ele>84.5</ele>
        <time>2020-07-01T08:25:15Z</time>
      </trkpt>
      <trkpt lat="49.07411" lon="3.51501">
        <ele>84.4</ele>
        <time>2020-07-01T08:25:16Z</time>
      </trkpt>
      <trkpt lat="49.07413" lon="3.51494">
        <ele>84.4</ele>
        <time>2020-07-01T08:25:17Z</time>
      </trkpt>
      <trkpt lat="49.07416" lon="3.51485">
        <ele>84.4</ele>
        <time>2020-07-01T08:25:18Z</time>
      </trkpt>
      <trkpt lat="49.07418" lon="3.51477">
        <ele>84.3</ele>
        <time>2020-07-01T08:25:19Z</time>
      </trkpt>
      <trkpt lat="49.0742" lon="3.51469">
        <ele>84.3</ele>
        <time>2020-07-01T08:25:20Z</time>
      </trkpt>
      <trkpt lat="49.07423" lon="3.5146">
        <ele>84.2</ele>
        <time>2020-07-01T08:25:21Z</time>
      </trkpt>
      <trkpt lat="49.07425" lon="3.51452">
        <ele>84.2</ele>
        <time>2020-07-01T08:25:22Z</time>
      </trkpt>
      <trkpt lat="49.07427" lon="3.51444">
        <ele>84.1</ele>
        <time>2020-07-01T08:25:23Z</time>
      </trkpt>
      <trkpt lat="49.07429" lon="3.51436">
        <ele>84</ele>
        <time>2020-07-01T08:25:24Z</time>
      </trkpt>
      <trkpt lat="49.07431" lon="3.51429">
        <ele>84</ele>
        <time>2020-07-01T08:25:25Z</time>
      </trkpt>
      <trkpt lat="49.07434" lon="3.51422">
        <ele>83.9</ele>
        <time>2020-07-01T08:25:26Z</time>
      </trkpt>
      <trkpt lat="49.07436" lon="3.51414">
        <ele>83.9</ele>
        <time>2020-07-01T08:25:27Z</time>
      </trkpt>
      <trkpt lat="49.07438" lon="3.51408">
        <ele>83.9</ele>
        <time>2020-07-01T08:25:28Z</time>
      </trkpt>
      <trkpt lat="49.0744" lon="3.51401">
        <ele>83.8</ele>
        <time>2020-07-01T08:25:29Z</time>
      </trkpt>
      <trkpt lat="49.07442" lon="3.51392">
        <ele>83.8</ele>
        <time>2020-07-01T08:25:30Z</time>
      </trkpt>
      <trkpt lat="49.07444" lon="3.51385">
        <ele>83.7</ele>
        <time>2020-07-01T08:25:31Z</time>
      </trkpt>
      <trkpt lat="49.07446" lon="3.51376">
        <ele>83.7</ele>
        <time>2020-07-01T08:25:32Z</time>
      </trkpt>
      <trkpt lat="49.07448" lon="3.51366">
        <ele>83.6</ele>
        <time>2020-07-01T08:25:33Z</time>
      </trkpt>
      <trkpt lat="49.0745" lon="3.51357">
        <ele>83.6</ele>
        <time>2020-07-01T08:25:34Z</time>
      </trkpt>
      <trkpt lat="49.07451" lon="3.51348">
        <ele>83.6</ele>
        <time>2020-07-01T08:25:35Z</time>
      </trkpt>
      <trkpt lat="49.07453" lon="3.51339">
        <ele>83.6</ele>
        <time>2020-07-01T08:25:36Z</time>
      </trkpt>
      <trkpt lat="49.07454" lon="3.51329">
        <ele>83.5</ele>
        <time>2020-07-01T08:25:37Z</time>
      </trkpt>
      <trkpt lat="49.07455" lon="3.51319">
        <ele>83.5</ele>
        <time>2020-07-01T08:25:38Z</time>
      </trkpt>
      <trkpt lat="49.07456" lon="3.51311">
        <ele>83.4</ele>
        <time>2020-07-01T08:25:39Z</time>
      </trkpt>
      <trkpt lat="49.07456" lon="3.51303">
        <ele>83.4</ele>
        <time>2020-07-01T08:25:40Z</time>
      </trkpt>
      <trkpt lat="49.07457" lon="3.51294">
        <ele>83.3</ele>
        <time>2020-07-01T08:25:41Z</time>
      </trkpt>
      <trkpt lat="49.07457" lon="3.51285">
        <ele>83.3</ele>
        <time>2020-07-01T08:25:42Z</time>
      </trkpt>
      <trkpt lat="49.07458" lon="3.51275">
        <ele>83.3</ele>
        <time>2020-07-01T08:25:43Z</time>
      </trkpt>
      <trkpt lat="49.07459" lon="3.51264">
        <ele>83.3</ele>
        <time>2020-07-01T08:25:44Z</time>
      </trkpt>
      <trkpt lat="49.0746" lon="3.51255">
        <ele>83.3</ele>
        <time>2020-07-01T08:25:45Z</time>
      </trkpt>
      <trkpt lat="49.0746" lon="3.51246">
        <ele>83.2</ele>
        <time>2020-07-01T08:25:46Z</time>
      </trkpt>
      <trkpt lat="49.0746" lon="3.51238">
        <ele>83.2</ele>
        <time>2020-07-01T08:25:47Z</time>
      </trkpt>
      <trkpt lat="49.0746" lon="3.51228">
        <ele>83.2</ele>
        <time>2020-07-01T08:25:48Z</time>
      </trkpt>
      <trkpt lat="49.07461" lon="3.51218">
        <ele>83.2</ele>
        <time>2020-07-01T08:25:49Z</time>
      </trkpt>
      <trkpt lat="49.07461" lon="3.5121">
        <ele>83.1</ele>
        <time>2020-07-01T08:25:50Z</time>
      </trkpt>
      <trkpt lat="49.07462" lon="3.51201">
        <ele>83.1</ele>
        <time>2020-07-01T08:25:51Z</time>
      </trkpt>
      <trkpt lat="49.07463" lon="3.51191">
        <ele>83.1</ele>
        <time>2020-07-01T08:25:52Z</time>
      </trkpt>
      <trkpt lat="49.07463" lon="3.5118">
        <ele>83</ele>
        <time>2020-07-01T08:25:53Z</time>
      </trkpt>
      <trkpt lat="49.07463" lon="3.51171">
        <ele>83</ele>
        <time>2020-07-01T08:25:54Z</time>
      </trkpt>
      <trkpt lat="49.07463" lon="3.51161">
        <ele>83</ele>
        <time>2020-07-01T08:25:55Z</time>
      </trkpt>
      <trkpt lat="49.07464" lon="3.51151">
        <ele>82.9</ele>
        <time>2020-07-01T08:25:56Z</time>
      </trkpt>
      <trkpt lat="49.07464" lon="3.51142">
        <ele>82.9</ele>
        <time>2020-07-01T08:25:57Z</time>
      </trkpt>
      <trkpt lat="49.07464" lon="3.51133">
        <ele>82.8</ele>
        <time>2020-07-01T08:25:58Z</time>
      </trkpt>
      <trkpt lat="49.07464" lon="3.51123">
        <ele>82.8</ele>
        <time>2020-07-01T08:25:59Z</time>
      </trkpt>
      <trkpt lat="49.07465" lon="3.51114">
        <ele>82.7</ele>
        <time>2020-07-01T08:26:00Z</time>
      </trkpt>
      <trkpt lat="49.07466" lon="3.51104">
        <ele>82.7</ele>
        <time>2020-07-01T08:26:01Z</time>
      </trkpt>
      <trkpt lat="49.07466" lon="3.51095">
        <ele>82.6</ele>
        <time>2020-07-01T08:26:02Z</time>
      </trkpt>
      <trkpt lat="49.07467" lon="3.51085">
        <ele>82.6</ele>
        <time>2020-07-01T08:26:03Z</time>
      </trkpt>
      <trkpt lat="49.07468" lon="3.51075">
        <ele>82.6</ele>
        <time>2020-07-01T08:26:04Z</time>
      </trkpt>
      <trkpt lat="49.07468" lon="3.51066">
        <ele>82.5</ele>
        <time>2020-07-01T08:26:05Z</time>
      </trkpt>
      <trkpt lat="49.07469" lon="3.51057">
        <ele>82.4</ele>
        <time>2020-07-01T08:26:06Z</time>
      </trkpt>
      <trkpt lat="49.0747" lon="3.51047">
        <ele>82.4</ele>
        <time>2020-07-01T08:26:07Z</time>
      </trkpt>
      <trkpt lat="49.07471" lon="3.51039">
        <ele>82.3</ele>
        <time>2020-07-01T08:26:08Z</time>
      </trkpt>
      <trkpt lat="49.07472" lon="3.5103">
        <ele>82.2</ele>
        <time>2020-07-01T08:26:09Z</time>
      </trkpt>
      <trkpt lat="49.07472" lon="3.51021">
        <ele>82.1</ele>
        <time>2020-07-01T08:26:10Z</time>
      </trkpt>
      <trkpt lat="49.07473" lon="3.51011">
        <ele>82.1</ele>
        <time>2020-07-01T08:26:11Z</time>
      </trkpt>
      <trkpt lat="49.07474" lon="3.51001">
        <ele>82</ele>
        <time>2020-07-01T08:26:12Z</time>
      </trkpt>
      <trkpt lat="49.07474" lon="3.50993">
        <ele>82</ele>
        <time>2020-07-01T08:26:13Z</time>
      </trkpt>
      <trkpt lat="49.07475" lon="3.50984">
        <ele>82</ele>
        <time>2020-07-01T08:26:14Z</time>
      </trkpt>
      <trkpt lat="49.07476" lon="3.50974">
        <ele>81.9</ele>
        <time>2020-07-01T08:26:15Z</time>
      </trkpt>
      <trkpt lat="49.07476" lon="3.50965">
        <ele>81.9</ele>
        <time>2020-07-01T08:26:16Z</time>
      </trkpt>
      <trkpt lat="49.07477" lon="3.50956">
        <ele>81.8</ele>
        <time>2020-07-01T08:26:17Z</time>
      </trkpt>
      <trkpt lat="49.07477" lon="3.50948">
        <ele>81.7</ele>
        <time>2020-07-01T08:26:18Z</time>
      </trkpt>
      <trkpt lat="49.07478" lon="3.50942">
        <ele>81.7</ele>
        <time>2020-07-01T08:26:19Z</time>
      </trkpt>
      <trkpt lat="49.07479" lon="3.50935">
        <ele>81.6</ele>
        <time>2020-07-01T08:26:20Z</time>
      </trkpt>
      <trkpt lat="49.0748" lon="3.50923">
        <ele>81.5</ele>
        <time>2020-07-01T08:26:21Z</time>
      </trkpt>
      <trkpt lat="49.07481" lon="3.50914">
        <ele>81.5</ele>
        <time>2020-07-01T08:26:22Z</time>
      </trkpt>
      <trkpt lat="49.07482" lon="3.50904">
        <ele>81.4</ele>
        <time>2020-07-01T08:26:23Z</time>
      </trkpt>
      <trkpt lat="49.07482" lon="3.50894">
        <ele>81.3</ele>
        <time>2020-07-01T08:26:24Z</time>
      </trkpt>
      <trkpt lat="49.07483" lon="3.50882">
        <ele>81.3</ele>
        <time>2020-07-01T08:26:25Z</time>
      </trkpt>
      <trkpt lat="49.07484" lon="3.50871">
        <ele>81.2</ele>
        <time>2020-07-01T08:26:26Z</time>
      </trkpt>
      <trkpt lat="49.07485" lon="3.50861">
        <ele>81.2</ele>
        <time>2020-07-01T08:26:27Z</time>
      </trkpt>
      <trkpt lat="49.07485" lon="3.50851">
        <ele>81.2</ele>
        <time>2020-07-01T08:26:28Z</time>
      </trkpt>
      <trkpt lat="49.07486" lon="3.50841">
        <ele>81.1</ele>
        <time>2020-07-01T08:26:29Z</time>
      </trkpt>
      <trkpt lat="49.07486" lon="3.50831">
        <ele>81</ele>
        <time>2020-07-01T08:26:30Z</time>
      </trkpt>
      <trkpt lat="49.07486" lon="3.50821">
        <ele>80.8</ele>
        <time>2020-07-01T08:26:31Z</time>
      </trkpt>
      <trkpt lat="49.07487" lon="3.50811">
        <ele>80.8</ele>
        <time>2020-07-01T08:26:32Z</time>
      </trkpt>
      <trkpt lat="49.07487" lon="3.50802">
        <ele>80.7</ele>
        <time>2020-07-01T08:26:33Z</time>
      </trkpt>
      <trkpt lat="49.07487" lon="3.50792">
        <ele>80.6</ele>
        <time>2020-07-01T08:26:34Z</time>
      </trkpt>
      <trkpt lat="49.07486" lon="3.50782">
        <ele>80.6</ele>
        <time>2020-07-01T08:26:35Z</time>
      </trkpt>
      <trkpt lat="49.07486" lon="3.50772">
        <ele>80.5</ele>
        <time>2020-07-01T08:26:36Z</time>
      </trkpt>
      <trkpt lat="49.07485" lon="3.50762">
        <ele>80.5</ele>
        <time>2020-07-01T08:26:37Z</time>
      </trkpt>
      <trkpt lat="49.07484" lon="3.50752">
        <ele>80.5</ele>
        <time>2020-07-01T08:26:38Z</time>
      </trkpt>
      <trkpt lat="49.07483" lon="3.50742">
        <ele>80.4</ele>
        <time>2020-07-01T08:26:39Z</time>
      </trkpt>
      <trkpt lat="49.07481" lon="3.50732">
        <ele>80.4</ele>
        <time>2020-07-01T08:26:40Z</time>
      </trkpt>
      <trkpt lat="49.07479" lon="3.50722">
        <ele>80.4</ele>
        <time>2020-07-01T08:26:41Z</time>
      </trkpt>
      <trkpt lat="49.07478" lon="3.50713">
        <ele>80.5</ele>
        <time>2020-07-01T08:26:42Z</time>
      </trkpt>
      <trkpt lat="49.07478" lon="3.50705">
        <ele>80.5</ele>
        <time>2020-07-01T08:26:43Z</time>
      </trkpt>
      <trkpt lat="49.07476" lon="3.50695">
        <ele>80.6</ele>
        <time>2020-07-01T08:26:44Z</time>
      </trkpt>
      <trkpt lat="49.07475" lon="3.50687">
        <ele>80.6</ele>
        <time>2020-07-01T08:26:45Z</time>
      </trkpt>
      <trkpt lat="49.07475" lon="3.50679">
        <ele>80.6</ele>
        <time>2020-07-01T08:26:46Z</time>
      </trkpt>
      <trkpt lat="49.07474" lon="3.50671">
        <ele>80.7</ele>
        <time>2020-07-01T08:26:47Z</time>
      </trkpt>
      <trkpt lat="49.07474" lon="3.50662">
        <ele>80.7</ele>
        <time>2020-07-01T08:26:48Z</time>
      </trkpt>
      <trkpt lat="49.07473" lon="3.50653">
        <ele>80.8</ele>
        <time>2020-07-01T08:26:49Z</time>
      </trkpt>
      <trkpt lat="49.07473" lon="3.50644">
        <ele>80.8</ele>
        <time>2020-07-01T08:26:50Z</time>
      </trkpt>
      <trkpt lat="49.07474" lon="3.50634">
        <ele>80.9</ele>
        <time>2020-07-01T08:26:51Z</time>
      </trkpt>
      <trkpt lat="49.07474" lon="3.50625">
        <ele>80.9</ele>
        <time>2020-07-01T08:26:52Z</time>
      </trkpt>
      <trkpt lat="49.07475" lon="3.50618">
        <ele>81</ele>
        <time>2020-07-01T08:26:53Z</time>
      </trkpt>
      <trkpt lat="49.07477" lon="3.5061">
        <ele>81</ele>
        <time>2020-07-01T08:26:54Z</time>
      </trkpt>
      <trkpt lat="49.07478" lon="3.50602">
        <ele>81</ele>
        <time>2020-07-01T08:26:55Z</time>
      </trkpt>
      <trkpt lat="49.0748" lon="3.50594">
        <ele>81</ele>
        <time>2020-07-01T08:26:56Z</time>
      </trkpt>
      <trkpt lat="49.0748" lon="3.50588">
        <ele>81</ele>
        <time>2020-07-01T08:26:57Z</time>
      </trkpt>
      <trkpt lat="49.07481" lon="3.50581">
        <ele>81.1</ele>
        <time>2020-07-01T08:26:58Z</time>
      </trkpt>
      <trkpt lat="49.07482" lon="3.50574">
        <ele>81</ele>
        <time>2020-07-01T08:26:59Z</time>
      </trkpt>
      <trkpt lat="49.07483" lon="3.50566">
        <ele>81</ele>
        <time>2020-07-01T08:27:00Z</time>
      </trkpt>
      <trkpt lat="49.07484" lon="3.50558">
        <ele>81</ele>
        <time>2020-07-01T08:27:01Z</time>
      </trkpt>
      <trkpt lat="49.07485" lon="3.5055">
        <ele>80.9</ele>
        <time>2020-07-01T08:27:02Z</time>
      </trkpt>
      <trkpt lat="49.07486" lon="3.50542">
        <ele>80.8</ele>
        <time>2020-07-01T08:27:03Z</time>
      </trkpt>
      <trkpt lat="49.07486" lon="3.50534">
        <ele>80.8</ele>
        <time>2020-07-01T08:27:04Z</time>
      </trkpt>
      <trkpt lat="49.07487" lon="3.50526">
        <ele>80.7</ele>
        <time>2020-07-01T08:27:05Z</time>
      </trkpt>
      <trkpt lat="49.07488" lon="3.50515">
        <ele>80.6</ele>
        <time>2020-07-01T08:27:06Z</time>
      </trkpt>
      <trkpt lat="49.0749" lon="3.50506">
        <ele>80.5</ele>
        <time>2020-07-01T08:27:07Z</time>
      </trkpt>
      <trkpt lat="49.07491" lon="3.50497">
        <ele>80.5</ele>
        <time>2020-07-01T08:27:08Z</time>
      </trkpt>
      <trkpt lat="49.07493" lon="3.50486">
        <ele>80.3</ele>
        <time>2020-07-01T08:27:09Z</time>
      </trkpt>
      <trkpt lat="49.07495" lon="3.50477">
        <ele>80.2</ele>
        <time>2020-07-01T08:27:10Z</time>
      </trkpt>
      <trkpt lat="49.07497" lon="3.50467">
        <ele>80.2</ele>
        <time>2020-07-01T08:27:11Z</time>
      </trkpt>
      <trkpt lat="49.07499" lon="3.50457">
        <ele>80.1</ele>
        <time>2020-07-01T08:27:12Z</time>
      </trkpt>
      <trkpt lat="49.07501" lon="3.50449">
        <ele>80</ele>
        <time>2020-07-01T08:27:13Z</time>
      </trkpt>
      <trkpt lat="49.07502" lon="3.50441">
        <ele>79.9</ele>
        <time>2020-07-01T08:27:14Z</time>
      </trkpt>
      <trkpt lat="49.07504" lon="3.50433">
        <ele>79.8</ele>
        <time>2020-07-01T08:27:15Z</time>
      </trkpt>
      <trkpt lat="49.07505" lon="3.50426">
        <ele>79.7</ele>
        <time>2020-07-01T08:27:16Z</time>
      </trkpt>
      <trkpt lat="49.07507" lon="3.50418">
        <ele>79.6</ele>
        <time>2020-07-01T08:27:17Z</time>
      </trkpt>
      <trkpt lat="49.07508" lon="3.5041">
        <ele>79.5</ele>
        <time>2020-07-01T08:27:18Z</time>
      </trkpt>
      <trkpt lat="49.0751" lon="3.50402">
        <ele>79.4</ele>
        <time>2020-07-01T08:27:19Z</time>
      </trkpt>
      <trkpt lat="49.07512" lon="3.50394">
        <ele>79.3</ele>
        <time>2020-07-01T08:27:20Z</time>
      </trkpt>
      <trkpt lat="49.07513" lon="3.50385">
        <ele>79.3</ele>
        <time>2020-07-01T08:27:21Z</time>
      </trkpt>
      <trkpt lat="49.07516" lon="3.50378">
        <ele>79.2</ele>
        <time>2020-07-01T08:27:22Z</time>
      </trkpt>
      <trkpt lat="49.07519" lon="3.50369">
        <ele>79.1</ele>
        <time>2020-07-01T08:27:23Z</time>
      </trkpt>
      <trkpt lat="49.07521" lon="3.50361">
        <ele>79.1</ele>
        <time>2020-07-01T08:27:24Z</time>
      </trkpt>
      <trkpt lat="49.07525" lon="3.50353">
        <ele>79.1</ele>
        <time>2020-07-01T08:27:25Z</time>
      </trkpt>
      <trkpt lat="49.07528" lon="3.50346">
        <ele>79.1</ele>
        <time>2020-07-01T08:27:26Z</time>
      </trkpt>
      <trkpt lat="49.07531" lon="3.50338">
        <ele>78.9</ele>
        <time>2020-07-01T08:27:27Z</time>
      </trkpt>
      <trkpt lat="49.07535" lon="3.5033">
        <ele>78.7</ele>
        <time>2020-07-01T08:27:28Z</time>
      </trkpt>
      <trkpt lat="49.07539" lon="3.50322">
        <ele>78.6</ele>
        <time>2020-07-01T08:27:29Z</time>
      </trkpt>
      <trkpt lat="49.07543" lon="3.50313">
        <ele>78.5</ele>
        <time>2020-07-01T08:27:30Z</time>
      </trkpt>
      <trkpt lat="49.07546" lon="3.50304">
        <ele>78.4</ele>
        <time>2020-07-01T08:27:31Z</time>
      </trkpt>
      <trkpt lat="49.0755" lon="3.50296">
        <ele>78.4</ele>
        <time>2020-07-01T08:27:32Z</time>
      </trkpt>
      <trkpt lat="49.07554" lon="3.50287">
        <ele>78.3</ele>
        <time>2020-07-01T08:27:33Z</time>
      </trkpt>
      <trkpt lat="49.07558" lon="3.50279">
        <ele>78.3</ele>
        <time>2020-07-01T08:27:34Z</time>
      </trkpt>
      <trkpt lat="49.07561" lon="3.5027">
        <ele>78.3</ele>
        <time>2020-07-01T08:27:35Z</time>
      </trkpt>
      <trkpt lat="49.07564" lon="3.50262">
        <ele>78.4</ele>
        <time>2020-07-01T08:27:36Z</time>
      </trkpt>
      <trkpt lat="49.07567" lon="3.50254">
        <ele>78.4</ele>
        <time>2020-07-01T08:27:37Z</time>
      </trkpt>
      <trkpt lat="49.07569" lon="3.50246">
        <ele>78.5</ele>
        <time>2020-07-01T08:27:38Z</time>
      </trkpt>
      <trkpt lat="49.07572" lon="3.50238">
        <ele>78.5</ele>
        <time>2020-07-01T08:27:39Z</time>
      </trkpt>
      <trkpt lat="49.07575" lon="3.5023">
        <ele>78.6</ele>
        <time>2020-07-01T08:27:40Z</time>
      </trkpt>
      <trkpt lat="49.07578" lon="3.50222">
        <ele>78.6</ele>
        <time>2020-07-01T08:27:41Z</time>
      </trkpt>
      <trkpt lat="49.0758" lon="3.50213">
        <ele>78.7</ele>
        <time>2020-07-01T08:27:42Z</time>
      </trkpt>
      <trkpt lat="49.07583" lon="3.50205">
        <ele>78.7</ele>
        <time>2020-07-01T08:27:43Z</time>
      </trkpt>
      <trkpt lat="49.07585" lon="3.50198">
        <ele>78.7</ele>
        <time>2020-07-01T08:27:44Z</time>
      </trkpt>
      <trkpt lat="49.07587" lon="3.50192">
        <ele>78.7</ele>
        <time>2020-07-01T08:27:45Z</time>
      </trkpt>
      <trkpt lat="49.07589" lon="3.50185">
        <ele>78.7</ele>
        <time>2020-07-01T08:27:46Z</time>
      </trkpt>
      <trkpt lat="49.0759" lon="3.5018">
        <ele>78.7</ele>
        <time>2020-07-01T08:27:47Z</time>
      </trkpt>
      <trkpt lat="49.07592" lon="3.50174">
        <ele>78.7</ele>
        <time>2020-07-01T08:27:48Z</time>
      </trkpt>
      <trkpt lat="49.07593" lon="3.50167">
        <ele>78.7</ele>
        <time>2020-07-01T08:27:49Z</time>
      </trkpt>
      <trkpt lat="49.07594" lon="3.5016">
        <ele>78.6</ele>
        <time>2020-07-01T08:27:50Z</time>
      </trkpt>
      <trkpt lat="49.07595" lon="3.50153">
        <ele>78.5</ele>
        <time>2020-07-01T08:27:51Z</time>
      </trkpt>
      <trkpt lat="49.07596" lon="3.50146">
        <ele>78.4</ele>
        <time>2020-07-01T08:27:52Z</time>
      </trkpt>
      <trkpt lat="49.07597" lon="3.50139">
        <ele>78.3</ele>
        <time>2020-07-01T08:27:53Z</time>
      </trkpt>
      <trkpt lat="49.07598" lon="3.5013">
        <ele>78</ele>
        <time>2020-07-01T08:27:54Z</time>
      </trkpt>
      <trkpt lat="49.07598" lon="3.50122">
        <ele>77.7</ele>
        <time>2020-07-01T08:27:55Z</time>
      </trkpt>
      <trkpt lat="49.07598" lon="3.50114">
        <ele>77.4</ele>
        <time>2020-07-01T08:27:56Z</time>
      </trkpt>
      <trkpt lat="49.07599" lon="3.50105">
        <ele>77</ele>
        <time>2020-07-01T08:27:57Z</time>
      </trkpt>
      <trkpt lat="49.076" lon="3.50095">
        <ele>76.7</ele>
        <time>2020-07-01T08:27:58Z</time>
      </trkpt>
      <trkpt lat="49.076" lon="3.50085">
        <ele>76.3</ele>
        <time>2020-07-01T08:27:59Z</time>
      </trkpt>
      <trkpt lat="49.07599" lon="3.50075">
        <ele>75.9</ele>
        <time>2020-07-01T08:28:00Z</time>
      </trkpt>
      <trkpt lat="49.07598" lon="3.50067">
        <ele>75.6</ele>
        <time>2020-07-01T08:28:01Z</time>
      </trkpt>
      <trkpt lat="49.07598" lon="3.50058">
        <ele>75.2</ele>
        <time>2020-07-01T08:28:02Z</time>
      </trkpt>
      <trkpt lat="49.07598" lon="3.50049">
        <ele>74.8</ele>
        <time>2020-07-01T08:28:03Z</time>
      </trkpt>
      <trkpt lat="49.07598" lon="3.5004">
        <ele>74.4</ele>
        <time>2020-07-01T08:28:04Z</time>
      </trkpt>
      <trkpt lat="49.07599" lon="3.50028">
        <ele>73.8</ele>
        <time>2020-07-01T08:28:05Z</time>
      </trkpt>
      <trkpt lat="49.07598" lon="3.50017">
        <ele>73.3</ele>
        <time>2020-07-01T08:28:06Z</time>
      </trkpt>
      <trkpt lat="49.07598" lon="3.50006">
        <ele>72.8</ele>
        <time>2020-07-01T08:28:07Z</time>
      </trkpt>
      <trkpt lat="49.07597" lon="3.49994">
        <ele>72.2</ele>
        <time>2020-07-01T08:28:08Z</time>
      </trkpt>
      <trkpt lat="49.07597" lon="3.49982">
        <ele>71.6</ele>
        <time>2020-07-01T08:28:09Z</time>
      </trkpt>
      <trkpt lat="49.07597" lon="3.4997">
        <ele>71</ele>
        <time>2020-07-01T08:28:10Z</time>
      </trkpt>
      <trkpt lat="49.07597" lon="3.49958">
        <ele>70.4</ele>
        <time>2020-07-01T08:28:11Z</time>
      </trkpt>
      <trkpt lat="49.07596" lon="3.49945">
        <ele>69.8</ele>
        <time>2020-07-01T08:28:12Z</time>
      </trkpt>
      <trkpt lat="49.07595" lon="3.49933">
        <ele>69.2</ele>
        <time>2020-07-01T08:28:13Z</time>
      </trkpt>
      <trkpt lat="49.07593" lon="3.49922">
        <ele>68.6</ele>
        <time>2020-07-01T08:28:14Z</time>
      </trkpt>
      <trkpt lat="49.07592" lon="3.4991">
        <ele>68</ele>
        <time>2020-07-01T08:28:15Z</time>
      </trkpt>
      <trkpt lat="49.07591" lon="3.49898">
        <ele>67.3</ele>
        <time>2020-07-01T08:28:16Z</time>
      </trkpt>
      <trkpt lat="49.0759" lon="3.49886">
        <ele>66.7</ele>
        <time>2020-07-01T08:28:17Z</time>
      </trkpt>
      <trkpt lat="49.07588" lon="3.49872">
        <ele>66.1</ele>
        <time>2020-07-01T08:28:18Z</time>
      </trkpt>
      <trkpt lat="49.07586" lon="3.49858">
        <ele>65.5</ele>
        <time>2020-07-01T08:28:19Z</time>
      </trkpt>
      <trkpt lat="49.07584" lon="3.49844">
        <ele>64.9</ele>
        <time>2020-07-01T08:28:20Z</time>
      </trkpt>
      <trkpt lat="49.07581" lon="3.4983">
        <ele>64.4</ele>
        <time>2020-07-01T08:28:21Z</time>
      </trkpt>
      <trkpt lat="49.07578" lon="3.49816">
        <ele>64</ele>
        <time>2020-07-01T08:28:22Z</time>
      </trkpt>
      <trkpt lat="49.07576" lon="3.49802">
        <ele>63.6</ele>
        <time>2020-07-01T08:28:23Z</time>
      </trkpt>
      <trkpt lat="49.07573" lon="3.49789">
        <ele>63.3</ele>
        <time>2020-07-01T08:28:24Z</time>
      </trkpt>
      <trkpt lat="49.0757" lon="3.49776">
        <ele>63</ele>
        <time>2020-07-01T08:28:25Z</time>
      </trkpt>
      <trkpt lat="49.07567" lon="3.49763">
        <ele>62.9</ele>
        <time>2020-07-01T08:28:26Z</time>
      </trkpt>
      <trkpt lat="49.07564" lon="3.4975">
        <ele>62.7</ele>
        <time>2020-07-01T08:28:27Z</time>
      </trkpt>
      <trkpt lat="49.07561" lon="3.49738">
        <ele>62.6</ele>
        <time>2020-07-01T08:28:28Z</time>
      </trkpt>
      <trkpt lat="49.07559" lon="3.49726">
        <ele>62.5</ele>
        <time>2020-07-01T08:28:29Z</time>
      </trkpt>
      <trkpt lat="49.07557" lon="3.49714">
        <ele>62.3</ele>
        <time>2020-07-01T08:28:30Z</time>
      </trkpt>
      <trkpt lat="49.07555" lon="3.49703">
        <ele>62.2</ele>
        <time>2020-07-01T08:28:31Z</time>
      </trkpt>
      <trkpt lat="49.07552" lon="3.49692">
        <ele>62.1</ele>
        <time>2020-07-01T08:28:32Z</time>
      </trkpt>
      <trkpt lat="49.0755" lon="3.49681">
        <ele>62</ele>
        <time>2020-07-01T08:28:33Z</time>
      </trkpt>
      <trkpt lat="49.07548" lon="3.4967">
        <ele>62</ele>
        <time>2020-07-01T08:28:34Z</time>
      </trkpt>
      <trkpt lat="49.07546" lon="3.49659">
        <ele>61.9</ele>
        <time>2020-07-01T08:28:35Z</time>
      </trkpt>
      <trkpt lat="49.07544" lon="3.49648">
        <ele>61.9</ele>
        <time>2020-07-01T08:28:36Z</time>
      </trkpt>
      <trkpt lat="49.07542" lon="3.49638">
        <ele>61.9</ele>
        <time>2020-07-01T08:28:37Z</time>
      </trkpt>
      <trkpt lat="49.0754" lon="3.49628">
        <ele>61.9</ele>
        <time>2020-07-01T08:28:38Z</time>
      </trkpt>
      <trkpt lat="49.07538" lon="3.49618">
        <ele>61.9</ele>
        <time>2020-07-01T08:28:39Z</time>
      </trkpt>
      <trkpt lat="49.07536" lon="3.49608">
        <ele>62</ele>
        <time>2020-07-01T08:28:40Z</time>
      </trkpt>
      <trkpt lat="49.07534" lon="3.49598">
        <ele>62</ele>
        <time>2020-07-01T08:28:41Z</time>
      </trkpt>
      <trkpt lat="49.07532" lon="3.49588">
        <ele>62</ele>
        <time>2020-07-01T08:28:42Z</time>
      </trkpt>
      <trkpt lat="49.0753" lon="3.49579">
        <ele>62.1</ele>
        <time>2020-07-01T08:28:43Z</time>
      </trkpt>
      <trkpt lat="49.07528" lon="3.4957">
        <ele>62.2</ele>
        <time>2020-07-01T08:28:44Z</time>
      </trkpt>
      <trkpt lat="49.07526" lon="3.49561">
        <ele>62.2</ele>
        <time>2020-07-01T08:28:45Z</time>
      </trkpt>
      <trkpt lat="49.07525" lon="3.49552">
        <ele>62.3</ele>
        <time>2020-07-01T08:28:46Z</time>
      </trkpt>
      <trkpt lat="49.07523" lon="3.49544">
        <ele>62.4</ele>
        <time>2020-07-01T08:28:47Z</time>
      </trkpt>
      <trkpt lat="49.07521" lon="3.49536">
        <ele>62.5</ele>
        <time>2020-07-01T08:28:48Z</time>
      </trkpt>
      <trkpt lat="49.0752" lon="3.49528">
        <ele>62.6</ele>
        <time>2020-07-01T08:28:49Z</time>
      </trkpt>
      <trkpt lat="49.07519" lon="3.4952">
        <ele>62.8</ele>
        <time>2020-07-01T08:28:50Z</time>
      </trkpt>
      <trkpt lat="49.07517" lon="3.49513">
        <ele>63.1</ele>
        <time>2020-07-01T08:28:51Z</time>
      </trkpt>
      <trkpt lat="49.07517" lon="3.49505">
        <ele>63.3</ele>
        <time>2020-07-01T08:28:52Z</time>
      </trkpt>
      <trkpt lat="49.07517" lon="3.49498">
        <ele>63.5</ele>
        <time>2020-07-01T08:28:53Z</time>
      </trkpt>
      <trkpt lat="49.07518" lon="3.4949">
        <ele>64</ele>
        <time>2020-07-01T08:28:54Z</time>
      </trkpt>
      <trkpt lat="49.07519" lon="3.49482">
        <ele>64.1</ele>
        <time>2020-07-01T08:28:55Z</time>
      </trkpt>
      <trkpt lat="49.07518" lon="3.49476">
        <ele>63.8</ele>
        <time>2020-07-01T08:28:56Z</time>
      </trkpt>
      <trkpt lat="49.07516" lon="3.4947">
        <ele>63.5</ele>
        <time>2020-07-01T08:28:57Z</time>
      </trkpt>
      <trkpt lat="49.07515" lon="3.49463">
        <ele>63.2</ele>
        <time>2020-07-01T08:28:58Z</time>
      </trkpt>
      <trkpt lat="49.07515" lon="3.49457">
        <ele>63</ele>
        <time>2020-07-01T08:28:59Z</time>
      </trkpt>
      <trkpt lat="49.07515" lon="3.49452">
        <ele>62.8</ele>
        <time>2020-07-01T08:29:00Z</time>
      </trkpt>
      <trkpt lat="49.07514" lon="3.49446">
        <ele>62.3</ele>
        <time>2020-07-01T08:29:01Z</time>
      </trkpt>
      <trkpt lat="49.07515" lon="3.4944">
        <ele>62.4</ele>
        <time>2020-07-01T08:29:02Z</time>
      </trkpt>
      <trkpt lat="49.07516" lon="3.49435">
        <ele>62.4</ele>
        <time>2020-07-01T08:29:03Z</time>
      </trkpt>
      <trkpt lat="49.07517" lon="3.4943">
        <ele>62.5</ele>
        <time>2020-07-01T08:29:04Z</time>
      </trkpt>
      <trkpt lat="49.07518" lon="3.49425">
        <ele>62.5</ele>
        <time>2020-07-01T08:29:05Z</time>
      </trkpt>
      <trkpt lat="49.07518" lon="3.49419">
        <ele>62.6</ele>
        <time>2020-07-01T08:29:06Z</time>
      </trkpt>
      <trkpt lat="49.07519" lon="3.49413">
        <ele>62.6</ele>
        <time>2020-07-01T08:29:07Z</time>
      </trkpt>
      <trkpt lat="49.0752" lon="3.49408">
        <ele>62.7</ele>
        <time>2020-07-01T08:29:08Z</time>
      </trkpt>
      <trkpt lat="49.07521" lon="3.49402">
        <ele>62.8</ele>
        <time>2020-07-01T08:29:09Z</time>
      </trkpt>
      <trkpt lat="49.07522" lon="3.49397">
        <ele>62.9</ele>
        <time>2020-07-01T08:29:10Z</time>
      </trkpt>
      <trkpt lat="49.07523" lon="3.49393">
        <ele>62.9</ele>
        <time>2020-07-01T08:29:11Z</time>
      </trkpt>
      <trkpt lat="49.07525" lon="3.49388">
        <ele>63</ele>
        <time>2020-07-01T08:29:12Z</time>
      </trkpt>
      <trkpt lat="49.07526" lon="3.49382">
        <ele>63.1</ele>
        <time>2020-07-01T08:29:13Z</time>
      </trkpt>
      <trkpt lat="49.07527" lon="3.49378">
        <ele>63.1</ele>
        <time>2020-07-01T08:29:14Z</time>
      </trkpt>
      <trkpt lat="49.07528" lon="3.49373">
        <ele>63.2</ele>
        <time>2020-07-01T08:29:15Z</time>
      </trkpt>
      <trkpt lat="49.07529" lon="3.49368">
        <ele>63.3</ele>
        <time>2020-07-01T08:29:16Z</time>
      </trkpt>
      <trkpt lat="49.0753" lon="3.49363">
        <ele>63.4</ele>
        <time>2020-07-01T08:29:17Z</time>
      </trkpt>
      <trkpt lat="49.0753" lon="3.49357">
        <ele>63.5</ele>
        <time>2020-07-01T08:29:18Z</time>
      </trkpt>
      <trkpt lat="49.07531" lon="3.49351">
        <ele>63.6</ele>
        <time>2020-07-01T08:29:19Z</time>
      </trkpt>
      <trkpt lat="49.07532" lon="3.49346">
        <ele>63.7</ele>
        <time>2020-07-01T08:29:20Z</time>
      </trkpt>
      <trkpt lat="49.07534" lon="3.49341">
        <ele>63.8</ele>
        <time>2020-07-01T08:29:21Z</time>
      </trkpt>
      <trkpt lat="49.07535" lon="3.49336">
        <ele>64.2</ele>
        <time>2020-07-01T08:29:22Z</time>
      </trkpt>
      <trkpt lat="49.07535" lon="3.49331">
        <ele>64.4</ele>
        <time>2020-07-01T08:29:23Z</time>
      </trkpt>
      <trkpt lat="49.07536" lon="3.49327">
        <ele>64.6</ele>
        <time>2020-07-01T08:29:24Z</time>
      </trkpt>
      <trkpt lat="49.07537" lon="3.49322">
        <ele>64.8</ele>
        <time>2020-07-01T08:29:25Z</time>
      </trkpt>
      <trkpt lat="49.07538" lon="3.49318">
        <ele>65</ele>
        <time>2020-07-01T08:29:26Z</time>
      </trkpt>
      <trkpt lat="49.07539" lon="3.49313">
        <ele>65.3</ele>
        <time>2020-07-01T08:29:27Z</time>
      </trkpt>
      <trkpt lat="49.0754" lon="3.49308">
        <ele>65.5</ele>
        <time>2020-07-01T08:29:28Z</time>
      </trkpt>
      <trkpt lat="49.07541" lon="3.49304">
        <ele>65.7</ele>
        <time>2020-07-01T08:29:29Z</time>
      </trkpt>
      <trkpt lat="49.07542" lon="3.49299">
        <ele>66</ele>
        <time>2020-07-01T08:29:30Z</time>
      </trkpt>
      <trkpt lat="49.07542" lon="3.49294">
        <ele>66.2</ele>
        <time>2020-07-01T08:29:31Z</time>
      </trkpt>
      <trkpt lat="49.07542" lon="3.49289">
        <ele>66.4</ele>
        <time>2020-07-01T08:29:32Z</time>
      </trkpt>
      <trkpt lat="49.07542" lon="3.49284">
        <ele>66.7</ele>
        <time>2020-07-01T08:29:33Z</time>
      </trkpt>
      <trkpt lat="49.07541" lon="3.4928">
        <ele>66.9</ele>
        <time>2020-07-01T08:29:34Z</time>
      </trkpt>
      <trkpt lat="49.0754" lon="3.49275">
        <ele>67</ele>
        <time>2020-07-01T08:29:35Z</time>
      </trkpt>
      <trkpt lat="49.07539" lon="3.49271">
        <ele>67.1</ele>
        <time>2020-07-01T08:29:36Z</time>
      </trkpt>
      <trkpt lat="49.07538" lon="3.49267">
        <ele>67.2</ele>
        <time>2020-07-01T08:29:37Z</time>
      </trkpt>
      <trkpt lat="49.07536" lon="3.49261">
        <ele>67.4</ele>
        <time>2020-07-01T08:29:38Z</time>
      </trkpt>
      <trkpt lat="49.07535" lon="3.49259">
        <ele>67.4</ele>
        <time>2020-07-01T08:29:39Z</time>
      </trkpt>
      <trkpt lat="49.07534" lon="3.49254">
        <ele>67.6</ele>
        <time>2020-07-01T08:29:40Z</time>
      </trkpt>
      <trkpt lat="49.07533" lon="3.49249">
        <ele>67.7</ele>
        <time>2020-07-01T08:29:41Z</time>
      </trkpt>
      <trkpt lat="49.07532" lon="3.49245">
        <ele>67.9</ele>
        <time>2020-07-01T08:29:42Z</time>
      </trkpt>
      <trkpt lat="49.07531" lon="3.49241">
        <ele>68</ele>
        <time>2020-07-01T08:29:43Z</time>
      </trkpt>
      <trkpt lat="49.0753" lon="3.49237">
        <ele>68.1</ele>
        <time>2020-07-01T08:29:44Z</time>
      </trkpt>
      <trkpt lat="49.07529" lon="3.49233">
        <ele>68.2</ele>
        <time>2020-07-01T08:29:45Z</time>
      </trkpt>
      <trkpt lat="49.07527" lon="3.49228">
        <ele>68.5</ele>
        <time>2020-07-01T08:29:46Z</time>
      </trkpt>
      <trkpt lat="49.07526" lon="3.49224">
        <ele>68.8</ele>
        <time>2020-07-01T08:29:47Z</time>
      </trkpt>
      <trkpt lat="49.07524" lon="3.49219">
        <ele>69</ele>
        <time>2020-07-01T08:29:48Z</time>
      </trkpt>
      <trkpt lat="49.07523" lon="3.49215">
        <ele>69.2</ele>
        <time>2020-07-01T08:29:49Z</time>
      </trkpt>
      <trkpt lat="49.07522" lon="3.49211">
        <ele>69.4</ele>
        <time>2020-07-01T08:29:50Z</time>
      </trkpt>
      <trkpt lat="49.0752" lon="3.49206">
        <ele>69.6</ele>
        <time>2020-07-01T08:29:51Z</time>
      </trkpt>
      <trkpt lat="49.07519" lon="3.49201">
        <ele>69.8</ele>
        <time>2020-07-01T08:29:52Z</time>
      </trkpt>
      <trkpt lat="49.07518" lon="3.49197">
        <ele>70</ele>
        <time>2020-07-01T08:29:53Z</time>
      </trkpt>
      <trkpt lat="49.07517" lon="3.49191">
        <ele>70.2</ele>
        <time>2020-07-01T08:29:54Z</time>
      </trkpt>
      <trkpt lat="49.07516" lon="3.49186">
        <ele>70.4</ele>
        <time>2020-07-01T08:29:55Z</time>
      </trkpt>
      <trkpt lat="49.07516" lon="3.49182">
        <ele>70.6</ele>
        <time>2020-07-01T08:29:56Z</time>
      </trkpt>
      <trkpt lat="49.07515" lon="3.49176">
        <ele>70.8</ele>
        <time>2020-07-01T08:29:57Z</time>
      </trkpt>
      <trkpt lat="49.07514" lon="3.49174">
        <ele>70.9</ele>
        <time>2020-07-01T08:29:58Z</time>
      </trkpt>
      <trkpt lat="49.07513" lon="3.49168">
        <ele>71.1</ele>
        <time>2020-07-01T08:29:59Z</time>
      </trkpt>
      <trkpt lat="49.07512" lon="3.49166">
        <ele>71.2</ele>
        <time>2020-07-01T08:30:00Z</time>
      </trkpt>
      <trkpt lat="49.07511" lon="3.49159">
        <ele>71.4</ele>
        <time>2020-07-01T08:30:01Z</time>
      </trkpt>
      <trkpt lat="49.0751" lon="3.49155">
        <ele>71.6</ele>
        <time>2020-07-01T08:30:02Z</time>
      </trkpt>
      <trkpt lat="49.0751" lon="3.4915">
        <ele>71.8</ele>
        <time>2020-07-01T08:30:03Z</time>
      </trkpt>
      <trkpt lat="49.07509" lon="3.49144">
        <ele>71.9</ele>
        <time>2020-07-01T08:30:04Z</time>
      </trkpt>
      <trkpt lat="49.07508" lon="3.4914">
        <ele>72.1</ele>
        <time>2020-07-01T08:30:05Z</time>
      </trkpt>
      <trkpt lat="49.07507" lon="3.49135">
        <ele>72.3</ele>
        <time>2020-07-01T08:30:06Z</time>
      </trkpt>
      <trkpt lat="49.07506" lon="3.4913">
        <ele>72.4</ele>
        <time>2020-07-01T08:30:07Z</time>
      </trkpt>
      <trkpt lat="49.07506" lon="3.49124">
        <ele>72.6</ele>
        <time>2020-07-01T08:30:08Z</time>
      </trkpt>
      <trkpt lat="49.07505" lon="3.49118">
        <ele>72.8</ele>
        <time>2020-07-01T08:30:09Z</time>
      </trkpt>
      <trkpt lat="49.07505" lon="3.49116">
        <ele>72.9</ele>
        <time>2020-07-01T08:30:10Z</time>
      </trkpt>
      <trkpt lat="49.07504" lon="3.49112">
        <ele>73</ele>
        <time>2020-07-01T08:30:11Z</time>
      </trkpt>
      <trkpt lat="49.07504" lon="3.49107">
        <ele>73.1</ele>
        <time>2020-07-01T08:30:12Z</time>
      </trkpt>
      <trkpt lat="49.07503" lon="3.49103">
        <ele>73.2</ele>
        <time>2020-07-01T08:30:13Z</time>
      </trkpt>
      <trkpt lat="49.07503" lon="3.49099">
        <ele>73.3</ele>
        <time>2020-07-01T08:30:14Z</time>
      </trkpt>
      <trkpt lat="49.07502" lon="3.49095">
        <ele>73.4</ele>
        <time>2020-07-01T08:30:15Z</time>
      </trkpt>
      <trkpt lat="49.07501" lon="3.49089">
        <ele>73.5</ele>
        <time>2020-07-01T08:30:16Z</time>
      </trkpt>
      <trkpt lat="49.07501" lon="3.49087">
        <ele>73.6</ele>
        <time>2020-07-01T08:30:17Z</time>
      </trkpt>
      <trkpt lat="49.075" lon="3.49082">
        <ele>73.7</ele>
        <time>2020-07-01T08:30:18Z</time>
      </trkpt>
      <trkpt lat="49.07499" lon="3.49077">
        <ele>73.8</ele>
        <time>2020-07-01T08:30:19Z</time>
      </trkpt>
      <trkpt lat="49.07499" lon="3.49071">
        <ele>73.9</ele>
        <time>2020-07-01T08:30:20Z</time>
      </trkpt>
      <trkpt lat="49.07498" lon="3.49066">
        <ele>74</ele>
        <time>2020-07-01T08:30:21Z</time>
      </trkpt>
      <trkpt lat="49.07496" lon="3.4906">
        <ele>74.1</ele>
        <time>2020-07-01T08:30:22Z</time>
      </trkpt>
      <trkpt lat="49.07495" lon="3.49055">
        <ele>74.2</ele>
        <time>2020-07-01T08:30:23Z</time>
      </trkpt>
      <trkpt lat="49.07494" lon="3.4905">
        <ele>74.3</ele>
        <time>2020-07-01T08:30:24Z</time>
      </trkpt>
      <trkpt lat="49.07493" lon="3.49044">
        <ele>74.3</ele>
        <time>2020-07-01T08:30:25Z</time>
      </trkpt>
      <trkpt lat="49.07492" lon="3.4904">
        <ele>74.4</ele>
        <time>2020-07-01T08:30:26Z</time>
      </trkpt>
      <trkpt lat="49.07491" lon="3.49036">
        <ele>74.4</ele>
        <time>2020-07-01T08:30:27Z</time>
      </trkpt>
      <trkpt lat="49.0749" lon="3.49031">
        <ele>74.5</ele>
        <time>2020-07-01T08:30:28Z</time>
      </trkpt>
      <trkpt lat="49.07489" lon="3.49027">
        <ele>74.5</ele>
        <time>2020-07-01T08:30:29Z</time>
      </trkpt>
      <trkpt lat="49.07488" lon="3.49022">
        <ele>74.6</ele>
        <time>2020-07-01T08:30:30Z</time>
      </trkpt>
      <trkpt lat="49.07487" lon="3.49017">
        <ele>74.6</ele>
        <time>2020-07-01T08:30:31Z</time>
      </trkpt>
      <trkpt lat="49.07486" lon="3.4901">
        <ele>74.7</ele>
        <time>2020-07-01T08:30:32Z</time>
      </trkpt>
      <trkpt lat="49.07486" lon="3.49003">
        <ele>74.8</ele>
        <time>2020-07-01T08:30:33Z</time>
      </trkpt>
      <trkpt lat="49.07485" lon="3.48997">
        <ele>74.8</ele>
        <time>2020-07-01T08:30:34Z</time>
      </trkpt>
      <trkpt lat="49.07484" lon="3.4899">
        <ele>74.9</ele>
        <time>2020-07-01T08:30:35Z</time>
      </trkpt>
      <trkpt lat="49.07483" lon="3.48982">
        <ele>74.9</ele>
        <time>2020-07-01T08:30:36Z</time>
      </trkpt>
      <trkpt lat="49.07482" lon="3.48978">
        <ele>75</ele>
        <time>2020-07-01T08:30:37Z</time>
      </trkpt>
      <trkpt lat="49.07482" lon="3.48972">
        <ele>75</ele>
        <time>2020-07-01T08:30:38Z</time>
      </trkpt>
      <trkpt lat="49.07481" lon="3.48967">
        <ele>75</ele>
        <time>2020-07-01T08:30:39Z</time>
      </trkpt>
      <trkpt lat="49.0748" lon="3.48961">
        <ele>75.1</ele>
        <time>2020-07-01T08:30:40Z</time>
      </trkpt>
      <trkpt lat="49.0748" lon="3.48955">
        <ele>75.1</ele>
        <time>2020-07-01T08:30:41Z</time>
      </trkpt>
      <trkpt lat="49.07479" lon="3.48949">
        <ele>75.1</ele>
        <time>2020-07-01T08:30:42Z</time>
      </trkpt>
      <trkpt lat="49.07478" lon="3.48944">
        <ele>75.2</ele>
        <time>2020-07-01T08:30:43Z</time>
      </trkpt>
      <trkpt lat="49.07477" lon="3.48938">
        <ele>75.2</ele>
        <time>2020-07-01T08:30:44Z</time>
      </trkpt>
      <trkpt lat="49.07476" lon="3.4893">
        <ele>75.3</ele>
        <time>2020-07-01T08:30:45Z</time>
      </trkpt>
      <trkpt lat="49.07475" lon="3.48923">
        <ele>75.3</ele>
        <time>2020-07-01T08:30:46Z</time>
      </trkpt>
      <trkpt lat="49.07474" lon="3.48916">
        <ele>75.4</ele>
        <time>2020-07-01T08:30:47Z</time>
      </trkpt>
      <trkpt lat="49.07473" lon="3.4891">
        <ele>75.4</ele>
        <time>2020-07-01T08:30:48Z</time>
      </trkpt>
      <trkpt lat="49.07472" lon="3.48903">
        <ele>75.5</ele>
        <time>2020-07-01T08:30:49Z</time>
      </trkpt>
      <trkpt lat="49.07471" lon="3.48897">
        <ele>75.5</ele>
        <time>2020-07-01T08:30:50Z</time>
      </trkpt>
      <trkpt lat="49.0747" lon="3.48892">
        <ele>75.5</ele>
        <time>2020-07-01T08:30:51Z</time>
      </trkpt>
      <trkpt lat="49.07469" lon="3.48885">
        <ele>75.6</ele>
        <time>2020-07-01T08:30:52Z</time>
      </trkpt>
      <trkpt lat="49.07467" lon="3.48879">
        <ele>75.7</ele>
        <time>2020-07-01T08:30:53Z</time>
      </trkpt>
      <trkpt lat="49.07465" lon="3.48872">
        <ele>75.7</ele>
        <time>2020-07-01T08:30:54Z</time>
      </trkpt>
      <trkpt lat="49.07463" lon="3.48867">
        <ele>75.7</ele>
        <time>2020-07-01T08:30:55Z</time>
      </trkpt>
      <trkpt lat="49.0746" lon="3.48862">
        <ele>75.7</ele>
        <time>2020-07-01T08:30:56Z</time>
      </trkpt>
      <trkpt lat="49.07458" lon="3.48858">
        <ele>75.7</ele>
        <time>2020-07-01T08:30:57Z</time>
      </trkpt>
      <trkpt lat="49.07455" lon="3.48853">
        <ele>75.6</ele>
        <time>2020-07-01T08:30:58Z</time>
      </trkpt>
      <trkpt lat="49.07453" lon="3.48849">
        <ele>75.6</ele>
        <time>2020-07-01T08:30:59Z</time>
      </trkpt>
      <trkpt lat="49.07451" lon="3.48844">
        <ele>75.6</ele>
        <time>2020-07-01T08:31:00Z</time>
      </trkpt>
      <trkpt lat="49.07449" lon="3.4884">
        <ele>75.6</ele>
        <time>2020-07-01T08:31:01Z</time>
      </trkpt>
      <trkpt lat="49.07447" lon="3.48836">
        <ele>75.6</ele>
        <time>2020-07-01T08:31:02Z</time>
      </trkpt>
      <trkpt lat="49.07445" lon="3.48831">
        <ele>75.6</ele>
        <time>2020-07-01T08:31:03Z</time>
      </trkpt>
      <trkpt lat="49.07443" lon="3.48827">
        <ele>75.6</ele>
        <time>2020-07-01T08:31:04Z</time>
      </trkpt>
      <trkpt lat="49.0744" lon="3.48822">
        <ele>75.6</ele>
        <time>2020-07-01T08:31:05Z</time>
      </trkpt>
      <trkpt lat="49.07438" lon="3.48818">
        <ele>75.6</ele>
        <time>2020-07-01T08:31:06Z</time>
      </trkpt>
      <trkpt lat="49.07434" lon="3.48812">
        <ele>75.6</ele>
        <time>2020-07-01T08:31:07Z</time>
      </trkpt>
      <trkpt lat="49.07432" lon="3.48808">
        <ele>75.6</ele>
        <time>2020-07-01T08:31:08Z</time>
      </trkpt>
      <trkpt lat="49.07429" lon="3.48804">
        <ele>75.6</ele>
        <time>2020-07-01T08:31:09Z</time>
      </trkpt>
      <trkpt lat="49.07426" lon="3.48797">
        <ele>75.5</ele>
        <time>2020-07-01T08:31:10Z</time>
      </trkpt>
      <trkpt lat="49.07423" lon="3.48793">
        <ele>75.5</ele>
        <time>2020-07-01T08:31:11Z</time>
      </trkpt>
      <trkpt lat="49.07419" lon="3.48787">
        <ele>75.5</ele>
        <time>2020-07-01T08:31:12Z</time>
      </trkpt>
      <trkpt lat="49.07416" lon="3.48782">
        <ele>75.4</ele>
        <time>2020-07-01T08:31:13Z</time>
      </trkpt>
      <trkpt lat="49.07413" lon="3.48776">
        <ele>75.4</ele>
        <time>2020-07-01T08:31:14Z</time>
      </trkpt>
      <trkpt lat="49.07409" lon="3.4877">
        <ele>75.3</ele>
        <time>2020-07-01T08:31:15Z</time>
      </trkpt>
      <trkpt lat="49.07405" lon="3.48764">
        <ele>75.2</ele>
        <time>2020-07-01T08:31:16Z</time>
      </trkpt>
      <trkpt lat="49.07402" lon="3.48758">
        <ele>75.1</ele>
        <time>2020-07-01T08:31:17Z</time>
      </trkpt>
      <trkpt lat="49.07399" lon="3.48755">
        <ele>75.1</ele>
        <time>2020-07-01T08:31:18Z</time>
      </trkpt>
      <trkpt lat="49.07396" lon="3.4875">
        <ele>75</ele>
        <time>2020-07-01T08:31:19Z</time>
      </trkpt>
      <trkpt lat="49.07393" lon="3.48746">
        <ele>74.9</ele>
        <time>2020-07-01T08:31:20Z</time>
      </trkpt>
      <trkpt lat="49.07389" lon="3.48741">
        <ele>74.8</ele>
        <time>2020-07-01T08:31:21Z</time>
      </trkpt>
      <trkpt lat="49.07385" lon="3.48737">
        <ele>74.7</ele>
        <time>2020-07-01T08:31:22Z</time>
      </trkpt>
      <trkpt lat="49.07381" lon="3.48731">
        <ele>74.6</ele>
        <time>2020-07-01T08:31:23Z</time>
      </trkpt>
      <trkpt lat="49.07377" lon="3.48726">
        <ele>74.5</ele>
        <time>2020-07-01T08:31:24Z</time>
      </trkpt>
      <trkpt lat="49.07373" lon="3.48721">
        <ele>74.4</ele>
        <time>2020-07-01T08:31:25Z</time>
      </trkpt>
      <trkpt lat="49.07368" lon="3.48715">
        <ele>74.2</ele>
        <time>2020-07-01T08:31:26Z</time>
      </trkpt>
      <trkpt lat="49.07364" lon="3.4871">
        <ele>74.1</ele>
        <time>2020-07-01T08:31:27Z</time>
      </trkpt>
      <trkpt lat="49.07361" lon="3.48706">
        <ele>73.9</ele>
        <time>2020-07-01T08:31:28Z</time>
      </trkpt>
      <trkpt lat="49.07357" lon="3.487">
        <ele>73.7</ele>
        <time>2020-07-01T08:31:29Z</time>
      </trkpt>
      <trkpt lat="49.07352" lon="3.48693">
        <ele>73.6</ele>
        <time>2020-07-01T08:31:30Z</time>
      </trkpt>
      <trkpt lat="49.07348" lon="3.48688">
        <ele>73.5</ele>
        <time>2020-07-01T08:31:31Z</time>
      </trkpt>
      <trkpt lat="49.07343" lon="3.48683">
        <ele>73.4</ele>
        <time>2020-07-01T08:31:32Z</time>
      </trkpt>
      <trkpt lat="49.07339" lon="3.48677">
        <ele>73.2</ele>
        <time>2020-07-01T08:31:33Z</time>
      </trkpt>
      <trkpt lat="49.07335" lon="3.48671">
        <ele>73</ele>
        <time>2020-07-01T08:31:34Z</time>
      </trkpt>
      <trkpt lat="49.0733" lon="3.48664">
        <ele>72.8</ele>
        <time>2020-07-01T08:31:35Z</time>
      </trkpt>
      <trkpt lat="49.07325" lon="3.48658">
        <ele>72.6</ele>
        <time>2020-07-01T08:31:36Z</time>
      </trkpt>
      <trkpt lat="49.07321" lon="3.48652">
        <ele>72.4</ele>
        <time>2020-07-01T08:31:37Z</time>
      </trkpt>
      <trkpt lat="49.07315" lon="3.48646">
        <ele>72.3</ele>
        <time>2020-07-01T08:31:38Z</time>
      </trkpt>
      <trkpt lat="49.0731" lon="3.4864">
        <ele>72.1</ele>
        <time>2020-07-01T08:31:39Z</time>
      </trkpt>
      <trkpt lat="49.07306" lon="3.48635">
        <ele>72</ele>
        <time>2020-07-01T08:31:40Z</time>
      </trkpt>
      <trkpt lat="49.07301" lon="3.48628">
        <ele>71.8</ele>
        <time>2020-07-01T08:31:41Z</time>
      </trkpt>
      <trkpt lat="49.07296" lon="3.48621">
        <ele>71.7</ele>
        <time>2020-07-01T08:31:42Z</time>
      </trkpt>
      <trkpt lat="49.07291" lon="3.48613">
        <ele>71.5</ele>
        <time>2020-07-01T08:31:43Z</time>
      </trkpt>
      <trkpt lat="49.07286" lon="3.48607">
        <ele>71.3</ele>
        <time>2020-07-01T08:31:44Z</time>
      </trkpt>
      <trkpt lat="49.07282" lon="3.48602">
        <ele>71.1</ele>
        <time>2020-07-01T08:31:45Z</time>
      </trkpt>
      <trkpt lat="49.07277" lon="3.48596">
        <ele>70.9</ele>
        <time>2020-07-01T08:31:46Z</time>
      </trkpt>
      <trkpt lat="49.07272" lon="3.4859">
        <ele>70.8</ele>
        <time>2020-07-01T08:31:47Z</time>
      </trkpt>
      <trkpt lat="49.07267" lon="3.48583">
        <ele>70.6</ele>
        <time>2020-07-01T08:31:48Z</time>
      </trkpt>
      <trkpt lat="49.07262" lon="3.48576">
        <ele>70.4</ele>
        <time>2020-07-01T08:31:49Z</time>
      </trkpt>
      <trkpt lat="49.07257" lon="3.48569">
        <ele>70.2</ele>
        <time>2020-07-01T08:31:50Z</time>
      </trkpt>
      <trkpt lat="49.07251" lon="3.48562">
        <ele>70.1</ele>
        <time>2020-07-01T08:31:51Z</time>
      </trkpt>
      <trkpt lat="49.07246" lon="3.48555">
        <ele>69.9</ele>
        <time>2020-07-01T08:31:52Z</time>
      </trkpt>
      <trkpt lat="49.07241" lon="3.48549">
        <ele>69.8</ele>
        <time>2020-07-01T08:31:53Z</time>
      </trkpt>
      <trkpt lat="49.07236" lon="3.48543">
        <ele>69.6</ele>
        <time>2020-07-01T08:31:54Z</time>
      </trkpt>
      <trkpt lat="49.0723" lon="3.48536">
        <ele>69.5</ele>
        <time>2020-07-01T08:31:55Z</time>
      </trkpt>
      <trkpt lat="49.07225" lon="3.48529">
        <ele>69.3</ele>
        <time>2020-07-01T08:31:56Z</time>
      </trkpt>
      <trkpt lat="49.07219" lon="3.48522">
        <ele>69.2</ele>
        <time>2020-07-01T08:31:57Z</time>
      </trkpt>
      <trkpt lat="49.07215" lon="3.48516">
        <ele>69.1</ele>
        <time>2020-07-01T08:31:58Z</time>
      </trkpt>
      <trkpt lat="49.07209" lon="3.48509">
        <ele>69</ele>
        <time>2020-07-01T08:31:59Z</time>
      </trkpt>
      <trkpt lat="49.07205" lon="3.48503">
        <ele>69</ele>
        <time>2020-07-01T08:32:00Z</time>
      </trkpt>
      <trkpt lat="49.072" lon="3.48496">
        <ele>68.9</ele>
        <time>2020-07-01T08:32:01Z</time>
      </trkpt>
      <trkpt lat="49.07195" lon="3.4849">
        <ele>68.8</ele>
        <time>2020-07-01T08:32:02Z</time>
      </trkpt>
      <trkpt lat="49.07191" lon="3.48485">
        <ele>68.7</ele>
        <time>2020-07-01T08:32:03Z</time>
      </trkpt>
      <trkpt lat="49.07187" lon="3.48479">
        <ele>68.7</ele>
        <time>2020-07-01T08:32:04Z</time>
      </trkpt>
      <trkpt lat="49.07182" lon="3.48473">
        <ele>68.6</ele>
        <time>2020-07-01T08:32:05Z</time>
      </trkpt>
      <trkpt lat="49.07177" lon="3.48467">
        <ele>68.5</ele>
        <time>2020-07-01T08:32:06Z</time>
      </trkpt>
      <trkpt lat="49.07172" lon="3.48461">
        <ele>68.3</ele>
        <time>2020-07-01T08:32:07Z</time>
      </trkpt>
      <trkpt lat="49.07167" lon="3.48454">
        <ele>68.3</ele>
        <time>2020-07-01T08:32:08Z</time>
      </trkpt>
      <trkpt lat="49.07162" lon="3.48448">
        <ele>68.2</ele>
        <time>2020-07-01T08:32:09Z</time>
      </trkpt>
      <trkpt lat="49.07157" lon="3.48441">
        <ele>68.1</ele>
        <time>2020-07-01T08:32:10Z</time>
      </trkpt>
      <trkpt lat="49.07152" lon="3.48436">
        <ele>68</ele>
        <time>2020-07-01T08:32:11Z</time>
      </trkpt>
      <trkpt lat="49.07148" lon="3.4843">
        <ele>68</ele>
        <time>2020-07-01T08:32:12Z</time>
      </trkpt>
      <trkpt lat="49.07143" lon="3.48424">
        <ele>67.9</ele>
        <time>2020-07-01T08:32:13Z</time>
      </trkpt>
      <trkpt lat="49.07138" lon="3.48418">
        <ele>67.8</ele>
        <time>2020-07-01T08:32:14Z</time>
      </trkpt>
      <trkpt lat="49.07133" lon="3.48412">
        <ele>67.7</ele>
        <time>2020-07-01T08:32:15Z</time>
      </trkpt>
      <trkpt lat="49.07128" lon="3.48406">
        <ele>67.6</ele>
        <time>2020-07-01T08:32:16Z</time>
      </trkpt>
      <trkpt lat="49.07123" lon="3.484">
        <ele>67.5</ele>
        <time>2020-07-01T08:32:17Z</time>
      </trkpt>
      <trkpt lat="49.07119" lon="3.48394">
        <ele>67.5</ele>
        <time>2020-07-01T08:32:18Z</time>
      </trkpt>
      <trkpt lat="49.07114" lon="3.48388">
        <ele>67.4</ele>
        <time>2020-07-01T08:32:19Z</time>
      </trkpt>
      <trkpt lat="49.0711" lon="3.48382">
        <ele>67.4</ele>
        <time>2020-07-01T08:32:20Z</time>
      </trkpt>
      <trkpt lat="49.07105" lon="3.48377">
        <ele>67.3</ele>
        <time>2020-07-01T08:32:21Z</time>
      </trkpt>
      <trkpt lat="49.07101" lon="3.48371">
        <ele>67.3</ele>
        <time>2020-07-01T08:32:22Z</time>
      </trkpt>
      <trkpt lat="49.07096" lon="3.48365">
        <ele>67.2</ele>
        <time>2020-07-01T08:32:23Z</time>
      </trkpt>
      <trkpt lat="49.07091" lon="3.48359">
        <ele>67.1</ele>
        <time>2020-07-01T08:32:24Z</time>
      </trkpt>
      <trkpt lat="49.07086" lon="3.48354">
        <ele>67</ele>
        <time>2020-07-01T08:32:25Z</time>
      </trkpt>
      <trkpt lat="49.07082" lon="3.48348">
        <ele>66.9</ele>
        <time>2020-07-01T08:32:26Z</time>
      </trkpt>
      <trkpt lat="49.07077" lon="3.48343">
        <ele>66.8</ele>
        <time>2020-07-01T08:32:27Z</time>
      </trkpt>
      <trkpt lat="49.07073" lon="3.48337">
        <ele>66.7</ele>
        <time>2020-07-01T08:32:28Z</time>
      </trkpt>
      <trkpt lat="49.07069" lon="3.48331">
        <ele>66.5</ele>
        <time>2020-07-01T08:32:29Z</time>
      </trkpt>
      <trkpt lat="49.07064" lon="3.48325">
        <ele>66.4</ele>
        <time>2020-07-01T08:32:30Z</time>
      </trkpt>
      <trkpt lat="49.0706" lon="3.48319">
        <ele>66.2</ele>
        <time>2020-07-01T08:32:31Z</time>
      </trkpt>
      <trkpt lat="49.07055" lon="3.48313">
        <ele>66.1</ele>
        <time>2020-07-01T08:32:32Z</time>
      </trkpt>
      <trkpt lat="49.0705" lon="3.48308">
        <ele>66</ele>
        <time>2020-07-01T08:32:33Z</time>
      </trkpt>
      <trkpt lat="49.07045" lon="3.48302">
        <ele>65.8</ele>
        <time>2020-07-01T08:32:34Z</time>
      </trkpt>
      <trkpt lat="49.0704" lon="3.48296">
        <ele>65.7</ele>
        <time>2020-07-01T08:32:35Z</time>
      </trkpt>
      <trkpt lat="49.07035" lon="3.4829">
        <ele>65.6</ele>
        <time>2020-07-01T08:32:36Z</time>
      </trkpt>
      <trkpt lat="49.0703" lon="3.48286">
        <ele>65.6</ele>
        <time>2020-07-01T08:32:37Z</time>
      </trkpt>
      <trkpt lat="49.07025" lon="3.48282">
        <ele>65.5</ele>
        <time>2020-07-01T08:32:38Z</time>
      </trkpt>
      <trkpt lat="49.07019" lon="3.48277">
        <ele>65.4</ele>
        <time>2020-07-01T08:32:39Z</time>
      </trkpt>
      <trkpt lat="49.07014" lon="3.48273">
        <ele>65.3</ele>
        <time>2020-07-01T08:32:40Z</time>
      </trkpt>
      <trkpt lat="49.07009" lon="3.4827">
        <ele>65.2</ele>
        <time>2020-07-01T08:32:41Z</time>
      </trkpt>
      <trkpt lat="49.07003" lon="3.48266">
        <ele>65.1</ele>
        <time>2020-07-01T08:32:42Z</time>
      </trkpt>
      <trkpt lat="49.06997" lon="3.48262">
        <ele>65</ele>
        <time>2020-07-01T08:32:43Z</time>
      </trkpt>
      <trkpt lat="49.06992" lon="3.48259">
        <ele>65</ele>
        <time>2020-07-01T08:32:44Z</time>
      </trkpt>
      <trkpt lat="49.06985" lon="3.48256">
        <ele>64.9</ele>
        <time>2020-07-01T08:32:45Z</time>
      </trkpt>
      <trkpt lat="49.06979" lon="3.48252">
        <ele>64.8</ele>
        <time>2020-07-01T08:32:46Z</time>
      </trkpt>
      <trkpt lat="49.06973" lon="3.48249">
        <ele>64.8</ele>
        <time>2020-07-01T08:32:47Z</time>
      </trkpt>
      <trkpt lat="49.06967" lon="3.48245">
        <ele>64.7</ele>
        <time>2020-07-01T08:32:48Z</time>
      </trkpt>
      <trkpt lat="49.06961" lon="3.48241">
        <ele>64.6</ele>
        <time>2020-07-01T08:32:49Z</time>
      </trkpt>
      <trkpt lat="49.06955" lon="3.48237">
        <ele>64.5</ele>
        <time>2020-07-01T08:32:50Z</time>
      </trkpt>
      <trkpt lat="49.06948" lon="3.48232">
        <ele>64.3</ele>
        <time>2020-07-01T08:32:51Z</time>
      </trkpt>
      <trkpt lat="49.06942" lon="3.48228">
        <ele>64.2</ele>
        <time>2020-07-01T08:32:52Z</time>
      </trkpt>
      <trkpt lat="49.06936" lon="3.48224">
        <ele>64.1</ele>
        <time>2020-07-01T08:32:53Z</time>
      </trkpt>
      <trkpt lat="49.06931" lon="3.48219">
        <ele>64</ele>
        <time>2020-07-01T08:32:54Z</time>
      </trkpt>
      <trkpt lat="49.06925" lon="3.48215">
        <ele>63.9</ele>
        <time>2020-07-01T08:32:55Z</time>
      </trkpt>
      <trkpt lat="49.06919" lon="3.48211">
        <ele>63.9</ele>
        <time>2020-07-01T08:32:56Z</time>
      </trkpt>
      <trkpt lat="49.06913" lon="3.48206">
        <ele>63.9</ele>
        <time>2020-07-01T08:32:57Z</time>
      </trkpt>
      <trkpt lat="49.06908" lon="3.48202">
        <ele>63.8</ele>
        <time>2020-07-01T08:32:58Z</time>
      </trkpt>
      <trkpt lat="49.06902" lon="3.48198">
        <ele>63.8</ele>
        <time>2020-07-01T08:32:59Z</time>
      </trkpt>
      <trkpt lat="49.06896" lon="3.48195">
        <ele>63.8</ele>
        <time>2020-07-01T08:33:00Z</time>
      </trkpt>
      <trkpt lat="49.0689" lon="3.48191">
        <ele>63.8</ele>
        <time>2020-07-01T08:33:01Z</time>
      </trkpt>
      <trkpt lat="49.06884" lon="3.48187">
        <ele>63.8</ele>
        <time>2020-07-01T08:33:02Z</time>
      </trkpt>
      <trkpt lat="49.06878" lon="3.48183">
        <ele>63.8</ele>
        <time>2020-07-01T08:33:03Z</time>
      </trkpt>
      <trkpt lat="49.06872" lon="3.48179">
        <ele>63.8</ele>
        <time>2020-07-01T08:33:04Z</time>
      </trkpt>
      <trkpt lat="49.06866" lon="3.48176">
        <ele>63.8</ele>
        <time>2020-07-01T08:33:05Z</time>
      </trkpt>
      <trkpt lat="49.06861" lon="3.48172">
        <ele>63.7</ele>
        <time>2020-07-01T08:33:06Z</time>
      </trkpt>
      <trkpt lat="49.06855" lon="3.48168">
        <ele>63.7</ele>
        <time>2020-07-01T08:33:07Z</time>
      </trkpt>
      <trkpt lat="49.0685" lon="3.48164">
        <ele>63.7</ele>
        <time>2020-07-01T08:33:08Z</time>
      </trkpt>
      <trkpt lat="49.06844" lon="3.4816">
        <ele>63.7</ele>
        <time>2020-07-01T08:33:09Z</time>
      </trkpt>
      <trkpt lat="49.06838" lon="3.48156">
        <ele>63.6</ele>
        <time>2020-07-01T08:33:10Z</time>
      </trkpt>
      <trkpt lat="49.06833" lon="3.48153">
        <ele>63.6</ele>
        <time>2020-07-01T08:33:11Z</time>
      </trkpt>
      <trkpt lat="49.06827" lon="3.48149">
        <ele>63.6</ele>
        <time>2020-07-01T08:33:12Z</time>
      </trkpt>
      <trkpt lat="49.06822" lon="3.48144">
        <ele>63.6</ele>
        <time>2020-07-01T08:33:13Z</time>
      </trkpt>
      <trkpt lat="49.06816" lon="3.48141">
        <ele>63.6</ele>
        <time>2020-07-01T08:33:14Z</time>
      </trkpt>
      <trkpt lat="49.06811" lon="3.48138">
        <ele>63.7</ele>
        <time>2020-07-01T08:33:15Z</time>
      </trkpt>
      <trkpt lat="49.06805" lon="3.48134">
        <ele>63.8</ele>
        <time>2020-07-01T08:33:16Z</time>
      </trkpt>
      <trkpt lat="49.068" lon="3.48131">
        <ele>63.9</ele>
        <time>2020-07-01T08:33:17Z</time>
      </trkpt>
      <trkpt lat="49.06795" lon="3.48128">
        <ele>63.9</ele>
        <time>2020-07-01T08:33:18Z</time>
      </trkpt>
      <trkpt lat="49.0679" lon="3.48124">
        <ele>64</ele>
        <time>2020-07-01T08:33:19Z</time>
      </trkpt>
      <trkpt lat="49.06785" lon="3.4812">
        <ele>64.3</ele>
        <time>2020-07-01T08:33:20Z</time>
      </trkpt>
      <trkpt lat="49.0678" lon="3.48117">
        <ele>64.3</ele>
        <time>2020-07-01T08:33:21Z</time>
      </trkpt>
      <trkpt lat="49.06775" lon="3.48114">
        <ele>64.2</ele>
        <time>2020-07-01T08:33:22Z</time>
      </trkpt>
      <trkpt lat="49.0677" lon="3.4811">
        <ele>64.1</ele>
        <time>2020-07-01T08:33:23Z</time>
      </trkpt>
      <trkpt lat="49.06765" lon="3.48107">
        <ele>64</ele>
        <time>2020-07-01T08:33:24Z</time>
      </trkpt>
      <trkpt lat="49.0676" lon="3.48104">
        <ele>64</ele>
        <time>2020-07-01T08:33:25Z</time>
      </trkpt>
      <trkpt lat="49.06755" lon="3.481">
        <ele>63.9</ele>
        <time>2020-07-01T08:33:26Z</time>
      </trkpt>
      <trkpt lat="49.0675" lon="3.48097">
        <ele>63.9</ele>
        <time>2020-07-01T08:33:27Z</time>
      </trkpt>
      <trkpt lat="49.06746" lon="3.48093">
        <ele>63.9</ele>
        <time>2020-07-01T08:33:28Z</time>
      </trkpt>
      <trkpt lat="49.06741" lon="3.4809">
        <ele>63.9</ele>
        <time>2020-07-01T08:33:29Z</time>
      </trkpt>
      <trkpt lat="49.06737" lon="3.48086">
        <ele>63.9</ele>
        <time>2020-07-01T08:33:30Z</time>
      </trkpt>
      <trkpt lat="49.06732" lon="3.48083">
        <ele>63.9</ele>
        <time>2020-07-01T08:33:31Z</time>
      </trkpt>
      <trkpt lat="49.06728" lon="3.48079">
        <ele>63.8</ele>
        <time>2020-07-01T08:33:32Z</time>
      </trkpt>
      <trkpt lat="49.06723" lon="3.48076">
        <ele>63.8</ele>
        <time>2020-07-01T08:33:33Z</time>
      </trkpt>
      <trkpt lat="49.06718" lon="3.48072">
        <ele>63.8</ele>
        <time>2020-07-01T08:33:34Z</time>
      </trkpt>
      <trkpt lat="49.06714" lon="3.48068">
        <ele>63.8</ele>
        <time>2020-07-01T08:33:35Z</time>
      </trkpt>
      <trkpt lat="49.06709" lon="3.48065">
        <ele>63.8</ele>
        <time>2020-07-01T08:33:36Z</time>
      </trkpt>
      <trkpt lat="49.06705" lon="3.48062">
        <ele>63.8</ele>
        <time>2020-07-01T08:33:37Z</time>
      </trkpt>
      <trkpt lat="49.067" lon="3.48059">
        <ele>63.8</ele>
        <time>2020-07-01T08:33:38Z</time>
      </trkpt>
      <trkpt lat="49.06695" lon="3.48056">
        <ele>63.8</ele>
        <time>2020-07-01T08:33:39Z</time>
      </trkpt>
      <trkpt lat="49.06689" lon="3.48052">
        <ele>63.8</ele>
        <time>2020-07-01T08:33:40Z</time>
      </trkpt>
      <trkpt lat="49.06684" lon="3.48048">
        <ele>63.7</ele>
        <time>2020-07-01T08:33:41Z</time>
      </trkpt>
      <trkpt lat="49.06678" lon="3.48045">
        <ele>63.7</ele>
        <time>2020-07-01T08:33:42Z</time>
      </trkpt>
      <trkpt lat="49.06672" lon="3.48041">
        <ele>63.7</ele>
        <time>2020-07-01T08:33:43Z</time>
      </trkpt>
      <trkpt lat="49.06667" lon="3.48038">
        <ele>63.6</ele>
        <time>2020-07-01T08:33:44Z</time>
      </trkpt>
      <trkpt lat="49.06661" lon="3.48035">
        <ele>63.6</ele>
        <time>2020-07-01T08:33:45Z</time>
      </trkpt>
      <trkpt lat="49.06655" lon="3.48031">
        <ele>63.6</ele>
        <time>2020-07-01T08:33:46Z</time>
      </trkpt>
      <trkpt lat="49.0665" lon="3.48029">
        <ele>63.6</ele>
        <time>2020-07-01T08:33:47Z</time>
      </trkpt>
      <trkpt lat="49.06644" lon="3.48025">
        <ele>63.6</ele>
        <time>2020-07-01T08:33:48Z</time>
      </trkpt>
      <trkpt lat="49.06639" lon="3.48022">
        <ele>63.5</ele>
        <time>2020-07-01T08:33:49Z</time>
      </trkpt>
      <trkpt lat="49.06633" lon="3.48019">
        <ele>63.5</ele>
        <time>2020-07-01T08:33:50Z</time>
      </trkpt>
      <trkpt lat="49.06628" lon="3.48015">
        <ele>63.5</ele>
        <time>2020-07-01T08:33:51Z</time>
      </trkpt>
      <trkpt lat="49.06623" lon="3.48012">
        <ele>63.5</ele>
        <time>2020-07-01T08:33:52Z</time>
      </trkpt>
      <trkpt lat="49.06617" lon="3.48008">
        <ele>63.4</ele>
        <time>2020-07-01T08:33:53Z</time>
      </trkpt>
      <trkpt lat="49.06611" lon="3.48005">
        <ele>63.4</ele>
        <time>2020-07-01T08:33:54Z</time>
      </trkpt>
      <trkpt lat="49.06606" lon="3.48">
        <ele>63.3</ele>
        <time>2020-07-01T08:33:55Z</time>
      </trkpt>
      <trkpt lat="49.066" lon="3.47997">
        <ele>63.2</ele>
        <time>2020-07-01T08:33:56Z</time>
      </trkpt>
      <trkpt lat="49.06594" lon="3.47993">
        <ele>63.2</ele>
        <time>2020-07-01T08:33:57Z</time>
      </trkpt>
      <trkpt lat="49.06589" lon="3.47989">
        <ele>63.1</ele>
        <time>2020-07-01T08:33:58Z</time>
      </trkpt>
      <trkpt lat="49.06583" lon="3.47986">
        <ele>63.1</ele>
        <time>2020-07-01T08:33:59Z</time>
      </trkpt>
      <trkpt lat="49.06576" lon="3.47982">
        <ele>63</ele>
        <time>2020-07-01T08:34:00Z</time>
      </trkpt>
      <trkpt lat="49.0657" lon="3.47978">
        <ele>63</ele>
        <time>2020-07-01T08:34:01Z</time>
      </trkpt>
      <trkpt lat="49.06564" lon="3.47974">
        <ele>63</ele>
        <time>2020-07-01T08:34:02Z</time>
      </trkpt>
      <trkpt lat="49.06558" lon="3.47971">
        <ele>63</ele>
        <time>2020-07-01T08:34:03Z</time>
      </trkpt>
      <trkpt lat="49.06552" lon="3.47966">
        <ele>63</ele>
        <time>2020-07-01T08:34:04Z</time>
      </trkpt>
      <trkpt lat="49.06546" lon="3.47961">
        <ele>62.9</ele>
        <time>2020-07-01T08:34:05Z</time>
      </trkpt>
      <trkpt lat="49.0654" lon="3.47957">
        <ele>62.8</ele>
        <time>2020-07-01T08:34:06Z</time>
      </trkpt>
      <trkpt lat="49.06534" lon="3.47953">
        <ele>62.8</ele>
        <time>2020-07-01T08:34:07Z</time>
      </trkpt>
      <trkpt lat="49.06528" lon="3.47949">
        <ele>62.8</ele>
        <time>2020-07-01T08:34:08Z</time>
      </trkpt>
      <trkpt lat="49.06523" lon="3.47945">
        <ele>62.8</ele>
        <time>2020-07-01T08:34:09Z</time>
      </trkpt>
      <trkpt lat="49.06517" lon="3.47941">
        <ele>62.9</ele>
        <time>2020-07-01T08:34:10Z</time>
      </trkpt>
      <trkpt lat="49.06512" lon="3.47938">
        <ele>63</ele>
        <time>2020-07-01T08:34:11Z</time>
      </trkpt>
      <trkpt lat="49.06506" lon="3.47934">
        <ele>63</ele>
        <time>2020-07-01T08:34:12Z</time>
      </trkpt>
      <trkpt lat="49.06501" lon="3.47931">
        <ele>62.8</ele>
        <time>2020-07-01T08:34:13Z</time>
      </trkpt>
      <trkpt lat="49.06495" lon="3.47927">
        <ele>62.7</ele>
        <time>2020-07-01T08:34:14Z</time>
      </trkpt>
      <trkpt lat="49.06489" lon="3.47923">
        <ele>62.6</ele>
        <time>2020-07-01T08:34:15Z</time>
      </trkpt>
      <trkpt lat="49.06484" lon="3.4792">
        <ele>62.5</ele>
        <time>2020-07-01T08:34:16Z</time>
      </trkpt>
      <trkpt lat="49.06479" lon="3.47916">
        <ele>62.4</ele>
        <time>2020-07-01T08:34:17Z</time>
      </trkpt>
      <trkpt lat="49.06473" lon="3.47912">
        <ele>62.4</ele>
        <time>2020-07-01T08:34:18Z</time>
      </trkpt>
      <trkpt lat="49.06468" lon="3.47909">
        <ele>62.4</ele>
        <time>2020-07-01T08:34:19Z</time>
      </trkpt>
      <trkpt lat="49.06463" lon="3.47906">
        <ele>62.4</ele>
        <time>2020-07-01T08:34:20Z</time>
      </trkpt>
      <trkpt lat="49.06458" lon="3.47903">
        <ele>62.4</ele>
        <time>2020-07-01T08:34:21Z</time>
      </trkpt>
      <trkpt lat="49.06453" lon="3.479">
        <ele>62.4</ele>
        <time>2020-07-01T08:34:22Z</time>
      </trkpt>
      <trkpt lat="49.06448" lon="3.47896">
        <ele>62.3</ele>
        <time>2020-07-01T08:34:23Z</time>
      </trkpt>
      <trkpt lat="49.06443" lon="3.47893">
        <ele>62.3</ele>
        <time>2020-07-01T08:34:24Z</time>
      </trkpt>
      <trkpt lat="49.06438" lon="3.47889">
        <ele>62.3</ele>
        <time>2020-07-01T08:34:25Z</time>
      </trkpt>
      <trkpt lat="49.06434" lon="3.47886">
        <ele>62.3</ele>
        <time>2020-07-01T08:34:26Z</time>
      </trkpt>
      <trkpt lat="49.06429" lon="3.47882">
        <ele>62.3</ele>
        <time>2020-07-01T08:34:27Z</time>
      </trkpt>
      <trkpt lat="49.06424" lon="3.47879">
        <ele>62.3</ele>
        <time>2020-07-01T08:34:28Z</time>
      </trkpt>
      <trkpt lat="49.06419" lon="3.47875">
        <ele>62.3</ele>
        <time>2020-07-01T08:34:29Z</time>
      </trkpt>
      <trkpt lat="49.06414" lon="3.47872">
        <ele>62.3</ele>
        <time>2020-07-01T08:34:30Z</time>
      </trkpt>
      <trkpt lat="49.06409" lon="3.47868">
        <ele>62.3</ele>
        <time>2020-07-01T08:34:31Z</time>
      </trkpt>
      <trkpt lat="49.06404" lon="3.47866">
        <ele>62.4</ele>
        <time>2020-07-01T08:34:32Z</time>
      </trkpt>
      <trkpt lat="49.06399" lon="3.47862">
        <ele>62.4</ele>
        <time>2020-07-01T08:34:33Z</time>
      </trkpt>
      <trkpt lat="49.06394" lon="3.47859">
        <ele>62.4</ele>
        <time>2020-07-01T08:34:34Z</time>
      </trkpt>
      <trkpt lat="49.0639" lon="3.47856">
        <ele>62.5</ele>
        <time>2020-07-01T08:34:35Z</time>
      </trkpt>
      <trkpt lat="49.06385" lon="3.47853">
        <ele>62.5</ele>
        <time>2020-07-01T08:34:36Z</time>
      </trkpt>
      <trkpt lat="49.0638" lon="3.4785">
        <ele>62.5</ele>
        <time>2020-07-01T08:34:37Z</time>
      </trkpt>
      <trkpt lat="49.06375" lon="3.47846">
        <ele>62.6</ele>
        <time>2020-07-01T08:34:38Z</time>
      </trkpt>
      <trkpt lat="49.06371" lon="3.47844">
        <ele>62.6</ele>
        <time>2020-07-01T08:34:39Z</time>
      </trkpt>
      <trkpt lat="49.06366" lon="3.47841">
        <ele>62.6</ele>
        <time>2020-07-01T08:34:40Z</time>
      </trkpt>
      <trkpt lat="49.06361" lon="3.47838">
        <ele>62.7</ele>
        <time>2020-07-01T08:34:41Z</time>
      </trkpt>
      <trkpt lat="49.06357" lon="3.47835">
        <ele>62.7</ele>
        <time>2020-07-01T08:34:42Z</time>
      </trkpt>
      <trkpt lat="49.06352" lon="3.47832">
        <ele>62.7</ele>
        <time>2020-07-01T08:34:43Z</time>
      </trkpt>
      <trkpt lat="49.06348" lon="3.47829">
        <ele>62.7</ele>
        <time>2020-07-01T08:34:44Z</time>
      </trkpt>
      <trkpt lat="49.06344" lon="3.47827">
        <ele>62.8</ele>
        <time>2020-07-01T08:34:45Z</time>
      </trkpt>
      <trkpt lat="49.06339" lon="3.47824">
        <ele>62.8</ele>
        <time>2020-07-01T08:34:46Z</time>
      </trkpt>
      <trkpt lat="49.06335" lon="3.47821">
        <ele>62.8</ele>
        <time>2020-07-01T08:34:47Z</time>
      </trkpt>
      <trkpt lat="49.0633" lon="3.47817">
        <ele>62.8</ele>
        <time>2020-07-01T08:34:48Z</time>
      </trkpt>
      <trkpt lat="49.06326" lon="3.47813">
        <ele>62.9</ele>
        <time>2020-07-01T08:34:49Z</time>
      </trkpt>
      <trkpt lat="49.06321" lon="3.4781">
        <ele>62.9</ele>
        <time>2020-07-01T08:34:50Z</time>
      </trkpt>
      <trkpt lat="49.06317" lon="3.47807">
        <ele>62.9</ele>
        <time>2020-07-01T08:34:51Z</time>
      </trkpt>
      <trkpt lat="49.06313" lon="3.47804">
        <ele>63</ele>
        <time>2020-07-01T08:34:52Z</time>
      </trkpt>
      <trkpt lat="49.06308" lon="3.47801">
        <ele>63</ele>
        <time>2020-07-01T08:34:53Z</time>
      </trkpt>
      <trkpt lat="49.06303" lon="3.47798">
        <ele>63</ele>
        <time>2020-07-01T08:34:54Z</time>
      </trkpt>
      <trkpt lat="49.06299" lon="3.47795">
        <ele>63.1</ele>
        <time>2020-07-01T08:34:55Z</time>
      </trkpt>
      <trkpt lat="49.06294" lon="3.47792">
        <ele>63.1</ele>
        <time>2020-07-01T08:34:56Z</time>
      </trkpt>
      <trkpt lat="49.06289" lon="3.47789">
        <ele>63.2</ele>
        <time>2020-07-01T08:34:57Z</time>
      </trkpt>
      <trkpt lat="49.06285" lon="3.47786">
        <ele>63.2</ele>
        <time>2020-07-01T08:34:58Z</time>
      </trkpt>
      <trkpt lat="49.06281" lon="3.47783">
        <ele>63.3</ele>
        <time>2020-07-01T08:34:59Z</time>
      </trkpt>
      <trkpt lat="49.06276" lon="3.4778">
        <ele>63.3</ele>
        <time>2020-07-01T08:35:00Z</time>
      </trkpt>
      <trkpt lat="49.06272" lon="3.47777">
        <ele>63.3</ele>
        <time>2020-07-01T08:35:01Z</time>
      </trkpt>
      <trkpt lat="49.06268" lon="3.47775">
        <ele>63.4</ele>
        <time>2020-07-01T08:35:02Z</time>
      </trkpt>
      <trkpt lat="49.06263" lon="3.47772">
        <ele>63.4</ele>
        <time>2020-07-01T08:35:03Z</time>
      </trkpt>
      <trkpt lat="49.06259" lon="3.47769">
        <ele>63.4</ele>
        <time>2020-07-01T08:35:04Z</time>
      </trkpt>
      <trkpt lat="49.06254" lon="3.47766">
        <ele>63.5</ele>
        <time>2020-07-01T08:35:05Z</time>
      </trkpt>
      <trkpt lat="49.0625" lon="3.47763">
        <ele>63.5</ele>
        <time>2020-07-01T08:35:06Z</time>
      </trkpt>
      <trkpt lat="49.06246" lon="3.47759">
        <ele>63.5</ele>
        <time>2020-07-01T08:35:07Z</time>
      </trkpt>
      <trkpt lat="49.06242" lon="3.47756">
        <ele>63.6</ele>
        <time>2020-07-01T08:35:08Z</time>
      </trkpt>
      <trkpt lat="49.06237" lon="3.47752">
        <ele>63.6</ele>
        <time>2020-07-01T08:35:09Z</time>
      </trkpt>
      <trkpt lat="49.06233" lon="3.47749">
        <ele>63.6</ele>
        <time>2020-07-01T08:35:10Z</time>
      </trkpt>
      <trkpt lat="49.06229" lon="3.47747">
        <ele>63.6</ele>
        <time>2020-07-01T08:35:11Z</time>
      </trkpt>
      <trkpt lat="49.06224" lon="3.47744">
        <ele>63.6</ele>
        <time>2020-07-01T08:35:12Z</time>
      </trkpt>
      <trkpt lat="49.06219" lon="3.47741">
        <ele>63.6</ele>
        <time>2020-07-01T08:35:13Z</time>
      </trkpt>
      <trkpt lat="49.06215" lon="3.47738">
        <ele>63.6</ele>
        <time>2020-07-01T08:35:14Z</time>
      </trkpt>
      <trkpt lat="49.0621" lon="3.47735">
        <ele>63.7</ele>
        <time>2020-07-01T08:35:15Z</time>
      </trkpt>
      <trkpt lat="49.06205" lon="3.47732">
        <ele>63.7</ele>
        <time>2020-07-01T08:35:16Z</time>
      </trkpt>
      <trkpt lat="49.06201" lon="3.47729">
        <ele>63.8</ele>
        <time>2020-07-01T08:35:17Z</time>
      </trkpt>
      <trkpt lat="49.06196" lon="3.47726">
        <ele>63.8</ele>
        <time>2020-07-01T08:35:18Z</time>
      </trkpt>
      <trkpt lat="49.06191" lon="3.47722">
        <ele>63.6</ele>
        <time>2020-07-01T08:35:19Z</time>
      </trkpt>
      <trkpt lat="49.06185" lon="3.47718">
        <ele>63.5</ele>
        <time>2020-07-01T08:35:20Z</time>
      </trkpt>
      <trkpt lat="49.06181" lon="3.47716">
        <ele>63.4</ele>
        <time>2020-07-01T08:35:21Z</time>
      </trkpt>
      <trkpt lat="49.06176" lon="3.47713">
        <ele>63.3</ele>
        <time>2020-07-01T08:35:22Z</time>
      </trkpt>
      <trkpt lat="49.06172" lon="3.4771">
        <ele>63.3</ele>
        <time>2020-07-01T08:35:23Z</time>
      </trkpt>
      <trkpt lat="49.06167" lon="3.47707">
        <ele>63.2</ele>
        <time>2020-07-01T08:35:24Z</time>
      </trkpt>
      <trkpt lat="49.06163" lon="3.47704">
        <ele>63.2</ele>
        <time>2020-07-01T08:35:25Z</time>
      </trkpt>
      <trkpt lat="49.06157" lon="3.47701">
        <ele>63.2</ele>
        <time>2020-07-01T08:35:26Z</time>
      </trkpt>
      <trkpt lat="49.06152" lon="3.47697">
        <ele>63.1</ele>
        <time>2020-07-01T08:35:27Z</time>
      </trkpt>
      <trkpt lat="49.06148" lon="3.47694">
        <ele>63.1</ele>
        <time>2020-07-01T08:35:28Z</time>
      </trkpt>
      <trkpt lat="49.06142" lon="3.47691">
        <ele>63</ele>
        <time>2020-07-01T08:35:29Z</time>
      </trkpt>
      <trkpt lat="49.06137" lon="3.47688">
        <ele>63</ele>
        <time>2020-07-01T08:35:30Z</time>
      </trkpt>
      <trkpt lat="49.06132" lon="3.47684">
        <ele>63</ele>
        <time>2020-07-01T08:35:31Z</time>
      </trkpt>
      <trkpt lat="49.06128" lon="3.47681">
        <ele>62.9</ele>
        <time>2020-07-01T08:35:32Z</time>
      </trkpt>
      <trkpt lat="49.06122" lon="3.47677">
        <ele>62.9</ele>
        <time>2020-07-01T08:35:33Z</time>
      </trkpt>
      <trkpt lat="49.06117" lon="3.47673">
        <ele>62.9</ele>
        <time>2020-07-01T08:35:34Z</time>
      </trkpt>
      <trkpt lat="49.06112" lon="3.47669">
        <ele>62.9</ele>
        <time>2020-07-01T08:35:35Z</time>
      </trkpt>
      <trkpt lat="49.06107" lon="3.47665">
        <ele>62.9</ele>
        <time>2020-07-01T08:35:36Z</time>
      </trkpt>
      <trkpt lat="49.06103" lon="3.47662">
        <ele>62.9</ele>
        <time>2020-07-01T08:35:37Z</time>
      </trkpt>
      <trkpt lat="49.06099" lon="3.47659">
        <ele>62.8</ele>
        <time>2020-07-01T08:35:38Z</time>
      </trkpt>
      <trkpt lat="49.06096" lon="3.47656">
        <ele>62.8</ele>
        <time>2020-07-01T08:35:39Z</time>
      </trkpt>
      <trkpt lat="49.06091" lon="3.47654">
        <ele>62.8</ele>
        <time>2020-07-01T08:35:40Z</time>
      </trkpt>
      <trkpt lat="49.06086" lon="3.4765">
        <ele>62.8</ele>
        <time>2020-07-01T08:35:41Z</time>
      </trkpt>
      <trkpt lat="49.06082" lon="3.47648">
        <ele>62.8</ele>
        <time>2020-07-01T08:35:42Z</time>
      </trkpt>
      <trkpt lat="49.06078" lon="3.47645">
        <ele>62.7</ele>
        <time>2020-07-01T08:35:43Z</time>
      </trkpt>
      <trkpt lat="49.06074" lon="3.47642">
        <ele>62.7</ele>
        <time>2020-07-01T08:35:44Z</time>
      </trkpt>
      <trkpt lat="49.06069" lon="3.47639">
        <ele>62.7</ele>
        <time>2020-07-01T08:35:45Z</time>
      </trkpt>
      <trkpt lat="49.06064" lon="3.47636">
        <ele>62.7</ele>
        <time>2020-07-01T08:35:46Z</time>
      </trkpt>
      <trkpt lat="49.0606" lon="3.47633">
        <ele>62.7</ele>
        <time>2020-07-01T08:35:47Z</time>
      </trkpt>
      <trkpt lat="49.06055" lon="3.4763">
        <ele>62.6</ele>
        <time>2020-07-01T08:35:48Z</time>
      </trkpt>
      <trkpt lat="49.0605" lon="3.47627">
        <ele>62.6</ele>
        <time>2020-07-01T08:35:49Z</time>
      </trkpt>
      <trkpt lat="49.06045" lon="3.47623">
        <ele>62.6</ele>
        <time>2020-07-01T08:35:50Z</time>
      </trkpt>
      <trkpt lat="49.0604" lon="3.4762">
        <ele>62.6</ele>
        <time>2020-07-01T08:35:51Z</time>
      </trkpt>
      <trkpt lat="49.06035" lon="3.47617">
        <ele>62.6</ele>
        <time>2020-07-01T08:35:52Z</time>
      </trkpt>
      <trkpt lat="49.0603" lon="3.47613">
        <ele>62.6</ele>
        <time>2020-07-01T08:35:53Z</time>
      </trkpt>
      <trkpt lat="49.06026" lon="3.47611">
        <ele>62.6</ele>
        <time>2020-07-01T08:35:54Z</time>
      </trkpt>
      <trkpt lat="49.06022" lon="3.47607">
        <ele>62.5</ele>
        <time>2020-07-01T08:35:55Z</time>
      </trkpt>
      <trkpt lat="49.06017" lon="3.47604">
        <ele>62.5</ele>
        <time>2020-07-01T08:35:56Z</time>
      </trkpt>
      <trkpt lat="49.06013" lon="3.47601">
        <ele>62.5</ele>
        <time>2020-07-01T08:35:57Z</time>
      </trkpt>
      <trkpt lat="49.06008" lon="3.47597">
        <ele>62.5</ele>
        <time>2020-07-01T08:35:58Z</time>
      </trkpt>
      <trkpt lat="49.06004" lon="3.47593">
        <ele>62.5</ele>
        <time>2020-07-01T08:35:59Z</time>
      </trkpt>
      <trkpt lat="49.05999" lon="3.4759">
        <ele>62.5</ele>
        <time>2020-07-01T08:36:00Z</time>
      </trkpt>
      <trkpt lat="49.05993" lon="3.47586">
        <ele>62.4</ele>
        <time>2020-07-01T08:36:01Z</time>
      </trkpt>
      <trkpt lat="49.05988" lon="3.47582">
        <ele>62.4</ele>
        <time>2020-07-01T08:36:02Z</time>
      </trkpt>
      <trkpt lat="49.05983" lon="3.47579">
        <ele>62.4</ele>
        <time>2020-07-01T08:36:03Z</time>
      </trkpt>
      <trkpt lat="49.05978" lon="3.47575">
        <ele>62.4</ele>
        <time>2020-07-01T08:36:04Z</time>
      </trkpt>
      <trkpt lat="49.05973" lon="3.47572">
        <ele>62.4</ele>
        <time>2020-07-01T08:36:05Z</time>
      </trkpt>
      <trkpt lat="49.05966" lon="3.47567">
        <ele>62.5</ele>
        <time>2020-07-01T08:36:06Z</time>
      </trkpt>
      <trkpt lat="49.05961" lon="3.47564">
        <ele>62.5</ele>
        <time>2020-07-01T08:36:07Z</time>
      </trkpt>
      <trkpt lat="49.05956" lon="3.4756">
        <ele>62.5</ele>
        <time>2020-07-01T08:36:08Z</time>
      </trkpt>
      <trkpt lat="49.05951" lon="3.47557">
        <ele>62.5</ele>
        <time>2020-07-01T08:36:09Z</time>
      </trkpt>
      <trkpt lat="49.05946" lon="3.47553">
        <ele>62.5</ele>
        <time>2020-07-01T08:36:10Z</time>
      </trkpt>
      <trkpt lat="49.05942" lon="3.47551">
        <ele>62.6</ele>
        <time>2020-07-01T08:36:11Z</time>
      </trkpt>
      <trkpt lat="49.05938" lon="3.47548">
        <ele>62.6</ele>
        <time>2020-07-01T08:36:12Z</time>
      </trkpt>
      <trkpt lat="49.05934" lon="3.47545">
        <ele>62.6</ele>
        <time>2020-07-01T08:36:13Z</time>
      </trkpt>
      <trkpt lat="49.0593" lon="3.47543">
        <ele>62.6</ele>
        <time>2020-07-01T08:36:14Z</time>
      </trkpt>
      <trkpt lat="49.05924" lon="3.47539">
        <ele>62.7</ele>
        <time>2020-07-01T08:36:15Z</time>
      </trkpt>
      <trkpt lat="49.05921" lon="3.47536">
        <ele>62.7</ele>
        <time>2020-07-01T08:36:16Z</time>
      </trkpt>
      <trkpt lat="49.05916" lon="3.47533">
        <ele>62.7</ele>
        <time>2020-07-01T08:36:17Z</time>
      </trkpt>
      <trkpt lat="49.05911" lon="3.4753">
        <ele>62.8</ele>
        <time>2020-07-01T08:36:18Z</time>
      </trkpt>
      <trkpt lat="49.05907" lon="3.47527">
        <ele>62.8</ele>
        <time>2020-07-01T08:36:19Z</time>
      </trkpt>
      <trkpt lat="49.05902" lon="3.47524">
        <ele>62.8</ele>
        <time>2020-07-01T08:36:20Z</time>
      </trkpt>
      <trkpt lat="49.05897" lon="3.47521">
        <ele>62.8</ele>
        <time>2020-07-01T08:36:21Z</time>
      </trkpt>
      <trkpt lat="49.05892" lon="3.47518">
        <ele>62.8</ele>
        <time>2020-07-01T08:36:22Z</time>
      </trkpt>
      <trkpt lat="49.05888" lon="3.47514">
        <ele>62.8</ele>
        <time>2020-07-01T08:36:23Z</time>
      </trkpt>
      <trkpt lat="49.05883" lon="3.47511">
        <ele>62.9</ele>
        <time>2020-07-01T08:36:24Z</time>
      </trkpt>
      <trkpt lat="49.05879" lon="3.47508">
        <ele>62.9</ele>
        <time>2020-07-01T08:36:25Z</time>
      </trkpt>
      <trkpt lat="49.05875" lon="3.47506">
        <ele>62.9</ele>
        <time>2020-07-01T08:36:26Z</time>
      </trkpt>
      <trkpt lat="49.0587" lon="3.47503">
        <ele>63</ele>
        <time>2020-07-01T08:36:27Z</time>
      </trkpt>
      <trkpt lat="49.05866" lon="3.475">
        <ele>63</ele>
        <time>2020-07-01T08:36:28Z</time>
      </trkpt>
      <trkpt lat="49.05862" lon="3.47497">
        <ele>63</ele>
        <time>2020-07-01T08:36:29Z</time>
      </trkpt>
      <trkpt lat="49.05857" lon="3.47494">
        <ele>63.1</ele>
        <time>2020-07-01T08:36:30Z</time>
      </trkpt>
      <trkpt lat="49.05852" lon="3.47491">
        <ele>63.1</ele>
        <time>2020-07-01T08:36:31Z</time>
      </trkpt>
      <trkpt lat="49.05847" lon="3.47488">
        <ele>63.2</ele>
        <time>2020-07-01T08:36:32Z</time>
      </trkpt>
      <trkpt lat="49.05843" lon="3.47485">
        <ele>63.2</ele>
        <time>2020-07-01T08:36:33Z</time>
      </trkpt>
      <trkpt lat="49.05839" lon="3.47483">
        <ele>63.2</ele>
        <time>2020-07-01T08:36:34Z</time>
      </trkpt>
      <trkpt lat="49.05835" lon="3.4748">
        <ele>63.3</ele>
        <time>2020-07-01T08:36:35Z</time>
      </trkpt>
      <trkpt lat="49.05831" lon="3.47478">
        <ele>63.3</ele>
        <time>2020-07-01T08:36:36Z</time>
      </trkpt>
      <trkpt lat="49.05827" lon="3.47476">
        <ele>63.3</ele>
        <time>2020-07-01T08:36:37Z</time>
      </trkpt>
      <trkpt lat="49.05824" lon="3.47474">
        <ele>63.4</ele>
        <time>2020-07-01T08:36:38Z</time>
      </trkpt>
      <trkpt lat="49.0582" lon="3.47471">
        <ele>63.4</ele>
        <time>2020-07-01T08:36:39Z</time>
      </trkpt>
      <trkpt lat="49.05816" lon="3.47469">
        <ele>63.4</ele>
        <time>2020-07-01T08:36:40Z</time>
      </trkpt>
      <trkpt lat="49.05812" lon="3.47466">
        <ele>63.5</ele>
        <time>2020-07-01T08:36:41Z</time>
      </trkpt>
      <trkpt lat="49.05807" lon="3.47463">
        <ele>63.5</ele>
        <time>2020-07-01T08:36:42Z</time>
      </trkpt>
      <trkpt lat="49.05803" lon="3.47459">
        <ele>63.5</ele>
        <time>2020-07-01T08:36:43Z</time>
      </trkpt>
      <trkpt lat="49.05798" lon="3.47457">
        <ele>63.5</ele>
        <time>2020-07-01T08:36:44Z</time>
      </trkpt>
      <trkpt lat="49.05794" lon="3.47454">
        <ele>63.5</ele>
        <time>2020-07-01T08:36:45Z</time>
      </trkpt>
      <trkpt lat="49.05789" lon="3.47451">
        <ele>63.5</ele>
        <time>2020-07-01T08:36:46Z</time>
      </trkpt>
      <trkpt lat="49.05784" lon="3.47447">
        <ele>63.5</ele>
        <time>2020-07-01T08:36:47Z</time>
      </trkpt>
      <trkpt lat="49.0578" lon="3.47444">
        <ele>63.5</ele>
        <time>2020-07-01T08:36:48Z</time>
      </trkpt>
      <trkpt lat="49.05775" lon="3.47441">
        <ele>63.4</ele>
        <time>2020-07-01T08:36:49Z</time>
      </trkpt>
      <trkpt lat="49.0577" lon="3.47438">
        <ele>63.4</ele>
        <time>2020-07-01T08:36:50Z</time>
      </trkpt>
      <trkpt lat="49.05765" lon="3.47434">
        <ele>63.4</ele>
        <time>2020-07-01T08:36:51Z</time>
      </trkpt>
      <trkpt lat="49.0576" lon="3.47431">
        <ele>63.4</ele>
        <time>2020-07-01T08:36:52Z</time>
      </trkpt>
      <trkpt lat="49.05754" lon="3.47427">
        <ele>63.3</ele>
        <time>2020-07-01T08:36:53Z</time>
      </trkpt>
      <trkpt lat="49.0575" lon="3.47424">
        <ele>63.3</ele>
        <time>2020-07-01T08:36:54Z</time>
      </trkpt>
      <trkpt lat="49.05744" lon="3.47421">
        <ele>63.2</ele>
        <time>2020-07-01T08:36:55Z</time>
      </trkpt>
      <trkpt lat="49.05739" lon="3.47418">
        <ele>63.2</ele>
        <time>2020-07-01T08:36:56Z</time>
      </trkpt>
      <trkpt lat="49.05735" lon="3.47415">
        <ele>63.1</ele>
        <time>2020-07-01T08:36:57Z</time>
      </trkpt>
      <trkpt lat="49.0573" lon="3.47412">
        <ele>63.1</ele>
        <time>2020-07-01T08:36:58Z</time>
      </trkpt>
      <trkpt lat="49.05726" lon="3.47409">
        <ele>63.1</ele>
        <time>2020-07-01T08:36:59Z</time>
      </trkpt>
      <trkpt lat="49.05722" lon="3.47407">
        <ele>63</ele>
        <time>2020-07-01T08:37:00Z</time>
      </trkpt>
      <trkpt lat="49.05718" lon="3.47404">
        <ele>63</ele>
        <time>2020-07-01T08:37:01Z</time>
      </trkpt>
      <trkpt lat="49.05714" lon="3.47402">
        <ele>63</ele>
        <time>2020-07-01T08:37:02Z</time>
      </trkpt>
      <trkpt lat="49.0571" lon="3.47399">
        <ele>62.9</ele>
        <time>2020-07-01T08:37:03Z</time>
      </trkpt>
      <trkpt lat="49.05706" lon="3.47396">
        <ele>62.9</ele>
        <time>2020-07-01T08:37:04Z</time>
      </trkpt>
      <trkpt lat="49.05703" lon="3.47394">
        <ele>62.9</ele>
        <time>2020-07-01T08:37:05Z</time>
      </trkpt>
      <trkpt lat="49.05698" lon="3.47391">
        <ele>62.9</ele>
        <time>2020-07-01T08:37:06Z</time>
      </trkpt>
      <trkpt lat="49.05695" lon="3.47387">
        <ele>62.8</ele>
        <time>2020-07-01T08:37:07Z</time>
      </trkpt>
      <trkpt lat="49.05691" lon="3.47384">
        <ele>62.8</ele>
        <time>2020-07-01T08:37:08Z</time>
      </trkpt>
      <trkpt lat="49.05686" lon="3.47381">
        <ele>62.8</ele>
        <time>2020-07-01T08:37:09Z</time>
      </trkpt>
      <trkpt lat="49.05682" lon="3.47378">
        <ele>62.8</ele>
        <time>2020-07-01T08:37:10Z</time>
      </trkpt>
      <trkpt lat="49.05678" lon="3.47375">
        <ele>62.9</ele>
        <time>2020-07-01T08:37:11Z</time>
      </trkpt>
      <trkpt lat="49.05674" lon="3.47371">
        <ele>63</ele>
        <time>2020-07-01T08:37:12Z</time>
      </trkpt>
      <trkpt lat="49.05669" lon="3.47367">
        <ele>62.8</ele>
        <time>2020-07-01T08:37:13Z</time>
      </trkpt>
      <trkpt lat="49.05665" lon="3.47363">
        <ele>62.6</ele>
        <time>2020-07-01T08:37:14Z</time>
      </trkpt>
      <trkpt lat="49.05661" lon="3.4736">
        <ele>62.5</ele>
        <time>2020-07-01T08:37:15Z</time>
      </trkpt>
      <trkpt lat="49.05657" lon="3.47357">
        <ele>62.5</ele>
        <time>2020-07-01T08:37:16Z</time>
      </trkpt>
      <trkpt lat="49.05654" lon="3.47355">
        <ele>62.4</ele>
        <time>2020-07-01T08:37:17Z</time>
      </trkpt>
      <trkpt lat="49.0565" lon="3.47352">
        <ele>62.4</ele>
        <time>2020-07-01T08:37:18Z</time>
      </trkpt>
      <trkpt lat="49.05646" lon="3.47349">
        <ele>62.4</ele>
        <time>2020-07-01T08:37:19Z</time>
      </trkpt>
      <trkpt lat="49.05641" lon="3.47346">
        <ele>62.4</ele>
        <time>2020-07-01T08:37:20Z</time>
      </trkpt>
      <trkpt lat="49.05637" lon="3.47344">
        <ele>62.4</ele>
        <time>2020-07-01T08:37:21Z</time>
      </trkpt>
      <trkpt lat="49.05633" lon="3.4734">
        <ele>62.4</ele>
        <time>2020-07-01T08:37:22Z</time>
      </trkpt>
      <trkpt lat="49.05629" lon="3.47338">
        <ele>62.4</ele>
        <time>2020-07-01T08:37:23Z</time>
      </trkpt>
      <trkpt lat="49.05624" lon="3.47335">
        <ele>62.5</ele>
        <time>2020-07-01T08:37:24Z</time>
      </trkpt>
      <trkpt lat="49.0562" lon="3.47331">
        <ele>62.5</ele>
        <time>2020-07-01T08:37:25Z</time>
      </trkpt>
      <trkpt lat="49.05616" lon="3.47329">
        <ele>62.6</ele>
        <time>2020-07-01T08:37:26Z</time>
      </trkpt>
      <trkpt lat="49.05613" lon="3.47326">
        <ele>62.7</ele>
        <time>2020-07-01T08:37:27Z</time>
      </trkpt>
      <trkpt lat="49.05609" lon="3.47323">
        <ele>62.7</ele>
        <time>2020-07-01T08:37:28Z</time>
      </trkpt>
      <trkpt lat="49.05604" lon="3.47321">
        <ele>62.8</ele>
        <time>2020-07-01T08:37:29Z</time>
      </trkpt>
      <trkpt lat="49.05599" lon="3.47318">
        <ele>62.9</ele>
        <time>2020-07-01T08:37:30Z</time>
      </trkpt>
      <trkpt lat="49.05595" lon="3.47315">
        <ele>63</ele>
        <time>2020-07-01T08:37:31Z</time>
      </trkpt>
      <trkpt lat="49.05592" lon="3.47313">
        <ele>63</ele>
        <time>2020-07-01T08:37:32Z</time>
      </trkpt>
      <trkpt lat="49.05588" lon="3.4731">
        <ele>63.1</ele>
        <time>2020-07-01T08:37:33Z</time>
      </trkpt>
      <trkpt lat="49.05585" lon="3.47308">
        <ele>63.2</ele>
        <time>2020-07-01T08:37:34Z</time>
      </trkpt>
      <trkpt lat="49.05581" lon="3.47306">
        <ele>63.2</ele>
        <time>2020-07-01T08:37:35Z</time>
      </trkpt>
      <trkpt lat="49.05577" lon="3.47304">
        <ele>63.3</ele>
        <time>2020-07-01T08:37:36Z</time>
      </trkpt>
      <trkpt lat="49.05572" lon="3.47301">
        <ele>63.4</ele>
        <time>2020-07-01T08:37:37Z</time>
      </trkpt>
      <trkpt lat="49.05568" lon="3.47298">
        <ele>63.5</ele>
        <time>2020-07-01T08:37:38Z</time>
      </trkpt>
      <trkpt lat="49.05565" lon="3.47294">
        <ele>63.6</ele>
        <time>2020-07-01T08:37:39Z</time>
      </trkpt>
      <trkpt lat="49.05561" lon="3.47292">
        <ele>63.7</ele>
        <time>2020-07-01T08:37:40Z</time>
      </trkpt>
      <trkpt lat="49.05557" lon="3.47289">
        <ele>63.8</ele>
        <time>2020-07-01T08:37:41Z</time>
      </trkpt>
      <trkpt lat="49.05553" lon="3.47286">
        <ele>63.9</ele>
        <time>2020-07-01T08:37:42Z</time>
      </trkpt>
      <trkpt lat="49.05549" lon="3.47284">
        <ele>64</ele>
        <time>2020-07-01T08:37:43Z</time>
      </trkpt>
      <trkpt lat="49.05544" lon="3.47281">
        <ele>64.1</ele>
        <time>2020-07-01T08:37:44Z</time>
      </trkpt>
      <trkpt lat="49.0554" lon="3.47278">
        <ele>64.2</ele>
        <time>2020-07-01T08:37:45Z</time>
      </trkpt>
      <trkpt lat="49.05536" lon="3.47275">
        <ele>64.3</ele>
        <time>2020-07-01T08:37:46Z</time>
      </trkpt>
      <trkpt lat="49.05533" lon="3.47273">
        <ele>64.4</ele>
        <time>2020-07-01T08:37:47Z</time>
      </trkpt>
      <trkpt lat="49.05529" lon="3.47271">
        <ele>64.6</ele>
        <time>2020-07-01T08:37:48Z</time>
      </trkpt>
      <trkpt lat="49.05525" lon="3.47269">
        <ele>64.7</ele>
        <time>2020-07-01T08:37:49Z</time>
      </trkpt>
      <trkpt lat="49.05521" lon="3.47266">
        <ele>64.9</ele>
        <time>2020-07-01T08:37:50Z</time>
      </trkpt>
      <trkpt lat="49.05517" lon="3.47263">
        <ele>65</ele>
        <time>2020-07-01T08:37:51Z</time>
      </trkpt>
      <trkpt lat="49.05513" lon="3.4726">
        <ele>65.2</ele>
        <time>2020-07-01T08:37:52Z</time>
      </trkpt>
      <trkpt lat="49.05509" lon="3.47257">
        <ele>65.4</ele>
        <time>2020-07-01T08:37:53Z</time>
      </trkpt>
      <trkpt lat="49.05504" lon="3.47255">
        <ele>65.6</ele>
        <time>2020-07-01T08:37:54Z</time>
      </trkpt>
      <trkpt lat="49.055" lon="3.47252">
        <ele>65.8</ele>
        <time>2020-07-01T08:37:55Z</time>
      </trkpt>
      <trkpt lat="49.05496" lon="3.4725">
        <ele>66</ele>
        <time>2020-07-01T08:37:56Z</time>
      </trkpt>
      <trkpt lat="49.05492" lon="3.47248">
        <ele>66.2</ele>
        <time>2020-07-01T08:37:57Z</time>
      </trkpt>
      <trkpt lat="49.05488" lon="3.47245">
        <ele>66.4</ele>
        <time>2020-07-01T08:37:58Z</time>
      </trkpt>
      <trkpt lat="49.05484" lon="3.47242">
        <ele>66.6</ele>
        <time>2020-07-01T08:37:59Z</time>
      </trkpt>
      <trkpt lat="49.0548" lon="3.4724">
        <ele>66.8</ele>
        <time>2020-07-01T08:38:00Z</time>
      </trkpt>
      <trkpt lat="49.05477" lon="3.47238">
        <ele>66.9</ele>
        <time>2020-07-01T08:38:01Z</time>
      </trkpt>
      <trkpt lat="49.05473" lon="3.47236">
        <ele>67.1</ele>
        <time>2020-07-01T08:38:02Z</time>
      </trkpt>
      <trkpt lat="49.05469" lon="3.47235">
        <ele>67.3</ele>
        <time>2020-07-01T08:38:03Z</time>
      </trkpt>
      <trkpt lat="49.05466" lon="3.47233">
        <ele>67.4</ele>
        <time>2020-07-01T08:38:04Z</time>
      </trkpt>
      <trkpt lat="49.05463" lon="3.47231">
        <ele>67.6</ele>
        <time>2020-07-01T08:38:05Z</time>
      </trkpt>
      <trkpt lat="49.0546" lon="3.47229">
        <ele>67.7</ele>
        <time>2020-07-01T08:38:06Z</time>
      </trkpt>
      <trkpt lat="49.05457" lon="3.47227">
        <ele>67.9</ele>
        <time>2020-07-01T08:38:07Z</time>
      </trkpt>
      <trkpt lat="49.05454" lon="3.47224">
        <ele>68.1</ele>
        <time>2020-07-01T08:38:08Z</time>
      </trkpt>
      <trkpt lat="49.0545" lon="3.47222">
        <ele>68.3</ele>
        <time>2020-07-01T08:38:09Z</time>
      </trkpt>
      <trkpt lat="49.05447" lon="3.47219">
        <ele>68.6</ele>
        <time>2020-07-01T08:38:10Z</time>
      </trkpt>
      <trkpt lat="49.05444" lon="3.47217">
        <ele>68.8</ele>
        <time>2020-07-01T08:38:11Z</time>
      </trkpt>
      <trkpt lat="49.0544" lon="3.47215">
        <ele>69</ele>
        <time>2020-07-01T08:38:12Z</time>
      </trkpt>
      <trkpt lat="49.05437" lon="3.47212">
        <ele>69.1</ele>
        <time>2020-07-01T08:38:13Z</time>
      </trkpt>
      <trkpt lat="49.05434" lon="3.4721">
        <ele>69.3</ele>
        <time>2020-07-01T08:38:14Z</time>
      </trkpt>
      <trkpt lat="49.05431" lon="3.47208">
        <ele>69.5</ele>
        <time>2020-07-01T08:38:15Z</time>
      </trkpt>
      <trkpt lat="49.05426" lon="3.47205">
        <ele>69.7</ele>
        <time>2020-07-01T08:38:16Z</time>
      </trkpt>
      <trkpt lat="49.05425" lon="3.47203">
        <ele>69.8</ele>
        <time>2020-07-01T08:38:17Z</time>
      </trkpt>
      <trkpt lat="49.0542" lon="3.47199">
        <ele>70.1</ele>
        <time>2020-07-01T08:38:18Z</time>
      </trkpt>
      <trkpt lat="49.05417" lon="3.47196">
        <ele>70.3</ele>
        <time>2020-07-01T08:38:19Z</time>
      </trkpt>
      <trkpt lat="49.05413" lon="3.47192">
        <ele>70.5</ele>
        <time>2020-07-01T08:38:20Z</time>
      </trkpt>
      <trkpt lat="49.05409" lon="3.47189">
        <ele>70.6</ele>
        <time>2020-07-01T08:38:21Z</time>
      </trkpt>
      <trkpt lat="49.05405" lon="3.47186">
        <ele>70.8</ele>
        <time>2020-07-01T08:38:22Z</time>
      </trkpt>
      <trkpt lat="49.05402" lon="3.47183">
        <ele>71</ele>
        <time>2020-07-01T08:38:23Z</time>
      </trkpt>
      <trkpt lat="49.05399" lon="3.4718">
        <ele>71.1</ele>
        <time>2020-07-01T08:38:24Z</time>
      </trkpt>
      <trkpt lat="49.05396" lon="3.47177">
        <ele>71.2</ele>
        <time>2020-07-01T08:38:25Z</time>
      </trkpt>
      <trkpt lat="49.05393" lon="3.47173">
        <ele>71.3</ele>
        <time>2020-07-01T08:38:26Z</time>
      </trkpt>
      <trkpt lat="49.0539" lon="3.4717">
        <ele>71.4</ele>
        <time>2020-07-01T08:38:27Z</time>
      </trkpt>
      <trkpt lat="49.05386" lon="3.47166">
        <ele>71.5</ele>
        <time>2020-07-01T08:38:28Z</time>
      </trkpt>
      <trkpt lat="49.05384" lon="3.47164">
        <ele>71.6</ele>
        <time>2020-07-01T08:38:29Z</time>
      </trkpt>
      <trkpt lat="49.0538" lon="3.4716">
        <ele>71.7</ele>
        <time>2020-07-01T08:38:30Z</time>
      </trkpt>
      <trkpt lat="49.05378" lon="3.47157">
        <ele>71.8</ele>
        <time>2020-07-01T08:38:31Z</time>
      </trkpt>
      <trkpt lat="49.05374" lon="3.47154">
        <ele>71.8</ele>
        <time>2020-07-01T08:38:32Z</time>
      </trkpt>
      <trkpt lat="49.05371" lon="3.4715">
        <ele>71.9</ele>
        <time>2020-07-01T08:38:33Z</time>
      </trkpt>
      <trkpt lat="49.05368" lon="3.47147">
        <ele>72</ele>
        <time>2020-07-01T08:38:34Z</time>
      </trkpt>
      <trkpt lat="49.05365" lon="3.47143">
        <ele>72</ele>
        <time>2020-07-01T08:38:35Z</time>
      </trkpt>
      <trkpt lat="49.05362" lon="3.4714">
        <ele>72.1</ele>
        <time>2020-07-01T08:38:36Z</time>
      </trkpt>
      <trkpt lat="49.0536" lon="3.47138">
        <ele>72.1</ele>
        <time>2020-07-01T08:38:37Z</time>
      </trkpt>
      <trkpt lat="49.05357" lon="3.47135">
        <ele>72.2</ele>
        <time>2020-07-01T08:38:38Z</time>
      </trkpt>
      <trkpt lat="49.05353" lon="3.4713">
        <ele>72.3</ele>
        <time>2020-07-01T08:38:39Z</time>
      </trkpt>
      <trkpt lat="49.0535" lon="3.47127">
        <ele>72.4</ele>
        <time>2020-07-01T08:38:40Z</time>
      </trkpt>
      <trkpt lat="49.05347" lon="3.47124">
        <ele>72.4</ele>
        <time>2020-07-01T08:38:41Z</time>
      </trkpt>
      <trkpt lat="49.05343" lon="3.4712">
        <ele>72.5</ele>
        <time>2020-07-01T08:38:42Z</time>
      </trkpt>
      <trkpt lat="49.0534" lon="3.47117">
        <ele>72.6</ele>
        <time>2020-07-01T08:38:43Z</time>
      </trkpt>
      <trkpt lat="49.05336" lon="3.47113">
        <ele>72.7</ele>
        <time>2020-07-01T08:38:44Z</time>
      </trkpt>
      <trkpt lat="49.05333" lon="3.47109">
        <ele>72.8</ele>
        <time>2020-07-01T08:38:45Z</time>
      </trkpt>
      <trkpt lat="49.05329" lon="3.47105">
        <ele>72.9</ele>
        <time>2020-07-01T08:38:46Z</time>
      </trkpt>
      <trkpt lat="49.05326" lon="3.47102">
        <ele>72.9</ele>
        <time>2020-07-01T08:38:47Z</time>
      </trkpt>
      <trkpt lat="49.05323" lon="3.47099">
        <ele>73</ele>
        <time>2020-07-01T08:38:48Z</time>
      </trkpt>
      <trkpt lat="49.05321" lon="3.47096">
        <ele>73.1</ele>
        <time>2020-07-01T08:38:49Z</time>
      </trkpt>
      <trkpt lat="49.05318" lon="3.47093">
        <ele>73.2</ele>
        <time>2020-07-01T08:38:50Z</time>
      </trkpt>
      <trkpt lat="49.05315" lon="3.4709">
        <ele>73.3</ele>
        <time>2020-07-01T08:38:51Z</time>
      </trkpt>
      <trkpt lat="49.05312" lon="3.47087">
        <ele>73.4</ele>
        <time>2020-07-01T08:38:52Z</time>
      </trkpt>
      <trkpt lat="49.05309" lon="3.47084">
        <ele>73.5</ele>
        <time>2020-07-01T08:38:53Z</time>
      </trkpt>
      <trkpt lat="49.05306" lon="3.47079">
        <ele>73.7</ele>
        <time>2020-07-01T08:38:54Z</time>
      </trkpt>
      <trkpt lat="49.05304" lon="3.47076">
        <ele>73.8</ele>
        <time>2020-07-01T08:38:55Z</time>
      </trkpt>
      <trkpt lat="49.05301" lon="3.47072">
        <ele>73.9</ele>
        <time>2020-07-01T08:38:56Z</time>
      </trkpt>
      <trkpt lat="49.05299" lon="3.47069">
        <ele>74</ele>
        <time>2020-07-01T08:38:57Z</time>
      </trkpt>
      <trkpt lat="49.05298" lon="3.47068">
        <ele>74</ele>
        <time>2020-07-01T08:38:58Z</time>
      </trkpt>
      <trkpt lat="49.05296" lon="3.47065">
        <ele>74.1</ele>
        <time>2020-07-01T08:38:59Z</time>
      </trkpt>
      <trkpt lat="49.05295" lon="3.47064">
        <ele>74.2</ele>
        <time>2020-07-01T08:39:00Z</time>
      </trkpt>
      <trkpt lat="49.05294" lon="3.47063">
        <ele>74.2</ele>
        <time>2020-07-01T08:39:01Z</time>
      </trkpt>
      <trkpt lat="49.05294" lon="3.47062">
        <ele>74.2</ele>
        <time>2020-07-01T08:39:02Z</time>
      </trkpt>
      <trkpt lat="49.05294" lon="3.47063">
        <ele>74.2</ele>
        <time>2020-07-01T08:39:03Z</time>
      </trkpt>
      <trkpt lat="49.05295" lon="3.47063">
        <ele>74.3</ele>
        <time>2020-07-01T08:39:04Z</time>
      </trkpt>
      <trkpt lat="49.05295" lon="3.47063">
        <ele>74.3</ele>
        <time>2020-07-01T08:39:05Z</time>
      </trkpt>
      <trkpt lat="49.05294" lon="3.47063">
        <ele>74.3</ele>
        <time>2020-07-01T08:39:06Z</time>
      </trkpt>
      <trkpt lat="49.05294" lon="3.47062">
        <ele>74.3</ele>
        <time>2020-07-01T08:39:07Z</time>
      </trkpt>
      <trkpt lat="49.05295" lon="3.47061">
        <ele>74.3</ele>
        <time>2020-07-01T08:39:08Z</time>
      </trkpt>
      <trkpt lat="49.05294" lon="3.47061">
        <ele>74.3</ele>
        <time>2020-07-01T08:39:09Z</time>
      </trkpt>
      <trkpt lat="49.05294" lon="3.47061">
        <ele>74.3</ele>
        <time>2020-07-01T08:39:10Z</time>
      </trkpt>
      <trkpt lat="49.05294" lon="3.47061">
        <ele>74.3</ele>
        <time>2020-07-01T08:39:11Z</time>
      </trkpt>
      <trkpt lat="49.05294" lon="3.47062">
        <ele>74.4</ele>
        <time>2020-07-01T08:39:12Z</time>
      </trkpt>
      <trkpt lat="49.05294" lon="3.47062">
        <ele>74.4</ele>
        <time>2020-07-01T08:39:13Z</time>
      </trkpt>
      <trkpt lat="49.05294" lon="3.47062">
        <ele>74.4</ele>
        <time>2020-07-01T08:39:14Z</time>
      </trkpt>
      <trkpt lat="49.05295" lon="3.47063">
        <ele>74.4</ele>
        <time>2020-07-01T08:39:15Z</time>
      </trkpt>
      <trkpt lat="49.05295" lon="3.47063">
        <ele>74.4</ele>
        <time>2020-07-01T08:39:16Z</time>
      </trkpt>
      <trkpt lat="49.05295" lon="3.47063">
        <ele>74.4</ele>
        <time>2020-07-01T08:39:17Z</time>
      </trkpt>
      <trkpt lat="49.05295" lon="3.47063">
        <ele>74.4</ele>
        <time>2020-07-01T08:39:18Z</time>
      </trkpt>
      <trkpt lat="49.05295" lon="3.47063">
        <ele>74.4</ele>
        <time>2020-07-01T08:39:19Z</time>
      </trkpt>
      <trkpt lat="49.05295" lon="3.47064">
        <ele>74.4</ele>
        <time>2020-07-01T08:39:20Z</time>
      </trkpt>
      <trkpt lat="49.0529" lon="3.47064">
        <ele>74.6</ele>
        <time>2020-07-01T08:41:28Z</time>
      </trkpt>
      <trkpt lat="49.05288" lon="3.47062">
        <ele>74.7</ele>
        <time>2020-07-01T08:41:29Z</time>
      </trkpt>
      <trkpt lat="49.05286" lon="3.47059">
        <ele>74.8</ele>
        <time>2020-07-01T08:41:30Z</time>
      </trkpt>
      <trkpt lat="49.05285" lon="3.47057">
        <ele>74.9</ele>
        <time>2020-07-01T08:41:31Z</time>
      </trkpt>
      <trkpt lat="49.05283" lon="3.47053">
        <ele>75</ele>
        <time>2020-07-01T08:41:32Z</time>
      </trkpt>
      <trkpt lat="49.05283" lon="3.47051">
        <ele>75</ele>
        <time>2020-07-01T08:41:33Z</time>
      </trkpt>
      <trkpt lat="49.0528" lon="3.47047">
        <ele>75.2</ele>
        <time>2020-07-01T08:41:34Z</time>
      </trkpt>
      <trkpt lat="49.05279" lon="3.47046">
        <ele>75.2</ele>
        <time>2020-07-01T08:41:35Z</time>
      </trkpt>
      <trkpt lat="49.05275" lon="3.47043">
        <ele>75.4</ele>
        <time>2020-07-01T08:41:36Z</time>
      </trkpt>
      <trkpt lat="49.05274" lon="3.47042">
        <ele>75.4</ele>
        <time>2020-07-01T08:41:37Z</time>
      </trkpt>
      <trkpt lat="49.05271" lon="3.4704">
        <ele>75.6</ele>
        <time>2020-07-01T08:41:38Z</time>
      </trkpt>
      <trkpt lat="49.05268" lon="3.47038">
        <ele>75.7</ele>
        <time>2020-07-01T08:41:39Z</time>
      </trkpt>
      <trkpt lat="49.05266" lon="3.47035">
        <ele>75.8</ele>
        <time>2020-07-01T08:41:40Z</time>
      </trkpt>
      <trkpt lat="49.05263" lon="3.47032">
        <ele>75.9</ele>
        <time>2020-07-01T08:41:41Z</time>
      </trkpt>
      <trkpt lat="49.0526" lon="3.4703">
        <ele>76</ele>
        <time>2020-07-01T08:41:42Z</time>
      </trkpt>
      <trkpt lat="49.05257" lon="3.47027">
        <ele>76.2</ele>
        <time>2020-07-01T08:41:43Z</time>
      </trkpt>
      <trkpt lat="49.05254" lon="3.47024">
        <ele>76.3</ele>
        <time>2020-07-01T08:41:44Z</time>
      </trkpt>
      <trkpt lat="49.05252" lon="3.4702">
        <ele>76.4</ele>
        <time>2020-07-01T08:41:45Z</time>
      </trkpt>
      <trkpt lat="49.05249" lon="3.47017">
        <ele>76.5</ele>
        <time>2020-07-01T08:41:46Z</time>
      </trkpt>
      <trkpt lat="49.05246" lon="3.47013">
        <ele>76.6</ele>
        <time>2020-07-01T08:41:47Z</time>
      </trkpt>
      <trkpt lat="49.05243" lon="3.4701">
        <ele>76.8</ele>
        <time>2020-07-01T08:41:48Z</time>
      </trkpt>
      <trkpt lat="49.05239" lon="3.47008">
        <ele>76.8</ele>
        <time>2020-07-01T08:41:49Z</time>
      </trkpt>
      <trkpt lat="49.05236" lon="3.47006">
        <ele>76.9</ele>
        <time>2020-07-01T08:41:50Z</time>
      </trkpt>
      <trkpt lat="49.05234" lon="3.47003">
        <ele>77</ele>
        <time>2020-07-01T08:41:51Z</time>
      </trkpt>
      <trkpt lat="49.05232" lon="3.47001">
        <ele>77</ele>
        <time>2020-07-01T08:41:52Z</time>
      </trkpt>
      <trkpt lat="49.05228" lon="3.46997">
        <ele>77.1</ele>
        <time>2020-07-01T08:41:53Z</time>
      </trkpt>
      <trkpt lat="49.05227" lon="3.46996">
        <ele>77.1</ele>
        <time>2020-07-01T08:41:54Z</time>
      </trkpt>
      <trkpt lat="49.05225" lon="3.46993">
        <ele>77.3</ele>
        <time>2020-07-01T08:41:55Z</time>
      </trkpt>
      <trkpt lat="49.05222" lon="3.4699">
        <ele>77.4</ele>
        <time>2020-07-01T08:41:56Z</time>
      </trkpt>
      <trkpt lat="49.0522" lon="3.46987">
        <ele>77.5</ele>
        <time>2020-07-01T08:41:57Z</time>
      </trkpt>
      <trkpt lat="49.05218" lon="3.46984">
        <ele>77.6</ele>
        <time>2020-07-01T08:41:58Z</time>
      </trkpt>
      <trkpt lat="49.05216" lon="3.46982">
        <ele>77.6</ele>
        <time>2020-07-01T08:41:59Z</time>
      </trkpt>
      <trkpt lat="49.05213" lon="3.46979">
        <ele>77.7</ele>
        <time>2020-07-01T08:42:00Z</time>
      </trkpt>
      <trkpt lat="49.05211" lon="3.46976">
        <ele>77.7</ele>
        <time>2020-07-01T08:42:01Z</time>
      </trkpt>
      <trkpt lat="49.05208" lon="3.46972">
        <ele>77.8</ele>
        <time>2020-07-01T08:42:02Z</time>
      </trkpt>
      <trkpt lat="49.05207" lon="3.4697">
        <ele>77.8</ele>
        <time>2020-07-01T08:42:03Z</time>
      </trkpt>
      <trkpt lat="49.05204" lon="3.46967">
        <ele>77.9</ele>
        <time>2020-07-01T08:42:04Z</time>
      </trkpt>
      <trkpt lat="49.05202" lon="3.46965">
        <ele>77.9</ele>
        <time>2020-07-01T08:42:05Z</time>
      </trkpt>
      <trkpt lat="49.05199" lon="3.46961">
        <ele>78</ele>
        <time>2020-07-01T08:42:06Z</time>
      </trkpt>
      <trkpt lat="49.05196" lon="3.46958">
        <ele>78.1</ele>
        <time>2020-07-01T08:42:07Z</time>
      </trkpt>
      <trkpt lat="49.05193" lon="3.46954">
        <ele>78.1</ele>
        <time>2020-07-01T08:42:08Z</time>
      </trkpt>
      <trkpt lat="49.0519" lon="3.46951">
        <ele>78.2</ele>
        <time>2020-07-01T08:42:09Z</time>
      </trkpt>
      <trkpt lat="49.05187" lon="3.46948">
        <ele>78.2</ele>
        <time>2020-07-01T08:42:10Z</time>
      </trkpt>
      <trkpt lat="49.05184" lon="3.46944">
        <ele>78.3</ele>
        <time>2020-07-01T08:42:11Z</time>
      </trkpt>
      <trkpt lat="49.05181" lon="3.46941">
        <ele>78.3</ele>
        <time>2020-07-01T08:42:12Z</time>
      </trkpt>
      <trkpt lat="49.05178" lon="3.46937">
        <ele>78.3</ele>
        <time>2020-07-01T08:42:13Z</time>
      </trkpt>
      <trkpt lat="49.05174" lon="3.46934">
        <ele>78.4</ele>
        <time>2020-07-01T08:42:14Z</time>
      </trkpt>
      <trkpt lat="49.05171" lon="3.46931">
        <ele>78.4</ele>
        <time>2020-07-01T08:42:15Z</time>
      </trkpt>
      <trkpt lat="49.05167" lon="3.46927">
        <ele>78.4</ele>
        <time>2020-07-01T08:42:16Z</time>
      </trkpt>
      <trkpt lat="49.05164" lon="3.46923">
        <ele>78.5</ele>
        <time>2020-07-01T08:42:17Z</time>
      </trkpt>
      <trkpt lat="49.0516" lon="3.4692">
        <ele>78.5</ele>
        <time>2020-07-01T08:42:18Z</time>
      </trkpt>
      <trkpt lat="49.05156" lon="3.46915">
        <ele>78.5</ele>
        <time>2020-07-01T08:42:19Z</time>
      </trkpt>
      <trkpt lat="49.05153" lon="3.46911">
        <ele>78.5</ele>
        <time>2020-07-01T08:42:20Z</time>
      </trkpt>
      <trkpt lat="49.05149" lon="3.46907">
        <ele>78.5</ele>
        <time>2020-07-01T08:42:21Z</time>
      </trkpt>
      <trkpt lat="49.05145" lon="3.46901">
        <ele>78.5</ele>
        <time>2020-07-01T08:42:22Z</time>
      </trkpt>
      <trkpt lat="49.05141" lon="3.46896">
        <ele>78.5</ele>
        <time>2020-07-01T08:42:23Z</time>
      </trkpt>
      <trkpt lat="49.05138" lon="3.46892">
        <ele>78.5</ele>
        <time>2020-07-01T08:42:24Z</time>
      </trkpt>
      <trkpt lat="49.05134" lon="3.46888">
        <ele>78.6</ele>
        <time>2020-07-01T08:42:25Z</time>
      </trkpt>
      <trkpt lat="49.0513" lon="3.46883">
        <ele>78.6</ele>
        <time>2020-07-01T08:42:26Z</time>
      </trkpt>
      <trkpt lat="49.05126" lon="3.4688">
        <ele>78.6</ele>
        <time>2020-07-01T08:42:27Z</time>
      </trkpt>
      <trkpt lat="49.05122" lon="3.46875">
        <ele>78.6</ele>
        <time>2020-07-01T08:42:28Z</time>
      </trkpt>
      <trkpt lat="49.05118" lon="3.4687">
        <ele>78.7</ele>
        <time>2020-07-01T08:42:29Z</time>
      </trkpt>
      <trkpt lat="49.05113" lon="3.46864">
        <ele>78.8</ele>
        <time>2020-07-01T08:42:30Z</time>
      </trkpt>
      <trkpt lat="49.05108" lon="3.46859">
        <ele>78.8</ele>
        <time>2020-07-01T08:42:31Z</time>
      </trkpt>
      <trkpt lat="49.05103" lon="3.46855">
        <ele>78.9</ele>
        <time>2020-07-01T08:42:32Z</time>
      </trkpt>
      <trkpt lat="49.05099" lon="3.4685">
        <ele>79</ele>
        <time>2020-07-01T08:42:33Z</time>
      </trkpt>
      <trkpt lat="49.05095" lon="3.46845">
        <ele>79.1</ele>
        <time>2020-07-01T08:42:34Z</time>
      </trkpt>
      <trkpt lat="49.05091" lon="3.46841">
        <ele>79.3</ele>
        <time>2020-07-01T08:42:35Z</time>
      </trkpt>
      <trkpt lat="49.05087" lon="3.46837">
        <ele>79.4</ele>
        <time>2020-07-01T08:42:36Z</time>
      </trkpt>
      <trkpt lat="49.05081" lon="3.46832">
        <ele>79.6</ele>
        <time>2020-07-01T08:42:37Z</time>
      </trkpt>
      <trkpt lat="49.05078" lon="3.46827">
        <ele>79.8</ele>
        <time>2020-07-01T08:42:38Z</time>
      </trkpt>
      <trkpt lat="49.05074" lon="3.46823">
        <ele>79.9</ele>
        <time>2020-07-01T08:42:39Z</time>
      </trkpt>
      <trkpt lat="49.05071" lon="3.46819">
        <ele>80</ele>
        <time>2020-07-01T08:42:40Z</time>
      </trkpt>
      <trkpt lat="49.05067" lon="3.46815">
        <ele>80.2</ele>
        <time>2020-07-01T08:42:41Z</time>
      </trkpt>
      <trkpt lat="49.05064" lon="3.4681">
        <ele>80.4</ele>
        <time>2020-07-01T08:42:42Z</time>
      </trkpt>
      <trkpt lat="49.0506" lon="3.46806">
        <ele>80.5</ele>
        <time>2020-07-01T08:42:43Z</time>
      </trkpt>
      <trkpt lat="49.05057" lon="3.46801">
        <ele>80.7</ele>
        <time>2020-07-01T08:42:44Z</time>
      </trkpt>
      <trkpt lat="49.05054" lon="3.46797">
        <ele>80.9</ele>
        <time>2020-07-01T08:42:45Z</time>
      </trkpt>
      <trkpt lat="49.0505" lon="3.46793">
        <ele>81</ele>
        <time>2020-07-01T08:42:46Z</time>
      </trkpt>
      <trkpt lat="49.05047" lon="3.4679">
        <ele>81.2</ele>
        <time>2020-07-01T08:42:47Z</time>
      </trkpt>
      <trkpt lat="49.05044" lon="3.46785">
        <ele>81.3</ele>
        <time>2020-07-01T08:42:48Z</time>
      </trkpt>
      <trkpt lat="49.0504" lon="3.46782">
        <ele>81.4</ele>
        <time>2020-07-01T08:42:49Z</time>
      </trkpt>
      <trkpt lat="49.05036" lon="3.46779">
        <ele>81.5</ele>
        <time>2020-07-01T08:42:50Z</time>
      </trkpt>
      <trkpt lat="49.05032" lon="3.46775">
        <ele>81.6</ele>
        <time>2020-07-01T08:42:51Z</time>
      </trkpt>
      <trkpt lat="49.05028" lon="3.46771">
        <ele>81.7</ele>
        <time>2020-07-01T08:42:52Z</time>
      </trkpt>
      <trkpt lat="49.05025" lon="3.46767">
        <ele>81.8</ele>
        <time>2020-07-01T08:42:53Z</time>
      </trkpt>
      <trkpt lat="49.05021" lon="3.46763">
        <ele>81.9</ele>
        <time>2020-07-01T08:42:54Z</time>
      </trkpt>
      <trkpt lat="49.05018" lon="3.46759">
        <ele>82</ele>
        <time>2020-07-01T08:42:55Z</time>
      </trkpt>
      <trkpt lat="49.05015" lon="3.46755">
        <ele>82</ele>
        <time>2020-07-01T08:42:56Z</time>
      </trkpt>
      <trkpt lat="49.0501" lon="3.46751">
        <ele>82.1</ele>
        <time>2020-07-01T08:42:57Z</time>
      </trkpt>
      <trkpt lat="49.05007" lon="3.46748">
        <ele>82.1</ele>
        <time>2020-07-01T08:42:58Z</time>
      </trkpt>
      <trkpt lat="49.05004" lon="3.46744">
        <ele>82.2</ele>
        <time>2020-07-01T08:42:59Z</time>
      </trkpt>
      <trkpt lat="49.05001" lon="3.46741">
        <ele>82.2</ele>
        <time>2020-07-01T08:43:00Z</time>
      </trkpt>
      <trkpt lat="49.04999" lon="3.46737">
        <ele>82.2</ele>
        <time>2020-07-01T08:43:01Z</time>
      </trkpt>
      <trkpt lat="49.04996" lon="3.46733">
        <ele>82.2</ele>
        <time>2020-07-01T08:43:02Z</time>
      </trkpt>
      <trkpt lat="49.04992" lon="3.4673">
        <ele>82.1</ele>
        <time>2020-07-01T08:43:03Z</time>
      </trkpt>
      <trkpt lat="49.04991" lon="3.46728">
        <ele>82.1</ele>
        <time>2020-07-01T08:43:04Z</time>
      </trkpt>
      <trkpt lat="49.04988" lon="3.46725">
        <ele>82.1</ele>
        <time>2020-07-01T08:43:05Z</time>
      </trkpt>
      <trkpt lat="49.04985" lon="3.46721">
        <ele>82</ele>
        <time>2020-07-01T08:43:06Z</time>
      </trkpt>
      <trkpt lat="49.04981" lon="3.46716">
        <ele>82</ele>
        <time>2020-07-01T08:43:07Z</time>
      </trkpt>
      <trkpt lat="49.04977" lon="3.4671">
        <ele>81.9</ele>
        <time>2020-07-01T08:43:08Z</time>
      </trkpt>
      <trkpt lat="49.04973" lon="3.46705">
        <ele>81.9</ele>
        <time>2020-07-01T08:43:09Z</time>
      </trkpt>
      <trkpt lat="49.04969" lon="3.467">
        <ele>81.8</ele>
        <time>2020-07-01T08:43:10Z</time>
      </trkpt>
      <trkpt lat="49.04964" lon="3.46694">
        <ele>81.6</ele>
        <time>2020-07-01T08:43:11Z</time>
      </trkpt>
      <trkpt lat="49.0496" lon="3.46691">
        <ele>81.6</ele>
        <time>2020-07-01T08:43:12Z</time>
      </trkpt>
      <trkpt lat="49.04955" lon="3.46686">
        <ele>81.4</ele>
        <time>2020-07-01T08:43:13Z</time>
      </trkpt>
      <trkpt lat="49.04951" lon="3.46682">
        <ele>81.3</ele>
        <time>2020-07-01T08:43:14Z</time>
      </trkpt>
      <trkpt lat="49.04947" lon="3.46678">
        <ele>81.3</ele>
        <time>2020-07-01T08:43:15Z</time>
      </trkpt>
      <trkpt lat="49.04943" lon="3.46674">
        <ele>81.2</ele>
        <time>2020-07-01T08:43:16Z</time>
      </trkpt>
      <trkpt lat="49.04939" lon="3.46669">
        <ele>81.1</ele>
        <time>2020-07-01T08:43:17Z</time>
      </trkpt>
      <trkpt lat="49.04935" lon="3.46664">
        <ele>81</ele>
        <time>2020-07-01T08:43:18Z</time>
      </trkpt>
      <trkpt lat="49.04931" lon="3.4666">
        <ele>80.9</ele>
        <time>2020-07-01T08:43:19Z</time>
      </trkpt>
      <trkpt lat="49.04927" lon="3.46654">
        <ele>80.7</ele>
        <time>2020-07-01T08:43:20Z</time>
      </trkpt>
      <trkpt lat="49.04922" lon="3.46649">
        <ele>80.6</ele>
        <time>2020-07-01T08:43:21Z</time>
      </trkpt>
      <trkpt lat="49.04918" lon="3.46645">
        <ele>80.4</ele>
        <time>2020-07-01T08:43:22Z</time>
      </trkpt>
      <trkpt lat="49.04913" lon="3.46639">
        <ele>80.3</ele>
        <time>2020-07-01T08:43:23Z</time>
      </trkpt>
      <trkpt lat="49.04909" lon="3.46634">
        <ele>80.2</ele>
        <time>2020-07-01T08:43:24Z</time>
      </trkpt>
      <trkpt lat="49.04905" lon="3.46628">
        <ele>80</ele>
        <time>2020-07-01T08:43:25Z</time>
      </trkpt>
      <trkpt lat="49.04901" lon="3.46623">
        <ele>79.9</ele>
        <time>2020-07-01T08:43:26Z</time>
      </trkpt>
      <trkpt lat="49.04897" lon="3.46617">
        <ele>79.7</ele>
        <time>2020-07-01T08:43:27Z</time>
      </trkpt>
      <trkpt lat="49.04893" lon="3.4661">
        <ele>79.6</ele>
        <time>2020-07-01T08:43:28Z</time>
      </trkpt>
      <trkpt lat="49.04889" lon="3.46604">
        <ele>79.4</ele>
        <time>2020-07-01T08:43:29Z</time>
      </trkpt>
      <trkpt lat="49.04884" lon="3.46597">
        <ele>79.2</ele>
        <time>2020-07-01T08:43:30Z</time>
      </trkpt>
      <trkpt lat="49.0488" lon="3.46588">
        <ele>79</ele>
        <time>2020-07-01T08:43:31Z</time>
      </trkpt>
      <trkpt lat="49.04875" lon="3.46581">
        <ele>78.8</ele>
        <time>2020-07-01T08:43:32Z</time>
      </trkpt>
      <trkpt lat="49.04871" lon="3.46571">
        <ele>78.6</ele>
        <time>2020-07-01T08:43:33Z</time>
      </trkpt>
      <trkpt lat="49.04867" lon="3.46563">
        <ele>78.4</ele>
        <time>2020-07-01T08:43:34Z</time>
      </trkpt>
      <trkpt lat="49.04863" lon="3.46554">
        <ele>78.2</ele>
        <time>2020-07-01T08:43:35Z</time>
      </trkpt>
      <trkpt lat="49.0486" lon="3.46546">
        <ele>78.1</ele>
        <time>2020-07-01T08:43:36Z</time>
      </trkpt>
      <trkpt lat="49.04857" lon="3.46539">
        <ele>78</ele>
        <time>2020-07-01T08:43:37Z</time>
      </trkpt>
      <trkpt lat="49.04853" lon="3.4653">
        <ele>77.8</ele>
        <time>2020-07-01T08:43:38Z</time>
      </trkpt>
      <trkpt lat="49.0485" lon="3.46523">
        <ele>77.7</ele>
        <time>2020-07-01T08:43:39Z</time>
      </trkpt>
      <trkpt lat="49.04847" lon="3.46516">
        <ele>77.6</ele>
        <time>2020-07-01T08:43:40Z</time>
      </trkpt>
      <trkpt lat="49.04844" lon="3.46508">
        <ele>77.6</ele>
        <time>2020-07-01T08:43:41Z</time>
      </trkpt>
      <trkpt lat="49.04841" lon="3.465">
        <ele>77.6</ele>
        <time>2020-07-01T08:43:42Z</time>
      </trkpt>
      <trkpt lat="49.04838" lon="3.46491">
        <ele>77.6</ele>
        <time>2020-07-01T08:43:43Z</time>
      </trkpt>
      <trkpt lat="49.04835" lon="3.46482">
        <ele>77.6</ele>
        <time>2020-07-01T08:43:44Z</time>
      </trkpt>
      <trkpt lat="49.04832" lon="3.46475">
        <ele>77.6</ele>
        <time>2020-07-01T08:43:45Z</time>
      </trkpt>
      <trkpt lat="49.0483" lon="3.46468">
        <ele>77.6</ele>
        <time>2020-07-01T08:43:46Z</time>
      </trkpt>
      <trkpt lat="49.04827" lon="3.46462">
        <ele>77.6</ele>
        <time>2020-07-01T08:43:47Z</time>
      </trkpt>
      <trkpt lat="49.04825" lon="3.46453">
        <ele>77.7</ele>
        <time>2020-07-01T08:43:48Z</time>
      </trkpt>
      <trkpt lat="49.04823" lon="3.46444">
        <ele>77.7</ele>
        <time>2020-07-01T08:43:49Z</time>
      </trkpt>
      <trkpt lat="49.0482" lon="3.46436">
        <ele>77.8</ele>
        <time>2020-07-01T08:43:50Z</time>
      </trkpt>
      <trkpt lat="49.04818" lon="3.46428">
        <ele>77.8</ele>
        <time>2020-07-01T08:43:51Z</time>
      </trkpt>
      <trkpt lat="49.04815" lon="3.4642">
        <ele>77.9</ele>
        <time>2020-07-01T08:43:52Z</time>
      </trkpt>
      <trkpt lat="49.04812" lon="3.46413">
        <ele>77.9</ele>
        <time>2020-07-01T08:43:53Z</time>
      </trkpt>
      <trkpt lat="49.04809" lon="3.46405">
        <ele>78</ele>
        <time>2020-07-01T08:43:54Z</time>
      </trkpt>
      <trkpt lat="49.04807" lon="3.46398">
        <ele>78</ele>
        <time>2020-07-01T08:43:55Z</time>
      </trkpt>
      <trkpt lat="49.04806" lon="3.46392">
        <ele>78.1</ele>
        <time>2020-07-01T08:43:56Z</time>
      </trkpt>
      <trkpt lat="49.04803" lon="3.46386">
        <ele>78.1</ele>
        <time>2020-07-01T08:43:57Z</time>
      </trkpt>
      <trkpt lat="49.048" lon="3.46381">
        <ele>78.2</ele>
        <time>2020-07-01T08:43:58Z</time>
      </trkpt>
      <trkpt lat="49.04797" lon="3.46375">
        <ele>78.3</ele>
        <time>2020-07-01T08:43:59Z</time>
      </trkpt>
      <trkpt lat="49.04795" lon="3.46368">
        <ele>78.4</ele>
        <time>2020-07-01T08:44:00Z</time>
      </trkpt>
      <trkpt lat="49.04792" lon="3.46359">
        <ele>78.5</ele>
        <time>2020-07-01T08:44:01Z</time>
      </trkpt>
      <trkpt lat="49.0479" lon="3.46351">
        <ele>78.6</ele>
        <time>2020-07-01T08:44:02Z</time>
      </trkpt>
      <trkpt lat="49.04787" lon="3.46343">
        <ele>78.7</ele>
        <time>2020-07-01T08:44:03Z</time>
      </trkpt>
      <trkpt lat="49.04785" lon="3.46337">
        <ele>78.7</ele>
        <time>2020-07-01T08:44:04Z</time>
      </trkpt>
      <trkpt lat="49.04783" lon="3.46331">
        <ele>78.8</ele>
        <time>2020-07-01T08:44:05Z</time>
      </trkpt>
      <trkpt lat="49.04781" lon="3.46326">
        <ele>78.9</ele>
        <time>2020-07-01T08:44:06Z</time>
      </trkpt>
      <trkpt lat="49.04779" lon="3.4632">
        <ele>78.9</ele>
        <time>2020-07-01T08:44:07Z</time>
      </trkpt>
      <trkpt lat="49.04776" lon="3.46314">
        <ele>79</ele>
        <time>2020-07-01T08:44:08Z</time>
      </trkpt>
      <trkpt lat="49.04773" lon="3.46307">
        <ele>79</ele>
        <time>2020-07-01T08:44:09Z</time>
      </trkpt>
      <trkpt lat="49.04771" lon="3.463">
        <ele>79</ele>
        <time>2020-07-01T08:44:10Z</time>
      </trkpt>
      <trkpt lat="49.04767" lon="3.46295">
        <ele>79.1</ele>
        <time>2020-07-01T08:44:11Z</time>
      </trkpt>
      <trkpt lat="49.04766" lon="3.46292">
        <ele>79.1</ele>
        <time>2020-07-01T08:44:12Z</time>
      </trkpt>
      <trkpt lat="49.04765" lon="3.46289">
        <ele>79.1</ele>
        <time>2020-07-01T08:44:13Z</time>
      </trkpt>
      <trkpt lat="49.04763" lon="3.46289">
        <ele>79.1</ele>
        <time>2020-07-01T08:44:14Z</time>
      </trkpt>
      <trkpt lat="49.04763" lon="3.46289">
        <ele>79.1</ele>
        <time>2020-07-01T08:44:15Z</time>
      </trkpt>
      <trkpt lat="49.04763" lon="3.4629">
        <ele>79.1</ele>
        <time>2020-07-01T08:44:16Z</time>
      </trkpt>
      <trkpt lat="49.04764" lon="3.46293">
        <ele>79.1</ele>
        <time>2020-07-01T08:44:17Z</time>
      </trkpt>
      <trkpt lat="49.04765" lon="3.46295">
        <ele>79.1</ele>
        <time>2020-07-01T08:44:18Z</time>
      </trkpt>
      <trkpt lat="49.04765" lon="3.46298">
        <ele>79.1</ele>
        <time>2020-07-01T08:44:19Z</time>
      </trkpt>
      <trkpt lat="49.04765" lon="3.46299">
        <ele>79.1</ele>
        <time>2020-07-01T08:44:20Z</time>
      </trkpt>
      <trkpt lat="49.04767" lon="3.46299">
        <ele>79.1</ele>
        <time>2020-07-01T08:44:21Z</time>
      </trkpt>
      <trkpt lat="49.04768" lon="3.46298">
        <ele>79.1</ele>
        <time>2020-07-01T08:44:22Z</time>
      </trkpt>
      <trkpt lat="49.0477" lon="3.46297">
        <ele>79.1</ele>
        <time>2020-07-01T08:44:23Z</time>
      </trkpt>
      <trkpt lat="49.04771" lon="3.46296">
        <ele>79.4</ele>
        <time>2020-07-01T08:44:24Z</time>
      </trkpt>
      <trkpt lat="49.04774" lon="3.46294">
        <ele>79.6</ele>
        <time>2020-07-01T08:44:25Z</time>
      </trkpt>
      <trkpt lat="49.04778" lon="3.46291">
        <ele>79.9</ele>
        <time>2020-07-01T08:44:26Z</time>
      </trkpt>
      <trkpt lat="49.04781" lon="3.46287">
        <ele>80.2</ele>
        <time>2020-07-01T08:44:27Z</time>
      </trkpt>
      <trkpt lat="49.04784" lon="3.46285">
        <ele>80.4</ele>
        <time>2020-07-01T08:44:28Z</time>
      </trkpt>
      <trkpt lat="49.04788" lon="3.46284">
        <ele>80.7</ele>
        <time>2020-07-01T08:44:29Z</time>
      </trkpt>
      <trkpt lat="49.04793" lon="3.46282">
        <ele>81.1</ele>
        <time>2020-07-01T08:44:30Z</time>
      </trkpt>
      <trkpt lat="49.04797" lon="3.46281">
        <ele>81.4</ele>
        <time>2020-07-01T08:44:31Z</time>
      </trkpt>
      <trkpt lat="49.04801" lon="3.4628">
        <ele>81.6</ele>
        <time>2020-07-01T08:44:32Z</time>
      </trkpt>
      <trkpt lat="49.04804" lon="3.46279">
        <ele>81.8</ele>
        <time>2020-07-01T08:44:33Z</time>
      </trkpt>
      <trkpt lat="49.04809" lon="3.46275">
        <ele>82.2</ele>
        <time>2020-07-01T08:44:34Z</time>
      </trkpt>
      <trkpt lat="49.04812" lon="3.46273">
        <ele>82.4</ele>
        <time>2020-07-01T08:44:35Z</time>
      </trkpt>
      <trkpt lat="49.04815" lon="3.46271">
        <ele>82.7</ele>
        <time>2020-07-01T08:44:36Z</time>
      </trkpt>
      <trkpt lat="49.04817" lon="3.46269">
        <ele>82.9</ele>
        <time>2020-07-01T08:44:37Z</time>
      </trkpt>
      <trkpt lat="49.0482" lon="3.46267">
        <ele>83.2</ele>
        <time>2020-07-01T08:44:38Z</time>
      </trkpt>
      <trkpt lat="49.04823" lon="3.46265">
        <ele>83.4</ele>
        <time>2020-07-01T08:44:39Z</time>
      </trkpt>
      <trkpt lat="49.04826" lon="3.46261">
        <ele>83.8</ele>
        <time>2020-07-01T08:44:40Z</time>
      </trkpt>
      <trkpt lat="49.04828" lon="3.46258">
        <ele>84.1</ele>
        <time>2020-07-01T08:44:41Z</time>
      </trkpt>
      <trkpt lat="49.04831" lon="3.46256">
        <ele>84.3</ele>
        <time>2020-07-01T08:44:42Z</time>
      </trkpt>
      <trkpt lat="49.04833" lon="3.46253">
        <ele>84.1</ele>
        <time>2020-07-01T08:44:43Z</time>
      </trkpt>
      <trkpt lat="49.04834" lon="3.46252">
        <ele>84.1</ele>
        <time>2020-07-01T08:44:44Z</time>
      </trkpt>
      <trkpt lat="49.04836" lon="3.4625">
        <ele>83.9</ele>
        <time>2020-07-01T08:44:45Z</time>
      </trkpt>
      <trkpt lat="49.04837" lon="3.46249">
        <ele>83.8</ele>
        <time>2020-07-01T08:44:46Z</time>
      </trkpt>
      <trkpt lat="49.04839" lon="3.46248">
        <ele>83.7</ele>
        <time>2020-07-01T08:44:47Z</time>
      </trkpt>
      <trkpt lat="49.04839" lon="3.46248">
        <ele>83.6</ele>
        <time>2020-07-01T08:44:48Z</time>
      </trkpt>
      <trkpt lat="49.04837" lon="3.4625">
        <ele>83.5</ele>
        <time>2020-07-01T08:44:49Z</time>
      </trkpt>
      <trkpt lat="49.04837" lon="3.46251">
        <ele>83.5</ele>
        <time>2020-07-01T08:44:50Z</time>
      </trkpt>
      <trkpt lat="49.04837" lon="3.4625">
        <ele>83.4</ele>
        <time>2020-07-01T08:44:51Z</time>
      </trkpt>
      <trkpt lat="49.04837" lon="3.46248">
        <ele>83.3</ele>
        <time>2020-07-01T08:44:52Z</time>
      </trkpt>
      <trkpt lat="49.04838" lon="3.46248">
        <ele>83.3</ele>
        <time>2020-07-01T08:44:53Z</time>
      </trkpt>
      <trkpt lat="49.04836" lon="3.46249">
        <ele>83.2</ele>
        <time>2020-07-01T08:44:54Z</time>
      </trkpt>
      <trkpt lat="49.04836" lon="3.4625">
        <ele>83.2</ele>
        <time>2020-07-01T08:44:55Z</time>
      </trkpt>
      <trkpt lat="49.04834" lon="3.4625">
        <ele>83.1</ele>
        <time>2020-07-01T08:44:56Z</time>
      </trkpt>
      <trkpt lat="49.04834" lon="3.46249">
        <ele>83.1</ele>
        <time>2020-07-01T08:44:57Z</time>
      </trkpt>
      <trkpt lat="49.04833" lon="3.46249">
        <ele>83</ele>
        <time>2020-07-01T08:44:58Z</time>
      </trkpt>
      <trkpt lat="49.04833" lon="3.46249">
        <ele>83</ele>
        <time>2020-07-01T08:44:59Z</time>
      </trkpt>
      <trkpt lat="49.04832" lon="3.46252">
        <ele>82.9</ele>
        <time>2020-07-01T08:45:00Z</time>
      </trkpt>
      <trkpt lat="49.04832" lon="3.46252">
        <ele>82.9</ele>
        <time>2020-07-01T08:45:01Z</time>
      </trkpt>
      <trkpt lat="49.04832" lon="3.46253">
        <ele>82.8</ele>
        <time>2020-07-01T08:45:02Z</time>
      </trkpt>
      <trkpt lat="49.04831" lon="3.46253">
        <ele>82.8</ele>
        <time>2020-07-01T08:45:03Z</time>
      </trkpt>
      <trkpt lat="49.04831" lon="3.46254">
        <ele>82.8</ele>
        <time>2020-07-01T08:45:04Z</time>
      </trkpt>
      <trkpt lat="49.04831" lon="3.46254">
        <ele>82.7</ele>
        <time>2020-07-01T08:45:05Z</time>
      </trkpt>
      <trkpt lat="49.0483" lon="3.46253">
        <ele>82.7</ele>
        <time>2020-07-01T08:45:06Z</time>
      </trkpt>
      <trkpt lat="49.0483" lon="3.46253">
        <ele>82.7</ele>
        <time>2020-07-01T08:45:07Z</time>
      </trkpt>
      <trkpt lat="49.0483" lon="3.46254">
        <ele>82.7</ele>
        <time>2020-07-01T08:45:08Z</time>
      </trkpt>
      <trkpt lat="49.0483" lon="3.46254">
        <ele>82.6</ele>
        <time>2020-07-01T08:45:09Z</time>
      </trkpt>
      <trkpt lat="49.04829" lon="3.46255">
        <ele>82.6</ele>
        <time>2020-07-01T08:45:10Z</time>
      </trkpt>
      <trkpt lat="49.04828" lon="3.46258">
        <ele>82.5</ele>
        <time>2020-07-01T08:45:11Z</time>
      </trkpt>
      <trkpt lat="49.04827" lon="3.46259">
        <ele>82.4</ele>
        <time>2020-07-01T08:45:12Z</time>
      </trkpt>
      <trkpt lat="49.04823" lon="3.46263">
        <ele>82.2</ele>
        <time>2020-07-01T08:45:13Z</time>
      </trkpt>
      <trkpt lat="49.04821" lon="3.46265">
        <ele>82.1</ele>
        <time>2020-07-01T08:45:14Z</time>
      </trkpt>
      <trkpt lat="49.04818" lon="3.46268">
        <ele>81.9</ele>
        <time>2020-07-01T08:45:15Z</time>
      </trkpt>
      <trkpt lat="49.04814" lon="3.46271">
        <ele>81.7</ele>
        <time>2020-07-01T08:45:16Z</time>
      </trkpt>
      <trkpt lat="49.0481" lon="3.46275">
        <ele>81.5</ele>
        <time>2020-07-01T08:45:17Z</time>
      </trkpt>
      <trkpt lat="49.04805" lon="3.46277">
        <ele>81.2</ele>
        <time>2020-07-01T08:45:18Z</time>
      </trkpt>
      <trkpt lat="49.04801" lon="3.46282">
        <ele>81</ele>
        <time>2020-07-01T08:45:19Z</time>
      </trkpt>
      <trkpt lat="49.04797" lon="3.46286">
        <ele>80.8</ele>
        <time>2020-07-01T08:45:20Z</time>
      </trkpt>
      <trkpt lat="49.04793" lon="3.46289">
        <ele>80.5</ele>
        <time>2020-07-01T08:45:21Z</time>
      </trkpt>
      <trkpt lat="49.04789" lon="3.46292">
        <ele>80.3</ele>
        <time>2020-07-01T08:45:22Z</time>
      </trkpt>
      <trkpt lat="49.04786" lon="3.46294">
        <ele>80.1</ele>
        <time>2020-07-01T08:45:23Z</time>
      </trkpt>
      <trkpt lat="49.04782" lon="3.46297">
        <ele>79.9</ele>
        <time>2020-07-01T08:45:24Z</time>
      </trkpt>
      <trkpt lat="49.04779" lon="3.46298">
        <ele>79.8</ele>
        <time>2020-07-01T08:45:25Z</time>
      </trkpt>
      <trkpt lat="49.04775" lon="3.46297">
        <ele>79.1</ele>
        <time>2020-07-01T08:45:26Z</time>
      </trkpt>
      <trkpt lat="49.04773" lon="3.46296">
        <ele>79.1</ele>
        <time>2020-07-01T08:45:27Z</time>
      </trkpt>
      <trkpt lat="49.04771" lon="3.46293">
        <ele>79.1</ele>
        <time>2020-07-01T08:45:28Z</time>
      </trkpt>
      <trkpt lat="49.04768" lon="3.46288">
        <ele>79.2</ele>
        <time>2020-07-01T08:45:29Z</time>
      </trkpt>
      <trkpt lat="49.04766" lon="3.46284">
        <ele>79.2</ele>
        <time>2020-07-01T08:45:30Z</time>
      </trkpt>
      <trkpt lat="49.04763" lon="3.4628">
        <ele>79.3</ele>
        <time>2020-07-01T08:45:31Z</time>
      </trkpt>
      <trkpt lat="49.04759" lon="3.46275">
        <ele>79.3</ele>
        <time>2020-07-01T08:45:32Z</time>
      </trkpt>
      <trkpt lat="49.04756" lon="3.4627">
        <ele>79.3</ele>
        <time>2020-07-01T08:45:33Z</time>
      </trkpt>
      <trkpt lat="49.04753" lon="3.46265">
        <ele>79.4</ele>
        <time>2020-07-01T08:45:34Z</time>
      </trkpt>
      <trkpt lat="49.0475" lon="3.46262">
        <ele>79.4</ele>
        <time>2020-07-01T08:45:35Z</time>
      </trkpt>
      <trkpt lat="49.04747" lon="3.46257">
        <ele>79.5</ele>
        <time>2020-07-01T08:45:36Z</time>
      </trkpt>
      <trkpt lat="49.04743" lon="3.46253">
        <ele>79.5</ele>
        <time>2020-07-01T08:45:37Z</time>
      </trkpt>
      <trkpt lat="49.04742" lon="3.46247">
        <ele>79.5</ele>
        <time>2020-07-01T08:45:38Z</time>
      </trkpt>
      <trkpt lat="49.0474" lon="3.46241">
        <ele>79.5</ele>
        <time>2020-07-01T08:45:39Z</time>
      </trkpt>
      <trkpt lat="49.04739" lon="3.46236">
        <ele>79.6</ele>
        <time>2020-07-01T08:45:40Z</time>
      </trkpt>
      <trkpt lat="49.04738" lon="3.4623">
        <ele>79.6</ele>
        <time>2020-07-01T08:45:41Z</time>
      </trkpt>
      <trkpt lat="49.04738" lon="3.46223">
        <ele>79.6</ele>
        <time>2020-07-01T08:45:42Z</time>
      </trkpt>
      <trkpt lat="49.04738" lon="3.46217">
        <ele>79.7</ele>
        <time>2020-07-01T08:45:43Z</time>
      </trkpt>
      <trkpt lat="49.04735" lon="3.46211">
        <ele>79.7</ele>
        <time>2020-07-01T08:45:44Z</time>
      </trkpt>
      <trkpt lat="49.04734" lon="3.46205">
        <ele>79.8</ele>
        <time>2020-07-01T08:45:45Z</time>
      </trkpt>
      <trkpt lat="49.04732" lon="3.46199">
        <ele>79.8</ele>
        <time>2020-07-01T08:45:46Z</time>
      </trkpt>
      <trkpt lat="49.0473" lon="3.46194">
        <ele>79.7</ele>
        <time>2020-07-01T08:45:47Z</time>
      </trkpt>
      <trkpt lat="49.04727" lon="3.46189">
        <ele>79.7</ele>
        <time>2020-07-01T08:45:48Z</time>
      </trkpt>
      <trkpt lat="49.04726" lon="3.46184">
        <ele>79.7</ele>
        <time>2020-07-01T08:45:49Z</time>
      </trkpt>
      <trkpt lat="49.04724" lon="3.46176">
        <ele>79.7</ele>
        <time>2020-07-01T08:45:50Z</time>
      </trkpt>
      <trkpt lat="49.04721" lon="3.46173">
        <ele>79.7</ele>
        <time>2020-07-01T08:45:51Z</time>
      </trkpt>
      <trkpt lat="49.0472" lon="3.46166">
        <ele>79.7</ele>
        <time>2020-07-01T08:45:52Z</time>
      </trkpt>
      <trkpt lat="49.04717" lon="3.46161">
        <ele>79.7</ele>
        <time>2020-07-01T08:45:53Z</time>
      </trkpt>
      <trkpt lat="49.04714" lon="3.46155">
        <ele>79.7</ele>
        <time>2020-07-01T08:45:54Z</time>
      </trkpt>
      <trkpt lat="49.04712" lon="3.46147">
        <ele>79.7</ele>
        <time>2020-07-01T08:45:55Z</time>
      </trkpt>
      <trkpt lat="49.04711" lon="3.46138">
        <ele>79.6</ele>
        <time>2020-07-01T08:45:56Z</time>
      </trkpt>
      <trkpt lat="49.04709" lon="3.4613">
        <ele>79.6</ele>
        <time>2020-07-01T08:45:57Z</time>
      </trkpt>
      <trkpt lat="49.04707" lon="3.46121">
        <ele>79.5</ele>
        <time>2020-07-01T08:45:58Z</time>
      </trkpt>
      <trkpt lat="49.04706" lon="3.46113">
        <ele>79.5</ele>
        <time>2020-07-01T08:45:59Z</time>
      </trkpt>
      <trkpt lat="49.04704" lon="3.46105">
        <ele>79.4</ele>
        <time>2020-07-01T08:46:00Z</time>
      </trkpt>
      <trkpt lat="49.04702" lon="3.46097">
        <ele>79.4</ele>
        <time>2020-07-01T08:46:01Z</time>
      </trkpt>
      <trkpt lat="49.04701" lon="3.46089">
        <ele>79.3</ele>
        <time>2020-07-01T08:46:02Z</time>
      </trkpt>
      <trkpt lat="49.04699" lon="3.46082">
        <ele>79.3</ele>
        <time>2020-07-01T08:46:03Z</time>
      </trkpt>
      <trkpt lat="49.04698" lon="3.46072">
        <ele>79.3</ele>
        <time>2020-07-01T08:46:04Z</time>
      </trkpt>
      <trkpt lat="49.04697" lon="3.46063">
        <ele>79.3</ele>
        <time>2020-07-01T08:46:05Z</time>
      </trkpt>
      <trkpt lat="49.04696" lon="3.46053">
        <ele>79.3</ele>
        <time>2020-07-01T08:46:06Z</time>
      </trkpt>
      <trkpt lat="49.04695" lon="3.46045">
        <ele>79.3</ele>
        <time>2020-07-01T08:46:07Z</time>
      </trkpt>
      <trkpt lat="49.04694" lon="3.46036">
        <ele>79.3</ele>
        <time>2020-07-01T08:46:08Z</time>
      </trkpt>
      <trkpt lat="49.04693" lon="3.46027">
        <ele>79.3</ele>
        <time>2020-07-01T08:46:09Z</time>
      </trkpt>
      <trkpt lat="49.04692" lon="3.46016">
        <ele>79.2</ele>
        <time>2020-07-01T08:46:10Z</time>
      </trkpt>
      <trkpt lat="49.04692" lon="3.46008">
        <ele>79.1</ele>
        <time>2020-07-01T08:46:11Z</time>
      </trkpt>
      <trkpt lat="49.04691" lon="3.45999">
        <ele>79</ele>
        <time>2020-07-01T08:46:12Z</time>
      </trkpt>
      <trkpt lat="49.04689" lon="3.4599">
        <ele>78.9</ele>
        <time>2020-07-01T08:46:13Z</time>
      </trkpt>
      <trkpt lat="49.04688" lon="3.45982">
        <ele>78.9</ele>
        <time>2020-07-01T08:46:14Z</time>
      </trkpt>
      <trkpt lat="49.04686" lon="3.45972">
        <ele>78.8</ele>
        <time>2020-07-01T08:46:15Z</time>
      </trkpt>
      <trkpt lat="49.04685" lon="3.45962">
        <ele>78.8</ele>
        <time>2020-07-01T08:46:16Z</time>
      </trkpt>
      <trkpt lat="49.04684" lon="3.45953">
        <ele>78.7</ele>
        <time>2020-07-01T08:46:17Z</time>
      </trkpt>
      <trkpt lat="49.04683" lon="3.45944">
        <ele>78.6</ele>
        <time>2020-07-01T08:46:18Z</time>
      </trkpt>
      <trkpt lat="49.04683" lon="3.45935">
        <ele>78.5</ele>
        <time>2020-07-01T08:46:19Z</time>
      </trkpt>
      <trkpt lat="49.04683" lon="3.45926">
        <ele>78.4</ele>
        <time>2020-07-01T08:46:20Z</time>
      </trkpt>
      <trkpt lat="49.04683" lon="3.45917">
        <ele>78.3</ele>
        <time>2020-07-01T08:46:21Z</time>
      </trkpt>
      <trkpt lat="49.04682" lon="3.45908">
        <ele>78.2</ele>
        <time>2020-07-01T08:46:22Z</time>
      </trkpt>
      <trkpt lat="49.04681" lon="3.45899">
        <ele>78.1</ele>
        <time>2020-07-01T08:46:23Z</time>
      </trkpt>
      <trkpt lat="49.0468" lon="3.4589">
        <ele>78</ele>
        <time>2020-07-01T08:46:24Z</time>
      </trkpt>
      <trkpt lat="49.04679" lon="3.4588">
        <ele>77.8</ele>
        <time>2020-07-01T08:46:25Z</time>
      </trkpt>
      <trkpt lat="49.04677" lon="3.45871">
        <ele>77.7</ele>
        <time>2020-07-01T08:46:26Z</time>
      </trkpt>
      <trkpt lat="49.04676" lon="3.4586">
        <ele>77.6</ele>
        <time>2020-07-01T08:46:27Z</time>
      </trkpt>
      <trkpt lat="49.04675" lon="3.4585">
        <ele>77.4</ele>
        <time>2020-07-01T08:46:28Z</time>
      </trkpt>
      <trkpt lat="49.04675" lon="3.4584">
        <ele>77.3</ele>
        <time>2020-07-01T08:46:29Z</time>
      </trkpt>
      <trkpt lat="49.04673" lon="3.45833">
        <ele>77.2</ele>
        <time>2020-07-01T08:46:30Z</time>
      </trkpt>
      <trkpt lat="49.04672" lon="3.45824">
        <ele>77.1</ele>
        <time>2020-07-01T08:46:31Z</time>
      </trkpt>
      <trkpt lat="49.04671" lon="3.45815">
        <ele>77</ele>
        <time>2020-07-01T08:46:32Z</time>
      </trkpt>
      <trkpt lat="49.0467" lon="3.45805">
        <ele>76.9</ele>
        <time>2020-07-01T08:46:33Z</time>
      </trkpt>
      <trkpt lat="49.04669" lon="3.45795">
        <ele>76.8</ele>
        <time>2020-07-01T08:46:34Z</time>
      </trkpt>
      <trkpt lat="49.04669" lon="3.45784">
        <ele>76.6</ele>
        <time>2020-07-01T08:46:35Z</time>
      </trkpt>
      <trkpt lat="49.04669" lon="3.45776">
        <ele>76.5</ele>
        <time>2020-07-01T08:46:36Z</time>
      </trkpt>
      <trkpt lat="49.04669" lon="3.45768">
        <ele>76.3</ele>
        <time>2020-07-01T08:46:37Z</time>
      </trkpt>
      <trkpt lat="49.04669" lon="3.4576">
        <ele>76.1</ele>
        <time>2020-07-01T08:46:38Z</time>
      </trkpt>
      <trkpt lat="49.04668" lon="3.45751">
        <ele>75.9</ele>
        <time>2020-07-01T08:46:39Z</time>
      </trkpt>
      <trkpt lat="49.04667" lon="3.45742">
        <ele>75.7</ele>
        <time>2020-07-01T08:46:40Z</time>
      </trkpt>
      <trkpt lat="49.04667" lon="3.45733">
        <ele>75.6</ele>
        <time>2020-07-01T08:46:41Z</time>
      </trkpt>
      <trkpt lat="49.04666" lon="3.45724">
        <ele>75.4</ele>
        <time>2020-07-01T08:46:42Z</time>
      </trkpt>
      <trkpt lat="49.04666" lon="3.45714">
        <ele>75.2</ele>
        <time>2020-07-01T08:46:43Z</time>
      </trkpt>
      <trkpt lat="49.04665" lon="3.45705">
        <ele>74.9</ele>
        <time>2020-07-01T08:46:44Z</time>
      </trkpt>
      <trkpt lat="49.04664" lon="3.45695">
        <ele>74.7</ele>
        <time>2020-07-01T08:46:45Z</time>
      </trkpt>
      <trkpt lat="49.04663" lon="3.45686">
        <ele>74.4</ele>
        <time>2020-07-01T08:46:46Z</time>
      </trkpt>
      <trkpt lat="49.04661" lon="3.45677">
        <ele>74.2</ele>
        <time>2020-07-01T08:46:47Z</time>
      </trkpt>
      <trkpt lat="49.04661" lon="3.45669">
        <ele>74</ele>
        <time>2020-07-01T08:46:48Z</time>
      </trkpt>
      <trkpt lat="49.0466" lon="3.45659">
        <ele>73.7</ele>
        <time>2020-07-01T08:46:49Z</time>
      </trkpt>
      <trkpt lat="49.04659" lon="3.45647">
        <ele>73.4</ele>
        <time>2020-07-01T08:46:50Z</time>
      </trkpt>
      <trkpt lat="49.04657" lon="3.45636">
        <ele>73</ele>
        <time>2020-07-01T08:46:51Z</time>
      </trkpt>
      <trkpt lat="49.04657" lon="3.45626">
        <ele>72.8</ele>
        <time>2020-07-01T08:46:52Z</time>
      </trkpt>
      <trkpt lat="49.04656" lon="3.45616">
        <ele>72.5</ele>
        <time>2020-07-01T08:46:53Z</time>
      </trkpt>
      <trkpt lat="49.04655" lon="3.45605">
        <ele>72.2</ele>
        <time>2020-07-01T08:46:54Z</time>
      </trkpt>
      <trkpt lat="49.04654" lon="3.45594">
        <ele>71.9</ele>
        <time>2020-07-01T08:46:55Z</time>
      </trkpt>
      <trkpt lat="49.04654" lon="3.45582">
        <ele>71.6</ele>
        <time>2020-07-01T08:46:56Z</time>
      </trkpt>
      <trkpt lat="49.04653" lon="3.4557">
        <ele>71.1</ele>
        <time>2020-07-01T08:46:57Z</time>
      </trkpt>
      <trkpt lat="49.04652" lon="3.45558">
        <ele>70.6</ele>
        <time>2020-07-01T08:46:58Z</time>
      </trkpt>
      <trkpt lat="49.04651" lon="3.45546">
        <ele>70.2</ele>
        <time>2020-07-01T08:46:59Z</time>
      </trkpt>
      <trkpt lat="49.0465" lon="3.45533">
        <ele>69.7</ele>
        <time>2020-07-01T08:47:00Z</time>
      </trkpt>
      <trkpt lat="49.04649" lon="3.45521">
        <ele>69.2</ele>
        <time>2020-07-01T08:47:01Z</time>
      </trkpt>
      <trkpt lat="49.04648" lon="3.45509">
        <ele>68.8</ele>
        <time>2020-07-01T08:47:02Z</time>
      </trkpt>
      <trkpt lat="49.04648" lon="3.45498">
        <ele>68.4</ele>
        <time>2020-07-01T08:47:03Z</time>
      </trkpt>
      <trkpt lat="49.04647" lon="3.45486">
        <ele>68.1</ele>
        <time>2020-07-01T08:47:04Z</time>
      </trkpt>
      <trkpt lat="49.04647" lon="3.45473">
        <ele>67.8</ele>
        <time>2020-07-01T08:47:05Z</time>
      </trkpt>
      <trkpt lat="49.04646" lon="3.45461">
        <ele>67.5</ele>
        <time>2020-07-01T08:47:06Z</time>
      </trkpt>
      <trkpt lat="49.04646" lon="3.45449">
        <ele>67.1</ele>
        <time>2020-07-01T08:47:07Z</time>
      </trkpt>
      <trkpt lat="49.04645" lon="3.45437">
        <ele>66.8</ele>
        <time>2020-07-01T08:47:08Z</time>
      </trkpt>
      <trkpt lat="49.04644" lon="3.45424">
        <ele>66.5</ele>
        <time>2020-07-01T08:47:09Z</time>
      </trkpt>
      <trkpt lat="49.04644" lon="3.45412">
        <ele>66.3</ele>
        <time>2020-07-01T08:47:10Z</time>
      </trkpt>
      <trkpt lat="49.04643" lon="3.45399">
        <ele>66</ele>
        <time>2020-07-01T08:47:11Z</time>
      </trkpt>
      <trkpt lat="49.04642" lon="3.45387">
        <ele>65.8</ele>
        <time>2020-07-01T08:47:12Z</time>
      </trkpt>
      <trkpt lat="49.04641" lon="3.45374">
        <ele>65.5</ele>
        <time>2020-07-01T08:47:13Z</time>
      </trkpt>
      <trkpt lat="49.04641" lon="3.45362">
        <ele>65.4</ele>
        <time>2020-07-01T08:47:14Z</time>
      </trkpt>
      <trkpt lat="49.0464" lon="3.4535">
        <ele>65.2</ele>
        <time>2020-07-01T08:47:15Z</time>
      </trkpt>
      <trkpt lat="49.0464" lon="3.45338">
        <ele>65.1</ele>
        <time>2020-07-01T08:47:16Z</time>
      </trkpt>
      <trkpt lat="49.04639" lon="3.45327">
        <ele>64.9</ele>
        <time>2020-07-01T08:47:17Z</time>
      </trkpt>
      <trkpt lat="49.04638" lon="3.45315">
        <ele>64.8</ele>
        <time>2020-07-01T08:47:18Z</time>
      </trkpt>
      <trkpt lat="49.04637" lon="3.45304">
        <ele>64.8</ele>
        <time>2020-07-01T08:47:19Z</time>
      </trkpt>
      <trkpt lat="49.04636" lon="3.45293">
        <ele>64.7</ele>
        <time>2020-07-01T08:47:20Z</time>
      </trkpt>
      <trkpt lat="49.04635" lon="3.45281">
        <ele>64.6</ele>
        <time>2020-07-01T08:47:21Z</time>
      </trkpt>
      <trkpt lat="49.04634" lon="3.4527">
        <ele>64.6</ele>
        <time>2020-07-01T08:47:22Z</time>
      </trkpt>
      <trkpt lat="49.04634" lon="3.4526">
        <ele>64.6</ele>
        <time>2020-07-01T08:47:23Z</time>
      </trkpt>
      <trkpt lat="49.04633" lon="3.45249">
        <ele>64.6</ele>
        <time>2020-07-01T08:47:24Z</time>
      </trkpt>
      <trkpt lat="49.04633" lon="3.45239">
        <ele>64.5</ele>
        <time>2020-07-01T08:47:25Z</time>
      </trkpt>
      <trkpt lat="49.04632" lon="3.45229">
        <ele>64.5</ele>
        <time>2020-07-01T08:47:26Z</time>
      </trkpt>
      <trkpt lat="49.04631" lon="3.4522">
        <ele>64.4</ele>
        <time>2020-07-01T08:47:27Z</time>
      </trkpt>
      <trkpt lat="49.04631" lon="3.4521">
        <ele>64.4</ele>
        <time>2020-07-01T08:47:28Z</time>
      </trkpt>
      <trkpt lat="49.0463" lon="3.452">
        <ele>64.4</ele>
        <time>2020-07-01T08:47:29Z</time>
      </trkpt>
      <trkpt lat="49.04629" lon="3.45189">
        <ele>64.4</ele>
        <time>2020-07-01T08:47:30Z</time>
      </trkpt>
      <trkpt lat="49.04628" lon="3.4518">
        <ele>64.3</ele>
        <time>2020-07-01T08:47:31Z</time>
      </trkpt>
      <trkpt lat="49.04628" lon="3.4517">
        <ele>64.4</ele>
        <time>2020-07-01T08:47:32Z</time>
      </trkpt>
      <trkpt lat="49.04627" lon="3.4516">
        <ele>64.4</ele>
        <time>2020-07-01T08:47:33Z</time>
      </trkpt>
      <trkpt lat="49.04626" lon="3.4515">
        <ele>64.4</ele>
        <time>2020-07-01T08:47:34Z</time>
      </trkpt>
      <trkpt lat="49.04626" lon="3.45141">
        <ele>64.4</ele>
        <time>2020-07-01T08:47:35Z</time>
      </trkpt>
      <trkpt lat="49.04625" lon="3.45131">
        <ele>64.3</ele>
        <time>2020-07-01T08:47:36Z</time>
      </trkpt>
      <trkpt lat="49.04625" lon="3.45122">
        <ele>64.3</ele>
        <time>2020-07-01T08:47:37Z</time>
      </trkpt>
      <trkpt lat="49.04625" lon="3.45112">
        <ele>64.3</ele>
        <time>2020-07-01T08:47:38Z</time>
      </trkpt>
      <trkpt lat="49.04624" lon="3.45102">
        <ele>64.2</ele>
        <time>2020-07-01T08:47:39Z</time>
      </trkpt>
      <trkpt lat="49.04623" lon="3.45093">
        <ele>64.2</ele>
        <time>2020-07-01T08:47:40Z</time>
      </trkpt>
      <trkpt lat="49.04623" lon="3.45084">
        <ele>64.2</ele>
        <time>2020-07-01T08:47:41Z</time>
      </trkpt>
      <trkpt lat="49.04622" lon="3.45075">
        <ele>64.2</ele>
        <time>2020-07-01T08:47:42Z</time>
      </trkpt>
      <trkpt lat="49.04622" lon="3.45065">
        <ele>64.2</ele>
        <time>2020-07-01T08:47:43Z</time>
      </trkpt>
      <trkpt lat="49.04621" lon="3.45056">
        <ele>64.2</ele>
        <time>2020-07-01T08:47:44Z</time>
      </trkpt>
      <trkpt lat="49.04621" lon="3.45046">
        <ele>64.1</ele>
        <time>2020-07-01T08:47:45Z</time>
      </trkpt>
      <trkpt lat="49.0462" lon="3.45036">
        <ele>64.1</ele>
        <time>2020-07-01T08:47:46Z</time>
      </trkpt>
      <trkpt lat="49.0462" lon="3.45027">
        <ele>64.1</ele>
        <time>2020-07-01T08:47:47Z</time>
      </trkpt>
      <trkpt lat="49.0462" lon="3.45018">
        <ele>64</ele>
        <time>2020-07-01T08:47:48Z</time>
      </trkpt>
      <trkpt lat="49.04619" lon="3.4501">
        <ele>63.9</ele>
        <time>2020-07-01T08:47:49Z</time>
      </trkpt>
      <trkpt lat="49.04619" lon="3.45001">
        <ele>63.9</ele>
        <time>2020-07-01T08:47:50Z</time>
      </trkpt>
      <trkpt lat="49.04619" lon="3.44992">
        <ele>63.8</ele>
        <time>2020-07-01T08:47:51Z</time>
      </trkpt>
      <trkpt lat="49.04618" lon="3.44984">
        <ele>63.7</ele>
        <time>2020-07-01T08:47:52Z</time>
      </trkpt>
      <trkpt lat="49.04617" lon="3.44976">
        <ele>63.6</ele>
        <time>2020-07-01T08:47:53Z</time>
      </trkpt>
      <trkpt lat="49.04616" lon="3.44967">
        <ele>63.6</ele>
        <time>2020-07-01T08:47:54Z</time>
      </trkpt>
      <trkpt lat="49.04615" lon="3.44958">
        <ele>63.5</ele>
        <time>2020-07-01T08:47:55Z</time>
      </trkpt>
      <trkpt lat="49.04614" lon="3.44949">
        <ele>63.3</ele>
        <time>2020-07-01T08:47:56Z</time>
      </trkpt>
      <trkpt lat="49.04614" lon="3.44939">
        <ele>63.2</ele>
        <time>2020-07-01T08:47:57Z</time>
      </trkpt>
      <trkpt lat="49.04612" lon="3.4493">
        <ele>63</ele>
        <time>2020-07-01T08:47:58Z</time>
      </trkpt>
      <trkpt lat="49.04611" lon="3.4492">
        <ele>62.9</ele>
        <time>2020-07-01T08:47:59Z</time>
      </trkpt>
      <trkpt lat="49.0461" lon="3.44911">
        <ele>62.8</ele>
        <time>2020-07-01T08:48:00Z</time>
      </trkpt>
      <trkpt lat="49.0461" lon="3.44901">
        <ele>62.7</ele>
        <time>2020-07-01T08:48:01Z</time>
      </trkpt>
      <trkpt lat="49.0461" lon="3.44891">
        <ele>62.6</ele>
        <time>2020-07-01T08:48:02Z</time>
      </trkpt>
      <trkpt lat="49.04609" lon="3.44881">
        <ele>62.5</ele>
        <time>2020-07-01T08:48:03Z</time>
      </trkpt>
      <trkpt lat="49.04609" lon="3.44872">
        <ele>62.4</ele>
        <time>2020-07-01T08:48:04Z</time>
      </trkpt>
      <trkpt lat="49.04609" lon="3.44862">
        <ele>62.3</ele>
        <time>2020-07-01T08:48:05Z</time>
      </trkpt>
      <trkpt lat="49.04609" lon="3.44853">
        <ele>62.2</ele>
        <time>2020-07-01T08:48:06Z</time>
      </trkpt>
      <trkpt lat="49.04609" lon="3.44844">
        <ele>62.1</ele>
        <time>2020-07-01T08:48:07Z</time>
      </trkpt>
      <trkpt lat="49.04608" lon="3.44835">
        <ele>62.1</ele>
        <time>2020-07-01T08:48:08Z</time>
      </trkpt>
      <trkpt lat="49.04609" lon="3.44826">
        <ele>62.1</ele>
        <time>2020-07-01T08:48:09Z</time>
      </trkpt>
      <trkpt lat="49.04609" lon="3.44818">
        <ele>62</ele>
        <time>2020-07-01T08:48:10Z</time>
      </trkpt>
      <trkpt lat="49.04609" lon="3.4481">
        <ele>62</ele>
        <time>2020-07-01T08:48:11Z</time>
      </trkpt>
      <trkpt lat="49.04609" lon="3.44801">
        <ele>61.9</ele>
        <time>2020-07-01T08:48:12Z</time>
      </trkpt>
      <trkpt lat="49.04609" lon="3.44792">
        <ele>61.9</ele>
        <time>2020-07-01T08:48:13Z</time>
      </trkpt>
      <trkpt lat="49.04609" lon="3.44784">
        <ele>61.9</ele>
        <time>2020-07-01T08:48:14Z</time>
      </trkpt>
      <trkpt lat="49.04609" lon="3.44775">
        <ele>61.9</ele>
        <time>2020-07-01T08:48:15Z</time>
      </trkpt>
      <trkpt lat="49.04609" lon="3.44766">
        <ele>62</ele>
        <time>2020-07-01T08:48:16Z</time>
      </trkpt>
      <trkpt lat="49.0461" lon="3.44758">
        <ele>62</ele>
        <time>2020-07-01T08:48:17Z</time>
      </trkpt>
      <trkpt lat="49.0461" lon="3.4475">
        <ele>62.1</ele>
        <time>2020-07-01T08:48:18Z</time>
      </trkpt>
      <trkpt lat="49.0461" lon="3.44743">
        <ele>62.2</ele>
        <time>2020-07-01T08:48:19Z</time>
      </trkpt>
      <trkpt lat="49.04611" lon="3.44735">
        <ele>62.3</ele>
        <time>2020-07-01T08:48:20Z</time>
      </trkpt>
      <trkpt lat="49.04611" lon="3.44728">
        <ele>62.2</ele>
        <time>2020-07-01T08:48:21Z</time>
      </trkpt>
      <trkpt lat="49.04612" lon="3.44721">
        <ele>62.2</ele>
        <time>2020-07-01T08:48:22Z</time>
      </trkpt>
      <trkpt lat="49.04612" lon="3.44714">
        <ele>62.1</ele>
        <time>2020-07-01T08:48:23Z</time>
      </trkpt>
      <trkpt lat="49.04613" lon="3.44706">
        <ele>62.1</ele>
        <time>2020-07-01T08:48:24Z</time>
      </trkpt>
      <trkpt lat="49.04614" lon="3.44699">
        <ele>62</ele>
        <time>2020-07-01T08:48:25Z</time>
      </trkpt>
      <trkpt lat="49.04614" lon="3.44691">
        <ele>62</ele>
        <time>2020-07-01T08:48:26Z</time>
      </trkpt>
      <trkpt lat="49.04615" lon="3.44683">
        <ele>62</ele>
        <time>2020-07-01T08:48:27Z</time>
      </trkpt>
      <trkpt lat="49.04615" lon="3.44675">
        <ele>62.1</ele>
        <time>2020-07-01T08:48:28Z</time>
      </trkpt>
      <trkpt lat="49.04616" lon="3.44668">
        <ele>62.1</ele>
        <time>2020-07-01T08:48:29Z</time>
      </trkpt>
      <trkpt lat="49.04617" lon="3.44659">
        <ele>62.1</ele>
        <time>2020-07-01T08:48:30Z</time>
      </trkpt>
      <trkpt lat="49.04617" lon="3.44651">
        <ele>62.1</ele>
        <time>2020-07-01T08:48:31Z</time>
      </trkpt>
      <trkpt lat="49.04617" lon="3.44643">
        <ele>62.1</ele>
        <time>2020-07-01T08:48:32Z</time>
      </trkpt>
      <trkpt lat="49.04617" lon="3.44634">
        <ele>62.1</ele>
        <time>2020-07-01T08:48:33Z</time>
      </trkpt>
      <trkpt lat="49.04617" lon="3.44626">
        <ele>62.2</ele>
        <time>2020-07-01T08:48:34Z</time>
      </trkpt>
      <trkpt lat="49.04618" lon="3.44618">
        <ele>62.2</ele>
        <time>2020-07-01T08:48:35Z</time>
      </trkpt>
      <trkpt lat="49.04618" lon="3.4461">
        <ele>62.2</ele>
        <time>2020-07-01T08:48:36Z</time>
      </trkpt>
      <trkpt lat="49.04618" lon="3.44602">
        <ele>62.2</ele>
        <time>2020-07-01T08:48:37Z</time>
      </trkpt>
      <trkpt lat="49.04619" lon="3.44593">
        <ele>62.2</ele>
        <time>2020-07-01T08:48:38Z</time>
      </trkpt>
      <trkpt lat="49.04619" lon="3.44585">
        <ele>62.2</ele>
        <time>2020-07-01T08:48:39Z</time>
      </trkpt>
      <trkpt lat="49.04619" lon="3.44577">
        <ele>62.3</ele>
        <time>2020-07-01T08:48:40Z</time>
      </trkpt>
      <trkpt lat="49.04619" lon="3.44568">
        <ele>62.3</ele>
        <time>2020-07-01T08:48:41Z</time>
      </trkpt>
      <trkpt lat="49.0462" lon="3.4456">
        <ele>62.3</ele>
        <time>2020-07-01T08:48:42Z</time>
      </trkpt>
      <trkpt lat="49.0462" lon="3.44551">
        <ele>62.3</ele>
        <time>2020-07-01T08:48:43Z</time>
      </trkpt>
      <trkpt lat="49.04621" lon="3.44543">
        <ele>62.3</ele>
        <time>2020-07-01T08:48:44Z</time>
      </trkpt>
      <trkpt lat="49.04622" lon="3.44534">
        <ele>62.3</ele>
        <time>2020-07-01T08:48:45Z</time>
      </trkpt>
      <trkpt lat="49.04622" lon="3.44525">
        <ele>62.2</ele>
        <time>2020-07-01T08:48:46Z</time>
      </trkpt>
      <trkpt lat="49.04622" lon="3.44516">
        <ele>62.2</ele>
        <time>2020-07-01T08:48:47Z</time>
      </trkpt>
      <trkpt lat="49.04622" lon="3.44508">
        <ele>62.2</ele>
        <time>2020-07-01T08:48:48Z</time>
      </trkpt>
      <trkpt lat="49.04623" lon="3.44499">
        <ele>62.2</ele>
        <time>2020-07-01T08:48:49Z</time>
      </trkpt>
      <trkpt lat="49.04623" lon="3.4449">
        <ele>62.2</ele>
        <time>2020-07-01T08:48:50Z</time>
      </trkpt>
      <trkpt lat="49.04624" lon="3.44481">
        <ele>62.2</ele>
        <time>2020-07-01T08:48:51Z</time>
      </trkpt>
      <trkpt lat="49.04624" lon="3.44472">
        <ele>62.2</ele>
        <time>2020-07-01T08:48:52Z</time>
      </trkpt>
      <trkpt lat="49.04624" lon="3.44463">
        <ele>62.1</ele>
        <time>2020-07-01T08:48:53Z</time>
      </trkpt>
      <trkpt lat="49.04624" lon="3.44455">
        <ele>61.9</ele>
        <time>2020-07-01T08:48:54Z</time>
      </trkpt>
      <trkpt lat="49.04625" lon="3.44446">
        <ele>61.8</ele>
        <time>2020-07-01T08:48:55Z</time>
      </trkpt>
      <trkpt lat="49.04625" lon="3.44438">
        <ele>61.7</ele>
        <time>2020-07-01T08:48:56Z</time>
      </trkpt>
      <trkpt lat="49.04625" lon="3.44429">
        <ele>61.6</ele>
        <time>2020-07-01T08:48:57Z</time>
      </trkpt>
      <trkpt lat="49.04625" lon="3.4442">
        <ele>61.6</ele>
        <time>2020-07-01T08:48:58Z</time>
      </trkpt>
      <trkpt lat="49.04625" lon="3.44412">
        <ele>61.6</ele>
        <time>2020-07-01T08:48:59Z</time>
      </trkpt>
      <trkpt lat="49.04625" lon="3.44403">
        <ele>61.6</ele>
        <time>2020-07-01T08:49:00Z</time>
      </trkpt>
      <trkpt lat="49.04626" lon="3.44395">
        <ele>61.6</ele>
        <time>2020-07-01T08:49:01Z</time>
      </trkpt>
      <trkpt lat="49.04626" lon="3.44386">
        <ele>61.6</ele>
        <time>2020-07-01T08:49:02Z</time>
      </trkpt>
      <trkpt lat="49.04627" lon="3.44377">
        <ele>61.6</ele>
        <time>2020-07-01T08:49:03Z</time>
      </trkpt>
      <trkpt lat="49.04627" lon="3.44369">
        <ele>61.6</ele>
        <time>2020-07-01T08:49:04Z</time>
      </trkpt>
      <trkpt lat="49.04627" lon="3.4436">
        <ele>61.6</ele>
        <time>2020-07-01T08:49:05Z</time>
      </trkpt>
      <trkpt lat="49.04628" lon="3.44352">
        <ele>61.6</ele>
        <time>2020-07-01T08:49:06Z</time>
      </trkpt>
      <trkpt lat="49.04628" lon="3.44343">
        <ele>61.6</ele>
        <time>2020-07-01T08:49:07Z</time>
      </trkpt>
      <trkpt lat="49.04628" lon="3.44335">
        <ele>61.6</ele>
        <time>2020-07-01T08:49:08Z</time>
      </trkpt>
      <trkpt lat="49.04628" lon="3.44327">
        <ele>61.6</ele>
        <time>2020-07-01T08:49:09Z</time>
      </trkpt>
      <trkpt lat="49.04629" lon="3.44318">
        <ele>61.6</ele>
        <time>2020-07-01T08:49:10Z</time>
      </trkpt>
      <trkpt lat="49.04629" lon="3.4431">
        <ele>61.6</ele>
        <time>2020-07-01T08:49:11Z</time>
      </trkpt>
      <trkpt lat="49.04629" lon="3.44302">
        <ele>61.6</ele>
        <time>2020-07-01T08:49:12Z</time>
      </trkpt>
      <trkpt lat="49.04629" lon="3.44293">
        <ele>61.6</ele>
        <time>2020-07-01T08:49:13Z</time>
      </trkpt>
      <trkpt lat="49.04629" lon="3.44285">
        <ele>61.7</ele>
        <time>2020-07-01T08:49:14Z</time>
      </trkpt>
      <trkpt lat="49.04629" lon="3.44277">
        <ele>61.7</ele>
        <time>2020-07-01T08:49:15Z</time>
      </trkpt>
      <trkpt lat="49.04629" lon="3.44269">
        <ele>61.7</ele>
        <time>2020-07-01T08:49:16Z</time>
      </trkpt>
      <trkpt lat="49.04629" lon="3.44261">
        <ele>61.7</ele>
        <time>2020-07-01T08:49:17Z</time>
      </trkpt>
      <trkpt lat="49.04629" lon="3.44253">
        <ele>61.7</ele>
        <time>2020-07-01T08:49:18Z</time>
      </trkpt>
      <trkpt lat="49.04629" lon="3.44245">
        <ele>61.7</ele>
        <time>2020-07-01T08:49:19Z</time>
      </trkpt>
      <trkpt lat="49.04629" lon="3.44237">
        <ele>61.6</ele>
        <time>2020-07-01T08:49:20Z</time>
      </trkpt>
      <trkpt lat="49.0463" lon="3.4423">
        <ele>61.6</ele>
        <time>2020-07-01T08:49:21Z</time>
      </trkpt>
      <trkpt lat="49.0463" lon="3.44223">
        <ele>61.6</ele>
        <time>2020-07-01T08:49:22Z</time>
      </trkpt>
      <trkpt lat="49.0463" lon="3.44215">
        <ele>61.6</ele>
        <time>2020-07-01T08:49:23Z</time>
      </trkpt>
      <trkpt lat="49.0463" lon="3.44208">
        <ele>61.6</ele>
        <time>2020-07-01T08:49:24Z</time>
      </trkpt>
      <trkpt lat="49.0463" lon="3.442">
        <ele>61.7</ele>
        <time>2020-07-01T08:49:25Z</time>
      </trkpt>
      <trkpt lat="49.0463" lon="3.44193">
        <ele>61.7</ele>
        <time>2020-07-01T08:49:26Z</time>
      </trkpt>
      <trkpt lat="49.0463" lon="3.44185">
        <ele>61.7</ele>
        <time>2020-07-01T08:49:27Z</time>
      </trkpt>
      <trkpt lat="49.0463" lon="3.44178">
        <ele>61.7</ele>
        <time>2020-07-01T08:49:28Z</time>
      </trkpt>
      <trkpt lat="49.0463" lon="3.4417">
        <ele>61.7</ele>
        <time>2020-07-01T08:49:29Z</time>
      </trkpt>
      <trkpt lat="49.0463" lon="3.44162">
        <ele>61.8</ele>
        <time>2020-07-01T08:49:30Z</time>
      </trkpt>
      <trkpt lat="49.04631" lon="3.44155">
        <ele>61.9</ele>
        <time>2020-07-01T08:49:31Z</time>
      </trkpt>
      <trkpt lat="49.0463" lon="3.44147">
        <ele>62</ele>
        <time>2020-07-01T08:49:32Z</time>
      </trkpt>
      <trkpt lat="49.0463" lon="3.44139">
        <ele>61.9</ele>
        <time>2020-07-01T08:49:33Z</time>
      </trkpt>
      <trkpt lat="49.0463" lon="3.44132">
        <ele>61.8</ele>
        <time>2020-07-01T08:49:34Z</time>
      </trkpt>
      <trkpt lat="49.0463" lon="3.44124">
        <ele>61.7</ele>
        <time>2020-07-01T08:49:35Z</time>
      </trkpt>
      <trkpt lat="49.0463" lon="3.44116">
        <ele>61.6</ele>
        <time>2020-07-01T08:49:36Z</time>
      </trkpt>
      <trkpt lat="49.0463" lon="3.44109">
        <ele>61.6</ele>
        <time>2020-07-01T08:49:37Z</time>
      </trkpt>
      <trkpt lat="49.0463" lon="3.44101">
        <ele>61.6</ele>
        <time>2020-07-01T08:49:38Z</time>
      </trkpt>
      <trkpt lat="49.0463" lon="3.44094">
        <ele>61.6</ele>
        <time>2020-07-01T08:49:39Z</time>
      </trkpt>
      <trkpt lat="49.0463" lon="3.44087">
        <ele>61.6</ele>
        <time>2020-07-01T08:49:40Z</time>
      </trkpt>
      <trkpt lat="49.04631" lon="3.4408">
        <ele>61.6</ele>
        <time>2020-07-01T08:49:41Z</time>
      </trkpt>
      <trkpt lat="49.04631" lon="3.44072">
        <ele>61.6</ele>
        <time>2020-07-01T08:49:42Z</time>
      </trkpt>
      <trkpt lat="49.04631" lon="3.44064">
        <ele>61.6</ele>
        <time>2020-07-01T08:49:43Z</time>
      </trkpt>
      <trkpt lat="49.04632" lon="3.44057">
        <ele>61.6</ele>
        <time>2020-07-01T08:49:44Z</time>
      </trkpt>
      <trkpt lat="49.04633" lon="3.44049">
        <ele>61.6</ele>
        <time>2020-07-01T08:49:45Z</time>
      </trkpt>
      <trkpt lat="49.04633" lon="3.44041">
        <ele>61.6</ele>
        <time>2020-07-01T08:49:46Z</time>
      </trkpt>
      <trkpt lat="49.04634" lon="3.44033">
        <ele>61.6</ele>
        <time>2020-07-01T08:49:47Z</time>
      </trkpt>
      <trkpt lat="49.04634" lon="3.44025">
        <ele>61.6</ele>
        <time>2020-07-01T08:49:48Z</time>
      </trkpt>
      <trkpt lat="49.04634" lon="3.44017">
        <ele>61.6</ele>
        <time>2020-07-01T08:49:49Z</time>
      </trkpt>
      <trkpt lat="49.04635" lon="3.44009">
        <ele>61.6</ele>
        <time>2020-07-01T08:49:50Z</time>
      </trkpt>
      <trkpt lat="49.04636" lon="3.44001">
        <ele>61.6</ele>
        <time>2020-07-01T08:49:51Z</time>
      </trkpt>
      <trkpt lat="49.04637" lon="3.43993">
        <ele>61.6</ele>
        <time>2020-07-01T08:49:52Z</time>
      </trkpt>
      <trkpt lat="49.04637" lon="3.43984">
        <ele>61.5</ele>
        <time>2020-07-01T08:49:53Z</time>
      </trkpt>
      <trkpt lat="49.04638" lon="3.43976">
        <ele>61.5</ele>
        <time>2020-07-01T08:49:54Z</time>
      </trkpt>
      <trkpt lat="49.0464" lon="3.43968">
        <ele>61.5</ele>
        <time>2020-07-01T08:49:55Z</time>
      </trkpt>
      <trkpt lat="49.04641" lon="3.4396">
        <ele>61.5</ele>
        <time>2020-07-01T08:49:56Z</time>
      </trkpt>
      <trkpt lat="49.04642" lon="3.43952">
        <ele>61.5</ele>
        <time>2020-07-01T08:49:57Z</time>
      </trkpt>
      <trkpt lat="49.04644" lon="3.43944">
        <ele>61.5</ele>
        <time>2020-07-01T08:49:58Z</time>
      </trkpt>
      <trkpt lat="49.04645" lon="3.43936">
        <ele>61.5</ele>
        <time>2020-07-01T08:49:59Z</time>
      </trkpt>
      <trkpt lat="49.04646" lon="3.43928">
        <ele>61.5</ele>
        <time>2020-07-01T08:50:00Z</time>
      </trkpt>
      <trkpt lat="49.04647" lon="3.43919">
        <ele>61.5</ele>
        <time>2020-07-01T08:50:01Z</time>
      </trkpt>
      <trkpt lat="49.04648" lon="3.43911">
        <ele>61.5</ele>
        <time>2020-07-01T08:50:02Z</time>
      </trkpt>
      <trkpt lat="49.04648" lon="3.43903">
        <ele>61.5</ele>
        <time>2020-07-01T08:50:03Z</time>
      </trkpt>
      <trkpt lat="49.04649" lon="3.43894">
        <ele>61.5</ele>
        <time>2020-07-01T08:50:04Z</time>
      </trkpt>
      <trkpt lat="49.04649" lon="3.43886">
        <ele>61.5</ele>
        <time>2020-07-01T08:50:05Z</time>
      </trkpt>
      <trkpt lat="49.0465" lon="3.43878">
        <ele>61.5</ele>
        <time>2020-07-01T08:50:06Z</time>
      </trkpt>
      <trkpt lat="49.04651" lon="3.43869">
        <ele>61.5</ele>
        <time>2020-07-01T08:50:07Z</time>
      </trkpt>
      <trkpt lat="49.04652" lon="3.43861">
        <ele>61.5</ele>
        <time>2020-07-01T08:50:08Z</time>
      </trkpt>
      <trkpt lat="49.04653" lon="3.43853">
        <ele>61.6</ele>
        <time>2020-07-01T08:50:09Z</time>
      </trkpt>
      <trkpt lat="49.04653" lon="3.43844">
        <ele>61.6</ele>
        <time>2020-07-01T08:50:10Z</time>
      </trkpt>
      <trkpt lat="49.04654" lon="3.43836">
        <ele>61.6</ele>
        <time>2020-07-01T08:50:11Z</time>
      </trkpt>
      <trkpt lat="49.04655" lon="3.43829">
        <ele>61.6</ele>
        <time>2020-07-01T08:50:12Z</time>
      </trkpt>
      <trkpt lat="49.04656" lon="3.43821">
        <ele>61.6</ele>
        <time>2020-07-01T08:50:13Z</time>
      </trkpt>
      <trkpt lat="49.04657" lon="3.43813">
        <ele>61.6</ele>
        <time>2020-07-01T08:50:14Z</time>
      </trkpt>
      <trkpt lat="49.04657" lon="3.43805">
        <ele>61.6</ele>
        <time>2020-07-01T08:50:15Z</time>
      </trkpt>
      <trkpt lat="49.04658" lon="3.43797">
        <ele>61.7</ele>
        <time>2020-07-01T08:50:16Z</time>
      </trkpt>
      <trkpt lat="49.04659" lon="3.43789">
        <ele>61.7</ele>
        <time>2020-07-01T08:50:17Z</time>
      </trkpt>
      <trkpt lat="49.0466" lon="3.43781">
        <ele>61.7</ele>
        <time>2020-07-01T08:50:18Z</time>
      </trkpt>
      <trkpt lat="49.04661" lon="3.43774">
        <ele>61.7</ele>
        <time>2020-07-01T08:50:19Z</time>
      </trkpt>
      <trkpt lat="49.04662" lon="3.43766">
        <ele>61.7</ele>
        <time>2020-07-01T08:50:20Z</time>
      </trkpt>
      <trkpt lat="49.04663" lon="3.43758">
        <ele>61.7</ele>
        <time>2020-07-01T08:50:21Z</time>
      </trkpt>
      <trkpt lat="49.04665" lon="3.4375">
        <ele>61.7</ele>
        <time>2020-07-01T08:50:22Z</time>
      </trkpt>
      <trkpt lat="49.04666" lon="3.43742">
        <ele>61.7</ele>
        <time>2020-07-01T08:50:23Z</time>
      </trkpt>
      <trkpt lat="49.04667" lon="3.43733">
        <ele>61.7</ele>
        <time>2020-07-01T08:50:24Z</time>
      </trkpt>
      <trkpt lat="49.04668" lon="3.43725">
        <ele>61.8</ele>
        <time>2020-07-01T08:50:25Z</time>
      </trkpt>
      <trkpt lat="49.04669" lon="3.43717">
        <ele>61.8</ele>
        <time>2020-07-01T08:50:26Z</time>
      </trkpt>
      <trkpt lat="49.04671" lon="3.43708">
        <ele>61.8</ele>
        <time>2020-07-01T08:50:27Z</time>
      </trkpt>
      <trkpt lat="49.04672" lon="3.437">
        <ele>61.9</ele>
        <time>2020-07-01T08:50:28Z</time>
      </trkpt>
      <trkpt lat="49.04673" lon="3.43691">
        <ele>62</ele>
        <time>2020-07-01T08:50:29Z</time>
      </trkpt>
      <trkpt lat="49.04674" lon="3.43682">
        <ele>62</ele>
        <time>2020-07-01T08:50:30Z</time>
      </trkpt>
      <trkpt lat="49.04675" lon="3.43673">
        <ele>62.1</ele>
        <time>2020-07-01T08:50:31Z</time>
      </trkpt>
      <trkpt lat="49.04676" lon="3.43665">
        <ele>62.2</ele>
        <time>2020-07-01T08:50:32Z</time>
      </trkpt>
      <trkpt lat="49.04677" lon="3.43656">
        <ele>62.3</ele>
        <time>2020-07-01T08:50:33Z</time>
      </trkpt>
      <trkpt lat="49.04678" lon="3.43648">
        <ele>62.3</ele>
        <time>2020-07-01T08:50:34Z</time>
      </trkpt>
      <trkpt lat="49.04679" lon="3.4364">
        <ele>62.4</ele>
        <time>2020-07-01T08:50:35Z</time>
      </trkpt>
      <trkpt lat="49.0468" lon="3.43632">
        <ele>62.5</ele>
        <time>2020-07-01T08:50:36Z</time>
      </trkpt>
      <trkpt lat="49.04681" lon="3.43624">
        <ele>62.6</ele>
        <time>2020-07-01T08:50:37Z</time>
      </trkpt>
      <trkpt lat="49.04683" lon="3.43617">
        <ele>62.6</ele>
        <time>2020-07-01T08:50:38Z</time>
      </trkpt>
      <trkpt lat="49.04684" lon="3.4361">
        <ele>62.5</ele>
        <time>2020-07-01T08:50:39Z</time>
      </trkpt>
      <trkpt lat="49.04685" lon="3.43603">
        <ele>62.5</ele>
        <time>2020-07-01T08:50:40Z</time>
      </trkpt>
      <trkpt lat="49.04687" lon="3.43595">
        <ele>62.5</ele>
        <time>2020-07-01T08:50:41Z</time>
      </trkpt>
      <trkpt lat="49.04688" lon="3.43587">
        <ele>62.4</ele>
        <time>2020-07-01T08:50:42Z</time>
      </trkpt>
      <trkpt lat="49.04689" lon="3.43579">
        <ele>62.5</ele>
        <time>2020-07-01T08:50:43Z</time>
      </trkpt>
      <trkpt lat="49.0469" lon="3.43571">
        <ele>62.5</ele>
        <time>2020-07-01T08:50:44Z</time>
      </trkpt>
      <trkpt lat="49.0469" lon="3.43563">
        <ele>62.5</ele>
        <time>2020-07-01T08:50:45Z</time>
      </trkpt>
      <trkpt lat="49.04692" lon="3.43555">
        <ele>62.6</ele>
        <time>2020-07-01T08:50:46Z</time>
      </trkpt>
      <trkpt lat="49.04693" lon="3.43546">
        <ele>62.6</ele>
        <time>2020-07-01T08:50:47Z</time>
      </trkpt>
      <trkpt lat="49.04694" lon="3.43538">
        <ele>62.6</ele>
        <time>2020-07-01T08:50:48Z</time>
      </trkpt>
      <trkpt lat="49.04694" lon="3.43529">
        <ele>62.7</ele>
        <time>2020-07-01T08:50:49Z</time>
      </trkpt>
      <trkpt lat="49.04695" lon="3.4352">
        <ele>62.7</ele>
        <time>2020-07-01T08:50:50Z</time>
      </trkpt>
      <trkpt lat="49.04696" lon="3.43512">
        <ele>62.7</ele>
        <time>2020-07-01T08:50:51Z</time>
      </trkpt>
      <trkpt lat="49.04697" lon="3.43503">
        <ele>62.8</ele>
        <time>2020-07-01T08:50:52Z</time>
      </trkpt>
      <trkpt lat="49.04698" lon="3.43495">
        <ele>62.8</ele>
        <time>2020-07-01T08:50:53Z</time>
      </trkpt>
      <trkpt lat="49.04699" lon="3.43486">
        <ele>62.8</ele>
        <time>2020-07-01T08:50:54Z</time>
      </trkpt>
      <trkpt lat="49.047" lon="3.43477">
        <ele>62.9</ele>
        <time>2020-07-01T08:50:55Z</time>
      </trkpt>
      <trkpt lat="49.04701" lon="3.43468">
        <ele>62.9</ele>
        <time>2020-07-01T08:50:56Z</time>
      </trkpt>
      <trkpt lat="49.04702" lon="3.4346">
        <ele>62.9</ele>
        <time>2020-07-01T08:50:57Z</time>
      </trkpt>
      <trkpt lat="49.04703" lon="3.43451">
        <ele>62.9</ele>
        <time>2020-07-01T08:50:58Z</time>
      </trkpt>
      <trkpt lat="49.04704" lon="3.43443">
        <ele>62.9</ele>
        <time>2020-07-01T08:50:59Z</time>
      </trkpt>
      <trkpt lat="49.04705" lon="3.43434">
        <ele>62.9</ele>
        <time>2020-07-01T08:51:00Z</time>
      </trkpt>
      <trkpt lat="49.04707" lon="3.43425">
        <ele>62.9</ele>
        <time>2020-07-01T08:51:01Z</time>
      </trkpt>
      <trkpt lat="49.04708" lon="3.43417">
        <ele>62.9</ele>
        <time>2020-07-01T08:51:02Z</time>
      </trkpt>
      <trkpt lat="49.04709" lon="3.43408">
        <ele>63</ele>
        <time>2020-07-01T08:51:03Z</time>
      </trkpt>
      <trkpt lat="49.0471" lon="3.43399">
        <ele>63</ele>
        <time>2020-07-01T08:51:04Z</time>
      </trkpt>
      <trkpt lat="49.04712" lon="3.43391">
        <ele>63.1</ele>
        <time>2020-07-01T08:51:05Z</time>
      </trkpt>
      <trkpt lat="49.04713" lon="3.43382">
        <ele>63.1</ele>
        <time>2020-07-01T08:51:06Z</time>
      </trkpt>
      <trkpt lat="49.04715" lon="3.43373">
        <ele>63.2</ele>
        <time>2020-07-01T08:51:07Z</time>
      </trkpt>
      <trkpt lat="49.04717" lon="3.43365">
        <ele>63.3</ele>
        <time>2020-07-01T08:51:08Z</time>
      </trkpt>
      <trkpt lat="49.04718" lon="3.43356">
        <ele>63.3</ele>
        <time>2020-07-01T08:51:09Z</time>
      </trkpt>
      <trkpt lat="49.04719" lon="3.43347">
        <ele>63.4</ele>
        <time>2020-07-01T08:51:10Z</time>
      </trkpt>
      <trkpt lat="49.0472" lon="3.43338">
        <ele>63.5</ele>
        <time>2020-07-01T08:51:11Z</time>
      </trkpt>
      <trkpt lat="49.04721" lon="3.4333">
        <ele>63.6</ele>
        <time>2020-07-01T08:51:12Z</time>
      </trkpt>
      <trkpt lat="49.04722" lon="3.43321">
        <ele>63.7</ele>
        <time>2020-07-01T08:51:13Z</time>
      </trkpt>
      <trkpt lat="49.04723" lon="3.43313">
        <ele>63.8</ele>
        <time>2020-07-01T08:51:14Z</time>
      </trkpt>
      <trkpt lat="49.04724" lon="3.43304">
        <ele>63.9</ele>
        <time>2020-07-01T08:51:15Z</time>
      </trkpt>
      <trkpt lat="49.04725" lon="3.43296">
        <ele>64</ele>
        <time>2020-07-01T08:51:16Z</time>
      </trkpt>
      <trkpt lat="49.04727" lon="3.43288">
        <ele>64.1</ele>
        <time>2020-07-01T08:51:17Z</time>
      </trkpt>
      <trkpt lat="49.04728" lon="3.43281">
        <ele>64.3</ele>
        <time>2020-07-01T08:51:18Z</time>
      </trkpt>
      <trkpt lat="49.0473" lon="3.43273">
        <ele>64.4</ele>
        <time>2020-07-01T08:51:19Z</time>
      </trkpt>
      <trkpt lat="49.04731" lon="3.43266">
        <ele>64.5</ele>
        <time>2020-07-01T08:51:20Z</time>
      </trkpt>
      <trkpt lat="49.04732" lon="3.43258">
        <ele>64.5</ele>
        <time>2020-07-01T08:51:21Z</time>
      </trkpt>
      <trkpt lat="49.04734" lon="3.43251">
        <ele>64.6</ele>
        <time>2020-07-01T08:51:22Z</time>
      </trkpt>
      <trkpt lat="49.04735" lon="3.43244">
        <ele>64.7</ele>
        <time>2020-07-01T08:51:23Z</time>
      </trkpt>
      <trkpt lat="49.04736" lon="3.43236">
        <ele>64.8</ele>
        <time>2020-07-01T08:51:24Z</time>
      </trkpt>
      <trkpt lat="49.04737" lon="3.4323">
        <ele>64.8</ele>
        <time>2020-07-01T08:51:25Z</time>
      </trkpt>
      <trkpt lat="49.04738" lon="3.43223">
        <ele>64.9</ele>
        <time>2020-07-01T08:51:26Z</time>
      </trkpt>
      <trkpt lat="49.04739" lon="3.43216">
        <ele>65</ele>
        <time>2020-07-01T08:51:27Z</time>
      </trkpt>
      <trkpt lat="49.0474" lon="3.43208">
        <ele>65.1</ele>
        <time>2020-07-01T08:51:28Z</time>
      </trkpt>
      <trkpt lat="49.04742" lon="3.432">
        <ele>65.2</ele>
        <time>2020-07-01T08:51:29Z</time>
      </trkpt>
      <trkpt lat="49.04744" lon="3.43193">
        <ele>65.3</ele>
        <time>2020-07-01T08:51:30Z</time>
      </trkpt>
      <trkpt lat="49.04745" lon="3.43185">
        <ele>65.4</ele>
        <time>2020-07-01T08:51:31Z</time>
      </trkpt>
      <trkpt lat="49.04746" lon="3.43177">
        <ele>65.5</ele>
        <time>2020-07-01T08:51:32Z</time>
      </trkpt>
      <trkpt lat="49.04747" lon="3.43169">
        <ele>65.6</ele>
        <time>2020-07-01T08:51:33Z</time>
      </trkpt>
      <trkpt lat="49.04747" lon="3.43162">
        <ele>65.7</ele>
        <time>2020-07-01T08:51:34Z</time>
      </trkpt>
      <trkpt lat="49.04748" lon="3.43154">
        <ele>65.8</ele>
        <time>2020-07-01T08:51:35Z</time>
      </trkpt>
      <trkpt lat="49.04749" lon="3.43146">
        <ele>65.9</ele>
        <time>2020-07-01T08:51:36Z</time>
      </trkpt>
      <trkpt lat="49.04749" lon="3.43139">
        <ele>65.9</ele>
        <time>2020-07-01T08:51:37Z</time>
      </trkpt>
      <trkpt lat="49.04751" lon="3.43132">
        <ele>66</ele>
        <time>2020-07-01T08:51:38Z</time>
      </trkpt>
      <trkpt lat="49.04752" lon="3.43125">
        <ele>66.1</ele>
        <time>2020-07-01T08:51:39Z</time>
      </trkpt>
      <trkpt lat="49.04752" lon="3.43118">
        <ele>66.2</ele>
        <time>2020-07-01T08:51:40Z</time>
      </trkpt>
      <trkpt lat="49.04753" lon="3.4311">
        <ele>66.3</ele>
        <time>2020-07-01T08:51:41Z</time>
      </trkpt>
      <trkpt lat="49.04754" lon="3.43103">
        <ele>66.4</ele>
        <time>2020-07-01T08:51:42Z</time>
      </trkpt>
      <trkpt lat="49.04755" lon="3.43095">
        <ele>66.4</ele>
        <time>2020-07-01T08:51:43Z</time>
      </trkpt>
      <trkpt lat="49.04756" lon="3.43088">
        <ele>66.5</ele>
        <time>2020-07-01T08:51:44Z</time>
      </trkpt>
      <trkpt lat="49.04757" lon="3.43081">
        <ele>66.6</ele>
        <time>2020-07-01T08:51:45Z</time>
      </trkpt>
      <trkpt lat="49.04758" lon="3.43073">
        <ele>66.6</ele>
        <time>2020-07-01T08:51:46Z</time>
      </trkpt>
      <trkpt lat="49.04758" lon="3.43066">
        <ele>66.6</ele>
        <time>2020-07-01T08:51:47Z</time>
      </trkpt>
      <trkpt lat="49.0476" lon="3.43058">
        <ele>66.7</ele>
        <time>2020-07-01T08:51:48Z</time>
      </trkpt>
      <trkpt lat="49.04761" lon="3.43051">
        <ele>66.7</ele>
        <time>2020-07-01T08:51:49Z</time>
      </trkpt>
      <trkpt lat="49.04762" lon="3.43043">
        <ele>66.7</ele>
        <time>2020-07-01T08:51:50Z</time>
      </trkpt>
      <trkpt lat="49.04763" lon="3.43036">
        <ele>66.7</ele>
        <time>2020-07-01T08:51:51Z</time>
      </trkpt>
      <trkpt lat="49.04764" lon="3.43028">
        <ele>66.7</ele>
        <time>2020-07-01T08:51:52Z</time>
      </trkpt>
      <trkpt lat="49.04764" lon="3.4302">
        <ele>66.7</ele>
        <time>2020-07-01T08:51:53Z</time>
      </trkpt>
      <trkpt lat="49.04765" lon="3.43012">
        <ele>66.7</ele>
        <time>2020-07-01T08:51:54Z</time>
      </trkpt>
      <trkpt lat="49.04766" lon="3.43004">
        <ele>66.7</ele>
        <time>2020-07-01T08:51:55Z</time>
      </trkpt>
      <trkpt lat="49.04767" lon="3.42996">
        <ele>66.7</ele>
        <time>2020-07-01T08:51:56Z</time>
      </trkpt>
      <trkpt lat="49.04768" lon="3.42986">
        <ele>66.7</ele>
        <time>2020-07-01T08:51:57Z</time>
      </trkpt>
      <trkpt lat="49.0477" lon="3.42977">
        <ele>66.7</ele>
        <time>2020-07-01T08:51:58Z</time>
      </trkpt>
      <trkpt lat="49.04771" lon="3.42968">
        <ele>66.7</ele>
        <time>2020-07-01T08:51:59Z</time>
      </trkpt>
      <trkpt lat="49.04772" lon="3.4296">
        <ele>66.7</ele>
        <time>2020-07-01T08:52:00Z</time>
      </trkpt>
      <trkpt lat="49.04773" lon="3.42951">
        <ele>66.7</ele>
        <time>2020-07-01T08:52:01Z</time>
      </trkpt>
      <trkpt lat="49.04773" lon="3.42942">
        <ele>66.8</ele>
        <time>2020-07-01T08:52:02Z</time>
      </trkpt>
      <trkpt lat="49.04774" lon="3.42934">
        <ele>66.8</ele>
        <time>2020-07-01T08:52:03Z</time>
      </trkpt>
      <trkpt lat="49.04775" lon="3.42926">
        <ele>66.8</ele>
        <time>2020-07-01T08:52:04Z</time>
      </trkpt>
      <trkpt lat="49.04776" lon="3.42919">
        <ele>66.8</ele>
        <time>2020-07-01T08:52:05Z</time>
      </trkpt>
      <trkpt lat="49.04778" lon="3.42911">
        <ele>66.8</ele>
        <time>2020-07-01T08:52:06Z</time>
      </trkpt>
      <trkpt lat="49.04781" lon="3.42902">
        <ele>66.8</ele>
        <time>2020-07-01T08:52:07Z</time>
      </trkpt>
      <trkpt lat="49.04783" lon="3.42892">
        <ele>66.8</ele>
        <time>2020-07-01T08:52:08Z</time>
      </trkpt>
      <trkpt lat="49.04786" lon="3.42883">
        <ele>66.9</ele>
        <time>2020-07-01T08:52:09Z</time>
      </trkpt>
      <trkpt lat="49.04788" lon="3.42874">
        <ele>66.9</ele>
        <time>2020-07-01T08:52:10Z</time>
      </trkpt>
      <trkpt lat="49.04789" lon="3.42868">
        <ele>66.9</ele>
        <time>2020-07-01T08:52:11Z</time>
      </trkpt>
      <trkpt lat="49.04791" lon="3.4286">
        <ele>66.9</ele>
        <time>2020-07-01T08:52:12Z</time>
      </trkpt>
      <trkpt lat="49.04793" lon="3.42853">
        <ele>66.9</ele>
        <time>2020-07-01T08:52:13Z</time>
      </trkpt>
      <trkpt lat="49.04795" lon="3.42845">
        <ele>67</ele>
        <time>2020-07-01T08:52:14Z</time>
      </trkpt>
      <trkpt lat="49.04796" lon="3.42839">
        <ele>67</ele>
        <time>2020-07-01T08:52:15Z</time>
      </trkpt>
      <trkpt lat="49.04797" lon="3.42833">
        <ele>67</ele>
        <time>2020-07-01T08:52:16Z</time>
      </trkpt>
      <trkpt lat="49.04798" lon="3.42825">
        <ele>67</ele>
        <time>2020-07-01T08:52:17Z</time>
      </trkpt>
      <trkpt lat="49.048" lon="3.42819">
        <ele>67</ele>
        <time>2020-07-01T08:52:18Z</time>
      </trkpt>
      <trkpt lat="49.04802" lon="3.42811">
        <ele>67</ele>
        <time>2020-07-01T08:52:19Z</time>
      </trkpt>
      <trkpt lat="49.04803" lon="3.42803">
        <ele>67</ele>
        <time>2020-07-01T08:52:20Z</time>
      </trkpt>
      <trkpt lat="49.04805" lon="3.42794">
        <ele>67</ele>
        <time>2020-07-01T08:52:21Z</time>
      </trkpt>
      <trkpt lat="49.04807" lon="3.42787">
        <ele>67</ele>
        <time>2020-07-01T08:52:22Z</time>
      </trkpt>
      <trkpt lat="49.04808" lon="3.42779">
        <ele>66.9</ele>
        <time>2020-07-01T08:52:23Z</time>
      </trkpt>
      <trkpt lat="49.0481" lon="3.42771">
        <ele>66.9</ele>
        <time>2020-07-01T08:52:24Z</time>
      </trkpt>
      <trkpt lat="49.04811" lon="3.42763">
        <ele>66.8</ele>
        <time>2020-07-01T08:52:25Z</time>
      </trkpt>
      <trkpt lat="49.04813" lon="3.42754">
        <ele>66.7</ele>
        <time>2020-07-01T08:52:26Z</time>
      </trkpt>
      <trkpt lat="49.04814" lon="3.42746">
        <ele>66.6</ele>
        <time>2020-07-01T08:52:27Z</time>
      </trkpt>
      <trkpt lat="49.04816" lon="3.42737">
        <ele>66.5</ele>
        <time>2020-07-01T08:52:28Z</time>
      </trkpt>
      <trkpt lat="49.04817" lon="3.42728">
        <ele>66.4</ele>
        <time>2020-07-01T08:52:29Z</time>
      </trkpt>
      <trkpt lat="49.04817" lon="3.42719">
        <ele>66.3</ele>
        <time>2020-07-01T08:52:30Z</time>
      </trkpt>
      <trkpt lat="49.04816" lon="3.4271">
        <ele>65.8</ele>
        <time>2020-07-01T08:52:31Z</time>
      </trkpt>
      <trkpt lat="49.04814" lon="3.42703">
        <ele>65.6</ele>
        <time>2020-07-01T08:52:32Z</time>
      </trkpt>
      <trkpt lat="49.04811" lon="3.42695">
        <ele>65.3</ele>
        <time>2020-07-01T08:52:33Z</time>
      </trkpt>
      <trkpt lat="49.04808" lon="3.42685">
        <ele>64.9</ele>
        <time>2020-07-01T08:52:34Z</time>
      </trkpt>
      <trkpt lat="49.04804" lon="3.42674">
        <ele>64.6</ele>
        <time>2020-07-01T08:52:35Z</time>
      </trkpt>
      <trkpt lat="49.04801" lon="3.42664">
        <ele>64.3</ele>
        <time>2020-07-01T08:52:36Z</time>
      </trkpt>
      <trkpt lat="49.04797" lon="3.42654">
        <ele>64.1</ele>
        <time>2020-07-01T08:52:37Z</time>
      </trkpt>
      <trkpt lat="49.04794" lon="3.42644">
        <ele>63.8</ele>
        <time>2020-07-01T08:52:38Z</time>
      </trkpt>
      <trkpt lat="49.0479" lon="3.42635">
        <ele>63.6</ele>
        <time>2020-07-01T08:52:39Z</time>
      </trkpt>
      <trkpt lat="49.04788" lon="3.42627">
        <ele>63.5</ele>
        <time>2020-07-01T08:52:40Z</time>
      </trkpt>
      <trkpt lat="49.04786" lon="3.42616">
        <ele>63.3</ele>
        <time>2020-07-01T08:52:41Z</time>
      </trkpt>
      <trkpt lat="49.04784" lon="3.42606">
        <ele>63.1</ele>
        <time>2020-07-01T08:52:42Z</time>
      </trkpt>
      <trkpt lat="49.04783" lon="3.42595">
        <ele>62.9</ele>
        <time>2020-07-01T08:52:43Z</time>
      </trkpt>
      <trkpt lat="49.04781" lon="3.42583">
        <ele>62.7</ele>
        <time>2020-07-01T08:52:44Z</time>
      </trkpt>
      <trkpt lat="49.0478" lon="3.42573">
        <ele>62.5</ele>
        <time>2020-07-01T08:52:45Z</time>
      </trkpt>
      <trkpt lat="49.04778" lon="3.42563">
        <ele>62.4</ele>
        <time>2020-07-01T08:52:46Z</time>
      </trkpt>
      <trkpt lat="49.04776" lon="3.42553">
        <ele>62.3</ele>
        <time>2020-07-01T08:52:47Z</time>
      </trkpt>
      <trkpt lat="49.04775" lon="3.42543">
        <ele>62.2</ele>
        <time>2020-07-01T08:52:48Z</time>
      </trkpt>
      <trkpt lat="49.04774" lon="3.42533">
        <ele>62.2</ele>
        <time>2020-07-01T08:52:49Z</time>
      </trkpt>
      <trkpt lat="49.04772" lon="3.42523">
        <ele>62.1</ele>
        <time>2020-07-01T08:52:50Z</time>
      </trkpt>
      <trkpt lat="49.04771" lon="3.42513">
        <ele>62.1</ele>
        <time>2020-07-01T08:52:51Z</time>
      </trkpt>
      <trkpt lat="49.0477" lon="3.42504">
        <ele>62.1</ele>
        <time>2020-07-01T08:52:52Z</time>
      </trkpt>
      <trkpt lat="49.04769" lon="3.42494">
        <ele>62</ele>
        <time>2020-07-01T08:52:53Z</time>
      </trkpt>
      <trkpt lat="49.04769" lon="3.42485">
        <ele>62</ele>
        <time>2020-07-01T08:52:54Z</time>
      </trkpt>
      <trkpt lat="49.04768" lon="3.42477">
        <ele>61.9</ele>
        <time>2020-07-01T08:52:55Z</time>
      </trkpt>
      <trkpt lat="49.04767" lon="3.42469">
        <ele>61.9</ele>
        <time>2020-07-01T08:52:56Z</time>
      </trkpt>
      <trkpt lat="49.04766" lon="3.42461">
        <ele>61.8</ele>
        <time>2020-07-01T08:52:57Z</time>
      </trkpt>
      <trkpt lat="49.04766" lon="3.42452">
        <ele>61.8</ele>
        <time>2020-07-01T08:52:58Z</time>
      </trkpt>
      <trkpt lat="49.04764" lon="3.42442">
        <ele>61.7</ele>
        <time>2020-07-01T08:52:59Z</time>
      </trkpt>
      <trkpt lat="49.04763" lon="3.42434">
        <ele>61.7</ele>
        <time>2020-07-01T08:53:00Z</time>
      </trkpt>
      <trkpt lat="49.04761" lon="3.42426">
        <ele>61.7</ele>
        <time>2020-07-01T08:53:01Z</time>
      </trkpt>
      <trkpt lat="49.0476" lon="3.42418">
        <ele>61.7</ele>
        <time>2020-07-01T08:53:02Z</time>
      </trkpt>
      <trkpt lat="49.04758" lon="3.42412">
        <ele>61.7</ele>
        <time>2020-07-01T08:53:03Z</time>
      </trkpt>
      <trkpt lat="49.04756" lon="3.42405">
        <ele>61.7</ele>
        <time>2020-07-01T08:53:04Z</time>
      </trkpt>
      <trkpt lat="49.04753" lon="3.42399">
        <ele>61.7</ele>
        <time>2020-07-01T08:53:05Z</time>
      </trkpt>
      <trkpt lat="49.0475" lon="3.42393">
        <ele>61.7</ele>
        <time>2020-07-01T08:53:06Z</time>
      </trkpt>
      <trkpt lat="49.04746" lon="3.42386">
        <ele>61.6</ele>
        <time>2020-07-01T08:53:07Z</time>
      </trkpt>
      <trkpt lat="49.04743" lon="3.4238">
        <ele>61.6</ele>
        <time>2020-07-01T08:53:08Z</time>
      </trkpt>
      <trkpt lat="49.04739" lon="3.42373">
        <ele>61.5</ele>
        <time>2020-07-01T08:53:09Z</time>
      </trkpt>
      <trkpt lat="49.04734" lon="3.42367">
        <ele>61.5</ele>
        <time>2020-07-01T08:53:10Z</time>
      </trkpt>
      <trkpt lat="49.0473" lon="3.42361">
        <ele>61.5</ele>
        <time>2020-07-01T08:53:11Z</time>
      </trkpt>
      <trkpt lat="49.04726" lon="3.42355">
        <ele>61.4</ele>
        <time>2020-07-01T08:53:12Z</time>
      </trkpt>
      <trkpt lat="49.04721" lon="3.42349">
        <ele>61.4</ele>
        <time>2020-07-01T08:53:13Z</time>
      </trkpt>
      <trkpt lat="49.04717" lon="3.42343">
        <ele>61.3</ele>
        <time>2020-07-01T08:53:14Z</time>
      </trkpt>
      <trkpt lat="49.04713" lon="3.42337">
        <ele>61.3</ele>
        <time>2020-07-01T08:53:15Z</time>
      </trkpt>
      <trkpt lat="49.04709" lon="3.4233">
        <ele>61.3</ele>
        <time>2020-07-01T08:53:16Z</time>
      </trkpt>
      <trkpt lat="49.04706" lon="3.42323">
        <ele>61.2</ele>
        <time>2020-07-01T08:53:17Z</time>
      </trkpt>
      <trkpt lat="49.04702" lon="3.42317">
        <ele>61.2</ele>
        <time>2020-07-01T08:53:18Z</time>
      </trkpt>
      <trkpt lat="49.04698" lon="3.4231">
        <ele>61.2</ele>
        <time>2020-07-01T08:53:19Z</time>
      </trkpt>
      <trkpt lat="49.04695" lon="3.42305">
        <ele>61.2</ele>
        <time>2020-07-01T08:53:20Z</time>
      </trkpt>
      <trkpt lat="49.04691" lon="3.42299">
        <ele>61.2</ele>
        <time>2020-07-01T08:53:21Z</time>
      </trkpt>
      <trkpt lat="49.04687" lon="3.42292">
        <ele>61.2</ele>
        <time>2020-07-01T08:53:22Z</time>
      </trkpt>
      <trkpt lat="49.04683" lon="3.42285">
        <ele>61.2</ele>
        <time>2020-07-01T08:53:23Z</time>
      </trkpt>
      <trkpt lat="49.04679" lon="3.42278">
        <ele>61.2</ele>
        <time>2020-07-01T08:53:24Z</time>
      </trkpt>
      <trkpt lat="49.04675" lon="3.42271">
        <ele>61.2</ele>
        <time>2020-07-01T08:53:25Z</time>
      </trkpt>
      <trkpt lat="49.04671" lon="3.42264">
        <ele>61.2</ele>
        <time>2020-07-01T08:53:26Z</time>
      </trkpt>
      <trkpt lat="49.04667" lon="3.42256">
        <ele>61.2</ele>
        <time>2020-07-01T08:53:27Z</time>
      </trkpt>
      <trkpt lat="49.04664" lon="3.42249">
        <ele>61.1</ele>
        <time>2020-07-01T08:53:28Z</time>
      </trkpt>
      <trkpt lat="49.04661" lon="3.42241">
        <ele>61.1</ele>
        <time>2020-07-01T08:53:29Z</time>
      </trkpt>
      <trkpt lat="49.04657" lon="3.42234">
        <ele>61.1</ele>
        <time>2020-07-01T08:53:30Z</time>
      </trkpt>
      <trkpt lat="49.04653" lon="3.42227">
        <ele>61.2</ele>
        <time>2020-07-01T08:53:31Z</time>
      </trkpt>
      <trkpt lat="49.04649" lon="3.4222">
        <ele>61.2</ele>
        <time>2020-07-01T08:53:32Z</time>
      </trkpt>
      <trkpt lat="49.04645" lon="3.42212">
        <ele>61.1</ele>
        <time>2020-07-01T08:53:33Z</time>
      </trkpt>
      <trkpt lat="49.0464" lon="3.42204">
        <ele>61.1</ele>
        <time>2020-07-01T08:53:34Z</time>
      </trkpt>
      <trkpt lat="49.04637" lon="3.42196">
        <ele>61.1</ele>
        <time>2020-07-01T08:53:35Z</time>
      </trkpt>
      <trkpt lat="49.04632" lon="3.42188">
        <ele>61</ele>
        <time>2020-07-01T08:53:36Z</time>
      </trkpt>
      <trkpt lat="49.04628" lon="3.4218">
        <ele>61</ele>
        <time>2020-07-01T08:53:37Z</time>
      </trkpt>
      <trkpt lat="49.04623" lon="3.42173">
        <ele>61</ele>
        <time>2020-07-01T08:53:38Z</time>
      </trkpt>
      <trkpt lat="49.04618" lon="3.42165">
        <ele>61</ele>
        <time>2020-07-01T08:53:39Z</time>
      </trkpt>
      <trkpt lat="49.04613" lon="3.42158">
        <ele>61</ele>
        <time>2020-07-01T08:53:40Z</time>
      </trkpt>
      <trkpt lat="49.04609" lon="3.42151">
        <ele>61</ele>
        <time>2020-07-01T08:53:41Z</time>
      </trkpt>
      <trkpt lat="49.04604" lon="3.42144">
        <ele>61</ele>
        <time>2020-07-01T08:53:42Z</time>
      </trkpt>
      <trkpt lat="49.046" lon="3.42138">
        <ele>61</ele>
        <time>2020-07-01T08:53:43Z</time>
      </trkpt>
      <trkpt lat="49.04596" lon="3.42131">
        <ele>61</ele>
        <time>2020-07-01T08:53:44Z</time>
      </trkpt>
      <trkpt lat="49.04593" lon="3.42124">
        <ele>61</ele>
        <time>2020-07-01T08:53:45Z</time>
      </trkpt>
      <trkpt lat="49.04589" lon="3.42118">
        <ele>61</ele>
        <time>2020-07-01T08:53:46Z</time>
      </trkpt>
      <trkpt lat="49.04585" lon="3.42112">
        <ele>60.9</ele>
        <time>2020-07-01T08:53:47Z</time>
      </trkpt>
      <trkpt lat="49.04582" lon="3.42106">
        <ele>60.9</ele>
        <time>2020-07-01T08:53:48Z</time>
      </trkpt>
      <trkpt lat="49.04579" lon="3.421">
        <ele>60.9</ele>
        <time>2020-07-01T08:53:49Z</time>
      </trkpt>
      <trkpt lat="49.04575" lon="3.42093">
        <ele>60.9</ele>
        <time>2020-07-01T08:53:50Z</time>
      </trkpt>
      <trkpt lat="49.04572" lon="3.42087">
        <ele>60.9</ele>
        <time>2020-07-01T08:53:51Z</time>
      </trkpt>
      <trkpt lat="49.04568" lon="3.4208">
        <ele>60.8</ele>
        <time>2020-07-01T08:53:52Z</time>
      </trkpt>
      <trkpt lat="49.04564" lon="3.42074">
        <ele>60.8</ele>
        <time>2020-07-01T08:53:53Z</time>
      </trkpt>
      <trkpt lat="49.04561" lon="3.42068">
        <ele>60.8</ele>
        <time>2020-07-01T08:53:54Z</time>
      </trkpt>
      <trkpt lat="49.04558" lon="3.42062">
        <ele>60.8</ele>
        <time>2020-07-01T08:53:55Z</time>
      </trkpt>
      <trkpt lat="49.04555" lon="3.42056">
        <ele>60.8</ele>
        <time>2020-07-01T08:53:56Z</time>
      </trkpt>
      <trkpt lat="49.04552" lon="3.4205">
        <ele>60.8</ele>
        <time>2020-07-01T08:53:57Z</time>
      </trkpt>
      <trkpt lat="49.04549" lon="3.42043">
        <ele>60.8</ele>
        <time>2020-07-01T08:53:58Z</time>
      </trkpt>
      <trkpt lat="49.04546" lon="3.42037">
        <ele>60.8</ele>
        <time>2020-07-01T08:53:59Z</time>
      </trkpt>
      <trkpt lat="49.04543" lon="3.4203">
        <ele>60.8</ele>
        <time>2020-07-01T08:54:00Z</time>
      </trkpt>
      <trkpt lat="49.04539" lon="3.42024">
        <ele>60.8</ele>
        <time>2020-07-01T08:54:01Z</time>
      </trkpt>
      <trkpt lat="49.04535" lon="3.42018">
        <ele>60.8</ele>
        <time>2020-07-01T08:54:02Z</time>
      </trkpt>
      <trkpt lat="49.04531" lon="3.42011">
        <ele>60.8</ele>
        <time>2020-07-01T08:54:03Z</time>
      </trkpt>
      <trkpt lat="49.04527" lon="3.42004">
        <ele>60.8</ele>
        <time>2020-07-01T08:54:04Z</time>
      </trkpt>
      <trkpt lat="49.04524" lon="3.41997">
        <ele>60.8</ele>
        <time>2020-07-01T08:54:05Z</time>
      </trkpt>
      <trkpt lat="49.0452" lon="3.41989">
        <ele>60.8</ele>
        <time>2020-07-01T08:54:06Z</time>
      </trkpt>
      <trkpt lat="49.04517" lon="3.41982">
        <ele>60.8</ele>
        <time>2020-07-01T08:54:07Z</time>
      </trkpt>
      <trkpt lat="49.04513" lon="3.41975">
        <ele>60.7</ele>
        <time>2020-07-01T08:54:08Z</time>
      </trkpt>
      <trkpt lat="49.0451" lon="3.41968">
        <ele>60.7</ele>
        <time>2020-07-01T08:54:09Z</time>
      </trkpt>
      <trkpt lat="49.04506" lon="3.41961">
        <ele>60.7</ele>
        <time>2020-07-01T08:54:10Z</time>
      </trkpt>
      <trkpt lat="49.04502" lon="3.41955">
        <ele>60.7</ele>
        <time>2020-07-01T08:54:11Z</time>
      </trkpt>
      <trkpt lat="49.04498" lon="3.41948">
        <ele>60.7</ele>
        <time>2020-07-01T08:54:12Z</time>
      </trkpt>
      <trkpt lat="49.04494" lon="3.41943">
        <ele>60.7</ele>
        <time>2020-07-01T08:54:13Z</time>
      </trkpt>
      <trkpt lat="49.04491" lon="3.41937">
        <ele>60.7</ele>
        <time>2020-07-01T08:54:14Z</time>
      </trkpt>
      <trkpt lat="49.04488" lon="3.41931">
        <ele>60.7</ele>
        <time>2020-07-01T08:54:15Z</time>
      </trkpt>
      <trkpt lat="49.04485" lon="3.41925">
        <ele>60.7</ele>
        <time>2020-07-01T08:54:16Z</time>
      </trkpt>
      <trkpt lat="49.04483" lon="3.41919">
        <ele>60.7</ele>
        <time>2020-07-01T08:54:17Z</time>
      </trkpt>
      <trkpt lat="49.04481" lon="3.41912">
        <ele>60.7</ele>
        <time>2020-07-01T08:54:18Z</time>
      </trkpt>
      <trkpt lat="49.04481" lon="3.41904">
        <ele>60.9</ele>
        <time>2020-07-01T08:54:19Z</time>
      </trkpt>
      <trkpt lat="49.04479" lon="3.41897">
        <ele>60.9</ele>
        <time>2020-07-01T08:54:20Z</time>
      </trkpt>
      <trkpt lat="49.04476" lon="3.41891">
        <ele>61.1</ele>
        <time>2020-07-01T08:54:21Z</time>
      </trkpt>
      <trkpt lat="49.04472" lon="3.41886">
        <ele>61</ele>
        <time>2020-07-01T08:54:22Z</time>
      </trkpt>
      <trkpt lat="49.04467" lon="3.41882">
        <ele>60.9</ele>
        <time>2020-07-01T08:54:23Z</time>
      </trkpt>
      <trkpt lat="49.04463" lon="3.41878">
        <ele>60.8</ele>
        <time>2020-07-01T08:54:24Z</time>
      </trkpt>
      <trkpt lat="49.04458" lon="3.41874">
        <ele>60.8</ele>
        <time>2020-07-01T08:54:25Z</time>
      </trkpt>
      <trkpt lat="49.04454" lon="3.41869">
        <ele>60.8</ele>
        <time>2020-07-01T08:54:26Z</time>
      </trkpt>
      <trkpt lat="49.0445" lon="3.41865">
        <ele>60.9</ele>
        <time>2020-07-01T08:54:27Z</time>
      </trkpt>
      <trkpt lat="49.04446" lon="3.4186">
        <ele>60.9</ele>
        <time>2020-07-01T08:54:28Z</time>
      </trkpt>
      <trkpt lat="49.04442" lon="3.41855">
        <ele>60.9</ele>
        <time>2020-07-01T08:54:29Z</time>
      </trkpt>
      <trkpt lat="49.04439" lon="3.4185">
        <ele>61</ele>
        <time>2020-07-01T08:54:30Z</time>
      </trkpt>
      <trkpt lat="49.04435" lon="3.41845">
        <ele>61</ele>
        <time>2020-07-01T08:54:31Z</time>
      </trkpt>
      <trkpt lat="49.04432" lon="3.41838">
        <ele>61</ele>
        <time>2020-07-01T08:54:32Z</time>
      </trkpt>
      <trkpt lat="49.04429" lon="3.41831">
        <ele>61</ele>
        <time>2020-07-01T08:54:33Z</time>
      </trkpt>
      <trkpt lat="49.04427" lon="3.41823">
        <ele>61</ele>
        <time>2020-07-01T08:54:34Z</time>
      </trkpt>
      <trkpt lat="49.04425" lon="3.41815">
        <ele>61</ele>
        <time>2020-07-01T08:54:35Z</time>
      </trkpt>
      <trkpt lat="49.04423" lon="3.41807">
        <ele>61</ele>
        <time>2020-07-01T08:54:36Z</time>
      </trkpt>
      <trkpt lat="49.04421" lon="3.41799">
        <ele>61</ele>
        <time>2020-07-01T08:54:37Z</time>
      </trkpt>
      <trkpt lat="49.0442" lon="3.41792">
        <ele>61</ele>
        <time>2020-07-01T08:54:38Z</time>
      </trkpt>
      <trkpt lat="49.04419" lon="3.41784">
        <ele>61</ele>
        <time>2020-07-01T08:54:39Z</time>
      </trkpt>
      <trkpt lat="49.04418" lon="3.41776">
        <ele>61</ele>
        <time>2020-07-01T08:54:40Z</time>
      </trkpt>
      <trkpt lat="49.04418" lon="3.41767">
        <ele>61</ele>
        <time>2020-07-01T08:54:41Z</time>
      </trkpt>
      <trkpt lat="49.04418" lon="3.41759">
        <ele>61</ele>
        <time>2020-07-01T08:54:42Z</time>
      </trkpt>
      <trkpt lat="49.04418" lon="3.41751">
        <ele>61</ele>
        <time>2020-07-01T08:54:43Z</time>
      </trkpt>
      <trkpt lat="49.04418" lon="3.41742">
        <ele>60.9</ele>
        <time>2020-07-01T08:54:44Z</time>
      </trkpt>
      <trkpt lat="49.04418" lon="3.41733">
        <ele>60.9</ele>
        <time>2020-07-01T08:54:45Z</time>
      </trkpt>
      <trkpt lat="49.04418" lon="3.41725">
        <ele>60.9</ele>
        <time>2020-07-01T08:54:46Z</time>
      </trkpt>
      <trkpt lat="49.04418" lon="3.41716">
        <ele>60.9</ele>
        <time>2020-07-01T08:54:47Z</time>
      </trkpt>
      <trkpt lat="49.04418" lon="3.41708">
        <ele>60.8</ele>
        <time>2020-07-01T08:54:48Z</time>
      </trkpt>
      <trkpt lat="49.04418" lon="3.41699">
        <ele>60.8</ele>
        <time>2020-07-01T08:54:49Z</time>
      </trkpt>
      <trkpt lat="49.04418" lon="3.4169">
        <ele>60.8</ele>
        <time>2020-07-01T08:54:50Z</time>
      </trkpt>
      <trkpt lat="49.04419" lon="3.41681">
        <ele>60.8</ele>
        <time>2020-07-01T08:54:51Z</time>
      </trkpt>
      <trkpt lat="49.04419" lon="3.41673">
        <ele>60.8</ele>
        <time>2020-07-01T08:54:52Z</time>
      </trkpt>
      <trkpt lat="49.04419" lon="3.41665">
        <ele>60.8</ele>
        <time>2020-07-01T08:54:53Z</time>
      </trkpt>
      <trkpt lat="49.04419" lon="3.41656">
        <ele>60.8</ele>
        <time>2020-07-01T08:54:54Z</time>
      </trkpt>
      <trkpt lat="49.04418" lon="3.41648">
        <ele>60.7</ele>
        <time>2020-07-01T08:54:55Z</time>
      </trkpt>
      <trkpt lat="49.04418" lon="3.4164">
        <ele>60.7</ele>
        <time>2020-07-01T08:54:56Z</time>
      </trkpt>
      <trkpt lat="49.04417" lon="3.41632">
        <ele>60.7</ele>
        <time>2020-07-01T08:54:57Z</time>
      </trkpt>
      <trkpt lat="49.04417" lon="3.41624">
        <ele>60.7</ele>
        <time>2020-07-01T08:54:58Z</time>
      </trkpt>
      <trkpt lat="49.04417" lon="3.41616">
        <ele>60.7</ele>
        <time>2020-07-01T08:54:59Z</time>
      </trkpt>
      <trkpt lat="49.04417" lon="3.41608">
        <ele>60.8</ele>
        <time>2020-07-01T08:55:00Z</time>
      </trkpt>
      <trkpt lat="49.04417" lon="3.416">
        <ele>60.8</ele>
        <time>2020-07-01T08:55:01Z</time>
      </trkpt>
      <trkpt lat="49.04416" lon="3.41592">
        <ele>60.8</ele>
        <time>2020-07-01T08:55:02Z</time>
      </trkpt>
      <trkpt lat="49.04416" lon="3.41583">
        <ele>60.8</ele>
        <time>2020-07-01T08:55:03Z</time>
      </trkpt>
      <trkpt lat="49.04415" lon="3.41574">
        <ele>60.9</ele>
        <time>2020-07-01T08:55:04Z</time>
      </trkpt>
      <trkpt lat="49.04415" lon="3.41565">
        <ele>60.9</ele>
        <time>2020-07-01T08:55:05Z</time>
      </trkpt>
      <trkpt lat="49.04415" lon="3.41557">
        <ele>60.8</ele>
        <time>2020-07-01T08:55:06Z</time>
      </trkpt>
      <trkpt lat="49.04415" lon="3.41549">
        <ele>60.8</ele>
        <time>2020-07-01T08:55:07Z</time>
      </trkpt>
      <trkpt lat="49.04415" lon="3.4154">
        <ele>60.8</ele>
        <time>2020-07-01T08:55:08Z</time>
      </trkpt>
      <trkpt lat="49.04415" lon="3.4153">
        <ele>60.7</ele>
        <time>2020-07-01T08:55:09Z</time>
      </trkpt>
      <trkpt lat="49.04415" lon="3.41521">
        <ele>60.7</ele>
        <time>2020-07-01T08:55:10Z</time>
      </trkpt>
      <trkpt lat="49.04415" lon="3.41512">
        <ele>60.7</ele>
        <time>2020-07-01T08:55:11Z</time>
      </trkpt>
      <trkpt lat="49.04416" lon="3.41503">
        <ele>60.7</ele>
        <time>2020-07-01T08:55:12Z</time>
      </trkpt>
      <trkpt lat="49.04416" lon="3.41495">
        <ele>60.7</ele>
        <time>2020-07-01T08:55:13Z</time>
      </trkpt>
      <trkpt lat="49.04416" lon="3.41486">
        <ele>60.6</ele>
        <time>2020-07-01T08:55:14Z</time>
      </trkpt>
      <trkpt lat="49.04415" lon="3.41478">
        <ele>60.6</ele>
        <time>2020-07-01T08:55:15Z</time>
      </trkpt>
      <trkpt lat="49.04415" lon="3.41469">
        <ele>60.6</ele>
        <time>2020-07-01T08:55:16Z</time>
      </trkpt>
      <trkpt lat="49.04414" lon="3.4146">
        <ele>60.6</ele>
        <time>2020-07-01T08:55:17Z</time>
      </trkpt>
      <trkpt lat="49.04413" lon="3.41452">
        <ele>60.6</ele>
        <time>2020-07-01T08:55:18Z</time>
      </trkpt>
      <trkpt lat="49.04413" lon="3.41443">
        <ele>60.7</ele>
        <time>2020-07-01T08:55:19Z</time>
      </trkpt>
      <trkpt lat="49.04413" lon="3.41434">
        <ele>60.7</ele>
        <time>2020-07-01T08:55:20Z</time>
      </trkpt>
      <trkpt lat="49.04414" lon="3.41426">
        <ele>60.7</ele>
        <time>2020-07-01T08:55:21Z</time>
      </trkpt>
      <trkpt lat="49.04414" lon="3.41418">
        <ele>60.7</ele>
        <time>2020-07-01T08:55:22Z</time>
      </trkpt>
      <trkpt lat="49.04413" lon="3.41409">
        <ele>60.7</ele>
        <time>2020-07-01T08:55:23Z</time>
      </trkpt>
      <trkpt lat="49.04413" lon="3.41401">
        <ele>60.6</ele>
        <time>2020-07-01T08:55:24Z</time>
      </trkpt>
      <trkpt lat="49.04413" lon="3.41393">
        <ele>60.6</ele>
        <time>2020-07-01T08:55:25Z</time>
      </trkpt>
      <trkpt lat="49.04413" lon="3.41385">
        <ele>60.6</ele>
        <time>2020-07-01T08:55:26Z</time>
      </trkpt>
      <trkpt lat="49.04412" lon="3.41378">
        <ele>60.6</ele>
        <time>2020-07-01T08:55:27Z</time>
      </trkpt>
      <trkpt lat="49.04412" lon="3.4137">
        <ele>60.6</ele>
        <time>2020-07-01T08:55:28Z</time>
      </trkpt>
      <trkpt lat="49.04411" lon="3.41362">
        <ele>60.6</ele>
        <time>2020-07-01T08:55:29Z</time>
      </trkpt>
      <trkpt lat="49.04411" lon="3.41354">
        <ele>60.6</ele>
        <time>2020-07-01T08:55:30Z</time>
      </trkpt>
      <trkpt lat="49.04411" lon="3.41346">
        <ele>60.6</ele>
        <time>2020-07-01T08:55:31Z</time>
      </trkpt>
      <trkpt lat="49.04411" lon="3.41337">
        <ele>60.7</ele>
        <time>2020-07-01T08:55:32Z</time>
      </trkpt>
      <trkpt lat="49.04411" lon="3.41328">
        <ele>60.7</ele>
        <time>2020-07-01T08:55:33Z</time>
      </trkpt>
      <trkpt lat="49.04411" lon="3.4132">
        <ele>60.7</ele>
        <time>2020-07-01T08:55:34Z</time>
      </trkpt>
      <trkpt lat="49.04411" lon="3.41311">
        <ele>60.7</ele>
        <time>2020-07-01T08:55:35Z</time>
      </trkpt>
      <trkpt lat="49.04411" lon="3.41303">
        <ele>60.7</ele>
        <time>2020-07-01T08:55:36Z</time>
      </trkpt>
      <trkpt lat="49.04411" lon="3.41295">
        <ele>60.7</ele>
        <time>2020-07-01T08:55:37Z</time>
      </trkpt>
      <trkpt lat="49.04411" lon="3.41286">
        <ele>60.7</ele>
        <time>2020-07-01T08:55:38Z</time>
      </trkpt>
      <trkpt lat="49.0441" lon="3.41278">
        <ele>60.7</ele>
        <time>2020-07-01T08:55:39Z</time>
      </trkpt>
      <trkpt lat="49.04409" lon="3.4127">
        <ele>60.7</ele>
        <time>2020-07-01T08:55:40Z</time>
      </trkpt>
      <trkpt lat="49.04409" lon="3.41261">
        <ele>60.7</ele>
        <time>2020-07-01T08:55:41Z</time>
      </trkpt>
      <trkpt lat="49.04409" lon="3.41253">
        <ele>60.7</ele>
        <time>2020-07-01T08:55:42Z</time>
      </trkpt>
      <trkpt lat="49.04408" lon="3.41245">
        <ele>60.7</ele>
        <time>2020-07-01T08:55:43Z</time>
      </trkpt>
      <trkpt lat="49.04408" lon="3.41236">
        <ele>60.7</ele>
        <time>2020-07-01T08:55:44Z</time>
      </trkpt>
      <trkpt lat="49.04407" lon="3.41227">
        <ele>60.7</ele>
        <time>2020-07-01T08:55:45Z</time>
      </trkpt>
      <trkpt lat="49.04407" lon="3.41218">
        <ele>60.7</ele>
        <time>2020-07-01T08:55:46Z</time>
      </trkpt>
      <trkpt lat="49.04407" lon="3.4121">
        <ele>60.6</ele>
        <time>2020-07-01T08:55:47Z</time>
      </trkpt>
      <trkpt lat="49.04406" lon="3.41201">
        <ele>60.6</ele>
        <time>2020-07-01T08:55:48Z</time>
      </trkpt>
      <trkpt lat="49.04406" lon="3.41193">
        <ele>60.6</ele>
        <time>2020-07-01T08:55:49Z</time>
      </trkpt>
      <trkpt lat="49.04406" lon="3.41184">
        <ele>60.6</ele>
        <time>2020-07-01T08:55:50Z</time>
      </trkpt>
      <trkpt lat="49.04405" lon="3.41175">
        <ele>60.6</ele>
        <time>2020-07-01T08:55:51Z</time>
      </trkpt>
      <trkpt lat="49.04405" lon="3.41166">
        <ele>60.5</ele>
        <time>2020-07-01T08:55:52Z</time>
      </trkpt>
      <trkpt lat="49.04405" lon="3.41157">
        <ele>60.5</ele>
        <time>2020-07-01T08:55:53Z</time>
      </trkpt>
      <trkpt lat="49.04404" lon="3.41148">
        <ele>60.4</ele>
        <time>2020-07-01T08:55:54Z</time>
      </trkpt>
      <trkpt lat="49.04405" lon="3.4114">
        <ele>60.4</ele>
        <time>2020-07-01T08:55:55Z</time>
      </trkpt>
      <trkpt lat="49.04404" lon="3.41131">
        <ele>60.4</ele>
        <time>2020-07-01T08:55:56Z</time>
      </trkpt>
      <trkpt lat="49.04404" lon="3.41122">
        <ele>60.4</ele>
        <time>2020-07-01T08:55:57Z</time>
      </trkpt>
      <trkpt lat="49.04404" lon="3.41114">
        <ele>60.4</ele>
        <time>2020-07-01T08:55:58Z</time>
      </trkpt>
      <trkpt lat="49.04404" lon="3.41106">
        <ele>60.4</ele>
        <time>2020-07-01T08:55:59Z</time>
      </trkpt>
      <trkpt lat="49.04405" lon="3.41098">
        <ele>60.4</ele>
        <time>2020-07-01T08:56:00Z</time>
      </trkpt>
      <trkpt lat="49.04405" lon="3.4109">
        <ele>60.3</ele>
        <time>2020-07-01T08:56:01Z</time>
      </trkpt>
      <trkpt lat="49.04405" lon="3.41081">
        <ele>60.3</ele>
        <time>2020-07-01T08:56:02Z</time>
      </trkpt>
      <trkpt lat="49.04405" lon="3.41072">
        <ele>60.3</ele>
        <time>2020-07-01T08:56:03Z</time>
      </trkpt>
      <trkpt lat="49.04405" lon="3.41064">
        <ele>60.3</ele>
        <time>2020-07-01T08:56:04Z</time>
      </trkpt>
      <trkpt lat="49.04404" lon="3.41055">
        <ele>60.3</ele>
        <time>2020-07-01T08:56:05Z</time>
      </trkpt>
      <trkpt lat="49.04403" lon="3.41047">
        <ele>60.3</ele>
        <time>2020-07-01T08:56:06Z</time>
      </trkpt>
      <trkpt lat="49.04403" lon="3.41038">
        <ele>60.3</ele>
        <time>2020-07-01T08:56:07Z</time>
      </trkpt>
      <trkpt lat="49.04403" lon="3.41029">
        <ele>60.3</ele>
        <time>2020-07-01T08:56:08Z</time>
      </trkpt>
      <trkpt lat="49.04403" lon="3.4102">
        <ele>60.3</ele>
        <time>2020-07-01T08:56:09Z</time>
      </trkpt>
      <trkpt lat="49.04404" lon="3.41011">
        <ele>60.3</ele>
        <time>2020-07-01T08:56:10Z</time>
      </trkpt>
      <trkpt lat="49.04404" lon="3.41003">
        <ele>60.3</ele>
        <time>2020-07-01T08:56:11Z</time>
      </trkpt>
      <trkpt lat="49.04403" lon="3.40994">
        <ele>60.3</ele>
        <time>2020-07-01T08:56:12Z</time>
      </trkpt>
      <trkpt lat="49.04403" lon="3.40986">
        <ele>60.3</ele>
        <time>2020-07-01T08:56:13Z</time>
      </trkpt>
      <trkpt lat="49.04403" lon="3.40977">
        <ele>60.3</ele>
        <time>2020-07-01T08:56:14Z</time>
      </trkpt>
      <trkpt lat="49.04403" lon="3.40969">
        <ele>60.3</ele>
        <time>2020-07-01T08:56:15Z</time>
      </trkpt>
      <trkpt lat="49.04403" lon="3.4096">
        <ele>60.3</ele>
        <time>2020-07-01T08:56:16Z</time>
      </trkpt>
      <trkpt lat="49.04402" lon="3.40952">
        <ele>60.3</ele>
        <time>2020-07-01T08:56:17Z</time>
      </trkpt>
      <trkpt lat="49.04402" lon="3.40943">
        <ele>60.3</ele>
        <time>2020-07-01T08:56:18Z</time>
      </trkpt>
      <trkpt lat="49.04401" lon="3.40934">
        <ele>60.3</ele>
        <time>2020-07-01T08:56:19Z</time>
      </trkpt>
      <trkpt lat="49.04402" lon="3.40925">
        <ele>60.3</ele>
        <time>2020-07-01T08:56:20Z</time>
      </trkpt>
      <trkpt lat="49.04401" lon="3.40917">
        <ele>60.3</ele>
        <time>2020-07-01T08:56:21Z</time>
      </trkpt>
      <trkpt lat="49.04402" lon="3.40908">
        <ele>60.2</ele>
        <time>2020-07-01T08:56:22Z</time>
      </trkpt>
      <trkpt lat="49.04402" lon="3.40899">
        <ele>60.2</ele>
        <time>2020-07-01T08:56:23Z</time>
      </trkpt>
      <trkpt lat="49.04402" lon="3.40891">
        <ele>60.2</ele>
        <time>2020-07-01T08:56:24Z</time>
      </trkpt>
      <trkpt lat="49.04401" lon="3.40882">
        <ele>60.2</ele>
        <time>2020-07-01T08:56:25Z</time>
      </trkpt>
      <trkpt lat="49.04401" lon="3.40873">
        <ele>60.2</ele>
        <time>2020-07-01T08:56:26Z</time>
      </trkpt>
      <trkpt lat="49.044" lon="3.40864">
        <ele>60.2</ele>
        <time>2020-07-01T08:56:27Z</time>
      </trkpt>
      <trkpt lat="49.044" lon="3.40855">
        <ele>60.2</ele>
        <time>2020-07-01T08:56:28Z</time>
      </trkpt>
      <trkpt lat="49.044" lon="3.40846">
        <ele>60.2</ele>
        <time>2020-07-01T08:56:29Z</time>
      </trkpt>
      <trkpt lat="49.044" lon="3.40837">
        <ele>60.2</ele>
        <time>2020-07-01T08:56:30Z</time>
      </trkpt>
      <trkpt lat="49.04399" lon="3.40828">
        <ele>60.2</ele>
        <time>2020-07-01T08:56:31Z</time>
      </trkpt>
      <trkpt lat="49.044" lon="3.4082">
        <ele>60.2</ele>
        <time>2020-07-01T08:56:32Z</time>
      </trkpt>
      <trkpt lat="49.04399" lon="3.40811">
        <ele>60.1</ele>
        <time>2020-07-01T08:56:33Z</time>
      </trkpt>
      <trkpt lat="49.04399" lon="3.40802">
        <ele>60.1</ele>
        <time>2020-07-01T08:56:34Z</time>
      </trkpt>
      <trkpt lat="49.044" lon="3.40793">
        <ele>60.1</ele>
        <time>2020-07-01T08:56:35Z</time>
      </trkpt>
      <trkpt lat="49.044" lon="3.40784">
        <ele>60.1</ele>
        <time>2020-07-01T08:56:36Z</time>
      </trkpt>
      <trkpt lat="49.044" lon="3.40776">
        <ele>60.1</ele>
        <time>2020-07-01T08:56:37Z</time>
      </trkpt>
      <trkpt lat="49.044" lon="3.40767">
        <ele>60.1</ele>
        <time>2020-07-01T08:56:38Z</time>
      </trkpt>
      <trkpt lat="49.04399" lon="3.40759">
        <ele>60</ele>
        <time>2020-07-01T08:56:39Z</time>
      </trkpt>
      <trkpt lat="49.04399" lon="3.40751">
        <ele>60</ele>
        <time>2020-07-01T08:56:40Z</time>
      </trkpt>
      <trkpt lat="49.044" lon="3.40742">
        <ele>60</ele>
        <time>2020-07-01T08:56:41Z</time>
      </trkpt>
      <trkpt lat="49.044" lon="3.40735">
        <ele>60</ele>
        <time>2020-07-01T08:56:42Z</time>
      </trkpt>
      <trkpt lat="49.044" lon="3.40727">
        <ele>60</ele>
        <time>2020-07-01T08:56:43Z</time>
      </trkpt>
      <trkpt lat="49.044" lon="3.4072">
        <ele>60</ele>
        <time>2020-07-01T08:56:44Z</time>
      </trkpt>
      <trkpt lat="49.044" lon="3.40712">
        <ele>60</ele>
        <time>2020-07-01T08:56:45Z</time>
      </trkpt>
      <trkpt lat="49.04401" lon="3.40704">
        <ele>60</ele>
        <time>2020-07-01T08:56:46Z</time>
      </trkpt>
      <trkpt lat="49.04402" lon="3.40697">
        <ele>60</ele>
        <time>2020-07-01T08:56:47Z</time>
      </trkpt>
      <trkpt lat="49.04404" lon="3.4069">
        <ele>60</ele>
        <time>2020-07-01T08:56:48Z</time>
      </trkpt>
      <trkpt lat="49.04406" lon="3.40682">
        <ele>60.1</ele>
        <time>2020-07-01T08:56:49Z</time>
      </trkpt>
      <trkpt lat="49.04407" lon="3.40674">
        <ele>60.1</ele>
        <time>2020-07-01T08:56:50Z</time>
      </trkpt>
      <trkpt lat="49.04408" lon="3.40666">
        <ele>60.1</ele>
        <time>2020-07-01T08:56:51Z</time>
      </trkpt>
      <trkpt lat="49.04409" lon="3.40658">
        <ele>60.2</ele>
        <time>2020-07-01T08:56:52Z</time>
      </trkpt>
      <trkpt lat="49.0441" lon="3.4065">
        <ele>60.2</ele>
        <time>2020-07-01T08:56:53Z</time>
      </trkpt>
      <trkpt lat="49.0441" lon="3.40642">
        <ele>60.2</ele>
        <time>2020-07-01T08:56:54Z</time>
      </trkpt>
      <trkpt lat="49.04412" lon="3.40635">
        <ele>60.2</ele>
        <time>2020-07-01T08:56:55Z</time>
      </trkpt>
      <trkpt lat="49.04413" lon="3.40628">
        <ele>60.2</ele>
        <time>2020-07-01T08:56:56Z</time>
      </trkpt>
      <trkpt lat="49.04414" lon="3.40621">
        <ele>60.2</ele>
        <time>2020-07-01T08:56:57Z</time>
      </trkpt>
      <trkpt lat="49.04416" lon="3.40614">
        <ele>60.2</ele>
        <time>2020-07-01T08:56:58Z</time>
      </trkpt>
      <trkpt lat="49.04418" lon="3.40607">
        <ele>60.3</ele>
        <time>2020-07-01T08:56:59Z</time>
      </trkpt>
      <trkpt lat="49.04419" lon="3.40599">
        <ele>60.3</ele>
        <time>2020-07-01T08:57:00Z</time>
      </trkpt>
      <trkpt lat="49.0442" lon="3.40591">
        <ele>60.4</ele>
        <time>2020-07-01T08:57:01Z</time>
      </trkpt>
      <trkpt lat="49.04421" lon="3.40584">
        <ele>60.4</ele>
        <time>2020-07-01T08:57:02Z</time>
      </trkpt>
      <trkpt lat="49.04422" lon="3.40576">
        <ele>60.5</ele>
        <time>2020-07-01T08:57:03Z</time>
      </trkpt>
      <trkpt lat="49.04424" lon="3.40569">
        <ele>60.6</ele>
        <time>2020-07-01T08:57:04Z</time>
      </trkpt>
      <trkpt lat="49.04425" lon="3.40561">
        <ele>60.6</ele>
        <time>2020-07-01T08:57:05Z</time>
      </trkpt>
      <trkpt lat="49.04427" lon="3.40554">
        <ele>60.7</ele>
        <time>2020-07-01T08:57:06Z</time>
      </trkpt>
      <trkpt lat="49.04428" lon="3.40546">
        <ele>60.8</ele>
        <time>2020-07-01T08:57:07Z</time>
      </trkpt>
      <trkpt lat="49.0443" lon="3.40539">
        <ele>60.9</ele>
        <time>2020-07-01T08:57:08Z</time>
      </trkpt>
      <trkpt lat="49.04431" lon="3.40532">
        <ele>60.9</ele>
        <time>2020-07-01T08:57:09Z</time>
      </trkpt>
      <trkpt lat="49.04433" lon="3.40524">
        <ele>61</ele>
        <time>2020-07-01T08:57:10Z</time>
      </trkpt>
      <trkpt lat="49.04434" lon="3.40517">
        <ele>61.1</ele>
        <time>2020-07-01T08:57:11Z</time>
      </trkpt>
      <trkpt lat="49.04436" lon="3.40511">
        <ele>61.1</ele>
        <time>2020-07-01T08:57:12Z</time>
      </trkpt>
      <trkpt lat="49.04437" lon="3.40504">
        <ele>61.2</ele>
        <time>2020-07-01T08:57:13Z</time>
      </trkpt>
      <trkpt lat="49.04438" lon="3.40497">
        <ele>61.2</ele>
        <time>2020-07-01T08:57:14Z</time>
      </trkpt>
      <trkpt lat="49.04439" lon="3.4049">
        <ele>61.3</ele>
        <time>2020-07-01T08:57:15Z</time>
      </trkpt>
      <trkpt lat="49.0444" lon="3.40483">
        <ele>61.4</ele>
        <time>2020-07-01T08:57:16Z</time>
      </trkpt>
      <trkpt lat="49.04441" lon="3.40475">
        <ele>61.4</ele>
        <time>2020-07-01T08:57:17Z</time>
      </trkpt>
      <trkpt lat="49.04442" lon="3.40469">
        <ele>61.5</ele>
        <time>2020-07-01T08:57:18Z</time>
      </trkpt>
      <trkpt lat="49.04442" lon="3.40463">
        <ele>61.5</ele>
        <time>2020-07-01T08:57:19Z</time>
      </trkpt>
      <trkpt lat="49.04443" lon="3.40457">
        <ele>61.6</ele>
        <time>2020-07-01T08:57:20Z</time>
      </trkpt>
      <trkpt lat="49.04444" lon="3.4045">
        <ele>61.6</ele>
        <time>2020-07-01T08:57:21Z</time>
      </trkpt>
      <trkpt lat="49.04444" lon="3.40443">
        <ele>61.7</ele>
        <time>2020-07-01T08:57:22Z</time>
      </trkpt>
      <trkpt lat="49.04446" lon="3.40435">
        <ele>61.8</ele>
        <time>2020-07-01T08:57:23Z</time>
      </trkpt>
      <trkpt lat="49.04447" lon="3.40428">
        <ele>61.8</ele>
        <time>2020-07-01T08:57:24Z</time>
      </trkpt>
      <trkpt lat="49.04449" lon="3.40421">
        <ele>61.8</ele>
        <time>2020-07-01T08:57:25Z</time>
      </trkpt>
      <trkpt lat="49.0445" lon="3.40415">
        <ele>61.8</ele>
        <time>2020-07-01T08:57:26Z</time>
      </trkpt>
      <trkpt lat="49.04451" lon="3.40409">
        <ele>61.8</ele>
        <time>2020-07-01T08:57:27Z</time>
      </trkpt>
      <trkpt lat="49.04452" lon="3.40404">
        <ele>61.8</ele>
        <time>2020-07-01T08:57:28Z</time>
      </trkpt>
      <trkpt lat="49.04453" lon="3.40398">
        <ele>62</ele>
        <time>2020-07-01T08:57:29Z</time>
      </trkpt>
      <trkpt lat="49.04454" lon="3.40394">
        <ele>62.1</ele>
        <time>2020-07-01T08:57:30Z</time>
      </trkpt>
      <trkpt lat="49.04456" lon="3.40391">
        <ele>62.2</ele>
        <time>2020-07-01T08:57:31Z</time>
      </trkpt>
      <trkpt lat="49.04458" lon="3.40388">
        <ele>62.6</ele>
        <time>2020-07-01T08:57:32Z</time>
      </trkpt>
      <trkpt lat="49.0446" lon="3.40383">
        <ele>62.7</ele>
        <time>2020-07-01T08:57:33Z</time>
      </trkpt>
      <trkpt lat="49.04462" lon="3.40379">
        <ele>62.7</ele>
        <time>2020-07-01T08:57:34Z</time>
      </trkpt>
      <trkpt lat="49.04464" lon="3.40373">
        <ele>62.8</ele>
        <time>2020-07-01T08:57:35Z</time>
      </trkpt>
      <trkpt lat="49.04463" lon="3.40366">
        <ele>63.2</ele>
        <time>2020-07-01T08:57:36Z</time>
      </trkpt>
      <trkpt lat="49.04463" lon="3.4036">
        <ele>63.3</ele>
        <time>2020-07-01T08:57:37Z</time>
      </trkpt>
      <trkpt lat="49.04463" lon="3.40354">
        <ele>63.3</ele>
        <time>2020-07-01T08:57:38Z</time>
      </trkpt>
      <trkpt lat="49.04463" lon="3.40349">
        <ele>63.4</ele>
        <time>2020-07-01T08:57:39Z</time>
      </trkpt>
      <trkpt lat="49.04463" lon="3.40343">
        <ele>63.5</ele>
        <time>2020-07-01T08:57:40Z</time>
      </trkpt>
      <trkpt lat="49.04462" lon="3.40338">
        <ele>63.6</ele>
        <time>2020-07-01T08:57:41Z</time>
      </trkpt>
      <trkpt lat="49.04461" lon="3.40333">
        <ele>63.7</ele>
        <time>2020-07-01T08:57:42Z</time>
      </trkpt>
      <trkpt lat="49.04461" lon="3.40328">
        <ele>63.8</ele>
        <time>2020-07-01T08:57:43Z</time>
      </trkpt>
      <trkpt lat="49.04461" lon="3.40322">
        <ele>63.9</ele>
        <time>2020-07-01T08:57:44Z</time>
      </trkpt>
      <trkpt lat="49.0446" lon="3.40317">
        <ele>64</ele>
        <time>2020-07-01T08:57:45Z</time>
      </trkpt>
      <trkpt lat="49.04458" lon="3.40311">
        <ele>64</ele>
        <time>2020-07-01T08:57:46Z</time>
      </trkpt>
      <trkpt lat="49.04455" lon="3.40306">
        <ele>64</ele>
        <time>2020-07-01T08:57:47Z</time>
      </trkpt>
      <trkpt lat="49.04451" lon="3.40303">
        <ele>63.9</ele>
        <time>2020-07-01T08:57:48Z</time>
      </trkpt>
      <trkpt lat="49.04447" lon="3.40304">
        <ele>63.7</ele>
        <time>2020-07-01T08:57:49Z</time>
      </trkpt>
      <trkpt lat="49.04442" lon="3.40304">
        <ele>63.4</ele>
        <time>2020-07-01T08:57:50Z</time>
      </trkpt>
      <trkpt lat="49.04438" lon="3.40308">
        <ele>63.4</ele>
        <time>2020-07-01T08:57:51Z</time>
      </trkpt>
      <trkpt lat="49.04434" lon="3.40311">
        <ele>63.5</ele>
        <time>2020-07-01T08:57:52Z</time>
      </trkpt>
      <trkpt lat="49.04431" lon="3.40314">
        <ele>63.5</ele>
        <time>2020-07-01T08:57:53Z</time>
      </trkpt>
      <trkpt lat="49.04426" lon="3.40315">
        <ele>63.5</ele>
        <time>2020-07-01T08:57:54Z</time>
      </trkpt>
      <trkpt lat="49.04421" lon="3.40316">
        <ele>63.6</ele>
        <time>2020-07-01T08:57:55Z</time>
      </trkpt>
      <trkpt lat="49.04417" lon="3.40316">
        <ele>63.6</ele>
        <time>2020-07-01T08:57:56Z</time>
      </trkpt>
      <trkpt lat="49.04413" lon="3.40317">
        <ele>63.6</ele>
        <time>2020-07-01T08:57:57Z</time>
      </trkpt>
      <trkpt lat="49.04409" lon="3.40319">
        <ele>63.6</ele>
        <time>2020-07-01T08:57:58Z</time>
      </trkpt>
      <trkpt lat="49.04405" lon="3.40321">
        <ele>63.6</ele>
        <time>2020-07-01T08:57:59Z</time>
      </trkpt>
      <trkpt lat="49.04401" lon="3.40323">
        <ele>63.6</ele>
        <time>2020-07-01T08:58:00Z</time>
      </trkpt>
      <trkpt lat="49.04397" lon="3.40324">
        <ele>63.5</ele>
        <time>2020-07-01T08:58:01Z</time>
      </trkpt>
      <trkpt lat="49.04393" lon="3.40325">
        <ele>63.5</ele>
        <time>2020-07-01T08:58:02Z</time>
      </trkpt>
      <trkpt lat="49.04389" lon="3.40326">
        <ele>63.4</ele>
        <time>2020-07-01T08:58:03Z</time>
      </trkpt>
      <trkpt lat="49.04385" lon="3.40327">
        <ele>63.3</ele>
        <time>2020-07-01T08:58:04Z</time>
      </trkpt>
      <trkpt lat="49.04381" lon="3.40329">
        <ele>63.3</ele>
        <time>2020-07-01T08:58:05Z</time>
      </trkpt>
      <trkpt lat="49.04376" lon="3.40331">
        <ele>63.2</ele>
        <time>2020-07-01T08:58:06Z</time>
      </trkpt>
      <trkpt lat="49.04372" lon="3.40333">
        <ele>63</ele>
        <time>2020-07-01T08:58:07Z</time>
      </trkpt>
      <trkpt lat="49.04367" lon="3.40335">
        <ele>63</ele>
        <time>2020-07-01T08:58:08Z</time>
      </trkpt>
      <trkpt lat="49.04363" lon="3.40335">
        <ele>63</ele>
        <time>2020-07-01T08:58:09Z</time>
      </trkpt>
      <trkpt lat="49.04359" lon="3.40332">
        <ele>62.6</ele>
        <time>2020-07-01T08:58:10Z</time>
      </trkpt>
      <trkpt lat="49.04359" lon="3.40324">
        <ele>62.4</ele>
        <time>2020-07-01T08:58:11Z</time>
      </trkpt>
      <trkpt lat="49.04359" lon="3.40317">
        <ele>62.1</ele>
        <time>2020-07-01T08:58:12Z</time>
      </trkpt>
      <trkpt lat="49.04357" lon="3.40309">
        <ele>61.9</ele>
        <time>2020-07-01T08:58:13Z</time>
      </trkpt>
      <trkpt lat="49.04356" lon="3.40299">
        <ele>61.5</ele>
        <time>2020-07-01T08:58:14Z</time>
      </trkpt>
      <trkpt lat="49.04355" lon="3.40289">
        <ele>61.1</ele>
        <time>2020-07-01T08:58:15Z</time>
      </trkpt>
      <trkpt lat="49.04353" lon="3.40279">
        <ele>61</ele>
        <time>2020-07-01T08:58:16Z</time>
      </trkpt>
      <trkpt lat="49.0435" lon="3.4027">
        <ele>60.8</ele>
        <time>2020-07-01T08:58:17Z</time>
      </trkpt>
      <trkpt lat="49.04348" lon="3.40262">
        <ele>60.7</ele>
        <time>2020-07-01T08:58:18Z</time>
      </trkpt>
      <trkpt lat="49.04346" lon="3.40254">
        <ele>60.6</ele>
        <time>2020-07-01T08:58:19Z</time>
      </trkpt>
      <trkpt lat="49.04344" lon="3.40247">
        <ele>60.5</ele>
        <time>2020-07-01T08:58:20Z</time>
      </trkpt>
      <trkpt lat="49.04344" lon="3.40239">
        <ele>60.4</ele>
        <time>2020-07-01T08:58:21Z</time>
      </trkpt>
      <trkpt lat="49.04343" lon="3.40234">
        <ele>60.3</ele>
        <time>2020-07-01T08:58:22Z</time>
      </trkpt>
      <trkpt lat="49.04341" lon="3.40229">
        <ele>60.3</ele>
        <time>2020-07-01T08:58:23Z</time>
      </trkpt>
      <trkpt lat="49.0434" lon="3.40224">
        <ele>60.2</ele>
        <time>2020-07-01T08:58:24Z</time>
      </trkpt>
      <trkpt lat="49.04339" lon="3.40222">
        <ele>60.2</ele>
        <time>2020-07-01T08:58:25Z</time>
      </trkpt>
      <trkpt lat="49.04338" lon="3.40218">
        <ele>60.1</ele>
        <time>2020-07-01T08:58:26Z</time>
      </trkpt>
      <trkpt lat="49.04335" lon="3.40214">
        <ele>60</ele>
        <time>2020-07-01T08:58:27Z</time>
      </trkpt>
      <trkpt lat="49.04334" lon="3.40214">
        <ele>60</ele>
        <time>2020-07-01T08:58:28Z</time>
      </trkpt>
      <trkpt lat="49.0433" lon="3.40215">
        <ele>60.1</ele>
        <time>2020-07-01T08:58:29Z</time>
      </trkpt>
      <trkpt lat="49.04326" lon="3.40216">
        <ele>60.1</ele>
        <time>2020-07-01T08:58:30Z</time>
      </trkpt>
      <trkpt lat="49.04322" lon="3.40218">
        <ele>60.2</ele>
        <time>2020-07-01T08:58:31Z</time>
      </trkpt>
      <trkpt lat="49.04319" lon="3.4022">
        <ele>60.2</ele>
        <time>2020-07-01T08:58:32Z</time>
      </trkpt>
      <trkpt lat="49.04316" lon="3.40221">
        <ele>60.3</ele>
        <time>2020-07-01T08:58:33Z</time>
      </trkpt>
      <trkpt lat="49.04313" lon="3.40224">
        <ele>60.3</ele>
        <time>2020-07-01T08:58:34Z</time>
      </trkpt>
      <trkpt lat="49.04309" lon="3.40225">
        <ele>60.2</ele>
        <time>2020-07-01T08:58:35Z</time>
      </trkpt>
      <trkpt lat="49.04305" lon="3.40225">
        <ele>60.2</ele>
        <time>2020-07-01T08:58:36Z</time>
      </trkpt>
      <trkpt lat="49.04301" lon="3.40226">
        <ele>60.2</ele>
        <time>2020-07-01T08:58:37Z</time>
      </trkpt>
      <trkpt lat="49.04298" lon="3.40228">
        <ele>60.2</ele>
        <time>2020-07-01T08:58:38Z</time>
      </trkpt>
      <trkpt lat="49.04293" lon="3.40229">
        <ele>60.2</ele>
        <time>2020-07-01T08:58:39Z</time>
      </trkpt>
      <trkpt lat="49.0429" lon="3.40233">
        <ele>60.2</ele>
        <time>2020-07-01T08:58:40Z</time>
      </trkpt>
      <trkpt lat="49.04288" lon="3.40238">
        <ele>60.1</ele>
        <time>2020-07-01T08:58:41Z</time>
      </trkpt>
      <trkpt lat="49.04286" lon="3.40241">
        <ele>60.1</ele>
        <time>2020-07-01T08:58:42Z</time>
      </trkpt>
      <trkpt lat="49.04284" lon="3.40244">
        <ele>60.1</ele>
        <time>2020-07-01T08:58:43Z</time>
      </trkpt>
      <trkpt lat="49.04282" lon="3.40248">
        <ele>60.1</ele>
        <time>2020-07-01T08:58:44Z</time>
      </trkpt>
      <trkpt lat="49.0428" lon="3.40252">
        <ele>60.1</ele>
        <time>2020-07-01T08:58:45Z</time>
      </trkpt>
      <trkpt lat="49.04278" lon="3.40256">
        <ele>60.2</ele>
        <time>2020-07-01T08:58:46Z</time>
      </trkpt>
      <trkpt lat="49.04275" lon="3.4026">
        <ele>60.2</ele>
        <time>2020-07-01T08:58:47Z</time>
      </trkpt>
      <trkpt lat="49.04273" lon="3.40265">
        <ele>60.2</ele>
        <time>2020-07-01T08:58:48Z</time>
      </trkpt>
      <trkpt lat="49.04272" lon="3.4027">
        <ele>60.2</ele>
        <time>2020-07-01T08:58:49Z</time>
      </trkpt>
      <trkpt lat="49.0427" lon="3.40273">
        <ele>60.3</ele>
        <time>2020-07-01T08:58:50Z</time>
      </trkpt>
      <trkpt lat="49.04268" lon="3.40276">
        <ele>60.3</ele>
        <time>2020-07-01T08:58:51Z</time>
      </trkpt>
      <trkpt lat="49.04267" lon="3.40277">
        <ele>60.3</ele>
        <time>2020-07-01T08:58:52Z</time>
      </trkpt>
      <trkpt lat="49.04267" lon="3.40279">
        <ele>60.3</ele>
        <time>2020-07-01T08:58:53Z</time>
      </trkpt>
      <trkpt lat="49.04266" lon="3.40281">
        <ele>60.4</ele>
        <time>2020-07-01T08:58:54Z</time>
      </trkpt>
      <trkpt lat="49.04265" lon="3.40285">
        <ele>60.4</ele>
        <time>2020-07-01T08:58:55Z</time>
      </trkpt>
      <trkpt lat="49.04265" lon="3.40286">
        <ele>60.4</ele>
        <time>2020-07-01T08:58:56Z</time>
      </trkpt>
      <trkpt lat="49.04265" lon="3.40288">
        <ele>60.4</ele>
        <time>2020-07-01T08:58:57Z</time>
      </trkpt>
      <trkpt lat="49.04264" lon="3.40292">
        <ele>60.5</ele>
        <time>2020-07-01T08:58:58Z</time>
      </trkpt>
      <trkpt lat="49.04263" lon="3.40293">
        <ele>60.5</ele>
        <time>2020-07-01T08:58:59Z</time>
      </trkpt>
      <trkpt lat="49.04261" lon="3.40296">
        <ele>60.5</ele>
        <time>2020-07-01T08:59:00Z</time>
      </trkpt>
      <trkpt lat="49.0426" lon="3.40297">
        <ele>60.5</ele>
        <time>2020-07-01T08:59:01Z</time>
      </trkpt>
      <trkpt lat="49.0426" lon="3.40301">
        <ele>60.6</ele>
        <time>2020-07-01T08:59:02Z</time>
      </trkpt>
      <trkpt lat="49.04259" lon="3.40303">
        <ele>60.6</ele>
        <time>2020-07-01T08:59:03Z</time>
      </trkpt>
      <trkpt lat="49.04257" lon="3.40305">
        <ele>60.6</ele>
        <time>2020-07-01T08:59:04Z</time>
      </trkpt>
      <trkpt lat="49.04256" lon="3.40307">
        <ele>60.6</ele>
        <time>2020-07-01T08:59:05Z</time>
      </trkpt>
      <trkpt lat="49.04255" lon="3.40312">
        <ele>60.7</ele>
        <time>2020-07-01T08:59:06Z</time>
      </trkpt>
      <trkpt lat="49.04255" lon="3.40313">
        <ele>60.7</ele>
        <time>2020-07-01T08:59:07Z</time>
      </trkpt>
      <trkpt lat="49.04253" lon="3.40317">
        <ele>60.7</ele>
        <time>2020-07-01T08:59:08Z</time>
      </trkpt>
      <trkpt lat="49.04252" lon="3.40319">
        <ele>60.7</ele>
        <time>2020-07-01T08:59:09Z</time>
      </trkpt>
      <trkpt lat="49.0425" lon="3.4032">
        <ele>60.8</ele>
        <time>2020-07-01T08:59:10Z</time>
      </trkpt>
      <trkpt lat="49.04249" lon="3.40319">
        <ele>60.8</ele>
        <time>2020-07-01T08:59:11Z</time>
      </trkpt>
      <trkpt lat="49.04247" lon="3.40318">
        <ele>60.8</ele>
        <time>2020-07-01T08:59:12Z</time>
      </trkpt>
      <trkpt lat="49.04246" lon="3.40321">
        <ele>60.8</ele>
        <time>2020-07-01T08:59:13Z</time>
      </trkpt>
      <trkpt lat="49.04244" lon="3.40325">
        <ele>60.8</ele>
        <time>2020-07-01T08:59:14Z</time>
      </trkpt>
      <trkpt lat="49.04243" lon="3.40325">
        <ele>60.8</ele>
        <time>2020-07-01T08:59:15Z</time>
      </trkpt>
      <trkpt lat="49.0424" lon="3.40328">
        <ele>60.9</ele>
        <time>2020-07-01T08:59:16Z</time>
      </trkpt>
      <trkpt lat="49.04239" lon="3.40328">
        <ele>60.9</ele>
        <time>2020-07-01T08:59:17Z</time>
      </trkpt>
      <trkpt lat="49.04238" lon="3.40328">
        <ele>60.9</ele>
        <time>2020-07-01T08:59:18Z</time>
      </trkpt>
      <trkpt lat="49.04237" lon="3.4033">
        <ele>60.9</ele>
        <time>2020-07-01T08:59:19Z</time>
      </trkpt>
      <trkpt lat="49.04233" lon="3.40332">
        <ele>60.9</ele>
        <time>2020-07-01T08:59:20Z</time>
      </trkpt>
      <trkpt lat="49.04232" lon="3.40333">
        <ele>61</ele>
        <time>2020-07-01T08:59:21Z</time>
      </trkpt>
      <trkpt lat="49.0423" lon="3.40335">
        <ele>61</ele>
        <time>2020-07-01T08:59:22Z</time>
      </trkpt>
      <trkpt lat="49.04228" lon="3.40341">
        <ele>61</ele>
        <time>2020-07-01T08:59:23Z</time>
      </trkpt>
      <trkpt lat="49.04228" lon="3.40342">
        <ele>61</ele>
        <time>2020-07-01T08:59:24Z</time>
      </trkpt>
      <trkpt lat="49.04228" lon="3.40345">
        <ele>61</ele>
        <time>2020-07-01T08:59:25Z</time>
      </trkpt>
      <trkpt lat="49.04229" lon="3.40347">
        <ele>61</ele>
        <time>2020-07-01T08:59:26Z</time>
      </trkpt>
      <trkpt lat="49.04231" lon="3.40351">
        <ele>61.1</ele>
        <time>2020-07-01T08:59:27Z</time>
      </trkpt>
      <trkpt lat="49.04231" lon="3.40353">
        <ele>61.1</ele>
        <time>2020-07-01T08:59:28Z</time>
      </trkpt>
      <trkpt lat="49.04228" lon="3.40357">
        <ele>61.1</ele>
        <time>2020-07-01T08:59:29Z</time>
      </trkpt>
      <trkpt lat="49.04223" lon="3.40362">
        <ele>61.2</ele>
        <time>2020-07-01T08:59:30Z</time>
      </trkpt>
      <trkpt lat="49.04222" lon="3.40366">
        <ele>61.2</ele>
        <time>2020-07-01T08:59:31Z</time>
      </trkpt>
      <trkpt lat="49.04221" lon="3.40367">
        <ele>61.2</ele>
        <time>2020-07-01T08:59:32Z</time>
      </trkpt>
      <trkpt lat="49.04221" lon="3.4037">
        <ele>61.2</ele>
        <time>2020-07-01T08:59:33Z</time>
      </trkpt>
      <trkpt lat="49.04221" lon="3.40372">
        <ele>61.2</ele>
        <time>2020-07-01T08:59:34Z</time>
      </trkpt>
      <trkpt lat="49.0422" lon="3.40373">
        <ele>61.2</ele>
        <time>2020-07-01T08:59:35Z</time>
      </trkpt>
      <trkpt lat="49.04217" lon="3.40371">
        <ele>61.4</ele>
        <time>2020-07-01T08:59:36Z</time>
      </trkpt>
      <trkpt lat="49.04213" lon="3.4037">
        <ele>61.5</ele>
        <time>2020-07-01T08:59:37Z</time>
      </trkpt>
      <trkpt lat="49.04212" lon="3.4037">
        <ele>61.5</ele>
        <time>2020-07-01T08:59:38Z</time>
      </trkpt>
      <trkpt lat="49.04209" lon="3.40369">
        <ele>61.6</ele>
        <time>2020-07-01T08:59:39Z</time>
      </trkpt>
      <trkpt lat="49.04206" lon="3.40369">
        <ele>61.7</ele>
        <time>2020-07-01T08:59:40Z</time>
      </trkpt>
      <trkpt lat="49.04202" lon="3.40369">
        <ele>61.8</ele>
        <time>2020-07-01T08:59:41Z</time>
      </trkpt>
      <trkpt lat="49.04199" lon="3.40369">
        <ele>61.8</ele>
        <time>2020-07-01T08:59:42Z</time>
      </trkpt>
      <trkpt lat="49.04196" lon="3.4037">
        <ele>61.9</ele>
        <time>2020-07-01T08:59:43Z</time>
      </trkpt>
      <trkpt lat="49.04195" lon="3.4037">
        <ele>61.9</ele>
        <time>2020-07-01T08:59:44Z</time>
      </trkpt>
      <trkpt lat="49.04191" lon="3.40371">
        <ele>62.2</ele>
        <time>2020-07-01T08:59:45Z</time>
      </trkpt>
      <trkpt lat="49.0419" lon="3.40371">
        <ele>62.2</ele>
        <time>2020-07-01T08:59:46Z</time>
      </trkpt>
      <trkpt lat="49.04189" lon="3.40371">
        <ele>62.2</ele>
        <time>2020-07-01T08:59:47Z</time>
      </trkpt>
      <trkpt lat="49.04188" lon="3.40371">
        <ele>62.2</ele>
        <time>2020-07-01T08:59:48Z</time>
      </trkpt>
      <trkpt lat="49.04187" lon="3.40372">
        <ele>62.2</ele>
        <time>2020-07-01T08:59:49Z</time>
      </trkpt>
      <trkpt lat="49.04184" lon="3.40373">
        <ele>62.2</ele>
        <time>2020-07-01T08:59:50Z</time>
      </trkpt>
      <trkpt lat="49.04181" lon="3.40377">
        <ele>62.2</ele>
        <time>2020-07-01T08:59:51Z</time>
      </trkpt>
      <trkpt lat="49.04179" lon="3.40378">
        <ele>62.2</ele>
        <time>2020-07-01T08:59:52Z</time>
      </trkpt>
      <trkpt lat="49.04177" lon="3.40381">
        <ele>62.2</ele>
        <time>2020-07-01T08:59:53Z</time>
      </trkpt>
      <trkpt lat="49.04175" lon="3.40384">
        <ele>62.3</ele>
        <time>2020-07-01T08:59:54Z</time>
      </trkpt>
      <trkpt lat="49.04174" lon="3.40386">
        <ele>62.3</ele>
        <time>2020-07-01T08:59:55Z</time>
      </trkpt>
      <trkpt lat="49.04172" lon="3.40387">
        <ele>62.3</ele>
        <time>2020-07-01T08:59:56Z</time>
      </trkpt>
      <trkpt lat="49.04172" lon="3.40389">
        <ele>62.3</ele>
        <time>2020-07-01T08:59:57Z</time>
      </trkpt>
      <trkpt lat="49.04171" lon="3.40394">
        <ele>62.3</ele>
        <time>2020-07-01T08:59:58Z</time>
      </trkpt>
      <trkpt lat="49.04171" lon="3.40395">
        <ele>62.3</ele>
        <time>2020-07-01T08:59:59Z</time>
      </trkpt>
      <trkpt lat="49.04168" lon="3.40398">
        <ele>62.3</ele>
        <time>2020-07-01T09:00:00Z</time>
      </trkpt>
      <trkpt lat="49.04166" lon="3.404">
        <ele>62.3</ele>
        <time>2020-07-01T09:00:01Z</time>
      </trkpt>
      <trkpt lat="49.04164" lon="3.40403">
        <ele>62.3</ele>
        <time>2020-07-01T09:00:02Z</time>
      </trkpt>
      <trkpt lat="49.04163" lon="3.40404">
        <ele>62.3</ele>
        <time>2020-07-01T09:00:03Z</time>
      </trkpt>
      <trkpt lat="49.04162" lon="3.40405">
        <ele>62.3</ele>
        <time>2020-07-01T09:00:04Z</time>
      </trkpt>
      <trkpt lat="49.04162" lon="3.40406">
        <ele>62.3</ele>
        <time>2020-07-01T09:00:05Z</time>
      </trkpt>
      <trkpt lat="49.04161" lon="3.40407">
        <ele>62.3</ele>
        <time>2020-07-01T09:00:06Z</time>
      </trkpt>
      <trkpt lat="49.0416" lon="3.40407">
        <ele>62.3</ele>
        <time>2020-07-01T09:00:07Z</time>
      </trkpt>
      <trkpt lat="49.04158" lon="3.40408">
        <ele>62.3</ele>
        <time>2020-07-01T09:00:08Z</time>
      </trkpt>
      <trkpt lat="49.04158" lon="3.40409">
        <ele>62.3</ele>
        <time>2020-07-01T09:00:09Z</time>
      </trkpt>
      <trkpt lat="49.04157" lon="3.4041">
        <ele>62.3</ele>
        <time>2020-07-01T09:00:10Z</time>
      </trkpt>
      <trkpt lat="49.04157" lon="3.4041">
        <ele>62.3</ele>
        <time>2020-07-01T09:00:11Z</time>
      </trkpt>
      <trkpt lat="49.04157" lon="3.4041">
        <ele>62.3</ele>
        <time>2020-07-01T09:00:12Z</time>
      </trkpt>
      <trkpt lat="49.04155" lon="3.4041">
        <ele>62.3</ele>
        <time>2020-07-01T09:00:13Z</time>
      </trkpt>
      <trkpt lat="49.04153" lon="3.40412">
        <ele>62.3</ele>
        <time>2020-07-01T09:00:14Z</time>
      </trkpt>
      <trkpt lat="49.04151" lon="3.40412">
        <ele>62.3</ele>
        <time>2020-07-01T09:00:15Z</time>
      </trkpt>
      <trkpt lat="49.04148" lon="3.40413">
        <ele>62.3</ele>
        <time>2020-07-01T09:00:16Z</time>
      </trkpt>
      <trkpt lat="49.04145" lon="3.40415">
        <ele>62.4</ele>
        <time>2020-07-01T09:00:17Z</time>
      </trkpt>
      <trkpt lat="49.04143" lon="3.40416">
        <ele>62.4</ele>
        <time>2020-07-01T09:00:18Z</time>
      </trkpt>
      <trkpt lat="49.0414" lon="3.40418">
        <ele>62.4</ele>
        <time>2020-07-01T09:00:19Z</time>
      </trkpt>
      <trkpt lat="49.04136" lon="3.4042">
        <ele>62.4</ele>
        <time>2020-07-01T09:00:20Z</time>
      </trkpt>
      <trkpt lat="49.04132" lon="3.40421">
        <ele>62.4</ele>
        <time>2020-07-01T09:00:21Z</time>
      </trkpt>
      <trkpt lat="49.04127" lon="3.40423">
        <ele>62.3</ele>
        <time>2020-07-01T09:00:22Z</time>
      </trkpt>
      <trkpt lat="49.04122" lon="3.40424">
        <ele>62.3</ele>
        <time>2020-07-01T09:00:23Z</time>
      </trkpt>
      <trkpt lat="49.04118" lon="3.40424">
        <ele>62.3</ele>
        <time>2020-07-01T09:00:24Z</time>
      </trkpt>
      <trkpt lat="49.04112" lon="3.40426">
        <ele>62.3</ele>
        <time>2020-07-01T09:00:25Z</time>
      </trkpt>
      <trkpt lat="49.04107" lon="3.40429">
        <ele>62.4</ele>
        <time>2020-07-01T09:00:26Z</time>
      </trkpt>
      <trkpt lat="49.04103" lon="3.40432">
        <ele>62.4</ele>
        <time>2020-07-01T09:00:27Z</time>
      </trkpt>
      <trkpt lat="49.04099" lon="3.40435">
        <ele>62.5</ele>
        <time>2020-07-01T09:00:28Z</time>
      </trkpt>
      <trkpt lat="49.04095" lon="3.40437">
        <ele>62.5</ele>
        <time>2020-07-01T09:00:29Z</time>
      </trkpt>
      <trkpt lat="49.0409" lon="3.40441">
        <ele>62.5</ele>
        <time>2020-07-01T09:00:30Z</time>
      </trkpt>
      <trkpt lat="49.04086" lon="3.40443">
        <ele>62.5</ele>
        <time>2020-07-01T09:00:31Z</time>
      </trkpt>
      <trkpt lat="49.04081" lon="3.40445">
        <ele>62.6</ele>
        <time>2020-07-01T09:00:32Z</time>
      </trkpt>
      <trkpt lat="49.04076" lon="3.40447">
        <ele>62.6</ele>
        <time>2020-07-01T09:00:33Z</time>
      </trkpt>
      <trkpt lat="49.04072" lon="3.40448">
        <ele>62.6</ele>
        <time>2020-07-01T09:00:34Z</time>
      </trkpt>
      <trkpt lat="49.04069" lon="3.40449">
        <ele>62.6</ele>
        <time>2020-07-01T09:00:35Z</time>
      </trkpt>
      <trkpt lat="49.04063" lon="3.40451">
        <ele>62.7</ele>
        <time>2020-07-01T09:00:36Z</time>
      </trkpt>
      <trkpt lat="49.04059" lon="3.40454">
        <ele>62.7</ele>
        <time>2020-07-01T09:00:37Z</time>
      </trkpt>
      <trkpt lat="49.04054" lon="3.40456">
        <ele>62.7</ele>
        <time>2020-07-01T09:00:38Z</time>
      </trkpt>
      <trkpt lat="49.04049" lon="3.40457">
        <ele>62.8</ele>
        <time>2020-07-01T09:00:39Z</time>
      </trkpt>
      <trkpt lat="49.04044" lon="3.40458">
        <ele>62.8</ele>
        <time>2020-07-01T09:00:40Z</time>
      </trkpt>
      <trkpt lat="49.04039" lon="3.4046">
        <ele>62.8</ele>
        <time>2020-07-01T09:00:41Z</time>
      </trkpt>
      <trkpt lat="49.04034" lon="3.40462">
        <ele>62.8</ele>
        <time>2020-07-01T09:00:42Z</time>
      </trkpt>
      <trkpt lat="49.04029" lon="3.40463">
        <ele>62.8</ele>
        <time>2020-07-01T09:00:43Z</time>
      </trkpt>
      <trkpt lat="49.04024" lon="3.40463">
        <ele>62.8</ele>
        <time>2020-07-01T09:00:44Z</time>
      </trkpt>
      <trkpt lat="49.04019" lon="3.40462">
        <ele>62.8</ele>
        <time>2020-07-01T09:00:45Z</time>
      </trkpt>
      <trkpt lat="49.04015" lon="3.4046">
        <ele>62.8</ele>
        <time>2020-07-01T09:00:46Z</time>
      </trkpt>
      <trkpt lat="49.0401" lon="3.4046">
        <ele>62.8</ele>
        <time>2020-07-01T09:00:47Z</time>
      </trkpt>
      <trkpt lat="49.04006" lon="3.40463">
        <ele>62.8</ele>
        <time>2020-07-01T09:00:48Z</time>
      </trkpt>
      <trkpt lat="49.04002" lon="3.40467">
        <ele>62.9</ele>
        <time>2020-07-01T09:00:49Z</time>
      </trkpt>
      <trkpt lat="49.03998" lon="3.40472">
        <ele>62.8</ele>
        <time>2020-07-01T09:00:50Z</time>
      </trkpt>
      <trkpt lat="49.03994" lon="3.40476">
        <ele>62.5</ele>
        <time>2020-07-01T09:00:51Z</time>
      </trkpt>
      <trkpt lat="49.03989" lon="3.4048">
        <ele>62.2</ele>
        <time>2020-07-01T09:00:52Z</time>
      </trkpt>
      <trkpt lat="49.03984" lon="3.40483">
        <ele>62</ele>
        <time>2020-07-01T09:00:53Z</time>
      </trkpt>
      <trkpt lat="49.0398" lon="3.40486">
        <ele>61.8</ele>
        <time>2020-07-01T09:00:54Z</time>
      </trkpt>
      <trkpt lat="49.03976" lon="3.40487">
        <ele>61.8</ele>
        <time>2020-07-01T09:00:55Z</time>
      </trkpt>
      <trkpt lat="49.03972" lon="3.40489">
        <ele>61.7</ele>
        <time>2020-07-01T09:00:56Z</time>
      </trkpt>
      <trkpt lat="49.03967" lon="3.4049">
        <ele>61.7</ele>
        <time>2020-07-01T09:00:57Z</time>
      </trkpt>
      <trkpt lat="49.03963" lon="3.40491">
        <ele>61.6</ele>
        <time>2020-07-01T09:00:58Z</time>
      </trkpt>
      <trkpt lat="49.0396" lon="3.40492">
        <ele>61.6</ele>
        <time>2020-07-01T09:00:59Z</time>
      </trkpt>
      <trkpt lat="49.03955" lon="3.40493">
        <ele>61.6</ele>
        <time>2020-07-01T09:01:00Z</time>
      </trkpt>
      <trkpt lat="49.0395" lon="3.40493">
        <ele>61.5</ele>
        <time>2020-07-01T09:01:01Z</time>
      </trkpt>
      <trkpt lat="49.03945" lon="3.40495">
        <ele>61.5</ele>
        <time>2020-07-01T09:01:02Z</time>
      </trkpt>
      <trkpt lat="49.0394" lon="3.40497">
        <ele>61.4</ele>
        <time>2020-07-01T09:01:03Z</time>
      </trkpt>
      <trkpt lat="49.03936" lon="3.40498">
        <ele>61.4</ele>
        <time>2020-07-01T09:01:04Z</time>
      </trkpt>
      <trkpt lat="49.03931" lon="3.405">
        <ele>61.4</ele>
        <time>2020-07-01T09:01:05Z</time>
      </trkpt>
      <trkpt lat="49.03926" lon="3.40503">
        <ele>61.4</ele>
        <time>2020-07-01T09:01:06Z</time>
      </trkpt>
      <trkpt lat="49.0392" lon="3.40506">
        <ele>61.4</ele>
        <time>2020-07-01T09:01:07Z</time>
      </trkpt>
      <trkpt lat="49.03915" lon="3.40508">
        <ele>61.4</ele>
        <time>2020-07-01T09:01:08Z</time>
      </trkpt>
      <trkpt lat="49.0391" lon="3.4051">
        <ele>61.4</ele>
        <time>2020-07-01T09:01:09Z</time>
      </trkpt>
      <trkpt lat="49.03905" lon="3.40511">
        <ele>61.4</ele>
        <time>2020-07-01T09:01:10Z</time>
      </trkpt>
      <trkpt lat="49.039" lon="3.40513">
        <ele>61.4</ele>
        <time>2020-07-01T09:01:11Z</time>
      </trkpt>
      <trkpt lat="49.03893" lon="3.40513">
        <ele>61.5</ele>
        <time>2020-07-01T09:01:12Z</time>
      </trkpt>
      <trkpt lat="49.0389" lon="3.40515">
        <ele>61.5</ele>
        <time>2020-07-01T09:01:13Z</time>
      </trkpt>
      <trkpt lat="49.03885" lon="3.40518">
        <ele>61.5</ele>
        <time>2020-07-01T09:01:14Z</time>
      </trkpt>
      <trkpt lat="49.0388" lon="3.40521">
        <ele>61.6</ele>
        <time>2020-07-01T09:01:15Z</time>
      </trkpt>
      <trkpt lat="49.03875" lon="3.40526">
        <ele>61.8</ele>
        <time>2020-07-01T09:01:16Z</time>
      </trkpt>
      <trkpt lat="49.0387" lon="3.40528">
        <ele>61.9</ele>
        <time>2020-07-01T09:01:17Z</time>
      </trkpt>
      <trkpt lat="49.03866" lon="3.4053">
        <ele>62</ele>
        <time>2020-07-01T09:01:18Z</time>
      </trkpt>
      <trkpt lat="49.03861" lon="3.40532">
        <ele>62.2</ele>
        <time>2020-07-01T09:01:19Z</time>
      </trkpt>
      <trkpt lat="49.03857" lon="3.40534">
        <ele>62.3</ele>
        <time>2020-07-01T09:01:20Z</time>
      </trkpt>
      <trkpt lat="49.03853" lon="3.40535">
        <ele>62.5</ele>
        <time>2020-07-01T09:01:21Z</time>
      </trkpt>
      <trkpt lat="49.03848" lon="3.40537">
        <ele>62.6</ele>
        <time>2020-07-01T09:01:22Z</time>
      </trkpt>
      <trkpt lat="49.03844" lon="3.40538">
        <ele>62.8</ele>
        <time>2020-07-01T09:01:23Z</time>
      </trkpt>
      <trkpt lat="49.0384" lon="3.40539">
        <ele>62.9</ele>
        <time>2020-07-01T09:01:24Z</time>
      </trkpt>
      <trkpt lat="49.03836" lon="3.40541">
        <ele>63</ele>
        <time>2020-07-01T09:01:25Z</time>
      </trkpt>
      <trkpt lat="49.03833" lon="3.40542">
        <ele>63.2</ele>
        <time>2020-07-01T09:01:26Z</time>
      </trkpt>
      <trkpt lat="49.03828" lon="3.40543">
        <ele>63.3</ele>
        <time>2020-07-01T09:01:27Z</time>
      </trkpt>
      <trkpt lat="49.03824" lon="3.40545">
        <ele>63.5</ele>
        <time>2020-07-01T09:01:28Z</time>
      </trkpt>
      <trkpt lat="49.0382" lon="3.40547">
        <ele>63.6</ele>
        <time>2020-07-01T09:01:29Z</time>
      </trkpt>
      <trkpt lat="49.03816" lon="3.40549">
        <ele>63.8</ele>
        <time>2020-07-01T09:01:30Z</time>
      </trkpt>
      <trkpt lat="49.03813" lon="3.40551">
        <ele>63.9</ele>
        <time>2020-07-01T09:01:31Z</time>
      </trkpt>
      <trkpt lat="49.03809" lon="3.40552">
        <ele>64.1</ele>
        <time>2020-07-01T09:01:32Z</time>
      </trkpt>
      <trkpt lat="49.03804" lon="3.40554">
        <ele>64.2</ele>
        <time>2020-07-01T09:01:33Z</time>
      </trkpt>
      <trkpt lat="49.038" lon="3.40556">
        <ele>64.4</ele>
        <time>2020-07-01T09:01:34Z</time>
      </trkpt>
      <trkpt lat="49.03795" lon="3.40557">
        <ele>64.6</ele>
        <time>2020-07-01T09:01:35Z</time>
      </trkpt>
      <trkpt lat="49.0379" lon="3.40558">
        <ele>64.8</ele>
        <time>2020-07-01T09:01:36Z</time>
      </trkpt>
      <trkpt lat="49.03786" lon="3.4056">
        <ele>65</ele>
        <time>2020-07-01T09:01:37Z</time>
      </trkpt>
      <trkpt lat="49.03782" lon="3.40562">
        <ele>65.2</ele>
        <time>2020-07-01T09:01:38Z</time>
      </trkpt>
      <trkpt lat="49.03778" lon="3.40563">
        <ele>65.3</ele>
        <time>2020-07-01T09:01:39Z</time>
      </trkpt>
      <trkpt lat="49.03773" lon="3.40565">
        <ele>65.5</ele>
        <time>2020-07-01T09:01:40Z</time>
      </trkpt>
      <trkpt lat="49.03769" lon="3.40567">
        <ele>65.6</ele>
        <time>2020-07-01T09:01:41Z</time>
      </trkpt>
      <trkpt lat="49.03765" lon="3.40569">
        <ele>65.8</ele>
        <time>2020-07-01T09:01:42Z</time>
      </trkpt>
      <trkpt lat="49.03761" lon="3.40571">
        <ele>65.9</ele>
        <time>2020-07-01T09:01:43Z</time>
      </trkpt>
      <trkpt lat="49.03756" lon="3.40571">
        <ele>66.1</ele>
        <time>2020-07-01T09:01:44Z</time>
      </trkpt>
      <trkpt lat="49.03752" lon="3.40572">
        <ele>66.2</ele>
        <time>2020-07-01T09:01:45Z</time>
      </trkpt>
      <trkpt lat="49.03748" lon="3.40573">
        <ele>66.4</ele>
        <time>2020-07-01T09:01:46Z</time>
      </trkpt>
      <trkpt lat="49.03744" lon="3.40575">
        <ele>66.5</ele>
        <time>2020-07-01T09:01:47Z</time>
      </trkpt>
      <trkpt lat="49.0374" lon="3.40577">
        <ele>66.6</ele>
        <time>2020-07-01T09:01:48Z</time>
      </trkpt>
      <trkpt lat="49.03735" lon="3.40578">
        <ele>66.7</ele>
        <time>2020-07-01T09:01:49Z</time>
      </trkpt>
      <trkpt lat="49.03732" lon="3.4058">
        <ele>66.7</ele>
        <time>2020-07-01T09:01:50Z</time>
      </trkpt>
      <trkpt lat="49.03728" lon="3.40581">
        <ele>66.7</ele>
        <time>2020-07-01T09:01:51Z</time>
      </trkpt>
      <trkpt lat="49.03724" lon="3.40582">
        <ele>66.7</ele>
        <time>2020-07-01T09:01:52Z</time>
      </trkpt>
      <trkpt lat="49.0372" lon="3.40583">
        <ele>66.7</ele>
        <time>2020-07-01T09:01:53Z</time>
      </trkpt>
      <trkpt lat="49.03715" lon="3.40584">
        <ele>66.7</ele>
        <time>2020-07-01T09:01:54Z</time>
      </trkpt>
      <trkpt lat="49.03712" lon="3.40586">
        <ele>66.7</ele>
        <time>2020-07-01T09:01:55Z</time>
      </trkpt>
      <trkpt lat="49.03707" lon="3.40588">
        <ele>66.7</ele>
        <time>2020-07-01T09:01:56Z</time>
      </trkpt>
      <trkpt lat="49.03703" lon="3.4059">
        <ele>66.7</ele>
        <time>2020-07-01T09:01:57Z</time>
      </trkpt>
      <trkpt lat="49.03698" lon="3.40591">
        <ele>66.6</ele>
        <time>2020-07-01T09:01:58Z</time>
      </trkpt>
      <trkpt lat="49.03693" lon="3.40592">
        <ele>66.6</ele>
        <time>2020-07-01T09:01:59Z</time>
      </trkpt>
      <trkpt lat="49.03688" lon="3.40593">
        <ele>66.5</ele>
        <time>2020-07-01T09:02:00Z</time>
      </trkpt>
      <trkpt lat="49.03684" lon="3.40594">
        <ele>66.5</ele>
        <time>2020-07-01T09:02:01Z</time>
      </trkpt>
      <trkpt lat="49.03679" lon="3.40595">
        <ele>66.5</ele>
        <time>2020-07-01T09:02:02Z</time>
      </trkpt>
      <trkpt lat="49.03675" lon="3.40598">
        <ele>66.4</ele>
        <time>2020-07-01T09:02:03Z</time>
      </trkpt>
      <trkpt lat="49.0367" lon="3.406">
        <ele>66.3</ele>
        <time>2020-07-01T09:02:04Z</time>
      </trkpt>
      <trkpt lat="49.03664" lon="3.40602">
        <ele>66.2</ele>
        <time>2020-07-01T09:02:05Z</time>
      </trkpt>
      <trkpt lat="49.03659" lon="3.40603">
        <ele>66</ele>
        <time>2020-07-01T09:02:06Z</time>
      </trkpt>
      <trkpt lat="49.03653" lon="3.40604">
        <ele>65.8</ele>
        <time>2020-07-01T09:02:07Z</time>
      </trkpt>
      <trkpt lat="49.03648" lon="3.40606">
        <ele>65.5</ele>
        <time>2020-07-01T09:02:08Z</time>
      </trkpt>
      <trkpt lat="49.03643" lon="3.40608">
        <ele>65.3</ele>
        <time>2020-07-01T09:02:09Z</time>
      </trkpt>
      <trkpt lat="49.03636" lon="3.40611">
        <ele>65.1</ele>
        <time>2020-07-01T09:02:10Z</time>
      </trkpt>
      <trkpt lat="49.03631" lon="3.40613">
        <ele>64.8</ele>
        <time>2020-07-01T09:02:11Z</time>
      </trkpt>
      <trkpt lat="49.03626" lon="3.40614">
        <ele>64.7</ele>
        <time>2020-07-01T09:02:12Z</time>
      </trkpt>
      <trkpt lat="49.03622" lon="3.40615">
        <ele>64.6</ele>
        <time>2020-07-01T09:02:13Z</time>
      </trkpt>
      <trkpt lat="49.03617" lon="3.40618">
        <ele>64.4</ele>
        <time>2020-07-01T09:02:14Z</time>
      </trkpt>
      <trkpt lat="49.03611" lon="3.40621">
        <ele>64.4</ele>
        <time>2020-07-01T09:02:15Z</time>
      </trkpt>
      <trkpt lat="49.03606" lon="3.40623">
        <ele>64.3</ele>
        <time>2020-07-01T09:02:16Z</time>
      </trkpt>
      <trkpt lat="49.03601" lon="3.40623">
        <ele>64.2</ele>
        <time>2020-07-01T09:02:17Z</time>
      </trkpt>
      <trkpt lat="49.03597" lon="3.40625">
        <ele>64</ele>
        <time>2020-07-01T09:02:18Z</time>
      </trkpt>
      <trkpt lat="49.03594" lon="3.40626">
        <ele>63.9</ele>
        <time>2020-07-01T09:02:19Z</time>
      </trkpt>
      <trkpt lat="49.03592" lon="3.40626">
        <ele>63.9</ele>
        <time>2020-07-01T09:02:20Z</time>
      </trkpt>
      <trkpt lat="49.03591" lon="3.40626">
        <ele>63.9</ele>
        <time>2020-07-01T09:02:21Z</time>
      </trkpt>
      <trkpt lat="49.03591" lon="3.40626">
        <ele>63.9</ele>
        <time>2020-07-01T09:02:22Z</time>
      </trkpt>
      <trkpt lat="49.03591" lon="3.40626">
        <ele>63.9</ele>
        <time>2020-07-01T09:02:23Z</time>
      </trkpt>
      <trkpt lat="49.03591" lon="3.40627">
        <ele>63.8</ele>
        <time>2020-07-01T09:02:24Z</time>
      </trkpt>
      <trkpt lat="49.03588" lon="3.40629">
        <ele>63.8</ele>
        <time>2020-07-01T09:02:25Z</time>
      </trkpt>
      <trkpt lat="49.03587" lon="3.40629">
        <ele>63.7</ele>
        <time>2020-07-01T09:02:26Z</time>
      </trkpt>
      <trkpt lat="49.03584" lon="3.40628">
        <ele>63.6</ele>
        <time>2020-07-01T09:02:27Z</time>
      </trkpt>
      <trkpt lat="49.03582" lon="3.40628">
        <ele>63.6</ele>
        <time>2020-07-01T09:02:28Z</time>
      </trkpt>
      <trkpt lat="49.03579" lon="3.40628">
        <ele>63.5</ele>
        <time>2020-07-01T09:02:29Z</time>
      </trkpt>
      <trkpt lat="49.03575" lon="3.40628">
        <ele>63.4</ele>
        <time>2020-07-01T09:02:30Z</time>
      </trkpt>
      <trkpt lat="49.03572" lon="3.40629">
        <ele>63.3</ele>
        <time>2020-07-01T09:02:31Z</time>
      </trkpt>
      <trkpt lat="49.03569" lon="3.40628">
        <ele>63.3</ele>
        <time>2020-07-01T09:02:32Z</time>
      </trkpt>
      <trkpt lat="49.03567" lon="3.40628">
        <ele>63.2</ele>
        <time>2020-07-01T09:02:33Z</time>
      </trkpt>
      <trkpt lat="49.03566" lon="3.40628">
        <ele>63.2</ele>
        <time>2020-07-01T09:02:34Z</time>
      </trkpt>
      <trkpt lat="49.03565" lon="3.40628">
        <ele>63.2</ele>
        <time>2020-07-01T09:02:35Z</time>
      </trkpt>
      <trkpt lat="49.03564" lon="3.40628">
        <ele>63.2</ele>
        <time>2020-07-01T09:02:36Z</time>
      </trkpt>
      <trkpt lat="49.03563" lon="3.40628">
        <ele>63.2</ele>
        <time>2020-07-01T09:02:37Z</time>
      </trkpt>
      <trkpt lat="49.0356" lon="3.40631">
        <ele>63.1</ele>
        <time>2020-07-01T09:02:38Z</time>
      </trkpt>
      <trkpt lat="49.03558" lon="3.4063">
        <ele>63.1</ele>
        <time>2020-07-01T09:02:39Z</time>
      </trkpt>
      <trkpt lat="49.03554" lon="3.40631">
        <ele>63</ele>
        <time>2020-07-01T09:02:40Z</time>
      </trkpt>
      <trkpt lat="49.0355" lon="3.40633">
        <ele>62.8</ele>
        <time>2020-07-01T09:02:41Z</time>
      </trkpt>
      <trkpt lat="49.03545" lon="3.40634">
        <ele>62.6</ele>
        <time>2020-07-01T09:02:42Z</time>
      </trkpt>
      <trkpt lat="49.0354" lon="3.40635">
        <ele>62.3</ele>
        <time>2020-07-01T09:02:43Z</time>
      </trkpt>
      <trkpt lat="49.03535" lon="3.40638">
        <ele>62.1</ele>
        <time>2020-07-01T09:02:44Z</time>
      </trkpt>
      <trkpt lat="49.0353" lon="3.40642">
        <ele>61.8</ele>
        <time>2020-07-01T09:02:45Z</time>
      </trkpt>
      <trkpt lat="49.03525" lon="3.40646">
        <ele>61.6</ele>
        <time>2020-07-01T09:02:46Z</time>
      </trkpt>
      <trkpt lat="49.0352" lon="3.40649">
        <ele>61.5</ele>
        <time>2020-07-01T09:02:47Z</time>
      </trkpt>
      <trkpt lat="49.03515" lon="3.40651">
        <ele>61.3</ele>
        <time>2020-07-01T09:02:48Z</time>
      </trkpt>
      <trkpt lat="49.0351" lon="3.40653">
        <ele>61.1</ele>
        <time>2020-07-01T09:02:49Z</time>
      </trkpt>
      <trkpt lat="49.03504" lon="3.40656">
        <ele>60.8</ele>
        <time>2020-07-01T09:02:50Z</time>
      </trkpt>
      <trkpt lat="49.03498" lon="3.40659">
        <ele>60.6</ele>
        <time>2020-07-01T09:02:51Z</time>
      </trkpt>
      <trkpt lat="49.03492" lon="3.40661">
        <ele>60.5</ele>
        <time>2020-07-01T09:02:52Z</time>
      </trkpt>
      <trkpt lat="49.03486" lon="3.40664">
        <ele>60.5</ele>
        <time>2020-07-01T09:02:53Z</time>
      </trkpt>
      <trkpt lat="49.0348" lon="3.40665">
        <ele>60.4</ele>
        <time>2020-07-01T09:02:54Z</time>
      </trkpt>
      <trkpt lat="49.03474" lon="3.40666">
        <ele>60.3</ele>
        <time>2020-07-01T09:02:55Z</time>
      </trkpt>
      <trkpt lat="49.03468" lon="3.40668">
        <ele>60.3</ele>
        <time>2020-07-01T09:02:56Z</time>
      </trkpt>
      <trkpt lat="49.03462" lon="3.4067">
        <ele>60.3</ele>
        <time>2020-07-01T09:02:57Z</time>
      </trkpt>
      <trkpt lat="49.03455" lon="3.40673">
        <ele>60.2</ele>
        <time>2020-07-01T09:02:58Z</time>
      </trkpt>
      <trkpt lat="49.03448" lon="3.40675">
        <ele>60.2</ele>
        <time>2020-07-01T09:02:59Z</time>
      </trkpt>
      <trkpt lat="49.03441" lon="3.40678">
        <ele>60.1</ele>
        <time>2020-07-01T09:03:00Z</time>
      </trkpt>
      <trkpt lat="49.03434" lon="3.40681">
        <ele>60.1</ele>
        <time>2020-07-01T09:03:01Z</time>
      </trkpt>
      <trkpt lat="49.03429" lon="3.40684">
        <ele>60.1</ele>
        <time>2020-07-01T09:03:02Z</time>
      </trkpt>
      <trkpt lat="49.03421" lon="3.40687">
        <ele>60.1</ele>
        <time>2020-07-01T09:03:03Z</time>
      </trkpt>
      <trkpt lat="49.03416" lon="3.40689">
        <ele>60</ele>
        <time>2020-07-01T09:03:04Z</time>
      </trkpt>
      <trkpt lat="49.0341" lon="3.40692">
        <ele>60</ele>
        <time>2020-07-01T09:03:05Z</time>
      </trkpt>
      <trkpt lat="49.03403" lon="3.40695">
        <ele>60</ele>
        <time>2020-07-01T09:03:06Z</time>
      </trkpt>
      <trkpt lat="49.03397" lon="3.40698">
        <ele>60</ele>
        <time>2020-07-01T09:03:07Z</time>
      </trkpt>
      <trkpt lat="49.03391" lon="3.40702">
        <ele>59.9</ele>
        <time>2020-07-01T09:03:08Z</time>
      </trkpt>
      <trkpt lat="49.03385" lon="3.40705">
        <ele>59.9</ele>
        <time>2020-07-01T09:03:09Z</time>
      </trkpt>
      <trkpt lat="49.03379" lon="3.40708">
        <ele>59.9</ele>
        <time>2020-07-01T09:03:10Z</time>
      </trkpt>
      <trkpt lat="49.03373" lon="3.4071">
        <ele>59.8</ele>
        <time>2020-07-01T09:03:11Z</time>
      </trkpt>
      <trkpt lat="49.03368" lon="3.40712">
        <ele>59.8</ele>
        <time>2020-07-01T09:03:12Z</time>
      </trkpt>
      <trkpt lat="49.03364" lon="3.40714">
        <ele>59.8</ele>
        <time>2020-07-01T09:03:13Z</time>
      </trkpt>
      <trkpt lat="49.03357" lon="3.40717">
        <ele>59.8</ele>
        <time>2020-07-01T09:03:14Z</time>
      </trkpt>
      <trkpt lat="49.03351" lon="3.40719">
        <ele>59.9</ele>
        <time>2020-07-01T09:03:15Z</time>
      </trkpt>
      <trkpt lat="49.03345" lon="3.40721">
        <ele>59.8</ele>
        <time>2020-07-01T09:03:16Z</time>
      </trkpt>
      <trkpt lat="49.03341" lon="3.40724">
        <ele>59.8</ele>
        <time>2020-07-01T09:03:17Z</time>
      </trkpt>
      <trkpt lat="49.03335" lon="3.40727">
        <ele>59.8</ele>
        <time>2020-07-01T09:03:18Z</time>
      </trkpt>
      <trkpt lat="49.03329" lon="3.40729">
        <ele>59.8</ele>
        <time>2020-07-01T09:03:19Z</time>
      </trkpt>
      <trkpt lat="49.03323" lon="3.40731">
        <ele>59.8</ele>
        <time>2020-07-01T09:03:20Z</time>
      </trkpt>
      <trkpt lat="49.03318" lon="3.40733">
        <ele>59.8</ele>
        <time>2020-07-01T09:03:21Z</time>
      </trkpt>
      <trkpt lat="49.03312" lon="3.40735">
        <ele>59.8</ele>
        <time>2020-07-01T09:03:22Z</time>
      </trkpt>
      <trkpt lat="49.03308" lon="3.40737">
        <ele>59.8</ele>
        <time>2020-07-01T09:03:23Z</time>
      </trkpt>
      <trkpt lat="49.03301" lon="3.4074">
        <ele>59.8</ele>
        <time>2020-07-01T09:03:24Z</time>
      </trkpt>
      <trkpt lat="49.03295" lon="3.40742">
        <ele>59.8</ele>
        <time>2020-07-01T09:03:25Z</time>
      </trkpt>
      <trkpt lat="49.03292" lon="3.40742">
        <ele>59.8</ele>
        <time>2020-07-01T09:03:26Z</time>
      </trkpt>
      <trkpt lat="49.03285" lon="3.40746">
        <ele>59.8</ele>
        <time>2020-07-01T09:03:27Z</time>
      </trkpt>
      <trkpt lat="49.0328" lon="3.40748">
        <ele>59.8</ele>
        <time>2020-07-01T09:03:28Z</time>
      </trkpt>
      <trkpt lat="49.03274" lon="3.4075">
        <ele>59.8</ele>
        <time>2020-07-01T09:03:29Z</time>
      </trkpt>
      <trkpt lat="49.03268" lon="3.40752">
        <ele>59.8</ele>
        <time>2020-07-01T09:03:30Z</time>
      </trkpt>
      <trkpt lat="49.03263" lon="3.40753">
        <ele>59.8</ele>
        <time>2020-07-01T09:03:31Z</time>
      </trkpt>
      <trkpt lat="49.03256" lon="3.40755">
        <ele>59.8</ele>
        <time>2020-07-01T09:03:32Z</time>
      </trkpt>
      <trkpt lat="49.03252" lon="3.40755">
        <ele>59.8</ele>
        <time>2020-07-01T09:03:33Z</time>
      </trkpt>
      <trkpt lat="49.03244" lon="3.40757">
        <ele>59.8</ele>
        <time>2020-07-01T09:03:34Z</time>
      </trkpt>
      <trkpt lat="49.03239" lon="3.40759">
        <ele>59.8</ele>
        <time>2020-07-01T09:03:35Z</time>
      </trkpt>
      <trkpt lat="49.03232" lon="3.40762">
        <ele>59.8</ele>
        <time>2020-07-01T09:03:36Z</time>
      </trkpt>
      <trkpt lat="49.03226" lon="3.40764">
        <ele>59.8</ele>
        <time>2020-07-01T09:03:37Z</time>
      </trkpt>
      <trkpt lat="49.03221" lon="3.40766">
        <ele>59.8</ele>
        <time>2020-07-01T09:03:38Z</time>
      </trkpt>
      <trkpt lat="49.03215" lon="3.40768">
        <ele>59.9</ele>
        <time>2020-07-01T09:03:39Z</time>
      </trkpt>
      <trkpt lat="49.03209" lon="3.4077">
        <ele>59.9</ele>
        <time>2020-07-01T09:03:40Z</time>
      </trkpt>
      <trkpt lat="49.03204" lon="3.40772">
        <ele>59.9</ele>
        <time>2020-07-01T09:03:41Z</time>
      </trkpt>
      <trkpt lat="49.03198" lon="3.40773">
        <ele>59.9</ele>
        <time>2020-07-01T09:03:42Z</time>
      </trkpt>
      <trkpt lat="49.03193" lon="3.40776">
        <ele>59.9</ele>
        <time>2020-07-01T09:03:43Z</time>
      </trkpt>
      <trkpt lat="49.03184" lon="3.40778">
        <ele>59.9</ele>
        <time>2020-07-01T09:03:44Z</time>
      </trkpt>
      <trkpt lat="49.03178" lon="3.40781">
        <ele>59.9</ele>
        <time>2020-07-01T09:03:45Z</time>
      </trkpt>
      <trkpt lat="49.03173" lon="3.40783">
        <ele>59.9</ele>
        <time>2020-07-01T09:03:46Z</time>
      </trkpt>
      <trkpt lat="49.03166" lon="3.40785">
        <ele>59.9</ele>
        <time>2020-07-01T09:03:47Z</time>
      </trkpt>
      <trkpt lat="49.03161" lon="3.40786">
        <ele>59.9</ele>
        <time>2020-07-01T09:03:48Z</time>
      </trkpt>
      <trkpt lat="49.03158" lon="3.40786">
        <ele>59.9</ele>
        <time>2020-07-01T09:03:49Z</time>
      </trkpt>
      <trkpt lat="49.03152" lon="3.4079">
        <ele>59.9</ele>
        <time>2020-07-01T09:03:50Z</time>
      </trkpt>
      <trkpt lat="49.03149" lon="3.40793">
        <ele>59.9</ele>
        <time>2020-07-01T09:03:51Z</time>
      </trkpt>
      <trkpt lat="49.03146" lon="3.40795">
        <ele>60</ele>
        <time>2020-07-01T09:03:52Z</time>
      </trkpt>
      <trkpt lat="49.03142" lon="3.40797">
        <ele>60</ele>
        <time>2020-07-01T09:03:53Z</time>
      </trkpt>
      <trkpt lat="49.03137" lon="3.40799">
        <ele>60</ele>
        <time>2020-07-01T09:03:54Z</time>
      </trkpt>
      <trkpt lat="49.03132" lon="3.40801">
        <ele>60</ele>
        <time>2020-07-01T09:03:55Z</time>
      </trkpt>
      <trkpt lat="49.03128" lon="3.40802">
        <ele>60</ele>
        <time>2020-07-01T09:03:56Z</time>
      </trkpt>
      <trkpt lat="49.03125" lon="3.40803">
        <ele>60.1</ele>
        <time>2020-07-01T09:03:57Z</time>
      </trkpt>
      <trkpt lat="49.03119" lon="3.40806">
        <ele>60.1</ele>
        <time>2020-07-01T09:03:58Z</time>
      </trkpt>
      <trkpt lat="49.03116" lon="3.40807">
        <ele>60.1</ele>
        <time>2020-07-01T09:03:59Z</time>
      </trkpt>
      <trkpt lat="49.03111" lon="3.40809">
        <ele>60.1</ele>
        <time>2020-07-01T09:04:00Z</time>
      </trkpt>
      <trkpt lat="49.03105" lon="3.40811">
        <ele>60.1</ele>
        <time>2020-07-01T09:04:01Z</time>
      </trkpt>
      <trkpt lat="49.03099" lon="3.40814">
        <ele>60.1</ele>
        <time>2020-07-01T09:04:02Z</time>
      </trkpt>
      <trkpt lat="49.03093" lon="3.40817">
        <ele>60.1</ele>
        <time>2020-07-01T09:04:03Z</time>
      </trkpt>
      <trkpt lat="49.03087" lon="3.4082">
        <ele>60.1</ele>
        <time>2020-07-01T09:04:04Z</time>
      </trkpt>
      <trkpt lat="49.03081" lon="3.40823">
        <ele>60.1</ele>
        <time>2020-07-01T09:04:05Z</time>
      </trkpt>
      <trkpt lat="49.03076" lon="3.40825">
        <ele>60.2</ele>
        <time>2020-07-01T09:04:06Z</time>
      </trkpt>
      <trkpt lat="49.03071" lon="3.40828">
        <ele>60.2</ele>
        <time>2020-07-01T09:04:07Z</time>
      </trkpt>
      <trkpt lat="49.03067" lon="3.40828">
        <ele>60.2</ele>
        <time>2020-07-01T09:04:08Z</time>
      </trkpt>
      <trkpt lat="49.03066" lon="3.40829">
        <ele>60.2</ele>
        <time>2020-07-01T09:04:09Z</time>
      </trkpt>
      <trkpt lat="49.03062" lon="3.4083">
        <ele>60.3</ele>
        <time>2020-07-01T09:04:10Z</time>
      </trkpt>
      <trkpt lat="49.03057" lon="3.40832">
        <ele>60.3</ele>
        <time>2020-07-01T09:04:11Z</time>
      </trkpt>
      <trkpt lat="49.03053" lon="3.40833">
        <ele>60.3</ele>
        <time>2020-07-01T09:04:12Z</time>
      </trkpt>
      <trkpt lat="49.03047" lon="3.40835">
        <ele>60.3</ele>
        <time>2020-07-01T09:04:13Z</time>
      </trkpt>
      <trkpt lat="49.03041" lon="3.40837">
        <ele>60.4</ele>
        <time>2020-07-01T09:04:14Z</time>
      </trkpt>
      <trkpt lat="49.03036" lon="3.40839">
        <ele>60.4</ele>
        <time>2020-07-01T09:04:15Z</time>
      </trkpt>
      <trkpt lat="49.03032" lon="3.40841">
        <ele>60.4</ele>
        <time>2020-07-01T09:04:16Z</time>
      </trkpt>
      <trkpt lat="49.03027" lon="3.40843">
        <ele>60.4</ele>
        <time>2020-07-01T09:04:17Z</time>
      </trkpt>
      <trkpt lat="49.03022" lon="3.40844">
        <ele>60.5</ele>
        <time>2020-07-01T09:04:18Z</time>
      </trkpt>
      <trkpt lat="49.03018" lon="3.40846">
        <ele>60.5</ele>
        <time>2020-07-01T09:04:19Z</time>
      </trkpt>
      <trkpt lat="49.03013" lon="3.40848">
        <ele>60.5</ele>
        <time>2020-07-01T09:04:20Z</time>
      </trkpt>
      <trkpt lat="49.03007" lon="3.4085">
        <ele>60.5</ele>
        <time>2020-07-01T09:04:21Z</time>
      </trkpt>
      <trkpt lat="49.03003" lon="3.40851">
        <ele>60.5</ele>
        <time>2020-07-01T09:04:22Z</time>
      </trkpt>
      <trkpt lat="49.02998" lon="3.40853">
        <ele>60.6</ele>
        <time>2020-07-01T09:04:23Z</time>
      </trkpt>
      <trkpt lat="49.02992" lon="3.40856">
        <ele>60.6</ele>
        <time>2020-07-01T09:04:24Z</time>
      </trkpt>
      <trkpt lat="49.02987" lon="3.40858">
        <ele>60.6</ele>
        <time>2020-07-01T09:04:25Z</time>
      </trkpt>
      <trkpt lat="49.02983" lon="3.4086">
        <ele>60.7</ele>
        <time>2020-07-01T09:04:26Z</time>
      </trkpt>
      <trkpt lat="49.02977" lon="3.40862">
        <ele>60.7</ele>
        <time>2020-07-01T09:04:27Z</time>
      </trkpt>
      <trkpt lat="49.02971" lon="3.40866">
        <ele>60.8</ele>
        <time>2020-07-01T09:04:28Z</time>
      </trkpt>
      <trkpt lat="49.02968" lon="3.40867">
        <ele>60.8</ele>
        <time>2020-07-01T09:04:29Z</time>
      </trkpt>
      <trkpt lat="49.02963" lon="3.40868">
        <ele>60.9</ele>
        <time>2020-07-01T09:04:30Z</time>
      </trkpt>
      <trkpt lat="49.02958" lon="3.40872">
        <ele>60.9</ele>
        <time>2020-07-01T09:04:31Z</time>
      </trkpt>
      <trkpt lat="49.02953" lon="3.40874">
        <ele>60.9</ele>
        <time>2020-07-01T09:04:32Z</time>
      </trkpt>
      <trkpt lat="49.02947" lon="3.40875">
        <ele>60.9</ele>
        <time>2020-07-01T09:04:33Z</time>
      </trkpt>
      <trkpt lat="49.02943" lon="3.40876">
        <ele>60.9</ele>
        <time>2020-07-01T09:04:34Z</time>
      </trkpt>
      <trkpt lat="49.02938" lon="3.40877">
        <ele>60.9</ele>
        <time>2020-07-01T09:04:35Z</time>
      </trkpt>
      <trkpt lat="49.02933" lon="3.40878">
        <ele>60.9</ele>
        <time>2020-07-01T09:04:36Z</time>
      </trkpt>
      <trkpt lat="49.02928" lon="3.4088">
        <ele>60.9</ele>
        <time>2020-07-01T09:04:37Z</time>
      </trkpt>
      <trkpt lat="49.02923" lon="3.40881">
        <ele>60.9</ele>
        <time>2020-07-01T09:04:38Z</time>
      </trkpt>
      <trkpt lat="49.02917" lon="3.40883">
        <ele>61</ele>
        <time>2020-07-01T09:04:39Z</time>
      </trkpt>
      <trkpt lat="49.02911" lon="3.40885">
        <ele>61</ele>
        <time>2020-07-01T09:04:40Z</time>
      </trkpt>
      <trkpt lat="49.02906" lon="3.40885">
        <ele>61</ele>
        <time>2020-07-01T09:04:41Z</time>
      </trkpt>
      <trkpt lat="49.029" lon="3.40887">
        <ele>61</ele>
        <time>2020-07-01T09:04:42Z</time>
      </trkpt>
      <trkpt lat="49.02894" lon="3.40889">
        <ele>61</ele>
        <time>2020-07-01T09:04:43Z</time>
      </trkpt>
      <trkpt lat="49.02889" lon="3.4089">
        <ele>61.1</ele>
        <time>2020-07-01T09:04:44Z</time>
      </trkpt>
      <trkpt lat="49.02884" lon="3.40891">
        <ele>61.1</ele>
        <time>2020-07-01T09:04:45Z</time>
      </trkpt>
      <trkpt lat="49.02878" lon="3.40892">
        <ele>61.2</ele>
        <time>2020-07-01T09:04:46Z</time>
      </trkpt>
      <trkpt lat="49.02873" lon="3.40895">
        <ele>61.2</ele>
        <time>2020-07-01T09:04:47Z</time>
      </trkpt>
      <trkpt lat="49.02867" lon="3.40896">
        <ele>61.3</ele>
        <time>2020-07-01T09:04:48Z</time>
      </trkpt>
      <trkpt lat="49.02862" lon="3.40898">
        <ele>61.3</ele>
        <time>2020-07-01T09:04:49Z</time>
      </trkpt>
      <trkpt lat="49.02857" lon="3.40899">
        <ele>61.4</ele>
        <time>2020-07-01T09:04:50Z</time>
      </trkpt>
      <trkpt lat="49.02851" lon="3.409">
        <ele>61.5</ele>
        <time>2020-07-01T09:04:51Z</time>
      </trkpt>
      <trkpt lat="49.02846" lon="3.40901">
        <ele>61.5</ele>
        <time>2020-07-01T09:04:52Z</time>
      </trkpt>
      <trkpt lat="49.02842" lon="3.40902">
        <ele>61.5</ele>
        <time>2020-07-01T09:04:53Z</time>
      </trkpt>
      <trkpt lat="49.02837" lon="3.40903">
        <ele>61.6</ele>
        <time>2020-07-01T09:04:54Z</time>
      </trkpt>
      <trkpt lat="49.02832" lon="3.40905">
        <ele>61.6</ele>
        <time>2020-07-01T09:04:55Z</time>
      </trkpt>
      <trkpt lat="49.02827" lon="3.40906">
        <ele>61.6</ele>
        <time>2020-07-01T09:04:56Z</time>
      </trkpt>
      <trkpt lat="49.02823" lon="3.40907">
        <ele>61.6</ele>
        <time>2020-07-01T09:04:57Z</time>
      </trkpt>
      <trkpt lat="49.02818" lon="3.40907">
        <ele>61.6</ele>
        <time>2020-07-01T09:04:58Z</time>
      </trkpt>
      <trkpt lat="49.02815" lon="3.40909">
        <ele>61.6</ele>
        <time>2020-07-01T09:04:59Z</time>
      </trkpt>
      <trkpt lat="49.0281" lon="3.4091">
        <ele>61.7</ele>
        <time>2020-07-01T09:05:00Z</time>
      </trkpt>
      <trkpt lat="49.02806" lon="3.40912">
        <ele>61.7</ele>
        <time>2020-07-01T09:05:01Z</time>
      </trkpt>
      <trkpt lat="49.02801" lon="3.40914">
        <ele>61.7</ele>
        <time>2020-07-01T09:05:02Z</time>
      </trkpt>
      <trkpt lat="49.02796" lon="3.40915">
        <ele>61.8</ele>
        <time>2020-07-01T09:05:03Z</time>
      </trkpt>
      <trkpt lat="49.02792" lon="3.40917">
        <ele>61.9</ele>
        <time>2020-07-01T09:05:04Z</time>
      </trkpt>
      <trkpt lat="49.02787" lon="3.40918">
        <ele>62</ele>
        <time>2020-07-01T09:05:05Z</time>
      </trkpt>
      <trkpt lat="49.02783" lon="3.40919">
        <ele>62</ele>
        <time>2020-07-01T09:05:06Z</time>
      </trkpt>
      <trkpt lat="49.02778" lon="3.40919">
        <ele>62.1</ele>
        <time>2020-07-01T09:05:07Z</time>
      </trkpt>
      <trkpt lat="49.02773" lon="3.40919">
        <ele>62.2</ele>
        <time>2020-07-01T09:05:08Z</time>
      </trkpt>
      <trkpt lat="49.02769" lon="3.4092">
        <ele>62.3</ele>
        <time>2020-07-01T09:05:09Z</time>
      </trkpt>
      <trkpt lat="49.02766" lon="3.40919">
        <ele>62.4</ele>
        <time>2020-07-01T09:05:10Z</time>
      </trkpt>
      <trkpt lat="49.02762" lon="3.40917">
        <ele>62.5</ele>
        <time>2020-07-01T09:05:11Z</time>
      </trkpt>
      <trkpt lat="49.02759" lon="3.40914">
        <ele>62.5</ele>
        <time>2020-07-01T09:05:12Z</time>
      </trkpt>
      <trkpt lat="49.02756" lon="3.40911">
        <ele>62.7</ele>
        <time>2020-07-01T09:05:13Z</time>
      </trkpt>
      <trkpt lat="49.02753" lon="3.40908">
        <ele>62.7</ele>
        <time>2020-07-01T09:05:14Z</time>
      </trkpt>
      <trkpt lat="49.0275" lon="3.40904">
        <ele>62.8</ele>
        <time>2020-07-01T09:05:15Z</time>
      </trkpt>
      <trkpt lat="49.02747" lon="3.409">
        <ele>62.8</ele>
        <time>2020-07-01T09:05:16Z</time>
      </trkpt>
      <trkpt lat="49.02745" lon="3.40896">
        <ele>62.8</ele>
        <time>2020-07-01T09:05:17Z</time>
      </trkpt>
      <trkpt lat="49.02742" lon="3.40891">
        <ele>62.8</ele>
        <time>2020-07-01T09:05:18Z</time>
      </trkpt>
      <trkpt lat="49.0274" lon="3.40887">
        <ele>62.8</ele>
        <time>2020-07-01T09:05:19Z</time>
      </trkpt>
      <trkpt lat="49.02737" lon="3.40882">
        <ele>62.9</ele>
        <time>2020-07-01T09:05:20Z</time>
      </trkpt>
      <trkpt lat="49.02734" lon="3.40876">
        <ele>62.9</ele>
        <time>2020-07-01T09:05:21Z</time>
      </trkpt>
      <trkpt lat="49.02732" lon="3.40869">
        <ele>62.9</ele>
        <time>2020-07-01T09:05:22Z</time>
      </trkpt>
      <trkpt lat="49.02729" lon="3.40864">
        <ele>62.9</ele>
        <time>2020-07-01T09:05:23Z</time>
      </trkpt>
      <trkpt lat="49.02727" lon="3.40858">
        <ele>62.9</ele>
        <time>2020-07-01T09:05:24Z</time>
      </trkpt>
      <trkpt lat="49.02725" lon="3.40852">
        <ele>63</ele>
        <time>2020-07-01T09:05:25Z</time>
      </trkpt>
      <trkpt lat="49.02723" lon="3.40847">
        <ele>63</ele>
        <time>2020-07-01T09:05:26Z</time>
      </trkpt>
      <trkpt lat="49.0272" lon="3.40841">
        <ele>63</ele>
        <time>2020-07-01T09:05:27Z</time>
      </trkpt>
      <trkpt lat="49.02718" lon="3.40835">
        <ele>63</ele>
        <time>2020-07-01T09:05:28Z</time>
      </trkpt>
      <trkpt lat="49.02715" lon="3.4083">
        <ele>63</ele>
        <time>2020-07-01T09:05:29Z</time>
      </trkpt>
      <trkpt lat="49.02712" lon="3.40824">
        <ele>63</ele>
        <time>2020-07-01T09:05:30Z</time>
      </trkpt>
      <trkpt lat="49.0271" lon="3.40819">
        <ele>63</ele>
        <time>2020-07-01T09:05:31Z</time>
      </trkpt>
      <trkpt lat="49.02707" lon="3.40814">
        <ele>63.1</ele>
        <time>2020-07-01T09:05:32Z</time>
      </trkpt>
      <trkpt lat="49.02705" lon="3.40808">
        <ele>63.1</ele>
        <time>2020-07-01T09:05:33Z</time>
      </trkpt>
      <trkpt lat="49.02702" lon="3.40803">
        <ele>63</ele>
        <time>2020-07-01T09:05:34Z</time>
      </trkpt>
      <trkpt lat="49.02699" lon="3.40797">
        <ele>63</ele>
        <time>2020-07-01T09:05:35Z</time>
      </trkpt>
      <trkpt lat="49.02697" lon="3.4079">
        <ele>63</ele>
        <time>2020-07-01T09:05:36Z</time>
      </trkpt>
      <trkpt lat="49.02694" lon="3.40784">
        <ele>63</ele>
        <time>2020-07-01T09:05:37Z</time>
      </trkpt>
      <trkpt lat="49.02691" lon="3.40778">
        <ele>63</ele>
        <time>2020-07-01T09:05:38Z</time>
      </trkpt>
      <trkpt lat="49.02689" lon="3.40772">
        <ele>63</ele>
        <time>2020-07-01T09:05:39Z</time>
      </trkpt>
      <trkpt lat="49.02686" lon="3.40767">
        <ele>63</ele>
        <time>2020-07-01T09:05:40Z</time>
      </trkpt>
      <trkpt lat="49.02683" lon="3.40761">
        <ele>63</ele>
        <time>2020-07-01T09:05:41Z</time>
      </trkpt>
      <trkpt lat="49.02681" lon="3.40755">
        <ele>63</ele>
        <time>2020-07-01T09:05:42Z</time>
      </trkpt>
      <trkpt lat="49.02678" lon="3.40749">
        <ele>63</ele>
        <time>2020-07-01T09:05:43Z</time>
      </trkpt>
      <trkpt lat="49.02675" lon="3.40743">
        <ele>63</ele>
        <time>2020-07-01T09:05:44Z</time>
      </trkpt>
      <trkpt lat="49.02672" lon="3.40737">
        <ele>63</ele>
        <time>2020-07-01T09:05:45Z</time>
      </trkpt>
      <trkpt lat="49.02669" lon="3.40731">
        <ele>63</ele>
        <time>2020-07-01T09:05:46Z</time>
      </trkpt>
      <trkpt lat="49.02666" lon="3.40726">
        <ele>63</ele>
        <time>2020-07-01T09:05:47Z</time>
      </trkpt>
      <trkpt lat="49.02663" lon="3.40721">
        <ele>63</ele>
        <time>2020-07-01T09:05:48Z</time>
      </trkpt>
      <trkpt lat="49.0266" lon="3.40715">
        <ele>62.9</ele>
        <time>2020-07-01T09:05:49Z</time>
      </trkpt>
      <trkpt lat="49.02657" lon="3.40709">
        <ele>62.9</ele>
        <time>2020-07-01T09:05:50Z</time>
      </trkpt>
      <trkpt lat="49.02654" lon="3.40704">
        <ele>62.9</ele>
        <time>2020-07-01T09:05:51Z</time>
      </trkpt>
      <trkpt lat="49.02652" lon="3.40699">
        <ele>62.9</ele>
        <time>2020-07-01T09:05:52Z</time>
      </trkpt>
      <trkpt lat="49.02649" lon="3.40694">
        <ele>62.9</ele>
        <time>2020-07-01T09:05:53Z</time>
      </trkpt>
      <trkpt lat="49.02647" lon="3.40688">
        <ele>62.9</ele>
        <time>2020-07-01T09:05:54Z</time>
      </trkpt>
      <trkpt lat="49.02644" lon="3.40683">
        <ele>62.9</ele>
        <time>2020-07-01T09:05:55Z</time>
      </trkpt>
      <trkpt lat="49.02641" lon="3.40677">
        <ele>62.9</ele>
        <time>2020-07-01T09:05:56Z</time>
      </trkpt>
      <trkpt lat="49.02638" lon="3.40672">
        <ele>62.9</ele>
        <time>2020-07-01T09:05:57Z</time>
      </trkpt>
      <trkpt lat="49.02635" lon="3.40665">
        <ele>62.9</ele>
        <time>2020-07-01T09:05:58Z</time>
      </trkpt>
      <trkpt lat="49.02633" lon="3.40659">
        <ele>62.9</ele>
        <time>2020-07-01T09:05:59Z</time>
      </trkpt>
      <trkpt lat="49.02629" lon="3.40653">
        <ele>62.9</ele>
        <time>2020-07-01T09:06:00Z</time>
      </trkpt>
      <trkpt lat="49.02626" lon="3.40647">
        <ele>62.9</ele>
        <time>2020-07-01T09:06:01Z</time>
      </trkpt>
      <trkpt lat="49.02623" lon="3.40641">
        <ele>62.9</ele>
        <time>2020-07-01T09:06:02Z</time>
      </trkpt>
      <trkpt lat="49.02621" lon="3.40637">
        <ele>62.9</ele>
        <time>2020-07-01T09:06:03Z</time>
      </trkpt>
      <trkpt lat="49.02618" lon="3.40632">
        <ele>62.9</ele>
        <time>2020-07-01T09:06:04Z</time>
      </trkpt>
      <trkpt lat="49.02616" lon="3.40627">
        <ele>62.8</ele>
        <time>2020-07-01T09:06:05Z</time>
      </trkpt>
      <trkpt lat="49.02614" lon="3.40622">
        <ele>62.8</ele>
        <time>2020-07-01T09:06:06Z</time>
      </trkpt>
      <trkpt lat="49.02611" lon="3.40616">
        <ele>62.8</ele>
        <time>2020-07-01T09:06:07Z</time>
      </trkpt>
      <trkpt lat="49.02608" lon="3.40611">
        <ele>62.8</ele>
        <time>2020-07-01T09:06:08Z</time>
      </trkpt>
      <trkpt lat="49.02606" lon="3.40606">
        <ele>62.7</ele>
        <time>2020-07-01T09:06:09Z</time>
      </trkpt>
      <trkpt lat="49.02603" lon="3.40601">
        <ele>62.7</ele>
        <time>2020-07-01T09:06:10Z</time>
      </trkpt>
      <trkpt lat="49.026" lon="3.40595">
        <ele>62.7</ele>
        <time>2020-07-01T09:06:11Z</time>
      </trkpt>
      <trkpt lat="49.02598" lon="3.4059">
        <ele>62.7</ele>
        <time>2020-07-01T09:06:12Z</time>
      </trkpt>
      <trkpt lat="49.02595" lon="3.40585">
        <ele>62.6</ele>
        <time>2020-07-01T09:06:13Z</time>
      </trkpt>
      <trkpt lat="49.02592" lon="3.4058">
        <ele>62.6</ele>
        <time>2020-07-01T09:06:14Z</time>
      </trkpt>
      <trkpt lat="49.02589" lon="3.40575">
        <ele>62.6</ele>
        <time>2020-07-01T09:06:15Z</time>
      </trkpt>
      <trkpt lat="49.02586" lon="3.4057">
        <ele>62.5</ele>
        <time>2020-07-01T09:06:16Z</time>
      </trkpt>
      <trkpt lat="49.02583" lon="3.40566">
        <ele>62.5</ele>
        <time>2020-07-01T09:06:17Z</time>
      </trkpt>
      <trkpt lat="49.02579" lon="3.40562">
        <ele>62.4</ele>
        <time>2020-07-01T09:06:18Z</time>
      </trkpt>
      <trkpt lat="49.02577" lon="3.40556">
        <ele>62.4</ele>
        <time>2020-07-01T09:06:19Z</time>
      </trkpt>
      <trkpt lat="49.02574" lon="3.40551">
        <ele>62.3</ele>
        <time>2020-07-01T09:06:20Z</time>
      </trkpt>
      <trkpt lat="49.02571" lon="3.40547">
        <ele>62.3</ele>
        <time>2020-07-01T09:06:21Z</time>
      </trkpt>
      <trkpt lat="49.02568" lon="3.40543">
        <ele>62.2</ele>
        <time>2020-07-01T09:06:22Z</time>
      </trkpt>
      <trkpt lat="49.02565" lon="3.40538">
        <ele>62.2</ele>
        <time>2020-07-01T09:06:23Z</time>
      </trkpt>
      <trkpt lat="49.02562" lon="3.40533">
        <ele>62.1</ele>
        <time>2020-07-01T09:06:24Z</time>
      </trkpt>
      <trkpt lat="49.02558" lon="3.40528">
        <ele>62.1</ele>
        <time>2020-07-01T09:06:25Z</time>
      </trkpt>
      <trkpt lat="49.02556" lon="3.40523">
        <ele>62</ele>
        <time>2020-07-01T09:06:26Z</time>
      </trkpt>
      <trkpt lat="49.02552" lon="3.40517">
        <ele>61.9</ele>
        <time>2020-07-01T09:06:27Z</time>
      </trkpt>
      <trkpt lat="49.02549" lon="3.40512">
        <ele>61.9</ele>
        <time>2020-07-01T09:06:28Z</time>
      </trkpt>
      <trkpt lat="49.02546" lon="3.40506">
        <ele>61.8</ele>
        <time>2020-07-01T09:06:29Z</time>
      </trkpt>
      <trkpt lat="49.02544" lon="3.40501">
        <ele>61.8</ele>
        <time>2020-07-01T09:06:30Z</time>
      </trkpt>
      <trkpt lat="49.02541" lon="3.40495">
        <ele>61.7</ele>
        <time>2020-07-01T09:06:31Z</time>
      </trkpt>
      <trkpt lat="49.02538" lon="3.4049">
        <ele>61.7</ele>
        <time>2020-07-01T09:06:32Z</time>
      </trkpt>
      <trkpt lat="49.02534" lon="3.40485">
        <ele>61.6</ele>
        <time>2020-07-01T09:06:33Z</time>
      </trkpt>
      <trkpt lat="49.0253" lon="3.4048">
        <ele>61.6</ele>
        <time>2020-07-01T09:06:34Z</time>
      </trkpt>
      <trkpt lat="49.02527" lon="3.40475">
        <ele>61.5</ele>
        <time>2020-07-01T09:06:35Z</time>
      </trkpt>
      <trkpt lat="49.02524" lon="3.4047">
        <ele>61.5</ele>
        <time>2020-07-01T09:06:36Z</time>
      </trkpt>
      <trkpt lat="49.02521" lon="3.40464">
        <ele>61.4</ele>
        <time>2020-07-01T09:06:37Z</time>
      </trkpt>
      <trkpt lat="49.02518" lon="3.40458">
        <ele>61.4</ele>
        <time>2020-07-01T09:06:38Z</time>
      </trkpt>
      <trkpt lat="49.02515" lon="3.40453">
        <ele>61.3</ele>
        <time>2020-07-01T09:06:39Z</time>
      </trkpt>
      <trkpt lat="49.02512" lon="3.40447">
        <ele>61.2</ele>
        <time>2020-07-01T09:06:40Z</time>
      </trkpt>
      <trkpt lat="49.02508" lon="3.40442">
        <ele>61.2</ele>
        <time>2020-07-01T09:06:41Z</time>
      </trkpt>
      <trkpt lat="49.02505" lon="3.40437">
        <ele>61.1</ele>
        <time>2020-07-01T09:06:42Z</time>
      </trkpt>
      <trkpt lat="49.02502" lon="3.40432">
        <ele>61.1</ele>
        <time>2020-07-01T09:06:43Z</time>
      </trkpt>
      <trkpt lat="49.02499" lon="3.40428">
        <ele>61.1</ele>
        <time>2020-07-01T09:06:44Z</time>
      </trkpt>
      <trkpt lat="49.02496" lon="3.40424">
        <ele>61</ele>
        <time>2020-07-01T09:06:45Z</time>
      </trkpt>
      <trkpt lat="49.02493" lon="3.40419">
        <ele>61</ele>
        <time>2020-07-01T09:06:46Z</time>
      </trkpt>
      <trkpt lat="49.02489" lon="3.40414">
        <ele>61</ele>
        <time>2020-07-01T09:06:47Z</time>
      </trkpt>
      <trkpt lat="49.02486" lon="3.40409">
        <ele>60.9</ele>
        <time>2020-07-01T09:06:48Z</time>
      </trkpt>
      <trkpt lat="49.02483" lon="3.40403">
        <ele>60.9</ele>
        <time>2020-07-01T09:06:49Z</time>
      </trkpt>
      <trkpt lat="49.0248" lon="3.40398">
        <ele>60.9</ele>
        <time>2020-07-01T09:06:50Z</time>
      </trkpt>
      <trkpt lat="49.02478" lon="3.40392">
        <ele>60.8</ele>
        <time>2020-07-01T09:06:51Z</time>
      </trkpt>
      <trkpt lat="49.02475" lon="3.40385">
        <ele>60.8</ele>
        <time>2020-07-01T09:06:52Z</time>
      </trkpt>
      <trkpt lat="49.02472" lon="3.4038">
        <ele>60.8</ele>
        <time>2020-07-01T09:06:53Z</time>
      </trkpt>
      <trkpt lat="49.02469" lon="3.40375">
        <ele>60.7</ele>
        <time>2020-07-01T09:06:54Z</time>
      </trkpt>
      <trkpt lat="49.02466" lon="3.40369">
        <ele>60.7</ele>
        <time>2020-07-01T09:06:55Z</time>
      </trkpt>
      <trkpt lat="49.02462" lon="3.40364">
        <ele>60.6</ele>
        <time>2020-07-01T09:06:56Z</time>
      </trkpt>
      <trkpt lat="49.02459" lon="3.40358">
        <ele>60.6</ele>
        <time>2020-07-01T09:06:57Z</time>
      </trkpt>
      <trkpt lat="49.02455" lon="3.40353">
        <ele>60.5</ele>
        <time>2020-07-01T09:06:58Z</time>
      </trkpt>
      <trkpt lat="49.02451" lon="3.40348">
        <ele>60.5</ele>
        <time>2020-07-01T09:06:59Z</time>
      </trkpt>
      <trkpt lat="49.02448" lon="3.40343">
        <ele>60.4</ele>
        <time>2020-07-01T09:07:00Z</time>
      </trkpt>
      <trkpt lat="49.02445" lon="3.40338">
        <ele>60.4</ele>
        <time>2020-07-01T09:07:01Z</time>
      </trkpt>
      <trkpt lat="49.02441" lon="3.40332">
        <ele>60.4</ele>
        <time>2020-07-01T09:07:02Z</time>
      </trkpt>
      <trkpt lat="49.02438" lon="3.40326">
        <ele>60.3</ele>
        <time>2020-07-01T09:07:03Z</time>
      </trkpt>
      <trkpt lat="49.02434" lon="3.40321">
        <ele>60.3</ele>
        <time>2020-07-01T09:07:04Z</time>
      </trkpt>
      <trkpt lat="49.0243" lon="3.40317">
        <ele>60.3</ele>
        <time>2020-07-01T09:07:05Z</time>
      </trkpt>
      <trkpt lat="49.02427" lon="3.40311">
        <ele>60.2</ele>
        <time>2020-07-01T09:07:06Z</time>
      </trkpt>
      <trkpt lat="49.02423" lon="3.40304">
        <ele>60.2</ele>
        <time>2020-07-01T09:07:07Z</time>
      </trkpt>
      <trkpt lat="49.0242" lon="3.40299">
        <ele>60.2</ele>
        <time>2020-07-01T09:07:08Z</time>
      </trkpt>
      <trkpt lat="49.02416" lon="3.40294">
        <ele>60.2</ele>
        <time>2020-07-01T09:07:09Z</time>
      </trkpt>
      <trkpt lat="49.02413" lon="3.40288">
        <ele>60.1</ele>
        <time>2020-07-01T09:07:10Z</time>
      </trkpt>
      <trkpt lat="49.0241" lon="3.40282">
        <ele>60.1</ele>
        <time>2020-07-01T09:07:11Z</time>
      </trkpt>
      <trkpt lat="49.02407" lon="3.40276">
        <ele>60</ele>
        <time>2020-07-01T09:07:12Z</time>
      </trkpt>
      <trkpt lat="49.02404" lon="3.4027">
        <ele>60</ele>
        <time>2020-07-01T09:07:13Z</time>
      </trkpt>
      <trkpt lat="49.02401" lon="3.40265">
        <ele>59.9</ele>
        <time>2020-07-01T09:07:14Z</time>
      </trkpt>
      <trkpt lat="49.02397" lon="3.40259">
        <ele>59.9</ele>
        <time>2020-07-01T09:07:15Z</time>
      </trkpt>
      <trkpt lat="49.02394" lon="3.40253">
        <ele>59.8</ele>
        <time>2020-07-01T09:07:16Z</time>
      </trkpt>
      <trkpt lat="49.02391" lon="3.40248">
        <ele>59.8</ele>
        <time>2020-07-01T09:07:17Z</time>
      </trkpt>
      <trkpt lat="49.02388" lon="3.40242">
        <ele>59.8</ele>
        <time>2020-07-01T09:07:18Z</time>
      </trkpt>
      <trkpt lat="49.02384" lon="3.40237">
        <ele>59.7</ele>
        <time>2020-07-01T09:07:19Z</time>
      </trkpt>
      <trkpt lat="49.02381" lon="3.40232">
        <ele>59.7</ele>
        <time>2020-07-01T09:07:20Z</time>
      </trkpt>
      <trkpt lat="49.02377" lon="3.40226">
        <ele>59.7</ele>
        <time>2020-07-01T09:07:21Z</time>
      </trkpt>
      <trkpt lat="49.02374" lon="3.40221">
        <ele>59.6</ele>
        <time>2020-07-01T09:07:22Z</time>
      </trkpt>
      <trkpt lat="49.02371" lon="3.40215">
        <ele>59.6</ele>
        <time>2020-07-01T09:07:23Z</time>
      </trkpt>
      <trkpt lat="49.02367" lon="3.4021">
        <ele>59.6</ele>
        <time>2020-07-01T09:07:24Z</time>
      </trkpt>
      <trkpt lat="49.02363" lon="3.40204">
        <ele>59.5</ele>
        <time>2020-07-01T09:07:25Z</time>
      </trkpt>
      <trkpt lat="49.02359" lon="3.40199">
        <ele>59.5</ele>
        <time>2020-07-01T09:07:26Z</time>
      </trkpt>
      <trkpt lat="49.02356" lon="3.40194">
        <ele>59.5</ele>
        <time>2020-07-01T09:07:27Z</time>
      </trkpt>
      <trkpt lat="49.02352" lon="3.40189">
        <ele>59.4</ele>
        <time>2020-07-01T09:07:28Z</time>
      </trkpt>
      <trkpt lat="49.02349" lon="3.40184">
        <ele>59.4</ele>
        <time>2020-07-01T09:07:29Z</time>
      </trkpt>
      <trkpt lat="49.02346" lon="3.40178">
        <ele>59.4</ele>
        <time>2020-07-01T09:07:30Z</time>
      </trkpt>
      <trkpt lat="49.02342" lon="3.40173">
        <ele>59.4</ele>
        <time>2020-07-01T09:07:31Z</time>
      </trkpt>
      <trkpt lat="49.02339" lon="3.40169">
        <ele>59.4</ele>
        <time>2020-07-01T09:07:32Z</time>
      </trkpt>
      <trkpt lat="49.02336" lon="3.40164">
        <ele>59.4</ele>
        <time>2020-07-01T09:07:33Z</time>
      </trkpt>
      <trkpt lat="49.02332" lon="3.40159">
        <ele>59.3</ele>
        <time>2020-07-01T09:07:34Z</time>
      </trkpt>
      <trkpt lat="49.02329" lon="3.40154">
        <ele>59.3</ele>
        <time>2020-07-01T09:07:35Z</time>
      </trkpt>
      <trkpt lat="49.02326" lon="3.40149">
        <ele>59.2</ele>
        <time>2020-07-01T09:07:36Z</time>
      </trkpt>
      <trkpt lat="49.02323" lon="3.40144">
        <ele>59.2</ele>
        <time>2020-07-01T09:07:37Z</time>
      </trkpt>
      <trkpt lat="49.0232" lon="3.40138">
        <ele>59.1</ele>
        <time>2020-07-01T09:07:38Z</time>
      </trkpt>
      <trkpt lat="49.02317" lon="3.40133">
        <ele>59.1</ele>
        <time>2020-07-01T09:07:39Z</time>
      </trkpt>
      <trkpt lat="49.02314" lon="3.40127">
        <ele>59</ele>
        <time>2020-07-01T09:07:40Z</time>
      </trkpt>
      <trkpt lat="49.02311" lon="3.40121">
        <ele>59</ele>
        <time>2020-07-01T09:07:41Z</time>
      </trkpt>
      <trkpt lat="49.02307" lon="3.40116">
        <ele>59</ele>
        <time>2020-07-01T09:07:42Z</time>
      </trkpt>
      <trkpt lat="49.02304" lon="3.40109">
        <ele>59</ele>
        <time>2020-07-01T09:07:43Z</time>
      </trkpt>
      <trkpt lat="49.023" lon="3.40103">
        <ele>59.1</ele>
        <time>2020-07-01T09:07:44Z</time>
      </trkpt>
      <trkpt lat="49.02297" lon="3.40098">
        <ele>59.1</ele>
        <time>2020-07-01T09:07:45Z</time>
      </trkpt>
      <trkpt lat="49.02293" lon="3.40092">
        <ele>59.1</ele>
        <time>2020-07-01T09:07:46Z</time>
      </trkpt>
      <trkpt lat="49.02289" lon="3.40087">
        <ele>59.1</ele>
        <time>2020-07-01T09:07:47Z</time>
      </trkpt>
      <trkpt lat="49.02285" lon="3.40082">
        <ele>59.2</ele>
        <time>2020-07-01T09:07:48Z</time>
      </trkpt>
      <trkpt lat="49.02281" lon="3.40076">
        <ele>59.1</ele>
        <time>2020-07-01T09:07:49Z</time>
      </trkpt>
      <trkpt lat="49.02278" lon="3.4007">
        <ele>59</ele>
        <time>2020-07-01T09:07:50Z</time>
      </trkpt>
      <trkpt lat="49.02274" lon="3.40065">
        <ele>58.9</ele>
        <time>2020-07-01T09:07:51Z</time>
      </trkpt>
      <trkpt lat="49.0227" lon="3.4006">
        <ele>58.9</ele>
        <time>2020-07-01T09:07:52Z</time>
      </trkpt>
      <trkpt lat="49.02267" lon="3.40056">
        <ele>58.8</ele>
        <time>2020-07-01T09:07:53Z</time>
      </trkpt>
      <trkpt lat="49.02263" lon="3.4005">
        <ele>58.8</ele>
        <time>2020-07-01T09:07:54Z</time>
      </trkpt>
      <trkpt lat="49.02259" lon="3.40045">
        <ele>58.7</ele>
        <time>2020-07-01T09:07:55Z</time>
      </trkpt>
      <trkpt lat="49.02255" lon="3.4004">
        <ele>58.7</ele>
        <time>2020-07-01T09:07:56Z</time>
      </trkpt>
      <trkpt lat="49.02251" lon="3.40034">
        <ele>58.6</ele>
        <time>2020-07-01T09:07:57Z</time>
      </trkpt>
      <trkpt lat="49.02247" lon="3.40029">
        <ele>58.6</ele>
        <time>2020-07-01T09:07:58Z</time>
      </trkpt>
      <trkpt lat="49.02243" lon="3.40024">
        <ele>58.5</ele>
        <time>2020-07-01T09:07:59Z</time>
      </trkpt>
      <trkpt lat="49.02239" lon="3.40018">
        <ele>58.5</ele>
        <time>2020-07-01T09:08:00Z</time>
      </trkpt>
      <trkpt lat="49.02235" lon="3.40012">
        <ele>58.4</ele>
        <time>2020-07-01T09:08:01Z</time>
      </trkpt>
      <trkpt lat="49.0223" lon="3.40007">
        <ele>58.4</ele>
        <time>2020-07-01T09:08:02Z</time>
      </trkpt>
      <trkpt lat="49.02226" lon="3.40003">
        <ele>58.4</ele>
        <time>2020-07-01T09:08:03Z</time>
      </trkpt>
      <trkpt lat="49.02222" lon="3.39998">
        <ele>58.3</ele>
        <time>2020-07-01T09:08:04Z</time>
      </trkpt>
      <trkpt lat="49.02218" lon="3.39992">
        <ele>58.3</ele>
        <time>2020-07-01T09:08:05Z</time>
      </trkpt>
      <trkpt lat="49.02214" lon="3.39986">
        <ele>58.3</ele>
        <time>2020-07-01T09:08:06Z</time>
      </trkpt>
      <trkpt lat="49.0221" lon="3.3998">
        <ele>58.2</ele>
        <time>2020-07-01T09:08:07Z</time>
      </trkpt>
      <trkpt lat="49.02206" lon="3.39975">
        <ele>58.2</ele>
        <time>2020-07-01T09:08:08Z</time>
      </trkpt>
      <trkpt lat="49.02202" lon="3.3997">
        <ele>58.2</ele>
        <time>2020-07-01T09:08:09Z</time>
      </trkpt>
      <trkpt lat="49.02198" lon="3.39964">
        <ele>58.2</ele>
        <time>2020-07-01T09:08:10Z</time>
      </trkpt>
      <trkpt lat="49.02194" lon="3.3996">
        <ele>58.2</ele>
        <time>2020-07-01T09:08:11Z</time>
      </trkpt>
      <trkpt lat="49.02189" lon="3.39956">
        <ele>58.1</ele>
        <time>2020-07-01T09:08:12Z</time>
      </trkpt>
      <trkpt lat="49.02186" lon="3.39951">
        <ele>58.1</ele>
        <time>2020-07-01T09:08:13Z</time>
      </trkpt>
      <trkpt lat="49.02182" lon="3.39947">
        <ele>58.1</ele>
        <time>2020-07-01T09:08:14Z</time>
      </trkpt>
      <trkpt lat="49.02177" lon="3.39942">
        <ele>58.1</ele>
        <time>2020-07-01T09:08:15Z</time>
      </trkpt>
      <trkpt lat="49.02173" lon="3.39937">
        <ele>58</ele>
        <time>2020-07-01T09:08:16Z</time>
      </trkpt>
      <trkpt lat="49.02169" lon="3.39932">
        <ele>58</ele>
        <time>2020-07-01T09:08:17Z</time>
      </trkpt>
      <trkpt lat="49.02164" lon="3.39927">
        <ele>58</ele>
        <time>2020-07-01T09:08:18Z</time>
      </trkpt>
      <trkpt lat="49.0216" lon="3.39923">
        <ele>58</ele>
        <time>2020-07-01T09:08:19Z</time>
      </trkpt>
      <trkpt lat="49.02155" lon="3.39918">
        <ele>58</ele>
        <time>2020-07-01T09:08:20Z</time>
      </trkpt>
      <trkpt lat="49.02151" lon="3.39914">
        <ele>57.9</ele>
        <time>2020-07-01T09:08:21Z</time>
      </trkpt>
      <trkpt lat="49.02147" lon="3.39909">
        <ele>57.9</ele>
        <time>2020-07-01T09:08:22Z</time>
      </trkpt>
      <trkpt lat="49.02142" lon="3.39905">
        <ele>57.9</ele>
        <time>2020-07-01T09:08:23Z</time>
      </trkpt>
      <trkpt lat="49.02137" lon="3.39901">
        <ele>57.9</ele>
        <time>2020-07-01T09:08:24Z</time>
      </trkpt>
      <trkpt lat="49.02133" lon="3.39898">
        <ele>58</ele>
        <time>2020-07-01T09:08:25Z</time>
      </trkpt>
      <trkpt lat="49.02129" lon="3.39894">
        <ele>58</ele>
        <time>2020-07-01T09:08:26Z</time>
      </trkpt>
      <trkpt lat="49.02124" lon="3.3989">
        <ele>58</ele>
        <time>2020-07-01T09:08:27Z</time>
      </trkpt>
      <trkpt lat="49.0212" lon="3.39886">
        <ele>58</ele>
        <time>2020-07-01T09:08:28Z</time>
      </trkpt>
      <trkpt lat="49.02116" lon="3.39882">
        <ele>58</ele>
        <time>2020-07-01T09:08:29Z</time>
      </trkpt>
      <trkpt lat="49.02112" lon="3.39877">
        <ele>58</ele>
        <time>2020-07-01T09:08:30Z</time>
      </trkpt>
      <trkpt lat="49.02108" lon="3.39873">
        <ele>58.1</ele>
        <time>2020-07-01T09:08:31Z</time>
      </trkpt>
      <trkpt lat="49.02104" lon="3.3987">
        <ele>58.1</ele>
        <time>2020-07-01T09:08:32Z</time>
      </trkpt>
      <trkpt lat="49.02099" lon="3.39867">
        <ele>58.1</ele>
        <time>2020-07-01T09:08:33Z</time>
      </trkpt>
      <trkpt lat="49.02095" lon="3.39863">
        <ele>58.1</ele>
        <time>2020-07-01T09:08:34Z</time>
      </trkpt>
      <trkpt lat="49.02091" lon="3.39859">
        <ele>58.1</ele>
        <time>2020-07-01T09:08:35Z</time>
      </trkpt>
      <trkpt lat="49.02086" lon="3.39856">
        <ele>58.1</ele>
        <time>2020-07-01T09:08:36Z</time>
      </trkpt>
      <trkpt lat="49.02082" lon="3.39852">
        <ele>58.1</ele>
        <time>2020-07-01T09:08:37Z</time>
      </trkpt>
      <trkpt lat="49.02078" lon="3.39848">
        <ele>58.1</ele>
        <time>2020-07-01T09:08:38Z</time>
      </trkpt>
      <trkpt lat="49.02074" lon="3.39845">
        <ele>58.1</ele>
        <time>2020-07-01T09:08:39Z</time>
      </trkpt>
      <trkpt lat="49.0207" lon="3.39842">
        <ele>58.1</ele>
        <time>2020-07-01T09:08:40Z</time>
      </trkpt>
      <trkpt lat="49.02066" lon="3.39838">
        <ele>58.1</ele>
        <time>2020-07-01T09:08:41Z</time>
      </trkpt>
      <trkpt lat="49.02061" lon="3.39835">
        <ele>58.1</ele>
        <time>2020-07-01T09:08:42Z</time>
      </trkpt>
      <trkpt lat="49.02057" lon="3.39831">
        <ele>58.1</ele>
        <time>2020-07-01T09:08:43Z</time>
      </trkpt>
      <trkpt lat="49.02052" lon="3.39828">
        <ele>58.1</ele>
        <time>2020-07-01T09:08:44Z</time>
      </trkpt>
      <trkpt lat="49.02048" lon="3.39824">
        <ele>58.1</ele>
        <time>2020-07-01T09:08:45Z</time>
      </trkpt>
      <trkpt lat="49.02044" lon="3.39821">
        <ele>58.1</ele>
        <time>2020-07-01T09:08:46Z</time>
      </trkpt>
      <trkpt lat="49.0204" lon="3.39818">
        <ele>58.1</ele>
        <time>2020-07-01T09:08:47Z</time>
      </trkpt>
      <trkpt lat="49.02036" lon="3.39814">
        <ele>58.1</ele>
        <time>2020-07-01T09:08:48Z</time>
      </trkpt>
      <trkpt lat="49.02032" lon="3.39811">
        <ele>58.1</ele>
        <time>2020-07-01T09:08:49Z</time>
      </trkpt>
      <trkpt lat="49.02027" lon="3.39808">
        <ele>58.1</ele>
        <time>2020-07-01T09:08:50Z</time>
      </trkpt>
      <trkpt lat="49.02023" lon="3.39806">
        <ele>58.1</ele>
        <time>2020-07-01T09:08:51Z</time>
      </trkpt>
      <trkpt lat="49.02018" lon="3.39802">
        <ele>58.1</ele>
        <time>2020-07-01T09:08:52Z</time>
      </trkpt>
      <trkpt lat="49.02014" lon="3.398">
        <ele>58.1</ele>
        <time>2020-07-01T09:08:53Z</time>
      </trkpt>
      <trkpt lat="49.0201" lon="3.39796">
        <ele>58.1</ele>
        <time>2020-07-01T09:08:54Z</time>
      </trkpt>
      <trkpt lat="49.02005" lon="3.39794">
        <ele>58</ele>
        <time>2020-07-01T09:08:55Z</time>
      </trkpt>
      <trkpt lat="49.02001" lon="3.3979">
        <ele>58</ele>
        <time>2020-07-01T09:08:56Z</time>
      </trkpt>
      <trkpt lat="49.01996" lon="3.39788">
        <ele>58</ele>
        <time>2020-07-01T09:08:57Z</time>
      </trkpt>
      <trkpt lat="49.01992" lon="3.39784">
        <ele>58</ele>
        <time>2020-07-01T09:08:58Z</time>
      </trkpt>
      <trkpt lat="49.01988" lon="3.39779">
        <ele>58</ele>
        <time>2020-07-01T09:08:59Z</time>
      </trkpt>
      <trkpt lat="49.01983" lon="3.39776">
        <ele>58</ele>
        <time>2020-07-01T09:09:00Z</time>
      </trkpt>
      <trkpt lat="49.01978" lon="3.39772">
        <ele>58</ele>
        <time>2020-07-01T09:09:01Z</time>
      </trkpt>
      <trkpt lat="49.01974" lon="3.39768">
        <ele>58</ele>
        <time>2020-07-01T09:09:02Z</time>
      </trkpt>
      <trkpt lat="49.0197" lon="3.39764">
        <ele>58</ele>
        <time>2020-07-01T09:09:03Z</time>
      </trkpt>
      <trkpt lat="49.01966" lon="3.3976">
        <ele>57.9</ele>
        <time>2020-07-01T09:09:04Z</time>
      </trkpt>
      <trkpt lat="49.01962" lon="3.39757">
        <ele>57.9</ele>
        <time>2020-07-01T09:09:05Z</time>
      </trkpt>
      <trkpt lat="49.01957" lon="3.39753">
        <ele>57.9</ele>
        <time>2020-07-01T09:09:06Z</time>
      </trkpt>
      <trkpt lat="49.01953" lon="3.39748">
        <ele>57.9</ele>
        <time>2020-07-01T09:09:07Z</time>
      </trkpt>
      <trkpt lat="49.01949" lon="3.39744">
        <ele>57.9</ele>
        <time>2020-07-01T09:09:08Z</time>
      </trkpt>
      <trkpt lat="49.01945" lon="3.39741">
        <ele>57.9</ele>
        <time>2020-07-01T09:09:09Z</time>
      </trkpt>
      <trkpt lat="49.01941" lon="3.39738">
        <ele>57.9</ele>
        <time>2020-07-01T09:09:10Z</time>
      </trkpt>
      <trkpt lat="49.01936" lon="3.39734">
        <ele>57.9</ele>
        <time>2020-07-01T09:09:11Z</time>
      </trkpt>
      <trkpt lat="49.01932" lon="3.3973">
        <ele>57.9</ele>
        <time>2020-07-01T09:09:12Z</time>
      </trkpt>
      <trkpt lat="49.01927" lon="3.39727">
        <ele>57.8</ele>
        <time>2020-07-01T09:09:13Z</time>
      </trkpt>
      <trkpt lat="49.01923" lon="3.39723">
        <ele>57.8</ele>
        <time>2020-07-01T09:09:14Z</time>
      </trkpt>
      <trkpt lat="49.01919" lon="3.39719">
        <ele>57.8</ele>
        <time>2020-07-01T09:09:15Z</time>
      </trkpt>
      <trkpt lat="49.01915" lon="3.39715">
        <ele>57.8</ele>
        <time>2020-07-01T09:09:16Z</time>
      </trkpt>
      <trkpt lat="49.01911" lon="3.39712">
        <ele>57.8</ele>
        <time>2020-07-01T09:09:17Z</time>
      </trkpt>
      <trkpt lat="49.01906" lon="3.39708">
        <ele>57.8</ele>
        <time>2020-07-01T09:09:18Z</time>
      </trkpt>
      <trkpt lat="49.01902" lon="3.39703">
        <ele>57.8</ele>
        <time>2020-07-01T09:09:19Z</time>
      </trkpt>
      <trkpt lat="49.01897" lon="3.39699">
        <ele>57.8</ele>
        <time>2020-07-01T09:09:20Z</time>
      </trkpt>
      <trkpt lat="49.01893" lon="3.39695">
        <ele>57.8</ele>
        <time>2020-07-01T09:09:21Z</time>
      </trkpt>
      <trkpt lat="49.01888" lon="3.39693">
        <ele>57.9</ele>
        <time>2020-07-01T09:09:22Z</time>
      </trkpt>
      <trkpt lat="49.01884" lon="3.39688">
        <ele>57.9</ele>
        <time>2020-07-01T09:09:23Z</time>
      </trkpt>
      <trkpt lat="49.01879" lon="3.39684">
        <ele>57.8</ele>
        <time>2020-07-01T09:09:24Z</time>
      </trkpt>
      <trkpt lat="49.01874" lon="3.39681">
        <ele>57.8</ele>
        <time>2020-07-01T09:09:25Z</time>
      </trkpt>
      <trkpt lat="49.0187" lon="3.39677">
        <ele>57.8</ele>
        <time>2020-07-01T09:09:26Z</time>
      </trkpt>
      <trkpt lat="49.01866" lon="3.39674">
        <ele>57.8</ele>
        <time>2020-07-01T09:09:27Z</time>
      </trkpt>
      <trkpt lat="49.01861" lon="3.3967">
        <ele>57.8</ele>
        <time>2020-07-01T09:09:28Z</time>
      </trkpt>
      <trkpt lat="49.01857" lon="3.39666">
        <ele>57.7</ele>
        <time>2020-07-01T09:09:29Z</time>
      </trkpt>
      <trkpt lat="49.01852" lon="3.39661">
        <ele>57.7</ele>
        <time>2020-07-01T09:09:30Z</time>
      </trkpt>
      <trkpt lat="49.01847" lon="3.39657">
        <ele>57.7</ele>
        <time>2020-07-01T09:09:31Z</time>
      </trkpt>
      <trkpt lat="49.01843" lon="3.39654">
        <ele>57.7</ele>
        <time>2020-07-01T09:09:32Z</time>
      </trkpt>
      <trkpt lat="49.01839" lon="3.39651">
        <ele>57.7</ele>
        <time>2020-07-01T09:09:33Z</time>
      </trkpt>
      <trkpt lat="49.01834" lon="3.39649">
        <ele>57.7</ele>
        <time>2020-07-01T09:09:34Z</time>
      </trkpt>
      <trkpt lat="49.01829" lon="3.39647">
        <ele>57.7</ele>
        <time>2020-07-01T09:09:35Z</time>
      </trkpt>
      <trkpt lat="49.01824" lon="3.39644">
        <ele>57.7</ele>
        <time>2020-07-01T09:09:36Z</time>
      </trkpt>
      <trkpt lat="49.01819" lon="3.39641">
        <ele>57.7</ele>
        <time>2020-07-01T09:09:37Z</time>
      </trkpt>
      <trkpt lat="49.01814" lon="3.39639">
        <ele>57.7</ele>
        <time>2020-07-01T09:09:38Z</time>
      </trkpt>
      <trkpt lat="49.0181" lon="3.39636">
        <ele>57.7</ele>
        <time>2020-07-01T09:09:39Z</time>
      </trkpt>
      <trkpt lat="49.01806" lon="3.39632">
        <ele>57.8</ele>
        <time>2020-07-01T09:09:40Z</time>
      </trkpt>
      <trkpt lat="49.01802" lon="3.39629">
        <ele>57.9</ele>
        <time>2020-07-01T09:09:41Z</time>
      </trkpt>
      <trkpt lat="49.01797" lon="3.39625">
        <ele>58</ele>
        <time>2020-07-01T09:09:42Z</time>
      </trkpt>
      <trkpt lat="49.01793" lon="3.39622">
        <ele>58.1</ele>
        <time>2020-07-01T09:09:43Z</time>
      </trkpt>
      <trkpt lat="49.01789" lon="3.39618">
        <ele>58.2</ele>
        <time>2020-07-01T09:09:44Z</time>
      </trkpt>
      <trkpt lat="49.01784" lon="3.39615">
        <ele>58.1</ele>
        <time>2020-07-01T09:09:45Z</time>
      </trkpt>
      <trkpt lat="49.0178" lon="3.39612">
        <ele>58</ele>
        <time>2020-07-01T09:09:46Z</time>
      </trkpt>
      <trkpt lat="49.01775" lon="3.39611">
        <ele>57.9</ele>
        <time>2020-07-01T09:09:47Z</time>
      </trkpt>
      <trkpt lat="49.0177" lon="3.39609">
        <ele>57.8</ele>
        <time>2020-07-01T09:09:48Z</time>
      </trkpt>
      <trkpt lat="49.01765" lon="3.39606">
        <ele>57.7</ele>
        <time>2020-07-01T09:09:49Z</time>
      </trkpt>
      <trkpt lat="49.01761" lon="3.39603">
        <ele>57.7</ele>
        <time>2020-07-01T09:09:50Z</time>
      </trkpt>
      <trkpt lat="49.01757" lon="3.396">
        <ele>57.7</ele>
        <time>2020-07-01T09:09:51Z</time>
      </trkpt>
      <trkpt lat="49.01752" lon="3.39598">
        <ele>57.7</ele>
        <time>2020-07-01T09:09:52Z</time>
      </trkpt>
      <trkpt lat="49.01747" lon="3.39595">
        <ele>57.7</ele>
        <time>2020-07-01T09:09:53Z</time>
      </trkpt>
      <trkpt lat="49.01742" lon="3.39591">
        <ele>57.7</ele>
        <time>2020-07-01T09:09:54Z</time>
      </trkpt>
      <trkpt lat="49.01737" lon="3.39587">
        <ele>57.8</ele>
        <time>2020-07-01T09:09:55Z</time>
      </trkpt>
      <trkpt lat="49.01731" lon="3.39584">
        <ele>57.8</ele>
        <time>2020-07-01T09:09:56Z</time>
      </trkpt>
      <trkpt lat="49.01726" lon="3.39581">
        <ele>57.8</ele>
        <time>2020-07-01T09:09:57Z</time>
      </trkpt>
      <trkpt lat="49.01722" lon="3.39578">
        <ele>57.8</ele>
        <time>2020-07-01T09:09:58Z</time>
      </trkpt>
      <trkpt lat="49.01718" lon="3.39575">
        <ele>57.8</ele>
        <time>2020-07-01T09:09:59Z</time>
      </trkpt>
      <trkpt lat="49.01713" lon="3.39573">
        <ele>57.8</ele>
        <time>2020-07-01T09:10:00Z</time>
      </trkpt>
      <trkpt lat="49.01707" lon="3.3957">
        <ele>57.8</ele>
        <time>2020-07-01T09:10:01Z</time>
      </trkpt>
      <trkpt lat="49.01702" lon="3.39566">
        <ele>57.8</ele>
        <time>2020-07-01T09:10:02Z</time>
      </trkpt>
      <trkpt lat="49.01697" lon="3.39563">
        <ele>57.8</ele>
        <time>2020-07-01T09:10:03Z</time>
      </trkpt>
      <trkpt lat="49.01692" lon="3.39561">
        <ele>57.8</ele>
        <time>2020-07-01T09:10:04Z</time>
      </trkpt>
      <trkpt lat="49.01687" lon="3.39558">
        <ele>57.8</ele>
        <time>2020-07-01T09:10:05Z</time>
      </trkpt>
      <trkpt lat="49.01682" lon="3.39555">
        <ele>57.8</ele>
        <time>2020-07-01T09:10:06Z</time>
      </trkpt>
      <trkpt lat="49.01677" lon="3.39552">
        <ele>57.8</ele>
        <time>2020-07-01T09:10:07Z</time>
      </trkpt>
      <trkpt lat="49.01672" lon="3.39549">
        <ele>57.8</ele>
        <time>2020-07-01T09:10:08Z</time>
      </trkpt>
      <trkpt lat="49.01666" lon="3.39547">
        <ele>57.8</ele>
        <time>2020-07-01T09:10:09Z</time>
      </trkpt>
      <trkpt lat="49.01661" lon="3.39544">
        <ele>57.7</ele>
        <time>2020-07-01T09:10:10Z</time>
      </trkpt>
      <trkpt lat="49.01656" lon="3.39541">
        <ele>57.7</ele>
        <time>2020-07-01T09:10:11Z</time>
      </trkpt>
      <trkpt lat="49.01651" lon="3.39538">
        <ele>57.7</ele>
        <time>2020-07-01T09:10:12Z</time>
      </trkpt>
      <trkpt lat="49.01645" lon="3.39535">
        <ele>57.7</ele>
        <time>2020-07-01T09:10:13Z</time>
      </trkpt>
      <trkpt lat="49.0164" lon="3.39532">
        <ele>57.6</ele>
        <time>2020-07-01T09:10:14Z</time>
      </trkpt>
      <trkpt lat="49.01634" lon="3.39529">
        <ele>57.6</ele>
        <time>2020-07-01T09:10:15Z</time>
      </trkpt>
      <trkpt lat="49.01629" lon="3.39526">
        <ele>57.7</ele>
        <time>2020-07-01T09:10:16Z</time>
      </trkpt>
      <trkpt lat="49.01624" lon="3.39524">
        <ele>57.7</ele>
        <time>2020-07-01T09:10:17Z</time>
      </trkpt>
      <trkpt lat="49.0162" lon="3.39521">
        <ele>57.7</ele>
        <time>2020-07-01T09:10:18Z</time>
      </trkpt>
      <trkpt lat="49.01614" lon="3.39519">
        <ele>57.7</ele>
        <time>2020-07-01T09:10:19Z</time>
      </trkpt>
      <trkpt lat="49.01609" lon="3.39516">
        <ele>57.7</ele>
        <time>2020-07-01T09:10:20Z</time>
      </trkpt>
      <trkpt lat="49.01604" lon="3.39514">
        <ele>57.7</ele>
        <time>2020-07-01T09:10:21Z</time>
      </trkpt>
      <trkpt lat="49.01599" lon="3.39511">
        <ele>57.6</ele>
        <time>2020-07-01T09:10:22Z</time>
      </trkpt>
      <trkpt lat="49.01594" lon="3.39508">
        <ele>57.6</ele>
        <time>2020-07-01T09:10:23Z</time>
      </trkpt>
      <trkpt lat="49.01589" lon="3.39504">
        <ele>57.6</ele>
        <time>2020-07-01T09:10:24Z</time>
      </trkpt>
      <trkpt lat="49.01584" lon="3.39502">
        <ele>57.6</ele>
        <time>2020-07-01T09:10:25Z</time>
      </trkpt>
      <trkpt lat="49.01579" lon="3.39499">
        <ele>57.6</ele>
        <time>2020-07-01T09:10:26Z</time>
      </trkpt>
      <trkpt lat="49.01574" lon="3.39497">
        <ele>57.6</ele>
        <time>2020-07-01T09:10:27Z</time>
      </trkpt>
      <trkpt lat="49.01569" lon="3.39494">
        <ele>57.6</ele>
        <time>2020-07-01T09:10:28Z</time>
      </trkpt>
      <trkpt lat="49.01564" lon="3.39492">
        <ele>57.6</ele>
        <time>2020-07-01T09:10:29Z</time>
      </trkpt>
      <trkpt lat="49.01559" lon="3.3949">
        <ele>57.6</ele>
        <time>2020-07-01T09:10:30Z</time>
      </trkpt>
      <trkpt lat="49.01553" lon="3.39487">
        <ele>57.6</ele>
        <time>2020-07-01T09:10:31Z</time>
      </trkpt>
      <trkpt lat="49.01548" lon="3.39484">
        <ele>57.6</ele>
        <time>2020-07-01T09:10:32Z</time>
      </trkpt>
      <trkpt lat="49.01543" lon="3.39481">
        <ele>57.6</ele>
        <time>2020-07-01T09:10:33Z</time>
      </trkpt>
      <trkpt lat="49.01538" lon="3.39478">
        <ele>57.6</ele>
        <time>2020-07-01T09:10:34Z</time>
      </trkpt>
      <trkpt lat="49.01532" lon="3.39476">
        <ele>57.6</ele>
        <time>2020-07-01T09:10:35Z</time>
      </trkpt>
      <trkpt lat="49.01527" lon="3.39473">
        <ele>57.6</ele>
        <time>2020-07-01T09:10:36Z</time>
      </trkpt>
      <trkpt lat="49.01522" lon="3.39471">
        <ele>57.6</ele>
        <time>2020-07-01T09:10:37Z</time>
      </trkpt>
      <trkpt lat="49.01517" lon="3.39468">
        <ele>57.6</ele>
        <time>2020-07-01T09:10:38Z</time>
      </trkpt>
      <trkpt lat="49.01512" lon="3.39465">
        <ele>57.6</ele>
        <time>2020-07-01T09:10:39Z</time>
      </trkpt>
      <trkpt lat="49.01507" lon="3.39463">
        <ele>57.6</ele>
        <time>2020-07-01T09:10:40Z</time>
      </trkpt>
      <trkpt lat="49.01502" lon="3.3946">
        <ele>57.6</ele>
        <time>2020-07-01T09:10:41Z</time>
      </trkpt>
      <trkpt lat="49.01497" lon="3.39457">
        <ele>57.6</ele>
        <time>2020-07-01T09:10:42Z</time>
      </trkpt>
      <trkpt lat="49.01492" lon="3.39453">
        <ele>57.6</ele>
        <time>2020-07-01T09:10:43Z</time>
      </trkpt>
      <trkpt lat="49.01487" lon="3.39451">
        <ele>57.6</ele>
        <time>2020-07-01T09:10:44Z</time>
      </trkpt>
      <trkpt lat="49.01481" lon="3.39447">
        <ele>57.6</ele>
        <time>2020-07-01T09:10:45Z</time>
      </trkpt>
      <trkpt lat="49.01477" lon="3.39444">
        <ele>57.6</ele>
        <time>2020-07-01T09:10:46Z</time>
      </trkpt>
      <trkpt lat="49.01472" lon="3.39441">
        <ele>57.6</ele>
        <time>2020-07-01T09:10:47Z</time>
      </trkpt>
      <trkpt lat="49.01467" lon="3.39437">
        <ele>57.5</ele>
        <time>2020-07-01T09:10:48Z</time>
      </trkpt>
      <trkpt lat="49.01461" lon="3.39435">
        <ele>57.5</ele>
        <time>2020-07-01T09:10:49Z</time>
      </trkpt>
      <trkpt lat="49.01456" lon="3.39432">
        <ele>57.5</ele>
        <time>2020-07-01T09:10:50Z</time>
      </trkpt>
      <trkpt lat="49.0145" lon="3.39429">
        <ele>57.5</ele>
        <time>2020-07-01T09:10:51Z</time>
      </trkpt>
      <trkpt lat="49.01444" lon="3.39426">
        <ele>57.5</ele>
        <time>2020-07-01T09:10:52Z</time>
      </trkpt>
      <trkpt lat="49.01439" lon="3.39423">
        <ele>57.6</ele>
        <time>2020-07-01T09:10:53Z</time>
      </trkpt>
      <trkpt lat="49.01434" lon="3.39419">
        <ele>57.6</ele>
        <time>2020-07-01T09:10:54Z</time>
      </trkpt>
      <trkpt lat="49.01429" lon="3.39416">
        <ele>57.6</ele>
        <time>2020-07-01T09:10:55Z</time>
      </trkpt>
      <trkpt lat="49.01424" lon="3.39413">
        <ele>57.6</ele>
        <time>2020-07-01T09:10:56Z</time>
      </trkpt>
      <trkpt lat="49.01419" lon="3.3941">
        <ele>57.6</ele>
        <time>2020-07-01T09:10:57Z</time>
      </trkpt>
      <trkpt lat="49.01414" lon="3.39408">
        <ele>57.6</ele>
        <time>2020-07-01T09:10:58Z</time>
      </trkpt>
      <trkpt lat="49.0141" lon="3.39404">
        <ele>57.6</ele>
        <time>2020-07-01T09:10:59Z</time>
      </trkpt>
      <trkpt lat="49.01405" lon="3.39401">
        <ele>57.6</ele>
        <time>2020-07-01T09:11:00Z</time>
      </trkpt>
      <trkpt lat="49.014" lon="3.39398">
        <ele>57.6</ele>
        <time>2020-07-01T09:11:01Z</time>
      </trkpt>
      <trkpt lat="49.01396" lon="3.39396">
        <ele>57.6</ele>
        <time>2020-07-01T09:11:02Z</time>
      </trkpt>
      <trkpt lat="49.01391" lon="3.39393">
        <ele>57.6</ele>
        <time>2020-07-01T09:11:03Z</time>
      </trkpt>
      <trkpt lat="49.01386" lon="3.3939">
        <ele>57.6</ele>
        <time>2020-07-01T09:11:04Z</time>
      </trkpt>
      <trkpt lat="49.01382" lon="3.39387">
        <ele>57.6</ele>
        <time>2020-07-01T09:11:05Z</time>
      </trkpt>
      <trkpt lat="49.01377" lon="3.39384">
        <ele>57.6</ele>
        <time>2020-07-01T09:11:06Z</time>
      </trkpt>
      <trkpt lat="49.01371" lon="3.39381">
        <ele>57.6</ele>
        <time>2020-07-01T09:11:07Z</time>
      </trkpt>
      <trkpt lat="49.01366" lon="3.39378">
        <ele>57.6</ele>
        <time>2020-07-01T09:11:08Z</time>
      </trkpt>
      <trkpt lat="49.01361" lon="3.39376">
        <ele>57.6</ele>
        <time>2020-07-01T09:11:09Z</time>
      </trkpt>
      <trkpt lat="49.01356" lon="3.39374">
        <ele>57.6</ele>
        <time>2020-07-01T09:11:10Z</time>
      </trkpt>
      <trkpt lat="49.0135" lon="3.39372">
        <ele>57.6</ele>
        <time>2020-07-01T09:11:11Z</time>
      </trkpt>
      <trkpt lat="49.01345" lon="3.3937">
        <ele>57.6</ele>
        <time>2020-07-01T09:11:12Z</time>
      </trkpt>
      <trkpt lat="49.0134" lon="3.39368">
        <ele>57.6</ele>
        <time>2020-07-01T09:11:13Z</time>
      </trkpt>
      <trkpt lat="49.01334" lon="3.39366">
        <ele>57.6</ele>
        <time>2020-07-01T09:11:14Z</time>
      </trkpt>
      <trkpt lat="49.01329" lon="3.39364">
        <ele>57.6</ele>
        <time>2020-07-01T09:11:15Z</time>
      </trkpt>
      <trkpt lat="49.01325" lon="3.39363">
        <ele>57.6</ele>
        <time>2020-07-01T09:11:16Z</time>
      </trkpt>
      <trkpt lat="49.0132" lon="3.39361">
        <ele>57.6</ele>
        <time>2020-07-01T09:11:17Z</time>
      </trkpt>
      <trkpt lat="49.01315" lon="3.39358">
        <ele>57.7</ele>
        <time>2020-07-01T09:11:18Z</time>
      </trkpt>
      <trkpt lat="49.01311" lon="3.39356">
        <ele>57.8</ele>
        <time>2020-07-01T09:11:19Z</time>
      </trkpt>
      <trkpt lat="49.01306" lon="3.39355">
        <ele>57.9</ele>
        <time>2020-07-01T09:11:20Z</time>
      </trkpt>
      <trkpt lat="49.01301" lon="3.39353">
        <ele>58</ele>
        <time>2020-07-01T09:11:21Z</time>
      </trkpt>
      <trkpt lat="49.01296" lon="3.39353">
        <ele>58.1</ele>
        <time>2020-07-01T09:11:22Z</time>
      </trkpt>
      <trkpt lat="49.01291" lon="3.39351">
        <ele>58</ele>
        <time>2020-07-01T09:11:23Z</time>
      </trkpt>
      <trkpt lat="49.01286" lon="3.3935">
        <ele>57.9</ele>
        <time>2020-07-01T09:11:24Z</time>
      </trkpt>
      <trkpt lat="49.01281" lon="3.39349">
        <ele>57.8</ele>
        <time>2020-07-01T09:11:25Z</time>
      </trkpt>
      <trkpt lat="49.01275" lon="3.39348">
        <ele>57.7</ele>
        <time>2020-07-01T09:11:26Z</time>
      </trkpt>
      <trkpt lat="49.0127" lon="3.39346">
        <ele>57.7</ele>
        <time>2020-07-01T09:11:27Z</time>
      </trkpt>
      <trkpt lat="49.01266" lon="3.39345">
        <ele>57.7</ele>
        <time>2020-07-01T09:11:28Z</time>
      </trkpt>
      <trkpt lat="49.01261" lon="3.39343">
        <ele>57.7</ele>
        <time>2020-07-01T09:11:29Z</time>
      </trkpt>
      <trkpt lat="49.01257" lon="3.39342">
        <ele>57.7</ele>
        <time>2020-07-01T09:11:30Z</time>
      </trkpt>
      <trkpt lat="49.01251" lon="3.39341">
        <ele>57.7</ele>
        <time>2020-07-01T09:11:31Z</time>
      </trkpt>
      <trkpt lat="49.01246" lon="3.39338">
        <ele>57.7</ele>
        <time>2020-07-01T09:11:32Z</time>
      </trkpt>
      <trkpt lat="49.01241" lon="3.39337">
        <ele>57.7</ele>
        <time>2020-07-01T09:11:33Z</time>
      </trkpt>
      <trkpt lat="49.01236" lon="3.39336">
        <ele>57.7</ele>
        <time>2020-07-01T09:11:34Z</time>
      </trkpt>
      <trkpt lat="49.01231" lon="3.39335">
        <ele>57.7</ele>
        <time>2020-07-01T09:11:35Z</time>
      </trkpt>
      <trkpt lat="49.01227" lon="3.39334">
        <ele>57.7</ele>
        <time>2020-07-01T09:11:36Z</time>
      </trkpt>
      <trkpt lat="49.01222" lon="3.39334">
        <ele>57.7</ele>
        <time>2020-07-01T09:11:37Z</time>
      </trkpt>
      <trkpt lat="49.01216" lon="3.39334">
        <ele>57.7</ele>
        <time>2020-07-01T09:11:38Z</time>
      </trkpt>
      <trkpt lat="49.01211" lon="3.39333">
        <ele>57.8</ele>
        <time>2020-07-01T09:11:39Z</time>
      </trkpt>
      <trkpt lat="49.01205" lon="3.39332">
        <ele>57.8</ele>
        <time>2020-07-01T09:11:40Z</time>
      </trkpt>
      <trkpt lat="49.012" lon="3.39332">
        <ele>57.8</ele>
        <time>2020-07-01T09:11:41Z</time>
      </trkpt>
      <trkpt lat="49.01195" lon="3.39331">
        <ele>57.8</ele>
        <time>2020-07-01T09:11:42Z</time>
      </trkpt>
      <trkpt lat="49.01189" lon="3.39329">
        <ele>57.8</ele>
        <time>2020-07-01T09:11:43Z</time>
      </trkpt>
      <trkpt lat="49.01183" lon="3.39329">
        <ele>57.8</ele>
        <time>2020-07-01T09:11:44Z</time>
      </trkpt>
      <trkpt lat="49.01177" lon="3.39328">
        <ele>57.8</ele>
        <time>2020-07-01T09:11:45Z</time>
      </trkpt>
      <trkpt lat="49.01172" lon="3.39328">
        <ele>57.9</ele>
        <time>2020-07-01T09:11:46Z</time>
      </trkpt>
      <trkpt lat="49.01166" lon="3.39327">
        <ele>57.9</ele>
        <time>2020-07-01T09:11:47Z</time>
      </trkpt>
      <trkpt lat="49.01161" lon="3.39327">
        <ele>57.9</ele>
        <time>2020-07-01T09:11:48Z</time>
      </trkpt>
      <trkpt lat="49.01156" lon="3.39327">
        <ele>57.9</ele>
        <time>2020-07-01T09:11:49Z</time>
      </trkpt>
      <trkpt lat="49.01151" lon="3.39327">
        <ele>58</ele>
        <time>2020-07-01T09:11:50Z</time>
      </trkpt>
      <trkpt lat="49.01146" lon="3.39327">
        <ele>58</ele>
        <time>2020-07-01T09:11:51Z</time>
      </trkpt>
      <trkpt lat="49.01142" lon="3.39326">
        <ele>58.1</ele>
        <time>2020-07-01T09:11:52Z</time>
      </trkpt>
      <trkpt lat="49.01137" lon="3.39326">
        <ele>58.1</ele>
        <time>2020-07-01T09:11:53Z</time>
      </trkpt>
      <trkpt lat="49.01133" lon="3.39325">
        <ele>58.2</ele>
        <time>2020-07-01T09:11:54Z</time>
      </trkpt>
      <trkpt lat="49.01128" lon="3.39326">
        <ele>58.2</ele>
        <time>2020-07-01T09:11:55Z</time>
      </trkpt>
      <trkpt lat="49.01124" lon="3.39325">
        <ele>58.2</ele>
        <time>2020-07-01T09:11:56Z</time>
      </trkpt>
      <trkpt lat="49.01119" lon="3.39325">
        <ele>58.3</ele>
        <time>2020-07-01T09:11:57Z</time>
      </trkpt>
      <trkpt lat="49.01114" lon="3.39324">
        <ele>58.3</ele>
        <time>2020-07-01T09:11:58Z</time>
      </trkpt>
      <trkpt lat="49.01111" lon="3.39325">
        <ele>58.3</ele>
        <time>2020-07-01T09:11:59Z</time>
      </trkpt>
      <trkpt lat="49.01106" lon="3.39325">
        <ele>58.3</ele>
        <time>2020-07-01T09:12:00Z</time>
      </trkpt>
      <trkpt lat="49.01102" lon="3.39325">
        <ele>58.3</ele>
        <time>2020-07-01T09:12:01Z</time>
      </trkpt>
      <trkpt lat="49.01097" lon="3.39326">
        <ele>58.3</ele>
        <time>2020-07-01T09:12:02Z</time>
      </trkpt>
      <trkpt lat="49.01093" lon="3.39326">
        <ele>58.3</ele>
        <time>2020-07-01T09:12:03Z</time>
      </trkpt>
      <trkpt lat="49.01088" lon="3.39327">
        <ele>58.3</ele>
        <time>2020-07-01T09:12:04Z</time>
      </trkpt>
      <trkpt lat="49.01083" lon="3.39328">
        <ele>58.3</ele>
        <time>2020-07-01T09:12:05Z</time>
      </trkpt>
      <trkpt lat="49.01079" lon="3.3933">
        <ele>58.3</ele>
        <time>2020-07-01T09:12:06Z</time>
      </trkpt>
      <trkpt lat="49.01074" lon="3.39331">
        <ele>58.3</ele>
        <time>2020-07-01T09:12:07Z</time>
      </trkpt>
      <trkpt lat="49.01069" lon="3.39332">
        <ele>58.3</ele>
        <time>2020-07-01T09:12:08Z</time>
      </trkpt>
      <trkpt lat="49.01064" lon="3.39332">
        <ele>58.3</ele>
        <time>2020-07-01T09:12:09Z</time>
      </trkpt>
      <trkpt lat="49.0106" lon="3.39333">
        <ele>58.3</ele>
        <time>2020-07-01T09:12:10Z</time>
      </trkpt>
      <trkpt lat="49.01055" lon="3.39334">
        <ele>58.3</ele>
        <time>2020-07-01T09:12:11Z</time>
      </trkpt>
      <trkpt lat="49.0105" lon="3.39334">
        <ele>58.4</ele>
        <time>2020-07-01T09:12:12Z</time>
      </trkpt>
      <trkpt lat="49.01045" lon="3.39335">
        <ele>58.4</ele>
        <time>2020-07-01T09:12:13Z</time>
      </trkpt>
      <trkpt lat="49.0104" lon="3.39336">
        <ele>58.5</ele>
        <time>2020-07-01T09:12:14Z</time>
      </trkpt>
      <trkpt lat="49.01035" lon="3.39337">
        <ele>58.5</ele>
        <time>2020-07-01T09:12:15Z</time>
      </trkpt>
      <trkpt lat="49.0103" lon="3.39337">
        <ele>58.6</ele>
        <time>2020-07-01T09:12:16Z</time>
      </trkpt>
      <trkpt lat="49.01025" lon="3.39339">
        <ele>58.7</ele>
        <time>2020-07-01T09:12:17Z</time>
      </trkpt>
      <trkpt lat="49.01021" lon="3.3934">
        <ele>58.7</ele>
        <time>2020-07-01T09:12:18Z</time>
      </trkpt>
      <trkpt lat="49.01016" lon="3.39342">
        <ele>58.8</ele>
        <time>2020-07-01T09:12:19Z</time>
      </trkpt>
      <trkpt lat="49.01012" lon="3.39344">
        <ele>58.8</ele>
        <time>2020-07-01T09:12:20Z</time>
      </trkpt>
      <trkpt lat="49.01007" lon="3.39344">
        <ele>58.9</ele>
        <time>2020-07-01T09:12:21Z</time>
      </trkpt>
      <trkpt lat="49.01003" lon="3.39344">
        <ele>59</ele>
        <time>2020-07-01T09:12:22Z</time>
      </trkpt>
      <trkpt lat="49.00999" lon="3.39345">
        <ele>59</ele>
        <time>2020-07-01T09:12:23Z</time>
      </trkpt>
      <trkpt lat="49.00995" lon="3.39347">
        <ele>59.1</ele>
        <time>2020-07-01T09:12:24Z</time>
      </trkpt>
      <trkpt lat="49.0099" lon="3.39348">
        <ele>59.2</ele>
        <time>2020-07-01T09:12:25Z</time>
      </trkpt>
      <trkpt lat="49.00986" lon="3.39349">
        <ele>59.2</ele>
        <time>2020-07-01T09:12:26Z</time>
      </trkpt>
      <trkpt lat="49.00982" lon="3.3935">
        <ele>59.3</ele>
        <time>2020-07-01T09:12:27Z</time>
      </trkpt>
      <trkpt lat="49.00977" lon="3.3935">
        <ele>59.4</ele>
        <time>2020-07-01T09:12:28Z</time>
      </trkpt>
      <trkpt lat="49.00972" lon="3.39351">
        <ele>59.5</ele>
        <time>2020-07-01T09:12:29Z</time>
      </trkpt>
      <trkpt lat="49.00967" lon="3.39352">
        <ele>59.5</ele>
        <time>2020-07-01T09:12:30Z</time>
      </trkpt>
      <trkpt lat="49.00963" lon="3.39353">
        <ele>59.6</ele>
        <time>2020-07-01T09:12:31Z</time>
      </trkpt>
      <trkpt lat="49.00959" lon="3.39354">
        <ele>59.7</ele>
        <time>2020-07-01T09:12:32Z</time>
      </trkpt>
      <trkpt lat="49.00954" lon="3.39355">
        <ele>59.8</ele>
        <time>2020-07-01T09:12:33Z</time>
      </trkpt>
      <trkpt lat="49.0095" lon="3.39357">
        <ele>59.8</ele>
        <time>2020-07-01T09:12:34Z</time>
      </trkpt>
      <trkpt lat="49.00945" lon="3.39358">
        <ele>59.9</ele>
        <time>2020-07-01T09:12:35Z</time>
      </trkpt>
      <trkpt lat="49.00941" lon="3.39359">
        <ele>60</ele>
        <time>2020-07-01T09:12:36Z</time>
      </trkpt>
      <trkpt lat="49.00937" lon="3.3936">
        <ele>60.1</ele>
        <time>2020-07-01T09:12:37Z</time>
      </trkpt>
      <trkpt lat="49.00933" lon="3.39361">
        <ele>60.2</ele>
        <time>2020-07-01T09:12:38Z</time>
      </trkpt>
      <trkpt lat="49.00929" lon="3.39362">
        <ele>60.3</ele>
        <time>2020-07-01T09:12:39Z</time>
      </trkpt>
      <trkpt lat="49.00925" lon="3.39364">
        <ele>60.4</ele>
        <time>2020-07-01T09:12:40Z</time>
      </trkpt>
      <trkpt lat="49.00921" lon="3.39363">
        <ele>60.6</ele>
        <time>2020-07-01T09:12:41Z</time>
      </trkpt>
      <trkpt lat="49.00917" lon="3.39365">
        <ele>60.7</ele>
        <time>2020-07-01T09:12:42Z</time>
      </trkpt>
      <trkpt lat="49.00913" lon="3.39366">
        <ele>60.8</ele>
        <time>2020-07-01T09:12:43Z</time>
      </trkpt>
      <trkpt lat="49.00909" lon="3.39367">
        <ele>60.9</ele>
        <time>2020-07-01T09:12:44Z</time>
      </trkpt>
      <trkpt lat="49.00906" lon="3.39368">
        <ele>61</ele>
        <time>2020-07-01T09:12:45Z</time>
      </trkpt>
      <trkpt lat="49.00902" lon="3.39368">
        <ele>61</ele>
        <time>2020-07-01T09:12:46Z</time>
      </trkpt>
      <trkpt lat="49.00899" lon="3.39369">
        <ele>61.1</ele>
        <time>2020-07-01T09:12:47Z</time>
      </trkpt>
      <trkpt lat="49.00896" lon="3.3937">
        <ele>61.2</ele>
        <time>2020-07-01T09:12:48Z</time>
      </trkpt>
      <trkpt lat="49.00892" lon="3.39373">
        <ele>61.4</ele>
        <time>2020-07-01T09:12:49Z</time>
      </trkpt>
      <trkpt lat="49.00888" lon="3.39374">
        <ele>61.5</ele>
        <time>2020-07-01T09:12:50Z</time>
      </trkpt>
      <trkpt lat="49.00885" lon="3.39376">
        <ele>61.6</ele>
        <time>2020-07-01T09:12:51Z</time>
      </trkpt>
      <trkpt lat="49.00881" lon="3.39376">
        <ele>61.8</ele>
        <time>2020-07-01T09:12:52Z</time>
      </trkpt>
      <trkpt lat="49.00877" lon="3.39375">
        <ele>61.9</ele>
        <time>2020-07-01T09:12:53Z</time>
      </trkpt>
      <trkpt lat="49.00873" lon="3.39376">
        <ele>62</ele>
        <time>2020-07-01T09:12:54Z</time>
      </trkpt>
      <trkpt lat="49.00869" lon="3.39377">
        <ele>62.2</ele>
        <time>2020-07-01T09:12:55Z</time>
      </trkpt>
      <trkpt lat="49.00865" lon="3.39378">
        <ele>62.3</ele>
        <time>2020-07-01T09:12:56Z</time>
      </trkpt>
      <trkpt lat="49.00861" lon="3.39379">
        <ele>62.4</ele>
        <time>2020-07-01T09:12:57Z</time>
      </trkpt>
      <trkpt lat="49.00857" lon="3.39379">
        <ele>62.6</ele>
        <time>2020-07-01T09:12:58Z</time>
      </trkpt>
      <trkpt lat="49.00853" lon="3.3938">
        <ele>62.8</ele>
        <time>2020-07-01T09:12:59Z</time>
      </trkpt>
      <trkpt lat="49.00849" lon="3.39381">
        <ele>62.9</ele>
        <time>2020-07-01T09:13:00Z</time>
      </trkpt>
      <trkpt lat="49.00845" lon="3.39381">
        <ele>63.1</ele>
        <time>2020-07-01T09:13:01Z</time>
      </trkpt>
      <trkpt lat="49.00841" lon="3.39382">
        <ele>63.2</ele>
        <time>2020-07-01T09:13:02Z</time>
      </trkpt>
      <trkpt lat="49.00837" lon="3.39383">
        <ele>63.3</ele>
        <time>2020-07-01T09:13:03Z</time>
      </trkpt>
      <trkpt lat="49.00833" lon="3.39384">
        <ele>63.5</ele>
        <time>2020-07-01T09:13:04Z</time>
      </trkpt>
      <trkpt lat="49.00829" lon="3.39385">
        <ele>63.6</ele>
        <time>2020-07-01T09:13:05Z</time>
      </trkpt>
      <trkpt lat="49.00825" lon="3.39387">
        <ele>63.8</ele>
        <time>2020-07-01T09:13:06Z</time>
      </trkpt>
      <trkpt lat="49.00821" lon="3.39388">
        <ele>63.9</ele>
        <time>2020-07-01T09:13:07Z</time>
      </trkpt>
      <trkpt lat="49.00818" lon="3.39388">
        <ele>64</ele>
        <time>2020-07-01T09:13:08Z</time>
      </trkpt>
      <trkpt lat="49.00814" lon="3.39388">
        <ele>64.2</ele>
        <time>2020-07-01T09:13:09Z</time>
      </trkpt>
      <trkpt lat="49.00811" lon="3.39388">
        <ele>64.3</ele>
        <time>2020-07-01T09:13:10Z</time>
      </trkpt>
      <trkpt lat="49.00807" lon="3.39389">
        <ele>64.4</ele>
        <time>2020-07-01T09:13:11Z</time>
      </trkpt>
      <trkpt lat="49.00803" lon="3.3939">
        <ele>64.6</ele>
        <time>2020-07-01T09:13:12Z</time>
      </trkpt>
      <trkpt lat="49.008" lon="3.3939">
        <ele>64.7</ele>
        <time>2020-07-01T09:13:13Z</time>
      </trkpt>
      <trkpt lat="49.00796" lon="3.3939">
        <ele>64.9</ele>
        <time>2020-07-01T09:13:14Z</time>
      </trkpt>
      <trkpt lat="49.00792" lon="3.3939">
        <ele>65</ele>
        <time>2020-07-01T09:13:15Z</time>
      </trkpt>
      <trkpt lat="49.00789" lon="3.39391">
        <ele>65.2</ele>
        <time>2020-07-01T09:13:16Z</time>
      </trkpt>
      <trkpt lat="49.00785" lon="3.39392">
        <ele>65.3</ele>
        <time>2020-07-01T09:13:17Z</time>
      </trkpt>
      <trkpt lat="49.00782" lon="3.39393">
        <ele>65.5</ele>
        <time>2020-07-01T09:13:18Z</time>
      </trkpt>
      <trkpt lat="49.00778" lon="3.39394">
        <ele>65.6</ele>
        <time>2020-07-01T09:13:19Z</time>
      </trkpt>
      <trkpt lat="49.00775" lon="3.39395">
        <ele>65.7</ele>
        <time>2020-07-01T09:13:20Z</time>
      </trkpt>
      <trkpt lat="49.00772" lon="3.39396">
        <ele>65.9</ele>
        <time>2020-07-01T09:13:21Z</time>
      </trkpt>
      <trkpt lat="49.00769" lon="3.39398">
        <ele>66</ele>
        <time>2020-07-01T09:13:22Z</time>
      </trkpt>
      <trkpt lat="49.00766" lon="3.39399">
        <ele>66.1</ele>
        <time>2020-07-01T09:13:23Z</time>
      </trkpt>
      <trkpt lat="49.00762" lon="3.394">
        <ele>66.3</ele>
        <time>2020-07-01T09:13:24Z</time>
      </trkpt>
      <trkpt lat="49.00759" lon="3.39401">
        <ele>66.4</ele>
        <time>2020-07-01T09:13:25Z</time>
      </trkpt>
      <trkpt lat="49.00755" lon="3.39402">
        <ele>66.5</ele>
        <time>2020-07-01T09:13:26Z</time>
      </trkpt>
      <trkpt lat="49.00751" lon="3.39404">
        <ele>66.7</ele>
        <time>2020-07-01T09:13:27Z</time>
      </trkpt>
      <trkpt lat="49.00748" lon="3.39404">
        <ele>66.8</ele>
        <time>2020-07-01T09:13:28Z</time>
      </trkpt>
      <trkpt lat="49.00744" lon="3.39405">
        <ele>66.9</ele>
        <time>2020-07-01T09:13:29Z</time>
      </trkpt>
      <trkpt lat="49.00741" lon="3.39406">
        <ele>67.1</ele>
        <time>2020-07-01T09:13:30Z</time>
      </trkpt>
      <trkpt lat="49.00737" lon="3.39407">
        <ele>67.2</ele>
        <time>2020-07-01T09:13:31Z</time>
      </trkpt>
      <trkpt lat="49.00734" lon="3.39408">
        <ele>67.3</ele>
        <time>2020-07-01T09:13:32Z</time>
      </trkpt>
      <trkpt lat="49.0073" lon="3.39409">
        <ele>67.5</ele>
        <time>2020-07-01T09:13:33Z</time>
      </trkpt>
      <trkpt lat="49.00726" lon="3.3941">
        <ele>67.6</ele>
        <time>2020-07-01T09:13:34Z</time>
      </trkpt>
      <trkpt lat="49.00723" lon="3.39411">
        <ele>67.7</ele>
        <time>2020-07-01T09:13:35Z</time>
      </trkpt>
      <trkpt lat="49.0072" lon="3.39412">
        <ele>67.8</ele>
        <time>2020-07-01T09:13:36Z</time>
      </trkpt>
      <trkpt lat="49.00716" lon="3.39413">
        <ele>68</ele>
        <time>2020-07-01T09:13:37Z</time>
      </trkpt>
      <trkpt lat="49.00713" lon="3.39415">
        <ele>68.1</ele>
        <time>2020-07-01T09:13:38Z</time>
      </trkpt>
      <trkpt lat="49.00709" lon="3.39415">
        <ele>68.2</ele>
        <time>2020-07-01T09:13:39Z</time>
      </trkpt>
      <trkpt lat="49.00705" lon="3.39414">
        <ele>68.4</ele>
        <time>2020-07-01T09:13:40Z</time>
      </trkpt>
      <trkpt lat="49.00702" lon="3.39414">
        <ele>68.5</ele>
        <time>2020-07-01T09:13:41Z</time>
      </trkpt>
      <trkpt lat="49.00698" lon="3.39415">
        <ele>68.6</ele>
        <time>2020-07-01T09:13:42Z</time>
      </trkpt>
      <trkpt lat="49.00695" lon="3.39415">
        <ele>68.8</ele>
        <time>2020-07-01T09:13:43Z</time>
      </trkpt>
      <trkpt lat="49.00691" lon="3.39415">
        <ele>68.9</ele>
        <time>2020-07-01T09:13:44Z</time>
      </trkpt>
      <trkpt lat="49.00689" lon="3.39415">
        <ele>69</ele>
        <time>2020-07-01T09:13:45Z</time>
      </trkpt>
      <trkpt lat="49.00685" lon="3.39415">
        <ele>69.1</ele>
        <time>2020-07-01T09:13:46Z</time>
      </trkpt>
      <trkpt lat="49.00682" lon="3.39415">
        <ele>69.3</ele>
        <time>2020-07-01T09:13:47Z</time>
      </trkpt>
      <trkpt lat="49.00679" lon="3.39414">
        <ele>69.4</ele>
        <time>2020-07-01T09:13:48Z</time>
      </trkpt>
      <trkpt lat="49.00676" lon="3.39414">
        <ele>69.5</ele>
        <time>2020-07-01T09:13:49Z</time>
      </trkpt>
      <trkpt lat="49.00672" lon="3.39414">
        <ele>69.7</ele>
        <time>2020-07-01T09:13:50Z</time>
      </trkpt>
      <trkpt lat="49.00669" lon="3.39413">
        <ele>69.8</ele>
        <time>2020-07-01T09:13:51Z</time>
      </trkpt>
      <trkpt lat="49.00665" lon="3.39412">
        <ele>70</ele>
        <time>2020-07-01T09:13:52Z</time>
      </trkpt>
      <trkpt lat="49.00662" lon="3.39412">
        <ele>70.1</ele>
        <time>2020-07-01T09:13:53Z</time>
      </trkpt>
      <trkpt lat="49.00658" lon="3.39413">
        <ele>70.2</ele>
        <time>2020-07-01T09:13:54Z</time>
      </trkpt>
      <trkpt lat="49.00655" lon="3.39413">
        <ele>70.3</ele>
        <time>2020-07-01T09:13:55Z</time>
      </trkpt>
      <trkpt lat="49.00652" lon="3.39412">
        <ele>70.3</ele>
        <time>2020-07-01T09:13:56Z</time>
      </trkpt>
      <trkpt lat="49.00648" lon="3.3941">
        <ele>70.3</ele>
        <time>2020-07-01T09:13:57Z</time>
      </trkpt>
      <trkpt lat="49.00645" lon="3.39408">
        <ele>70.3</ele>
        <time>2020-07-01T09:13:58Z</time>
      </trkpt>
      <trkpt lat="49.00641" lon="3.39408">
        <ele>70.4</ele>
        <time>2020-07-01T09:13:59Z</time>
      </trkpt>
      <trkpt lat="49.00637" lon="3.39408">
        <ele>70.4</ele>
        <time>2020-07-01T09:14:00Z</time>
      </trkpt>
      <trkpt lat="49.00634" lon="3.39407">
        <ele>70.5</ele>
        <time>2020-07-01T09:14:01Z</time>
      </trkpt>
      <trkpt lat="49.0063" lon="3.39406">
        <ele>70.6</ele>
        <time>2020-07-01T09:14:02Z</time>
      </trkpt>
      <trkpt lat="49.00628" lon="3.39405">
        <ele>70.7</ele>
        <time>2020-07-01T09:14:03Z</time>
      </trkpt>
      <trkpt lat="49.00624" lon="3.39403">
        <ele>70.8</ele>
        <time>2020-07-01T09:14:04Z</time>
      </trkpt>
      <trkpt lat="49.00621" lon="3.39402">
        <ele>70.8</ele>
        <time>2020-07-01T09:14:05Z</time>
      </trkpt>
      <trkpt lat="49.00617" lon="3.39401">
        <ele>70.9</ele>
        <time>2020-07-01T09:14:06Z</time>
      </trkpt>
      <trkpt lat="49.00614" lon="3.39399">
        <ele>71</ele>
        <time>2020-07-01T09:14:07Z</time>
      </trkpt>
      <trkpt lat="49.00611" lon="3.39397">
        <ele>71.1</ele>
        <time>2020-07-01T09:14:08Z</time>
      </trkpt>
      <trkpt lat="49.00608" lon="3.39396">
        <ele>71.2</ele>
        <time>2020-07-01T09:14:09Z</time>
      </trkpt>
      <trkpt lat="49.00604" lon="3.39394">
        <ele>71.3</ele>
        <time>2020-07-01T09:14:10Z</time>
      </trkpt>
      <trkpt lat="49.00601" lon="3.39392">
        <ele>71.4</ele>
        <time>2020-07-01T09:14:11Z</time>
      </trkpt>
      <trkpt lat="49.00597" lon="3.3939">
        <ele>71.5</ele>
        <time>2020-07-01T09:14:12Z</time>
      </trkpt>
      <trkpt lat="49.00594" lon="3.39387">
        <ele>71.6</ele>
        <time>2020-07-01T09:14:13Z</time>
      </trkpt>
      <trkpt lat="49.00591" lon="3.39384">
        <ele>71.7</ele>
        <time>2020-07-01T09:14:14Z</time>
      </trkpt>
      <trkpt lat="49.00588" lon="3.39381">
        <ele>71.8</ele>
        <time>2020-07-01T09:14:15Z</time>
      </trkpt>
      <trkpt lat="49.00585" lon="3.39379">
        <ele>71.9</ele>
        <time>2020-07-01T09:14:16Z</time>
      </trkpt>
      <trkpt lat="49.00582" lon="3.39376">
        <ele>71.9</ele>
        <time>2020-07-01T09:14:17Z</time>
      </trkpt>
      <trkpt lat="49.00578" lon="3.39374">
        <ele>72.1</ele>
        <time>2020-07-01T09:14:18Z</time>
      </trkpt>
      <trkpt lat="49.00575" lon="3.39371">
        <ele>72.2</ele>
        <time>2020-07-01T09:14:19Z</time>
      </trkpt>
      <trkpt lat="49.00572" lon="3.39368">
        <ele>72.3</ele>
        <time>2020-07-01T09:14:20Z</time>
      </trkpt>
      <trkpt lat="49.00569" lon="3.39366">
        <ele>72.4</ele>
        <time>2020-07-01T09:14:21Z</time>
      </trkpt>
      <trkpt lat="49.00566" lon="3.39364">
        <ele>72.4</ele>
        <time>2020-07-01T09:14:22Z</time>
      </trkpt>
      <trkpt lat="49.00563" lon="3.39362">
        <ele>72.5</ele>
        <time>2020-07-01T09:14:23Z</time>
      </trkpt>
      <trkpt lat="49.0056" lon="3.3936">
        <ele>72.6</ele>
        <time>2020-07-01T09:14:24Z</time>
      </trkpt>
      <trkpt lat="49.00557" lon="3.39358">
        <ele>72.6</ele>
        <time>2020-07-01T09:14:25Z</time>
      </trkpt>
      <trkpt lat="49.00555" lon="3.39356">
        <ele>72.7</ele>
        <time>2020-07-01T09:14:26Z</time>
      </trkpt>
      <trkpt lat="49.00551" lon="3.39352">
        <ele>72.7</ele>
        <time>2020-07-01T09:14:27Z</time>
      </trkpt>
      <trkpt lat="49.00548" lon="3.39349">
        <ele>72.8</ele>
        <time>2020-07-01T09:14:28Z</time>
      </trkpt>
      <trkpt lat="49.00545" lon="3.39346">
        <ele>72.8</ele>
        <time>2020-07-01T09:14:29Z</time>
      </trkpt>
      <trkpt lat="49.00542" lon="3.39342">
        <ele>72.9</ele>
        <time>2020-07-01T09:14:30Z</time>
      </trkpt>
      <trkpt lat="49.00538" lon="3.39339">
        <ele>72.9</ele>
        <time>2020-07-01T09:14:31Z</time>
      </trkpt>
      <trkpt lat="49.00535" lon="3.39336">
        <ele>73</ele>
        <time>2020-07-01T09:14:32Z</time>
      </trkpt>
      <trkpt lat="49.00531" lon="3.39333">
        <ele>73</ele>
        <time>2020-07-01T09:14:33Z</time>
      </trkpt>
      <trkpt lat="49.00527" lon="3.39331">
        <ele>73.1</ele>
        <time>2020-07-01T09:14:34Z</time>
      </trkpt>
      <trkpt lat="49.00523" lon="3.39329">
        <ele>73.1</ele>
        <time>2020-07-01T09:14:35Z</time>
      </trkpt>
      <trkpt lat="49.00519" lon="3.39326">
        <ele>73.1</ele>
        <time>2020-07-01T09:14:36Z</time>
      </trkpt>
      <trkpt lat="49.00515" lon="3.39324">
        <ele>73.2</ele>
        <time>2020-07-01T09:14:37Z</time>
      </trkpt>
      <trkpt lat="49.00512" lon="3.39321">
        <ele>73.2</ele>
        <time>2020-07-01T09:14:38Z</time>
      </trkpt>
      <trkpt lat="49.00508" lon="3.39318">
        <ele>73.2</ele>
        <time>2020-07-01T09:14:39Z</time>
      </trkpt>
      <trkpt lat="49.00504" lon="3.39315">
        <ele>73.2</ele>
        <time>2020-07-01T09:14:40Z</time>
      </trkpt>
      <trkpt lat="49.00501" lon="3.39312">
        <ele>73.2</ele>
        <time>2020-07-01T09:14:41Z</time>
      </trkpt>
      <trkpt lat="49.00497" lon="3.39309">
        <ele>73.2</ele>
        <time>2020-07-01T09:14:42Z</time>
      </trkpt>
      <trkpt lat="49.00494" lon="3.39307">
        <ele>73.2</ele>
        <time>2020-07-01T09:14:43Z</time>
      </trkpt>
      <trkpt lat="49.00491" lon="3.39304">
        <ele>73.2</ele>
        <time>2020-07-01T09:14:44Z</time>
      </trkpt>
      <trkpt lat="49.00488" lon="3.39302">
        <ele>73.2</ele>
        <time>2020-07-01T09:14:45Z</time>
      </trkpt>
      <trkpt lat="49.00484" lon="3.39299">
        <ele>73.1</ele>
        <time>2020-07-01T09:14:46Z</time>
      </trkpt>
      <trkpt lat="49.0048" lon="3.39296">
        <ele>73.1</ele>
        <time>2020-07-01T09:14:47Z</time>
      </trkpt>
      <trkpt lat="49.00476" lon="3.39293">
        <ele>73.1</ele>
        <time>2020-07-01T09:14:48Z</time>
      </trkpt>
      <trkpt lat="49.00471" lon="3.3929">
        <ele>73</ele>
        <time>2020-07-01T09:14:49Z</time>
      </trkpt>
      <trkpt lat="49.00468" lon="3.39287">
        <ele>73</ele>
        <time>2020-07-01T09:14:50Z</time>
      </trkpt>
      <trkpt lat="49.00464" lon="3.39284">
        <ele>72.9</ele>
        <time>2020-07-01T09:14:51Z</time>
      </trkpt>
      <trkpt lat="49.0046" lon="3.3928">
        <ele>72.9</ele>
        <time>2020-07-01T09:14:52Z</time>
      </trkpt>
      <trkpt lat="49.00455" lon="3.39278">
        <ele>72.8</ele>
        <time>2020-07-01T09:14:53Z</time>
      </trkpt>
      <trkpt lat="49.00451" lon="3.39274">
        <ele>72.7</ele>
        <time>2020-07-01T09:14:54Z</time>
      </trkpt>
      <trkpt lat="49.00447" lon="3.3927">
        <ele>72.7</ele>
        <time>2020-07-01T09:14:55Z</time>
      </trkpt>
      <trkpt lat="49.00442" lon="3.39267">
        <ele>72.6</ele>
        <time>2020-07-01T09:14:56Z</time>
      </trkpt>
      <trkpt lat="49.00437" lon="3.39264">
        <ele>72.5</ele>
        <time>2020-07-01T09:14:57Z</time>
      </trkpt>
      <trkpt lat="49.00433" lon="3.39261">
        <ele>72.4</ele>
        <time>2020-07-01T09:14:58Z</time>
      </trkpt>
      <trkpt lat="49.00429" lon="3.39258">
        <ele>72.4</ele>
        <time>2020-07-01T09:14:59Z</time>
      </trkpt>
      <trkpt lat="49.00425" lon="3.39255">
        <ele>72.3</ele>
        <time>2020-07-01T09:15:00Z</time>
      </trkpt>
      <trkpt lat="49.0042" lon="3.39251">
        <ele>72.1</ele>
        <time>2020-07-01T09:15:01Z</time>
      </trkpt>
      <trkpt lat="49.00416" lon="3.39247">
        <ele>72</ele>
        <time>2020-07-01T09:15:02Z</time>
      </trkpt>
      <trkpt lat="49.00411" lon="3.39243">
        <ele>71.9</ele>
        <time>2020-07-01T09:15:03Z</time>
      </trkpt>
      <trkpt lat="49.00406" lon="3.39239">
        <ele>71.7</ele>
        <time>2020-07-01T09:15:04Z</time>
      </trkpt>
      <trkpt lat="49.00401" lon="3.39236">
        <ele>71.6</ele>
        <time>2020-07-01T09:15:05Z</time>
      </trkpt>
      <trkpt lat="49.00396" lon="3.39231">
        <ele>71.5</ele>
        <time>2020-07-01T09:15:06Z</time>
      </trkpt>
      <trkpt lat="49.00391" lon="3.39227">
        <ele>71.3</ele>
        <time>2020-07-01T09:15:07Z</time>
      </trkpt>
      <trkpt lat="49.00386" lon="3.39223">
        <ele>71.1</ele>
        <time>2020-07-01T09:15:08Z</time>
      </trkpt>
      <trkpt lat="49.00381" lon="3.39219">
        <ele>71</ele>
        <time>2020-07-01T09:15:09Z</time>
      </trkpt>
      <trkpt lat="49.00376" lon="3.39215">
        <ele>70.8</ele>
        <time>2020-07-01T09:15:10Z</time>
      </trkpt>
      <trkpt lat="49.00371" lon="3.39211">
        <ele>70.7</ele>
        <time>2020-07-01T09:15:11Z</time>
      </trkpt>
      <trkpt lat="49.00366" lon="3.39208">
        <ele>70.5</ele>
        <time>2020-07-01T09:15:12Z</time>
      </trkpt>
      <trkpt lat="49.0036" lon="3.39205">
        <ele>70.3</ele>
        <time>2020-07-01T09:15:13Z</time>
      </trkpt>
      <trkpt lat="49.00355" lon="3.39202">
        <ele>70.1</ele>
        <time>2020-07-01T09:15:14Z</time>
      </trkpt>
      <trkpt lat="49.00349" lon="3.39199">
        <ele>69.9</ele>
        <time>2020-07-01T09:15:15Z</time>
      </trkpt>
      <trkpt lat="49.00343" lon="3.39195">
        <ele>69.7</ele>
        <time>2020-07-01T09:15:16Z</time>
      </trkpt>
      <trkpt lat="49.00337" lon="3.39191">
        <ele>69.5</ele>
        <time>2020-07-01T09:15:17Z</time>
      </trkpt>
      <trkpt lat="49.00332" lon="3.39186">
        <ele>69.3</ele>
        <time>2020-07-01T09:15:18Z</time>
      </trkpt>
      <trkpt lat="49.00326" lon="3.39182">
        <ele>69.1</ele>
        <time>2020-07-01T09:15:19Z</time>
      </trkpt>
      <trkpt lat="49.00321" lon="3.39178">
        <ele>69</ele>
        <time>2020-07-01T09:15:20Z</time>
      </trkpt>
      <trkpt lat="49.00316" lon="3.39173">
        <ele>68.8</ele>
        <time>2020-07-01T09:15:21Z</time>
      </trkpt>
      <trkpt lat="49.0031" lon="3.39168">
        <ele>68.7</ele>
        <time>2020-07-01T09:15:22Z</time>
      </trkpt>
      <trkpt lat="49.00305" lon="3.39164">
        <ele>68.6</ele>
        <time>2020-07-01T09:15:23Z</time>
      </trkpt>
      <trkpt lat="49.003" lon="3.39159">
        <ele>68.6</ele>
        <time>2020-07-01T09:15:24Z</time>
      </trkpt>
      <trkpt lat="49.00295" lon="3.39154">
        <ele>68.6</ele>
        <time>2020-07-01T09:15:25Z</time>
      </trkpt>
      <trkpt lat="49.0029" lon="3.3915">
        <ele>68.7</ele>
        <time>2020-07-01T09:15:26Z</time>
      </trkpt>
      <trkpt lat="49.00285" lon="3.39145">
        <ele>68.8</ele>
        <time>2020-07-01T09:15:27Z</time>
      </trkpt>
      <trkpt lat="49.0028" lon="3.39142">
        <ele>68.7</ele>
        <time>2020-07-01T09:15:28Z</time>
      </trkpt>
      <trkpt lat="49.00275" lon="3.39138">
        <ele>68.6</ele>
        <time>2020-07-01T09:15:29Z</time>
      </trkpt>
      <trkpt lat="49.0027" lon="3.39133">
        <ele>68.5</ele>
        <time>2020-07-01T09:15:30Z</time>
      </trkpt>
      <trkpt lat="49.00265" lon="3.39128">
        <ele>68.4</ele>
        <time>2020-07-01T09:15:31Z</time>
      </trkpt>
      <trkpt lat="49.00261" lon="3.39124">
        <ele>68.3</ele>
        <time>2020-07-01T09:15:32Z</time>
      </trkpt>
      <trkpt lat="49.00256" lon="3.39119">
        <ele>68.3</ele>
        <time>2020-07-01T09:15:33Z</time>
      </trkpt>
      <trkpt lat="49.00251" lon="3.39116">
        <ele>68.2</ele>
        <time>2020-07-01T09:15:34Z</time>
      </trkpt>
      <trkpt lat="49.00246" lon="3.39112">
        <ele>68.2</ele>
        <time>2020-07-01T09:15:35Z</time>
      </trkpt>
      <trkpt lat="49.0024" lon="3.39109">
        <ele>68.1</ele>
        <time>2020-07-01T09:15:36Z</time>
      </trkpt>
      <trkpt lat="49.00236" lon="3.39105">
        <ele>68.1</ele>
        <time>2020-07-01T09:15:37Z</time>
      </trkpt>
      <trkpt lat="49.00231" lon="3.39102">
        <ele>68.1</ele>
        <time>2020-07-01T09:15:38Z</time>
      </trkpt>
      <trkpt lat="49.00225" lon="3.39098">
        <ele>68</ele>
        <time>2020-07-01T09:15:39Z</time>
      </trkpt>
      <trkpt lat="49.00221" lon="3.39094">
        <ele>68</ele>
        <time>2020-07-01T09:15:40Z</time>
      </trkpt>
      <trkpt lat="49.00216" lon="3.3909">
        <ele>68</ele>
        <time>2020-07-01T09:15:41Z</time>
      </trkpt>
      <trkpt lat="49.00212" lon="3.39086">
        <ele>67.9</ele>
        <time>2020-07-01T09:15:42Z</time>
      </trkpt>
      <trkpt lat="49.00207" lon="3.39082">
        <ele>67.9</ele>
        <time>2020-07-01T09:15:43Z</time>
      </trkpt>
      <trkpt lat="49.00203" lon="3.39078">
        <ele>67.8</ele>
        <time>2020-07-01T09:15:44Z</time>
      </trkpt>
      <trkpt lat="49.00198" lon="3.39076">
        <ele>67.8</ele>
        <time>2020-07-01T09:15:45Z</time>
      </trkpt>
      <trkpt lat="49.00193" lon="3.39072">
        <ele>67.7</ele>
        <time>2020-07-01T09:15:46Z</time>
      </trkpt>
      <trkpt lat="49.00188" lon="3.39069">
        <ele>67.7</ele>
        <time>2020-07-01T09:15:47Z</time>
      </trkpt>
      <trkpt lat="49.00184" lon="3.39066">
        <ele>67.7</ele>
        <time>2020-07-01T09:15:48Z</time>
      </trkpt>
      <trkpt lat="49.00179" lon="3.39063">
        <ele>67.7</ele>
        <time>2020-07-01T09:15:49Z</time>
      </trkpt>
      <trkpt lat="49.00175" lon="3.3906">
        <ele>67.6</ele>
        <time>2020-07-01T09:15:50Z</time>
      </trkpt>
      <trkpt lat="49.0017" lon="3.39057">
        <ele>67.6</ele>
        <time>2020-07-01T09:15:51Z</time>
      </trkpt>
      <trkpt lat="49.00166" lon="3.39054">
        <ele>67.6</ele>
        <time>2020-07-01T09:15:52Z</time>
      </trkpt>
      <trkpt lat="49.00162" lon="3.39052">
        <ele>67.6</ele>
        <time>2020-07-01T09:15:53Z</time>
      </trkpt>
      <trkpt lat="49.00157" lon="3.39049">
        <ele>67.7</ele>
        <time>2020-07-01T09:15:54Z</time>
      </trkpt>
      <trkpt lat="49.00152" lon="3.39045">
        <ele>67.7</ele>
        <time>2020-07-01T09:15:55Z</time>
      </trkpt>
      <trkpt lat="49.00147" lon="3.39042">
        <ele>67.7</ele>
        <time>2020-07-01T09:15:56Z</time>
      </trkpt>
      <trkpt lat="49.00142" lon="3.39039">
        <ele>67.7</ele>
        <time>2020-07-01T09:15:57Z</time>
      </trkpt>
      <trkpt lat="49.00138" lon="3.39036">
        <ele>67.8</ele>
        <time>2020-07-01T09:15:58Z</time>
      </trkpt>
      <trkpt lat="49.00134" lon="3.39033">
        <ele>67.8</ele>
        <time>2020-07-01T09:15:59Z</time>
      </trkpt>
      <trkpt lat="49.0013" lon="3.39029">
        <ele>67.8</ele>
        <time>2020-07-01T09:16:00Z</time>
      </trkpt>
      <trkpt lat="49.00127" lon="3.39026">
        <ele>67.8</ele>
        <time>2020-07-01T09:16:01Z</time>
      </trkpt>
      <trkpt lat="49.00123" lon="3.39024">
        <ele>67.9</ele>
        <time>2020-07-01T09:16:02Z</time>
      </trkpt>
      <trkpt lat="49.00118" lon="3.3902">
        <ele>67.9</ele>
        <time>2020-07-01T09:16:03Z</time>
      </trkpt>
      <trkpt lat="49.00113" lon="3.39016">
        <ele>68</ele>
        <time>2020-07-01T09:16:04Z</time>
      </trkpt>
      <trkpt lat="49.00108" lon="3.39013">
        <ele>68</ele>
        <time>2020-07-01T09:16:05Z</time>
      </trkpt>
      <trkpt lat="49.00104" lon="3.3901">
        <ele>68.1</ele>
        <time>2020-07-01T09:16:06Z</time>
      </trkpt>
      <trkpt lat="49.001" lon="3.39006">
        <ele>68.1</ele>
        <time>2020-07-01T09:16:07Z</time>
      </trkpt>
      <trkpt lat="49.00096" lon="3.39002">
        <ele>68.1</ele>
        <time>2020-07-01T09:16:08Z</time>
      </trkpt>
      <trkpt lat="49.00093" lon="3.38999">
        <ele>68.1</ele>
        <time>2020-07-01T09:16:09Z</time>
      </trkpt>
      <trkpt lat="49.00089" lon="3.38996">
        <ele>68.2</ele>
        <time>2020-07-01T09:16:10Z</time>
      </trkpt>
      <trkpt lat="49.00085" lon="3.38992">
        <ele>68.2</ele>
        <time>2020-07-01T09:16:11Z</time>
      </trkpt>
      <trkpt lat="49.0008" lon="3.38989">
        <ele>68.2</ele>
        <time>2020-07-01T09:16:12Z</time>
      </trkpt>
      <trkpt lat="49.00075" lon="3.38985">
        <ele>68.2</ele>
        <time>2020-07-01T09:16:13Z</time>
      </trkpt>
      <trkpt lat="49.00071" lon="3.38981">
        <ele>68.3</ele>
        <time>2020-07-01T09:16:14Z</time>
      </trkpt>
      <trkpt lat="49.00066" lon="3.38978">
        <ele>68.3</ele>
        <time>2020-07-01T09:16:15Z</time>
      </trkpt>
      <trkpt lat="49.00062" lon="3.38975">
        <ele>68.3</ele>
        <time>2020-07-01T09:16:16Z</time>
      </trkpt>
      <trkpt lat="49.00059" lon="3.38972">
        <ele>68.3</ele>
        <time>2020-07-01T09:16:17Z</time>
      </trkpt>
      <trkpt lat="49.00054" lon="3.38968">
        <ele>68.3</ele>
        <time>2020-07-01T09:16:18Z</time>
      </trkpt>
      <trkpt lat="49.00051" lon="3.38964">
        <ele>68.3</ele>
        <time>2020-07-01T09:16:19Z</time>
      </trkpt>
      <trkpt lat="49.00046" lon="3.38961">
        <ele>68.3</ele>
        <time>2020-07-01T09:16:20Z</time>
      </trkpt>
      <trkpt lat="49.00041" lon="3.38957">
        <ele>68.3</ele>
        <time>2020-07-01T09:16:21Z</time>
      </trkpt>
      <trkpt lat="49.00037" lon="3.38952">
        <ele>68.2</ele>
        <time>2020-07-01T09:16:22Z</time>
      </trkpt>
      <trkpt lat="49.00032" lon="3.38949">
        <ele>68.1</ele>
        <time>2020-07-01T09:16:23Z</time>
      </trkpt>
      <trkpt lat="49.00027" lon="3.38946">
        <ele>68.1</ele>
        <time>2020-07-01T09:16:24Z</time>
      </trkpt>
      <trkpt lat="49.00023" lon="3.38942">
        <ele>68</ele>
        <time>2020-07-01T09:16:25Z</time>
      </trkpt>
      <trkpt lat="49.00018" lon="3.38939">
        <ele>68</ele>
        <time>2020-07-01T09:16:26Z</time>
      </trkpt>
      <trkpt lat="49.00013" lon="3.38936">
        <ele>67.9</ele>
        <time>2020-07-01T09:16:27Z</time>
      </trkpt>
      <trkpt lat="49.00008" lon="3.38933">
        <ele>67.9</ele>
        <time>2020-07-01T09:16:28Z</time>
      </trkpt>
      <trkpt lat="49.00003" lon="3.38929">
        <ele>67.8</ele>
        <time>2020-07-01T09:16:29Z</time>
      </trkpt>
      <trkpt lat="48.99999" lon="3.38926">
        <ele>67.8</ele>
        <time>2020-07-01T09:16:30Z</time>
      </trkpt>
      <trkpt lat="48.99995" lon="3.38922">
        <ele>67.7</ele>
        <time>2020-07-01T09:16:31Z</time>
      </trkpt>
      <trkpt lat="48.99989" lon="3.38918">
        <ele>67.7</ele>
        <time>2020-07-01T09:16:32Z</time>
      </trkpt>
      <trkpt lat="48.99984" lon="3.38914">
        <ele>67.6</ele>
        <time>2020-07-01T09:16:33Z</time>
      </trkpt>
      <trkpt lat="48.9998" lon="3.38909">
        <ele>67.6</ele>
        <time>2020-07-01T09:16:34Z</time>
      </trkpt>
      <trkpt lat="48.99976" lon="3.38906">
        <ele>67.5</ele>
        <time>2020-07-01T09:16:35Z</time>
      </trkpt>
      <trkpt lat="48.99971" lon="3.38902">
        <ele>67.5</ele>
        <time>2020-07-01T09:16:36Z</time>
      </trkpt>
      <trkpt lat="48.99966" lon="3.38898">
        <ele>67.4</ele>
        <time>2020-07-01T09:16:37Z</time>
      </trkpt>
      <trkpt lat="48.99962" lon="3.38894">
        <ele>67.4</ele>
        <time>2020-07-01T09:16:38Z</time>
      </trkpt>
      <trkpt lat="48.99958" lon="3.3889">
        <ele>67.3</ele>
        <time>2020-07-01T09:16:39Z</time>
      </trkpt>
      <trkpt lat="48.99953" lon="3.38887">
        <ele>67.3</ele>
        <time>2020-07-01T09:16:40Z</time>
      </trkpt>
      <trkpt lat="48.99948" lon="3.38884">
        <ele>67.2</ele>
        <time>2020-07-01T09:16:41Z</time>
      </trkpt>
      <trkpt lat="48.99944" lon="3.38881">
        <ele>67.1</ele>
        <time>2020-07-01T09:16:42Z</time>
      </trkpt>
      <trkpt lat="48.99939" lon="3.38877">
        <ele>67.1</ele>
        <time>2020-07-01T09:16:43Z</time>
      </trkpt>
      <trkpt lat="48.99935" lon="3.38873">
        <ele>67</ele>
        <time>2020-07-01T09:16:44Z</time>
      </trkpt>
      <trkpt lat="48.9993" lon="3.3887">
        <ele>67</ele>
        <time>2020-07-01T09:16:45Z</time>
      </trkpt>
      <trkpt lat="48.99926" lon="3.38866">
        <ele>67</ele>
        <time>2020-07-01T09:16:46Z</time>
      </trkpt>
      <trkpt lat="48.99922" lon="3.38862">
        <ele>66.9</ele>
        <time>2020-07-01T09:16:47Z</time>
      </trkpt>
      <trkpt lat="48.99917" lon="3.38858">
        <ele>66.9</ele>
        <time>2020-07-01T09:16:48Z</time>
      </trkpt>
      <trkpt lat="48.9991" lon="3.38856">
        <ele>66.9</ele>
        <time>2020-07-01T09:16:49Z</time>
      </trkpt>
      <trkpt lat="48.99906" lon="3.38851">
        <ele>66.8</ele>
        <time>2020-07-01T09:16:50Z</time>
      </trkpt>
      <trkpt lat="48.999" lon="3.38848">
        <ele>66.7</ele>
        <time>2020-07-01T09:16:51Z</time>
      </trkpt>
      <trkpt lat="48.99895" lon="3.38845">
        <ele>66.6</ele>
        <time>2020-07-01T09:16:52Z</time>
      </trkpt>
      <trkpt lat="48.99891" lon="3.38842">
        <ele>66.6</ele>
        <time>2020-07-01T09:16:53Z</time>
      </trkpt>
      <trkpt lat="48.99886" lon="3.38838">
        <ele>66.5</ele>
        <time>2020-07-01T09:16:54Z</time>
      </trkpt>
      <trkpt lat="48.99881" lon="3.38834">
        <ele>66.4</ele>
        <time>2020-07-01T09:16:55Z</time>
      </trkpt>
      <trkpt lat="48.99876" lon="3.38831">
        <ele>66.4</ele>
        <time>2020-07-01T09:16:56Z</time>
      </trkpt>
      <trkpt lat="48.99871" lon="3.38829">
        <ele>66.4</ele>
        <time>2020-07-01T09:16:57Z</time>
      </trkpt>
      <trkpt lat="48.99866" lon="3.38826">
        <ele>66.4</ele>
        <time>2020-07-01T09:16:58Z</time>
      </trkpt>
      <trkpt lat="48.99862" lon="3.38822">
        <ele>66.4</ele>
        <time>2020-07-01T09:16:59Z</time>
      </trkpt>
      <trkpt lat="48.99858" lon="3.38818">
        <ele>66.4</ele>
        <time>2020-07-01T09:17:00Z</time>
      </trkpt>
      <trkpt lat="48.99853" lon="3.38814">
        <ele>66.4</ele>
        <time>2020-07-01T09:17:01Z</time>
      </trkpt>
      <trkpt lat="48.99848" lon="3.3881">
        <ele>66.4</ele>
        <time>2020-07-01T09:17:02Z</time>
      </trkpt>
      <trkpt lat="48.99843" lon="3.38808">
        <ele>66.4</ele>
        <time>2020-07-01T09:17:03Z</time>
      </trkpt>
      <trkpt lat="48.99838" lon="3.38804">
        <ele>66.4</ele>
        <time>2020-07-01T09:17:04Z</time>
      </trkpt>
      <trkpt lat="48.99834" lon="3.388">
        <ele>66.4</ele>
        <time>2020-07-01T09:17:05Z</time>
      </trkpt>
      <trkpt lat="48.99829" lon="3.38797">
        <ele>66.4</ele>
        <time>2020-07-01T09:17:06Z</time>
      </trkpt>
      <trkpt lat="48.99825" lon="3.38793">
        <ele>66.4</ele>
        <time>2020-07-01T09:17:07Z</time>
      </trkpt>
      <trkpt lat="48.99821" lon="3.3879">
        <ele>66.5</ele>
        <time>2020-07-01T09:17:08Z</time>
      </trkpt>
      <trkpt lat="48.99817" lon="3.38787">
        <ele>66.5</ele>
        <time>2020-07-01T09:17:09Z</time>
      </trkpt>
      <trkpt lat="48.99813" lon="3.38784">
        <ele>66.5</ele>
        <time>2020-07-01T09:17:10Z</time>
      </trkpt>
      <trkpt lat="48.99809" lon="3.3878">
        <ele>66.5</ele>
        <time>2020-07-01T09:17:11Z</time>
      </trkpt>
      <trkpt lat="48.99804" lon="3.38777">
        <ele>66.5</ele>
        <time>2020-07-01T09:17:12Z</time>
      </trkpt>
      <trkpt lat="48.998" lon="3.38774">
        <ele>66.5</ele>
        <time>2020-07-01T09:17:13Z</time>
      </trkpt>
      <trkpt lat="48.99795" lon="3.3877">
        <ele>66.5</ele>
        <time>2020-07-01T09:17:14Z</time>
      </trkpt>
      <trkpt lat="48.99791" lon="3.38766">
        <ele>66.5</ele>
        <time>2020-07-01T09:17:15Z</time>
      </trkpt>
      <trkpt lat="48.99786" lon="3.38763">
        <ele>66.5</ele>
        <time>2020-07-01T09:17:16Z</time>
      </trkpt>
      <trkpt lat="48.99783" lon="3.38759">
        <ele>66.6</ele>
        <time>2020-07-01T09:17:17Z</time>
      </trkpt>
      <trkpt lat="48.99779" lon="3.38755">
        <ele>66.6</ele>
        <time>2020-07-01T09:17:18Z</time>
      </trkpt>
      <trkpt lat="48.99775" lon="3.38752">
        <ele>66.7</ele>
        <time>2020-07-01T09:17:19Z</time>
      </trkpt>
      <trkpt lat="48.9977" lon="3.3875">
        <ele>66.7</ele>
        <time>2020-07-01T09:17:20Z</time>
      </trkpt>
      <trkpt lat="48.99766" lon="3.38747">
        <ele>66.8</ele>
        <time>2020-07-01T09:17:21Z</time>
      </trkpt>
      <trkpt lat="48.99762" lon="3.38744">
        <ele>66.8</ele>
        <time>2020-07-01T09:17:22Z</time>
      </trkpt>
      <trkpt lat="48.99757" lon="3.38741">
        <ele>66.9</ele>
        <time>2020-07-01T09:17:23Z</time>
      </trkpt>
      <trkpt lat="48.99753" lon="3.38737">
        <ele>66.9</ele>
        <time>2020-07-01T09:17:24Z</time>
      </trkpt>
      <trkpt lat="48.99749" lon="3.38734">
        <ele>66.9</ele>
        <time>2020-07-01T09:17:25Z</time>
      </trkpt>
      <trkpt lat="48.99744" lon="3.38731">
        <ele>66.9</ele>
        <time>2020-07-01T09:17:26Z</time>
      </trkpt>
      <trkpt lat="48.9974" lon="3.38728">
        <ele>67</ele>
        <time>2020-07-01T09:17:27Z</time>
      </trkpt>
      <trkpt lat="48.99735" lon="3.38725">
        <ele>67</ele>
        <time>2020-07-01T09:17:28Z</time>
      </trkpt>
      <trkpt lat="48.99731" lon="3.38722">
        <ele>67.1</ele>
        <time>2020-07-01T09:17:29Z</time>
      </trkpt>
      <trkpt lat="48.99727" lon="3.38719">
        <ele>67.1</ele>
        <time>2020-07-01T09:17:30Z</time>
      </trkpt>
      <trkpt lat="48.99723" lon="3.38716">
        <ele>67.1</ele>
        <time>2020-07-01T09:17:31Z</time>
      </trkpt>
      <trkpt lat="48.99719" lon="3.38713">
        <ele>67.2</ele>
        <time>2020-07-01T09:17:32Z</time>
      </trkpt>
      <trkpt lat="48.99715" lon="3.38708">
        <ele>67.2</ele>
        <time>2020-07-01T09:17:33Z</time>
      </trkpt>
      <trkpt lat="48.99711" lon="3.38705">
        <ele>67.3</ele>
        <time>2020-07-01T09:17:34Z</time>
      </trkpt>
      <trkpt lat="48.99707" lon="3.38701">
        <ele>67.4</ele>
        <time>2020-07-01T09:17:35Z</time>
      </trkpt>
      <trkpt lat="48.99702" lon="3.38698">
        <ele>67.4</ele>
        <time>2020-07-01T09:17:36Z</time>
      </trkpt>
      <trkpt lat="48.99699" lon="3.38695">
        <ele>67.5</ele>
        <time>2020-07-01T09:17:37Z</time>
      </trkpt>
      <trkpt lat="48.99694" lon="3.38692">
        <ele>67.5</ele>
        <time>2020-07-01T09:17:38Z</time>
      </trkpt>
      <trkpt lat="48.99691" lon="3.3869">
        <ele>67.4</ele>
        <time>2020-07-01T09:17:39Z</time>
      </trkpt>
      <trkpt lat="48.99687" lon="3.38686">
        <ele>67.3</ele>
        <time>2020-07-01T09:17:40Z</time>
      </trkpt>
      <trkpt lat="48.99684" lon="3.38684">
        <ele>67.2</ele>
        <time>2020-07-01T09:17:41Z</time>
      </trkpt>
      <trkpt lat="48.9968" lon="3.38681">
        <ele>67.2</ele>
        <time>2020-07-01T09:17:42Z</time>
      </trkpt>
      <trkpt lat="48.99675" lon="3.38679">
        <ele>67.1</ele>
        <time>2020-07-01T09:17:43Z</time>
      </trkpt>
      <trkpt lat="48.9967" lon="3.38676">
        <ele>67.1</ele>
        <time>2020-07-01T09:17:44Z</time>
      </trkpt>
      <trkpt lat="48.99666" lon="3.38673">
        <ele>67.1</ele>
        <time>2020-07-01T09:17:45Z</time>
      </trkpt>
      <trkpt lat="48.99662" lon="3.3867">
        <ele>67.1</ele>
        <time>2020-07-01T09:17:46Z</time>
      </trkpt>
      <trkpt lat="48.99658" lon="3.38668">
        <ele>67.1</ele>
        <time>2020-07-01T09:17:47Z</time>
      </trkpt>
      <trkpt lat="48.99653" lon="3.38665">
        <ele>67.1</ele>
        <time>2020-07-01T09:17:48Z</time>
      </trkpt>
      <trkpt lat="48.99649" lon="3.3866">
        <ele>67.1</ele>
        <time>2020-07-01T09:17:49Z</time>
      </trkpt>
      <trkpt lat="48.99645" lon="3.38656">
        <ele>67</ele>
        <time>2020-07-01T09:17:50Z</time>
      </trkpt>
      <trkpt lat="48.99641" lon="3.38651">
        <ele>67</ele>
        <time>2020-07-01T09:17:51Z</time>
      </trkpt>
      <trkpt lat="48.99637" lon="3.38647">
        <ele>67</ele>
        <time>2020-07-01T09:17:52Z</time>
      </trkpt>
      <trkpt lat="48.99632" lon="3.38644">
        <ele>67</ele>
        <time>2020-07-01T09:17:53Z</time>
      </trkpt>
      <trkpt lat="48.99628" lon="3.3864">
        <ele>67</ele>
        <time>2020-07-01T09:17:54Z</time>
      </trkpt>
      <trkpt lat="48.99625" lon="3.38634">
        <ele>67</ele>
        <time>2020-07-01T09:17:55Z</time>
      </trkpt>
      <trkpt lat="48.99621" lon="3.3863">
        <ele>67</ele>
        <time>2020-07-01T09:17:56Z</time>
      </trkpt>
      <trkpt lat="48.99618" lon="3.38626">
        <ele>67</ele>
        <time>2020-07-01T09:17:57Z</time>
      </trkpt>
      <trkpt lat="48.99614" lon="3.38622">
        <ele>67</ele>
        <time>2020-07-01T09:17:58Z</time>
      </trkpt>
      <trkpt lat="48.9961" lon="3.38618">
        <ele>67</ele>
        <time>2020-07-01T09:17:59Z</time>
      </trkpt>
      <trkpt lat="48.99606" lon="3.38614">
        <ele>67.1</ele>
        <time>2020-07-01T09:18:00Z</time>
      </trkpt>
      <trkpt lat="48.99602" lon="3.3861">
        <ele>67.1</ele>
        <time>2020-07-01T09:18:01Z</time>
      </trkpt>
      <trkpt lat="48.99598" lon="3.38605">
        <ele>67.1</ele>
        <time>2020-07-01T09:18:02Z</time>
      </trkpt>
      <trkpt lat="48.99594" lon="3.386">
        <ele>67.1</ele>
        <time>2020-07-01T09:18:03Z</time>
      </trkpt>
      <trkpt lat="48.99591" lon="3.38594">
        <ele>67.1</ele>
        <time>2020-07-01T09:18:04Z</time>
      </trkpt>
      <trkpt lat="48.99587" lon="3.38588">
        <ele>67</ele>
        <time>2020-07-01T09:18:05Z</time>
      </trkpt>
      <trkpt lat="48.99583" lon="3.38582">
        <ele>66.9</ele>
        <time>2020-07-01T09:18:06Z</time>
      </trkpt>
      <trkpt lat="48.9958" lon="3.38576">
        <ele>66.8</ele>
        <time>2020-07-01T09:18:07Z</time>
      </trkpt>
      <trkpt lat="48.99576" lon="3.3857">
        <ele>66.7</ele>
        <time>2020-07-01T09:18:08Z</time>
      </trkpt>
      <trkpt lat="48.99574" lon="3.38564">
        <ele>66.6</ele>
        <time>2020-07-01T09:18:09Z</time>
      </trkpt>
      <trkpt lat="48.9957" lon="3.38557">
        <ele>66.5</ele>
        <time>2020-07-01T09:18:10Z</time>
      </trkpt>
      <trkpt lat="48.99568" lon="3.38548">
        <ele>66.4</ele>
        <time>2020-07-01T09:18:11Z</time>
      </trkpt>
      <trkpt lat="48.99564" lon="3.3854">
        <ele>66.2</ele>
        <time>2020-07-01T09:18:12Z</time>
      </trkpt>
      <trkpt lat="48.99562" lon="3.38532">
        <ele>66</ele>
        <time>2020-07-01T09:18:13Z</time>
      </trkpt>
      <trkpt lat="48.99559" lon="3.38524">
        <ele>65.8</ele>
        <time>2020-07-01T09:18:14Z</time>
      </trkpt>
      <trkpt lat="48.99556" lon="3.38516">
        <ele>65.7</ele>
        <time>2020-07-01T09:18:15Z</time>
      </trkpt>
      <trkpt lat="48.99553" lon="3.38508">
        <ele>65.5</ele>
        <time>2020-07-01T09:18:16Z</time>
      </trkpt>
      <trkpt lat="48.9955" lon="3.385">
        <ele>65.3</ele>
        <time>2020-07-01T09:18:17Z</time>
      </trkpt>
      <trkpt lat="48.99547" lon="3.38491">
        <ele>65.1</ele>
        <time>2020-07-01T09:18:18Z</time>
      </trkpt>
      <trkpt lat="48.99544" lon="3.38484">
        <ele>64.9</ele>
        <time>2020-07-01T09:18:19Z</time>
      </trkpt>
      <trkpt lat="48.99541" lon="3.38475">
        <ele>64.7</ele>
        <time>2020-07-01T09:18:20Z</time>
      </trkpt>
      <trkpt lat="48.99538" lon="3.38465">
        <ele>64.5</ele>
        <time>2020-07-01T09:18:21Z</time>
      </trkpt>
      <trkpt lat="48.99535" lon="3.38456">
        <ele>64.3</ele>
        <time>2020-07-01T09:18:22Z</time>
      </trkpt>
      <trkpt lat="48.99532" lon="3.38447">
        <ele>64.2</ele>
        <time>2020-07-01T09:18:23Z</time>
      </trkpt>
      <trkpt lat="48.99529" lon="3.38439">
        <ele>64</ele>
        <time>2020-07-01T09:18:24Z</time>
      </trkpt>
      <trkpt lat="48.99526" lon="3.38429">
        <ele>63.8</ele>
        <time>2020-07-01T09:18:25Z</time>
      </trkpt>
      <trkpt lat="48.99523" lon="3.3842">
        <ele>63.6</ele>
        <time>2020-07-01T09:18:26Z</time>
      </trkpt>
      <trkpt lat="48.9952" lon="3.3841">
        <ele>63.3</ele>
        <time>2020-07-01T09:18:27Z</time>
      </trkpt>
      <trkpt lat="48.99517" lon="3.38401">
        <ele>63.1</ele>
        <time>2020-07-01T09:18:28Z</time>
      </trkpt>
      <trkpt lat="48.99514" lon="3.38392">
        <ele>62.9</ele>
        <time>2020-07-01T09:18:29Z</time>
      </trkpt>
      <trkpt lat="48.99511" lon="3.38384">
        <ele>62.8</ele>
        <time>2020-07-01T09:18:30Z</time>
      </trkpt>
      <trkpt lat="48.99508" lon="3.38375">
        <ele>62.6</ele>
        <time>2020-07-01T09:18:31Z</time>
      </trkpt>
      <trkpt lat="48.99505" lon="3.38365">
        <ele>62.4</ele>
        <time>2020-07-01T09:18:32Z</time>
      </trkpt>
      <trkpt lat="48.99502" lon="3.38355">
        <ele>62.2</ele>
        <time>2020-07-01T09:18:33Z</time>
      </trkpt>
      <trkpt lat="48.99499" lon="3.38346">
        <ele>62</ele>
        <time>2020-07-01T09:18:34Z</time>
      </trkpt>
      <trkpt lat="48.99497" lon="3.38337">
        <ele>61.8</ele>
        <time>2020-07-01T09:18:35Z</time>
      </trkpt>
      <trkpt lat="48.99494" lon="3.38328">
        <ele>61.6</ele>
        <time>2020-07-01T09:18:36Z</time>
      </trkpt>
      <trkpt lat="48.99491" lon="3.38318">
        <ele>61.5</ele>
        <time>2020-07-01T09:18:37Z</time>
      </trkpt>
      <trkpt lat="48.99488" lon="3.38309">
        <ele>61.4</ele>
        <time>2020-07-01T09:18:38Z</time>
      </trkpt>
      <trkpt lat="48.99485" lon="3.383">
        <ele>61.2</ele>
        <time>2020-07-01T09:18:39Z</time>
      </trkpt>
      <trkpt lat="48.99482" lon="3.38291">
        <ele>61.1</ele>
        <time>2020-07-01T09:18:40Z</time>
      </trkpt>
      <trkpt lat="48.99479" lon="3.38281">
        <ele>60.9</ele>
        <time>2020-07-01T09:18:41Z</time>
      </trkpt>
      <trkpt lat="48.99476" lon="3.38271">
        <ele>60.7</ele>
        <time>2020-07-01T09:18:42Z</time>
      </trkpt>
      <trkpt lat="48.99473" lon="3.38262">
        <ele>60.6</ele>
        <time>2020-07-01T09:18:43Z</time>
      </trkpt>
      <trkpt lat="48.9947" lon="3.38254">
        <ele>60.5</ele>
        <time>2020-07-01T09:18:44Z</time>
      </trkpt>
      <trkpt lat="48.99468" lon="3.38246">
        <ele>60.4</ele>
        <time>2020-07-01T09:18:45Z</time>
      </trkpt>
      <trkpt lat="48.99465" lon="3.38238">
        <ele>60.3</ele>
        <time>2020-07-01T09:18:46Z</time>
      </trkpt>
      <trkpt lat="48.99462" lon="3.38229">
        <ele>60.2</ele>
        <time>2020-07-01T09:18:47Z</time>
      </trkpt>
      <trkpt lat="48.99458" lon="3.3822">
        <ele>60</ele>
        <time>2020-07-01T09:18:48Z</time>
      </trkpt>
      <trkpt lat="48.99455" lon="3.38211">
        <ele>59.9</ele>
        <time>2020-07-01T09:18:49Z</time>
      </trkpt>
      <trkpt lat="48.99452" lon="3.38203">
        <ele>59.9</ele>
        <time>2020-07-01T09:18:50Z</time>
      </trkpt>
      <trkpt lat="48.99449" lon="3.38194">
        <ele>59.8</ele>
        <time>2020-07-01T09:18:51Z</time>
      </trkpt>
      <trkpt lat="48.99446" lon="3.38185">
        <ele>59.8</ele>
        <time>2020-07-01T09:18:52Z</time>
      </trkpt>
      <trkpt lat="48.99443" lon="3.38176">
        <ele>59.7</ele>
        <time>2020-07-01T09:18:53Z</time>
      </trkpt>
      <trkpt lat="48.9944" lon="3.38168">
        <ele>59.7</ele>
        <time>2020-07-01T09:18:54Z</time>
      </trkpt>
      <trkpt lat="48.99438" lon="3.3816">
        <ele>59.6</ele>
        <time>2020-07-01T09:18:55Z</time>
      </trkpt>
      <trkpt lat="48.99435" lon="3.38151">
        <ele>59.6</ele>
        <time>2020-07-01T09:18:56Z</time>
      </trkpt>
      <trkpt lat="48.99432" lon="3.38142">
        <ele>59.5</ele>
        <time>2020-07-01T09:18:57Z</time>
      </trkpt>
      <trkpt lat="48.99429" lon="3.38133">
        <ele>59.4</ele>
        <time>2020-07-01T09:18:58Z</time>
      </trkpt>
      <trkpt lat="48.99427" lon="3.38125">
        <ele>59.4</ele>
        <time>2020-07-01T09:18:59Z</time>
      </trkpt>
      <trkpt lat="48.99425" lon="3.38116">
        <ele>59.4</ele>
        <time>2020-07-01T09:19:00Z</time>
      </trkpt>
      <trkpt lat="48.99422" lon="3.38108">
        <ele>59.3</ele>
        <time>2020-07-01T09:19:01Z</time>
      </trkpt>
      <trkpt lat="48.9942" lon="3.381">
        <ele>59.3</ele>
        <time>2020-07-01T09:19:02Z</time>
      </trkpt>
      <trkpt lat="48.99417" lon="3.38092">
        <ele>59.2</ele>
        <time>2020-07-01T09:19:03Z</time>
      </trkpt>
      <trkpt lat="48.99415" lon="3.38084">
        <ele>59.2</ele>
        <time>2020-07-01T09:19:04Z</time>
      </trkpt>
      <trkpt lat="48.99412" lon="3.38076">
        <ele>59.2</ele>
        <time>2020-07-01T09:19:05Z</time>
      </trkpt>
      <trkpt lat="48.99409" lon="3.38067">
        <ele>59.1</ele>
        <time>2020-07-01T09:19:06Z</time>
      </trkpt>
      <trkpt lat="48.99406" lon="3.38058">
        <ele>59.1</ele>
        <time>2020-07-01T09:19:07Z</time>
      </trkpt>
      <trkpt lat="48.99403" lon="3.38049">
        <ele>59.1</ele>
        <time>2020-07-01T09:19:08Z</time>
      </trkpt>
      <trkpt lat="48.994" lon="3.38041">
        <ele>59.1</ele>
        <time>2020-07-01T09:19:09Z</time>
      </trkpt>
      <trkpt lat="48.99398" lon="3.38034">
        <ele>59.1</ele>
        <time>2020-07-01T09:19:10Z</time>
      </trkpt>
      <trkpt lat="48.99395" lon="3.38025">
        <ele>59.1</ele>
        <time>2020-07-01T09:19:11Z</time>
      </trkpt>
      <trkpt lat="48.99392" lon="3.38016">
        <ele>59</ele>
        <time>2020-07-01T09:19:12Z</time>
      </trkpt>
      <trkpt lat="48.99389" lon="3.38007">
        <ele>59</ele>
        <time>2020-07-01T09:19:13Z</time>
      </trkpt>
      <trkpt lat="48.99387" lon="3.37999">
        <ele>59</ele>
        <time>2020-07-01T09:19:14Z</time>
      </trkpt>
      <trkpt lat="48.99384" lon="3.37992">
        <ele>59</ele>
        <time>2020-07-01T09:19:15Z</time>
      </trkpt>
      <trkpt lat="48.99382" lon="3.37984">
        <ele>59</ele>
        <time>2020-07-01T09:19:16Z</time>
      </trkpt>
      <trkpt lat="48.99379" lon="3.37976">
        <ele>59</ele>
        <time>2020-07-01T09:19:17Z</time>
      </trkpt>
      <trkpt lat="48.99376" lon="3.37969">
        <ele>59</ele>
        <time>2020-07-01T09:19:18Z</time>
      </trkpt>
      <trkpt lat="48.99374" lon="3.37961">
        <ele>59</ele>
        <time>2020-07-01T09:19:19Z</time>
      </trkpt>
      <trkpt lat="48.99371" lon="3.37955">
        <ele>59</ele>
        <time>2020-07-01T09:19:20Z</time>
      </trkpt>
      <trkpt lat="48.99368" lon="3.37947">
        <ele>59</ele>
        <time>2020-07-01T09:19:21Z</time>
      </trkpt>
      <trkpt lat="48.99366" lon="3.3794">
        <ele>58.9</ele>
        <time>2020-07-01T09:19:22Z</time>
      </trkpt>
      <trkpt lat="48.99363" lon="3.37934">
        <ele>58.9</ele>
        <time>2020-07-01T09:19:23Z</time>
      </trkpt>
      <trkpt lat="48.9936" lon="3.37928">
        <ele>58.9</ele>
        <time>2020-07-01T09:19:24Z</time>
      </trkpt>
      <trkpt lat="48.99357" lon="3.3792">
        <ele>58.9</ele>
        <time>2020-07-01T09:19:25Z</time>
      </trkpt>
      <trkpt lat="48.99355" lon="3.37913">
        <ele>58.9</ele>
        <time>2020-07-01T09:19:26Z</time>
      </trkpt>
      <trkpt lat="48.99352" lon="3.37906">
        <ele>59</ele>
        <time>2020-07-01T09:19:27Z</time>
      </trkpt>
      <trkpt lat="48.9935" lon="3.37898">
        <ele>59</ele>
        <time>2020-07-01T09:19:28Z</time>
      </trkpt>
      <trkpt lat="48.99347" lon="3.37891">
        <ele>59</ele>
        <time>2020-07-01T09:19:29Z</time>
      </trkpt>
      <trkpt lat="48.99345" lon="3.37883">
        <ele>59.1</ele>
        <time>2020-07-01T09:19:30Z</time>
      </trkpt>
      <trkpt lat="48.99343" lon="3.37876">
        <ele>59.1</ele>
        <time>2020-07-01T09:19:31Z</time>
      </trkpt>
      <trkpt lat="48.99341" lon="3.37868">
        <ele>59.1</ele>
        <time>2020-07-01T09:19:32Z</time>
      </trkpt>
      <trkpt lat="48.99338" lon="3.3786">
        <ele>59.1</ele>
        <time>2020-07-01T09:19:33Z</time>
      </trkpt>
      <trkpt lat="48.99338" lon="3.37855">
        <ele>59.1</ele>
        <time>2020-07-01T09:19:34Z</time>
      </trkpt>
      <trkpt lat="48.99336" lon="3.37848">
        <ele>59.1</ele>
        <time>2020-07-01T09:19:35Z</time>
      </trkpt>
      <trkpt lat="48.99334" lon="3.37841">
        <ele>59.1</ele>
        <time>2020-07-01T09:19:36Z</time>
      </trkpt>
      <trkpt lat="48.99331" lon="3.37834">
        <ele>59.1</ele>
        <time>2020-07-01T09:19:37Z</time>
      </trkpt>
      <trkpt lat="48.99329" lon="3.37827">
        <ele>59.1</ele>
        <time>2020-07-01T09:19:38Z</time>
      </trkpt>
      <trkpt lat="48.99326" lon="3.3782">
        <ele>59.2</ele>
        <time>2020-07-01T09:19:39Z</time>
      </trkpt>
      <trkpt lat="48.99324" lon="3.37813">
        <ele>59.2</ele>
        <time>2020-07-01T09:19:40Z</time>
      </trkpt>
      <trkpt lat="48.99321" lon="3.37806">
        <ele>59.3</ele>
        <time>2020-07-01T09:19:41Z</time>
      </trkpt>
      <trkpt lat="48.99319" lon="3.378">
        <ele>59.3</ele>
        <time>2020-07-01T09:19:42Z</time>
      </trkpt>
      <trkpt lat="48.99316" lon="3.37793">
        <ele>59.3</ele>
        <time>2020-07-01T09:19:43Z</time>
      </trkpt>
      <trkpt lat="48.99314" lon="3.37787">
        <ele>59.3</ele>
        <time>2020-07-01T09:19:44Z</time>
      </trkpt>
      <trkpt lat="48.99313" lon="3.37782">
        <ele>59.3</ele>
        <time>2020-07-01T09:19:45Z</time>
      </trkpt>
      <trkpt lat="48.99311" lon="3.37775">
        <ele>59.3</ele>
        <time>2020-07-01T09:19:46Z</time>
      </trkpt>
      <trkpt lat="48.9931" lon="3.37767">
        <ele>59.3</ele>
        <time>2020-07-01T09:19:47Z</time>
      </trkpt>
      <trkpt lat="48.99307" lon="3.3776">
        <ele>59.3</ele>
        <time>2020-07-01T09:19:48Z</time>
      </trkpt>
      <trkpt lat="48.99305" lon="3.37753">
        <ele>59.4</ele>
        <time>2020-07-01T09:19:49Z</time>
      </trkpt>
      <trkpt lat="48.99302" lon="3.37746">
        <ele>59.4</ele>
        <time>2020-07-01T09:19:50Z</time>
      </trkpt>
      <trkpt lat="48.99299" lon="3.37739">
        <ele>59.5</ele>
        <time>2020-07-01T09:19:51Z</time>
      </trkpt>
      <trkpt lat="48.99296" lon="3.37733">
        <ele>59.5</ele>
        <time>2020-07-01T09:19:52Z</time>
      </trkpt>
      <trkpt lat="48.99294" lon="3.37725">
        <ele>59.6</ele>
        <time>2020-07-01T09:19:53Z</time>
      </trkpt>
      <trkpt lat="48.99292" lon="3.37719">
        <ele>59.6</ele>
        <time>2020-07-01T09:19:54Z</time>
      </trkpt>
      <trkpt lat="48.9929" lon="3.37712">
        <ele>59.6</ele>
        <time>2020-07-01T09:19:55Z</time>
      </trkpt>
      <trkpt lat="48.99287" lon="3.37705">
        <ele>59.6</ele>
        <time>2020-07-01T09:19:56Z</time>
      </trkpt>
      <trkpt lat="48.99285" lon="3.37698">
        <ele>59.6</ele>
        <time>2020-07-01T09:19:57Z</time>
      </trkpt>
      <trkpt lat="48.99282" lon="3.37692">
        <ele>59.6</ele>
        <time>2020-07-01T09:19:58Z</time>
      </trkpt>
      <trkpt lat="48.9928" lon="3.37686">
        <ele>59.6</ele>
        <time>2020-07-01T09:19:59Z</time>
      </trkpt>
      <trkpt lat="48.99278" lon="3.3768">
        <ele>59.6</ele>
        <time>2020-07-01T09:20:00Z</time>
      </trkpt>
      <trkpt lat="48.99276" lon="3.37672">
        <ele>59.6</ele>
        <time>2020-07-01T09:20:01Z</time>
      </trkpt>
      <trkpt lat="48.99274" lon="3.37665">
        <ele>59.6</ele>
        <time>2020-07-01T09:20:02Z</time>
      </trkpt>
      <trkpt lat="48.99271" lon="3.37658">
        <ele>59.6</ele>
        <time>2020-07-01T09:20:03Z</time>
      </trkpt>
      <trkpt lat="48.99269" lon="3.37652">
        <ele>59.6</ele>
        <time>2020-07-01T09:20:04Z</time>
      </trkpt>
      <trkpt lat="48.99266" lon="3.37645">
        <ele>59.6</ele>
        <time>2020-07-01T09:20:05Z</time>
      </trkpt>
      <trkpt lat="48.99264" lon="3.37639">
        <ele>59.6</ele>
        <time>2020-07-01T09:20:06Z</time>
      </trkpt>
      <trkpt lat="48.99261" lon="3.37632">
        <ele>59.5</ele>
        <time>2020-07-01T09:20:07Z</time>
      </trkpt>
      <trkpt lat="48.99258" lon="3.37625">
        <ele>59.6</ele>
        <time>2020-07-01T09:20:08Z</time>
      </trkpt>
      <trkpt lat="48.99256" lon="3.37618">
        <ele>59.6</ele>
        <time>2020-07-01T09:20:09Z</time>
      </trkpt>
      <trkpt lat="48.99254" lon="3.37611">
        <ele>59.6</ele>
        <time>2020-07-01T09:20:10Z</time>
      </trkpt>
      <trkpt lat="48.99251" lon="3.37605">
        <ele>59.7</ele>
        <time>2020-07-01T09:20:11Z</time>
      </trkpt>
      <trkpt lat="48.9925" lon="3.37597">
        <ele>59.7</ele>
        <time>2020-07-01T09:20:12Z</time>
      </trkpt>
      <trkpt lat="48.99248" lon="3.37589">
        <ele>59.8</ele>
        <time>2020-07-01T09:20:13Z</time>
      </trkpt>
      <trkpt lat="48.99246" lon="3.37582">
        <ele>59.8</ele>
        <time>2020-07-01T09:20:14Z</time>
      </trkpt>
      <trkpt lat="48.99243" lon="3.37575">
        <ele>59.8</ele>
        <time>2020-07-01T09:20:15Z</time>
      </trkpt>
      <trkpt lat="48.99241" lon="3.37568">
        <ele>59.8</ele>
        <time>2020-07-01T09:20:16Z</time>
      </trkpt>
      <trkpt lat="48.99238" lon="3.37561">
        <ele>59.8</ele>
        <time>2020-07-01T09:20:17Z</time>
      </trkpt>
      <trkpt lat="48.99235" lon="3.37555">
        <ele>59.8</ele>
        <time>2020-07-01T09:20:18Z</time>
      </trkpt>
      <trkpt lat="48.99233" lon="3.37548">
        <ele>59.8</ele>
        <time>2020-07-01T09:20:19Z</time>
      </trkpt>
      <trkpt lat="48.99231" lon="3.37542">
        <ele>59.9</ele>
        <time>2020-07-01T09:20:20Z</time>
      </trkpt>
      <trkpt lat="48.99228" lon="3.37535">
        <ele>59.9</ele>
        <time>2020-07-01T09:20:21Z</time>
      </trkpt>
      <trkpt lat="48.99226" lon="3.37529">
        <ele>59.9</ele>
        <time>2020-07-01T09:20:22Z</time>
      </trkpt>
      <trkpt lat="48.99223" lon="3.37523">
        <ele>60</ele>
        <time>2020-07-01T09:20:23Z</time>
      </trkpt>
      <trkpt lat="48.99221" lon="3.37516">
        <ele>60.1</ele>
        <time>2020-07-01T09:20:24Z</time>
      </trkpt>
      <trkpt lat="48.99219" lon="3.3751">
        <ele>60.2</ele>
        <time>2020-07-01T09:20:25Z</time>
      </trkpt>
      <trkpt lat="48.99217" lon="3.37504">
        <ele>60.3</ele>
        <time>2020-07-01T09:20:26Z</time>
      </trkpt>
      <trkpt lat="48.99215" lon="3.37497">
        <ele>60.4</ele>
        <time>2020-07-01T09:20:27Z</time>
      </trkpt>
      <trkpt lat="48.99212" lon="3.37492">
        <ele>60.5</ele>
        <time>2020-07-01T09:20:28Z</time>
      </trkpt>
      <trkpt lat="48.9921" lon="3.37486">
        <ele>60.5</ele>
        <time>2020-07-01T09:20:29Z</time>
      </trkpt>
      <trkpt lat="48.99208" lon="3.37479">
        <ele>60.6</ele>
        <time>2020-07-01T09:20:30Z</time>
      </trkpt>
      <trkpt lat="48.99207" lon="3.37472">
        <ele>60.7</ele>
        <time>2020-07-01T09:20:31Z</time>
      </trkpt>
      <trkpt lat="48.99205" lon="3.37465">
        <ele>60.8</ele>
        <time>2020-07-01T09:20:32Z</time>
      </trkpt>
      <trkpt lat="48.99203" lon="3.37459">
        <ele>60.8</ele>
        <time>2020-07-01T09:20:33Z</time>
      </trkpt>
      <trkpt lat="48.99201" lon="3.37453">
        <ele>60.9</ele>
        <time>2020-07-01T09:20:34Z</time>
      </trkpt>
      <trkpt lat="48.99199" lon="3.37447">
        <ele>61</ele>
        <time>2020-07-01T09:20:35Z</time>
      </trkpt>
      <trkpt lat="48.99197" lon="3.37441">
        <ele>61.1</ele>
        <time>2020-07-01T09:20:36Z</time>
      </trkpt>
      <trkpt lat="48.99196" lon="3.37435">
        <ele>61.1</ele>
        <time>2020-07-01T09:20:37Z</time>
      </trkpt>
      <trkpt lat="48.99194" lon="3.3743">
        <ele>61.2</ele>
        <time>2020-07-01T09:20:38Z</time>
      </trkpt>
      <trkpt lat="48.99193" lon="3.37424">
        <ele>61.3</ele>
        <time>2020-07-01T09:20:39Z</time>
      </trkpt>
      <trkpt lat="48.99191" lon="3.37418">
        <ele>61.4</ele>
        <time>2020-07-01T09:20:40Z</time>
      </trkpt>
      <trkpt lat="48.99189" lon="3.37413">
        <ele>61.5</ele>
        <time>2020-07-01T09:20:41Z</time>
      </trkpt>
      <trkpt lat="48.99187" lon="3.37407">
        <ele>61.6</ele>
        <time>2020-07-01T09:20:42Z</time>
      </trkpt>
      <trkpt lat="48.99186" lon="3.37402">
        <ele>61.6</ele>
        <time>2020-07-01T09:20:43Z</time>
      </trkpt>
      <trkpt lat="48.99184" lon="3.37396">
        <ele>61.7</ele>
        <time>2020-07-01T09:20:44Z</time>
      </trkpt>
      <trkpt lat="48.99181" lon="3.37389">
        <ele>61.8</ele>
        <time>2020-07-01T09:20:45Z</time>
      </trkpt>
      <trkpt lat="48.99179" lon="3.37383">
        <ele>61.9</ele>
        <time>2020-07-01T09:20:46Z</time>
      </trkpt>
      <trkpt lat="48.99177" lon="3.37377">
        <ele>62</ele>
        <time>2020-07-01T09:20:47Z</time>
      </trkpt>
      <trkpt lat="48.99175" lon="3.37371">
        <ele>62.1</ele>
        <time>2020-07-01T09:20:48Z</time>
      </trkpt>
      <trkpt lat="48.99173" lon="3.37366">
        <ele>62.2</ele>
        <time>2020-07-01T09:20:49Z</time>
      </trkpt>
      <trkpt lat="48.99171" lon="3.3736">
        <ele>62.3</ele>
        <time>2020-07-01T09:20:50Z</time>
      </trkpt>
      <trkpt lat="48.99169" lon="3.37356">
        <ele>62.4</ele>
        <time>2020-07-01T09:20:51Z</time>
      </trkpt>
      <trkpt lat="48.99168" lon="3.3735">
        <ele>62.5</ele>
        <time>2020-07-01T09:20:52Z</time>
      </trkpt>
      <trkpt lat="48.99167" lon="3.37345">
        <ele>62.6</ele>
        <time>2020-07-01T09:20:53Z</time>
      </trkpt>
      <trkpt lat="48.99165" lon="3.37339">
        <ele>62.7</ele>
        <time>2020-07-01T09:20:54Z</time>
      </trkpt>
      <trkpt lat="48.99163" lon="3.37334">
        <ele>62.9</ele>
        <time>2020-07-01T09:20:55Z</time>
      </trkpt>
      <trkpt lat="48.99162" lon="3.37329">
        <ele>63</ele>
        <time>2020-07-01T09:20:56Z</time>
      </trkpt>
      <trkpt lat="48.9916" lon="3.37324">
        <ele>63.1</ele>
        <time>2020-07-01T09:20:57Z</time>
      </trkpt>
      <trkpt lat="48.99158" lon="3.37318">
        <ele>63.2</ele>
        <time>2020-07-01T09:20:58Z</time>
      </trkpt>
      <trkpt lat="48.99156" lon="3.37312">
        <ele>63.4</ele>
        <time>2020-07-01T09:20:59Z</time>
      </trkpt>
      <trkpt lat="48.99155" lon="3.37307">
        <ele>63.5</ele>
        <time>2020-07-01T09:21:00Z</time>
      </trkpt>
      <trkpt lat="48.99153" lon="3.37301">
        <ele>63.6</ele>
        <time>2020-07-01T09:21:01Z</time>
      </trkpt>
      <trkpt lat="48.99152" lon="3.37296">
        <ele>63.7</ele>
        <time>2020-07-01T09:21:02Z</time>
      </trkpt>
      <trkpt lat="48.9915" lon="3.3729">
        <ele>63.8</ele>
        <time>2020-07-01T09:21:03Z</time>
      </trkpt>
      <trkpt lat="48.99149" lon="3.37284">
        <ele>63.9</ele>
        <time>2020-07-01T09:21:04Z</time>
      </trkpt>
      <trkpt lat="48.99148" lon="3.37279">
        <ele>64.1</ele>
        <time>2020-07-01T09:21:05Z</time>
      </trkpt>
      <trkpt lat="48.99146" lon="3.37274">
        <ele>64.2</ele>
        <time>2020-07-01T09:21:06Z</time>
      </trkpt>
      <trkpt lat="48.99145" lon="3.37269">
        <ele>64.3</ele>
        <time>2020-07-01T09:21:07Z</time>
      </trkpt>
      <trkpt lat="48.99143" lon="3.37264">
        <ele>64.4</ele>
        <time>2020-07-01T09:21:08Z</time>
      </trkpt>
      <trkpt lat="48.99141" lon="3.37259">
        <ele>64.5</ele>
        <time>2020-07-01T09:21:09Z</time>
      </trkpt>
      <trkpt lat="48.9914" lon="3.37252">
        <ele>64.6</ele>
        <time>2020-07-01T09:21:10Z</time>
      </trkpt>
      <trkpt lat="48.99139" lon="3.37247">
        <ele>64.7</ele>
        <time>2020-07-01T09:21:11Z</time>
      </trkpt>
      <trkpt lat="48.99137" lon="3.37242">
        <ele>64.9</ele>
        <time>2020-07-01T09:21:12Z</time>
      </trkpt>
      <trkpt lat="48.99136" lon="3.37237">
        <ele>65</ele>
        <time>2020-07-01T09:21:13Z</time>
      </trkpt>
      <trkpt lat="48.99134" lon="3.37231">
        <ele>65.1</ele>
        <time>2020-07-01T09:21:14Z</time>
      </trkpt>
      <trkpt lat="48.99131" lon="3.37225">
        <ele>65.2</ele>
        <time>2020-07-01T09:21:15Z</time>
      </trkpt>
      <trkpt lat="48.99128" lon="3.37219">
        <ele>65.4</ele>
        <time>2020-07-01T09:21:16Z</time>
      </trkpt>
      <trkpt lat="48.99126" lon="3.37214">
        <ele>65.5</ele>
        <time>2020-07-01T09:21:17Z</time>
      </trkpt>
      <trkpt lat="48.99124" lon="3.37209">
        <ele>65.6</ele>
        <time>2020-07-01T09:21:18Z</time>
      </trkpt>
      <trkpt lat="48.99123" lon="3.37203">
        <ele>65.7</ele>
        <time>2020-07-01T09:21:19Z</time>
      </trkpt>
      <trkpt lat="48.99121" lon="3.37198">
        <ele>65.8</ele>
        <time>2020-07-01T09:21:20Z</time>
      </trkpt>
      <trkpt lat="48.99119" lon="3.37193">
        <ele>65.9</ele>
        <time>2020-07-01T09:21:21Z</time>
      </trkpt>
      <trkpt lat="48.99118" lon="3.37187">
        <ele>66</ele>
        <time>2020-07-01T09:21:22Z</time>
      </trkpt>
      <trkpt lat="48.99117" lon="3.37182">
        <ele>66.2</ele>
        <time>2020-07-01T09:21:23Z</time>
      </trkpt>
      <trkpt lat="48.99115" lon="3.37176">
        <ele>66.3</ele>
        <time>2020-07-01T09:21:24Z</time>
      </trkpt>
      <trkpt lat="48.99113" lon="3.37171">
        <ele>66.4</ele>
        <time>2020-07-01T09:21:25Z</time>
      </trkpt>
      <trkpt lat="48.99111" lon="3.37167">
        <ele>66.5</ele>
        <time>2020-07-01T09:21:26Z</time>
      </trkpt>
      <trkpt lat="48.99109" lon="3.37162">
        <ele>66.6</ele>
        <time>2020-07-01T09:21:27Z</time>
      </trkpt>
      <trkpt lat="48.99108" lon="3.37158">
        <ele>66.7</ele>
        <time>2020-07-01T09:21:28Z</time>
      </trkpt>
      <trkpt lat="48.99105" lon="3.37154">
        <ele>66.8</ele>
        <time>2020-07-01T09:21:29Z</time>
      </trkpt>
      <trkpt lat="48.99104" lon="3.37149">
        <ele>67</ele>
        <time>2020-07-01T09:21:30Z</time>
      </trkpt>
      <trkpt lat="48.99103" lon="3.37144">
        <ele>67.1</ele>
        <time>2020-07-01T09:21:31Z</time>
      </trkpt>
      <trkpt lat="48.99101" lon="3.37138">
        <ele>67.2</ele>
        <time>2020-07-01T09:21:32Z</time>
      </trkpt>
      <trkpt lat="48.99098" lon="3.37133">
        <ele>67.4</ele>
        <time>2020-07-01T09:21:33Z</time>
      </trkpt>
      <trkpt lat="48.99097" lon="3.37128">
        <ele>67.5</ele>
        <time>2020-07-01T09:21:34Z</time>
      </trkpt>
      <trkpt lat="48.99095" lon="3.37124">
        <ele>67.6</ele>
        <time>2020-07-01T09:21:35Z</time>
      </trkpt>
      <trkpt lat="48.99094" lon="3.3712">
        <ele>67.7</ele>
        <time>2020-07-01T09:21:36Z</time>
      </trkpt>
      <trkpt lat="48.99092" lon="3.37116">
        <ele>67.7</ele>
        <time>2020-07-01T09:21:37Z</time>
      </trkpt>
      <trkpt lat="48.99091" lon="3.37111">
        <ele>67.9</ele>
        <time>2020-07-01T09:21:38Z</time>
      </trkpt>
      <trkpt lat="48.9909" lon="3.37106">
        <ele>68</ele>
        <time>2020-07-01T09:21:39Z</time>
      </trkpt>
      <trkpt lat="48.99088" lon="3.37101">
        <ele>68.2</ele>
        <time>2020-07-01T09:21:40Z</time>
      </trkpt>
      <trkpt lat="48.99086" lon="3.37097">
        <ele>68.3</ele>
        <time>2020-07-01T09:21:41Z</time>
      </trkpt>
      <trkpt lat="48.99085" lon="3.37093">
        <ele>68.4</ele>
        <time>2020-07-01T09:21:42Z</time>
      </trkpt>
      <trkpt lat="48.99083" lon="3.37088">
        <ele>68.6</ele>
        <time>2020-07-01T09:21:43Z</time>
      </trkpt>
      <trkpt lat="48.99082" lon="3.37086">
        <ele>68.6</ele>
        <time>2020-07-01T09:21:44Z</time>
      </trkpt>
      <trkpt lat="48.9908" lon="3.37082">
        <ele>68.7</ele>
        <time>2020-07-01T09:21:45Z</time>
      </trkpt>
      <trkpt lat="48.99078" lon="3.37077">
        <ele>68.8</ele>
        <time>2020-07-01T09:21:46Z</time>
      </trkpt>
      <trkpt lat="48.99078" lon="3.37075">
        <ele>68.9</ele>
        <time>2020-07-01T09:21:47Z</time>
      </trkpt>
      <trkpt lat="48.99076" lon="3.3707">
        <ele>68.9</ele>
        <time>2020-07-01T09:21:48Z</time>
      </trkpt>
      <trkpt lat="48.99075" lon="3.37066">
        <ele>69</ele>
        <time>2020-07-01T09:21:49Z</time>
      </trkpt>
      <trkpt lat="48.99074" lon="3.37061">
        <ele>69.1</ele>
        <time>2020-07-01T09:21:50Z</time>
      </trkpt>
      <trkpt lat="48.99072" lon="3.37055">
        <ele>69.1</ele>
        <time>2020-07-01T09:21:51Z</time>
      </trkpt>
      <trkpt lat="48.99071" lon="3.3705">
        <ele>69.2</ele>
        <time>2020-07-01T09:21:52Z</time>
      </trkpt>
      <trkpt lat="48.99069" lon="3.37045">
        <ele>69.2</ele>
        <time>2020-07-01T09:21:53Z</time>
      </trkpt>
      <trkpt lat="48.99066" lon="3.37039">
        <ele>69.2</ele>
        <time>2020-07-01T09:21:54Z</time>
      </trkpt>
      <trkpt lat="48.99063" lon="3.37033">
        <ele>69.1</ele>
        <time>2020-07-01T09:21:55Z</time>
      </trkpt>
      <trkpt lat="48.99061" lon="3.37029">
        <ele>69.1</ele>
        <time>2020-07-01T09:21:56Z</time>
      </trkpt>
      <trkpt lat="48.99059" lon="3.37025">
        <ele>69.1</ele>
        <time>2020-07-01T09:21:57Z</time>
      </trkpt>
      <trkpt lat="48.99057" lon="3.37021">
        <ele>69</ele>
        <time>2020-07-01T09:21:58Z</time>
      </trkpt>
      <trkpt lat="48.99055" lon="3.37018">
        <ele>69</ele>
        <time>2020-07-01T09:21:59Z</time>
      </trkpt>
      <trkpt lat="48.99053" lon="3.37013">
        <ele>68.9</ele>
        <time>2020-07-01T09:22:00Z</time>
      </trkpt>
      <trkpt lat="48.99051" lon="3.37009">
        <ele>68.8</ele>
        <time>2020-07-01T09:22:01Z</time>
      </trkpt>
      <trkpt lat="48.99048" lon="3.37004">
        <ele>68.7</ele>
        <time>2020-07-01T09:22:02Z</time>
      </trkpt>
      <trkpt lat="48.99046" lon="3.36999">
        <ele>68.6</ele>
        <time>2020-07-01T09:22:03Z</time>
      </trkpt>
      <trkpt lat="48.99043" lon="3.36993">
        <ele>68.4</ele>
        <time>2020-07-01T09:22:04Z</time>
      </trkpt>
      <trkpt lat="48.9904" lon="3.36988">
        <ele>68.2</ele>
        <time>2020-07-01T09:22:05Z</time>
      </trkpt>
      <trkpt lat="48.99038" lon="3.36984">
        <ele>68</ele>
        <time>2020-07-01T09:22:06Z</time>
      </trkpt>
      <trkpt lat="48.99034" lon="3.36978">
        <ele>67.8</ele>
        <time>2020-07-01T09:22:07Z</time>
      </trkpt>
      <trkpt lat="48.99031" lon="3.36973">
        <ele>67.5</ele>
        <time>2020-07-01T09:22:08Z</time>
      </trkpt>
      <trkpt lat="48.99027" lon="3.36968">
        <ele>67.2</ele>
        <time>2020-07-01T09:22:09Z</time>
      </trkpt>
      <trkpt lat="48.99023" lon="3.36961">
        <ele>66.9</ele>
        <time>2020-07-01T09:22:10Z</time>
      </trkpt>
      <trkpt lat="48.99018" lon="3.36953">
        <ele>66.4</ele>
        <time>2020-07-01T09:22:11Z</time>
      </trkpt>
      <trkpt lat="48.99013" lon="3.36946">
        <ele>66</ele>
        <time>2020-07-01T09:22:12Z</time>
      </trkpt>
      <trkpt lat="48.99008" lon="3.36939">
        <ele>65.6</ele>
        <time>2020-07-01T09:22:13Z</time>
      </trkpt>
      <trkpt lat="48.99003" lon="3.36932">
        <ele>65.3</ele>
        <time>2020-07-01T09:22:14Z</time>
      </trkpt>
      <trkpt lat="48.98998" lon="3.36925">
        <ele>64.9</ele>
        <time>2020-07-01T09:22:15Z</time>
      </trkpt>
      <trkpt lat="48.98992" lon="3.36917">
        <ele>64.5</ele>
        <time>2020-07-01T09:22:16Z</time>
      </trkpt>
      <trkpt lat="48.98988" lon="3.36909">
        <ele>64.3</ele>
        <time>2020-07-01T09:22:17Z</time>
      </trkpt>
      <trkpt lat="48.98984" lon="3.36899">
        <ele>63.9</ele>
        <time>2020-07-01T09:22:18Z</time>
      </trkpt>
      <trkpt lat="48.98979" lon="3.36887">
        <ele>63.6</ele>
        <time>2020-07-01T09:22:19Z</time>
      </trkpt>
      <trkpt lat="48.98974" lon="3.36876">
        <ele>63.4</ele>
        <time>2020-07-01T09:22:20Z</time>
      </trkpt>
      <trkpt lat="48.98971" lon="3.36866">
        <ele>63.3</ele>
        <time>2020-07-01T09:22:21Z</time>
      </trkpt>
      <trkpt lat="48.98969" lon="3.36853">
        <ele>63.1</ele>
        <time>2020-07-01T09:22:22Z</time>
      </trkpt>
      <trkpt lat="48.98969" lon="3.3684">
        <ele>63</ele>
        <time>2020-07-01T09:22:23Z</time>
      </trkpt>
      <trkpt lat="48.98969" lon="3.36828">
        <ele>62.9</ele>
        <time>2020-07-01T09:22:24Z</time>
      </trkpt>
      <trkpt lat="48.9897" lon="3.36817">
        <ele>62.8</ele>
        <time>2020-07-01T09:22:25Z</time>
      </trkpt>
      <trkpt lat="48.9897" lon="3.36806">
        <ele>62.7</ele>
        <time>2020-07-01T09:22:26Z</time>
      </trkpt>
      <trkpt lat="48.9897" lon="3.36795">
        <ele>62.7</ele>
        <time>2020-07-01T09:22:27Z</time>
      </trkpt>
      <trkpt lat="48.98969" lon="3.36785">
        <ele>62.6</ele>
        <time>2020-07-01T09:22:28Z</time>
      </trkpt>
      <trkpt lat="48.98969" lon="3.36774">
        <ele>62.5</ele>
        <time>2020-07-01T09:22:29Z</time>
      </trkpt>
      <trkpt lat="48.98968" lon="3.36764">
        <ele>62.5</ele>
        <time>2020-07-01T09:22:30Z</time>
      </trkpt>
      <trkpt lat="48.98968" lon="3.36753">
        <ele>62.5</ele>
        <time>2020-07-01T09:22:31Z</time>
      </trkpt>
      <trkpt lat="48.98967" lon="3.36743">
        <ele>62.5</ele>
        <time>2020-07-01T09:22:32Z</time>
      </trkpt>
      <trkpt lat="48.98967" lon="3.36734">
        <ele>62.5</ele>
        <time>2020-07-01T09:22:33Z</time>
      </trkpt>
      <trkpt lat="48.98966" lon="3.36724">
        <ele>62.5</ele>
        <time>2020-07-01T09:22:34Z</time>
      </trkpt>
      <trkpt lat="48.98965" lon="3.36715">
        <ele>62.4</ele>
        <time>2020-07-01T09:22:35Z</time>
      </trkpt>
      <trkpt lat="48.98964" lon="3.36706">
        <ele>62.3</ele>
        <time>2020-07-01T09:22:36Z</time>
      </trkpt>
      <trkpt lat="48.98963" lon="3.36696">
        <ele>62.2</ele>
        <time>2020-07-01T09:22:37Z</time>
      </trkpt>
      <trkpt lat="48.98962" lon="3.36687">
        <ele>62.2</ele>
        <time>2020-07-01T09:22:38Z</time>
      </trkpt>
      <trkpt lat="48.98962" lon="3.36679">
        <ele>62.3</ele>
        <time>2020-07-01T09:22:39Z</time>
      </trkpt>
      <trkpt lat="48.98962" lon="3.36671">
        <ele>62.3</ele>
        <time>2020-07-01T09:22:40Z</time>
      </trkpt>
      <trkpt lat="48.98962" lon="3.36663">
        <ele>62.4</ele>
        <time>2020-07-01T09:22:41Z</time>
      </trkpt>
      <trkpt lat="48.98962" lon="3.36655">
        <ele>62.4</ele>
        <time>2020-07-01T09:22:42Z</time>
      </trkpt>
      <trkpt lat="48.98962" lon="3.36649">
        <ele>62.5</ele>
        <time>2020-07-01T09:22:43Z</time>
      </trkpt>
      <trkpt lat="48.9896" lon="3.36644">
        <ele>62.5</ele>
        <time>2020-07-01T09:22:44Z</time>
      </trkpt>
      <trkpt lat="48.98959" lon="3.36639">
        <ele>62.6</ele>
        <time>2020-07-01T09:22:45Z</time>
      </trkpt>
      <trkpt lat="48.98958" lon="3.36637">
        <ele>62.6</ele>
        <time>2020-07-01T09:22:46Z</time>
      </trkpt>
      <trkpt lat="48.98958" lon="3.36631">
        <ele>62.7</ele>
        <time>2020-07-01T09:22:47Z</time>
      </trkpt>
      <trkpt lat="48.98959" lon="3.36628">
        <ele>62.7</ele>
        <time>2020-07-01T09:22:48Z</time>
      </trkpt>
      <trkpt lat="48.98959" lon="3.36623">
        <ele>62.8</ele>
        <time>2020-07-01T09:22:49Z</time>
      </trkpt>
      <trkpt lat="48.9896" lon="3.36619">
        <ele>62.8</ele>
        <time>2020-07-01T09:22:50Z</time>
      </trkpt>
      <trkpt lat="48.98961" lon="3.36615">
        <ele>62.9</ele>
        <time>2020-07-01T09:22:51Z</time>
      </trkpt>
      <trkpt lat="48.98962" lon="3.36609">
        <ele>62.9</ele>
        <time>2020-07-01T09:22:52Z</time>
      </trkpt>
      <trkpt lat="48.98962" lon="3.36607">
        <ele>63</ele>
        <time>2020-07-01T09:22:53Z</time>
      </trkpt>
      <trkpt lat="48.98963" lon="3.36602">
        <ele>63</ele>
        <time>2020-07-01T09:22:54Z</time>
      </trkpt>
      <trkpt lat="48.98964" lon="3.36598">
        <ele>63</ele>
        <time>2020-07-01T09:22:55Z</time>
      </trkpt>
      <trkpt lat="48.98964" lon="3.36594">
        <ele>63.1</ele>
        <time>2020-07-01T09:22:56Z</time>
      </trkpt>
      <trkpt lat="48.98963" lon="3.3659">
        <ele>63.1</ele>
        <time>2020-07-01T09:22:57Z</time>
      </trkpt>
      <trkpt lat="48.98962" lon="3.36585">
        <ele>63.2</ele>
        <time>2020-07-01T09:22:58Z</time>
      </trkpt>
      <trkpt lat="48.98962" lon="3.36579">
        <ele>63.2</ele>
        <time>2020-07-01T09:22:59Z</time>
      </trkpt>
      <trkpt lat="48.98961" lon="3.36573">
        <ele>63.3</ele>
        <time>2020-07-01T09:23:00Z</time>
      </trkpt>
      <trkpt lat="48.98961" lon="3.36568">
        <ele>63.3</ele>
        <time>2020-07-01T09:23:01Z</time>
      </trkpt>
      <trkpt lat="48.98961" lon="3.36562">
        <ele>63.4</ele>
        <time>2020-07-01T09:23:02Z</time>
      </trkpt>
      <trkpt lat="48.98961" lon="3.36556">
        <ele>63.5</ele>
        <time>2020-07-01T09:23:03Z</time>
      </trkpt>
      <trkpt lat="48.9896" lon="3.36551">
        <ele>63.5</ele>
        <time>2020-07-01T09:23:04Z</time>
      </trkpt>
      <trkpt lat="48.9896" lon="3.36546">
        <ele>63.6</ele>
        <time>2020-07-01T09:23:05Z</time>
      </trkpt>
      <trkpt lat="48.98959" lon="3.36541">
        <ele>63.6</ele>
        <time>2020-07-01T09:23:06Z</time>
      </trkpt>
      <trkpt lat="48.98959" lon="3.36535">
        <ele>63.7</ele>
        <time>2020-07-01T09:23:07Z</time>
      </trkpt>
      <trkpt lat="48.98958" lon="3.3653">
        <ele>63.8</ele>
        <time>2020-07-01T09:23:08Z</time>
      </trkpt>
      <trkpt lat="48.98958" lon="3.36525">
        <ele>63.8</ele>
        <time>2020-07-01T09:23:09Z</time>
      </trkpt>
      <trkpt lat="48.98958" lon="3.3652">
        <ele>63.9</ele>
        <time>2020-07-01T09:23:10Z</time>
      </trkpt>
      <trkpt lat="48.9896" lon="3.36515">
        <ele>64</ele>
        <time>2020-07-01T09:23:11Z</time>
      </trkpt>
      <trkpt lat="48.98961" lon="3.3651">
        <ele>64</ele>
        <time>2020-07-01T09:23:12Z</time>
      </trkpt>
      <trkpt lat="48.98962" lon="3.36506">
        <ele>64.1</ele>
        <time>2020-07-01T09:23:13Z</time>
      </trkpt>
      <trkpt lat="48.98962" lon="3.36501">
        <ele>64.2</ele>
        <time>2020-07-01T09:23:14Z</time>
      </trkpt>
      <trkpt lat="48.98962" lon="3.365">
        <ele>64.2</ele>
        <time>2020-07-01T09:23:15Z</time>
      </trkpt>
      <trkpt lat="48.98963" lon="3.36493">
        <ele>64.3</ele>
        <time>2020-07-01T09:23:16Z</time>
      </trkpt>
      <trkpt lat="48.98963" lon="3.36491">
        <ele>64.3</ele>
        <time>2020-07-01T09:23:17Z</time>
      </trkpt>
      <trkpt lat="48.98961" lon="3.36484">
        <ele>64.4</ele>
        <time>2020-07-01T09:23:18Z</time>
      </trkpt>
      <trkpt lat="48.98959" lon="3.36477">
        <ele>64.5</ele>
        <time>2020-07-01T09:23:19Z</time>
      </trkpt>
      <trkpt lat="48.98958" lon="3.3647">
        <ele>64.5</ele>
        <time>2020-07-01T09:23:20Z</time>
      </trkpt>
      <trkpt lat="48.98957" lon="3.36463">
        <ele>64.6</ele>
        <time>2020-07-01T09:23:21Z</time>
      </trkpt>
      <trkpt lat="48.98957" lon="3.36456">
        <ele>64.7</ele>
        <time>2020-07-01T09:23:22Z</time>
      </trkpt>
      <trkpt lat="48.98956" lon="3.36449">
        <ele>64.7</ele>
        <time>2020-07-01T09:23:23Z</time>
      </trkpt>
      <trkpt lat="48.98956" lon="3.36441">
        <ele>64.7</ele>
        <time>2020-07-01T09:23:24Z</time>
      </trkpt>
      <trkpt lat="48.98955" lon="3.36432">
        <ele>64.7</ele>
        <time>2020-07-01T09:23:25Z</time>
      </trkpt>
      <trkpt lat="48.98955" lon="3.36426">
        <ele>64.7</ele>
        <time>2020-07-01T09:23:26Z</time>
      </trkpt>
      <trkpt lat="48.98954" lon="3.3642">
        <ele>64.7</ele>
        <time>2020-07-01T09:23:27Z</time>
      </trkpt>
      <trkpt lat="48.98954" lon="3.36415">
        <ele>64.6</ele>
        <time>2020-07-01T09:23:28Z</time>
      </trkpt>
      <trkpt lat="48.98953" lon="3.3641">
        <ele>64.8</ele>
        <time>2020-07-01T09:23:29Z</time>
      </trkpt>
      <trkpt lat="48.98952" lon="3.36405">
        <ele>64.9</ele>
        <time>2020-07-01T09:23:30Z</time>
      </trkpt>
      <trkpt lat="48.98951" lon="3.36398">
        <ele>65.1</ele>
        <time>2020-07-01T09:23:31Z</time>
      </trkpt>
      <trkpt lat="48.9895" lon="3.36392">
        <ele>65.3</ele>
        <time>2020-07-01T09:23:32Z</time>
      </trkpt>
      <trkpt lat="48.9895" lon="3.36387">
        <ele>65.4</ele>
        <time>2020-07-01T09:23:33Z</time>
      </trkpt>
      <trkpt lat="48.98949" lon="3.36383">
        <ele>65.5</ele>
        <time>2020-07-01T09:23:34Z</time>
      </trkpt>
      <trkpt lat="48.98949" lon="3.36378">
        <ele>65.7</ele>
        <time>2020-07-01T09:23:35Z</time>
      </trkpt>
      <trkpt lat="48.98948" lon="3.36371">
        <ele>65.9</ele>
        <time>2020-07-01T09:23:36Z</time>
      </trkpt>
      <trkpt lat="48.98948" lon="3.36365">
        <ele>66.1</ele>
        <time>2020-07-01T09:23:37Z</time>
      </trkpt>
      <trkpt lat="48.98949" lon="3.36358">
        <ele>66.4</ele>
        <time>2020-07-01T09:23:38Z</time>
      </trkpt>
      <trkpt lat="48.98949" lon="3.36353">
        <ele>66.6</ele>
        <time>2020-07-01T09:23:39Z</time>
      </trkpt>
      <trkpt lat="48.98949" lon="3.36346">
        <ele>66.9</ele>
        <time>2020-07-01T09:23:40Z</time>
      </trkpt>
      <trkpt lat="48.98948" lon="3.36341">
        <ele>67.1</ele>
        <time>2020-07-01T09:23:41Z</time>
      </trkpt>
      <trkpt lat="48.98948" lon="3.36339">
        <ele>67.2</ele>
        <time>2020-07-01T09:23:42Z</time>
      </trkpt>
      <trkpt lat="48.98949" lon="3.36333">
        <ele>67.5</ele>
        <time>2020-07-01T09:23:43Z</time>
      </trkpt>
      <trkpt lat="48.9895" lon="3.36327">
        <ele>67.7</ele>
        <time>2020-07-01T09:23:44Z</time>
      </trkpt>
      <trkpt lat="48.98951" lon="3.36323">
        <ele>68</ele>
        <time>2020-07-01T09:23:45Z</time>
      </trkpt>
      <trkpt lat="48.98953" lon="3.36319">
        <ele>68.2</ele>
        <time>2020-07-01T09:23:46Z</time>
      </trkpt>
      <trkpt lat="48.98954" lon="3.36314">
        <ele>68.4</ele>
        <time>2020-07-01T09:23:47Z</time>
      </trkpt>
      <trkpt lat="48.98955" lon="3.36309">
        <ele>68.6</ele>
        <time>2020-07-01T09:23:48Z</time>
      </trkpt>
      <trkpt lat="48.98957" lon="3.36304">
        <ele>68.9</ele>
        <time>2020-07-01T09:23:49Z</time>
      </trkpt>
      <trkpt lat="48.98958" lon="3.36303">
        <ele>69</ele>
        <time>2020-07-01T09:23:50Z</time>
      </trkpt>
      <trkpt lat="48.9896" lon="3.36299">
        <ele>69.2</ele>
        <time>2020-07-01T09:23:51Z</time>
      </trkpt>
      <trkpt lat="48.98961" lon="3.36298">
        <ele>69.3</ele>
        <time>2020-07-01T09:23:52Z</time>
      </trkpt>
      <trkpt lat="48.98964" lon="3.36296">
        <ele>69.5</ele>
        <time>2020-07-01T09:23:53Z</time>
      </trkpt>
      <trkpt lat="48.98967" lon="3.36292">
        <ele>69.7</ele>
        <time>2020-07-01T09:23:54Z</time>
      </trkpt>
      <trkpt lat="48.98968" lon="3.3629">
        <ele>69.8</ele>
        <time>2020-07-01T09:23:55Z</time>
      </trkpt>
      <trkpt lat="48.98971" lon="3.36287">
        <ele>70.1</ele>
        <time>2020-07-01T09:23:56Z</time>
      </trkpt>
      <trkpt lat="48.98974" lon="3.36283">
        <ele>70.3</ele>
        <time>2020-07-01T09:23:57Z</time>
      </trkpt>
      <trkpt lat="48.98976" lon="3.3628">
        <ele>70.5</ele>
        <time>2020-07-01T09:23:58Z</time>
      </trkpt>
      <trkpt lat="48.98979" lon="3.36277">
        <ele>70.8</ele>
        <time>2020-07-01T09:23:59Z</time>
      </trkpt>
      <trkpt lat="48.98983" lon="3.36275">
        <ele>71</ele>
        <time>2020-07-01T09:24:00Z</time>
      </trkpt>
      <trkpt lat="48.98984" lon="3.36274">
        <ele>71.1</ele>
        <time>2020-07-01T09:24:01Z</time>
      </trkpt>
      <trkpt lat="48.98987" lon="3.3627">
        <ele>71.4</ele>
        <time>2020-07-01T09:24:02Z</time>
      </trkpt>
      <trkpt lat="48.98988" lon="3.36269">
        <ele>71.5</ele>
        <time>2020-07-01T09:24:03Z</time>
      </trkpt>
      <trkpt lat="48.98991" lon="3.36265">
        <ele>71.8</ele>
        <time>2020-07-01T09:24:04Z</time>
      </trkpt>
      <trkpt lat="48.98993" lon="3.36263">
        <ele>71.9</ele>
        <time>2020-07-01T09:24:05Z</time>
      </trkpt>
      <trkpt lat="48.98996" lon="3.36261">
        <ele>72.1</ele>
        <time>2020-07-01T09:24:06Z</time>
      </trkpt>
      <trkpt lat="48.98997" lon="3.36259">
        <ele>72.2</ele>
        <time>2020-07-01T09:24:07Z</time>
      </trkpt>
      <trkpt lat="48.99" lon="3.36257">
        <ele>72.4</ele>
        <time>2020-07-01T09:24:08Z</time>
      </trkpt>
      <trkpt lat="48.99002" lon="3.36255">
        <ele>72.8</ele>
        <time>2020-07-01T09:24:09Z</time>
      </trkpt>
      <trkpt lat="48.99003" lon="3.36253">
        <ele>72.9</ele>
        <time>2020-07-01T09:24:10Z</time>
      </trkpt>
      <trkpt lat="48.99007" lon="3.36251">
        <ele>73.1</ele>
        <time>2020-07-01T09:24:11Z</time>
      </trkpt>
      <trkpt lat="48.99008" lon="3.3625">
        <ele>73.2</ele>
        <time>2020-07-01T09:24:12Z</time>
      </trkpt>
      <trkpt lat="48.99011" lon="3.36247">
        <ele>73.5</ele>
        <time>2020-07-01T09:24:13Z</time>
      </trkpt>
      <trkpt lat="48.99014" lon="3.36244">
        <ele>73.7</ele>
        <time>2020-07-01T09:24:14Z</time>
      </trkpt>
      <trkpt lat="48.99015" lon="3.36242">
        <ele>73.9</ele>
        <time>2020-07-01T09:24:15Z</time>
      </trkpt>
      <trkpt lat="48.99017" lon="3.36239">
        <ele>74.1</ele>
        <time>2020-07-01T09:24:16Z</time>
      </trkpt>
      <trkpt lat="48.9902" lon="3.36236">
        <ele>74.4</ele>
        <time>2020-07-01T09:24:17Z</time>
      </trkpt>
      <trkpt lat="48.99021" lon="3.36235">
        <ele>74.4</ele>
        <time>2020-07-01T09:24:18Z</time>
      </trkpt>
      <trkpt lat="48.99023" lon="3.36232">
        <ele>74.7</ele>
        <time>2020-07-01T09:24:19Z</time>
      </trkpt>
      <trkpt lat="48.99024" lon="3.36231">
        <ele>74.8</ele>
        <time>2020-07-01T09:24:20Z</time>
      </trkpt>
      <trkpt lat="48.99026" lon="3.36228">
        <ele>75</ele>
        <time>2020-07-01T09:24:21Z</time>
      </trkpt>
      <trkpt lat="48.99027" lon="3.36224">
        <ele>75.2</ele>
        <time>2020-07-01T09:24:22Z</time>
      </trkpt>
      <trkpt lat="48.99028" lon="3.36222">
        <ele>75.3</ele>
        <time>2020-07-01T09:24:23Z</time>
      </trkpt>
      <trkpt lat="48.99028" lon="3.36216">
        <ele>75.6</ele>
        <time>2020-07-01T09:24:24Z</time>
      </trkpt>
      <trkpt lat="48.99029" lon="3.36214">
        <ele>75.7</ele>
        <time>2020-07-01T09:24:25Z</time>
      </trkpt>
      <trkpt lat="48.99029" lon="3.3621">
        <ele>75.9</ele>
        <time>2020-07-01T09:24:26Z</time>
      </trkpt>
      <trkpt lat="48.9903" lon="3.36205">
        <ele>76.2</ele>
        <time>2020-07-01T09:24:27Z</time>
      </trkpt>
      <trkpt lat="48.99031" lon="3.362">
        <ele>76.4</ele>
        <time>2020-07-01T09:24:28Z</time>
      </trkpt>
      <trkpt lat="48.99032" lon="3.36195">
        <ele>76.7</ele>
        <time>2020-07-01T09:24:29Z</time>
      </trkpt>
      <trkpt lat="48.99032" lon="3.36193">
        <ele>76.8</ele>
        <time>2020-07-01T09:24:30Z</time>
      </trkpt>
      <trkpt lat="48.99031" lon="3.36192">
        <ele>76.8</ele>
        <time>2020-07-01T09:24:31Z</time>
      </trkpt>
      <trkpt lat="48.99031" lon="3.36189">
        <ele>77</ele>
        <time>2020-07-01T09:24:32Z</time>
      </trkpt>
      <trkpt lat="48.9903" lon="3.36184">
        <ele>77.3</ele>
        <time>2020-07-01T09:24:33Z</time>
      </trkpt>
      <trkpt lat="48.99029" lon="3.36183">
        <ele>77.3</ele>
        <time>2020-07-01T09:24:34Z</time>
      </trkpt>
      <trkpt lat="48.99029" lon="3.36177">
        <ele>77.6</ele>
        <time>2020-07-01T09:24:35Z</time>
      </trkpt>
      <trkpt lat="48.99029" lon="3.36176">
        <ele>77.7</ele>
        <time>2020-07-01T09:24:36Z</time>
      </trkpt>
      <trkpt lat="48.99028" lon="3.36172">
        <ele>77.9</ele>
        <time>2020-07-01T09:24:37Z</time>
      </trkpt>
      <trkpt lat="48.99027" lon="3.36171">
        <ele>78</ele>
        <time>2020-07-01T09:24:38Z</time>
      </trkpt>
      <trkpt lat="48.99025" lon="3.36166">
        <ele>78.2</ele>
        <time>2020-07-01T09:24:39Z</time>
      </trkpt>
      <trkpt lat="48.99024" lon="3.36165">
        <ele>78.3</ele>
        <time>2020-07-01T09:24:40Z</time>
      </trkpt>
      <trkpt lat="48.99021" lon="3.36163">
        <ele>78.5</ele>
        <time>2020-07-01T09:24:41Z</time>
      </trkpt>
      <trkpt lat="48.9902" lon="3.36162">
        <ele>78.6</ele>
        <time>2020-07-01T09:24:42Z</time>
      </trkpt>
      <trkpt lat="48.99017" lon="3.36161">
        <ele>78.9</ele>
        <time>2020-07-01T09:24:43Z</time>
      </trkpt>
      <trkpt lat="48.99016" lon="3.36161">
        <ele>79</ele>
        <time>2020-07-01T09:24:44Z</time>
      </trkpt>
      <trkpt lat="48.99012" lon="3.36161">
        <ele>79.2</ele>
        <time>2020-07-01T09:24:45Z</time>
      </trkpt>
      <trkpt lat="48.99011" lon="3.3616">
        <ele>79.3</ele>
        <time>2020-07-01T09:24:46Z</time>
      </trkpt>
      <trkpt lat="48.99009" lon="3.36159">
        <ele>79.5</ele>
        <time>2020-07-01T09:24:47Z</time>
      </trkpt>
      <trkpt lat="48.99006" lon="3.36156">
        <ele>79.7</ele>
        <time>2020-07-01T09:24:48Z</time>
      </trkpt>
      <trkpt lat="48.99005" lon="3.36155">
        <ele>79.8</ele>
        <time>2020-07-01T09:24:49Z</time>
      </trkpt>
      <trkpt lat="48.99002" lon="3.36152">
        <ele>80</ele>
        <time>2020-07-01T09:24:50Z</time>
      </trkpt>
      <trkpt lat="48.99" lon="3.36152">
        <ele>80.1</ele>
        <time>2020-07-01T09:24:51Z</time>
      </trkpt>
      <trkpt lat="48.98997" lon="3.36153">
        <ele>80.4</ele>
        <time>2020-07-01T09:24:52Z</time>
      </trkpt>
      <trkpt lat="48.98996" lon="3.36154">
        <ele>80.5</ele>
        <time>2020-07-01T09:24:53Z</time>
      </trkpt>
      <trkpt lat="48.98992" lon="3.36154">
        <ele>80.7</ele>
        <time>2020-07-01T09:24:54Z</time>
      </trkpt>
      <trkpt lat="48.98991" lon="3.36154">
        <ele>80.8</ele>
        <time>2020-07-01T09:24:55Z</time>
      </trkpt>
      <trkpt lat="48.98988" lon="3.36155">
        <ele>81</ele>
        <time>2020-07-01T09:24:56Z</time>
      </trkpt>
      <trkpt lat="48.98985" lon="3.36157">
        <ele>81.2</ele>
        <time>2020-07-01T09:24:57Z</time>
      </trkpt>
      <trkpt lat="48.98984" lon="3.36158">
        <ele>81.3</ele>
        <time>2020-07-01T09:24:58Z</time>
      </trkpt>
      <trkpt lat="48.98982" lon="3.36159">
        <ele>81.5</ele>
        <time>2020-07-01T09:24:59Z</time>
      </trkpt>
      <trkpt lat="48.98979" lon="3.36161">
        <ele>81.7</ele>
        <time>2020-07-01T09:25:00Z</time>
      </trkpt>
      <trkpt lat="48.98976" lon="3.36162">
        <ele>81.9</ele>
        <time>2020-07-01T09:25:01Z</time>
      </trkpt>
      <trkpt lat="48.98974" lon="3.36164">
        <ele>82.1</ele>
        <time>2020-07-01T09:25:02Z</time>
      </trkpt>
      <trkpt lat="48.98972" lon="3.36166">
        <ele>82.2</ele>
        <time>2020-07-01T09:25:03Z</time>
      </trkpt>
      <trkpt lat="48.9897" lon="3.36166">
        <ele>82.3</ele>
        <time>2020-07-01T09:25:04Z</time>
      </trkpt>
      <trkpt lat="48.98968" lon="3.36168">
        <ele>82.5</ele>
        <time>2020-07-01T09:25:05Z</time>
      </trkpt>
      <trkpt lat="48.98967" lon="3.36169">
        <ele>82.6</ele>
        <time>2020-07-01T09:25:06Z</time>
      </trkpt>
      <trkpt lat="48.98964" lon="3.36169">
        <ele>82.7</ele>
        <time>2020-07-01T09:25:07Z</time>
      </trkpt>
      <trkpt lat="48.98963" lon="3.36169">
        <ele>82.8</ele>
        <time>2020-07-01T09:25:08Z</time>
      </trkpt>
      <trkpt lat="48.9896" lon="3.36171">
        <ele>83</ele>
        <time>2020-07-01T09:25:09Z</time>
      </trkpt>
      <trkpt lat="48.98959" lon="3.36171">
        <ele>83.1</ele>
        <time>2020-07-01T09:25:10Z</time>
      </trkpt>
      <trkpt lat="48.98956" lon="3.36172">
        <ele>83.3</ele>
        <time>2020-07-01T09:25:11Z</time>
      </trkpt>
      <trkpt lat="48.98955" lon="3.36172">
        <ele>83.3</ele>
        <time>2020-07-01T09:25:12Z</time>
      </trkpt>
      <trkpt lat="48.98951" lon="3.36173">
        <ele>83.6</ele>
        <time>2020-07-01T09:25:13Z</time>
      </trkpt>
      <trkpt lat="48.98948" lon="3.36174">
        <ele>83.8</ele>
        <time>2020-07-01T09:25:14Z</time>
      </trkpt>
      <trkpt lat="48.98944" lon="3.36175">
        <ele>84</ele>
        <time>2020-07-01T09:25:15Z</time>
      </trkpt>
      <trkpt lat="48.9894" lon="3.36176">
        <ele>84.3</ele>
        <time>2020-07-01T09:25:16Z</time>
      </trkpt>
      <trkpt lat="48.98939" lon="3.36177">
        <ele>84.4</ele>
        <time>2020-07-01T09:25:17Z</time>
      </trkpt>
      <trkpt lat="48.98936" lon="3.36178">
        <ele>84.7</ele>
        <time>2020-07-01T09:25:18Z</time>
      </trkpt>
      <trkpt lat="48.98935" lon="3.36179">
        <ele>84.7</ele>
        <time>2020-07-01T09:25:19Z</time>
      </trkpt>
      <trkpt lat="48.98933" lon="3.36179">
        <ele>84.9</ele>
        <time>2020-07-01T09:25:20Z</time>
      </trkpt>
      <trkpt lat="48.98931" lon="3.36179">
        <ele>85</ele>
        <time>2020-07-01T09:25:21Z</time>
      </trkpt>
      <trkpt lat="48.98928" lon="3.3618">
        <ele>85.2</ele>
        <time>2020-07-01T09:25:22Z</time>
      </trkpt>
      <trkpt lat="48.98927" lon="3.3618">
        <ele>85.3</ele>
        <time>2020-07-01T09:25:23Z</time>
      </trkpt>
      <trkpt lat="48.98924" lon="3.36181">
        <ele>85.5</ele>
        <time>2020-07-01T09:25:24Z</time>
      </trkpt>
      <trkpt lat="48.98923" lon="3.36181">
        <ele>85.6</ele>
        <time>2020-07-01T09:25:25Z</time>
      </trkpt>
      <trkpt lat="48.9892" lon="3.3618">
        <ele>85.8</ele>
        <time>2020-07-01T09:25:26Z</time>
      </trkpt>
      <trkpt lat="48.98918" lon="3.3618">
        <ele>85.9</ele>
        <time>2020-07-01T09:25:27Z</time>
      </trkpt>
      <trkpt lat="48.98915" lon="3.36179">
        <ele>86.2</ele>
        <time>2020-07-01T09:25:28Z</time>
      </trkpt>
      <trkpt lat="48.98914" lon="3.36179">
        <ele>86.3</ele>
        <time>2020-07-01T09:25:29Z</time>
      </trkpt>
      <trkpt lat="48.98911" lon="3.36178">
        <ele>86.5</ele>
        <time>2020-07-01T09:25:30Z</time>
      </trkpt>
      <trkpt lat="48.98909" lon="3.36177">
        <ele>86.6</ele>
        <time>2020-07-01T09:25:31Z</time>
      </trkpt>
      <trkpt lat="48.98906" lon="3.36175">
        <ele>86.9</ele>
        <time>2020-07-01T09:25:32Z</time>
      </trkpt>
      <trkpt lat="48.98905" lon="3.36175">
        <ele>86.9</ele>
        <time>2020-07-01T09:25:33Z</time>
      </trkpt>
      <trkpt lat="48.98902" lon="3.36174">
        <ele>87.2</ele>
        <time>2020-07-01T09:25:34Z</time>
      </trkpt>
      <trkpt lat="48.98901" lon="3.36174">
        <ele>87.3</ele>
        <time>2020-07-01T09:25:35Z</time>
      </trkpt>
      <trkpt lat="48.98898" lon="3.36172">
        <ele>87.5</ele>
        <time>2020-07-01T09:25:36Z</time>
      </trkpt>
      <trkpt lat="48.98897" lon="3.36172">
        <ele>87.6</ele>
        <time>2020-07-01T09:25:37Z</time>
      </trkpt>
      <trkpt lat="48.98895" lon="3.36171">
        <ele>87.7</ele>
        <time>2020-07-01T09:25:38Z</time>
      </trkpt>
      <trkpt lat="48.98893" lon="3.3617">
        <ele>87.8</ele>
        <time>2020-07-01T09:25:39Z</time>
      </trkpt>
      <trkpt lat="48.9889" lon="3.36167">
        <ele>88.1</ele>
        <time>2020-07-01T09:25:40Z</time>
      </trkpt>
      <trkpt lat="48.98889" lon="3.36166">
        <ele>88.2</ele>
        <time>2020-07-01T09:25:41Z</time>
      </trkpt>
      <trkpt lat="48.98887" lon="3.36162">
        <ele>88.4</ele>
        <time>2020-07-01T09:25:42Z</time>
      </trkpt>
      <trkpt lat="48.98886" lon="3.36161">
        <ele>88.5</ele>
        <time>2020-07-01T09:25:43Z</time>
      </trkpt>
      <trkpt lat="48.98883" lon="3.36158">
        <ele>88.7</ele>
        <time>2020-07-01T09:25:44Z</time>
      </trkpt>
      <trkpt lat="48.98881" lon="3.36154">
        <ele>89</ele>
        <time>2020-07-01T09:25:45Z</time>
      </trkpt>
      <trkpt lat="48.98881" lon="3.36153">
        <ele>89</ele>
        <time>2020-07-01T09:25:46Z</time>
      </trkpt>
      <trkpt lat="48.98878" lon="3.36149">
        <ele>89.3</ele>
        <time>2020-07-01T09:25:47Z</time>
      </trkpt>
      <trkpt lat="48.98878" lon="3.36148">
        <ele>89.3</ele>
        <time>2020-07-01T09:25:48Z</time>
      </trkpt>
      <trkpt lat="48.98876" lon="3.36143">
        <ele>89.6</ele>
        <time>2020-07-01T09:25:49Z</time>
      </trkpt>
      <trkpt lat="48.98875" lon="3.36141">
        <ele>89.7</ele>
        <time>2020-07-01T09:25:50Z</time>
      </trkpt>
      <trkpt lat="48.98873" lon="3.36136">
        <ele>90</ele>
        <time>2020-07-01T09:25:51Z</time>
      </trkpt>
      <trkpt lat="48.98873" lon="3.36134">
        <ele>90.1</ele>
        <time>2020-07-01T09:25:52Z</time>
      </trkpt>
      <trkpt lat="48.98872" lon="3.36132">
        <ele>90.2</ele>
        <time>2020-07-01T09:25:53Z</time>
      </trkpt>
      <trkpt lat="48.98872" lon="3.36129">
        <ele>90.3</ele>
        <time>2020-07-01T09:25:54Z</time>
      </trkpt>
      <trkpt lat="48.98872" lon="3.36124">
        <ele>90.7</ele>
        <time>2020-07-01T09:25:55Z</time>
      </trkpt>
      <trkpt lat="48.98872" lon="3.36122">
        <ele>90.8</ele>
        <time>2020-07-01T09:25:56Z</time>
      </trkpt>
      <trkpt lat="48.98871" lon="3.36116">
        <ele>91.1</ele>
        <time>2020-07-01T09:25:57Z</time>
      </trkpt>
      <trkpt lat="48.98871" lon="3.36115">
        <ele>91.1</ele>
        <time>2020-07-01T09:25:58Z</time>
      </trkpt>
      <trkpt lat="48.98871" lon="3.36109">
        <ele>91.4</ele>
        <time>2020-07-01T09:25:59Z</time>
      </trkpt>
      <trkpt lat="48.98872" lon="3.36107">
        <ele>91.4</ele>
        <time>2020-07-01T09:26:00Z</time>
      </trkpt>
      <trkpt lat="48.98872" lon="3.36102">
        <ele>91.7</ele>
        <time>2020-07-01T09:26:01Z</time>
      </trkpt>
      <trkpt lat="48.98872" lon="3.361">
        <ele>91.7</ele>
        <time>2020-07-01T09:26:02Z</time>
      </trkpt>
      <trkpt lat="48.98872" lon="3.36097">
        <ele>91.8</ele>
        <time>2020-07-01T09:26:03Z</time>
      </trkpt>
      <trkpt lat="48.98872" lon="3.36095">
        <ele>91.9</ele>
        <time>2020-07-01T09:26:04Z</time>
      </trkpt>
      <trkpt lat="48.98872" lon="3.36092">
        <ele>92</ele>
        <time>2020-07-01T09:26:05Z</time>
      </trkpt>
      <trkpt lat="48.98872" lon="3.3609">
        <ele>92.1</ele>
        <time>2020-07-01T09:26:06Z</time>
      </trkpt>
      <trkpt lat="48.98871" lon="3.36085">
        <ele>92.3</ele>
        <time>2020-07-01T09:26:07Z</time>
      </trkpt>
      <trkpt lat="48.98871" lon="3.36083">
        <ele>92.3</ele>
        <time>2020-07-01T09:26:08Z</time>
      </trkpt>
      <trkpt lat="48.98871" lon="3.36079">
        <ele>92.5</ele>
        <time>2020-07-01T09:26:09Z</time>
      </trkpt>
      <trkpt lat="48.9887" lon="3.36073">
        <ele>92.7</ele>
        <time>2020-07-01T09:26:10Z</time>
      </trkpt>
      <trkpt lat="48.9887" lon="3.36071">
        <ele>92.7</ele>
        <time>2020-07-01T09:26:11Z</time>
      </trkpt>
      <trkpt lat="48.9887" lon="3.36067">
        <ele>92.9</ele>
        <time>2020-07-01T09:26:12Z</time>
      </trkpt>
      <trkpt lat="48.9887" lon="3.36065">
        <ele>93</ele>
        <time>2020-07-01T09:26:13Z</time>
      </trkpt>
      <trkpt lat="48.9887" lon="3.36061">
        <ele>93.1</ele>
        <time>2020-07-01T09:26:14Z</time>
      </trkpt>
      <trkpt lat="48.98871" lon="3.36059">
        <ele>93.1</ele>
        <time>2020-07-01T09:26:15Z</time>
      </trkpt>
      <trkpt lat="48.98871" lon="3.36054">
        <ele>93.3</ele>
        <time>2020-07-01T09:26:16Z</time>
      </trkpt>
      <trkpt lat="48.98871" lon="3.36051">
        <ele>93.4</ele>
        <time>2020-07-01T09:26:17Z</time>
      </trkpt>
      <trkpt lat="48.98872" lon="3.36047">
        <ele>93.5</ele>
        <time>2020-07-01T09:26:18Z</time>
      </trkpt>
      <trkpt lat="48.98872" lon="3.36046">
        <ele>93.6</ele>
        <time>2020-07-01T09:26:19Z</time>
      </trkpt>
      <trkpt lat="48.98871" lon="3.36043">
        <ele>93.6</ele>
        <time>2020-07-01T09:26:20Z</time>
      </trkpt>
      <trkpt lat="48.98871" lon="3.3604">
        <ele>93.7</ele>
        <time>2020-07-01T09:26:21Z</time>
      </trkpt>
      <trkpt lat="48.9887" lon="3.36038">
        <ele>93.8</ele>
        <time>2020-07-01T09:26:22Z</time>
      </trkpt>
      <trkpt lat="48.98869" lon="3.36036">
        <ele>93.9</ele>
        <time>2020-07-01T09:26:23Z</time>
      </trkpt>
      <trkpt lat="48.98868" lon="3.36031">
        <ele>94</ele>
        <time>2020-07-01T09:26:24Z</time>
      </trkpt>
      <trkpt lat="48.98868" lon="3.36029">
        <ele>94</ele>
        <time>2020-07-01T09:26:25Z</time>
      </trkpt>
      <trkpt lat="48.98868" lon="3.36025">
        <ele>94.2</ele>
        <time>2020-07-01T09:26:26Z</time>
      </trkpt>
      <trkpt lat="48.98868" lon="3.36023">
        <ele>94.2</ele>
        <time>2020-07-01T09:26:27Z</time>
      </trkpt>
      <trkpt lat="48.98866" lon="3.36019">
        <ele>94.3</ele>
        <time>2020-07-01T09:26:28Z</time>
      </trkpt>
      <trkpt lat="48.98865" lon="3.36017">
        <ele>94.3</ele>
        <time>2020-07-01T09:26:29Z</time>
      </trkpt>
      <trkpt lat="48.98864" lon="3.36012">
        <ele>94.4</ele>
        <time>2020-07-01T09:26:30Z</time>
      </trkpt>
      <trkpt lat="48.98864" lon="3.36011">
        <ele>94.5</ele>
        <time>2020-07-01T09:26:31Z</time>
      </trkpt>
      <trkpt lat="48.98862" lon="3.36007">
        <ele>94.5</ele>
        <time>2020-07-01T09:26:32Z</time>
      </trkpt>
      <trkpt lat="48.9886" lon="3.36004">
        <ele>94.6</ele>
        <time>2020-07-01T09:26:33Z</time>
      </trkpt>
      <trkpt lat="48.98859" lon="3.36">
        <ele>94.7</ele>
        <time>2020-07-01T09:26:34Z</time>
      </trkpt>
      <trkpt lat="48.98857" lon="3.35996">
        <ele>94.7</ele>
        <time>2020-07-01T09:26:35Z</time>
      </trkpt>
      <trkpt lat="48.98856" lon="3.35991">
        <ele>94.8</ele>
        <time>2020-07-01T09:26:36Z</time>
      </trkpt>
      <trkpt lat="48.98855" lon="3.3599">
        <ele>94.8</ele>
        <time>2020-07-01T09:26:37Z</time>
      </trkpt>
      <trkpt lat="48.98854" lon="3.35985">
        <ele>94.9</ele>
        <time>2020-07-01T09:26:38Z</time>
      </trkpt>
      <trkpt lat="48.98853" lon="3.35984">
        <ele>94.9</ele>
        <time>2020-07-01T09:26:39Z</time>
      </trkpt>
      <trkpt lat="48.9885" lon="3.35981">
        <ele>94.9</ele>
        <time>2020-07-01T09:26:40Z</time>
      </trkpt>
      <trkpt lat="48.98848" lon="3.35977">
        <ele>95</ele>
        <time>2020-07-01T09:26:41Z</time>
      </trkpt>
      <trkpt lat="48.98846" lon="3.35974">
        <ele>95.1</ele>
        <time>2020-07-01T09:26:42Z</time>
      </trkpt>
      <trkpt lat="48.98844" lon="3.35971">
        <ele>95.2</ele>
        <time>2020-07-01T09:26:43Z</time>
      </trkpt>
      <trkpt lat="48.98841" lon="3.35968">
        <ele>95.2</ele>
        <time>2020-07-01T09:26:44Z</time>
      </trkpt>
      <trkpt lat="48.98838" lon="3.35964">
        <ele>95.3</ele>
        <time>2020-07-01T09:26:45Z</time>
      </trkpt>
      <trkpt lat="48.98836" lon="3.35961">
        <ele>95.3</ele>
        <time>2020-07-01T09:26:46Z</time>
      </trkpt>
      <trkpt lat="48.98833" lon="3.35958">
        <ele>95.3</ele>
        <time>2020-07-01T09:26:47Z</time>
      </trkpt>
      <trkpt lat="48.9883" lon="3.35955">
        <ele>95.3</ele>
        <time>2020-07-01T09:26:48Z</time>
      </trkpt>
      <trkpt lat="48.98827" lon="3.35953">
        <ele>95.2</ele>
        <time>2020-07-01T09:26:49Z</time>
      </trkpt>
      <trkpt lat="48.98824" lon="3.3595">
        <ele>95.2</ele>
        <time>2020-07-01T09:26:50Z</time>
      </trkpt>
      <trkpt lat="48.98821" lon="3.35946">
        <ele>95.2</ele>
        <time>2020-07-01T09:26:51Z</time>
      </trkpt>
      <trkpt lat="48.98818" lon="3.35942">
        <ele>95.2</ele>
        <time>2020-07-01T09:26:52Z</time>
      </trkpt>
      <trkpt lat="48.98815" lon="3.35939">
        <ele>95.2</ele>
        <time>2020-07-01T09:26:53Z</time>
      </trkpt>
      <trkpt lat="48.98812" lon="3.35935">
        <ele>95.2</ele>
        <time>2020-07-01T09:26:54Z</time>
      </trkpt>
      <trkpt lat="48.98808" lon="3.35931">
        <ele>95.1</ele>
        <time>2020-07-01T09:26:55Z</time>
      </trkpt>
      <trkpt lat="48.98805" lon="3.35928">
        <ele>95.1</ele>
        <time>2020-07-01T09:26:56Z</time>
      </trkpt>
      <trkpt lat="48.98802" lon="3.35925">
        <ele>95.1</ele>
        <time>2020-07-01T09:26:57Z</time>
      </trkpt>
      <trkpt lat="48.98798" lon="3.35921">
        <ele>95</ele>
        <time>2020-07-01T09:26:58Z</time>
      </trkpt>
      <trkpt lat="48.98795" lon="3.35918">
        <ele>95</ele>
        <time>2020-07-01T09:26:59Z</time>
      </trkpt>
      <trkpt lat="48.98791" lon="3.35915">
        <ele>94.9</ele>
        <time>2020-07-01T09:27:00Z</time>
      </trkpt>
      <trkpt lat="48.98788" lon="3.35911">
        <ele>94.8</ele>
        <time>2020-07-01T09:27:01Z</time>
      </trkpt>
      <trkpt lat="48.98784" lon="3.35907">
        <ele>94.7</ele>
        <time>2020-07-01T09:27:02Z</time>
      </trkpt>
      <trkpt lat="48.98781" lon="3.35904">
        <ele>94.6</ele>
        <time>2020-07-01T09:27:03Z</time>
      </trkpt>
      <trkpt lat="48.98777" lon="3.35899">
        <ele>94.5</ele>
        <time>2020-07-01T09:27:04Z</time>
      </trkpt>
      <trkpt lat="48.98773" lon="3.35895">
        <ele>94.4</ele>
        <time>2020-07-01T09:27:05Z</time>
      </trkpt>
      <trkpt lat="48.98769" lon="3.35892">
        <ele>94.3</ele>
        <time>2020-07-01T09:27:06Z</time>
      </trkpt>
      <trkpt lat="48.98764" lon="3.35887">
        <ele>94.2</ele>
        <time>2020-07-01T09:27:07Z</time>
      </trkpt>
      <trkpt lat="48.9876" lon="3.35883">
        <ele>94.1</ele>
        <time>2020-07-01T09:27:08Z</time>
      </trkpt>
      <trkpt lat="48.98756" lon="3.35879">
        <ele>94</ele>
        <time>2020-07-01T09:27:09Z</time>
      </trkpt>
      <trkpt lat="48.98752" lon="3.35875">
        <ele>94</ele>
        <time>2020-07-01T09:27:10Z</time>
      </trkpt>
      <trkpt lat="48.98747" lon="3.35871">
        <ele>93.9</ele>
        <time>2020-07-01T09:27:11Z</time>
      </trkpt>
      <trkpt lat="48.98743" lon="3.35868">
        <ele>93.9</ele>
        <time>2020-07-01T09:27:12Z</time>
      </trkpt>
      <trkpt lat="48.98739" lon="3.35864">
        <ele>93.9</ele>
        <time>2020-07-01T09:27:13Z</time>
      </trkpt>
      <trkpt lat="48.98735" lon="3.3586">
        <ele>93.9</ele>
        <time>2020-07-01T09:27:14Z</time>
      </trkpt>
      <trkpt lat="48.98731" lon="3.35855">
        <ele>93.9</ele>
        <time>2020-07-01T09:27:15Z</time>
      </trkpt>
      <trkpt lat="48.98727" lon="3.35851">
        <ele>93.9</ele>
        <time>2020-07-01T09:27:16Z</time>
      </trkpt>
      <trkpt lat="48.98722" lon="3.35846">
        <ele>93.9</ele>
        <time>2020-07-01T09:27:17Z</time>
      </trkpt>
      <trkpt lat="48.98718" lon="3.35843">
        <ele>93.9</ele>
        <time>2020-07-01T09:27:18Z</time>
      </trkpt>
      <trkpt lat="48.98714" lon="3.35839">
        <ele>94</ele>
        <time>2020-07-01T09:27:19Z</time>
      </trkpt>
      <trkpt lat="48.9871" lon="3.35835">
        <ele>94.1</ele>
        <time>2020-07-01T09:27:20Z</time>
      </trkpt>
      <trkpt lat="48.98707" lon="3.35832">
        <ele>94.1</ele>
        <time>2020-07-01T09:27:21Z</time>
      </trkpt>
      <trkpt lat="48.98701" lon="3.35826">
        <ele>94.2</ele>
        <time>2020-07-01T09:27:22Z</time>
      </trkpt>
      <trkpt lat="48.98697" lon="3.35821">
        <ele>94.3</ele>
        <time>2020-07-01T09:27:23Z</time>
      </trkpt>
      <trkpt lat="48.98693" lon="3.35816">
        <ele>94.4</ele>
        <time>2020-07-01T09:27:24Z</time>
      </trkpt>
      <trkpt lat="48.98689" lon="3.35813">
        <ele>94.4</ele>
        <time>2020-07-01T09:27:25Z</time>
      </trkpt>
      <trkpt lat="48.98686" lon="3.3581">
        <ele>94.5</ele>
        <time>2020-07-01T09:27:26Z</time>
      </trkpt>
      <trkpt lat="48.98682" lon="3.35806">
        <ele>94.5</ele>
        <time>2020-07-01T09:27:27Z</time>
      </trkpt>
      <trkpt lat="48.98679" lon="3.35803">
        <ele>94.6</ele>
        <time>2020-07-01T09:27:28Z</time>
      </trkpt>
      <trkpt lat="48.98675" lon="3.358">
        <ele>94.6</ele>
        <time>2020-07-01T09:27:29Z</time>
      </trkpt>
      <trkpt lat="48.98672" lon="3.35797">
        <ele>94.7</ele>
        <time>2020-07-01T09:27:30Z</time>
      </trkpt>
      <trkpt lat="48.98668" lon="3.35794">
        <ele>94.7</ele>
        <time>2020-07-01T09:27:31Z</time>
      </trkpt>
      <trkpt lat="48.98665" lon="3.35791">
        <ele>94.8</ele>
        <time>2020-07-01T09:27:32Z</time>
      </trkpt>
      <trkpt lat="48.98662" lon="3.35788">
        <ele>94.9</ele>
        <time>2020-07-01T09:27:33Z</time>
      </trkpt>
      <trkpt lat="48.98659" lon="3.35785">
        <ele>94.9</ele>
        <time>2020-07-01T09:27:34Z</time>
      </trkpt>
      <trkpt lat="48.98656" lon="3.35784">
        <ele>95</ele>
        <time>2020-07-01T09:27:35Z</time>
      </trkpt>
      <trkpt lat="48.98653" lon="3.35782">
        <ele>95</ele>
        <time>2020-07-01T09:27:36Z</time>
      </trkpt>
      <trkpt lat="48.98649" lon="3.3578">
        <ele>95.1</ele>
        <time>2020-07-01T09:27:37Z</time>
      </trkpt>
      <trkpt lat="48.98646" lon="3.35777">
        <ele>95.2</ele>
        <time>2020-07-01T09:27:38Z</time>
      </trkpt>
      <trkpt lat="48.98644" lon="3.35775">
        <ele>95.3</ele>
        <time>2020-07-01T09:27:39Z</time>
      </trkpt>
      <trkpt lat="48.9864" lon="3.35772">
        <ele>95.4</ele>
        <time>2020-07-01T09:27:40Z</time>
      </trkpt>
      <trkpt lat="48.98637" lon="3.3577">
        <ele>95.4</ele>
        <time>2020-07-01T09:27:41Z</time>
      </trkpt>
      <trkpt lat="48.98633" lon="3.35769">
        <ele>95.5</ele>
        <time>2020-07-01T09:27:42Z</time>
      </trkpt>
      <trkpt lat="48.9863" lon="3.35768">
        <ele>95.5</ele>
        <time>2020-07-01T09:27:43Z</time>
      </trkpt>
      <trkpt lat="48.98627" lon="3.35766">
        <ele>95.6</ele>
        <time>2020-07-01T09:27:44Z</time>
      </trkpt>
      <trkpt lat="48.98624" lon="3.35764">
        <ele>95.6</ele>
        <time>2020-07-01T09:27:45Z</time>
      </trkpt>
      <trkpt lat="48.98621" lon="3.35762">
        <ele>95.7</ele>
        <time>2020-07-01T09:27:46Z</time>
      </trkpt>
      <trkpt lat="48.98618" lon="3.35758">
        <ele>95.8</ele>
        <time>2020-07-01T09:27:47Z</time>
      </trkpt>
      <trkpt lat="48.98615" lon="3.35755">
        <ele>95.8</ele>
        <time>2020-07-01T09:27:48Z</time>
      </trkpt>
      <trkpt lat="48.98613" lon="3.35752">
        <ele>95.9</ele>
        <time>2020-07-01T09:27:49Z</time>
      </trkpt>
      <trkpt lat="48.9861" lon="3.35749">
        <ele>96</ele>
        <time>2020-07-01T09:27:50Z</time>
      </trkpt>
      <trkpt lat="48.98606" lon="3.35745">
        <ele>96.1</ele>
        <time>2020-07-01T09:27:51Z</time>
      </trkpt>
      <trkpt lat="48.98602" lon="3.35742">
        <ele>96.2</ele>
        <time>2020-07-01T09:27:52Z</time>
      </trkpt>
      <trkpt lat="48.98599" lon="3.3574">
        <ele>96.3</ele>
        <time>2020-07-01T09:27:53Z</time>
      </trkpt>
      <trkpt lat="48.98595" lon="3.35737">
        <ele>96.4</ele>
        <time>2020-07-01T09:27:54Z</time>
      </trkpt>
      <trkpt lat="48.98592" lon="3.35734">
        <ele>96.5</ele>
        <time>2020-07-01T09:27:55Z</time>
      </trkpt>
      <trkpt lat="48.98589" lon="3.35731">
        <ele>96.6</ele>
        <time>2020-07-01T09:27:56Z</time>
      </trkpt>
      <trkpt lat="48.98586" lon="3.35729">
        <ele>96.7</ele>
        <time>2020-07-01T09:27:57Z</time>
      </trkpt>
      <trkpt lat="48.98582" lon="3.35726">
        <ele>96.8</ele>
        <time>2020-07-01T09:27:58Z</time>
      </trkpt>
      <trkpt lat="48.98578" lon="3.35724">
        <ele>96.8</ele>
        <time>2020-07-01T09:27:59Z</time>
      </trkpt>
      <trkpt lat="48.98576" lon="3.35721">
        <ele>96.8</ele>
        <time>2020-07-01T09:28:00Z</time>
      </trkpt>
      <trkpt lat="48.98572" lon="3.35718">
        <ele>96.9</ele>
        <time>2020-07-01T09:28:01Z</time>
      </trkpt>
      <trkpt lat="48.98569" lon="3.35716">
        <ele>96.9</ele>
        <time>2020-07-01T09:28:02Z</time>
      </trkpt>
      <trkpt lat="48.98566" lon="3.35713">
        <ele>97</ele>
        <time>2020-07-01T09:28:03Z</time>
      </trkpt>
      <trkpt lat="48.98563" lon="3.35711">
        <ele>97.1</ele>
        <time>2020-07-01T09:28:04Z</time>
      </trkpt>
      <trkpt lat="48.98559" lon="3.35708">
        <ele>97.2</ele>
        <time>2020-07-01T09:28:05Z</time>
      </trkpt>
      <trkpt lat="48.98557" lon="3.35705">
        <ele>97.3</ele>
        <time>2020-07-01T09:28:06Z</time>
      </trkpt>
      <trkpt lat="48.98554" lon="3.35703">
        <ele>97.4</ele>
        <time>2020-07-01T09:28:07Z</time>
      </trkpt>
      <trkpt lat="48.98551" lon="3.357">
        <ele>97.5</ele>
        <time>2020-07-01T09:28:08Z</time>
      </trkpt>
      <trkpt lat="48.98548" lon="3.35697">
        <ele>97.6</ele>
        <time>2020-07-01T09:28:09Z</time>
      </trkpt>
      <trkpt lat="48.98545" lon="3.35694">
        <ele>97.7</ele>
        <time>2020-07-01T09:28:10Z</time>
      </trkpt>
      <trkpt lat="48.98543" lon="3.35692">
        <ele>97.7</ele>
        <time>2020-07-01T09:28:11Z</time>
      </trkpt>
      <trkpt lat="48.9854" lon="3.3569">
        <ele>97.8</ele>
        <time>2020-07-01T09:28:12Z</time>
      </trkpt>
      <trkpt lat="48.98536" lon="3.35688">
        <ele>97.9</ele>
        <time>2020-07-01T09:28:13Z</time>
      </trkpt>
      <trkpt lat="48.98532" lon="3.35686">
        <ele>98</ele>
        <time>2020-07-01T09:28:14Z</time>
      </trkpt>
      <trkpt lat="48.9853" lon="3.35685">
        <ele>98</ele>
        <time>2020-07-01T09:28:15Z</time>
      </trkpt>
      <trkpt lat="48.98528" lon="3.35683">
        <ele>98.1</ele>
        <time>2020-07-01T09:28:16Z</time>
      </trkpt>
      <trkpt lat="48.98525" lon="3.35681">
        <ele>98.2</ele>
        <time>2020-07-01T09:28:17Z</time>
      </trkpt>
      <trkpt lat="48.98522" lon="3.35678">
        <ele>98.2</ele>
        <time>2020-07-01T09:28:18Z</time>
      </trkpt>
      <trkpt lat="48.98519" lon="3.35676">
        <ele>98.3</ele>
        <time>2020-07-01T09:28:19Z</time>
      </trkpt>
      <trkpt lat="48.98515" lon="3.35674">
        <ele>98.4</ele>
        <time>2020-07-01T09:28:20Z</time>
      </trkpt>
      <trkpt lat="48.98512" lon="3.35672">
        <ele>98.5</ele>
        <time>2020-07-01T09:28:21Z</time>
      </trkpt>
      <trkpt lat="48.98509" lon="3.35671">
        <ele>98.5</ele>
        <time>2020-07-01T09:28:22Z</time>
      </trkpt>
      <trkpt lat="48.98505" lon="3.35669">
        <ele>98.6</ele>
        <time>2020-07-01T09:28:23Z</time>
      </trkpt>
      <trkpt lat="48.98501" lon="3.35667">
        <ele>98.7</ele>
        <time>2020-07-01T09:28:24Z</time>
      </trkpt>
      <trkpt lat="48.98496" lon="3.35666">
        <ele>98.8</ele>
        <time>2020-07-01T09:28:25Z</time>
      </trkpt>
      <trkpt lat="48.98492" lon="3.35665">
        <ele>98.9</ele>
        <time>2020-07-01T09:28:26Z</time>
      </trkpt>
      <trkpt lat="48.98487" lon="3.35663">
        <ele>99</ele>
        <time>2020-07-01T09:28:27Z</time>
      </trkpt>
      <trkpt lat="48.98482" lon="3.35662">
        <ele>99.1</ele>
        <time>2020-07-01T09:28:28Z</time>
      </trkpt>
      <trkpt lat="48.98477" lon="3.35661">
        <ele>99.2</ele>
        <time>2020-07-01T09:28:29Z</time>
      </trkpt>
      <trkpt lat="48.98473" lon="3.3566">
        <ele>99.3</ele>
        <time>2020-07-01T09:28:30Z</time>
      </trkpt>
      <trkpt lat="48.98469" lon="3.35658">
        <ele>99.4</ele>
        <time>2020-07-01T09:28:31Z</time>
      </trkpt>
      <trkpt lat="48.98465" lon="3.35656">
        <ele>99.5</ele>
        <time>2020-07-01T09:28:32Z</time>
      </trkpt>
      <trkpt lat="48.9846" lon="3.35654">
        <ele>99.5</ele>
        <time>2020-07-01T09:28:33Z</time>
      </trkpt>
      <trkpt lat="48.98456" lon="3.35652">
        <ele>99.6</ele>
        <time>2020-07-01T09:28:34Z</time>
      </trkpt>
      <trkpt lat="48.98451" lon="3.3565">
        <ele>99.7</ele>
        <time>2020-07-01T09:28:35Z</time>
      </trkpt>
      <trkpt lat="48.98447" lon="3.35648">
        <ele>99.8</ele>
        <time>2020-07-01T09:28:36Z</time>
      </trkpt>
      <trkpt lat="48.98443" lon="3.35647">
        <ele>99.9</ele>
        <time>2020-07-01T09:28:37Z</time>
      </trkpt>
      <trkpt lat="48.98438" lon="3.35644">
        <ele>100.1</ele>
        <time>2020-07-01T09:28:38Z</time>
      </trkpt>
      <trkpt lat="48.98434" lon="3.35643">
        <ele>100.2</ele>
        <time>2020-07-01T09:28:39Z</time>
      </trkpt>
      <trkpt lat="48.98429" lon="3.35641">
        <ele>100.3</ele>
        <time>2020-07-01T09:28:40Z</time>
      </trkpt>
      <trkpt lat="48.98425" lon="3.3564">
        <ele>100.4</ele>
        <time>2020-07-01T09:28:41Z</time>
      </trkpt>
      <trkpt lat="48.98421" lon="3.35638">
        <ele>100.5</ele>
        <time>2020-07-01T09:28:42Z</time>
      </trkpt>
      <trkpt lat="48.98417" lon="3.35638">
        <ele>100.5</ele>
        <time>2020-07-01T09:28:43Z</time>
      </trkpt>
      <trkpt lat="48.98413" lon="3.35636">
        <ele>100.6</ele>
        <time>2020-07-01T09:28:44Z</time>
      </trkpt>
      <trkpt lat="48.98409" lon="3.35635">
        <ele>100.8</ele>
        <time>2020-07-01T09:28:45Z</time>
      </trkpt>
      <trkpt lat="48.98405" lon="3.35634">
        <ele>100.9</ele>
        <time>2020-07-01T09:28:46Z</time>
      </trkpt>
      <trkpt lat="48.984" lon="3.35633">
        <ele>101</ele>
        <time>2020-07-01T09:28:47Z</time>
      </trkpt>
      <trkpt lat="48.98396" lon="3.35633">
        <ele>101.1</ele>
        <time>2020-07-01T09:28:48Z</time>
      </trkpt>
      <trkpt lat="48.98391" lon="3.35632">
        <ele>101.2</ele>
        <time>2020-07-01T09:28:49Z</time>
      </trkpt>
      <trkpt lat="48.98387" lon="3.3563">
        <ele>101.2</ele>
        <time>2020-07-01T09:28:50Z</time>
      </trkpt>
      <trkpt lat="48.98383" lon="3.35629">
        <ele>101.3</ele>
        <time>2020-07-01T09:28:51Z</time>
      </trkpt>
      <trkpt lat="48.98379" lon="3.35627">
        <ele>101.4</ele>
        <time>2020-07-01T09:28:52Z</time>
      </trkpt>
      <trkpt lat="48.98375" lon="3.35625">
        <ele>101.4</ele>
        <time>2020-07-01T09:28:53Z</time>
      </trkpt>
      <trkpt lat="48.98371" lon="3.35623">
        <ele>101.5</ele>
        <time>2020-07-01T09:28:54Z</time>
      </trkpt>
      <trkpt lat="48.98368" lon="3.35621">
        <ele>101.6</ele>
        <time>2020-07-01T09:28:55Z</time>
      </trkpt>
      <trkpt lat="48.98364" lon="3.35619">
        <ele>101.7</ele>
        <time>2020-07-01T09:28:56Z</time>
      </trkpt>
      <trkpt lat="48.9836" lon="3.35617">
        <ele>101.8</ele>
        <time>2020-07-01T09:28:57Z</time>
      </trkpt>
      <trkpt lat="48.98356" lon="3.35615">
        <ele>101.9</ele>
        <time>2020-07-01T09:28:58Z</time>
      </trkpt>
      <trkpt lat="48.98352" lon="3.35614">
        <ele>101.9</ele>
        <time>2020-07-01T09:28:59Z</time>
      </trkpt>
      <trkpt lat="48.98348" lon="3.35612">
        <ele>102</ele>
        <time>2020-07-01T09:29:00Z</time>
      </trkpt>
      <trkpt lat="48.98344" lon="3.35609">
        <ele>102.1</ele>
        <time>2020-07-01T09:29:01Z</time>
      </trkpt>
      <trkpt lat="48.9834" lon="3.35606">
        <ele>102.2</ele>
        <time>2020-07-01T09:29:02Z</time>
      </trkpt>
      <trkpt lat="48.98336" lon="3.35605">
        <ele>102.3</ele>
        <time>2020-07-01T09:29:03Z</time>
      </trkpt>
      <trkpt lat="48.98332" lon="3.35603">
        <ele>102.4</ele>
        <time>2020-07-01T09:29:04Z</time>
      </trkpt>
      <trkpt lat="48.98328" lon="3.35601">
        <ele>102.5</ele>
        <time>2020-07-01T09:29:05Z</time>
      </trkpt>
      <trkpt lat="48.98325" lon="3.356">
        <ele>102.6</ele>
        <time>2020-07-01T09:29:06Z</time>
      </trkpt>
      <trkpt lat="48.98321" lon="3.35599">
        <ele>102.7</ele>
        <time>2020-07-01T09:29:07Z</time>
      </trkpt>
      <trkpt lat="48.98318" lon="3.35597">
        <ele>102.9</ele>
        <time>2020-07-01T09:29:08Z</time>
      </trkpt>
      <trkpt lat="48.98314" lon="3.35595">
        <ele>103</ele>
        <time>2020-07-01T09:29:09Z</time>
      </trkpt>
      <trkpt lat="48.9831" lon="3.35592">
        <ele>103.1</ele>
        <time>2020-07-01T09:29:10Z</time>
      </trkpt>
      <trkpt lat="48.98306" lon="3.35589">
        <ele>103.2</ele>
        <time>2020-07-01T09:29:11Z</time>
      </trkpt>
      <trkpt lat="48.98301" lon="3.35587">
        <ele>103.4</ele>
        <time>2020-07-01T09:29:12Z</time>
      </trkpt>
      <trkpt lat="48.98296" lon="3.35586">
        <ele>103.5</ele>
        <time>2020-07-01T09:29:13Z</time>
      </trkpt>
      <trkpt lat="48.98292" lon="3.35585">
        <ele>103.6</ele>
        <time>2020-07-01T09:29:14Z</time>
      </trkpt>
      <trkpt lat="48.98288" lon="3.35583">
        <ele>103.7</ele>
        <time>2020-07-01T09:29:15Z</time>
      </trkpt>
      <trkpt lat="48.98284" lon="3.3558">
        <ele>103.9</ele>
        <time>2020-07-01T09:29:16Z</time>
      </trkpt>
      <trkpt lat="48.9828" lon="3.35578">
        <ele>104</ele>
        <time>2020-07-01T09:29:17Z</time>
      </trkpt>
      <trkpt lat="48.98277" lon="3.35575">
        <ele>104.1</ele>
        <time>2020-07-01T09:29:18Z</time>
      </trkpt>
      <trkpt lat="48.98273" lon="3.35573">
        <ele>104.2</ele>
        <time>2020-07-01T09:29:19Z</time>
      </trkpt>
      <trkpt lat="48.9827" lon="3.35572">
        <ele>104.3</ele>
        <time>2020-07-01T09:29:20Z</time>
      </trkpt>
      <trkpt lat="48.98267" lon="3.3557">
        <ele>104.4</ele>
        <time>2020-07-01T09:29:21Z</time>
      </trkpt>
      <trkpt lat="48.98263" lon="3.35567">
        <ele>104.5</ele>
        <time>2020-07-01T09:29:22Z</time>
      </trkpt>
      <trkpt lat="48.9826" lon="3.35565">
        <ele>104.6</ele>
        <time>2020-07-01T09:29:23Z</time>
      </trkpt>
      <trkpt lat="48.98257" lon="3.35562">
        <ele>104.7</ele>
        <time>2020-07-01T09:29:24Z</time>
      </trkpt>
      <trkpt lat="48.98253" lon="3.3556">
        <ele>104.7</ele>
        <time>2020-07-01T09:29:25Z</time>
      </trkpt>
      <trkpt lat="48.98249" lon="3.35557">
        <ele>104.8</ele>
        <time>2020-07-01T09:29:26Z</time>
      </trkpt>
      <trkpt lat="48.98246" lon="3.35554">
        <ele>104.9</ele>
        <time>2020-07-01T09:29:27Z</time>
      </trkpt>
      <trkpt lat="48.98243" lon="3.35553">
        <ele>105</ele>
        <time>2020-07-01T09:29:28Z</time>
      </trkpt>
      <trkpt lat="48.98239" lon="3.3555">
        <ele>105.1</ele>
        <time>2020-07-01T09:29:29Z</time>
      </trkpt>
      <trkpt lat="48.98234" lon="3.35547">
        <ele>105.2</ele>
        <time>2020-07-01T09:29:30Z</time>
      </trkpt>
      <trkpt lat="48.98231" lon="3.35544">
        <ele>105.2</ele>
        <time>2020-07-01T09:29:31Z</time>
      </trkpt>
      <trkpt lat="48.98227" lon="3.3554">
        <ele>105.3</ele>
        <time>2020-07-01T09:29:32Z</time>
      </trkpt>
      <trkpt lat="48.98223" lon="3.35537">
        <ele>105.5</ele>
        <time>2020-07-01T09:29:33Z</time>
      </trkpt>
      <trkpt lat="48.98219" lon="3.35534">
        <ele>105.6</ele>
        <time>2020-07-01T09:29:34Z</time>
      </trkpt>
      <trkpt lat="48.98215" lon="3.35531">
        <ele>105.7</ele>
        <time>2020-07-01T09:29:35Z</time>
      </trkpt>
      <trkpt lat="48.98211" lon="3.35528">
        <ele>105.8</ele>
        <time>2020-07-01T09:29:36Z</time>
      </trkpt>
      <trkpt lat="48.98207" lon="3.35524">
        <ele>105.9</ele>
        <time>2020-07-01T09:29:37Z</time>
      </trkpt>
      <trkpt lat="48.98204" lon="3.35521">
        <ele>106</ele>
        <time>2020-07-01T09:29:38Z</time>
      </trkpt>
      <trkpt lat="48.98201" lon="3.35519">
        <ele>106.1</ele>
        <time>2020-07-01T09:29:39Z</time>
      </trkpt>
      <trkpt lat="48.98197" lon="3.35517">
        <ele>106.2</ele>
        <time>2020-07-01T09:29:40Z</time>
      </trkpt>
      <trkpt lat="48.98193" lon="3.35514">
        <ele>106.3</ele>
        <time>2020-07-01T09:29:41Z</time>
      </trkpt>
      <trkpt lat="48.98189" lon="3.35514">
        <ele>106.3</ele>
        <time>2020-07-01T09:29:42Z</time>
      </trkpt>
      <trkpt lat="48.98186" lon="3.35512">
        <ele>106.4</ele>
        <time>2020-07-01T09:29:43Z</time>
      </trkpt>
      <trkpt lat="48.98184" lon="3.35511">
        <ele>106.5</ele>
        <time>2020-07-01T09:29:44Z</time>
      </trkpt>
      <trkpt lat="48.98181" lon="3.35509">
        <ele>106.6</ele>
        <time>2020-07-01T09:29:45Z</time>
      </trkpt>
      <trkpt lat="48.98178" lon="3.35507">
        <ele>106.7</ele>
        <time>2020-07-01T09:29:46Z</time>
      </trkpt>
      <trkpt lat="48.98174" lon="3.35504">
        <ele>106.8</ele>
        <time>2020-07-01T09:29:47Z</time>
      </trkpt>
      <trkpt lat="48.98172" lon="3.35501">
        <ele>106.8</ele>
        <time>2020-07-01T09:29:48Z</time>
      </trkpt>
      <trkpt lat="48.98169" lon="3.35498">
        <ele>106.9</ele>
        <time>2020-07-01T09:29:49Z</time>
      </trkpt>
      <trkpt lat="48.98165" lon="3.35495">
        <ele>107</ele>
        <time>2020-07-01T09:29:50Z</time>
      </trkpt>
      <trkpt lat="48.98162" lon="3.35493">
        <ele>107.1</ele>
        <time>2020-07-01T09:29:51Z</time>
      </trkpt>
      <trkpt lat="48.98158" lon="3.3549">
        <ele>107.2</ele>
        <time>2020-07-01T09:29:52Z</time>
      </trkpt>
      <trkpt lat="48.98155" lon="3.35488">
        <ele>107.3</ele>
        <time>2020-07-01T09:29:53Z</time>
      </trkpt>
      <trkpt lat="48.98152" lon="3.35485">
        <ele>107.3</ele>
        <time>2020-07-01T09:29:54Z</time>
      </trkpt>
      <trkpt lat="48.98148" lon="3.35481">
        <ele>107.3</ele>
        <time>2020-07-01T09:29:55Z</time>
      </trkpt>
      <trkpt lat="48.98145" lon="3.35477">
        <ele>107.4</ele>
        <time>2020-07-01T09:29:56Z</time>
      </trkpt>
      <trkpt lat="48.98141" lon="3.35474">
        <ele>107.4</ele>
        <time>2020-07-01T09:29:57Z</time>
      </trkpt>
      <trkpt lat="48.98138" lon="3.35471">
        <ele>107.5</ele>
        <time>2020-07-01T09:29:58Z</time>
      </trkpt>
      <trkpt lat="48.98134" lon="3.35468">
        <ele>107.6</ele>
        <time>2020-07-01T09:29:59Z</time>
      </trkpt>
      <trkpt lat="48.98131" lon="3.35465">
        <ele>107.7</ele>
        <time>2020-07-01T09:30:00Z</time>
      </trkpt>
      <trkpt lat="48.98127" lon="3.35462">
        <ele>107.8</ele>
        <time>2020-07-01T09:30:01Z</time>
      </trkpt>
      <trkpt lat="48.98124" lon="3.35459">
        <ele>107.9</ele>
        <time>2020-07-01T09:30:02Z</time>
      </trkpt>
      <trkpt lat="48.9812" lon="3.35456">
        <ele>108.1</ele>
        <time>2020-07-01T09:30:03Z</time>
      </trkpt>
      <trkpt lat="48.98116" lon="3.35452">
        <ele>108.2</ele>
        <time>2020-07-01T09:30:04Z</time>
      </trkpt>
      <trkpt lat="48.98112" lon="3.35449">
        <ele>108.3</ele>
        <time>2020-07-01T09:30:05Z</time>
      </trkpt>
      <trkpt lat="48.98109" lon="3.35446">
        <ele>108.5</ele>
        <time>2020-07-01T09:30:06Z</time>
      </trkpt>
      <trkpt lat="48.98106" lon="3.35444">
        <ele>108.6</ele>
        <time>2020-07-01T09:30:07Z</time>
      </trkpt>
      <trkpt lat="48.98102" lon="3.35442">
        <ele>108.7</ele>
        <time>2020-07-01T09:30:08Z</time>
      </trkpt>
      <trkpt lat="48.98099" lon="3.3544">
        <ele>108.8</ele>
        <time>2020-07-01T09:30:09Z</time>
      </trkpt>
      <trkpt lat="48.98096" lon="3.35437">
        <ele>108.9</ele>
        <time>2020-07-01T09:30:10Z</time>
      </trkpt>
      <trkpt lat="48.98093" lon="3.35434">
        <ele>109</ele>
        <time>2020-07-01T09:30:11Z</time>
      </trkpt>
      <trkpt lat="48.98089" lon="3.35432">
        <ele>109.1</ele>
        <time>2020-07-01T09:30:12Z</time>
      </trkpt>
      <trkpt lat="48.98086" lon="3.35431">
        <ele>109.2</ele>
        <time>2020-07-01T09:30:13Z</time>
      </trkpt>
      <trkpt lat="48.98083" lon="3.35429">
        <ele>109.4</ele>
        <time>2020-07-01T09:30:14Z</time>
      </trkpt>
      <trkpt lat="48.9808" lon="3.35427">
        <ele>109.5</ele>
        <time>2020-07-01T09:30:15Z</time>
      </trkpt>
      <trkpt lat="48.98076" lon="3.35425">
        <ele>109.6</ele>
        <time>2020-07-01T09:30:16Z</time>
      </trkpt>
      <trkpt lat="48.98073" lon="3.35423">
        <ele>109.7</ele>
        <time>2020-07-01T09:30:17Z</time>
      </trkpt>
      <trkpt lat="48.98069" lon="3.3542">
        <ele>109.9</ele>
        <time>2020-07-01T09:30:18Z</time>
      </trkpt>
      <trkpt lat="48.98066" lon="3.35417">
        <ele>110</ele>
        <time>2020-07-01T09:30:19Z</time>
      </trkpt>
      <trkpt lat="48.98062" lon="3.35413">
        <ele>110.2</ele>
        <time>2020-07-01T09:30:20Z</time>
      </trkpt>
      <trkpt lat="48.98058" lon="3.3541">
        <ele>110.4</ele>
        <time>2020-07-01T09:30:21Z</time>
      </trkpt>
      <trkpt lat="48.98054" lon="3.35407">
        <ele>110.6</ele>
        <time>2020-07-01T09:30:22Z</time>
      </trkpt>
      <trkpt lat="48.9805" lon="3.35404">
        <ele>110.7</ele>
        <time>2020-07-01T09:30:23Z</time>
      </trkpt>
      <trkpt lat="48.98046" lon="3.35401">
        <ele>110.9</ele>
        <time>2020-07-01T09:30:24Z</time>
      </trkpt>
      <trkpt lat="48.98042" lon="3.35397">
        <ele>111.1</ele>
        <time>2020-07-01T09:30:25Z</time>
      </trkpt>
      <trkpt lat="48.98038" lon="3.35394">
        <ele>111.3</ele>
        <time>2020-07-01T09:30:26Z</time>
      </trkpt>
      <trkpt lat="48.98034" lon="3.35391">
        <ele>111.5</ele>
        <time>2020-07-01T09:30:27Z</time>
      </trkpt>
      <trkpt lat="48.98031" lon="3.35388">
        <ele>111.7</ele>
        <time>2020-07-01T09:30:28Z</time>
      </trkpt>
      <trkpt lat="48.98027" lon="3.35385">
        <ele>111.9</ele>
        <time>2020-07-01T09:30:29Z</time>
      </trkpt>
      <trkpt lat="48.98023" lon="3.35382">
        <ele>112</ele>
        <time>2020-07-01T09:30:30Z</time>
      </trkpt>
      <trkpt lat="48.9802" lon="3.35379">
        <ele>112.2</ele>
        <time>2020-07-01T09:30:31Z</time>
      </trkpt>
      <trkpt lat="48.98017" lon="3.35376">
        <ele>112.4</ele>
        <time>2020-07-01T09:30:32Z</time>
      </trkpt>
      <trkpt lat="48.98013" lon="3.35374">
        <ele>112.5</ele>
        <time>2020-07-01T09:30:33Z</time>
      </trkpt>
      <trkpt lat="48.9801" lon="3.35371">
        <ele>112.7</ele>
        <time>2020-07-01T09:30:34Z</time>
      </trkpt>
      <trkpt lat="48.98007" lon="3.35369">
        <ele>112.8</ele>
        <time>2020-07-01T09:30:35Z</time>
      </trkpt>
      <trkpt lat="48.98005" lon="3.35367">
        <ele>113</ele>
        <time>2020-07-01T09:30:36Z</time>
      </trkpt>
      <trkpt lat="48.98002" lon="3.35365">
        <ele>113.1</ele>
        <time>2020-07-01T09:30:37Z</time>
      </trkpt>
      <trkpt lat="48.97999" lon="3.35363">
        <ele>113.2</ele>
        <time>2020-07-01T09:30:38Z</time>
      </trkpt>
      <trkpt lat="48.97996" lon="3.35361">
        <ele>113.4</ele>
        <time>2020-07-01T09:30:39Z</time>
      </trkpt>
      <trkpt lat="48.97993" lon="3.35357">
        <ele>113.6</ele>
        <time>2020-07-01T09:30:40Z</time>
      </trkpt>
      <trkpt lat="48.97989" lon="3.35354">
        <ele>113.7</ele>
        <time>2020-07-01T09:30:41Z</time>
      </trkpt>
      <trkpt lat="48.97986" lon="3.35352">
        <ele>113.8</ele>
        <time>2020-07-01T09:30:42Z</time>
      </trkpt>
      <trkpt lat="48.97982" lon="3.35349">
        <ele>114</ele>
        <time>2020-07-01T09:30:43Z</time>
      </trkpt>
      <trkpt lat="48.97979" lon="3.35346">
        <ele>114.1</ele>
        <time>2020-07-01T09:30:44Z</time>
      </trkpt>
      <trkpt lat="48.97976" lon="3.35343">
        <ele>114.2</ele>
        <time>2020-07-01T09:30:45Z</time>
      </trkpt>
      <trkpt lat="48.97973" lon="3.3534">
        <ele>114.4</ele>
        <time>2020-07-01T09:30:46Z</time>
      </trkpt>
      <trkpt lat="48.9797" lon="3.35336">
        <ele>114.5</ele>
        <time>2020-07-01T09:30:47Z</time>
      </trkpt>
      <trkpt lat="48.97966" lon="3.35332">
        <ele>114.7</ele>
        <time>2020-07-01T09:30:48Z</time>
      </trkpt>
      <trkpt lat="48.97962" lon="3.35328">
        <ele>114.9</ele>
        <time>2020-07-01T09:30:49Z</time>
      </trkpt>
      <trkpt lat="48.97959" lon="3.35326">
        <ele>115</ele>
        <time>2020-07-01T09:30:50Z</time>
      </trkpt>
      <trkpt lat="48.97957" lon="3.35322">
        <ele>115.1</ele>
        <time>2020-07-01T09:30:51Z</time>
      </trkpt>
      <trkpt lat="48.97954" lon="3.35319">
        <ele>115.3</ele>
        <time>2020-07-01T09:30:52Z</time>
      </trkpt>
      <trkpt lat="48.97951" lon="3.35315">
        <ele>115.4</ele>
        <time>2020-07-01T09:30:53Z</time>
      </trkpt>
      <trkpt lat="48.97948" lon="3.35312">
        <ele>115.5</ele>
        <time>2020-07-01T09:30:54Z</time>
      </trkpt>
      <trkpt lat="48.97944" lon="3.35309">
        <ele>115.7</ele>
        <time>2020-07-01T09:30:55Z</time>
      </trkpt>
      <trkpt lat="48.97941" lon="3.35306">
        <ele>115.8</ele>
        <time>2020-07-01T09:30:56Z</time>
      </trkpt>
      <trkpt lat="48.97938" lon="3.35302">
        <ele>116</ele>
        <time>2020-07-01T09:30:57Z</time>
      </trkpt>
      <trkpt lat="48.97936" lon="3.35298">
        <ele>116.1</ele>
        <time>2020-07-01T09:30:58Z</time>
      </trkpt>
      <trkpt lat="48.97933" lon="3.35294">
        <ele>116.2</ele>
        <time>2020-07-01T09:30:59Z</time>
      </trkpt>
      <trkpt lat="48.9793" lon="3.35291">
        <ele>116.4</ele>
        <time>2020-07-01T09:31:00Z</time>
      </trkpt>
      <trkpt lat="48.97927" lon="3.35287">
        <ele>116.5</ele>
        <time>2020-07-01T09:31:01Z</time>
      </trkpt>
      <trkpt lat="48.97924" lon="3.35283">
        <ele>116.6</ele>
        <time>2020-07-01T09:31:02Z</time>
      </trkpt>
      <trkpt lat="48.97921" lon="3.35279">
        <ele>116.8</ele>
        <time>2020-07-01T09:31:03Z</time>
      </trkpt>
      <trkpt lat="48.97918" lon="3.35275">
        <ele>116.9</ele>
        <time>2020-07-01T09:31:04Z</time>
      </trkpt>
      <trkpt lat="48.97915" lon="3.35271">
        <ele>117</ele>
        <time>2020-07-01T09:31:05Z</time>
      </trkpt>
      <trkpt lat="48.97912" lon="3.35268">
        <ele>117.1</ele>
        <time>2020-07-01T09:31:06Z</time>
      </trkpt>
      <trkpt lat="48.97909" lon="3.35264">
        <ele>117.3</ele>
        <time>2020-07-01T09:31:07Z</time>
      </trkpt>
      <trkpt lat="48.97906" lon="3.3526">
        <ele>117.4</ele>
        <time>2020-07-01T09:31:08Z</time>
      </trkpt>
      <trkpt lat="48.97903" lon="3.35256">
        <ele>117.4</ele>
        <time>2020-07-01T09:31:09Z</time>
      </trkpt>
      <trkpt lat="48.979" lon="3.35253">
        <ele>117.5</ele>
        <time>2020-07-01T09:31:10Z</time>
      </trkpt>
      <trkpt lat="48.97896" lon="3.3525">
        <ele>117.6</ele>
        <time>2020-07-01T09:31:11Z</time>
      </trkpt>
      <trkpt lat="48.97893" lon="3.35246">
        <ele>117.7</ele>
        <time>2020-07-01T09:31:12Z</time>
      </trkpt>
      <trkpt lat="48.9789" lon="3.35243">
        <ele>117.7</ele>
        <time>2020-07-01T09:31:13Z</time>
      </trkpt>
      <trkpt lat="48.97887" lon="3.35239">
        <ele>117.8</ele>
        <time>2020-07-01T09:31:14Z</time>
      </trkpt>
      <trkpt lat="48.97884" lon="3.35235">
        <ele>117.9</ele>
        <time>2020-07-01T09:31:15Z</time>
      </trkpt>
      <trkpt lat="48.97881" lon="3.35231">
        <ele>117.9</ele>
        <time>2020-07-01T09:31:16Z</time>
      </trkpt>
      <trkpt lat="48.97878" lon="3.35226">
        <ele>118</ele>
        <time>2020-07-01T09:31:17Z</time>
      </trkpt>
      <trkpt lat="48.97874" lon="3.35222">
        <ele>118</ele>
        <time>2020-07-01T09:31:18Z</time>
      </trkpt>
      <trkpt lat="48.97871" lon="3.35219">
        <ele>118</ele>
        <time>2020-07-01T09:31:19Z</time>
      </trkpt>
      <trkpt lat="48.97867" lon="3.35216">
        <ele>118</ele>
        <time>2020-07-01T09:31:20Z</time>
      </trkpt>
      <trkpt lat="48.97863" lon="3.35212">
        <ele>118</ele>
        <time>2020-07-01T09:31:21Z</time>
      </trkpt>
      <trkpt lat="48.9786" lon="3.35209">
        <ele>118</ele>
        <time>2020-07-01T09:31:22Z</time>
      </trkpt>
      <trkpt lat="48.97856" lon="3.35205">
        <ele>118</ele>
        <time>2020-07-01T09:31:23Z</time>
      </trkpt>
      <trkpt lat="48.97852" lon="3.35201">
        <ele>118</ele>
        <time>2020-07-01T09:31:24Z</time>
      </trkpt>
      <trkpt lat="48.97848" lon="3.35197">
        <ele>118</ele>
        <time>2020-07-01T09:31:25Z</time>
      </trkpt>
      <trkpt lat="48.97844" lon="3.35194">
        <ele>117.9</ele>
        <time>2020-07-01T09:31:26Z</time>
      </trkpt>
      <trkpt lat="48.97839" lon="3.35189">
        <ele>117.8</ele>
        <time>2020-07-01T09:31:27Z</time>
      </trkpt>
      <trkpt lat="48.97835" lon="3.35185">
        <ele>117.8</ele>
        <time>2020-07-01T09:31:28Z</time>
      </trkpt>
      <trkpt lat="48.9783" lon="3.35179">
        <ele>117.7</ele>
        <time>2020-07-01T09:31:29Z</time>
      </trkpt>
      <trkpt lat="48.97826" lon="3.35173">
        <ele>117.6</ele>
        <time>2020-07-01T09:31:30Z</time>
      </trkpt>
      <trkpt lat="48.97823" lon="3.35168">
        <ele>117.5</ele>
        <time>2020-07-01T09:31:31Z</time>
      </trkpt>
      <trkpt lat="48.97819" lon="3.35162">
        <ele>117.5</ele>
        <time>2020-07-01T09:31:32Z</time>
      </trkpt>
      <trkpt lat="48.97815" lon="3.35157">
        <ele>117.4</ele>
        <time>2020-07-01T09:31:33Z</time>
      </trkpt>
      <trkpt lat="48.97811" lon="3.35153">
        <ele>117.3</ele>
        <time>2020-07-01T09:31:34Z</time>
      </trkpt>
      <trkpt lat="48.97807" lon="3.35147">
        <ele>117.3</ele>
        <time>2020-07-01T09:31:35Z</time>
      </trkpt>
      <trkpt lat="48.97804" lon="3.35142">
        <ele>117.2</ele>
        <time>2020-07-01T09:31:36Z</time>
      </trkpt>
      <trkpt lat="48.97801" lon="3.35138">
        <ele>117.1</ele>
        <time>2020-07-01T09:31:37Z</time>
      </trkpt>
      <trkpt lat="48.97798" lon="3.35133">
        <ele>117.1</ele>
        <time>2020-07-01T09:31:38Z</time>
      </trkpt>
      <trkpt lat="48.97794" lon="3.35129">
        <ele>117</ele>
        <time>2020-07-01T09:31:39Z</time>
      </trkpt>
      <trkpt lat="48.9779" lon="3.35124">
        <ele>116.9</ele>
        <time>2020-07-01T09:31:40Z</time>
      </trkpt>
      <trkpt lat="48.97785" lon="3.35122">
        <ele>116.9</ele>
        <time>2020-07-01T09:31:41Z</time>
      </trkpt>
      <trkpt lat="48.97781" lon="3.35117">
        <ele>116.8</ele>
        <time>2020-07-01T09:31:42Z</time>
      </trkpt>
      <trkpt lat="48.97777" lon="3.35113">
        <ele>116.7</ele>
        <time>2020-07-01T09:31:43Z</time>
      </trkpt>
      <trkpt lat="48.97772" lon="3.35108">
        <ele>116.6</ele>
        <time>2020-07-01T09:31:44Z</time>
      </trkpt>
      <trkpt lat="48.97767" lon="3.35104">
        <ele>116.5</ele>
        <time>2020-07-01T09:31:45Z</time>
      </trkpt>
      <trkpt lat="48.97763" lon="3.351">
        <ele>116.4</ele>
        <time>2020-07-01T09:31:46Z</time>
      </trkpt>
      <trkpt lat="48.9776" lon="3.35096">
        <ele>116.4</ele>
        <time>2020-07-01T09:31:47Z</time>
      </trkpt>
      <trkpt lat="48.97757" lon="3.35092">
        <ele>116.3</ele>
        <time>2020-07-01T09:31:48Z</time>
      </trkpt>
      <trkpt lat="48.97754" lon="3.35088">
        <ele>116.2</ele>
        <time>2020-07-01T09:31:49Z</time>
      </trkpt>
      <trkpt lat="48.9775" lon="3.35085">
        <ele>116.1</ele>
        <time>2020-07-01T09:31:50Z</time>
      </trkpt>
      <trkpt lat="48.97747" lon="3.35083">
        <ele>116.1</ele>
        <time>2020-07-01T09:31:51Z</time>
      </trkpt>
      <trkpt lat="48.97745" lon="3.3508">
        <ele>116</ele>
        <time>2020-07-01T09:31:52Z</time>
      </trkpt>
      <trkpt lat="48.97741" lon="3.35076">
        <ele>115.9</ele>
        <time>2020-07-01T09:31:53Z</time>
      </trkpt>
      <trkpt lat="48.9774" lon="3.35075">
        <ele>115.9</ele>
        <time>2020-07-01T09:31:54Z</time>
      </trkpt>
      <trkpt lat="48.97738" lon="3.35072">
        <ele>115.9</ele>
        <time>2020-07-01T09:31:55Z</time>
      </trkpt>
      <trkpt lat="48.97737" lon="3.35071">
        <ele>115.9</ele>
        <time>2020-07-01T09:31:56Z</time>
      </trkpt>
      <trkpt lat="48.97737" lon="3.35071">
        <ele>115.9</ele>
        <time>2020-07-01T09:31:57Z</time>
      </trkpt>
      <trkpt lat="48.97736" lon="3.3507">
        <ele>115.8</ele>
        <time>2020-07-01T09:31:58Z</time>
      </trkpt>
      <trkpt lat="48.97735" lon="3.35069">
        <ele>115.8</ele>
        <time>2020-07-01T09:31:59Z</time>
      </trkpt>
      <trkpt lat="48.97735" lon="3.35068">
        <ele>115.8</ele>
        <time>2020-07-01T09:32:00Z</time>
      </trkpt>
      <trkpt lat="48.97735" lon="3.35068">
        <ele>115.8</ele>
        <time>2020-07-01T09:32:01Z</time>
      </trkpt>
      <trkpt lat="48.97735" lon="3.35067">
        <ele>115.8</ele>
        <time>2020-07-01T09:32:02Z</time>
      </trkpt>
      <trkpt lat="48.97735" lon="3.35066">
        <ele>115.8</ele>
        <time>2020-07-01T09:32:03Z</time>
      </trkpt>
      <trkpt lat="48.97735" lon="3.35065">
        <ele>115.8</ele>
        <time>2020-07-01T09:32:04Z</time>
      </trkpt>
      <trkpt lat="48.97735" lon="3.35065">
        <ele>115.8</ele>
        <time>2020-07-01T09:32:05Z</time>
      </trkpt>
      <trkpt lat="48.97735" lon="3.35066">
        <ele>115.8</ele>
        <time>2020-07-01T09:32:06Z</time>
      </trkpt>
      <trkpt lat="48.97736" lon="3.35066">
        <ele>115.8</ele>
        <time>2020-07-01T09:32:07Z</time>
      </trkpt>
      <trkpt lat="48.97735" lon="3.35067">
        <ele>115.8</ele>
        <time>2020-07-01T09:32:08Z</time>
      </trkpt>
      <trkpt lat="48.97728" lon="3.35062">
        <ele>115.7</ele>
        <time>2020-07-01T09:35:41Z</time>
      </trkpt>
      <trkpt lat="48.97727" lon="3.35061">
        <ele>115.7</ele>
        <time>2020-07-01T09:35:42Z</time>
      </trkpt>
      <trkpt lat="48.97724" lon="3.35058">
        <ele>115.7</ele>
        <time>2020-07-01T09:35:43Z</time>
      </trkpt>
      <trkpt lat="48.97723" lon="3.35057">
        <ele>115.7</ele>
        <time>2020-07-01T09:35:44Z</time>
      </trkpt>
      <trkpt lat="48.9772" lon="3.35054">
        <ele>115.6</ele>
        <time>2020-07-01T09:35:45Z</time>
      </trkpt>
      <trkpt lat="48.97719" lon="3.35054">
        <ele>115.6</ele>
        <time>2020-07-01T09:35:46Z</time>
      </trkpt>
      <trkpt lat="48.97716" lon="3.35049">
        <ele>115.6</ele>
        <time>2020-07-01T09:35:47Z</time>
      </trkpt>
      <trkpt lat="48.97715" lon="3.35047">
        <ele>115.6</ele>
        <time>2020-07-01T09:35:48Z</time>
      </trkpt>
      <trkpt lat="48.97714" lon="3.35043">
        <ele>115.6</ele>
        <time>2020-07-01T09:35:49Z</time>
      </trkpt>
      <trkpt lat="48.97711" lon="3.35038">
        <ele>115.6</ele>
        <time>2020-07-01T09:35:50Z</time>
      </trkpt>
      <trkpt lat="48.97708" lon="3.35034">
        <ele>115.6</ele>
        <time>2020-07-01T09:35:51Z</time>
      </trkpt>
      <trkpt lat="48.97705" lon="3.35029">
        <ele>115.6</ele>
        <time>2020-07-01T09:35:52Z</time>
      </trkpt>
      <trkpt lat="48.97701" lon="3.35026">
        <ele>115.6</ele>
        <time>2020-07-01T09:35:53Z</time>
      </trkpt>
      <trkpt lat="48.97697" lon="3.35022">
        <ele>115.6</ele>
        <time>2020-07-01T09:35:54Z</time>
      </trkpt>
      <trkpt lat="48.97694" lon="3.35019">
        <ele>115.6</ele>
        <time>2020-07-01T09:35:55Z</time>
      </trkpt>
      <trkpt lat="48.97692" lon="3.35016">
        <ele>115.6</ele>
        <time>2020-07-01T09:35:56Z</time>
      </trkpt>
      <trkpt lat="48.97689" lon="3.35013">
        <ele>115.6</ele>
        <time>2020-07-01T09:35:57Z</time>
      </trkpt>
      <trkpt lat="48.97686" lon="3.35009">
        <ele>115.6</ele>
        <time>2020-07-01T09:35:58Z</time>
      </trkpt>
      <trkpt lat="48.97683" lon="3.35004">
        <ele>115.6</ele>
        <time>2020-07-01T09:35:59Z</time>
      </trkpt>
      <trkpt lat="48.9768" lon="3.34999">
        <ele>115.5</ele>
        <time>2020-07-01T09:36:00Z</time>
      </trkpt>
      <trkpt lat="48.97678" lon="3.34994">
        <ele>115.5</ele>
        <time>2020-07-01T09:36:01Z</time>
      </trkpt>
      <trkpt lat="48.97675" lon="3.34989">
        <ele>115.5</ele>
        <time>2020-07-01T09:36:02Z</time>
      </trkpt>
      <trkpt lat="48.97672" lon="3.34983">
        <ele>115.5</ele>
        <time>2020-07-01T09:36:03Z</time>
      </trkpt>
      <trkpt lat="48.97668" lon="3.34977">
        <ele>115.5</ele>
        <time>2020-07-01T09:36:04Z</time>
      </trkpt>
      <trkpt lat="48.97665" lon="3.34972">
        <ele>115.5</ele>
        <time>2020-07-01T09:36:05Z</time>
      </trkpt>
      <trkpt lat="48.97661" lon="3.34966">
        <ele>115.5</ele>
        <time>2020-07-01T09:36:06Z</time>
      </trkpt>
      <trkpt lat="48.97658" lon="3.34961">
        <ele>115.5</ele>
        <time>2020-07-01T09:36:07Z</time>
      </trkpt>
      <trkpt lat="48.97654" lon="3.34955">
        <ele>115.5</ele>
        <time>2020-07-01T09:36:08Z</time>
      </trkpt>
      <trkpt lat="48.97652" lon="3.3495">
        <ele>115.5</ele>
        <time>2020-07-01T09:36:09Z</time>
      </trkpt>
      <trkpt lat="48.97649" lon="3.34944">
        <ele>115.4</ele>
        <time>2020-07-01T09:36:10Z</time>
      </trkpt>
      <trkpt lat="48.97646" lon="3.34939">
        <ele>115.4</ele>
        <time>2020-07-01T09:36:11Z</time>
      </trkpt>
      <trkpt lat="48.97642" lon="3.34932">
        <ele>115.4</ele>
        <time>2020-07-01T09:36:12Z</time>
      </trkpt>
      <trkpt lat="48.97638" lon="3.34926">
        <ele>115.3</ele>
        <time>2020-07-01T09:36:13Z</time>
      </trkpt>
      <trkpt lat="48.97635" lon="3.3492">
        <ele>115.3</ele>
        <time>2020-07-01T09:36:14Z</time>
      </trkpt>
      <trkpt lat="48.97631" lon="3.34914">
        <ele>115.3</ele>
        <time>2020-07-01T09:36:15Z</time>
      </trkpt>
      <trkpt lat="48.97627" lon="3.34909">
        <ele>115.2</ele>
        <time>2020-07-01T09:36:16Z</time>
      </trkpt>
      <trkpt lat="48.97623" lon="3.34903">
        <ele>115.2</ele>
        <time>2020-07-01T09:36:17Z</time>
      </trkpt>
      <trkpt lat="48.97619" lon="3.34896">
        <ele>115.1</ele>
        <time>2020-07-01T09:36:18Z</time>
      </trkpt>
      <trkpt lat="48.97615" lon="3.34889">
        <ele>115.1</ele>
        <time>2020-07-01T09:36:19Z</time>
      </trkpt>
      <trkpt lat="48.97611" lon="3.34883">
        <ele>115</ele>
        <time>2020-07-01T09:36:20Z</time>
      </trkpt>
      <trkpt lat="48.97608" lon="3.34876">
        <ele>115</ele>
        <time>2020-07-01T09:36:21Z</time>
      </trkpt>
      <trkpt lat="48.97604" lon="3.3487">
        <ele>114.9</ele>
        <time>2020-07-01T09:36:22Z</time>
      </trkpt>
      <trkpt lat="48.97601" lon="3.34865">
        <ele>114.9</ele>
        <time>2020-07-01T09:36:23Z</time>
      </trkpt>
      <trkpt lat="48.97597" lon="3.34859">
        <ele>114.8</ele>
        <time>2020-07-01T09:36:24Z</time>
      </trkpt>
      <trkpt lat="48.97595" lon="3.34854">
        <ele>114.8</ele>
        <time>2020-07-01T09:36:25Z</time>
      </trkpt>
      <trkpt lat="48.97592" lon="3.3485">
        <ele>114.7</ele>
        <time>2020-07-01T09:36:26Z</time>
      </trkpt>
      <trkpt lat="48.9759" lon="3.34843">
        <ele>114.7</ele>
        <time>2020-07-01T09:36:27Z</time>
      </trkpt>
      <trkpt lat="48.97587" lon="3.34837">
        <ele>114.6</ele>
        <time>2020-07-01T09:36:28Z</time>
      </trkpt>
      <trkpt lat="48.97584" lon="3.34831">
        <ele>114.5</ele>
        <time>2020-07-01T09:36:29Z</time>
      </trkpt>
      <trkpt lat="48.9758" lon="3.34825">
        <ele>114.4</ele>
        <time>2020-07-01T09:36:30Z</time>
      </trkpt>
      <trkpt lat="48.97577" lon="3.34817">
        <ele>114.4</ele>
        <time>2020-07-01T09:36:31Z</time>
      </trkpt>
      <trkpt lat="48.97572" lon="3.34811">
        <ele>114.3</ele>
        <time>2020-07-01T09:36:32Z</time>
      </trkpt>
      <trkpt lat="48.97569" lon="3.34804">
        <ele>114.2</ele>
        <time>2020-07-01T09:36:33Z</time>
      </trkpt>
      <trkpt lat="48.97565" lon="3.34798">
        <ele>114.1</ele>
        <time>2020-07-01T09:36:34Z</time>
      </trkpt>
      <trkpt lat="48.97561" lon="3.34791">
        <ele>114</ele>
        <time>2020-07-01T09:36:35Z</time>
      </trkpt>
      <trkpt lat="48.97556" lon="3.34782">
        <ele>113.8</ele>
        <time>2020-07-01T09:36:36Z</time>
      </trkpt>
      <trkpt lat="48.97552" lon="3.34775">
        <ele>113.7</ele>
        <time>2020-07-01T09:36:37Z</time>
      </trkpt>
      <trkpt lat="48.97548" lon="3.34768">
        <ele>113.6</ele>
        <time>2020-07-01T09:36:38Z</time>
      </trkpt>
      <trkpt lat="48.97543" lon="3.34761">
        <ele>113.4</ele>
        <time>2020-07-01T09:36:39Z</time>
      </trkpt>
      <trkpt lat="48.97539" lon="3.34752">
        <ele>113.3</ele>
        <time>2020-07-01T09:36:40Z</time>
      </trkpt>
      <trkpt lat="48.97536" lon="3.34744">
        <ele>113.2</ele>
        <time>2020-07-01T09:36:41Z</time>
      </trkpt>
      <trkpt lat="48.97531" lon="3.34737">
        <ele>113.1</ele>
        <time>2020-07-01T09:36:42Z</time>
      </trkpt>
      <trkpt lat="48.97527" lon="3.34729">
        <ele>113.1</ele>
        <time>2020-07-01T09:36:43Z</time>
      </trkpt>
      <trkpt lat="48.97523" lon="3.34722">
        <ele>113</ele>
        <time>2020-07-01T09:36:44Z</time>
      </trkpt>
      <trkpt lat="48.97517" lon="3.34715">
        <ele>113</ele>
        <time>2020-07-01T09:36:45Z</time>
      </trkpt>
      <trkpt lat="48.97512" lon="3.34706">
        <ele>112.9</ele>
        <time>2020-07-01T09:36:46Z</time>
      </trkpt>
      <trkpt lat="48.97508" lon="3.34699">
        <ele>112.9</ele>
        <time>2020-07-01T09:36:47Z</time>
      </trkpt>
      <trkpt lat="48.97503" lon="3.34691">
        <ele>112.8</ele>
        <time>2020-07-01T09:36:48Z</time>
      </trkpt>
      <trkpt lat="48.97499" lon="3.34684">
        <ele>112.7</ele>
        <time>2020-07-01T09:36:49Z</time>
      </trkpt>
      <trkpt lat="48.97495" lon="3.34676">
        <ele>112.7</ele>
        <time>2020-07-01T09:36:50Z</time>
      </trkpt>
      <trkpt lat="48.97489" lon="3.34669">
        <ele>112.6</ele>
        <time>2020-07-01T09:36:51Z</time>
      </trkpt>
      <trkpt lat="48.97484" lon="3.34662">
        <ele>112.6</ele>
        <time>2020-07-01T09:36:52Z</time>
      </trkpt>
      <trkpt lat="48.9748" lon="3.34654">
        <ele>112.6</ele>
        <time>2020-07-01T09:36:53Z</time>
      </trkpt>
      <trkpt lat="48.97475" lon="3.34647">
        <ele>112.6</ele>
        <time>2020-07-01T09:36:54Z</time>
      </trkpt>
      <trkpt lat="48.97471" lon="3.34639">
        <ele>112.9</ele>
        <time>2020-07-01T09:36:55Z</time>
      </trkpt>
      <trkpt lat="48.97467" lon="3.34632">
        <ele>113.1</ele>
        <time>2020-07-01T09:36:56Z</time>
      </trkpt>
      <trkpt lat="48.97463" lon="3.34626">
        <ele>113.3</ele>
        <time>2020-07-01T09:36:57Z</time>
      </trkpt>
      <trkpt lat="48.97459" lon="3.34619">
        <ele>113.3</ele>
        <time>2020-07-01T09:36:58Z</time>
      </trkpt>
      <trkpt lat="48.97455" lon="3.34611">
        <ele>113.3</ele>
        <time>2020-07-01T09:36:59Z</time>
      </trkpt>
      <trkpt lat="48.9745" lon="3.34605">
        <ele>113.3</ele>
        <time>2020-07-01T09:37:00Z</time>
      </trkpt>
      <trkpt lat="48.97446" lon="3.34597">
        <ele>113.3</ele>
        <time>2020-07-01T09:37:01Z</time>
      </trkpt>
      <trkpt lat="48.97442" lon="3.34591">
        <ele>113.3</ele>
        <time>2020-07-01T09:37:02Z</time>
      </trkpt>
      <trkpt lat="48.97439" lon="3.34584">
        <ele>113.3</ele>
        <time>2020-07-01T09:37:03Z</time>
      </trkpt>
      <trkpt lat="48.97436" lon="3.34577">
        <ele>113.2</ele>
        <time>2020-07-01T09:37:04Z</time>
      </trkpt>
      <trkpt lat="48.97433" lon="3.3457">
        <ele>113.2</ele>
        <time>2020-07-01T09:37:05Z</time>
      </trkpt>
      <trkpt lat="48.97429" lon="3.34563">
        <ele>113.2</ele>
        <time>2020-07-01T09:37:06Z</time>
      </trkpt>
      <trkpt lat="48.97425" lon="3.34555">
        <ele>113.2</ele>
        <time>2020-07-01T09:37:07Z</time>
      </trkpt>
      <trkpt lat="48.97422" lon="3.34548">
        <ele>113.1</ele>
        <time>2020-07-01T09:37:08Z</time>
      </trkpt>
      <trkpt lat="48.97419" lon="3.34541">
        <ele>113.1</ele>
        <time>2020-07-01T09:37:09Z</time>
      </trkpt>
      <trkpt lat="48.97416" lon="3.34534">
        <ele>113</ele>
        <time>2020-07-01T09:37:10Z</time>
      </trkpt>
      <trkpt lat="48.97412" lon="3.34528">
        <ele>113</ele>
        <time>2020-07-01T09:37:11Z</time>
      </trkpt>
      <trkpt lat="48.97408" lon="3.34522">
        <ele>112.9</ele>
        <time>2020-07-01T09:37:12Z</time>
      </trkpt>
      <trkpt lat="48.97404" lon="3.34516">
        <ele>112.9</ele>
        <time>2020-07-01T09:37:13Z</time>
      </trkpt>
      <trkpt lat="48.97399" lon="3.34509">
        <ele>112.9</ele>
        <time>2020-07-01T09:37:14Z</time>
      </trkpt>
      <trkpt lat="48.97393" lon="3.34503">
        <ele>112.8</ele>
        <time>2020-07-01T09:37:15Z</time>
      </trkpt>
      <trkpt lat="48.97389" lon="3.34494">
        <ele>112.8</ele>
        <time>2020-07-01T09:37:16Z</time>
      </trkpt>
      <trkpt lat="48.97386" lon="3.34486">
        <ele>112.7</ele>
        <time>2020-07-01T09:37:17Z</time>
      </trkpt>
      <trkpt lat="48.97382" lon="3.34477">
        <ele>112.6</ele>
        <time>2020-07-01T09:37:18Z</time>
      </trkpt>
      <trkpt lat="48.97379" lon="3.34468">
        <ele>112.5</ele>
        <time>2020-07-01T09:37:19Z</time>
      </trkpt>
      <trkpt lat="48.97376" lon="3.34459">
        <ele>112.4</ele>
        <time>2020-07-01T09:37:20Z</time>
      </trkpt>
      <trkpt lat="48.97372" lon="3.34451">
        <ele>112.3</ele>
        <time>2020-07-01T09:37:21Z</time>
      </trkpt>
      <trkpt lat="48.97369" lon="3.34443">
        <ele>112.3</ele>
        <time>2020-07-01T09:37:22Z</time>
      </trkpt>
      <trkpt lat="48.97365" lon="3.34434">
        <ele>112.2</ele>
        <time>2020-07-01T09:37:23Z</time>
      </trkpt>
      <trkpt lat="48.97362" lon="3.34425">
        <ele>112.1</ele>
        <time>2020-07-01T09:37:24Z</time>
      </trkpt>
      <trkpt lat="48.97358" lon="3.34415">
        <ele>112</ele>
        <time>2020-07-01T09:37:25Z</time>
      </trkpt>
      <trkpt lat="48.97354" lon="3.34407">
        <ele>111.9</ele>
        <time>2020-07-01T09:37:26Z</time>
      </trkpt>
      <trkpt lat="48.9735" lon="3.34399">
        <ele>111.8</ele>
        <time>2020-07-01T09:37:27Z</time>
      </trkpt>
      <trkpt lat="48.97347" lon="3.34392">
        <ele>111.7</ele>
        <time>2020-07-01T09:37:28Z</time>
      </trkpt>
      <trkpt lat="48.97343" lon="3.34385">
        <ele>111.6</ele>
        <time>2020-07-01T09:37:29Z</time>
      </trkpt>
      <trkpt lat="48.97339" lon="3.34377">
        <ele>111.5</ele>
        <time>2020-07-01T09:37:30Z</time>
      </trkpt>
      <trkpt lat="48.97335" lon="3.34369">
        <ele>111.4</ele>
        <time>2020-07-01T09:37:31Z</time>
      </trkpt>
      <trkpt lat="48.9733" lon="3.3436">
        <ele>111.2</ele>
        <time>2020-07-01T09:37:32Z</time>
      </trkpt>
      <trkpt lat="48.97327" lon="3.34353">
        <ele>111.1</ele>
        <time>2020-07-01T09:37:33Z</time>
      </trkpt>
      <trkpt lat="48.97323" lon="3.34346">
        <ele>110.9</ele>
        <time>2020-07-01T09:37:34Z</time>
      </trkpt>
      <trkpt lat="48.97318" lon="3.34339">
        <ele>110.7</ele>
        <time>2020-07-01T09:37:35Z</time>
      </trkpt>
      <trkpt lat="48.97314" lon="3.34333">
        <ele>110.5</ele>
        <time>2020-07-01T09:37:36Z</time>
      </trkpt>
      <trkpt lat="48.9731" lon="3.34327">
        <ele>110.3</ele>
        <time>2020-07-01T09:37:37Z</time>
      </trkpt>
      <trkpt lat="48.97306" lon="3.3432">
        <ele>110.1</ele>
        <time>2020-07-01T09:37:38Z</time>
      </trkpt>
      <trkpt lat="48.97302" lon="3.34312">
        <ele>109.8</ele>
        <time>2020-07-01T09:37:39Z</time>
      </trkpt>
      <trkpt lat="48.97299" lon="3.34305">
        <ele>109.6</ele>
        <time>2020-07-01T09:37:40Z</time>
      </trkpt>
      <trkpt lat="48.97296" lon="3.34297">
        <ele>109.4</ele>
        <time>2020-07-01T09:37:41Z</time>
      </trkpt>
      <trkpt lat="48.97292" lon="3.34287">
        <ele>109.1</ele>
        <time>2020-07-01T09:37:42Z</time>
      </trkpt>
      <trkpt lat="48.97287" lon="3.34277">
        <ele>108.7</ele>
        <time>2020-07-01T09:37:43Z</time>
      </trkpt>
      <trkpt lat="48.97282" lon="3.34266">
        <ele>108.4</ele>
        <time>2020-07-01T09:37:44Z</time>
      </trkpt>
      <trkpt lat="48.97278" lon="3.34254">
        <ele>108</ele>
        <time>2020-07-01T09:37:45Z</time>
      </trkpt>
      <trkpt lat="48.97274" lon="3.34244">
        <ele>107.7</ele>
        <time>2020-07-01T09:37:46Z</time>
      </trkpt>
      <trkpt lat="48.97269" lon="3.34233">
        <ele>107.4</ele>
        <time>2020-07-01T09:37:47Z</time>
      </trkpt>
      <trkpt lat="48.97264" lon="3.34223">
        <ele>107</ele>
        <time>2020-07-01T09:37:48Z</time>
      </trkpt>
      <trkpt lat="48.97259" lon="3.34212">
        <ele>106.6</ele>
        <time>2020-07-01T09:37:49Z</time>
      </trkpt>
      <trkpt lat="48.97255" lon="3.34201">
        <ele>106.2</ele>
        <time>2020-07-01T09:37:50Z</time>
      </trkpt>
      <trkpt lat="48.9725" lon="3.34191">
        <ele>105.9</ele>
        <time>2020-07-01T09:37:51Z</time>
      </trkpt>
      <trkpt lat="48.97245" lon="3.3418">
        <ele>105.5</ele>
        <time>2020-07-01T09:37:52Z</time>
      </trkpt>
      <trkpt lat="48.97241" lon="3.3417">
        <ele>105.1</ele>
        <time>2020-07-01T09:37:53Z</time>
      </trkpt>
      <trkpt lat="48.97236" lon="3.3416">
        <ele>104.7</ele>
        <time>2020-07-01T09:37:54Z</time>
      </trkpt>
      <trkpt lat="48.97231" lon="3.3415">
        <ele>104.3</ele>
        <time>2020-07-01T09:37:55Z</time>
      </trkpt>
      <trkpt lat="48.97226" lon="3.3414">
        <ele>103.9</ele>
        <time>2020-07-01T09:37:56Z</time>
      </trkpt>
      <trkpt lat="48.97222" lon="3.34129">
        <ele>103.4</ele>
        <time>2020-07-01T09:37:57Z</time>
      </trkpt>
      <trkpt lat="48.97217" lon="3.34117">
        <ele>103</ele>
        <time>2020-07-01T09:37:58Z</time>
      </trkpt>
      <trkpt lat="48.97212" lon="3.34106">
        <ele>102.6</ele>
        <time>2020-07-01T09:37:59Z</time>
      </trkpt>
      <trkpt lat="48.97206" lon="3.34096">
        <ele>102.2</ele>
        <time>2020-07-01T09:38:00Z</time>
      </trkpt>
      <trkpt lat="48.97201" lon="3.34085">
        <ele>101.8</ele>
        <time>2020-07-01T09:38:01Z</time>
      </trkpt>
      <trkpt lat="48.97195" lon="3.34074">
        <ele>101.3</ele>
        <time>2020-07-01T09:38:02Z</time>
      </trkpt>
      <trkpt lat="48.97189" lon="3.34063">
        <ele>100.9</ele>
        <time>2020-07-01T09:38:03Z</time>
      </trkpt>
      <trkpt lat="48.97184" lon="3.34052">
        <ele>100.5</ele>
        <time>2020-07-01T09:38:04Z</time>
      </trkpt>
      <trkpt lat="48.97179" lon="3.34041">
        <ele>100.1</ele>
        <time>2020-07-01T09:38:05Z</time>
      </trkpt>
      <trkpt lat="48.97174" lon="3.3403">
        <ele>99.7</ele>
        <time>2020-07-01T09:38:06Z</time>
      </trkpt>
      <trkpt lat="48.97168" lon="3.34019">
        <ele>99.3</ele>
        <time>2020-07-01T09:38:07Z</time>
      </trkpt>
      <trkpt lat="48.97162" lon="3.34008">
        <ele>98.9</ele>
        <time>2020-07-01T09:38:08Z</time>
      </trkpt>
      <trkpt lat="48.97156" lon="3.33996">
        <ele>98.6</ele>
        <time>2020-07-01T09:38:09Z</time>
      </trkpt>
      <trkpt lat="48.97151" lon="3.33985">
        <ele>98.2</ele>
        <time>2020-07-01T09:38:10Z</time>
      </trkpt>
      <trkpt lat="48.97146" lon="3.33974">
        <ele>97.7</ele>
        <time>2020-07-01T09:38:11Z</time>
      </trkpt>
      <trkpt lat="48.9714" lon="3.33963">
        <ele>97.3</ele>
        <time>2020-07-01T09:38:12Z</time>
      </trkpt>
      <trkpt lat="48.97135" lon="3.33952">
        <ele>96.9</ele>
        <time>2020-07-01T09:38:13Z</time>
      </trkpt>
      <trkpt lat="48.97129" lon="3.33942">
        <ele>96.6</ele>
        <time>2020-07-01T09:38:14Z</time>
      </trkpt>
      <trkpt lat="48.97124" lon="3.33931">
        <ele>96.2</ele>
        <time>2020-07-01T09:38:15Z</time>
      </trkpt>
      <trkpt lat="48.97118" lon="3.33919">
        <ele>95.9</ele>
        <time>2020-07-01T09:38:16Z</time>
      </trkpt>
      <trkpt lat="48.97112" lon="3.33909">
        <ele>95.6</ele>
        <time>2020-07-01T09:38:17Z</time>
      </trkpt>
      <trkpt lat="48.97107" lon="3.33898">
        <ele>95.3</ele>
        <time>2020-07-01T09:38:18Z</time>
      </trkpt>
      <trkpt lat="48.97102" lon="3.33888">
        <ele>94.8</ele>
        <time>2020-07-01T09:38:19Z</time>
      </trkpt>
      <trkpt lat="48.97096" lon="3.33877">
        <ele>94.3</ele>
        <time>2020-07-01T09:38:20Z</time>
      </trkpt>
      <trkpt lat="48.9709" lon="3.33866">
        <ele>93.8</ele>
        <time>2020-07-01T09:38:21Z</time>
      </trkpt>
      <trkpt lat="48.97084" lon="3.33855">
        <ele>93.3</ele>
        <time>2020-07-01T09:38:22Z</time>
      </trkpt>
      <trkpt lat="48.97078" lon="3.33844">
        <ele>92.8</ele>
        <time>2020-07-01T09:38:23Z</time>
      </trkpt>
      <trkpt lat="48.97072" lon="3.33833">
        <ele>92.4</ele>
        <time>2020-07-01T09:38:24Z</time>
      </trkpt>
      <trkpt lat="48.97066" lon="3.33821">
        <ele>92.1</ele>
        <time>2020-07-01T09:38:25Z</time>
      </trkpt>
      <trkpt lat="48.9706" lon="3.33809">
        <ele>91.7</ele>
        <time>2020-07-01T09:38:26Z</time>
      </trkpt>
      <trkpt lat="48.97054" lon="3.33797">
        <ele>91.3</ele>
        <time>2020-07-01T09:38:27Z</time>
      </trkpt>
      <trkpt lat="48.97048" lon="3.33786">
        <ele>90.9</ele>
        <time>2020-07-01T09:38:28Z</time>
      </trkpt>
      <trkpt lat="48.97042" lon="3.33774">
        <ele>90.5</ele>
        <time>2020-07-01T09:38:29Z</time>
      </trkpt>
      <trkpt lat="48.97036" lon="3.33763">
        <ele>90.1</ele>
        <time>2020-07-01T09:38:30Z</time>
      </trkpt>
      <trkpt lat="48.9703" lon="3.33752">
        <ele>89.7</ele>
        <time>2020-07-01T09:38:31Z</time>
      </trkpt>
      <trkpt lat="48.97023" lon="3.3374">
        <ele>89.3</ele>
        <time>2020-07-01T09:38:32Z</time>
      </trkpt>
      <trkpt lat="48.97016" lon="3.33728">
        <ele>88.8</ele>
        <time>2020-07-01T09:38:33Z</time>
      </trkpt>
      <trkpt lat="48.9701" lon="3.33716">
        <ele>88.4</ele>
        <time>2020-07-01T09:38:34Z</time>
      </trkpt>
      <trkpt lat="48.97003" lon="3.33705">
        <ele>88</ele>
        <time>2020-07-01T09:38:35Z</time>
      </trkpt>
      <trkpt lat="48.96996" lon="3.33694">
        <ele>87.6</ele>
        <time>2020-07-01T09:38:36Z</time>
      </trkpt>
      <trkpt lat="48.96989" lon="3.33683">
        <ele>87.2</ele>
        <time>2020-07-01T09:38:37Z</time>
      </trkpt>
      <trkpt lat="48.96983" lon="3.33671">
        <ele>86.7</ele>
        <time>2020-07-01T09:38:38Z</time>
      </trkpt>
      <trkpt lat="48.96976" lon="3.3366">
        <ele>86.3</ele>
        <time>2020-07-01T09:38:39Z</time>
      </trkpt>
      <trkpt lat="48.9697" lon="3.33648">
        <ele>85.8</ele>
        <time>2020-07-01T09:38:40Z</time>
      </trkpt>
      <trkpt lat="48.96964" lon="3.33636">
        <ele>85.3</ele>
        <time>2020-07-01T09:38:41Z</time>
      </trkpt>
      <trkpt lat="48.96958" lon="3.33625">
        <ele>84.8</ele>
        <time>2020-07-01T09:38:42Z</time>
      </trkpt>
      <trkpt lat="48.96952" lon="3.33614">
        <ele>84.3</ele>
        <time>2020-07-01T09:38:43Z</time>
      </trkpt>
      <trkpt lat="48.96946" lon="3.33603">
        <ele>83.7</ele>
        <time>2020-07-01T09:38:44Z</time>
      </trkpt>
      <trkpt lat="48.9694" lon="3.33591">
        <ele>83.1</ele>
        <time>2020-07-01T09:38:45Z</time>
      </trkpt>
      <trkpt lat="48.96934" lon="3.33579">
        <ele>82.6</ele>
        <time>2020-07-01T09:38:46Z</time>
      </trkpt>
      <trkpt lat="48.96929" lon="3.33567">
        <ele>82.2</ele>
        <time>2020-07-01T09:38:47Z</time>
      </trkpt>
      <trkpt lat="48.96923" lon="3.33556">
        <ele>81.8</ele>
        <time>2020-07-01T09:38:48Z</time>
      </trkpt>
      <trkpt lat="48.96918" lon="3.33545">
        <ele>81.3</ele>
        <time>2020-07-01T09:38:49Z</time>
      </trkpt>
      <trkpt lat="48.96912" lon="3.33533">
        <ele>80.7</ele>
        <time>2020-07-01T09:38:50Z</time>
      </trkpt>
      <trkpt lat="48.96906" lon="3.33521">
        <ele>80.1</ele>
        <time>2020-07-01T09:38:51Z</time>
      </trkpt>
      <trkpt lat="48.96901" lon="3.33509">
        <ele>79.5</ele>
        <time>2020-07-01T09:38:52Z</time>
      </trkpt>
      <trkpt lat="48.96896" lon="3.33497">
        <ele>78.9</ele>
        <time>2020-07-01T09:38:53Z</time>
      </trkpt>
      <trkpt lat="48.96892" lon="3.33486">
        <ele>78.3</ele>
        <time>2020-07-01T09:38:54Z</time>
      </trkpt>
      <trkpt lat="48.96888" lon="3.33473">
        <ele>77.7</ele>
        <time>2020-07-01T09:38:55Z</time>
      </trkpt>
      <trkpt lat="48.96884" lon="3.3346">
        <ele>77</ele>
        <time>2020-07-01T09:38:56Z</time>
      </trkpt>
      <trkpt lat="48.96879" lon="3.33447">
        <ele>76.4</ele>
        <time>2020-07-01T09:38:57Z</time>
      </trkpt>
      <trkpt lat="48.96875" lon="3.33434">
        <ele>75.8</ele>
        <time>2020-07-01T09:38:58Z</time>
      </trkpt>
      <trkpt lat="48.96872" lon="3.33421">
        <ele>75.3</ele>
        <time>2020-07-01T09:38:59Z</time>
      </trkpt>
      <trkpt lat="48.96868" lon="3.33407">
        <ele>74.6</ele>
        <time>2020-07-01T09:39:00Z</time>
      </trkpt>
      <trkpt lat="48.96864" lon="3.33394">
        <ele>74</ele>
        <time>2020-07-01T09:39:01Z</time>
      </trkpt>
      <trkpt lat="48.96861" lon="3.3338">
        <ele>73.4</ele>
        <time>2020-07-01T09:39:02Z</time>
      </trkpt>
      <trkpt lat="48.96857" lon="3.33366">
        <ele>72.8</ele>
        <time>2020-07-01T09:39:03Z</time>
      </trkpt>
      <trkpt lat="48.96853" lon="3.33353">
        <ele>72.2</ele>
        <time>2020-07-01T09:39:04Z</time>
      </trkpt>
      <trkpt lat="48.96849" lon="3.3334">
        <ele>71.6</ele>
        <time>2020-07-01T09:39:05Z</time>
      </trkpt>
      <trkpt lat="48.96845" lon="3.33329">
        <ele>71.1</ele>
        <time>2020-07-01T09:39:06Z</time>
      </trkpt>
      <trkpt lat="48.96839" lon="3.33319">
        <ele>70.5</ele>
        <time>2020-07-01T09:39:07Z</time>
      </trkpt>
      <trkpt lat="48.96832" lon="3.33311">
        <ele>69.9</ele>
        <time>2020-07-01T09:39:08Z</time>
      </trkpt>
      <trkpt lat="48.96825" lon="3.33304">
        <ele>69.3</ele>
        <time>2020-07-01T09:39:09Z</time>
      </trkpt>
      <trkpt lat="48.96817" lon="3.33298">
        <ele>68.8</ele>
        <time>2020-07-01T09:39:10Z</time>
      </trkpt>
      <trkpt lat="48.96809" lon="3.33293">
        <ele>68.3</ele>
        <time>2020-07-01T09:39:11Z</time>
      </trkpt>
      <trkpt lat="48.96802" lon="3.33288">
        <ele>67.9</ele>
        <time>2020-07-01T09:39:12Z</time>
      </trkpt>
      <trkpt lat="48.96794" lon="3.33283">
        <ele>67.4</ele>
        <time>2020-07-01T09:39:13Z</time>
      </trkpt>
      <trkpt lat="48.96786" lon="3.33278">
        <ele>67.2</ele>
        <time>2020-07-01T09:39:14Z</time>
      </trkpt>
      <trkpt lat="48.96778" lon="3.33272">
        <ele>66.9</ele>
        <time>2020-07-01T09:39:15Z</time>
      </trkpt>
      <trkpt lat="48.96771" lon="3.33267">
        <ele>66.7</ele>
        <time>2020-07-01T09:39:16Z</time>
      </trkpt>
      <trkpt lat="48.96764" lon="3.3326">
        <ele>66.2</ele>
        <time>2020-07-01T09:39:17Z</time>
      </trkpt>
      <trkpt lat="48.96756" lon="3.33253">
        <ele>65.8</ele>
        <time>2020-07-01T09:39:18Z</time>
      </trkpt>
      <trkpt lat="48.9675" lon="3.33246">
        <ele>65.2</ele>
        <time>2020-07-01T09:39:19Z</time>
      </trkpt>
      <trkpt lat="48.96744" lon="3.33237">
        <ele>64.7</ele>
        <time>2020-07-01T09:39:20Z</time>
      </trkpt>
      <trkpt lat="48.9674" lon="3.33227">
        <ele>64.2</ele>
        <time>2020-07-01T09:39:21Z</time>
      </trkpt>
      <trkpt lat="48.96737" lon="3.33215">
        <ele>63.7</ele>
        <time>2020-07-01T09:39:22Z</time>
      </trkpt>
      <trkpt lat="48.96735" lon="3.33203">
        <ele>63.4</ele>
        <time>2020-07-01T09:39:23Z</time>
      </trkpt>
      <trkpt lat="48.96732" lon="3.33191">
        <ele>63</ele>
        <time>2020-07-01T09:39:24Z</time>
      </trkpt>
      <trkpt lat="48.9673" lon="3.33179">
        <ele>62.8</ele>
        <time>2020-07-01T09:39:25Z</time>
      </trkpt>
      <trkpt lat="48.96729" lon="3.33167">
        <ele>62.5</ele>
        <time>2020-07-01T09:39:26Z</time>
      </trkpt>
      <trkpt lat="48.96729" lon="3.33155">
        <ele>62.4</ele>
        <time>2020-07-01T09:39:27Z</time>
      </trkpt>
      <trkpt lat="48.96728" lon="3.33144">
        <ele>62.3</ele>
        <time>2020-07-01T09:39:28Z</time>
      </trkpt>
      <trkpt lat="48.96727" lon="3.33133">
        <ele>62.2</ele>
        <time>2020-07-01T09:39:29Z</time>
      </trkpt>
      <trkpt lat="48.96727" lon="3.33122">
        <ele>62.2</ele>
        <time>2020-07-01T09:39:30Z</time>
      </trkpt>
      <trkpt lat="48.96725" lon="3.33112">
        <ele>62.2</ele>
        <time>2020-07-01T09:39:31Z</time>
      </trkpt>
      <trkpt lat="48.96724" lon="3.33101">
        <ele>62.2</ele>
        <time>2020-07-01T09:39:32Z</time>
      </trkpt>
      <trkpt lat="48.96722" lon="3.33092">
        <ele>62.3</ele>
        <time>2020-07-01T09:39:33Z</time>
      </trkpt>
      <trkpt lat="48.96719" lon="3.33082">
        <ele>62.4</ele>
        <time>2020-07-01T09:39:34Z</time>
      </trkpt>
      <trkpt lat="48.96716" lon="3.33073">
        <ele>62.6</ele>
        <time>2020-07-01T09:39:35Z</time>
      </trkpt>
      <trkpt lat="48.96714" lon="3.33064">
        <ele>62.8</ele>
        <time>2020-07-01T09:39:36Z</time>
      </trkpt>
      <trkpt lat="48.96711" lon="3.33056">
        <ele>63</ele>
        <time>2020-07-01T09:39:37Z</time>
      </trkpt>
      <trkpt lat="48.96709" lon="3.33048">
        <ele>63.2</ele>
        <time>2020-07-01T09:39:38Z</time>
      </trkpt>
      <trkpt lat="48.96707" lon="3.33041">
        <ele>63.4</ele>
        <time>2020-07-01T09:39:39Z</time>
      </trkpt>
      <trkpt lat="48.96704" lon="3.33034">
        <ele>63.6</ele>
        <time>2020-07-01T09:39:40Z</time>
      </trkpt>
      <trkpt lat="48.96702" lon="3.33027">
        <ele>63.9</ele>
        <time>2020-07-01T09:39:41Z</time>
      </trkpt>
      <trkpt lat="48.967" lon="3.33021">
        <ele>64.1</ele>
        <time>2020-07-01T09:39:42Z</time>
      </trkpt>
      <trkpt lat="48.96698" lon="3.33015">
        <ele>64.3</ele>
        <time>2020-07-01T09:39:43Z</time>
      </trkpt>
      <trkpt lat="48.96696" lon="3.33009">
        <ele>64.6</ele>
        <time>2020-07-01T09:39:44Z</time>
      </trkpt>
      <trkpt lat="48.96695" lon="3.33003">
        <ele>64.8</ele>
        <time>2020-07-01T09:39:45Z</time>
      </trkpt>
      <trkpt lat="48.96693" lon="3.32998">
        <ele>65.1</ele>
        <time>2020-07-01T09:39:46Z</time>
      </trkpt>
      <trkpt lat="48.96691" lon="3.32993">
        <ele>65.3</ele>
        <time>2020-07-01T09:39:47Z</time>
      </trkpt>
      <trkpt lat="48.96689" lon="3.32988">
        <ele>65.5</ele>
        <time>2020-07-01T09:39:48Z</time>
      </trkpt>
      <trkpt lat="48.96687" lon="3.32983">
        <ele>65.7</ele>
        <time>2020-07-01T09:39:49Z</time>
      </trkpt>
      <trkpt lat="48.96686" lon="3.32979">
        <ele>65.9</ele>
        <time>2020-07-01T09:39:50Z</time>
      </trkpt>
      <trkpt lat="48.96684" lon="3.32974">
        <ele>66</ele>
        <time>2020-07-01T09:39:51Z</time>
      </trkpt>
      <trkpt lat="48.96682" lon="3.3297">
        <ele>66.2</ele>
        <time>2020-07-01T09:39:52Z</time>
      </trkpt>
      <trkpt lat="48.96681" lon="3.32965">
        <ele>66.4</ele>
        <time>2020-07-01T09:39:53Z</time>
      </trkpt>
      <trkpt lat="48.96679" lon="3.3296">
        <ele>66.6</ele>
        <time>2020-07-01T09:39:54Z</time>
      </trkpt>
      <trkpt lat="48.96676" lon="3.32957">
        <ele>66.8</ele>
        <time>2020-07-01T09:39:55Z</time>
      </trkpt>
      <trkpt lat="48.96675" lon="3.32953">
        <ele>66.9</ele>
        <time>2020-07-01T09:39:56Z</time>
      </trkpt>
      <trkpt lat="48.96673" lon="3.32949">
        <ele>67.1</ele>
        <time>2020-07-01T09:39:57Z</time>
      </trkpt>
      <trkpt lat="48.96671" lon="3.32944">
        <ele>67.3</ele>
        <time>2020-07-01T09:39:58Z</time>
      </trkpt>
      <trkpt lat="48.96669" lon="3.3294">
        <ele>67.4</ele>
        <time>2020-07-01T09:39:59Z</time>
      </trkpt>
      <trkpt lat="48.96668" lon="3.32937">
        <ele>67.6</ele>
        <time>2020-07-01T09:40:00Z</time>
      </trkpt>
      <trkpt lat="48.96666" lon="3.32933">
        <ele>67.7</ele>
        <time>2020-07-01T09:40:01Z</time>
      </trkpt>
      <trkpt lat="48.96665" lon="3.32929">
        <ele>67.9</ele>
        <time>2020-07-01T09:40:02Z</time>
      </trkpt>
      <trkpt lat="48.96663" lon="3.32926">
        <ele>68.1</ele>
        <time>2020-07-01T09:40:03Z</time>
      </trkpt>
      <trkpt lat="48.96662" lon="3.32922">
        <ele>68.2</ele>
        <time>2020-07-01T09:40:04Z</time>
      </trkpt>
      <trkpt lat="48.96659" lon="3.32918">
        <ele>68.4</ele>
        <time>2020-07-01T09:40:05Z</time>
      </trkpt>
      <trkpt lat="48.96658" lon="3.32913">
        <ele>68.6</ele>
        <time>2020-07-01T09:40:06Z</time>
      </trkpt>
      <trkpt lat="48.96657" lon="3.32909">
        <ele>68.7</ele>
        <time>2020-07-01T09:40:07Z</time>
      </trkpt>
      <trkpt lat="48.96655" lon="3.32904">
        <ele>68.9</ele>
        <time>2020-07-01T09:40:08Z</time>
      </trkpt>
      <trkpt lat="48.96654" lon="3.32902">
        <ele>69</ele>
        <time>2020-07-01T09:40:09Z</time>
      </trkpt>
      <trkpt lat="48.96652" lon="3.32897">
        <ele>69.3</ele>
        <time>2020-07-01T09:40:10Z</time>
      </trkpt>
      <trkpt lat="48.96652" lon="3.32895">
        <ele>69.4</ele>
        <time>2020-07-01T09:40:11Z</time>
      </trkpt>
      <trkpt lat="48.9665" lon="3.32891">
        <ele>69.6</ele>
        <time>2020-07-01T09:40:12Z</time>
      </trkpt>
      <trkpt lat="48.96648" lon="3.32886">
        <ele>69.8</ele>
        <time>2020-07-01T09:40:13Z</time>
      </trkpt>
      <trkpt lat="48.96646" lon="3.32882">
        <ele>70</ele>
        <time>2020-07-01T09:40:14Z</time>
      </trkpt>
      <trkpt lat="48.96645" lon="3.32878">
        <ele>70.2</ele>
        <time>2020-07-01T09:40:15Z</time>
      </trkpt>
      <trkpt lat="48.96644" lon="3.32874">
        <ele>70.4</ele>
        <time>2020-07-01T09:40:16Z</time>
      </trkpt>
      <trkpt lat="48.96642" lon="3.3287">
        <ele>70.5</ele>
        <time>2020-07-01T09:40:17Z</time>
      </trkpt>
      <trkpt lat="48.9664" lon="3.32865">
        <ele>70.7</ele>
        <time>2020-07-01T09:40:18Z</time>
      </trkpt>
      <trkpt lat="48.96639" lon="3.32861">
        <ele>70.9</ele>
        <time>2020-07-01T09:40:19Z</time>
      </trkpt>
      <trkpt lat="48.96637" lon="3.32856">
        <ele>71.2</ele>
        <time>2020-07-01T09:40:20Z</time>
      </trkpt>
      <trkpt lat="48.96636" lon="3.32854">
        <ele>71.3</ele>
        <time>2020-07-01T09:40:21Z</time>
      </trkpt>
      <trkpt lat="48.96634" lon="3.3285">
        <ele>71.5</ele>
        <time>2020-07-01T09:40:22Z</time>
      </trkpt>
      <trkpt lat="48.96633" lon="3.32846">
        <ele>71.6</ele>
        <time>2020-07-01T09:40:23Z</time>
      </trkpt>
      <trkpt lat="48.96631" lon="3.32841">
        <ele>71.9</ele>
        <time>2020-07-01T09:40:24Z</time>
      </trkpt>
      <trkpt lat="48.9663" lon="3.32839">
        <ele>72</ele>
        <time>2020-07-01T09:40:25Z</time>
      </trkpt>
      <trkpt lat="48.96629" lon="3.32835">
        <ele>72.2</ele>
        <time>2020-07-01T09:40:26Z</time>
      </trkpt>
      <trkpt lat="48.96626" lon="3.32831">
        <ele>72.4</ele>
        <time>2020-07-01T09:40:27Z</time>
      </trkpt>
      <trkpt lat="48.96626" lon="3.32829">
        <ele>72.4</ele>
        <time>2020-07-01T09:40:28Z</time>
      </trkpt>
      <trkpt lat="48.96623" lon="3.32824">
        <ele>72.7</ele>
        <time>2020-07-01T09:40:29Z</time>
      </trkpt>
      <trkpt lat="48.96622" lon="3.32822">
        <ele>72.8</ele>
        <time>2020-07-01T09:40:30Z</time>
      </trkpt>
      <trkpt lat="48.96621" lon="3.32818">
        <ele>73.2</ele>
        <time>2020-07-01T09:40:31Z</time>
      </trkpt>
      <trkpt lat="48.96619" lon="3.32814">
        <ele>73.3</ele>
        <time>2020-07-01T09:40:32Z</time>
      </trkpt>
      <trkpt lat="48.96618" lon="3.3281">
        <ele>73.5</ele>
        <time>2020-07-01T09:40:33Z</time>
      </trkpt>
      <trkpt lat="48.96616" lon="3.32807">
        <ele>73.6</ele>
        <time>2020-07-01T09:40:34Z</time>
      </trkpt>
      <trkpt lat="48.96614" lon="3.32801">
        <ele>73.8</ele>
        <time>2020-07-01T09:40:35Z</time>
      </trkpt>
      <trkpt lat="48.96614" lon="3.328">
        <ele>73.9</ele>
        <time>2020-07-01T09:40:36Z</time>
      </trkpt>
      <trkpt lat="48.96612" lon="3.32795">
        <ele>74.1</ele>
        <time>2020-07-01T09:40:37Z</time>
      </trkpt>
      <trkpt lat="48.96611" lon="3.32793">
        <ele>74.1</ele>
        <time>2020-07-01T09:40:38Z</time>
      </trkpt>
      <trkpt lat="48.9661" lon="3.3279">
        <ele>74.3</ele>
        <time>2020-07-01T09:40:39Z</time>
      </trkpt>
      <trkpt lat="48.96608" lon="3.32785">
        <ele>74.5</ele>
        <time>2020-07-01T09:40:40Z</time>
      </trkpt>
      <trkpt lat="48.96606" lon="3.32781">
        <ele>74.6</ele>
        <time>2020-07-01T09:40:41Z</time>
      </trkpt>
      <trkpt lat="48.96605" lon="3.32777">
        <ele>74.8</ele>
        <time>2020-07-01T09:40:42Z</time>
      </trkpt>
      <trkpt lat="48.96603" lon="3.32772">
        <ele>75</ele>
        <time>2020-07-01T09:40:43Z</time>
      </trkpt>
      <trkpt lat="48.96601" lon="3.32768">
        <ele>75.1</ele>
        <time>2020-07-01T09:40:44Z</time>
      </trkpt>
      <trkpt lat="48.96599" lon="3.32764">
        <ele>75.3</ele>
        <time>2020-07-01T09:40:45Z</time>
      </trkpt>
      <trkpt lat="48.96598" lon="3.32761">
        <ele>75.4</ele>
        <time>2020-07-01T09:40:46Z</time>
      </trkpt>
      <trkpt lat="48.96596" lon="3.32757">
        <ele>75.6</ele>
        <time>2020-07-01T09:40:47Z</time>
      </trkpt>
      <trkpt lat="48.96595" lon="3.32753">
        <ele>75.7</ele>
        <time>2020-07-01T09:40:48Z</time>
      </trkpt>
      <trkpt lat="48.96593" lon="3.32748">
        <ele>75.9</ele>
        <time>2020-07-01T09:40:49Z</time>
      </trkpt>
      <trkpt lat="48.96592" lon="3.32747">
        <ele>76</ele>
        <time>2020-07-01T09:40:50Z</time>
      </trkpt>
      <trkpt lat="48.9659" lon="3.32741">
        <ele>76.1</ele>
        <time>2020-07-01T09:40:51Z</time>
      </trkpt>
      <trkpt lat="48.9659" lon="3.3274">
        <ele>76.2</ele>
        <time>2020-07-01T09:40:52Z</time>
      </trkpt>
      <trkpt lat="48.96588" lon="3.32735">
        <ele>76.3</ele>
        <time>2020-07-01T09:40:53Z</time>
      </trkpt>
      <trkpt lat="48.96587" lon="3.32733">
        <ele>76.4</ele>
        <time>2020-07-01T09:40:54Z</time>
      </trkpt>
      <trkpt lat="48.96586" lon="3.32729">
        <ele>76.5</ele>
        <time>2020-07-01T09:40:55Z</time>
      </trkpt>
      <trkpt lat="48.96584" lon="3.32725">
        <ele>76.7</ele>
        <time>2020-07-01T09:40:56Z</time>
      </trkpt>
      <trkpt lat="48.96583" lon="3.32721">
        <ele>76.8</ele>
        <time>2020-07-01T09:40:57Z</time>
      </trkpt>
      <trkpt lat="48.9658" lon="3.32716">
        <ele>77</ele>
        <time>2020-07-01T09:40:58Z</time>
      </trkpt>
      <trkpt lat="48.96579" lon="3.32715">
        <ele>77</ele>
        <time>2020-07-01T09:40:59Z</time>
      </trkpt>
      <trkpt lat="48.96578" lon="3.32709">
        <ele>77.2</ele>
        <time>2020-07-01T09:41:00Z</time>
      </trkpt>
      <trkpt lat="48.96575" lon="3.32704">
        <ele>77.3</ele>
        <time>2020-07-01T09:41:01Z</time>
      </trkpt>
      <trkpt lat="48.96574" lon="3.327">
        <ele>77.5</ele>
        <time>2020-07-01T09:41:02Z</time>
      </trkpt>
      <trkpt lat="48.96572" lon="3.32696">
        <ele>77.6</ele>
        <time>2020-07-01T09:41:03Z</time>
      </trkpt>
      <trkpt lat="48.9657" lon="3.32692">
        <ele>77.7</ele>
        <time>2020-07-01T09:41:04Z</time>
      </trkpt>
      <trkpt lat="48.96568" lon="3.32688">
        <ele>77.8</ele>
        <time>2020-07-01T09:41:05Z</time>
      </trkpt>
      <trkpt lat="48.96567" lon="3.32684">
        <ele>77.9</ele>
        <time>2020-07-01T09:41:06Z</time>
      </trkpt>
      <trkpt lat="48.96565" lon="3.3268">
        <ele>78</ele>
        <time>2020-07-01T09:41:07Z</time>
      </trkpt>
      <trkpt lat="48.96563" lon="3.32675">
        <ele>78.1</ele>
        <time>2020-07-01T09:41:08Z</time>
      </trkpt>
      <trkpt lat="48.96561" lon="3.3267">
        <ele>78.2</ele>
        <time>2020-07-01T09:41:09Z</time>
      </trkpt>
      <trkpt lat="48.96558" lon="3.32664">
        <ele>78.3</ele>
        <time>2020-07-01T09:41:10Z</time>
      </trkpt>
      <trkpt lat="48.96557" lon="3.3266">
        <ele>78.4</ele>
        <time>2020-07-01T09:41:11Z</time>
      </trkpt>
      <trkpt lat="48.96554" lon="3.32655">
        <ele>78.6</ele>
        <time>2020-07-01T09:41:12Z</time>
      </trkpt>
      <trkpt lat="48.96552" lon="3.3265">
        <ele>78.7</ele>
        <time>2020-07-01T09:41:13Z</time>
      </trkpt>
      <trkpt lat="48.9655" lon="3.32645">
        <ele>78.8</ele>
        <time>2020-07-01T09:41:14Z</time>
      </trkpt>
      <trkpt lat="48.96548" lon="3.32641">
        <ele>78.9</ele>
        <time>2020-07-01T09:41:15Z</time>
      </trkpt>
      <trkpt lat="48.96547" lon="3.32637">
        <ele>79</ele>
        <time>2020-07-01T09:41:16Z</time>
      </trkpt>
      <trkpt lat="48.96545" lon="3.32631">
        <ele>79.2</ele>
        <time>2020-07-01T09:41:17Z</time>
      </trkpt>
      <trkpt lat="48.96543" lon="3.32626">
        <ele>79</ele>
        <time>2020-07-01T09:41:18Z</time>
      </trkpt>
      <trkpt lat="48.96541" lon="3.3262">
        <ele>78.9</ele>
        <time>2020-07-01T09:41:19Z</time>
      </trkpt>
      <trkpt lat="48.96539" lon="3.32613">
        <ele>78.7</ele>
        <time>2020-07-01T09:41:20Z</time>
      </trkpt>
      <trkpt lat="48.96536" lon="3.32606">
        <ele>78.6</ele>
        <time>2020-07-01T09:41:21Z</time>
      </trkpt>
      <trkpt lat="48.96535" lon="3.326">
        <ele>78.4</ele>
        <time>2020-07-01T09:41:22Z</time>
      </trkpt>
      <trkpt lat="48.96532" lon="3.32594">
        <ele>78.2</ele>
        <time>2020-07-01T09:41:23Z</time>
      </trkpt>
      <trkpt lat="48.9653" lon="3.32588">
        <ele>78.1</ele>
        <time>2020-07-01T09:41:24Z</time>
      </trkpt>
      <trkpt lat="48.96529" lon="3.32581">
        <ele>77.9</ele>
        <time>2020-07-01T09:41:25Z</time>
      </trkpt>
      <trkpt lat="48.96527" lon="3.32574">
        <ele>77.7</ele>
        <time>2020-07-01T09:41:26Z</time>
      </trkpt>
      <trkpt lat="48.96525" lon="3.32567">
        <ele>77.5</ele>
        <time>2020-07-01T09:41:27Z</time>
      </trkpt>
      <trkpt lat="48.96524" lon="3.3256">
        <ele>77.4</ele>
        <time>2020-07-01T09:41:28Z</time>
      </trkpt>
      <trkpt lat="48.96522" lon="3.32552">
        <ele>77.1</ele>
        <time>2020-07-01T09:41:29Z</time>
      </trkpt>
      <trkpt lat="48.96521" lon="3.32543">
        <ele>77</ele>
        <time>2020-07-01T09:41:30Z</time>
      </trkpt>
      <trkpt lat="48.96519" lon="3.32534">
        <ele>77</ele>
        <time>2020-07-01T09:41:31Z</time>
      </trkpt>
      <trkpt lat="48.96517" lon="3.32526">
        <ele>76.6</ele>
        <time>2020-07-01T09:41:32Z</time>
      </trkpt>
      <trkpt lat="48.96515" lon="3.32516">
        <ele>76.2</ele>
        <time>2020-07-01T09:41:33Z</time>
      </trkpt>
      <trkpt lat="48.96513" lon="3.32506">
        <ele>75.9</ele>
        <time>2020-07-01T09:41:34Z</time>
      </trkpt>
      <trkpt lat="48.96511" lon="3.32496">
        <ele>75.5</ele>
        <time>2020-07-01T09:41:35Z</time>
      </trkpt>
      <trkpt lat="48.9651" lon="3.32486">
        <ele>75.1</ele>
        <time>2020-07-01T09:41:36Z</time>
      </trkpt>
      <trkpt lat="48.96508" lon="3.32476">
        <ele>74.7</ele>
        <time>2020-07-01T09:41:37Z</time>
      </trkpt>
      <trkpt lat="48.96506" lon="3.32467">
        <ele>74.3</ele>
        <time>2020-07-01T09:41:38Z</time>
      </trkpt>
      <trkpt lat="48.96504" lon="3.32459">
        <ele>73.9</ele>
        <time>2020-07-01T09:41:39Z</time>
      </trkpt>
      <trkpt lat="48.96503" lon="3.3245">
        <ele>73.6</ele>
        <time>2020-07-01T09:41:40Z</time>
      </trkpt>
      <trkpt lat="48.96502" lon="3.32441">
        <ele>73.1</ele>
        <time>2020-07-01T09:41:41Z</time>
      </trkpt>
      <trkpt lat="48.96501" lon="3.32432">
        <ele>72.7</ele>
        <time>2020-07-01T09:41:42Z</time>
      </trkpt>
      <trkpt lat="48.96503" lon="3.32426">
        <ele>72.2</ele>
        <time>2020-07-01T09:41:43Z</time>
      </trkpt>
      <trkpt lat="48.96507" lon="3.32422">
        <ele>71.8</ele>
        <time>2020-07-01T09:41:44Z</time>
      </trkpt>
      <trkpt lat="48.96512" lon="3.32419">
        <ele>71.4</ele>
        <time>2020-07-01T09:41:45Z</time>
      </trkpt>
      <trkpt lat="48.96518" lon="3.32415">
        <ele>71.1</ele>
        <time>2020-07-01T09:41:46Z</time>
      </trkpt>
      <trkpt lat="48.96522" lon="3.32411">
        <ele>70.9</ele>
        <time>2020-07-01T09:41:47Z</time>
      </trkpt>
      <trkpt lat="48.96527" lon="3.32407">
        <ele>70.7</ele>
        <time>2020-07-01T09:41:48Z</time>
      </trkpt>
      <trkpt lat="48.96533" lon="3.32404">
        <ele>70.5</ele>
        <time>2020-07-01T09:41:49Z</time>
      </trkpt>
      <trkpt lat="48.96539" lon="3.32401">
        <ele>70.3</ele>
        <time>2020-07-01T09:41:50Z</time>
      </trkpt>
      <trkpt lat="48.96544" lon="3.32398">
        <ele>70.1</ele>
        <time>2020-07-01T09:41:51Z</time>
      </trkpt>
      <trkpt lat="48.96551" lon="3.32396">
        <ele>70</ele>
        <time>2020-07-01T09:41:52Z</time>
      </trkpt>
      <trkpt lat="48.96558" lon="3.32394">
        <ele>69.9</ele>
        <time>2020-07-01T09:41:53Z</time>
      </trkpt>
      <trkpt lat="48.96563" lon="3.32393">
        <ele>69.6</ele>
        <time>2020-07-01T09:41:54Z</time>
      </trkpt>
      <trkpt lat="48.96567" lon="3.3239">
        <ele>69.3</ele>
        <time>2020-07-01T09:41:55Z</time>
      </trkpt>
      <trkpt lat="48.96568" lon="3.3239">
        <ele>69.2</ele>
        <time>2020-07-01T09:41:56Z</time>
      </trkpt>
      <trkpt lat="48.96571" lon="3.32387">
        <ele>68.5</ele>
        <time>2020-07-01T09:41:57Z</time>
      </trkpt>
      <trkpt lat="48.96571" lon="3.32387">
        <ele>68.5</ele>
        <time>2020-07-01T09:41:58Z</time>
      </trkpt>
      <trkpt lat="48.96572" lon="3.32382">
        <ele>68.4</ele>
        <time>2020-07-01T09:41:59Z</time>
      </trkpt>
      <trkpt lat="48.96572" lon="3.32379">
        <ele>68.3</ele>
        <time>2020-07-01T09:42:00Z</time>
      </trkpt>
      <trkpt lat="48.96571" lon="3.32375">
        <ele>68.2</ele>
        <time>2020-07-01T09:42:01Z</time>
      </trkpt>
      <trkpt lat="48.96571" lon="3.3237">
        <ele>68.1</ele>
        <time>2020-07-01T09:42:02Z</time>
      </trkpt>
      <trkpt lat="48.9657" lon="3.32364">
        <ele>68</ele>
        <time>2020-07-01T09:42:03Z</time>
      </trkpt>
      <trkpt lat="48.96569" lon="3.32358">
        <ele>67.9</ele>
        <time>2020-07-01T09:42:04Z</time>
      </trkpt>
      <trkpt lat="48.96568" lon="3.32353">
        <ele>67.8</ele>
        <time>2020-07-01T09:42:05Z</time>
      </trkpt>
      <trkpt lat="48.96567" lon="3.32347">
        <ele>67.7</ele>
        <time>2020-07-01T09:42:06Z</time>
      </trkpt>
      <trkpt lat="48.96565" lon="3.32341">
        <ele>67.6</ele>
        <time>2020-07-01T09:42:07Z</time>
      </trkpt>
      <trkpt lat="48.96564" lon="3.32335">
        <ele>67.4</ele>
        <time>2020-07-01T09:42:08Z</time>
      </trkpt>
      <trkpt lat="48.96563" lon="3.32327">
        <ele>67.3</ele>
        <time>2020-07-01T09:42:09Z</time>
      </trkpt>
      <trkpt lat="48.96562" lon="3.32322">
        <ele>67.2</ele>
        <time>2020-07-01T09:42:10Z</time>
      </trkpt>
      <trkpt lat="48.96561" lon="3.32317">
        <ele>67.1</ele>
        <time>2020-07-01T09:42:11Z</time>
      </trkpt>
      <trkpt lat="48.9656" lon="3.3231">
        <ele>67</ele>
        <time>2020-07-01T09:42:12Z</time>
      </trkpt>
      <trkpt lat="48.96558" lon="3.32302">
        <ele>66.8</ele>
        <time>2020-07-01T09:42:13Z</time>
      </trkpt>
      <trkpt lat="48.96557" lon="3.32295">
        <ele>66.6</ele>
        <time>2020-07-01T09:42:14Z</time>
      </trkpt>
      <trkpt lat="48.96555" lon="3.32288">
        <ele>66.5</ele>
        <time>2020-07-01T09:42:15Z</time>
      </trkpt>
      <trkpt lat="48.96554" lon="3.3228">
        <ele>66.3</ele>
        <time>2020-07-01T09:42:16Z</time>
      </trkpt>
      <trkpt lat="48.96554" lon="3.32274">
        <ele>66.2</ele>
        <time>2020-07-01T09:42:17Z</time>
      </trkpt>
      <trkpt lat="48.96552" lon="3.32266">
        <ele>66.1</ele>
        <time>2020-07-01T09:42:18Z</time>
      </trkpt>
      <trkpt lat="48.96551" lon="3.32261">
        <ele>66</ele>
        <time>2020-07-01T09:42:19Z</time>
      </trkpt>
      <trkpt lat="48.9655" lon="3.32256">
        <ele>65.9</ele>
        <time>2020-07-01T09:42:20Z</time>
      </trkpt>
      <trkpt lat="48.96549" lon="3.32251">
        <ele>65.8</ele>
        <time>2020-07-01T09:42:21Z</time>
      </trkpt>
      <trkpt lat="48.96548" lon="3.3225">
        <ele>65.7</ele>
        <time>2020-07-01T09:42:22Z</time>
      </trkpt>
      <trkpt lat="48.96548" lon="3.32248">
        <ele>65.7</ele>
        <time>2020-07-01T09:42:23Z</time>
      </trkpt>
      <trkpt lat="48.96546" lon="3.32246">
        <ele>65.6</ele>
        <time>2020-07-01T09:42:24Z</time>
      </trkpt>
      <trkpt lat="48.96545" lon="3.32245">
        <ele>65.6</ele>
        <time>2020-07-01T09:42:25Z</time>
      </trkpt>
      <trkpt lat="48.96545" lon="3.32246">
        <ele>65.6</ele>
        <time>2020-07-01T09:42:26Z</time>
      </trkpt>
      <trkpt lat="48.96546" lon="3.32243">
        <ele>65.5</ele>
        <time>2020-07-01T09:42:27Z</time>
      </trkpt>
      <trkpt lat="48.96546" lon="3.32241">
        <ele>65.5</ele>
        <time>2020-07-01T09:42:28Z</time>
      </trkpt>
      <trkpt lat="48.96547" lon="3.3224">
        <ele>65.5</ele>
        <time>2020-07-01T09:42:29Z</time>
      </trkpt>
      <trkpt lat="48.96548" lon="3.3224">
        <ele>65.5</ele>
        <time>2020-07-01T09:42:30Z</time>
      </trkpt>
      <trkpt lat="48.96548" lon="3.32239">
        <ele>65.5</ele>
        <time>2020-07-01T09:42:31Z</time>
      </trkpt>
      <trkpt lat="48.96549" lon="3.32239">
        <ele>65.5</ele>
        <time>2020-07-01T09:42:32Z</time>
      </trkpt>
      <trkpt lat="48.9655" lon="3.32239">
        <ele>65.4</ele>
        <time>2020-07-01T09:42:33Z</time>
      </trkpt>
      <trkpt lat="48.9655" lon="3.32239">
        <ele>65.4</ele>
        <time>2020-07-01T09:42:34Z</time>
      </trkpt>
      <trkpt lat="48.96551" lon="3.32239">
        <ele>65.4</ele>
        <time>2020-07-01T09:42:35Z</time>
      </trkpt>
      <trkpt lat="48.96551" lon="3.32238">
        <ele>65.4</ele>
        <time>2020-07-01T09:42:36Z</time>
      </trkpt>
      <trkpt lat="48.96552" lon="3.32238">
        <ele>65.4</ele>
        <time>2020-07-01T09:42:44Z</time>
      </trkpt>
      <trkpt lat="48.96553" lon="3.32238">
        <ele>65.4</ele>
        <time>2020-07-01T09:42:45Z</time>
      </trkpt>
      <trkpt lat="48.96556" lon="3.32238">
        <ele>65.3</ele>
        <time>2020-07-01T09:42:46Z</time>
      </trkpt>
      <trkpt lat="48.96559" lon="3.32238">
        <ele>65.2</ele>
        <time>2020-07-01T09:42:47Z</time>
      </trkpt>
      <trkpt lat="48.96562" lon="3.32237">
        <ele>65.1</ele>
        <time>2020-07-01T09:42:48Z</time>
      </trkpt>
      <trkpt lat="48.96565" lon="3.32235">
        <ele>65</ele>
        <time>2020-07-01T09:42:49Z</time>
      </trkpt>
      <trkpt lat="48.96569" lon="3.32234">
        <ele>64.9</ele>
        <time>2020-07-01T09:42:50Z</time>
      </trkpt>
      <trkpt lat="48.96572" lon="3.32232">
        <ele>64.8</ele>
        <time>2020-07-01T09:42:51Z</time>
      </trkpt>
      <trkpt lat="48.96576" lon="3.3223">
        <ele>64.7</ele>
        <time>2020-07-01T09:42:52Z</time>
      </trkpt>
      <trkpt lat="48.96579" lon="3.32227">
        <ele>64.6</ele>
        <time>2020-07-01T09:42:53Z</time>
      </trkpt>
      <trkpt lat="48.96583" lon="3.32222">
        <ele>64.5</ele>
        <time>2020-07-01T09:42:54Z</time>
      </trkpt>
      <trkpt lat="48.96587" lon="3.32218">
        <ele>64.4</ele>
        <time>2020-07-01T09:42:55Z</time>
      </trkpt>
      <trkpt lat="48.96591" lon="3.32217">
        <ele>64.2</ele>
        <time>2020-07-01T09:42:56Z</time>
      </trkpt>
      <trkpt lat="48.96596" lon="3.32216">
        <ele>64.3</ele>
        <time>2020-07-01T09:42:57Z</time>
      </trkpt>
      <trkpt lat="48.96602" lon="3.32213">
        <ele>64.3</ele>
        <time>2020-07-01T09:42:58Z</time>
      </trkpt>
      <trkpt lat="48.96607" lon="3.32208">
        <ele>64.2</ele>
        <time>2020-07-01T09:42:59Z</time>
      </trkpt>
      <trkpt lat="48.96611" lon="3.32204">
        <ele>64.1</ele>
        <time>2020-07-01T09:43:00Z</time>
      </trkpt>
      <trkpt lat="48.96614" lon="3.322">
        <ele>64</ele>
        <time>2020-07-01T09:43:01Z</time>
      </trkpt>
      <trkpt lat="48.96618" lon="3.32195">
        <ele>63.9</ele>
        <time>2020-07-01T09:43:02Z</time>
      </trkpt>
      <trkpt lat="48.96622" lon="3.3219">
        <ele>63.7</ele>
        <time>2020-07-01T09:43:03Z</time>
      </trkpt>
      <trkpt lat="48.96626" lon="3.32184">
        <ele>63.5</ele>
        <time>2020-07-01T09:43:04Z</time>
      </trkpt>
      <trkpt lat="48.96632" lon="3.32179">
        <ele>63.3</ele>
        <time>2020-07-01T09:43:05Z</time>
      </trkpt>
      <trkpt lat="48.96636" lon="3.32174">
        <ele>63.1</ele>
        <time>2020-07-01T09:43:06Z</time>
      </trkpt>
      <trkpt lat="48.96641" lon="3.32169">
        <ele>62.9</ele>
        <time>2020-07-01T09:43:07Z</time>
      </trkpt>
      <trkpt lat="48.96646" lon="3.32164">
        <ele>62.7</ele>
        <time>2020-07-01T09:43:08Z</time>
      </trkpt>
      <trkpt lat="48.9665" lon="3.3216">
        <ele>62.5</ele>
        <time>2020-07-01T09:43:09Z</time>
      </trkpt>
      <trkpt lat="48.96654" lon="3.32156">
        <ele>62.3</ele>
        <time>2020-07-01T09:43:10Z</time>
      </trkpt>
      <trkpt lat="48.96658" lon="3.32153">
        <ele>62.2</ele>
        <time>2020-07-01T09:43:11Z</time>
      </trkpt>
      <trkpt lat="48.96664" lon="3.32149">
        <ele>61.9</ele>
        <time>2020-07-01T09:43:12Z</time>
      </trkpt>
      <trkpt lat="48.9667" lon="3.32144">
        <ele>61.8</ele>
        <time>2020-07-01T09:43:13Z</time>
      </trkpt>
      <trkpt lat="48.96675" lon="3.3214">
        <ele>61.6</ele>
        <time>2020-07-01T09:43:14Z</time>
      </trkpt>
      <trkpt lat="48.96681" lon="3.32136">
        <ele>61.4</ele>
        <time>2020-07-01T09:43:15Z</time>
      </trkpt>
      <trkpt lat="48.96687" lon="3.32132">
        <ele>61.1</ele>
        <time>2020-07-01T09:43:16Z</time>
      </trkpt>
      <trkpt lat="48.96692" lon="3.32127">
        <ele>61</ele>
        <time>2020-07-01T09:43:17Z</time>
      </trkpt>
      <trkpt lat="48.96697" lon="3.32123">
        <ele>60.8</ele>
        <time>2020-07-01T09:43:18Z</time>
      </trkpt>
      <trkpt lat="48.96703" lon="3.3212">
        <ele>60.5</ele>
        <time>2020-07-01T09:43:19Z</time>
      </trkpt>
      <trkpt lat="48.96708" lon="3.32117">
        <ele>60.2</ele>
        <time>2020-07-01T09:43:20Z</time>
      </trkpt>
      <trkpt lat="48.96713" lon="3.32114">
        <ele>60.1</ele>
        <time>2020-07-01T09:43:21Z</time>
      </trkpt>
      <trkpt lat="48.96719" lon="3.32116">
        <ele>60.1</ele>
        <time>2020-07-01T09:43:22Z</time>
      </trkpt>
      <trkpt lat="48.96725" lon="3.32115">
        <ele>60</ele>
        <time>2020-07-01T09:43:23Z</time>
      </trkpt>
      <trkpt lat="48.96731" lon="3.32113">
        <ele>60</ele>
        <time>2020-07-01T09:43:24Z</time>
      </trkpt>
      <trkpt lat="48.96737" lon="3.32111">
        <ele>59.9</ele>
        <time>2020-07-01T09:43:25Z</time>
      </trkpt>
      <trkpt lat="48.96742" lon="3.32107">
        <ele>59.8</ele>
        <time>2020-07-01T09:43:26Z</time>
      </trkpt>
      <trkpt lat="48.96746" lon="3.32105">
        <ele>59.7</ele>
        <time>2020-07-01T09:43:27Z</time>
      </trkpt>
      <trkpt lat="48.96751" lon="3.32103">
        <ele>59.7</ele>
        <time>2020-07-01T09:43:28Z</time>
      </trkpt>
      <trkpt lat="48.96757" lon="3.32101">
        <ele>59.6</ele>
        <time>2020-07-01T09:43:29Z</time>
      </trkpt>
      <trkpt lat="48.96763" lon="3.32102">
        <ele>59.6</ele>
        <time>2020-07-01T09:43:30Z</time>
      </trkpt>
      <trkpt lat="48.96769" lon="3.32103">
        <ele>59.5</ele>
        <time>2020-07-01T09:43:31Z</time>
      </trkpt>
      <trkpt lat="48.96776" lon="3.32103">
        <ele>59.4</ele>
        <time>2020-07-01T09:43:32Z</time>
      </trkpt>
      <trkpt lat="48.96783" lon="3.32102">
        <ele>59.4</ele>
        <time>2020-07-01T09:43:33Z</time>
      </trkpt>
      <trkpt lat="48.96791" lon="3.32102">
        <ele>59.3</ele>
        <time>2020-07-01T09:43:34Z</time>
      </trkpt>
      <trkpt lat="48.96797" lon="3.32101">
        <ele>59.2</ele>
        <time>2020-07-01T09:43:35Z</time>
      </trkpt>
      <trkpt lat="48.96802" lon="3.321">
        <ele>59.2</ele>
        <time>2020-07-01T09:43:36Z</time>
      </trkpt>
      <trkpt lat="48.96808" lon="3.32099">
        <ele>59.2</ele>
        <time>2020-07-01T09:43:37Z</time>
      </trkpt>
      <trkpt lat="48.96814" lon="3.32098">
        <ele>59.1</ele>
        <time>2020-07-01T09:43:38Z</time>
      </trkpt>
      <trkpt lat="48.9682" lon="3.32097">
        <ele>59.1</ele>
        <time>2020-07-01T09:43:39Z</time>
      </trkpt>
      <trkpt lat="48.96826" lon="3.32097">
        <ele>59.2</ele>
        <time>2020-07-01T09:43:40Z</time>
      </trkpt>
      <trkpt lat="48.96832" lon="3.32095">
        <ele>59.3</ele>
        <time>2020-07-01T09:43:41Z</time>
      </trkpt>
      <trkpt lat="48.96838" lon="3.32095">
        <ele>59.5</ele>
        <time>2020-07-01T09:43:42Z</time>
      </trkpt>
      <trkpt lat="48.96845" lon="3.32094">
        <ele>59.7</ele>
        <time>2020-07-01T09:43:43Z</time>
      </trkpt>
      <trkpt lat="48.96852" lon="3.32097">
        <ele>60</ele>
        <time>2020-07-01T09:43:44Z</time>
      </trkpt>
      <trkpt lat="48.96858" lon="3.32097">
        <ele>60.3</ele>
        <time>2020-07-01T09:43:45Z</time>
      </trkpt>
      <trkpt lat="48.96864" lon="3.32098">
        <ele>60.8</ele>
        <time>2020-07-01T09:43:46Z</time>
      </trkpt>
      <trkpt lat="48.96868" lon="3.321">
        <ele>60.8</ele>
        <time>2020-07-01T09:43:47Z</time>
      </trkpt>
      <trkpt lat="48.96873" lon="3.321">
        <ele>60.9</ele>
        <time>2020-07-01T09:43:48Z</time>
      </trkpt>
      <trkpt lat="48.96876" lon="3.321">
        <ele>60.7</ele>
        <time>2020-07-01T09:43:49Z</time>
      </trkpt>
      <trkpt lat="48.9688" lon="3.32099">
        <ele>60.7</ele>
        <time>2020-07-01T09:43:50Z</time>
      </trkpt>
      <trkpt lat="48.96883" lon="3.32098">
        <ele>60.7</ele>
        <time>2020-07-01T09:43:51Z</time>
      </trkpt>
      <trkpt lat="48.96888" lon="3.32099">
        <ele>60.6</ele>
        <time>2020-07-01T09:43:52Z</time>
      </trkpt>
      <trkpt lat="48.96892" lon="3.32098">
        <ele>60.8</ele>
        <time>2020-07-01T09:43:53Z</time>
      </trkpt>
      <trkpt lat="48.96896" lon="3.32098">
        <ele>60.9</ele>
        <time>2020-07-01T09:43:54Z</time>
      </trkpt>
      <trkpt lat="48.969" lon="3.32097">
        <ele>61</ele>
        <time>2020-07-01T09:43:55Z</time>
      </trkpt>
      <trkpt lat="48.96904" lon="3.32097">
        <ele>61.1</ele>
        <time>2020-07-01T09:43:56Z</time>
      </trkpt>
      <trkpt lat="48.96908" lon="3.32098">
        <ele>61.3</ele>
        <time>2020-07-01T09:43:57Z</time>
      </trkpt>
      <trkpt lat="48.96912" lon="3.32098">
        <ele>61.4</ele>
        <time>2020-07-01T09:43:58Z</time>
      </trkpt>
      <trkpt lat="48.96916" lon="3.32099">
        <ele>61.4</ele>
        <time>2020-07-01T09:43:59Z</time>
      </trkpt>
      <trkpt lat="48.96919" lon="3.32099">
        <ele>61.5</ele>
        <time>2020-07-01T09:44:00Z</time>
      </trkpt>
      <trkpt lat="48.96921" lon="3.32098">
        <ele>61.6</ele>
        <time>2020-07-01T09:44:01Z</time>
      </trkpt>
      <trkpt lat="48.96924" lon="3.32098">
        <ele>61.6</ele>
        <time>2020-07-01T09:44:02Z</time>
      </trkpt>
      <trkpt lat="48.96925" lon="3.32098">
        <ele>61.7</ele>
        <time>2020-07-01T09:44:03Z</time>
      </trkpt>
      <trkpt lat="48.96927" lon="3.32097">
        <ele>61.7</ele>
        <time>2020-07-01T09:44:04Z</time>
      </trkpt>
      <trkpt lat="48.96931" lon="3.32098">
        <ele>61.8</ele>
        <time>2020-07-01T09:44:05Z</time>
      </trkpt>
      <trkpt lat="48.96931" lon="3.32099">
        <ele>61.8</ele>
        <time>2020-07-01T09:44:06Z</time>
      </trkpt>
      <trkpt lat="48.96935" lon="3.32099">
        <ele>61.8</ele>
        <time>2020-07-01T09:44:07Z</time>
      </trkpt>
      <trkpt lat="48.96937" lon="3.32099">
        <ele>61.9</ele>
        <time>2020-07-01T09:44:08Z</time>
      </trkpt>
      <trkpt lat="48.9694" lon="3.32099">
        <ele>61.9</ele>
        <time>2020-07-01T09:44:09Z</time>
      </trkpt>
      <trkpt lat="48.96944" lon="3.321">
        <ele>61.9</ele>
        <time>2020-07-01T09:44:10Z</time>
      </trkpt>
      <trkpt lat="48.96947" lon="3.32099">
        <ele>61.9</ele>
        <time>2020-07-01T09:44:11Z</time>
      </trkpt>
      <trkpt lat="48.96951" lon="3.32099">
        <ele>62</ele>
        <time>2020-07-01T09:44:12Z</time>
      </trkpt>
      <trkpt lat="48.96956" lon="3.32098">
        <ele>62</ele>
        <time>2020-07-01T09:44:13Z</time>
      </trkpt>
      <trkpt lat="48.9696" lon="3.32097">
        <ele>62</ele>
        <time>2020-07-01T09:44:14Z</time>
      </trkpt>
      <trkpt lat="48.96965" lon="3.32096">
        <ele>62.1</ele>
        <time>2020-07-01T09:44:15Z</time>
      </trkpt>
      <trkpt lat="48.9697" lon="3.32096">
        <ele>62.1</ele>
        <time>2020-07-01T09:44:16Z</time>
      </trkpt>
      <trkpt lat="48.96975" lon="3.32095">
        <ele>62.2</ele>
        <time>2020-07-01T09:44:17Z</time>
      </trkpt>
      <trkpt lat="48.96979" lon="3.32096">
        <ele>62.2</ele>
        <time>2020-07-01T09:44:18Z</time>
      </trkpt>
      <trkpt lat="48.96983" lon="3.32096">
        <ele>62.2</ele>
        <time>2020-07-01T09:44:19Z</time>
      </trkpt>
      <trkpt lat="48.96986" lon="3.32096">
        <ele>62.2</ele>
        <time>2020-07-01T09:44:20Z</time>
      </trkpt>
      <trkpt lat="48.9699" lon="3.32097">
        <ele>62.2</ele>
        <time>2020-07-01T09:44:21Z</time>
      </trkpt>
      <trkpt lat="48.96993" lon="3.32096">
        <ele>62.2</ele>
        <time>2020-07-01T09:44:22Z</time>
      </trkpt>
      <trkpt lat="48.96997" lon="3.32095">
        <ele>62.2</ele>
        <time>2020-07-01T09:44:23Z</time>
      </trkpt>
      <trkpt lat="48.97002" lon="3.32096">
        <ele>62.2</ele>
        <time>2020-07-01T09:44:24Z</time>
      </trkpt>
      <trkpt lat="48.97008" lon="3.32096">
        <ele>62.2</ele>
        <time>2020-07-01T09:44:25Z</time>
      </trkpt>
      <trkpt lat="48.97011" lon="3.32096">
        <ele>62.1</ele>
        <time>2020-07-01T09:44:26Z</time>
      </trkpt>
      <trkpt lat="48.97016" lon="3.32097">
        <ele>62.1</ele>
        <time>2020-07-01T09:44:27Z</time>
      </trkpt>
      <trkpt lat="48.97022" lon="3.32097">
        <ele>61.9</ele>
        <time>2020-07-01T09:44:28Z</time>
      </trkpt>
      <trkpt lat="48.97027" lon="3.32096">
        <ele>61.8</ele>
        <time>2020-07-01T09:44:29Z</time>
      </trkpt>
      <trkpt lat="48.97033" lon="3.32095">
        <ele>61.6</ele>
        <time>2020-07-01T09:44:30Z</time>
      </trkpt>
      <trkpt lat="48.97038" lon="3.32095">
        <ele>61.5</ele>
        <time>2020-07-01T09:44:31Z</time>
      </trkpt>
      <trkpt lat="48.97045" lon="3.32094">
        <ele>61.3</ele>
        <time>2020-07-01T09:44:32Z</time>
      </trkpt>
      <trkpt lat="48.97052" lon="3.32092">
        <ele>61.2</ele>
        <time>2020-07-01T09:44:33Z</time>
      </trkpt>
      <trkpt lat="48.97059" lon="3.32092">
        <ele>61.1</ele>
        <time>2020-07-01T09:44:34Z</time>
      </trkpt>
      <trkpt lat="48.97067" lon="3.32091">
        <ele>61</ele>
        <time>2020-07-01T09:44:35Z</time>
      </trkpt>
      <trkpt lat="48.97074" lon="3.3209">
        <ele>61</ele>
        <time>2020-07-01T09:44:36Z</time>
      </trkpt>
      <trkpt lat="48.97081" lon="3.32089">
        <ele>61</ele>
        <time>2020-07-01T09:44:37Z</time>
      </trkpt>
      <trkpt lat="48.97088" lon="3.32087">
        <ele>61</ele>
        <time>2020-07-01T09:44:38Z</time>
      </trkpt>
      <trkpt lat="48.97094" lon="3.32086">
        <ele>61</ele>
        <time>2020-07-01T09:44:39Z</time>
      </trkpt>
      <trkpt lat="48.971" lon="3.32085">
        <ele>61.1</ele>
        <time>2020-07-01T09:44:40Z</time>
      </trkpt>
      <trkpt lat="48.97107" lon="3.32084">
        <ele>61.1</ele>
        <time>2020-07-01T09:44:41Z</time>
      </trkpt>
      <trkpt lat="48.97113" lon="3.32083">
        <ele>61.2</ele>
        <time>2020-07-01T09:44:42Z</time>
      </trkpt>
      <trkpt lat="48.97119" lon="3.32083">
        <ele>61.3</ele>
        <time>2020-07-01T09:44:43Z</time>
      </trkpt>
      <trkpt lat="48.97124" lon="3.32083">
        <ele>61.4</ele>
        <time>2020-07-01T09:44:44Z</time>
      </trkpt>
      <trkpt lat="48.9713" lon="3.32083">
        <ele>61.5</ele>
        <time>2020-07-01T09:44:45Z</time>
      </trkpt>
      <trkpt lat="48.97136" lon="3.32083">
        <ele>61.6</ele>
        <time>2020-07-01T09:44:46Z</time>
      </trkpt>
      <trkpt lat="48.97141" lon="3.32084">
        <ele>61.8</ele>
        <time>2020-07-01T09:44:47Z</time>
      </trkpt>
      <trkpt lat="48.97146" lon="3.32084">
        <ele>61.9</ele>
        <time>2020-07-01T09:44:48Z</time>
      </trkpt>
      <trkpt lat="48.9715" lon="3.32082">
        <ele>62.1</ele>
        <time>2020-07-01T09:44:49Z</time>
      </trkpt>
      <trkpt lat="48.97154" lon="3.32082">
        <ele>62.2</ele>
        <time>2020-07-01T09:44:50Z</time>
      </trkpt>
      <trkpt lat="48.97158" lon="3.32081">
        <ele>62.4</ele>
        <time>2020-07-01T09:44:51Z</time>
      </trkpt>
      <trkpt lat="48.97162" lon="3.32081">
        <ele>62.6</ele>
        <time>2020-07-01T09:44:52Z</time>
      </trkpt>
      <trkpt lat="48.97166" lon="3.32082">
        <ele>62.7</ele>
        <time>2020-07-01T09:44:53Z</time>
      </trkpt>
      <trkpt lat="48.97169" lon="3.32082">
        <ele>62.9</ele>
        <time>2020-07-01T09:44:54Z</time>
      </trkpt>
      <trkpt lat="48.97173" lon="3.32082">
        <ele>63.1</ele>
        <time>2020-07-01T09:44:55Z</time>
      </trkpt>
      <trkpt lat="48.97175" lon="3.32082">
        <ele>63.2</ele>
        <time>2020-07-01T09:44:56Z</time>
      </trkpt>
      <trkpt lat="48.97178" lon="3.32081">
        <ele>63.3</ele>
        <time>2020-07-01T09:44:57Z</time>
      </trkpt>
      <trkpt lat="48.97182" lon="3.32081">
        <ele>63.5</ele>
        <time>2020-07-01T09:44:58Z</time>
      </trkpt>
      <trkpt lat="48.97185" lon="3.3208">
        <ele>63.7</ele>
        <time>2020-07-01T09:44:59Z</time>
      </trkpt>
      <trkpt lat="48.97187" lon="3.3208">
        <ele>63.8</ele>
        <time>2020-07-01T09:45:00Z</time>
      </trkpt>
      <trkpt lat="48.97188" lon="3.32077">
        <ele>63.9</ele>
        <time>2020-07-01T09:45:01Z</time>
      </trkpt>
      <trkpt lat="48.97188" lon="3.32075">
        <ele>64</ele>
        <time>2020-07-01T09:45:02Z</time>
      </trkpt>
      <trkpt lat="48.97189" lon="3.3207">
        <ele>64.1</ele>
        <time>2020-07-01T09:45:03Z</time>
      </trkpt>
      <trkpt lat="48.97189" lon="3.32068">
        <ele>64.2</ele>
        <time>2020-07-01T09:45:04Z</time>
      </trkpt>
      <trkpt lat="48.97188" lon="3.32064">
        <ele>64.3</ele>
        <time>2020-07-01T09:45:05Z</time>
      </trkpt>
      <trkpt lat="48.97189" lon="3.32058">
        <ele>64.3</ele>
        <time>2020-07-01T09:45:06Z</time>
      </trkpt>
      <trkpt lat="48.97189" lon="3.32049">
        <ele>64.2</ele>
        <time>2020-07-01T09:45:07Z</time>
      </trkpt>
      <trkpt lat="48.97189" lon="3.32043">
        <ele>64.1</ele>
        <time>2020-07-01T09:45:08Z</time>
      </trkpt>
      <trkpt lat="48.97189" lon="3.32036">
        <ele>64.1</ele>
        <time>2020-07-01T09:45:09Z</time>
      </trkpt>
      <trkpt lat="48.97188" lon="3.32029">
        <ele>64.1</ele>
        <time>2020-07-01T09:45:10Z</time>
      </trkpt>
      <trkpt lat="48.97188" lon="3.32022">
        <ele>64.1</ele>
        <time>2020-07-01T09:45:11Z</time>
      </trkpt>
      <trkpt lat="48.97187" lon="3.32015">
        <ele>64.1</ele>
        <time>2020-07-01T09:45:12Z</time>
      </trkpt>
      <trkpt lat="48.97187" lon="3.32007">
        <ele>64</ele>
        <time>2020-07-01T09:45:13Z</time>
      </trkpt>
      <trkpt lat="48.97186" lon="3.32">
        <ele>64</ele>
        <time>2020-07-01T09:45:14Z</time>
      </trkpt>
      <trkpt lat="48.97186" lon="3.31994">
        <ele>64</ele>
        <time>2020-07-01T09:45:15Z</time>
      </trkpt>
      <trkpt lat="48.97186" lon="3.31986">
        <ele>63.9</ele>
        <time>2020-07-01T09:45:16Z</time>
      </trkpt>
      <trkpt lat="48.97185" lon="3.31978">
        <ele>63.8</ele>
        <time>2020-07-01T09:45:17Z</time>
      </trkpt>
      <trkpt lat="48.97185" lon="3.31969">
        <ele>63.8</ele>
        <time>2020-07-01T09:45:18Z</time>
      </trkpt>
      <trkpt lat="48.97184" lon="3.31962">
        <ele>63.7</ele>
        <time>2020-07-01T09:45:19Z</time>
      </trkpt>
      <trkpt lat="48.97184" lon="3.31954">
        <ele>63.7</ele>
        <time>2020-07-01T09:45:20Z</time>
      </trkpt>
      <trkpt lat="48.97184" lon="3.31946">
        <ele>63.6</ele>
        <time>2020-07-01T09:45:21Z</time>
      </trkpt>
      <trkpt lat="48.97184" lon="3.31939">
        <ele>63.6</ele>
        <time>2020-07-01T09:45:22Z</time>
      </trkpt>
      <trkpt lat="48.97184" lon="3.3193">
        <ele>63.5</ele>
        <time>2020-07-01T09:45:23Z</time>
      </trkpt>
      <trkpt lat="48.97184" lon="3.31923">
        <ele>63.5</ele>
        <time>2020-07-01T09:45:24Z</time>
      </trkpt>
      <trkpt lat="48.97185" lon="3.31914">
        <ele>63.5</ele>
        <time>2020-07-01T09:45:25Z</time>
      </trkpt>
      <trkpt lat="48.97186" lon="3.31905">
        <ele>63.5</ele>
        <time>2020-07-01T09:45:26Z</time>
      </trkpt>
      <trkpt lat="48.97186" lon="3.31896">
        <ele>63.5</ele>
        <time>2020-07-01T09:45:27Z</time>
      </trkpt>
      <trkpt lat="48.97185" lon="3.31885">
        <ele>63.6</ele>
        <time>2020-07-01T09:45:28Z</time>
      </trkpt>
      <trkpt lat="48.97185" lon="3.31876">
        <ele>63.7</ele>
        <time>2020-07-01T09:45:29Z</time>
      </trkpt>
      <trkpt lat="48.97185" lon="3.31867">
        <ele>63.7</ele>
        <time>2020-07-01T09:45:30Z</time>
      </trkpt>
      <trkpt lat="48.97186" lon="3.31859">
        <ele>63.8</ele>
        <time>2020-07-01T09:45:31Z</time>
      </trkpt>
      <trkpt lat="48.97186" lon="3.31851">
        <ele>63.8</ele>
        <time>2020-07-01T09:45:32Z</time>
      </trkpt>
      <trkpt lat="48.97187" lon="3.31844">
        <ele>63.9</ele>
        <time>2020-07-01T09:45:33Z</time>
      </trkpt>
      <trkpt lat="48.97188" lon="3.31836">
        <ele>64</ele>
        <time>2020-07-01T09:45:34Z</time>
      </trkpt>
      <trkpt lat="48.97189" lon="3.3183">
        <ele>64</ele>
        <time>2020-07-01T09:45:35Z</time>
      </trkpt>
      <trkpt lat="48.9719" lon="3.31823">
        <ele>64.1</ele>
        <time>2020-07-01T09:45:36Z</time>
      </trkpt>
      <trkpt lat="48.97191" lon="3.31816">
        <ele>64.1</ele>
        <time>2020-07-01T09:45:37Z</time>
      </trkpt>
      <trkpt lat="48.97192" lon="3.31808">
        <ele>64.2</ele>
        <time>2020-07-01T09:45:38Z</time>
      </trkpt>
      <trkpt lat="48.97192" lon="3.318">
        <ele>64.3</ele>
        <time>2020-07-01T09:45:39Z</time>
      </trkpt>
      <trkpt lat="48.97193" lon="3.31792">
        <ele>64.4</ele>
        <time>2020-07-01T09:45:40Z</time>
      </trkpt>
      <trkpt lat="48.97193" lon="3.31785">
        <ele>64.5</ele>
        <time>2020-07-01T09:45:41Z</time>
      </trkpt>
      <trkpt lat="48.97194" lon="3.31778">
        <ele>64.6</ele>
        <time>2020-07-01T09:45:42Z</time>
      </trkpt>
      <trkpt lat="48.97195" lon="3.31772">
        <ele>64.6</ele>
        <time>2020-07-01T09:45:43Z</time>
      </trkpt>
      <trkpt lat="48.97196" lon="3.31766">
        <ele>64.7</ele>
        <time>2020-07-01T09:45:44Z</time>
      </trkpt>
      <trkpt lat="48.97196" lon="3.3176">
        <ele>64.7</ele>
        <time>2020-07-01T09:45:45Z</time>
      </trkpt>
      <trkpt lat="48.97197" lon="3.31754">
        <ele>64.8</ele>
        <time>2020-07-01T09:45:46Z</time>
      </trkpt>
      <trkpt lat="48.97197" lon="3.31748">
        <ele>64.8</ele>
        <time>2020-07-01T09:45:47Z</time>
      </trkpt>
      <trkpt lat="48.97198" lon="3.31741">
        <ele>64.8</ele>
        <time>2020-07-01T09:45:48Z</time>
      </trkpt>
      <trkpt lat="48.97199" lon="3.31734">
        <ele>65</ele>
        <time>2020-07-01T09:45:49Z</time>
      </trkpt>
      <trkpt lat="48.972" lon="3.31728">
        <ele>65.2</ele>
        <time>2020-07-01T09:45:50Z</time>
      </trkpt>
      <trkpt lat="48.97201" lon="3.31722">
        <ele>65.3</ele>
        <time>2020-07-01T09:45:51Z</time>
      </trkpt>
      <trkpt lat="48.97202" lon="3.31717">
        <ele>65.4</ele>
        <time>2020-07-01T09:45:52Z</time>
      </trkpt>
      <trkpt lat="48.97202" lon="3.3171">
        <ele>65.6</ele>
        <time>2020-07-01T09:45:53Z</time>
      </trkpt>
      <trkpt lat="48.97203" lon="3.31704">
        <ele>65.7</ele>
        <time>2020-07-01T09:45:54Z</time>
      </trkpt>
      <trkpt lat="48.97204" lon="3.31699">
        <ele>65.8</ele>
        <time>2020-07-01T09:45:55Z</time>
      </trkpt>
      <trkpt lat="48.97205" lon="3.31694">
        <ele>65.9</ele>
        <time>2020-07-01T09:45:56Z</time>
      </trkpt>
      <trkpt lat="48.97206" lon="3.31689">
        <ele>66</ele>
        <time>2020-07-01T09:45:57Z</time>
      </trkpt>
      <trkpt lat="48.97207" lon="3.31684">
        <ele>66.1</ele>
        <time>2020-07-01T09:45:58Z</time>
      </trkpt>
      <trkpt lat="48.97208" lon="3.31679">
        <ele>66.1</ele>
        <time>2020-07-01T09:45:59Z</time>
      </trkpt>
      <trkpt lat="48.97209" lon="3.31675">
        <ele>66.2</ele>
        <time>2020-07-01T09:46:00Z</time>
      </trkpt>
      <trkpt lat="48.9721" lon="3.31669">
        <ele>66.3</ele>
        <time>2020-07-01T09:46:01Z</time>
      </trkpt>
      <trkpt lat="48.9721" lon="3.31663">
        <ele>66.4</ele>
        <time>2020-07-01T09:46:02Z</time>
      </trkpt>
      <trkpt lat="48.97211" lon="3.31658">
        <ele>66.4</ele>
        <time>2020-07-01T09:46:03Z</time>
      </trkpt>
      <trkpt lat="48.97211" lon="3.31652">
        <ele>66.5</ele>
        <time>2020-07-01T09:46:04Z</time>
      </trkpt>
      <trkpt lat="48.97211" lon="3.31646">
        <ele>66.6</ele>
        <time>2020-07-01T09:46:05Z</time>
      </trkpt>
      <trkpt lat="48.97212" lon="3.3164">
        <ele>66.7</ele>
        <time>2020-07-01T09:46:06Z</time>
      </trkpt>
      <trkpt lat="48.97213" lon="3.31634">
        <ele>66.8</ele>
        <time>2020-07-01T09:46:07Z</time>
      </trkpt>
      <trkpt lat="48.97214" lon="3.31628">
        <ele>66.9</ele>
        <time>2020-07-01T09:46:08Z</time>
      </trkpt>
      <trkpt lat="48.97215" lon="3.31622">
        <ele>67</ele>
        <time>2020-07-01T09:46:09Z</time>
      </trkpt>
      <trkpt lat="48.97216" lon="3.31616">
        <ele>67.1</ele>
        <time>2020-07-01T09:46:10Z</time>
      </trkpt>
      <trkpt lat="48.97216" lon="3.31609">
        <ele>67.2</ele>
        <time>2020-07-01T09:46:11Z</time>
      </trkpt>
      <trkpt lat="48.97217" lon="3.31603">
        <ele>67.3</ele>
        <time>2020-07-01T09:46:12Z</time>
      </trkpt>
      <trkpt lat="48.97218" lon="3.31596">
        <ele>67.4</ele>
        <time>2020-07-01T09:46:13Z</time>
      </trkpt>
      <trkpt lat="48.97218" lon="3.3159">
        <ele>67.4</ele>
        <time>2020-07-01T09:46:14Z</time>
      </trkpt>
      <trkpt lat="48.97218" lon="3.31584">
        <ele>67.5</ele>
        <time>2020-07-01T09:46:15Z</time>
      </trkpt>
      <trkpt lat="48.97219" lon="3.31577">
        <ele>67.6</ele>
        <time>2020-07-01T09:46:16Z</time>
      </trkpt>
      <trkpt lat="48.97219" lon="3.31571">
        <ele>67.7</ele>
        <time>2020-07-01T09:46:17Z</time>
      </trkpt>
      <trkpt lat="48.9722" lon="3.31565">
        <ele>67.8</ele>
        <time>2020-07-01T09:46:18Z</time>
      </trkpt>
      <trkpt lat="48.97221" lon="3.31559">
        <ele>67.8</ele>
        <time>2020-07-01T09:46:19Z</time>
      </trkpt>
      <trkpt lat="48.97222" lon="3.31553">
        <ele>67.9</ele>
        <time>2020-07-01T09:46:20Z</time>
      </trkpt>
      <trkpt lat="48.97223" lon="3.31547">
        <ele>68</ele>
        <time>2020-07-01T09:46:21Z</time>
      </trkpt>
      <trkpt lat="48.97223" lon="3.31541">
        <ele>68.1</ele>
        <time>2020-07-01T09:46:22Z</time>
      </trkpt>
      <trkpt lat="48.97224" lon="3.31535">
        <ele>68.1</ele>
        <time>2020-07-01T09:46:23Z</time>
      </trkpt>
      <trkpt lat="48.97225" lon="3.31529">
        <ele>68.2</ele>
        <time>2020-07-01T09:46:24Z</time>
      </trkpt>
      <trkpt lat="48.97225" lon="3.31522">
        <ele>68.3</ele>
        <time>2020-07-01T09:46:25Z</time>
      </trkpt>
      <trkpt lat="48.97226" lon="3.31516">
        <ele>68.4</ele>
        <time>2020-07-01T09:46:26Z</time>
      </trkpt>
      <trkpt lat="48.97226" lon="3.3151">
        <ele>68.5</ele>
        <time>2020-07-01T09:46:27Z</time>
      </trkpt>
      <trkpt lat="48.97228" lon="3.31505">
        <ele>68.6</ele>
        <time>2020-07-01T09:46:28Z</time>
      </trkpt>
      <trkpt lat="48.97229" lon="3.31499">
        <ele>68.7</ele>
        <time>2020-07-01T09:46:29Z</time>
      </trkpt>
      <trkpt lat="48.9723" lon="3.31493">
        <ele>68.8</ele>
        <time>2020-07-01T09:46:30Z</time>
      </trkpt>
      <trkpt lat="48.97231" lon="3.31488">
        <ele>68.9</ele>
        <time>2020-07-01T09:46:31Z</time>
      </trkpt>
      <trkpt lat="48.97232" lon="3.31482">
        <ele>69</ele>
        <time>2020-07-01T09:46:32Z</time>
      </trkpt>
      <trkpt lat="48.97233" lon="3.31476">
        <ele>69.1</ele>
        <time>2020-07-01T09:46:33Z</time>
      </trkpt>
      <trkpt lat="48.97234" lon="3.3147">
        <ele>69.3</ele>
        <time>2020-07-01T09:46:34Z</time>
      </trkpt>
      <trkpt lat="48.97235" lon="3.31463">
        <ele>69.4</ele>
        <time>2020-07-01T09:46:35Z</time>
      </trkpt>
      <trkpt lat="48.97236" lon="3.31458">
        <ele>69.5</ele>
        <time>2020-07-01T09:46:36Z</time>
      </trkpt>
      <trkpt lat="48.97237" lon="3.31451">
        <ele>69.5</ele>
        <time>2020-07-01T09:46:37Z</time>
      </trkpt>
      <trkpt lat="48.97238" lon="3.31445">
        <ele>69.6</ele>
        <time>2020-07-01T09:46:38Z</time>
      </trkpt>
      <trkpt lat="48.97238" lon="3.31439">
        <ele>69.7</ele>
        <time>2020-07-01T09:46:39Z</time>
      </trkpt>
      <trkpt lat="48.97239" lon="3.31433">
        <ele>69.8</ele>
        <time>2020-07-01T09:46:40Z</time>
      </trkpt>
      <trkpt lat="48.9724" lon="3.31428">
        <ele>69.9</ele>
        <time>2020-07-01T09:46:41Z</time>
      </trkpt>
      <trkpt lat="48.97241" lon="3.31422">
        <ele>70</ele>
        <time>2020-07-01T09:46:42Z</time>
      </trkpt>
      <trkpt lat="48.97242" lon="3.31416">
        <ele>70.1</ele>
        <time>2020-07-01T09:46:43Z</time>
      </trkpt>
      <trkpt lat="48.97242" lon="3.31411">
        <ele>70.2</ele>
        <time>2020-07-01T09:46:44Z</time>
      </trkpt>
      <trkpt lat="48.97243" lon="3.31405">
        <ele>70.3</ele>
        <time>2020-07-01T09:46:45Z</time>
      </trkpt>
      <trkpt lat="48.97244" lon="3.31399">
        <ele>70.4</ele>
        <time>2020-07-01T09:46:46Z</time>
      </trkpt>
      <trkpt lat="48.97244" lon="3.31393">
        <ele>70.5</ele>
        <time>2020-07-01T09:46:47Z</time>
      </trkpt>
      <trkpt lat="48.97246" lon="3.31387">
        <ele>70.6</ele>
        <time>2020-07-01T09:46:48Z</time>
      </trkpt>
      <trkpt lat="48.97246" lon="3.31382">
        <ele>70.7</ele>
        <time>2020-07-01T09:46:49Z</time>
      </trkpt>
      <trkpt lat="48.97247" lon="3.31377">
        <ele>70.8</ele>
        <time>2020-07-01T09:46:50Z</time>
      </trkpt>
      <trkpt lat="48.97248" lon="3.31372">
        <ele>70.9</ele>
        <time>2020-07-01T09:46:51Z</time>
      </trkpt>
      <trkpt lat="48.9725" lon="3.31367">
        <ele>71</ele>
        <time>2020-07-01T09:46:52Z</time>
      </trkpt>
      <trkpt lat="48.97251" lon="3.31362">
        <ele>71.1</ele>
        <time>2020-07-01T09:46:53Z</time>
      </trkpt>
      <trkpt lat="48.97252" lon="3.31357">
        <ele>71.1</ele>
        <time>2020-07-01T09:46:54Z</time>
      </trkpt>
      <trkpt lat="48.97253" lon="3.31351">
        <ele>71.2</ele>
        <time>2020-07-01T09:46:55Z</time>
      </trkpt>
      <trkpt lat="48.97255" lon="3.31346">
        <ele>71.3</ele>
        <time>2020-07-01T09:46:56Z</time>
      </trkpt>
      <trkpt lat="48.97256" lon="3.31341">
        <ele>71.4</ele>
        <time>2020-07-01T09:46:57Z</time>
      </trkpt>
      <trkpt lat="48.97257" lon="3.31335">
        <ele>71.5</ele>
        <time>2020-07-01T09:46:58Z</time>
      </trkpt>
      <trkpt lat="48.97259" lon="3.3133">
        <ele>71.6</ele>
        <time>2020-07-01T09:46:59Z</time>
      </trkpt>
      <trkpt lat="48.9726" lon="3.31325">
        <ele>71.7</ele>
        <time>2020-07-01T09:47:00Z</time>
      </trkpt>
      <trkpt lat="48.97262" lon="3.31319">
        <ele>71.9</ele>
        <time>2020-07-01T09:47:01Z</time>
      </trkpt>
      <trkpt lat="48.97263" lon="3.31313">
        <ele>72</ele>
        <time>2020-07-01T09:47:02Z</time>
      </trkpt>
      <trkpt lat="48.97265" lon="3.31307">
        <ele>72.1</ele>
        <time>2020-07-01T09:47:03Z</time>
      </trkpt>
      <trkpt lat="48.97266" lon="3.31301">
        <ele>72.2</ele>
        <time>2020-07-01T09:47:04Z</time>
      </trkpt>
      <trkpt lat="48.97268" lon="3.31295">
        <ele>72.3</ele>
        <time>2020-07-01T09:47:05Z</time>
      </trkpt>
      <trkpt lat="48.97269" lon="3.31288">
        <ele>72.5</ele>
        <time>2020-07-01T09:47:06Z</time>
      </trkpt>
      <trkpt lat="48.97271" lon="3.31282">
        <ele>72.6</ele>
        <time>2020-07-01T09:47:07Z</time>
      </trkpt>
      <trkpt lat="48.97273" lon="3.31277">
        <ele>72.7</ele>
        <time>2020-07-01T09:47:08Z</time>
      </trkpt>
      <trkpt lat="48.97274" lon="3.31271">
        <ele>72.8</ele>
        <time>2020-07-01T09:47:09Z</time>
      </trkpt>
      <trkpt lat="48.97276" lon="3.31266">
        <ele>72.9</ele>
        <time>2020-07-01T09:47:10Z</time>
      </trkpt>
      <trkpt lat="48.97277" lon="3.3126">
        <ele>73</ele>
        <time>2020-07-01T09:47:11Z</time>
      </trkpt>
      <trkpt lat="48.97278" lon="3.31255">
        <ele>73.1</ele>
        <time>2020-07-01T09:47:12Z</time>
      </trkpt>
      <trkpt lat="48.97279" lon="3.3125">
        <ele>73.2</ele>
        <time>2020-07-01T09:47:13Z</time>
      </trkpt>
      <trkpt lat="48.97281" lon="3.31244">
        <ele>73.3</ele>
        <time>2020-07-01T09:47:14Z</time>
      </trkpt>
      <trkpt lat="48.97282" lon="3.31239">
        <ele>73.3</ele>
        <time>2020-07-01T09:47:15Z</time>
      </trkpt>
      <trkpt lat="48.97283" lon="3.31233">
        <ele>73.4</ele>
        <time>2020-07-01T09:47:16Z</time>
      </trkpt>
      <trkpt lat="48.97284" lon="3.31228">
        <ele>73.5</ele>
        <time>2020-07-01T09:47:17Z</time>
      </trkpt>
      <trkpt lat="48.97286" lon="3.31223">
        <ele>73.5</ele>
        <time>2020-07-01T09:47:18Z</time>
      </trkpt>
      <trkpt lat="48.97287" lon="3.31217">
        <ele>73.6</ele>
        <time>2020-07-01T09:47:19Z</time>
      </trkpt>
      <trkpt lat="48.97289" lon="3.31211">
        <ele>73.7</ele>
        <time>2020-07-01T09:47:20Z</time>
      </trkpt>
      <trkpt lat="48.9729" lon="3.31205">
        <ele>73.8</ele>
        <time>2020-07-01T09:47:21Z</time>
      </trkpt>
      <trkpt lat="48.97292" lon="3.31199">
        <ele>73.8</ele>
        <time>2020-07-01T09:47:22Z</time>
      </trkpt>
      <trkpt lat="48.97294" lon="3.31194">
        <ele>73.9</ele>
        <time>2020-07-01T09:47:23Z</time>
      </trkpt>
      <trkpt lat="48.97296" lon="3.31187">
        <ele>74</ele>
        <time>2020-07-01T09:47:24Z</time>
      </trkpt>
      <trkpt lat="48.97297" lon="3.31182">
        <ele>74.1</ele>
        <time>2020-07-01T09:47:25Z</time>
      </trkpt>
      <trkpt lat="48.97299" lon="3.31176">
        <ele>74.2</ele>
        <time>2020-07-01T09:47:26Z</time>
      </trkpt>
      <trkpt lat="48.97301" lon="3.31171">
        <ele>74.2</ele>
        <time>2020-07-01T09:47:27Z</time>
      </trkpt>
      <trkpt lat="48.97304" lon="3.31166">
        <ele>74.3</ele>
        <time>2020-07-01T09:47:28Z</time>
      </trkpt>
      <trkpt lat="48.97306" lon="3.31161">
        <ele>74.3</ele>
        <time>2020-07-01T09:47:29Z</time>
      </trkpt>
      <trkpt lat="48.97308" lon="3.31156">
        <ele>74.4</ele>
        <time>2020-07-01T09:47:30Z</time>
      </trkpt>
      <trkpt lat="48.97311" lon="3.31151">
        <ele>74.4</ele>
        <time>2020-07-01T09:47:31Z</time>
      </trkpt>
      <trkpt lat="48.97313" lon="3.31146">
        <ele>74.5</ele>
        <time>2020-07-01T09:47:32Z</time>
      </trkpt>
      <trkpt lat="48.97316" lon="3.3114">
        <ele>74.5</ele>
        <time>2020-07-01T09:47:33Z</time>
      </trkpt>
      <trkpt lat="48.97318" lon="3.31135">
        <ele>74.5</ele>
        <time>2020-07-01T09:47:34Z</time>
      </trkpt>
      <trkpt lat="48.9732" lon="3.31129">
        <ele>74.6</ele>
        <time>2020-07-01T09:47:35Z</time>
      </trkpt>
      <trkpt lat="48.97323" lon="3.31123">
        <ele>74.6</ele>
        <time>2020-07-01T09:47:36Z</time>
      </trkpt>
      <trkpt lat="48.97325" lon="3.31117">
        <ele>74.6</ele>
        <time>2020-07-01T09:47:37Z</time>
      </trkpt>
      <trkpt lat="48.97327" lon="3.31111">
        <ele>74.7</ele>
        <time>2020-07-01T09:47:38Z</time>
      </trkpt>
      <trkpt lat="48.97331" lon="3.31106">
        <ele>74.7</ele>
        <time>2020-07-01T09:47:39Z</time>
      </trkpt>
      <trkpt lat="48.97334" lon="3.31101">
        <ele>74.7</ele>
        <time>2020-07-01T09:47:40Z</time>
      </trkpt>
      <trkpt lat="48.97337" lon="3.31096">
        <ele>74.8</ele>
        <time>2020-07-01T09:47:41Z</time>
      </trkpt>
      <trkpt lat="48.9734" lon="3.31091">
        <ele>74.8</ele>
        <time>2020-07-01T09:47:42Z</time>
      </trkpt>
      <trkpt lat="48.97342" lon="3.31085">
        <ele>74.8</ele>
        <time>2020-07-01T09:47:43Z</time>
      </trkpt>
      <trkpt lat="48.97345" lon="3.31079">
        <ele>74.8</ele>
        <time>2020-07-01T09:47:44Z</time>
      </trkpt>
      <trkpt lat="48.97347" lon="3.31072">
        <ele>74.9</ele>
        <time>2020-07-01T09:47:45Z</time>
      </trkpt>
      <trkpt lat="48.9735" lon="3.31067">
        <ele>74.9</ele>
        <time>2020-07-01T09:47:46Z</time>
      </trkpt>
      <trkpt lat="48.97353" lon="3.31061">
        <ele>74.9</ele>
        <time>2020-07-01T09:47:47Z</time>
      </trkpt>
      <trkpt lat="48.97355" lon="3.31055">
        <ele>75</ele>
        <time>2020-07-01T09:47:48Z</time>
      </trkpt>
      <trkpt lat="48.97358" lon="3.3105">
        <ele>75</ele>
        <time>2020-07-01T09:47:49Z</time>
      </trkpt>
      <trkpt lat="48.9736" lon="3.31045">
        <ele>75</ele>
        <time>2020-07-01T09:47:50Z</time>
      </trkpt>
      <trkpt lat="48.97363" lon="3.31038">
        <ele>75</ele>
        <time>2020-07-01T09:47:51Z</time>
      </trkpt>
      <trkpt lat="48.97365" lon="3.31032">
        <ele>75.1</ele>
        <time>2020-07-01T09:47:52Z</time>
      </trkpt>
      <trkpt lat="48.97368" lon="3.31027">
        <ele>75.1</ele>
        <time>2020-07-01T09:47:53Z</time>
      </trkpt>
      <trkpt lat="48.97371" lon="3.31021">
        <ele>75.1</ele>
        <time>2020-07-01T09:47:54Z</time>
      </trkpt>
      <trkpt lat="48.97374" lon="3.31015">
        <ele>75.1</ele>
        <time>2020-07-01T09:47:55Z</time>
      </trkpt>
      <trkpt lat="48.97377" lon="3.31008">
        <ele>75.2</ele>
        <time>2020-07-01T09:47:56Z</time>
      </trkpt>
      <trkpt lat="48.97379" lon="3.31002">
        <ele>75.2</ele>
        <time>2020-07-01T09:47:57Z</time>
      </trkpt>
      <trkpt lat="48.97382" lon="3.30996">
        <ele>75.2</ele>
        <time>2020-07-01T09:47:58Z</time>
      </trkpt>
      <trkpt lat="48.97385" lon="3.30989">
        <ele>75.1</ele>
        <time>2020-07-01T09:47:59Z</time>
      </trkpt>
      <trkpt lat="48.97388" lon="3.30983">
        <ele>75</ele>
        <time>2020-07-01T09:48:00Z</time>
      </trkpt>
      <trkpt lat="48.97391" lon="3.30975">
        <ele>75</ele>
        <time>2020-07-01T09:48:01Z</time>
      </trkpt>
      <trkpt lat="48.97394" lon="3.30968">
        <ele>74.9</ele>
        <time>2020-07-01T09:48:02Z</time>
      </trkpt>
      <trkpt lat="48.97397" lon="3.3096">
        <ele>74.8</ele>
        <time>2020-07-01T09:48:03Z</time>
      </trkpt>
      <trkpt lat="48.97399" lon="3.30952">
        <ele>74.8</ele>
        <time>2020-07-01T09:48:04Z</time>
      </trkpt>
      <trkpt lat="48.97402" lon="3.30944">
        <ele>74.7</ele>
        <time>2020-07-01T09:48:05Z</time>
      </trkpt>
      <trkpt lat="48.97404" lon="3.30937">
        <ele>74.8</ele>
        <time>2020-07-01T09:48:06Z</time>
      </trkpt>
      <trkpt lat="48.97407" lon="3.30928">
        <ele>74.8</ele>
        <time>2020-07-01T09:48:07Z</time>
      </trkpt>
      <trkpt lat="48.97409" lon="3.30921">
        <ele>74.8</ele>
        <time>2020-07-01T09:48:08Z</time>
      </trkpt>
      <trkpt lat="48.97412" lon="3.30913">
        <ele>74.9</ele>
        <time>2020-07-01T09:48:09Z</time>
      </trkpt>
      <trkpt lat="48.97415" lon="3.30906">
        <ele>75</ele>
        <time>2020-07-01T09:48:10Z</time>
      </trkpt>
      <trkpt lat="48.97418" lon="3.30899">
        <ele>75.1</ele>
        <time>2020-07-01T09:48:11Z</time>
      </trkpt>
      <trkpt lat="48.97421" lon="3.30893">
        <ele>75.2</ele>
        <time>2020-07-01T09:48:12Z</time>
      </trkpt>
      <trkpt lat="48.97425" lon="3.30888">
        <ele>75.3</ele>
        <time>2020-07-01T09:48:13Z</time>
      </trkpt>
      <trkpt lat="48.97428" lon="3.30881">
        <ele>75.4</ele>
        <time>2020-07-01T09:48:14Z</time>
      </trkpt>
      <trkpt lat="48.97431" lon="3.30875">
        <ele>75.6</ele>
        <time>2020-07-01T09:48:15Z</time>
      </trkpt>
      <trkpt lat="48.97435" lon="3.30868">
        <ele>75.7</ele>
        <time>2020-07-01T09:48:16Z</time>
      </trkpt>
      <trkpt lat="48.97438" lon="3.30862">
        <ele>75.9</ele>
        <time>2020-07-01T09:48:17Z</time>
      </trkpt>
      <trkpt lat="48.97441" lon="3.30857">
        <ele>76</ele>
        <time>2020-07-01T09:48:18Z</time>
      </trkpt>
      <trkpt lat="48.97444" lon="3.30852">
        <ele>76.1</ele>
        <time>2020-07-01T09:48:19Z</time>
      </trkpt>
      <trkpt lat="48.97446" lon="3.30846">
        <ele>76.3</ele>
        <time>2020-07-01T09:48:20Z</time>
      </trkpt>
      <trkpt lat="48.9745" lon="3.30841">
        <ele>76.4</ele>
        <time>2020-07-01T09:48:21Z</time>
      </trkpt>
      <trkpt lat="48.97453" lon="3.30834">
        <ele>76.6</ele>
        <time>2020-07-01T09:48:22Z</time>
      </trkpt>
      <trkpt lat="48.97455" lon="3.30827">
        <ele>76.8</ele>
        <time>2020-07-01T09:48:23Z</time>
      </trkpt>
      <trkpt lat="48.97458" lon="3.30821">
        <ele>77</ele>
        <time>2020-07-01T09:48:24Z</time>
      </trkpt>
      <trkpt lat="48.9746" lon="3.30817">
        <ele>77.1</ele>
        <time>2020-07-01T09:48:25Z</time>
      </trkpt>
      <trkpt lat="48.97463" lon="3.30812">
        <ele>77.2</ele>
        <time>2020-07-01T09:48:26Z</time>
      </trkpt>
      <trkpt lat="48.97465" lon="3.30807">
        <ele>77.3</ele>
        <time>2020-07-01T09:48:27Z</time>
      </trkpt>
      <trkpt lat="48.97468" lon="3.308">
        <ele>77.4</ele>
        <time>2020-07-01T09:48:28Z</time>
      </trkpt>
      <trkpt lat="48.97471" lon="3.30795">
        <ele>77.5</ele>
        <time>2020-07-01T09:48:29Z</time>
      </trkpt>
      <trkpt lat="48.97474" lon="3.3079">
        <ele>77.6</ele>
        <time>2020-07-01T09:48:30Z</time>
      </trkpt>
      <trkpt lat="48.97477" lon="3.30785">
        <ele>77.7</ele>
        <time>2020-07-01T09:48:31Z</time>
      </trkpt>
      <trkpt lat="48.97479" lon="3.3078">
        <ele>77.7</ele>
        <time>2020-07-01T09:48:32Z</time>
      </trkpt>
      <trkpt lat="48.97481" lon="3.30774">
        <ele>77.8</ele>
        <time>2020-07-01T09:48:33Z</time>
      </trkpt>
      <trkpt lat="48.97483" lon="3.30769">
        <ele>77.9</ele>
        <time>2020-07-01T09:48:34Z</time>
      </trkpt>
      <trkpt lat="48.97485" lon="3.30764">
        <ele>77.9</ele>
        <time>2020-07-01T09:48:35Z</time>
      </trkpt>
      <trkpt lat="48.97487" lon="3.3076">
        <ele>78</ele>
        <time>2020-07-01T09:48:36Z</time>
      </trkpt>
      <trkpt lat="48.97489" lon="3.30754">
        <ele>78</ele>
        <time>2020-07-01T09:48:37Z</time>
      </trkpt>
      <trkpt lat="48.97491" lon="3.30748">
        <ele>78.1</ele>
        <time>2020-07-01T09:48:38Z</time>
      </trkpt>
      <trkpt lat="48.97494" lon="3.30742">
        <ele>78.2</ele>
        <time>2020-07-01T09:48:39Z</time>
      </trkpt>
      <trkpt lat="48.97496" lon="3.30737">
        <ele>78.2</ele>
        <time>2020-07-01T09:48:40Z</time>
      </trkpt>
      <trkpt lat="48.97498" lon="3.30731">
        <ele>78.3</ele>
        <time>2020-07-01T09:48:41Z</time>
      </trkpt>
      <trkpt lat="48.975" lon="3.30724">
        <ele>78.3</ele>
        <time>2020-07-01T09:48:42Z</time>
      </trkpt>
      <trkpt lat="48.97502" lon="3.30719">
        <ele>78.3</ele>
        <time>2020-07-01T09:48:43Z</time>
      </trkpt>
      <trkpt lat="48.97504" lon="3.30713">
        <ele>78.3</ele>
        <time>2020-07-01T09:48:44Z</time>
      </trkpt>
      <trkpt lat="48.97506" lon="3.30707">
        <ele>78.3</ele>
        <time>2020-07-01T09:48:45Z</time>
      </trkpt>
      <trkpt lat="48.97507" lon="3.30702">
        <ele>78.3</ele>
        <time>2020-07-01T09:48:46Z</time>
      </trkpt>
      <trkpt lat="48.97509" lon="3.30697">
        <ele>78.2</ele>
        <time>2020-07-01T09:48:47Z</time>
      </trkpt>
      <trkpt lat="48.97511" lon="3.30692">
        <ele>78.2</ele>
        <time>2020-07-01T09:48:48Z</time>
      </trkpt>
      <trkpt lat="48.97513" lon="3.30687">
        <ele>78.2</ele>
        <time>2020-07-01T09:48:49Z</time>
      </trkpt>
      <trkpt lat="48.97515" lon="3.30682">
        <ele>78.1</ele>
        <time>2020-07-01T09:48:50Z</time>
      </trkpt>
      <trkpt lat="48.97517" lon="3.30677">
        <ele>78</ele>
        <time>2020-07-01T09:48:51Z</time>
      </trkpt>
      <trkpt lat="48.97519" lon="3.30671">
        <ele>78</ele>
        <time>2020-07-01T09:48:52Z</time>
      </trkpt>
      <trkpt lat="48.97522" lon="3.30667">
        <ele>77.9</ele>
        <time>2020-07-01T09:48:53Z</time>
      </trkpt>
      <trkpt lat="48.97524" lon="3.30661">
        <ele>77.8</ele>
        <time>2020-07-01T09:48:54Z</time>
      </trkpt>
      <trkpt lat="48.97526" lon="3.30655">
        <ele>77.7</ele>
        <time>2020-07-01T09:48:55Z</time>
      </trkpt>
      <trkpt lat="48.97528" lon="3.30647">
        <ele>77.7</ele>
        <time>2020-07-01T09:48:56Z</time>
      </trkpt>
      <trkpt lat="48.97529" lon="3.30638">
        <ele>77.2</ele>
        <time>2020-07-01T09:48:57Z</time>
      </trkpt>
      <trkpt lat="48.97529" lon="3.30631">
        <ele>76.9</ele>
        <time>2020-07-01T09:48:58Z</time>
      </trkpt>
      <trkpt lat="48.9753" lon="3.30625">
        <ele>76.6</ele>
        <time>2020-07-01T09:48:59Z</time>
      </trkpt>
      <trkpt lat="48.9753" lon="3.30618">
        <ele>76.4</ele>
        <time>2020-07-01T09:49:00Z</time>
      </trkpt>
      <trkpt lat="48.97528" lon="3.30612">
        <ele>76.1</ele>
        <time>2020-07-01T09:49:01Z</time>
      </trkpt>
      <trkpt lat="48.97527" lon="3.30605">
        <ele>75.8</ele>
        <time>2020-07-01T09:49:02Z</time>
      </trkpt>
      <trkpt lat="48.97525" lon="3.30596">
        <ele>75.4</ele>
        <time>2020-07-01T09:49:03Z</time>
      </trkpt>
      <trkpt lat="48.97523" lon="3.30587">
        <ele>75</ele>
        <time>2020-07-01T09:49:04Z</time>
      </trkpt>
      <trkpt lat="48.97522" lon="3.30577">
        <ele>74.5</ele>
        <time>2020-07-01T09:49:05Z</time>
      </trkpt>
      <trkpt lat="48.97521" lon="3.30568">
        <ele>74.1</ele>
        <time>2020-07-01T09:49:06Z</time>
      </trkpt>
      <trkpt lat="48.97519" lon="3.30557">
        <ele>73.7</ele>
        <time>2020-07-01T09:49:07Z</time>
      </trkpt>
      <trkpt lat="48.97519" lon="3.30546">
        <ele>73.3</ele>
        <time>2020-07-01T09:49:08Z</time>
      </trkpt>
      <trkpt lat="48.97519" lon="3.30534">
        <ele>72.9</ele>
        <time>2020-07-01T09:49:09Z</time>
      </trkpt>
      <trkpt lat="48.9752" lon="3.3052">
        <ele>72.4</ele>
        <time>2020-07-01T09:49:10Z</time>
      </trkpt>
      <trkpt lat="48.97522" lon="3.30509">
        <ele>72</ele>
        <time>2020-07-01T09:49:11Z</time>
      </trkpt>
      <trkpt lat="48.97524" lon="3.30496">
        <ele>71.6</ele>
        <time>2020-07-01T09:49:12Z</time>
      </trkpt>
      <trkpt lat="48.97527" lon="3.30484">
        <ele>71.2</ele>
        <time>2020-07-01T09:49:13Z</time>
      </trkpt>
      <trkpt lat="48.97529" lon="3.30472">
        <ele>70.8</ele>
        <time>2020-07-01T09:49:14Z</time>
      </trkpt>
      <trkpt lat="48.9753" lon="3.3046">
        <ele>70.4</ele>
        <time>2020-07-01T09:49:15Z</time>
      </trkpt>
      <trkpt lat="48.97532" lon="3.30448">
        <ele>70.1</ele>
        <time>2020-07-01T09:49:16Z</time>
      </trkpt>
      <trkpt lat="48.97533" lon="3.30434">
        <ele>69.7</ele>
        <time>2020-07-01T09:49:17Z</time>
      </trkpt>
      <trkpt lat="48.97535" lon="3.30421">
        <ele>69.3</ele>
        <time>2020-07-01T09:49:18Z</time>
      </trkpt>
      <trkpt lat="48.97536" lon="3.30408">
        <ele>69</ele>
        <time>2020-07-01T09:49:19Z</time>
      </trkpt>
      <trkpt lat="48.97536" lon="3.30396">
        <ele>68.6</ele>
        <time>2020-07-01T09:49:20Z</time>
      </trkpt>
      <trkpt lat="48.97536" lon="3.30384">
        <ele>68.3</ele>
        <time>2020-07-01T09:49:21Z</time>
      </trkpt>
      <trkpt lat="48.97536" lon="3.30372">
        <ele>68</ele>
        <time>2020-07-01T09:49:22Z</time>
      </trkpt>
      <trkpt lat="48.97537" lon="3.3036">
        <ele>67.6</ele>
        <time>2020-07-01T09:49:23Z</time>
      </trkpt>
      <trkpt lat="48.97539" lon="3.30348">
        <ele>67.3</ele>
        <time>2020-07-01T09:49:24Z</time>
      </trkpt>
      <trkpt lat="48.9754" lon="3.30337">
        <ele>67.1</ele>
        <time>2020-07-01T09:49:25Z</time>
      </trkpt>
      <trkpt lat="48.97541" lon="3.30326">
        <ele>66.9</ele>
        <time>2020-07-01T09:49:26Z</time>
      </trkpt>
      <trkpt lat="48.97542" lon="3.30316">
        <ele>66.6</ele>
        <time>2020-07-01T09:49:27Z</time>
      </trkpt>
      <trkpt lat="48.97543" lon="3.30305">
        <ele>66.4</ele>
        <time>2020-07-01T09:49:28Z</time>
      </trkpt>
      <trkpt lat="48.97545" lon="3.30295">
        <ele>66.1</ele>
        <time>2020-07-01T09:49:29Z</time>
      </trkpt>
      <trkpt lat="48.97547" lon="3.30284">
        <ele>65.9</ele>
        <time>2020-07-01T09:49:30Z</time>
      </trkpt>
      <trkpt lat="48.9755" lon="3.30275">
        <ele>65.7</ele>
        <time>2020-07-01T09:49:31Z</time>
      </trkpt>
      <trkpt lat="48.97552" lon="3.30266">
        <ele>65.6</ele>
        <time>2020-07-01T09:49:32Z</time>
      </trkpt>
      <trkpt lat="48.97553" lon="3.30256">
        <ele>65.5</ele>
        <time>2020-07-01T09:49:33Z</time>
      </trkpt>
      <trkpt lat="48.97555" lon="3.30246">
        <ele>65.4</ele>
        <time>2020-07-01T09:49:34Z</time>
      </trkpt>
      <trkpt lat="48.97557" lon="3.30236">
        <ele>65.3</ele>
        <time>2020-07-01T09:49:35Z</time>
      </trkpt>
      <trkpt lat="48.97559" lon="3.30226">
        <ele>65.3</ele>
        <time>2020-07-01T09:49:36Z</time>
      </trkpt>
      <trkpt lat="48.9756" lon="3.30216">
        <ele>65.2</ele>
        <time>2020-07-01T09:49:37Z</time>
      </trkpt>
      <trkpt lat="48.97562" lon="3.30207">
        <ele>65.2</ele>
        <time>2020-07-01T09:49:38Z</time>
      </trkpt>
      <trkpt lat="48.97564" lon="3.30198">
        <ele>65.1</ele>
        <time>2020-07-01T09:49:39Z</time>
      </trkpt>
      <trkpt lat="48.97565" lon="3.30189">
        <ele>65.2</ele>
        <time>2020-07-01T09:49:40Z</time>
      </trkpt>
      <trkpt lat="48.97566" lon="3.3018">
        <ele>65.2</ele>
        <time>2020-07-01T09:49:41Z</time>
      </trkpt>
      <trkpt lat="48.97568" lon="3.30171">
        <ele>65.2</ele>
        <time>2020-07-01T09:49:42Z</time>
      </trkpt>
      <trkpt lat="48.9757" lon="3.30163">
        <ele>65.2</ele>
        <time>2020-07-01T09:49:43Z</time>
      </trkpt>
      <trkpt lat="48.97568" lon="3.30155">
        <ele>65.2</ele>
        <time>2020-07-01T09:49:44Z</time>
      </trkpt>
      <trkpt lat="48.9757" lon="3.30148">
        <ele>65.2</ele>
        <time>2020-07-01T09:49:45Z</time>
      </trkpt>
      <trkpt lat="48.9757" lon="3.3014">
        <ele>65.3</ele>
        <time>2020-07-01T09:49:46Z</time>
      </trkpt>
      <trkpt lat="48.97571" lon="3.30132">
        <ele>65.3</ele>
        <time>2020-07-01T09:49:47Z</time>
      </trkpt>
      <trkpt lat="48.97571" lon="3.30124">
        <ele>65.3</ele>
        <time>2020-07-01T09:49:48Z</time>
      </trkpt>
      <trkpt lat="48.97571" lon="3.30117">
        <ele>65.3</ele>
        <time>2020-07-01T09:49:49Z</time>
      </trkpt>
      <trkpt lat="48.97572" lon="3.3011">
        <ele>65.3</ele>
        <time>2020-07-01T09:49:50Z</time>
      </trkpt>
      <trkpt lat="48.97573" lon="3.30103">
        <ele>65.3</ele>
        <time>2020-07-01T09:49:51Z</time>
      </trkpt>
      <trkpt lat="48.97573" lon="3.30096">
        <ele>65.2</ele>
        <time>2020-07-01T09:49:52Z</time>
      </trkpt>
      <trkpt lat="48.97573" lon="3.30088">
        <ele>65.1</ele>
        <time>2020-07-01T09:49:53Z</time>
      </trkpt>
      <trkpt lat="48.97573" lon="3.3008">
        <ele>65</ele>
        <time>2020-07-01T09:49:54Z</time>
      </trkpt>
      <trkpt lat="48.97573" lon="3.30072">
        <ele>64.8</ele>
        <time>2020-07-01T09:49:55Z</time>
      </trkpt>
      <trkpt lat="48.97573" lon="3.30064">
        <ele>64.7</ele>
        <time>2020-07-01T09:49:56Z</time>
      </trkpt>
      <trkpt lat="48.97574" lon="3.30056">
        <ele>64.6</ele>
        <time>2020-07-01T09:49:57Z</time>
      </trkpt>
      <trkpt lat="48.97574" lon="3.30047">
        <ele>64.5</ele>
        <time>2020-07-01T09:49:58Z</time>
      </trkpt>
      <trkpt lat="48.97575" lon="3.30039">
        <ele>64.4</ele>
        <time>2020-07-01T09:49:59Z</time>
      </trkpt>
      <trkpt lat="48.97576" lon="3.3003">
        <ele>64.3</ele>
        <time>2020-07-01T09:50:00Z</time>
      </trkpt>
      <trkpt lat="48.97577" lon="3.30021">
        <ele>64.1</ele>
        <time>2020-07-01T09:50:01Z</time>
      </trkpt>
      <trkpt lat="48.97577" lon="3.30012">
        <ele>64</ele>
        <time>2020-07-01T09:50:02Z</time>
      </trkpt>
      <trkpt lat="48.97578" lon="3.30002">
        <ele>63.9</ele>
        <time>2020-07-01T09:50:03Z</time>
      </trkpt>
      <trkpt lat="48.97579" lon="3.29993">
        <ele>63.8</ele>
        <time>2020-07-01T09:50:04Z</time>
      </trkpt>
      <trkpt lat="48.97579" lon="3.29983">
        <ele>63.8</ele>
        <time>2020-07-01T09:50:05Z</time>
      </trkpt>
      <trkpt lat="48.9758" lon="3.29974">
        <ele>63.7</ele>
        <time>2020-07-01T09:50:06Z</time>
      </trkpt>
      <trkpt lat="48.97581" lon="3.29964">
        <ele>63.6</ele>
        <time>2020-07-01T09:50:07Z</time>
      </trkpt>
      <trkpt lat="48.97582" lon="3.29956">
        <ele>63.6</ele>
        <time>2020-07-01T09:50:08Z</time>
      </trkpt>
      <trkpt lat="48.97583" lon="3.29947">
        <ele>63.5</ele>
        <time>2020-07-01T09:50:09Z</time>
      </trkpt>
      <trkpt lat="48.97585" lon="3.29938">
        <ele>63.5</ele>
        <time>2020-07-01T09:50:10Z</time>
      </trkpt>
      <trkpt lat="48.97587" lon="3.2993">
        <ele>63.5</ele>
        <time>2020-07-01T09:50:11Z</time>
      </trkpt>
      <trkpt lat="48.97588" lon="3.29921">
        <ele>63.5</ele>
        <time>2020-07-01T09:50:12Z</time>
      </trkpt>
      <trkpt lat="48.9759" lon="3.29911">
        <ele>63.6</ele>
        <time>2020-07-01T09:50:13Z</time>
      </trkpt>
      <trkpt lat="48.97591" lon="3.29901">
        <ele>63.6</ele>
        <time>2020-07-01T09:50:14Z</time>
      </trkpt>
      <trkpt lat="48.97593" lon="3.29893">
        <ele>63.6</ele>
        <time>2020-07-01T09:50:15Z</time>
      </trkpt>
      <trkpt lat="48.97594" lon="3.29884">
        <ele>63.6</ele>
        <time>2020-07-01T09:50:16Z</time>
      </trkpt>
      <trkpt lat="48.97595" lon="3.29876">
        <ele>63.6</ele>
        <time>2020-07-01T09:50:17Z</time>
      </trkpt>
      <trkpt lat="48.97597" lon="3.29867">
        <ele>63.6</ele>
        <time>2020-07-01T09:50:18Z</time>
      </trkpt>
      <trkpt lat="48.97598" lon="3.29859">
        <ele>63.5</ele>
        <time>2020-07-01T09:50:19Z</time>
      </trkpt>
      <trkpt lat="48.97599" lon="3.29851">
        <ele>63.5</ele>
        <time>2020-07-01T09:50:20Z</time>
      </trkpt>
      <trkpt lat="48.97601" lon="3.29843">
        <ele>63.5</ele>
        <time>2020-07-01T09:50:21Z</time>
      </trkpt>
      <trkpt lat="48.97602" lon="3.29834">
        <ele>63.4</ele>
        <time>2020-07-01T09:50:22Z</time>
      </trkpt>
      <trkpt lat="48.97603" lon="3.29826">
        <ele>63.4</ele>
        <time>2020-07-01T09:50:23Z</time>
      </trkpt>
      <trkpt lat="48.97603" lon="3.29817">
        <ele>63.4</ele>
        <time>2020-07-01T09:50:24Z</time>
      </trkpt>
      <trkpt lat="48.97602" lon="3.29807">
        <ele>63.4</ele>
        <time>2020-07-01T09:50:25Z</time>
      </trkpt>
      <trkpt lat="48.97603" lon="3.29799">
        <ele>63.4</ele>
        <time>2020-07-01T09:50:26Z</time>
      </trkpt>
      <trkpt lat="48.97605" lon="3.2979">
        <ele>63.4</ele>
        <time>2020-07-01T09:50:27Z</time>
      </trkpt>
      <trkpt lat="48.97606" lon="3.29782">
        <ele>63.4</ele>
        <time>2020-07-01T09:50:28Z</time>
      </trkpt>
      <trkpt lat="48.97607" lon="3.29774">
        <ele>63.4</ele>
        <time>2020-07-01T09:50:29Z</time>
      </trkpt>
      <trkpt lat="48.97609" lon="3.29766">
        <ele>63.4</ele>
        <time>2020-07-01T09:50:30Z</time>
      </trkpt>
      <trkpt lat="48.9761" lon="3.29758">
        <ele>63.4</ele>
        <time>2020-07-01T09:50:31Z</time>
      </trkpt>
      <trkpt lat="48.97611" lon="3.2975">
        <ele>63.4</ele>
        <time>2020-07-01T09:50:32Z</time>
      </trkpt>
      <trkpt lat="48.97611" lon="3.29742">
        <ele>63.4</ele>
        <time>2020-07-01T09:50:33Z</time>
      </trkpt>
      <trkpt lat="48.97612" lon="3.29733">
        <ele>63.4</ele>
        <time>2020-07-01T09:50:34Z</time>
      </trkpt>
      <trkpt lat="48.97614" lon="3.29725">
        <ele>63.4</ele>
        <time>2020-07-01T09:50:35Z</time>
      </trkpt>
      <trkpt lat="48.97615" lon="3.29716">
        <ele>63.4</ele>
        <time>2020-07-01T09:50:36Z</time>
      </trkpt>
      <trkpt lat="48.97617" lon="3.29708">
        <ele>63.4</ele>
        <time>2020-07-01T09:50:37Z</time>
      </trkpt>
      <trkpt lat="48.97618" lon="3.297">
        <ele>63.4</ele>
        <time>2020-07-01T09:50:38Z</time>
      </trkpt>
      <trkpt lat="48.97618" lon="3.29691">
        <ele>63.5</ele>
        <time>2020-07-01T09:50:39Z</time>
      </trkpt>
      <trkpt lat="48.97619" lon="3.29682">
        <ele>63.5</ele>
        <time>2020-07-01T09:50:40Z</time>
      </trkpt>
      <trkpt lat="48.9762" lon="3.29673">
        <ele>63.5</ele>
        <time>2020-07-01T09:50:41Z</time>
      </trkpt>
      <trkpt lat="48.97622" lon="3.29665">
        <ele>63.6</ele>
        <time>2020-07-01T09:50:42Z</time>
      </trkpt>
      <trkpt lat="48.97624" lon="3.29657">
        <ele>63.6</ele>
        <time>2020-07-01T09:50:43Z</time>
      </trkpt>
      <trkpt lat="48.97626" lon="3.29648">
        <ele>63.6</ele>
        <time>2020-07-01T09:50:44Z</time>
      </trkpt>
      <trkpt lat="48.97627" lon="3.29639">
        <ele>63.6</ele>
        <time>2020-07-01T09:50:45Z</time>
      </trkpt>
      <trkpt lat="48.97629" lon="3.2963">
        <ele>63.6</ele>
        <time>2020-07-01T09:50:46Z</time>
      </trkpt>
      <trkpt lat="48.9763" lon="3.29622">
        <ele>63.6</ele>
        <time>2020-07-01T09:50:47Z</time>
      </trkpt>
      <trkpt lat="48.97632" lon="3.29613">
        <ele>63.6</ele>
        <time>2020-07-01T09:50:48Z</time>
      </trkpt>
      <trkpt lat="48.97634" lon="3.29605">
        <ele>63.6</ele>
        <time>2020-07-01T09:50:49Z</time>
      </trkpt>
      <trkpt lat="48.97636" lon="3.29596">
        <ele>63.7</ele>
        <time>2020-07-01T09:50:50Z</time>
      </trkpt>
      <trkpt lat="48.97637" lon="3.29587">
        <ele>63.7</ele>
        <time>2020-07-01T09:50:51Z</time>
      </trkpt>
      <trkpt lat="48.97639" lon="3.29579">
        <ele>63.7</ele>
        <time>2020-07-01T09:50:52Z</time>
      </trkpt>
      <trkpt lat="48.9764" lon="3.2957">
        <ele>63.7</ele>
        <time>2020-07-01T09:50:53Z</time>
      </trkpt>
      <trkpt lat="48.97641" lon="3.29562">
        <ele>63.7</ele>
        <time>2020-07-01T09:50:54Z</time>
      </trkpt>
      <trkpt lat="48.97643" lon="3.29554">
        <ele>63.7</ele>
        <time>2020-07-01T09:50:55Z</time>
      </trkpt>
      <trkpt lat="48.97645" lon="3.29545">
        <ele>63.7</ele>
        <time>2020-07-01T09:50:56Z</time>
      </trkpt>
      <trkpt lat="48.97647" lon="3.29537">
        <ele>63.7</ele>
        <time>2020-07-01T09:50:57Z</time>
      </trkpt>
      <trkpt lat="48.97649" lon="3.29528">
        <ele>63.7</ele>
        <time>2020-07-01T09:50:58Z</time>
      </trkpt>
      <trkpt lat="48.9765" lon="3.29519">
        <ele>63.8</ele>
        <time>2020-07-01T09:50:59Z</time>
      </trkpt>
      <trkpt lat="48.97651" lon="3.29511">
        <ele>63.8</ele>
        <time>2020-07-01T09:51:00Z</time>
      </trkpt>
      <trkpt lat="48.97653" lon="3.29503">
        <ele>63.8</ele>
        <time>2020-07-01T09:51:01Z</time>
      </trkpt>
      <trkpt lat="48.97654" lon="3.29495">
        <ele>63.8</ele>
        <time>2020-07-01T09:51:02Z</time>
      </trkpt>
      <trkpt lat="48.97655" lon="3.29487">
        <ele>63.8</ele>
        <time>2020-07-01T09:51:03Z</time>
      </trkpt>
      <trkpt lat="48.97656" lon="3.29479">
        <ele>63.8</ele>
        <time>2020-07-01T09:51:04Z</time>
      </trkpt>
      <trkpt lat="48.97657" lon="3.29471">
        <ele>63.8</ele>
        <time>2020-07-01T09:51:05Z</time>
      </trkpt>
      <trkpt lat="48.97658" lon="3.29463">
        <ele>63.9</ele>
        <time>2020-07-01T09:51:06Z</time>
      </trkpt>
      <trkpt lat="48.97659" lon="3.29455">
        <ele>63.9</ele>
        <time>2020-07-01T09:51:07Z</time>
      </trkpt>
      <trkpt lat="48.9766" lon="3.29446">
        <ele>63.9</ele>
        <time>2020-07-01T09:51:08Z</time>
      </trkpt>
      <trkpt lat="48.97661" lon="3.29438">
        <ele>63.9</ele>
        <time>2020-07-01T09:51:09Z</time>
      </trkpt>
      <trkpt lat="48.97662" lon="3.29429">
        <ele>63.9</ele>
        <time>2020-07-01T09:51:10Z</time>
      </trkpt>
      <trkpt lat="48.97663" lon="3.29421">
        <ele>63.9</ele>
        <time>2020-07-01T09:51:11Z</time>
      </trkpt>
      <trkpt lat="48.97664" lon="3.29413">
        <ele>63.9</ele>
        <time>2020-07-01T09:51:12Z</time>
      </trkpt>
      <trkpt lat="48.97664" lon="3.29404">
        <ele>63.9</ele>
        <time>2020-07-01T09:51:13Z</time>
      </trkpt>
      <trkpt lat="48.97664" lon="3.29395">
        <ele>63.9</ele>
        <time>2020-07-01T09:51:14Z</time>
      </trkpt>
      <trkpt lat="48.97666" lon="3.29387">
        <ele>64</ele>
        <time>2020-07-01T09:51:15Z</time>
      </trkpt>
      <trkpt lat="48.97668" lon="3.29378">
        <ele>64</ele>
        <time>2020-07-01T09:51:16Z</time>
      </trkpt>
      <trkpt lat="48.9767" lon="3.2937">
        <ele>64.1</ele>
        <time>2020-07-01T09:51:17Z</time>
      </trkpt>
      <trkpt lat="48.97671" lon="3.29362">
        <ele>64.1</ele>
        <time>2020-07-01T09:51:18Z</time>
      </trkpt>
      <trkpt lat="48.97672" lon="3.29353">
        <ele>64.1</ele>
        <time>2020-07-01T09:51:19Z</time>
      </trkpt>
      <trkpt lat="48.97673" lon="3.29344">
        <ele>64.1</ele>
        <time>2020-07-01T09:51:20Z</time>
      </trkpt>
      <trkpt lat="48.97673" lon="3.29335">
        <ele>64.1</ele>
        <time>2020-07-01T09:51:21Z</time>
      </trkpt>
      <trkpt lat="48.97674" lon="3.29327">
        <ele>64.1</ele>
        <time>2020-07-01T09:51:22Z</time>
      </trkpt>
      <trkpt lat="48.97674" lon="3.29318">
        <ele>64.1</ele>
        <time>2020-07-01T09:51:23Z</time>
      </trkpt>
      <trkpt lat="48.97675" lon="3.29309">
        <ele>64.1</ele>
        <time>2020-07-01T09:51:24Z</time>
      </trkpt>
      <trkpt lat="48.97676" lon="3.29301">
        <ele>64.1</ele>
        <time>2020-07-01T09:51:25Z</time>
      </trkpt>
      <trkpt lat="48.97676" lon="3.29292">
        <ele>64.1</ele>
        <time>2020-07-01T09:51:26Z</time>
      </trkpt>
      <trkpt lat="48.97678" lon="3.29284">
        <ele>64.1</ele>
        <time>2020-07-01T09:51:27Z</time>
      </trkpt>
      <trkpt lat="48.97679" lon="3.29276">
        <ele>64.1</ele>
        <time>2020-07-01T09:51:28Z</time>
      </trkpt>
      <trkpt lat="48.97681" lon="3.29267">
        <ele>64</ele>
        <time>2020-07-01T09:51:29Z</time>
      </trkpt>
      <trkpt lat="48.97682" lon="3.29258">
        <ele>64</ele>
        <time>2020-07-01T09:51:30Z</time>
      </trkpt>
      <trkpt lat="48.97685" lon="3.2925">
        <ele>64</ele>
        <time>2020-07-01T09:51:31Z</time>
      </trkpt>
      <trkpt lat="48.97686" lon="3.29241">
        <ele>64</ele>
        <time>2020-07-01T09:51:32Z</time>
      </trkpt>
      <trkpt lat="48.97687" lon="3.29233">
        <ele>63.9</ele>
        <time>2020-07-01T09:51:33Z</time>
      </trkpt>
      <trkpt lat="48.97689" lon="3.29225">
        <ele>63.9</ele>
        <time>2020-07-01T09:51:34Z</time>
      </trkpt>
      <trkpt lat="48.9769" lon="3.29216">
        <ele>63.9</ele>
        <time>2020-07-01T09:51:35Z</time>
      </trkpt>
      <trkpt lat="48.97691" lon="3.29207">
        <ele>63.8</ele>
        <time>2020-07-01T09:51:36Z</time>
      </trkpt>
      <trkpt lat="48.97693" lon="3.292">
        <ele>63.8</ele>
        <time>2020-07-01T09:51:37Z</time>
      </trkpt>
      <trkpt lat="48.97694" lon="3.29192">
        <ele>63.8</ele>
        <time>2020-07-01T09:51:38Z</time>
      </trkpt>
      <trkpt lat="48.97696" lon="3.29184">
        <ele>63.7</ele>
        <time>2020-07-01T09:51:39Z</time>
      </trkpt>
      <trkpt lat="48.97697" lon="3.29176">
        <ele>63.7</ele>
        <time>2020-07-01T09:51:40Z</time>
      </trkpt>
      <trkpt lat="48.97698" lon="3.29168">
        <ele>63.6</ele>
        <time>2020-07-01T09:51:41Z</time>
      </trkpt>
      <trkpt lat="48.977" lon="3.29159">
        <ele>63.6</ele>
        <time>2020-07-01T09:51:42Z</time>
      </trkpt>
      <trkpt lat="48.977" lon="3.2915">
        <ele>63.6</ele>
        <time>2020-07-01T09:51:43Z</time>
      </trkpt>
      <trkpt lat="48.97701" lon="3.29142">
        <ele>63.6</ele>
        <time>2020-07-01T09:51:44Z</time>
      </trkpt>
      <trkpt lat="48.97703" lon="3.29134">
        <ele>63.6</ele>
        <time>2020-07-01T09:51:45Z</time>
      </trkpt>
      <trkpt lat="48.97703" lon="3.29126">
        <ele>63.6</ele>
        <time>2020-07-01T09:51:46Z</time>
      </trkpt>
      <trkpt lat="48.97704" lon="3.29117">
        <ele>63.6</ele>
        <time>2020-07-01T09:51:47Z</time>
      </trkpt>
      <trkpt lat="48.97705" lon="3.29109">
        <ele>63.6</ele>
        <time>2020-07-01T09:51:48Z</time>
      </trkpt>
      <trkpt lat="48.97707" lon="3.29102">
        <ele>63.6</ele>
        <time>2020-07-01T09:51:49Z</time>
      </trkpt>
      <trkpt lat="48.97709" lon="3.29095">
        <ele>63.6</ele>
        <time>2020-07-01T09:51:50Z</time>
      </trkpt>
      <trkpt lat="48.9771" lon="3.29088">
        <ele>63.6</ele>
        <time>2020-07-01T09:51:51Z</time>
      </trkpt>
      <trkpt lat="48.97712" lon="3.29082">
        <ele>63.7</ele>
        <time>2020-07-01T09:51:52Z</time>
      </trkpt>
      <trkpt lat="48.97715" lon="3.29076">
        <ele>63.7</ele>
        <time>2020-07-01T09:51:53Z</time>
      </trkpt>
      <trkpt lat="48.97719" lon="3.29073">
        <ele>63.8</ele>
        <time>2020-07-01T09:51:54Z</time>
      </trkpt>
      <trkpt lat="48.97723" lon="3.2907">
        <ele>63.9</ele>
        <time>2020-07-01T09:51:55Z</time>
      </trkpt>
      <trkpt lat="48.97726" lon="3.29068">
        <ele>64</ele>
        <time>2020-07-01T09:51:56Z</time>
      </trkpt>
      <trkpt lat="48.97731" lon="3.29067">
        <ele>64.2</ele>
        <time>2020-07-01T09:51:57Z</time>
      </trkpt>
      <trkpt lat="48.97734" lon="3.29066">
        <ele>64.3</ele>
        <time>2020-07-01T09:51:58Z</time>
      </trkpt>
      <trkpt lat="48.97738" lon="3.29064">
        <ele>64.4</ele>
        <time>2020-07-01T09:51:59Z</time>
      </trkpt>
      <trkpt lat="48.97741" lon="3.29063">
        <ele>64.5</ele>
        <time>2020-07-01T09:52:00Z</time>
      </trkpt>
      <trkpt lat="48.97744" lon="3.29062">
        <ele>64.7</ele>
        <time>2020-07-01T09:52:01Z</time>
      </trkpt>
      <trkpt lat="48.97747" lon="3.29063">
        <ele>64.8</ele>
        <time>2020-07-01T09:52:02Z</time>
      </trkpt>
      <trkpt lat="48.9775" lon="3.29062">
        <ele>64.9</ele>
        <time>2020-07-01T09:52:03Z</time>
      </trkpt>
      <trkpt lat="48.97753" lon="3.29061">
        <ele>65</ele>
        <time>2020-07-01T09:52:04Z</time>
      </trkpt>
      <trkpt lat="48.97756" lon="3.29061">
        <ele>65.2</ele>
        <time>2020-07-01T09:52:05Z</time>
      </trkpt>
      <trkpt lat="48.97759" lon="3.29062">
        <ele>65.3</ele>
        <time>2020-07-01T09:52:06Z</time>
      </trkpt>
      <trkpt lat="48.97762" lon="3.29063">
        <ele>65.4</ele>
        <time>2020-07-01T09:52:07Z</time>
      </trkpt>
      <trkpt lat="48.97765" lon="3.29063">
        <ele>65.5</ele>
        <time>2020-07-01T09:52:08Z</time>
      </trkpt>
      <trkpt lat="48.97768" lon="3.29063">
        <ele>65.6</ele>
        <time>2020-07-01T09:52:09Z</time>
      </trkpt>
      <trkpt lat="48.97771" lon="3.29064">
        <ele>65.7</ele>
        <time>2020-07-01T09:52:10Z</time>
      </trkpt>
      <trkpt lat="48.97774" lon="3.29064">
        <ele>65.8</ele>
        <time>2020-07-01T09:52:11Z</time>
      </trkpt>
      <trkpt lat="48.97778" lon="3.29064">
        <ele>66</ele>
        <time>2020-07-01T09:52:12Z</time>
      </trkpt>
      <trkpt lat="48.97781" lon="3.29065">
        <ele>66.1</ele>
        <time>2020-07-01T09:52:13Z</time>
      </trkpt>
      <trkpt lat="48.97786" lon="3.29066">
        <ele>66.2</ele>
        <time>2020-07-01T09:52:14Z</time>
      </trkpt>
      <trkpt lat="48.9779" lon="3.29065">
        <ele>66.4</ele>
        <time>2020-07-01T09:52:15Z</time>
      </trkpt>
      <trkpt lat="48.97796" lon="3.29066">
        <ele>66.6</ele>
        <time>2020-07-01T09:52:16Z</time>
      </trkpt>
      <trkpt lat="48.978" lon="3.29067">
        <ele>66.8</ele>
        <time>2020-07-01T09:52:17Z</time>
      </trkpt>
      <trkpt lat="48.97804" lon="3.29068">
        <ele>66.9</ele>
        <time>2020-07-01T09:52:18Z</time>
      </trkpt>
      <trkpt lat="48.97808" lon="3.29067">
        <ele>67</ele>
        <time>2020-07-01T09:52:19Z</time>
      </trkpt>
      <trkpt lat="48.97811" lon="3.29067">
        <ele>67.2</ele>
        <time>2020-07-01T09:52:20Z</time>
      </trkpt>
      <trkpt lat="48.97815" lon="3.29067">
        <ele>67.3</ele>
        <time>2020-07-01T09:52:21Z</time>
      </trkpt>
      <trkpt lat="48.97818" lon="3.29067">
        <ele>67.4</ele>
        <time>2020-07-01T09:52:22Z</time>
      </trkpt>
      <trkpt lat="48.97823" lon="3.29064">
        <ele>67.6</ele>
        <time>2020-07-01T09:52:23Z</time>
      </trkpt>
      <trkpt lat="48.97828" lon="3.29062">
        <ele>67.8</ele>
        <time>2020-07-01T09:52:24Z</time>
      </trkpt>
      <trkpt lat="48.97831" lon="3.29059">
        <ele>67.9</ele>
        <time>2020-07-01T09:52:25Z</time>
      </trkpt>
      <trkpt lat="48.97835" lon="3.29055">
        <ele>68</ele>
        <time>2020-07-01T09:52:26Z</time>
      </trkpt>
      <trkpt lat="48.97839" lon="3.29051">
        <ele>68.2</ele>
        <time>2020-07-01T09:52:27Z</time>
      </trkpt>
      <trkpt lat="48.97842" lon="3.29046">
        <ele>68.3</ele>
        <time>2020-07-01T09:52:28Z</time>
      </trkpt>
      <trkpt lat="48.97846" lon="3.29042">
        <ele>68.4</ele>
        <time>2020-07-01T09:52:29Z</time>
      </trkpt>
      <trkpt lat="48.9785" lon="3.29038">
        <ele>68.5</ele>
        <time>2020-07-01T09:52:30Z</time>
      </trkpt>
      <trkpt lat="48.97853" lon="3.29034">
        <ele>68.5</ele>
        <time>2020-07-01T09:52:31Z</time>
      </trkpt>
      <trkpt lat="48.97856" lon="3.29029">
        <ele>68.6</ele>
        <time>2020-07-01T09:52:32Z</time>
      </trkpt>
      <trkpt lat="48.97858" lon="3.29025">
        <ele>68.6</ele>
        <time>2020-07-01T09:52:33Z</time>
      </trkpt>
      <trkpt lat="48.9786" lon="3.2902">
        <ele>68.6</ele>
        <time>2020-07-01T09:52:34Z</time>
      </trkpt>
      <trkpt lat="48.97862" lon="3.29016">
        <ele>68.7</ele>
        <time>2020-07-01T09:52:35Z</time>
      </trkpt>
      <trkpt lat="48.97865" lon="3.29012">
        <ele>68.7</ele>
        <time>2020-07-01T09:52:36Z</time>
      </trkpt>
      <trkpt lat="48.97868" lon="3.29006">
        <ele>68.7</ele>
        <time>2020-07-01T09:52:37Z</time>
      </trkpt>
      <trkpt lat="48.9787" lon="3.29">
        <ele>68.7</ele>
        <time>2020-07-01T09:52:38Z</time>
      </trkpt>
      <trkpt lat="48.97872" lon="3.28995">
        <ele>68.8</ele>
        <time>2020-07-01T09:52:39Z</time>
      </trkpt>
      <trkpt lat="48.97875" lon="3.28989">
        <ele>68.8</ele>
        <time>2020-07-01T09:52:40Z</time>
      </trkpt>
      <trkpt lat="48.97878" lon="3.28983">
        <ele>68.9</ele>
        <time>2020-07-01T09:52:41Z</time>
      </trkpt>
      <trkpt lat="48.97882" lon="3.28975">
        <ele>68.9</ele>
        <time>2020-07-01T09:52:42Z</time>
      </trkpt>
      <trkpt lat="48.97885" lon="3.28969">
        <ele>69</ele>
        <time>2020-07-01T09:52:43Z</time>
      </trkpt>
      <trkpt lat="48.97887" lon="3.28963">
        <ele>69</ele>
        <time>2020-07-01T09:52:44Z</time>
      </trkpt>
      <trkpt lat="48.9789" lon="3.28957">
        <ele>69.1</ele>
        <time>2020-07-01T09:52:45Z</time>
      </trkpt>
      <trkpt lat="48.97893" lon="3.28951">
        <ele>69.1</ele>
        <time>2020-07-01T09:52:46Z</time>
      </trkpt>
      <trkpt lat="48.97895" lon="3.28945">
        <ele>69.2</ele>
        <time>2020-07-01T09:52:47Z</time>
      </trkpt>
      <trkpt lat="48.97897" lon="3.2894">
        <ele>69.3</ele>
        <time>2020-07-01T09:52:48Z</time>
      </trkpt>
      <trkpt lat="48.97899" lon="3.28933">
        <ele>69.3</ele>
        <time>2020-07-01T09:52:49Z</time>
      </trkpt>
      <trkpt lat="48.97902" lon="3.28927">
        <ele>69.4</ele>
        <time>2020-07-01T09:52:50Z</time>
      </trkpt>
      <trkpt lat="48.97905" lon="3.2892">
        <ele>69.4</ele>
        <time>2020-07-01T09:52:51Z</time>
      </trkpt>
      <trkpt lat="48.97908" lon="3.28913">
        <ele>69.5</ele>
        <time>2020-07-01T09:52:52Z</time>
      </trkpt>
      <trkpt lat="48.97912" lon="3.28905">
        <ele>69.6</ele>
        <time>2020-07-01T09:52:53Z</time>
      </trkpt>
      <trkpt lat="48.97914" lon="3.28898">
        <ele>69.6</ele>
        <time>2020-07-01T09:52:54Z</time>
      </trkpt>
      <trkpt lat="48.97916" lon="3.28893">
        <ele>69.7</ele>
        <time>2020-07-01T09:52:55Z</time>
      </trkpt>
      <trkpt lat="48.97919" lon="3.28887">
        <ele>69.7</ele>
        <time>2020-07-01T09:52:56Z</time>
      </trkpt>
      <trkpt lat="48.97922" lon="3.2888">
        <ele>69.8</ele>
        <time>2020-07-01T09:52:57Z</time>
      </trkpt>
      <trkpt lat="48.97924" lon="3.28873">
        <ele>69.8</ele>
        <time>2020-07-01T09:52:58Z</time>
      </trkpt>
      <trkpt lat="48.97927" lon="3.28867">
        <ele>69.9</ele>
        <time>2020-07-01T09:52:59Z</time>
      </trkpt>
      <trkpt lat="48.97929" lon="3.28862">
        <ele>69.9</ele>
        <time>2020-07-01T09:53:00Z</time>
      </trkpt>
      <trkpt lat="48.97932" lon="3.28855">
        <ele>69.9</ele>
        <time>2020-07-01T09:53:01Z</time>
      </trkpt>
      <trkpt lat="48.97935" lon="3.28849">
        <ele>70</ele>
        <time>2020-07-01T09:53:02Z</time>
      </trkpt>
      <trkpt lat="48.97937" lon="3.28844">
        <ele>70</ele>
        <time>2020-07-01T09:53:03Z</time>
      </trkpt>
      <trkpt lat="48.97939" lon="3.2884">
        <ele>70</ele>
        <time>2020-07-01T09:53:04Z</time>
      </trkpt>
      <trkpt lat="48.97942" lon="3.28833">
        <ele>70</ele>
        <time>2020-07-01T09:53:05Z</time>
      </trkpt>
      <trkpt lat="48.97945" lon="3.28827">
        <ele>70</ele>
        <time>2020-07-01T09:53:06Z</time>
      </trkpt>
      <trkpt lat="48.97948" lon="3.28821">
        <ele>70</ele>
        <time>2020-07-01T09:53:07Z</time>
      </trkpt>
      <trkpt lat="48.9795" lon="3.28815">
        <ele>70</ele>
        <time>2020-07-01T09:53:08Z</time>
      </trkpt>
      <trkpt lat="48.97953" lon="3.28809">
        <ele>70</ele>
        <time>2020-07-01T09:53:09Z</time>
      </trkpt>
      <trkpt lat="48.97955" lon="3.28802">
        <ele>70</ele>
        <time>2020-07-01T09:53:10Z</time>
      </trkpt>
      <trkpt lat="48.97957" lon="3.28796">
        <ele>70</ele>
        <time>2020-07-01T09:53:11Z</time>
      </trkpt>
      <trkpt lat="48.97958" lon="3.28789">
        <ele>70</ele>
        <time>2020-07-01T09:53:12Z</time>
      </trkpt>
      <trkpt lat="48.97959" lon="3.28783">
        <ele>70</ele>
        <time>2020-07-01T09:53:13Z</time>
      </trkpt>
      <trkpt lat="48.9796" lon="3.28777">
        <ele>70</ele>
        <time>2020-07-01T09:53:14Z</time>
      </trkpt>
      <trkpt lat="48.97961" lon="3.2877">
        <ele>70</ele>
        <time>2020-07-01T09:53:15Z</time>
      </trkpt>
      <trkpt lat="48.97962" lon="3.28762">
        <ele>69.9</ele>
        <time>2020-07-01T09:53:16Z</time>
      </trkpt>
      <trkpt lat="48.97962" lon="3.28753">
        <ele>69.8</ele>
        <time>2020-07-01T09:53:17Z</time>
      </trkpt>
      <trkpt lat="48.97962" lon="3.28744">
        <ele>69.6</ele>
        <time>2020-07-01T09:53:18Z</time>
      </trkpt>
      <trkpt lat="48.97962" lon="3.28735">
        <ele>69.5</ele>
        <time>2020-07-01T09:53:19Z</time>
      </trkpt>
      <trkpt lat="48.97964" lon="3.28726">
        <ele>69.4</ele>
        <time>2020-07-01T09:53:20Z</time>
      </trkpt>
      <trkpt lat="48.97966" lon="3.28719">
        <ele>69.4</ele>
        <time>2020-07-01T09:53:21Z</time>
      </trkpt>
      <trkpt lat="48.9797" lon="3.28714">
        <ele>69.9</ele>
        <time>2020-07-01T09:53:22Z</time>
      </trkpt>
      <trkpt lat="48.97973" lon="3.28709">
        <ele>69.8</ele>
        <time>2020-07-01T09:53:23Z</time>
      </trkpt>
      <trkpt lat="48.97976" lon="3.28704">
        <ele>69.7</ele>
        <time>2020-07-01T09:53:24Z</time>
      </trkpt>
      <trkpt lat="48.97979" lon="3.28699">
        <ele>69.6</ele>
        <time>2020-07-01T09:53:25Z</time>
      </trkpt>
      <trkpt lat="48.97982" lon="3.28693">
        <ele>69.4</ele>
        <time>2020-07-01T09:53:26Z</time>
      </trkpt>
      <trkpt lat="48.97985" lon="3.28686">
        <ele>69.2</ele>
        <time>2020-07-01T09:53:27Z</time>
      </trkpt>
      <trkpt lat="48.97989" lon="3.2868">
        <ele>69</ele>
        <time>2020-07-01T09:53:28Z</time>
      </trkpt>
      <trkpt lat="48.97992" lon="3.28675">
        <ele>68.8</ele>
        <time>2020-07-01T09:53:29Z</time>
      </trkpt>
      <trkpt lat="48.97998" lon="3.28672">
        <ele>68.7</ele>
        <time>2020-07-01T09:53:30Z</time>
      </trkpt>
      <trkpt lat="48.98003" lon="3.28669">
        <ele>68.7</ele>
        <time>2020-07-01T09:53:31Z</time>
      </trkpt>
      <trkpt lat="48.98008" lon="3.28665">
        <ele>68.6</ele>
        <time>2020-07-01T09:53:32Z</time>
      </trkpt>
      <trkpt lat="48.98013" lon="3.28662">
        <ele>68.6</ele>
        <time>2020-07-01T09:53:33Z</time>
      </trkpt>
      <trkpt lat="48.98018" lon="3.28659">
        <ele>68.6</ele>
        <time>2020-07-01T09:53:34Z</time>
      </trkpt>
      <trkpt lat="48.98023" lon="3.28655">
        <ele>68.5</ele>
        <time>2020-07-01T09:53:35Z</time>
      </trkpt>
      <trkpt lat="48.98027" lon="3.28652">
        <ele>68.5</ele>
        <time>2020-07-01T09:53:36Z</time>
      </trkpt>
      <trkpt lat="48.98031" lon="3.2865">
        <ele>68.5</ele>
        <time>2020-07-01T09:53:37Z</time>
      </trkpt>
      <trkpt lat="48.98034" lon="3.28648">
        <ele>68.5</ele>
        <time>2020-07-01T09:53:38Z</time>
      </trkpt>
      <trkpt lat="48.98037" lon="3.28646">
        <ele>68.5</ele>
        <time>2020-07-01T09:53:39Z</time>
      </trkpt>
      <trkpt lat="48.98038" lon="3.28645">
        <ele>68.5</ele>
        <time>2020-07-01T09:53:40Z</time>
      </trkpt>
      <trkpt lat="48.98039" lon="3.28644">
        <ele>68.5</ele>
        <time>2020-07-01T09:53:41Z</time>
      </trkpt>
      <trkpt lat="48.9804" lon="3.28643">
        <ele>68.5</ele>
        <time>2020-07-01T09:53:42Z</time>
      </trkpt>
      <trkpt lat="48.98042" lon="3.28643">
        <ele>68.5</ele>
        <time>2020-07-01T09:53:43Z</time>
      </trkpt>
      <trkpt lat="48.98042" lon="3.28642">
        <ele>68.5</ele>
        <time>2020-07-01T09:53:44Z</time>
      </trkpt>
      <trkpt lat="48.98041" lon="3.28642">
        <ele>68.4</ele>
        <time>2020-07-01T09:53:45Z</time>
      </trkpt>
      <trkpt lat="48.98042" lon="3.28642">
        <ele>68.4</ele>
        <time>2020-07-01T09:53:46Z</time>
      </trkpt>
      <trkpt lat="48.98041" lon="3.28641">
        <ele>68.4</ele>
        <time>2020-07-01T09:53:47Z</time>
      </trkpt>
      <trkpt lat="48.9804" lon="3.2864">
        <ele>68.4</ele>
        <time>2020-07-01T09:53:48Z</time>
      </trkpt>
      <trkpt lat="48.98039" lon="3.28641">
        <ele>68.4</ele>
        <time>2020-07-01T09:53:49Z</time>
      </trkpt>
      <trkpt lat="48.98039" lon="3.28639">
        <ele>68.4</ele>
        <time>2020-07-01T09:53:50Z</time>
      </trkpt>
      <trkpt lat="48.98035" lon="3.2864">
        <ele>68.4</ele>
        <time>2020-07-01T09:53:51Z</time>
      </trkpt>
      <trkpt lat="48.98031" lon="3.28641">
        <ele>68.4</ele>
        <time>2020-07-01T09:53:52Z</time>
      </trkpt>
      <trkpt lat="48.98027" lon="3.28644">
        <ele>68.4</ele>
        <time>2020-07-01T09:53:53Z</time>
      </trkpt>
      <trkpt lat="48.98023" lon="3.28648">
        <ele>68.5</ele>
        <time>2020-07-01T09:53:54Z</time>
      </trkpt>
      <trkpt lat="48.98018" lon="3.2865">
        <ele>68.5</ele>
        <time>2020-07-01T09:53:55Z</time>
      </trkpt>
      <trkpt lat="48.98013" lon="3.28652">
        <ele>68.5</ele>
        <time>2020-07-01T09:53:56Z</time>
      </trkpt>
      <trkpt lat="48.98009" lon="3.28654">
        <ele>68.6</ele>
        <time>2020-07-01T09:53:57Z</time>
      </trkpt>
      <trkpt lat="48.98006" lon="3.28655">
        <ele>68.6</ele>
        <time>2020-07-01T09:53:58Z</time>
      </trkpt>
      <trkpt lat="48.98003" lon="3.28659">
        <ele>68.7</ele>
        <time>2020-07-01T09:53:59Z</time>
      </trkpt>
      <trkpt lat="48.98002" lon="3.28661">
        <ele>68.7</ele>
        <time>2020-07-01T09:54:00Z</time>
      </trkpt>
      <trkpt lat="48.98" lon="3.28664">
        <ele>68.7</ele>
        <time>2020-07-01T09:54:01Z</time>
      </trkpt>
      <trkpt lat="48.97997" lon="3.28666">
        <ele>68.7</ele>
        <time>2020-07-01T09:54:02Z</time>
      </trkpt>
      <trkpt lat="48.97995" lon="3.28669">
        <ele>68.7</ele>
        <time>2020-07-01T09:54:03Z</time>
      </trkpt>
      <trkpt lat="48.97993" lon="3.28671">
        <ele>68.7</ele>
        <time>2020-07-01T09:54:04Z</time>
      </trkpt>
      <trkpt lat="48.9799" lon="3.28674">
        <ele>68.7</ele>
        <time>2020-07-01T09:54:05Z</time>
      </trkpt>
      <trkpt lat="48.97989" lon="3.28675">
        <ele>68.7</ele>
        <time>2020-07-01T09:54:06Z</time>
      </trkpt>
      <trkpt lat="48.97986" lon="3.28677">
        <ele>68.8</ele>
        <time>2020-07-01T09:54:07Z</time>
      </trkpt>
      <trkpt lat="48.97983" lon="3.28679">
        <ele>68.7</ele>
        <time>2020-07-01T09:54:08Z</time>
      </trkpt>
      <trkpt lat="48.97981" lon="3.2868">
        <ele>68.6</ele>
        <time>2020-07-01T09:54:09Z</time>
      </trkpt>
      <trkpt lat="48.97978" lon="3.28681">
        <ele>68.6</ele>
        <time>2020-07-01T09:54:10Z</time>
      </trkpt>
      <trkpt lat="48.97976" lon="3.2868">
        <ele>68.5</ele>
        <time>2020-07-01T09:54:11Z</time>
      </trkpt>
      <trkpt lat="48.97971" lon="3.28679">
        <ele>68.5</ele>
        <time>2020-07-01T09:54:12Z</time>
      </trkpt>
      <trkpt lat="48.97967" lon="3.2868">
        <ele>68.5</ele>
        <time>2020-07-01T09:54:13Z</time>
      </trkpt>
      <trkpt lat="48.97963" lon="3.2868">
        <ele>68.6</ele>
        <time>2020-07-01T09:54:14Z</time>
      </trkpt>
      <trkpt lat="48.97958" lon="3.28679">
        <ele>68.7</ele>
        <time>2020-07-01T09:54:15Z</time>
      </trkpt>
      <trkpt lat="48.97954" lon="3.28677">
        <ele>68.7</ele>
        <time>2020-07-01T09:54:16Z</time>
      </trkpt>
      <trkpt lat="48.9795" lon="3.28675">
        <ele>68.6</ele>
        <time>2020-07-01T09:54:17Z</time>
      </trkpt>
      <trkpt lat="48.97947" lon="3.28671">
        <ele>68.6</ele>
        <time>2020-07-01T09:54:18Z</time>
      </trkpt>
      <trkpt lat="48.97944" lon="3.28667">
        <ele>68.6</ele>
        <time>2020-07-01T09:54:19Z</time>
      </trkpt>
      <trkpt lat="48.97941" lon="3.28662">
        <ele>68.6</ele>
        <time>2020-07-01T09:54:20Z</time>
      </trkpt>
      <trkpt lat="48.97937" lon="3.28657">
        <ele>68.6</ele>
        <time>2020-07-01T09:54:21Z</time>
      </trkpt>
      <trkpt lat="48.97934" lon="3.28652">
        <ele>68.5</ele>
        <time>2020-07-01T09:54:22Z</time>
      </trkpt>
      <trkpt lat="48.97932" lon="3.28648">
        <ele>68.5</ele>
        <time>2020-07-01T09:54:23Z</time>
      </trkpt>
      <trkpt lat="48.9793" lon="3.28644">
        <ele>68.4</ele>
        <time>2020-07-01T09:54:24Z</time>
      </trkpt>
      <trkpt lat="48.97929" lon="3.28643">
        <ele>68.4</ele>
        <time>2020-07-01T09:54:25Z</time>
      </trkpt>
      <trkpt lat="48.97928" lon="3.28642">
        <ele>68.4</ele>
        <time>2020-07-01T09:54:26Z</time>
      </trkpt>
      <trkpt lat="48.97927" lon="3.28641">
        <ele>68.4</ele>
        <time>2020-07-01T09:54:27Z</time>
      </trkpt>
      <trkpt lat="48.97927" lon="3.28642">
        <ele>68.4</ele>
        <time>2020-07-01T09:54:28Z</time>
      </trkpt>
      <trkpt lat="48.97926" lon="3.28643">
        <ele>68.4</ele>
        <time>2020-07-01T09:54:29Z</time>
      </trkpt>
      <trkpt lat="48.97926" lon="3.28643">
        <ele>68.4</ele>
        <time>2020-07-01T09:54:30Z</time>
      </trkpt>
      <trkpt lat="48.97927" lon="3.28644">
        <ele>68.4</ele>
        <time>2020-07-01T09:54:31Z</time>
      </trkpt>
      <trkpt lat="48.97928" lon="3.28644">
        <ele>68.3</ele>
        <time>2020-07-01T09:54:32Z</time>
      </trkpt>
      <trkpt lat="48.97928" lon="3.28645">
        <ele>68.3</ele>
        <time>2020-07-01T09:54:33Z</time>
      </trkpt>
      <trkpt lat="48.97929" lon="3.28645">
        <ele>68.3</ele>
        <time>2020-07-01T09:54:34Z</time>
      </trkpt>
      <trkpt lat="48.97929" lon="3.28646">
        <ele>68.3</ele>
        <time>2020-07-01T09:54:35Z</time>
      </trkpt>
      <trkpt lat="48.97932" lon="3.28648">
        <ele>68.3</ele>
        <time>2020-07-01T09:54:36Z</time>
      </trkpt>
      <trkpt lat="48.97933" lon="3.28647">
        <ele>68.3</ele>
        <time>2020-07-01T09:54:37Z</time>
      </trkpt>
      <trkpt lat="48.97936" lon="3.28646">
        <ele>68.2</ele>
        <time>2020-07-01T09:54:38Z</time>
      </trkpt>
      <trkpt lat="48.97937" lon="3.28645">
        <ele>68.2</ele>
        <time>2020-07-01T09:54:39Z</time>
      </trkpt>
      <trkpt lat="48.9794" lon="3.28643">
        <ele>68.2</ele>
        <time>2020-07-01T09:54:40Z</time>
      </trkpt>
      <trkpt lat="48.97941" lon="3.28643">
        <ele>68.2</ele>
        <time>2020-07-01T09:54:41Z</time>
      </trkpt>
      <trkpt lat="48.97945" lon="3.28638">
        <ele>68.1</ele>
        <time>2020-07-01T09:54:42Z</time>
      </trkpt>
      <trkpt lat="48.97948" lon="3.28634">
        <ele>68.1</ele>
        <time>2020-07-01T09:54:43Z</time>
      </trkpt>
      <trkpt lat="48.97951" lon="3.28629">
        <ele>68</ele>
        <time>2020-07-01T09:54:44Z</time>
      </trkpt>
      <trkpt lat="48.97952" lon="3.28627">
        <ele>68</ele>
        <time>2020-07-01T09:54:45Z</time>
      </trkpt>
      <trkpt lat="48.97954" lon="3.28624">
        <ele>67.9</ele>
        <time>2020-07-01T09:54:46Z</time>
      </trkpt>
      <trkpt lat="48.97956" lon="3.2862">
        <ele>67.9</ele>
        <time>2020-07-01T09:54:47Z</time>
      </trkpt>
      <trkpt lat="48.97958" lon="3.28616">
        <ele>67.9</ele>
        <time>2020-07-01T09:54:48Z</time>
      </trkpt>
      <trkpt lat="48.9796" lon="3.28611">
        <ele>67.8</ele>
        <time>2020-07-01T09:54:49Z</time>
      </trkpt>
      <trkpt lat="48.97962" lon="3.28607">
        <ele>67.7</ele>
        <time>2020-07-01T09:54:50Z</time>
      </trkpt>
      <trkpt lat="48.97964" lon="3.28602">
        <ele>67.7</ele>
        <time>2020-07-01T09:54:51Z</time>
      </trkpt>
      <trkpt lat="48.97965" lon="3.28596">
        <ele>67.6</ele>
        <time>2020-07-01T09:54:52Z</time>
      </trkpt>
      <trkpt lat="48.97968" lon="3.2859">
        <ele>67.6</ele>
        <time>2020-07-01T09:54:53Z</time>
      </trkpt>
      <trkpt lat="48.9797" lon="3.28584">
        <ele>67.5</ele>
        <time>2020-07-01T09:54:54Z</time>
      </trkpt>
      <trkpt lat="48.97971" lon="3.28578">
        <ele>67.4</ele>
        <time>2020-07-01T09:54:55Z</time>
      </trkpt>
      <trkpt lat="48.97973" lon="3.28572">
        <ele>67.4</ele>
        <time>2020-07-01T09:54:56Z</time>
      </trkpt>
      <trkpt lat="48.97974" lon="3.28565">
        <ele>67.3</ele>
        <time>2020-07-01T09:54:57Z</time>
      </trkpt>
      <trkpt lat="48.97976" lon="3.28559">
        <ele>67.2</ele>
        <time>2020-07-01T09:54:58Z</time>
      </trkpt>
      <trkpt lat="48.97978" lon="3.28552">
        <ele>67.1</ele>
        <time>2020-07-01T09:54:59Z</time>
      </trkpt>
      <trkpt lat="48.97979" lon="3.28545">
        <ele>67</ele>
        <time>2020-07-01T09:55:00Z</time>
      </trkpt>
      <trkpt lat="48.97981" lon="3.28538">
        <ele>67</ele>
        <time>2020-07-01T09:55:01Z</time>
      </trkpt>
      <trkpt lat="48.97983" lon="3.28531">
        <ele>66.8</ele>
        <time>2020-07-01T09:55:02Z</time>
      </trkpt>
      <trkpt lat="48.97984" lon="3.28523">
        <ele>66.7</ele>
        <time>2020-07-01T09:55:03Z</time>
      </trkpt>
      <trkpt lat="48.97985" lon="3.28516">
        <ele>66.6</ele>
        <time>2020-07-01T09:55:04Z</time>
      </trkpt>
      <trkpt lat="48.97987" lon="3.2851">
        <ele>66.5</ele>
        <time>2020-07-01T09:55:05Z</time>
      </trkpt>
      <trkpt lat="48.97989" lon="3.28503">
        <ele>66.4</ele>
        <time>2020-07-01T09:55:06Z</time>
      </trkpt>
      <trkpt lat="48.97991" lon="3.28495">
        <ele>66.3</ele>
        <time>2020-07-01T09:55:07Z</time>
      </trkpt>
      <trkpt lat="48.97992" lon="3.28488">
        <ele>66.2</ele>
        <time>2020-07-01T09:55:08Z</time>
      </trkpt>
      <trkpt lat="48.97994" lon="3.28482">
        <ele>66.2</ele>
        <time>2020-07-01T09:55:09Z</time>
      </trkpt>
      <trkpt lat="48.97995" lon="3.28477">
        <ele>66.1</ele>
        <time>2020-07-01T09:55:10Z</time>
      </trkpt>
      <trkpt lat="48.97997" lon="3.28471">
        <ele>66</ele>
        <time>2020-07-01T09:55:11Z</time>
      </trkpt>
      <trkpt lat="48.97999" lon="3.28463">
        <ele>66</ele>
        <time>2020-07-01T09:55:12Z</time>
      </trkpt>
      <trkpt lat="48.97999" lon="3.28454">
        <ele>65.9</ele>
        <time>2020-07-01T09:55:13Z</time>
      </trkpt>
      <trkpt lat="48.98001" lon="3.28446">
        <ele>65.9</ele>
        <time>2020-07-01T09:55:14Z</time>
      </trkpt>
      <trkpt lat="48.98003" lon="3.2844">
        <ele>65.9</ele>
        <time>2020-07-01T09:55:15Z</time>
      </trkpt>
      <trkpt lat="48.98003" lon="3.28434">
        <ele>65.9</ele>
        <time>2020-07-01T09:55:16Z</time>
      </trkpt>
      <trkpt lat="48.98003" lon="3.28428">
        <ele>65.7</ele>
        <time>2020-07-01T09:55:17Z</time>
      </trkpt>
      <trkpt lat="48.98001" lon="3.28425">
        <ele>65.6</ele>
        <time>2020-07-01T09:55:18Z</time>
      </trkpt>
      <trkpt lat="48.97999" lon="3.28424">
        <ele>65.5</ele>
        <time>2020-07-01T09:55:19Z</time>
      </trkpt>
      <trkpt lat="48.97995" lon="3.28422">
        <ele>65.4</ele>
        <time>2020-07-01T09:55:20Z</time>
      </trkpt>
      <trkpt lat="48.97992" lon="3.2842">
        <ele>65.3</ele>
        <time>2020-07-01T09:55:21Z</time>
      </trkpt>
      <trkpt lat="48.97988" lon="3.28418">
        <ele>65.2</ele>
        <time>2020-07-01T09:55:22Z</time>
      </trkpt>
      <trkpt lat="48.97983" lon="3.28418">
        <ele>65</ele>
        <time>2020-07-01T09:55:23Z</time>
      </trkpt>
      <trkpt lat="48.97978" lon="3.28417">
        <ele>64.8</ele>
        <time>2020-07-01T09:55:24Z</time>
      </trkpt>
      <trkpt lat="48.97974" lon="3.28416">
        <ele>64.7</ele>
        <time>2020-07-01T09:55:25Z</time>
      </trkpt>
      <trkpt lat="48.9797" lon="3.28413">
        <ele>64.5</ele>
        <time>2020-07-01T09:55:26Z</time>
      </trkpt>
      <trkpt lat="48.97966" lon="3.2841">
        <ele>64.4</ele>
        <time>2020-07-01T09:55:27Z</time>
      </trkpt>
      <trkpt lat="48.97963" lon="3.28406">
        <ele>64.2</ele>
        <time>2020-07-01T09:55:28Z</time>
      </trkpt>
      <trkpt lat="48.97961" lon="3.28402">
        <ele>64.1</ele>
        <time>2020-07-01T09:55:29Z</time>
      </trkpt>
      <trkpt lat="48.97958" lon="3.28397">
        <ele>64</ele>
        <time>2020-07-01T09:55:30Z</time>
      </trkpt>
      <trkpt lat="48.97955" lon="3.28393">
        <ele>63.8</ele>
        <time>2020-07-01T09:55:31Z</time>
      </trkpt>
      <trkpt lat="48.97953" lon="3.2839">
        <ele>63.7</ele>
        <time>2020-07-01T09:55:32Z</time>
      </trkpt>
      <trkpt lat="48.97952" lon="3.28388">
        <ele>63.7</ele>
        <time>2020-07-01T09:55:33Z</time>
      </trkpt>
      <trkpt lat="48.97952" lon="3.28386">
        <ele>63.6</ele>
        <time>2020-07-01T09:55:34Z</time>
      </trkpt>
      <trkpt lat="48.97952" lon="3.28381">
        <ele>63.5</ele>
        <time>2020-07-01T09:55:35Z</time>
      </trkpt>
      <trkpt lat="48.97951" lon="3.28379">
        <ele>63.5</ele>
        <time>2020-07-01T09:55:36Z</time>
      </trkpt>
      <trkpt lat="48.97951" lon="3.28379">
        <ele>63.5</ele>
        <time>2020-07-01T09:55:37Z</time>
      </trkpt>
      <trkpt lat="48.97951" lon="3.28379">
        <ele>63.4</ele>
        <time>2020-07-01T09:55:38Z</time>
      </trkpt>
      <trkpt lat="48.97951" lon="3.28381">
        <ele>63.4</ele>
        <time>2020-07-01T09:55:39Z</time>
      </trkpt>
      <trkpt lat="48.97951" lon="3.28381">
        <ele>63.4</ele>
        <time>2020-07-01T09:55:40Z</time>
      </trkpt>
      <trkpt lat="48.9795" lon="3.28381">
        <ele>63.4</ele>
        <time>2020-07-01T09:55:41Z</time>
      </trkpt>
      <trkpt lat="48.9795" lon="3.28382">
        <ele>63.4</ele>
        <time>2020-07-01T09:55:42Z</time>
      </trkpt>
      <trkpt lat="48.9795" lon="3.28382">
        <ele>63.3</ele>
        <time>2020-07-01T09:55:43Z</time>
      </trkpt>
      <trkpt lat="48.9795" lon="3.28383">
        <ele>63.3</ele>
        <time>2020-07-01T09:55:44Z</time>
      </trkpt>
      <trkpt lat="48.9795" lon="3.28383">
        <ele>63.3</ele>
        <time>2020-07-01T09:55:45Z</time>
      </trkpt>
      <trkpt lat="48.97951" lon="3.28384">
        <ele>63.3</ele>
        <time>2020-07-01T09:55:46Z</time>
      </trkpt>
      <trkpt lat="48.97951" lon="3.28384">
        <ele>63.3</ele>
        <time>2020-07-01T09:55:47Z</time>
      </trkpt>
      <trkpt lat="48.97957" lon="3.28392">
        <ele>63.6</ele>
        <time>2020-07-01T09:56:13Z</time>
      </trkpt>
      <trkpt lat="48.97959" lon="3.28397">
        <ele>63.8</ele>
        <time>2020-07-01T09:56:14Z</time>
      </trkpt>
      <trkpt lat="48.97962" lon="3.28401">
        <ele>63.9</ele>
        <time>2020-07-01T09:56:15Z</time>
      </trkpt>
      <trkpt lat="48.97965" lon="3.28405">
        <ele>64.1</ele>
        <time>2020-07-01T09:56:16Z</time>
      </trkpt>
      <trkpt lat="48.97968" lon="3.28408">
        <ele>64.2</ele>
        <time>2020-07-01T09:56:17Z</time>
      </trkpt>
      <trkpt lat="48.97971" lon="3.28411">
        <ele>64.4</ele>
        <time>2020-07-01T09:56:18Z</time>
      </trkpt>
      <trkpt lat="48.97974" lon="3.28413">
        <ele>64.5</ele>
        <time>2020-07-01T09:56:19Z</time>
      </trkpt>
      <trkpt lat="48.97977" lon="3.28415">
        <ele>64.6</ele>
        <time>2020-07-01T09:56:20Z</time>
      </trkpt>
      <trkpt lat="48.97979" lon="3.28417">
        <ele>64.8</ele>
        <time>2020-07-01T09:56:21Z</time>
      </trkpt>
      <trkpt lat="48.97984" lon="3.28416">
        <ele>64.9</ele>
        <time>2020-07-01T09:56:22Z</time>
      </trkpt>
      <trkpt lat="48.97987" lon="3.28418">
        <ele>65.1</ele>
        <time>2020-07-01T09:56:23Z</time>
      </trkpt>
      <trkpt lat="48.9799" lon="3.28418">
        <ele>65.2</ele>
        <time>2020-07-01T09:56:24Z</time>
      </trkpt>
      <trkpt lat="48.97994" lon="3.28419">
        <ele>65.4</ele>
        <time>2020-07-01T09:56:25Z</time>
      </trkpt>
      <trkpt lat="48.97995" lon="3.28419">
        <ele>65.4</ele>
        <time>2020-07-01T09:56:26Z</time>
      </trkpt>
      <trkpt lat="48.97999" lon="3.28415">
        <ele>65.7</ele>
        <time>2020-07-01T09:56:27Z</time>
      </trkpt>
      <trkpt lat="48.98" lon="3.28414">
        <ele>65.7</ele>
        <time>2020-07-01T09:56:28Z</time>
      </trkpt>
      <trkpt lat="48.98003" lon="3.28409">
        <ele>65.7</ele>
        <time>2020-07-01T09:56:29Z</time>
      </trkpt>
      <trkpt lat="48.98005" lon="3.28403">
        <ele>65.6</ele>
        <time>2020-07-01T09:56:30Z</time>
      </trkpt>
      <trkpt lat="48.98006" lon="3.28397">
        <ele>65.5</ele>
        <time>2020-07-01T09:56:31Z</time>
      </trkpt>
      <trkpt lat="48.98009" lon="3.28392">
        <ele>65.5</ele>
        <time>2020-07-01T09:56:32Z</time>
      </trkpt>
      <trkpt lat="48.98011" lon="3.28387">
        <ele>65.4</ele>
        <time>2020-07-01T09:56:33Z</time>
      </trkpt>
      <trkpt lat="48.98012" lon="3.28382">
        <ele>65.4</ele>
        <time>2020-07-01T09:56:34Z</time>
      </trkpt>
      <trkpt lat="48.98014" lon="3.28377">
        <ele>65.3</ele>
        <time>2020-07-01T09:56:35Z</time>
      </trkpt>
      <trkpt lat="48.98015" lon="3.28373">
        <ele>65.3</ele>
        <time>2020-07-01T09:56:36Z</time>
      </trkpt>
      <trkpt lat="48.98016" lon="3.28368">
        <ele>65.2</ele>
        <time>2020-07-01T09:56:37Z</time>
      </trkpt>
      <trkpt lat="48.98017" lon="3.28363">
        <ele>65.2</ele>
        <time>2020-07-01T09:56:38Z</time>
      </trkpt>
      <trkpt lat="48.98018" lon="3.28357">
        <ele>65.1</ele>
        <time>2020-07-01T09:56:39Z</time>
      </trkpt>
      <trkpt lat="48.98018" lon="3.2835">
        <ele>65.1</ele>
        <time>2020-07-01T09:56:40Z</time>
      </trkpt>
      <trkpt lat="48.9802" lon="3.28344">
        <ele>65</ele>
        <time>2020-07-01T09:56:41Z</time>
      </trkpt>
      <trkpt lat="48.98021" lon="3.28336">
        <ele>64.9</ele>
        <time>2020-07-01T09:56:42Z</time>
      </trkpt>
      <trkpt lat="48.98022" lon="3.28329">
        <ele>64.9</ele>
        <time>2020-07-01T09:56:43Z</time>
      </trkpt>
      <trkpt lat="48.98024" lon="3.28322">
        <ele>64.8</ele>
        <time>2020-07-01T09:56:44Z</time>
      </trkpt>
      <trkpt lat="48.98025" lon="3.28314">
        <ele>64.8</ele>
        <time>2020-07-01T09:56:45Z</time>
      </trkpt>
      <trkpt lat="48.98026" lon="3.28307">
        <ele>64.7</ele>
        <time>2020-07-01T09:56:46Z</time>
      </trkpt>
      <trkpt lat="48.98027" lon="3.283">
        <ele>64.7</ele>
        <time>2020-07-01T09:56:47Z</time>
      </trkpt>
      <trkpt lat="48.98028" lon="3.28293">
        <ele>64.7</ele>
        <time>2020-07-01T09:56:48Z</time>
      </trkpt>
      <trkpt lat="48.9803" lon="3.28285">
        <ele>64.7</ele>
        <time>2020-07-01T09:56:49Z</time>
      </trkpt>
      <trkpt lat="48.98032" lon="3.28278">
        <ele>64.7</ele>
        <time>2020-07-01T09:56:50Z</time>
      </trkpt>
      <trkpt lat="48.98033" lon="3.28271">
        <ele>64.6</ele>
        <time>2020-07-01T09:56:51Z</time>
      </trkpt>
      <trkpt lat="48.98034" lon="3.28264">
        <ele>64.6</ele>
        <time>2020-07-01T09:56:52Z</time>
      </trkpt>
      <trkpt lat="48.98035" lon="3.28258">
        <ele>64.6</ele>
        <time>2020-07-01T09:56:53Z</time>
      </trkpt>
      <trkpt lat="48.98035" lon="3.28252">
        <ele>64.6</ele>
        <time>2020-07-01T09:56:54Z</time>
      </trkpt>
      <trkpt lat="48.98037" lon="3.28246">
        <ele>64.6</ele>
        <time>2020-07-01T09:56:55Z</time>
      </trkpt>
      <trkpt lat="48.98038" lon="3.2824">
        <ele>64.6</ele>
        <time>2020-07-01T09:56:56Z</time>
      </trkpt>
      <trkpt lat="48.98039" lon="3.28233">
        <ele>64.7</ele>
        <time>2020-07-01T09:56:57Z</time>
      </trkpt>
      <trkpt lat="48.98041" lon="3.28227">
        <ele>64.7</ele>
        <time>2020-07-01T09:56:58Z</time>
      </trkpt>
      <trkpt lat="48.98042" lon="3.28222">
        <ele>64.7</ele>
        <time>2020-07-01T09:56:59Z</time>
      </trkpt>
      <trkpt lat="48.98042" lon="3.28215">
        <ele>64.8</ele>
        <time>2020-07-01T09:57:00Z</time>
      </trkpt>
      <trkpt lat="48.98043" lon="3.28208">
        <ele>64.8</ele>
        <time>2020-07-01T09:57:01Z</time>
      </trkpt>
      <trkpt lat="48.98044" lon="3.28201">
        <ele>64.8</ele>
        <time>2020-07-01T09:57:02Z</time>
      </trkpt>
      <trkpt lat="48.98045" lon="3.28194">
        <ele>64.8</ele>
        <time>2020-07-01T09:57:03Z</time>
      </trkpt>
      <trkpt lat="48.98046" lon="3.28187">
        <ele>64.9</ele>
        <time>2020-07-01T09:57:04Z</time>
      </trkpt>
      <trkpt lat="48.98047" lon="3.2818">
        <ele>64.9</ele>
        <time>2020-07-01T09:57:05Z</time>
      </trkpt>
      <trkpt lat="48.98048" lon="3.28173">
        <ele>64.8</ele>
        <time>2020-07-01T09:57:06Z</time>
      </trkpt>
      <trkpt lat="48.98048" lon="3.28166">
        <ele>64.8</ele>
        <time>2020-07-01T09:57:07Z</time>
      </trkpt>
      <trkpt lat="48.9805" lon="3.2816">
        <ele>64.8</ele>
        <time>2020-07-01T09:57:08Z</time>
      </trkpt>
      <trkpt lat="48.9805" lon="3.28153">
        <ele>64.8</ele>
        <time>2020-07-01T09:57:09Z</time>
      </trkpt>
      <trkpt lat="48.98051" lon="3.28146">
        <ele>64.8</ele>
        <time>2020-07-01T09:57:10Z</time>
      </trkpt>
      <trkpt lat="48.98051" lon="3.28139">
        <ele>64.8</ele>
        <time>2020-07-01T09:57:11Z</time>
      </trkpt>
      <trkpt lat="48.98052" lon="3.28132">
        <ele>64.7</ele>
        <time>2020-07-01T09:57:12Z</time>
      </trkpt>
      <trkpt lat="48.98052" lon="3.28124">
        <ele>64.7</ele>
        <time>2020-07-01T09:57:13Z</time>
      </trkpt>
      <trkpt lat="48.98054" lon="3.28117">
        <ele>64.7</ele>
        <time>2020-07-01T09:57:14Z</time>
      </trkpt>
      <trkpt lat="48.98054" lon="3.28111">
        <ele>64.6</ele>
        <time>2020-07-01T09:57:15Z</time>
      </trkpt>
      <trkpt lat="48.98055" lon="3.28104">
        <ele>64.6</ele>
        <time>2020-07-01T09:57:16Z</time>
      </trkpt>
      <trkpt lat="48.98056" lon="3.28097">
        <ele>64.6</ele>
        <time>2020-07-01T09:57:17Z</time>
      </trkpt>
      <trkpt lat="48.98057" lon="3.28089">
        <ele>64.5</ele>
        <time>2020-07-01T09:57:18Z</time>
      </trkpt>
      <trkpt lat="48.98058" lon="3.28082">
        <ele>64.4</ele>
        <time>2020-07-01T09:57:19Z</time>
      </trkpt>
      <trkpt lat="48.98059" lon="3.28074">
        <ele>64.3</ele>
        <time>2020-07-01T09:57:20Z</time>
      </trkpt>
      <trkpt lat="48.98059" lon="3.28067">
        <ele>64.2</ele>
        <time>2020-07-01T09:57:21Z</time>
      </trkpt>
      <trkpt lat="48.98059" lon="3.2806">
        <ele>64.1</ele>
        <time>2020-07-01T09:57:22Z</time>
      </trkpt>
      <trkpt lat="48.9806" lon="3.28052">
        <ele>64</ele>
        <time>2020-07-01T09:57:23Z</time>
      </trkpt>
      <trkpt lat="48.98061" lon="3.28044">
        <ele>64</ele>
        <time>2020-07-01T09:57:24Z</time>
      </trkpt>
      <trkpt lat="48.98063" lon="3.28036">
        <ele>63.9</ele>
        <time>2020-07-01T09:57:25Z</time>
      </trkpt>
      <trkpt lat="48.98064" lon="3.28027">
        <ele>63.9</ele>
        <time>2020-07-01T09:57:26Z</time>
      </trkpt>
      <trkpt lat="48.98065" lon="3.28019">
        <ele>63.9</ele>
        <time>2020-07-01T09:57:27Z</time>
      </trkpt>
      <trkpt lat="48.98066" lon="3.28011">
        <ele>63.9</ele>
        <time>2020-07-01T09:57:28Z</time>
      </trkpt>
      <trkpt lat="48.98066" lon="3.28003">
        <ele>63.9</ele>
        <time>2020-07-01T09:57:29Z</time>
      </trkpt>
      <trkpt lat="48.98067" lon="3.27995">
        <ele>63.9</ele>
        <time>2020-07-01T09:57:30Z</time>
      </trkpt>
      <trkpt lat="48.98068" lon="3.27988">
        <ele>63.9</ele>
        <time>2020-07-01T09:57:31Z</time>
      </trkpt>
      <trkpt lat="48.98069" lon="3.27981">
        <ele>63.9</ele>
        <time>2020-07-01T09:57:32Z</time>
      </trkpt>
      <trkpt lat="48.98069" lon="3.27974">
        <ele>63.9</ele>
        <time>2020-07-01T09:57:33Z</time>
      </trkpt>
      <trkpt lat="48.9807" lon="3.27967">
        <ele>63.9</ele>
        <time>2020-07-01T09:57:34Z</time>
      </trkpt>
      <trkpt lat="48.9807" lon="3.27961">
        <ele>63.9</ele>
        <time>2020-07-01T09:57:35Z</time>
      </trkpt>
      <trkpt lat="48.98071" lon="3.27955">
        <ele>63.9</ele>
        <time>2020-07-01T09:57:36Z</time>
      </trkpt>
      <trkpt lat="48.98071" lon="3.27949">
        <ele>63.9</ele>
        <time>2020-07-01T09:57:37Z</time>
      </trkpt>
      <trkpt lat="48.98071" lon="3.27944">
        <ele>63.9</ele>
        <time>2020-07-01T09:57:38Z</time>
      </trkpt>
      <trkpt lat="48.98073" lon="3.27938">
        <ele>63.9</ele>
        <time>2020-07-01T09:57:39Z</time>
      </trkpt>
      <trkpt lat="48.98073" lon="3.27934">
        <ele>63.9</ele>
        <time>2020-07-01T09:57:40Z</time>
      </trkpt>
      <trkpt lat="48.98074" lon="3.27929">
        <ele>63.9</ele>
        <time>2020-07-01T09:57:41Z</time>
      </trkpt>
      <trkpt lat="48.98074" lon="3.27927">
        <ele>63.9</ele>
        <time>2020-07-01T09:57:42Z</time>
      </trkpt>
      <trkpt lat="48.98076" lon="3.27924">
        <ele>63.9</ele>
        <time>2020-07-01T09:57:43Z</time>
      </trkpt>
      <trkpt lat="48.98076" lon="3.27922">
        <ele>63.9</ele>
        <time>2020-07-01T09:57:44Z</time>
      </trkpt>
      <trkpt lat="48.9808" lon="3.27919">
        <ele>64.2</ele>
        <time>2020-07-01T09:57:45Z</time>
      </trkpt>
      <trkpt lat="48.98081" lon="3.27918">
        <ele>64.2</ele>
        <time>2020-07-01T09:57:46Z</time>
      </trkpt>
      <trkpt lat="48.98084" lon="3.27915">
        <ele>64.1</ele>
        <time>2020-07-01T09:57:47Z</time>
      </trkpt>
      <trkpt lat="48.98086" lon="3.27911">
        <ele>64</ele>
        <time>2020-07-01T09:57:48Z</time>
      </trkpt>
      <trkpt lat="48.98087" lon="3.27907">
        <ele>63.7</ele>
        <time>2020-07-01T09:57:49Z</time>
      </trkpt>
      <trkpt lat="48.98089" lon="3.27902">
        <ele>63.8</ele>
        <time>2020-07-01T09:57:50Z</time>
      </trkpt>
      <trkpt lat="48.9809" lon="3.27896">
        <ele>63.8</ele>
        <time>2020-07-01T09:57:51Z</time>
      </trkpt>
      <trkpt lat="48.9809" lon="3.27891">
        <ele>63.9</ele>
        <time>2020-07-01T09:57:52Z</time>
      </trkpt>
      <trkpt lat="48.98089" lon="3.27885">
        <ele>64</ele>
        <time>2020-07-01T09:57:53Z</time>
      </trkpt>
      <trkpt lat="48.98088" lon="3.2788">
        <ele>64</ele>
        <time>2020-07-01T09:57:54Z</time>
      </trkpt>
      <trkpt lat="48.98085" lon="3.27875">
        <ele>64</ele>
        <time>2020-07-01T09:57:55Z</time>
      </trkpt>
      <trkpt lat="48.98083" lon="3.27871">
        <ele>64</ele>
        <time>2020-07-01T09:57:56Z</time>
      </trkpt>
      <trkpt lat="48.98082" lon="3.27866">
        <ele>64.1</ele>
        <time>2020-07-01T09:57:57Z</time>
      </trkpt>
      <trkpt lat="48.9808" lon="3.2786">
        <ele>64.1</ele>
        <time>2020-07-01T09:57:58Z</time>
      </trkpt>
      <trkpt lat="48.98081" lon="3.27854">
        <ele>64.1</ele>
        <time>2020-07-01T09:57:59Z</time>
      </trkpt>
      <trkpt lat="48.98082" lon="3.27848">
        <ele>64.2</ele>
        <time>2020-07-01T09:58:00Z</time>
      </trkpt>
      <trkpt lat="48.98084" lon="3.27842">
        <ele>64.2</ele>
        <time>2020-07-01T09:58:01Z</time>
      </trkpt>
      <trkpt lat="48.98085" lon="3.27836">
        <ele>64.2</ele>
        <time>2020-07-01T09:58:02Z</time>
      </trkpt>
      <trkpt lat="48.98086" lon="3.2783">
        <ele>64.3</ele>
        <time>2020-07-01T09:58:03Z</time>
      </trkpt>
      <trkpt lat="48.98087" lon="3.27824">
        <ele>64.3</ele>
        <time>2020-07-01T09:58:04Z</time>
      </trkpt>
      <trkpt lat="48.98088" lon="3.27819">
        <ele>64.4</ele>
        <time>2020-07-01T09:58:05Z</time>
      </trkpt>
      <trkpt lat="48.9809" lon="3.27815">
        <ele>64.4</ele>
        <time>2020-07-01T09:58:06Z</time>
      </trkpt>
      <trkpt lat="48.9809" lon="3.2781">
        <ele>64.5</ele>
        <time>2020-07-01T09:58:07Z</time>
      </trkpt>
      <trkpt lat="48.98091" lon="3.27804">
        <ele>64.6</ele>
        <time>2020-07-01T09:58:08Z</time>
      </trkpt>
      <trkpt lat="48.98091" lon="3.27798">
        <ele>64.7</ele>
        <time>2020-07-01T09:58:09Z</time>
      </trkpt>
      <trkpt lat="48.98092" lon="3.27792">
        <ele>64.8</ele>
        <time>2020-07-01T09:58:10Z</time>
      </trkpt>
      <trkpt lat="48.98093" lon="3.27786">
        <ele>64.9</ele>
        <time>2020-07-01T09:58:11Z</time>
      </trkpt>
      <trkpt lat="48.98093" lon="3.27778">
        <ele>65</ele>
        <time>2020-07-01T09:58:12Z</time>
      </trkpt>
      <trkpt lat="48.98095" lon="3.27772">
        <ele>65.1</ele>
        <time>2020-07-01T09:58:13Z</time>
      </trkpt>
      <trkpt lat="48.98096" lon="3.27765">
        <ele>65.3</ele>
        <time>2020-07-01T09:58:14Z</time>
      </trkpt>
      <trkpt lat="48.98097" lon="3.27759">
        <ele>65.4</ele>
        <time>2020-07-01T09:58:15Z</time>
      </trkpt>
      <trkpt lat="48.98098" lon="3.27753">
        <ele>65.5</ele>
        <time>2020-07-01T09:58:16Z</time>
      </trkpt>
      <trkpt lat="48.981" lon="3.27747">
        <ele>65.6</ele>
        <time>2020-07-01T09:58:17Z</time>
      </trkpt>
      <trkpt lat="48.98101" lon="3.27741">
        <ele>65.7</ele>
        <time>2020-07-01T09:58:18Z</time>
      </trkpt>
      <trkpt lat="48.98102" lon="3.27735">
        <ele>65.8</ele>
        <time>2020-07-01T09:58:19Z</time>
      </trkpt>
      <trkpt lat="48.98103" lon="3.27729">
        <ele>65.9</ele>
        <time>2020-07-01T09:58:20Z</time>
      </trkpt>
      <trkpt lat="48.98103" lon="3.27723">
        <ele>66.1</ele>
        <time>2020-07-01T09:58:21Z</time>
      </trkpt>
      <trkpt lat="48.98104" lon="3.27717">
        <ele>66.3</ele>
        <time>2020-07-01T09:58:22Z</time>
      </trkpt>
      <trkpt lat="48.98105" lon="3.27711">
        <ele>66.5</ele>
        <time>2020-07-01T09:58:23Z</time>
      </trkpt>
      <trkpt lat="48.98106" lon="3.27704">
        <ele>66.7</ele>
        <time>2020-07-01T09:58:24Z</time>
      </trkpt>
      <trkpt lat="48.98106" lon="3.27699">
        <ele>66.8</ele>
        <time>2020-07-01T09:58:25Z</time>
      </trkpt>
      <trkpt lat="48.98107" lon="3.27693">
        <ele>67</ele>
        <time>2020-07-01T09:58:26Z</time>
      </trkpt>
      <trkpt lat="48.98107" lon="3.27686">
        <ele>67.1</ele>
        <time>2020-07-01T09:58:27Z</time>
      </trkpt>
      <trkpt lat="48.98108" lon="3.2768">
        <ele>67.3</ele>
        <time>2020-07-01T09:58:28Z</time>
      </trkpt>
      <trkpt lat="48.98109" lon="3.27674">
        <ele>67.4</ele>
        <time>2020-07-01T09:58:29Z</time>
      </trkpt>
      <trkpt lat="48.98109" lon="3.27669">
        <ele>67.5</ele>
        <time>2020-07-01T09:58:30Z</time>
      </trkpt>
      <trkpt lat="48.98109" lon="3.27664">
        <ele>67.6</ele>
        <time>2020-07-01T09:58:31Z</time>
      </trkpt>
      <trkpt lat="48.98109" lon="3.27658">
        <ele>67.8</ele>
        <time>2020-07-01T09:58:32Z</time>
      </trkpt>
      <trkpt lat="48.98109" lon="3.27653">
        <ele>67.9</ele>
        <time>2020-07-01T09:58:33Z</time>
      </trkpt>
      <trkpt lat="48.9811" lon="3.27647">
        <ele>68</ele>
        <time>2020-07-01T09:58:34Z</time>
      </trkpt>
      <trkpt lat="48.9811" lon="3.27642">
        <ele>68.2</ele>
        <time>2020-07-01T09:58:35Z</time>
      </trkpt>
      <trkpt lat="48.9811" lon="3.27636">
        <ele>68.3</ele>
        <time>2020-07-01T09:58:36Z</time>
      </trkpt>
      <trkpt lat="48.9811" lon="3.2763">
        <ele>68.5</ele>
        <time>2020-07-01T09:58:37Z</time>
      </trkpt>
      <trkpt lat="48.9811" lon="3.27624">
        <ele>68.6</ele>
        <time>2020-07-01T09:58:38Z</time>
      </trkpt>
      <trkpt lat="48.9811" lon="3.27619">
        <ele>68.7</ele>
        <time>2020-07-01T09:58:39Z</time>
      </trkpt>
      <trkpt lat="48.98111" lon="3.27614">
        <ele>68.9</ele>
        <time>2020-07-01T09:58:40Z</time>
      </trkpt>
      <trkpt lat="48.9811" lon="3.27608">
        <ele>69</ele>
        <time>2020-07-01T09:58:41Z</time>
      </trkpt>
      <trkpt lat="48.9811" lon="3.27603">
        <ele>69.2</ele>
        <time>2020-07-01T09:58:42Z</time>
      </trkpt>
      <trkpt lat="48.9811" lon="3.27597">
        <ele>69.3</ele>
        <time>2020-07-01T09:58:43Z</time>
      </trkpt>
      <trkpt lat="48.9811" lon="3.27591">
        <ele>69.4</ele>
        <time>2020-07-01T09:58:44Z</time>
      </trkpt>
      <trkpt lat="48.9811" lon="3.27585">
        <ele>69.6</ele>
        <time>2020-07-01T09:58:45Z</time>
      </trkpt>
      <trkpt lat="48.9811" lon="3.27579">
        <ele>69.7</ele>
        <time>2020-07-01T09:58:46Z</time>
      </trkpt>
      <trkpt lat="48.9811" lon="3.27573">
        <ele>69.9</ele>
        <time>2020-07-01T09:58:47Z</time>
      </trkpt>
      <trkpt lat="48.9811" lon="3.27568">
        <ele>70</ele>
        <time>2020-07-01T09:58:48Z</time>
      </trkpt>
      <trkpt lat="48.9811" lon="3.27562">
        <ele>70.1</ele>
        <time>2020-07-01T09:58:49Z</time>
      </trkpt>
      <trkpt lat="48.9811" lon="3.27557">
        <ele>70.2</ele>
        <time>2020-07-01T09:58:50Z</time>
      </trkpt>
      <trkpt lat="48.9811" lon="3.27552">
        <ele>70.4</ele>
        <time>2020-07-01T09:58:51Z</time>
      </trkpt>
      <trkpt lat="48.9811" lon="3.27547">
        <ele>70.5</ele>
        <time>2020-07-01T09:58:52Z</time>
      </trkpt>
      <trkpt lat="48.9811" lon="3.27542">
        <ele>70.6</ele>
        <time>2020-07-01T09:58:53Z</time>
      </trkpt>
      <trkpt lat="48.9811" lon="3.27537">
        <ele>70.8</ele>
        <time>2020-07-01T09:58:54Z</time>
      </trkpt>
      <trkpt lat="48.9811" lon="3.27531">
        <ele>70.9</ele>
        <time>2020-07-01T09:58:55Z</time>
      </trkpt>
      <trkpt lat="48.9811" lon="3.27525">
        <ele>71.1</ele>
        <time>2020-07-01T09:58:56Z</time>
      </trkpt>
      <trkpt lat="48.9811" lon="3.2752">
        <ele>71.2</ele>
        <time>2020-07-01T09:58:57Z</time>
      </trkpt>
      <trkpt lat="48.98109" lon="3.27514">
        <ele>71.3</ele>
        <time>2020-07-01T09:58:58Z</time>
      </trkpt>
      <trkpt lat="48.98109" lon="3.27507">
        <ele>71.5</ele>
        <time>2020-07-01T09:58:59Z</time>
      </trkpt>
      <trkpt lat="48.98109" lon="3.27502">
        <ele>71.6</ele>
        <time>2020-07-01T09:59:00Z</time>
      </trkpt>
      <trkpt lat="48.9811" lon="3.27497">
        <ele>71.7</ele>
        <time>2020-07-01T09:59:01Z</time>
      </trkpt>
      <trkpt lat="48.9811" lon="3.27492">
        <ele>71.8</ele>
        <time>2020-07-01T09:59:02Z</time>
      </trkpt>
      <trkpt lat="48.9811" lon="3.27487">
        <ele>71.9</ele>
        <time>2020-07-01T09:59:03Z</time>
      </trkpt>
      <trkpt lat="48.9811" lon="3.27482">
        <ele>72</ele>
        <time>2020-07-01T09:59:04Z</time>
      </trkpt>
      <trkpt lat="48.9811" lon="3.27477">
        <ele>72.2</ele>
        <time>2020-07-01T09:59:05Z</time>
      </trkpt>
      <trkpt lat="48.9811" lon="3.2747">
        <ele>72.3</ele>
        <time>2020-07-01T09:59:06Z</time>
      </trkpt>
      <trkpt lat="48.98109" lon="3.27465">
        <ele>72.4</ele>
        <time>2020-07-01T09:59:07Z</time>
      </trkpt>
      <trkpt lat="48.98109" lon="3.27459">
        <ele>72.5</ele>
        <time>2020-07-01T09:59:08Z</time>
      </trkpt>
      <trkpt lat="48.98109" lon="3.27453">
        <ele>72.6</ele>
        <time>2020-07-01T09:59:09Z</time>
      </trkpt>
      <trkpt lat="48.98109" lon="3.27447">
        <ele>72.7</ele>
        <time>2020-07-01T09:59:10Z</time>
      </trkpt>
      <trkpt lat="48.98109" lon="3.27442">
        <ele>72.8</ele>
        <time>2020-07-01T09:59:11Z</time>
      </trkpt>
      <trkpt lat="48.98108" lon="3.27437">
        <ele>72.9</ele>
        <time>2020-07-01T09:59:12Z</time>
      </trkpt>
      <trkpt lat="48.98108" lon="3.27432">
        <ele>73</ele>
        <time>2020-07-01T09:59:13Z</time>
      </trkpt>
      <trkpt lat="48.98108" lon="3.27427">
        <ele>73.1</ele>
        <time>2020-07-01T09:59:14Z</time>
      </trkpt>
      <trkpt lat="48.98107" lon="3.27422">
        <ele>73.2</ele>
        <time>2020-07-01T09:59:15Z</time>
      </trkpt>
      <trkpt lat="48.98107" lon="3.27417">
        <ele>73.3</ele>
        <time>2020-07-01T09:59:16Z</time>
      </trkpt>
      <trkpt lat="48.98106" lon="3.27412">
        <ele>73.4</ele>
        <time>2020-07-01T09:59:17Z</time>
      </trkpt>
      <trkpt lat="48.98105" lon="3.27407">
        <ele>73.5</ele>
        <time>2020-07-01T09:59:18Z</time>
      </trkpt>
      <trkpt lat="48.98104" lon="3.27401">
        <ele>73.6</ele>
        <time>2020-07-01T09:59:19Z</time>
      </trkpt>
      <trkpt lat="48.98104" lon="3.27396">
        <ele>73.7</ele>
        <time>2020-07-01T09:59:20Z</time>
      </trkpt>
      <trkpt lat="48.98103" lon="3.27392">
        <ele>73.8</ele>
        <time>2020-07-01T09:59:21Z</time>
      </trkpt>
      <trkpt lat="48.98102" lon="3.27386">
        <ele>73.9</ele>
        <time>2020-07-01T09:59:22Z</time>
      </trkpt>
      <trkpt lat="48.98101" lon="3.27381">
        <ele>74</ele>
        <time>2020-07-01T09:59:23Z</time>
      </trkpt>
      <trkpt lat="48.981" lon="3.27376">
        <ele>74</ele>
        <time>2020-07-01T09:59:24Z</time>
      </trkpt>
      <trkpt lat="48.98099" lon="3.2737">
        <ele>74.1</ele>
        <time>2020-07-01T09:59:25Z</time>
      </trkpt>
      <trkpt lat="48.98098" lon="3.27365">
        <ele>74.1</ele>
        <time>2020-07-01T09:59:26Z</time>
      </trkpt>
      <trkpt lat="48.98096" lon="3.27359">
        <ele>74.2</ele>
        <time>2020-07-01T09:59:27Z</time>
      </trkpt>
      <trkpt lat="48.98096" lon="3.27354">
        <ele>74.3</ele>
        <time>2020-07-01T09:59:28Z</time>
      </trkpt>
      <trkpt lat="48.98096" lon="3.27348">
        <ele>74.3</ele>
        <time>2020-07-01T09:59:29Z</time>
      </trkpt>
      <trkpt lat="48.98096" lon="3.27343">
        <ele>74.4</ele>
        <time>2020-07-01T09:59:30Z</time>
      </trkpt>
      <trkpt lat="48.98095" lon="3.27337">
        <ele>74.4</ele>
        <time>2020-07-01T09:59:31Z</time>
      </trkpt>
      <trkpt lat="48.98094" lon="3.27331">
        <ele>74.5</ele>
        <time>2020-07-01T09:59:32Z</time>
      </trkpt>
      <trkpt lat="48.98094" lon="3.27327">
        <ele>74.5</ele>
        <time>2020-07-01T09:59:33Z</time>
      </trkpt>
      <trkpt lat="48.98093" lon="3.27322">
        <ele>74.6</ele>
        <time>2020-07-01T09:59:34Z</time>
      </trkpt>
      <trkpt lat="48.98093" lon="3.27316">
        <ele>74.7</ele>
        <time>2020-07-01T09:59:35Z</time>
      </trkpt>
      <trkpt lat="48.98092" lon="3.2731">
        <ele>74.9</ele>
        <time>2020-07-01T09:59:36Z</time>
      </trkpt>
      <trkpt lat="48.98091" lon="3.27303">
        <ele>75</ele>
        <time>2020-07-01T09:59:37Z</time>
      </trkpt>
      <trkpt lat="48.98091" lon="3.27297">
        <ele>75.2</ele>
        <time>2020-07-01T09:59:38Z</time>
      </trkpt>
      <trkpt lat="48.98091" lon="3.27291">
        <ele>75.3</ele>
        <time>2020-07-01T09:59:39Z</time>
      </trkpt>
      <trkpt lat="48.98091" lon="3.27285">
        <ele>75.5</ele>
        <time>2020-07-01T09:59:40Z</time>
      </trkpt>
      <trkpt lat="48.98092" lon="3.27279">
        <ele>75.7</ele>
        <time>2020-07-01T09:59:41Z</time>
      </trkpt>
      <trkpt lat="48.98093" lon="3.27273">
        <ele>75.8</ele>
        <time>2020-07-01T09:59:42Z</time>
      </trkpt>
      <trkpt lat="48.98094" lon="3.27266">
        <ele>76</ele>
        <time>2020-07-01T09:59:43Z</time>
      </trkpt>
      <trkpt lat="48.98095" lon="3.2726">
        <ele>76.2</ele>
        <time>2020-07-01T09:59:44Z</time>
      </trkpt>
      <trkpt lat="48.98096" lon="3.27253">
        <ele>76.4</ele>
        <time>2020-07-01T09:59:45Z</time>
      </trkpt>
      <trkpt lat="48.98097" lon="3.27248">
        <ele>76.6</ele>
        <time>2020-07-01T09:59:46Z</time>
      </trkpt>
      <trkpt lat="48.98099" lon="3.27243">
        <ele>76.7</ele>
        <time>2020-07-01T09:59:47Z</time>
      </trkpt>
      <trkpt lat="48.981" lon="3.27237">
        <ele>76.9</ele>
        <time>2020-07-01T09:59:48Z</time>
      </trkpt>
      <trkpt lat="48.98102" lon="3.27231">
        <ele>77.1</ele>
        <time>2020-07-01T09:59:49Z</time>
      </trkpt>
      <trkpt lat="48.98104" lon="3.27226">
        <ele>77.2</ele>
        <time>2020-07-01T09:59:50Z</time>
      </trkpt>
      <trkpt lat="48.98106" lon="3.27222">
        <ele>77.4</ele>
        <time>2020-07-01T09:59:51Z</time>
      </trkpt>
      <trkpt lat="48.98108" lon="3.27218">
        <ele>77.5</ele>
        <time>2020-07-01T09:59:52Z</time>
      </trkpt>
      <trkpt lat="48.9811" lon="3.27214">
        <ele>77.7</ele>
        <time>2020-07-01T09:59:53Z</time>
      </trkpt>
      <trkpt lat="48.98112" lon="3.2721">
        <ele>77.8</ele>
        <time>2020-07-01T09:59:54Z</time>
      </trkpt>
      <trkpt lat="48.98114" lon="3.27205">
        <ele>77.9</ele>
        <time>2020-07-01T09:59:55Z</time>
      </trkpt>
      <trkpt lat="48.98116" lon="3.27202">
        <ele>78.1</ele>
        <time>2020-07-01T09:59:56Z</time>
      </trkpt>
      <trkpt lat="48.98118" lon="3.27198">
        <ele>78.2</ele>
        <time>2020-07-01T09:59:57Z</time>
      </trkpt>
      <trkpt lat="48.98121" lon="3.27193">
        <ele>78.4</ele>
        <time>2020-07-01T09:59:58Z</time>
      </trkpt>
      <trkpt lat="48.98124" lon="3.2719">
        <ele>78.5</ele>
        <time>2020-07-01T09:59:59Z</time>
      </trkpt>
      <trkpt lat="48.98127" lon="3.27186">
        <ele>78.6</ele>
        <time>2020-07-01T10:00:00Z</time>
      </trkpt>
      <trkpt lat="48.98129" lon="3.27182">
        <ele>78.8</ele>
        <time>2020-07-01T10:00:01Z</time>
      </trkpt>
      <trkpt lat="48.98132" lon="3.27178">
        <ele>78.9</ele>
        <time>2020-07-01T10:00:02Z</time>
      </trkpt>
      <trkpt lat="48.98136" lon="3.27174">
        <ele>79.1</ele>
        <time>2020-07-01T10:00:03Z</time>
      </trkpt>
      <trkpt lat="48.98139" lon="3.27169">
        <ele>79.3</ele>
        <time>2020-07-01T10:00:04Z</time>
      </trkpt>
      <trkpt lat="48.98143" lon="3.27165">
        <ele>79.4</ele>
        <time>2020-07-01T10:00:05Z</time>
      </trkpt>
      <trkpt lat="48.98146" lon="3.27162">
        <ele>79.6</ele>
        <time>2020-07-01T10:00:06Z</time>
      </trkpt>
      <trkpt lat="48.98149" lon="3.27159">
        <ele>79.7</ele>
        <time>2020-07-01T10:00:07Z</time>
      </trkpt>
      <trkpt lat="48.98153" lon="3.27155">
        <ele>79.9</ele>
        <time>2020-07-01T10:00:08Z</time>
      </trkpt>
      <trkpt lat="48.98157" lon="3.27152">
        <ele>80</ele>
        <time>2020-07-01T10:00:09Z</time>
      </trkpt>
      <trkpt lat="48.98161" lon="3.27149">
        <ele>80.2</ele>
        <time>2020-07-01T10:00:10Z</time>
      </trkpt>
      <trkpt lat="48.98164" lon="3.27147">
        <ele>80.3</ele>
        <time>2020-07-01T10:00:11Z</time>
      </trkpt>
      <trkpt lat="48.98168" lon="3.27143">
        <ele>80.5</ele>
        <time>2020-07-01T10:00:12Z</time>
      </trkpt>
      <trkpt lat="48.98171" lon="3.27141">
        <ele>80.6</ele>
        <time>2020-07-01T10:00:13Z</time>
      </trkpt>
      <trkpt lat="48.98175" lon="3.27139">
        <ele>80.8</ele>
        <time>2020-07-01T10:00:14Z</time>
      </trkpt>
      <trkpt lat="48.98179" lon="3.27134">
        <ele>81</ele>
        <time>2020-07-01T10:00:15Z</time>
      </trkpt>
      <trkpt lat="48.98183" lon="3.27131">
        <ele>81.2</ele>
        <time>2020-07-01T10:00:16Z</time>
      </trkpt>
      <trkpt lat="48.98187" lon="3.27127">
        <ele>81.4</ele>
        <time>2020-07-01T10:00:17Z</time>
      </trkpt>
      <trkpt lat="48.98191" lon="3.27123">
        <ele>81.6</ele>
        <time>2020-07-01T10:00:18Z</time>
      </trkpt>
      <trkpt lat="48.98196" lon="3.27121">
        <ele>81.8</ele>
        <time>2020-07-01T10:00:19Z</time>
      </trkpt>
      <trkpt lat="48.982" lon="3.27118">
        <ele>82</ele>
        <time>2020-07-01T10:00:20Z</time>
      </trkpt>
      <trkpt lat="48.98204" lon="3.27116">
        <ele>82.2</ele>
        <time>2020-07-01T10:00:21Z</time>
      </trkpt>
      <trkpt lat="48.98208" lon="3.27114">
        <ele>82.4</ele>
        <time>2020-07-01T10:00:22Z</time>
      </trkpt>
      <trkpt lat="48.98212" lon="3.27112">
        <ele>82.6</ele>
        <time>2020-07-01T10:00:23Z</time>
      </trkpt>
      <trkpt lat="48.98216" lon="3.2711">
        <ele>82.8</ele>
        <time>2020-07-01T10:00:24Z</time>
      </trkpt>
      <trkpt lat="48.98219" lon="3.27108">
        <ele>82.9</ele>
        <time>2020-07-01T10:00:25Z</time>
      </trkpt>
      <trkpt lat="48.98222" lon="3.27107">
        <ele>83.1</ele>
        <time>2020-07-01T10:00:26Z</time>
      </trkpt>
      <trkpt lat="48.98225" lon="3.27106">
        <ele>83.2</ele>
        <time>2020-07-01T10:00:27Z</time>
      </trkpt>
      <trkpt lat="48.98228" lon="3.27104">
        <ele>83.4</ele>
        <time>2020-07-01T10:00:28Z</time>
      </trkpt>
      <trkpt lat="48.98232" lon="3.27102">
        <ele>83.6</ele>
        <time>2020-07-01T10:00:29Z</time>
      </trkpt>
      <trkpt lat="48.98236" lon="3.27099">
        <ele>83.8</ele>
        <time>2020-07-01T10:00:30Z</time>
      </trkpt>
      <trkpt lat="48.9824" lon="3.27097">
        <ele>84</ele>
        <time>2020-07-01T10:00:31Z</time>
      </trkpt>
      <trkpt lat="48.98244" lon="3.27096">
        <ele>84.2</ele>
        <time>2020-07-01T10:00:32Z</time>
      </trkpt>
      <trkpt lat="48.98246" lon="3.2709">
        <ele>84.4</ele>
        <time>2020-07-01T10:00:33Z</time>
      </trkpt>
      <trkpt lat="48.98249" lon="3.27087">
        <ele>84.5</ele>
        <time>2020-07-01T10:00:34Z</time>
      </trkpt>
      <trkpt lat="48.98253" lon="3.27086">
        <ele>84.7</ele>
        <time>2020-07-01T10:00:35Z</time>
      </trkpt>
      <trkpt lat="48.98257" lon="3.27085">
        <ele>84.9</ele>
        <time>2020-07-01T10:00:36Z</time>
      </trkpt>
      <trkpt lat="48.98261" lon="3.27084">
        <ele>85.1</ele>
        <time>2020-07-01T10:00:37Z</time>
      </trkpt>
      <trkpt lat="48.98265" lon="3.27082">
        <ele>85.3</ele>
        <time>2020-07-01T10:00:38Z</time>
      </trkpt>
      <trkpt lat="48.98269" lon="3.27081">
        <ele>85.5</ele>
        <time>2020-07-01T10:00:39Z</time>
      </trkpt>
      <trkpt lat="48.98272" lon="3.27078">
        <ele>85.6</ele>
        <time>2020-07-01T10:00:40Z</time>
      </trkpt>
      <trkpt lat="48.98276" lon="3.27076">
        <ele>85.8</ele>
        <time>2020-07-01T10:00:41Z</time>
      </trkpt>
      <trkpt lat="48.98279" lon="3.27074">
        <ele>85.9</ele>
        <time>2020-07-01T10:00:42Z</time>
      </trkpt>
      <trkpt lat="48.98283" lon="3.27072">
        <ele>86.1</ele>
        <time>2020-07-01T10:00:43Z</time>
      </trkpt>
      <trkpt lat="48.98287" lon="3.27069">
        <ele>86.2</ele>
        <time>2020-07-01T10:00:44Z</time>
      </trkpt>
      <trkpt lat="48.9829" lon="3.27067">
        <ele>86.4</ele>
        <time>2020-07-01T10:00:45Z</time>
      </trkpt>
      <trkpt lat="48.98294" lon="3.27065">
        <ele>86.6</ele>
        <time>2020-07-01T10:00:46Z</time>
      </trkpt>
      <trkpt lat="48.98298" lon="3.27062">
        <ele>86.7</ele>
        <time>2020-07-01T10:00:47Z</time>
      </trkpt>
      <trkpt lat="48.98302" lon="3.27061">
        <ele>86.9</ele>
        <time>2020-07-01T10:00:48Z</time>
      </trkpt>
      <trkpt lat="48.98305" lon="3.2706">
        <ele>87</ele>
        <time>2020-07-01T10:00:49Z</time>
      </trkpt>
      <trkpt lat="48.98309" lon="3.27058">
        <ele>87.1</ele>
        <time>2020-07-01T10:00:50Z</time>
      </trkpt>
      <trkpt lat="48.98313" lon="3.27057">
        <ele>87.3</ele>
        <time>2020-07-01T10:00:51Z</time>
      </trkpt>
      <trkpt lat="48.98317" lon="3.27055">
        <ele>87.4</ele>
        <time>2020-07-01T10:00:52Z</time>
      </trkpt>
      <trkpt lat="48.98321" lon="3.27053">
        <ele>87.5</ele>
        <time>2020-07-01T10:00:53Z</time>
      </trkpt>
      <trkpt lat="48.98324" lon="3.2705">
        <ele>87.6</ele>
        <time>2020-07-01T10:00:54Z</time>
      </trkpt>
      <trkpt lat="48.98329" lon="3.27048">
        <ele>87.7</ele>
        <time>2020-07-01T10:00:55Z</time>
      </trkpt>
      <trkpt lat="48.98333" lon="3.27046">
        <ele>87.8</ele>
        <time>2020-07-01T10:00:56Z</time>
      </trkpt>
      <trkpt lat="48.98337" lon="3.27044">
        <ele>87.9</ele>
        <time>2020-07-01T10:00:57Z</time>
      </trkpt>
      <trkpt lat="48.98341" lon="3.27041">
        <ele>88</ele>
        <time>2020-07-01T10:00:58Z</time>
      </trkpt>
      <trkpt lat="48.98346" lon="3.27038">
        <ele>88.1</ele>
        <time>2020-07-01T10:00:59Z</time>
      </trkpt>
      <trkpt lat="48.9835" lon="3.27036">
        <ele>88.2</ele>
        <time>2020-07-01T10:01:00Z</time>
      </trkpt>
      <trkpt lat="48.98355" lon="3.27033">
        <ele>88.3</ele>
        <time>2020-07-01T10:01:01Z</time>
      </trkpt>
      <trkpt lat="48.98359" lon="3.27031">
        <ele>88.4</ele>
        <time>2020-07-01T10:01:02Z</time>
      </trkpt>
      <trkpt lat="48.98364" lon="3.27029">
        <ele>88.4</ele>
        <time>2020-07-01T10:01:03Z</time>
      </trkpt>
      <trkpt lat="48.98368" lon="3.27026">
        <ele>88.5</ele>
        <time>2020-07-01T10:01:04Z</time>
      </trkpt>
      <trkpt lat="48.98372" lon="3.27024">
        <ele>88.5</ele>
        <time>2020-07-01T10:01:05Z</time>
      </trkpt>
      <trkpt lat="48.98377" lon="3.27021">
        <ele>88.6</ele>
        <time>2020-07-01T10:01:06Z</time>
      </trkpt>
      <trkpt lat="48.98382" lon="3.27019">
        <ele>88.7</ele>
        <time>2020-07-01T10:01:07Z</time>
      </trkpt>
      <trkpt lat="48.98387" lon="3.27016">
        <ele>88.7</ele>
        <time>2020-07-01T10:01:08Z</time>
      </trkpt>
      <trkpt lat="48.98392" lon="3.27013">
        <ele>88.8</ele>
        <time>2020-07-01T10:01:09Z</time>
      </trkpt>
      <trkpt lat="48.98397" lon="3.2701">
        <ele>88.9</ele>
        <time>2020-07-01T10:01:10Z</time>
      </trkpt>
      <trkpt lat="48.98402" lon="3.27007">
        <ele>88.9</ele>
        <time>2020-07-01T10:01:11Z</time>
      </trkpt>
      <trkpt lat="48.98407" lon="3.27004">
        <ele>89</ele>
        <time>2020-07-01T10:01:12Z</time>
      </trkpt>
      <trkpt lat="48.98412" lon="3.27001">
        <ele>89</ele>
        <time>2020-07-01T10:01:13Z</time>
      </trkpt>
      <trkpt lat="48.98417" lon="3.26998">
        <ele>89.1</ele>
        <time>2020-07-01T10:01:14Z</time>
      </trkpt>
      <trkpt lat="48.98422" lon="3.26995">
        <ele>89.1</ele>
        <time>2020-07-01T10:01:15Z</time>
      </trkpt>
      <trkpt lat="48.98427" lon="3.26992">
        <ele>89.2</ele>
        <time>2020-07-01T10:01:16Z</time>
      </trkpt>
      <trkpt lat="48.98432" lon="3.26989">
        <ele>89.2</ele>
        <time>2020-07-01T10:01:17Z</time>
      </trkpt>
      <trkpt lat="48.98437" lon="3.26986">
        <ele>89.2</ele>
        <time>2020-07-01T10:01:18Z</time>
      </trkpt>
      <trkpt lat="48.98442" lon="3.26983">
        <ele>89.3</ele>
        <time>2020-07-01T10:01:19Z</time>
      </trkpt>
      <trkpt lat="48.98446" lon="3.26979">
        <ele>89.3</ele>
        <time>2020-07-01T10:01:20Z</time>
      </trkpt>
      <trkpt lat="48.98451" lon="3.26976">
        <ele>89.3</ele>
        <time>2020-07-01T10:01:21Z</time>
      </trkpt>
      <trkpt lat="48.98455" lon="3.26973">
        <ele>89.3</ele>
        <time>2020-07-01T10:01:22Z</time>
      </trkpt>
      <trkpt lat="48.9846" lon="3.2697">
        <ele>89.3</ele>
        <time>2020-07-01T10:01:23Z</time>
      </trkpt>
      <trkpt lat="48.98465" lon="3.26966">
        <ele>89.3</ele>
        <time>2020-07-01T10:01:24Z</time>
      </trkpt>
      <trkpt lat="48.9847" lon="3.26963">
        <ele>89.4</ele>
        <time>2020-07-01T10:01:25Z</time>
      </trkpt>
      <trkpt lat="48.98474" lon="3.2696">
        <ele>89.4</ele>
        <time>2020-07-01T10:01:26Z</time>
      </trkpt>
      <trkpt lat="48.98479" lon="3.26956">
        <ele>89.4</ele>
        <time>2020-07-01T10:01:27Z</time>
      </trkpt>
      <trkpt lat="48.98483" lon="3.26954">
        <ele>89.4</ele>
        <time>2020-07-01T10:01:28Z</time>
      </trkpt>
      <trkpt lat="48.98487" lon="3.26951">
        <ele>89.4</ele>
        <time>2020-07-01T10:01:29Z</time>
      </trkpt>
      <trkpt lat="48.98492" lon="3.26948">
        <ele>89.3</ele>
        <time>2020-07-01T10:01:30Z</time>
      </trkpt>
      <trkpt lat="48.98497" lon="3.26945">
        <ele>89.3</ele>
        <time>2020-07-01T10:01:31Z</time>
      </trkpt>
      <trkpt lat="48.98502" lon="3.26941">
        <ele>89.3</ele>
        <time>2020-07-01T10:01:32Z</time>
      </trkpt>
      <trkpt lat="48.98507" lon="3.26937">
        <ele>89.3</ele>
        <time>2020-07-01T10:01:33Z</time>
      </trkpt>
      <trkpt lat="48.98511" lon="3.26934">
        <ele>89.3</ele>
        <time>2020-07-01T10:01:34Z</time>
      </trkpt>
      <trkpt lat="48.98516" lon="3.2693">
        <ele>89.3</ele>
        <time>2020-07-01T10:01:35Z</time>
      </trkpt>
      <trkpt lat="48.98521" lon="3.26926">
        <ele>89.2</ele>
        <time>2020-07-01T10:01:36Z</time>
      </trkpt>
      <trkpt lat="48.98526" lon="3.26922">
        <ele>89.2</ele>
        <time>2020-07-01T10:01:37Z</time>
      </trkpt>
      <trkpt lat="48.9853" lon="3.26918">
        <ele>89.2</ele>
        <time>2020-07-01T10:01:38Z</time>
      </trkpt>
      <trkpt lat="48.98535" lon="3.26915">
        <ele>89.2</ele>
        <time>2020-07-01T10:01:39Z</time>
      </trkpt>
      <trkpt lat="48.9854" lon="3.26911">
        <ele>89.2</ele>
        <time>2020-07-01T10:01:40Z</time>
      </trkpt>
      <trkpt lat="48.98545" lon="3.26907">
        <ele>89.2</ele>
        <time>2020-07-01T10:01:41Z</time>
      </trkpt>
      <trkpt lat="48.98549" lon="3.26902">
        <ele>89.2</ele>
        <time>2020-07-01T10:01:42Z</time>
      </trkpt>
      <trkpt lat="48.98555" lon="3.26897">
        <ele>89.2</ele>
        <time>2020-07-01T10:01:43Z</time>
      </trkpt>
      <trkpt lat="48.9856" lon="3.26893">
        <ele>89.2</ele>
        <time>2020-07-01T10:01:44Z</time>
      </trkpt>
      <trkpt lat="48.98565" lon="3.2689">
        <ele>89.1</ele>
        <time>2020-07-01T10:01:45Z</time>
      </trkpt>
      <trkpt lat="48.98569" lon="3.26886">
        <ele>89.1</ele>
        <time>2020-07-01T10:01:46Z</time>
      </trkpt>
      <trkpt lat="48.98574" lon="3.26882">
        <ele>89</ele>
        <time>2020-07-01T10:01:47Z</time>
      </trkpt>
      <trkpt lat="48.98578" lon="3.2688">
        <ele>88.9</ele>
        <time>2020-07-01T10:01:48Z</time>
      </trkpt>
      <trkpt lat="48.98583" lon="3.26877">
        <ele>88.8</ele>
        <time>2020-07-01T10:01:49Z</time>
      </trkpt>
      <trkpt lat="48.98588" lon="3.26873">
        <ele>88.7</ele>
        <time>2020-07-01T10:01:50Z</time>
      </trkpt>
      <trkpt lat="48.98592" lon="3.2687">
        <ele>88.6</ele>
        <time>2020-07-01T10:01:51Z</time>
      </trkpt>
      <trkpt lat="48.98597" lon="3.26867">
        <ele>88.5</ele>
        <time>2020-07-01T10:01:52Z</time>
      </trkpt>
      <trkpt lat="48.98602" lon="3.26863">
        <ele>88.4</ele>
        <time>2020-07-01T10:01:53Z</time>
      </trkpt>
      <trkpt lat="48.98607" lon="3.26859">
        <ele>88.3</ele>
        <time>2020-07-01T10:01:54Z</time>
      </trkpt>
      <trkpt lat="48.98613" lon="3.26855">
        <ele>88.2</ele>
        <time>2020-07-01T10:01:55Z</time>
      </trkpt>
      <trkpt lat="48.98618" lon="3.26851">
        <ele>88.1</ele>
        <time>2020-07-01T10:01:56Z</time>
      </trkpt>
      <trkpt lat="48.98623" lon="3.26847">
        <ele>88</ele>
        <time>2020-07-01T10:01:57Z</time>
      </trkpt>
      <trkpt lat="48.98628" lon="3.26843">
        <ele>88</ele>
        <time>2020-07-01T10:01:58Z</time>
      </trkpt>
      <trkpt lat="48.98632" lon="3.26839">
        <ele>87.9</ele>
        <time>2020-07-01T10:01:59Z</time>
      </trkpt>
      <trkpt lat="48.98637" lon="3.26836">
        <ele>87.8</ele>
        <time>2020-07-01T10:02:00Z</time>
      </trkpt>
      <trkpt lat="48.98641" lon="3.26832">
        <ele>87.7</ele>
        <time>2020-07-01T10:02:01Z</time>
      </trkpt>
      <trkpt lat="48.98645" lon="3.26829">
        <ele>87.7</ele>
        <time>2020-07-01T10:02:02Z</time>
      </trkpt>
      <trkpt lat="48.98649" lon="3.26826">
        <ele>87.6</ele>
        <time>2020-07-01T10:02:03Z</time>
      </trkpt>
      <trkpt lat="48.98654" lon="3.26824">
        <ele>87.5</ele>
        <time>2020-07-01T10:02:04Z</time>
      </trkpt>
      <trkpt lat="48.98658" lon="3.2682">
        <ele>87.4</ele>
        <time>2020-07-01T10:02:05Z</time>
      </trkpt>
      <trkpt lat="48.98663" lon="3.26816">
        <ele>87.3</ele>
        <time>2020-07-01T10:02:06Z</time>
      </trkpt>
      <trkpt lat="48.98668" lon="3.26812">
        <ele>87.1</ele>
        <time>2020-07-01T10:02:07Z</time>
      </trkpt>
      <trkpt lat="48.98673" lon="3.26809">
        <ele>87</ele>
        <time>2020-07-01T10:02:08Z</time>
      </trkpt>
      <trkpt lat="48.98678" lon="3.26805">
        <ele>86.8</ele>
        <time>2020-07-01T10:02:09Z</time>
      </trkpt>
      <trkpt lat="48.98683" lon="3.26802">
        <ele>86.6</ele>
        <time>2020-07-01T10:02:10Z</time>
      </trkpt>
      <trkpt lat="48.98688" lon="3.26798">
        <ele>86.5</ele>
        <time>2020-07-01T10:02:11Z</time>
      </trkpt>
      <trkpt lat="48.98693" lon="3.26795">
        <ele>86.2</ele>
        <time>2020-07-01T10:02:12Z</time>
      </trkpt>
      <trkpt lat="48.98697" lon="3.26791">
        <ele>86</ele>
        <time>2020-07-01T10:02:13Z</time>
      </trkpt>
      <trkpt lat="48.98703" lon="3.26788">
        <ele>85.8</ele>
        <time>2020-07-01T10:02:14Z</time>
      </trkpt>
      <trkpt lat="48.98708" lon="3.26784">
        <ele>85.5</ele>
        <time>2020-07-01T10:02:15Z</time>
      </trkpt>
      <trkpt lat="48.98713" lon="3.26779">
        <ele>85.3</ele>
        <time>2020-07-01T10:02:16Z</time>
      </trkpt>
      <trkpt lat="48.98719" lon="3.26775">
        <ele>85</ele>
        <time>2020-07-01T10:02:17Z</time>
      </trkpt>
      <trkpt lat="48.98725" lon="3.2677">
        <ele>84.8</ele>
        <time>2020-07-01T10:02:18Z</time>
      </trkpt>
      <trkpt lat="48.98732" lon="3.26766">
        <ele>84.5</ele>
        <time>2020-07-01T10:02:19Z</time>
      </trkpt>
      <trkpt lat="48.98739" lon="3.26762">
        <ele>84.2</ele>
        <time>2020-07-01T10:02:20Z</time>
      </trkpt>
      <trkpt lat="48.98747" lon="3.26756">
        <ele>83.9</ele>
        <time>2020-07-01T10:02:21Z</time>
      </trkpt>
      <trkpt lat="48.98754" lon="3.26751">
        <ele>83.6</ele>
        <time>2020-07-01T10:02:22Z</time>
      </trkpt>
      <trkpt lat="48.98761" lon="3.26746">
        <ele>83.3</ele>
        <time>2020-07-01T10:02:23Z</time>
      </trkpt>
      <trkpt lat="48.98767" lon="3.26741">
        <ele>83</ele>
        <time>2020-07-01T10:02:24Z</time>
      </trkpt>
      <trkpt lat="48.98774" lon="3.26736">
        <ele>82.7</ele>
        <time>2020-07-01T10:02:25Z</time>
      </trkpt>
      <trkpt lat="48.98781" lon="3.2673">
        <ele>82.4</ele>
        <time>2020-07-01T10:02:26Z</time>
      </trkpt>
      <trkpt lat="48.98788" lon="3.26725">
        <ele>82.2</ele>
        <time>2020-07-01T10:02:27Z</time>
      </trkpt>
      <trkpt lat="48.98795" lon="3.2672">
        <ele>82</ele>
        <time>2020-07-01T10:02:28Z</time>
      </trkpt>
      <trkpt lat="48.98802" lon="3.26715">
        <ele>81.7</ele>
        <time>2020-07-01T10:02:29Z</time>
      </trkpt>
      <trkpt lat="48.98809" lon="3.2671">
        <ele>81.5</ele>
        <time>2020-07-01T10:02:30Z</time>
      </trkpt>
      <trkpt lat="48.98815" lon="3.26705">
        <ele>81.2</ele>
        <time>2020-07-01T10:02:31Z</time>
      </trkpt>
      <trkpt lat="48.98822" lon="3.26701">
        <ele>80.9</ele>
        <time>2020-07-01T10:02:32Z</time>
      </trkpt>
      <trkpt lat="48.9883" lon="3.26697">
        <ele>80.7</ele>
        <time>2020-07-01T10:02:33Z</time>
      </trkpt>
      <trkpt lat="48.98838" lon="3.26693">
        <ele>80.4</ele>
        <time>2020-07-01T10:02:34Z</time>
      </trkpt>
      <trkpt lat="48.98845" lon="3.2669">
        <ele>80.2</ele>
        <time>2020-07-01T10:02:35Z</time>
      </trkpt>
      <trkpt lat="48.98852" lon="3.26686">
        <ele>79.9</ele>
        <time>2020-07-01T10:02:36Z</time>
      </trkpt>
      <trkpt lat="48.9886" lon="3.26683">
        <ele>79.7</ele>
        <time>2020-07-01T10:02:37Z</time>
      </trkpt>
      <trkpt lat="48.98867" lon="3.26679">
        <ele>79.4</ele>
        <time>2020-07-01T10:02:38Z</time>
      </trkpt>
      <trkpt lat="48.98874" lon="3.26676">
        <ele>79</ele>
        <time>2020-07-01T10:02:39Z</time>
      </trkpt>
      <trkpt lat="48.98882" lon="3.26674">
        <ele>78.7</ele>
        <time>2020-07-01T10:02:40Z</time>
      </trkpt>
      <trkpt lat="48.98889" lon="3.26669">
        <ele>78.4</ele>
        <time>2020-07-01T10:02:41Z</time>
      </trkpt>
      <trkpt lat="48.98896" lon="3.26663">
        <ele>78.1</ele>
        <time>2020-07-01T10:02:42Z</time>
      </trkpt>
      <trkpt lat="48.98902" lon="3.26657">
        <ele>77.7</ele>
        <time>2020-07-01T10:02:43Z</time>
      </trkpt>
      <trkpt lat="48.98909" lon="3.26652">
        <ele>77.4</ele>
        <time>2020-07-01T10:02:44Z</time>
      </trkpt>
      <trkpt lat="48.98915" lon="3.26645">
        <ele>77.1</ele>
        <time>2020-07-01T10:02:45Z</time>
      </trkpt>
      <trkpt lat="48.98921" lon="3.26638">
        <ele>76.9</ele>
        <time>2020-07-01T10:02:46Z</time>
      </trkpt>
      <trkpt lat="48.98928" lon="3.26634">
        <ele>76.7</ele>
        <time>2020-07-01T10:02:47Z</time>
      </trkpt>
      <trkpt lat="48.98934" lon="3.2663">
        <ele>76.5</ele>
        <time>2020-07-01T10:02:48Z</time>
      </trkpt>
      <trkpt lat="48.98939" lon="3.26625">
        <ele>76.3</ele>
        <time>2020-07-01T10:02:49Z</time>
      </trkpt>
      <trkpt lat="48.98943" lon="3.2662">
        <ele>76.2</ele>
        <time>2020-07-01T10:02:50Z</time>
      </trkpt>
      <trkpt lat="48.98947" lon="3.26616">
        <ele>76.1</ele>
        <time>2020-07-01T10:02:51Z</time>
      </trkpt>
      <trkpt lat="48.98951" lon="3.26613">
        <ele>75.9</ele>
        <time>2020-07-01T10:02:52Z</time>
      </trkpt>
      <trkpt lat="48.98954" lon="3.26612">
        <ele>75.7</ele>
        <time>2020-07-01T10:02:53Z</time>
      </trkpt>
      <trkpt lat="48.98957" lon="3.26609">
        <ele>75.6</ele>
        <time>2020-07-01T10:02:54Z</time>
      </trkpt>
      <trkpt lat="48.98958" lon="3.26607">
        <ele>75.6</ele>
        <time>2020-07-01T10:02:55Z</time>
      </trkpt>
      <trkpt lat="48.98958" lon="3.26601">
        <ele>75.4</ele>
        <time>2020-07-01T10:02:56Z</time>
      </trkpt>
      <trkpt lat="48.98959" lon="3.26595">
        <ele>75.3</ele>
        <time>2020-07-01T10:02:57Z</time>
      </trkpt>
      <trkpt lat="48.9896" lon="3.26587">
        <ele>75.1</ele>
        <time>2020-07-01T10:02:58Z</time>
      </trkpt>
      <trkpt lat="48.98959" lon="3.26579">
        <ele>75</ele>
        <time>2020-07-01T10:02:59Z</time>
      </trkpt>
      <trkpt lat="48.98959" lon="3.26571">
        <ele>74.8</ele>
        <time>2020-07-01T10:03:00Z</time>
      </trkpt>
      <trkpt lat="48.9896" lon="3.26563">
        <ele>74.7</ele>
        <time>2020-07-01T10:03:01Z</time>
      </trkpt>
      <trkpt lat="48.9896" lon="3.26554">
        <ele>74.6</ele>
        <time>2020-07-01T10:03:02Z</time>
      </trkpt>
      <trkpt lat="48.9896" lon="3.26545">
        <ele>74.5</ele>
        <time>2020-07-01T10:03:03Z</time>
      </trkpt>
      <trkpt lat="48.9896" lon="3.26536">
        <ele>74.4</ele>
        <time>2020-07-01T10:03:04Z</time>
      </trkpt>
      <trkpt lat="48.98961" lon="3.26527">
        <ele>74.4</ele>
        <time>2020-07-01T10:03:05Z</time>
      </trkpt>
      <trkpt lat="48.98961" lon="3.26518">
        <ele>74.4</ele>
        <time>2020-07-01T10:03:06Z</time>
      </trkpt>
      <trkpt lat="48.98961" lon="3.26509">
        <ele>74.5</ele>
        <time>2020-07-01T10:03:07Z</time>
      </trkpt>
      <trkpt lat="48.98961" lon="3.26499">
        <ele>74.5</ele>
        <time>2020-07-01T10:03:08Z</time>
      </trkpt>
      <trkpt lat="48.98962" lon="3.2649">
        <ele>74.6</ele>
        <time>2020-07-01T10:03:09Z</time>
      </trkpt>
      <trkpt lat="48.98962" lon="3.26481">
        <ele>74.7</ele>
        <time>2020-07-01T10:03:10Z</time>
      </trkpt>
      <trkpt lat="48.98963" lon="3.26472">
        <ele>74.8</ele>
        <time>2020-07-01T10:03:11Z</time>
      </trkpt>
      <trkpt lat="48.98963" lon="3.26463">
        <ele>74.9</ele>
        <time>2020-07-01T10:03:12Z</time>
      </trkpt>
      <trkpt lat="48.98963" lon="3.26455">
        <ele>75</ele>
        <time>2020-07-01T10:03:13Z</time>
      </trkpt>
      <trkpt lat="48.98964" lon="3.26448">
        <ele>75.2</ele>
        <time>2020-07-01T10:03:14Z</time>
      </trkpt>
      <trkpt lat="48.98966" lon="3.26441">
        <ele>75.5</ele>
        <time>2020-07-01T10:03:15Z</time>
      </trkpt>
      <trkpt lat="48.98968" lon="3.26434">
        <ele>75.8</ele>
        <time>2020-07-01T10:03:16Z</time>
      </trkpt>
      <trkpt lat="48.98971" lon="3.26429">
        <ele>76.1</ele>
        <time>2020-07-01T10:03:17Z</time>
      </trkpt>
      <trkpt lat="48.98974" lon="3.26425">
        <ele>76.3</ele>
        <time>2020-07-01T10:03:18Z</time>
      </trkpt>
      <trkpt lat="48.98977" lon="3.26421">
        <ele>76.6</ele>
        <time>2020-07-01T10:03:19Z</time>
      </trkpt>
      <trkpt lat="48.98981" lon="3.26418">
        <ele>76.9</ele>
        <time>2020-07-01T10:03:20Z</time>
      </trkpt>
      <trkpt lat="48.98984" lon="3.26416">
        <ele>77.1</ele>
        <time>2020-07-01T10:03:21Z</time>
      </trkpt>
      <trkpt lat="48.98988" lon="3.26414">
        <ele>77.4</ele>
        <time>2020-07-01T10:03:22Z</time>
      </trkpt>
      <trkpt lat="48.98991" lon="3.26411">
        <ele>77.6</ele>
        <time>2020-07-01T10:03:23Z</time>
      </trkpt>
      <trkpt lat="48.98994" lon="3.2641">
        <ele>77.9</ele>
        <time>2020-07-01T10:03:24Z</time>
      </trkpt>
      <trkpt lat="48.98997" lon="3.26407">
        <ele>78.1</ele>
        <time>2020-07-01T10:03:25Z</time>
      </trkpt>
      <trkpt lat="48.99" lon="3.26406">
        <ele>78.3</ele>
        <time>2020-07-01T10:03:26Z</time>
      </trkpt>
      <trkpt lat="48.99003" lon="3.26404">
        <ele>78.5</ele>
        <time>2020-07-01T10:03:27Z</time>
      </trkpt>
      <trkpt lat="48.99007" lon="3.26402">
        <ele>78.8</ele>
        <time>2020-07-01T10:03:28Z</time>
      </trkpt>
      <trkpt lat="48.9901" lon="3.264">
        <ele>79</ele>
        <time>2020-07-01T10:03:29Z</time>
      </trkpt>
      <trkpt lat="48.99013" lon="3.26398">
        <ele>79.2</ele>
        <time>2020-07-01T10:03:30Z</time>
      </trkpt>
      <trkpt lat="48.99015" lon="3.26396">
        <ele>79.4</ele>
        <time>2020-07-01T10:03:31Z</time>
      </trkpt>
      <trkpt lat="48.99018" lon="3.26392">
        <ele>79.7</ele>
        <time>2020-07-01T10:03:32Z</time>
      </trkpt>
      <trkpt lat="48.99019" lon="3.26391">
        <ele>79.8</ele>
        <time>2020-07-01T10:03:33Z</time>
      </trkpt>
      <trkpt lat="48.99022" lon="3.26389">
        <ele>80</ele>
        <time>2020-07-01T10:03:34Z</time>
      </trkpt>
      <trkpt lat="48.99024" lon="3.26386">
        <ele>80.2</ele>
        <time>2020-07-01T10:03:35Z</time>
      </trkpt>
      <trkpt lat="48.99027" lon="3.26384">
        <ele>80.4</ele>
        <time>2020-07-01T10:03:36Z</time>
      </trkpt>
      <trkpt lat="48.9903" lon="3.26383">
        <ele>80.6</ele>
        <time>2020-07-01T10:03:37Z</time>
      </trkpt>
      <trkpt lat="48.99033" lon="3.26381">
        <ele>80.9</ele>
        <time>2020-07-01T10:03:38Z</time>
      </trkpt>
      <trkpt lat="48.99036" lon="3.26378">
        <ele>81.1</ele>
        <time>2020-07-01T10:03:39Z</time>
      </trkpt>
      <trkpt lat="48.99038" lon="3.26376">
        <ele>81.3</ele>
        <time>2020-07-01T10:03:40Z</time>
      </trkpt>
      <trkpt lat="48.99042" lon="3.26374">
        <ele>81.6</ele>
        <time>2020-07-01T10:03:41Z</time>
      </trkpt>
      <trkpt lat="48.99043" lon="3.26373">
        <ele>81.7</ele>
        <time>2020-07-01T10:03:42Z</time>
      </trkpt>
      <trkpt lat="48.99046" lon="3.2637">
        <ele>82</ele>
        <time>2020-07-01T10:03:43Z</time>
      </trkpt>
      <trkpt lat="48.99047" lon="3.26369">
        <ele>82.1</ele>
        <time>2020-07-01T10:03:44Z</time>
      </trkpt>
      <trkpt lat="48.9905" lon="3.26368">
        <ele>82.3</ele>
        <time>2020-07-01T10:03:45Z</time>
      </trkpt>
      <trkpt lat="48.99052" lon="3.26366">
        <ele>82.5</ele>
        <time>2020-07-01T10:03:46Z</time>
      </trkpt>
      <trkpt lat="48.99055" lon="3.26363">
        <ele>82.8</ele>
        <time>2020-07-01T10:03:47Z</time>
      </trkpt>
      <trkpt lat="48.99056" lon="3.26361">
        <ele>82.9</ele>
        <time>2020-07-01T10:03:48Z</time>
      </trkpt>
      <trkpt lat="48.99059" lon="3.26359">
        <ele>83.2</ele>
        <time>2020-07-01T10:03:49Z</time>
      </trkpt>
      <trkpt lat="48.99062" lon="3.26356">
        <ele>83.5</ele>
        <time>2020-07-01T10:03:50Z</time>
      </trkpt>
      <trkpt lat="48.99065" lon="3.26354">
        <ele>83.7</ele>
        <time>2020-07-01T10:03:51Z</time>
      </trkpt>
      <trkpt lat="48.99066" lon="3.26354">
        <ele>83.8</ele>
        <time>2020-07-01T10:03:52Z</time>
      </trkpt>
      <trkpt lat="48.99068" lon="3.26349">
        <ele>84.1</ele>
        <time>2020-07-01T10:03:53Z</time>
      </trkpt>
      <trkpt lat="48.99068" lon="3.26348">
        <ele>84.2</ele>
        <time>2020-07-01T10:03:54Z</time>
      </trkpt>
      <trkpt lat="48.99071" lon="3.26343">
        <ele>84.6</ele>
        <time>2020-07-01T10:03:55Z</time>
      </trkpt>
      <trkpt lat="48.99072" lon="3.26341">
        <ele>84.7</ele>
        <time>2020-07-01T10:03:56Z</time>
      </trkpt>
      <trkpt lat="48.99072" lon="3.26339">
        <ele>84.9</ele>
        <time>2020-07-01T10:03:57Z</time>
      </trkpt>
      <trkpt lat="48.99073" lon="3.26336">
        <ele>85.1</ele>
        <time>2020-07-01T10:03:58Z</time>
      </trkpt>
      <trkpt lat="48.99073" lon="3.26332">
        <ele>85.3</ele>
        <time>2020-07-01T10:03:59Z</time>
      </trkpt>
      <trkpt lat="48.99074" lon="3.26329">
        <ele>85.5</ele>
        <time>2020-07-01T10:04:00Z</time>
      </trkpt>
      <trkpt lat="48.99074" lon="3.26324">
        <ele>85.8</ele>
        <time>2020-07-01T10:04:01Z</time>
      </trkpt>
      <trkpt lat="48.99075" lon="3.26322">
        <ele>86</ele>
        <time>2020-07-01T10:04:02Z</time>
      </trkpt>
      <trkpt lat="48.99075" lon="3.26319">
        <ele>86.1</ele>
        <time>2020-07-01T10:04:03Z</time>
      </trkpt>
      <trkpt lat="48.99074" lon="3.26317">
        <ele>86.3</ele>
        <time>2020-07-01T10:04:04Z</time>
      </trkpt>
      <trkpt lat="48.99074" lon="3.26314">
        <ele>86.4</ele>
        <time>2020-07-01T10:04:05Z</time>
      </trkpt>
      <trkpt lat="48.99074" lon="3.26313">
        <ele>86.5</ele>
        <time>2020-07-01T10:04:06Z</time>
      </trkpt>
      <trkpt lat="48.99074" lon="3.26311">
        <ele>86.7</ele>
        <time>2020-07-01T10:04:07Z</time>
      </trkpt>
      <trkpt lat="48.99075" lon="3.2631">
        <ele>86.7</ele>
        <time>2020-07-01T10:04:08Z</time>
      </trkpt>
      <trkpt lat="48.99074" lon="3.26308">
        <ele>86.8</ele>
        <time>2020-07-01T10:04:09Z</time>
      </trkpt>
      <trkpt lat="48.99072" lon="3.26305">
        <ele>87.4</ele>
        <time>2020-07-01T10:04:10Z</time>
      </trkpt>
      <trkpt lat="48.9907" lon="3.26302">
        <ele>87.4</ele>
        <time>2020-07-01T10:04:11Z</time>
      </trkpt>
      <trkpt lat="48.99069" lon="3.26302">
        <ele>87.4</ele>
        <time>2020-07-01T10:04:12Z</time>
      </trkpt>
      <trkpt lat="48.99068" lon="3.26301">
        <ele>87.4</ele>
        <time>2020-07-01T10:04:13Z</time>
      </trkpt>
      <trkpt lat="48.99065" lon="3.26298">
        <ele>87.4</ele>
        <time>2020-07-01T10:04:14Z</time>
      </trkpt>
      <trkpt lat="48.99063" lon="3.26297">
        <ele>87.4</ele>
        <time>2020-07-01T10:04:15Z</time>
      </trkpt>
      <trkpt lat="48.9906" lon="3.26296">
        <ele>87.4</ele>
        <time>2020-07-01T10:04:16Z</time>
      </trkpt>
      <trkpt lat="48.99057" lon="3.26294">
        <ele>87.4</ele>
        <time>2020-07-01T10:04:17Z</time>
      </trkpt>
      <trkpt lat="48.99054" lon="3.26293">
        <ele>87.4</ele>
        <time>2020-07-01T10:04:18Z</time>
      </trkpt>
      <trkpt lat="48.9905" lon="3.26291">
        <ele>87.6</ele>
        <time>2020-07-01T10:04:19Z</time>
      </trkpt>
      <trkpt lat="48.99048" lon="3.26291">
        <ele>87.7</ele>
        <time>2020-07-01T10:04:20Z</time>
      </trkpt>
      <trkpt lat="48.99045" lon="3.26289">
        <ele>87.8</ele>
        <time>2020-07-01T10:04:21Z</time>
      </trkpt>
      <trkpt lat="48.99042" lon="3.26286">
        <ele>88</ele>
        <time>2020-07-01T10:04:22Z</time>
      </trkpt>
      <trkpt lat="48.99041" lon="3.26285">
        <ele>88</ele>
        <time>2020-07-01T10:04:23Z</time>
      </trkpt>
      <trkpt lat="48.99038" lon="3.26284">
        <ele>88.1</ele>
        <time>2020-07-01T10:04:24Z</time>
      </trkpt>
      <trkpt lat="48.99037" lon="3.26284">
        <ele>88.2</ele>
        <time>2020-07-01T10:04:25Z</time>
      </trkpt>
      <trkpt lat="48.99034" lon="3.26282">
        <ele>88.3</ele>
        <time>2020-07-01T10:04:26Z</time>
      </trkpt>
      <trkpt lat="48.9903" lon="3.2628">
        <ele>88.4</ele>
        <time>2020-07-01T10:04:27Z</time>
      </trkpt>
      <trkpt lat="48.99029" lon="3.2628">
        <ele>88.5</ele>
        <time>2020-07-01T10:04:28Z</time>
      </trkpt>
      <trkpt lat="48.99025" lon="3.26278">
        <ele>88.6</ele>
        <time>2020-07-01T10:04:29Z</time>
      </trkpt>
      <trkpt lat="48.99024" lon="3.26277">
        <ele>88.7</ele>
        <time>2020-07-01T10:04:30Z</time>
      </trkpt>
      <trkpt lat="48.9902" lon="3.26275">
        <ele>88.8</ele>
        <time>2020-07-01T10:04:31Z</time>
      </trkpt>
      <trkpt lat="48.99018" lon="3.26274">
        <ele>88.9</ele>
        <time>2020-07-01T10:04:32Z</time>
      </trkpt>
      <trkpt lat="48.99015" lon="3.26273">
        <ele>89</ele>
        <time>2020-07-01T10:04:33Z</time>
      </trkpt>
      <trkpt lat="48.99014" lon="3.26273">
        <ele>89.1</ele>
        <time>2020-07-01T10:04:34Z</time>
      </trkpt>
      <trkpt lat="48.99011" lon="3.26272">
        <ele>89.2</ele>
        <time>2020-07-01T10:04:35Z</time>
      </trkpt>
      <trkpt lat="48.99009" lon="3.2627">
        <ele>89.4</ele>
        <time>2020-07-01T10:04:36Z</time>
      </trkpt>
      <trkpt lat="48.99008" lon="3.2627">
        <ele>89.4</ele>
        <time>2020-07-01T10:04:37Z</time>
      </trkpt>
      <trkpt lat="48.99006" lon="3.26269">
        <ele>89.5</ele>
        <time>2020-07-01T10:04:38Z</time>
      </trkpt>
      <trkpt lat="48.99005" lon="3.26268">
        <ele>89.6</ele>
        <time>2020-07-01T10:04:39Z</time>
      </trkpt>
      <trkpt lat="48.99002" lon="3.26265">
        <ele>89.8</ele>
        <time>2020-07-01T10:04:40Z</time>
      </trkpt>
      <trkpt lat="48.99001" lon="3.26264">
        <ele>89.8</ele>
        <time>2020-07-01T10:04:41Z</time>
      </trkpt>
      <trkpt lat="48.98998" lon="3.26261">
        <ele>90.1</ele>
        <time>2020-07-01T10:04:42Z</time>
      </trkpt>
      <trkpt lat="48.98997" lon="3.2626">
        <ele>90.1</ele>
        <time>2020-07-01T10:04:43Z</time>
      </trkpt>
      <trkpt lat="48.98994" lon="3.26258">
        <ele>90.3</ele>
        <time>2020-07-01T10:04:44Z</time>
      </trkpt>
      <trkpt lat="48.98992" lon="3.26258">
        <ele>90.4</ele>
        <time>2020-07-01T10:04:45Z</time>
      </trkpt>
      <trkpt lat="48.98989" lon="3.26257">
        <ele>90.6</ele>
        <time>2020-07-01T10:04:46Z</time>
      </trkpt>
      <trkpt lat="48.98988" lon="3.26257">
        <ele>90.7</ele>
        <time>2020-07-01T10:04:47Z</time>
      </trkpt>
      <trkpt lat="48.98986" lon="3.26255">
        <ele>90.8</ele>
        <time>2020-07-01T10:04:48Z</time>
      </trkpt>
      <trkpt lat="48.98985" lon="3.26255">
        <ele>90.9</ele>
        <time>2020-07-01T10:04:49Z</time>
      </trkpt>
      <trkpt lat="48.98983" lon="3.26254">
        <ele>91</ele>
        <time>2020-07-01T10:04:50Z</time>
      </trkpt>
      <trkpt lat="48.98982" lon="3.26253">
        <ele>91.1</ele>
        <time>2020-07-01T10:04:51Z</time>
      </trkpt>
      <trkpt lat="48.98979" lon="3.2625">
        <ele>91.3</ele>
        <time>2020-07-01T10:04:52Z</time>
      </trkpt>
      <trkpt lat="48.98978" lon="3.26249">
        <ele>91.3</ele>
        <time>2020-07-01T10:04:53Z</time>
      </trkpt>
      <trkpt lat="48.98975" lon="3.26247">
        <ele>91.5</ele>
        <time>2020-07-01T10:04:54Z</time>
      </trkpt>
      <trkpt lat="48.98974" lon="3.26246">
        <ele>91.6</ele>
        <time>2020-07-01T10:04:55Z</time>
      </trkpt>
      <trkpt lat="48.98972" lon="3.26244">
        <ele>91.7</ele>
        <time>2020-07-01T10:04:56Z</time>
      </trkpt>
      <trkpt lat="48.98969" lon="3.26243">
        <ele>91.9</ele>
        <time>2020-07-01T10:04:57Z</time>
      </trkpt>
      <trkpt lat="48.98967" lon="3.26242">
        <ele>92</ele>
        <time>2020-07-01T10:04:58Z</time>
      </trkpt>
      <trkpt lat="48.98964" lon="3.26241">
        <ele>92.2</ele>
        <time>2020-07-01T10:04:59Z</time>
      </trkpt>
      <trkpt lat="48.98962" lon="3.2624">
        <ele>92.2</ele>
        <time>2020-07-01T10:05:00Z</time>
      </trkpt>
      <trkpt lat="48.98959" lon="3.26238">
        <ele>92.5</ele>
        <time>2020-07-01T10:05:01Z</time>
      </trkpt>
      <trkpt lat="48.98957" lon="3.26238">
        <ele>92.5</ele>
        <time>2020-07-01T10:05:02Z</time>
      </trkpt>
      <trkpt lat="48.98954" lon="3.26235">
        <ele>92.8</ele>
        <time>2020-07-01T10:05:03Z</time>
      </trkpt>
      <trkpt lat="48.98952" lon="3.26235">
        <ele>92.8</ele>
        <time>2020-07-01T10:05:04Z</time>
      </trkpt>
      <trkpt lat="48.98949" lon="3.26233">
        <ele>93</ele>
        <time>2020-07-01T10:05:05Z</time>
      </trkpt>
      <trkpt lat="48.98948" lon="3.26232">
        <ele>93.1</ele>
        <time>2020-07-01T10:05:06Z</time>
      </trkpt>
      <trkpt lat="48.98945" lon="3.26231">
        <ele>93.3</ele>
        <time>2020-07-01T10:05:07Z</time>
      </trkpt>
      <trkpt lat="48.98942" lon="3.26229">
        <ele>93.5</ele>
        <time>2020-07-01T10:05:08Z</time>
      </trkpt>
      <trkpt lat="48.98939" lon="3.26228">
        <ele>93.6</ele>
        <time>2020-07-01T10:05:09Z</time>
      </trkpt>
      <trkpt lat="48.98938" lon="3.26228">
        <ele>93.7</ele>
        <time>2020-07-01T10:05:10Z</time>
      </trkpt>
      <trkpt lat="48.98935" lon="3.26226">
        <ele>93.9</ele>
        <time>2020-07-01T10:05:11Z</time>
      </trkpt>
      <trkpt lat="48.98934" lon="3.26226">
        <ele>94</ele>
        <time>2020-07-01T10:05:12Z</time>
      </trkpt>
      <trkpt lat="48.98931" lon="3.26225">
        <ele>94.1</ele>
        <time>2020-07-01T10:05:13Z</time>
      </trkpt>
      <trkpt lat="48.98928" lon="3.26224">
        <ele>94.3</ele>
        <time>2020-07-01T10:05:14Z</time>
      </trkpt>
      <trkpt lat="48.98927" lon="3.26224">
        <ele>94.4</ele>
        <time>2020-07-01T10:05:15Z</time>
      </trkpt>
      <trkpt lat="48.98924" lon="3.26222">
        <ele>94.6</ele>
        <time>2020-07-01T10:05:16Z</time>
      </trkpt>
      <trkpt lat="48.98923" lon="3.26222">
        <ele>94.6</ele>
        <time>2020-07-01T10:05:17Z</time>
      </trkpt>
      <trkpt lat="48.9892" lon="3.26221">
        <ele>94.8</ele>
        <time>2020-07-01T10:05:18Z</time>
      </trkpt>
      <trkpt lat="48.98916" lon="3.26218">
        <ele>95.1</ele>
        <time>2020-07-01T10:05:19Z</time>
      </trkpt>
      <trkpt lat="48.98915" lon="3.26218">
        <ele>95.2</ele>
        <time>2020-07-01T10:05:20Z</time>
      </trkpt>
      <trkpt lat="48.98911" lon="3.26216">
        <ele>95.4</ele>
        <time>2020-07-01T10:05:21Z</time>
      </trkpt>
      <trkpt lat="48.9891" lon="3.26215">
        <ele>95.5</ele>
        <time>2020-07-01T10:05:22Z</time>
      </trkpt>
      <trkpt lat="48.98907" lon="3.26214">
        <ele>95.6</ele>
        <time>2020-07-01T10:05:23Z</time>
      </trkpt>
      <trkpt lat="48.98906" lon="3.26213">
        <ele>95.7</ele>
        <time>2020-07-01T10:05:24Z</time>
      </trkpt>
      <trkpt lat="48.98903" lon="3.26212">
        <ele>95.9</ele>
        <time>2020-07-01T10:05:25Z</time>
      </trkpt>
      <trkpt lat="48.989" lon="3.26211">
        <ele>96</ele>
        <time>2020-07-01T10:05:26Z</time>
      </trkpt>
      <trkpt lat="48.98899" lon="3.26211">
        <ele>96.1</ele>
        <time>2020-07-01T10:05:27Z</time>
      </trkpt>
      <trkpt lat="48.98897" lon="3.2621">
        <ele>96.3</ele>
        <time>2020-07-01T10:05:28Z</time>
      </trkpt>
      <trkpt lat="48.98893" lon="3.26209">
        <ele>96.4</ele>
        <time>2020-07-01T10:05:29Z</time>
      </trkpt>
      <trkpt lat="48.98892" lon="3.26208">
        <ele>96.5</ele>
        <time>2020-07-01T10:05:30Z</time>
      </trkpt>
      <trkpt lat="48.98889" lon="3.26207">
        <ele>96.7</ele>
        <time>2020-07-01T10:05:31Z</time>
      </trkpt>
      <trkpt lat="48.98888" lon="3.26207">
        <ele>96.7</ele>
        <time>2020-07-01T10:05:32Z</time>
      </trkpt>
      <trkpt lat="48.98886" lon="3.26204">
        <ele>96.9</ele>
        <time>2020-07-01T10:05:33Z</time>
      </trkpt>
      <trkpt lat="48.98883" lon="3.26202">
        <ele>97.1</ele>
        <time>2020-07-01T10:05:34Z</time>
      </trkpt>
      <trkpt lat="48.98881" lon="3.26201">
        <ele>97.2</ele>
        <time>2020-07-01T10:05:35Z</time>
      </trkpt>
      <trkpt lat="48.98877" lon="3.26198">
        <ele>97.4</ele>
        <time>2020-07-01T10:05:36Z</time>
      </trkpt>
      <trkpt lat="48.98876" lon="3.26197">
        <ele>97.5</ele>
        <time>2020-07-01T10:05:37Z</time>
      </trkpt>
      <trkpt lat="48.98873" lon="3.26195">
        <ele>97.7</ele>
        <time>2020-07-01T10:05:38Z</time>
      </trkpt>
      <trkpt lat="48.98871" lon="3.26194">
        <ele>97.8</ele>
        <time>2020-07-01T10:05:39Z</time>
      </trkpt>
      <trkpt lat="48.98867" lon="3.26193">
        <ele>98.1</ele>
        <time>2020-07-01T10:05:40Z</time>
      </trkpt>
      <trkpt lat="48.98866" lon="3.26193">
        <ele>98.1</ele>
        <time>2020-07-01T10:05:41Z</time>
      </trkpt>
      <trkpt lat="48.98864" lon="3.26189">
        <ele>98.3</ele>
        <time>2020-07-01T10:05:42Z</time>
      </trkpt>
      <trkpt lat="48.9886" lon="3.26189">
        <ele>98.6</ele>
        <time>2020-07-01T10:05:43Z</time>
      </trkpt>
      <trkpt lat="48.98859" lon="3.26189">
        <ele>98.7</ele>
        <time>2020-07-01T10:05:44Z</time>
      </trkpt>
      <trkpt lat="48.98855" lon="3.26187">
        <ele>98.9</ele>
        <time>2020-07-01T10:05:45Z</time>
      </trkpt>
      <trkpt lat="48.98854" lon="3.26187">
        <ele>99</ele>
        <time>2020-07-01T10:05:46Z</time>
      </trkpt>
      <trkpt lat="48.98851" lon="3.26185">
        <ele>99.1</ele>
        <time>2020-07-01T10:05:47Z</time>
      </trkpt>
      <trkpt lat="48.98848" lon="3.26184">
        <ele>99.3</ele>
        <time>2020-07-01T10:05:48Z</time>
      </trkpt>
      <trkpt lat="48.98847" lon="3.26183">
        <ele>99.4</ele>
        <time>2020-07-01T10:05:49Z</time>
      </trkpt>
      <trkpt lat="48.98844" lon="3.26182">
        <ele>99.6</ele>
        <time>2020-07-01T10:05:50Z</time>
      </trkpt>
      <trkpt lat="48.98843" lon="3.26181">
        <ele>99.7</ele>
        <time>2020-07-01T10:05:51Z</time>
      </trkpt>
      <trkpt lat="48.9884" lon="3.2618">
        <ele>99.9</ele>
        <time>2020-07-01T10:05:52Z</time>
      </trkpt>
      <trkpt lat="48.98838" lon="3.26179">
        <ele>99.9</ele>
        <time>2020-07-01T10:05:53Z</time>
      </trkpt>
      <trkpt lat="48.98836" lon="3.26177">
        <ele>100.1</ele>
        <time>2020-07-01T10:05:54Z</time>
      </trkpt>
      <trkpt lat="48.98835" lon="3.26177">
        <ele>100.2</ele>
        <time>2020-07-01T10:05:55Z</time>
      </trkpt>
      <trkpt lat="48.98831" lon="3.26175">
        <ele>100.4</ele>
        <time>2020-07-01T10:05:56Z</time>
      </trkpt>
      <trkpt lat="48.9883" lon="3.26175">
        <ele>100.5</ele>
        <time>2020-07-01T10:05:57Z</time>
      </trkpt>
      <trkpt lat="48.98827" lon="3.26173">
        <ele>100.7</ele>
        <time>2020-07-01T10:05:58Z</time>
      </trkpt>
      <trkpt lat="48.98826" lon="3.26172">
        <ele>100.7</ele>
        <time>2020-07-01T10:05:59Z</time>
      </trkpt>
      <trkpt lat="48.98824" lon="3.2617">
        <ele>100.8</ele>
        <time>2020-07-01T10:06:00Z</time>
      </trkpt>
      <trkpt lat="48.98823" lon="3.26169">
        <ele>100.9</ele>
        <time>2020-07-01T10:06:01Z</time>
      </trkpt>
      <trkpt lat="48.9882" lon="3.26168">
        <ele>101.1</ele>
        <time>2020-07-01T10:06:02Z</time>
      </trkpt>
      <trkpt lat="48.98819" lon="3.26168">
        <ele>101.2</ele>
        <time>2020-07-01T10:06:03Z</time>
      </trkpt>
      <trkpt lat="48.98816" lon="3.26165">
        <ele>101.4</ele>
        <time>2020-07-01T10:06:04Z</time>
      </trkpt>
      <trkpt lat="48.98815" lon="3.26164">
        <ele>101.4</ele>
        <time>2020-07-01T10:06:05Z</time>
      </trkpt>
      <trkpt lat="48.98812" lon="3.26161">
        <ele>101.6</ele>
        <time>2020-07-01T10:06:06Z</time>
      </trkpt>
      <trkpt lat="48.9881" lon="3.2616">
        <ele>101.7</ele>
        <time>2020-07-01T10:06:07Z</time>
      </trkpt>
      <trkpt lat="48.98808" lon="3.26158">
        <ele>101.9</ele>
        <time>2020-07-01T10:06:08Z</time>
      </trkpt>
      <trkpt lat="48.98805" lon="3.26154">
        <ele>102.1</ele>
        <time>2020-07-01T10:06:09Z</time>
      </trkpt>
      <trkpt lat="48.98802" lon="3.26152">
        <ele>102.2</ele>
        <time>2020-07-01T10:06:10Z</time>
      </trkpt>
      <trkpt lat="48.988" lon="3.26149">
        <ele>102.4</ele>
        <time>2020-07-01T10:06:11Z</time>
      </trkpt>
      <trkpt lat="48.98799" lon="3.26148">
        <ele>102.4</ele>
        <time>2020-07-01T10:06:12Z</time>
      </trkpt>
      <trkpt lat="48.98796" lon="3.26145">
        <ele>102.9</ele>
        <time>2020-07-01T10:06:13Z</time>
      </trkpt>
      <trkpt lat="48.98795" lon="3.26144">
        <ele>103</ele>
        <time>2020-07-01T10:06:14Z</time>
      </trkpt>
      <trkpt lat="48.98792" lon="3.26142">
        <ele>103.2</ele>
        <time>2020-07-01T10:06:15Z</time>
      </trkpt>
      <trkpt lat="48.9879" lon="3.26141">
        <ele>103.3</ele>
        <time>2020-07-01T10:06:16Z</time>
      </trkpt>
      <trkpt lat="48.98788" lon="3.26137">
        <ele>103.6</ele>
        <time>2020-07-01T10:06:17Z</time>
      </trkpt>
      <trkpt lat="48.98787" lon="3.26136">
        <ele>103.6</ele>
        <time>2020-07-01T10:06:18Z</time>
      </trkpt>
      <trkpt lat="48.98786" lon="3.26135">
        <ele>103.7</ele>
        <time>2020-07-01T10:06:19Z</time>
      </trkpt>
      <trkpt lat="48.98785" lon="3.26133">
        <ele>103.8</ele>
        <time>2020-07-01T10:06:20Z</time>
      </trkpt>
      <trkpt lat="48.98784" lon="3.26131">
        <ele>103.9</ele>
        <time>2020-07-01T10:06:21Z</time>
      </trkpt>
      <trkpt lat="48.98782" lon="3.26129">
        <ele>104.1</ele>
        <time>2020-07-01T10:06:22Z</time>
      </trkpt>
      <trkpt lat="48.98781" lon="3.26128">
        <ele>104.2</ele>
        <time>2020-07-01T10:06:23Z</time>
      </trkpt>
      <trkpt lat="48.98779" lon="3.26126">
        <ele>104.3</ele>
        <time>2020-07-01T10:06:24Z</time>
      </trkpt>
      <trkpt lat="48.98777" lon="3.26123">
        <ele>104.5</ele>
        <time>2020-07-01T10:06:25Z</time>
      </trkpt>
      <trkpt lat="48.98776" lon="3.26122">
        <ele>104.6</ele>
        <time>2020-07-01T10:06:26Z</time>
      </trkpt>
      <trkpt lat="48.98773" lon="3.26119">
        <ele>104.8</ele>
        <time>2020-07-01T10:06:27Z</time>
      </trkpt>
      <trkpt lat="48.9877" lon="3.26116">
        <ele>105</ele>
        <time>2020-07-01T10:06:28Z</time>
      </trkpt>
      <trkpt lat="48.98768" lon="3.26115">
        <ele>105.1</ele>
        <time>2020-07-01T10:06:29Z</time>
      </trkpt>
      <trkpt lat="48.98766" lon="3.26112">
        <ele>105.3</ele>
        <time>2020-07-01T10:06:30Z</time>
      </trkpt>
      <trkpt lat="48.98764" lon="3.26112">
        <ele>105.3</ele>
        <time>2020-07-01T10:06:31Z</time>
      </trkpt>
      <trkpt lat="48.98761" lon="3.26109">
        <ele>105.6</ele>
        <time>2020-07-01T10:06:32Z</time>
      </trkpt>
      <trkpt lat="48.98759" lon="3.26108">
        <ele>105.6</ele>
        <time>2020-07-01T10:06:33Z</time>
      </trkpt>
      <trkpt lat="48.98756" lon="3.26106">
        <ele>105.8</ele>
        <time>2020-07-01T10:06:34Z</time>
      </trkpt>
      <trkpt lat="48.98755" lon="3.26105">
        <ele>105.9</ele>
        <time>2020-07-01T10:06:35Z</time>
      </trkpt>
      <trkpt lat="48.98752" lon="3.26103">
        <ele>106.1</ele>
        <time>2020-07-01T10:06:36Z</time>
      </trkpt>
      <trkpt lat="48.98751" lon="3.26103">
        <ele>106.2</ele>
        <time>2020-07-01T10:06:37Z</time>
      </trkpt>
      <trkpt lat="48.98747" lon="3.26101">
        <ele>106.4</ele>
        <time>2020-07-01T10:06:38Z</time>
      </trkpt>
      <trkpt lat="48.98744" lon="3.26101">
        <ele>106.6</ele>
        <time>2020-07-01T10:06:39Z</time>
      </trkpt>
      <trkpt lat="48.98743" lon="3.261">
        <ele>106.6</ele>
        <time>2020-07-01T10:06:40Z</time>
      </trkpt>
      <trkpt lat="48.9874" lon="3.26099">
        <ele>106.8</ele>
        <time>2020-07-01T10:06:41Z</time>
      </trkpt>
      <trkpt lat="48.98737" lon="3.261">
        <ele>107</ele>
        <time>2020-07-01T10:06:42Z</time>
      </trkpt>
      <trkpt lat="48.98736" lon="3.261">
        <ele>107.1</ele>
        <time>2020-07-01T10:06:43Z</time>
      </trkpt>
      <trkpt lat="48.98733" lon="3.26101">
        <ele>107.3</ele>
        <time>2020-07-01T10:06:44Z</time>
      </trkpt>
      <trkpt lat="48.98732" lon="3.26101">
        <ele>107.3</ele>
        <time>2020-07-01T10:06:45Z</time>
      </trkpt>
      <trkpt lat="48.98728" lon="3.26101">
        <ele>107.6</ele>
        <time>2020-07-01T10:06:46Z</time>
      </trkpt>
      <trkpt lat="48.98725" lon="3.26102">
        <ele>107.7</ele>
        <time>2020-07-01T10:06:47Z</time>
      </trkpt>
      <trkpt lat="48.98723" lon="3.26101">
        <ele>107.9</ele>
        <time>2020-07-01T10:06:48Z</time>
      </trkpt>
      <trkpt lat="48.98721" lon="3.26101">
        <ele>108</ele>
        <time>2020-07-01T10:06:49Z</time>
      </trkpt>
      <trkpt lat="48.98718" lon="3.261">
        <ele>108.2</ele>
        <time>2020-07-01T10:06:50Z</time>
      </trkpt>
      <trkpt lat="48.98717" lon="3.261">
        <ele>108.2</ele>
        <time>2020-07-01T10:06:51Z</time>
      </trkpt>
      <trkpt lat="48.98713" lon="3.26099">
        <ele>108.5</ele>
        <time>2020-07-01T10:06:52Z</time>
      </trkpt>
      <trkpt lat="48.98711" lon="3.26099">
        <ele>108.6</ele>
        <time>2020-07-01T10:06:53Z</time>
      </trkpt>
      <trkpt lat="48.98708" lon="3.26099">
        <ele>108.8</ele>
        <time>2020-07-01T10:06:54Z</time>
      </trkpt>
      <trkpt lat="48.98705" lon="3.261">
        <ele>109</ele>
        <time>2020-07-01T10:06:55Z</time>
      </trkpt>
      <trkpt lat="48.98702" lon="3.261">
        <ele>109.2</ele>
        <time>2020-07-01T10:06:56Z</time>
      </trkpt>
      <trkpt lat="48.987" lon="3.26099">
        <ele>109.3</ele>
        <time>2020-07-01T10:06:57Z</time>
      </trkpt>
      <trkpt lat="48.98698" lon="3.26099">
        <ele>109.5</ele>
        <time>2020-07-01T10:06:58Z</time>
      </trkpt>
      <trkpt lat="48.98696" lon="3.26098">
        <ele>109.6</ele>
        <time>2020-07-01T10:06:59Z</time>
      </trkpt>
      <trkpt lat="48.98695" lon="3.26098">
        <ele>109.7</ele>
        <time>2020-07-01T10:07:00Z</time>
      </trkpt>
      <trkpt lat="48.98694" lon="3.26098">
        <ele>109.7</ele>
        <time>2020-07-01T10:07:01Z</time>
      </trkpt>
      <trkpt lat="48.98691" lon="3.26097">
        <ele>109.9</ele>
        <time>2020-07-01T10:07:02Z</time>
      </trkpt>
      <trkpt lat="48.9869" lon="3.26097">
        <ele>110</ele>
        <time>2020-07-01T10:07:03Z</time>
      </trkpt>
      <trkpt lat="48.98686" lon="3.26096">
        <ele>110.2</ele>
        <time>2020-07-01T10:07:04Z</time>
      </trkpt>
      <trkpt lat="48.98685" lon="3.26095">
        <ele>110.3</ele>
        <time>2020-07-01T10:07:05Z</time>
      </trkpt>
      <trkpt lat="48.98682" lon="3.26095">
        <ele>110.5</ele>
        <time>2020-07-01T10:07:06Z</time>
      </trkpt>
      <trkpt lat="48.98679" lon="3.26095">
        <ele>110.7</ele>
        <time>2020-07-01T10:07:07Z</time>
      </trkpt>
      <trkpt lat="48.98675" lon="3.26094">
        <ele>110.9</ele>
        <time>2020-07-01T10:07:08Z</time>
      </trkpt>
      <trkpt lat="48.98673" lon="3.26093">
        <ele>111</ele>
        <time>2020-07-01T10:07:09Z</time>
      </trkpt>
      <trkpt lat="48.98671" lon="3.26092">
        <ele>111.2</ele>
        <time>2020-07-01T10:07:10Z</time>
      </trkpt>
      <trkpt lat="48.98668" lon="3.26091">
        <ele>111.4</ele>
        <time>2020-07-01T10:07:11Z</time>
      </trkpt>
      <trkpt lat="48.98667" lon="3.26091">
        <ele>111.5</ele>
        <time>2020-07-01T10:07:12Z</time>
      </trkpt>
      <trkpt lat="48.98663" lon="3.2609">
        <ele>111.7</ele>
        <time>2020-07-01T10:07:13Z</time>
      </trkpt>
      <trkpt lat="48.98662" lon="3.2609">
        <ele>111.8</ele>
        <time>2020-07-01T10:07:14Z</time>
      </trkpt>
      <trkpt lat="48.98658" lon="3.26089">
        <ele>112</ele>
        <time>2020-07-01T10:07:15Z</time>
      </trkpt>
      <trkpt lat="48.98657" lon="3.26089">
        <ele>112</ele>
        <time>2020-07-01T10:07:16Z</time>
      </trkpt>
      <trkpt lat="48.98654" lon="3.26088">
        <ele>112.2</ele>
        <time>2020-07-01T10:07:17Z</time>
      </trkpt>
      <trkpt lat="48.98653" lon="3.26088">
        <ele>112.3</ele>
        <time>2020-07-01T10:07:18Z</time>
      </trkpt>
      <trkpt lat="48.98651" lon="3.26088">
        <ele>112.4</ele>
        <time>2020-07-01T10:07:19Z</time>
      </trkpt>
      <trkpt lat="48.98649" lon="3.26087">
        <ele>112.5</ele>
        <time>2020-07-01T10:07:20Z</time>
      </trkpt>
      <trkpt lat="48.98648" lon="3.26087">
        <ele>112.6</ele>
        <time>2020-07-01T10:07:21Z</time>
      </trkpt>
      <trkpt lat="48.98645" lon="3.26085">
        <ele>112.8</ele>
        <time>2020-07-01T10:07:22Z</time>
      </trkpt>
      <trkpt lat="48.98644" lon="3.26085">
        <ele>112.9</ele>
        <time>2020-07-01T10:07:23Z</time>
      </trkpt>
      <trkpt lat="48.9864" lon="3.26083">
        <ele>113.1</ele>
        <time>2020-07-01T10:07:24Z</time>
      </trkpt>
      <trkpt lat="48.98639" lon="3.26082">
        <ele>113.2</ele>
        <time>2020-07-01T10:07:25Z</time>
      </trkpt>
      <trkpt lat="48.98636" lon="3.26079">
        <ele>113.4</ele>
        <time>2020-07-01T10:07:26Z</time>
      </trkpt>
      <trkpt lat="48.98635" lon="3.26078">
        <ele>113.5</ele>
        <time>2020-07-01T10:07:27Z</time>
      </trkpt>
      <trkpt lat="48.98632" lon="3.26078">
        <ele>113.7</ele>
        <time>2020-07-01T10:07:28Z</time>
      </trkpt>
      <trkpt lat="48.9863" lon="3.26078">
        <ele>113.8</ele>
        <time>2020-07-01T10:07:29Z</time>
      </trkpt>
      <trkpt lat="48.98627" lon="3.26076">
        <ele>114</ele>
        <time>2020-07-01T10:07:30Z</time>
      </trkpt>
      <trkpt lat="48.98626" lon="3.26076">
        <ele>114.1</ele>
        <time>2020-07-01T10:07:31Z</time>
      </trkpt>
      <trkpt lat="48.98624" lon="3.26074">
        <ele>114.3</ele>
        <time>2020-07-01T10:07:32Z</time>
      </trkpt>
      <trkpt lat="48.98622" lon="3.26074">
        <ele>114.4</ele>
        <time>2020-07-01T10:07:33Z</time>
      </trkpt>
      <trkpt lat="48.98619" lon="3.26071">
        <ele>114.6</ele>
        <time>2020-07-01T10:07:34Z</time>
      </trkpt>
      <trkpt lat="48.98618" lon="3.2607">
        <ele>114.7</ele>
        <time>2020-07-01T10:07:35Z</time>
      </trkpt>
      <trkpt lat="48.98615" lon="3.26069">
        <ele>114.9</ele>
        <time>2020-07-01T10:07:36Z</time>
      </trkpt>
      <trkpt lat="48.98614" lon="3.26068">
        <ele>114.9</ele>
        <time>2020-07-01T10:07:37Z</time>
      </trkpt>
      <trkpt lat="48.98611" lon="3.26065">
        <ele>115.2</ele>
        <time>2020-07-01T10:07:38Z</time>
      </trkpt>
      <trkpt lat="48.98611" lon="3.26064">
        <ele>115.3</ele>
        <time>2020-07-01T10:07:39Z</time>
      </trkpt>
      <trkpt lat="48.98608" lon="3.26062">
        <ele>115.5</ele>
        <time>2020-07-01T10:07:40Z</time>
      </trkpt>
      <trkpt lat="48.98607" lon="3.26062">
        <ele>115.5</ele>
        <time>2020-07-01T10:07:41Z</time>
      </trkpt>
      <trkpt lat="48.98604" lon="3.26059">
        <ele>115.8</ele>
        <time>2020-07-01T10:07:42Z</time>
      </trkpt>
      <trkpt lat="48.98603" lon="3.26059">
        <ele>115.8</ele>
        <time>2020-07-01T10:07:43Z</time>
      </trkpt>
      <trkpt lat="48.98601" lon="3.26058">
        <ele>116</ele>
        <time>2020-07-01T10:07:44Z</time>
      </trkpt>
      <trkpt lat="48.98599" lon="3.26057">
        <ele>116.1</ele>
        <time>2020-07-01T10:07:45Z</time>
      </trkpt>
      <trkpt lat="48.98596" lon="3.26056">
        <ele>116.3</ele>
        <time>2020-07-01T10:07:46Z</time>
      </trkpt>
      <trkpt lat="48.98595" lon="3.26056">
        <ele>116.4</ele>
        <time>2020-07-01T10:07:47Z</time>
      </trkpt>
      <trkpt lat="48.98592" lon="3.26055">
        <ele>116.6</ele>
        <time>2020-07-01T10:07:48Z</time>
      </trkpt>
      <trkpt lat="48.98589" lon="3.26054">
        <ele>116.9</ele>
        <time>2020-07-01T10:07:49Z</time>
      </trkpt>
      <trkpt lat="48.98587" lon="3.26053">
        <ele>117</ele>
        <time>2020-07-01T10:07:50Z</time>
      </trkpt>
      <trkpt lat="48.98585" lon="3.26052">
        <ele>117.1</ele>
        <time>2020-07-01T10:07:51Z</time>
      </trkpt>
      <trkpt lat="48.98584" lon="3.26052">
        <ele>117.2</ele>
        <time>2020-07-01T10:07:52Z</time>
      </trkpt>
      <trkpt lat="48.98582" lon="3.26049">
        <ele>117.4</ele>
        <time>2020-07-01T10:07:53Z</time>
      </trkpt>
      <trkpt lat="48.98578" lon="3.26047">
        <ele>117.6</ele>
        <time>2020-07-01T10:07:54Z</time>
      </trkpt>
      <trkpt lat="48.98577" lon="3.26046">
        <ele>117.6</ele>
        <time>2020-07-01T10:07:55Z</time>
      </trkpt>
      <trkpt lat="48.98574" lon="3.26045">
        <ele>117.8</ele>
        <time>2020-07-01T10:07:56Z</time>
      </trkpt>
      <trkpt lat="48.98572" lon="3.26044">
        <ele>117.9</ele>
        <time>2020-07-01T10:07:57Z</time>
      </trkpt>
      <trkpt lat="48.9857" lon="3.26043">
        <ele>118</ele>
        <time>2020-07-01T10:07:58Z</time>
      </trkpt>
      <trkpt lat="48.98569" lon="3.26043">
        <ele>118</ele>
        <time>2020-07-01T10:07:59Z</time>
      </trkpt>
      <trkpt lat="48.98566" lon="3.26042">
        <ele>118.1</ele>
        <time>2020-07-01T10:08:00Z</time>
      </trkpt>
      <trkpt lat="48.98563" lon="3.26042">
        <ele>118.3</ele>
        <time>2020-07-01T10:08:01Z</time>
      </trkpt>
      <trkpt lat="48.98562" lon="3.26041">
        <ele>118.4</ele>
        <time>2020-07-01T10:08:02Z</time>
      </trkpt>
      <trkpt lat="48.98559" lon="3.2604">
        <ele>118.6</ele>
        <time>2020-07-01T10:08:03Z</time>
      </trkpt>
      <trkpt lat="48.98558" lon="3.26039">
        <ele>118.7</ele>
        <time>2020-07-01T10:08:04Z</time>
      </trkpt>
      <trkpt lat="48.98554" lon="3.26038">
        <ele>118.9</ele>
        <time>2020-07-01T10:08:05Z</time>
      </trkpt>
      <trkpt lat="48.98553" lon="3.26037">
        <ele>119</ele>
        <time>2020-07-01T10:08:06Z</time>
      </trkpt>
      <trkpt lat="48.9855" lon="3.26037">
        <ele>119.1</ele>
        <time>2020-07-01T10:08:07Z</time>
      </trkpt>
      <trkpt lat="48.98547" lon="3.26037">
        <ele>119.3</ele>
        <time>2020-07-01T10:08:08Z</time>
      </trkpt>
      <trkpt lat="48.98543" lon="3.26037">
        <ele>119.5</ele>
        <time>2020-07-01T10:08:09Z</time>
      </trkpt>
      <trkpt lat="48.98542" lon="3.26036">
        <ele>119.6</ele>
        <time>2020-07-01T10:08:10Z</time>
      </trkpt>
      <trkpt lat="48.98539" lon="3.26036">
        <ele>119.8</ele>
        <time>2020-07-01T10:08:11Z</time>
      </trkpt>
      <trkpt lat="48.98538" lon="3.26035">
        <ele>119.9</ele>
        <time>2020-07-01T10:08:12Z</time>
      </trkpt>
      <trkpt lat="48.98535" lon="3.26034">
        <ele>120.1</ele>
        <time>2020-07-01T10:08:13Z</time>
      </trkpt>
      <trkpt lat="48.98534" lon="3.26034">
        <ele>120.1</ele>
        <time>2020-07-01T10:08:14Z</time>
      </trkpt>
      <trkpt lat="48.98531" lon="3.26033">
        <ele>120.3</ele>
        <time>2020-07-01T10:08:15Z</time>
      </trkpt>
      <trkpt lat="48.98529" lon="3.26032">
        <ele>120.5</ele>
        <time>2020-07-01T10:08:16Z</time>
      </trkpt>
      <trkpt lat="48.98525" lon="3.26032">
        <ele>120.7</ele>
        <time>2020-07-01T10:08:17Z</time>
      </trkpt>
      <trkpt lat="48.98524" lon="3.26032">
        <ele>120.7</ele>
        <time>2020-07-01T10:08:18Z</time>
      </trkpt>
      <trkpt lat="48.98521" lon="3.2603">
        <ele>120.9</ele>
        <time>2020-07-01T10:08:19Z</time>
      </trkpt>
      <trkpt lat="48.98519" lon="3.2603">
        <ele>121</ele>
        <time>2020-07-01T10:08:20Z</time>
      </trkpt>
      <trkpt lat="48.98515" lon="3.26029">
        <ele>121.3</ele>
        <time>2020-07-01T10:08:21Z</time>
      </trkpt>
      <trkpt lat="48.98514" lon="3.26028">
        <ele>121.4</ele>
        <time>2020-07-01T10:08:22Z</time>
      </trkpt>
      <trkpt lat="48.9851" lon="3.26027">
        <ele>121.6</ele>
        <time>2020-07-01T10:08:23Z</time>
      </trkpt>
      <trkpt lat="48.98508" lon="3.26027">
        <ele>121.7</ele>
        <time>2020-07-01T10:08:24Z</time>
      </trkpt>
      <trkpt lat="48.98505" lon="3.26027">
        <ele>121.9</ele>
        <time>2020-07-01T10:08:25Z</time>
      </trkpt>
      <trkpt lat="48.98504" lon="3.26027">
        <ele>122</ele>
        <time>2020-07-01T10:08:26Z</time>
      </trkpt>
      <trkpt lat="48.98503" lon="3.26026">
        <ele>122</ele>
        <time>2020-07-01T10:08:27Z</time>
      </trkpt>
      <trkpt lat="48.98501" lon="3.26027">
        <ele>122.1</ele>
        <time>2020-07-01T10:08:28Z</time>
      </trkpt>
      <trkpt lat="48.98498" lon="3.26028">
        <ele>122.4</ele>
        <time>2020-07-01T10:08:29Z</time>
      </trkpt>
      <trkpt lat="48.98496" lon="3.26028">
        <ele>122.4</ele>
        <time>2020-07-01T10:08:30Z</time>
      </trkpt>
      <trkpt lat="48.98493" lon="3.26028">
        <ele>122.6</ele>
        <time>2020-07-01T10:08:31Z</time>
      </trkpt>
      <trkpt lat="48.98492" lon="3.26028">
        <ele>122.7</ele>
        <time>2020-07-01T10:08:32Z</time>
      </trkpt>
      <trkpt lat="48.98489" lon="3.26027">
        <ele>122.9</ele>
        <time>2020-07-01T10:08:33Z</time>
      </trkpt>
      <trkpt lat="48.98486" lon="3.26027">
        <ele>123.1</ele>
        <time>2020-07-01T10:08:34Z</time>
      </trkpt>
      <trkpt lat="48.98482" lon="3.26027">
        <ele>123.3</ele>
        <time>2020-07-01T10:08:35Z</time>
      </trkpt>
      <trkpt lat="48.9848" lon="3.26026">
        <ele>123.4</ele>
        <time>2020-07-01T10:08:36Z</time>
      </trkpt>
      <trkpt lat="48.98477" lon="3.26025">
        <ele>123.6</ele>
        <time>2020-07-01T10:08:37Z</time>
      </trkpt>
      <trkpt lat="48.98476" lon="3.26025">
        <ele>123.7</ele>
        <time>2020-07-01T10:08:38Z</time>
      </trkpt>
      <trkpt lat="48.98472" lon="3.26023">
        <ele>123.9</ele>
        <time>2020-07-01T10:08:39Z</time>
      </trkpt>
      <trkpt lat="48.9847" lon="3.26023">
        <ele>124</ele>
        <time>2020-07-01T10:08:40Z</time>
      </trkpt>
      <trkpt lat="48.98468" lon="3.26022">
        <ele>124.2</ele>
        <time>2020-07-01T10:08:41Z</time>
      </trkpt>
      <trkpt lat="48.98464" lon="3.26022">
        <ele>124.4</ele>
        <time>2020-07-01T10:08:42Z</time>
      </trkpt>
      <trkpt lat="48.98462" lon="3.2602">
        <ele>124.6</ele>
        <time>2020-07-01T10:08:43Z</time>
      </trkpt>
      <trkpt lat="48.9846" lon="3.2602">
        <ele>124.6</ele>
        <time>2020-07-01T10:08:44Z</time>
      </trkpt>
      <trkpt lat="48.98457" lon="3.26019">
        <ele>124.8</ele>
        <time>2020-07-01T10:08:45Z</time>
      </trkpt>
      <trkpt lat="48.98454" lon="3.26019">
        <ele>125.1</ele>
        <time>2020-07-01T10:08:46Z</time>
      </trkpt>
      <trkpt lat="48.98453" lon="3.26019">
        <ele>125.1</ele>
        <time>2020-07-01T10:08:47Z</time>
      </trkpt>
      <trkpt lat="48.98449" lon="3.26017">
        <ele>125.4</ele>
        <time>2020-07-01T10:08:48Z</time>
      </trkpt>
      <trkpt lat="48.98448" lon="3.26016">
        <ele>125.4</ele>
        <time>2020-07-01T10:08:49Z</time>
      </trkpt>
      <trkpt lat="48.98445" lon="3.26015">
        <ele>125.6</ele>
        <time>2020-07-01T10:08:50Z</time>
      </trkpt>
      <trkpt lat="48.98443" lon="3.26014">
        <ele>125.7</ele>
        <time>2020-07-01T10:08:51Z</time>
      </trkpt>
      <trkpt lat="48.9844" lon="3.26013">
        <ele>125.9</ele>
        <time>2020-07-01T10:08:52Z</time>
      </trkpt>
      <trkpt lat="48.98439" lon="3.26013">
        <ele>126</ele>
        <time>2020-07-01T10:08:53Z</time>
      </trkpt>
      <trkpt lat="48.98436" lon="3.26011">
        <ele>126.2</ele>
        <time>2020-07-01T10:08:54Z</time>
      </trkpt>
      <trkpt lat="48.98435" lon="3.2601">
        <ele>126.2</ele>
        <time>2020-07-01T10:08:55Z</time>
      </trkpt>
      <trkpt lat="48.98432" lon="3.26008">
        <ele>126.4</ele>
        <time>2020-07-01T10:08:56Z</time>
      </trkpt>
      <trkpt lat="48.98431" lon="3.26007">
        <ele>126.5</ele>
        <time>2020-07-01T10:08:57Z</time>
      </trkpt>
      <trkpt lat="48.98429" lon="3.26007">
        <ele>126.6</ele>
        <time>2020-07-01T10:08:58Z</time>
      </trkpt>
      <trkpt lat="48.98428" lon="3.26006">
        <ele>126.6</ele>
        <time>2020-07-01T10:08:59Z</time>
      </trkpt>
      <trkpt lat="48.98426" lon="3.26003">
        <ele>126.8</ele>
        <time>2020-07-01T10:09:00Z</time>
      </trkpt>
      <trkpt lat="48.98425" lon="3.26002">
        <ele>126.8</ele>
        <time>2020-07-01T10:09:01Z</time>
      </trkpt>
      <trkpt lat="48.98422" lon="3.26001">
        <ele>127</ele>
        <time>2020-07-01T10:09:02Z</time>
      </trkpt>
      <trkpt lat="48.98421" lon="3.26">
        <ele>127</ele>
        <time>2020-07-01T10:09:03Z</time>
      </trkpt>
      <trkpt lat="48.98419" lon="3.25998">
        <ele>127.4</ele>
        <time>2020-07-01T10:09:04Z</time>
      </trkpt>
      <trkpt lat="48.98418" lon="3.25998">
        <ele>127.4</ele>
        <time>2020-07-01T10:09:05Z</time>
      </trkpt>
      <trkpt lat="48.98416" lon="3.25995">
        <ele>127.6</ele>
        <time>2020-07-01T10:09:06Z</time>
      </trkpt>
      <trkpt lat="48.98415" lon="3.25994">
        <ele>127.7</ele>
        <time>2020-07-01T10:09:07Z</time>
      </trkpt>
      <trkpt lat="48.98413" lon="3.25991">
        <ele>127.9</ele>
        <time>2020-07-01T10:09:08Z</time>
      </trkpt>
      <trkpt lat="48.98412" lon="3.2599">
        <ele>127.9</ele>
        <time>2020-07-01T10:09:09Z</time>
      </trkpt>
      <trkpt lat="48.98409" lon="3.25987">
        <ele>128.2</ele>
        <time>2020-07-01T10:09:10Z</time>
      </trkpt>
      <trkpt lat="48.98408" lon="3.25987">
        <ele>128.2</ele>
        <time>2020-07-01T10:09:11Z</time>
      </trkpt>
      <trkpt lat="48.98406" lon="3.25985">
        <ele>128.4</ele>
        <time>2020-07-01T10:09:12Z</time>
      </trkpt>
      <trkpt lat="48.98402" lon="3.25982">
        <ele>128.7</ele>
        <time>2020-07-01T10:09:13Z</time>
      </trkpt>
      <trkpt lat="48.98401" lon="3.25982">
        <ele>128.7</ele>
        <time>2020-07-01T10:09:14Z</time>
      </trkpt>
      <trkpt lat="48.98398" lon="3.25978">
        <ele>129</ele>
        <time>2020-07-01T10:09:15Z</time>
      </trkpt>
      <trkpt lat="48.98397" lon="3.25977">
        <ele>129.1</ele>
        <time>2020-07-01T10:09:16Z</time>
      </trkpt>
      <trkpt lat="48.98394" lon="3.25975">
        <ele>129.3</ele>
        <time>2020-07-01T10:09:17Z</time>
      </trkpt>
      <trkpt lat="48.98393" lon="3.25974">
        <ele>129.4</ele>
        <time>2020-07-01T10:09:18Z</time>
      </trkpt>
      <trkpt lat="48.9839" lon="3.25971">
        <ele>129.6</ele>
        <time>2020-07-01T10:09:19Z</time>
      </trkpt>
      <trkpt lat="48.9839" lon="3.2597">
        <ele>129.6</ele>
        <time>2020-07-01T10:09:20Z</time>
      </trkpt>
      <trkpt lat="48.98387" lon="3.25967">
        <ele>129.8</ele>
        <time>2020-07-01T10:09:21Z</time>
      </trkpt>
      <trkpt lat="48.98386" lon="3.25966">
        <ele>129.9</ele>
        <time>2020-07-01T10:09:22Z</time>
      </trkpt>
      <trkpt lat="48.98383" lon="3.25963">
        <ele>130.2</ele>
        <time>2020-07-01T10:09:23Z</time>
      </trkpt>
      <trkpt lat="48.98382" lon="3.25962">
        <ele>130.2</ele>
        <time>2020-07-01T10:09:24Z</time>
      </trkpt>
      <trkpt lat="48.98379" lon="3.25959">
        <ele>130.5</ele>
        <time>2020-07-01T10:09:25Z</time>
      </trkpt>
      <trkpt lat="48.98378" lon="3.25959">
        <ele>130.5</ele>
        <time>2020-07-01T10:09:26Z</time>
      </trkpt>
      <trkpt lat="48.98375" lon="3.25957">
        <ele>130.7</ele>
        <time>2020-07-01T10:09:27Z</time>
      </trkpt>
      <trkpt lat="48.98371" lon="3.25955">
        <ele>131</ele>
        <time>2020-07-01T10:09:28Z</time>
      </trkpt>
      <trkpt lat="48.9837" lon="3.25954">
        <ele>131.1</ele>
        <time>2020-07-01T10:09:29Z</time>
      </trkpt>
      <trkpt lat="48.98367" lon="3.25951">
        <ele>131.3</ele>
        <time>2020-07-01T10:09:30Z</time>
      </trkpt>
      <trkpt lat="48.98366" lon="3.2595">
        <ele>131.4</ele>
        <time>2020-07-01T10:09:31Z</time>
      </trkpt>
      <trkpt lat="48.98362" lon="3.25949">
        <ele>131.6</ele>
        <time>2020-07-01T10:09:32Z</time>
      </trkpt>
      <trkpt lat="48.98361" lon="3.25948">
        <ele>131.7</ele>
        <time>2020-07-01T10:09:33Z</time>
      </trkpt>
      <trkpt lat="48.98357" lon="3.25946">
        <ele>131.9</ele>
        <time>2020-07-01T10:09:34Z</time>
      </trkpt>
      <trkpt lat="48.98356" lon="3.25945">
        <ele>132</ele>
        <time>2020-07-01T10:09:35Z</time>
      </trkpt>
      <trkpt lat="48.98354" lon="3.25943">
        <ele>132.2</ele>
        <time>2020-07-01T10:09:36Z</time>
      </trkpt>
      <trkpt lat="48.98351" lon="3.25941">
        <ele>132.4</ele>
        <time>2020-07-01T10:09:37Z</time>
      </trkpt>
      <trkpt lat="48.98349" lon="3.2594">
        <ele>132.4</ele>
        <time>2020-07-01T10:09:38Z</time>
      </trkpt>
      <trkpt lat="48.98347" lon="3.25938">
        <ele>132.6</ele>
        <time>2020-07-01T10:09:39Z</time>
      </trkpt>
      <trkpt lat="48.98344" lon="3.25937">
        <ele>132.8</ele>
        <time>2020-07-01T10:09:40Z</time>
      </trkpt>
      <trkpt lat="48.98341" lon="3.25936">
        <ele>133</ele>
        <time>2020-07-01T10:09:41Z</time>
      </trkpt>
      <trkpt lat="48.98337" lon="3.25935">
        <ele>133.3</ele>
        <time>2020-07-01T10:09:42Z</time>
      </trkpt>
      <trkpt lat="48.98336" lon="3.25935">
        <ele>133.3</ele>
        <time>2020-07-01T10:09:43Z</time>
      </trkpt>
      <trkpt lat="48.98332" lon="3.25934">
        <ele>133.6</ele>
        <time>2020-07-01T10:09:44Z</time>
      </trkpt>
      <trkpt lat="48.98331" lon="3.25933">
        <ele>133.6</ele>
        <time>2020-07-01T10:09:45Z</time>
      </trkpt>
      <trkpt lat="48.98328" lon="3.25933">
        <ele>133.8</ele>
        <time>2020-07-01T10:09:46Z</time>
      </trkpt>
      <trkpt lat="48.98327" lon="3.25933">
        <ele>133.9</ele>
        <time>2020-07-01T10:09:47Z</time>
      </trkpt>
      <trkpt lat="48.98324" lon="3.25934">
        <ele>134.1</ele>
        <time>2020-07-01T10:09:48Z</time>
      </trkpt>
      <trkpt lat="48.98321" lon="3.25934">
        <ele>134.2</ele>
        <time>2020-07-01T10:09:49Z</time>
      </trkpt>
      <trkpt lat="48.98318" lon="3.25933">
        <ele>134.4</ele>
        <time>2020-07-01T10:09:50Z</time>
      </trkpt>
      <trkpt lat="48.98314" lon="3.25932">
        <ele>134.6</ele>
        <time>2020-07-01T10:09:51Z</time>
      </trkpt>
      <trkpt lat="48.98311" lon="3.25931">
        <ele>134.7</ele>
        <time>2020-07-01T10:09:52Z</time>
      </trkpt>
      <trkpt lat="48.98308" lon="3.25931">
        <ele>134.9</ele>
        <time>2020-07-01T10:09:53Z</time>
      </trkpt>
      <trkpt lat="48.98305" lon="3.2593">
        <ele>135</ele>
        <time>2020-07-01T10:09:54Z</time>
      </trkpt>
      <trkpt lat="48.98303" lon="3.25929">
        <ele>135.2</ele>
        <time>2020-07-01T10:09:55Z</time>
      </trkpt>
      <trkpt lat="48.983" lon="3.25928">
        <ele>135.3</ele>
        <time>2020-07-01T10:09:56Z</time>
      </trkpt>
      <trkpt lat="48.98297" lon="3.25927">
        <ele>135.4</ele>
        <time>2020-07-01T10:09:57Z</time>
      </trkpt>
      <trkpt lat="48.98294" lon="3.25927">
        <ele>135.5</ele>
        <time>2020-07-01T10:09:58Z</time>
      </trkpt>
      <trkpt lat="48.98291" lon="3.25926">
        <ele>135.7</ele>
        <time>2020-07-01T10:09:59Z</time>
      </trkpt>
      <trkpt lat="48.98287" lon="3.25926">
        <ele>135.8</ele>
        <time>2020-07-01T10:10:00Z</time>
      </trkpt>
      <trkpt lat="48.98285" lon="3.25926">
        <ele>135.9</ele>
        <time>2020-07-01T10:10:01Z</time>
      </trkpt>
      <trkpt lat="48.98282" lon="3.25925">
        <ele>136</ele>
        <time>2020-07-01T10:10:02Z</time>
      </trkpt>
      <trkpt lat="48.9828" lon="3.25925">
        <ele>136</ele>
        <time>2020-07-01T10:10:03Z</time>
      </trkpt>
      <trkpt lat="48.98277" lon="3.25924">
        <ele>136.2</ele>
        <time>2020-07-01T10:10:04Z</time>
      </trkpt>
      <trkpt lat="48.98274" lon="3.25923">
        <ele>136.3</ele>
        <time>2020-07-01T10:10:05Z</time>
      </trkpt>
      <trkpt lat="48.9827" lon="3.25922">
        <ele>136.4</ele>
        <time>2020-07-01T10:10:06Z</time>
      </trkpt>
      <trkpt lat="48.98269" lon="3.25922">
        <ele>136.5</ele>
        <time>2020-07-01T10:10:07Z</time>
      </trkpt>
      <trkpt lat="48.98266" lon="3.25922">
        <ele>136.6</ele>
        <time>2020-07-01T10:10:08Z</time>
      </trkpt>
      <trkpt lat="48.98262" lon="3.25922">
        <ele>136.7</ele>
        <time>2020-07-01T10:10:09Z</time>
      </trkpt>
      <trkpt lat="48.98261" lon="3.25921">
        <ele>136.8</ele>
        <time>2020-07-01T10:10:10Z</time>
      </trkpt>
      <trkpt lat="48.98257" lon="3.2592">
        <ele>136.9</ele>
        <time>2020-07-01T10:10:11Z</time>
      </trkpt>
      <trkpt lat="48.98256" lon="3.2592">
        <ele>137</ele>
        <time>2020-07-01T10:10:12Z</time>
      </trkpt>
      <trkpt lat="48.98253" lon="3.25919">
        <ele>137.1</ele>
        <time>2020-07-01T10:10:13Z</time>
      </trkpt>
      <trkpt lat="48.98252" lon="3.25918">
        <ele>137.2</ele>
        <time>2020-07-01T10:10:14Z</time>
      </trkpt>
      <trkpt lat="48.98249" lon="3.25918">
        <ele>137.3</ele>
        <time>2020-07-01T10:10:15Z</time>
      </trkpt>
      <trkpt lat="48.98246" lon="3.25918">
        <ele>137.4</ele>
        <time>2020-07-01T10:10:16Z</time>
      </trkpt>
      <trkpt lat="48.98243" lon="3.25918">
        <ele>137.5</ele>
        <time>2020-07-01T10:10:17Z</time>
      </trkpt>
      <trkpt lat="48.9824" lon="3.25917">
        <ele>137.6</ele>
        <time>2020-07-01T10:10:18Z</time>
      </trkpt>
      <trkpt lat="48.98239" lon="3.25917">
        <ele>137.7</ele>
        <time>2020-07-01T10:10:19Z</time>
      </trkpt>
      <trkpt lat="48.98235" lon="3.25918">
        <ele>137.9</ele>
        <time>2020-07-01T10:10:20Z</time>
      </trkpt>
      <trkpt lat="48.98233" lon="3.25918">
        <ele>137.9</ele>
        <time>2020-07-01T10:10:21Z</time>
      </trkpt>
      <trkpt lat="48.9823" lon="3.25918">
        <ele>138</ele>
        <time>2020-07-01T10:10:22Z</time>
      </trkpt>
      <trkpt lat="48.98228" lon="3.25917">
        <ele>138.2</ele>
        <time>2020-07-01T10:10:23Z</time>
      </trkpt>
      <trkpt lat="48.98225" lon="3.25917">
        <ele>138.3</ele>
        <time>2020-07-01T10:10:24Z</time>
      </trkpt>
      <trkpt lat="48.98221" lon="3.25916">
        <ele>138.5</ele>
        <time>2020-07-01T10:10:25Z</time>
      </trkpt>
      <trkpt lat="48.98219" lon="3.25915">
        <ele>138.5</ele>
        <time>2020-07-01T10:10:26Z</time>
      </trkpt>
      <trkpt lat="48.98216" lon="3.25914">
        <ele>138.7</ele>
        <time>2020-07-01T10:10:27Z</time>
      </trkpt>
      <trkpt lat="48.98213" lon="3.25913">
        <ele>138.8</ele>
        <time>2020-07-01T10:10:28Z</time>
      </trkpt>
      <trkpt lat="48.9821" lon="3.25913">
        <ele>139</ele>
        <time>2020-07-01T10:10:29Z</time>
      </trkpt>
      <trkpt lat="48.98207" lon="3.25912">
        <ele>139.1</ele>
        <time>2020-07-01T10:10:30Z</time>
      </trkpt>
      <trkpt lat="48.98203" lon="3.25912">
        <ele>139.3</ele>
        <time>2020-07-01T10:10:31Z</time>
      </trkpt>
      <trkpt lat="48.98201" lon="3.25912">
        <ele>139.4</ele>
        <time>2020-07-01T10:10:32Z</time>
      </trkpt>
      <trkpt lat="48.98198" lon="3.2591">
        <ele>139.6</ele>
        <time>2020-07-01T10:10:33Z</time>
      </trkpt>
      <trkpt lat="48.98197" lon="3.25909">
        <ele>139.7</ele>
        <time>2020-07-01T10:10:34Z</time>
      </trkpt>
      <trkpt lat="48.98194" lon="3.25906">
        <ele>139.9</ele>
        <time>2020-07-01T10:10:35Z</time>
      </trkpt>
      <trkpt lat="48.98193" lon="3.25906">
        <ele>140</ele>
        <time>2020-07-01T10:10:36Z</time>
      </trkpt>
      <trkpt lat="48.98189" lon="3.25904">
        <ele>140.2</ele>
        <time>2020-07-01T10:10:37Z</time>
      </trkpt>
      <trkpt lat="48.98188" lon="3.25903">
        <ele>140.3</ele>
        <time>2020-07-01T10:10:38Z</time>
      </trkpt>
      <trkpt lat="48.98185" lon="3.25902">
        <ele>140.4</ele>
        <time>2020-07-01T10:10:39Z</time>
      </trkpt>
      <trkpt lat="48.98184" lon="3.25902">
        <ele>140.5</ele>
        <time>2020-07-01T10:10:40Z</time>
      </trkpt>
      <trkpt lat="48.98181" lon="3.259">
        <ele>140.7</ele>
        <time>2020-07-01T10:10:41Z</time>
      </trkpt>
      <trkpt lat="48.9818" lon="3.259">
        <ele>140.8</ele>
        <time>2020-07-01T10:10:42Z</time>
      </trkpt>
      <trkpt lat="48.98177" lon="3.25898">
        <ele>140.9</ele>
        <time>2020-07-01T10:10:43Z</time>
      </trkpt>
      <trkpt lat="48.98176" lon="3.25897">
        <ele>141</ele>
        <time>2020-07-01T10:10:44Z</time>
      </trkpt>
      <trkpt lat="48.98173" lon="3.25895">
        <ele>141.2</ele>
        <time>2020-07-01T10:10:45Z</time>
      </trkpt>
      <trkpt lat="48.98172" lon="3.25894">
        <ele>141.3</ele>
        <time>2020-07-01T10:10:46Z</time>
      </trkpt>
      <trkpt lat="48.98169" lon="3.25891">
        <ele>141.5</ele>
        <time>2020-07-01T10:10:47Z</time>
      </trkpt>
      <trkpt lat="48.98168" lon="3.2589">
        <ele>141.5</ele>
        <time>2020-07-01T10:10:48Z</time>
      </trkpt>
      <trkpt lat="48.98165" lon="3.25888">
        <ele>141.8</ele>
        <time>2020-07-01T10:10:49Z</time>
      </trkpt>
      <trkpt lat="48.98164" lon="3.25887">
        <ele>141.8</ele>
        <time>2020-07-01T10:10:50Z</time>
      </trkpt>
      <trkpt lat="48.98162" lon="3.25885">
        <ele>142</ele>
        <time>2020-07-01T10:10:51Z</time>
      </trkpt>
      <trkpt lat="48.98159" lon="3.25882">
        <ele>142.3</ele>
        <time>2020-07-01T10:10:52Z</time>
      </trkpt>
      <trkpt lat="48.98158" lon="3.25881">
        <ele>142.3</ele>
        <time>2020-07-01T10:10:53Z</time>
      </trkpt>
      <trkpt lat="48.98154" lon="3.25879">
        <ele>142.6</ele>
        <time>2020-07-01T10:10:54Z</time>
      </trkpt>
      <trkpt lat="48.98152" lon="3.25878">
        <ele>142.7</ele>
        <time>2020-07-01T10:10:55Z</time>
      </trkpt>
      <trkpt lat="48.98149" lon="3.25876">
        <ele>143</ele>
        <time>2020-07-01T10:10:56Z</time>
      </trkpt>
      <trkpt lat="48.98148" lon="3.25875">
        <ele>143.1</ele>
        <time>2020-07-01T10:10:57Z</time>
      </trkpt>
      <trkpt lat="48.98145" lon="3.25872">
        <ele>143.3</ele>
        <time>2020-07-01T10:10:58Z</time>
      </trkpt>
      <trkpt lat="48.98143" lon="3.25869">
        <ele>143.5</ele>
        <time>2020-07-01T10:10:59Z</time>
      </trkpt>
      <trkpt lat="48.98141" lon="3.25866">
        <ele>143.6</ele>
        <time>2020-07-01T10:11:00Z</time>
      </trkpt>
      <trkpt lat="48.98138" lon="3.25862">
        <ele>143.9</ele>
        <time>2020-07-01T10:11:01Z</time>
      </trkpt>
      <trkpt lat="48.98137" lon="3.25861">
        <ele>144</ele>
        <time>2020-07-01T10:11:02Z</time>
      </trkpt>
      <trkpt lat="48.98134" lon="3.25858">
        <ele>144.2</ele>
        <time>2020-07-01T10:11:03Z</time>
      </trkpt>
      <trkpt lat="48.98133" lon="3.25857">
        <ele>144.3</ele>
        <time>2020-07-01T10:11:04Z</time>
      </trkpt>
      <trkpt lat="48.9813" lon="3.25855">
        <ele>144.5</ele>
        <time>2020-07-01T10:11:05Z</time>
      </trkpt>
      <trkpt lat="48.98129" lon="3.25854">
        <ele>144.6</ele>
        <time>2020-07-01T10:11:06Z</time>
      </trkpt>
      <trkpt lat="48.98126" lon="3.25851">
        <ele>144.8</ele>
        <time>2020-07-01T10:11:07Z</time>
      </trkpt>
      <trkpt lat="48.98126" lon="3.25851">
        <ele>144.9</ele>
        <time>2020-07-01T10:11:08Z</time>
      </trkpt>
      <trkpt lat="48.98124" lon="3.2585">
        <ele>145</ele>
        <time>2020-07-01T10:11:09Z</time>
      </trkpt>
      <trkpt lat="48.98123" lon="3.25849">
        <ele>145.1</ele>
        <time>2020-07-01T10:11:10Z</time>
      </trkpt>
      <trkpt lat="48.9812" lon="3.25845">
        <ele>145.3</ele>
        <time>2020-07-01T10:11:11Z</time>
      </trkpt>
      <trkpt lat="48.98119" lon="3.25844">
        <ele>145.4</ele>
        <time>2020-07-01T10:11:12Z</time>
      </trkpt>
      <trkpt lat="48.98116" lon="3.25841">
        <ele>145.7</ele>
        <time>2020-07-01T10:11:13Z</time>
      </trkpt>
      <trkpt lat="48.98115" lon="3.2584">
        <ele>145.7</ele>
        <time>2020-07-01T10:11:14Z</time>
      </trkpt>
      <trkpt lat="48.98112" lon="3.25837">
        <ele>146</ele>
        <time>2020-07-01T10:11:15Z</time>
      </trkpt>
      <trkpt lat="48.98111" lon="3.25837">
        <ele>146.1</ele>
        <time>2020-07-01T10:11:16Z</time>
      </trkpt>
      <trkpt lat="48.98109" lon="3.25834">
        <ele>146.3</ele>
        <time>2020-07-01T10:11:17Z</time>
      </trkpt>
      <trkpt lat="48.98108" lon="3.25833">
        <ele>146.3</ele>
        <time>2020-07-01T10:11:18Z</time>
      </trkpt>
      <trkpt lat="48.98106" lon="3.25832">
        <ele>146.4</ele>
        <time>2020-07-01T10:11:19Z</time>
      </trkpt>
      <trkpt lat="48.98105" lon="3.2583">
        <ele>146.6</ele>
        <time>2020-07-01T10:11:20Z</time>
      </trkpt>
      <trkpt lat="48.98102" lon="3.25827">
        <ele>146.8</ele>
        <time>2020-07-01T10:11:21Z</time>
      </trkpt>
      <trkpt lat="48.98102" lon="3.25825">
        <ele>146.8</ele>
        <time>2020-07-01T10:11:22Z</time>
      </trkpt>
      <trkpt lat="48.98099" lon="3.25823">
        <ele>147</ele>
        <time>2020-07-01T10:11:23Z</time>
      </trkpt>
      <trkpt lat="48.98097" lon="3.2582">
        <ele>147.2</ele>
        <time>2020-07-01T10:11:24Z</time>
      </trkpt>
      <trkpt lat="48.98096" lon="3.2582">
        <ele>147.3</ele>
        <time>2020-07-01T10:11:25Z</time>
      </trkpt>
      <trkpt lat="48.98093" lon="3.25817">
        <ele>147.5</ele>
        <time>2020-07-01T10:11:26Z</time>
      </trkpt>
      <trkpt lat="48.98092" lon="3.25817">
        <ele>147.6</ele>
        <time>2020-07-01T10:11:27Z</time>
      </trkpt>
      <trkpt lat="48.98089" lon="3.25813">
        <ele>147.8</ele>
        <time>2020-07-01T10:11:28Z</time>
      </trkpt>
      <trkpt lat="48.98088" lon="3.25812">
        <ele>147.9</ele>
        <time>2020-07-01T10:11:29Z</time>
      </trkpt>
      <trkpt lat="48.98086" lon="3.2581">
        <ele>148.1</ele>
        <time>2020-07-01T10:11:30Z</time>
      </trkpt>
      <trkpt lat="48.98082" lon="3.25806">
        <ele>148.4</ele>
        <time>2020-07-01T10:11:31Z</time>
      </trkpt>
      <trkpt lat="48.98081" lon="3.25805">
        <ele>148.4</ele>
        <time>2020-07-01T10:11:32Z</time>
      </trkpt>
      <trkpt lat="48.98078" lon="3.25803">
        <ele>148.6</ele>
        <time>2020-07-01T10:11:33Z</time>
      </trkpt>
      <trkpt lat="48.98076" lon="3.25801">
        <ele>148.8</ele>
        <time>2020-07-01T10:11:34Z</time>
      </trkpt>
      <trkpt lat="48.98074" lon="3.25798">
        <ele>149</ele>
        <time>2020-07-01T10:11:35Z</time>
      </trkpt>
      <trkpt lat="48.98071" lon="3.25795">
        <ele>149.2</ele>
        <time>2020-07-01T10:11:36Z</time>
      </trkpt>
      <trkpt lat="48.9807" lon="3.25794">
        <ele>149.2</ele>
        <time>2020-07-01T10:11:37Z</time>
      </trkpt>
      <trkpt lat="48.98067" lon="3.25791">
        <ele>149.4</ele>
        <time>2020-07-01T10:11:38Z</time>
      </trkpt>
      <trkpt lat="48.98066" lon="3.25789">
        <ele>149.5</ele>
        <time>2020-07-01T10:11:39Z</time>
      </trkpt>
      <trkpt lat="48.98064" lon="3.25786">
        <ele>149.7</ele>
        <time>2020-07-01T10:11:40Z</time>
      </trkpt>
      <trkpt lat="48.98063" lon="3.25781">
        <ele>149.8</ele>
        <time>2020-07-01T10:11:41Z</time>
      </trkpt>
      <trkpt lat="48.98061" lon="3.25778">
        <ele>150</ele>
        <time>2020-07-01T10:11:42Z</time>
      </trkpt>
      <trkpt lat="48.98059" lon="3.25773">
        <ele>150.1</ele>
        <time>2020-07-01T10:11:43Z</time>
      </trkpt>
      <trkpt lat="48.98057" lon="3.25769">
        <ele>150.3</ele>
        <time>2020-07-01T10:11:44Z</time>
      </trkpt>
      <trkpt lat="48.98056" lon="3.25768">
        <ele>150.4</ele>
        <time>2020-07-01T10:11:45Z</time>
      </trkpt>
      <trkpt lat="48.98054" lon="3.25763">
        <ele>150.6</ele>
        <time>2020-07-01T10:11:46Z</time>
      </trkpt>
      <trkpt lat="48.98054" lon="3.25761">
        <ele>150.7</ele>
        <time>2020-07-01T10:11:47Z</time>
      </trkpt>
      <trkpt lat="48.98053" lon="3.25757">
        <ele>150.8</ele>
        <time>2020-07-01T10:11:48Z</time>
      </trkpt>
      <trkpt lat="48.98051" lon="3.25753">
        <ele>150.9</ele>
        <time>2020-07-01T10:11:49Z</time>
      </trkpt>
      <trkpt lat="48.98049" lon="3.25748">
        <ele>151</ele>
        <time>2020-07-01T10:11:50Z</time>
      </trkpt>
      <trkpt lat="48.98048" lon="3.25745">
        <ele>151.1</ele>
        <time>2020-07-01T10:11:51Z</time>
      </trkpt>
      <trkpt lat="48.98047" lon="3.25741">
        <ele>151.1</ele>
        <time>2020-07-01T10:11:52Z</time>
      </trkpt>
      <trkpt lat="48.98046" lon="3.25735">
        <ele>151.2</ele>
        <time>2020-07-01T10:11:53Z</time>
      </trkpt>
      <trkpt lat="48.98046" lon="3.25733">
        <ele>151.3</ele>
        <time>2020-07-01T10:11:54Z</time>
      </trkpt>
      <trkpt lat="48.98045" lon="3.25728">
        <ele>151.3</ele>
        <time>2020-07-01T10:11:55Z</time>
      </trkpt>
      <trkpt lat="48.98043" lon="3.25723">
        <ele>151.4</ele>
        <time>2020-07-01T10:11:56Z</time>
      </trkpt>
      <trkpt lat="48.98042" lon="3.25721">
        <ele>151.4</ele>
        <time>2020-07-01T10:11:57Z</time>
      </trkpt>
      <trkpt lat="48.98041" lon="3.25716">
        <ele>151.4</ele>
        <time>2020-07-01T10:11:58Z</time>
      </trkpt>
      <trkpt lat="48.9804" lon="3.25711">
        <ele>151.4</ele>
        <time>2020-07-01T10:11:59Z</time>
      </trkpt>
      <trkpt lat="48.98039" lon="3.25706">
        <ele>151.4</ele>
        <time>2020-07-01T10:12:00Z</time>
      </trkpt>
      <trkpt lat="48.98038" lon="3.257">
        <ele>151.4</ele>
        <time>2020-07-01T10:12:01Z</time>
      </trkpt>
      <trkpt lat="48.98037" lon="3.25694">
        <ele>151.4</ele>
        <time>2020-07-01T10:12:02Z</time>
      </trkpt>
      <trkpt lat="48.98035" lon="3.2569">
        <ele>151.4</ele>
        <time>2020-07-01T10:12:03Z</time>
      </trkpt>
      <trkpt lat="48.98034" lon="3.25685">
        <ele>151.4</ele>
        <time>2020-07-01T10:12:04Z</time>
      </trkpt>
      <trkpt lat="48.98032" lon="3.25681">
        <ele>151.4</ele>
        <time>2020-07-01T10:12:05Z</time>
      </trkpt>
      <trkpt lat="48.98031" lon="3.25675">
        <ele>151.3</ele>
        <time>2020-07-01T10:12:06Z</time>
      </trkpt>
      <trkpt lat="48.9803" lon="3.2567">
        <ele>151.3</ele>
        <time>2020-07-01T10:12:07Z</time>
      </trkpt>
      <trkpt lat="48.98029" lon="3.25666">
        <ele>151.3</ele>
        <time>2020-07-01T10:12:08Z</time>
      </trkpt>
      <trkpt lat="48.98028" lon="3.25661">
        <ele>151.2</ele>
        <time>2020-07-01T10:12:09Z</time>
      </trkpt>
      <trkpt lat="48.98027" lon="3.25656">
        <ele>151.2</ele>
        <time>2020-07-01T10:12:10Z</time>
      </trkpt>
      <trkpt lat="48.98026" lon="3.25651">
        <ele>151.2</ele>
        <time>2020-07-01T10:12:11Z</time>
      </trkpt>
      <trkpt lat="48.98025" lon="3.25646">
        <ele>151.1</ele>
        <time>2020-07-01T10:12:12Z</time>
      </trkpt>
      <trkpt lat="48.98024" lon="3.25642">
        <ele>151.1</ele>
        <time>2020-07-01T10:12:13Z</time>
      </trkpt>
      <trkpt lat="48.98022" lon="3.25637">
        <ele>151.1</ele>
        <time>2020-07-01T10:12:14Z</time>
      </trkpt>
      <trkpt lat="48.98021" lon="3.25636">
        <ele>151</ele>
        <time>2020-07-01T10:12:15Z</time>
      </trkpt>
      <trkpt lat="48.98019" lon="3.25631">
        <ele>151</ele>
        <time>2020-07-01T10:12:16Z</time>
      </trkpt>
      <trkpt lat="48.98018" lon="3.25629">
        <ele>151</ele>
        <time>2020-07-01T10:12:17Z</time>
      </trkpt>
      <trkpt lat="48.98017" lon="3.25627">
        <ele>150.9</ele>
        <time>2020-07-01T10:12:18Z</time>
      </trkpt>
      <trkpt lat="48.98016" lon="3.25625">
        <ele>150.9</ele>
        <time>2020-07-01T10:12:19Z</time>
      </trkpt>
      <trkpt lat="48.98016" lon="3.25622">
        <ele>150.9</ele>
        <time>2020-07-01T10:12:20Z</time>
      </trkpt>
      <trkpt lat="48.98015" lon="3.2562">
        <ele>150.8</ele>
        <time>2020-07-01T10:12:21Z</time>
      </trkpt>
      <trkpt lat="48.98014" lon="3.25618">
        <ele>150.8</ele>
        <time>2020-07-01T10:12:22Z</time>
      </trkpt>
      <trkpt lat="48.98013" lon="3.25615">
        <ele>150.8</ele>
        <time>2020-07-01T10:12:23Z</time>
      </trkpt>
      <trkpt lat="48.98012" lon="3.25613">
        <ele>150.7</ele>
        <time>2020-07-01T10:12:24Z</time>
      </trkpt>
      <trkpt lat="48.98012" lon="3.25612">
        <ele>150.7</ele>
        <time>2020-07-01T10:12:25Z</time>
      </trkpt>
      <trkpt lat="48.98012" lon="3.25612">
        <ele>150.7</ele>
        <time>2020-07-01T10:12:26Z</time>
      </trkpt>
      <trkpt lat="48.98014" lon="3.25613">
        <ele>150.7</ele>
        <time>2020-07-01T10:12:27Z</time>
      </trkpt>
      <trkpt lat="48.98014" lon="3.25613">
        <ele>150.7</ele>
        <time>2020-07-01T10:12:28Z</time>
      </trkpt>
      <trkpt lat="48.98014" lon="3.25613">
        <ele>150.7</ele>
        <time>2020-07-01T10:12:29Z</time>
      </trkpt>
      <trkpt lat="48.98014" lon="3.25614">
        <ele>150.7</ele>
        <time>2020-07-01T10:12:30Z</time>
      </trkpt>
      <trkpt lat="48.98014" lon="3.25614">
        <ele>150.7</ele>
        <time>2020-07-01T10:12:31Z</time>
      </trkpt>
      <trkpt lat="48.98014" lon="3.25614">
        <ele>150.7</ele>
        <time>2020-07-01T10:12:32Z</time>
      </trkpt>
      <trkpt lat="48.98015" lon="3.25614">
        <ele>150.7</ele>
        <time>2020-07-01T10:12:33Z</time>
      </trkpt>
      <trkpt lat="48.98015" lon="3.25614">
        <ele>150.7</ele>
        <time>2020-07-01T10:12:34Z</time>
      </trkpt>
      <trkpt lat="48.98015" lon="3.25614">
        <ele>150.7</ele>
        <time>2020-07-01T10:12:35Z</time>
      </trkpt>
      <trkpt lat="48.98015" lon="3.25614">
        <ele>150.7</ele>
        <time>2020-07-01T10:12:36Z</time>
      </trkpt>
      <trkpt lat="48.98014" lon="3.25612">
        <ele>150.6</ele>
        <time>2020-07-01T10:12:37Z</time>
      </trkpt>
      <trkpt lat="48.98011" lon="3.25604">
        <ele>150.5</ele>
        <time>2020-07-01T10:12:53Z</time>
      </trkpt>
      <trkpt lat="48.98009" lon="3.25605">
        <ele>150.5</ele>
        <time>2020-07-01T10:12:54Z</time>
      </trkpt>
      <trkpt lat="48.98008" lon="3.25605">
        <ele>150.5</ele>
        <time>2020-07-01T10:12:55Z</time>
      </trkpt>
      <trkpt lat="48.98008" lon="3.25606">
        <ele>150.5</ele>
        <time>2020-07-01T10:12:56Z</time>
      </trkpt>
      <trkpt lat="48.98008" lon="3.25606">
        <ele>150.5</ele>
        <time>2020-07-01T10:12:57Z</time>
      </trkpt>
      <trkpt lat="48.98008" lon="3.25606">
        <ele>150.5</ele>
        <time>2020-07-01T10:12:58Z</time>
      </trkpt>
      <trkpt lat="48.98008" lon="3.25607">
        <ele>150.5</ele>
        <time>2020-07-01T10:12:59Z</time>
      </trkpt>
      <trkpt lat="48.98007" lon="3.25607">
        <ele>150.5</ele>
        <time>2020-07-01T10:13:00Z</time>
      </trkpt>
      <trkpt lat="48.98007" lon="3.25607">
        <ele>150.5</ele>
        <time>2020-07-01T10:13:01Z</time>
      </trkpt>
      <trkpt lat="48.98007" lon="3.25607">
        <ele>150.5</ele>
        <time>2020-07-01T10:13:02Z</time>
      </trkpt>
      <trkpt lat="48.98007" lon="3.25607">
        <ele>150.5</ele>
        <time>2020-07-01T10:13:03Z</time>
      </trkpt>
      <trkpt lat="48.98007" lon="3.25607">
        <ele>150.5</ele>
        <time>2020-07-01T10:13:04Z</time>
      </trkpt>
      <trkpt lat="48.98007" lon="3.25607">
        <ele>150.5</ele>
        <time>2020-07-01T10:13:05Z</time>
      </trkpt>
      <trkpt lat="48.98007" lon="3.25607">
        <ele>150.5</ele>
        <time>2020-07-01T10:13:06Z</time>
      </trkpt>
      <trkpt lat="48.98012" lon="3.25593">
        <ele>150.3</ele>
        <time>2020-07-01T10:15:30Z</time>
      </trkpt>
      <trkpt lat="48.98012" lon="3.25593">
        <ele>150.2</ele>
        <time>2020-07-01T10:15:31Z</time>
      </trkpt>
      <trkpt lat="48.98013" lon="3.25593">
        <ele>150.2</ele>
        <time>2020-07-01T10:15:32Z</time>
      </trkpt>
      <trkpt lat="48.98013" lon="3.25592">
        <ele>150.2</ele>
        <time>2020-07-01T10:15:33Z</time>
      </trkpt>
      <trkpt lat="48.98013" lon="3.25592">
        <ele>150.2</ele>
        <time>2020-07-01T10:15:34Z</time>
      </trkpt>
      <trkpt lat="48.98013" lon="3.25592">
        <ele>150.2</ele>
        <time>2020-07-01T10:15:35Z</time>
      </trkpt>
      <trkpt lat="48.98013" lon="3.25592">
        <ele>150.2</ele>
        <time>2020-07-01T10:15:36Z</time>
      </trkpt>
      <trkpt lat="48.98013" lon="3.25592">
        <ele>150.2</ele>
        <time>2020-07-01T10:15:37Z</time>
      </trkpt>
      <trkpt lat="48.98013" lon="3.25592">
        <ele>150.2</ele>
        <time>2020-07-01T10:15:38Z</time>
      </trkpt>
      <trkpt lat="48.98013" lon="3.25592">
        <ele>150.2</ele>
        <time>2020-07-01T10:15:39Z</time>
      </trkpt>
      <trkpt lat="48.98014" lon="3.25592">
        <ele>150.2</ele>
        <time>2020-07-01T10:15:40Z</time>
      </trkpt>
      <trkpt lat="48.98014" lon="3.25592">
        <ele>150.2</ele>
        <time>2020-07-01T10:15:41Z</time>
      </trkpt>
      <trkpt lat="48.98014" lon="3.25592">
        <ele>150.2</ele>
        <time>2020-07-01T10:15:42Z</time>
      </trkpt>
      <trkpt lat="48.98014" lon="3.25592">
        <ele>150.2</ele>
        <time>2020-07-01T10:15:43Z</time>
      </trkpt>
      <trkpt lat="48.98008" lon="3.25583">
        <ele>149.9</ele>
        <time>2020-07-01T10:15:56Z</time>
      </trkpt>
      <trkpt lat="48.98007" lon="3.2558">
        <ele>149.9</ele>
        <time>2020-07-01T10:15:57Z</time>
      </trkpt>
      <trkpt lat="48.98005" lon="3.25576">
        <ele>149.8</ele>
        <time>2020-07-01T10:15:58Z</time>
      </trkpt>
      <trkpt lat="48.98005" lon="3.25575">
        <ele>149.7</ele>
        <time>2020-07-01T10:15:59Z</time>
      </trkpt>
      <trkpt lat="48.98005" lon="3.25573">
        <ele>149.7</ele>
        <time>2020-07-01T10:16:00Z</time>
      </trkpt>
      <trkpt lat="48.98004" lon="3.2557">
        <ele>149.6</ele>
        <time>2020-07-01T10:16:01Z</time>
      </trkpt>
      <trkpt lat="48.98003" lon="3.25566">
        <ele>149.5</ele>
        <time>2020-07-01T10:16:02Z</time>
      </trkpt>
      <trkpt lat="48.98003" lon="3.25565">
        <ele>149.5</ele>
        <time>2020-07-01T10:16:03Z</time>
      </trkpt>
      <trkpt lat="48.98001" lon="3.2556">
        <ele>149.4</ele>
        <time>2020-07-01T10:16:04Z</time>
      </trkpt>
      <trkpt lat="48.98001" lon="3.25559">
        <ele>149.3</ele>
        <time>2020-07-01T10:16:05Z</time>
      </trkpt>
      <trkpt lat="48.97999" lon="3.25555">
        <ele>149.2</ele>
        <time>2020-07-01T10:16:06Z</time>
      </trkpt>
      <trkpt lat="48.97999" lon="3.25553">
        <ele>149.2</ele>
        <time>2020-07-01T10:16:07Z</time>
      </trkpt>
      <trkpt lat="48.97997" lon="3.25548">
        <ele>149.1</ele>
        <time>2020-07-01T10:16:08Z</time>
      </trkpt>
      <trkpt lat="48.97997" lon="3.25546">
        <ele>149</ele>
        <time>2020-07-01T10:16:09Z</time>
      </trkpt>
      <trkpt lat="48.97995" lon="3.25542">
        <ele>148.9</ele>
        <time>2020-07-01T10:16:10Z</time>
      </trkpt>
      <trkpt lat="48.97994" lon="3.25536">
        <ele>148.8</ele>
        <time>2020-07-01T10:16:11Z</time>
      </trkpt>
      <trkpt lat="48.97994" lon="3.25534">
        <ele>148.7</ele>
        <time>2020-07-01T10:16:12Z</time>
      </trkpt>
      <trkpt lat="48.97992" lon="3.25529">
        <ele>148.6</ele>
        <time>2020-07-01T10:16:13Z</time>
      </trkpt>
      <trkpt lat="48.97991" lon="3.25524">
        <ele>148.5</ele>
        <time>2020-07-01T10:16:14Z</time>
      </trkpt>
      <trkpt lat="48.9799" lon="3.2552">
        <ele>148.3</ele>
        <time>2020-07-01T10:16:15Z</time>
      </trkpt>
      <trkpt lat="48.9799" lon="3.25515">
        <ele>148.2</ele>
        <time>2020-07-01T10:16:16Z</time>
      </trkpt>
      <trkpt lat="48.97989" lon="3.25511">
        <ele>148.1</ele>
        <time>2020-07-01T10:16:17Z</time>
      </trkpt>
      <trkpt lat="48.97987" lon="3.25507">
        <ele>148</ele>
        <time>2020-07-01T10:16:18Z</time>
      </trkpt>
      <trkpt lat="48.97986" lon="3.25502">
        <ele>147.8</ele>
        <time>2020-07-01T10:16:19Z</time>
      </trkpt>
      <trkpt lat="48.97984" lon="3.25497">
        <ele>147.7</ele>
        <time>2020-07-01T10:16:20Z</time>
      </trkpt>
      <trkpt lat="48.97983" lon="3.25493">
        <ele>147.5</ele>
        <time>2020-07-01T10:16:21Z</time>
      </trkpt>
      <trkpt lat="48.97981" lon="3.25487">
        <ele>147.4</ele>
        <time>2020-07-01T10:16:22Z</time>
      </trkpt>
      <trkpt lat="48.97979" lon="3.25482">
        <ele>147.2</ele>
        <time>2020-07-01T10:16:23Z</time>
      </trkpt>
      <trkpt lat="48.97978" lon="3.25477">
        <ele>147.1</ele>
        <time>2020-07-01T10:16:24Z</time>
      </trkpt>
      <trkpt lat="48.97977" lon="3.25473">
        <ele>146.9</ele>
        <time>2020-07-01T10:16:25Z</time>
      </trkpt>
      <trkpt lat="48.97976" lon="3.25468">
        <ele>146.8</ele>
        <time>2020-07-01T10:16:26Z</time>
      </trkpt>
      <trkpt lat="48.97974" lon="3.25463">
        <ele>146.7</ele>
        <time>2020-07-01T10:16:27Z</time>
      </trkpt>
      <trkpt lat="48.97973" lon="3.25457">
        <ele>146.5</ele>
        <time>2020-07-01T10:16:28Z</time>
      </trkpt>
      <trkpt lat="48.97971" lon="3.25452">
        <ele>146.3</ele>
        <time>2020-07-01T10:16:29Z</time>
      </trkpt>
      <trkpt lat="48.97969" lon="3.25447">
        <ele>146.2</ele>
        <time>2020-07-01T10:16:30Z</time>
      </trkpt>
      <trkpt lat="48.97968" lon="3.25441">
        <ele>146</ele>
        <time>2020-07-01T10:16:31Z</time>
      </trkpt>
      <trkpt lat="48.97967" lon="3.25435">
        <ele>145.8</ele>
        <time>2020-07-01T10:16:32Z</time>
      </trkpt>
      <trkpt lat="48.97965" lon="3.25427">
        <ele>145.6</ele>
        <time>2020-07-01T10:16:33Z</time>
      </trkpt>
      <trkpt lat="48.97963" lon="3.2542">
        <ele>145.4</ele>
        <time>2020-07-01T10:16:34Z</time>
      </trkpt>
      <trkpt lat="48.97962" lon="3.25412">
        <ele>145.1</ele>
        <time>2020-07-01T10:16:35Z</time>
      </trkpt>
      <trkpt lat="48.97961" lon="3.25405">
        <ele>144.9</ele>
        <time>2020-07-01T10:16:36Z</time>
      </trkpt>
      <trkpt lat="48.97959" lon="3.25398">
        <ele>144.7</ele>
        <time>2020-07-01T10:16:37Z</time>
      </trkpt>
      <trkpt lat="48.97957" lon="3.25392">
        <ele>144.5</ele>
        <time>2020-07-01T10:16:38Z</time>
      </trkpt>
      <trkpt lat="48.97955" lon="3.25387">
        <ele>144.3</ele>
        <time>2020-07-01T10:16:39Z</time>
      </trkpt>
      <trkpt lat="48.97953" lon="3.25379">
        <ele>144.1</ele>
        <time>2020-07-01T10:16:40Z</time>
      </trkpt>
      <trkpt lat="48.97951" lon="3.25372">
        <ele>143.9</ele>
        <time>2020-07-01T10:16:41Z</time>
      </trkpt>
      <trkpt lat="48.97949" lon="3.25366">
        <ele>143.7</ele>
        <time>2020-07-01T10:16:42Z</time>
      </trkpt>
      <trkpt lat="48.97947" lon="3.2536">
        <ele>143.5</ele>
        <time>2020-07-01T10:16:43Z</time>
      </trkpt>
      <trkpt lat="48.97944" lon="3.25353">
        <ele>143.4</ele>
        <time>2020-07-01T10:16:44Z</time>
      </trkpt>
      <trkpt lat="48.97942" lon="3.25347">
        <ele>143.2</ele>
        <time>2020-07-01T10:16:45Z</time>
      </trkpt>
      <trkpt lat="48.97939" lon="3.25341">
        <ele>143</ele>
        <time>2020-07-01T10:16:46Z</time>
      </trkpt>
      <trkpt lat="48.97937" lon="3.25333">
        <ele>142.8</ele>
        <time>2020-07-01T10:16:47Z</time>
      </trkpt>
      <trkpt lat="48.97934" lon="3.25326">
        <ele>142.6</ele>
        <time>2020-07-01T10:16:48Z</time>
      </trkpt>
      <trkpt lat="48.97932" lon="3.25319">
        <ele>142.4</ele>
        <time>2020-07-01T10:16:49Z</time>
      </trkpt>
      <trkpt lat="48.97931" lon="3.25312">
        <ele>142.2</ele>
        <time>2020-07-01T10:16:50Z</time>
      </trkpt>
      <trkpt lat="48.97929" lon="3.25305">
        <ele>142</ele>
        <time>2020-07-01T10:16:51Z</time>
      </trkpt>
      <trkpt lat="48.97927" lon="3.25298">
        <ele>141.8</ele>
        <time>2020-07-01T10:16:52Z</time>
      </trkpt>
      <trkpt lat="48.97925" lon="3.25291">
        <ele>141.6</ele>
        <time>2020-07-01T10:16:53Z</time>
      </trkpt>
      <trkpt lat="48.97923" lon="3.25284">
        <ele>141.4</ele>
        <time>2020-07-01T10:16:54Z</time>
      </trkpt>
      <trkpt lat="48.97921" lon="3.25277">
        <ele>141.2</ele>
        <time>2020-07-01T10:16:55Z</time>
      </trkpt>
      <trkpt lat="48.97919" lon="3.2527">
        <ele>140.9</ele>
        <time>2020-07-01T10:16:56Z</time>
      </trkpt>
      <trkpt lat="48.97917" lon="3.25262">
        <ele>140.7</ele>
        <time>2020-07-01T10:16:57Z</time>
      </trkpt>
      <trkpt lat="48.97916" lon="3.25256">
        <ele>140.5</ele>
        <time>2020-07-01T10:16:58Z</time>
      </trkpt>
      <trkpt lat="48.97914" lon="3.25248">
        <ele>140.2</ele>
        <time>2020-07-01T10:16:59Z</time>
      </trkpt>
      <trkpt lat="48.97911" lon="3.25241">
        <ele>140</ele>
        <time>2020-07-01T10:17:00Z</time>
      </trkpt>
      <trkpt lat="48.9791" lon="3.25233">
        <ele>139.7</ele>
        <time>2020-07-01T10:17:01Z</time>
      </trkpt>
      <trkpt lat="48.97909" lon="3.25226">
        <ele>139.5</ele>
        <time>2020-07-01T10:17:02Z</time>
      </trkpt>
      <trkpt lat="48.97907" lon="3.25219">
        <ele>139.2</ele>
        <time>2020-07-01T10:17:03Z</time>
      </trkpt>
      <trkpt lat="48.97905" lon="3.25213">
        <ele>139</ele>
        <time>2020-07-01T10:17:04Z</time>
      </trkpt>
      <trkpt lat="48.97903" lon="3.25206">
        <ele>138.7</ele>
        <time>2020-07-01T10:17:05Z</time>
      </trkpt>
      <trkpt lat="48.97902" lon="3.25198">
        <ele>138.4</ele>
        <time>2020-07-01T10:17:06Z</time>
      </trkpt>
      <trkpt lat="48.97899" lon="3.25191">
        <ele>138</ele>
        <time>2020-07-01T10:17:07Z</time>
      </trkpt>
      <trkpt lat="48.97898" lon="3.25183">
        <ele>137.7</ele>
        <time>2020-07-01T10:17:08Z</time>
      </trkpt>
      <trkpt lat="48.97896" lon="3.25175">
        <ele>137.4</ele>
        <time>2020-07-01T10:17:09Z</time>
      </trkpt>
      <trkpt lat="48.97894" lon="3.25166">
        <ele>136.9</ele>
        <time>2020-07-01T10:17:10Z</time>
      </trkpt>
      <trkpt lat="48.97892" lon="3.25156">
        <ele>136.5</ele>
        <time>2020-07-01T10:17:11Z</time>
      </trkpt>
      <trkpt lat="48.97891" lon="3.25147">
        <ele>136</ele>
        <time>2020-07-01T10:17:12Z</time>
      </trkpt>
      <trkpt lat="48.97889" lon="3.25136">
        <ele>135.4</ele>
        <time>2020-07-01T10:17:13Z</time>
      </trkpt>
      <trkpt lat="48.97888" lon="3.25127">
        <ele>135</ele>
        <time>2020-07-01T10:17:14Z</time>
      </trkpt>
      <trkpt lat="48.97888" lon="3.25118">
        <ele>134.6</ele>
        <time>2020-07-01T10:17:15Z</time>
      </trkpt>
      <trkpt lat="48.97887" lon="3.25107">
        <ele>134.1</ele>
        <time>2020-07-01T10:17:16Z</time>
      </trkpt>
      <trkpt lat="48.97887" lon="3.25095">
        <ele>133.4</ele>
        <time>2020-07-01T10:17:17Z</time>
      </trkpt>
      <trkpt lat="48.97887" lon="3.25082">
        <ele>132.8</ele>
        <time>2020-07-01T10:17:18Z</time>
      </trkpt>
      <trkpt lat="48.97888" lon="3.2507">
        <ele>132.1</ele>
        <time>2020-07-01T10:17:19Z</time>
      </trkpt>
      <trkpt lat="48.97889" lon="3.25057">
        <ele>131.5</ele>
        <time>2020-07-01T10:17:20Z</time>
      </trkpt>
      <trkpt lat="48.9789" lon="3.25045">
        <ele>130.7</ele>
        <time>2020-07-01T10:17:21Z</time>
      </trkpt>
      <trkpt lat="48.97892" lon="3.25033">
        <ele>130.3</ele>
        <time>2020-07-01T10:17:22Z</time>
      </trkpt>
      <trkpt lat="48.97893" lon="3.25021">
        <ele>130</ele>
        <time>2020-07-01T10:17:23Z</time>
      </trkpt>
      <trkpt lat="48.97895" lon="3.25008">
        <ele>129.6</ele>
        <time>2020-07-01T10:17:24Z</time>
      </trkpt>
      <trkpt lat="48.97897" lon="3.24995">
        <ele>129.2</ele>
        <time>2020-07-01T10:17:25Z</time>
      </trkpt>
      <trkpt lat="48.97899" lon="3.24981">
        <ele>128.8</ele>
        <time>2020-07-01T10:17:26Z</time>
      </trkpt>
      <trkpt lat="48.97902" lon="3.24968">
        <ele>128.3</ele>
        <time>2020-07-01T10:17:27Z</time>
      </trkpt>
      <trkpt lat="48.97904" lon="3.24955">
        <ele>127.8</ele>
        <time>2020-07-01T10:17:28Z</time>
      </trkpt>
      <trkpt lat="48.97906" lon="3.24941">
        <ele>127.4</ele>
        <time>2020-07-01T10:17:29Z</time>
      </trkpt>
      <trkpt lat="48.97908" lon="3.24928">
        <ele>126.9</ele>
        <time>2020-07-01T10:17:30Z</time>
      </trkpt>
      <trkpt lat="48.97912" lon="3.24915">
        <ele>126.5</ele>
        <time>2020-07-01T10:17:31Z</time>
      </trkpt>
      <trkpt lat="48.97914" lon="3.24901">
        <ele>126.1</ele>
        <time>2020-07-01T10:17:32Z</time>
      </trkpt>
      <trkpt lat="48.97916" lon="3.24887">
        <ele>125.7</ele>
        <time>2020-07-01T10:17:33Z</time>
      </trkpt>
      <trkpt lat="48.97918" lon="3.24873">
        <ele>125.4</ele>
        <time>2020-07-01T10:17:34Z</time>
      </trkpt>
      <trkpt lat="48.97921" lon="3.2486">
        <ele>125.2</ele>
        <time>2020-07-01T10:17:35Z</time>
      </trkpt>
      <trkpt lat="48.97924" lon="3.24846">
        <ele>125</ele>
        <time>2020-07-01T10:17:36Z</time>
      </trkpt>
      <trkpt lat="48.97926" lon="3.24832">
        <ele>124.9</ele>
        <time>2020-07-01T10:17:37Z</time>
      </trkpt>
      <trkpt lat="48.97929" lon="3.24819">
        <ele>124.8</ele>
        <time>2020-07-01T10:17:38Z</time>
      </trkpt>
      <trkpt lat="48.9793" lon="3.24806">
        <ele>124.6</ele>
        <time>2020-07-01T10:17:39Z</time>
      </trkpt>
      <trkpt lat="48.97932" lon="3.24794">
        <ele>124.5</ele>
        <time>2020-07-01T10:17:40Z</time>
      </trkpt>
      <trkpt lat="48.97935" lon="3.24783">
        <ele>124.4</ele>
        <time>2020-07-01T10:17:41Z</time>
      </trkpt>
      <trkpt lat="48.97936" lon="3.24771">
        <ele>124.4</ele>
        <time>2020-07-01T10:17:42Z</time>
      </trkpt>
      <trkpt lat="48.97938" lon="3.2476">
        <ele>124.3</ele>
        <time>2020-07-01T10:17:43Z</time>
      </trkpt>
      <trkpt lat="48.9794" lon="3.24751">
        <ele>124.3</ele>
        <time>2020-07-01T10:17:44Z</time>
      </trkpt>
      <trkpt lat="48.9794" lon="3.24741">
        <ele>124.2</ele>
        <time>2020-07-01T10:17:45Z</time>
      </trkpt>
      <trkpt lat="48.97941" lon="3.2473">
        <ele>124</ele>
        <time>2020-07-01T10:17:46Z</time>
      </trkpt>
      <trkpt lat="48.97942" lon="3.2472">
        <ele>123.8</ele>
        <time>2020-07-01T10:17:47Z</time>
      </trkpt>
      <trkpt lat="48.97944" lon="3.24711">
        <ele>123.7</ele>
        <time>2020-07-01T10:17:48Z</time>
      </trkpt>
      <trkpt lat="48.97946" lon="3.24701">
        <ele>123.5</ele>
        <time>2020-07-01T10:17:49Z</time>
      </trkpt>
      <trkpt lat="48.97948" lon="3.24692">
        <ele>123.4</ele>
        <time>2020-07-01T10:17:50Z</time>
      </trkpt>
      <trkpt lat="48.97949" lon="3.24682">
        <ele>123.2</ele>
        <time>2020-07-01T10:17:51Z</time>
      </trkpt>
      <trkpt lat="48.97951" lon="3.24672">
        <ele>123</ele>
        <time>2020-07-01T10:17:52Z</time>
      </trkpt>
      <trkpt lat="48.97953" lon="3.24662">
        <ele>122.8</ele>
        <time>2020-07-01T10:17:53Z</time>
      </trkpt>
      <trkpt lat="48.97955" lon="3.24653">
        <ele>122.6</ele>
        <time>2020-07-01T10:17:54Z</time>
      </trkpt>
      <trkpt lat="48.97957" lon="3.24643">
        <ele>122.4</ele>
        <time>2020-07-01T10:17:55Z</time>
      </trkpt>
      <trkpt lat="48.97959" lon="3.24634">
        <ele>122.2</ele>
        <time>2020-07-01T10:17:56Z</time>
      </trkpt>
      <trkpt lat="48.97961" lon="3.24624">
        <ele>122</ele>
        <time>2020-07-01T10:17:57Z</time>
      </trkpt>
      <trkpt lat="48.97964" lon="3.24615">
        <ele>121.8</ele>
        <time>2020-07-01T10:17:58Z</time>
      </trkpt>
      <trkpt lat="48.97966" lon="3.24605">
        <ele>121.6</ele>
        <time>2020-07-01T10:17:59Z</time>
      </trkpt>
      <trkpt lat="48.97968" lon="3.24595">
        <ele>121.4</ele>
        <time>2020-07-01T10:18:00Z</time>
      </trkpt>
      <trkpt lat="48.97971" lon="3.24586">
        <ele>121.2</ele>
        <time>2020-07-01T10:18:01Z</time>
      </trkpt>
      <trkpt lat="48.97973" lon="3.24577">
        <ele>121</ele>
        <time>2020-07-01T10:18:02Z</time>
      </trkpt>
      <trkpt lat="48.97976" lon="3.24568">
        <ele>120.9</ele>
        <time>2020-07-01T10:18:03Z</time>
      </trkpt>
      <trkpt lat="48.97978" lon="3.24559">
        <ele>120.8</ele>
        <time>2020-07-01T10:18:04Z</time>
      </trkpt>
      <trkpt lat="48.97981" lon="3.2455">
        <ele>120.7</ele>
        <time>2020-07-01T10:18:05Z</time>
      </trkpt>
      <trkpt lat="48.97984" lon="3.24542">
        <ele>120.5</ele>
        <time>2020-07-01T10:18:06Z</time>
      </trkpt>
      <trkpt lat="48.97987" lon="3.24533">
        <ele>120.4</ele>
        <time>2020-07-01T10:18:07Z</time>
      </trkpt>
      <trkpt lat="48.97989" lon="3.24524">
        <ele>120.1</ele>
        <time>2020-07-01T10:18:08Z</time>
      </trkpt>
      <trkpt lat="48.97992" lon="3.24515">
        <ele>119.8</ele>
        <time>2020-07-01T10:18:09Z</time>
      </trkpt>
      <trkpt lat="48.97995" lon="3.24507">
        <ele>119.4</ele>
        <time>2020-07-01T10:18:10Z</time>
      </trkpt>
      <trkpt lat="48.97998" lon="3.24498">
        <ele>119.1</ele>
        <time>2020-07-01T10:18:11Z</time>
      </trkpt>
      <trkpt lat="48.98" lon="3.24492">
        <ele>118.8</ele>
        <time>2020-07-01T10:18:12Z</time>
      </trkpt>
      <trkpt lat="48.98003" lon="3.24488">
        <ele>118.6</ele>
        <time>2020-07-01T10:18:13Z</time>
      </trkpt>
      <trkpt lat="48.98005" lon="3.24485">
        <ele>118.5</ele>
        <time>2020-07-01T10:18:14Z</time>
      </trkpt>
      <trkpt lat="48.98007" lon="3.24483">
        <ele>118.3</ele>
        <time>2020-07-01T10:18:15Z</time>
      </trkpt>
      <trkpt lat="48.98007" lon="3.24481">
        <ele>118.2</ele>
        <time>2020-07-01T10:18:16Z</time>
      </trkpt>
      <trkpt lat="48.98008" lon="3.24481">
        <ele>118.2</ele>
        <time>2020-07-01T10:18:17Z</time>
      </trkpt>
      <trkpt lat="48.98009" lon="3.24483">
        <ele>118.1</ele>
        <time>2020-07-01T10:18:18Z</time>
      </trkpt>
      <trkpt lat="48.98009" lon="3.24484">
        <ele>118.1</ele>
        <time>2020-07-01T10:18:19Z</time>
      </trkpt>
      <trkpt lat="48.98009" lon="3.24484">
        <ele>118.1</ele>
        <time>2020-07-01T10:18:20Z</time>
      </trkpt>
      <trkpt lat="48.98009" lon="3.24483">
        <ele>118</ele>
        <time>2020-07-01T10:18:21Z</time>
      </trkpt>
      <trkpt lat="48.98008" lon="3.24481">
        <ele>118</ele>
        <time>2020-07-01T10:18:22Z</time>
      </trkpt>
      <trkpt lat="48.98007" lon="3.2448">
        <ele>117.9</ele>
        <time>2020-07-01T10:18:23Z</time>
      </trkpt>
      <trkpt lat="48.98006" lon="3.24478">
        <ele>117.8</ele>
        <time>2020-07-01T10:18:24Z</time>
      </trkpt>
      <trkpt lat="48.98006" lon="3.24479">
        <ele>117.8</ele>
        <time>2020-07-01T10:18:25Z</time>
      </trkpt>
      <trkpt lat="48.98007" lon="3.24479">
        <ele>117.8</ele>
        <time>2020-07-01T10:18:26Z</time>
      </trkpt>
      <trkpt lat="48.98007" lon="3.2448">
        <ele>117.8</ele>
        <time>2020-07-01T10:18:27Z</time>
      </trkpt>
      <trkpt lat="48.98006" lon="3.24475">
        <ele>117.6</ele>
        <time>2020-07-01T10:18:31Z</time>
      </trkpt>
      <trkpt lat="48.98005" lon="3.24473">
        <ele>117.5</ele>
        <time>2020-07-01T10:18:32Z</time>
      </trkpt>
      <trkpt lat="48.98005" lon="3.24471">
        <ele>117.4</ele>
        <time>2020-07-01T10:18:33Z</time>
      </trkpt>
      <trkpt lat="48.98007" lon="3.24469">
        <ele>117.3</ele>
        <time>2020-07-01T10:18:34Z</time>
      </trkpt>
      <trkpt lat="48.98008" lon="3.24465">
        <ele>117.1</ele>
        <time>2020-07-01T10:18:35Z</time>
      </trkpt>
      <trkpt lat="48.98009" lon="3.24463">
        <ele>117</ele>
        <time>2020-07-01T10:18:36Z</time>
      </trkpt>
      <trkpt lat="48.98011" lon="3.24459">
        <ele>116.8</ele>
        <time>2020-07-01T10:18:37Z</time>
      </trkpt>
      <trkpt lat="48.98014" lon="3.24457">
        <ele>116.6</ele>
        <time>2020-07-01T10:18:38Z</time>
      </trkpt>
      <trkpt lat="48.98017" lon="3.24454">
        <ele>116.4</ele>
        <time>2020-07-01T10:18:39Z</time>
      </trkpt>
      <trkpt lat="48.98021" lon="3.24451">
        <ele>116.2</ele>
        <time>2020-07-01T10:18:40Z</time>
      </trkpt>
      <trkpt lat="48.98025" lon="3.24447">
        <ele>116</ele>
        <time>2020-07-01T10:18:41Z</time>
      </trkpt>
      <trkpt lat="48.98028" lon="3.24444">
        <ele>115.7</ele>
        <time>2020-07-01T10:18:42Z</time>
      </trkpt>
      <trkpt lat="48.98032" lon="3.24439">
        <ele>115.5</ele>
        <time>2020-07-01T10:18:43Z</time>
      </trkpt>
      <trkpt lat="48.98036" lon="3.24434">
        <ele>115.2</ele>
        <time>2020-07-01T10:18:44Z</time>
      </trkpt>
      <trkpt lat="48.9804" lon="3.24429">
        <ele>114.9</ele>
        <time>2020-07-01T10:18:45Z</time>
      </trkpt>
      <trkpt lat="48.98043" lon="3.24423">
        <ele>114.6</ele>
        <time>2020-07-01T10:18:46Z</time>
      </trkpt>
      <trkpt lat="48.98047" lon="3.24416">
        <ele>114.3</ele>
        <time>2020-07-01T10:18:47Z</time>
      </trkpt>
      <trkpt lat="48.98051" lon="3.2441">
        <ele>114</ele>
        <time>2020-07-01T10:18:48Z</time>
      </trkpt>
      <trkpt lat="48.98056" lon="3.24404">
        <ele>113.7</ele>
        <time>2020-07-01T10:18:49Z</time>
      </trkpt>
      <trkpt lat="48.98062" lon="3.24398">
        <ele>113.3</ele>
        <time>2020-07-01T10:18:50Z</time>
      </trkpt>
      <trkpt lat="48.98067" lon="3.24393">
        <ele>113</ele>
        <time>2020-07-01T10:18:51Z</time>
      </trkpt>
      <trkpt lat="48.98072" lon="3.24387">
        <ele>112.6</ele>
        <time>2020-07-01T10:18:52Z</time>
      </trkpt>
      <trkpt lat="48.98078" lon="3.24381">
        <ele>112.2</ele>
        <time>2020-07-01T10:18:53Z</time>
      </trkpt>
      <trkpt lat="48.98085" lon="3.24376">
        <ele>111.8</ele>
        <time>2020-07-01T10:18:54Z</time>
      </trkpt>
      <trkpt lat="48.98092" lon="3.24371">
        <ele>111.5</ele>
        <time>2020-07-01T10:18:55Z</time>
      </trkpt>
      <trkpt lat="48.98099" lon="3.24367">
        <ele>111.1</ele>
        <time>2020-07-01T10:18:56Z</time>
      </trkpt>
      <trkpt lat="48.98107" lon="3.24362">
        <ele>110.7</ele>
        <time>2020-07-01T10:18:57Z</time>
      </trkpt>
      <trkpt lat="48.98114" lon="3.24357">
        <ele>110.3</ele>
        <time>2020-07-01T10:18:58Z</time>
      </trkpt>
      <trkpt lat="48.98121" lon="3.24352">
        <ele>109.9</ele>
        <time>2020-07-01T10:18:59Z</time>
      </trkpt>
      <trkpt lat="48.98128" lon="3.24347">
        <ele>109.5</ele>
        <time>2020-07-01T10:19:00Z</time>
      </trkpt>
      <trkpt lat="48.98135" lon="3.24341">
        <ele>109.1</ele>
        <time>2020-07-01T10:19:01Z</time>
      </trkpt>
      <trkpt lat="48.98142" lon="3.24337">
        <ele>108.8</ele>
        <time>2020-07-01T10:19:02Z</time>
      </trkpt>
      <trkpt lat="48.98148" lon="3.24332">
        <ele>108.4</ele>
        <time>2020-07-01T10:19:03Z</time>
      </trkpt>
      <trkpt lat="48.98154" lon="3.24326">
        <ele>107.9</ele>
        <time>2020-07-01T10:19:04Z</time>
      </trkpt>
      <trkpt lat="48.98159" lon="3.24318">
        <ele>107.5</ele>
        <time>2020-07-01T10:19:05Z</time>
      </trkpt>
      <trkpt lat="48.98163" lon="3.24308">
        <ele>107.1</ele>
        <time>2020-07-01T10:19:06Z</time>
      </trkpt>
      <trkpt lat="48.98164" lon="3.24298">
        <ele>106.8</ele>
        <time>2020-07-01T10:19:07Z</time>
      </trkpt>
      <trkpt lat="48.98164" lon="3.24288">
        <ele>106.4</ele>
        <time>2020-07-01T10:19:08Z</time>
      </trkpt>
      <trkpt lat="48.98162" lon="3.24278">
        <ele>106.2</ele>
        <time>2020-07-01T10:19:09Z</time>
      </trkpt>
      <trkpt lat="48.98158" lon="3.2427">
        <ele>105.9</ele>
        <time>2020-07-01T10:19:10Z</time>
      </trkpt>
      <trkpt lat="48.98153" lon="3.24262">
        <ele>105.4</ele>
        <time>2020-07-01T10:19:11Z</time>
      </trkpt>
      <trkpt lat="48.98147" lon="3.24256">
        <ele>105</ele>
        <time>2020-07-01T10:19:12Z</time>
      </trkpt>
      <trkpt lat="48.98141" lon="3.2425">
        <ele>104.6</ele>
        <time>2020-07-01T10:19:13Z</time>
      </trkpt>
      <trkpt lat="48.98133" lon="3.24246">
        <ele>104.2</ele>
        <time>2020-07-01T10:19:14Z</time>
      </trkpt>
      <trkpt lat="48.98126" lon="3.2424">
        <ele>103.7</ele>
        <time>2020-07-01T10:19:15Z</time>
      </trkpt>
      <trkpt lat="48.98119" lon="3.24235">
        <ele>103.3</ele>
        <time>2020-07-01T10:19:16Z</time>
      </trkpt>
      <trkpt lat="48.98112" lon="3.2423">
        <ele>102.8</ele>
        <time>2020-07-01T10:19:17Z</time>
      </trkpt>
      <trkpt lat="48.98105" lon="3.24224">
        <ele>102.4</ele>
        <time>2020-07-01T10:19:18Z</time>
      </trkpt>
      <trkpt lat="48.98098" lon="3.24217">
        <ele>101.8</ele>
        <time>2020-07-01T10:19:19Z</time>
      </trkpt>
      <trkpt lat="48.98091" lon="3.24209">
        <ele>101.3</ele>
        <time>2020-07-01T10:19:20Z</time>
      </trkpt>
      <trkpt lat="48.98084" lon="3.242">
        <ele>100.8</ele>
        <time>2020-07-01T10:19:21Z</time>
      </trkpt>
      <trkpt lat="48.98078" lon="3.24189">
        <ele>100.2</ele>
        <time>2020-07-01T10:19:22Z</time>
      </trkpt>
      <trkpt lat="48.98074" lon="3.24177">
        <ele>99.7</ele>
        <time>2020-07-01T10:19:23Z</time>
      </trkpt>
      <trkpt lat="48.98071" lon="3.24164">
        <ele>99.2</ele>
        <time>2020-07-01T10:19:24Z</time>
      </trkpt>
      <trkpt lat="48.98069" lon="3.24151">
        <ele>98.8</ele>
        <time>2020-07-01T10:19:25Z</time>
      </trkpt>
      <trkpt lat="48.98069" lon="3.24138">
        <ele>98.3</ele>
        <time>2020-07-01T10:19:26Z</time>
      </trkpt>
      <trkpt lat="48.9807" lon="3.24125">
        <ele>97.8</ele>
        <time>2020-07-01T10:19:27Z</time>
      </trkpt>
      <trkpt lat="48.98072" lon="3.24111">
        <ele>97.3</ele>
        <time>2020-07-01T10:19:28Z</time>
      </trkpt>
      <trkpt lat="48.98074" lon="3.24099">
        <ele>96.9</ele>
        <time>2020-07-01T10:19:29Z</time>
      </trkpt>
      <trkpt lat="48.98076" lon="3.24087">
        <ele>96.4</ele>
        <time>2020-07-01T10:19:30Z</time>
      </trkpt>
      <trkpt lat="48.98078" lon="3.24075">
        <ele>96</ele>
        <time>2020-07-01T10:19:31Z</time>
      </trkpt>
      <trkpt lat="48.98081" lon="3.24063">
        <ele>95.6</ele>
        <time>2020-07-01T10:19:32Z</time>
      </trkpt>
      <trkpt lat="48.98083" lon="3.2405">
        <ele>95.2</ele>
        <time>2020-07-01T10:19:33Z</time>
      </trkpt>
      <trkpt lat="48.98085" lon="3.24037">
        <ele>94.8</ele>
        <time>2020-07-01T10:19:34Z</time>
      </trkpt>
      <trkpt lat="48.98087" lon="3.24025">
        <ele>94.4</ele>
        <time>2020-07-01T10:19:35Z</time>
      </trkpt>
      <trkpt lat="48.98088" lon="3.24012">
        <ele>93.9</ele>
        <time>2020-07-01T10:19:36Z</time>
      </trkpt>
      <trkpt lat="48.98088" lon="3.23999">
        <ele>93.4</ele>
        <time>2020-07-01T10:19:37Z</time>
      </trkpt>
      <trkpt lat="48.98087" lon="3.23986">
        <ele>92.9</ele>
        <time>2020-07-01T10:19:38Z</time>
      </trkpt>
      <trkpt lat="48.98086" lon="3.23972">
        <ele>92.4</ele>
        <time>2020-07-01T10:19:39Z</time>
      </trkpt>
      <trkpt lat="48.98084" lon="3.23959">
        <ele>91.9</ele>
        <time>2020-07-01T10:19:40Z</time>
      </trkpt>
      <trkpt lat="48.98082" lon="3.23946">
        <ele>91.5</ele>
        <time>2020-07-01T10:19:41Z</time>
      </trkpt>
      <trkpt lat="48.9808" lon="3.23933">
        <ele>91</ele>
        <time>2020-07-01T10:19:42Z</time>
      </trkpt>
      <trkpt lat="48.98078" lon="3.2392">
        <ele>90.6</ele>
        <time>2020-07-01T10:19:43Z</time>
      </trkpt>
      <trkpt lat="48.98076" lon="3.23907">
        <ele>90.1</ele>
        <time>2020-07-01T10:19:44Z</time>
      </trkpt>
      <trkpt lat="48.98075" lon="3.23894">
        <ele>89.7</ele>
        <time>2020-07-01T10:19:45Z</time>
      </trkpt>
      <trkpt lat="48.98073" lon="3.23881">
        <ele>89.3</ele>
        <time>2020-07-01T10:19:46Z</time>
      </trkpt>
      <trkpt lat="48.98071" lon="3.23869">
        <ele>88.9</ele>
        <time>2020-07-01T10:19:47Z</time>
      </trkpt>
      <trkpt lat="48.9807" lon="3.23856">
        <ele>88.5</ele>
        <time>2020-07-01T10:19:48Z</time>
      </trkpt>
      <trkpt lat="48.98068" lon="3.23844">
        <ele>88.6</ele>
        <time>2020-07-01T10:19:49Z</time>
      </trkpt>
      <trkpt lat="48.98067" lon="3.23833">
        <ele>88</ele>
        <time>2020-07-01T10:19:50Z</time>
      </trkpt>
      <trkpt lat="48.98065" lon="3.23822">
        <ele>87.4</ele>
        <time>2020-07-01T10:19:51Z</time>
      </trkpt>
      <trkpt lat="48.98062" lon="3.23812">
        <ele>86.9</ele>
        <time>2020-07-01T10:19:52Z</time>
      </trkpt>
      <trkpt lat="48.98058" lon="3.23803">
        <ele>86.3</ele>
        <time>2020-07-01T10:19:53Z</time>
      </trkpt>
      <trkpt lat="48.98052" lon="3.23794">
        <ele>85.7</ele>
        <time>2020-07-01T10:19:54Z</time>
      </trkpt>
      <trkpt lat="48.98045" lon="3.23786">
        <ele>85.1</ele>
        <time>2020-07-01T10:19:55Z</time>
      </trkpt>
      <trkpt lat="48.98039" lon="3.23777">
        <ele>84.5</ele>
        <time>2020-07-01T10:19:56Z</time>
      </trkpt>
      <trkpt lat="48.98033" lon="3.23768">
        <ele>83.9</ele>
        <time>2020-07-01T10:19:57Z</time>
      </trkpt>
      <trkpt lat="48.98027" lon="3.23758">
        <ele>82.9</ele>
        <time>2020-07-01T10:19:58Z</time>
      </trkpt>
      <trkpt lat="48.9802" lon="3.23749">
        <ele>82.4</ele>
        <time>2020-07-01T10:19:59Z</time>
      </trkpt>
      <trkpt lat="48.98015" lon="3.2374">
        <ele>81.8</ele>
        <time>2020-07-01T10:20:00Z</time>
      </trkpt>
      <trkpt lat="48.98009" lon="3.23731">
        <ele>81.3</ele>
        <time>2020-07-01T10:20:01Z</time>
      </trkpt>
      <trkpt lat="48.98003" lon="3.23722">
        <ele>80.7</ele>
        <time>2020-07-01T10:20:02Z</time>
      </trkpt>
      <trkpt lat="48.97997" lon="3.23712">
        <ele>80</ele>
        <time>2020-07-01T10:20:03Z</time>
      </trkpt>
      <trkpt lat="48.97992" lon="3.23702">
        <ele>79.5</ele>
        <time>2020-07-01T10:20:04Z</time>
      </trkpt>
      <trkpt lat="48.97988" lon="3.23691">
        <ele>79</ele>
        <time>2020-07-01T10:20:05Z</time>
      </trkpt>
      <trkpt lat="48.97984" lon="3.23681">
        <ele>78.5</ele>
        <time>2020-07-01T10:20:06Z</time>
      </trkpt>
      <trkpt lat="48.97981" lon="3.23672">
        <ele>78</ele>
        <time>2020-07-01T10:20:07Z</time>
      </trkpt>
      <trkpt lat="48.97978" lon="3.23663">
        <ele>77.6</ele>
        <time>2020-07-01T10:20:08Z</time>
      </trkpt>
      <trkpt lat="48.97975" lon="3.23654">
        <ele>77.1</ele>
        <time>2020-07-01T10:20:09Z</time>
      </trkpt>
      <trkpt lat="48.97972" lon="3.23646">
        <ele>76.7</ele>
        <time>2020-07-01T10:20:10Z</time>
      </trkpt>
      <trkpt lat="48.9797" lon="3.23638">
        <ele>76.3</ele>
        <time>2020-07-01T10:20:11Z</time>
      </trkpt>
      <trkpt lat="48.97969" lon="3.2363">
        <ele>76</ele>
        <time>2020-07-01T10:20:12Z</time>
      </trkpt>
      <trkpt lat="48.97969" lon="3.23621">
        <ele>75.8</ele>
        <time>2020-07-01T10:20:13Z</time>
      </trkpt>
      <trkpt lat="48.97968" lon="3.23612">
        <ele>75.5</ele>
        <time>2020-07-01T10:20:14Z</time>
      </trkpt>
      <trkpt lat="48.97968" lon="3.23604">
        <ele>75.2</ele>
        <time>2020-07-01T10:20:15Z</time>
      </trkpt>
      <trkpt lat="48.97968" lon="3.23595">
        <ele>75</ele>
        <time>2020-07-01T10:20:16Z</time>
      </trkpt>
      <trkpt lat="48.97969" lon="3.23587">
        <ele>74.7</ele>
        <time>2020-07-01T10:20:17Z</time>
      </trkpt>
      <trkpt lat="48.9797" lon="3.23577">
        <ele>74.3</ele>
        <time>2020-07-01T10:20:18Z</time>
      </trkpt>
      <trkpt lat="48.97972" lon="3.23567">
        <ele>73.9</ele>
        <time>2020-07-01T10:20:19Z</time>
      </trkpt>
      <trkpt lat="48.97973" lon="3.23557">
        <ele>73.6</ele>
        <time>2020-07-01T10:20:20Z</time>
      </trkpt>
      <trkpt lat="48.97974" lon="3.23547">
        <ele>73.2</ele>
        <time>2020-07-01T10:20:21Z</time>
      </trkpt>
      <trkpt lat="48.97974" lon="3.23538">
        <ele>72.8</ele>
        <time>2020-07-01T10:20:22Z</time>
      </trkpt>
      <trkpt lat="48.97974" lon="3.23529">
        <ele>72.4</ele>
        <time>2020-07-01T10:20:23Z</time>
      </trkpt>
      <trkpt lat="48.97974" lon="3.23519">
        <ele>72</ele>
        <time>2020-07-01T10:20:24Z</time>
      </trkpt>
      <trkpt lat="48.97974" lon="3.2351">
        <ele>71.6</ele>
        <time>2020-07-01T10:20:25Z</time>
      </trkpt>
      <trkpt lat="48.97973" lon="3.23501">
        <ele>71.3</ele>
        <time>2020-07-01T10:20:26Z</time>
      </trkpt>
      <trkpt lat="48.97972" lon="3.23491">
        <ele>70.9</ele>
        <time>2020-07-01T10:20:27Z</time>
      </trkpt>
      <trkpt lat="48.97972" lon="3.23481">
        <ele>70.5</ele>
        <time>2020-07-01T10:20:28Z</time>
      </trkpt>
      <trkpt lat="48.97971" lon="3.2347">
        <ele>70.1</ele>
        <time>2020-07-01T10:20:29Z</time>
      </trkpt>
      <trkpt lat="48.9797" lon="3.23458">
        <ele>69.6</ele>
        <time>2020-07-01T10:20:30Z</time>
      </trkpt>
      <trkpt lat="48.97969" lon="3.23446">
        <ele>69.1</ele>
        <time>2020-07-01T10:20:31Z</time>
      </trkpt>
      <trkpt lat="48.97967" lon="3.23435">
        <ele>68.7</ele>
        <time>2020-07-01T10:20:32Z</time>
      </trkpt>
      <trkpt lat="48.97965" lon="3.23423">
        <ele>68.2</ele>
        <time>2020-07-01T10:20:33Z</time>
      </trkpt>
      <trkpt lat="48.97964" lon="3.23411">
        <ele>67.7</ele>
        <time>2020-07-01T10:20:34Z</time>
      </trkpt>
      <trkpt lat="48.97962" lon="3.23398">
        <ele>67.2</ele>
        <time>2020-07-01T10:20:35Z</time>
      </trkpt>
      <trkpt lat="48.97961" lon="3.23386">
        <ele>66.7</ele>
        <time>2020-07-01T10:20:36Z</time>
      </trkpt>
      <trkpt lat="48.9796" lon="3.23374">
        <ele>66.1</ele>
        <time>2020-07-01T10:20:37Z</time>
      </trkpt>
      <trkpt lat="48.97958" lon="3.23361">
        <ele>65.6</ele>
        <time>2020-07-01T10:20:38Z</time>
      </trkpt>
      <trkpt lat="48.97956" lon="3.23349">
        <ele>65.1</ele>
        <time>2020-07-01T10:20:39Z</time>
      </trkpt>
      <trkpt lat="48.97955" lon="3.23337">
        <ele>64.6</ele>
        <time>2020-07-01T10:20:40Z</time>
      </trkpt>
      <trkpt lat="48.97953" lon="3.23324">
        <ele>64</ele>
        <time>2020-07-01T10:20:41Z</time>
      </trkpt>
      <trkpt lat="48.97952" lon="3.23312">
        <ele>63.5</ele>
        <time>2020-07-01T10:20:42Z</time>
      </trkpt>
      <trkpt lat="48.9795" lon="3.23299">
        <ele>62.9</ele>
        <time>2020-07-01T10:20:43Z</time>
      </trkpt>
      <trkpt lat="48.97949" lon="3.23287">
        <ele>62.4</ele>
        <time>2020-07-01T10:20:44Z</time>
      </trkpt>
      <trkpt lat="48.97948" lon="3.23275">
        <ele>61.9</ele>
        <time>2020-07-01T10:20:45Z</time>
      </trkpt>
      <trkpt lat="48.97947" lon="3.23262">
        <ele>61.4</ele>
        <time>2020-07-01T10:20:46Z</time>
      </trkpt>
      <trkpt lat="48.97945" lon="3.2325">
        <ele>60.9</ele>
        <time>2020-07-01T10:20:47Z</time>
      </trkpt>
      <trkpt lat="48.97943" lon="3.23237">
        <ele>60.4</ele>
        <time>2020-07-01T10:20:48Z</time>
      </trkpt>
      <trkpt lat="48.97941" lon="3.23225">
        <ele>59.9</ele>
        <time>2020-07-01T10:20:49Z</time>
      </trkpt>
      <trkpt lat="48.97938" lon="3.23214">
        <ele>59.4</ele>
        <time>2020-07-01T10:20:50Z</time>
      </trkpt>
      <trkpt lat="48.97936" lon="3.23203">
        <ele>58.9</ele>
        <time>2020-07-01T10:20:51Z</time>
      </trkpt>
      <trkpt lat="48.97932" lon="3.23192">
        <ele>58.6</ele>
        <time>2020-07-01T10:20:52Z</time>
      </trkpt>
      <trkpt lat="48.97928" lon="3.23182">
        <ele>58.3</ele>
        <time>2020-07-01T10:20:53Z</time>
      </trkpt>
      <trkpt lat="48.97923" lon="3.23173">
        <ele>58</ele>
        <time>2020-07-01T10:20:54Z</time>
      </trkpt>
      <trkpt lat="48.97917" lon="3.23165">
        <ele>57.7</ele>
        <time>2020-07-01T10:20:55Z</time>
      </trkpt>
      <trkpt lat="48.97911" lon="3.23158">
        <ele>57.5</ele>
        <time>2020-07-01T10:20:56Z</time>
      </trkpt>
      <trkpt lat="48.97904" lon="3.2315">
        <ele>57.2</ele>
        <time>2020-07-01T10:20:57Z</time>
      </trkpt>
      <trkpt lat="48.97899" lon="3.23142">
        <ele>57.2</ele>
        <time>2020-07-01T10:20:58Z</time>
      </trkpt>
      <trkpt lat="48.97894" lon="3.23134">
        <ele>57</ele>
        <time>2020-07-01T10:20:59Z</time>
      </trkpt>
      <trkpt lat="48.9789" lon="3.23126">
        <ele>56.9</ele>
        <time>2020-07-01T10:21:00Z</time>
      </trkpt>
      <trkpt lat="48.97887" lon="3.23121">
        <ele>56.8</ele>
        <time>2020-07-01T10:21:01Z</time>
      </trkpt>
      <trkpt lat="48.97885" lon="3.23115">
        <ele>56.7</ele>
        <time>2020-07-01T10:21:02Z</time>
      </trkpt>
      <trkpt lat="48.97882" lon="3.23109">
        <ele>56.6</ele>
        <time>2020-07-01T10:21:03Z</time>
      </trkpt>
      <trkpt lat="48.9788" lon="3.23104">
        <ele>56.6</ele>
        <time>2020-07-01T10:21:04Z</time>
      </trkpt>
      <trkpt lat="48.97877" lon="3.231">
        <ele>56.5</ele>
        <time>2020-07-01T10:21:05Z</time>
      </trkpt>
      <trkpt lat="48.97875" lon="3.23099">
        <ele>56.5</ele>
        <time>2020-07-01T10:21:06Z</time>
      </trkpt>
      <trkpt lat="48.97875" lon="3.23098">
        <ele>56.4</ele>
        <time>2020-07-01T10:21:07Z</time>
      </trkpt>
      <trkpt lat="48.97874" lon="3.23098">
        <ele>56.4</ele>
        <time>2020-07-01T10:21:08Z</time>
      </trkpt>
      <trkpt lat="48.97874" lon="3.23098">
        <ele>56.4</ele>
        <time>2020-07-01T10:21:09Z</time>
      </trkpt>
      <trkpt lat="48.97873" lon="3.23098">
        <ele>56.4</ele>
        <time>2020-07-01T10:21:10Z</time>
      </trkpt>
      <trkpt lat="48.97872" lon="3.23099">
        <ele>56.4</ele>
        <time>2020-07-01T10:21:11Z</time>
      </trkpt>
      <trkpt lat="48.97871" lon="3.23099">
        <ele>56.4</ele>
        <time>2020-07-01T10:21:12Z</time>
      </trkpt>
      <trkpt lat="48.97872" lon="3.23098">
        <ele>56.4</ele>
        <time>2020-07-01T10:21:13Z</time>
      </trkpt>
      <trkpt lat="48.97872" lon="3.23099">
        <ele>56.4</ele>
        <time>2020-07-01T10:21:14Z</time>
      </trkpt>
      <trkpt lat="48.97872" lon="3.23099">
        <ele>56.4</ele>
        <time>2020-07-01T10:21:15Z</time>
      </trkpt>
      <trkpt lat="48.97872" lon="3.231">
        <ele>56.3</ele>
        <time>2020-07-01T10:21:16Z</time>
      </trkpt>
      <trkpt lat="48.97872" lon="3.231">
        <ele>56.3</ele>
        <time>2020-07-01T10:21:17Z</time>
      </trkpt>
      <trkpt lat="48.97872" lon="3.23101">
        <ele>56.3</ele>
        <time>2020-07-01T10:21:18Z</time>
      </trkpt>
      <trkpt lat="48.97872" lon="3.23102">
        <ele>56.3</ele>
        <time>2020-07-01T10:21:19Z</time>
      </trkpt>
      <trkpt lat="48.97872" lon="3.23102">
        <ele>56.3</ele>
        <time>2020-07-01T10:21:20Z</time>
      </trkpt>
      <trkpt lat="48.97872" lon="3.23103">
        <ele>56.3</ele>
        <time>2020-07-01T10:21:21Z</time>
      </trkpt>
      <trkpt lat="48.97872" lon="3.23103">
        <ele>56.3</ele>
        <time>2020-07-01T10:21:22Z</time>
      </trkpt>
      <trkpt lat="48.97872" lon="3.23104">
        <ele>56.3</ele>
        <time>2020-07-01T10:21:23Z</time>
      </trkpt>
      <trkpt lat="48.97872" lon="3.23104">
        <ele>56.3</ele>
        <time>2020-07-01T10:21:24Z</time>
      </trkpt>
      <trkpt lat="48.97872" lon="3.23105">
        <ele>56.3</ele>
        <time>2020-07-01T10:21:25Z</time>
      </trkpt>
      <trkpt lat="48.97872" lon="3.23105">
        <ele>56.3</ele>
        <time>2020-07-01T10:21:26Z</time>
      </trkpt>
      <trkpt lat="48.97874" lon="3.23109">
        <ele>56.3</ele>
        <time>2020-07-01T10:21:27Z</time>
      </trkpt>
      <trkpt lat="48.97875" lon="3.23111">
        <ele>56.2</ele>
        <time>2020-07-01T10:21:28Z</time>
      </trkpt>
      <trkpt lat="48.97875" lon="3.23113">
        <ele>56.2</ele>
        <time>2020-07-01T10:21:29Z</time>
      </trkpt>
      <trkpt lat="48.97876" lon="3.23117">
        <ele>56.2</ele>
        <time>2020-07-01T10:21:30Z</time>
      </trkpt>
      <trkpt lat="48.97877" lon="3.23118">
        <ele>56.2</ele>
        <time>2020-07-01T10:21:31Z</time>
      </trkpt>
      <trkpt lat="48.97877" lon="3.23121">
        <ele>56.1</ele>
        <time>2020-07-01T10:21:32Z</time>
      </trkpt>
      <trkpt lat="48.97877" lon="3.23122">
        <ele>56.1</ele>
        <time>2020-07-01T10:21:33Z</time>
      </trkpt>
      <trkpt lat="48.97876" lon="3.23122">
        <ele>56.1</ele>
        <time>2020-07-01T10:21:34Z</time>
      </trkpt>
      <trkpt lat="48.97874" lon="3.23122">
        <ele>56.1</ele>
        <time>2020-07-01T10:21:35Z</time>
      </trkpt>
      <trkpt lat="48.97873" lon="3.2312">
        <ele>56.1</ele>
        <time>2020-07-01T10:21:36Z</time>
      </trkpt>
      <trkpt lat="48.97871" lon="3.23116">
        <ele>56.1</ele>
        <time>2020-07-01T10:21:37Z</time>
      </trkpt>
      <trkpt lat="48.97871" lon="3.23115">
        <ele>56.1</ele>
        <time>2020-07-01T10:21:38Z</time>
      </trkpt>
      <trkpt lat="48.97869" lon="3.23111">
        <ele>56</ele>
        <time>2020-07-01T10:21:39Z</time>
      </trkpt>
      <trkpt lat="48.97869" lon="3.23109">
        <ele>56</ele>
        <time>2020-07-01T10:21:40Z</time>
      </trkpt>
      <trkpt lat="48.97867" lon="3.23105">
        <ele>56</ele>
        <time>2020-07-01T10:21:41Z</time>
      </trkpt>
      <trkpt lat="48.97865" lon="3.23102">
        <ele>56</ele>
        <time>2020-07-01T10:21:42Z</time>
      </trkpt>
      <trkpt lat="48.97862" lon="3.23097">
        <ele>56</ele>
        <time>2020-07-01T10:21:43Z</time>
      </trkpt>
      <trkpt lat="48.97859" lon="3.23093">
        <ele>56</ele>
        <time>2020-07-01T10:21:44Z</time>
      </trkpt>
      <trkpt lat="48.97856" lon="3.23089">
        <ele>56</ele>
        <time>2020-07-01T10:21:45Z</time>
      </trkpt>
      <trkpt lat="48.97853" lon="3.23085">
        <ele>56</ele>
        <time>2020-07-01T10:21:46Z</time>
      </trkpt>
      <trkpt lat="48.9785" lon="3.2308">
        <ele>55.9</ele>
        <time>2020-07-01T10:21:47Z</time>
      </trkpt>
      <trkpt lat="48.97847" lon="3.23076">
        <ele>55.9</ele>
        <time>2020-07-01T10:21:48Z</time>
      </trkpt>
      <trkpt lat="48.97844" lon="3.23072">
        <ele>55.9</ele>
        <time>2020-07-01T10:21:49Z</time>
      </trkpt>
      <trkpt lat="48.97841" lon="3.23067">
        <ele>56</ele>
        <time>2020-07-01T10:21:50Z</time>
      </trkpt>
      <trkpt lat="48.97838" lon="3.23062">
        <ele>56</ele>
        <time>2020-07-01T10:21:51Z</time>
      </trkpt>
      <trkpt lat="48.97834" lon="3.23059">
        <ele>56</ele>
        <time>2020-07-01T10:21:52Z</time>
      </trkpt>
      <trkpt lat="48.97831" lon="3.23055">
        <ele>56</ele>
        <time>2020-07-01T10:21:53Z</time>
      </trkpt>
      <trkpt lat="48.97827" lon="3.23051">
        <ele>56.1</ele>
        <time>2020-07-01T10:21:54Z</time>
      </trkpt>
      <trkpt lat="48.97824" lon="3.23047">
        <ele>56.1</ele>
        <time>2020-07-01T10:21:55Z</time>
      </trkpt>
      <trkpt lat="48.97821" lon="3.23043">
        <ele>56.1</ele>
        <time>2020-07-01T10:21:56Z</time>
      </trkpt>
      <trkpt lat="48.97818" lon="3.23038">
        <ele>56.2</ele>
        <time>2020-07-01T10:21:57Z</time>
      </trkpt>
      <trkpt lat="48.97815" lon="3.23033">
        <ele>56.2</ele>
        <time>2020-07-01T10:21:58Z</time>
      </trkpt>
      <trkpt lat="48.97812" lon="3.23028">
        <ele>56.3</ele>
        <time>2020-07-01T10:21:59Z</time>
      </trkpt>
      <trkpt lat="48.9781" lon="3.23023">
        <ele>56.3</ele>
        <time>2020-07-01T10:22:00Z</time>
      </trkpt>
      <trkpt lat="48.97809" lon="3.23017">
        <ele>56.3</ele>
        <time>2020-07-01T10:22:01Z</time>
      </trkpt>
      <trkpt lat="48.97807" lon="3.23009">
        <ele>56.2</ele>
        <time>2020-07-01T10:22:02Z</time>
      </trkpt>
      <trkpt lat="48.97806" lon="3.23">
        <ele>56.2</ele>
        <time>2020-07-01T10:22:03Z</time>
      </trkpt>
      <trkpt lat="48.97806" lon="3.22993">
        <ele>56.1</ele>
        <time>2020-07-01T10:22:04Z</time>
      </trkpt>
      <trkpt lat="48.97805" lon="3.22985">
        <ele>56.1</ele>
        <time>2020-07-01T10:22:05Z</time>
      </trkpt>
      <trkpt lat="48.97805" lon="3.22978">
        <ele>56.1</ele>
        <time>2020-07-01T10:22:06Z</time>
      </trkpt>
      <trkpt lat="48.97804" lon="3.2297">
        <ele>56.1</ele>
        <time>2020-07-01T10:22:07Z</time>
      </trkpt>
      <trkpt lat="48.97804" lon="3.22962">
        <ele>56.1</ele>
        <time>2020-07-01T10:22:08Z</time>
      </trkpt>
      <trkpt lat="48.97803" lon="3.22954">
        <ele>56.2</ele>
        <time>2020-07-01T10:22:09Z</time>
      </trkpt>
      <trkpt lat="48.97803" lon="3.22947">
        <ele>56.2</ele>
        <time>2020-07-01T10:22:10Z</time>
      </trkpt>
      <trkpt lat="48.97803" lon="3.22939">
        <ele>56.2</ele>
        <time>2020-07-01T10:22:11Z</time>
      </trkpt>
      <trkpt lat="48.97803" lon="3.22932">
        <ele>56.2</ele>
        <time>2020-07-01T10:22:12Z</time>
      </trkpt>
      <trkpt lat="48.97802" lon="3.22925">
        <ele>56.2</ele>
        <time>2020-07-01T10:22:13Z</time>
      </trkpt>
      <trkpt lat="48.97802" lon="3.22917">
        <ele>56.2</ele>
        <time>2020-07-01T10:22:14Z</time>
      </trkpt>
      <trkpt lat="48.97802" lon="3.2291">
        <ele>56.2</ele>
        <time>2020-07-01T10:22:15Z</time>
      </trkpt>
      <trkpt lat="48.97802" lon="3.22903">
        <ele>56.2</ele>
        <time>2020-07-01T10:22:16Z</time>
      </trkpt>
      <trkpt lat="48.97801" lon="3.22896">
        <ele>56.2</ele>
        <time>2020-07-01T10:22:17Z</time>
      </trkpt>
      <trkpt lat="48.97801" lon="3.2289">
        <ele>56.2</ele>
        <time>2020-07-01T10:22:18Z</time>
      </trkpt>
      <trkpt lat="48.97801" lon="3.22885">
        <ele>56.2</ele>
        <time>2020-07-01T10:22:19Z</time>
      </trkpt>
      <trkpt lat="48.97801" lon="3.22879">
        <ele>56.2</ele>
        <time>2020-07-01T10:22:20Z</time>
      </trkpt>
      <trkpt lat="48.97801" lon="3.22873">
        <ele>56.2</ele>
        <time>2020-07-01T10:22:21Z</time>
      </trkpt>
      <trkpt lat="48.97801" lon="3.22868">
        <ele>56.2</ele>
        <time>2020-07-01T10:22:22Z</time>
      </trkpt>
      <trkpt lat="48.97801" lon="3.22861">
        <ele>56.2</ele>
        <time>2020-07-01T10:22:23Z</time>
      </trkpt>
      <trkpt lat="48.978" lon="3.22857">
        <ele>56.1</ele>
        <time>2020-07-01T10:22:24Z</time>
      </trkpt>
      <trkpt lat="48.978" lon="3.22851">
        <ele>56.1</ele>
        <time>2020-07-01T10:22:25Z</time>
      </trkpt>
      <trkpt lat="48.978" lon="3.22845">
        <ele>56.1</ele>
        <time>2020-07-01T10:22:26Z</time>
      </trkpt>
      <trkpt lat="48.978" lon="3.2284">
        <ele>56.1</ele>
        <time>2020-07-01T10:22:27Z</time>
      </trkpt>
      <trkpt lat="48.97799" lon="3.22835">
        <ele>56.1</ele>
        <time>2020-07-01T10:22:28Z</time>
      </trkpt>
      <trkpt lat="48.97799" lon="3.22829">
        <ele>56</ele>
        <time>2020-07-01T10:22:29Z</time>
      </trkpt>
      <trkpt lat="48.97799" lon="3.22822">
        <ele>56</ele>
        <time>2020-07-01T10:22:30Z</time>
      </trkpt>
      <trkpt lat="48.97799" lon="3.22817">
        <ele>56</ele>
        <time>2020-07-01T10:22:31Z</time>
      </trkpt>
      <trkpt lat="48.978" lon="3.22812">
        <ele>56</ele>
        <time>2020-07-01T10:22:32Z</time>
      </trkpt>
      <trkpt lat="48.978" lon="3.22807">
        <ele>56</ele>
        <time>2020-07-01T10:22:33Z</time>
      </trkpt>
      <trkpt lat="48.978" lon="3.22805">
        <ele>56</ele>
        <time>2020-07-01T10:22:34Z</time>
      </trkpt>
      <trkpt lat="48.97801" lon="3.228">
        <ele>56</ele>
        <time>2020-07-01T10:22:35Z</time>
      </trkpt>
      <trkpt lat="48.97801" lon="3.22799">
        <ele>56</ele>
        <time>2020-07-01T10:22:36Z</time>
      </trkpt>
      <trkpt lat="48.97801" lon="3.22798">
        <ele>56</ele>
        <time>2020-07-01T10:22:37Z</time>
      </trkpt>
      <trkpt lat="48.97801" lon="3.22798">
        <ele>56</ele>
        <time>2020-07-01T10:22:38Z</time>
      </trkpt>
      <trkpt lat="48.97801" lon="3.22798">
        <ele>56</ele>
        <time>2020-07-01T10:22:39Z</time>
      </trkpt>
      <trkpt lat="48.97801" lon="3.22798">
        <ele>56</ele>
        <time>2020-07-01T10:22:40Z</time>
      </trkpt>
      <trkpt lat="48.97801" lon="3.22798">
        <ele>56</ele>
        <time>2020-07-01T10:22:41Z</time>
      </trkpt>
      <trkpt lat="48.97801" lon="3.22798">
        <ele>56</ele>
        <time>2020-07-01T10:22:42Z</time>
      </trkpt>
      <trkpt lat="48.97801" lon="3.22798">
        <ele>56</ele>
        <time>2020-07-01T10:22:43Z</time>
      </trkpt>
      <trkpt lat="48.97801" lon="3.22798">
        <ele>56</ele>
        <time>2020-07-01T10:22:44Z</time>
      </trkpt>
      <trkpt lat="48.97801" lon="3.22798">
        <ele>56</ele>
        <time>2020-07-01T10:22:45Z</time>
      </trkpt>
      <trkpt lat="48.97801" lon="3.22798">
        <ele>56</ele>
        <time>2020-07-01T10:22:46Z</time>
      </trkpt>
      <trkpt lat="48.97801" lon="3.22798">
        <ele>56</ele>
        <time>2020-07-01T10:22:47Z</time>
      </trkpt>
      <trkpt lat="48.97801" lon="3.22798">
        <ele>56</ele>
        <time>2020-07-01T10:25:21Z</time>
      </trkpt>
      <trkpt lat="48.97801" lon="3.22798">
        <ele>56</ele>
        <time>2020-07-01T10:25:22Z</time>
      </trkpt>
      <trkpt lat="48.97801" lon="3.22798">
        <ele>56</ele>
        <time>2020-07-01T10:25:23Z</time>
      </trkpt>
      <trkpt lat="48.97801" lon="3.22798">
        <ele>56</ele>
        <time>2020-07-01T10:25:24Z</time>
      </trkpt>
      <trkpt lat="48.97801" lon="3.22798">
        <ele>56</ele>
        <time>2020-07-01T10:25:25Z</time>
      </trkpt>
      <trkpt lat="48.97801" lon="3.22798">
        <ele>56</ele>
        <time>2020-07-01T10:25:26Z</time>
      </trkpt>
      <trkpt lat="48.97801" lon="3.22798">
        <ele>56</ele>
        <time>2020-07-01T10:25:27Z</time>
      </trkpt>
      <trkpt lat="48.97801" lon="3.22798">
        <ele>56</ele>
        <time>2020-07-01T10:25:28Z</time>
      </trkpt>
      <trkpt lat="48.97801" lon="3.22797">
        <ele>56</ele>
        <time>2020-07-01T10:25:29Z</time>
      </trkpt>
      <trkpt lat="48.97801" lon="3.22797">
        <ele>56</ele>
        <time>2020-07-01T10:25:30Z</time>
      </trkpt>
      <trkpt lat="48.97801" lon="3.22797">
        <ele>56</ele>
        <time>2020-07-01T10:25:31Z</time>
      </trkpt>
      <trkpt lat="48.97801" lon="3.22797">
        <ele>56</ele>
        <time>2020-07-01T10:25:32Z</time>
      </trkpt>
      <trkpt lat="48.97801" lon="3.22797">
        <ele>56</ele>
        <time>2020-07-01T10:25:33Z</time>
      </trkpt>
      <trkpt lat="48.97801" lon="3.22797">
        <ele>56</ele>
        <time>2020-07-01T10:25:34Z</time>
      </trkpt>
      <trkpt lat="48.97801" lon="3.22797">
        <ele>56</ele>
        <time>2020-07-01T10:25:35Z</time>
      </trkpt>
      <trkpt lat="48.97801" lon="3.22797">
        <ele>56</ele>
        <time>2020-07-01T10:26:19Z</time>
      </trkpt>
      <trkpt lat="48.97801" lon="3.22797">
        <ele>56</ele>
        <time>2020-07-01T10:26:20Z</time>
      </trkpt>
      <trkpt lat="48.978" lon="3.22792">
        <ele>56</ele>
        <time>2020-07-01T10:26:21Z</time>
      </trkpt>
      <trkpt lat="48.97799" lon="3.22791">
        <ele>56</ele>
        <time>2020-07-01T10:26:22Z</time>
      </trkpt>
      <trkpt lat="48.97799" lon="3.22789">
        <ele>56</ele>
        <time>2020-07-01T10:26:23Z</time>
      </trkpt>
      <trkpt lat="48.97799" lon="3.22786">
        <ele>56</ele>
        <time>2020-07-01T10:26:24Z</time>
      </trkpt>
      <trkpt lat="48.97799" lon="3.22783">
        <ele>56</ele>
        <time>2020-07-01T10:26:25Z</time>
      </trkpt>
      <trkpt lat="48.97799" lon="3.2278">
        <ele>56</ele>
        <time>2020-07-01T10:26:26Z</time>
      </trkpt>
      <trkpt lat="48.97799" lon="3.22778">
        <ele>56</ele>
        <time>2020-07-01T10:26:27Z</time>
      </trkpt>
      <trkpt lat="48.97799" lon="3.22776">
        <ele>56</ele>
        <time>2020-07-01T10:26:28Z</time>
      </trkpt>
      <trkpt lat="48.97796" lon="3.22774">
        <ele>56</ele>
        <time>2020-07-01T10:26:29Z</time>
      </trkpt>
      <trkpt lat="48.97795" lon="3.22769">
        <ele>56</ele>
        <time>2020-07-01T10:26:30Z</time>
      </trkpt>
      <trkpt lat="48.97795" lon="3.22768">
        <ele>56</ele>
        <time>2020-07-01T10:26:31Z</time>
      </trkpt>
      <trkpt lat="48.97795" lon="3.22766">
        <ele>56</ele>
        <time>2020-07-01T10:26:32Z</time>
      </trkpt>
      <trkpt lat="48.97795" lon="3.22763">
        <ele>55.9</ele>
        <time>2020-07-01T10:26:33Z</time>
      </trkpt>
      <trkpt lat="48.97795" lon="3.22757">
        <ele>55.9</ele>
        <time>2020-07-01T10:26:34Z</time>
      </trkpt>
      <trkpt lat="48.97795" lon="3.22755">
        <ele>55.9</ele>
        <time>2020-07-01T10:26:35Z</time>
      </trkpt>
      <trkpt lat="48.97795" lon="3.22751">
        <ele>55.9</ele>
        <time>2020-07-01T10:26:36Z</time>
      </trkpt>
      <trkpt lat="48.97795" lon="3.22746">
        <ele>55.9</ele>
        <time>2020-07-01T10:26:37Z</time>
      </trkpt>
      <trkpt lat="48.97795" lon="3.22744">
        <ele>55.9</ele>
        <time>2020-07-01T10:26:38Z</time>
      </trkpt>
      <trkpt lat="48.97795" lon="3.22738">
        <ele>55.9</ele>
        <time>2020-07-01T10:26:39Z</time>
      </trkpt>
      <trkpt lat="48.97795" lon="3.22736">
        <ele>55.9</ele>
        <time>2020-07-01T10:26:40Z</time>
      </trkpt>
      <trkpt lat="48.97795" lon="3.22732">
        <ele>55.8</ele>
        <time>2020-07-01T10:26:41Z</time>
      </trkpt>
      <trkpt lat="48.97796" lon="3.22728">
        <ele>55.8</ele>
        <time>2020-07-01T10:26:42Z</time>
      </trkpt>
      <trkpt lat="48.97796" lon="3.22722">
        <ele>55.8</ele>
        <time>2020-07-01T10:26:43Z</time>
      </trkpt>
      <trkpt lat="48.97795" lon="3.22715">
        <ele>55.8</ele>
        <time>2020-07-01T10:26:44Z</time>
      </trkpt>
      <trkpt lat="48.97795" lon="3.22709">
        <ele>55.8</ele>
        <time>2020-07-01T10:26:45Z</time>
      </trkpt>
      <trkpt lat="48.97794" lon="3.22703">
        <ele>55.8</ele>
        <time>2020-07-01T10:26:46Z</time>
      </trkpt>
      <trkpt lat="48.97794" lon="3.22698">
        <ele>55.8</ele>
        <time>2020-07-01T10:26:47Z</time>
      </trkpt>
      <trkpt lat="48.97794" lon="3.22692">
        <ele>55.8</ele>
        <time>2020-07-01T10:26:48Z</time>
      </trkpt>
      <trkpt lat="48.97793" lon="3.22686">
        <ele>55.8</ele>
        <time>2020-07-01T10:26:49Z</time>
      </trkpt>
      <trkpt lat="48.97793" lon="3.22679">
        <ele>55.8</ele>
        <time>2020-07-01T10:26:50Z</time>
      </trkpt>
      <trkpt lat="48.97792" lon="3.22673">
        <ele>55.8</ele>
        <time>2020-07-01T10:26:51Z</time>
      </trkpt>
      <trkpt lat="48.97792" lon="3.22666">
        <ele>55.8</ele>
        <time>2020-07-01T10:26:52Z</time>
      </trkpt>
      <trkpt lat="48.97791" lon="3.2266">
        <ele>55.8</ele>
        <time>2020-07-01T10:26:53Z</time>
      </trkpt>
      <trkpt lat="48.97791" lon="3.22654">
        <ele>55.8</ele>
        <time>2020-07-01T10:26:54Z</time>
      </trkpt>
      <trkpt lat="48.97791" lon="3.22649">
        <ele>55.9</ele>
        <time>2020-07-01T10:26:55Z</time>
      </trkpt>
      <trkpt lat="48.97791" lon="3.22643">
        <ele>55.9</ele>
        <time>2020-07-01T10:26:56Z</time>
      </trkpt>
      <trkpt lat="48.97792" lon="3.22637">
        <ele>55.9</ele>
        <time>2020-07-01T10:26:57Z</time>
      </trkpt>
      <trkpt lat="48.97791" lon="3.22632">
        <ele>55.9</ele>
        <time>2020-07-01T10:26:58Z</time>
      </trkpt>
      <trkpt lat="48.9779" lon="3.22627">
        <ele>55.9</ele>
        <time>2020-07-01T10:26:59Z</time>
      </trkpt>
      <trkpt lat="48.9779" lon="3.22622">
        <ele>55.9</ele>
        <time>2020-07-01T10:27:00Z</time>
      </trkpt>
      <trkpt lat="48.9779" lon="3.22616">
        <ele>55.9</ele>
        <time>2020-07-01T10:27:01Z</time>
      </trkpt>
      <trkpt lat="48.97789" lon="3.2261">
        <ele>55.9</ele>
        <time>2020-07-01T10:27:02Z</time>
      </trkpt>
      <trkpt lat="48.97788" lon="3.22608">
        <ele>55.9</ele>
        <time>2020-07-01T10:27:03Z</time>
      </trkpt>
      <trkpt lat="48.97788" lon="3.22603">
        <ele>56</ele>
        <time>2020-07-01T10:27:04Z</time>
      </trkpt>
      <trkpt lat="48.97788" lon="3.22598">
        <ele>56</ele>
        <time>2020-07-01T10:27:05Z</time>
      </trkpt>
      <trkpt lat="48.97788" lon="3.22594">
        <ele>56</ele>
        <time>2020-07-01T10:27:06Z</time>
      </trkpt>
      <trkpt lat="48.97788" lon="3.22589">
        <ele>55.9</ele>
        <time>2020-07-01T10:27:07Z</time>
      </trkpt>
      <trkpt lat="48.97788" lon="3.22581">
        <ele>55.9</ele>
        <time>2020-07-01T10:27:08Z</time>
      </trkpt>
      <trkpt lat="48.97788" lon="3.22574">
        <ele>55.9</ele>
        <time>2020-07-01T10:27:09Z</time>
      </trkpt>
      <trkpt lat="48.97788" lon="3.22566">
        <ele>55.9</ele>
        <time>2020-07-01T10:27:10Z</time>
      </trkpt>
      <trkpt lat="48.97788" lon="3.22559">
        <ele>55.9</ele>
        <time>2020-07-01T10:27:11Z</time>
      </trkpt>
      <trkpt lat="48.97787" lon="3.22551">
        <ele>55.9</ele>
        <time>2020-07-01T10:27:12Z</time>
      </trkpt>
      <trkpt lat="48.97786" lon="3.22543">
        <ele>55.9</ele>
        <time>2020-07-01T10:27:13Z</time>
      </trkpt>
      <trkpt lat="48.97785" lon="3.22536">
        <ele>56</ele>
        <time>2020-07-01T10:27:14Z</time>
      </trkpt>
      <trkpt lat="48.97784" lon="3.22529">
        <ele>56</ele>
        <time>2020-07-01T10:27:15Z</time>
      </trkpt>
      <trkpt lat="48.97784" lon="3.22521">
        <ele>56</ele>
        <time>2020-07-01T10:27:16Z</time>
      </trkpt>
      <trkpt lat="48.97784" lon="3.22514">
        <ele>56</ele>
        <time>2020-07-01T10:27:17Z</time>
      </trkpt>
      <trkpt lat="48.97783" lon="3.22508">
        <ele>56</ele>
        <time>2020-07-01T10:27:18Z</time>
      </trkpt>
      <trkpt lat="48.97783" lon="3.22502">
        <ele>56</ele>
        <time>2020-07-01T10:27:19Z</time>
      </trkpt>
      <trkpt lat="48.97782" lon="3.22496">
        <ele>56</ele>
        <time>2020-07-01T10:27:20Z</time>
      </trkpt>
      <trkpt lat="48.97782" lon="3.22489">
        <ele>56</ele>
        <time>2020-07-01T10:27:21Z</time>
      </trkpt>
      <trkpt lat="48.97781" lon="3.22481">
        <ele>56</ele>
        <time>2020-07-01T10:27:22Z</time>
      </trkpt>
      <trkpt lat="48.97781" lon="3.22474">
        <ele>56</ele>
        <time>2020-07-01T10:27:23Z</time>
      </trkpt>
      <trkpt lat="48.9778" lon="3.22467">
        <ele>56.1</ele>
        <time>2020-07-01T10:27:24Z</time>
      </trkpt>
      <trkpt lat="48.97779" lon="3.22459">
        <ele>56.1</ele>
        <time>2020-07-01T10:27:25Z</time>
      </trkpt>
      <trkpt lat="48.97778" lon="3.22451">
        <ele>56.1</ele>
        <time>2020-07-01T10:27:26Z</time>
      </trkpt>
      <trkpt lat="48.97777" lon="3.22444">
        <ele>56.1</ele>
        <time>2020-07-01T10:27:27Z</time>
      </trkpt>
      <trkpt lat="48.97776" lon="3.22436">
        <ele>56.1</ele>
        <time>2020-07-01T10:27:28Z</time>
      </trkpt>
      <trkpt lat="48.97775" lon="3.22427">
        <ele>56.1</ele>
        <time>2020-07-01T10:27:29Z</time>
      </trkpt>
      <trkpt lat="48.97775" lon="3.2242">
        <ele>56.1</ele>
        <time>2020-07-01T10:27:30Z</time>
      </trkpt>
      <trkpt lat="48.97774" lon="3.22414">
        <ele>56.2</ele>
        <time>2020-07-01T10:27:31Z</time>
      </trkpt>
      <trkpt lat="48.97772" lon="3.22409">
        <ele>56.1</ele>
        <time>2020-07-01T10:27:32Z</time>
      </trkpt>
      <trkpt lat="48.97771" lon="3.22402">
        <ele>56.1</ele>
        <time>2020-07-01T10:27:33Z</time>
      </trkpt>
      <trkpt lat="48.9777" lon="3.22395">
        <ele>56.1</ele>
        <time>2020-07-01T10:27:34Z</time>
      </trkpt>
      <trkpt lat="48.9777" lon="3.22388">
        <ele>56.1</ele>
        <time>2020-07-01T10:27:35Z</time>
      </trkpt>
      <trkpt lat="48.97768" lon="3.22382">
        <ele>56.1</ele>
        <time>2020-07-01T10:27:36Z</time>
      </trkpt>
      <trkpt lat="48.97767" lon="3.22376">
        <ele>56.1</ele>
        <time>2020-07-01T10:27:37Z</time>
      </trkpt>
      <trkpt lat="48.97767" lon="3.22368">
        <ele>56.1</ele>
        <time>2020-07-01T10:27:38Z</time>
      </trkpt>
      <trkpt lat="48.97766" lon="3.22361">
        <ele>56</ele>
        <time>2020-07-01T10:27:39Z</time>
      </trkpt>
      <trkpt lat="48.97765" lon="3.22354">
        <ele>56</ele>
        <time>2020-07-01T10:27:40Z</time>
      </trkpt>
      <trkpt lat="48.97764" lon="3.22347">
        <ele>56</ele>
        <time>2020-07-01T10:27:41Z</time>
      </trkpt>
      <trkpt lat="48.97763" lon="3.2234">
        <ele>56</ele>
        <time>2020-07-01T10:27:42Z</time>
      </trkpt>
      <trkpt lat="48.97762" lon="3.22333">
        <ele>56.1</ele>
        <time>2020-07-01T10:27:43Z</time>
      </trkpt>
      <trkpt lat="48.9776" lon="3.22326">
        <ele>56.1</ele>
        <time>2020-07-01T10:27:44Z</time>
      </trkpt>
      <trkpt lat="48.97759" lon="3.22319">
        <ele>56.1</ele>
        <time>2020-07-01T10:27:45Z</time>
      </trkpt>
      <trkpt lat="48.97759" lon="3.2231">
        <ele>56.1</ele>
        <time>2020-07-01T10:27:46Z</time>
      </trkpt>
      <trkpt lat="48.97757" lon="3.22303">
        <ele>56.1</ele>
        <time>2020-07-01T10:27:47Z</time>
      </trkpt>
      <trkpt lat="48.97756" lon="3.22296">
        <ele>56</ele>
        <time>2020-07-01T10:27:48Z</time>
      </trkpt>
      <trkpt lat="48.97754" lon="3.22289">
        <ele>56</ele>
        <time>2020-07-01T10:27:49Z</time>
      </trkpt>
      <trkpt lat="48.97752" lon="3.22282">
        <ele>56</ele>
        <time>2020-07-01T10:27:50Z</time>
      </trkpt>
      <trkpt lat="48.97751" lon="3.22274">
        <ele>56</ele>
        <time>2020-07-01T10:27:51Z</time>
      </trkpt>
      <trkpt lat="48.97749" lon="3.22267">
        <ele>55.9</ele>
        <time>2020-07-01T10:27:52Z</time>
      </trkpt>
      <trkpt lat="48.97748" lon="3.22261">
        <ele>56</ele>
        <time>2020-07-01T10:27:53Z</time>
      </trkpt>
      <trkpt lat="48.97747" lon="3.22254">
        <ele>56</ele>
        <time>2020-07-01T10:27:54Z</time>
      </trkpt>
      <trkpt lat="48.97745" lon="3.22247">
        <ele>56</ele>
        <time>2020-07-01T10:27:55Z</time>
      </trkpt>
      <trkpt lat="48.97743" lon="3.2224">
        <ele>56</ele>
        <time>2020-07-01T10:27:56Z</time>
      </trkpt>
      <trkpt lat="48.97741" lon="3.22233">
        <ele>56</ele>
        <time>2020-07-01T10:27:57Z</time>
      </trkpt>
      <trkpt lat="48.9774" lon="3.22226">
        <ele>56</ele>
        <time>2020-07-01T10:27:58Z</time>
      </trkpt>
      <trkpt lat="48.97739" lon="3.2222">
        <ele>56</ele>
        <time>2020-07-01T10:27:59Z</time>
      </trkpt>
      <trkpt lat="48.97737" lon="3.22215">
        <ele>56</ele>
        <time>2020-07-01T10:28:00Z</time>
      </trkpt>
      <trkpt lat="48.97736" lon="3.22208">
        <ele>56</ele>
        <time>2020-07-01T10:28:01Z</time>
      </trkpt>
      <trkpt lat="48.97735" lon="3.22202">
        <ele>56</ele>
        <time>2020-07-01T10:28:02Z</time>
      </trkpt>
      <trkpt lat="48.97733" lon="3.22194">
        <ele>56</ele>
        <time>2020-07-01T10:28:03Z</time>
      </trkpt>
      <trkpt lat="48.97732" lon="3.22186">
        <ele>56</ele>
        <time>2020-07-01T10:28:04Z</time>
      </trkpt>
      <trkpt lat="48.97732" lon="3.22178">
        <ele>56</ele>
        <time>2020-07-01T10:28:05Z</time>
      </trkpt>
      <trkpt lat="48.97731" lon="3.22171">
        <ele>56.1</ele>
        <time>2020-07-01T10:28:06Z</time>
      </trkpt>
      <trkpt lat="48.9773" lon="3.22164">
        <ele>56.1</ele>
        <time>2020-07-01T10:28:07Z</time>
      </trkpt>
      <trkpt lat="48.97728" lon="3.22158">
        <ele>56.2</ele>
        <time>2020-07-01T10:28:08Z</time>
      </trkpt>
      <trkpt lat="48.97727" lon="3.22151">
        <ele>56.3</ele>
        <time>2020-07-01T10:28:09Z</time>
      </trkpt>
      <trkpt lat="48.97725" lon="3.22144">
        <ele>56.4</ele>
        <time>2020-07-01T10:28:10Z</time>
      </trkpt>
      <trkpt lat="48.97723" lon="3.22139">
        <ele>56.5</ele>
        <time>2020-07-01T10:28:11Z</time>
      </trkpt>
      <trkpt lat="48.97722" lon="3.22135">
        <ele>56.6</ele>
        <time>2020-07-01T10:28:12Z</time>
      </trkpt>
      <trkpt lat="48.97721" lon="3.2213">
        <ele>56.7</ele>
        <time>2020-07-01T10:28:13Z</time>
      </trkpt>
      <trkpt lat="48.9772" lon="3.22125">
        <ele>56.8</ele>
        <time>2020-07-01T10:28:14Z</time>
      </trkpt>
      <trkpt lat="48.97719" lon="3.2212">
        <ele>56.9</ele>
        <time>2020-07-01T10:28:15Z</time>
      </trkpt>
      <trkpt lat="48.97718" lon="3.22116">
        <ele>57</ele>
        <time>2020-07-01T10:28:16Z</time>
      </trkpt>
      <trkpt lat="48.97717" lon="3.22111">
        <ele>57.1</ele>
        <time>2020-07-01T10:28:17Z</time>
      </trkpt>
      <trkpt lat="48.97716" lon="3.22107">
        <ele>57.2</ele>
        <time>2020-07-01T10:28:18Z</time>
      </trkpt>
      <trkpt lat="48.97716" lon="3.22102">
        <ele>57.4</ele>
        <time>2020-07-01T10:28:19Z</time>
      </trkpt>
      <trkpt lat="48.97715" lon="3.221">
        <ele>57.4</ele>
        <time>2020-07-01T10:28:20Z</time>
      </trkpt>
      <trkpt lat="48.97715" lon="3.22094">
        <ele>57.5</ele>
        <time>2020-07-01T10:28:21Z</time>
      </trkpt>
      <trkpt lat="48.97713" lon="3.22089">
        <ele>57.7</ele>
        <time>2020-07-01T10:28:22Z</time>
      </trkpt>
      <trkpt lat="48.97713" lon="3.22088">
        <ele>57.7</ele>
        <time>2020-07-01T10:28:23Z</time>
      </trkpt>
      <trkpt lat="48.97711" lon="3.22084">
        <ele>57.8</ele>
        <time>2020-07-01T10:28:24Z</time>
      </trkpt>
      <trkpt lat="48.9771" lon="3.22081">
        <ele>57.9</ele>
        <time>2020-07-01T10:28:25Z</time>
      </trkpt>
      <trkpt lat="48.97708" lon="3.22076">
        <ele>57.7</ele>
        <time>2020-07-01T10:28:26Z</time>
      </trkpt>
      <trkpt lat="48.97708" lon="3.22074">
        <ele>57.7</ele>
        <time>2020-07-01T10:28:27Z</time>
      </trkpt>
      <trkpt lat="48.97708" lon="3.22069">
        <ele>57.6</ele>
        <time>2020-07-01T10:28:28Z</time>
      </trkpt>
      <trkpt lat="48.97707" lon="3.22068">
        <ele>57.5</ele>
        <time>2020-07-01T10:28:29Z</time>
      </trkpt>
      <trkpt lat="48.97707" lon="3.22062">
        <ele>57.4</ele>
        <time>2020-07-01T10:28:30Z</time>
      </trkpt>
      <trkpt lat="48.97707" lon="3.22059">
        <ele>57.3</ele>
        <time>2020-07-01T10:28:31Z</time>
      </trkpt>
      <trkpt lat="48.97707" lon="3.22054">
        <ele>57.2</ele>
        <time>2020-07-01T10:28:32Z</time>
      </trkpt>
      <trkpt lat="48.97706" lon="3.22045">
        <ele>56.9</ele>
        <time>2020-07-01T10:28:33Z</time>
      </trkpt>
      <trkpt lat="48.97704" lon="3.22035">
        <ele>56.7</ele>
        <time>2020-07-01T10:28:34Z</time>
      </trkpt>
      <trkpt lat="48.97702" lon="3.22027">
        <ele>56.5</ele>
        <time>2020-07-01T10:28:35Z</time>
      </trkpt>
      <trkpt lat="48.97701" lon="3.22016">
        <ele>56.3</ele>
        <time>2020-07-01T10:28:36Z</time>
      </trkpt>
      <trkpt lat="48.97699" lon="3.22004">
        <ele>56.1</ele>
        <time>2020-07-01T10:28:37Z</time>
      </trkpt>
      <trkpt lat="48.97697" lon="3.21993">
        <ele>56</ele>
        <time>2020-07-01T10:28:38Z</time>
      </trkpt>
      <trkpt lat="48.97695" lon="3.21983">
        <ele>55.9</ele>
        <time>2020-07-01T10:28:39Z</time>
      </trkpt>
      <trkpt lat="48.97694" lon="3.21974">
        <ele>55.9</ele>
        <time>2020-07-01T10:28:40Z</time>
      </trkpt>
      <trkpt lat="48.97692" lon="3.21965">
        <ele>55.8</ele>
        <time>2020-07-01T10:28:41Z</time>
      </trkpt>
      <trkpt lat="48.97691" lon="3.21956">
        <ele>55.9</ele>
        <time>2020-07-01T10:28:42Z</time>
      </trkpt>
      <trkpt lat="48.9769" lon="3.21947">
        <ele>55.9</ele>
        <time>2020-07-01T10:28:43Z</time>
      </trkpt>
      <trkpt lat="48.97689" lon="3.21938">
        <ele>55.9</ele>
        <time>2020-07-01T10:28:44Z</time>
      </trkpt>
      <trkpt lat="48.97688" lon="3.2193">
        <ele>55.9</ele>
        <time>2020-07-01T10:28:45Z</time>
      </trkpt>
      <trkpt lat="48.97687" lon="3.2192">
        <ele>55.9</ele>
        <time>2020-07-01T10:28:46Z</time>
      </trkpt>
      <trkpt lat="48.97686" lon="3.21911">
        <ele>56</ele>
        <time>2020-07-01T10:28:47Z</time>
      </trkpt>
      <trkpt lat="48.97686" lon="3.21903">
        <ele>56</ele>
        <time>2020-07-01T10:28:48Z</time>
      </trkpt>
      <trkpt lat="48.97685" lon="3.21896">
        <ele>56</ele>
        <time>2020-07-01T10:28:49Z</time>
      </trkpt>
      <trkpt lat="48.97684" lon="3.21887">
        <ele>56.1</ele>
        <time>2020-07-01T10:28:50Z</time>
      </trkpt>
      <trkpt lat="48.97683" lon="3.21878">
        <ele>56.1</ele>
        <time>2020-07-01T10:28:51Z</time>
      </trkpt>
      <trkpt lat="48.97682" lon="3.2187">
        <ele>56.2</ele>
        <time>2020-07-01T10:28:52Z</time>
      </trkpt>
      <trkpt lat="48.97681" lon="3.21865">
        <ele>56.2</ele>
        <time>2020-07-01T10:28:53Z</time>
      </trkpt>
      <trkpt lat="48.9768" lon="3.21857">
        <ele>56.2</ele>
        <time>2020-07-01T10:28:54Z</time>
      </trkpt>
      <trkpt lat="48.97679" lon="3.21849">
        <ele>56.3</ele>
        <time>2020-07-01T10:28:55Z</time>
      </trkpt>
      <trkpt lat="48.97678" lon="3.2184">
        <ele>56.3</ele>
        <time>2020-07-01T10:28:56Z</time>
      </trkpt>
      <trkpt lat="48.97678" lon="3.21832">
        <ele>56.3</ele>
        <time>2020-07-01T10:28:57Z</time>
      </trkpt>
      <trkpt lat="48.97678" lon="3.21825">
        <ele>56.4</ele>
        <time>2020-07-01T10:28:58Z</time>
      </trkpt>
      <trkpt lat="48.97677" lon="3.21817">
        <ele>56.4</ele>
        <time>2020-07-01T10:28:59Z</time>
      </trkpt>
      <trkpt lat="48.97676" lon="3.21808">
        <ele>56.4</ele>
        <time>2020-07-01T10:29:00Z</time>
      </trkpt>
      <trkpt lat="48.97675" lon="3.218">
        <ele>56.4</ele>
        <time>2020-07-01T10:29:01Z</time>
      </trkpt>
      <trkpt lat="48.97673" lon="3.21793">
        <ele>56.4</ele>
        <time>2020-07-01T10:29:02Z</time>
      </trkpt>
      <trkpt lat="48.97673" lon="3.21788">
        <ele>56.4</ele>
        <time>2020-07-01T10:29:03Z</time>
      </trkpt>
      <trkpt lat="48.97672" lon="3.21783">
        <ele>56.4</ele>
        <time>2020-07-01T10:29:04Z</time>
      </trkpt>
      <trkpt lat="48.97671" lon="3.21775">
        <ele>56.4</ele>
        <time>2020-07-01T10:29:05Z</time>
      </trkpt>
      <trkpt lat="48.9767" lon="3.21766">
        <ele>56.3</ele>
        <time>2020-07-01T10:29:06Z</time>
      </trkpt>
      <trkpt lat="48.97669" lon="3.21758">
        <ele>56.2</ele>
        <time>2020-07-01T10:29:07Z</time>
      </trkpt>
      <trkpt lat="48.97669" lon="3.21751">
        <ele>56.2</ele>
        <time>2020-07-01T10:29:08Z</time>
      </trkpt>
      <trkpt lat="48.97668" lon="3.21742">
        <ele>56.1</ele>
        <time>2020-07-01T10:29:09Z</time>
      </trkpt>
      <trkpt lat="48.97666" lon="3.21734">
        <ele>56.1</ele>
        <time>2020-07-01T10:29:10Z</time>
      </trkpt>
      <trkpt lat="48.97664" lon="3.21726">
        <ele>56.1</ele>
        <time>2020-07-01T10:29:11Z</time>
      </trkpt>
      <trkpt lat="48.97662" lon="3.21718">
        <ele>56.1</ele>
        <time>2020-07-01T10:29:12Z</time>
      </trkpt>
      <trkpt lat="48.9766" lon="3.21713">
        <ele>56.1</ele>
        <time>2020-07-01T10:29:13Z</time>
      </trkpt>
      <trkpt lat="48.97658" lon="3.21707">
        <ele>56.1</ele>
        <time>2020-07-01T10:29:14Z</time>
      </trkpt>
      <trkpt lat="48.97655" lon="3.21699">
        <ele>56.1</ele>
        <time>2020-07-01T10:29:15Z</time>
      </trkpt>
      <trkpt lat="48.97652" lon="3.21689">
        <ele>56.1</ele>
        <time>2020-07-01T10:29:16Z</time>
      </trkpt>
      <trkpt lat="48.9765" lon="3.21681">
        <ele>56.1</ele>
        <time>2020-07-01T10:29:17Z</time>
      </trkpt>
      <trkpt lat="48.97647" lon="3.21674">
        <ele>56.1</ele>
        <time>2020-07-01T10:29:18Z</time>
      </trkpt>
      <trkpt lat="48.97645" lon="3.21665">
        <ele>56.1</ele>
        <time>2020-07-01T10:29:19Z</time>
      </trkpt>
      <trkpt lat="48.97643" lon="3.21658">
        <ele>56.1</ele>
        <time>2020-07-01T10:29:20Z</time>
      </trkpt>
      <trkpt lat="48.97641" lon="3.21651">
        <ele>56.1</ele>
        <time>2020-07-01T10:29:21Z</time>
      </trkpt>
      <trkpt lat="48.97638" lon="3.21642">
        <ele>56.1</ele>
        <time>2020-07-01T10:29:22Z</time>
      </trkpt>
      <trkpt lat="48.97635" lon="3.21636">
        <ele>56.1</ele>
        <time>2020-07-01T10:29:23Z</time>
      </trkpt>
      <trkpt lat="48.97631" lon="3.2163">
        <ele>56.1</ele>
        <time>2020-07-01T10:29:24Z</time>
      </trkpt>
      <trkpt lat="48.97628" lon="3.21623">
        <ele>56.1</ele>
        <time>2020-07-01T10:29:25Z</time>
      </trkpt>
      <trkpt lat="48.97624" lon="3.21617">
        <ele>56.1</ele>
        <time>2020-07-01T10:29:26Z</time>
      </trkpt>
      <trkpt lat="48.9762" lon="3.21608">
        <ele>56.1</ele>
        <time>2020-07-01T10:29:27Z</time>
      </trkpt>
      <trkpt lat="48.97616" lon="3.216">
        <ele>56.1</ele>
        <time>2020-07-01T10:29:28Z</time>
      </trkpt>
      <trkpt lat="48.97612" lon="3.21593">
        <ele>56.1</ele>
        <time>2020-07-01T10:29:29Z</time>
      </trkpt>
      <trkpt lat="48.97608" lon="3.21585">
        <ele>56.1</ele>
        <time>2020-07-01T10:29:30Z</time>
      </trkpt>
      <trkpt lat="48.97605" lon="3.21578">
        <ele>56.1</ele>
        <time>2020-07-01T10:29:31Z</time>
      </trkpt>
      <trkpt lat="48.97602" lon="3.21571">
        <ele>56.1</ele>
        <time>2020-07-01T10:29:32Z</time>
      </trkpt>
      <trkpt lat="48.97597" lon="3.21564">
        <ele>56.1</ele>
        <time>2020-07-01T10:29:33Z</time>
      </trkpt>
      <trkpt lat="48.97593" lon="3.21556">
        <ele>56.1</ele>
        <time>2020-07-01T10:29:34Z</time>
      </trkpt>
      <trkpt lat="48.97589" lon="3.21551">
        <ele>56.1</ele>
        <time>2020-07-01T10:29:35Z</time>
      </trkpt>
      <trkpt lat="48.97585" lon="3.21544">
        <ele>56.1</ele>
        <time>2020-07-01T10:29:36Z</time>
      </trkpt>
      <trkpt lat="48.9758" lon="3.21537">
        <ele>56.1</ele>
        <time>2020-07-01T10:29:37Z</time>
      </trkpt>
      <trkpt lat="48.97577" lon="3.21531">
        <ele>56.1</ele>
        <time>2020-07-01T10:29:38Z</time>
      </trkpt>
      <trkpt lat="48.97573" lon="3.21525">
        <ele>56</ele>
        <time>2020-07-01T10:29:39Z</time>
      </trkpt>
      <trkpt lat="48.97569" lon="3.21518">
        <ele>56</ele>
        <time>2020-07-01T10:29:40Z</time>
      </trkpt>
      <trkpt lat="48.97565" lon="3.2151">
        <ele>56</ele>
        <time>2020-07-01T10:29:41Z</time>
      </trkpt>
      <trkpt lat="48.97561" lon="3.21503">
        <ele>56</ele>
        <time>2020-07-01T10:29:42Z</time>
      </trkpt>
      <trkpt lat="48.97557" lon="3.21497">
        <ele>56</ele>
        <time>2020-07-01T10:29:43Z</time>
      </trkpt>
      <trkpt lat="48.97553" lon="3.2149">
        <ele>55.9</ele>
        <time>2020-07-01T10:29:44Z</time>
      </trkpt>
      <trkpt lat="48.9755" lon="3.21481">
        <ele>55.9</ele>
        <time>2020-07-01T10:29:45Z</time>
      </trkpt>
      <trkpt lat="48.97546" lon="3.21474">
        <ele>55.9</ele>
        <time>2020-07-01T10:29:46Z</time>
      </trkpt>
      <trkpt lat="48.97544" lon="3.2147">
        <ele>55.9</ele>
        <time>2020-07-01T10:29:47Z</time>
      </trkpt>
      <trkpt lat="48.9754" lon="3.21463">
        <ele>55.8</ele>
        <time>2020-07-01T10:29:48Z</time>
      </trkpt>
      <trkpt lat="48.97536" lon="3.21455">
        <ele>55.8</ele>
        <time>2020-07-01T10:29:49Z</time>
      </trkpt>
      <trkpt lat="48.97532" lon="3.21449">
        <ele>55.8</ele>
        <time>2020-07-01T10:29:50Z</time>
      </trkpt>
      <trkpt lat="48.97529" lon="3.21443">
        <ele>55.9</ele>
        <time>2020-07-01T10:29:51Z</time>
      </trkpt>
      <trkpt lat="48.97525" lon="3.21437">
        <ele>55.9</ele>
        <time>2020-07-01T10:29:52Z</time>
      </trkpt>
      <trkpt lat="48.97521" lon="3.2143">
        <ele>55.9</ele>
        <time>2020-07-01T10:29:53Z</time>
      </trkpt>
      <trkpt lat="48.97517" lon="3.21423">
        <ele>55.9</ele>
        <time>2020-07-01T10:29:54Z</time>
      </trkpt>
      <trkpt lat="48.97513" lon="3.21417">
        <ele>55.9</ele>
        <time>2020-07-01T10:29:55Z</time>
      </trkpt>
      <trkpt lat="48.97509" lon="3.2141">
        <ele>55.9</ele>
        <time>2020-07-01T10:29:56Z</time>
      </trkpt>
      <trkpt lat="48.97506" lon="3.21404">
        <ele>56</ele>
        <time>2020-07-01T10:29:57Z</time>
      </trkpt>
      <trkpt lat="48.97503" lon="3.21399">
        <ele>56</ele>
        <time>2020-07-01T10:29:58Z</time>
      </trkpt>
      <trkpt lat="48.975" lon="3.21393">
        <ele>56.1</ele>
        <time>2020-07-01T10:29:59Z</time>
      </trkpt>
      <trkpt lat="48.97496" lon="3.21388">
        <ele>56.2</ele>
        <time>2020-07-01T10:30:00Z</time>
      </trkpt>
      <trkpt lat="48.97491" lon="3.21381">
        <ele>56.3</ele>
        <time>2020-07-01T10:30:01Z</time>
      </trkpt>
      <trkpt lat="48.97487" lon="3.21372">
        <ele>56.6</ele>
        <time>2020-07-01T10:30:02Z</time>
      </trkpt>
      <trkpt lat="48.97485" lon="3.21365">
        <ele>56.8</ele>
        <time>2020-07-01T10:30:03Z</time>
      </trkpt>
      <trkpt lat="48.97481" lon="3.21359">
        <ele>56.8</ele>
        <time>2020-07-01T10:30:04Z</time>
      </trkpt>
      <trkpt lat="48.97478" lon="3.21353">
        <ele>56.9</ele>
        <time>2020-07-01T10:30:05Z</time>
      </trkpt>
      <trkpt lat="48.97474" lon="3.21346">
        <ele>56.9</ele>
        <time>2020-07-01T10:30:06Z</time>
      </trkpt>
      <trkpt lat="48.97471" lon="3.21341">
        <ele>57</ele>
        <time>2020-07-01T10:30:07Z</time>
      </trkpt>
      <trkpt lat="48.97468" lon="3.21336">
        <ele>57</ele>
        <time>2020-07-01T10:30:08Z</time>
      </trkpt>
      <trkpt lat="48.97466" lon="3.21331">
        <ele>57</ele>
        <time>2020-07-01T10:30:09Z</time>
      </trkpt>
      <trkpt lat="48.97462" lon="3.21325">
        <ele>57</ele>
        <time>2020-07-01T10:30:10Z</time>
      </trkpt>
      <trkpt lat="48.97458" lon="3.21321">
        <ele>57.1</ele>
        <time>2020-07-01T10:30:11Z</time>
      </trkpt>
      <trkpt lat="48.97455" lon="3.21317">
        <ele>57.1</ele>
        <time>2020-07-01T10:30:12Z</time>
      </trkpt>
      <trkpt lat="48.97452" lon="3.21311">
        <ele>57.1</ele>
        <time>2020-07-01T10:30:13Z</time>
      </trkpt>
      <trkpt lat="48.97449" lon="3.21305">
        <ele>57.1</ele>
        <time>2020-07-01T10:30:14Z</time>
      </trkpt>
      <trkpt lat="48.97445" lon="3.21298">
        <ele>57.1</ele>
        <time>2020-07-01T10:30:15Z</time>
      </trkpt>
      <trkpt lat="48.97441" lon="3.21293">
        <ele>57.1</ele>
        <time>2020-07-01T10:30:16Z</time>
      </trkpt>
      <trkpt lat="48.97438" lon="3.21287">
        <ele>57.1</ele>
        <time>2020-07-01T10:30:17Z</time>
      </trkpt>
      <trkpt lat="48.97433" lon="3.21279">
        <ele>57.2</ele>
        <time>2020-07-01T10:30:18Z</time>
      </trkpt>
      <trkpt lat="48.9743" lon="3.21273">
        <ele>57.2</ele>
        <time>2020-07-01T10:30:19Z</time>
      </trkpt>
      <trkpt lat="48.97427" lon="3.21268">
        <ele>57.3</ele>
        <time>2020-07-01T10:30:20Z</time>
      </trkpt>
      <trkpt lat="48.97424" lon="3.21261">
        <ele>57.3</ele>
        <time>2020-07-01T10:30:21Z</time>
      </trkpt>
      <trkpt lat="48.97419" lon="3.21254">
        <ele>57.3</ele>
        <time>2020-07-01T10:30:22Z</time>
      </trkpt>
      <trkpt lat="48.97417" lon="3.21248">
        <ele>57.4</ele>
        <time>2020-07-01T10:30:23Z</time>
      </trkpt>
      <trkpt lat="48.97412" lon="3.2124">
        <ele>57.4</ele>
        <time>2020-07-01T10:30:24Z</time>
      </trkpt>
      <trkpt lat="48.97409" lon="3.21233">
        <ele>57.4</ele>
        <time>2020-07-01T10:30:25Z</time>
      </trkpt>
      <trkpt lat="48.97406" lon="3.21228">
        <ele>57.4</ele>
        <time>2020-07-01T10:30:26Z</time>
      </trkpt>
      <trkpt lat="48.97402" lon="3.21221">
        <ele>57.5</ele>
        <time>2020-07-01T10:30:27Z</time>
      </trkpt>
      <trkpt lat="48.97398" lon="3.21215">
        <ele>57.5</ele>
        <time>2020-07-01T10:30:28Z</time>
      </trkpt>
      <trkpt lat="48.97395" lon="3.2121">
        <ele>57.5</ele>
        <time>2020-07-01T10:30:29Z</time>
      </trkpt>
      <trkpt lat="48.97392" lon="3.21204">
        <ele>57.5</ele>
        <time>2020-07-01T10:30:30Z</time>
      </trkpt>
      <trkpt lat="48.97388" lon="3.21198">
        <ele>57.5</ele>
        <time>2020-07-01T10:30:31Z</time>
      </trkpt>
      <trkpt lat="48.97384" lon="3.21192">
        <ele>57.5</ele>
        <time>2020-07-01T10:30:32Z</time>
      </trkpt>
      <trkpt lat="48.97381" lon="3.21186">
        <ele>57.5</ele>
        <time>2020-07-01T10:30:33Z</time>
      </trkpt>
      <trkpt lat="48.97377" lon="3.2118">
        <ele>57.5</ele>
        <time>2020-07-01T10:30:34Z</time>
      </trkpt>
      <trkpt lat="48.97374" lon="3.21175">
        <ele>57.5</ele>
        <time>2020-07-01T10:30:35Z</time>
      </trkpt>
      <trkpt lat="48.97371" lon="3.21169">
        <ele>57.5</ele>
        <time>2020-07-01T10:30:36Z</time>
      </trkpt>
      <trkpt lat="48.97367" lon="3.21163">
        <ele>57.5</ele>
        <time>2020-07-01T10:30:37Z</time>
      </trkpt>
      <trkpt lat="48.97364" lon="3.21158">
        <ele>57.5</ele>
        <time>2020-07-01T10:30:38Z</time>
      </trkpt>
      <trkpt lat="48.9736" lon="3.21152">
        <ele>57.4</ele>
        <time>2020-07-01T10:30:39Z</time>
      </trkpt>
      <trkpt lat="48.97357" lon="3.21146">
        <ele>57.4</ele>
        <time>2020-07-01T10:30:40Z</time>
      </trkpt>
      <trkpt lat="48.97354" lon="3.2114">
        <ele>57.4</ele>
        <time>2020-07-01T10:30:41Z</time>
      </trkpt>
      <trkpt lat="48.9735" lon="3.21135">
        <ele>57.3</ele>
        <time>2020-07-01T10:30:42Z</time>
      </trkpt>
      <trkpt lat="48.97347" lon="3.21131">
        <ele>57.3</ele>
        <time>2020-07-01T10:30:43Z</time>
      </trkpt>
      <trkpt lat="48.97344" lon="3.21125">
        <ele>57.3</ele>
        <time>2020-07-01T10:30:44Z</time>
      </trkpt>
      <trkpt lat="48.97341" lon="3.2112">
        <ele>57.3</ele>
        <time>2020-07-01T10:30:45Z</time>
      </trkpt>
      <trkpt lat="48.97336" lon="3.21114">
        <ele>57.3</ele>
        <time>2020-07-01T10:30:46Z</time>
      </trkpt>
      <trkpt lat="48.97332" lon="3.21108">
        <ele>57.2</ele>
        <time>2020-07-01T10:30:47Z</time>
      </trkpt>
      <trkpt lat="48.97327" lon="3.21103">
        <ele>57.2</ele>
        <time>2020-07-01T10:30:48Z</time>
      </trkpt>
      <trkpt lat="48.97323" lon="3.21099">
        <ele>57.2</ele>
        <time>2020-07-01T10:30:49Z</time>
      </trkpt>
      <trkpt lat="48.97319" lon="3.21094">
        <ele>57.2</ele>
        <time>2020-07-01T10:30:50Z</time>
      </trkpt>
      <trkpt lat="48.97315" lon="3.2109">
        <ele>57.1</ele>
        <time>2020-07-01T10:30:51Z</time>
      </trkpt>
      <trkpt lat="48.97312" lon="3.21085">
        <ele>57.1</ele>
        <time>2020-07-01T10:30:52Z</time>
      </trkpt>
      <trkpt lat="48.97307" lon="3.2108">
        <ele>57.1</ele>
        <time>2020-07-01T10:30:53Z</time>
      </trkpt>
      <trkpt lat="48.97303" lon="3.21075">
        <ele>57.1</ele>
        <time>2020-07-01T10:30:54Z</time>
      </trkpt>
      <trkpt lat="48.97299" lon="3.21069">
        <ele>57.1</ele>
        <time>2020-07-01T10:30:55Z</time>
      </trkpt>
      <trkpt lat="48.97295" lon="3.21063">
        <ele>57.1</ele>
        <time>2020-07-01T10:30:56Z</time>
      </trkpt>
      <trkpt lat="48.97291" lon="3.21058">
        <ele>57.1</ele>
        <time>2020-07-01T10:30:57Z</time>
      </trkpt>
      <trkpt lat="48.97287" lon="3.21053">
        <ele>57.2</ele>
        <time>2020-07-01T10:30:58Z</time>
      </trkpt>
      <trkpt lat="48.97283" lon="3.21047">
        <ele>57.3</ele>
        <time>2020-07-01T10:30:59Z</time>
      </trkpt>
      <trkpt lat="48.97279" lon="3.21041">
        <ele>57.2</ele>
        <time>2020-07-01T10:31:00Z</time>
      </trkpt>
      <trkpt lat="48.97275" lon="3.21036">
        <ele>57.2</ele>
        <time>2020-07-01T10:31:01Z</time>
      </trkpt>
      <trkpt lat="48.9727" lon="3.21031">
        <ele>57.2</ele>
        <time>2020-07-01T10:31:02Z</time>
      </trkpt>
      <trkpt lat="48.97267" lon="3.21026">
        <ele>57.2</ele>
        <time>2020-07-01T10:31:03Z</time>
      </trkpt>
      <trkpt lat="48.97263" lon="3.2102">
        <ele>57.2</ele>
        <time>2020-07-01T10:31:04Z</time>
      </trkpt>
      <trkpt lat="48.97259" lon="3.21014">
        <ele>57.2</ele>
        <time>2020-07-01T10:31:05Z</time>
      </trkpt>
      <trkpt lat="48.97255" lon="3.2101">
        <ele>57.2</ele>
        <time>2020-07-01T10:31:06Z</time>
      </trkpt>
      <trkpt lat="48.97251" lon="3.21005">
        <ele>57.2</ele>
        <time>2020-07-01T10:31:07Z</time>
      </trkpt>
      <trkpt lat="48.97247" lon="3.20999">
        <ele>57.2</ele>
        <time>2020-07-01T10:31:08Z</time>
      </trkpt>
      <trkpt lat="48.97243" lon="3.20993">
        <ele>57.2</ele>
        <time>2020-07-01T10:31:09Z</time>
      </trkpt>
      <trkpt lat="48.9724" lon="3.20989">
        <ele>57.2</ele>
        <time>2020-07-01T10:31:10Z</time>
      </trkpt>
      <trkpt lat="48.97236" lon="3.20983">
        <ele>57.2</ele>
        <time>2020-07-01T10:31:11Z</time>
      </trkpt>
      <trkpt lat="48.97231" lon="3.20978">
        <ele>57.2</ele>
        <time>2020-07-01T10:31:12Z</time>
      </trkpt>
      <trkpt lat="48.97227" lon="3.20972">
        <ele>57.2</ele>
        <time>2020-07-01T10:31:13Z</time>
      </trkpt>
      <trkpt lat="48.97224" lon="3.20967">
        <ele>57.2</ele>
        <time>2020-07-01T10:31:14Z</time>
      </trkpt>
      <trkpt lat="48.9722" lon="3.20962">
        <ele>57.2</ele>
        <time>2020-07-01T10:31:15Z</time>
      </trkpt>
      <trkpt lat="48.97216" lon="3.20956">
        <ele>57.3</ele>
        <time>2020-07-01T10:31:16Z</time>
      </trkpt>
      <trkpt lat="48.97212" lon="3.20952">
        <ele>57.3</ele>
        <time>2020-07-01T10:31:17Z</time>
      </trkpt>
      <trkpt lat="48.97207" lon="3.20947">
        <ele>57.3</ele>
        <time>2020-07-01T10:31:18Z</time>
      </trkpt>
      <trkpt lat="48.97203" lon="3.20943">
        <ele>57.3</ele>
        <time>2020-07-01T10:31:19Z</time>
      </trkpt>
      <trkpt lat="48.972" lon="3.20938">
        <ele>57.4</ele>
        <time>2020-07-01T10:31:20Z</time>
      </trkpt>
      <trkpt lat="48.97195" lon="3.20932">
        <ele>57.4</ele>
        <time>2020-07-01T10:31:21Z</time>
      </trkpt>
      <trkpt lat="48.97192" lon="3.20926">
        <ele>57.4</ele>
        <time>2020-07-01T10:31:22Z</time>
      </trkpt>
      <trkpt lat="48.97187" lon="3.20921">
        <ele>57.4</ele>
        <time>2020-07-01T10:31:23Z</time>
      </trkpt>
      <trkpt lat="48.97182" lon="3.20917">
        <ele>57.5</ele>
        <time>2020-07-01T10:31:24Z</time>
      </trkpt>
      <trkpt lat="48.97178" lon="3.20912">
        <ele>57.5</ele>
        <time>2020-07-01T10:31:25Z</time>
      </trkpt>
      <trkpt lat="48.97174" lon="3.20906">
        <ele>57.5</ele>
        <time>2020-07-01T10:31:26Z</time>
      </trkpt>
      <trkpt lat="48.9717" lon="3.20902">
        <ele>57.5</ele>
        <time>2020-07-01T10:31:27Z</time>
      </trkpt>
      <trkpt lat="48.97166" lon="3.20897">
        <ele>57.6</ele>
        <time>2020-07-01T10:31:28Z</time>
      </trkpt>
      <trkpt lat="48.97162" lon="3.20892">
        <ele>57.6</ele>
        <time>2020-07-01T10:31:29Z</time>
      </trkpt>
      <trkpt lat="48.97158" lon="3.20887">
        <ele>57.6</ele>
        <time>2020-07-01T10:31:30Z</time>
      </trkpt>
      <trkpt lat="48.97153" lon="3.20882">
        <ele>57.6</ele>
        <time>2020-07-01T10:31:31Z</time>
      </trkpt>
      <trkpt lat="48.97149" lon="3.20877">
        <ele>57.6</ele>
        <time>2020-07-01T10:31:32Z</time>
      </trkpt>
      <trkpt lat="48.97145" lon="3.20872">
        <ele>57.6</ele>
        <time>2020-07-01T10:31:33Z</time>
      </trkpt>
      <trkpt lat="48.9714" lon="3.20867">
        <ele>57.6</ele>
        <time>2020-07-01T10:31:34Z</time>
      </trkpt>
      <trkpt lat="48.97136" lon="3.20862">
        <ele>57.6</ele>
        <time>2020-07-01T10:31:35Z</time>
      </trkpt>
      <trkpt lat="48.97132" lon="3.20857">
        <ele>57.7</ele>
        <time>2020-07-01T10:31:36Z</time>
      </trkpt>
      <trkpt lat="48.97129" lon="3.20851">
        <ele>57.7</ele>
        <time>2020-07-01T10:31:37Z</time>
      </trkpt>
      <trkpt lat="48.97124" lon="3.20846">
        <ele>57.8</ele>
        <time>2020-07-01T10:31:38Z</time>
      </trkpt>
      <trkpt lat="48.9712" lon="3.20841">
        <ele>57.8</ele>
        <time>2020-07-01T10:31:39Z</time>
      </trkpt>
      <trkpt lat="48.97116" lon="3.20836">
        <ele>57.9</ele>
        <time>2020-07-01T10:31:40Z</time>
      </trkpt>
      <trkpt lat="48.97112" lon="3.2083">
        <ele>57.9</ele>
        <time>2020-07-01T10:31:41Z</time>
      </trkpt>
      <trkpt lat="48.97108" lon="3.20826">
        <ele>57.9</ele>
        <time>2020-07-01T10:31:42Z</time>
      </trkpt>
      <trkpt lat="48.97105" lon="3.20822">
        <ele>58</ele>
        <time>2020-07-01T10:31:43Z</time>
      </trkpt>
      <trkpt lat="48.97101" lon="3.20818">
        <ele>58</ele>
        <time>2020-07-01T10:31:44Z</time>
      </trkpt>
      <trkpt lat="48.97097" lon="3.20813">
        <ele>58</ele>
        <time>2020-07-01T10:31:45Z</time>
      </trkpt>
      <trkpt lat="48.97093" lon="3.20808">
        <ele>58</ele>
        <time>2020-07-01T10:31:46Z</time>
      </trkpt>
      <trkpt lat="48.97089" lon="3.20804">
        <ele>58.1</ele>
        <time>2020-07-01T10:31:47Z</time>
      </trkpt>
      <trkpt lat="48.97085" lon="3.20801">
        <ele>58.1</ele>
        <time>2020-07-01T10:31:48Z</time>
      </trkpt>
      <trkpt lat="48.97081" lon="3.20797">
        <ele>58.1</ele>
        <time>2020-07-01T10:31:49Z</time>
      </trkpt>
      <trkpt lat="48.97077" lon="3.20794">
        <ele>58.2</ele>
        <time>2020-07-01T10:31:50Z</time>
      </trkpt>
      <trkpt lat="48.97074" lon="3.2079">
        <ele>58.2</ele>
        <time>2020-07-01T10:31:51Z</time>
      </trkpt>
      <trkpt lat="48.9707" lon="3.20786">
        <ele>58.3</ele>
        <time>2020-07-01T10:31:52Z</time>
      </trkpt>
      <trkpt lat="48.97065" lon="3.20782">
        <ele>58.3</ele>
        <time>2020-07-01T10:31:53Z</time>
      </trkpt>
      <trkpt lat="48.97061" lon="3.20779">
        <ele>58.3</ele>
        <time>2020-07-01T10:31:54Z</time>
      </trkpt>
      <trkpt lat="48.97057" lon="3.20775">
        <ele>58.3</ele>
        <time>2020-07-01T10:31:55Z</time>
      </trkpt>
      <trkpt lat="48.97053" lon="3.2077">
        <ele>58.3</ele>
        <time>2020-07-01T10:31:56Z</time>
      </trkpt>
      <trkpt lat="48.97049" lon="3.20765">
        <ele>58.3</ele>
        <time>2020-07-01T10:31:57Z</time>
      </trkpt>
      <trkpt lat="48.97045" lon="3.2076">
        <ele>58.3</ele>
        <time>2020-07-01T10:31:58Z</time>
      </trkpt>
      <trkpt lat="48.9704" lon="3.20755">
        <ele>58.3</ele>
        <time>2020-07-01T10:31:59Z</time>
      </trkpt>
      <trkpt lat="48.97036" lon="3.20751">
        <ele>58.3</ele>
        <time>2020-07-01T10:32:00Z</time>
      </trkpt>
      <trkpt lat="48.97032" lon="3.20746">
        <ele>58.3</ele>
        <time>2020-07-01T10:32:01Z</time>
      </trkpt>
      <trkpt lat="48.97027" lon="3.20742">
        <ele>58.3</ele>
        <time>2020-07-01T10:32:02Z</time>
      </trkpt>
      <trkpt lat="48.97022" lon="3.20738">
        <ele>58.3</ele>
        <time>2020-07-01T10:32:03Z</time>
      </trkpt>
      <trkpt lat="48.97017" lon="3.20733">
        <ele>58.2</ele>
        <time>2020-07-01T10:32:04Z</time>
      </trkpt>
      <trkpt lat="48.97013" lon="3.20729">
        <ele>58.2</ele>
        <time>2020-07-01T10:32:05Z</time>
      </trkpt>
      <trkpt lat="48.97008" lon="3.20724">
        <ele>58.2</ele>
        <time>2020-07-01T10:32:06Z</time>
      </trkpt>
      <trkpt lat="48.97004" lon="3.2072">
        <ele>58.1</ele>
        <time>2020-07-01T10:32:07Z</time>
      </trkpt>
      <trkpt lat="48.96999" lon="3.20716">
        <ele>58.1</ele>
        <time>2020-07-01T10:32:08Z</time>
      </trkpt>
      <trkpt lat="48.96996" lon="3.20712">
        <ele>58.1</ele>
        <time>2020-07-01T10:32:09Z</time>
      </trkpt>
      <trkpt lat="48.96992" lon="3.20707">
        <ele>58.1</ele>
        <time>2020-07-01T10:32:10Z</time>
      </trkpt>
      <trkpt lat="48.96987" lon="3.20702">
        <ele>58.1</ele>
        <time>2020-07-01T10:32:11Z</time>
      </trkpt>
      <trkpt lat="48.96983" lon="3.20698">
        <ele>58.1</ele>
        <time>2020-07-01T10:32:12Z</time>
      </trkpt>
      <trkpt lat="48.96979" lon="3.20694">
        <ele>58.2</ele>
        <time>2020-07-01T10:32:13Z</time>
      </trkpt>
      <trkpt lat="48.96974" lon="3.20689">
        <ele>58.2</ele>
        <time>2020-07-01T10:32:14Z</time>
      </trkpt>
      <trkpt lat="48.9697" lon="3.20685">
        <ele>58.2</ele>
        <time>2020-07-01T10:32:15Z</time>
      </trkpt>
      <trkpt lat="48.96964" lon="3.2068">
        <ele>58.2</ele>
        <time>2020-07-01T10:32:16Z</time>
      </trkpt>
      <trkpt lat="48.96959" lon="3.20676">
        <ele>58.2</ele>
        <time>2020-07-01T10:32:17Z</time>
      </trkpt>
      <trkpt lat="48.96954" lon="3.20671">
        <ele>58.1</ele>
        <time>2020-07-01T10:32:18Z</time>
      </trkpt>
      <trkpt lat="48.9695" lon="3.20667">
        <ele>58.1</ele>
        <time>2020-07-01T10:32:19Z</time>
      </trkpt>
      <trkpt lat="48.96946" lon="3.20663">
        <ele>58.1</ele>
        <time>2020-07-01T10:32:20Z</time>
      </trkpt>
      <trkpt lat="48.96941" lon="3.20658">
        <ele>58.1</ele>
        <time>2020-07-01T10:32:21Z</time>
      </trkpt>
      <trkpt lat="48.96936" lon="3.20654">
        <ele>58</ele>
        <time>2020-07-01T10:32:22Z</time>
      </trkpt>
      <trkpt lat="48.96931" lon="3.20649">
        <ele>58</ele>
        <time>2020-07-01T10:32:23Z</time>
      </trkpt>
      <trkpt lat="48.96927" lon="3.20645">
        <ele>57.9</ele>
        <time>2020-07-01T10:32:24Z</time>
      </trkpt>
      <trkpt lat="48.96921" lon="3.20643">
        <ele>57.9</ele>
        <time>2020-07-01T10:32:25Z</time>
      </trkpt>
      <trkpt lat="48.96916" lon="3.2064">
        <ele>57.9</ele>
        <time>2020-07-01T10:32:26Z</time>
      </trkpt>
      <trkpt lat="48.9691" lon="3.20635">
        <ele>57.9</ele>
        <time>2020-07-01T10:32:27Z</time>
      </trkpt>
      <trkpt lat="48.96905" lon="3.20631">
        <ele>57.9</ele>
        <time>2020-07-01T10:32:28Z</time>
      </trkpt>
      <trkpt lat="48.969" lon="3.20628">
        <ele>57.9</ele>
        <time>2020-07-01T10:32:29Z</time>
      </trkpt>
      <trkpt lat="48.96896" lon="3.20623">
        <ele>57.8</ele>
        <time>2020-07-01T10:32:30Z</time>
      </trkpt>
      <trkpt lat="48.9689" lon="3.2062">
        <ele>57.8</ele>
        <time>2020-07-01T10:32:31Z</time>
      </trkpt>
      <trkpt lat="48.96885" lon="3.20616">
        <ele>57.8</ele>
        <time>2020-07-01T10:32:32Z</time>
      </trkpt>
      <trkpt lat="48.9688" lon="3.20612">
        <ele>57.8</ele>
        <time>2020-07-01T10:32:33Z</time>
      </trkpt>
      <trkpt lat="48.96874" lon="3.20607">
        <ele>57.7</ele>
        <time>2020-07-01T10:32:34Z</time>
      </trkpt>
      <trkpt lat="48.96869" lon="3.20603">
        <ele>57.7</ele>
        <time>2020-07-01T10:32:35Z</time>
      </trkpt>
      <trkpt lat="48.96864" lon="3.20598">
        <ele>57.7</ele>
        <time>2020-07-01T10:32:36Z</time>
      </trkpt>
      <trkpt lat="48.96859" lon="3.20593">
        <ele>57.7</ele>
        <time>2020-07-01T10:32:37Z</time>
      </trkpt>
      <trkpt lat="48.96853" lon="3.20589">
        <ele>57.6</ele>
        <time>2020-07-01T10:32:38Z</time>
      </trkpt>
      <trkpt lat="48.96848" lon="3.20586">
        <ele>57.5</ele>
        <time>2020-07-01T10:32:39Z</time>
      </trkpt>
      <trkpt lat="48.96843" lon="3.2058">
        <ele>57.5</ele>
        <time>2020-07-01T10:32:40Z</time>
      </trkpt>
      <trkpt lat="48.96839" lon="3.20576">
        <ele>57.4</ele>
        <time>2020-07-01T10:32:41Z</time>
      </trkpt>
      <trkpt lat="48.96834" lon="3.20571">
        <ele>57.4</ele>
        <time>2020-07-01T10:32:42Z</time>
      </trkpt>
      <trkpt lat="48.96827" lon="3.20566">
        <ele>57.4</ele>
        <time>2020-07-01T10:32:43Z</time>
      </trkpt>
      <trkpt lat="48.96823" lon="3.20562">
        <ele>57.3</ele>
        <time>2020-07-01T10:32:44Z</time>
      </trkpt>
      <trkpt lat="48.96818" lon="3.20557">
        <ele>57.3</ele>
        <time>2020-07-01T10:32:45Z</time>
      </trkpt>
      <trkpt lat="48.96813" lon="3.20553">
        <ele>57.3</ele>
        <time>2020-07-01T10:32:46Z</time>
      </trkpt>
      <trkpt lat="48.96809" lon="3.2055">
        <ele>57.3</ele>
        <time>2020-07-01T10:32:47Z</time>
      </trkpt>
      <trkpt lat="48.96804" lon="3.20546">
        <ele>57.3</ele>
        <time>2020-07-01T10:32:48Z</time>
      </trkpt>
      <trkpt lat="48.96799" lon="3.20542">
        <ele>57.3</ele>
        <time>2020-07-01T10:32:49Z</time>
      </trkpt>
      <trkpt lat="48.96794" lon="3.20538">
        <ele>57.3</ele>
        <time>2020-07-01T10:32:50Z</time>
      </trkpt>
      <trkpt lat="48.9679" lon="3.20533">
        <ele>57.3</ele>
        <time>2020-07-01T10:32:51Z</time>
      </trkpt>
      <trkpt lat="48.96785" lon="3.20528">
        <ele>57.2</ele>
        <time>2020-07-01T10:32:52Z</time>
      </trkpt>
      <trkpt lat="48.9678" lon="3.20524">
        <ele>57.2</ele>
        <time>2020-07-01T10:32:53Z</time>
      </trkpt>
      <trkpt lat="48.96775" lon="3.2052">
        <ele>57.2</ele>
        <time>2020-07-01T10:32:54Z</time>
      </trkpt>
      <trkpt lat="48.96771" lon="3.20515">
        <ele>57.1</ele>
        <time>2020-07-01T10:32:55Z</time>
      </trkpt>
      <trkpt lat="48.96766" lon="3.2051">
        <ele>57.1</ele>
        <time>2020-07-01T10:32:56Z</time>
      </trkpt>
      <trkpt lat="48.96761" lon="3.20506">
        <ele>57.1</ele>
        <time>2020-07-01T10:32:57Z</time>
      </trkpt>
      <trkpt lat="48.96756" lon="3.20502">
        <ele>57.1</ele>
        <time>2020-07-01T10:32:58Z</time>
      </trkpt>
      <trkpt lat="48.96752" lon="3.20498">
        <ele>57</ele>
        <time>2020-07-01T10:32:59Z</time>
      </trkpt>
      <trkpt lat="48.96747" lon="3.20494">
        <ele>57</ele>
        <time>2020-07-01T10:33:00Z</time>
      </trkpt>
      <trkpt lat="48.96742" lon="3.20492">
        <ele>57</ele>
        <time>2020-07-01T10:33:01Z</time>
      </trkpt>
      <trkpt lat="48.96739" lon="3.20488">
        <ele>57</ele>
        <time>2020-07-01T10:33:02Z</time>
      </trkpt>
      <trkpt lat="48.96734" lon="3.20485">
        <ele>57</ele>
        <time>2020-07-01T10:33:03Z</time>
      </trkpt>
      <trkpt lat="48.96729" lon="3.20481">
        <ele>57</ele>
        <time>2020-07-01T10:33:04Z</time>
      </trkpt>
      <trkpt lat="48.96724" lon="3.20477">
        <ele>57</ele>
        <time>2020-07-01T10:33:05Z</time>
      </trkpt>
      <trkpt lat="48.96719" lon="3.20474">
        <ele>57.1</ele>
        <time>2020-07-01T10:33:06Z</time>
      </trkpt>
      <trkpt lat="48.96714" lon="3.20472">
        <ele>57.1</ele>
        <time>2020-07-01T10:33:07Z</time>
      </trkpt>
      <trkpt lat="48.9671" lon="3.20467">
        <ele>57.1</ele>
        <time>2020-07-01T10:33:08Z</time>
      </trkpt>
      <trkpt lat="48.96704" lon="3.20463">
        <ele>57.2</ele>
        <time>2020-07-01T10:33:09Z</time>
      </trkpt>
      <trkpt lat="48.967" lon="3.20458">
        <ele>57.2</ele>
        <time>2020-07-01T10:33:10Z</time>
      </trkpt>
      <trkpt lat="48.96695" lon="3.20453">
        <ele>57.3</ele>
        <time>2020-07-01T10:33:11Z</time>
      </trkpt>
      <trkpt lat="48.9669" lon="3.20449">
        <ele>57.4</ele>
        <time>2020-07-01T10:33:12Z</time>
      </trkpt>
      <trkpt lat="48.96686" lon="3.20443">
        <ele>57.5</ele>
        <time>2020-07-01T10:33:13Z</time>
      </trkpt>
      <trkpt lat="48.96682" lon="3.20439">
        <ele>57.6</ele>
        <time>2020-07-01T10:33:14Z</time>
      </trkpt>
      <trkpt lat="48.96678" lon="3.20433">
        <ele>57.7</ele>
        <time>2020-07-01T10:33:15Z</time>
      </trkpt>
      <trkpt lat="48.96674" lon="3.20428">
        <ele>57.9</ele>
        <time>2020-07-01T10:33:16Z</time>
      </trkpt>
      <trkpt lat="48.96669" lon="3.20422">
        <ele>58</ele>
        <time>2020-07-01T10:33:17Z</time>
      </trkpt>
      <trkpt lat="48.96665" lon="3.20418">
        <ele>58.2</ele>
        <time>2020-07-01T10:33:18Z</time>
      </trkpt>
      <trkpt lat="48.9666" lon="3.20414">
        <ele>58.4</ele>
        <time>2020-07-01T10:33:19Z</time>
      </trkpt>
      <trkpt lat="48.96656" lon="3.20409">
        <ele>58.5</ele>
        <time>2020-07-01T10:33:20Z</time>
      </trkpt>
      <trkpt lat="48.96653" lon="3.20406">
        <ele>58.6</ele>
        <time>2020-07-01T10:33:21Z</time>
      </trkpt>
      <trkpt lat="48.9665" lon="3.20401">
        <ele>58.8</ele>
        <time>2020-07-01T10:33:22Z</time>
      </trkpt>
      <trkpt lat="48.96647" lon="3.20397">
        <ele>58.9</ele>
        <time>2020-07-01T10:33:23Z</time>
      </trkpt>
      <trkpt lat="48.96644" lon="3.20393">
        <ele>59.1</ele>
        <time>2020-07-01T10:33:24Z</time>
      </trkpt>
      <trkpt lat="48.96642" lon="3.20389">
        <ele>59.2</ele>
        <time>2020-07-01T10:33:25Z</time>
      </trkpt>
      <trkpt lat="48.96638" lon="3.20385">
        <ele>59.3</ele>
        <time>2020-07-01T10:33:26Z</time>
      </trkpt>
      <trkpt lat="48.96635" lon="3.2038">
        <ele>59.5</ele>
        <time>2020-07-01T10:33:27Z</time>
      </trkpt>
      <trkpt lat="48.96633" lon="3.20376">
        <ele>59.6</ele>
        <time>2020-07-01T10:33:28Z</time>
      </trkpt>
      <trkpt lat="48.96629" lon="3.20371">
        <ele>59.8</ele>
        <time>2020-07-01T10:33:29Z</time>
      </trkpt>
      <trkpt lat="48.96626" lon="3.20366">
        <ele>59.9</ele>
        <time>2020-07-01T10:33:30Z</time>
      </trkpt>
      <trkpt lat="48.96622" lon="3.20361">
        <ele>60.1</ele>
        <time>2020-07-01T10:33:31Z</time>
      </trkpt>
      <trkpt lat="48.96618" lon="3.20357">
        <ele>60.3</ele>
        <time>2020-07-01T10:33:32Z</time>
      </trkpt>
      <trkpt lat="48.96614" lon="3.20354">
        <ele>60.4</ele>
        <time>2020-07-01T10:33:33Z</time>
      </trkpt>
      <trkpt lat="48.96611" lon="3.20351">
        <ele>60.5</ele>
        <time>2020-07-01T10:33:34Z</time>
      </trkpt>
      <trkpt lat="48.96607" lon="3.20347">
        <ele>60.7</ele>
        <time>2020-07-01T10:33:35Z</time>
      </trkpt>
      <trkpt lat="48.96604" lon="3.20344">
        <ele>60.8</ele>
        <time>2020-07-01T10:33:36Z</time>
      </trkpt>
      <trkpt lat="48.966" lon="3.20342">
        <ele>60.9</ele>
        <time>2020-07-01T10:33:37Z</time>
      </trkpt>
      <trkpt lat="48.96598" lon="3.20336">
        <ele>61.1</ele>
        <time>2020-07-01T10:33:38Z</time>
      </trkpt>
      <trkpt lat="48.96595" lon="3.20333">
        <ele>61.2</ele>
        <time>2020-07-01T10:33:39Z</time>
      </trkpt>
      <trkpt lat="48.96591" lon="3.20329">
        <ele>61.4</ele>
        <time>2020-07-01T10:33:40Z</time>
      </trkpt>
      <trkpt lat="48.96587" lon="3.20324">
        <ele>61.6</ele>
        <time>2020-07-01T10:33:41Z</time>
      </trkpt>
      <trkpt lat="48.96583" lon="3.2032">
        <ele>61.8</ele>
        <time>2020-07-01T10:33:42Z</time>
      </trkpt>
      <trkpt lat="48.9658" lon="3.20317">
        <ele>61.9</ele>
        <time>2020-07-01T10:33:43Z</time>
      </trkpt>
      <trkpt lat="48.96576" lon="3.20313">
        <ele>62.1</ele>
        <time>2020-07-01T10:33:44Z</time>
      </trkpt>
      <trkpt lat="48.96572" lon="3.20309">
        <ele>62.3</ele>
        <time>2020-07-01T10:33:45Z</time>
      </trkpt>
      <trkpt lat="48.96568" lon="3.20307">
        <ele>62.5</ele>
        <time>2020-07-01T10:33:46Z</time>
      </trkpt>
      <trkpt lat="48.96565" lon="3.20303">
        <ele>62.6</ele>
        <time>2020-07-01T10:33:47Z</time>
      </trkpt>
      <trkpt lat="48.96562" lon="3.20301">
        <ele>62.7</ele>
        <time>2020-07-01T10:33:48Z</time>
      </trkpt>
      <trkpt lat="48.9656" lon="3.20298">
        <ele>62.8</ele>
        <time>2020-07-01T10:33:49Z</time>
      </trkpt>
      <trkpt lat="48.96556" lon="3.20294">
        <ele>62.9</ele>
        <time>2020-07-01T10:33:50Z</time>
      </trkpt>
      <trkpt lat="48.96553" lon="3.20291">
        <ele>63</ele>
        <time>2020-07-01T10:33:51Z</time>
      </trkpt>
      <trkpt lat="48.9655" lon="3.20288">
        <ele>63.1</ele>
        <time>2020-07-01T10:33:52Z</time>
      </trkpt>
      <trkpt lat="48.96547" lon="3.20287">
        <ele>63.2</ele>
        <time>2020-07-01T10:33:53Z</time>
      </trkpt>
      <trkpt lat="48.96544" lon="3.20285">
        <ele>63.2</ele>
        <time>2020-07-01T10:33:54Z</time>
      </trkpt>
      <trkpt lat="48.96542" lon="3.20283">
        <ele>63.3</ele>
        <time>2020-07-01T10:33:55Z</time>
      </trkpt>
      <trkpt lat="48.96538" lon="3.20281">
        <ele>63.4</ele>
        <time>2020-07-01T10:33:56Z</time>
      </trkpt>
      <trkpt lat="48.96535" lon="3.20278">
        <ele>63.4</ele>
        <time>2020-07-01T10:33:57Z</time>
      </trkpt>
      <trkpt lat="48.96532" lon="3.20274">
        <ele>63.6</ele>
        <time>2020-07-01T10:33:58Z</time>
      </trkpt>
      <trkpt lat="48.9653" lon="3.20271">
        <ele>63.7</ele>
        <time>2020-07-01T10:33:59Z</time>
      </trkpt>
      <trkpt lat="48.96526" lon="3.20268">
        <ele>63.9</ele>
        <time>2020-07-01T10:34:00Z</time>
      </trkpt>
      <trkpt lat="48.96523" lon="3.20267">
        <ele>64</ele>
        <time>2020-07-01T10:34:01Z</time>
      </trkpt>
      <trkpt lat="48.9652" lon="3.20265">
        <ele>64.2</ele>
        <time>2020-07-01T10:34:02Z</time>
      </trkpt>
      <trkpt lat="48.96518" lon="3.20263">
        <ele>64.3</ele>
        <time>2020-07-01T10:34:03Z</time>
      </trkpt>
      <trkpt lat="48.96515" lon="3.2026">
        <ele>64.5</ele>
        <time>2020-07-01T10:34:04Z</time>
      </trkpt>
      <trkpt lat="48.96512" lon="3.20257">
        <ele>64.6</ele>
        <time>2020-07-01T10:34:05Z</time>
      </trkpt>
      <trkpt lat="48.96511" lon="3.20256">
        <ele>64.7</ele>
        <time>2020-07-01T10:34:06Z</time>
      </trkpt>
      <trkpt lat="48.96508" lon="3.20253">
        <ele>64.8</ele>
        <time>2020-07-01T10:34:07Z</time>
      </trkpt>
      <trkpt lat="48.96508" lon="3.20252">
        <ele>64.9</ele>
        <time>2020-07-01T10:34:08Z</time>
      </trkpt>
      <trkpt lat="48.96505" lon="3.20249">
        <ele>65</ele>
        <time>2020-07-01T10:34:09Z</time>
      </trkpt>
      <trkpt lat="48.96503" lon="3.20247">
        <ele>65.1</ele>
        <time>2020-07-01T10:34:10Z</time>
      </trkpt>
      <trkpt lat="48.965" lon="3.20244">
        <ele>65.3</ele>
        <time>2020-07-01T10:34:11Z</time>
      </trkpt>
      <trkpt lat="48.96499" lon="3.20242">
        <ele>65.4</ele>
        <time>2020-07-01T10:34:12Z</time>
      </trkpt>
      <trkpt lat="48.96496" lon="3.2024">
        <ele>65.6</ele>
        <time>2020-07-01T10:34:13Z</time>
      </trkpt>
      <trkpt lat="48.96493" lon="3.20236">
        <ele>65.7</ele>
        <time>2020-07-01T10:34:14Z</time>
      </trkpt>
      <trkpt lat="48.9649" lon="3.20233">
        <ele>65.9</ele>
        <time>2020-07-01T10:34:15Z</time>
      </trkpt>
      <trkpt lat="48.96487" lon="3.20232">
        <ele>66.1</ele>
        <time>2020-07-01T10:34:16Z</time>
      </trkpt>
      <trkpt lat="48.96484" lon="3.2023">
        <ele>66.3</ele>
        <time>2020-07-01T10:34:17Z</time>
      </trkpt>
      <trkpt lat="48.96481" lon="3.20228">
        <ele>66.4</ele>
        <time>2020-07-01T10:34:18Z</time>
      </trkpt>
      <trkpt lat="48.96478" lon="3.20224">
        <ele>66.7</ele>
        <time>2020-07-01T10:34:19Z</time>
      </trkpt>
      <trkpt lat="48.96477" lon="3.20223">
        <ele>66.7</ele>
        <time>2020-07-01T10:34:20Z</time>
      </trkpt>
      <trkpt lat="48.96474" lon="3.2022">
        <ele>66.9</ele>
        <time>2020-07-01T10:34:21Z</time>
      </trkpt>
      <trkpt lat="48.96471" lon="3.20218">
        <ele>67</ele>
        <time>2020-07-01T10:34:22Z</time>
      </trkpt>
      <trkpt lat="48.96468" lon="3.20214">
        <ele>67.2</ele>
        <time>2020-07-01T10:34:23Z</time>
      </trkpt>
      <trkpt lat="48.96467" lon="3.20213">
        <ele>67.3</ele>
        <time>2020-07-01T10:34:24Z</time>
      </trkpt>
      <trkpt lat="48.96464" lon="3.2021">
        <ele>67.5</ele>
        <time>2020-07-01T10:34:25Z</time>
      </trkpt>
      <trkpt lat="48.96463" lon="3.20209">
        <ele>67.6</ele>
        <time>2020-07-01T10:34:26Z</time>
      </trkpt>
      <trkpt lat="48.9646" lon="3.20204">
        <ele>67.7</ele>
        <time>2020-07-01T10:34:27Z</time>
      </trkpt>
      <trkpt lat="48.96459" lon="3.20203">
        <ele>67.8</ele>
        <time>2020-07-01T10:34:28Z</time>
      </trkpt>
      <trkpt lat="48.96457" lon="3.20199">
        <ele>68</ele>
        <time>2020-07-01T10:34:29Z</time>
      </trkpt>
      <trkpt lat="48.96455" lon="3.20194">
        <ele>68.1</ele>
        <time>2020-07-01T10:34:30Z</time>
      </trkpt>
      <trkpt lat="48.96454" lon="3.20191">
        <ele>68.3</ele>
        <time>2020-07-01T10:34:31Z</time>
      </trkpt>
      <trkpt lat="48.96452" lon="3.20188">
        <ele>68.4</ele>
        <time>2020-07-01T10:34:32Z</time>
      </trkpt>
      <trkpt lat="48.96451" lon="3.20184">
        <ele>68.6</ele>
        <time>2020-07-01T10:34:33Z</time>
      </trkpt>
      <trkpt lat="48.96449" lon="3.20179">
        <ele>68.8</ele>
        <time>2020-07-01T10:34:34Z</time>
      </trkpt>
      <trkpt lat="48.96449" lon="3.20177">
        <ele>68.9</ele>
        <time>2020-07-01T10:34:35Z</time>
      </trkpt>
      <trkpt lat="48.96447" lon="3.20172">
        <ele>69</ele>
        <time>2020-07-01T10:34:36Z</time>
      </trkpt>
      <trkpt lat="48.96447" lon="3.2017">
        <ele>69.1</ele>
        <time>2020-07-01T10:34:37Z</time>
      </trkpt>
      <trkpt lat="48.96446" lon="3.20165">
        <ele>69.3</ele>
        <time>2020-07-01T10:34:38Z</time>
      </trkpt>
      <trkpt lat="48.96446" lon="3.20163">
        <ele>69.4</ele>
        <time>2020-07-01T10:34:39Z</time>
      </trkpt>
      <trkpt lat="48.96445" lon="3.20159">
        <ele>69.5</ele>
        <time>2020-07-01T10:34:40Z</time>
      </trkpt>
      <trkpt lat="48.96445" lon="3.20153">
        <ele>69.8</ele>
        <time>2020-07-01T10:34:41Z</time>
      </trkpt>
      <trkpt lat="48.96445" lon="3.20151">
        <ele>69.8</ele>
        <time>2020-07-01T10:34:42Z</time>
      </trkpt>
      <trkpt lat="48.96444" lon="3.20146">
        <ele>70</ele>
        <time>2020-07-01T10:34:43Z</time>
      </trkpt>
      <trkpt lat="48.96444" lon="3.20144">
        <ele>70.1</ele>
        <time>2020-07-01T10:34:44Z</time>
      </trkpt>
      <trkpt lat="48.96444" lon="3.20138">
        <ele>70.3</ele>
        <time>2020-07-01T10:34:45Z</time>
      </trkpt>
      <trkpt lat="48.96445" lon="3.20136">
        <ele>70.4</ele>
        <time>2020-07-01T10:34:46Z</time>
      </trkpt>
      <trkpt lat="48.96444" lon="3.20132">
        <ele>70.5</ele>
        <time>2020-07-01T10:34:47Z</time>
      </trkpt>
      <trkpt lat="48.96444" lon="3.20128">
        <ele>70.7</ele>
        <time>2020-07-01T10:34:48Z</time>
      </trkpt>
      <trkpt lat="48.96444" lon="3.20123">
        <ele>70.8</ele>
        <time>2020-07-01T10:34:49Z</time>
      </trkpt>
      <trkpt lat="48.96445" lon="3.20119">
        <ele>71</ele>
        <time>2020-07-01T10:34:50Z</time>
      </trkpt>
      <trkpt lat="48.96445" lon="3.20114">
        <ele>71.2</ele>
        <time>2020-07-01T10:34:51Z</time>
      </trkpt>
      <trkpt lat="48.96446" lon="3.2011">
        <ele>71.3</ele>
        <time>2020-07-01T10:34:52Z</time>
      </trkpt>
      <trkpt lat="48.96447" lon="3.20105">
        <ele>71.5</ele>
        <time>2020-07-01T10:34:53Z</time>
      </trkpt>
      <trkpt lat="48.96448" lon="3.20099">
        <ele>71.7</ele>
        <time>2020-07-01T10:34:54Z</time>
      </trkpt>
      <trkpt lat="48.96449" lon="3.20097">
        <ele>71.8</ele>
        <time>2020-07-01T10:34:55Z</time>
      </trkpt>
      <trkpt lat="48.96449" lon="3.20092">
        <ele>72</ele>
        <time>2020-07-01T10:34:56Z</time>
      </trkpt>
      <trkpt lat="48.96451" lon="3.20087">
        <ele>72.2</ele>
        <time>2020-07-01T10:34:57Z</time>
      </trkpt>
      <trkpt lat="48.96452" lon="3.20085">
        <ele>72.2</ele>
        <time>2020-07-01T10:34:58Z</time>
      </trkpt>
      <trkpt lat="48.96454" lon="3.20081">
        <ele>72.4</ele>
        <time>2020-07-01T10:34:59Z</time>
      </trkpt>
      <trkpt lat="48.96454" lon="3.20079">
        <ele>72.5</ele>
        <time>2020-07-01T10:35:00Z</time>
      </trkpt>
      <trkpt lat="48.96456" lon="3.20075">
        <ele>72.7</ele>
        <time>2020-07-01T10:35:01Z</time>
      </trkpt>
      <trkpt lat="48.96459" lon="3.20072">
        <ele>72.8</ele>
        <time>2020-07-01T10:35:02Z</time>
      </trkpt>
      <trkpt lat="48.9646" lon="3.20068">
        <ele>73</ele>
        <time>2020-07-01T10:35:03Z</time>
      </trkpt>
      <trkpt lat="48.96463" lon="3.20065">
        <ele>73.3</ele>
        <time>2020-07-01T10:35:04Z</time>
      </trkpt>
      <trkpt lat="48.96465" lon="3.20061">
        <ele>73.5</ele>
        <time>2020-07-01T10:35:05Z</time>
      </trkpt>
      <trkpt lat="48.96468" lon="3.20058">
        <ele>73.7</ele>
        <time>2020-07-01T10:35:06Z</time>
      </trkpt>
      <trkpt lat="48.9647" lon="3.20055">
        <ele>73.8</ele>
        <time>2020-07-01T10:35:07Z</time>
      </trkpt>
      <trkpt lat="48.96474" lon="3.20053">
        <ele>74.1</ele>
        <time>2020-07-01T10:35:08Z</time>
      </trkpt>
      <trkpt lat="48.96475" lon="3.20052">
        <ele>74.1</ele>
        <time>2020-07-01T10:35:09Z</time>
      </trkpt>
      <trkpt lat="48.96478" lon="3.20049">
        <ele>74.3</ele>
        <time>2020-07-01T10:35:10Z</time>
      </trkpt>
      <trkpt lat="48.96481" lon="3.20048">
        <ele>74.5</ele>
        <time>2020-07-01T10:35:11Z</time>
      </trkpt>
      <trkpt lat="48.96484" lon="3.20046">
        <ele>74.7</ele>
        <time>2020-07-01T10:35:12Z</time>
      </trkpt>
      <trkpt lat="48.96487" lon="3.20045">
        <ele>74.9</ele>
        <time>2020-07-01T10:35:13Z</time>
      </trkpt>
      <trkpt lat="48.96489" lon="3.20042">
        <ele>75.1</ele>
        <time>2020-07-01T10:35:14Z</time>
      </trkpt>
      <trkpt lat="48.96492" lon="3.20039">
        <ele>75.3</ele>
        <time>2020-07-01T10:35:15Z</time>
      </trkpt>
      <trkpt lat="48.96494" lon="3.20037">
        <ele>75.5</ele>
        <time>2020-07-01T10:35:16Z</time>
      </trkpt>
      <trkpt lat="48.96498" lon="3.20035">
        <ele>75.7</ele>
        <time>2020-07-01T10:35:17Z</time>
      </trkpt>
      <trkpt lat="48.96502" lon="3.20033">
        <ele>76</ele>
        <time>2020-07-01T10:35:18Z</time>
      </trkpt>
      <trkpt lat="48.96504" lon="3.20031">
        <ele>76.1</ele>
        <time>2020-07-01T10:35:19Z</time>
      </trkpt>
      <trkpt lat="48.96507" lon="3.2003">
        <ele>76.3</ele>
        <time>2020-07-01T10:35:20Z</time>
      </trkpt>
      <trkpt lat="48.9651" lon="3.20028">
        <ele>76.5</ele>
        <time>2020-07-01T10:35:21Z</time>
      </trkpt>
      <trkpt lat="48.96513" lon="3.20026">
        <ele>76.7</ele>
        <time>2020-07-01T10:35:22Z</time>
      </trkpt>
      <trkpt lat="48.96516" lon="3.20025">
        <ele>76.9</ele>
        <time>2020-07-01T10:35:23Z</time>
      </trkpt>
      <trkpt lat="48.96519" lon="3.20024">
        <ele>77.2</ele>
        <time>2020-07-01T10:35:24Z</time>
      </trkpt>
      <trkpt lat="48.96523" lon="3.20022">
        <ele>77.4</ele>
        <time>2020-07-01T10:35:25Z</time>
      </trkpt>
      <trkpt lat="48.96524" lon="3.20022">
        <ele>77.4</ele>
        <time>2020-07-01T10:35:26Z</time>
      </trkpt>
      <trkpt lat="48.96527" lon="3.2002">
        <ele>77.6</ele>
        <time>2020-07-01T10:35:27Z</time>
      </trkpt>
      <trkpt lat="48.9653" lon="3.20019">
        <ele>77.7</ele>
        <time>2020-07-01T10:35:28Z</time>
      </trkpt>
      <trkpt lat="48.96533" lon="3.20018">
        <ele>77.9</ele>
        <time>2020-07-01T10:35:29Z</time>
      </trkpt>
      <trkpt lat="48.96535" lon="3.20015">
        <ele>78</ele>
        <time>2020-07-01T10:35:30Z</time>
      </trkpt>
      <trkpt lat="48.96538" lon="3.20013">
        <ele>78.1</ele>
        <time>2020-07-01T10:35:31Z</time>
      </trkpt>
      <trkpt lat="48.9654" lon="3.20008">
        <ele>78.3</ele>
        <time>2020-07-01T10:35:32Z</time>
      </trkpt>
      <trkpt lat="48.96542" lon="3.20005">
        <ele>78.4</ele>
        <time>2020-07-01T10:35:33Z</time>
      </trkpt>
      <trkpt lat="48.96543" lon="3.20004">
        <ele>78.4</ele>
        <time>2020-07-01T10:35:34Z</time>
      </trkpt>
      <trkpt lat="48.96546" lon="3.20001">
        <ele>78.6</ele>
        <time>2020-07-01T10:35:35Z</time>
      </trkpt>
      <trkpt lat="48.96548" lon="3.19998">
        <ele>78.7</ele>
        <time>2020-07-01T10:35:36Z</time>
      </trkpt>
      <trkpt lat="48.96551" lon="3.19995">
        <ele>78.8</ele>
        <time>2020-07-01T10:35:37Z</time>
      </trkpt>
      <trkpt lat="48.96553" lon="3.19993">
        <ele>78.9</ele>
        <time>2020-07-01T10:35:38Z</time>
      </trkpt>
      <trkpt lat="48.96555" lon="3.19989">
        <ele>79</ele>
        <time>2020-07-01T10:35:39Z</time>
      </trkpt>
      <trkpt lat="48.96557" lon="3.19986">
        <ele>79.2</ele>
        <time>2020-07-01T10:35:40Z</time>
      </trkpt>
      <trkpt lat="48.96558" lon="3.19981">
        <ele>79.3</ele>
        <time>2020-07-01T10:35:41Z</time>
      </trkpt>
      <trkpt lat="48.9656" lon="3.19976">
        <ele>79.5</ele>
        <time>2020-07-01T10:35:42Z</time>
      </trkpt>
      <trkpt lat="48.96562" lon="3.19972">
        <ele>79.6</ele>
        <time>2020-07-01T10:35:43Z</time>
      </trkpt>
      <trkpt lat="48.96564" lon="3.19968">
        <ele>79.8</ele>
        <time>2020-07-01T10:35:44Z</time>
      </trkpt>
      <trkpt lat="48.96565" lon="3.19967">
        <ele>79.8</ele>
        <time>2020-07-01T10:35:45Z</time>
      </trkpt>
      <trkpt lat="48.96567" lon="3.19962">
        <ele>80</ele>
        <time>2020-07-01T10:35:46Z</time>
      </trkpt>
      <trkpt lat="48.96568" lon="3.1996">
        <ele>80</ele>
        <time>2020-07-01T10:35:47Z</time>
      </trkpt>
      <trkpt lat="48.9657" lon="3.19957">
        <ele>80.1</ele>
        <time>2020-07-01T10:35:48Z</time>
      </trkpt>
      <trkpt lat="48.96573" lon="3.19953">
        <ele>80.3</ele>
        <time>2020-07-01T10:35:49Z</time>
      </trkpt>
      <trkpt lat="48.96576" lon="3.19949">
        <ele>80.4</ele>
        <time>2020-07-01T10:35:50Z</time>
      </trkpt>
      <trkpt lat="48.96578" lon="3.19946">
        <ele>80.5</ele>
        <time>2020-07-01T10:35:51Z</time>
      </trkpt>
      <trkpt lat="48.96582" lon="3.19943">
        <ele>80.6</ele>
        <time>2020-07-01T10:35:52Z</time>
      </trkpt>
      <trkpt lat="48.96586" lon="3.19939">
        <ele>80.7</ele>
        <time>2020-07-01T10:35:53Z</time>
      </trkpt>
      <trkpt lat="48.9659" lon="3.19936">
        <ele>80.8</ele>
        <time>2020-07-01T10:35:54Z</time>
      </trkpt>
      <trkpt lat="48.96592" lon="3.19932">
        <ele>80.9</ele>
        <time>2020-07-01T10:35:55Z</time>
      </trkpt>
      <trkpt lat="48.96595" lon="3.19929">
        <ele>80.9</ele>
        <time>2020-07-01T10:35:56Z</time>
      </trkpt>
      <trkpt lat="48.96597" lon="3.19925">
        <ele>81</ele>
        <time>2020-07-01T10:35:57Z</time>
      </trkpt>
      <trkpt lat="48.966" lon="3.19921">
        <ele>81.1</ele>
        <time>2020-07-01T10:35:58Z</time>
      </trkpt>
      <trkpt lat="48.96602" lon="3.19916">
        <ele>81.2</ele>
        <time>2020-07-01T10:35:59Z</time>
      </trkpt>
      <trkpt lat="48.96605" lon="3.19911">
        <ele>81.3</ele>
        <time>2020-07-01T10:36:00Z</time>
      </trkpt>
      <trkpt lat="48.96609" lon="3.19906">
        <ele>81.4</ele>
        <time>2020-07-01T10:36:01Z</time>
      </trkpt>
      <trkpt lat="48.96613" lon="3.199">
        <ele>81.4</ele>
        <time>2020-07-01T10:36:02Z</time>
      </trkpt>
      <trkpt lat="48.96616" lon="3.19897">
        <ele>81.4</ele>
        <time>2020-07-01T10:36:03Z</time>
      </trkpt>
      <trkpt lat="48.96618" lon="3.19893">
        <ele>81.5</ele>
        <time>2020-07-01T10:36:04Z</time>
      </trkpt>
      <trkpt lat="48.9662" lon="3.19888">
        <ele>81.5</ele>
        <time>2020-07-01T10:36:05Z</time>
      </trkpt>
      <trkpt lat="48.96624" lon="3.19883">
        <ele>81.4</ele>
        <time>2020-07-01T10:36:06Z</time>
      </trkpt>
      <trkpt lat="48.96626" lon="3.1988">
        <ele>81.4</ele>
        <time>2020-07-01T10:36:07Z</time>
      </trkpt>
      <trkpt lat="48.96629" lon="3.19875">
        <ele>81.4</ele>
        <time>2020-07-01T10:36:08Z</time>
      </trkpt>
      <trkpt lat="48.96631" lon="3.19871">
        <ele>81.4</ele>
        <time>2020-07-01T10:36:09Z</time>
      </trkpt>
      <trkpt lat="48.96634" lon="3.19866">
        <ele>81.4</ele>
        <time>2020-07-01T10:36:10Z</time>
      </trkpt>
      <trkpt lat="48.96636" lon="3.19861">
        <ele>81.4</ele>
        <time>2020-07-01T10:36:11Z</time>
      </trkpt>
      <trkpt lat="48.96639" lon="3.19855">
        <ele>81.4</ele>
        <time>2020-07-01T10:36:12Z</time>
      </trkpt>
      <trkpt lat="48.96642" lon="3.19848">
        <ele>81.4</ele>
        <time>2020-07-01T10:36:13Z</time>
      </trkpt>
      <trkpt lat="48.96644" lon="3.19842">
        <ele>81.4</ele>
        <time>2020-07-01T10:36:14Z</time>
      </trkpt>
      <trkpt lat="48.96647" lon="3.19835">
        <ele>81.3</ele>
        <time>2020-07-01T10:36:15Z</time>
      </trkpt>
      <trkpt lat="48.96649" lon="3.19827">
        <ele>81.2</ele>
        <time>2020-07-01T10:36:16Z</time>
      </trkpt>
      <trkpt lat="48.96651" lon="3.1982">
        <ele>81.2</ele>
        <time>2020-07-01T10:36:17Z</time>
      </trkpt>
      <trkpt lat="48.96654" lon="3.19811">
        <ele>81.1</ele>
        <time>2020-07-01T10:36:18Z</time>
      </trkpt>
      <trkpt lat="48.96656" lon="3.19806">
        <ele>80.9</ele>
        <time>2020-07-01T10:36:19Z</time>
      </trkpt>
      <trkpt lat="48.96659" lon="3.19799">
        <ele>80.8</ele>
        <time>2020-07-01T10:36:20Z</time>
      </trkpt>
      <trkpt lat="48.96662" lon="3.19792">
        <ele>80.7</ele>
        <time>2020-07-01T10:36:21Z</time>
      </trkpt>
      <trkpt lat="48.96665" lon="3.19786">
        <ele>80.6</ele>
        <time>2020-07-01T10:36:22Z</time>
      </trkpt>
      <trkpt lat="48.96668" lon="3.1978">
        <ele>80.5</ele>
        <time>2020-07-01T10:36:23Z</time>
      </trkpt>
      <trkpt lat="48.96671" lon="3.19773">
        <ele>80.3</ele>
        <time>2020-07-01T10:36:24Z</time>
      </trkpt>
      <trkpt lat="48.96674" lon="3.19766">
        <ele>80.1</ele>
        <time>2020-07-01T10:36:25Z</time>
      </trkpt>
      <trkpt lat="48.96677" lon="3.1976">
        <ele>79.9</ele>
        <time>2020-07-01T10:36:26Z</time>
      </trkpt>
      <trkpt lat="48.96679" lon="3.19755">
        <ele>79.8</ele>
        <time>2020-07-01T10:36:27Z</time>
      </trkpt>
      <trkpt lat="48.96682" lon="3.19748">
        <ele>79.6</ele>
        <time>2020-07-01T10:36:28Z</time>
      </trkpt>
      <trkpt lat="48.96685" lon="3.19742">
        <ele>79.3</ele>
        <time>2020-07-01T10:36:29Z</time>
      </trkpt>
      <trkpt lat="48.96688" lon="3.19736">
        <ele>79.1</ele>
        <time>2020-07-01T10:36:30Z</time>
      </trkpt>
      <trkpt lat="48.9669" lon="3.19729">
        <ele>78.9</ele>
        <time>2020-07-01T10:36:31Z</time>
      </trkpt>
      <trkpt lat="48.96694" lon="3.19721">
        <ele>78.6</ele>
        <time>2020-07-01T10:36:32Z</time>
      </trkpt>
      <trkpt lat="48.96697" lon="3.19713">
        <ele>78.2</ele>
        <time>2020-07-01T10:36:33Z</time>
      </trkpt>
      <trkpt lat="48.96702" lon="3.19704">
        <ele>77.8</ele>
        <time>2020-07-01T10:36:34Z</time>
      </trkpt>
      <trkpt lat="48.96706" lon="3.19695">
        <ele>77.5</ele>
        <time>2020-07-01T10:36:35Z</time>
      </trkpt>
      <trkpt lat="48.9671" lon="3.19687">
        <ele>77.1</ele>
        <time>2020-07-01T10:36:36Z</time>
      </trkpt>
      <trkpt lat="48.96713" lon="3.19678">
        <ele>76.7</ele>
        <time>2020-07-01T10:36:37Z</time>
      </trkpt>
      <trkpt lat="48.96717" lon="3.19668">
        <ele>76.2</ele>
        <time>2020-07-01T10:36:38Z</time>
      </trkpt>
      <trkpt lat="48.96722" lon="3.19658">
        <ele>75.8</ele>
        <time>2020-07-01T10:36:39Z</time>
      </trkpt>
      <trkpt lat="48.96726" lon="3.19649">
        <ele>75.3</ele>
        <time>2020-07-01T10:36:40Z</time>
      </trkpt>
      <trkpt lat="48.96731" lon="3.19638">
        <ele>74.8</ele>
        <time>2020-07-01T10:36:41Z</time>
      </trkpt>
      <trkpt lat="48.96735" lon="3.19629">
        <ele>74.3</ele>
        <time>2020-07-01T10:36:42Z</time>
      </trkpt>
      <trkpt lat="48.96739" lon="3.1962">
        <ele>73.9</ele>
        <time>2020-07-01T10:36:43Z</time>
      </trkpt>
      <trkpt lat="48.96744" lon="3.19609">
        <ele>73.3</ele>
        <time>2020-07-01T10:36:44Z</time>
      </trkpt>
      <trkpt lat="48.9675" lon="3.196">
        <ele>72.8</ele>
        <time>2020-07-01T10:36:45Z</time>
      </trkpt>
      <trkpt lat="48.96755" lon="3.19591">
        <ele>72.4</ele>
        <time>2020-07-01T10:36:46Z</time>
      </trkpt>
      <trkpt lat="48.9676" lon="3.19581">
        <ele>71.9</ele>
        <time>2020-07-01T10:36:47Z</time>
      </trkpt>
      <trkpt lat="48.96766" lon="3.19571">
        <ele>71.3</ele>
        <time>2020-07-01T10:36:48Z</time>
      </trkpt>
      <trkpt lat="48.96773" lon="3.19562">
        <ele>70.8</ele>
        <time>2020-07-01T10:36:49Z</time>
      </trkpt>
      <trkpt lat="48.96779" lon="3.19552">
        <ele>70.3</ele>
        <time>2020-07-01T10:36:50Z</time>
      </trkpt>
      <trkpt lat="48.96785" lon="3.19543">
        <ele>69.7</ele>
        <time>2020-07-01T10:36:51Z</time>
      </trkpt>
      <trkpt lat="48.96791" lon="3.19534">
        <ele>69.2</ele>
        <time>2020-07-01T10:36:52Z</time>
      </trkpt>
      <trkpt lat="48.96797" lon="3.19524">
        <ele>68.6</ele>
        <time>2020-07-01T10:36:53Z</time>
      </trkpt>
      <trkpt lat="48.96804" lon="3.19516">
        <ele>68.1</ele>
        <time>2020-07-01T10:36:54Z</time>
      </trkpt>
      <trkpt lat="48.96812" lon="3.19508">
        <ele>67.6</ele>
        <time>2020-07-01T10:36:55Z</time>
      </trkpt>
      <trkpt lat="48.96819" lon="3.195">
        <ele>67</ele>
        <time>2020-07-01T10:36:56Z</time>
      </trkpt>
      <trkpt lat="48.96826" lon="3.1949">
        <ele>66.4</ele>
        <time>2020-07-01T10:36:57Z</time>
      </trkpt>
      <trkpt lat="48.96833" lon="3.19481">
        <ele>65.9</ele>
        <time>2020-07-01T10:36:58Z</time>
      </trkpt>
      <trkpt lat="48.96841" lon="3.19473">
        <ele>65.4</ele>
        <time>2020-07-01T10:36:59Z</time>
      </trkpt>
      <trkpt lat="48.96848" lon="3.19464">
        <ele>64.8</ele>
        <time>2020-07-01T10:37:00Z</time>
      </trkpt>
      <trkpt lat="48.96856" lon="3.19456">
        <ele>64.2</ele>
        <time>2020-07-01T10:37:01Z</time>
      </trkpt>
      <trkpt lat="48.96864" lon="3.19448">
        <ele>63.6</ele>
        <time>2020-07-01T10:37:02Z</time>
      </trkpt>
      <trkpt lat="48.96872" lon="3.19441">
        <ele>63.1</ele>
        <time>2020-07-01T10:37:03Z</time>
      </trkpt>
      <trkpt lat="48.9688" lon="3.19434">
        <ele>62.8</ele>
        <time>2020-07-01T10:37:04Z</time>
      </trkpt>
      <trkpt lat="48.96888" lon="3.19427">
        <ele>62.5</ele>
        <time>2020-07-01T10:37:05Z</time>
      </trkpt>
      <trkpt lat="48.96897" lon="3.19421">
        <ele>62.2</ele>
        <time>2020-07-01T10:37:06Z</time>
      </trkpt>
      <trkpt lat="48.96906" lon="3.19416">
        <ele>61.8</ele>
        <time>2020-07-01T10:37:07Z</time>
      </trkpt>
      <trkpt lat="48.96915" lon="3.1941">
        <ele>61.3</ele>
        <time>2020-07-01T10:37:08Z</time>
      </trkpt>
      <trkpt lat="48.96924" lon="3.19404">
        <ele>60.9</ele>
        <time>2020-07-01T10:37:09Z</time>
      </trkpt>
      <trkpt lat="48.96933" lon="3.19398">
        <ele>60.4</ele>
        <time>2020-07-01T10:37:10Z</time>
      </trkpt>
      <trkpt lat="48.96942" lon="3.19391">
        <ele>59.9</ele>
        <time>2020-07-01T10:37:11Z</time>
      </trkpt>
      <trkpt lat="48.96951" lon="3.19384">
        <ele>59.4</ele>
        <time>2020-07-01T10:37:12Z</time>
      </trkpt>
      <trkpt lat="48.9696" lon="3.19377">
        <ele>59</ele>
        <time>2020-07-01T10:37:13Z</time>
      </trkpt>
      <trkpt lat="48.9697" lon="3.19369">
        <ele>58.6</ele>
        <time>2020-07-01T10:37:14Z</time>
      </trkpt>
      <trkpt lat="48.96978" lon="3.1936">
        <ele>58.1</ele>
        <time>2020-07-01T10:37:15Z</time>
      </trkpt>
      <trkpt lat="48.96987" lon="3.19351">
        <ele>57.8</ele>
        <time>2020-07-01T10:37:16Z</time>
      </trkpt>
      <trkpt lat="48.96996" lon="3.19343">
        <ele>57.5</ele>
        <time>2020-07-01T10:37:17Z</time>
      </trkpt>
      <trkpt lat="48.97003" lon="3.19332">
        <ele>57.2</ele>
        <time>2020-07-01T10:37:18Z</time>
      </trkpt>
      <trkpt lat="48.9701" lon="3.19321">
        <ele>56.9</ele>
        <time>2020-07-01T10:37:19Z</time>
      </trkpt>
      <trkpt lat="48.97017" lon="3.1931">
        <ele>56.7</ele>
        <time>2020-07-01T10:37:20Z</time>
      </trkpt>
      <trkpt lat="48.97024" lon="3.19299">
        <ele>56.5</ele>
        <time>2020-07-01T10:37:21Z</time>
      </trkpt>
      <trkpt lat="48.9703" lon="3.19287">
        <ele>56.2</ele>
        <time>2020-07-01T10:37:22Z</time>
      </trkpt>
      <trkpt lat="48.97036" lon="3.19276">
        <ele>56</ele>
        <time>2020-07-01T10:37:23Z</time>
      </trkpt>
      <trkpt lat="48.97041" lon="3.19264">
        <ele>56</ele>
        <time>2020-07-01T10:37:24Z</time>
      </trkpt>
      <trkpt lat="48.97045" lon="3.19252">
        <ele>56</ele>
        <time>2020-07-01T10:37:25Z</time>
      </trkpt>
      <trkpt lat="48.97049" lon="3.1924">
        <ele>56.1</ele>
        <time>2020-07-01T10:37:26Z</time>
      </trkpt>
      <trkpt lat="48.97053" lon="3.19229">
        <ele>56.3</ele>
        <time>2020-07-01T10:37:27Z</time>
      </trkpt>
      <trkpt lat="48.97056" lon="3.19218">
        <ele>56.6</ele>
        <time>2020-07-01T10:37:28Z</time>
      </trkpt>
      <trkpt lat="48.97058" lon="3.19207">
        <ele>56.7</ele>
        <time>2020-07-01T10:37:29Z</time>
      </trkpt>
      <trkpt lat="48.9706" lon="3.19197">
        <ele>56.9</ele>
        <time>2020-07-01T10:37:30Z</time>
      </trkpt>
      <trkpt lat="48.97062" lon="3.19188">
        <ele>57</ele>
        <time>2020-07-01T10:37:31Z</time>
      </trkpt>
      <trkpt lat="48.97064" lon="3.19181">
        <ele>57.1</ele>
        <time>2020-07-01T10:37:32Z</time>
      </trkpt>
      <trkpt lat="48.97067" lon="3.19174">
        <ele>57.2</ele>
        <time>2020-07-01T10:37:33Z</time>
      </trkpt>
      <trkpt lat="48.97069" lon="3.19167">
        <ele>57.3</ele>
        <time>2020-07-01T10:37:34Z</time>
      </trkpt>
      <trkpt lat="48.97071" lon="3.1916">
        <ele>57.4</ele>
        <time>2020-07-01T10:37:35Z</time>
      </trkpt>
      <trkpt lat="48.97073" lon="3.19153">
        <ele>57.4</ele>
        <time>2020-07-01T10:37:36Z</time>
      </trkpt>
      <trkpt lat="48.97075" lon="3.19146">
        <ele>57.5</ele>
        <time>2020-07-01T10:37:37Z</time>
      </trkpt>
      <trkpt lat="48.97077" lon="3.19139">
        <ele>57.5</ele>
        <time>2020-07-01T10:37:38Z</time>
      </trkpt>
      <trkpt lat="48.97079" lon="3.19132">
        <ele>57.5</ele>
        <time>2020-07-01T10:37:39Z</time>
      </trkpt>
      <trkpt lat="48.97082" lon="3.19125">
        <ele>57.5</ele>
        <time>2020-07-01T10:37:40Z</time>
      </trkpt>
      <trkpt lat="48.97085" lon="3.19118">
        <ele>57.4</ele>
        <time>2020-07-01T10:37:41Z</time>
      </trkpt>
      <trkpt lat="48.97088" lon="3.19112">
        <ele>57.3</ele>
        <time>2020-07-01T10:37:42Z</time>
      </trkpt>
      <trkpt lat="48.97092" lon="3.19106">
        <ele>57.2</ele>
        <time>2020-07-01T10:37:43Z</time>
      </trkpt>
      <trkpt lat="48.97094" lon="3.19099">
        <ele>57.1</ele>
        <time>2020-07-01T10:37:44Z</time>
      </trkpt>
      <trkpt lat="48.97098" lon="3.19093">
        <ele>56.8</ele>
        <time>2020-07-01T10:37:45Z</time>
      </trkpt>
      <trkpt lat="48.97101" lon="3.19086">
        <ele>56.6</ele>
        <time>2020-07-01T10:37:46Z</time>
      </trkpt>
      <trkpt lat="48.97104" lon="3.19078">
        <ele>56.6</ele>
        <time>2020-07-01T10:37:47Z</time>
      </trkpt>
      <trkpt lat="48.97107" lon="3.1907">
        <ele>56.5</ele>
        <time>2020-07-01T10:37:48Z</time>
      </trkpt>
      <trkpt lat="48.97109" lon="3.19061">
        <ele>56.5</ele>
        <time>2020-07-01T10:37:49Z</time>
      </trkpt>
      <trkpt lat="48.97113" lon="3.19052">
        <ele>56.4</ele>
        <time>2020-07-01T10:37:50Z</time>
      </trkpt>
      <trkpt lat="48.97116" lon="3.19043">
        <ele>56.3</ele>
        <time>2020-07-01T10:37:51Z</time>
      </trkpt>
      <trkpt lat="48.9712" lon="3.19032">
        <ele>56.2</ele>
        <time>2020-07-01T10:37:52Z</time>
      </trkpt>
      <trkpt lat="48.97123" lon="3.19021">
        <ele>56.1</ele>
        <time>2020-07-01T10:37:53Z</time>
      </trkpt>
      <trkpt lat="48.97125" lon="3.19011">
        <ele>56.1</ele>
        <time>2020-07-01T10:37:54Z</time>
      </trkpt>
      <trkpt lat="48.97128" lon="3.19001">
        <ele>56.1</ele>
        <time>2020-07-01T10:37:55Z</time>
      </trkpt>
      <trkpt lat="48.97131" lon="3.18992">
        <ele>56.2</ele>
        <time>2020-07-01T10:37:56Z</time>
      </trkpt>
      <trkpt lat="48.97133" lon="3.18982">
        <ele>56.2</ele>
        <time>2020-07-01T10:37:57Z</time>
      </trkpt>
      <trkpt lat="48.97135" lon="3.18974">
        <ele>56.2</ele>
        <time>2020-07-01T10:37:58Z</time>
      </trkpt>
      <trkpt lat="48.97138" lon="3.18966">
        <ele>56.3</ele>
        <time>2020-07-01T10:37:59Z</time>
      </trkpt>
      <trkpt lat="48.9714" lon="3.18959">
        <ele>56.4</ele>
        <time>2020-07-01T10:38:00Z</time>
      </trkpt>
      <trkpt lat="48.97141" lon="3.18951">
        <ele>56.5</ele>
        <time>2020-07-01T10:38:01Z</time>
      </trkpt>
      <trkpt lat="48.97143" lon="3.18944">
        <ele>56.6</ele>
        <time>2020-07-01T10:38:02Z</time>
      </trkpt>
      <trkpt lat="48.97145" lon="3.18937">
        <ele>56.7</ele>
        <time>2020-07-01T10:38:03Z</time>
      </trkpt>
      <trkpt lat="48.97147" lon="3.1893">
        <ele>56.8</ele>
        <time>2020-07-01T10:38:04Z</time>
      </trkpt>
      <trkpt lat="48.9715" lon="3.18923">
        <ele>56.9</ele>
        <time>2020-07-01T10:38:05Z</time>
      </trkpt>
      <trkpt lat="48.97153" lon="3.18916">
        <ele>57</ele>
        <time>2020-07-01T10:38:06Z</time>
      </trkpt>
      <trkpt lat="48.97155" lon="3.18909">
        <ele>57.1</ele>
        <time>2020-07-01T10:38:07Z</time>
      </trkpt>
      <trkpt lat="48.97156" lon="3.18902">
        <ele>57.2</ele>
        <time>2020-07-01T10:38:08Z</time>
      </trkpt>
      <trkpt lat="48.97158" lon="3.18895">
        <ele>57.2</ele>
        <time>2020-07-01T10:38:09Z</time>
      </trkpt>
      <trkpt lat="48.9716" lon="3.18888">
        <ele>57.3</ele>
        <time>2020-07-01T10:38:10Z</time>
      </trkpt>
      <trkpt lat="48.97162" lon="3.1888">
        <ele>57.4</ele>
        <time>2020-07-01T10:38:11Z</time>
      </trkpt>
      <trkpt lat="48.97163" lon="3.18873">
        <ele>57.6</ele>
        <time>2020-07-01T10:38:12Z</time>
      </trkpt>
      <trkpt lat="48.97165" lon="3.18866">
        <ele>57.7</ele>
        <time>2020-07-01T10:38:13Z</time>
      </trkpt>
      <trkpt lat="48.97166" lon="3.1886">
        <ele>57.8</ele>
        <time>2020-07-01T10:38:14Z</time>
      </trkpt>
      <trkpt lat="48.97168" lon="3.18853">
        <ele>57.9</ele>
        <time>2020-07-01T10:38:15Z</time>
      </trkpt>
      <trkpt lat="48.97169" lon="3.18846">
        <ele>58</ele>
        <time>2020-07-01T10:38:16Z</time>
      </trkpt>
      <trkpt lat="48.97171" lon="3.18839">
        <ele>58.1</ele>
        <time>2020-07-01T10:38:17Z</time>
      </trkpt>
      <trkpt lat="48.97173" lon="3.18832">
        <ele>58.2</ele>
        <time>2020-07-01T10:38:18Z</time>
      </trkpt>
      <trkpt lat="48.97174" lon="3.18826">
        <ele>58.2</ele>
        <time>2020-07-01T10:38:19Z</time>
      </trkpt>
      <trkpt lat="48.97176" lon="3.18819">
        <ele>58.3</ele>
        <time>2020-07-01T10:38:20Z</time>
      </trkpt>
      <trkpt lat="48.97177" lon="3.18812">
        <ele>58.4</ele>
        <time>2020-07-01T10:38:21Z</time>
      </trkpt>
      <trkpt lat="48.97178" lon="3.18805">
        <ele>58.5</ele>
        <time>2020-07-01T10:38:22Z</time>
      </trkpt>
      <trkpt lat="48.9718" lon="3.18798">
        <ele>58.6</ele>
        <time>2020-07-01T10:38:23Z</time>
      </trkpt>
      <trkpt lat="48.97181" lon="3.18791">
        <ele>58.7</ele>
        <time>2020-07-01T10:38:24Z</time>
      </trkpt>
      <trkpt lat="48.97182" lon="3.18785">
        <ele>58.8</ele>
        <time>2020-07-01T10:38:25Z</time>
      </trkpt>
      <trkpt lat="48.97183" lon="3.18778">
        <ele>58.9</ele>
        <time>2020-07-01T10:38:26Z</time>
      </trkpt>
      <trkpt lat="48.97183" lon="3.18773">
        <ele>59</ele>
        <time>2020-07-01T10:38:27Z</time>
      </trkpt>
      <trkpt lat="48.97184" lon="3.18767">
        <ele>59.1</ele>
        <time>2020-07-01T10:38:28Z</time>
      </trkpt>
      <trkpt lat="48.97185" lon="3.18762">
        <ele>59.2</ele>
        <time>2020-07-01T10:38:29Z</time>
      </trkpt>
      <trkpt lat="48.97186" lon="3.18756">
        <ele>59.3</ele>
        <time>2020-07-01T10:38:30Z</time>
      </trkpt>
      <trkpt lat="48.97187" lon="3.18751">
        <ele>59.4</ele>
        <time>2020-07-01T10:38:31Z</time>
      </trkpt>
      <trkpt lat="48.97188" lon="3.18745">
        <ele>59.5</ele>
        <time>2020-07-01T10:38:32Z</time>
      </trkpt>
      <trkpt lat="48.97189" lon="3.1874">
        <ele>59.6</ele>
        <time>2020-07-01T10:38:33Z</time>
      </trkpt>
      <trkpt lat="48.9719" lon="3.18735">
        <ele>59.7</ele>
        <time>2020-07-01T10:38:34Z</time>
      </trkpt>
      <trkpt lat="48.97192" lon="3.1873">
        <ele>59.8</ele>
        <time>2020-07-01T10:38:35Z</time>
      </trkpt>
      <trkpt lat="48.97193" lon="3.18725">
        <ele>59.9</ele>
        <time>2020-07-01T10:38:36Z</time>
      </trkpt>
      <trkpt lat="48.97194" lon="3.1872">
        <ele>60</ele>
        <time>2020-07-01T10:38:37Z</time>
      </trkpt>
      <trkpt lat="48.97194" lon="3.18714">
        <ele>60</ele>
        <time>2020-07-01T10:38:38Z</time>
      </trkpt>
      <trkpt lat="48.97195" lon="3.18709">
        <ele>60.2</ele>
        <time>2020-07-01T10:38:39Z</time>
      </trkpt>
      <trkpt lat="48.97195" lon="3.18703">
        <ele>60.3</ele>
        <time>2020-07-01T10:38:40Z</time>
      </trkpt>
      <trkpt lat="48.97195" lon="3.18698">
        <ele>60.5</ele>
        <time>2020-07-01T10:38:41Z</time>
      </trkpt>
      <trkpt lat="48.97195" lon="3.18693">
        <ele>60.7</ele>
        <time>2020-07-01T10:38:42Z</time>
      </trkpt>
      <trkpt lat="48.97196" lon="3.18687">
        <ele>60.9</ele>
        <time>2020-07-01T10:38:43Z</time>
      </trkpt>
      <trkpt lat="48.97196" lon="3.1868">
        <ele>61.1</ele>
        <time>2020-07-01T10:38:44Z</time>
      </trkpt>
      <trkpt lat="48.97198" lon="3.18672">
        <ele>61.4</ele>
        <time>2020-07-01T10:38:45Z</time>
      </trkpt>
      <trkpt lat="48.972" lon="3.18665">
        <ele>61.7</ele>
        <time>2020-07-01T10:38:46Z</time>
      </trkpt>
      <trkpt lat="48.97202" lon="3.18659">
        <ele>61.9</ele>
        <time>2020-07-01T10:38:47Z</time>
      </trkpt>
      <trkpt lat="48.97204" lon="3.18654">
        <ele>62.1</ele>
        <time>2020-07-01T10:38:48Z</time>
      </trkpt>
      <trkpt lat="48.97205" lon="3.1865">
        <ele>62.2</ele>
        <time>2020-07-01T10:38:49Z</time>
      </trkpt>
      <trkpt lat="48.97207" lon="3.18646">
        <ele>62.4</ele>
        <time>2020-07-01T10:38:50Z</time>
      </trkpt>
      <trkpt lat="48.97208" lon="3.18642">
        <ele>62.6</ele>
        <time>2020-07-01T10:38:51Z</time>
      </trkpt>
      <trkpt lat="48.9721" lon="3.18638">
        <ele>62.7</ele>
        <time>2020-07-01T10:38:52Z</time>
      </trkpt>
      <trkpt lat="48.97212" lon="3.18634">
        <ele>62.9</ele>
        <time>2020-07-01T10:38:53Z</time>
      </trkpt>
      <trkpt lat="48.97214" lon="3.18628">
        <ele>63.1</ele>
        <time>2020-07-01T10:38:54Z</time>
      </trkpt>
      <trkpt lat="48.97214" lon="3.18626">
        <ele>63.2</ele>
        <time>2020-07-01T10:38:55Z</time>
      </trkpt>
      <trkpt lat="48.97216" lon="3.18622">
        <ele>63.4</ele>
        <time>2020-07-01T10:38:56Z</time>
      </trkpt>
      <trkpt lat="48.97218" lon="3.18618">
        <ele>63.6</ele>
        <time>2020-07-01T10:38:57Z</time>
      </trkpt>
      <trkpt lat="48.97218" lon="3.18617">
        <ele>63.6</ele>
        <time>2020-07-01T10:38:58Z</time>
      </trkpt>
      <trkpt lat="48.9722" lon="3.18613">
        <ele>63.8</ele>
        <time>2020-07-01T10:38:59Z</time>
      </trkpt>
      <trkpt lat="48.97222" lon="3.18607">
        <ele>64.1</ele>
        <time>2020-07-01T10:39:00Z</time>
      </trkpt>
      <trkpt lat="48.97223" lon="3.18605">
        <ele>64.2</ele>
        <time>2020-07-01T10:39:01Z</time>
      </trkpt>
      <trkpt lat="48.97225" lon="3.18601">
        <ele>64.4</ele>
        <time>2020-07-01T10:39:02Z</time>
      </trkpt>
      <trkpt lat="48.97226" lon="3.186">
        <ele>64.4</ele>
        <time>2020-07-01T10:39:03Z</time>
      </trkpt>
      <trkpt lat="48.97228" lon="3.18595">
        <ele>64.7</ele>
        <time>2020-07-01T10:39:04Z</time>
      </trkpt>
      <trkpt lat="48.9723" lon="3.18591">
        <ele>64.9</ele>
        <time>2020-07-01T10:39:05Z</time>
      </trkpt>
      <trkpt lat="48.97232" lon="3.18587">
        <ele>65.2</ele>
        <time>2020-07-01T10:39:06Z</time>
      </trkpt>
      <trkpt lat="48.97233" lon="3.18583">
        <ele>65.5</ele>
        <time>2020-07-01T10:39:07Z</time>
      </trkpt>
      <trkpt lat="48.97235" lon="3.18579">
        <ele>65.8</ele>
        <time>2020-07-01T10:39:08Z</time>
      </trkpt>
      <trkpt lat="48.97237" lon="3.18574">
        <ele>66.1</ele>
        <time>2020-07-01T10:39:09Z</time>
      </trkpt>
      <trkpt lat="48.97238" lon="3.18569">
        <ele>66.4</ele>
        <time>2020-07-01T10:39:10Z</time>
      </trkpt>
      <trkpt lat="48.97241" lon="3.18564">
        <ele>66.4</ele>
        <time>2020-07-01T10:39:11Z</time>
      </trkpt>
      <trkpt lat="48.97244" lon="3.18561">
        <ele>66.5</ele>
        <time>2020-07-01T10:39:12Z</time>
      </trkpt>
      <trkpt lat="48.97245" lon="3.18557">
        <ele>66.7</ele>
        <time>2020-07-01T10:39:13Z</time>
      </trkpt>
      <trkpt lat="48.97247" lon="3.18554">
        <ele>66.8</ele>
        <time>2020-07-01T10:39:14Z</time>
      </trkpt>
      <trkpt lat="48.97249" lon="3.1855">
        <ele>66.9</ele>
        <time>2020-07-01T10:39:15Z</time>
      </trkpt>
      <trkpt lat="48.97251" lon="3.18546">
        <ele>67.1</ele>
        <time>2020-07-01T10:39:16Z</time>
      </trkpt>
      <trkpt lat="48.97252" lon="3.18541">
        <ele>67.2</ele>
        <time>2020-07-01T10:39:17Z</time>
      </trkpt>
      <trkpt lat="48.97253" lon="3.18536">
        <ele>67.4</ele>
        <time>2020-07-01T10:39:18Z</time>
      </trkpt>
      <trkpt lat="48.97254" lon="3.18532">
        <ele>67.5</ele>
        <time>2020-07-01T10:39:19Z</time>
      </trkpt>
      <trkpt lat="48.97255" lon="3.18528">
        <ele>67.6</ele>
        <time>2020-07-01T10:39:20Z</time>
      </trkpt>
      <trkpt lat="48.97256" lon="3.18524">
        <ele>67.8</ele>
        <time>2020-07-01T10:39:21Z</time>
      </trkpt>
      <trkpt lat="48.97258" lon="3.18519">
        <ele>67.9</ele>
        <time>2020-07-01T10:39:22Z</time>
      </trkpt>
      <trkpt lat="48.97259" lon="3.18515">
        <ele>68.1</ele>
        <time>2020-07-01T10:39:23Z</time>
      </trkpt>
      <trkpt lat="48.97261" lon="3.1851">
        <ele>68.2</ele>
        <time>2020-07-01T10:39:24Z</time>
      </trkpt>
      <trkpt lat="48.97261" lon="3.18508">
        <ele>68.3</ele>
        <time>2020-07-01T10:39:25Z</time>
      </trkpt>
      <trkpt lat="48.97263" lon="3.18504">
        <ele>68.5</ele>
        <time>2020-07-01T10:39:26Z</time>
      </trkpt>
      <trkpt lat="48.97265" lon="3.185">
        <ele>68.6</ele>
        <time>2020-07-01T10:39:27Z</time>
      </trkpt>
      <trkpt lat="48.97267" lon="3.18497">
        <ele>68.8</ele>
        <time>2020-07-01T10:39:28Z</time>
      </trkpt>
      <trkpt lat="48.97269" lon="3.18492">
        <ele>69</ele>
        <time>2020-07-01T10:39:29Z</time>
      </trkpt>
      <trkpt lat="48.97271" lon="3.18486">
        <ele>69.1</ele>
        <time>2020-07-01T10:39:30Z</time>
      </trkpt>
      <trkpt lat="48.97272" lon="3.18483">
        <ele>69.3</ele>
        <time>2020-07-01T10:39:31Z</time>
      </trkpt>
      <trkpt lat="48.97274" lon="3.18479">
        <ele>69.4</ele>
        <time>2020-07-01T10:39:32Z</time>
      </trkpt>
      <trkpt lat="48.97277" lon="3.18474">
        <ele>69.6</ele>
        <time>2020-07-01T10:39:33Z</time>
      </trkpt>
      <trkpt lat="48.97279" lon="3.18471">
        <ele>69.8</ele>
        <time>2020-07-01T10:39:34Z</time>
      </trkpt>
      <trkpt lat="48.97282" lon="3.18465">
        <ele>69.9</ele>
        <time>2020-07-01T10:39:35Z</time>
      </trkpt>
      <trkpt lat="48.97283" lon="3.18463">
        <ele>70</ele>
        <time>2020-07-01T10:39:36Z</time>
      </trkpt>
      <trkpt lat="48.97285" lon="3.18459">
        <ele>70.2</ele>
        <time>2020-07-01T10:39:37Z</time>
      </trkpt>
      <trkpt lat="48.97286" lon="3.18456">
        <ele>70.3</ele>
        <time>2020-07-01T10:39:38Z</time>
      </trkpt>
      <trkpt lat="48.97288" lon="3.18452">
        <ele>70.5</ele>
        <time>2020-07-01T10:39:39Z</time>
      </trkpt>
      <trkpt lat="48.9729" lon="3.18449">
        <ele>70.6</ele>
        <time>2020-07-01T10:39:40Z</time>
      </trkpt>
      <trkpt lat="48.97292" lon="3.18445">
        <ele>70.7</ele>
        <time>2020-07-01T10:39:41Z</time>
      </trkpt>
      <trkpt lat="48.97295" lon="3.1844">
        <ele>71</ele>
        <time>2020-07-01T10:39:42Z</time>
      </trkpt>
      <trkpt lat="48.97296" lon="3.18438">
        <ele>71</ele>
        <time>2020-07-01T10:39:43Z</time>
      </trkpt>
      <trkpt lat="48.97298" lon="3.18434">
        <ele>71.2</ele>
        <time>2020-07-01T10:39:44Z</time>
      </trkpt>
      <trkpt lat="48.973" lon="3.18429">
        <ele>71.4</ele>
        <time>2020-07-01T10:39:45Z</time>
      </trkpt>
      <trkpt lat="48.97302" lon="3.18425">
        <ele>71.6</ele>
        <time>2020-07-01T10:39:46Z</time>
      </trkpt>
      <trkpt lat="48.97303" lon="3.18423">
        <ele>71.6</ele>
        <time>2020-07-01T10:39:47Z</time>
      </trkpt>
      <trkpt lat="48.97305" lon="3.1842">
        <ele>71.8</ele>
        <time>2020-07-01T10:39:48Z</time>
      </trkpt>
      <trkpt lat="48.97308" lon="3.18416">
        <ele>72</ele>
        <time>2020-07-01T10:39:49Z</time>
      </trkpt>
      <trkpt lat="48.97311" lon="3.18412">
        <ele>72.2</ele>
        <time>2020-07-01T10:39:50Z</time>
      </trkpt>
      <trkpt lat="48.97313" lon="3.18408">
        <ele>72.3</ele>
        <time>2020-07-01T10:39:51Z</time>
      </trkpt>
      <trkpt lat="48.97315" lon="3.18404">
        <ele>72.5</ele>
        <time>2020-07-01T10:39:52Z</time>
      </trkpt>
      <trkpt lat="48.97317" lon="3.184">
        <ele>72.6</ele>
        <time>2020-07-01T10:39:53Z</time>
      </trkpt>
      <trkpt lat="48.97319" lon="3.18396">
        <ele>72.8</ele>
        <time>2020-07-01T10:39:54Z</time>
      </trkpt>
      <trkpt lat="48.97322" lon="3.18392">
        <ele>72.9</ele>
        <time>2020-07-01T10:39:55Z</time>
      </trkpt>
      <trkpt lat="48.97323" lon="3.1839">
        <ele>73</ele>
        <time>2020-07-01T10:39:56Z</time>
      </trkpt>
      <trkpt lat="48.97325" lon="3.18386">
        <ele>73.1</ele>
        <time>2020-07-01T10:39:57Z</time>
      </trkpt>
      <trkpt lat="48.97326" lon="3.18382">
        <ele>73.3</ele>
        <time>2020-07-01T10:39:58Z</time>
      </trkpt>
      <trkpt lat="48.97328" lon="3.18378">
        <ele>73.4</ele>
        <time>2020-07-01T10:39:59Z</time>
      </trkpt>
      <trkpt lat="48.9733" lon="3.18375">
        <ele>73.5</ele>
        <time>2020-07-01T10:40:00Z</time>
      </trkpt>
      <trkpt lat="48.97332" lon="3.18371">
        <ele>73.7</ele>
        <time>2020-07-01T10:40:01Z</time>
      </trkpt>
      <trkpt lat="48.97334" lon="3.18366">
        <ele>73.8</ele>
        <time>2020-07-01T10:40:02Z</time>
      </trkpt>
      <trkpt lat="48.97336" lon="3.18362">
        <ele>73.9</ele>
        <time>2020-07-01T10:40:03Z</time>
      </trkpt>
      <trkpt lat="48.97337" lon="3.18356">
        <ele>74</ele>
        <time>2020-07-01T10:40:04Z</time>
      </trkpt>
      <trkpt lat="48.97337" lon="3.18354">
        <ele>74.1</ele>
        <time>2020-07-01T10:40:05Z</time>
      </trkpt>
      <trkpt lat="48.97338" lon="3.18349">
        <ele>74.1</ele>
        <time>2020-07-01T10:40:06Z</time>
      </trkpt>
      <trkpt lat="48.97337" lon="3.18344">
        <ele>74.3</ele>
        <time>2020-07-01T10:40:07Z</time>
      </trkpt>
      <trkpt lat="48.97337" lon="3.18343">
        <ele>74.4</ele>
        <time>2020-07-01T10:40:08Z</time>
      </trkpt>
      <trkpt lat="48.97336" lon="3.18339">
        <ele>74.5</ele>
        <time>2020-07-01T10:40:09Z</time>
      </trkpt>
      <trkpt lat="48.97335" lon="3.18337">
        <ele>74.6</ele>
        <time>2020-07-01T10:40:10Z</time>
      </trkpt>
      <trkpt lat="48.97334" lon="3.18333">
        <ele>74.7</ele>
        <time>2020-07-01T10:40:11Z</time>
      </trkpt>
      <trkpt lat="48.97333" lon="3.18329">
        <ele>74.9</ele>
        <time>2020-07-01T10:40:12Z</time>
      </trkpt>
      <trkpt lat="48.97331" lon="3.18323">
        <ele>75</ele>
        <time>2020-07-01T10:40:13Z</time>
      </trkpt>
      <trkpt lat="48.97331" lon="3.18321">
        <ele>75.1</ele>
        <time>2020-07-01T10:40:14Z</time>
      </trkpt>
      <trkpt lat="48.9733" lon="3.18316">
        <ele>75.2</ele>
        <time>2020-07-01T10:40:15Z</time>
      </trkpt>
      <trkpt lat="48.9733" lon="3.18311">
        <ele>75.3</ele>
        <time>2020-07-01T10:40:16Z</time>
      </trkpt>
      <trkpt lat="48.97329" lon="3.18307">
        <ele>75.5</ele>
        <time>2020-07-01T10:40:17Z</time>
      </trkpt>
      <trkpt lat="48.97328" lon="3.18302">
        <ele>75.6</ele>
        <time>2020-07-01T10:40:18Z</time>
      </trkpt>
      <trkpt lat="48.97327" lon="3.18298">
        <ele>75.7</ele>
        <time>2020-07-01T10:40:19Z</time>
      </trkpt>
      <trkpt lat="48.97326" lon="3.18295">
        <ele>75.8</ele>
        <time>2020-07-01T10:40:20Z</time>
      </trkpt>
      <trkpt lat="48.97325" lon="3.18289">
        <ele>76</ele>
        <time>2020-07-01T10:40:21Z</time>
      </trkpt>
      <trkpt lat="48.97324" lon="3.18287">
        <ele>76</ele>
        <time>2020-07-01T10:40:22Z</time>
      </trkpt>
      <trkpt lat="48.97323" lon="3.18283">
        <ele>76.2</ele>
        <time>2020-07-01T10:40:23Z</time>
      </trkpt>
      <trkpt lat="48.97323" lon="3.18279">
        <ele>76.3</ele>
        <time>2020-07-01T10:40:24Z</time>
      </trkpt>
      <trkpt lat="48.97322" lon="3.18274">
        <ele>76.5</ele>
        <time>2020-07-01T10:40:25Z</time>
      </trkpt>
      <trkpt lat="48.97321" lon="3.18269">
        <ele>76.7</ele>
        <time>2020-07-01T10:40:26Z</time>
      </trkpt>
      <trkpt lat="48.9732" lon="3.18265">
        <ele>76.8</ele>
        <time>2020-07-01T10:40:27Z</time>
      </trkpt>
      <trkpt lat="48.97319" lon="3.1826">
        <ele>77</ele>
        <time>2020-07-01T10:40:28Z</time>
      </trkpt>
      <trkpt lat="48.97319" lon="3.18255">
        <ele>77.2</ele>
        <time>2020-07-01T10:40:29Z</time>
      </trkpt>
      <trkpt lat="48.97318" lon="3.18253">
        <ele>77.3</ele>
        <time>2020-07-01T10:40:30Z</time>
      </trkpt>
      <trkpt lat="48.97317" lon="3.18247">
        <ele>77.5</ele>
        <time>2020-07-01T10:40:31Z</time>
      </trkpt>
      <trkpt lat="48.97317" lon="3.18245">
        <ele>77.5</ele>
        <time>2020-07-01T10:40:32Z</time>
      </trkpt>
      <trkpt lat="48.97316" lon="3.1824">
        <ele>77.7</ele>
        <time>2020-07-01T10:40:33Z</time>
      </trkpt>
      <trkpt lat="48.97316" lon="3.18238">
        <ele>77.8</ele>
        <time>2020-07-01T10:40:34Z</time>
      </trkpt>
      <trkpt lat="48.97315" lon="3.18232">
        <ele>78</ele>
        <time>2020-07-01T10:40:35Z</time>
      </trkpt>
      <trkpt lat="48.97315" lon="3.18231">
        <ele>78.1</ele>
        <time>2020-07-01T10:40:36Z</time>
      </trkpt>
      <trkpt lat="48.97314" lon="3.18225">
        <ele>78.3</ele>
        <time>2020-07-01T10:40:37Z</time>
      </trkpt>
      <trkpt lat="48.97314" lon="3.18223">
        <ele>78.4</ele>
        <time>2020-07-01T10:40:38Z</time>
      </trkpt>
      <trkpt lat="48.97313" lon="3.18218">
        <ele>78.6</ele>
        <time>2020-07-01T10:40:39Z</time>
      </trkpt>
      <trkpt lat="48.97313" lon="3.18216">
        <ele>78.6</ele>
        <time>2020-07-01T10:40:40Z</time>
      </trkpt>
      <trkpt lat="48.97312" lon="3.18211">
        <ele>78.8</ele>
        <time>2020-07-01T10:40:41Z</time>
      </trkpt>
      <trkpt lat="48.97312" lon="3.18209">
        <ele>78.9</ele>
        <time>2020-07-01T10:40:42Z</time>
      </trkpt>
      <trkpt lat="48.97311" lon="3.18205">
        <ele>79.1</ele>
        <time>2020-07-01T10:40:43Z</time>
      </trkpt>
      <trkpt lat="48.9731" lon="3.18203">
        <ele>79.2</ele>
        <time>2020-07-01T10:40:44Z</time>
      </trkpt>
      <trkpt lat="48.9731" lon="3.18199">
        <ele>79.3</ele>
        <time>2020-07-01T10:40:45Z</time>
      </trkpt>
      <trkpt lat="48.97309" lon="3.18194">
        <ele>79.5</ele>
        <time>2020-07-01T10:40:46Z</time>
      </trkpt>
      <trkpt lat="48.97309" lon="3.1819">
        <ele>79.7</ele>
        <time>2020-07-01T10:40:47Z</time>
      </trkpt>
      <trkpt lat="48.97308" lon="3.18184">
        <ele>80</ele>
        <time>2020-07-01T10:40:48Z</time>
      </trkpt>
      <trkpt lat="48.97308" lon="3.18182">
        <ele>80</ele>
        <time>2020-07-01T10:40:49Z</time>
      </trkpt>
      <trkpt lat="48.97308" lon="3.18176">
        <ele>80.3</ele>
        <time>2020-07-01T10:40:50Z</time>
      </trkpt>
      <trkpt lat="48.97307" lon="3.18175">
        <ele>80.3</ele>
        <time>2020-07-01T10:40:51Z</time>
      </trkpt>
      <trkpt lat="48.97307" lon="3.1817">
        <ele>80.5</ele>
        <time>2020-07-01T10:40:52Z</time>
      </trkpt>
      <trkpt lat="48.97307" lon="3.18166">
        <ele>80.7</ele>
        <time>2020-07-01T10:40:53Z</time>
      </trkpt>
      <trkpt lat="48.97306" lon="3.1816">
        <ele>81</ele>
        <time>2020-07-01T10:40:54Z</time>
      </trkpt>
      <trkpt lat="48.97306" lon="3.18159">
        <ele>81</ele>
        <time>2020-07-01T10:40:55Z</time>
      </trkpt>
      <trkpt lat="48.97306" lon="3.18153">
        <ele>81.3</ele>
        <time>2020-07-01T10:40:56Z</time>
      </trkpt>
      <trkpt lat="48.97305" lon="3.18151">
        <ele>81.3</ele>
        <time>2020-07-01T10:40:57Z</time>
      </trkpt>
      <trkpt lat="48.97305" lon="3.18145">
        <ele>81.6</ele>
        <time>2020-07-01T10:40:58Z</time>
      </trkpt>
      <trkpt lat="48.97305" lon="3.18143">
        <ele>81.7</ele>
        <time>2020-07-01T10:40:59Z</time>
      </trkpt>
      <trkpt lat="48.97304" lon="3.18137">
        <ele>81.9</ele>
        <time>2020-07-01T10:41:00Z</time>
      </trkpt>
      <trkpt lat="48.97303" lon="3.18136">
        <ele>82</ele>
        <time>2020-07-01T10:41:01Z</time>
      </trkpt>
      <trkpt lat="48.97303" lon="3.18131">
        <ele>82.2</ele>
        <time>2020-07-01T10:41:02Z</time>
      </trkpt>
      <trkpt lat="48.97302" lon="3.18125">
        <ele>82.4</ele>
        <time>2020-07-01T10:41:03Z</time>
      </trkpt>
      <trkpt lat="48.97301" lon="3.18123">
        <ele>82.5</ele>
        <time>2020-07-01T10:41:04Z</time>
      </trkpt>
      <trkpt lat="48.973" lon="3.18118">
        <ele>82.7</ele>
        <time>2020-07-01T10:41:05Z</time>
      </trkpt>
      <trkpt lat="48.97299" lon="3.18116">
        <ele>82.8</ele>
        <time>2020-07-01T10:41:06Z</time>
      </trkpt>
      <trkpt lat="48.97298" lon="3.18111">
        <ele>83</ele>
        <time>2020-07-01T10:41:07Z</time>
      </trkpt>
      <trkpt lat="48.97298" lon="3.18109">
        <ele>83.1</ele>
        <time>2020-07-01T10:41:08Z</time>
      </trkpt>
      <trkpt lat="48.97297" lon="3.18104">
        <ele>83.4</ele>
        <time>2020-07-01T10:41:09Z</time>
      </trkpt>
      <trkpt lat="48.97297" lon="3.18102">
        <ele>83.4</ele>
        <time>2020-07-01T10:41:10Z</time>
      </trkpt>
      <trkpt lat="48.97296" lon="3.18097">
        <ele>83.6</ele>
        <time>2020-07-01T10:41:11Z</time>
      </trkpt>
      <trkpt lat="48.97296" lon="3.18093">
        <ele>83.8</ele>
        <time>2020-07-01T10:41:12Z</time>
      </trkpt>
      <trkpt lat="48.97296" lon="3.18089">
        <ele>83.9</ele>
        <time>2020-07-01T10:41:13Z</time>
      </trkpt>
      <trkpt lat="48.97296" lon="3.18085">
        <ele>84.1</ele>
        <time>2020-07-01T10:41:14Z</time>
      </trkpt>
      <trkpt lat="48.97295" lon="3.18079">
        <ele>84.3</ele>
        <time>2020-07-01T10:41:15Z</time>
      </trkpt>
      <trkpt lat="48.97295" lon="3.18077">
        <ele>84.4</ele>
        <time>2020-07-01T10:41:16Z</time>
      </trkpt>
      <trkpt lat="48.97295" lon="3.18072">
        <ele>84.6</ele>
        <time>2020-07-01T10:41:17Z</time>
      </trkpt>
      <trkpt lat="48.97294" lon="3.1807">
        <ele>84.7</ele>
        <time>2020-07-01T10:41:18Z</time>
      </trkpt>
      <trkpt lat="48.97294" lon="3.18066">
        <ele>84.8</ele>
        <time>2020-07-01T10:41:19Z</time>
      </trkpt>
      <trkpt lat="48.97293" lon="3.18061">
        <ele>85</ele>
        <time>2020-07-01T10:41:20Z</time>
      </trkpt>
      <trkpt lat="48.97293" lon="3.1806">
        <ele>85.1</ele>
        <time>2020-07-01T10:41:21Z</time>
      </trkpt>
      <trkpt lat="48.97292" lon="3.18053">
        <ele>85.3</ele>
        <time>2020-07-01T10:41:22Z</time>
      </trkpt>
      <trkpt lat="48.97292" lon="3.18051">
        <ele>85.4</ele>
        <time>2020-07-01T10:41:23Z</time>
      </trkpt>
      <trkpt lat="48.97291" lon="3.18046">
        <ele>85.7</ele>
        <time>2020-07-01T10:41:24Z</time>
      </trkpt>
      <trkpt lat="48.97291" lon="3.18043">
        <ele>85.7</ele>
        <time>2020-07-01T10:41:25Z</time>
      </trkpt>
      <trkpt lat="48.97291" lon="3.18039">
        <ele>85.9</ele>
        <time>2020-07-01T10:41:26Z</time>
      </trkpt>
      <trkpt lat="48.97291" lon="3.18033">
        <ele>86.2</ele>
        <time>2020-07-01T10:41:27Z</time>
      </trkpt>
      <trkpt lat="48.97291" lon="3.18031">
        <ele>86.3</ele>
        <time>2020-07-01T10:41:28Z</time>
      </trkpt>
      <trkpt lat="48.9729" lon="3.18026">
        <ele>86.5</ele>
        <time>2020-07-01T10:41:29Z</time>
      </trkpt>
      <trkpt lat="48.97289" lon="3.18021">
        <ele>86.7</ele>
        <time>2020-07-01T10:41:30Z</time>
      </trkpt>
      <trkpt lat="48.97288" lon="3.18017">
        <ele>86.9</ele>
        <time>2020-07-01T10:41:31Z</time>
      </trkpt>
      <trkpt lat="48.97288" lon="3.18012">
        <ele>87.1</ele>
        <time>2020-07-01T10:41:32Z</time>
      </trkpt>
      <trkpt lat="48.97286" lon="3.18007">
        <ele>87.3</ele>
        <time>2020-07-01T10:41:33Z</time>
      </trkpt>
      <trkpt lat="48.97286" lon="3.18006">
        <ele>87.4</ele>
        <time>2020-07-01T10:41:34Z</time>
      </trkpt>
      <trkpt lat="48.97285" lon="3.18">
        <ele>87.6</ele>
        <time>2020-07-01T10:41:35Z</time>
      </trkpt>
      <trkpt lat="48.97285" lon="3.17999">
        <ele>87.7</ele>
        <time>2020-07-01T10:41:36Z</time>
      </trkpt>
      <trkpt lat="48.97282" lon="3.17994">
        <ele>87.9</ele>
        <time>2020-07-01T10:41:37Z</time>
      </trkpt>
      <trkpt lat="48.97282" lon="3.17992">
        <ele>88</ele>
        <time>2020-07-01T10:41:38Z</time>
      </trkpt>
      <trkpt lat="48.9728" lon="3.17989">
        <ele>88.2</ele>
        <time>2020-07-01T10:41:39Z</time>
      </trkpt>
      <trkpt lat="48.97278" lon="3.17985">
        <ele>88.4</ele>
        <time>2020-07-01T10:41:40Z</time>
      </trkpt>
      <trkpt lat="48.97276" lon="3.17981">
        <ele>88.7</ele>
        <time>2020-07-01T10:41:41Z</time>
      </trkpt>
      <trkpt lat="48.97275" lon="3.17978">
        <ele>88.8</ele>
        <time>2020-07-01T10:41:42Z</time>
      </trkpt>
      <trkpt lat="48.97273" lon="3.17973">
        <ele>89.5</ele>
        <time>2020-07-01T10:41:43Z</time>
      </trkpt>
      <trkpt lat="48.97273" lon="3.1797">
        <ele>89.6</ele>
        <time>2020-07-01T10:41:44Z</time>
      </trkpt>
      <trkpt lat="48.97273" lon="3.17965">
        <ele>89.8</ele>
        <time>2020-07-01T10:41:45Z</time>
      </trkpt>
      <trkpt lat="48.97273" lon="3.1796">
        <ele>89.9</ele>
        <time>2020-07-01T10:41:46Z</time>
      </trkpt>
      <trkpt lat="48.97273" lon="3.17956">
        <ele>90.1</ele>
        <time>2020-07-01T10:41:47Z</time>
      </trkpt>
      <trkpt lat="48.97272" lon="3.1795">
        <ele>90.2</ele>
        <time>2020-07-01T10:41:48Z</time>
      </trkpt>
      <trkpt lat="48.97273" lon="3.17946">
        <ele>90.4</ele>
        <time>2020-07-01T10:41:49Z</time>
      </trkpt>
      <trkpt lat="48.97273" lon="3.1794">
        <ele>90.5</ele>
        <time>2020-07-01T10:41:50Z</time>
      </trkpt>
      <trkpt lat="48.97273" lon="3.17935">
        <ele>90.6</ele>
        <time>2020-07-01T10:41:51Z</time>
      </trkpt>
      <trkpt lat="48.97273" lon="3.17929">
        <ele>90.8</ele>
        <time>2020-07-01T10:41:52Z</time>
      </trkpt>
      <trkpt lat="48.97273" lon="3.17926">
        <ele>90.9</ele>
        <time>2020-07-01T10:41:53Z</time>
      </trkpt>
      <trkpt lat="48.97273" lon="3.1792">
        <ele>91</ele>
        <time>2020-07-01T10:41:54Z</time>
      </trkpt>
      <trkpt lat="48.97273" lon="3.17916">
        <ele>91.1</ele>
        <time>2020-07-01T10:41:55Z</time>
      </trkpt>
      <trkpt lat="48.97273" lon="3.17911">
        <ele>91.2</ele>
        <time>2020-07-01T10:41:56Z</time>
      </trkpt>
      <trkpt lat="48.97273" lon="3.17905">
        <ele>91.3</ele>
        <time>2020-07-01T10:41:57Z</time>
      </trkpt>
      <trkpt lat="48.97274" lon="3.17903">
        <ele>91.4</ele>
        <time>2020-07-01T10:41:58Z</time>
      </trkpt>
      <trkpt lat="48.97275" lon="3.17896">
        <ele>91.5</ele>
        <time>2020-07-01T10:41:59Z</time>
      </trkpt>
      <trkpt lat="48.97274" lon="3.17891">
        <ele>91.6</ele>
        <time>2020-07-01T10:42:00Z</time>
      </trkpt>
      <trkpt lat="48.97274" lon="3.17886">
        <ele>91.7</ele>
        <time>2020-07-01T10:42:01Z</time>
      </trkpt>
      <trkpt lat="48.97274" lon="3.17879">
        <ele>91.8</ele>
        <time>2020-07-01T10:42:02Z</time>
      </trkpt>
      <trkpt lat="48.97273" lon="3.17873">
        <ele>91.9</ele>
        <time>2020-07-01T10:42:03Z</time>
      </trkpt>
      <trkpt lat="48.97273" lon="3.17868">
        <ele>91.9</ele>
        <time>2020-07-01T10:42:04Z</time>
      </trkpt>
      <trkpt lat="48.97273" lon="3.17862">
        <ele>92</ele>
        <time>2020-07-01T10:42:05Z</time>
      </trkpt>
      <trkpt lat="48.97273" lon="3.17854">
        <ele>92.1</ele>
        <time>2020-07-01T10:42:06Z</time>
      </trkpt>
      <trkpt lat="48.97273" lon="3.17849">
        <ele>92.2</ele>
        <time>2020-07-01T10:42:07Z</time>
      </trkpt>
      <trkpt lat="48.97271" lon="3.17843">
        <ele>92.3</ele>
        <time>2020-07-01T10:42:08Z</time>
      </trkpt>
      <trkpt lat="48.97271" lon="3.17838">
        <ele>92.2</ele>
        <time>2020-07-01T10:42:09Z</time>
      </trkpt>
      <trkpt lat="48.9727" lon="3.17833">
        <ele>92.2</ele>
        <time>2020-07-01T10:42:10Z</time>
      </trkpt>
      <trkpt lat="48.97269" lon="3.17825">
        <ele>92.1</ele>
        <time>2020-07-01T10:42:11Z</time>
      </trkpt>
      <trkpt lat="48.97269" lon="3.1782">
        <ele>92</ele>
        <time>2020-07-01T10:42:12Z</time>
      </trkpt>
      <trkpt lat="48.97268" lon="3.17816">
        <ele>91.9</ele>
        <time>2020-07-01T10:42:13Z</time>
      </trkpt>
      <trkpt lat="48.97268" lon="3.17809">
        <ele>91.8</ele>
        <time>2020-07-01T10:42:14Z</time>
      </trkpt>
      <trkpt lat="48.97267" lon="3.17805">
        <ele>91.7</ele>
        <time>2020-07-01T10:42:15Z</time>
      </trkpt>
      <trkpt lat="48.97266" lon="3.17799">
        <ele>91.6</ele>
        <time>2020-07-01T10:42:16Z</time>
      </trkpt>
      <trkpt lat="48.97265" lon="3.17792">
        <ele>91.5</ele>
        <time>2020-07-01T10:42:17Z</time>
      </trkpt>
      <trkpt lat="48.97266" lon="3.17785">
        <ele>91.4</ele>
        <time>2020-07-01T10:42:18Z</time>
      </trkpt>
      <trkpt lat="48.97265" lon="3.17777">
        <ele>91.2</ele>
        <time>2020-07-01T10:42:19Z</time>
      </trkpt>
      <trkpt lat="48.97264" lon="3.1777">
        <ele>91.1</ele>
        <time>2020-07-01T10:42:20Z</time>
      </trkpt>
      <trkpt lat="48.97264" lon="3.17763">
        <ele>91</ele>
        <time>2020-07-01T10:42:21Z</time>
      </trkpt>
      <trkpt lat="48.97263" lon="3.17756">
        <ele>90.9</ele>
        <time>2020-07-01T10:42:22Z</time>
      </trkpt>
      <trkpt lat="48.97263" lon="3.17749">
        <ele>90.8</ele>
        <time>2020-07-01T10:42:23Z</time>
      </trkpt>
      <trkpt lat="48.97263" lon="3.17743">
        <ele>90.7</ele>
        <time>2020-07-01T10:42:24Z</time>
      </trkpt>
      <trkpt lat="48.97263" lon="3.17735">
        <ele>90.6</ele>
        <time>2020-07-01T10:42:25Z</time>
      </trkpt>
      <trkpt lat="48.97263" lon="3.17728">
        <ele>90.5</ele>
        <time>2020-07-01T10:42:26Z</time>
      </trkpt>
      <trkpt lat="48.97263" lon="3.17722">
        <ele>90.5</ele>
        <time>2020-07-01T10:42:27Z</time>
      </trkpt>
      <trkpt lat="48.97264" lon="3.17715">
        <ele>90.4</ele>
        <time>2020-07-01T10:42:28Z</time>
      </trkpt>
      <trkpt lat="48.97264" lon="3.17711">
        <ele>90.3</ele>
        <time>2020-07-01T10:42:29Z</time>
      </trkpt>
      <trkpt lat="48.97264" lon="3.17705">
        <ele>90.2</ele>
        <time>2020-07-01T10:42:30Z</time>
      </trkpt>
      <trkpt lat="48.97264" lon="3.17699">
        <ele>90.1</ele>
        <time>2020-07-01T10:42:31Z</time>
      </trkpt>
      <trkpt lat="48.97264" lon="3.17694">
        <ele>89.9</ele>
        <time>2020-07-01T10:42:32Z</time>
      </trkpt>
      <trkpt lat="48.97263" lon="3.17688">
        <ele>90.1</ele>
        <time>2020-07-01T10:42:33Z</time>
      </trkpt>
      <trkpt lat="48.97262" lon="3.17682">
        <ele>90.2</ele>
        <time>2020-07-01T10:42:34Z</time>
      </trkpt>
      <trkpt lat="48.97261" lon="3.17675">
        <ele>90.1</ele>
        <time>2020-07-01T10:42:35Z</time>
      </trkpt>
      <trkpt lat="48.97258" lon="3.17666">
        <ele>90.1</ele>
        <time>2020-07-01T10:42:36Z</time>
      </trkpt>
      <trkpt lat="48.97255" lon="3.17658">
        <ele>90</ele>
        <time>2020-07-01T10:42:37Z</time>
      </trkpt>
      <trkpt lat="48.97253" lon="3.17651">
        <ele>89.9</ele>
        <time>2020-07-01T10:42:38Z</time>
      </trkpt>
      <trkpt lat="48.97251" lon="3.17643">
        <ele>89.9</ele>
        <time>2020-07-01T10:42:39Z</time>
      </trkpt>
      <trkpt lat="48.97249" lon="3.17636">
        <ele>89.8</ele>
        <time>2020-07-01T10:42:40Z</time>
      </trkpt>
      <trkpt lat="48.97247" lon="3.1763">
        <ele>89.7</ele>
        <time>2020-07-01T10:42:41Z</time>
      </trkpt>
      <trkpt lat="48.97245" lon="3.17624">
        <ele>89.6</ele>
        <time>2020-07-01T10:42:42Z</time>
      </trkpt>
      <trkpt lat="48.97243" lon="3.17617">
        <ele>89.5</ele>
        <time>2020-07-01T10:42:43Z</time>
      </trkpt>
      <trkpt lat="48.9724" lon="3.17611">
        <ele>89.4</ele>
        <time>2020-07-01T10:42:44Z</time>
      </trkpt>
      <trkpt lat="48.97238" lon="3.17604">
        <ele>89.3</ele>
        <time>2020-07-01T10:42:45Z</time>
      </trkpt>
      <trkpt lat="48.97235" lon="3.17597">
        <ele>89.3</ele>
        <time>2020-07-01T10:42:46Z</time>
      </trkpt>
      <trkpt lat="48.97233" lon="3.1759">
        <ele>89.2</ele>
        <time>2020-07-01T10:42:47Z</time>
      </trkpt>
      <trkpt lat="48.97231" lon="3.17582">
        <ele>89.1</ele>
        <time>2020-07-01T10:42:48Z</time>
      </trkpt>
      <trkpt lat="48.97228" lon="3.17576">
        <ele>89</ele>
        <time>2020-07-01T10:42:49Z</time>
      </trkpt>
      <trkpt lat="48.97226" lon="3.17568">
        <ele>88.9</ele>
        <time>2020-07-01T10:42:50Z</time>
      </trkpt>
      <trkpt lat="48.97223" lon="3.1756">
        <ele>88.7</ele>
        <time>2020-07-01T10:42:51Z</time>
      </trkpt>
      <trkpt lat="48.97221" lon="3.17552">
        <ele>88.6</ele>
        <time>2020-07-01T10:42:52Z</time>
      </trkpt>
      <trkpt lat="48.97218" lon="3.17544">
        <ele>88.4</ele>
        <time>2020-07-01T10:42:53Z</time>
      </trkpt>
      <trkpt lat="48.97215" lon="3.17536">
        <ele>88.3</ele>
        <time>2020-07-01T10:42:54Z</time>
      </trkpt>
      <trkpt lat="48.97212" lon="3.17528">
        <ele>88.2</ele>
        <time>2020-07-01T10:42:55Z</time>
      </trkpt>
      <trkpt lat="48.97208" lon="3.17521">
        <ele>88</ele>
        <time>2020-07-01T10:42:56Z</time>
      </trkpt>
      <trkpt lat="48.97205" lon="3.17514">
        <ele>87.9</ele>
        <time>2020-07-01T10:42:57Z</time>
      </trkpt>
      <trkpt lat="48.97202" lon="3.17506">
        <ele>87.8</ele>
        <time>2020-07-01T10:42:58Z</time>
      </trkpt>
      <trkpt lat="48.97199" lon="3.17499">
        <ele>87.6</ele>
        <time>2020-07-01T10:42:59Z</time>
      </trkpt>
      <trkpt lat="48.97196" lon="3.17491">
        <ele>87.4</ele>
        <time>2020-07-01T10:43:00Z</time>
      </trkpt>
      <trkpt lat="48.97193" lon="3.17483">
        <ele>87.2</ele>
        <time>2020-07-01T10:43:01Z</time>
      </trkpt>
      <trkpt lat="48.9719" lon="3.17475">
        <ele>87</ele>
        <time>2020-07-01T10:43:02Z</time>
      </trkpt>
      <trkpt lat="48.97187" lon="3.17467">
        <ele>86.7</ele>
        <time>2020-07-01T10:43:03Z</time>
      </trkpt>
      <trkpt lat="48.97184" lon="3.1746">
        <ele>86.5</ele>
        <time>2020-07-01T10:43:04Z</time>
      </trkpt>
      <trkpt lat="48.97182" lon="3.17454">
        <ele>86.2</ele>
        <time>2020-07-01T10:43:05Z</time>
      </trkpt>
      <trkpt lat="48.9718" lon="3.17448">
        <ele>86.1</ele>
        <time>2020-07-01T10:43:06Z</time>
      </trkpt>
      <trkpt lat="48.97177" lon="3.17442">
        <ele>85.9</ele>
        <time>2020-07-01T10:43:07Z</time>
      </trkpt>
      <trkpt lat="48.97174" lon="3.17435">
        <ele>85.6</ele>
        <time>2020-07-01T10:43:08Z</time>
      </trkpt>
      <trkpt lat="48.97171" lon="3.17427">
        <ele>85.4</ele>
        <time>2020-07-01T10:43:09Z</time>
      </trkpt>
      <trkpt lat="48.97168" lon="3.17418">
        <ele>85.1</ele>
        <time>2020-07-01T10:43:10Z</time>
      </trkpt>
      <trkpt lat="48.97164" lon="3.17408">
        <ele>84.8</ele>
        <time>2020-07-01T10:43:11Z</time>
      </trkpt>
      <trkpt lat="48.97161" lon="3.17399">
        <ele>84.5</ele>
        <time>2020-07-01T10:43:12Z</time>
      </trkpt>
      <trkpt lat="48.97158" lon="3.17391">
        <ele>84.2</ele>
        <time>2020-07-01T10:43:13Z</time>
      </trkpt>
      <trkpt lat="48.97156" lon="3.17383">
        <ele>84</ele>
        <time>2020-07-01T10:43:14Z</time>
      </trkpt>
      <trkpt lat="48.97152" lon="3.17372">
        <ele>83.6</ele>
        <time>2020-07-01T10:43:15Z</time>
      </trkpt>
      <trkpt lat="48.97148" lon="3.17361">
        <ele>83.2</ele>
        <time>2020-07-01T10:43:16Z</time>
      </trkpt>
      <trkpt lat="48.97144" lon="3.17351">
        <ele>82.9</ele>
        <time>2020-07-01T10:43:17Z</time>
      </trkpt>
      <trkpt lat="48.9714" lon="3.17342">
        <ele>82.5</ele>
        <time>2020-07-01T10:43:18Z</time>
      </trkpt>
      <trkpt lat="48.97137" lon="3.17333">
        <ele>82.2</ele>
        <time>2020-07-01T10:43:19Z</time>
      </trkpt>
      <trkpt lat="48.97134" lon="3.17325">
        <ele>81.9</ele>
        <time>2020-07-01T10:43:20Z</time>
      </trkpt>
      <trkpt lat="48.9713" lon="3.17316">
        <ele>81.6</ele>
        <time>2020-07-01T10:43:21Z</time>
      </trkpt>
      <trkpt lat="48.97127" lon="3.17307">
        <ele>81.3</ele>
        <time>2020-07-01T10:43:22Z</time>
      </trkpt>
      <trkpt lat="48.97124" lon="3.17299">
        <ele>81</ele>
        <time>2020-07-01T10:43:23Z</time>
      </trkpt>
      <trkpt lat="48.97121" lon="3.17291">
        <ele>80.7</ele>
        <time>2020-07-01T10:43:24Z</time>
      </trkpt>
      <trkpt lat="48.97117" lon="3.17282">
        <ele>80.4</ele>
        <time>2020-07-01T10:43:25Z</time>
      </trkpt>
      <trkpt lat="48.97114" lon="3.17273">
        <ele>80.1</ele>
        <time>2020-07-01T10:43:26Z</time>
      </trkpt>
      <trkpt lat="48.97111" lon="3.17265">
        <ele>79.8</ele>
        <time>2020-07-01T10:43:27Z</time>
      </trkpt>
      <trkpt lat="48.97108" lon="3.17256">
        <ele>79.5</ele>
        <time>2020-07-01T10:43:28Z</time>
      </trkpt>
      <trkpt lat="48.97105" lon="3.17248">
        <ele>79.2</ele>
        <time>2020-07-01T10:43:29Z</time>
      </trkpt>
      <trkpt lat="48.97101" lon="3.1724">
        <ele>79</ele>
        <time>2020-07-01T10:43:30Z</time>
      </trkpt>
      <trkpt lat="48.97098" lon="3.17232">
        <ele>78.7</ele>
        <time>2020-07-01T10:43:31Z</time>
      </trkpt>
      <trkpt lat="48.97095" lon="3.17223">
        <ele>78.5</ele>
        <time>2020-07-01T10:43:32Z</time>
      </trkpt>
      <trkpt lat="48.97092" lon="3.17214">
        <ele>78.2</ele>
        <time>2020-07-01T10:43:33Z</time>
      </trkpt>
      <trkpt lat="48.97089" lon="3.17206">
        <ele>77.9</ele>
        <time>2020-07-01T10:43:34Z</time>
      </trkpt>
      <trkpt lat="48.97086" lon="3.17197">
        <ele>77.7</ele>
        <time>2020-07-01T10:43:35Z</time>
      </trkpt>
      <trkpt lat="48.97083" lon="3.17188">
        <ele>77.4</ele>
        <time>2020-07-01T10:43:36Z</time>
      </trkpt>
      <trkpt lat="48.97079" lon="3.17179">
        <ele>77.1</ele>
        <time>2020-07-01T10:43:37Z</time>
      </trkpt>
      <trkpt lat="48.97076" lon="3.1717">
        <ele>76.8</ele>
        <time>2020-07-01T10:43:38Z</time>
      </trkpt>
      <trkpt lat="48.97072" lon="3.17161">
        <ele>76.5</ele>
        <time>2020-07-01T10:43:39Z</time>
      </trkpt>
      <trkpt lat="48.97068" lon="3.17152">
        <ele>76.2</ele>
        <time>2020-07-01T10:43:40Z</time>
      </trkpt>
      <trkpt lat="48.97065" lon="3.17142">
        <ele>75.9</ele>
        <time>2020-07-01T10:43:41Z</time>
      </trkpt>
      <trkpt lat="48.97061" lon="3.17133">
        <ele>75.6</ele>
        <time>2020-07-01T10:43:42Z</time>
      </trkpt>
      <trkpt lat="48.97058" lon="3.17124">
        <ele>75.3</ele>
        <time>2020-07-01T10:43:43Z</time>
      </trkpt>
      <trkpt lat="48.97054" lon="3.17114">
        <ele>75</ele>
        <time>2020-07-01T10:43:44Z</time>
      </trkpt>
      <trkpt lat="48.97051" lon="3.17106">
        <ele>74.8</ele>
        <time>2020-07-01T10:43:45Z</time>
      </trkpt>
      <trkpt lat="48.97048" lon="3.17096">
        <ele>74.5</ele>
        <time>2020-07-01T10:43:46Z</time>
      </trkpt>
      <trkpt lat="48.97045" lon="3.17087">
        <ele>74.3</ele>
        <time>2020-07-01T10:43:47Z</time>
      </trkpt>
      <trkpt lat="48.97041" lon="3.17078">
        <ele>74</ele>
        <time>2020-07-01T10:43:48Z</time>
      </trkpt>
      <trkpt lat="48.97038" lon="3.17069">
        <ele>73.8</ele>
        <time>2020-07-01T10:43:49Z</time>
      </trkpt>
      <trkpt lat="48.97035" lon="3.1706">
        <ele>73.6</ele>
        <time>2020-07-01T10:43:50Z</time>
      </trkpt>
      <trkpt lat="48.97032" lon="3.1705">
        <ele>73.4</ele>
        <time>2020-07-01T10:43:51Z</time>
      </trkpt>
      <trkpt lat="48.97028" lon="3.1704">
        <ele>73.1</ele>
        <time>2020-07-01T10:43:52Z</time>
      </trkpt>
      <trkpt lat="48.97024" lon="3.17031">
        <ele>72.9</ele>
        <time>2020-07-01T10:43:53Z</time>
      </trkpt>
      <trkpt lat="48.9702" lon="3.17022">
        <ele>72.7</ele>
        <time>2020-07-01T10:43:54Z</time>
      </trkpt>
      <trkpt lat="48.97016" lon="3.17013">
        <ele>72.4</ele>
        <time>2020-07-01T10:43:55Z</time>
      </trkpt>
      <trkpt lat="48.97011" lon="3.17004">
        <ele>72.2</ele>
        <time>2020-07-01T10:43:56Z</time>
      </trkpt>
      <trkpt lat="48.97007" lon="3.16996">
        <ele>71.9</ele>
        <time>2020-07-01T10:43:57Z</time>
      </trkpt>
      <trkpt lat="48.97002" lon="3.16988">
        <ele>71.7</ele>
        <time>2020-07-01T10:43:58Z</time>
      </trkpt>
      <trkpt lat="48.96998" lon="3.16978">
        <ele>71.4</ele>
        <time>2020-07-01T10:43:59Z</time>
      </trkpt>
      <trkpt lat="48.96994" lon="3.16968">
        <ele>71.2</ele>
        <time>2020-07-01T10:44:00Z</time>
      </trkpt>
      <trkpt lat="48.96989" lon="3.16958">
        <ele>70.9</ele>
        <time>2020-07-01T10:44:01Z</time>
      </trkpt>
      <trkpt lat="48.96985" lon="3.16948">
        <ele>70.6</ele>
        <time>2020-07-01T10:44:02Z</time>
      </trkpt>
      <trkpt lat="48.96981" lon="3.16937">
        <ele>70.2</ele>
        <time>2020-07-01T10:44:03Z</time>
      </trkpt>
      <trkpt lat="48.96977" lon="3.16925">
        <ele>69.9</ele>
        <time>2020-07-01T10:44:04Z</time>
      </trkpt>
      <trkpt lat="48.96972" lon="3.16914">
        <ele>69.5</ele>
        <time>2020-07-01T10:44:05Z</time>
      </trkpt>
      <trkpt lat="48.96967" lon="3.16903">
        <ele>69.2</ele>
        <time>2020-07-01T10:44:06Z</time>
      </trkpt>
      <trkpt lat="48.96961" lon="3.16894">
        <ele>68.8</ele>
        <time>2020-07-01T10:44:07Z</time>
      </trkpt>
      <trkpt lat="48.96956" lon="3.16884">
        <ele>68.5</ele>
        <time>2020-07-01T10:44:08Z</time>
      </trkpt>
      <trkpt lat="48.96951" lon="3.16873">
        <ele>68.2</ele>
        <time>2020-07-01T10:44:09Z</time>
      </trkpt>
      <trkpt lat="48.96946" lon="3.16863">
        <ele>67.8</ele>
        <time>2020-07-01T10:44:10Z</time>
      </trkpt>
      <trkpt lat="48.96941" lon="3.16853">
        <ele>67.5</ele>
        <time>2020-07-01T10:44:11Z</time>
      </trkpt>
      <trkpt lat="48.96937" lon="3.16843">
        <ele>67.2</ele>
        <time>2020-07-01T10:44:12Z</time>
      </trkpt>
      <trkpt lat="48.96932" lon="3.16832">
        <ele>66.9</ele>
        <time>2020-07-01T10:44:13Z</time>
      </trkpt>
      <trkpt lat="48.96926" lon="3.16823">
        <ele>66.6</ele>
        <time>2020-07-01T10:44:14Z</time>
      </trkpt>
      <trkpt lat="48.96922" lon="3.16812">
        <ele>66.4</ele>
        <time>2020-07-01T10:44:15Z</time>
      </trkpt>
      <trkpt lat="48.96917" lon="3.16802">
        <ele>66.2</ele>
        <time>2020-07-01T10:44:16Z</time>
      </trkpt>
      <trkpt lat="48.96912" lon="3.16793">
        <ele>65.9</ele>
        <time>2020-07-01T10:44:17Z</time>
      </trkpt>
      <trkpt lat="48.96907" lon="3.16783">
        <ele>65.7</ele>
        <time>2020-07-01T10:44:18Z</time>
      </trkpt>
      <trkpt lat="48.96903" lon="3.16772">
        <ele>65.4</ele>
        <time>2020-07-01T10:44:19Z</time>
      </trkpt>
      <trkpt lat="48.96898" lon="3.16762">
        <ele>65.1</ele>
        <time>2020-07-01T10:44:20Z</time>
      </trkpt>
      <trkpt lat="48.96893" lon="3.16752">
        <ele>64.9</ele>
        <time>2020-07-01T10:44:21Z</time>
      </trkpt>
      <trkpt lat="48.96888" lon="3.16743">
        <ele>64.6</ele>
        <time>2020-07-01T10:44:22Z</time>
      </trkpt>
      <trkpt lat="48.96883" lon="3.16733">
        <ele>64.4</ele>
        <time>2020-07-01T10:44:23Z</time>
      </trkpt>
      <trkpt lat="48.96879" lon="3.16723">
        <ele>64.2</ele>
        <time>2020-07-01T10:44:24Z</time>
      </trkpt>
      <trkpt lat="48.96874" lon="3.16713">
        <ele>63.9</ele>
        <time>2020-07-01T10:44:25Z</time>
      </trkpt>
      <trkpt lat="48.96869" lon="3.16703">
        <ele>63.6</ele>
        <time>2020-07-01T10:44:26Z</time>
      </trkpt>
      <trkpt lat="48.96864" lon="3.16694">
        <ele>63.4</ele>
        <time>2020-07-01T10:44:27Z</time>
      </trkpt>
      <trkpt lat="48.96859" lon="3.16685">
        <ele>63</ele>
        <time>2020-07-01T10:44:28Z</time>
      </trkpt>
      <trkpt lat="48.96854" lon="3.16675">
        <ele>62.7</ele>
        <time>2020-07-01T10:44:29Z</time>
      </trkpt>
      <trkpt lat="48.96849" lon="3.16665">
        <ele>62.4</ele>
        <time>2020-07-01T10:44:30Z</time>
      </trkpt>
      <trkpt lat="48.96845" lon="3.16655">
        <ele>62.1</ele>
        <time>2020-07-01T10:44:31Z</time>
      </trkpt>
      <trkpt lat="48.9684" lon="3.16646">
        <ele>61.9</ele>
        <time>2020-07-01T10:44:32Z</time>
      </trkpt>
      <trkpt lat="48.96835" lon="3.16637">
        <ele>61.6</ele>
        <time>2020-07-01T10:44:33Z</time>
      </trkpt>
      <trkpt lat="48.9683" lon="3.16629">
        <ele>61.4</ele>
        <time>2020-07-01T10:44:34Z</time>
      </trkpt>
      <trkpt lat="48.96825" lon="3.16621">
        <ele>61.2</ele>
        <time>2020-07-01T10:44:35Z</time>
      </trkpt>
      <trkpt lat="48.96819" lon="3.16613">
        <ele>61</ele>
        <time>2020-07-01T10:44:36Z</time>
      </trkpt>
      <trkpt lat="48.96814" lon="3.16605">
        <ele>60.7</ele>
        <time>2020-07-01T10:44:37Z</time>
      </trkpt>
      <trkpt lat="48.96809" lon="3.16597">
        <ele>60.5</ele>
        <time>2020-07-01T10:44:38Z</time>
      </trkpt>
      <trkpt lat="48.96804" lon="3.16589">
        <ele>60.3</ele>
        <time>2020-07-01T10:44:39Z</time>
      </trkpt>
      <trkpt lat="48.96799" lon="3.1658">
        <ele>60.1</ele>
        <time>2020-07-01T10:44:40Z</time>
      </trkpt>
      <trkpt lat="48.96794" lon="3.16573">
        <ele>59.9</ele>
        <time>2020-07-01T10:44:41Z</time>
      </trkpt>
      <trkpt lat="48.96789" lon="3.16563">
        <ele>59.7</ele>
        <time>2020-07-01T10:44:42Z</time>
      </trkpt>
      <trkpt lat="48.96785" lon="3.16554">
        <ele>59.6</ele>
        <time>2020-07-01T10:44:43Z</time>
      </trkpt>
      <trkpt lat="48.9678" lon="3.16546">
        <ele>59.4</ele>
        <time>2020-07-01T10:44:44Z</time>
      </trkpt>
      <trkpt lat="48.96774" lon="3.1654">
        <ele>59.3</ele>
        <time>2020-07-01T10:44:45Z</time>
      </trkpt>
      <trkpt lat="48.9677" lon="3.16533">
        <ele>59.3</ele>
        <time>2020-07-01T10:44:46Z</time>
      </trkpt>
      <trkpt lat="48.96765" lon="3.16526">
        <ele>59.2</ele>
        <time>2020-07-01T10:44:47Z</time>
      </trkpt>
      <trkpt lat="48.9676" lon="3.16518">
        <ele>59.1</ele>
        <time>2020-07-01T10:44:48Z</time>
      </trkpt>
      <trkpt lat="48.96756" lon="3.16511">
        <ele>59</ele>
        <time>2020-07-01T10:44:49Z</time>
      </trkpt>
      <trkpt lat="48.96751" lon="3.16504">
        <ele>58.9</ele>
        <time>2020-07-01T10:44:50Z</time>
      </trkpt>
      <trkpt lat="48.96747" lon="3.16497">
        <ele>58.8</ele>
        <time>2020-07-01T10:44:51Z</time>
      </trkpt>
      <trkpt lat="48.96742" lon="3.1649">
        <ele>58.8</ele>
        <time>2020-07-01T10:44:52Z</time>
      </trkpt>
      <trkpt lat="48.96738" lon="3.16483">
        <ele>58.7</ele>
        <time>2020-07-01T10:44:53Z</time>
      </trkpt>
      <trkpt lat="48.96734" lon="3.16476">
        <ele>58.7</ele>
        <time>2020-07-01T10:44:54Z</time>
      </trkpt>
      <trkpt lat="48.96729" lon="3.16469">
        <ele>58.6</ele>
        <time>2020-07-01T10:44:55Z</time>
      </trkpt>
      <trkpt lat="48.96724" lon="3.16462">
        <ele>58.5</ele>
        <time>2020-07-01T10:44:56Z</time>
      </trkpt>
      <trkpt lat="48.9672" lon="3.16454">
        <ele>58.4</ele>
        <time>2020-07-01T10:44:57Z</time>
      </trkpt>
      <trkpt lat="48.96716" lon="3.16447">
        <ele>58.4</ele>
        <time>2020-07-01T10:44:58Z</time>
      </trkpt>
      <trkpt lat="48.96711" lon="3.16439">
        <ele>58.4</ele>
        <time>2020-07-01T10:44:59Z</time>
      </trkpt>
      <trkpt lat="48.96707" lon="3.16432">
        <ele>58.3</ele>
        <time>2020-07-01T10:45:00Z</time>
      </trkpt>
      <trkpt lat="48.96703" lon="3.16425">
        <ele>58.3</ele>
        <time>2020-07-01T10:45:01Z</time>
      </trkpt>
      <trkpt lat="48.96699" lon="3.16417">
        <ele>58.3</ele>
        <time>2020-07-01T10:45:02Z</time>
      </trkpt>
      <trkpt lat="48.96695" lon="3.16411">
        <ele>58.2</ele>
        <time>2020-07-01T10:45:03Z</time>
      </trkpt>
      <trkpt lat="48.96691" lon="3.16405">
        <ele>58.2</ele>
        <time>2020-07-01T10:45:04Z</time>
      </trkpt>
      <trkpt lat="48.96687" lon="3.16398">
        <ele>58.1</ele>
        <time>2020-07-01T10:45:05Z</time>
      </trkpt>
      <trkpt lat="48.96684" lon="3.16392">
        <ele>58.1</ele>
        <time>2020-07-01T10:45:06Z</time>
      </trkpt>
      <trkpt lat="48.9668" lon="3.16385">
        <ele>58</ele>
        <time>2020-07-01T10:45:07Z</time>
      </trkpt>
      <trkpt lat="48.96677" lon="3.16379">
        <ele>58</ele>
        <time>2020-07-01T10:45:08Z</time>
      </trkpt>
      <trkpt lat="48.96674" lon="3.16372">
        <ele>57.9</ele>
        <time>2020-07-01T10:45:09Z</time>
      </trkpt>
      <trkpt lat="48.96672" lon="3.16366">
        <ele>57.9</ele>
        <time>2020-07-01T10:45:10Z</time>
      </trkpt>
      <trkpt lat="48.96669" lon="3.1636">
        <ele>57.7</ele>
        <time>2020-07-01T10:45:11Z</time>
      </trkpt>
      <trkpt lat="48.96665" lon="3.16353">
        <ele>57.6</ele>
        <time>2020-07-01T10:45:12Z</time>
      </trkpt>
      <trkpt lat="48.96661" lon="3.16346">
        <ele>57.5</ele>
        <time>2020-07-01T10:45:13Z</time>
      </trkpt>
      <trkpt lat="48.96658" lon="3.16338">
        <ele>57.4</ele>
        <time>2020-07-01T10:45:14Z</time>
      </trkpt>
      <trkpt lat="48.96654" lon="3.16331">
        <ele>57.3</ele>
        <time>2020-07-01T10:45:15Z</time>
      </trkpt>
      <trkpt lat="48.96651" lon="3.16323">
        <ele>57.3</ele>
        <time>2020-07-01T10:45:16Z</time>
      </trkpt>
      <trkpt lat="48.96648" lon="3.16315">
        <ele>57.2</ele>
        <time>2020-07-01T10:45:17Z</time>
      </trkpt>
      <trkpt lat="48.96644" lon="3.16307">
        <ele>57.2</ele>
        <time>2020-07-01T10:45:18Z</time>
      </trkpt>
      <trkpt lat="48.96641" lon="3.163">
        <ele>57.2</ele>
        <time>2020-07-01T10:45:19Z</time>
      </trkpt>
      <trkpt lat="48.96637" lon="3.16293">
        <ele>57.1</ele>
        <time>2020-07-01T10:45:20Z</time>
      </trkpt>
      <trkpt lat="48.96634" lon="3.16286">
        <ele>57.1</ele>
        <time>2020-07-01T10:45:21Z</time>
      </trkpt>
      <trkpt lat="48.96629" lon="3.16278">
        <ele>57</ele>
        <time>2020-07-01T10:45:22Z</time>
      </trkpt>
      <trkpt lat="48.96625" lon="3.16271">
        <ele>57</ele>
        <time>2020-07-01T10:45:23Z</time>
      </trkpt>
      <trkpt lat="48.96621" lon="3.16264">
        <ele>56.9</ele>
        <time>2020-07-01T10:45:24Z</time>
      </trkpt>
      <trkpt lat="48.96617" lon="3.16257">
        <ele>56.9</ele>
        <time>2020-07-01T10:45:25Z</time>
      </trkpt>
      <trkpt lat="48.96613" lon="3.16248">
        <ele>56.9</ele>
        <time>2020-07-01T10:45:26Z</time>
      </trkpt>
      <trkpt lat="48.96609" lon="3.1624">
        <ele>56.9</ele>
        <time>2020-07-01T10:45:27Z</time>
      </trkpt>
      <trkpt lat="48.96605" lon="3.16233">
        <ele>56.8</ele>
        <time>2020-07-01T10:45:28Z</time>
      </trkpt>
      <trkpt lat="48.96601" lon="3.16225">
        <ele>56.8</ele>
        <time>2020-07-01T10:45:29Z</time>
      </trkpt>
      <trkpt lat="48.96597" lon="3.16219">
        <ele>56.8</ele>
        <time>2020-07-01T10:45:30Z</time>
      </trkpt>
      <trkpt lat="48.96593" lon="3.16212">
        <ele>56.8</ele>
        <time>2020-07-01T10:45:31Z</time>
      </trkpt>
      <trkpt lat="48.9659" lon="3.16204">
        <ele>56.8</ele>
        <time>2020-07-01T10:45:32Z</time>
      </trkpt>
      <trkpt lat="48.96587" lon="3.16197">
        <ele>56.8</ele>
        <time>2020-07-01T10:45:33Z</time>
      </trkpt>
      <trkpt lat="48.96583" lon="3.1619">
        <ele>56.9</ele>
        <time>2020-07-01T10:45:34Z</time>
      </trkpt>
      <trkpt lat="48.9658" lon="3.16182">
        <ele>57</ele>
        <time>2020-07-01T10:45:35Z</time>
      </trkpt>
      <trkpt lat="48.96578" lon="3.16174">
        <ele>57.1</ele>
        <time>2020-07-01T10:45:36Z</time>
      </trkpt>
      <trkpt lat="48.96574" lon="3.16166">
        <ele>57.2</ele>
        <time>2020-07-01T10:45:37Z</time>
      </trkpt>
      <trkpt lat="48.96571" lon="3.16159">
        <ele>57.2</ele>
        <time>2020-07-01T10:45:38Z</time>
      </trkpt>
      <trkpt lat="48.96568" lon="3.16152">
        <ele>57.3</ele>
        <time>2020-07-01T10:45:39Z</time>
      </trkpt>
      <trkpt lat="48.96565" lon="3.16146">
        <ele>57.2</ele>
        <time>2020-07-01T10:45:40Z</time>
      </trkpt>
      <trkpt lat="48.96563" lon="3.1614">
        <ele>57.2</ele>
        <time>2020-07-01T10:45:41Z</time>
      </trkpt>
      <trkpt lat="48.9656" lon="3.16134">
        <ele>57.2</ele>
        <time>2020-07-01T10:45:42Z</time>
      </trkpt>
      <trkpt lat="48.96556" lon="3.16129">
        <ele>57.2</ele>
        <time>2020-07-01T10:45:43Z</time>
      </trkpt>
      <trkpt lat="48.96554" lon="3.16121">
        <ele>57.3</ele>
        <time>2020-07-01T10:45:44Z</time>
      </trkpt>
      <trkpt lat="48.96551" lon="3.16116">
        <ele>57.3</ele>
        <time>2020-07-01T10:45:45Z</time>
      </trkpt>
      <trkpt lat="48.96548" lon="3.1611">
        <ele>57.4</ele>
        <time>2020-07-01T10:45:46Z</time>
      </trkpt>
      <trkpt lat="48.96546" lon="3.16104">
        <ele>57.5</ele>
        <time>2020-07-01T10:45:47Z</time>
      </trkpt>
      <trkpt lat="48.96543" lon="3.16098">
        <ele>57.5</ele>
        <time>2020-07-01T10:45:48Z</time>
      </trkpt>
      <trkpt lat="48.9654" lon="3.16092">
        <ele>57.6</ele>
        <time>2020-07-01T10:45:49Z</time>
      </trkpt>
      <trkpt lat="48.96537" lon="3.16086">
        <ele>57.7</ele>
        <time>2020-07-01T10:45:50Z</time>
      </trkpt>
      <trkpt lat="48.96535" lon="3.16079">
        <ele>57.8</ele>
        <time>2020-07-01T10:45:51Z</time>
      </trkpt>
      <trkpt lat="48.96532" lon="3.16072">
        <ele>57.8</ele>
        <time>2020-07-01T10:45:52Z</time>
      </trkpt>
      <trkpt lat="48.9653" lon="3.16064">
        <ele>57.9</ele>
        <time>2020-07-01T10:45:53Z</time>
      </trkpt>
      <trkpt lat="48.96526" lon="3.16058">
        <ele>58</ele>
        <time>2020-07-01T10:45:54Z</time>
      </trkpt>
      <trkpt lat="48.96523" lon="3.16052">
        <ele>58.1</ele>
        <time>2020-07-01T10:45:55Z</time>
      </trkpt>
      <trkpt lat="48.96519" lon="3.16046">
        <ele>58.2</ele>
        <time>2020-07-01T10:45:56Z</time>
      </trkpt>
      <trkpt lat="48.96517" lon="3.1604">
        <ele>58.2</ele>
        <time>2020-07-01T10:45:57Z</time>
      </trkpt>
      <trkpt lat="48.96515" lon="3.16035">
        <ele>58.3</ele>
        <time>2020-07-01T10:45:58Z</time>
      </trkpt>
      <trkpt lat="48.96512" lon="3.16029">
        <ele>58.4</ele>
        <time>2020-07-01T10:45:59Z</time>
      </trkpt>
      <trkpt lat="48.96509" lon="3.16023">
        <ele>58.5</ele>
        <time>2020-07-01T10:46:00Z</time>
      </trkpt>
      <trkpt lat="48.96507" lon="3.16017">
        <ele>58.5</ele>
        <time>2020-07-01T10:46:01Z</time>
      </trkpt>
      <trkpt lat="48.96505" lon="3.16012">
        <ele>58.6</ele>
        <time>2020-07-01T10:46:02Z</time>
      </trkpt>
      <trkpt lat="48.96503" lon="3.16008">
        <ele>58.7</ele>
        <time>2020-07-01T10:46:03Z</time>
      </trkpt>
      <trkpt lat="48.965" lon="3.16002">
        <ele>58.8</ele>
        <time>2020-07-01T10:46:04Z</time>
      </trkpt>
      <trkpt lat="48.96498" lon="3.15996">
        <ele>58.9</ele>
        <time>2020-07-01T10:46:05Z</time>
      </trkpt>
      <trkpt lat="48.96496" lon="3.1599">
        <ele>58.9</ele>
        <time>2020-07-01T10:46:06Z</time>
      </trkpt>
      <trkpt lat="48.96493" lon="3.15985">
        <ele>59</ele>
        <time>2020-07-01T10:46:07Z</time>
      </trkpt>
      <trkpt lat="48.96491" lon="3.15978">
        <ele>59.1</ele>
        <time>2020-07-01T10:46:08Z</time>
      </trkpt>
      <trkpt lat="48.96489" lon="3.15972">
        <ele>59.1</ele>
        <time>2020-07-01T10:46:09Z</time>
      </trkpt>
      <trkpt lat="48.96487" lon="3.15967">
        <ele>59.2</ele>
        <time>2020-07-01T10:46:10Z</time>
      </trkpt>
      <trkpt lat="48.96484" lon="3.15962">
        <ele>59.2</ele>
        <time>2020-07-01T10:46:11Z</time>
      </trkpt>
      <trkpt lat="48.96483" lon="3.15955">
        <ele>59.3</ele>
        <time>2020-07-01T10:46:12Z</time>
      </trkpt>
      <trkpt lat="48.96482" lon="3.15949">
        <ele>59.3</ele>
        <time>2020-07-01T10:46:13Z</time>
      </trkpt>
      <trkpt lat="48.96481" lon="3.15942">
        <ele>59.4</ele>
        <time>2020-07-01T10:46:14Z</time>
      </trkpt>
      <trkpt lat="48.96479" lon="3.15932">
        <ele>59.4</ele>
        <time>2020-07-01T10:46:15Z</time>
      </trkpt>
      <trkpt lat="48.96476" lon="3.15921">
        <ele>59.5</ele>
        <time>2020-07-01T10:46:16Z</time>
      </trkpt>
      <trkpt lat="48.96472" lon="3.15906">
        <ele>59.6</ele>
        <time>2020-07-01T10:46:17Z</time>
      </trkpt>
      <trkpt lat="48.96469" lon="3.15894">
        <ele>59.6</ele>
        <time>2020-07-01T10:46:18Z</time>
      </trkpt>
      <trkpt lat="48.96465" lon="3.15882">
        <ele>59.7</ele>
        <time>2020-07-01T10:46:19Z</time>
      </trkpt>
      <trkpt lat="48.96462" lon="3.15873">
        <ele>59.7</ele>
        <time>2020-07-01T10:46:20Z</time>
      </trkpt>
      <trkpt lat="48.96458" lon="3.15862">
        <ele>59.7</ele>
        <time>2020-07-01T10:46:21Z</time>
      </trkpt>
      <trkpt lat="48.96455" lon="3.1585">
        <ele>59.7</ele>
        <time>2020-07-01T10:46:22Z</time>
      </trkpt>
      <trkpt lat="48.96451" lon="3.15841">
        <ele>59.8</ele>
        <time>2020-07-01T10:46:23Z</time>
      </trkpt>
      <trkpt lat="48.96449" lon="3.1583">
        <ele>59.8</ele>
        <time>2020-07-01T10:46:24Z</time>
      </trkpt>
      <trkpt lat="48.96447" lon="3.15824">
        <ele>59.8</ele>
        <time>2020-07-01T10:46:25Z</time>
      </trkpt>
      <trkpt lat="48.96447" lon="3.15816">
        <ele>59.8</ele>
        <time>2020-07-01T10:46:26Z</time>
      </trkpt>
      <trkpt lat="48.96444" lon="3.15809">
        <ele>59.7</ele>
        <time>2020-07-01T10:46:27Z</time>
      </trkpt>
      <trkpt lat="48.96442" lon="3.15802">
        <ele>59.7</ele>
        <time>2020-07-01T10:46:28Z</time>
      </trkpt>
      <trkpt lat="48.96439" lon="3.15793">
        <ele>59.6</ele>
        <time>2020-07-01T10:46:29Z</time>
      </trkpt>
      <trkpt lat="48.96436" lon="3.15784">
        <ele>59.6</ele>
        <time>2020-07-01T10:46:30Z</time>
      </trkpt>
      <trkpt lat="48.96434" lon="3.15776">
        <ele>59.5</ele>
        <time>2020-07-01T10:46:31Z</time>
      </trkpt>
      <trkpt lat="48.96431" lon="3.15767">
        <ele>59.5</ele>
        <time>2020-07-01T10:46:32Z</time>
      </trkpt>
      <trkpt lat="48.96429" lon="3.15757">
        <ele>59.5</ele>
        <time>2020-07-01T10:46:33Z</time>
      </trkpt>
      <trkpt lat="48.96427" lon="3.1575">
        <ele>59.4</ele>
        <time>2020-07-01T10:46:34Z</time>
      </trkpt>
      <trkpt lat="48.96424" lon="3.15743">
        <ele>59.4</ele>
        <time>2020-07-01T10:46:35Z</time>
      </trkpt>
      <trkpt lat="48.96422" lon="3.15735">
        <ele>59.4</ele>
        <time>2020-07-01T10:46:36Z</time>
      </trkpt>
      <trkpt lat="48.96419" lon="3.15727">
        <ele>59.4</ele>
        <time>2020-07-01T10:46:37Z</time>
      </trkpt>
      <trkpt lat="48.96417" lon="3.15716">
        <ele>59.3</ele>
        <time>2020-07-01T10:46:38Z</time>
      </trkpt>
      <trkpt lat="48.96414" lon="3.15707">
        <ele>59.2</ele>
        <time>2020-07-01T10:46:39Z</time>
      </trkpt>
      <trkpt lat="48.96411" lon="3.15696">
        <ele>59.1</ele>
        <time>2020-07-01T10:46:40Z</time>
      </trkpt>
      <trkpt lat="48.96407" lon="3.15687">
        <ele>59</ele>
        <time>2020-07-01T10:46:41Z</time>
      </trkpt>
      <trkpt lat="48.96404" lon="3.15676">
        <ele>58.8</ele>
        <time>2020-07-01T10:46:42Z</time>
      </trkpt>
      <trkpt lat="48.964" lon="3.15667">
        <ele>58.7</ele>
        <time>2020-07-01T10:46:43Z</time>
      </trkpt>
      <trkpt lat="48.96396" lon="3.15656">
        <ele>58.5</ele>
        <time>2020-07-01T10:46:44Z</time>
      </trkpt>
      <trkpt lat="48.96393" lon="3.15646">
        <ele>58.3</ele>
        <time>2020-07-01T10:46:45Z</time>
      </trkpt>
      <trkpt lat="48.9639" lon="3.15634">
        <ele>58.1</ele>
        <time>2020-07-01T10:46:46Z</time>
      </trkpt>
      <trkpt lat="48.96386" lon="3.15625">
        <ele>58</ele>
        <time>2020-07-01T10:46:47Z</time>
      </trkpt>
      <trkpt lat="48.96384" lon="3.15613">
        <ele>57.9</ele>
        <time>2020-07-01T10:46:48Z</time>
      </trkpt>
      <trkpt lat="48.96381" lon="3.15602">
        <ele>57.7</ele>
        <time>2020-07-01T10:46:49Z</time>
      </trkpt>
      <trkpt lat="48.9638" lon="3.15592">
        <ele>57.6</ele>
        <time>2020-07-01T10:46:50Z</time>
      </trkpt>
      <trkpt lat="48.96378" lon="3.15582">
        <ele>57.4</ele>
        <time>2020-07-01T10:46:51Z</time>
      </trkpt>
      <trkpt lat="48.96376" lon="3.15571">
        <ele>57.3</ele>
        <time>2020-07-01T10:46:52Z</time>
      </trkpt>
      <trkpt lat="48.96373" lon="3.15559">
        <ele>57.2</ele>
        <time>2020-07-01T10:46:53Z</time>
      </trkpt>
      <trkpt lat="48.96371" lon="3.15549">
        <ele>57.1</ele>
        <time>2020-07-01T10:46:54Z</time>
      </trkpt>
      <trkpt lat="48.9637" lon="3.1554">
        <ele>57</ele>
        <time>2020-07-01T10:46:55Z</time>
      </trkpt>
      <trkpt lat="48.96367" lon="3.15529">
        <ele>56.9</ele>
        <time>2020-07-01T10:46:56Z</time>
      </trkpt>
      <trkpt lat="48.96365" lon="3.15521">
        <ele>56.8</ele>
        <time>2020-07-01T10:46:57Z</time>
      </trkpt>
      <trkpt lat="48.96363" lon="3.15511">
        <ele>56.8</ele>
        <time>2020-07-01T10:46:58Z</time>
      </trkpt>
      <trkpt lat="48.9636" lon="3.15501">
        <ele>56.7</ele>
        <time>2020-07-01T10:46:59Z</time>
      </trkpt>
      <trkpt lat="48.96357" lon="3.1549">
        <ele>56.6</ele>
        <time>2020-07-01T10:47:00Z</time>
      </trkpt>
      <trkpt lat="48.96355" lon="3.15479">
        <ele>56.5</ele>
        <time>2020-07-01T10:47:01Z</time>
      </trkpt>
      <trkpt lat="48.96353" lon="3.15473">
        <ele>56.4</ele>
        <time>2020-07-01T10:47:02Z</time>
      </trkpt>
      <trkpt lat="48.96351" lon="3.15465">
        <ele>56.3</ele>
        <time>2020-07-01T10:47:03Z</time>
      </trkpt>
      <trkpt lat="48.96349" lon="3.15454">
        <ele>56.1</ele>
        <time>2020-07-01T10:47:04Z</time>
      </trkpt>
      <trkpt lat="48.96347" lon="3.15442">
        <ele>56</ele>
        <time>2020-07-01T10:47:05Z</time>
      </trkpt>
      <trkpt lat="48.96346" lon="3.15433">
        <ele>56</ele>
        <time>2020-07-01T10:47:06Z</time>
      </trkpt>
      <trkpt lat="48.96344" lon="3.15424">
        <ele>55.9</ele>
        <time>2020-07-01T10:47:07Z</time>
      </trkpt>
      <trkpt lat="48.96342" lon="3.15415">
        <ele>55.8</ele>
        <time>2020-07-01T10:47:08Z</time>
      </trkpt>
      <trkpt lat="48.96339" lon="3.15403">
        <ele>55.7</ele>
        <time>2020-07-01T10:47:09Z</time>
      </trkpt>
      <trkpt lat="48.96337" lon="3.15392">
        <ele>55.6</ele>
        <time>2020-07-01T10:47:10Z</time>
      </trkpt>
      <trkpt lat="48.96335" lon="3.1538">
        <ele>55.5</ele>
        <time>2020-07-01T10:47:11Z</time>
      </trkpt>
      <trkpt lat="48.96334" lon="3.15369">
        <ele>55.3</ele>
        <time>2020-07-01T10:47:12Z</time>
      </trkpt>
      <trkpt lat="48.96333" lon="3.15359">
        <ele>55.2</ele>
        <time>2020-07-01T10:47:13Z</time>
      </trkpt>
      <trkpt lat="48.96331" lon="3.15349">
        <ele>55.2</ele>
        <time>2020-07-01T10:47:14Z</time>
      </trkpt>
      <trkpt lat="48.9633" lon="3.15339">
        <ele>55.1</ele>
        <time>2020-07-01T10:47:15Z</time>
      </trkpt>
      <trkpt lat="48.96328" lon="3.15328">
        <ele>55.1</ele>
        <time>2020-07-01T10:47:16Z</time>
      </trkpt>
      <trkpt lat="48.96327" lon="3.15318">
        <ele>55</ele>
        <time>2020-07-01T10:47:17Z</time>
      </trkpt>
      <trkpt lat="48.96325" lon="3.15308">
        <ele>55</ele>
        <time>2020-07-01T10:47:18Z</time>
      </trkpt>
      <trkpt lat="48.96324" lon="3.15298">
        <ele>54.9</ele>
        <time>2020-07-01T10:47:19Z</time>
      </trkpt>
      <trkpt lat="48.96322" lon="3.15288">
        <ele>54.9</ele>
        <time>2020-07-01T10:47:20Z</time>
      </trkpt>
      <trkpt lat="48.96321" lon="3.15277">
        <ele>54.9</ele>
        <time>2020-07-01T10:47:21Z</time>
      </trkpt>
      <trkpt lat="48.96319" lon="3.15267">
        <ele>54.9</ele>
        <time>2020-07-01T10:47:22Z</time>
      </trkpt>
      <trkpt lat="48.96318" lon="3.15258">
        <ele>54.9</ele>
        <time>2020-07-01T10:47:23Z</time>
      </trkpt>
      <trkpt lat="48.96316" lon="3.15249">
        <ele>54.9</ele>
        <time>2020-07-01T10:47:24Z</time>
      </trkpt>
      <trkpt lat="48.96314" lon="3.15239">
        <ele>54.9</ele>
        <time>2020-07-01T10:47:25Z</time>
      </trkpt>
      <trkpt lat="48.96312" lon="3.1523">
        <ele>54.9</ele>
        <time>2020-07-01T10:47:26Z</time>
      </trkpt>
      <trkpt lat="48.96311" lon="3.1522">
        <ele>54.9</ele>
        <time>2020-07-01T10:47:27Z</time>
      </trkpt>
      <trkpt lat="48.9631" lon="3.1521">
        <ele>55</ele>
        <time>2020-07-01T10:47:28Z</time>
      </trkpt>
      <trkpt lat="48.9631" lon="3.15201">
        <ele>55</ele>
        <time>2020-07-01T10:47:29Z</time>
      </trkpt>
      <trkpt lat="48.96309" lon="3.15192">
        <ele>55</ele>
        <time>2020-07-01T10:47:30Z</time>
      </trkpt>
      <trkpt lat="48.96308" lon="3.15184">
        <ele>55</ele>
        <time>2020-07-01T10:47:31Z</time>
      </trkpt>
      <trkpt lat="48.96307" lon="3.15175">
        <ele>55</ele>
        <time>2020-07-01T10:47:32Z</time>
      </trkpt>
      <trkpt lat="48.96305" lon="3.15167">
        <ele>55</ele>
        <time>2020-07-01T10:47:33Z</time>
      </trkpt>
      <trkpt lat="48.96304" lon="3.15158">
        <ele>55.1</ele>
        <time>2020-07-01T10:47:34Z</time>
      </trkpt>
      <trkpt lat="48.96302" lon="3.15149">
        <ele>55.1</ele>
        <time>2020-07-01T10:47:35Z</time>
      </trkpt>
      <trkpt lat="48.96301" lon="3.15139">
        <ele>55.2</ele>
        <time>2020-07-01T10:47:36Z</time>
      </trkpt>
      <trkpt lat="48.96299" lon="3.15131">
        <ele>55.2</ele>
        <time>2020-07-01T10:47:37Z</time>
      </trkpt>
      <trkpt lat="48.96299" lon="3.15122">
        <ele>55.3</ele>
        <time>2020-07-01T10:47:38Z</time>
      </trkpt>
      <trkpt lat="48.96297" lon="3.15113">
        <ele>55.3</ele>
        <time>2020-07-01T10:47:39Z</time>
      </trkpt>
      <trkpt lat="48.96296" lon="3.15104">
        <ele>55.4</ele>
        <time>2020-07-01T10:47:40Z</time>
      </trkpt>
      <trkpt lat="48.96295" lon="3.15096">
        <ele>55.5</ele>
        <time>2020-07-01T10:47:41Z</time>
      </trkpt>
      <trkpt lat="48.96294" lon="3.15088">
        <ele>55.6</ele>
        <time>2020-07-01T10:47:42Z</time>
      </trkpt>
      <trkpt lat="48.96293" lon="3.1508">
        <ele>55.7</ele>
        <time>2020-07-01T10:47:43Z</time>
      </trkpt>
      <trkpt lat="48.96291" lon="3.15071">
        <ele>55.7</ele>
        <time>2020-07-01T10:47:44Z</time>
      </trkpt>
      <trkpt lat="48.96289" lon="3.15064">
        <ele>55.8</ele>
        <time>2020-07-01T10:47:45Z</time>
      </trkpt>
      <trkpt lat="48.96288" lon="3.15056">
        <ele>55.8</ele>
        <time>2020-07-01T10:47:46Z</time>
      </trkpt>
      <trkpt lat="48.96287" lon="3.15048">
        <ele>55.9</ele>
        <time>2020-07-01T10:47:47Z</time>
      </trkpt>
      <trkpt lat="48.96285" lon="3.1504">
        <ele>55.9</ele>
        <time>2020-07-01T10:47:48Z</time>
      </trkpt>
      <trkpt lat="48.96282" lon="3.15032">
        <ele>55.9</ele>
        <time>2020-07-01T10:47:49Z</time>
      </trkpt>
      <trkpt lat="48.96279" lon="3.15024">
        <ele>56</ele>
        <time>2020-07-01T10:47:50Z</time>
      </trkpt>
      <trkpt lat="48.96277" lon="3.15016">
        <ele>56</ele>
        <time>2020-07-01T10:47:51Z</time>
      </trkpt>
      <trkpt lat="48.96274" lon="3.15009">
        <ele>56</ele>
        <time>2020-07-01T10:47:52Z</time>
      </trkpt>
      <trkpt lat="48.96273" lon="3.15001">
        <ele>56.1</ele>
        <time>2020-07-01T10:47:53Z</time>
      </trkpt>
      <trkpt lat="48.96271" lon="3.14993">
        <ele>56.1</ele>
        <time>2020-07-01T10:47:54Z</time>
      </trkpt>
      <trkpt lat="48.96269" lon="3.14986">
        <ele>56.1</ele>
        <time>2020-07-01T10:47:55Z</time>
      </trkpt>
      <trkpt lat="48.96267" lon="3.14978">
        <ele>56.2</ele>
        <time>2020-07-01T10:47:56Z</time>
      </trkpt>
      <trkpt lat="48.96265" lon="3.14969">
        <ele>56.2</ele>
        <time>2020-07-01T10:47:57Z</time>
      </trkpt>
      <trkpt lat="48.96264" lon="3.14961">
        <ele>56.3</ele>
        <time>2020-07-01T10:47:58Z</time>
      </trkpt>
      <trkpt lat="48.96262" lon="3.14953">
        <ele>56.3</ele>
        <time>2020-07-01T10:47:59Z</time>
      </trkpt>
      <trkpt lat="48.9626" lon="3.14945">
        <ele>56.3</ele>
        <time>2020-07-01T10:48:00Z</time>
      </trkpt>
      <trkpt lat="48.96257" lon="3.14937">
        <ele>56.3</ele>
        <time>2020-07-01T10:48:01Z</time>
      </trkpt>
      <trkpt lat="48.96255" lon="3.1493">
        <ele>56.4</ele>
        <time>2020-07-01T10:48:02Z</time>
      </trkpt>
      <trkpt lat="48.96251" lon="3.14924">
        <ele>56.4</ele>
        <time>2020-07-01T10:48:03Z</time>
      </trkpt>
      <trkpt lat="48.96248" lon="3.14917">
        <ele>56.3</ele>
        <time>2020-07-01T10:48:04Z</time>
      </trkpt>
      <trkpt lat="48.96245" lon="3.1491">
        <ele>56.3</ele>
        <time>2020-07-01T10:48:05Z</time>
      </trkpt>
      <trkpt lat="48.96242" lon="3.14903">
        <ele>56.3</ele>
        <time>2020-07-01T10:48:06Z</time>
      </trkpt>
      <trkpt lat="48.96238" lon="3.14896">
        <ele>56.3</ele>
        <time>2020-07-01T10:48:07Z</time>
      </trkpt>
      <trkpt lat="48.96235" lon="3.14889">
        <ele>56.3</ele>
        <time>2020-07-01T10:48:08Z</time>
      </trkpt>
      <trkpt lat="48.96231" lon="3.14882">
        <ele>56.4</ele>
        <time>2020-07-01T10:48:09Z</time>
      </trkpt>
      <trkpt lat="48.96228" lon="3.14874">
        <ele>56.4</ele>
        <time>2020-07-01T10:48:10Z</time>
      </trkpt>
      <trkpt lat="48.96225" lon="3.14867">
        <ele>56.4</ele>
        <time>2020-07-01T10:48:11Z</time>
      </trkpt>
      <trkpt lat="48.96222" lon="3.1486">
        <ele>56.5</ele>
        <time>2020-07-01T10:48:12Z</time>
      </trkpt>
      <trkpt lat="48.96219" lon="3.14853">
        <ele>56.5</ele>
        <time>2020-07-01T10:48:13Z</time>
      </trkpt>
      <trkpt lat="48.96216" lon="3.14846">
        <ele>56.5</ele>
        <time>2020-07-01T10:48:14Z</time>
      </trkpt>
      <trkpt lat="48.96214" lon="3.14838">
        <ele>56.5</ele>
        <time>2020-07-01T10:48:15Z</time>
      </trkpt>
      <trkpt lat="48.96211" lon="3.14831">
        <ele>56.5</ele>
        <time>2020-07-01T10:48:16Z</time>
      </trkpt>
      <trkpt lat="48.96207" lon="3.14824">
        <ele>56.5</ele>
        <time>2020-07-01T10:48:17Z</time>
      </trkpt>
      <trkpt lat="48.96204" lon="3.14817">
        <ele>56.5</ele>
        <time>2020-07-01T10:48:18Z</time>
      </trkpt>
      <trkpt lat="48.96201" lon="3.14809">
        <ele>56.6</ele>
        <time>2020-07-01T10:48:19Z</time>
      </trkpt>
      <trkpt lat="48.96198" lon="3.14801">
        <ele>56.6</ele>
        <time>2020-07-01T10:48:20Z</time>
      </trkpt>
      <trkpt lat="48.96194" lon="3.14794">
        <ele>56.6</ele>
        <time>2020-07-01T10:48:21Z</time>
      </trkpt>
      <trkpt lat="48.96189" lon="3.14788">
        <ele>56.6</ele>
        <time>2020-07-01T10:48:22Z</time>
      </trkpt>
      <trkpt lat="48.96185" lon="3.14781">
        <ele>56.6</ele>
        <time>2020-07-01T10:48:23Z</time>
      </trkpt>
      <trkpt lat="48.96182" lon="3.14773">
        <ele>56.6</ele>
        <time>2020-07-01T10:48:24Z</time>
      </trkpt>
      <trkpt lat="48.96179" lon="3.14766">
        <ele>56.6</ele>
        <time>2020-07-01T10:48:25Z</time>
      </trkpt>
      <trkpt lat="48.96175" lon="3.14759">
        <ele>56.6</ele>
        <time>2020-07-01T10:48:26Z</time>
      </trkpt>
      <trkpt lat="48.96172" lon="3.14751">
        <ele>56.6</ele>
        <time>2020-07-01T10:48:27Z</time>
      </trkpt>
      <trkpt lat="48.96169" lon="3.14744">
        <ele>56.7</ele>
        <time>2020-07-01T10:48:28Z</time>
      </trkpt>
      <trkpt lat="48.96165" lon="3.14737">
        <ele>56.6</ele>
        <time>2020-07-01T10:48:29Z</time>
      </trkpt>
      <trkpt lat="48.96161" lon="3.1473">
        <ele>56.5</ele>
        <time>2020-07-01T10:48:30Z</time>
      </trkpt>
      <trkpt lat="48.96157" lon="3.14722">
        <ele>56.4</ele>
        <time>2020-07-01T10:48:31Z</time>
      </trkpt>
      <trkpt lat="48.96153" lon="3.14714">
        <ele>56.3</ele>
        <time>2020-07-01T10:48:32Z</time>
      </trkpt>
      <trkpt lat="48.96149" lon="3.14707">
        <ele>56.3</ele>
        <time>2020-07-01T10:48:33Z</time>
      </trkpt>
      <trkpt lat="48.96145" lon="3.14699">
        <ele>56.2</ele>
        <time>2020-07-01T10:48:34Z</time>
      </trkpt>
      <trkpt lat="48.96141" lon="3.14691">
        <ele>56.1</ele>
        <time>2020-07-01T10:48:35Z</time>
      </trkpt>
      <trkpt lat="48.96138" lon="3.14683">
        <ele>56</ele>
        <time>2020-07-01T10:48:36Z</time>
      </trkpt>
      <trkpt lat="48.96134" lon="3.14675">
        <ele>56</ele>
        <time>2020-07-01T10:48:37Z</time>
      </trkpt>
      <trkpt lat="48.9613" lon="3.14668">
        <ele>55.9</ele>
        <time>2020-07-01T10:48:38Z</time>
      </trkpt>
      <trkpt lat="48.96126" lon="3.1466">
        <ele>55.9</ele>
        <time>2020-07-01T10:48:39Z</time>
      </trkpt>
      <trkpt lat="48.96122" lon="3.14652">
        <ele>55.8</ele>
        <time>2020-07-01T10:48:40Z</time>
      </trkpt>
      <trkpt lat="48.96118" lon="3.14643">
        <ele>55.8</ele>
        <time>2020-07-01T10:48:41Z</time>
      </trkpt>
      <trkpt lat="48.96115" lon="3.14635">
        <ele>55.8</ele>
        <time>2020-07-01T10:48:42Z</time>
      </trkpt>
      <trkpt lat="48.96111" lon="3.14627">
        <ele>55.7</ele>
        <time>2020-07-01T10:48:43Z</time>
      </trkpt>
      <trkpt lat="48.96107" lon="3.14618">
        <ele>55.7</ele>
        <time>2020-07-01T10:48:44Z</time>
      </trkpt>
      <trkpt lat="48.96102" lon="3.14612">
        <ele>55.7</ele>
        <time>2020-07-01T10:48:45Z</time>
      </trkpt>
      <trkpt lat="48.96097" lon="3.14605">
        <ele>55.7</ele>
        <time>2020-07-01T10:48:46Z</time>
      </trkpt>
      <trkpt lat="48.96093" lon="3.14598">
        <ele>55.8</ele>
        <time>2020-07-01T10:48:47Z</time>
      </trkpt>
      <trkpt lat="48.96088" lon="3.14591">
        <ele>55.8</ele>
        <time>2020-07-01T10:48:48Z</time>
      </trkpt>
      <trkpt lat="48.96082" lon="3.14584">
        <ele>55.8</ele>
        <time>2020-07-01T10:48:49Z</time>
      </trkpt>
      <trkpt lat="48.96078" lon="3.14576">
        <ele>55.8</ele>
        <time>2020-07-01T10:48:50Z</time>
      </trkpt>
      <trkpt lat="48.96073" lon="3.14569">
        <ele>55.7</ele>
        <time>2020-07-01T10:48:51Z</time>
      </trkpt>
      <trkpt lat="48.96068" lon="3.14562">
        <ele>55.7</ele>
        <time>2020-07-01T10:48:52Z</time>
      </trkpt>
      <trkpt lat="48.96064" lon="3.14555">
        <ele>55.7</ele>
        <time>2020-07-01T10:48:53Z</time>
      </trkpt>
      <trkpt lat="48.9606" lon="3.14547">
        <ele>55.7</ele>
        <time>2020-07-01T10:48:54Z</time>
      </trkpt>
      <trkpt lat="48.96055" lon="3.14541">
        <ele>55.6</ele>
        <time>2020-07-01T10:48:55Z</time>
      </trkpt>
      <trkpt lat="48.96051" lon="3.14535">
        <ele>55.6</ele>
        <time>2020-07-01T10:48:56Z</time>
      </trkpt>
      <trkpt lat="48.96047" lon="3.14527">
        <ele>55.6</ele>
        <time>2020-07-01T10:48:57Z</time>
      </trkpt>
      <trkpt lat="48.96043" lon="3.1452">
        <ele>55.5</ele>
        <time>2020-07-01T10:48:58Z</time>
      </trkpt>
      <trkpt lat="48.96039" lon="3.14515">
        <ele>55.5</ele>
        <time>2020-07-01T10:48:59Z</time>
      </trkpt>
      <trkpt lat="48.96036" lon="3.14508">
        <ele>55.5</ele>
        <time>2020-07-01T10:49:00Z</time>
      </trkpt>
      <trkpt lat="48.96032" lon="3.14502">
        <ele>55.5</ele>
        <time>2020-07-01T10:49:01Z</time>
      </trkpt>
      <trkpt lat="48.96029" lon="3.14497">
        <ele>55.5</ele>
        <time>2020-07-01T10:49:02Z</time>
      </trkpt>
      <trkpt lat="48.96026" lon="3.14491">
        <ele>55.4</ele>
        <time>2020-07-01T10:49:03Z</time>
      </trkpt>
      <trkpt lat="48.96022" lon="3.14486">
        <ele>55.4</ele>
        <time>2020-07-01T10:49:04Z</time>
      </trkpt>
      <trkpt lat="48.96018" lon="3.1448">
        <ele>55.3</ele>
        <time>2020-07-01T10:49:05Z</time>
      </trkpt>
      <trkpt lat="48.96015" lon="3.14476">
        <ele>55.3</ele>
        <time>2020-07-01T10:49:06Z</time>
      </trkpt>
      <trkpt lat="48.96012" lon="3.14471">
        <ele>55.2</ele>
        <time>2020-07-01T10:49:07Z</time>
      </trkpt>
      <trkpt lat="48.96008" lon="3.14466">
        <ele>55.2</ele>
        <time>2020-07-01T10:49:08Z</time>
      </trkpt>
      <trkpt lat="48.96004" lon="3.14461">
        <ele>55.1</ele>
        <time>2020-07-01T10:49:09Z</time>
      </trkpt>
      <trkpt lat="48.96" lon="3.14457">
        <ele>55.1</ele>
        <time>2020-07-01T10:49:10Z</time>
      </trkpt>
      <trkpt lat="48.95996" lon="3.14452">
        <ele>55.1</ele>
        <time>2020-07-01T10:49:11Z</time>
      </trkpt>
      <trkpt lat="48.95991" lon="3.14448">
        <ele>55.1</ele>
        <time>2020-07-01T10:49:12Z</time>
      </trkpt>
      <trkpt lat="48.95986" lon="3.14445">
        <ele>55</ele>
        <time>2020-07-01T10:49:13Z</time>
      </trkpt>
      <trkpt lat="48.95981" lon="3.1444">
        <ele>55</ele>
        <time>2020-07-01T10:49:14Z</time>
      </trkpt>
      <trkpt lat="48.95977" lon="3.14436">
        <ele>54.9</ele>
        <time>2020-07-01T10:49:15Z</time>
      </trkpt>
      <trkpt lat="48.95972" lon="3.14432">
        <ele>54.9</ele>
        <time>2020-07-01T10:49:16Z</time>
      </trkpt>
      <trkpt lat="48.95967" lon="3.14427">
        <ele>54.9</ele>
        <time>2020-07-01T10:49:17Z</time>
      </trkpt>
      <trkpt lat="48.95962" lon="3.14421">
        <ele>54.9</ele>
        <time>2020-07-01T10:49:18Z</time>
      </trkpt>
      <trkpt lat="48.95957" lon="3.14418">
        <ele>54.9</ele>
        <time>2020-07-01T10:49:19Z</time>
      </trkpt>
      <trkpt lat="48.95951" lon="3.14414">
        <ele>54.8</ele>
        <time>2020-07-01T10:49:20Z</time>
      </trkpt>
      <trkpt lat="48.95946" lon="3.14409">
        <ele>54.8</ele>
        <time>2020-07-01T10:49:21Z</time>
      </trkpt>
      <trkpt lat="48.9594" lon="3.14408">
        <ele>54.8</ele>
        <time>2020-07-01T10:49:22Z</time>
      </trkpt>
      <trkpt lat="48.95934" lon="3.14403">
        <ele>54.8</ele>
        <time>2020-07-01T10:49:23Z</time>
      </trkpt>
      <trkpt lat="48.95929" lon="3.14398">
        <ele>54.8</ele>
        <time>2020-07-01T10:49:24Z</time>
      </trkpt>
      <trkpt lat="48.95924" lon="3.14393">
        <ele>54.8</ele>
        <time>2020-07-01T10:49:25Z</time>
      </trkpt>
      <trkpt lat="48.95919" lon="3.14389">
        <ele>54.7</ele>
        <time>2020-07-01T10:49:26Z</time>
      </trkpt>
      <trkpt lat="48.95914" lon="3.14384">
        <ele>54.7</ele>
        <time>2020-07-01T10:49:27Z</time>
      </trkpt>
      <trkpt lat="48.95909" lon="3.1438">
        <ele>54.7</ele>
        <time>2020-07-01T10:49:28Z</time>
      </trkpt>
      <trkpt lat="48.95903" lon="3.14376">
        <ele>54.7</ele>
        <time>2020-07-01T10:49:29Z</time>
      </trkpt>
      <trkpt lat="48.95897" lon="3.14371">
        <ele>54.7</ele>
        <time>2020-07-01T10:49:30Z</time>
      </trkpt>
      <trkpt lat="48.95893" lon="3.14365">
        <ele>54.7</ele>
        <time>2020-07-01T10:49:31Z</time>
      </trkpt>
      <trkpt lat="48.95888" lon="3.14358">
        <ele>54.7</ele>
        <time>2020-07-01T10:49:32Z</time>
      </trkpt>
      <trkpt lat="48.95883" lon="3.14353">
        <ele>54.7</ele>
        <time>2020-07-01T10:49:33Z</time>
      </trkpt>
      <trkpt lat="48.95878" lon="3.14348">
        <ele>54.6</ele>
        <time>2020-07-01T10:49:34Z</time>
      </trkpt>
      <trkpt lat="48.95873" lon="3.14343">
        <ele>54.6</ele>
        <time>2020-07-01T10:49:35Z</time>
      </trkpt>
      <trkpt lat="48.95868" lon="3.14338">
        <ele>54.5</ele>
        <time>2020-07-01T10:49:36Z</time>
      </trkpt>
      <trkpt lat="48.95863" lon="3.14333">
        <ele>54.5</ele>
        <time>2020-07-01T10:49:37Z</time>
      </trkpt>
      <trkpt lat="48.95858" lon="3.14327">
        <ele>54.4</ele>
        <time>2020-07-01T10:49:38Z</time>
      </trkpt>
      <trkpt lat="48.95853" lon="3.14323">
        <ele>54.4</ele>
        <time>2020-07-01T10:49:39Z</time>
      </trkpt>
      <trkpt lat="48.95848" lon="3.14318">
        <ele>54.3</ele>
        <time>2020-07-01T10:49:40Z</time>
      </trkpt>
      <trkpt lat="48.95843" lon="3.14312">
        <ele>54.3</ele>
        <time>2020-07-01T10:49:41Z</time>
      </trkpt>
      <trkpt lat="48.95837" lon="3.14308">
        <ele>54.3</ele>
        <time>2020-07-01T10:49:42Z</time>
      </trkpt>
      <trkpt lat="48.95832" lon="3.14304">
        <ele>54.3</ele>
        <time>2020-07-01T10:49:43Z</time>
      </trkpt>
      <trkpt lat="48.95828" lon="3.14299">
        <ele>54.2</ele>
        <time>2020-07-01T10:49:44Z</time>
      </trkpt>
      <trkpt lat="48.95823" lon="3.14293">
        <ele>54.2</ele>
        <time>2020-07-01T10:49:45Z</time>
      </trkpt>
      <trkpt lat="48.95817" lon="3.1429">
        <ele>54.2</ele>
        <time>2020-07-01T10:49:46Z</time>
      </trkpt>
      <trkpt lat="48.95811" lon="3.14287">
        <ele>54.2</ele>
        <time>2020-07-01T10:49:47Z</time>
      </trkpt>
      <trkpt lat="48.95805" lon="3.14282">
        <ele>54.2</ele>
        <time>2020-07-01T10:49:48Z</time>
      </trkpt>
      <trkpt lat="48.95799" lon="3.14278">
        <ele>54.2</ele>
        <time>2020-07-01T10:49:49Z</time>
      </trkpt>
      <trkpt lat="48.95794" lon="3.14275">
        <ele>54.1</ele>
        <time>2020-07-01T10:49:50Z</time>
      </trkpt>
      <trkpt lat="48.95788" lon="3.14271">
        <ele>54.1</ele>
        <time>2020-07-01T10:49:51Z</time>
      </trkpt>
      <trkpt lat="48.95782" lon="3.14267">
        <ele>54.1</ele>
        <time>2020-07-01T10:49:52Z</time>
      </trkpt>
      <trkpt lat="48.95777" lon="3.14262">
        <ele>54</ele>
        <time>2020-07-01T10:49:53Z</time>
      </trkpt>
      <trkpt lat="48.95772" lon="3.14257">
        <ele>54</ele>
        <time>2020-07-01T10:49:54Z</time>
      </trkpt>
      <trkpt lat="48.95767" lon="3.14252">
        <ele>54</ele>
        <time>2020-07-01T10:49:55Z</time>
      </trkpt>
      <trkpt lat="48.95762" lon="3.14248">
        <ele>54</ele>
        <time>2020-07-01T10:49:56Z</time>
      </trkpt>
      <trkpt lat="48.95756" lon="3.14243">
        <ele>54</ele>
        <time>2020-07-01T10:49:57Z</time>
      </trkpt>
      <trkpt lat="48.95751" lon="3.1424">
        <ele>54</ele>
        <time>2020-07-01T10:49:58Z</time>
      </trkpt>
      <trkpt lat="48.95745" lon="3.14235">
        <ele>54</ele>
        <time>2020-07-01T10:49:59Z</time>
      </trkpt>
      <trkpt lat="48.95736" lon="3.14234">
        <ele>54</ele>
        <time>2020-07-01T10:50:00Z</time>
      </trkpt>
      <trkpt lat="48.95732" lon="3.1423">
        <ele>54</ele>
        <time>2020-07-01T10:50:01Z</time>
      </trkpt>
      <trkpt lat="48.95727" lon="3.14226">
        <ele>54</ele>
        <time>2020-07-01T10:50:02Z</time>
      </trkpt>
      <trkpt lat="48.95721" lon="3.14218">
        <ele>53.9</ele>
        <time>2020-07-01T10:50:03Z</time>
      </trkpt>
      <trkpt lat="48.95715" lon="3.14214">
        <ele>53.9</ele>
        <time>2020-07-01T10:50:04Z</time>
      </trkpt>
      <trkpt lat="48.9571" lon="3.1421">
        <ele>53.9</ele>
        <time>2020-07-01T10:50:05Z</time>
      </trkpt>
      <trkpt lat="48.95705" lon="3.14206">
        <ele>54</ele>
        <time>2020-07-01T10:50:06Z</time>
      </trkpt>
      <trkpt lat="48.95701" lon="3.14202">
        <ele>54</ele>
        <time>2020-07-01T10:50:07Z</time>
      </trkpt>
      <trkpt lat="48.95696" lon="3.14198">
        <ele>54</ele>
        <time>2020-07-01T10:50:08Z</time>
      </trkpt>
      <trkpt lat="48.95692" lon="3.14195">
        <ele>54</ele>
        <time>2020-07-01T10:50:09Z</time>
      </trkpt>
      <trkpt lat="48.95687" lon="3.14191">
        <ele>54</ele>
        <time>2020-07-01T10:50:10Z</time>
      </trkpt>
      <trkpt lat="48.95682" lon="3.14187">
        <ele>54</ele>
        <time>2020-07-01T10:50:11Z</time>
      </trkpt>
      <trkpt lat="48.95676" lon="3.14183">
        <ele>53.9</ele>
        <time>2020-07-01T10:50:12Z</time>
      </trkpt>
      <trkpt lat="48.95673" lon="3.14178">
        <ele>53.9</ele>
        <time>2020-07-01T10:50:13Z</time>
      </trkpt>
      <trkpt lat="48.95667" lon="3.14174">
        <ele>53.9</ele>
        <time>2020-07-01T10:50:14Z</time>
      </trkpt>
      <trkpt lat="48.95662" lon="3.14169">
        <ele>53.9</ele>
        <time>2020-07-01T10:50:15Z</time>
      </trkpt>
      <trkpt lat="48.95657" lon="3.14164">
        <ele>53.9</ele>
        <time>2020-07-01T10:50:16Z</time>
      </trkpt>
      <trkpt lat="48.95653" lon="3.1416">
        <ele>53.9</ele>
        <time>2020-07-01T10:50:17Z</time>
      </trkpt>
      <trkpt lat="48.95648" lon="3.14156">
        <ele>53.8</ele>
        <time>2020-07-01T10:50:18Z</time>
      </trkpt>
      <trkpt lat="48.95643" lon="3.14153">
        <ele>53.8</ele>
        <time>2020-07-01T10:50:19Z</time>
      </trkpt>
      <trkpt lat="48.95639" lon="3.1415">
        <ele>53.8</ele>
        <time>2020-07-01T10:50:20Z</time>
      </trkpt>
      <trkpt lat="48.95634" lon="3.14144">
        <ele>53.8</ele>
        <time>2020-07-01T10:50:21Z</time>
      </trkpt>
      <trkpt lat="48.9563" lon="3.14141">
        <ele>53.8</ele>
        <time>2020-07-01T10:50:22Z</time>
      </trkpt>
      <trkpt lat="48.95626" lon="3.14137">
        <ele>53.8</ele>
        <time>2020-07-01T10:50:23Z</time>
      </trkpt>
      <trkpt lat="48.95623" lon="3.14133">
        <ele>53.8</ele>
        <time>2020-07-01T10:50:24Z</time>
      </trkpt>
      <trkpt lat="48.95617" lon="3.1413">
        <ele>53.8</ele>
        <time>2020-07-01T10:50:25Z</time>
      </trkpt>
      <trkpt lat="48.95614" lon="3.14126">
        <ele>53.9</ele>
        <time>2020-07-01T10:50:26Z</time>
      </trkpt>
      <trkpt lat="48.95609" lon="3.14122">
        <ele>53.9</ele>
        <time>2020-07-01T10:50:27Z</time>
      </trkpt>
      <trkpt lat="48.95606" lon="3.14118">
        <ele>53.9</ele>
        <time>2020-07-01T10:50:28Z</time>
      </trkpt>
      <trkpt lat="48.956" lon="3.14113">
        <ele>53.9</ele>
        <time>2020-07-01T10:50:29Z</time>
      </trkpt>
      <trkpt lat="48.95595" lon="3.14112">
        <ele>53.8</ele>
        <time>2020-07-01T10:50:30Z</time>
      </trkpt>
      <trkpt lat="48.9559" lon="3.14109">
        <ele>53.8</ele>
        <time>2020-07-01T10:50:31Z</time>
      </trkpt>
      <trkpt lat="48.95585" lon="3.14105">
        <ele>53.8</ele>
        <time>2020-07-01T10:50:32Z</time>
      </trkpt>
      <trkpt lat="48.9558" lon="3.141">
        <ele>53.7</ele>
        <time>2020-07-01T10:50:33Z</time>
      </trkpt>
      <trkpt lat="48.95575" lon="3.14095">
        <ele>53.7</ele>
        <time>2020-07-01T10:50:34Z</time>
      </trkpt>
      <trkpt lat="48.9557" lon="3.14091">
        <ele>53.6</ele>
        <time>2020-07-01T10:50:35Z</time>
      </trkpt>
      <trkpt lat="48.95564" lon="3.14087">
        <ele>53.6</ele>
        <time>2020-07-01T10:50:36Z</time>
      </trkpt>
      <trkpt lat="48.95559" lon="3.14084">
        <ele>53.6</ele>
        <time>2020-07-01T10:50:37Z</time>
      </trkpt>
      <trkpt lat="48.95553" lon="3.1408">
        <ele>53.6</ele>
        <time>2020-07-01T10:50:38Z</time>
      </trkpt>
      <trkpt lat="48.95548" lon="3.14075">
        <ele>53.6</ele>
        <time>2020-07-01T10:50:39Z</time>
      </trkpt>
      <trkpt lat="48.95544" lon="3.1407">
        <ele>53.6</ele>
        <time>2020-07-01T10:50:40Z</time>
      </trkpt>
      <trkpt lat="48.95537" lon="3.14067">
        <ele>53.7</ele>
        <time>2020-07-01T10:50:41Z</time>
      </trkpt>
      <trkpt lat="48.95532" lon="3.14063">
        <ele>53.7</ele>
        <time>2020-07-01T10:50:42Z</time>
      </trkpt>
      <trkpt lat="48.95526" lon="3.14059">
        <ele>53.7</ele>
        <time>2020-07-01T10:50:43Z</time>
      </trkpt>
      <trkpt lat="48.9552" lon="3.14055">
        <ele>53.7</ele>
        <time>2020-07-01T10:50:44Z</time>
      </trkpt>
      <trkpt lat="48.95514" lon="3.14052">
        <ele>53.7</ele>
        <time>2020-07-01T10:50:45Z</time>
      </trkpt>
      <trkpt lat="48.95509" lon="3.14047">
        <ele>53.7</ele>
        <time>2020-07-01T10:50:46Z</time>
      </trkpt>
      <trkpt lat="48.95503" lon="3.14043">
        <ele>53.7</ele>
        <time>2020-07-01T10:50:47Z</time>
      </trkpt>
      <trkpt lat="48.95499" lon="3.14039">
        <ele>53.7</ele>
        <time>2020-07-01T10:50:48Z</time>
      </trkpt>
      <trkpt lat="48.95494" lon="3.14035">
        <ele>53.7</ele>
        <time>2020-07-01T10:50:49Z</time>
      </trkpt>
      <trkpt lat="48.95488" lon="3.1403">
        <ele>53.7</ele>
        <time>2020-07-01T10:50:50Z</time>
      </trkpt>
      <trkpt lat="48.95482" lon="3.14026">
        <ele>53.7</ele>
        <time>2020-07-01T10:50:51Z</time>
      </trkpt>
      <trkpt lat="48.95476" lon="3.14022">
        <ele>53.7</ele>
        <time>2020-07-01T10:50:52Z</time>
      </trkpt>
      <trkpt lat="48.95471" lon="3.14019">
        <ele>53.7</ele>
        <time>2020-07-01T10:50:53Z</time>
      </trkpt>
      <trkpt lat="48.95466" lon="3.14014">
        <ele>53.7</ele>
        <time>2020-07-01T10:50:54Z</time>
      </trkpt>
      <trkpt lat="48.95461" lon="3.1401">
        <ele>53.7</ele>
        <time>2020-07-01T10:50:55Z</time>
      </trkpt>
      <trkpt lat="48.95456" lon="3.14005">
        <ele>53.7</ele>
        <time>2020-07-01T10:50:56Z</time>
      </trkpt>
      <trkpt lat="48.95452" lon="3.14001">
        <ele>53.7</ele>
        <time>2020-07-01T10:50:57Z</time>
      </trkpt>
      <trkpt lat="48.95447" lon="3.13997">
        <ele>53.7</ele>
        <time>2020-07-01T10:50:58Z</time>
      </trkpt>
      <trkpt lat="48.95442" lon="3.13993">
        <ele>53.8</ele>
        <time>2020-07-01T10:50:59Z</time>
      </trkpt>
      <trkpt lat="48.95437" lon="3.13989">
        <ele>53.8</ele>
        <time>2020-07-01T10:51:00Z</time>
      </trkpt>
      <trkpt lat="48.95431" lon="3.13985">
        <ele>53.8</ele>
        <time>2020-07-01T10:51:01Z</time>
      </trkpt>
      <trkpt lat="48.95426" lon="3.13983">
        <ele>53.8</ele>
        <time>2020-07-01T10:51:02Z</time>
      </trkpt>
      <trkpt lat="48.9542" lon="3.1398">
        <ele>53.9</ele>
        <time>2020-07-01T10:51:03Z</time>
      </trkpt>
      <trkpt lat="48.95416" lon="3.13977">
        <ele>53.9</ele>
        <time>2020-07-01T10:51:04Z</time>
      </trkpt>
      <trkpt lat="48.95411" lon="3.13971">
        <ele>53.9</ele>
        <time>2020-07-01T10:51:05Z</time>
      </trkpt>
      <trkpt lat="48.95407" lon="3.13967">
        <ele>53.9</ele>
        <time>2020-07-01T10:51:06Z</time>
      </trkpt>
      <trkpt lat="48.95402" lon="3.13962">
        <ele>53.9</ele>
        <time>2020-07-01T10:51:07Z</time>
      </trkpt>
      <trkpt lat="48.95397" lon="3.13958">
        <ele>53.9</ele>
        <time>2020-07-01T10:51:08Z</time>
      </trkpt>
      <trkpt lat="48.95392" lon="3.13954">
        <ele>53.9</ele>
        <time>2020-07-01T10:51:09Z</time>
      </trkpt>
      <trkpt lat="48.95388" lon="3.1395">
        <ele>53.9</ele>
        <time>2020-07-01T10:51:10Z</time>
      </trkpt>
      <trkpt lat="48.95382" lon="3.13947">
        <ele>53.9</ele>
        <time>2020-07-01T10:51:11Z</time>
      </trkpt>
      <trkpt lat="48.95378" lon="3.13944">
        <ele>54</ele>
        <time>2020-07-01T10:51:12Z</time>
      </trkpt>
      <trkpt lat="48.95373" lon="3.1394">
        <ele>54</ele>
        <time>2020-07-01T10:51:13Z</time>
      </trkpt>
      <trkpt lat="48.95369" lon="3.13936">
        <ele>54</ele>
        <time>2020-07-01T10:51:14Z</time>
      </trkpt>
      <trkpt lat="48.95365" lon="3.13932">
        <ele>54</ele>
        <time>2020-07-01T10:51:15Z</time>
      </trkpt>
      <trkpt lat="48.9536" lon="3.13929">
        <ele>54</ele>
        <time>2020-07-01T10:51:16Z</time>
      </trkpt>
      <trkpt lat="48.95356" lon="3.13925">
        <ele>54</ele>
        <time>2020-07-01T10:51:17Z</time>
      </trkpt>
      <trkpt lat="48.9535" lon="3.13922">
        <ele>54</ele>
        <time>2020-07-01T10:51:18Z</time>
      </trkpt>
      <trkpt lat="48.95346" lon="3.13917">
        <ele>54</ele>
        <time>2020-07-01T10:51:19Z</time>
      </trkpt>
      <trkpt lat="48.95341" lon="3.13913">
        <ele>54</ele>
        <time>2020-07-01T10:51:20Z</time>
      </trkpt>
      <trkpt lat="48.95336" lon="3.13909">
        <ele>53.9</ele>
        <time>2020-07-01T10:51:21Z</time>
      </trkpt>
      <trkpt lat="48.95331" lon="3.13906">
        <ele>53.9</ele>
        <time>2020-07-01T10:51:22Z</time>
      </trkpt>
      <trkpt lat="48.95327" lon="3.13902">
        <ele>53.9</ele>
        <time>2020-07-01T10:51:23Z</time>
      </trkpt>
      <trkpt lat="48.95322" lon="3.13898">
        <ele>53.9</ele>
        <time>2020-07-01T10:51:24Z</time>
      </trkpt>
      <trkpt lat="48.95318" lon="3.13895">
        <ele>53.8</ele>
        <time>2020-07-01T10:51:25Z</time>
      </trkpt>
      <trkpt lat="48.95313" lon="3.13891">
        <ele>53.8</ele>
        <time>2020-07-01T10:51:26Z</time>
      </trkpt>
      <trkpt lat="48.95309" lon="3.13889">
        <ele>53.8</ele>
        <time>2020-07-01T10:51:27Z</time>
      </trkpt>
      <trkpt lat="48.95303" lon="3.13887">
        <ele>53.8</ele>
        <time>2020-07-01T10:51:28Z</time>
      </trkpt>
      <trkpt lat="48.95298" lon="3.13884">
        <ele>53.8</ele>
        <time>2020-07-01T10:51:29Z</time>
      </trkpt>
      <trkpt lat="48.95294" lon="3.13881">
        <ele>53.8</ele>
        <time>2020-07-01T10:51:30Z</time>
      </trkpt>
      <trkpt lat="48.95289" lon="3.13878">
        <ele>53.8</ele>
        <time>2020-07-01T10:51:31Z</time>
      </trkpt>
      <trkpt lat="48.95284" lon="3.13874">
        <ele>53.8</ele>
        <time>2020-07-01T10:51:32Z</time>
      </trkpt>
      <trkpt lat="48.9528" lon="3.1387">
        <ele>53.8</ele>
        <time>2020-07-01T10:51:33Z</time>
      </trkpt>
      <trkpt lat="48.95276" lon="3.13866">
        <ele>53.8</ele>
        <time>2020-07-01T10:51:34Z</time>
      </trkpt>
      <trkpt lat="48.95272" lon="3.13862">
        <ele>53.8</ele>
        <time>2020-07-01T10:51:35Z</time>
      </trkpt>
      <trkpt lat="48.95267" lon="3.1386">
        <ele>53.8</ele>
        <time>2020-07-01T10:51:36Z</time>
      </trkpt>
      <trkpt lat="48.95263" lon="3.13858">
        <ele>53.8</ele>
        <time>2020-07-01T10:51:37Z</time>
      </trkpt>
      <trkpt lat="48.95259" lon="3.13854">
        <ele>53.8</ele>
        <time>2020-07-01T10:51:38Z</time>
      </trkpt>
      <trkpt lat="48.95255" lon="3.1385">
        <ele>53.8</ele>
        <time>2020-07-01T10:51:39Z</time>
      </trkpt>
      <trkpt lat="48.95251" lon="3.13847">
        <ele>53.8</ele>
        <time>2020-07-01T10:51:40Z</time>
      </trkpt>
      <trkpt lat="48.95248" lon="3.13845">
        <ele>53.8</ele>
        <time>2020-07-01T10:51:41Z</time>
      </trkpt>
      <trkpt lat="48.95245" lon="3.13844">
        <ele>53.8</ele>
        <time>2020-07-01T10:51:42Z</time>
      </trkpt>
      <trkpt lat="48.95241" lon="3.13841">
        <ele>53.8</ele>
        <time>2020-07-01T10:51:43Z</time>
      </trkpt>
      <trkpt lat="48.95239" lon="3.13838">
        <ele>53.9</ele>
        <time>2020-07-01T10:51:44Z</time>
      </trkpt>
      <trkpt lat="48.95237" lon="3.13835">
        <ele>53.9</ele>
        <time>2020-07-01T10:51:45Z</time>
      </trkpt>
      <trkpt lat="48.95236" lon="3.13834">
        <ele>53.9</ele>
        <time>2020-07-01T10:51:46Z</time>
      </trkpt>
      <trkpt lat="48.95236" lon="3.13832">
        <ele>53.9</ele>
        <time>2020-07-01T10:51:47Z</time>
      </trkpt>
      <trkpt lat="48.95237" lon="3.13832">
        <ele>53.9</ele>
        <time>2020-07-01T10:51:48Z</time>
      </trkpt>
      <trkpt lat="48.95237" lon="3.13831">
        <ele>53.9</ele>
        <time>2020-07-01T10:51:49Z</time>
      </trkpt>
      <trkpt lat="48.95237" lon="3.13832">
        <ele>53.9</ele>
        <time>2020-07-01T10:51:50Z</time>
      </trkpt>
      <trkpt lat="48.95238" lon="3.13832">
        <ele>53.9</ele>
        <time>2020-07-01T10:51:51Z</time>
      </trkpt>
      <trkpt lat="48.95237" lon="3.13832">
        <ele>53.9</ele>
        <time>2020-07-01T10:51:52Z</time>
      </trkpt>
      <trkpt lat="48.95237" lon="3.13832">
        <ele>53.9</ele>
        <time>2020-07-01T10:51:53Z</time>
      </trkpt>
      <trkpt lat="48.95238" lon="3.13832">
        <ele>53.9</ele>
        <time>2020-07-01T10:51:54Z</time>
      </trkpt>
      <trkpt lat="48.95239" lon="3.13831">
        <ele>53.9</ele>
        <time>2020-07-01T10:51:55Z</time>
      </trkpt>
      <trkpt lat="48.95239" lon="3.13831">
        <ele>53.9</ele>
        <time>2020-07-01T10:51:56Z</time>
      </trkpt>
      <trkpt lat="48.95239" lon="3.13831">
        <ele>53.9</ele>
        <time>2020-07-01T10:51:57Z</time>
      </trkpt>
      <trkpt lat="48.95239" lon="3.13832">
        <ele>53.9</ele>
        <time>2020-07-01T10:51:58Z</time>
      </trkpt>
      <trkpt lat="48.95239" lon="3.13832">
        <ele>53.9</ele>
        <time>2020-07-01T10:51:59Z</time>
      </trkpt>
      <trkpt lat="48.95232" lon="3.13822">
        <ele>53.9</ele>
        <time>2020-07-01T10:54:46Z</time>
      </trkpt>
      <trkpt lat="48.95229" lon="3.13821">
        <ele>53.9</ele>
        <time>2020-07-01T10:54:47Z</time>
      </trkpt>
      <trkpt lat="48.95227" lon="3.13817">
        <ele>53.9</ele>
        <time>2020-07-01T10:54:48Z</time>
      </trkpt>
      <trkpt lat="48.95224" lon="3.13815">
        <ele>53.9</ele>
        <time>2020-07-01T10:54:49Z</time>
      </trkpt>
      <trkpt lat="48.9522" lon="3.13812">
        <ele>53.9</ele>
        <time>2020-07-01T10:54:50Z</time>
      </trkpt>
      <trkpt lat="48.95216" lon="3.13809">
        <ele>53.9</ele>
        <time>2020-07-01T10:54:51Z</time>
      </trkpt>
      <trkpt lat="48.95211" lon="3.13806">
        <ele>53.9</ele>
        <time>2020-07-01T10:54:52Z</time>
      </trkpt>
      <trkpt lat="48.95208" lon="3.13802">
        <ele>53.9</ele>
        <time>2020-07-01T10:54:53Z</time>
      </trkpt>
      <trkpt lat="48.95204" lon="3.138">
        <ele>53.9</ele>
        <time>2020-07-01T10:54:54Z</time>
      </trkpt>
      <trkpt lat="48.95201" lon="3.13797">
        <ele>53.9</ele>
        <time>2020-07-01T10:54:55Z</time>
      </trkpt>
      <trkpt lat="48.95197" lon="3.13795">
        <ele>53.9</ele>
        <time>2020-07-01T10:54:56Z</time>
      </trkpt>
      <trkpt lat="48.95193" lon="3.13792">
        <ele>53.9</ele>
        <time>2020-07-01T10:54:57Z</time>
      </trkpt>
      <trkpt lat="48.95189" lon="3.13789">
        <ele>54</ele>
        <time>2020-07-01T10:54:58Z</time>
      </trkpt>
      <trkpt lat="48.95186" lon="3.13786">
        <ele>54</ele>
        <time>2020-07-01T10:54:59Z</time>
      </trkpt>
      <trkpt lat="48.95182" lon="3.13784">
        <ele>54</ele>
        <time>2020-07-01T10:55:00Z</time>
      </trkpt>
      <trkpt lat="48.95178" lon="3.13781">
        <ele>54</ele>
        <time>2020-07-01T10:55:01Z</time>
      </trkpt>
      <trkpt lat="48.95174" lon="3.13779">
        <ele>54</ele>
        <time>2020-07-01T10:55:02Z</time>
      </trkpt>
      <trkpt lat="48.95171" lon="3.13777">
        <ele>54</ele>
        <time>2020-07-01T10:55:03Z</time>
      </trkpt>
      <trkpt lat="48.95168" lon="3.13774">
        <ele>54</ele>
        <time>2020-07-01T10:55:04Z</time>
      </trkpt>
      <trkpt lat="48.95166" lon="3.13772">
        <ele>54</ele>
        <time>2020-07-01T10:55:05Z</time>
      </trkpt>
      <trkpt lat="48.95163" lon="3.13769">
        <ele>54</ele>
        <time>2020-07-01T10:55:06Z</time>
      </trkpt>
      <trkpt lat="48.95161" lon="3.13765">
        <ele>54</ele>
        <time>2020-07-01T10:55:07Z</time>
      </trkpt>
      <trkpt lat="48.9516" lon="3.13764">
        <ele>54</ele>
        <time>2020-07-01T10:55:08Z</time>
      </trkpt>
      <trkpt lat="48.95158" lon="3.13762">
        <ele>54</ele>
        <time>2020-07-01T10:55:09Z</time>
      </trkpt>
      <trkpt lat="48.95158" lon="3.13761">
        <ele>54</ele>
        <time>2020-07-01T10:55:10Z</time>
      </trkpt>
      <trkpt lat="48.95157" lon="3.1376">
        <ele>54</ele>
        <time>2020-07-01T10:55:11Z</time>
      </trkpt>
      <trkpt lat="48.95155" lon="3.13758">
        <ele>54</ele>
        <time>2020-07-01T10:55:12Z</time>
      </trkpt>
      <trkpt lat="48.95154" lon="3.13757">
        <ele>54</ele>
        <time>2020-07-01T10:55:13Z</time>
      </trkpt>
      <trkpt lat="48.95151" lon="3.13754">
        <ele>54</ele>
        <time>2020-07-01T10:55:14Z</time>
      </trkpt>
      <trkpt lat="48.95149" lon="3.1375">
        <ele>54</ele>
        <time>2020-07-01T10:55:15Z</time>
      </trkpt>
      <trkpt lat="48.95147" lon="3.13747">
        <ele>53.9</ele>
        <time>2020-07-01T10:55:16Z</time>
      </trkpt>
      <trkpt lat="48.95144" lon="3.13744">
        <ele>53.9</ele>
        <time>2020-07-01T10:55:17Z</time>
      </trkpt>
      <trkpt lat="48.95141" lon="3.13741">
        <ele>53.9</ele>
        <time>2020-07-01T10:55:18Z</time>
      </trkpt>
      <trkpt lat="48.95138" lon="3.13738">
        <ele>53.9</ele>
        <time>2020-07-01T10:55:19Z</time>
      </trkpt>
      <trkpt lat="48.95136" lon="3.13734">
        <ele>53.9</ele>
        <time>2020-07-01T10:55:20Z</time>
      </trkpt>
      <trkpt lat="48.95134" lon="3.13731">
        <ele>53.9</ele>
        <time>2020-07-01T10:55:21Z</time>
      </trkpt>
      <trkpt lat="48.9513" lon="3.13725">
        <ele>53.9</ele>
        <time>2020-07-01T10:55:22Z</time>
      </trkpt>
      <trkpt lat="48.95126" lon="3.13721">
        <ele>53.9</ele>
        <time>2020-07-01T10:55:23Z</time>
      </trkpt>
      <trkpt lat="48.95123" lon="3.13718">
        <ele>53.9</ele>
        <time>2020-07-01T10:55:24Z</time>
      </trkpt>
      <trkpt lat="48.9512" lon="3.13713">
        <ele>53.9</ele>
        <time>2020-07-01T10:55:25Z</time>
      </trkpt>
      <trkpt lat="48.95117" lon="3.13708">
        <ele>53.9</ele>
        <time>2020-07-01T10:55:26Z</time>
      </trkpt>
      <trkpt lat="48.95113" lon="3.13704">
        <ele>53.9</ele>
        <time>2020-07-01T10:55:27Z</time>
      </trkpt>
      <trkpt lat="48.9511" lon="3.13701">
        <ele>53.9</ele>
        <time>2020-07-01T10:55:28Z</time>
      </trkpt>
      <trkpt lat="48.95107" lon="3.13698">
        <ele>53.9</ele>
        <time>2020-07-01T10:55:29Z</time>
      </trkpt>
      <trkpt lat="48.95103" lon="3.13694">
        <ele>53.9</ele>
        <time>2020-07-01T10:55:30Z</time>
      </trkpt>
      <trkpt lat="48.95099" lon="3.13691">
        <ele>53.9</ele>
        <time>2020-07-01T10:55:31Z</time>
      </trkpt>
      <trkpt lat="48.95095" lon="3.13687">
        <ele>53.9</ele>
        <time>2020-07-01T10:55:32Z</time>
      </trkpt>
      <trkpt lat="48.9509" lon="3.13683">
        <ele>53.9</ele>
        <time>2020-07-01T10:55:33Z</time>
      </trkpt>
      <trkpt lat="48.95086" lon="3.1368">
        <ele>53.9</ele>
        <time>2020-07-01T10:55:34Z</time>
      </trkpt>
      <trkpt lat="48.95082" lon="3.13676">
        <ele>53.9</ele>
        <time>2020-07-01T10:55:35Z</time>
      </trkpt>
      <trkpt lat="48.95078" lon="3.13673">
        <ele>53.9</ele>
        <time>2020-07-01T10:55:36Z</time>
      </trkpt>
      <trkpt lat="48.95074" lon="3.13669">
        <ele>53.9</ele>
        <time>2020-07-01T10:55:37Z</time>
      </trkpt>
      <trkpt lat="48.95071" lon="3.13664">
        <ele>54</ele>
        <time>2020-07-01T10:55:38Z</time>
      </trkpt>
      <trkpt lat="48.95068" lon="3.13658">
        <ele>54</ele>
        <time>2020-07-01T10:55:39Z</time>
      </trkpt>
      <trkpt lat="48.95064" lon="3.13652">
        <ele>54</ele>
        <time>2020-07-01T10:55:40Z</time>
      </trkpt>
      <trkpt lat="48.9506" lon="3.13647">
        <ele>54</ele>
        <time>2020-07-01T10:55:41Z</time>
      </trkpt>
      <trkpt lat="48.95056" lon="3.13642">
        <ele>54</ele>
        <time>2020-07-01T10:55:42Z</time>
      </trkpt>
      <trkpt lat="48.95051" lon="3.13637">
        <ele>54</ele>
        <time>2020-07-01T10:55:43Z</time>
      </trkpt>
      <trkpt lat="48.95047" lon="3.13631">
        <ele>54</ele>
        <time>2020-07-01T10:55:44Z</time>
      </trkpt>
      <trkpt lat="48.95043" lon="3.13626">
        <ele>54</ele>
        <time>2020-07-01T10:55:45Z</time>
      </trkpt>
      <trkpt lat="48.95039" lon="3.13621">
        <ele>54</ele>
        <time>2020-07-01T10:55:46Z</time>
      </trkpt>
      <trkpt lat="48.95035" lon="3.13617">
        <ele>53.9</ele>
        <time>2020-07-01T10:55:47Z</time>
      </trkpt>
      <trkpt lat="48.95031" lon="3.13611">
        <ele>53.9</ele>
        <time>2020-07-01T10:55:48Z</time>
      </trkpt>
      <trkpt lat="48.95026" lon="3.13605">
        <ele>53.9</ele>
        <time>2020-07-01T10:55:49Z</time>
      </trkpt>
      <trkpt lat="48.95022" lon="3.136">
        <ele>53.9</ele>
        <time>2020-07-01T10:55:50Z</time>
      </trkpt>
      <trkpt lat="48.95018" lon="3.13594">
        <ele>53.9</ele>
        <time>2020-07-01T10:55:51Z</time>
      </trkpt>
      <trkpt lat="48.95015" lon="3.13588">
        <ele>53.9</ele>
        <time>2020-07-01T10:55:52Z</time>
      </trkpt>
      <trkpt lat="48.95011" lon="3.13583">
        <ele>53.9</ele>
        <time>2020-07-01T10:55:53Z</time>
      </trkpt>
      <trkpt lat="48.95006" lon="3.1358">
        <ele>53.9</ele>
        <time>2020-07-01T10:55:54Z</time>
      </trkpt>
      <trkpt lat="48.95003" lon="3.13575">
        <ele>53.9</ele>
        <time>2020-07-01T10:55:55Z</time>
      </trkpt>
      <trkpt lat="48.94999" lon="3.1357">
        <ele>53.9</ele>
        <time>2020-07-01T10:55:56Z</time>
      </trkpt>
      <trkpt lat="48.94995" lon="3.13565">
        <ele>53.9</ele>
        <time>2020-07-01T10:55:57Z</time>
      </trkpt>
      <trkpt lat="48.9499" lon="3.1356">
        <ele>53.9</ele>
        <time>2020-07-01T10:55:58Z</time>
      </trkpt>
      <trkpt lat="48.94986" lon="3.13556">
        <ele>54</ele>
        <time>2020-07-01T10:55:59Z</time>
      </trkpt>
      <trkpt lat="48.94983" lon="3.13552">
        <ele>54</ele>
        <time>2020-07-01T10:56:00Z</time>
      </trkpt>
      <trkpt lat="48.94979" lon="3.13548">
        <ele>54</ele>
        <time>2020-07-01T10:56:01Z</time>
      </trkpt>
      <trkpt lat="48.94975" lon="3.13544">
        <ele>54</ele>
        <time>2020-07-01T10:56:02Z</time>
      </trkpt>
      <trkpt lat="48.94971" lon="3.1354">
        <ele>54</ele>
        <time>2020-07-01T10:56:03Z</time>
      </trkpt>
      <trkpt lat="48.94966" lon="3.13535">
        <ele>54.1</ele>
        <time>2020-07-01T10:56:04Z</time>
      </trkpt>
      <trkpt lat="48.94961" lon="3.13531">
        <ele>54.1</ele>
        <time>2020-07-01T10:56:05Z</time>
      </trkpt>
      <trkpt lat="48.94957" lon="3.13524">
        <ele>54.2</ele>
        <time>2020-07-01T10:56:06Z</time>
      </trkpt>
      <trkpt lat="48.94953" lon="3.13519">
        <ele>54.2</ele>
        <time>2020-07-01T10:56:07Z</time>
      </trkpt>
      <trkpt lat="48.94949" lon="3.13513">
        <ele>54.3</ele>
        <time>2020-07-01T10:56:08Z</time>
      </trkpt>
      <trkpt lat="48.94946" lon="3.13509">
        <ele>54.3</ele>
        <time>2020-07-01T10:56:09Z</time>
      </trkpt>
      <trkpt lat="48.94942" lon="3.13506">
        <ele>54.4</ele>
        <time>2020-07-01T10:56:10Z</time>
      </trkpt>
      <trkpt lat="48.94939" lon="3.13502">
        <ele>54.4</ele>
        <time>2020-07-01T10:56:11Z</time>
      </trkpt>
      <trkpt lat="48.94934" lon="3.13498">
        <ele>54.4</ele>
        <time>2020-07-01T10:56:12Z</time>
      </trkpt>
      <trkpt lat="48.94931" lon="3.13495">
        <ele>54.5</ele>
        <time>2020-07-01T10:56:13Z</time>
      </trkpt>
      <trkpt lat="48.94928" lon="3.13491">
        <ele>54.5</ele>
        <time>2020-07-01T10:56:14Z</time>
      </trkpt>
      <trkpt lat="48.94924" lon="3.13487">
        <ele>54.5</ele>
        <time>2020-07-01T10:56:15Z</time>
      </trkpt>
      <trkpt lat="48.94921" lon="3.13482">
        <ele>54.5</ele>
        <time>2020-07-01T10:56:16Z</time>
      </trkpt>
      <trkpt lat="48.94917" lon="3.13478">
        <ele>54.6</ele>
        <time>2020-07-01T10:56:17Z</time>
      </trkpt>
      <trkpt lat="48.94913" lon="3.13474">
        <ele>54.6</ele>
        <time>2020-07-01T10:56:18Z</time>
      </trkpt>
      <trkpt lat="48.94908" lon="3.13469">
        <ele>54.6</ele>
        <time>2020-07-01T10:56:19Z</time>
      </trkpt>
      <trkpt lat="48.94904" lon="3.13465">
        <ele>54.6</ele>
        <time>2020-07-01T10:56:20Z</time>
      </trkpt>
      <trkpt lat="48.94901" lon="3.13461">
        <ele>54.7</ele>
        <time>2020-07-01T10:56:21Z</time>
      </trkpt>
      <trkpt lat="48.94897" lon="3.13457">
        <ele>54.8</ele>
        <time>2020-07-01T10:56:22Z</time>
      </trkpt>
      <trkpt lat="48.94894" lon="3.13452">
        <ele>54.8</ele>
        <time>2020-07-01T10:56:23Z</time>
      </trkpt>
      <trkpt lat="48.94891" lon="3.13446">
        <ele>54.9</ele>
        <time>2020-07-01T10:56:24Z</time>
      </trkpt>
      <trkpt lat="48.94888" lon="3.13441">
        <ele>54.9</ele>
        <time>2020-07-01T10:56:25Z</time>
      </trkpt>
      <trkpt lat="48.94884" lon="3.13439">
        <ele>55</ele>
        <time>2020-07-01T10:56:26Z</time>
      </trkpt>
      <trkpt lat="48.94881" lon="3.13435">
        <ele>55</ele>
        <time>2020-07-01T10:56:27Z</time>
      </trkpt>
      <trkpt lat="48.94877" lon="3.13431">
        <ele>55.1</ele>
        <time>2020-07-01T10:56:28Z</time>
      </trkpt>
      <trkpt lat="48.94873" lon="3.13427">
        <ele>55.1</ele>
        <time>2020-07-01T10:56:29Z</time>
      </trkpt>
      <trkpt lat="48.94868" lon="3.13422">
        <ele>55.2</ele>
        <time>2020-07-01T10:56:30Z</time>
      </trkpt>
      <trkpt lat="48.94864" lon="3.13417">
        <ele>55.2</ele>
        <time>2020-07-01T10:56:31Z</time>
      </trkpt>
      <trkpt lat="48.9486" lon="3.13413">
        <ele>55.3</ele>
        <time>2020-07-01T10:56:32Z</time>
      </trkpt>
      <trkpt lat="48.94856" lon="3.13409">
        <ele>55.3</ele>
        <time>2020-07-01T10:56:33Z</time>
      </trkpt>
      <trkpt lat="48.94853" lon="3.13405">
        <ele>55.4</ele>
        <time>2020-07-01T10:56:34Z</time>
      </trkpt>
      <trkpt lat="48.9485" lon="3.13402">
        <ele>55.4</ele>
        <time>2020-07-01T10:56:35Z</time>
      </trkpt>
      <trkpt lat="48.94846" lon="3.13397">
        <ele>55.5</ele>
        <time>2020-07-01T10:56:36Z</time>
      </trkpt>
      <trkpt lat="48.94843" lon="3.13393">
        <ele>55.5</ele>
        <time>2020-07-01T10:56:37Z</time>
      </trkpt>
      <trkpt lat="48.9484" lon="3.1339">
        <ele>55.6</ele>
        <time>2020-07-01T10:56:38Z</time>
      </trkpt>
      <trkpt lat="48.94837" lon="3.13387">
        <ele>55.6</ele>
        <time>2020-07-01T10:56:39Z</time>
      </trkpt>
      <trkpt lat="48.94833" lon="3.13383">
        <ele>55.7</ele>
        <time>2020-07-01T10:56:40Z</time>
      </trkpt>
      <trkpt lat="48.9483" lon="3.1338">
        <ele>55.7</ele>
        <time>2020-07-01T10:56:41Z</time>
      </trkpt>
      <trkpt lat="48.94828" lon="3.13376">
        <ele>55.7</ele>
        <time>2020-07-01T10:56:42Z</time>
      </trkpt>
      <trkpt lat="48.94826" lon="3.13373">
        <ele>55.7</ele>
        <time>2020-07-01T10:56:43Z</time>
      </trkpt>
      <trkpt lat="48.94824" lon="3.1337">
        <ele>55.7</ele>
        <time>2020-07-01T10:56:44Z</time>
      </trkpt>
      <trkpt lat="48.9482" lon="3.13369">
        <ele>55.8</ele>
        <time>2020-07-01T10:56:45Z</time>
      </trkpt>
      <trkpt lat="48.94817" lon="3.13367">
        <ele>55.8</ele>
        <time>2020-07-01T10:56:46Z</time>
      </trkpt>
      <trkpt lat="48.94814" lon="3.13367">
        <ele>55.8</ele>
        <time>2020-07-01T10:56:47Z</time>
      </trkpt>
      <trkpt lat="48.94809" lon="3.13365">
        <ele>55.8</ele>
        <time>2020-07-01T10:56:48Z</time>
      </trkpt>
      <trkpt lat="48.94805" lon="3.13362">
        <ele>55.7</ele>
        <time>2020-07-01T10:56:49Z</time>
      </trkpt>
      <trkpt lat="48.94801" lon="3.13359">
        <ele>55.7</ele>
        <time>2020-07-01T10:56:50Z</time>
      </trkpt>
      <trkpt lat="48.94797" lon="3.13355">
        <ele>55.6</ele>
        <time>2020-07-01T10:56:51Z</time>
      </trkpt>
      <trkpt lat="48.94792" lon="3.13353">
        <ele>55.6</ele>
        <time>2020-07-01T10:56:52Z</time>
      </trkpt>
      <trkpt lat="48.94788" lon="3.1335">
        <ele>55.5</ele>
        <time>2020-07-01T10:56:53Z</time>
      </trkpt>
      <trkpt lat="48.94784" lon="3.13346">
        <ele>55.4</ele>
        <time>2020-07-01T10:56:54Z</time>
      </trkpt>
      <trkpt lat="48.9478" lon="3.13343">
        <ele>55.4</ele>
        <time>2020-07-01T10:56:55Z</time>
      </trkpt>
      <trkpt lat="48.94777" lon="3.1334">
        <ele>55.3</ele>
        <time>2020-07-01T10:56:56Z</time>
      </trkpt>
      <trkpt lat="48.94774" lon="3.13336">
        <ele>55.3</ele>
        <time>2020-07-01T10:56:57Z</time>
      </trkpt>
      <trkpt lat="48.9477" lon="3.13333">
        <ele>55.3</ele>
        <time>2020-07-01T10:56:58Z</time>
      </trkpt>
      <trkpt lat="48.94767" lon="3.1333">
        <ele>55.2</ele>
        <time>2020-07-01T10:56:59Z</time>
      </trkpt>
      <trkpt lat="48.94765" lon="3.13325">
        <ele>55.2</ele>
        <time>2020-07-01T10:57:00Z</time>
      </trkpt>
      <trkpt lat="48.94764" lon="3.13322">
        <ele>55.2</ele>
        <time>2020-07-01T10:57:01Z</time>
      </trkpt>
      <trkpt lat="48.94761" lon="3.13317">
        <ele>55.3</ele>
        <time>2020-07-01T10:57:02Z</time>
      </trkpt>
      <trkpt lat="48.94763" lon="3.13315">
        <ele>55.4</ele>
        <time>2020-07-01T10:57:03Z</time>
      </trkpt>
      <trkpt lat="48.94764" lon="3.13314">
        <ele>55.5</ele>
        <time>2020-07-01T10:57:04Z</time>
      </trkpt>
      <trkpt lat="48.94765" lon="3.13312">
        <ele>55.5</ele>
        <time>2020-07-01T10:57:05Z</time>
      </trkpt>
      <trkpt lat="48.94768" lon="3.13309">
        <ele>55.6</ele>
        <time>2020-07-01T10:57:06Z</time>
      </trkpt>
      <trkpt lat="48.9477" lon="3.13306">
        <ele>55.7</ele>
        <time>2020-07-01T10:57:07Z</time>
      </trkpt>
      <trkpt lat="48.94772" lon="3.13303">
        <ele>55.7</ele>
        <time>2020-07-01T10:57:08Z</time>
      </trkpt>
      <trkpt lat="48.94774" lon="3.133">
        <ele>55.8</ele>
        <time>2020-07-01T10:57:09Z</time>
      </trkpt>
      <trkpt lat="48.94777" lon="3.13297">
        <ele>55.9</ele>
        <time>2020-07-01T10:57:10Z</time>
      </trkpt>
      <trkpt lat="48.94779" lon="3.13295">
        <ele>55.9</ele>
        <time>2020-07-01T10:57:11Z</time>
      </trkpt>
      <trkpt lat="48.9478" lon="3.13294">
        <ele>55.9</ele>
        <time>2020-07-01T10:57:12Z</time>
      </trkpt>
      <trkpt lat="48.94782" lon="3.13291">
        <ele>55.9</ele>
        <time>2020-07-01T10:57:13Z</time>
      </trkpt>
      <trkpt lat="48.94785" lon="3.13288">
        <ele>55.8</ele>
        <time>2020-07-01T10:57:14Z</time>
      </trkpt>
      <trkpt lat="48.94788" lon="3.13285">
        <ele>55.8</ele>
        <time>2020-07-01T10:57:15Z</time>
      </trkpt>
      <trkpt lat="48.94789" lon="3.13283">
        <ele>55.7</ele>
        <time>2020-07-01T10:57:16Z</time>
      </trkpt>
      <trkpt lat="48.94791" lon="3.1328">
        <ele>55.7</ele>
        <time>2020-07-01T10:57:17Z</time>
      </trkpt>
      <trkpt lat="48.94794" lon="3.13277">
        <ele>55.6</ele>
        <time>2020-07-01T10:57:18Z</time>
      </trkpt>
      <trkpt lat="48.94797" lon="3.13274">
        <ele>55.6</ele>
        <time>2020-07-01T10:57:19Z</time>
      </trkpt>
      <trkpt lat="48.948" lon="3.13272">
        <ele>55.6</ele>
        <time>2020-07-01T10:57:20Z</time>
      </trkpt>
      <trkpt lat="48.94802" lon="3.13269">
        <ele>55.5</ele>
        <time>2020-07-01T10:57:21Z</time>
      </trkpt>
      <trkpt lat="48.94805" lon="3.13266">
        <ele>55.5</ele>
        <time>2020-07-01T10:57:22Z</time>
      </trkpt>
      <trkpt lat="48.94808" lon="3.13263">
        <ele>55.5</ele>
        <time>2020-07-01T10:57:23Z</time>
      </trkpt>
      <trkpt lat="48.9481" lon="3.1326">
        <ele>55.4</ele>
        <time>2020-07-01T10:57:24Z</time>
      </trkpt>
      <trkpt lat="48.94814" lon="3.13256">
        <ele>55.4</ele>
        <time>2020-07-01T10:57:25Z</time>
      </trkpt>
      <trkpt lat="48.94815" lon="3.13255">
        <ele>55.3</ele>
        <time>2020-07-01T10:57:26Z</time>
      </trkpt>
      <trkpt lat="48.94817" lon="3.13253">
        <ele>55.3</ele>
        <time>2020-07-01T10:57:27Z</time>
      </trkpt>
      <trkpt lat="48.94819" lon="3.13251">
        <ele>55.2</ele>
        <time>2020-07-01T10:57:28Z</time>
      </trkpt>
      <trkpt lat="48.94822" lon="3.13249">
        <ele>55.1</ele>
        <time>2020-07-01T10:57:29Z</time>
      </trkpt>
      <trkpt lat="48.94824" lon="3.13246">
        <ele>55</ele>
        <time>2020-07-01T10:57:30Z</time>
      </trkpt>
      <trkpt lat="48.94827" lon="3.13244">
        <ele>55</ele>
        <time>2020-07-01T10:57:31Z</time>
      </trkpt>
      <trkpt lat="48.9483" lon="3.13242">
        <ele>54.9</ele>
        <time>2020-07-01T10:57:32Z</time>
      </trkpt>
      <trkpt lat="48.94832" lon="3.1324">
        <ele>54.8</ele>
        <time>2020-07-01T10:57:33Z</time>
      </trkpt>
      <trkpt lat="48.94835" lon="3.13236">
        <ele>54.8</ele>
        <time>2020-07-01T10:57:34Z</time>
      </trkpt>
      <trkpt lat="48.94838" lon="3.13233">
        <ele>54.7</ele>
        <time>2020-07-01T10:57:35Z</time>
      </trkpt>
      <trkpt lat="48.94841" lon="3.13231">
        <ele>54.7</ele>
        <time>2020-07-01T10:57:36Z</time>
      </trkpt>
      <trkpt lat="48.94844" lon="3.13229">
        <ele>54.7</ele>
        <time>2020-07-01T10:57:37Z</time>
      </trkpt>
      <trkpt lat="48.94847" lon="3.13226">
        <ele>54.7</ele>
        <time>2020-07-01T10:57:38Z</time>
      </trkpt>
      <trkpt lat="48.9485" lon="3.13223">
        <ele>54.6</ele>
        <time>2020-07-01T10:57:39Z</time>
      </trkpt>
      <trkpt lat="48.94854" lon="3.13219">
        <ele>54.6</ele>
        <time>2020-07-01T10:57:40Z</time>
      </trkpt>
      <trkpt lat="48.94857" lon="3.13215">
        <ele>54.6</ele>
        <time>2020-07-01T10:57:41Z</time>
      </trkpt>
      <trkpt lat="48.94859" lon="3.13212">
        <ele>54.7</ele>
        <time>2020-07-01T10:57:42Z</time>
      </trkpt>
      <trkpt lat="48.94862" lon="3.13208">
        <ele>54.8</ele>
        <time>2020-07-01T10:57:43Z</time>
      </trkpt>
      <trkpt lat="48.94866" lon="3.13202">
        <ele>54.8</ele>
        <time>2020-07-01T10:57:44Z</time>
      </trkpt>
      <trkpt lat="48.94869" lon="3.13197">
        <ele>54.9</ele>
        <time>2020-07-01T10:57:45Z</time>
      </trkpt>
      <trkpt lat="48.94871" lon="3.13193">
        <ele>54.9</ele>
        <time>2020-07-01T10:57:46Z</time>
      </trkpt>
      <trkpt lat="48.94875" lon="3.13188">
        <ele>54.9</ele>
        <time>2020-07-01T10:57:47Z</time>
      </trkpt>
      <trkpt lat="48.94877" lon="3.13183">
        <ele>54.9</ele>
        <time>2020-07-01T10:57:48Z</time>
      </trkpt>
      <trkpt lat="48.94878" lon="3.13181">
        <ele>54.9</ele>
        <time>2020-07-01T10:57:49Z</time>
      </trkpt>
      <trkpt lat="48.9488" lon="3.13178">
        <ele>54.9</ele>
        <time>2020-07-01T10:57:50Z</time>
      </trkpt>
      <trkpt lat="48.94883" lon="3.13175">
        <ele>54.9</ele>
        <time>2020-07-01T10:57:51Z</time>
      </trkpt>
      <trkpt lat="48.94885" lon="3.1317">
        <ele>54.8</ele>
        <time>2020-07-01T10:57:52Z</time>
      </trkpt>
      <trkpt lat="48.94887" lon="3.13166">
        <ele>54.8</ele>
        <time>2020-07-01T10:57:53Z</time>
      </trkpt>
      <trkpt lat="48.94889" lon="3.1316">
        <ele>54.8</ele>
        <time>2020-07-01T10:57:54Z</time>
      </trkpt>
      <trkpt lat="48.94892" lon="3.13154">
        <ele>54.7</ele>
        <time>2020-07-01T10:57:55Z</time>
      </trkpt>
      <trkpt lat="48.94894" lon="3.13147">
        <ele>54.6</ele>
        <time>2020-07-01T10:57:56Z</time>
      </trkpt>
      <trkpt lat="48.94896" lon="3.13142">
        <ele>54.6</ele>
        <time>2020-07-01T10:57:57Z</time>
      </trkpt>
      <trkpt lat="48.94898" lon="3.13136">
        <ele>54.5</ele>
        <time>2020-07-01T10:57:58Z</time>
      </trkpt>
      <trkpt lat="48.949" lon="3.13131">
        <ele>54.5</ele>
        <time>2020-07-01T10:57:59Z</time>
      </trkpt>
      <trkpt lat="48.94903" lon="3.13125">
        <ele>54.5</ele>
        <time>2020-07-01T10:58:00Z</time>
      </trkpt>
      <trkpt lat="48.94906" lon="3.1312">
        <ele>54.5</ele>
        <time>2020-07-01T10:58:01Z</time>
      </trkpt>
      <trkpt lat="48.94909" lon="3.13115">
        <ele>54.5</ele>
        <time>2020-07-01T10:58:02Z</time>
      </trkpt>
      <trkpt lat="48.94912" lon="3.13109">
        <ele>54.5</ele>
        <time>2020-07-01T10:58:03Z</time>
      </trkpt>
      <trkpt lat="48.94915" lon="3.13103">
        <ele>54.6</ele>
        <time>2020-07-01T10:58:04Z</time>
      </trkpt>
      <trkpt lat="48.94918" lon="3.13098">
        <ele>54.7</ele>
        <time>2020-07-01T10:58:05Z</time>
      </trkpt>
      <trkpt lat="48.9492" lon="3.13093">
        <ele>54.8</ele>
        <time>2020-07-01T10:58:06Z</time>
      </trkpt>
      <trkpt lat="48.94922" lon="3.1309">
        <ele>54.9</ele>
        <time>2020-07-01T10:58:07Z</time>
      </trkpt>
      <trkpt lat="48.94923" lon="3.13086">
        <ele>54.9</ele>
        <time>2020-07-01T10:58:08Z</time>
      </trkpt>
      <trkpt lat="48.94925" lon="3.13081">
        <ele>55</ele>
        <time>2020-07-01T10:58:09Z</time>
      </trkpt>
      <trkpt lat="48.94928" lon="3.13076">
        <ele>55.1</ele>
        <time>2020-07-01T10:58:10Z</time>
      </trkpt>
      <trkpt lat="48.94929" lon="3.13074">
        <ele>55.1</ele>
        <time>2020-07-01T10:58:11Z</time>
      </trkpt>
      <trkpt lat="48.94931" lon="3.1307">
        <ele>55.2</ele>
        <time>2020-07-01T10:58:12Z</time>
      </trkpt>
      <trkpt lat="48.94934" lon="3.13069">
        <ele>55.3</ele>
        <time>2020-07-01T10:58:13Z</time>
      </trkpt>
      <trkpt lat="48.94935" lon="3.13068">
        <ele>55.4</ele>
        <time>2020-07-01T10:58:14Z</time>
      </trkpt>
      <trkpt lat="48.94935" lon="3.13066">
        <ele>55.4</ele>
        <time>2020-07-01T10:58:15Z</time>
      </trkpt>
      <trkpt lat="48.94936" lon="3.13064">
        <ele>55.5</ele>
        <time>2020-07-01T10:58:16Z</time>
      </trkpt>
      <trkpt lat="48.94937" lon="3.13062">
        <ele>55.6</ele>
        <time>2020-07-01T10:58:17Z</time>
      </trkpt>
      <trkpt lat="48.94938" lon="3.13062">
        <ele>55.6</ele>
        <time>2020-07-01T10:58:18Z</time>
      </trkpt>
      <trkpt lat="48.94938" lon="3.13062">
        <ele>55.6</ele>
        <time>2020-07-01T10:58:19Z</time>
      </trkpt>
      <trkpt lat="48.94939" lon="3.13061">
        <ele>55.7</ele>
        <time>2020-07-01T10:58:20Z</time>
      </trkpt>
      <trkpt lat="48.94939" lon="3.1306">
        <ele>55.7</ele>
        <time>2020-07-01T10:58:21Z</time>
      </trkpt>
      <trkpt lat="48.9494" lon="3.13059">
        <ele>55.8</ele>
        <time>2020-07-01T10:58:22Z</time>
      </trkpt>
      <trkpt lat="48.9494" lon="3.13058">
        <ele>55.8</ele>
        <time>2020-07-01T10:58:23Z</time>
      </trkpt>
      <trkpt lat="48.9494" lon="3.13058">
        <ele>55.8</ele>
        <time>2020-07-01T10:58:24Z</time>
      </trkpt>
      <trkpt lat="48.9494" lon="3.13057">
        <ele>55.8</ele>
        <time>2020-07-01T10:58:25Z</time>
      </trkpt>
      <trkpt lat="48.94941" lon="3.13057">
        <ele>55.8</ele>
        <time>2020-07-01T10:58:26Z</time>
      </trkpt>
      <trkpt lat="48.94941" lon="3.13057">
        <ele>55.9</ele>
        <time>2020-07-01T10:58:27Z</time>
      </trkpt>
      <trkpt lat="48.94941" lon="3.13057">
        <ele>55.9</ele>
        <time>2020-07-01T10:58:28Z</time>
      </trkpt>
      <trkpt lat="48.94941" lon="3.13051">
        <ele>56</ele>
        <time>2020-07-01T10:58:45Z</time>
      </trkpt>
      <trkpt lat="48.94941" lon="3.1305">
        <ele>56.1</ele>
        <time>2020-07-01T10:58:46Z</time>
      </trkpt>
      <trkpt lat="48.94941" lon="3.1305">
        <ele>56.1</ele>
        <time>2020-07-01T10:58:47Z</time>
      </trkpt>
      <trkpt lat="48.94941" lon="3.1305">
        <ele>56.1</ele>
        <time>2020-07-01T10:58:48Z</time>
      </trkpt>
      <trkpt lat="48.94941" lon="3.1305">
        <ele>56.1</ele>
        <time>2020-07-01T10:58:49Z</time>
      </trkpt>
      <trkpt lat="48.94941" lon="3.1305">
        <ele>56.1</ele>
        <time>2020-07-01T10:58:50Z</time>
      </trkpt>
      <trkpt lat="48.94941" lon="3.1305">
        <ele>56.1</ele>
        <time>2020-07-01T10:58:51Z</time>
      </trkpt>
      <trkpt lat="48.94941" lon="3.1305">
        <ele>56.1</ele>
        <time>2020-07-01T10:58:52Z</time>
      </trkpt>
      <trkpt lat="48.94941" lon="3.1305">
        <ele>56.1</ele>
        <time>2020-07-01T10:58:53Z</time>
      </trkpt>
      <trkpt lat="48.94941" lon="3.1305">
        <ele>56.1</ele>
        <time>2020-07-01T10:58:54Z</time>
      </trkpt>
      <trkpt lat="48.94941" lon="3.1305">
        <ele>56.1</ele>
        <time>2020-07-01T10:58:55Z</time>
      </trkpt>
      <trkpt lat="48.94944" lon="3.13046">
        <ele>56.3</ele>
        <time>2020-07-01T11:07:34Z</time>
      </trkpt>
      <trkpt lat="48.94945" lon="3.13046">
        <ele>56.3</ele>
        <time>2020-07-01T11:07:35Z</time>
      </trkpt>
      <trkpt lat="48.94945" lon="3.13046">
        <ele>56.3</ele>
        <time>2020-07-01T11:07:36Z</time>
      </trkpt>
      <trkpt lat="48.94945" lon="3.13045">
        <ele>56.3</ele>
        <time>2020-07-01T11:07:37Z</time>
      </trkpt>
      <trkpt lat="48.94945" lon="3.13046">
        <ele>56.4</ele>
        <time>2020-07-01T11:07:38Z</time>
      </trkpt>
      <trkpt lat="48.94945" lon="3.13046">
        <ele>56.4</ele>
        <time>2020-07-01T11:07:39Z</time>
      </trkpt>
      <trkpt lat="48.94945" lon="3.13045">
        <ele>56.4</ele>
        <time>2020-07-01T11:07:40Z</time>
      </trkpt>
      <trkpt lat="48.94946" lon="3.13045">
        <ele>56.4</ele>
        <time>2020-07-01T11:07:41Z</time>
      </trkpt>
      <trkpt lat="48.94946" lon="3.13045">
        <ele>56.4</ele>
        <time>2020-07-01T11:07:42Z</time>
      </trkpt>
      <trkpt lat="48.94946" lon="3.13045">
        <ele>56.4</ele>
        <time>2020-07-01T11:07:43Z</time>
      </trkpt>
      <trkpt lat="48.94946" lon="3.13045">
        <ele>56.4</ele>
        <time>2020-07-01T11:07:44Z</time>
      </trkpt>
      <trkpt lat="48.94945" lon="3.13044">
        <ele>56.4</ele>
        <time>2020-07-01T11:07:45Z</time>
      </trkpt>
      <trkpt lat="48.94945" lon="3.13044">
        <ele>56.5</ele>
        <time>2020-07-01T11:07:46Z</time>
      </trkpt>
      <trkpt lat="48.94945" lon="3.13043">
        <ele>56.5</ele>
        <time>2020-07-01T11:07:47Z</time>
      </trkpt>
      <trkpt lat="48.94939" lon="3.13026">
        <ele>57.1</ele>
        <time>2020-07-01T11:09:14Z</time>
      </trkpt>
      <trkpt lat="48.94939" lon="3.13025">
        <ele>57.1</ele>
        <time>2020-07-01T11:09:15Z</time>
      </trkpt>
      <trkpt lat="48.94939" lon="3.13026">
        <ele>57.2</ele>
        <time>2020-07-01T11:09:16Z</time>
      </trkpt>
      <trkpt lat="48.94938" lon="3.13027">
        <ele>57.2</ele>
        <time>2020-07-01T11:09:17Z</time>
      </trkpt>
      <trkpt lat="48.94938" lon="3.13026">
        <ele>57.2</ele>
        <time>2020-07-01T11:09:18Z</time>
      </trkpt>
      <trkpt lat="48.94938" lon="3.13026">
        <ele>57.2</ele>
        <time>2020-07-01T11:09:19Z</time>
      </trkpt>
      <trkpt lat="48.94938" lon="3.13026">
        <ele>57.2</ele>
        <time>2020-07-01T11:09:20Z</time>
      </trkpt>
      <trkpt lat="48.94938" lon="3.13024">
        <ele>57.3</ele>
        <time>2020-07-01T11:09:21Z</time>
      </trkpt>
      <trkpt lat="48.94938" lon="3.13024">
        <ele>57.3</ele>
        <time>2020-07-01T11:09:22Z</time>
      </trkpt>
      <trkpt lat="48.94938" lon="3.13023">
        <ele>57.3</ele>
        <time>2020-07-01T11:09:23Z</time>
      </trkpt>
      <trkpt lat="48.94938" lon="3.13022">
        <ele>57.4</ele>
        <time>2020-07-01T11:09:24Z</time>
      </trkpt>
      <trkpt lat="48.94939" lon="3.13023">
        <ele>57.4</ele>
        <time>2020-07-01T11:09:25Z</time>
      </trkpt>
      <trkpt lat="48.94938" lon="3.13021">
        <ele>57.4</ele>
        <time>2020-07-01T11:09:26Z</time>
      </trkpt>
      <trkpt lat="48.94939" lon="3.13021">
        <ele>57.5</ele>
        <time>2020-07-01T11:09:27Z</time>
      </trkpt>
      <trkpt lat="48.94938" lon="3.13019">
        <ele>57.5</ele>
        <time>2020-07-01T11:09:28Z</time>
      </trkpt>
      <trkpt lat="48.94938" lon="3.13017">
        <ele>57.6</ele>
        <time>2020-07-01T11:09:29Z</time>
      </trkpt>
      <trkpt lat="48.94939" lon="3.13016">
        <ele>57.6</ele>
        <time>2020-07-01T11:09:30Z</time>
      </trkpt>
      <trkpt lat="48.94939" lon="3.13016">
        <ele>57.6</ele>
        <time>2020-07-01T11:09:31Z</time>
      </trkpt>
      <trkpt lat="48.94939" lon="3.13015">
        <ele>57.6</ele>
        <time>2020-07-01T11:09:32Z</time>
      </trkpt>
      <trkpt lat="48.94939" lon="3.13014">
        <ele>57.6</ele>
        <time>2020-07-01T11:09:33Z</time>
      </trkpt>
      <trkpt lat="48.9494" lon="3.13014">
        <ele>57.6</ele>
        <time>2020-07-01T11:09:34Z</time>
      </trkpt>
      <trkpt lat="48.94943" lon="3.13013">
        <ele>57.7</ele>
        <time>2020-07-01T11:09:35Z</time>
      </trkpt>
      <trkpt lat="48.94945" lon="3.13012">
        <ele>57.7</ele>
        <time>2020-07-01T11:09:36Z</time>
      </trkpt>
      <trkpt lat="48.94948" lon="3.13013">
        <ele>57.7</ele>
        <time>2020-07-01T11:09:37Z</time>
      </trkpt>
      <trkpt lat="48.94948" lon="3.13012">
        <ele>57.7</ele>
        <time>2020-07-01T11:09:38Z</time>
      </trkpt>
      <trkpt lat="48.94948" lon="3.13013">
        <ele>57.7</ele>
        <time>2020-07-01T11:09:39Z</time>
      </trkpt>
      <trkpt lat="48.94949" lon="3.13014">
        <ele>57.7</ele>
        <time>2020-07-01T11:09:40Z</time>
      </trkpt>
      <trkpt lat="48.94949" lon="3.13015">
        <ele>57.7</ele>
        <time>2020-07-01T11:09:41Z</time>
      </trkpt>
      <trkpt lat="48.9495" lon="3.13016">
        <ele>57.7</ele>
        <time>2020-07-01T11:09:42Z</time>
      </trkpt>
      <trkpt lat="48.94951" lon="3.13017">
        <ele>57.7</ele>
        <time>2020-07-01T11:09:43Z</time>
      </trkpt>
      <trkpt lat="48.94951" lon="3.13016">
        <ele>57.7</ele>
        <time>2020-07-01T11:09:44Z</time>
      </trkpt>
      <trkpt lat="48.94952" lon="3.13015">
        <ele>57.7</ele>
        <time>2020-07-01T11:09:45Z</time>
      </trkpt>
      <trkpt lat="48.94952" lon="3.13015">
        <ele>57.7</ele>
        <time>2020-07-01T11:09:46Z</time>
      </trkpt>
      <trkpt lat="48.94952" lon="3.13015">
        <ele>57.7</ele>
        <time>2020-07-01T11:09:47Z</time>
      </trkpt>
      <trkpt lat="48.94952" lon="3.13014">
        <ele>57.7</ele>
        <time>2020-07-01T11:09:48Z</time>
      </trkpt>
      <trkpt lat="48.94951" lon="3.13013">
        <ele>57.7</ele>
        <time>2020-07-01T11:09:49Z</time>
      </trkpt>
      <trkpt lat="48.94951" lon="3.13012">
        <ele>57.7</ele>
        <time>2020-07-01T11:09:50Z</time>
      </trkpt>
      <trkpt lat="48.9495" lon="3.13011">
        <ele>57.7</ele>
        <time>2020-07-01T11:09:51Z</time>
      </trkpt>
      <trkpt lat="48.94949" lon="3.1301">
        <ele>57.7</ele>
        <time>2020-07-01T11:09:52Z</time>
      </trkpt>
      <trkpt lat="48.94949" lon="3.13008">
        <ele>57.7</ele>
        <time>2020-07-01T11:09:53Z</time>
      </trkpt>
      <trkpt lat="48.94949" lon="3.13006">
        <ele>57.7</ele>
        <time>2020-07-01T11:09:54Z</time>
      </trkpt>
      <trkpt lat="48.94948" lon="3.13004">
        <ele>57.7</ele>
        <time>2020-07-01T11:09:55Z</time>
      </trkpt>
      <trkpt lat="48.94948" lon="3.13003">
        <ele>57.7</ele>
        <time>2020-07-01T11:09:56Z</time>
      </trkpt>
      <trkpt lat="48.94948" lon="3.13002">
        <ele>57.7</ele>
        <time>2020-07-01T11:09:57Z</time>
      </trkpt>
      <trkpt lat="48.94947" lon="3.13002">
        <ele>57.7</ele>
        <time>2020-07-01T11:09:58Z</time>
      </trkpt>
      <trkpt lat="48.94947" lon="3.13001">
        <ele>57.7</ele>
        <time>2020-07-01T11:09:59Z</time>
      </trkpt>
      <trkpt lat="48.94947" lon="3.13001">
        <ele>57.7</ele>
        <time>2020-07-01T11:10:00Z</time>
      </trkpt>
      <trkpt lat="48.94947" lon="3.13001">
        <ele>57.7</ele>
        <time>2020-07-01T11:10:01Z</time>
      </trkpt>
      <trkpt lat="48.94946" lon="3.13">
        <ele>57.7</ele>
        <time>2020-07-01T11:10:02Z</time>
      </trkpt>
      <trkpt lat="48.94947" lon="3.13">
        <ele>57.7</ele>
        <time>2020-07-01T11:10:03Z</time>
      </trkpt>
      <trkpt lat="48.94947" lon="3.13">
        <ele>57.7</ele>
        <time>2020-07-01T11:10:04Z</time>
      </trkpt>
      <trkpt lat="48.94947" lon="3.13001">
        <ele>57.7</ele>
        <time>2020-07-01T11:10:05Z</time>
      </trkpt>
      <trkpt lat="48.94946" lon="3.13">
        <ele>57.7</ele>
        <time>2020-07-01T11:10:06Z</time>
      </trkpt>
      <trkpt lat="48.94946" lon="3.13">
        <ele>57.7</ele>
        <time>2020-07-01T11:10:07Z</time>
      </trkpt>
      <trkpt lat="48.94946" lon="3.13">
        <ele>57.7</ele>
        <time>2020-07-01T11:10:08Z</time>
      </trkpt>
      <trkpt lat="48.94946" lon="3.13">
        <ele>57.7</ele>
        <time>2020-07-01T11:10:09Z</time>
      </trkpt>
      <trkpt lat="48.94946" lon="3.13001">
        <ele>57.7</ele>
        <time>2020-07-01T11:10:10Z</time>
      </trkpt>
      <trkpt lat="48.94946" lon="3.13">
        <ele>57.7</ele>
        <time>2020-07-01T11:10:11Z</time>
      </trkpt>
      <trkpt lat="48.94945" lon="3.13002">
        <ele>57.7</ele>
        <time>2020-07-01T11:10:12Z</time>
      </trkpt>
      <trkpt lat="48.94946" lon="3.13003">
        <ele>57.7</ele>
        <time>2020-07-01T11:10:13Z</time>
      </trkpt>
      <trkpt lat="48.94946" lon="3.13004">
        <ele>57.7</ele>
        <time>2020-07-01T11:10:14Z</time>
      </trkpt>
      <trkpt lat="48.94947" lon="3.13004">
        <ele>57.7</ele>
        <time>2020-07-01T11:10:15Z</time>
      </trkpt>
      <trkpt lat="48.94947" lon="3.13005">
        <ele>57.7</ele>
        <time>2020-07-01T11:10:16Z</time>
      </trkpt>
      <trkpt lat="48.94947" lon="3.13005">
        <ele>57.7</ele>
        <time>2020-07-01T11:10:17Z</time>
      </trkpt>
      <trkpt lat="48.94947" lon="3.13005">
        <ele>57.7</ele>
        <time>2020-07-01T11:10:18Z</time>
      </trkpt>
      <trkpt lat="48.94946" lon="3.13005">
        <ele>57.7</ele>
        <time>2020-07-01T11:10:19Z</time>
      </trkpt>
      <trkpt lat="48.94946" lon="3.13005">
        <ele>57.7</ele>
        <time>2020-07-01T11:10:20Z</time>
      </trkpt>
      <trkpt lat="48.94945" lon="3.13004">
        <ele>57.7</ele>
        <time>2020-07-01T11:10:21Z</time>
      </trkpt>
      <trkpt lat="48.94946" lon="3.13002">
        <ele>57.7</ele>
        <time>2020-07-01T11:10:22Z</time>
      </trkpt>
      <trkpt lat="48.94946" lon="3.13">
        <ele>57.7</ele>
        <time>2020-07-01T11:10:23Z</time>
      </trkpt>
      <trkpt lat="48.94946" lon="3.13">
        <ele>57.7</ele>
        <time>2020-07-01T11:10:24Z</time>
      </trkpt>
      <trkpt lat="48.94946" lon="3.12999">
        <ele>57.7</ele>
        <time>2020-07-01T11:10:25Z</time>
      </trkpt>
      <trkpt lat="48.94947" lon="3.12999">
        <ele>57.7</ele>
        <time>2020-07-01T11:10:26Z</time>
      </trkpt>
      <trkpt lat="48.94946" lon="3.12999">
        <ele>57.7</ele>
        <time>2020-07-01T11:10:27Z</time>
      </trkpt>
      <trkpt lat="48.94946" lon="3.13">
        <ele>57.7</ele>
        <time>2020-07-01T11:10:28Z</time>
      </trkpt>
      <trkpt lat="48.94946" lon="3.13">
        <ele>57.7</ele>
        <time>2020-07-01T11:10:29Z</time>
      </trkpt>
      <trkpt lat="48.94946" lon="3.13001">
        <ele>57.7</ele>
        <time>2020-07-01T11:10:30Z</time>
      </trkpt>
      <trkpt lat="48.94945" lon="3.13002">
        <ele>57.7</ele>
        <time>2020-07-01T11:10:31Z</time>
      </trkpt>
      <trkpt lat="48.94944" lon="3.13002">
        <ele>57.7</ele>
        <time>2020-07-01T11:10:32Z</time>
      </trkpt>
      <trkpt lat="48.94944" lon="3.13002">
        <ele>57.7</ele>
        <time>2020-07-01T11:10:33Z</time>
      </trkpt>
      <trkpt lat="48.94944" lon="3.13002">
        <ele>57.7</ele>
        <time>2020-07-01T11:10:34Z</time>
      </trkpt>
      <trkpt lat="48.94945" lon="3.13002">
        <ele>57.7</ele>
        <time>2020-07-01T11:10:35Z</time>
      </trkpt>
      <trkpt lat="48.94945" lon="3.13005">
        <ele>57.7</ele>
        <time>2020-07-01T11:10:36Z</time>
      </trkpt>
      <trkpt lat="48.94944" lon="3.13007">
        <ele>57.7</ele>
        <time>2020-07-01T11:10:37Z</time>
      </trkpt>
      <trkpt lat="48.94944" lon="3.13007">
        <ele>57.7</ele>
        <time>2020-07-01T11:10:38Z</time>
      </trkpt>
      <trkpt lat="48.94944" lon="3.13008">
        <ele>57.7</ele>
        <time>2020-07-01T11:10:39Z</time>
      </trkpt>
      <trkpt lat="48.94944" lon="3.13008">
        <ele>57.7</ele>
        <time>2020-07-01T11:10:40Z</time>
      </trkpt>
      <trkpt lat="48.94944" lon="3.13009">
        <ele>57.7</ele>
        <time>2020-07-01T11:10:41Z</time>
      </trkpt>
      <trkpt lat="48.94944" lon="3.13009">
        <ele>57.7</ele>
        <time>2020-07-01T11:10:42Z</time>
      </trkpt>
      <trkpt lat="48.94944" lon="3.13009">
        <ele>57.7</ele>
        <time>2020-07-01T11:10:43Z</time>
      </trkpt>
      <trkpt lat="48.94944" lon="3.13009">
        <ele>57.7</ele>
        <time>2020-07-01T11:10:44Z</time>
      </trkpt>
      <trkpt lat="48.94944" lon="3.13011">
        <ele>57.7</ele>
        <time>2020-07-01T11:10:45Z</time>
      </trkpt>
      <trkpt lat="48.94944" lon="3.13011">
        <ele>57.7</ele>
        <time>2020-07-01T11:10:46Z</time>
      </trkpt>
      <trkpt lat="48.94944" lon="3.13013">
        <ele>57.7</ele>
        <time>2020-07-01T11:10:47Z</time>
      </trkpt>
      <trkpt lat="48.94944" lon="3.13013">
        <ele>57.7</ele>
        <time>2020-07-01T11:10:48Z</time>
      </trkpt>
      <trkpt lat="48.94944" lon="3.13013">
        <ele>57.7</ele>
        <time>2020-07-01T11:10:49Z</time>
      </trkpt>
      <trkpt lat="48.94943" lon="3.13013">
        <ele>57.7</ele>
        <time>2020-07-01T11:10:50Z</time>
      </trkpt>
      <trkpt lat="48.94943" lon="3.13013">
        <ele>57.7</ele>
        <time>2020-07-01T11:10:51Z</time>
      </trkpt>
      <trkpt lat="48.94943" lon="3.13013">
        <ele>57.7</ele>
        <time>2020-07-01T11:10:52Z</time>
      </trkpt>
      <trkpt lat="48.94943" lon="3.13013">
        <ele>57.7</ele>
        <time>2020-07-01T11:10:53Z</time>
      </trkpt>
      <trkpt lat="48.94943" lon="3.13013">
        <ele>57.7</ele>
        <time>2020-07-01T11:10:54Z</time>
      </trkpt>
      <trkpt lat="48.94943" lon="3.13013">
        <ele>57.7</ele>
        <time>2020-07-01T11:10:55Z</time>
      </trkpt>
      <trkpt lat="48.94943" lon="3.13012">
        <ele>57.7</ele>
        <time>2020-07-01T11:10:56Z</time>
      </trkpt>
      <trkpt lat="48.94943" lon="3.13011">
        <ele>57.7</ele>
        <time>2020-07-01T11:10:57Z</time>
      </trkpt>
      <trkpt lat="48.94944" lon="3.1301">
        <ele>57.7</ele>
        <time>2020-07-01T11:10:58Z</time>
      </trkpt>
      <trkpt lat="48.94944" lon="3.13009">
        <ele>57.7</ele>
        <time>2020-07-01T11:10:59Z</time>
      </trkpt>
      <trkpt lat="48.94944" lon="3.13012">
        <ele>57.7</ele>
        <time>2020-07-01T11:11:00Z</time>
      </trkpt>
      <trkpt lat="48.94944" lon="3.13013">
        <ele>57.7</ele>
        <time>2020-07-01T11:11:01Z</time>
      </trkpt>
      <trkpt lat="48.94943" lon="3.13014">
        <ele>57.7</ele>
        <time>2020-07-01T11:11:02Z</time>
      </trkpt>
      <trkpt lat="48.94943" lon="3.13015">
        <ele>57.7</ele>
        <time>2020-07-01T11:11:03Z</time>
      </trkpt>
      <trkpt lat="48.94943" lon="3.13015">
        <ele>57.7</ele>
        <time>2020-07-01T11:11:04Z</time>
      </trkpt>
      <trkpt lat="48.94943" lon="3.13015">
        <ele>57.7</ele>
        <time>2020-07-01T11:11:05Z</time>
      </trkpt>
      <trkpt lat="48.94943" lon="3.13015">
        <ele>57.7</ele>
        <time>2020-07-01T11:11:06Z</time>
      </trkpt>
      <trkpt lat="48.94943" lon="3.13016">
        <ele>57.7</ele>
        <time>2020-07-01T11:11:07Z</time>
      </trkpt>
      <trkpt lat="48.94943" lon="3.13016">
        <ele>57.7</ele>
        <time>2020-07-01T11:11:08Z</time>
      </trkpt>
      <trkpt lat="48.94943" lon="3.13017">
        <ele>57.7</ele>
        <time>2020-07-01T11:11:09Z</time>
      </trkpt>
      <trkpt lat="48.94943" lon="3.13017">
        <ele>57.7</ele>
        <time>2020-07-01T11:11:10Z</time>
      </trkpt>
      <trkpt lat="48.94944" lon="3.13019">
        <ele>57.7</ele>
        <time>2020-07-01T11:11:11Z</time>
      </trkpt>
      <trkpt lat="48.94945" lon="3.13023">
        <ele>57.6</ele>
        <time>2020-07-01T11:11:12Z</time>
      </trkpt>
      <trkpt lat="48.94939" lon="3.13044">
        <ele>56.4</ele>
        <time>2020-07-01T11:13:41Z</time>
      </trkpt>
      <trkpt lat="48.94939" lon="3.13044">
        <ele>56.4</ele>
        <time>2020-07-01T11:13:42Z</time>
      </trkpt>
      <trkpt lat="48.94938" lon="3.13044">
        <ele>56.4</ele>
        <time>2020-07-01T11:13:43Z</time>
      </trkpt>
      <trkpt lat="48.94937" lon="3.13044">
        <ele>56.4</ele>
        <time>2020-07-01T11:13:44Z</time>
      </trkpt>
      <trkpt lat="48.94937" lon="3.13045">
        <ele>56.4</ele>
        <time>2020-07-01T11:13:45Z</time>
      </trkpt>
      <trkpt lat="48.94936" lon="3.13045">
        <ele>56.4</ele>
        <time>2020-07-01T11:13:46Z</time>
      </trkpt>
      <trkpt lat="48.94936" lon="3.13043">
        <ele>56.4</ele>
        <time>2020-07-01T11:13:47Z</time>
      </trkpt>
      <trkpt lat="48.94936" lon="3.13043">
        <ele>56.4</ele>
        <time>2020-07-01T11:13:48Z</time>
      </trkpt>
      <trkpt lat="48.94936" lon="3.13043">
        <ele>56.4</ele>
        <time>2020-07-01T11:13:49Z</time>
      </trkpt>
      <trkpt lat="48.94936" lon="3.13043">
        <ele>56.4</ele>
        <time>2020-07-01T11:13:50Z</time>
      </trkpt>
      <trkpt lat="48.94936" lon="3.13041">
        <ele>56.4</ele>
        <time>2020-07-01T11:13:51Z</time>
      </trkpt>
      <trkpt lat="48.94936" lon="3.13041">
        <ele>56.4</ele>
        <time>2020-07-01T11:13:52Z</time>
      </trkpt>
      <trkpt lat="48.94936" lon="3.13041">
        <ele>56.4</ele>
        <time>2020-07-01T11:13:53Z</time>
      </trkpt>
      <trkpt lat="48.94937" lon="3.1304">
        <ele>56.6</ele>
        <time>2020-07-01T11:13:54Z</time>
      </trkpt>
      <trkpt lat="48.94937" lon="3.1304">
        <ele>56.6</ele>
        <time>2020-07-01T11:13:55Z</time>
      </trkpt>
      <trkpt lat="48.94938" lon="3.1304">
        <ele>56.6</ele>
        <time>2020-07-01T11:13:56Z</time>
      </trkpt>
      <trkpt lat="48.94938" lon="3.1304">
        <ele>56.6</ele>
        <time>2020-07-01T11:13:57Z</time>
      </trkpt>
      <trkpt lat="48.94939" lon="3.1304">
        <ele>56.6</ele>
        <time>2020-07-01T11:13:58Z</time>
      </trkpt>
      <trkpt lat="48.94939" lon="3.1304">
        <ele>56.6</ele>
        <time>2020-07-01T11:13:59Z</time>
      </trkpt>
      <trkpt lat="48.9494" lon="3.13041">
        <ele>56.7</ele>
        <time>2020-07-01T11:14:00Z</time>
      </trkpt>
      <trkpt lat="48.9494" lon="3.13041">
        <ele>56.7</ele>
        <time>2020-07-01T11:14:01Z</time>
      </trkpt>
      <trkpt lat="48.9494" lon="3.13042">
        <ele>56.7</ele>
        <time>2020-07-01T11:14:02Z</time>
      </trkpt>
      <trkpt lat="48.9494" lon="3.13042">
        <ele>56.7</ele>
        <time>2020-07-01T11:14:03Z</time>
      </trkpt>
      <trkpt lat="48.9494" lon="3.13043">
        <ele>56.7</ele>
        <time>2020-07-01T11:14:04Z</time>
      </trkpt>
      <trkpt lat="48.9494" lon="3.13043">
        <ele>56.7</ele>
        <time>2020-07-01T11:14:05Z</time>
      </trkpt>
      <trkpt lat="48.9494" lon="3.13043">
        <ele>56.7</ele>
        <time>2020-07-01T11:14:06Z</time>
      </trkpt>
      <trkpt lat="48.9494" lon="3.13043">
        <ele>56.7</ele>
        <time>2020-07-01T11:14:07Z</time>
      </trkpt>
      <trkpt lat="48.9494" lon="3.13043">
        <ele>56.7</ele>
        <time>2020-07-01T11:14:08Z</time>
      </trkpt>
      <trkpt lat="48.9494" lon="3.13043">
        <ele>56.7</ele>
        <time>2020-07-01T11:14:09Z</time>
      </trkpt>
      <trkpt lat="48.9494" lon="3.13043">
        <ele>56.7</ele>
        <time>2020-07-01T11:14:10Z</time>
      </trkpt>
      <trkpt lat="48.9494" lon="3.13043">
        <ele>56.7</ele>
        <time>2020-07-01T11:14:11Z</time>
      </trkpt>
      <trkpt lat="48.9494" lon="3.13043">
        <ele>56.7</ele>
        <time>2020-07-01T11:14:12Z</time>
      </trkpt>
      <trkpt lat="48.9494" lon="3.13043">
        <ele>56.7</ele>
        <time>2020-07-01T11:14:13Z</time>
      </trkpt>
      <trkpt lat="48.94941" lon="3.13044">
        <ele>56.8</ele>
        <time>2020-07-01T11:14:14Z</time>
      </trkpt>
      <trkpt lat="48.94948" lon="3.13051">
        <ele>57</ele>
        <time>2020-07-01T11:14:37Z</time>
      </trkpt>
      <trkpt lat="48.94948" lon="3.13051">
        <ele>57.1</ele>
        <time>2020-07-01T11:14:38Z</time>
      </trkpt>
      <trkpt lat="48.94948" lon="3.13051">
        <ele>57.1</ele>
        <time>2020-07-01T11:14:39Z</time>
      </trkpt>
      <trkpt lat="48.94948" lon="3.13052">
        <ele>57.1</ele>
        <time>2020-07-01T11:14:40Z</time>
      </trkpt>
      <trkpt lat="48.94948" lon="3.13052">
        <ele>57.1</ele>
        <time>2020-07-01T11:14:41Z</time>
      </trkpt>
      <trkpt lat="48.94948" lon="3.13052">
        <ele>57.1</ele>
        <time>2020-07-01T11:14:42Z</time>
      </trkpt>
      <trkpt lat="48.94948" lon="3.13051">
        <ele>57.1</ele>
        <time>2020-07-01T11:14:43Z</time>
      </trkpt>
      <trkpt lat="48.94948" lon="3.13051">
        <ele>57.1</ele>
        <time>2020-07-01T11:14:44Z</time>
      </trkpt>
      <trkpt lat="48.94948" lon="3.13051">
        <ele>57.1</ele>
        <time>2020-07-01T11:14:45Z</time>
      </trkpt>
      <trkpt lat="48.94948" lon="3.13051">
        <ele>57.1</ele>
        <time>2020-07-01T11:14:46Z</time>
      </trkpt>
      <trkpt lat="48.94948" lon="3.13051">
        <ele>57.1</ele>
        <time>2020-07-01T11:14:47Z</time>
      </trkpt>
      <trkpt lat="48.94948" lon="3.13051">
        <ele>57.1</ele>
        <time>2020-07-01T11:14:48Z</time>
      </trkpt>
      <trkpt lat="48.94948" lon="3.13051">
        <ele>57.1</ele>
        <time>2020-07-01T11:14:49Z</time>
      </trkpt>
      <trkpt lat="48.94948" lon="3.13051">
        <ele>57.1</ele>
        <time>2020-07-01T11:14:50Z</time>
      </trkpt>
      <trkpt lat="48.94948" lon="3.13051">
        <ele>57.1</ele>
        <time>2020-07-01T11:14:51Z</time>
      </trkpt>
      <trkpt lat="48.94948" lon="3.13051">
        <ele>57.1</ele>
        <time>2020-07-01T11:14:52Z</time>
      </trkpt>
      <trkpt lat="48.94948" lon="3.13051">
        <ele>57.1</ele>
        <time>2020-07-01T11:14:53Z</time>
      </trkpt>
      <trkpt lat="48.94948" lon="3.13051">
        <ele>57.1</ele>
        <time>2020-07-01T11:14:54Z</time>
      </trkpt>
      <trkpt lat="48.94948" lon="3.13051">
        <ele>57.1</ele>
        <time>2020-07-01T11:14:55Z</time>
      </trkpt>
      <trkpt lat="48.94948" lon="3.13051">
        <ele>57.1</ele>
        <time>2020-07-01T11:14:56Z</time>
      </trkpt>
      <trkpt lat="48.94948" lon="3.13051">
        <ele>57.1</ele>
        <time>2020-07-01T11:14:57Z</time>
      </trkpt>
      <trkpt lat="48.94948" lon="3.13051">
        <ele>57.1</ele>
        <time>2020-07-01T11:14:58Z</time>
      </trkpt>
      <trkpt lat="48.9495" lon="3.13048">
        <ele>57.2</ele>
        <time>2020-07-01T11:15:17Z</time>
      </trkpt>
      <trkpt lat="48.9495" lon="3.13047">
        <ele>57.2</ele>
        <time>2020-07-01T11:15:18Z</time>
      </trkpt>
      <trkpt lat="48.94951" lon="3.13046">
        <ele>57.2</ele>
        <time>2020-07-01T11:15:19Z</time>
      </trkpt>
      <trkpt lat="48.94951" lon="3.13045">
        <ele>57.3</ele>
        <time>2020-07-01T11:15:20Z</time>
      </trkpt>
      <trkpt lat="48.94952" lon="3.13044">
        <ele>57.3</ele>
        <time>2020-07-01T11:15:21Z</time>
      </trkpt>
      <trkpt lat="48.94953" lon="3.13043">
        <ele>57.3</ele>
        <time>2020-07-01T11:15:22Z</time>
      </trkpt>
      <trkpt lat="48.94953" lon="3.13041">
        <ele>57.4</ele>
        <time>2020-07-01T11:15:23Z</time>
      </trkpt>
      <trkpt lat="48.94954" lon="3.13039">
        <ele>57.4</ele>
        <time>2020-07-01T11:15:24Z</time>
      </trkpt>
      <trkpt lat="48.94954" lon="3.13038">
        <ele>57.5</ele>
        <time>2020-07-01T11:15:25Z</time>
      </trkpt>
      <trkpt lat="48.94955" lon="3.13037">
        <ele>57.5</ele>
        <time>2020-07-01T11:15:26Z</time>
      </trkpt>
      <trkpt lat="48.94955" lon="3.13036">
        <ele>57.5</ele>
        <time>2020-07-01T11:15:27Z</time>
      </trkpt>
      <trkpt lat="48.94955" lon="3.13036">
        <ele>57.5</ele>
        <time>2020-07-01T11:15:28Z</time>
      </trkpt>
      <trkpt lat="48.94955" lon="3.13036">
        <ele>57.5</ele>
        <time>2020-07-01T11:15:29Z</time>
      </trkpt>
      <trkpt lat="48.94955" lon="3.13035">
        <ele>57.5</ele>
        <time>2020-07-01T11:15:30Z</time>
      </trkpt>
      <trkpt lat="48.94956" lon="3.13034">
        <ele>57.5</ele>
        <time>2020-07-01T11:15:31Z</time>
      </trkpt>
      <trkpt lat="48.94956" lon="3.13033">
        <ele>57.6</ele>
        <time>2020-07-01T11:15:32Z</time>
      </trkpt>
      <trkpt lat="48.94956" lon="3.13033">
        <ele>57.6</ele>
        <time>2020-07-01T11:15:33Z</time>
      </trkpt>
      <trkpt lat="48.94955" lon="3.13033">
        <ele>57.6</ele>
        <time>2020-07-01T11:15:34Z</time>
      </trkpt>
      <trkpt lat="48.94955" lon="3.13033">
        <ele>57.6</ele>
        <time>2020-07-01T11:15:35Z</time>
      </trkpt>
      <trkpt lat="48.94955" lon="3.13032">
        <ele>57.6</ele>
        <time>2020-07-01T11:15:36Z</time>
      </trkpt>
      <trkpt lat="48.94955" lon="3.13032">
        <ele>57.6</ele>
        <time>2020-07-01T11:15:37Z</time>
      </trkpt>
      <trkpt lat="48.94955" lon="3.13032">
        <ele>57.6</ele>
        <time>2020-07-01T11:15:38Z</time>
      </trkpt>
      <trkpt lat="48.94955" lon="3.13031">
        <ele>57.6</ele>
        <time>2020-07-01T11:15:39Z</time>
      </trkpt>
      <trkpt lat="48.94955" lon="3.1303">
        <ele>57.6</ele>
        <time>2020-07-01T11:15:40Z</time>
      </trkpt>
      <trkpt lat="48.94956" lon="3.13028">
        <ele>57.7</ele>
        <time>2020-07-01T11:15:41Z</time>
      </trkpt>
      <trkpt lat="48.94956" lon="3.13027">
        <ele>57.7</ele>
        <time>2020-07-01T11:15:42Z</time>
      </trkpt>
      <trkpt lat="48.94956" lon="3.13026">
        <ele>57.7</ele>
        <time>2020-07-01T11:15:43Z</time>
      </trkpt>
      <trkpt lat="48.94957" lon="3.13025">
        <ele>57.7</ele>
        <time>2020-07-01T11:15:44Z</time>
      </trkpt>
      <trkpt lat="48.94957" lon="3.13025">
        <ele>57.7</ele>
        <time>2020-07-01T11:15:45Z</time>
      </trkpt>
      <trkpt lat="48.94957" lon="3.13025">
        <ele>57.7</ele>
        <time>2020-07-01T11:15:46Z</time>
      </trkpt>
      <trkpt lat="48.94957" lon="3.13024">
        <ele>57.7</ele>
        <time>2020-07-01T11:15:47Z</time>
      </trkpt>
      <trkpt lat="48.94957" lon="3.13024">
        <ele>57.7</ele>
        <time>2020-07-01T11:15:48Z</time>
      </trkpt>
      <trkpt lat="48.94958" lon="3.13024">
        <ele>57.7</ele>
        <time>2020-07-01T11:15:49Z</time>
      </trkpt>
      <trkpt lat="48.94957" lon="3.13024">
        <ele>57.7</ele>
        <time>2020-07-01T11:15:50Z</time>
      </trkpt>
      <trkpt lat="48.94957" lon="3.13025">
        <ele>57.7</ele>
        <time>2020-07-01T11:15:51Z</time>
      </trkpt>
      <trkpt lat="48.94957" lon="3.13025">
        <ele>57.7</ele>
        <time>2020-07-01T11:15:52Z</time>
      </trkpt>
      <trkpt lat="48.94957" lon="3.13027">
        <ele>57.7</ele>
        <time>2020-07-01T11:15:53Z</time>
      </trkpt>
      <trkpt lat="48.94956" lon="3.13029">
        <ele>57.7</ele>
        <time>2020-07-01T11:15:54Z</time>
      </trkpt>
      <trkpt lat="48.94956" lon="3.13029">
        <ele>57.7</ele>
        <time>2020-07-01T11:15:55Z</time>
      </trkpt>
      <trkpt lat="48.94956" lon="3.1303">
        <ele>57.7</ele>
        <time>2020-07-01T11:15:56Z</time>
      </trkpt>
      <trkpt lat="48.94955" lon="3.1303">
        <ele>57.7</ele>
        <time>2020-07-01T11:15:57Z</time>
      </trkpt>
      <trkpt lat="48.94954" lon="3.1303">
        <ele>57.7</ele>
        <time>2020-07-01T11:15:58Z</time>
      </trkpt>
      <trkpt lat="48.94954" lon="3.13029">
        <ele>57.7</ele>
        <time>2020-07-01T11:15:59Z</time>
      </trkpt>
      <trkpt lat="48.94954" lon="3.13028">
        <ele>57.7</ele>
        <time>2020-07-01T11:16:00Z</time>
      </trkpt>
      <trkpt lat="48.94953" lon="3.13027">
        <ele>57.7</ele>
        <time>2020-07-01T11:16:01Z</time>
      </trkpt>
      <trkpt lat="48.94953" lon="3.13027">
        <ele>57.7</ele>
        <time>2020-07-01T11:16:02Z</time>
      </trkpt>
      <trkpt lat="48.94952" lon="3.13028">
        <ele>57.7</ele>
        <time>2020-07-01T11:16:03Z</time>
      </trkpt>
      <trkpt lat="48.94951" lon="3.13028">
        <ele>57.7</ele>
        <time>2020-07-01T11:16:04Z</time>
      </trkpt>
      <trkpt lat="48.94951" lon="3.13028">
        <ele>57.7</ele>
        <time>2020-07-01T11:16:05Z</time>
      </trkpt>
      <trkpt lat="48.9495" lon="3.1303">
        <ele>57.7</ele>
        <time>2020-07-01T11:16:06Z</time>
      </trkpt>
      <trkpt lat="48.9495" lon="3.1303">
        <ele>57.7</ele>
        <time>2020-07-01T11:16:07Z</time>
      </trkpt>
      <trkpt lat="48.94949" lon="3.13031">
        <ele>57.8</ele>
        <time>2020-07-01T11:16:08Z</time>
      </trkpt>
      <trkpt lat="48.94949" lon="3.13031">
        <ele>57.8</ele>
        <time>2020-07-01T11:16:09Z</time>
      </trkpt>
      <trkpt lat="48.94949" lon="3.1303">
        <ele>57.8</ele>
        <time>2020-07-01T11:16:10Z</time>
      </trkpt>
      <trkpt lat="48.94949" lon="3.13029">
        <ele>57.8</ele>
        <time>2020-07-01T11:16:11Z</time>
      </trkpt>
      <trkpt lat="48.94949" lon="3.13026">
        <ele>57.8</ele>
        <time>2020-07-01T11:16:12Z</time>
      </trkpt>
      <trkpt lat="48.9495" lon="3.13026">
        <ele>57.8</ele>
        <time>2020-07-01T11:16:13Z</time>
      </trkpt>
      <trkpt lat="48.94949" lon="3.13026">
        <ele>57.8</ele>
        <time>2020-07-01T11:16:14Z</time>
      </trkpt>
      <trkpt lat="48.94949" lon="3.13026">
        <ele>57.8</ele>
        <time>2020-07-01T11:16:15Z</time>
      </trkpt>
      <trkpt lat="48.94949" lon="3.13025">
        <ele>57.8</ele>
        <time>2020-07-01T11:16:16Z</time>
      </trkpt>
      <trkpt lat="48.94949" lon="3.13025">
        <ele>57.8</ele>
        <time>2020-07-01T11:16:17Z</time>
      </trkpt>
      <trkpt lat="48.9495" lon="3.13026">
        <ele>57.8</ele>
        <time>2020-07-01T11:16:18Z</time>
      </trkpt>
      <trkpt lat="48.9495" lon="3.13025">
        <ele>57.8</ele>
        <time>2020-07-01T11:16:19Z</time>
      </trkpt>
      <trkpt lat="48.9495" lon="3.13025">
        <ele>57.8</ele>
        <time>2020-07-01T11:16:20Z</time>
      </trkpt>
      <trkpt lat="48.9495" lon="3.13024">
        <ele>57.8</ele>
        <time>2020-07-01T11:16:21Z</time>
      </trkpt>
      <trkpt lat="48.9495" lon="3.13023">
        <ele>57.8</ele>
        <time>2020-07-01T11:16:22Z</time>
      </trkpt>
      <trkpt lat="48.9495" lon="3.13023">
        <ele>57.8</ele>
        <time>2020-07-01T11:16:23Z</time>
      </trkpt>
      <trkpt lat="48.94951" lon="3.13022">
        <ele>57.8</ele>
        <time>2020-07-01T11:16:24Z</time>
      </trkpt>
      <trkpt lat="48.94952" lon="3.13019">
        <ele>57.8</ele>
        <time>2020-07-01T11:16:25Z</time>
      </trkpt>
      <trkpt lat="48.94952" lon="3.13018">
        <ele>57.8</ele>
        <time>2020-07-01T11:16:26Z</time>
      </trkpt>
      <trkpt lat="48.94952" lon="3.13017">
        <ele>57.8</ele>
        <time>2020-07-01T11:16:27Z</time>
      </trkpt>
      <trkpt lat="48.94952" lon="3.13016">
        <ele>57.8</ele>
        <time>2020-07-01T11:16:28Z</time>
      </trkpt>
      <trkpt lat="48.94953" lon="3.13015">
        <ele>57.8</ele>
        <time>2020-07-01T11:16:29Z</time>
      </trkpt>
      <trkpt lat="48.94954" lon="3.13013">
        <ele>57.9</ele>
        <time>2020-07-01T11:16:30Z</time>
      </trkpt>
      <trkpt lat="48.94954" lon="3.13012">
        <ele>57.9</ele>
        <time>2020-07-01T11:16:31Z</time>
      </trkpt>
      <trkpt lat="48.94954" lon="3.1301">
        <ele>57.9</ele>
        <time>2020-07-01T11:16:32Z</time>
      </trkpt>
      <trkpt lat="48.94954" lon="3.13008">
        <ele>57.9</ele>
        <time>2020-07-01T11:16:33Z</time>
      </trkpt>
      <trkpt lat="48.94954" lon="3.13007">
        <ele>57.9</ele>
        <time>2020-07-01T11:16:34Z</time>
      </trkpt>
      <trkpt lat="48.94955" lon="3.13005">
        <ele>57.9</ele>
        <time>2020-07-01T11:16:35Z</time>
      </trkpt>
      <trkpt lat="48.94955" lon="3.13004">
        <ele>57.9</ele>
        <time>2020-07-01T11:16:36Z</time>
      </trkpt>
      <trkpt lat="48.94955" lon="3.13003">
        <ele>57.9</ele>
        <time>2020-07-01T11:16:37Z</time>
      </trkpt>
      <trkpt lat="48.94955" lon="3.13002">
        <ele>57.9</ele>
        <time>2020-07-01T11:16:38Z</time>
      </trkpt>
      <trkpt lat="48.94955" lon="3.13">
        <ele>58</ele>
        <time>2020-07-01T11:16:39Z</time>
      </trkpt>
      <trkpt lat="48.94956" lon="3.12999">
        <ele>58</ele>
        <time>2020-07-01T11:16:40Z</time>
      </trkpt>
      <trkpt lat="48.94956" lon="3.12999">
        <ele>58</ele>
        <time>2020-07-01T11:16:41Z</time>
      </trkpt>
      <trkpt lat="48.94956" lon="3.12997">
        <ele>58</ele>
        <time>2020-07-01T11:16:42Z</time>
      </trkpt>
      <trkpt lat="48.94957" lon="3.12993">
        <ele>58</ele>
        <time>2020-07-01T11:16:43Z</time>
      </trkpt>
      <trkpt lat="48.94957" lon="3.12992">
        <ele>58</ele>
        <time>2020-07-01T11:16:44Z</time>
      </trkpt>
      <trkpt lat="48.94958" lon="3.12989">
        <ele>58.1</ele>
        <time>2020-07-01T11:16:45Z</time>
      </trkpt>
      <trkpt lat="48.94958" lon="3.12987">
        <ele>58.1</ele>
        <time>2020-07-01T11:16:46Z</time>
      </trkpt>
      <trkpt lat="48.94958" lon="3.12985">
        <ele>58.1</ele>
        <time>2020-07-01T11:16:47Z</time>
      </trkpt>
      <trkpt lat="48.94958" lon="3.12984">
        <ele>58.1</ele>
        <time>2020-07-01T11:16:48Z</time>
      </trkpt>
      <trkpt lat="48.94958" lon="3.12983">
        <ele>58.1</ele>
        <time>2020-07-01T11:16:49Z</time>
      </trkpt>
      <trkpt lat="48.94958" lon="3.12982">
        <ele>58.1</ele>
        <time>2020-07-01T11:16:50Z</time>
      </trkpt>
      <trkpt lat="48.94958" lon="3.12981">
        <ele>58.1</ele>
        <time>2020-07-01T11:16:51Z</time>
      </trkpt>
      <trkpt lat="48.94958" lon="3.12979">
        <ele>58.1</ele>
        <time>2020-07-01T11:16:52Z</time>
      </trkpt>
      <trkpt lat="48.94959" lon="3.12977">
        <ele>58.2</ele>
        <time>2020-07-01T11:16:53Z</time>
      </trkpt>
      <trkpt lat="48.9496" lon="3.12974">
        <ele>58.2</ele>
        <time>2020-07-01T11:16:54Z</time>
      </trkpt>
      <trkpt lat="48.9496" lon="3.12974">
        <ele>58.2</ele>
        <time>2020-07-01T11:16:55Z</time>
      </trkpt>
      <trkpt lat="48.94961" lon="3.12974">
        <ele>58.2</ele>
        <time>2020-07-01T11:16:56Z</time>
      </trkpt>
      <trkpt lat="48.94961" lon="3.12973">
        <ele>58.2</ele>
        <time>2020-07-01T11:16:57Z</time>
      </trkpt>
      <trkpt lat="48.94962" lon="3.12972">
        <ele>58.2</ele>
        <time>2020-07-01T11:16:58Z</time>
      </trkpt>
      <trkpt lat="48.94962" lon="3.12972">
        <ele>58.2</ele>
        <time>2020-07-01T11:16:59Z</time>
      </trkpt>
      <trkpt lat="48.94962" lon="3.12973">
        <ele>58.2</ele>
        <time>2020-07-01T11:17:00Z</time>
      </trkpt>
      <trkpt lat="48.94962" lon="3.12973">
        <ele>58.2</ele>
        <time>2020-07-01T11:17:01Z</time>
      </trkpt>
      <trkpt lat="48.94963" lon="3.12971">
        <ele>58.2</ele>
        <time>2020-07-01T11:17:02Z</time>
      </trkpt>
      <trkpt lat="48.94963" lon="3.1297">
        <ele>58.3</ele>
        <time>2020-07-01T11:17:03Z</time>
      </trkpt>
      <trkpt lat="48.94964" lon="3.12968">
        <ele>58.3</ele>
        <time>2020-07-01T11:17:04Z</time>
      </trkpt>
      <trkpt lat="48.94964" lon="3.12969">
        <ele>58.3</ele>
        <time>2020-07-01T11:17:05Z</time>
      </trkpt>
      <trkpt lat="48.94964" lon="3.12969">
        <ele>58.3</ele>
        <time>2020-07-01T11:17:06Z</time>
      </trkpt>
      <trkpt lat="48.94964" lon="3.12968">
        <ele>58.3</ele>
        <time>2020-07-01T11:17:07Z</time>
      </trkpt>
      <trkpt lat="48.94964" lon="3.12968">
        <ele>58.3</ele>
        <time>2020-07-01T11:17:08Z</time>
      </trkpt>
      <trkpt lat="48.94964" lon="3.12968">
        <ele>58.3</ele>
        <time>2020-07-01T11:17:09Z</time>
      </trkpt>
      <trkpt lat="48.94964" lon="3.12969">
        <ele>58.3</ele>
        <time>2020-07-01T11:17:10Z</time>
      </trkpt>
      <trkpt lat="48.94965" lon="3.12968">
        <ele>58.3</ele>
        <time>2020-07-01T11:17:11Z</time>
      </trkpt>
      <trkpt lat="48.94966" lon="3.12968">
        <ele>58.3</ele>
        <time>2020-07-01T11:17:12Z</time>
      </trkpt>
      <trkpt lat="48.94967" lon="3.12973">
        <ele>58.4</ele>
        <time>2020-07-01T11:17:13Z</time>
      </trkpt>
      <trkpt lat="48.94966" lon="3.12981">
        <ele>58.5</ele>
        <time>2020-07-01T11:17:14Z</time>
      </trkpt>
      <trkpt lat="48.94963" lon="3.12987">
        <ele>58.3</ele>
        <time>2020-07-01T11:17:15Z</time>
      </trkpt>
      <trkpt lat="48.94965" lon="3.1299">
        <ele>58.2</ele>
        <time>2020-07-01T11:17:16Z</time>
      </trkpt>
      <trkpt lat="48.94964" lon="3.12993">
        <ele>58.2</ele>
        <time>2020-07-01T11:17:17Z</time>
      </trkpt>
      <trkpt lat="48.94962" lon="3.12996">
        <ele>58.1</ele>
        <time>2020-07-01T11:17:18Z</time>
      </trkpt>
      <trkpt lat="48.94961" lon="3.12997">
        <ele>58.1</ele>
        <time>2020-07-01T11:17:19Z</time>
      </trkpt>
      <trkpt lat="48.9496" lon="3.12998">
        <ele>58</ele>
        <time>2020-07-01T11:17:20Z</time>
      </trkpt>
      <trkpt lat="48.9496" lon="3.12998">
        <ele>58</ele>
        <time>2020-07-01T11:17:21Z</time>
      </trkpt>
      <trkpt lat="48.94959" lon="3.12999">
        <ele>58</ele>
        <time>2020-07-01T11:17:22Z</time>
      </trkpt>
      <trkpt lat="48.94959" lon="3.13">
        <ele>58</ele>
        <time>2020-07-01T11:17:23Z</time>
      </trkpt>
      <trkpt lat="48.9496" lon="3.13001">
        <ele>58</ele>
        <time>2020-07-01T11:17:24Z</time>
      </trkpt>
      <trkpt lat="48.9496" lon="3.13003">
        <ele>57.9</ele>
        <time>2020-07-01T11:17:25Z</time>
      </trkpt>
      <trkpt lat="48.94961" lon="3.13004">
        <ele>57.9</ele>
        <time>2020-07-01T11:17:26Z</time>
      </trkpt>
      <trkpt lat="48.94958" lon="3.13011">
        <ele>57.8</ele>
        <time>2020-07-01T11:17:27Z</time>
      </trkpt>
      <trkpt lat="48.94957" lon="3.13015">
        <ele>57.8</ele>
        <time>2020-07-01T11:17:28Z</time>
      </trkpt>
      <trkpt lat="48.94956" lon="3.13019">
        <ele>57.7</ele>
        <time>2020-07-01T11:17:29Z</time>
      </trkpt>
      <trkpt lat="48.94956" lon="3.1302">
        <ele>57.7</ele>
        <time>2020-07-01T11:17:30Z</time>
      </trkpt>
      <trkpt lat="48.94954" lon="3.13025">
        <ele>57.6</ele>
        <time>2020-07-01T11:17:31Z</time>
      </trkpt>
      <trkpt lat="48.94953" lon="3.13026">
        <ele>57.6</ele>
        <time>2020-07-01T11:17:32Z</time>
      </trkpt>
      <trkpt lat="48.94952" lon="3.13029">
        <ele>57.5</ele>
        <time>2020-07-01T11:17:33Z</time>
      </trkpt>
      <trkpt lat="48.94951" lon="3.13031">
        <ele>57.4</ele>
        <time>2020-07-01T11:17:34Z</time>
      </trkpt>
      <trkpt lat="48.9495" lon="3.13031">
        <ele>57.4</ele>
        <time>2020-07-01T11:17:35Z</time>
      </trkpt>
      <trkpt lat="48.9495" lon="3.13032">
        <ele>57.4</ele>
        <time>2020-07-01T11:17:36Z</time>
      </trkpt>
      <trkpt lat="48.94949" lon="3.13032">
        <ele>57.3</ele>
        <time>2020-07-01T11:17:37Z</time>
      </trkpt>
      <trkpt lat="48.94948" lon="3.13032">
        <ele>57.3</ele>
        <time>2020-07-01T11:17:38Z</time>
      </trkpt>
      <trkpt lat="48.94948" lon="3.13033">
        <ele>57.3</ele>
        <time>2020-07-01T11:17:39Z</time>
      </trkpt>
      <trkpt lat="48.94947" lon="3.13034">
        <ele>57.2</ele>
        <time>2020-07-01T11:17:40Z</time>
      </trkpt>
      <trkpt lat="48.94947" lon="3.13042">
        <ele>57.2</ele>
        <time>2020-07-01T12:33:20Z</time>
      </trkpt>
      <trkpt lat="48.94947" lon="3.1304">
        <ele>57.3</ele>
        <time>2020-07-01T12:33:21Z</time>
      </trkpt>
      <trkpt lat="48.94946" lon="3.1304">
        <ele>57.3</ele>
        <time>2020-07-01T12:33:22Z</time>
      </trkpt>
      <trkpt lat="48.94947" lon="3.13038">
        <ele>57.3</ele>
        <time>2020-07-01T12:33:23Z</time>
      </trkpt>
      <trkpt lat="48.94948" lon="3.13038">
        <ele>57.3</ele>
        <time>2020-07-01T12:33:24Z</time>
      </trkpt>
      <trkpt lat="48.94948" lon="3.13036">
        <ele>57.3</ele>
        <time>2020-07-01T12:33:25Z</time>
      </trkpt>
      <trkpt lat="48.94949" lon="3.13035">
        <ele>57.3</ele>
        <time>2020-07-01T12:33:26Z</time>
      </trkpt>
      <trkpt lat="48.94951" lon="3.13031">
        <ele>57.6</ele>
        <time>2020-07-01T12:33:27Z</time>
      </trkpt>
      <trkpt lat="48.94952" lon="3.13031">
        <ele>57.7</ele>
        <time>2020-07-01T12:33:28Z</time>
      </trkpt>
      <trkpt lat="48.94955" lon="3.13028">
        <ele>57.7</ele>
        <time>2020-07-01T12:33:29Z</time>
      </trkpt>
      <trkpt lat="48.94956" lon="3.13026">
        <ele>57.7</ele>
        <time>2020-07-01T12:33:30Z</time>
      </trkpt>
      <trkpt lat="48.94957" lon="3.13025">
        <ele>57.7</ele>
        <time>2020-07-01T12:33:31Z</time>
      </trkpt>
      <trkpt lat="48.94958" lon="3.13024">
        <ele>57.8</ele>
        <time>2020-07-01T12:33:32Z</time>
      </trkpt>
      <trkpt lat="48.94959" lon="3.13023">
        <ele>57.8</ele>
        <time>2020-07-01T12:33:33Z</time>
      </trkpt>
      <trkpt lat="48.9496" lon="3.13022">
        <ele>57.8</ele>
        <time>2020-07-01T12:33:34Z</time>
      </trkpt>
      <trkpt lat="48.9496" lon="3.1302">
        <ele>57.8</ele>
        <time>2020-07-01T12:33:35Z</time>
      </trkpt>
      <trkpt lat="48.9496" lon="3.13017">
        <ele>57.8</ele>
        <time>2020-07-01T12:33:36Z</time>
      </trkpt>
      <trkpt lat="48.94961" lon="3.13016">
        <ele>57.9</ele>
        <time>2020-07-01T12:33:37Z</time>
      </trkpt>
      <trkpt lat="48.94961" lon="3.13015">
        <ele>57.9</ele>
        <time>2020-07-01T12:33:38Z</time>
      </trkpt>
      <trkpt lat="48.94962" lon="3.13014">
        <ele>57.9</ele>
        <time>2020-07-01T12:33:39Z</time>
      </trkpt>
      <trkpt lat="48.94963" lon="3.13011">
        <ele>58</ele>
        <time>2020-07-01T12:33:40Z</time>
      </trkpt>
      <trkpt lat="48.94965" lon="3.1301">
        <ele>58</ele>
        <time>2020-07-01T12:33:41Z</time>
      </trkpt>
      <trkpt lat="48.94966" lon="3.13008">
        <ele>58</ele>
        <time>2020-07-01T12:33:42Z</time>
      </trkpt>
      <trkpt lat="48.94967" lon="3.13007">
        <ele>58.1</ele>
        <time>2020-07-01T12:33:43Z</time>
      </trkpt>
      <trkpt lat="48.94968" lon="3.13004">
        <ele>58.1</ele>
        <time>2020-07-01T12:33:44Z</time>
      </trkpt>
      <trkpt lat="48.9497" lon="3.13">
        <ele>58.3</ele>
        <time>2020-07-01T12:33:45Z</time>
      </trkpt>
      <trkpt lat="48.94972" lon="3.12998">
        <ele>58.3</ele>
        <time>2020-07-01T12:33:46Z</time>
      </trkpt>
      <trkpt lat="48.94973" lon="3.12994">
        <ele>58.4</ele>
        <time>2020-07-01T12:33:47Z</time>
      </trkpt>
      <trkpt lat="48.94975" lon="3.12991">
        <ele>58.5</ele>
        <time>2020-07-01T12:33:48Z</time>
      </trkpt>
      <trkpt lat="48.94978" lon="3.12986">
        <ele>58.6</ele>
        <time>2020-07-01T12:33:49Z</time>
      </trkpt>
      <trkpt lat="48.94981" lon="3.12982">
        <ele>58.8</ele>
        <time>2020-07-01T12:33:50Z</time>
      </trkpt>
      <trkpt lat="48.94983" lon="3.12975">
        <ele>59</ele>
        <time>2020-07-01T12:33:51Z</time>
      </trkpt>
      <trkpt lat="48.94987" lon="3.12971">
        <ele>59.2</ele>
        <time>2020-07-01T12:33:52Z</time>
      </trkpt>
      <trkpt lat="48.9499" lon="3.12965">
        <ele>59.4</ele>
        <time>2020-07-01T12:33:53Z</time>
      </trkpt>
      <trkpt lat="48.94991" lon="3.12959">
        <ele>59.5</ele>
        <time>2020-07-01T12:33:54Z</time>
      </trkpt>
      <trkpt lat="48.94995" lon="3.12954">
        <ele>59.8</ele>
        <time>2020-07-01T12:33:55Z</time>
      </trkpt>
      <trkpt lat="48.94997" lon="3.12949">
        <ele>59.8</ele>
        <time>2020-07-01T12:33:56Z</time>
      </trkpt>
      <trkpt lat="48.94999" lon="3.12945">
        <ele>59.8</ele>
        <time>2020-07-01T12:33:57Z</time>
      </trkpt>
      <trkpt lat="48.95" lon="3.12939">
        <ele>59.8</ele>
        <time>2020-07-01T12:33:58Z</time>
      </trkpt>
      <trkpt lat="48.95002" lon="3.12935">
        <ele>59.8</ele>
        <time>2020-07-01T12:33:59Z</time>
      </trkpt>
      <trkpt lat="48.95003" lon="3.12928">
        <ele>59.8</ele>
        <time>2020-07-01T12:34:00Z</time>
      </trkpt>
      <trkpt lat="48.95004" lon="3.12918">
        <ele>59.9</ele>
        <time>2020-07-01T12:34:01Z</time>
      </trkpt>
      <trkpt lat="48.95006" lon="3.1291">
        <ele>59.9</ele>
        <time>2020-07-01T12:34:02Z</time>
      </trkpt>
      <trkpt lat="48.95006" lon="3.129">
        <ele>60.2</ele>
        <time>2020-07-01T12:34:03Z</time>
      </trkpt>
      <trkpt lat="48.95008" lon="3.12894">
        <ele>60.3</ele>
        <time>2020-07-01T12:34:04Z</time>
      </trkpt>
      <trkpt lat="48.9501" lon="3.1289">
        <ele>60.5</ele>
        <time>2020-07-01T12:34:05Z</time>
      </trkpt>
      <trkpt lat="48.95013" lon="3.12886">
        <ele>60.7</ele>
        <time>2020-07-01T12:34:06Z</time>
      </trkpt>
      <trkpt lat="48.95016" lon="3.12882">
        <ele>60.9</ele>
        <time>2020-07-01T12:34:07Z</time>
      </trkpt>
      <trkpt lat="48.95018" lon="3.12878">
        <ele>61.1</ele>
        <time>2020-07-01T12:34:08Z</time>
      </trkpt>
      <trkpt lat="48.95021" lon="3.12873">
        <ele>61.3</ele>
        <time>2020-07-01T12:34:09Z</time>
      </trkpt>
      <trkpt lat="48.95024" lon="3.12868">
        <ele>61.6</ele>
        <time>2020-07-01T12:34:10Z</time>
      </trkpt>
      <trkpt lat="48.95026" lon="3.12864">
        <ele>61.7</ele>
        <time>2020-07-01T12:34:11Z</time>
      </trkpt>
      <trkpt lat="48.95028" lon="3.12859">
        <ele>61.9</ele>
        <time>2020-07-01T12:34:12Z</time>
      </trkpt>
      <trkpt lat="48.9503" lon="3.12854">
        <ele>62.1</ele>
        <time>2020-07-01T12:34:13Z</time>
      </trkpt>
      <trkpt lat="48.95032" lon="3.12851">
        <ele>62.2</ele>
        <time>2020-07-01T12:34:14Z</time>
      </trkpt>
      <trkpt lat="48.95035" lon="3.12847">
        <ele>62.4</ele>
        <time>2020-07-01T12:34:15Z</time>
      </trkpt>
      <trkpt lat="48.95037" lon="3.12846">
        <ele>62.5</ele>
        <time>2020-07-01T12:34:16Z</time>
      </trkpt>
      <trkpt lat="48.9504" lon="3.12843">
        <ele>62.6</ele>
        <time>2020-07-01T12:34:17Z</time>
      </trkpt>
      <trkpt lat="48.95042" lon="3.1284">
        <ele>62.6</ele>
        <time>2020-07-01T12:34:18Z</time>
      </trkpt>
      <trkpt lat="48.95044" lon="3.12836">
        <ele>62.7</ele>
        <time>2020-07-01T12:34:19Z</time>
      </trkpt>
      <trkpt lat="48.95048" lon="3.12833">
        <ele>62.8</ele>
        <time>2020-07-01T12:34:20Z</time>
      </trkpt>
      <trkpt lat="48.95049" lon="3.12832">
        <ele>62.9</ele>
        <time>2020-07-01T12:34:21Z</time>
      </trkpt>
      <trkpt lat="48.95052" lon="3.12828">
        <ele>63</ele>
        <time>2020-07-01T12:34:22Z</time>
      </trkpt>
      <trkpt lat="48.95055" lon="3.12823">
        <ele>63.1</ele>
        <time>2020-07-01T12:34:23Z</time>
      </trkpt>
      <trkpt lat="48.95059" lon="3.1282">
        <ele>63.2</ele>
        <time>2020-07-01T12:34:24Z</time>
      </trkpt>
      <trkpt lat="48.95062" lon="3.12816">
        <ele>63.3</ele>
        <time>2020-07-01T12:34:25Z</time>
      </trkpt>
      <trkpt lat="48.95065" lon="3.12812">
        <ele>63.4</ele>
        <time>2020-07-01T12:34:26Z</time>
      </trkpt>
      <trkpt lat="48.95068" lon="3.12808">
        <ele>63.5</ele>
        <time>2020-07-01T12:34:27Z</time>
      </trkpt>
      <trkpt lat="48.95071" lon="3.12806">
        <ele>63.5</ele>
        <time>2020-07-01T12:34:28Z</time>
      </trkpt>
      <trkpt lat="48.95074" lon="3.12803">
        <ele>63.6</ele>
        <time>2020-07-01T12:34:29Z</time>
      </trkpt>
      <trkpt lat="48.95075" lon="3.12802">
        <ele>63.7</ele>
        <time>2020-07-01T12:34:30Z</time>
      </trkpt>
      <trkpt lat="48.95077" lon="3.12798">
        <ele>63.7</ele>
        <time>2020-07-01T12:34:31Z</time>
      </trkpt>
      <trkpt lat="48.9508" lon="3.12795">
        <ele>63.8</ele>
        <time>2020-07-01T12:34:32Z</time>
      </trkpt>
      <trkpt lat="48.95083" lon="3.12791">
        <ele>63.9</ele>
        <time>2020-07-01T12:34:33Z</time>
      </trkpt>
      <trkpt lat="48.95086" lon="3.12787">
        <ele>64.1</ele>
        <time>2020-07-01T12:34:34Z</time>
      </trkpt>
      <trkpt lat="48.95088" lon="3.12783">
        <ele>64.2</ele>
        <time>2020-07-01T12:34:35Z</time>
      </trkpt>
      <trkpt lat="48.95092" lon="3.1278">
        <ele>64.3</ele>
        <time>2020-07-01T12:34:36Z</time>
      </trkpt>
      <trkpt lat="48.95094" lon="3.12777">
        <ele>64.4</ele>
        <time>2020-07-01T12:34:37Z</time>
      </trkpt>
      <trkpt lat="48.95097" lon="3.12773">
        <ele>64.6</ele>
        <time>2020-07-01T12:34:38Z</time>
      </trkpt>
      <trkpt lat="48.95099" lon="3.12772">
        <ele>64.7</ele>
        <time>2020-07-01T12:34:39Z</time>
      </trkpt>
      <trkpt lat="48.95101" lon="3.12769">
        <ele>64.8</ele>
        <time>2020-07-01T12:34:40Z</time>
      </trkpt>
      <trkpt lat="48.95104" lon="3.12765">
        <ele>65</ele>
        <time>2020-07-01T12:34:41Z</time>
      </trkpt>
      <trkpt lat="48.95105" lon="3.12764">
        <ele>65.1</ele>
        <time>2020-07-01T12:34:42Z</time>
      </trkpt>
      <trkpt lat="48.95107" lon="3.1276">
        <ele>65.2</ele>
        <time>2020-07-01T12:34:43Z</time>
      </trkpt>
      <trkpt lat="48.95108" lon="3.12758">
        <ele>65.2</ele>
        <time>2020-07-01T12:34:44Z</time>
      </trkpt>
      <trkpt lat="48.9511" lon="3.12755">
        <ele>65.4</ele>
        <time>2020-07-01T12:34:45Z</time>
      </trkpt>
      <trkpt lat="48.95112" lon="3.12751">
        <ele>65.5</ele>
        <time>2020-07-01T12:34:46Z</time>
      </trkpt>
      <trkpt lat="48.95112" lon="3.12749">
        <ele>65.5</ele>
        <time>2020-07-01T12:34:47Z</time>
      </trkpt>
      <trkpt lat="48.95112" lon="3.12743">
        <ele>65.6</ele>
        <time>2020-07-01T12:34:48Z</time>
      </trkpt>
      <trkpt lat="48.95113" lon="3.12738">
        <ele>65.7</ele>
        <time>2020-07-01T12:34:49Z</time>
      </trkpt>
      <trkpt lat="48.95114" lon="3.12733">
        <ele>65.8</ele>
        <time>2020-07-01T12:34:50Z</time>
      </trkpt>
      <trkpt lat="48.95114" lon="3.12731">
        <ele>65.9</ele>
        <time>2020-07-01T12:34:51Z</time>
      </trkpt>
      <trkpt lat="48.95115" lon="3.12728">
        <ele>66</ele>
        <time>2020-07-01T12:34:52Z</time>
      </trkpt>
      <trkpt lat="48.95117" lon="3.12729">
        <ele>66</ele>
        <time>2020-07-01T12:34:53Z</time>
      </trkpt>
      <trkpt lat="48.95118" lon="3.12727">
        <ele>66.1</ele>
        <time>2020-07-01T12:34:54Z</time>
      </trkpt>
      <trkpt lat="48.95119" lon="3.12724">
        <ele>66.2</ele>
        <time>2020-07-01T12:34:55Z</time>
      </trkpt>
      <trkpt lat="48.95119" lon="3.12722">
        <ele>66.2</ele>
        <time>2020-07-01T12:34:56Z</time>
      </trkpt>
      <trkpt lat="48.9512" lon="3.1272">
        <ele>66.3</ele>
        <time>2020-07-01T12:34:57Z</time>
      </trkpt>
      <trkpt lat="48.9512" lon="3.12719">
        <ele>66.3</ele>
        <time>2020-07-01T12:34:58Z</time>
      </trkpt>
      <trkpt lat="48.95119" lon="3.12718">
        <ele>66.3</ele>
        <time>2020-07-01T12:34:59Z</time>
      </trkpt>
      <trkpt lat="48.95119" lon="3.12716">
        <ele>66.4</ele>
        <time>2020-07-01T12:35:00Z</time>
      </trkpt>
      <trkpt lat="48.9512" lon="3.12711">
        <ele>66.5</ele>
        <time>2020-07-01T12:35:01Z</time>
      </trkpt>
      <trkpt lat="48.9512" lon="3.1271">
        <ele>66.6</ele>
        <time>2020-07-01T12:35:02Z</time>
      </trkpt>
      <trkpt lat="48.95121" lon="3.12708">
        <ele>66.6</ele>
        <time>2020-07-01T12:35:03Z</time>
      </trkpt>
      <trkpt lat="48.95122" lon="3.12707">
        <ele>66.7</ele>
        <time>2020-07-01T12:35:04Z</time>
      </trkpt>
      <trkpt lat="48.95123" lon="3.12705">
        <ele>66.7</ele>
        <time>2020-07-01T12:35:05Z</time>
      </trkpt>
      <trkpt lat="48.95123" lon="3.12705">
        <ele>66.8</ele>
        <time>2020-07-01T12:35:06Z</time>
      </trkpt>
      <trkpt lat="48.95122" lon="3.12705">
        <ele>66.8</ele>
        <time>2020-07-01T12:35:07Z</time>
      </trkpt>
      <trkpt lat="48.95122" lon="3.12705">
        <ele>66.8</ele>
        <time>2020-07-01T12:35:08Z</time>
      </trkpt>
      <trkpt lat="48.95121" lon="3.12705">
        <ele>66.8</ele>
        <time>2020-07-01T12:35:09Z</time>
      </trkpt>
      <trkpt lat="48.95121" lon="3.12705">
        <ele>66.8</ele>
        <time>2020-07-01T12:35:10Z</time>
      </trkpt>
      <trkpt lat="48.9512" lon="3.12705">
        <ele>66.9</ele>
        <time>2020-07-01T12:35:11Z</time>
      </trkpt>
      <trkpt lat="48.9512" lon="3.12705">
        <ele>66.9</ele>
        <time>2020-07-01T12:35:12Z</time>
      </trkpt>
      <trkpt lat="48.9512" lon="3.12706">
        <ele>66.9</ele>
        <time>2020-07-01T12:35:13Z</time>
      </trkpt>
      <trkpt lat="48.95119" lon="3.12706">
        <ele>66.9</ele>
        <time>2020-07-01T12:35:14Z</time>
      </trkpt>
      <trkpt lat="48.95119" lon="3.12706">
        <ele>66.9</ele>
        <time>2020-07-01T12:35:15Z</time>
      </trkpt>
      <trkpt lat="48.95117" lon="3.12706">
        <ele>67</ele>
        <time>2020-07-01T12:35:16Z</time>
      </trkpt>
      <trkpt lat="48.95116" lon="3.12704">
        <ele>67.1</ele>
        <time>2020-07-01T12:35:17Z</time>
      </trkpt>
      <trkpt lat="48.95112" lon="3.12701">
        <ele>66.7</ele>
        <time>2020-07-01T12:35:18Z</time>
      </trkpt>
      <trkpt lat="48.9511" lon="3.12699">
        <ele>66.6</ele>
        <time>2020-07-01T12:35:19Z</time>
      </trkpt>
      <trkpt lat="48.95108" lon="3.12697">
        <ele>66.4</ele>
        <time>2020-07-01T12:35:20Z</time>
      </trkpt>
      <trkpt lat="48.95107" lon="3.12696">
        <ele>66.3</ele>
        <time>2020-07-01T12:35:21Z</time>
      </trkpt>
      <trkpt lat="48.95105" lon="3.12696">
        <ele>66.4</ele>
        <time>2020-07-01T12:35:22Z</time>
      </trkpt>
      <trkpt lat="48.95101" lon="3.12695">
        <ele>66.5</ele>
        <time>2020-07-01T12:35:23Z</time>
      </trkpt>
      <trkpt lat="48.95099" lon="3.12695">
        <ele>66.5</ele>
        <time>2020-07-01T12:35:24Z</time>
      </trkpt>
      <trkpt lat="48.95098" lon="3.12697">
        <ele>66.5</ele>
        <time>2020-07-01T12:35:25Z</time>
      </trkpt>
      <trkpt lat="48.95099" lon="3.127">
        <ele>66.6</ele>
        <time>2020-07-01T12:35:26Z</time>
      </trkpt>
      <trkpt lat="48.951" lon="3.12702">
        <ele>66.6</ele>
        <time>2020-07-01T12:35:27Z</time>
      </trkpt>
      <trkpt lat="48.95101" lon="3.12704">
        <ele>66.7</ele>
        <time>2020-07-01T12:35:28Z</time>
      </trkpt>
      <trkpt lat="48.95102" lon="3.12706">
        <ele>66.7</ele>
        <time>2020-07-01T12:35:29Z</time>
      </trkpt>
      <trkpt lat="48.95103" lon="3.12708">
        <ele>66.7</ele>
        <time>2020-07-01T12:35:30Z</time>
      </trkpt>
      <trkpt lat="48.95105" lon="3.12709">
        <ele>66.8</ele>
        <time>2020-07-01T12:35:31Z</time>
      </trkpt>
      <trkpt lat="48.95106" lon="3.1271">
        <ele>66.8</ele>
        <time>2020-07-01T12:35:32Z</time>
      </trkpt>
      <trkpt lat="48.95108" lon="3.1271">
        <ele>66.8</ele>
        <time>2020-07-01T12:35:33Z</time>
      </trkpt>
      <trkpt lat="48.95111" lon="3.12711">
        <ele>66.9</ele>
        <time>2020-07-01T12:35:34Z</time>
      </trkpt>
      <trkpt lat="48.95112" lon="3.12711">
        <ele>66.9</ele>
        <time>2020-07-01T12:35:35Z</time>
      </trkpt>
      <trkpt lat="48.95114" lon="3.12712">
        <ele>67</ele>
        <time>2020-07-01T12:35:36Z</time>
      </trkpt>
      <trkpt lat="48.95115" lon="3.12712">
        <ele>67</ele>
        <time>2020-07-01T12:35:37Z</time>
      </trkpt>
      <trkpt lat="48.95117" lon="3.12715">
        <ele>67</ele>
        <time>2020-07-01T12:35:38Z</time>
      </trkpt>
      <trkpt lat="48.95118" lon="3.12715">
        <ele>67.1</ele>
        <time>2020-07-01T12:35:39Z</time>
      </trkpt>
      <trkpt lat="48.95121" lon="3.12716">
        <ele>67.2</ele>
        <time>2020-07-01T12:35:40Z</time>
      </trkpt>
      <trkpt lat="48.95122" lon="3.12716">
        <ele>67.2</ele>
        <time>2020-07-01T12:35:41Z</time>
      </trkpt>
      <trkpt lat="48.95125" lon="3.12716">
        <ele>67.3</ele>
        <time>2020-07-01T12:35:42Z</time>
      </trkpt>
      <trkpt lat="48.95126" lon="3.12717">
        <ele>67.3</ele>
        <time>2020-07-01T12:35:43Z</time>
      </trkpt>
      <trkpt lat="48.95128" lon="3.12714">
        <ele>67.4</ele>
        <time>2020-07-01T12:35:44Z</time>
      </trkpt>
      <trkpt lat="48.95129" lon="3.12712">
        <ele>67.4</ele>
        <time>2020-07-01T12:35:45Z</time>
      </trkpt>
      <trkpt lat="48.95131" lon="3.12708">
        <ele>67.6</ele>
        <time>2020-07-01T12:35:46Z</time>
      </trkpt>
      <trkpt lat="48.95131" lon="3.12707">
        <ele>67.6</ele>
        <time>2020-07-01T12:35:47Z</time>
      </trkpt>
      <trkpt lat="48.95132" lon="3.12705">
        <ele>67.6</ele>
        <time>2020-07-01T12:35:48Z</time>
      </trkpt>
      <trkpt lat="48.95132" lon="3.12704">
        <ele>67.6</ele>
        <time>2020-07-01T12:35:49Z</time>
      </trkpt>
      <trkpt lat="48.95131" lon="3.12703">
        <ele>67.6</ele>
        <time>2020-07-01T12:35:50Z</time>
      </trkpt>
      <trkpt lat="48.9513" lon="3.12704">
        <ele>67.6</ele>
        <time>2020-07-01T12:35:51Z</time>
      </trkpt>
      <trkpt lat="48.9513" lon="3.12703">
        <ele>67.6</ele>
        <time>2020-07-01T12:35:52Z</time>
      </trkpt>
      <trkpt lat="48.9513" lon="3.12703">
        <ele>67.6</ele>
        <time>2020-07-01T12:35:53Z</time>
      </trkpt>
      <trkpt lat="48.95129" lon="3.12703">
        <ele>67.6</ele>
        <time>2020-07-01T12:35:54Z</time>
      </trkpt>
      <trkpt lat="48.95129" lon="3.12703">
        <ele>67.6</ele>
        <time>2020-07-01T12:35:55Z</time>
      </trkpt>
      <trkpt lat="48.9513" lon="3.12702">
        <ele>67.6</ele>
        <time>2020-07-01T12:35:56Z</time>
      </trkpt>
      <trkpt lat="48.95131" lon="3.12701">
        <ele>67.5</ele>
        <time>2020-07-01T12:35:57Z</time>
      </trkpt>
      <trkpt lat="48.95131" lon="3.12701">
        <ele>67.5</ele>
        <time>2020-07-01T12:35:58Z</time>
      </trkpt>
      <trkpt lat="48.95131" lon="3.12701">
        <ele>67.5</ele>
        <time>2020-07-01T12:35:59Z</time>
      </trkpt>
      <trkpt lat="48.95131" lon="3.12701">
        <ele>67.5</ele>
        <time>2020-07-01T12:36:00Z</time>
      </trkpt>
      <trkpt lat="48.95131" lon="3.1269">
        <ele>67.5</ele>
        <time>2020-07-01T12:36:22Z</time>
      </trkpt>
      <trkpt lat="48.9513" lon="3.12685">
        <ele>67.6</ele>
        <time>2020-07-01T12:36:23Z</time>
      </trkpt>
      <trkpt lat="48.95129" lon="3.1268">
        <ele>67.6</ele>
        <time>2020-07-01T12:36:24Z</time>
      </trkpt>
      <trkpt lat="48.95128" lon="3.12674">
        <ele>67.6</ele>
        <time>2020-07-01T12:36:25Z</time>
      </trkpt>
      <trkpt lat="48.95127" lon="3.12671">
        <ele>67.6</ele>
        <time>2020-07-01T12:36:26Z</time>
      </trkpt>
      <trkpt lat="48.95125" lon="3.12667">
        <ele>67.6</ele>
        <time>2020-07-01T12:36:27Z</time>
      </trkpt>
      <trkpt lat="48.95123" lon="3.12662">
        <ele>67.6</ele>
        <time>2020-07-01T12:36:28Z</time>
      </trkpt>
      <trkpt lat="48.95122" lon="3.12656">
        <ele>67.7</ele>
        <time>2020-07-01T12:36:29Z</time>
      </trkpt>
      <trkpt lat="48.95121" lon="3.12651">
        <ele>67.7</ele>
        <time>2020-07-01T12:36:30Z</time>
      </trkpt>
      <trkpt lat="48.9512" lon="3.12645">
        <ele>67.8</ele>
        <time>2020-07-01T12:36:31Z</time>
      </trkpt>
      <trkpt lat="48.95119" lon="3.12639">
        <ele>67.9</ele>
        <time>2020-07-01T12:36:32Z</time>
      </trkpt>
      <trkpt lat="48.95118" lon="3.12632">
        <ele>67.9</ele>
        <time>2020-07-01T12:36:33Z</time>
      </trkpt>
      <trkpt lat="48.95117" lon="3.12626">
        <ele>68</ele>
        <time>2020-07-01T12:36:34Z</time>
      </trkpt>
      <trkpt lat="48.95117" lon="3.1262">
        <ele>68</ele>
        <time>2020-07-01T12:36:35Z</time>
      </trkpt>
      <trkpt lat="48.95116" lon="3.12614">
        <ele>68.1</ele>
        <time>2020-07-01T12:36:36Z</time>
      </trkpt>
      <trkpt lat="48.95117" lon="3.12609">
        <ele>68.1</ele>
        <time>2020-07-01T12:36:37Z</time>
      </trkpt>
      <trkpt lat="48.95117" lon="3.12606">
        <ele>68.1</ele>
        <time>2020-07-01T12:36:38Z</time>
      </trkpt>
      <trkpt lat="48.95117" lon="3.12601">
        <ele>68.2</ele>
        <time>2020-07-01T12:36:39Z</time>
      </trkpt>
      <trkpt lat="48.95119" lon="3.12595">
        <ele>68.2</ele>
        <time>2020-07-01T12:36:40Z</time>
      </trkpt>
      <trkpt lat="48.95118" lon="3.12589">
        <ele>68.3</ele>
        <time>2020-07-01T12:36:41Z</time>
      </trkpt>
      <trkpt lat="48.95117" lon="3.12582">
        <ele>68.4</ele>
        <time>2020-07-01T12:36:42Z</time>
      </trkpt>
      <trkpt lat="48.95116" lon="3.12575">
        <ele>68.4</ele>
        <time>2020-07-01T12:36:43Z</time>
      </trkpt>
      <trkpt lat="48.95116" lon="3.12569">
        <ele>68.5</ele>
        <time>2020-07-01T12:36:44Z</time>
      </trkpt>
      <trkpt lat="48.95115" lon="3.12562">
        <ele>68.6</ele>
        <time>2020-07-01T12:36:45Z</time>
      </trkpt>
      <trkpt lat="48.95115" lon="3.12557">
        <ele>68.6</ele>
        <time>2020-07-01T12:36:46Z</time>
      </trkpt>
      <trkpt lat="48.95115" lon="3.12551">
        <ele>68.6</ele>
        <time>2020-07-01T12:36:47Z</time>
      </trkpt>
      <trkpt lat="48.95114" lon="3.12544">
        <ele>68.7</ele>
        <time>2020-07-01T12:36:48Z</time>
      </trkpt>
      <trkpt lat="48.95115" lon="3.12537">
        <ele>68.7</ele>
        <time>2020-07-01T12:36:49Z</time>
      </trkpt>
      <trkpt lat="48.95114" lon="3.12531">
        <ele>68.8</ele>
        <time>2020-07-01T12:36:50Z</time>
      </trkpt>
      <trkpt lat="48.95112" lon="3.12524">
        <ele>68.9</ele>
        <time>2020-07-01T12:36:51Z</time>
      </trkpt>
      <trkpt lat="48.95111" lon="3.12518">
        <ele>68.8</ele>
        <time>2020-07-01T12:36:52Z</time>
      </trkpt>
      <trkpt lat="48.9511" lon="3.12513">
        <ele>68.8</ele>
        <time>2020-07-01T12:36:53Z</time>
      </trkpt>
      <trkpt lat="48.95109" lon="3.12507">
        <ele>68.8</ele>
        <time>2020-07-01T12:36:54Z</time>
      </trkpt>
      <trkpt lat="48.95108" lon="3.12501">
        <ele>68.7</ele>
        <time>2020-07-01T12:36:55Z</time>
      </trkpt>
      <trkpt lat="48.95107" lon="3.12495">
        <ele>68.7</ele>
        <time>2020-07-01T12:36:56Z</time>
      </trkpt>
      <trkpt lat="48.95105" lon="3.1249">
        <ele>68.6</ele>
        <time>2020-07-01T12:36:57Z</time>
      </trkpt>
      <trkpt lat="48.95104" lon="3.12485">
        <ele>68.6</ele>
        <time>2020-07-01T12:36:58Z</time>
      </trkpt>
      <trkpt lat="48.95101" lon="3.12481">
        <ele>68.5</ele>
        <time>2020-07-01T12:36:59Z</time>
      </trkpt>
      <trkpt lat="48.951" lon="3.12476">
        <ele>68.4</ele>
        <time>2020-07-01T12:37:00Z</time>
      </trkpt>
      <trkpt lat="48.95098" lon="3.12472">
        <ele>68.3</ele>
        <time>2020-07-01T12:37:01Z</time>
      </trkpt>
      <trkpt lat="48.95097" lon="3.12468">
        <ele>68.2</ele>
        <time>2020-07-01T12:37:02Z</time>
      </trkpt>
      <trkpt lat="48.95096" lon="3.12463">
        <ele>68.2</ele>
        <time>2020-07-01T12:37:03Z</time>
      </trkpt>
      <trkpt lat="48.95096" lon="3.12458">
        <ele>68.1</ele>
        <time>2020-07-01T12:37:04Z</time>
      </trkpt>
      <trkpt lat="48.95096" lon="3.12453">
        <ele>68</ele>
        <time>2020-07-01T12:37:05Z</time>
      </trkpt>
      <trkpt lat="48.95096" lon="3.12447">
        <ele>67.9</ele>
        <time>2020-07-01T12:37:06Z</time>
      </trkpt>
      <trkpt lat="48.95096" lon="3.1244">
        <ele>67.7</ele>
        <time>2020-07-01T12:37:07Z</time>
      </trkpt>
      <trkpt lat="48.95095" lon="3.12434">
        <ele>67.6</ele>
        <time>2020-07-01T12:37:08Z</time>
      </trkpt>
      <trkpt lat="48.95095" lon="3.12427">
        <ele>67.4</ele>
        <time>2020-07-01T12:37:09Z</time>
      </trkpt>
      <trkpt lat="48.95094" lon="3.1242">
        <ele>67.2</ele>
        <time>2020-07-01T12:37:10Z</time>
      </trkpt>
      <trkpt lat="48.95093" lon="3.12413">
        <ele>67.1</ele>
        <time>2020-07-01T12:37:11Z</time>
      </trkpt>
      <trkpt lat="48.95092" lon="3.12405">
        <ele>66.9</ele>
        <time>2020-07-01T12:37:12Z</time>
      </trkpt>
      <trkpt lat="48.95092" lon="3.12396">
        <ele>66.7</ele>
        <time>2020-07-01T12:37:13Z</time>
      </trkpt>
      <trkpt lat="48.95091" lon="3.12388">
        <ele>66.5</ele>
        <time>2020-07-01T12:37:14Z</time>
      </trkpt>
      <trkpt lat="48.9509" lon="3.12379">
        <ele>66.3</ele>
        <time>2020-07-01T12:37:15Z</time>
      </trkpt>
      <trkpt lat="48.95088" lon="3.12371">
        <ele>66.1</ele>
        <time>2020-07-01T12:37:16Z</time>
      </trkpt>
      <trkpt lat="48.95086" lon="3.12363">
        <ele>66</ele>
        <time>2020-07-01T12:37:17Z</time>
      </trkpt>
      <trkpt lat="48.95085" lon="3.12353">
        <ele>65.8</ele>
        <time>2020-07-01T12:37:18Z</time>
      </trkpt>
      <trkpt lat="48.95083" lon="3.12344">
        <ele>65.6</ele>
        <time>2020-07-01T12:37:19Z</time>
      </trkpt>
      <trkpt lat="48.95082" lon="3.12336">
        <ele>65.4</ele>
        <time>2020-07-01T12:37:20Z</time>
      </trkpt>
      <trkpt lat="48.9508" lon="3.12328">
        <ele>65.3</ele>
        <time>2020-07-01T12:37:21Z</time>
      </trkpt>
      <trkpt lat="48.95078" lon="3.12321">
        <ele>65.2</ele>
        <time>2020-07-01T12:37:22Z</time>
      </trkpt>
      <trkpt lat="48.95078" lon="3.12313">
        <ele>65.1</ele>
        <time>2020-07-01T12:37:23Z</time>
      </trkpt>
      <trkpt lat="48.95076" lon="3.12304">
        <ele>65</ele>
        <time>2020-07-01T12:37:24Z</time>
      </trkpt>
      <trkpt lat="48.95076" lon="3.12295">
        <ele>64.9</ele>
        <time>2020-07-01T12:37:25Z</time>
      </trkpt>
      <trkpt lat="48.95075" lon="3.12286">
        <ele>64.9</ele>
        <time>2020-07-01T12:37:26Z</time>
      </trkpt>
      <trkpt lat="48.95074" lon="3.12277">
        <ele>64.8</ele>
        <time>2020-07-01T12:37:27Z</time>
      </trkpt>
      <trkpt lat="48.95072" lon="3.12268">
        <ele>64.7</ele>
        <time>2020-07-01T12:37:28Z</time>
      </trkpt>
      <trkpt lat="48.95071" lon="3.12259">
        <ele>64.7</ele>
        <time>2020-07-01T12:37:29Z</time>
      </trkpt>
      <trkpt lat="48.9507" lon="3.1225">
        <ele>64.6</ele>
        <time>2020-07-01T12:37:30Z</time>
      </trkpt>
      <trkpt lat="48.95069" lon="3.12242">
        <ele>64.5</ele>
        <time>2020-07-01T12:37:31Z</time>
      </trkpt>
      <trkpt lat="48.95067" lon="3.12234">
        <ele>64.4</ele>
        <time>2020-07-01T12:37:32Z</time>
      </trkpt>
      <trkpt lat="48.95066" lon="3.12225">
        <ele>64.3</ele>
        <time>2020-07-01T12:37:33Z</time>
      </trkpt>
      <trkpt lat="48.95065" lon="3.12217">
        <ele>64.3</ele>
        <time>2020-07-01T12:37:34Z</time>
      </trkpt>
      <trkpt lat="48.95065" lon="3.12209">
        <ele>64.2</ele>
        <time>2020-07-01T12:37:35Z</time>
      </trkpt>
      <trkpt lat="48.95066" lon="3.12202">
        <ele>64.2</ele>
        <time>2020-07-01T12:37:36Z</time>
      </trkpt>
      <trkpt lat="48.95066" lon="3.12195">
        <ele>64.1</ele>
        <time>2020-07-01T12:37:37Z</time>
      </trkpt>
      <trkpt lat="48.95065" lon="3.12188">
        <ele>64.1</ele>
        <time>2020-07-01T12:37:38Z</time>
      </trkpt>
      <trkpt lat="48.95065" lon="3.1218">
        <ele>64.1</ele>
        <time>2020-07-01T12:37:39Z</time>
      </trkpt>
      <trkpt lat="48.95065" lon="3.12172">
        <ele>64</ele>
        <time>2020-07-01T12:37:40Z</time>
      </trkpt>
      <trkpt lat="48.95065" lon="3.12163">
        <ele>64</ele>
        <time>2020-07-01T12:37:41Z</time>
      </trkpt>
      <trkpt lat="48.95064" lon="3.12156">
        <ele>63.9</ele>
        <time>2020-07-01T12:37:42Z</time>
      </trkpt>
      <trkpt lat="48.95064" lon="3.12148">
        <ele>63.9</ele>
        <time>2020-07-01T12:37:43Z</time>
      </trkpt>
      <trkpt lat="48.95063" lon="3.1214">
        <ele>63.9</ele>
        <time>2020-07-01T12:37:44Z</time>
      </trkpt>
      <trkpt lat="48.95063" lon="3.12134">
        <ele>63.9</ele>
        <time>2020-07-01T12:37:45Z</time>
      </trkpt>
      <trkpt lat="48.95063" lon="3.12127">
        <ele>63.9</ele>
        <time>2020-07-01T12:37:46Z</time>
      </trkpt>
      <trkpt lat="48.95063" lon="3.12119">
        <ele>63.8</ele>
        <time>2020-07-01T12:37:47Z</time>
      </trkpt>
      <trkpt lat="48.95063" lon="3.12111">
        <ele>63.8</ele>
        <time>2020-07-01T12:37:48Z</time>
      </trkpt>
      <trkpt lat="48.95063" lon="3.12102">
        <ele>63.8</ele>
        <time>2020-07-01T12:37:49Z</time>
      </trkpt>
      <trkpt lat="48.95062" lon="3.12093">
        <ele>63.8</ele>
        <time>2020-07-01T12:37:50Z</time>
      </trkpt>
      <trkpt lat="48.95062" lon="3.12085">
        <ele>63.7</ele>
        <time>2020-07-01T12:37:51Z</time>
      </trkpt>
      <trkpt lat="48.95062" lon="3.12077">
        <ele>63.7</ele>
        <time>2020-07-01T12:37:52Z</time>
      </trkpt>
      <trkpt lat="48.95063" lon="3.12069">
        <ele>63.8</ele>
        <time>2020-07-01T12:37:53Z</time>
      </trkpt>
      <trkpt lat="48.95063" lon="3.12061">
        <ele>63.8</ele>
        <time>2020-07-01T12:37:54Z</time>
      </trkpt>
      <trkpt lat="48.95064" lon="3.12053">
        <ele>63.8</ele>
        <time>2020-07-01T12:37:55Z</time>
      </trkpt>
      <trkpt lat="48.95065" lon="3.12045">
        <ele>63.9</ele>
        <time>2020-07-01T12:37:56Z</time>
      </trkpt>
      <trkpt lat="48.95065" lon="3.12037">
        <ele>64</ele>
        <time>2020-07-01T12:37:57Z</time>
      </trkpt>
      <trkpt lat="48.95064" lon="3.12028">
        <ele>64</ele>
        <time>2020-07-01T12:37:58Z</time>
      </trkpt>
      <trkpt lat="48.95065" lon="3.1202">
        <ele>64.1</ele>
        <time>2020-07-01T12:37:59Z</time>
      </trkpt>
      <trkpt lat="48.95063" lon="3.12012">
        <ele>64.2</ele>
        <time>2020-07-01T12:38:00Z</time>
      </trkpt>
      <trkpt lat="48.95063" lon="3.12004">
        <ele>64.2</ele>
        <time>2020-07-01T12:38:01Z</time>
      </trkpt>
      <trkpt lat="48.95062" lon="3.11997">
        <ele>64.3</ele>
        <time>2020-07-01T12:38:02Z</time>
      </trkpt>
      <trkpt lat="48.95062" lon="3.11989">
        <ele>64.3</ele>
        <time>2020-07-01T12:38:03Z</time>
      </trkpt>
      <trkpt lat="48.95062" lon="3.11983">
        <ele>64.4</ele>
        <time>2020-07-01T12:38:04Z</time>
      </trkpt>
      <trkpt lat="48.95063" lon="3.11977">
        <ele>64.4</ele>
        <time>2020-07-01T12:38:05Z</time>
      </trkpt>
      <trkpt lat="48.95063" lon="3.11969">
        <ele>64.4</ele>
        <time>2020-07-01T12:38:06Z</time>
      </trkpt>
      <trkpt lat="48.95063" lon="3.11962">
        <ele>64.5</ele>
        <time>2020-07-01T12:38:07Z</time>
      </trkpt>
      <trkpt lat="48.95062" lon="3.11953">
        <ele>64.6</ele>
        <time>2020-07-01T12:38:08Z</time>
      </trkpt>
      <trkpt lat="48.95062" lon="3.11942">
        <ele>64.7</ele>
        <time>2020-07-01T12:38:09Z</time>
      </trkpt>
      <trkpt lat="48.95062" lon="3.11935">
        <ele>64.8</ele>
        <time>2020-07-01T12:38:10Z</time>
      </trkpt>
      <trkpt lat="48.95062" lon="3.11928">
        <ele>64.9</ele>
        <time>2020-07-01T12:38:11Z</time>
      </trkpt>
      <trkpt lat="48.95062" lon="3.11921">
        <ele>65</ele>
        <time>2020-07-01T12:38:12Z</time>
      </trkpt>
      <trkpt lat="48.95063" lon="3.11912">
        <ele>65.2</ele>
        <time>2020-07-01T12:38:13Z</time>
      </trkpt>
      <trkpt lat="48.95063" lon="3.11905">
        <ele>65.3</ele>
        <time>2020-07-01T12:38:14Z</time>
      </trkpt>
      <trkpt lat="48.95063" lon="3.11897">
        <ele>65.4</ele>
        <time>2020-07-01T12:38:15Z</time>
      </trkpt>
      <trkpt lat="48.95063" lon="3.1189">
        <ele>65.5</ele>
        <time>2020-07-01T12:38:16Z</time>
      </trkpt>
      <trkpt lat="48.95064" lon="3.11884">
        <ele>65.6</ele>
        <time>2020-07-01T12:38:17Z</time>
      </trkpt>
      <trkpt lat="48.95063" lon="3.11878">
        <ele>65.7</ele>
        <time>2020-07-01T12:38:18Z</time>
      </trkpt>
      <trkpt lat="48.95062" lon="3.11871">
        <ele>65.8</ele>
        <time>2020-07-01T12:38:19Z</time>
      </trkpt>
      <trkpt lat="48.95063" lon="3.11864">
        <ele>65.9</ele>
        <time>2020-07-01T12:38:20Z</time>
      </trkpt>
      <trkpt lat="48.95063" lon="3.11858">
        <ele>66</ele>
        <time>2020-07-01T12:38:21Z</time>
      </trkpt>
      <trkpt lat="48.95063" lon="3.11851">
        <ele>66.2</ele>
        <time>2020-07-01T12:38:22Z</time>
      </trkpt>
      <trkpt lat="48.95064" lon="3.11845">
        <ele>66.3</ele>
        <time>2020-07-01T12:38:23Z</time>
      </trkpt>
      <trkpt lat="48.95065" lon="3.1184">
        <ele>66.4</ele>
        <time>2020-07-01T12:38:24Z</time>
      </trkpt>
      <trkpt lat="48.95065" lon="3.11835">
        <ele>66.4</ele>
        <time>2020-07-01T12:38:25Z</time>
      </trkpt>
      <trkpt lat="48.95065" lon="3.11829">
        <ele>66.5</ele>
        <time>2020-07-01T12:38:26Z</time>
      </trkpt>
      <trkpt lat="48.95066" lon="3.11823">
        <ele>66.5</ele>
        <time>2020-07-01T12:38:27Z</time>
      </trkpt>
      <trkpt lat="48.95066" lon="3.11817">
        <ele>66.6</ele>
        <time>2020-07-01T12:38:28Z</time>
      </trkpt>
      <trkpt lat="48.95066" lon="3.11812">
        <ele>66.6</ele>
        <time>2020-07-01T12:38:29Z</time>
      </trkpt>
      <trkpt lat="48.95067" lon="3.11806">
        <ele>66.7</ele>
        <time>2020-07-01T12:38:30Z</time>
      </trkpt>
      <trkpt lat="48.95068" lon="3.11802">
        <ele>66.7</ele>
        <time>2020-07-01T12:38:31Z</time>
      </trkpt>
      <trkpt lat="48.9507" lon="3.11797">
        <ele>66.8</ele>
        <time>2020-07-01T12:38:32Z</time>
      </trkpt>
      <trkpt lat="48.95071" lon="3.11791">
        <ele>66.8</ele>
        <time>2020-07-01T12:38:33Z</time>
      </trkpt>
      <trkpt lat="48.95071" lon="3.11785">
        <ele>66.9</ele>
        <time>2020-07-01T12:38:34Z</time>
      </trkpt>
      <trkpt lat="48.95072" lon="3.11779">
        <ele>66.9</ele>
        <time>2020-07-01T12:38:35Z</time>
      </trkpt>
      <trkpt lat="48.95072" lon="3.11771">
        <ele>67</ele>
        <time>2020-07-01T12:38:36Z</time>
      </trkpt>
      <trkpt lat="48.95073" lon="3.11765">
        <ele>67.1</ele>
        <time>2020-07-01T12:38:37Z</time>
      </trkpt>
      <trkpt lat="48.95073" lon="3.11757">
        <ele>67.1</ele>
        <time>2020-07-01T12:38:38Z</time>
      </trkpt>
      <trkpt lat="48.95073" lon="3.11751">
        <ele>67.2</ele>
        <time>2020-07-01T12:38:39Z</time>
      </trkpt>
      <trkpt lat="48.95073" lon="3.11743">
        <ele>67.2</ele>
        <time>2020-07-01T12:38:40Z</time>
      </trkpt>
      <trkpt lat="48.95073" lon="3.11738">
        <ele>67.2</ele>
        <time>2020-07-01T12:38:41Z</time>
      </trkpt>
      <trkpt lat="48.95074" lon="3.11732">
        <ele>67.2</ele>
        <time>2020-07-01T12:38:42Z</time>
      </trkpt>
      <trkpt lat="48.95074" lon="3.11725">
        <ele>67.2</ele>
        <time>2020-07-01T12:38:43Z</time>
      </trkpt>
      <trkpt lat="48.95074" lon="3.11718">
        <ele>67.2</ele>
        <time>2020-07-01T12:38:44Z</time>
      </trkpt>
      <trkpt lat="48.95074" lon="3.11709">
        <ele>67.3</ele>
        <time>2020-07-01T12:38:45Z</time>
      </trkpt>
      <trkpt lat="48.95074" lon="3.11703">
        <ele>67.3</ele>
        <time>2020-07-01T12:38:46Z</time>
      </trkpt>
      <trkpt lat="48.95074" lon="3.11695">
        <ele>67.3</ele>
        <time>2020-07-01T12:38:47Z</time>
      </trkpt>
      <trkpt lat="48.95075" lon="3.11688">
        <ele>67.3</ele>
        <time>2020-07-01T12:38:48Z</time>
      </trkpt>
      <trkpt lat="48.95075" lon="3.1168">
        <ele>67.3</ele>
        <time>2020-07-01T12:38:49Z</time>
      </trkpt>
      <trkpt lat="48.95075" lon="3.11674">
        <ele>67.4</ele>
        <time>2020-07-01T12:38:50Z</time>
      </trkpt>
      <trkpt lat="48.95076" lon="3.11667">
        <ele>67.4</ele>
        <time>2020-07-01T12:38:51Z</time>
      </trkpt>
      <trkpt lat="48.95076" lon="3.1166">
        <ele>67.4</ele>
        <time>2020-07-01T12:38:52Z</time>
      </trkpt>
      <trkpt lat="48.95077" lon="3.11655">
        <ele>67.5</ele>
        <time>2020-07-01T12:38:53Z</time>
      </trkpt>
      <trkpt lat="48.95077" lon="3.11648">
        <ele>67.5</ele>
        <time>2020-07-01T12:38:54Z</time>
      </trkpt>
      <trkpt lat="48.95077" lon="3.11642">
        <ele>67.6</ele>
        <time>2020-07-01T12:38:55Z</time>
      </trkpt>
      <trkpt lat="48.95077" lon="3.11635">
        <ele>67.7</ele>
        <time>2020-07-01T12:38:56Z</time>
      </trkpt>
      <trkpt lat="48.95077" lon="3.11628">
        <ele>67.8</ele>
        <time>2020-07-01T12:38:57Z</time>
      </trkpt>
      <trkpt lat="48.95076" lon="3.11621">
        <ele>67.9</ele>
        <time>2020-07-01T12:38:58Z</time>
      </trkpt>
      <trkpt lat="48.95076" lon="3.11614">
        <ele>68</ele>
        <time>2020-07-01T12:38:59Z</time>
      </trkpt>
      <trkpt lat="48.95076" lon="3.11607">
        <ele>68.1</ele>
        <time>2020-07-01T12:39:00Z</time>
      </trkpt>
      <trkpt lat="48.95077" lon="3.11598">
        <ele>68.2</ele>
        <time>2020-07-01T12:39:01Z</time>
      </trkpt>
      <trkpt lat="48.95077" lon="3.11591">
        <ele>68.4</ele>
        <time>2020-07-01T12:39:02Z</time>
      </trkpt>
      <trkpt lat="48.95078" lon="3.11582">
        <ele>68.5</ele>
        <time>2020-07-01T12:39:03Z</time>
      </trkpt>
      <trkpt lat="48.95078" lon="3.11574">
        <ele>68.6</ele>
        <time>2020-07-01T12:39:04Z</time>
      </trkpt>
      <trkpt lat="48.95078" lon="3.11567">
        <ele>68.8</ele>
        <time>2020-07-01T12:39:05Z</time>
      </trkpt>
      <trkpt lat="48.95077" lon="3.1156">
        <ele>68.9</ele>
        <time>2020-07-01T12:39:06Z</time>
      </trkpt>
      <trkpt lat="48.95077" lon="3.11553">
        <ele>69</ele>
        <time>2020-07-01T12:39:07Z</time>
      </trkpt>
      <trkpt lat="48.95076" lon="3.11546">
        <ele>69.2</ele>
        <time>2020-07-01T12:39:08Z</time>
      </trkpt>
      <trkpt lat="48.95076" lon="3.11537">
        <ele>69.4</ele>
        <time>2020-07-01T12:39:09Z</time>
      </trkpt>
      <trkpt lat="48.95076" lon="3.11529">
        <ele>69.6</ele>
        <time>2020-07-01T12:39:10Z</time>
      </trkpt>
      <trkpt lat="48.95076" lon="3.11522">
        <ele>69.7</ele>
        <time>2020-07-01T12:39:11Z</time>
      </trkpt>
      <trkpt lat="48.95076" lon="3.11517">
        <ele>69.9</ele>
        <time>2020-07-01T12:39:12Z</time>
      </trkpt>
      <trkpt lat="48.95076" lon="3.11511">
        <ele>70</ele>
        <time>2020-07-01T12:39:13Z</time>
      </trkpt>
      <trkpt lat="48.95077" lon="3.11504">
        <ele>70.2</ele>
        <time>2020-07-01T12:39:14Z</time>
      </trkpt>
      <trkpt lat="48.95078" lon="3.11498">
        <ele>70.4</ele>
        <time>2020-07-01T12:39:15Z</time>
      </trkpt>
      <trkpt lat="48.95079" lon="3.11492">
        <ele>70.6</ele>
        <time>2020-07-01T12:39:16Z</time>
      </trkpt>
      <trkpt lat="48.9508" lon="3.11486">
        <ele>70.7</ele>
        <time>2020-07-01T12:39:17Z</time>
      </trkpt>
      <trkpt lat="48.9508" lon="3.11481">
        <ele>70.9</ele>
        <time>2020-07-01T12:39:18Z</time>
      </trkpt>
      <trkpt lat="48.95081" lon="3.11474">
        <ele>71.1</ele>
        <time>2020-07-01T12:39:19Z</time>
      </trkpt>
      <trkpt lat="48.95082" lon="3.11468">
        <ele>71.3</ele>
        <time>2020-07-01T12:39:20Z</time>
      </trkpt>
      <trkpt lat="48.95083" lon="3.11462">
        <ele>71.4</ele>
        <time>2020-07-01T12:39:21Z</time>
      </trkpt>
      <trkpt lat="48.95084" lon="3.11456">
        <ele>71.6</ele>
        <time>2020-07-01T12:39:22Z</time>
      </trkpt>
      <trkpt lat="48.95085" lon="3.11449">
        <ele>71.7</ele>
        <time>2020-07-01T12:39:23Z</time>
      </trkpt>
      <trkpt lat="48.95086" lon="3.11441">
        <ele>71.9</ele>
        <time>2020-07-01T12:39:24Z</time>
      </trkpt>
      <trkpt lat="48.95086" lon="3.11435">
        <ele>72</ele>
        <time>2020-07-01T12:39:25Z</time>
      </trkpt>
      <trkpt lat="48.95087" lon="3.11428">
        <ele>72.2</ele>
        <time>2020-07-01T12:39:26Z</time>
      </trkpt>
      <trkpt lat="48.95087" lon="3.11421">
        <ele>72.3</ele>
        <time>2020-07-01T12:39:27Z</time>
      </trkpt>
      <trkpt lat="48.95088" lon="3.11416">
        <ele>72.4</ele>
        <time>2020-07-01T12:39:28Z</time>
      </trkpt>
      <trkpt lat="48.95088" lon="3.1141">
        <ele>72.5</ele>
        <time>2020-07-01T12:39:29Z</time>
      </trkpt>
      <trkpt lat="48.95089" lon="3.11403">
        <ele>72.7</ele>
        <time>2020-07-01T12:39:30Z</time>
      </trkpt>
      <trkpt lat="48.9509" lon="3.11398">
        <ele>72.8</ele>
        <time>2020-07-01T12:39:31Z</time>
      </trkpt>
      <trkpt lat="48.9509" lon="3.11391">
        <ele>72.9</ele>
        <time>2020-07-01T12:39:32Z</time>
      </trkpt>
      <trkpt lat="48.95091" lon="3.11385">
        <ele>73</ele>
        <time>2020-07-01T12:39:33Z</time>
      </trkpt>
      <trkpt lat="48.95091" lon="3.11378">
        <ele>73.1</ele>
        <time>2020-07-01T12:39:34Z</time>
      </trkpt>
      <trkpt lat="48.95092" lon="3.11372">
        <ele>73.2</ele>
        <time>2020-07-01T12:39:35Z</time>
      </trkpt>
      <trkpt lat="48.95092" lon="3.11364">
        <ele>73.3</ele>
        <time>2020-07-01T12:39:36Z</time>
      </trkpt>
      <trkpt lat="48.95093" lon="3.11358">
        <ele>73.4</ele>
        <time>2020-07-01T12:39:37Z</time>
      </trkpt>
      <trkpt lat="48.95093" lon="3.11351">
        <ele>73.4</ele>
        <time>2020-07-01T12:39:38Z</time>
      </trkpt>
      <trkpt lat="48.95095" lon="3.11345">
        <ele>73.5</ele>
        <time>2020-07-01T12:39:39Z</time>
      </trkpt>
      <trkpt lat="48.95096" lon="3.11339">
        <ele>73.5</ele>
        <time>2020-07-01T12:39:40Z</time>
      </trkpt>
      <trkpt lat="48.95097" lon="3.11333">
        <ele>73.5</ele>
        <time>2020-07-01T12:39:41Z</time>
      </trkpt>
      <trkpt lat="48.95097" lon="3.11326">
        <ele>73.5</ele>
        <time>2020-07-01T12:39:42Z</time>
      </trkpt>
      <trkpt lat="48.95097" lon="3.1132">
        <ele>73.5</ele>
        <time>2020-07-01T12:39:43Z</time>
      </trkpt>
      <trkpt lat="48.95097" lon="3.11312">
        <ele>73.5</ele>
        <time>2020-07-01T12:39:44Z</time>
      </trkpt>
      <trkpt lat="48.95098" lon="3.11306">
        <ele>73.5</ele>
        <time>2020-07-01T12:39:45Z</time>
      </trkpt>
      <trkpt lat="48.95098" lon="3.11299">
        <ele>73.4</ele>
        <time>2020-07-01T12:39:46Z</time>
      </trkpt>
      <trkpt lat="48.95099" lon="3.11292">
        <ele>73.4</ele>
        <time>2020-07-01T12:39:47Z</time>
      </trkpt>
      <trkpt lat="48.951" lon="3.11285">
        <ele>73.4</ele>
        <time>2020-07-01T12:39:48Z</time>
      </trkpt>
      <trkpt lat="48.95102" lon="3.11277">
        <ele>73.3</ele>
        <time>2020-07-01T12:39:49Z</time>
      </trkpt>
      <trkpt lat="48.95102" lon="3.11269">
        <ele>73.3</ele>
        <time>2020-07-01T12:39:50Z</time>
      </trkpt>
      <trkpt lat="48.95103" lon="3.1126">
        <ele>73.2</ele>
        <time>2020-07-01T12:39:51Z</time>
      </trkpt>
      <trkpt lat="48.95104" lon="3.11252">
        <ele>73</ele>
        <time>2020-07-01T12:39:52Z</time>
      </trkpt>
      <trkpt lat="48.95105" lon="3.11245">
        <ele>72.8</ele>
        <time>2020-07-01T12:39:53Z</time>
      </trkpt>
      <trkpt lat="48.95106" lon="3.11238">
        <ele>72.5</ele>
        <time>2020-07-01T12:39:54Z</time>
      </trkpt>
      <trkpt lat="48.95107" lon="3.11232">
        <ele>72.1</ele>
        <time>2020-07-01T12:39:55Z</time>
      </trkpt>
      <trkpt lat="48.95107" lon="3.11225">
        <ele>71.9</ele>
        <time>2020-07-01T12:39:56Z</time>
      </trkpt>
      <trkpt lat="48.95108" lon="3.11217">
        <ele>71.5</ele>
        <time>2020-07-01T12:39:57Z</time>
      </trkpt>
      <trkpt lat="48.95109" lon="3.1121">
        <ele>71.2</ele>
        <time>2020-07-01T12:39:58Z</time>
      </trkpt>
      <trkpt lat="48.95111" lon="3.11202">
        <ele>70.8</ele>
        <time>2020-07-01T12:39:59Z</time>
      </trkpt>
      <trkpt lat="48.95114" lon="3.11192">
        <ele>70.2</ele>
        <time>2020-07-01T12:40:00Z</time>
      </trkpt>
      <trkpt lat="48.95116" lon="3.11182">
        <ele>69.7</ele>
        <time>2020-07-01T12:40:01Z</time>
      </trkpt>
      <trkpt lat="48.95117" lon="3.11172">
        <ele>69.2</ele>
        <time>2020-07-01T12:40:02Z</time>
      </trkpt>
      <trkpt lat="48.95119" lon="3.11157">
        <ele>68.7</ele>
        <time>2020-07-01T12:40:03Z</time>
      </trkpt>
      <trkpt lat="48.95121" lon="3.11144">
        <ele>68.3</ele>
        <time>2020-07-01T12:40:04Z</time>
      </trkpt>
      <trkpt lat="48.95123" lon="3.11132">
        <ele>68</ele>
        <time>2020-07-01T12:40:05Z</time>
      </trkpt>
      <trkpt lat="48.95126" lon="3.11117">
        <ele>67.8</ele>
        <time>2020-07-01T12:40:06Z</time>
      </trkpt>
      <trkpt lat="48.95128" lon="3.11105">
        <ele>67.7</ele>
        <time>2020-07-01T12:40:07Z</time>
      </trkpt>
      <trkpt lat="48.9513" lon="3.11095">
        <ele>67.7</ele>
        <time>2020-07-01T12:40:08Z</time>
      </trkpt>
      <trkpt lat="48.95133" lon="3.11085">
        <ele>67.7</ele>
        <time>2020-07-01T12:40:09Z</time>
      </trkpt>
      <trkpt lat="48.95134" lon="3.11076">
        <ele>67.8</ele>
        <time>2020-07-01T12:40:10Z</time>
      </trkpt>
      <trkpt lat="48.95135" lon="3.11068">
        <ele>67.8</ele>
        <time>2020-07-01T12:40:11Z</time>
      </trkpt>
      <trkpt lat="48.95135" lon="3.11061">
        <ele>67.7</ele>
        <time>2020-07-01T12:40:12Z</time>
      </trkpt>
      <trkpt lat="48.95134" lon="3.11055">
        <ele>67.7</ele>
        <time>2020-07-01T12:40:13Z</time>
      </trkpt>
      <trkpt lat="48.95131" lon="3.11052">
        <ele>67.6</ele>
        <time>2020-07-01T12:40:14Z</time>
      </trkpt>
      <trkpt lat="48.95127" lon="3.11051">
        <ele>67.4</ele>
        <time>2020-07-01T12:40:15Z</time>
      </trkpt>
      <trkpt lat="48.95123" lon="3.1105">
        <ele>67.3</ele>
        <time>2020-07-01T12:40:16Z</time>
      </trkpt>
      <trkpt lat="48.9512" lon="3.11049">
        <ele>67.1</ele>
        <time>2020-07-01T12:40:17Z</time>
      </trkpt>
      <trkpt lat="48.95117" lon="3.11048">
        <ele>67</ele>
        <time>2020-07-01T12:40:18Z</time>
      </trkpt>
      <trkpt lat="48.95114" lon="3.11047">
        <ele>66.9</ele>
        <time>2020-07-01T12:40:19Z</time>
      </trkpt>
      <trkpt lat="48.9511" lon="3.11047">
        <ele>66.7</ele>
        <time>2020-07-01T12:40:20Z</time>
      </trkpt>
      <trkpt lat="48.95108" lon="3.11047">
        <ele>66.7</ele>
        <time>2020-07-01T12:40:21Z</time>
      </trkpt>
      <trkpt lat="48.95105" lon="3.11043">
        <ele>66.3</ele>
        <time>2020-07-01T12:40:22Z</time>
      </trkpt>
      <trkpt lat="48.95103" lon="3.11037">
        <ele>65.9</ele>
        <time>2020-07-01T12:40:23Z</time>
      </trkpt>
      <trkpt lat="48.95106" lon="3.11029">
        <ele>65.5</ele>
        <time>2020-07-01T12:40:24Z</time>
      </trkpt>
      <trkpt lat="48.95108" lon="3.1102">
        <ele>65</ele>
        <time>2020-07-01T12:40:25Z</time>
      </trkpt>
      <trkpt lat="48.9511" lon="3.1101">
        <ele>64.6</ele>
        <time>2020-07-01T12:40:26Z</time>
      </trkpt>
      <trkpt lat="48.95113" lon="3.11">
        <ele>64.1</ele>
        <time>2020-07-01T12:40:27Z</time>
      </trkpt>
      <trkpt lat="48.95116" lon="3.10989">
        <ele>63.6</ele>
        <time>2020-07-01T12:40:28Z</time>
      </trkpt>
      <trkpt lat="48.95118" lon="3.10978">
        <ele>63.1</ele>
        <time>2020-07-01T12:40:29Z</time>
      </trkpt>
      <trkpt lat="48.95121" lon="3.10968">
        <ele>62.6</ele>
        <time>2020-07-01T12:40:30Z</time>
      </trkpt>
      <trkpt lat="48.95123" lon="3.10956">
        <ele>62.1</ele>
        <time>2020-07-01T12:40:31Z</time>
      </trkpt>
      <trkpt lat="48.95125" lon="3.10945">
        <ele>61.6</ele>
        <time>2020-07-01T12:40:32Z</time>
      </trkpt>
      <trkpt lat="48.95128" lon="3.10933">
        <ele>61.1</ele>
        <time>2020-07-01T12:40:33Z</time>
      </trkpt>
      <trkpt lat="48.9513" lon="3.1092">
        <ele>60.6</ele>
        <time>2020-07-01T12:40:34Z</time>
      </trkpt>
      <trkpt lat="48.95132" lon="3.10908">
        <ele>60</ele>
        <time>2020-07-01T12:40:35Z</time>
      </trkpt>
      <trkpt lat="48.95135" lon="3.10895">
        <ele>59.5</ele>
        <time>2020-07-01T12:40:36Z</time>
      </trkpt>
      <trkpt lat="48.95137" lon="3.10882">
        <ele>59</ele>
        <time>2020-07-01T12:40:37Z</time>
      </trkpt>
      <trkpt lat="48.95139" lon="3.10868">
        <ele>58.7</ele>
        <time>2020-07-01T12:40:38Z</time>
      </trkpt>
      <trkpt lat="48.95142" lon="3.10855">
        <ele>58.4</ele>
        <time>2020-07-01T12:40:39Z</time>
      </trkpt>
      <trkpt lat="48.95144" lon="3.10842">
        <ele>58.2</ele>
        <time>2020-07-01T12:40:40Z</time>
      </trkpt>
      <trkpt lat="48.95147" lon="3.10829">
        <ele>58.1</ele>
        <time>2020-07-01T12:40:41Z</time>
      </trkpt>
      <trkpt lat="48.95149" lon="3.10817">
        <ele>58</ele>
        <time>2020-07-01T12:40:42Z</time>
      </trkpt>
      <trkpt lat="48.95152" lon="3.10805">
        <ele>58</ele>
        <time>2020-07-01T12:40:43Z</time>
      </trkpt>
      <trkpt lat="48.95154" lon="3.10793">
        <ele>58</ele>
        <time>2020-07-01T12:40:44Z</time>
      </trkpt>
      <trkpt lat="48.95157" lon="3.10781">
        <ele>58.1</ele>
        <time>2020-07-01T12:40:45Z</time>
      </trkpt>
      <trkpt lat="48.9516" lon="3.1077">
        <ele>58.1</ele>
        <time>2020-07-01T12:40:46Z</time>
      </trkpt>
      <trkpt lat="48.95163" lon="3.10759">
        <ele>58.1</ele>
        <time>2020-07-01T12:40:47Z</time>
      </trkpt>
      <trkpt lat="48.95165" lon="3.10747">
        <ele>58.1</ele>
        <time>2020-07-01T12:40:48Z</time>
      </trkpt>
      <trkpt lat="48.95167" lon="3.10735">
        <ele>58.1</ele>
        <time>2020-07-01T12:40:49Z</time>
      </trkpt>
      <trkpt lat="48.95169" lon="3.10724">
        <ele>58.1</ele>
        <time>2020-07-01T12:40:50Z</time>
      </trkpt>
      <trkpt lat="48.95171" lon="3.10713">
        <ele>58.1</ele>
        <time>2020-07-01T12:40:51Z</time>
      </trkpt>
      <trkpt lat="48.95173" lon="3.10702">
        <ele>58.1</ele>
        <time>2020-07-01T12:40:52Z</time>
      </trkpt>
      <trkpt lat="48.95174" lon="3.1069">
        <ele>58</ele>
        <time>2020-07-01T12:40:53Z</time>
      </trkpt>
      <trkpt lat="48.95176" lon="3.10679">
        <ele>58</ele>
        <time>2020-07-01T12:40:54Z</time>
      </trkpt>
      <trkpt lat="48.95178" lon="3.10668">
        <ele>57.9</ele>
        <time>2020-07-01T12:40:55Z</time>
      </trkpt>
      <trkpt lat="48.9518" lon="3.10658">
        <ele>57.9</ele>
        <time>2020-07-01T12:40:56Z</time>
      </trkpt>
      <trkpt lat="48.95181" lon="3.10648">
        <ele>57.9</ele>
        <time>2020-07-01T12:40:57Z</time>
      </trkpt>
      <trkpt lat="48.95183" lon="3.10638">
        <ele>57.8</ele>
        <time>2020-07-01T12:40:58Z</time>
      </trkpt>
      <trkpt lat="48.95185" lon="3.10628">
        <ele>57.7</ele>
        <time>2020-07-01T12:40:59Z</time>
      </trkpt>
      <trkpt lat="48.95187" lon="3.10619">
        <ele>57.6</ele>
        <time>2020-07-01T12:41:00Z</time>
      </trkpt>
      <trkpt lat="48.95188" lon="3.10609">
        <ele>57.5</ele>
        <time>2020-07-01T12:41:01Z</time>
      </trkpt>
      <trkpt lat="48.9519" lon="3.10599">
        <ele>57.4</ele>
        <time>2020-07-01T12:41:02Z</time>
      </trkpt>
      <trkpt lat="48.95192" lon="3.10589">
        <ele>57.3</ele>
        <time>2020-07-01T12:41:03Z</time>
      </trkpt>
      <trkpt lat="48.95193" lon="3.10579">
        <ele>57.3</ele>
        <time>2020-07-01T12:41:04Z</time>
      </trkpt>
      <trkpt lat="48.95194" lon="3.10569">
        <ele>57.3</ele>
        <time>2020-07-01T12:41:05Z</time>
      </trkpt>
      <trkpt lat="48.95195" lon="3.10559">
        <ele>57.2</ele>
        <time>2020-07-01T12:41:06Z</time>
      </trkpt>
      <trkpt lat="48.95196" lon="3.10549">
        <ele>57.1</ele>
        <time>2020-07-01T12:41:07Z</time>
      </trkpt>
      <trkpt lat="48.95197" lon="3.10539">
        <ele>57</ele>
        <time>2020-07-01T12:41:08Z</time>
      </trkpt>
      <trkpt lat="48.95197" lon="3.10529">
        <ele>56.9</ele>
        <time>2020-07-01T12:41:09Z</time>
      </trkpt>
      <trkpt lat="48.95197" lon="3.10519">
        <ele>56.9</ele>
        <time>2020-07-01T12:41:10Z</time>
      </trkpt>
      <trkpt lat="48.95198" lon="3.10509">
        <ele>56.8</ele>
        <time>2020-07-01T12:41:11Z</time>
      </trkpt>
      <trkpt lat="48.95198" lon="3.10498">
        <ele>56.6</ele>
        <time>2020-07-01T12:41:12Z</time>
      </trkpt>
      <trkpt lat="48.95199" lon="3.10488">
        <ele>56.5</ele>
        <time>2020-07-01T12:41:13Z</time>
      </trkpt>
      <trkpt lat="48.95199" lon="3.10477">
        <ele>56.4</ele>
        <time>2020-07-01T12:41:14Z</time>
      </trkpt>
      <trkpt lat="48.952" lon="3.10466">
        <ele>56.3</ele>
        <time>2020-07-01T12:41:15Z</time>
      </trkpt>
      <trkpt lat="48.95201" lon="3.10456">
        <ele>56.3</ele>
        <time>2020-07-01T12:41:16Z</time>
      </trkpt>
      <trkpt lat="48.95202" lon="3.10445">
        <ele>56.3</ele>
        <time>2020-07-01T12:41:17Z</time>
      </trkpt>
      <trkpt lat="48.95202" lon="3.10435">
        <ele>56.2</ele>
        <time>2020-07-01T12:41:18Z</time>
      </trkpt>
      <trkpt lat="48.95203" lon="3.10425">
        <ele>56.2</ele>
        <time>2020-07-01T12:41:19Z</time>
      </trkpt>
      <trkpt lat="48.95203" lon="3.10414">
        <ele>56.1</ele>
        <time>2020-07-01T12:41:20Z</time>
      </trkpt>
      <trkpt lat="48.95204" lon="3.10404">
        <ele>56</ele>
        <time>2020-07-01T12:41:21Z</time>
      </trkpt>
      <trkpt lat="48.95204" lon="3.10394">
        <ele>56</ele>
        <time>2020-07-01T12:41:22Z</time>
      </trkpt>
      <trkpt lat="48.95204" lon="3.10384">
        <ele>55.9</ele>
        <time>2020-07-01T12:41:23Z</time>
      </trkpt>
      <trkpt lat="48.95205" lon="3.10374">
        <ele>55.8</ele>
        <time>2020-07-01T12:41:24Z</time>
      </trkpt>
      <trkpt lat="48.95205" lon="3.10364">
        <ele>55.7</ele>
        <time>2020-07-01T12:41:25Z</time>
      </trkpt>
      <trkpt lat="48.95206" lon="3.10354">
        <ele>55.7</ele>
        <time>2020-07-01T12:41:26Z</time>
      </trkpt>
      <trkpt lat="48.95207" lon="3.10345">
        <ele>55.6</ele>
        <time>2020-07-01T12:41:27Z</time>
      </trkpt>
      <trkpt lat="48.95208" lon="3.10335">
        <ele>55.6</ele>
        <time>2020-07-01T12:41:28Z</time>
      </trkpt>
      <trkpt lat="48.95208" lon="3.10326">
        <ele>55.5</ele>
        <time>2020-07-01T12:41:29Z</time>
      </trkpt>
      <trkpt lat="48.95209" lon="3.10317">
        <ele>55.5</ele>
        <time>2020-07-01T12:41:30Z</time>
      </trkpt>
      <trkpt lat="48.9521" lon="3.10307">
        <ele>55.4</ele>
        <time>2020-07-01T12:41:31Z</time>
      </trkpt>
      <trkpt lat="48.9521" lon="3.10298">
        <ele>55.4</ele>
        <time>2020-07-01T12:41:32Z</time>
      </trkpt>
      <trkpt lat="48.95211" lon="3.10288">
        <ele>55.3</ele>
        <time>2020-07-01T12:41:33Z</time>
      </trkpt>
      <trkpt lat="48.95211" lon="3.10279">
        <ele>55.2</ele>
        <time>2020-07-01T12:41:34Z</time>
      </trkpt>
      <trkpt lat="48.95212" lon="3.10269">
        <ele>55.1</ele>
        <time>2020-07-01T12:41:35Z</time>
      </trkpt>
      <trkpt lat="48.95213" lon="3.1026">
        <ele>55.1</ele>
        <time>2020-07-01T12:41:36Z</time>
      </trkpt>
      <trkpt lat="48.95213" lon="3.1025">
        <ele>55</ele>
        <time>2020-07-01T12:41:37Z</time>
      </trkpt>
      <trkpt lat="48.95214" lon="3.1024">
        <ele>54.9</ele>
        <time>2020-07-01T12:41:38Z</time>
      </trkpt>
      <trkpt lat="48.95215" lon="3.1023">
        <ele>54.8</ele>
        <time>2020-07-01T12:41:39Z</time>
      </trkpt>
      <trkpt lat="48.95216" lon="3.10221">
        <ele>54.8</ele>
        <time>2020-07-01T12:41:40Z</time>
      </trkpt>
      <trkpt lat="48.95216" lon="3.10211">
        <ele>54.7</ele>
        <time>2020-07-01T12:41:41Z</time>
      </trkpt>
      <trkpt lat="48.95217" lon="3.10202">
        <ele>54.7</ele>
        <time>2020-07-01T12:41:42Z</time>
      </trkpt>
      <trkpt lat="48.95217" lon="3.10193">
        <ele>54.7</ele>
        <time>2020-07-01T12:41:43Z</time>
      </trkpt>
      <trkpt lat="48.95218" lon="3.10183">
        <ele>54.6</ele>
        <time>2020-07-01T12:41:44Z</time>
      </trkpt>
      <trkpt lat="48.95219" lon="3.10174">
        <ele>54.6</ele>
        <time>2020-07-01T12:41:45Z</time>
      </trkpt>
      <trkpt lat="48.9522" lon="3.10165">
        <ele>54.5</ele>
        <time>2020-07-01T12:41:46Z</time>
      </trkpt>
      <trkpt lat="48.95221" lon="3.10155">
        <ele>54.4</ele>
        <time>2020-07-01T12:41:47Z</time>
      </trkpt>
      <trkpt lat="48.95222" lon="3.10145">
        <ele>54.4</ele>
        <time>2020-07-01T12:41:48Z</time>
      </trkpt>
      <trkpt lat="48.95223" lon="3.10136">
        <ele>54.4</ele>
        <time>2020-07-01T12:41:49Z</time>
      </trkpt>
      <trkpt lat="48.95224" lon="3.10126">
        <ele>54.4</ele>
        <time>2020-07-01T12:41:50Z</time>
      </trkpt>
      <trkpt lat="48.95226" lon="3.10116">
        <ele>54.4</ele>
        <time>2020-07-01T12:41:51Z</time>
      </trkpt>
      <trkpt lat="48.95227" lon="3.10107">
        <ele>54.3</ele>
        <time>2020-07-01T12:41:52Z</time>
      </trkpt>
      <trkpt lat="48.95229" lon="3.10097">
        <ele>54.3</ele>
        <time>2020-07-01T12:41:53Z</time>
      </trkpt>
      <trkpt lat="48.95231" lon="3.10087">
        <ele>54.3</ele>
        <time>2020-07-01T12:41:54Z</time>
      </trkpt>
      <trkpt lat="48.95232" lon="3.10077">
        <ele>54.2</ele>
        <time>2020-07-01T12:41:55Z</time>
      </trkpt>
      <trkpt lat="48.95234" lon="3.10067">
        <ele>54.2</ele>
        <time>2020-07-01T12:41:56Z</time>
      </trkpt>
      <trkpt lat="48.95236" lon="3.10057">
        <ele>54.2</ele>
        <time>2020-07-01T12:41:57Z</time>
      </trkpt>
      <trkpt lat="48.95238" lon="3.10047">
        <ele>54.2</ele>
        <time>2020-07-01T12:41:58Z</time>
      </trkpt>
      <trkpt lat="48.9524" lon="3.10037">
        <ele>54.3</ele>
        <time>2020-07-01T12:41:59Z</time>
      </trkpt>
      <trkpt lat="48.95242" lon="3.10028">
        <ele>54.3</ele>
        <time>2020-07-01T12:42:00Z</time>
      </trkpt>
      <trkpt lat="48.95244" lon="3.10019">
        <ele>54.4</ele>
        <time>2020-07-01T12:42:01Z</time>
      </trkpt>
      <trkpt lat="48.95246" lon="3.10009">
        <ele>54.5</ele>
        <time>2020-07-01T12:42:02Z</time>
      </trkpt>
      <trkpt lat="48.95249" lon="3.1">
        <ele>54.5</ele>
        <time>2020-07-01T12:42:03Z</time>
      </trkpt>
      <trkpt lat="48.95251" lon="3.09991">
        <ele>54.6</ele>
        <time>2020-07-01T12:42:04Z</time>
      </trkpt>
      <trkpt lat="48.95253" lon="3.09982">
        <ele>54.7</ele>
        <time>2020-07-01T12:42:05Z</time>
      </trkpt>
      <trkpt lat="48.95255" lon="3.09973">
        <ele>54.8</ele>
        <time>2020-07-01T12:42:06Z</time>
      </trkpt>
      <trkpt lat="48.95258" lon="3.09964">
        <ele>54.8</ele>
        <time>2020-07-01T12:42:07Z</time>
      </trkpt>
      <trkpt lat="48.9526" lon="3.09955">
        <ele>54.8</ele>
        <time>2020-07-01T12:42:08Z</time>
      </trkpt>
      <trkpt lat="48.95262" lon="3.09946">
        <ele>54.9</ele>
        <time>2020-07-01T12:42:09Z</time>
      </trkpt>
      <trkpt lat="48.95265" lon="3.09938">
        <ele>55</ele>
        <time>2020-07-01T12:42:10Z</time>
      </trkpt>
      <trkpt lat="48.95267" lon="3.09928">
        <ele>55</ele>
        <time>2020-07-01T12:42:11Z</time>
      </trkpt>
      <trkpt lat="48.95269" lon="3.09919">
        <ele>55.1</ele>
        <time>2020-07-01T12:42:12Z</time>
      </trkpt>
      <trkpt lat="48.95271" lon="3.09911">
        <ele>55.2</ele>
        <time>2020-07-01T12:42:13Z</time>
      </trkpt>
      <trkpt lat="48.95273" lon="3.09902">
        <ele>55.3</ele>
        <time>2020-07-01T12:42:14Z</time>
      </trkpt>
      <trkpt lat="48.95276" lon="3.09893">
        <ele>55.3</ele>
        <time>2020-07-01T12:42:15Z</time>
      </trkpt>
      <trkpt lat="48.95278" lon="3.09884">
        <ele>55.4</ele>
        <time>2020-07-01T12:42:16Z</time>
      </trkpt>
      <trkpt lat="48.95281" lon="3.09875">
        <ele>55.4</ele>
        <time>2020-07-01T12:42:17Z</time>
      </trkpt>
      <trkpt lat="48.95283" lon="3.09866">
        <ele>55.5</ele>
        <time>2020-07-01T12:42:18Z</time>
      </trkpt>
      <trkpt lat="48.95285" lon="3.09857">
        <ele>55.6</ele>
        <time>2020-07-01T12:42:19Z</time>
      </trkpt>
      <trkpt lat="48.95288" lon="3.09848">
        <ele>55.6</ele>
        <time>2020-07-01T12:42:20Z</time>
      </trkpt>
      <trkpt lat="48.9529" lon="3.09839">
        <ele>55.7</ele>
        <time>2020-07-01T12:42:21Z</time>
      </trkpt>
      <trkpt lat="48.95292" lon="3.0983">
        <ele>55.8</ele>
        <time>2020-07-01T12:42:22Z</time>
      </trkpt>
      <trkpt lat="48.95294" lon="3.09822">
        <ele>55.9</ele>
        <time>2020-07-01T12:42:23Z</time>
      </trkpt>
      <trkpt lat="48.95296" lon="3.09813">
        <ele>56</ele>
        <time>2020-07-01T12:42:24Z</time>
      </trkpt>
      <trkpt lat="48.95298" lon="3.09805">
        <ele>56.1</ele>
        <time>2020-07-01T12:42:25Z</time>
      </trkpt>
      <trkpt lat="48.953" lon="3.09797">
        <ele>56.1</ele>
        <time>2020-07-01T12:42:26Z</time>
      </trkpt>
      <trkpt lat="48.95301" lon="3.09788">
        <ele>56.2</ele>
        <time>2020-07-01T12:42:27Z</time>
      </trkpt>
      <trkpt lat="48.95303" lon="3.0978">
        <ele>56.3</ele>
        <time>2020-07-01T12:42:28Z</time>
      </trkpt>
      <trkpt lat="48.95305" lon="3.09772">
        <ele>56.4</ele>
        <time>2020-07-01T12:42:29Z</time>
      </trkpt>
      <trkpt lat="48.95307" lon="3.09764">
        <ele>56.4</ele>
        <time>2020-07-01T12:42:30Z</time>
      </trkpt>
      <trkpt lat="48.95309" lon="3.09757">
        <ele>56.5</ele>
        <time>2020-07-01T12:42:31Z</time>
      </trkpt>
      <trkpt lat="48.95311" lon="3.0975">
        <ele>56.6</ele>
        <time>2020-07-01T12:42:32Z</time>
      </trkpt>
      <trkpt lat="48.95313" lon="3.09742">
        <ele>56.7</ele>
        <time>2020-07-01T12:42:33Z</time>
      </trkpt>
      <trkpt lat="48.95315" lon="3.09735">
        <ele>56.7</ele>
        <time>2020-07-01T12:42:34Z</time>
      </trkpt>
      <trkpt lat="48.95317" lon="3.09728">
        <ele>56.8</ele>
        <time>2020-07-01T12:42:35Z</time>
      </trkpt>
      <trkpt lat="48.95318" lon="3.0972">
        <ele>56.8</ele>
        <time>2020-07-01T12:42:36Z</time>
      </trkpt>
      <trkpt lat="48.9532" lon="3.09713">
        <ele>56.9</ele>
        <time>2020-07-01T12:42:37Z</time>
      </trkpt>
      <trkpt lat="48.95322" lon="3.09706">
        <ele>57</ele>
        <time>2020-07-01T12:42:38Z</time>
      </trkpt>
      <trkpt lat="48.95323" lon="3.09699">
        <ele>57.1</ele>
        <time>2020-07-01T12:42:39Z</time>
      </trkpt>
      <trkpt lat="48.95324" lon="3.09691">
        <ele>57.1</ele>
        <time>2020-07-01T12:42:40Z</time>
      </trkpt>
      <trkpt lat="48.95325" lon="3.09684">
        <ele>57.2</ele>
        <time>2020-07-01T12:42:41Z</time>
      </trkpt>
      <trkpt lat="48.95326" lon="3.09677">
        <ele>57.3</ele>
        <time>2020-07-01T12:42:42Z</time>
      </trkpt>
      <trkpt lat="48.95327" lon="3.09669">
        <ele>57.4</ele>
        <time>2020-07-01T12:42:43Z</time>
      </trkpt>
      <trkpt lat="48.95328" lon="3.09662">
        <ele>57.4</ele>
        <time>2020-07-01T12:42:44Z</time>
      </trkpt>
      <trkpt lat="48.95329" lon="3.09655">
        <ele>57.5</ele>
        <time>2020-07-01T12:42:45Z</time>
      </trkpt>
      <trkpt lat="48.9533" lon="3.09647">
        <ele>57.6</ele>
        <time>2020-07-01T12:42:46Z</time>
      </trkpt>
      <trkpt lat="48.9533" lon="3.0964">
        <ele>57.7</ele>
        <time>2020-07-01T12:42:47Z</time>
      </trkpt>
      <trkpt lat="48.9533" lon="3.09632">
        <ele>57.8</ele>
        <time>2020-07-01T12:42:48Z</time>
      </trkpt>
      <trkpt lat="48.95331" lon="3.09625">
        <ele>58</ele>
        <time>2020-07-01T12:42:49Z</time>
      </trkpt>
      <trkpt lat="48.95331" lon="3.09618">
        <ele>58.1</ele>
        <time>2020-07-01T12:42:50Z</time>
      </trkpt>
      <trkpt lat="48.95331" lon="3.09611">
        <ele>58.3</ele>
        <time>2020-07-01T12:42:51Z</time>
      </trkpt>
      <trkpt lat="48.95331" lon="3.09604">
        <ele>58.4</ele>
        <time>2020-07-01T12:42:52Z</time>
      </trkpt>
      <trkpt lat="48.95332" lon="3.09597">
        <ele>58.6</ele>
        <time>2020-07-01T12:42:53Z</time>
      </trkpt>
      <trkpt lat="48.95332" lon="3.09591">
        <ele>58.8</ele>
        <time>2020-07-01T12:42:54Z</time>
      </trkpt>
      <trkpt lat="48.95332" lon="3.09585">
        <ele>58.9</ele>
        <time>2020-07-01T12:42:55Z</time>
      </trkpt>
      <trkpt lat="48.95332" lon="3.0958">
        <ele>59.1</ele>
        <time>2020-07-01T12:42:56Z</time>
      </trkpt>
      <trkpt lat="48.95333" lon="3.09573">
        <ele>59.3</ele>
        <time>2020-07-01T12:42:57Z</time>
      </trkpt>
      <trkpt lat="48.95333" lon="3.09567">
        <ele>59.5</ele>
        <time>2020-07-01T12:42:58Z</time>
      </trkpt>
      <trkpt lat="48.95335" lon="3.09559">
        <ele>59.8</ele>
        <time>2020-07-01T12:42:59Z</time>
      </trkpt>
      <trkpt lat="48.95335" lon="3.09553">
        <ele>60</ele>
        <time>2020-07-01T12:43:00Z</time>
      </trkpt>
      <trkpt lat="48.95336" lon="3.09548">
        <ele>60.1</ele>
        <time>2020-07-01T12:43:01Z</time>
      </trkpt>
      <trkpt lat="48.95336" lon="3.09542">
        <ele>60.4</ele>
        <time>2020-07-01T12:43:02Z</time>
      </trkpt>
      <trkpt lat="48.95337" lon="3.09537">
        <ele>60.6</ele>
        <time>2020-07-01T12:43:03Z</time>
      </trkpt>
      <trkpt lat="48.95337" lon="3.09531">
        <ele>60.8</ele>
        <time>2020-07-01T12:43:04Z</time>
      </trkpt>
      <trkpt lat="48.95338" lon="3.09525">
        <ele>61</ele>
        <time>2020-07-01T12:43:05Z</time>
      </trkpt>
      <trkpt lat="48.95338" lon="3.0952">
        <ele>61.3</ele>
        <time>2020-07-01T12:43:06Z</time>
      </trkpt>
      <trkpt lat="48.95338" lon="3.09516">
        <ele>61.4</ele>
        <time>2020-07-01T12:43:07Z</time>
      </trkpt>
      <trkpt lat="48.95339" lon="3.09509">
        <ele>61.7</ele>
        <time>2020-07-01T12:43:08Z</time>
      </trkpt>
      <trkpt lat="48.95339" lon="3.09507">
        <ele>61.8</ele>
        <time>2020-07-01T12:43:09Z</time>
      </trkpt>
      <trkpt lat="48.9534" lon="3.09501">
        <ele>62.1</ele>
        <time>2020-07-01T12:43:10Z</time>
      </trkpt>
      <trkpt lat="48.9534" lon="3.09498">
        <ele>62.2</ele>
        <time>2020-07-01T12:43:11Z</time>
      </trkpt>
      <trkpt lat="48.95341" lon="3.09492">
        <ele>62.4</ele>
        <time>2020-07-01T12:43:12Z</time>
      </trkpt>
      <trkpt lat="48.95342" lon="3.09488">
        <ele>62.6</ele>
        <time>2020-07-01T12:43:13Z</time>
      </trkpt>
      <trkpt lat="48.95342" lon="3.09482">
        <ele>62.9</ele>
        <time>2020-07-01T12:43:14Z</time>
      </trkpt>
      <trkpt lat="48.95343" lon="3.09477">
        <ele>63.1</ele>
        <time>2020-07-01T12:43:15Z</time>
      </trkpt>
      <trkpt lat="48.95343" lon="3.0947">
        <ele>63.4</ele>
        <time>2020-07-01T12:43:16Z</time>
      </trkpt>
      <trkpt lat="48.95344" lon="3.09465">
        <ele>63.7</ele>
        <time>2020-07-01T12:43:17Z</time>
      </trkpt>
      <trkpt lat="48.95345" lon="3.09458">
        <ele>64</ele>
        <time>2020-07-01T12:43:18Z</time>
      </trkpt>
      <trkpt lat="48.95345" lon="3.09456">
        <ele>64.1</ele>
        <time>2020-07-01T12:43:19Z</time>
      </trkpt>
      <trkpt lat="48.95346" lon="3.0945">
        <ele>64.4</ele>
        <time>2020-07-01T12:43:20Z</time>
      </trkpt>
      <trkpt lat="48.95346" lon="3.09445">
        <ele>64.6</ele>
        <time>2020-07-01T12:43:21Z</time>
      </trkpt>
      <trkpt lat="48.95347" lon="3.09439">
        <ele>64.8</ele>
        <time>2020-07-01T12:43:22Z</time>
      </trkpt>
      <trkpt lat="48.95347" lon="3.09437">
        <ele>64.9</ele>
        <time>2020-07-01T12:43:23Z</time>
      </trkpt>
      <trkpt lat="48.95348" lon="3.09432">
        <ele>65.1</ele>
        <time>2020-07-01T12:43:24Z</time>
      </trkpt>
      <trkpt lat="48.95348" lon="3.09427">
        <ele>65.3</ele>
        <time>2020-07-01T12:43:25Z</time>
      </trkpt>
      <trkpt lat="48.95349" lon="3.09422">
        <ele>65.5</ele>
        <time>2020-07-01T12:43:26Z</time>
      </trkpt>
      <trkpt lat="48.9535" lon="3.09416">
        <ele>65.8</ele>
        <time>2020-07-01T12:43:27Z</time>
      </trkpt>
      <trkpt lat="48.95351" lon="3.09413">
        <ele>65.9</ele>
        <time>2020-07-01T12:43:28Z</time>
      </trkpt>
      <trkpt lat="48.95352" lon="3.09404">
        <ele>66.3</ele>
        <time>2020-07-01T12:43:29Z</time>
      </trkpt>
      <trkpt lat="48.95353" lon="3.09398">
        <ele>66.6</ele>
        <time>2020-07-01T12:43:30Z</time>
      </trkpt>
      <trkpt lat="48.95354" lon="3.09393">
        <ele>66.8</ele>
        <time>2020-07-01T12:43:31Z</time>
      </trkpt>
      <trkpt lat="48.95355" lon="3.09388">
        <ele>67</ele>
        <time>2020-07-01T12:43:32Z</time>
      </trkpt>
      <trkpt lat="48.95356" lon="3.09383">
        <ele>67.1</ele>
        <time>2020-07-01T12:43:33Z</time>
      </trkpt>
      <trkpt lat="48.95358" lon="3.09379">
        <ele>67.3</ele>
        <time>2020-07-01T12:43:34Z</time>
      </trkpt>
      <trkpt lat="48.95359" lon="3.09375">
        <ele>67.4</ele>
        <time>2020-07-01T12:43:35Z</time>
      </trkpt>
      <trkpt lat="48.95361" lon="3.09371">
        <ele>67.5</ele>
        <time>2020-07-01T12:43:36Z</time>
      </trkpt>
      <trkpt lat="48.95364" lon="3.09369">
        <ele>67.6</ele>
        <time>2020-07-01T12:43:37Z</time>
      </trkpt>
      <trkpt lat="48.95367" lon="3.09366">
        <ele>67.7</ele>
        <time>2020-07-01T12:43:38Z</time>
      </trkpt>
      <trkpt lat="48.9537" lon="3.09363">
        <ele>67.7</ele>
        <time>2020-07-01T12:43:39Z</time>
      </trkpt>
      <trkpt lat="48.95374" lon="3.0936">
        <ele>67.8</ele>
        <time>2020-07-01T12:43:40Z</time>
      </trkpt>
      <trkpt lat="48.95377" lon="3.09358">
        <ele>67.9</ele>
        <time>2020-07-01T12:43:41Z</time>
      </trkpt>
      <trkpt lat="48.95381" lon="3.09355">
        <ele>68</ele>
        <time>2020-07-01T12:43:42Z</time>
      </trkpt>
      <trkpt lat="48.95385" lon="3.09353">
        <ele>68</ele>
        <time>2020-07-01T12:43:43Z</time>
      </trkpt>
      <trkpt lat="48.95388" lon="3.09351">
        <ele>68.1</ele>
        <time>2020-07-01T12:43:44Z</time>
      </trkpt>
      <trkpt lat="48.95391" lon="3.09349">
        <ele>68.2</ele>
        <time>2020-07-01T12:43:45Z</time>
      </trkpt>
      <trkpt lat="48.95395" lon="3.09347">
        <ele>68.3</ele>
        <time>2020-07-01T12:43:46Z</time>
      </trkpt>
      <trkpt lat="48.95399" lon="3.09345">
        <ele>68.3</ele>
        <time>2020-07-01T12:43:47Z</time>
      </trkpt>
      <trkpt lat="48.95402" lon="3.09342">
        <ele>68.4</ele>
        <time>2020-07-01T12:43:48Z</time>
      </trkpt>
      <trkpt lat="48.95404" lon="3.09338">
        <ele>68.4</ele>
        <time>2020-07-01T12:43:49Z</time>
      </trkpt>
      <trkpt lat="48.95406" lon="3.09331">
        <ele>68.2</ele>
        <time>2020-07-01T12:43:50Z</time>
      </trkpt>
      <trkpt lat="48.95405" lon="3.09324">
        <ele>67.9</ele>
        <time>2020-07-01T12:43:51Z</time>
      </trkpt>
      <trkpt lat="48.95405" lon="3.09315">
        <ele>67.6</ele>
        <time>2020-07-01T12:43:52Z</time>
      </trkpt>
      <trkpt lat="48.95404" lon="3.09307">
        <ele>67.3</ele>
        <time>2020-07-01T12:43:53Z</time>
      </trkpt>
      <trkpt lat="48.95404" lon="3.09298">
        <ele>66.9</ele>
        <time>2020-07-01T12:43:54Z</time>
      </trkpt>
      <trkpt lat="48.95404" lon="3.09289">
        <ele>66.6</ele>
        <time>2020-07-01T12:43:55Z</time>
      </trkpt>
      <trkpt lat="48.95403" lon="3.0928">
        <ele>66.3</ele>
        <time>2020-07-01T12:43:56Z</time>
      </trkpt>
      <trkpt lat="48.95403" lon="3.0927">
        <ele>66</ele>
        <time>2020-07-01T12:43:57Z</time>
      </trkpt>
      <trkpt lat="48.95402" lon="3.09257">
        <ele>65.7</ele>
        <time>2020-07-01T12:43:58Z</time>
      </trkpt>
      <trkpt lat="48.95402" lon="3.09245">
        <ele>65.6</ele>
        <time>2020-07-01T12:43:59Z</time>
      </trkpt>
      <trkpt lat="48.95401" lon="3.09232">
        <ele>65.6</ele>
        <time>2020-07-01T12:44:00Z</time>
      </trkpt>
      <trkpt lat="48.95401" lon="3.0922">
        <ele>65.6</ele>
        <time>2020-07-01T12:44:01Z</time>
      </trkpt>
      <trkpt lat="48.95401" lon="3.09209">
        <ele>65.6</ele>
        <time>2020-07-01T12:44:02Z</time>
      </trkpt>
      <trkpt lat="48.95401" lon="3.09201">
        <ele>65.7</ele>
        <time>2020-07-01T12:44:03Z</time>
      </trkpt>
      <trkpt lat="48.95401" lon="3.09192">
        <ele>65.7</ele>
        <time>2020-07-01T12:44:04Z</time>
      </trkpt>
      <trkpt lat="48.95401" lon="3.09184">
        <ele>65.8</ele>
        <time>2020-07-01T12:44:05Z</time>
      </trkpt>
      <trkpt lat="48.95401" lon="3.09176">
        <ele>65.9</ele>
        <time>2020-07-01T12:44:06Z</time>
      </trkpt>
      <trkpt lat="48.95401" lon="3.09168">
        <ele>66</ele>
        <time>2020-07-01T12:44:07Z</time>
      </trkpt>
      <trkpt lat="48.95402" lon="3.09161">
        <ele>66.1</ele>
        <time>2020-07-01T12:44:08Z</time>
      </trkpt>
      <trkpt lat="48.95402" lon="3.09153">
        <ele>66.2</ele>
        <time>2020-07-01T12:44:09Z</time>
      </trkpt>
      <trkpt lat="48.95402" lon="3.09146">
        <ele>66.4</ele>
        <time>2020-07-01T12:44:10Z</time>
      </trkpt>
      <trkpt lat="48.95403" lon="3.09138">
        <ele>66.5</ele>
        <time>2020-07-01T12:44:11Z</time>
      </trkpt>
      <trkpt lat="48.95403" lon="3.09131">
        <ele>66.6</ele>
        <time>2020-07-01T12:44:12Z</time>
      </trkpt>
      <trkpt lat="48.95403" lon="3.09124">
        <ele>66.8</ele>
        <time>2020-07-01T12:44:13Z</time>
      </trkpt>
      <trkpt lat="48.95404" lon="3.09117">
        <ele>66.9</ele>
        <time>2020-07-01T12:44:14Z</time>
      </trkpt>
      <trkpt lat="48.95405" lon="3.09109">
        <ele>67</ele>
        <time>2020-07-01T12:44:15Z</time>
      </trkpt>
      <trkpt lat="48.95405" lon="3.09101">
        <ele>67.2</ele>
        <time>2020-07-01T12:44:16Z</time>
      </trkpt>
      <trkpt lat="48.95406" lon="3.09093">
        <ele>67.4</ele>
        <time>2020-07-01T12:44:17Z</time>
      </trkpt>
      <trkpt lat="48.95407" lon="3.09085">
        <ele>67.5</ele>
        <time>2020-07-01T12:44:18Z</time>
      </trkpt>
      <trkpt lat="48.95408" lon="3.09078">
        <ele>67.6</ele>
        <time>2020-07-01T12:44:19Z</time>
      </trkpt>
      <trkpt lat="48.95408" lon="3.0907">
        <ele>67.8</ele>
        <time>2020-07-01T12:44:20Z</time>
      </trkpt>
      <trkpt lat="48.95409" lon="3.09062">
        <ele>67.9</ele>
        <time>2020-07-01T12:44:21Z</time>
      </trkpt>
      <trkpt lat="48.9541" lon="3.09055">
        <ele>68</ele>
        <time>2020-07-01T12:44:22Z</time>
      </trkpt>
      <trkpt lat="48.95411" lon="3.09047">
        <ele>68.1</ele>
        <time>2020-07-01T12:44:23Z</time>
      </trkpt>
      <trkpt lat="48.95412" lon="3.09039">
        <ele>68.2</ele>
        <time>2020-07-01T12:44:24Z</time>
      </trkpt>
      <trkpt lat="48.95413" lon="3.09031">
        <ele>68.4</ele>
        <time>2020-07-01T12:44:25Z</time>
      </trkpt>
      <trkpt lat="48.95414" lon="3.09023">
        <ele>68.5</ele>
        <time>2020-07-01T12:44:26Z</time>
      </trkpt>
      <trkpt lat="48.95415" lon="3.09015">
        <ele>68.6</ele>
        <time>2020-07-01T12:44:27Z</time>
      </trkpt>
      <trkpt lat="48.95416" lon="3.09008">
        <ele>68.7</ele>
        <time>2020-07-01T12:44:28Z</time>
      </trkpt>
      <trkpt lat="48.95418" lon="3.09">
        <ele>68.8</ele>
        <time>2020-07-01T12:44:29Z</time>
      </trkpt>
      <trkpt lat="48.95419" lon="3.08992">
        <ele>68.9</ele>
        <time>2020-07-01T12:44:30Z</time>
      </trkpt>
      <trkpt lat="48.95421" lon="3.08986">
        <ele>69</ele>
        <time>2020-07-01T12:44:31Z</time>
      </trkpt>
      <trkpt lat="48.95423" lon="3.08979">
        <ele>69.1</ele>
        <time>2020-07-01T12:44:32Z</time>
      </trkpt>
      <trkpt lat="48.95424" lon="3.08972">
        <ele>69.1</ele>
        <time>2020-07-01T12:44:33Z</time>
      </trkpt>
      <trkpt lat="48.95426" lon="3.08965">
        <ele>69.2</ele>
        <time>2020-07-01T12:44:34Z</time>
      </trkpt>
      <trkpt lat="48.95427" lon="3.08958">
        <ele>69.2</ele>
        <time>2020-07-01T12:44:35Z</time>
      </trkpt>
      <trkpt lat="48.95428" lon="3.08951">
        <ele>69.2</ele>
        <time>2020-07-01T12:44:36Z</time>
      </trkpt>
      <trkpt lat="48.95429" lon="3.08943">
        <ele>69.3</ele>
        <time>2020-07-01T12:44:37Z</time>
      </trkpt>
      <trkpt lat="48.95431" lon="3.08936">
        <ele>69.3</ele>
        <time>2020-07-01T12:44:38Z</time>
      </trkpt>
      <trkpt lat="48.95432" lon="3.08929">
        <ele>69.3</ele>
        <time>2020-07-01T12:44:39Z</time>
      </trkpt>
      <trkpt lat="48.95433" lon="3.0892">
        <ele>69.4</ele>
        <time>2020-07-01T12:44:40Z</time>
      </trkpt>
      <trkpt lat="48.95435" lon="3.0891">
        <ele>69.4</ele>
        <time>2020-07-01T12:44:41Z</time>
      </trkpt>
      <trkpt lat="48.95436" lon="3.08901">
        <ele>69.5</ele>
        <time>2020-07-01T12:44:42Z</time>
      </trkpt>
      <trkpt lat="48.95438" lon="3.08892">
        <ele>69.4</ele>
        <time>2020-07-01T12:44:43Z</time>
      </trkpt>
      <trkpt lat="48.95439" lon="3.08883">
        <ele>69.3</ele>
        <time>2020-07-01T12:44:44Z</time>
      </trkpt>
      <trkpt lat="48.95441" lon="3.08874">
        <ele>69.3</ele>
        <time>2020-07-01T12:44:45Z</time>
      </trkpt>
      <trkpt lat="48.95442" lon="3.08867">
        <ele>69.3</ele>
        <time>2020-07-01T12:44:46Z</time>
      </trkpt>
      <trkpt lat="48.95443" lon="3.08859">
        <ele>69.3</ele>
        <time>2020-07-01T12:44:47Z</time>
      </trkpt>
      <trkpt lat="48.95444" lon="3.0885">
        <ele>69.3</ele>
        <time>2020-07-01T12:44:48Z</time>
      </trkpt>
      <trkpt lat="48.95446" lon="3.08841">
        <ele>69.2</ele>
        <time>2020-07-01T12:44:49Z</time>
      </trkpt>
      <trkpt lat="48.95447" lon="3.08832">
        <ele>69.2</ele>
        <time>2020-07-01T12:44:50Z</time>
      </trkpt>
      <trkpt lat="48.95447" lon="3.08823">
        <ele>69.2</ele>
        <time>2020-07-01T12:44:51Z</time>
      </trkpt>
      <trkpt lat="48.95448" lon="3.08815">
        <ele>69.1</ele>
        <time>2020-07-01T12:44:52Z</time>
      </trkpt>
      <trkpt lat="48.95448" lon="3.08805">
        <ele>69.1</ele>
        <time>2020-07-01T12:44:53Z</time>
      </trkpt>
      <trkpt lat="48.95448" lon="3.08797">
        <ele>69</ele>
        <time>2020-07-01T12:44:54Z</time>
      </trkpt>
      <trkpt lat="48.95447" lon="3.08788">
        <ele>69</ele>
        <time>2020-07-01T12:44:55Z</time>
      </trkpt>
      <trkpt lat="48.95446" lon="3.0878">
        <ele>68.9</ele>
        <time>2020-07-01T12:44:56Z</time>
      </trkpt>
      <trkpt lat="48.95445" lon="3.08771">
        <ele>68.8</ele>
        <time>2020-07-01T12:44:57Z</time>
      </trkpt>
      <trkpt lat="48.95444" lon="3.08761">
        <ele>68.8</ele>
        <time>2020-07-01T12:44:58Z</time>
      </trkpt>
      <trkpt lat="48.95443" lon="3.08752">
        <ele>68.7</ele>
        <time>2020-07-01T12:44:59Z</time>
      </trkpt>
      <trkpt lat="48.95441" lon="3.08743">
        <ele>68.7</ele>
        <time>2020-07-01T12:45:00Z</time>
      </trkpt>
      <trkpt lat="48.95438" lon="3.08736">
        <ele>68.6</ele>
        <time>2020-07-01T12:45:01Z</time>
      </trkpt>
      <trkpt lat="48.95435" lon="3.08726">
        <ele>68.5</ele>
        <time>2020-07-01T12:45:02Z</time>
      </trkpt>
      <trkpt lat="48.95433" lon="3.08719">
        <ele>68.5</ele>
        <time>2020-07-01T12:45:03Z</time>
      </trkpt>
      <trkpt lat="48.95432" lon="3.08711">
        <ele>68.4</ele>
        <time>2020-07-01T12:45:04Z</time>
      </trkpt>
      <trkpt lat="48.95431" lon="3.08705">
        <ele>68.4</ele>
        <time>2020-07-01T12:45:05Z</time>
      </trkpt>
      <trkpt lat="48.9543" lon="3.08696">
        <ele>68.3</ele>
        <time>2020-07-01T12:45:06Z</time>
      </trkpt>
      <trkpt lat="48.95428" lon="3.08687">
        <ele>68.3</ele>
        <time>2020-07-01T12:45:07Z</time>
      </trkpt>
      <trkpt lat="48.95428" lon="3.08679">
        <ele>68.2</ele>
        <time>2020-07-01T12:45:08Z</time>
      </trkpt>
      <trkpt lat="48.95427" lon="3.0867">
        <ele>68.1</ele>
        <time>2020-07-01T12:45:09Z</time>
      </trkpt>
      <trkpt lat="48.95426" lon="3.08663">
        <ele>68.1</ele>
        <time>2020-07-01T12:45:10Z</time>
      </trkpt>
      <trkpt lat="48.95426" lon="3.08655">
        <ele>68</ele>
        <time>2020-07-01T12:45:11Z</time>
      </trkpt>
      <trkpt lat="48.95425" lon="3.08648">
        <ele>67.9</ele>
        <time>2020-07-01T12:45:12Z</time>
      </trkpt>
      <trkpt lat="48.95425" lon="3.08641">
        <ele>67.9</ele>
        <time>2020-07-01T12:45:13Z</time>
      </trkpt>
      <trkpt lat="48.95425" lon="3.08636">
        <ele>67.8</ele>
        <time>2020-07-01T12:45:14Z</time>
      </trkpt>
      <trkpt lat="48.95425" lon="3.08628">
        <ele>67.7</ele>
        <time>2020-07-01T12:45:15Z</time>
      </trkpt>
      <trkpt lat="48.95425" lon="3.08618">
        <ele>67.6</ele>
        <time>2020-07-01T12:45:16Z</time>
      </trkpt>
      <trkpt lat="48.95426" lon="3.08609">
        <ele>67.5</ele>
        <time>2020-07-01T12:45:17Z</time>
      </trkpt>
      <trkpt lat="48.95427" lon="3.08599">
        <ele>67.3</ele>
        <time>2020-07-01T12:45:18Z</time>
      </trkpt>
      <trkpt lat="48.95427" lon="3.08589">
        <ele>67.2</ele>
        <time>2020-07-01T12:45:19Z</time>
      </trkpt>
      <trkpt lat="48.95428" lon="3.0858">
        <ele>67.1</ele>
        <time>2020-07-01T12:45:20Z</time>
      </trkpt>
      <trkpt lat="48.95428" lon="3.0857">
        <ele>67</ele>
        <time>2020-07-01T12:45:21Z</time>
      </trkpt>
      <trkpt lat="48.95429" lon="3.08563">
        <ele>67</ele>
        <time>2020-07-01T12:45:22Z</time>
      </trkpt>
      <trkpt lat="48.9543" lon="3.08553">
        <ele>66.9</ele>
        <time>2020-07-01T12:45:23Z</time>
      </trkpt>
      <trkpt lat="48.95431" lon="3.08545">
        <ele>66.8</ele>
        <time>2020-07-01T12:45:24Z</time>
      </trkpt>
      <trkpt lat="48.95432" lon="3.08536">
        <ele>66.6</ele>
        <time>2020-07-01T12:45:25Z</time>
      </trkpt>
      <trkpt lat="48.95433" lon="3.08525">
        <ele>66.4</ele>
        <time>2020-07-01T12:45:26Z</time>
      </trkpt>
      <trkpt lat="48.95433" lon="3.08514">
        <ele>66.3</ele>
        <time>2020-07-01T12:45:27Z</time>
      </trkpt>
      <trkpt lat="48.95434" lon="3.08503">
        <ele>66.1</ele>
        <time>2020-07-01T12:45:28Z</time>
      </trkpt>
      <trkpt lat="48.95435" lon="3.08493">
        <ele>65.9</ele>
        <time>2020-07-01T12:45:29Z</time>
      </trkpt>
      <trkpt lat="48.95436" lon="3.08482">
        <ele>65.8</ele>
        <time>2020-07-01T12:45:30Z</time>
      </trkpt>
      <trkpt lat="48.95437" lon="3.08472">
        <ele>65.7</ele>
        <time>2020-07-01T12:45:31Z</time>
      </trkpt>
      <trkpt lat="48.95438" lon="3.08461">
        <ele>65.6</ele>
        <time>2020-07-01T12:45:32Z</time>
      </trkpt>
      <trkpt lat="48.95439" lon="3.08451">
        <ele>65.5</ele>
        <time>2020-07-01T12:45:33Z</time>
      </trkpt>
      <trkpt lat="48.9544" lon="3.0844">
        <ele>65.3</ele>
        <time>2020-07-01T12:45:34Z</time>
      </trkpt>
      <trkpt lat="48.95442" lon="3.0843">
        <ele>65.1</ele>
        <time>2020-07-01T12:45:35Z</time>
      </trkpt>
      <trkpt lat="48.95443" lon="3.08418">
        <ele>65</ele>
        <time>2020-07-01T12:45:36Z</time>
      </trkpt>
      <trkpt lat="48.95445" lon="3.08407">
        <ele>64.8</ele>
        <time>2020-07-01T12:45:37Z</time>
      </trkpt>
      <trkpt lat="48.95446" lon="3.08396">
        <ele>64.7</ele>
        <time>2020-07-01T12:45:38Z</time>
      </trkpt>
      <trkpt lat="48.95448" lon="3.08385">
        <ele>64.6</ele>
        <time>2020-07-01T12:45:39Z</time>
      </trkpt>
      <trkpt lat="48.95449" lon="3.08375">
        <ele>64.5</ele>
        <time>2020-07-01T12:45:40Z</time>
      </trkpt>
      <trkpt lat="48.95451" lon="3.08365">
        <ele>64.4</ele>
        <time>2020-07-01T12:45:41Z</time>
      </trkpt>
      <trkpt lat="48.95453" lon="3.08354">
        <ele>64.3</ele>
        <time>2020-07-01T12:45:42Z</time>
      </trkpt>
      <trkpt lat="48.95455" lon="3.08344">
        <ele>64.3</ele>
        <time>2020-07-01T12:45:43Z</time>
      </trkpt>
      <trkpt lat="48.95457" lon="3.08334">
        <ele>64.2</ele>
        <time>2020-07-01T12:45:44Z</time>
      </trkpt>
      <trkpt lat="48.95458" lon="3.08323">
        <ele>64.1</ele>
        <time>2020-07-01T12:45:45Z</time>
      </trkpt>
      <trkpt lat="48.9546" lon="3.08312">
        <ele>64</ele>
        <time>2020-07-01T12:45:46Z</time>
      </trkpt>
      <trkpt lat="48.95462" lon="3.08302">
        <ele>64</ele>
        <time>2020-07-01T12:45:47Z</time>
      </trkpt>
      <trkpt lat="48.95464" lon="3.08292">
        <ele>64</ele>
        <time>2020-07-01T12:45:48Z</time>
      </trkpt>
      <trkpt lat="48.95466" lon="3.08282">
        <ele>64</ele>
        <time>2020-07-01T12:45:49Z</time>
      </trkpt>
      <trkpt lat="48.95468" lon="3.08272">
        <ele>64.1</ele>
        <time>2020-07-01T12:45:50Z</time>
      </trkpt>
      <trkpt lat="48.95469" lon="3.08262">
        <ele>64.2</ele>
        <time>2020-07-01T12:45:51Z</time>
      </trkpt>
      <trkpt lat="48.95471" lon="3.08253">
        <ele>64.3</ele>
        <time>2020-07-01T12:45:52Z</time>
      </trkpt>
      <trkpt lat="48.95472" lon="3.08244">
        <ele>64.5</ele>
        <time>2020-07-01T12:45:53Z</time>
      </trkpt>
      <trkpt lat="48.95474" lon="3.08236">
        <ele>64.6</ele>
        <time>2020-07-01T12:45:54Z</time>
      </trkpt>
      <trkpt lat="48.95475" lon="3.08228">
        <ele>64.8</ele>
        <time>2020-07-01T12:45:55Z</time>
      </trkpt>
      <trkpt lat="48.95477" lon="3.0822">
        <ele>64.9</ele>
        <time>2020-07-01T12:45:56Z</time>
      </trkpt>
      <trkpt lat="48.95479" lon="3.08212">
        <ele>65.1</ele>
        <time>2020-07-01T12:45:57Z</time>
      </trkpt>
      <trkpt lat="48.9548" lon="3.08205">
        <ele>65.2</ele>
        <time>2020-07-01T12:45:58Z</time>
      </trkpt>
      <trkpt lat="48.95481" lon="3.08198">
        <ele>65.4</ele>
        <time>2020-07-01T12:45:59Z</time>
      </trkpt>
      <trkpt lat="48.95483" lon="3.08191">
        <ele>65.6</ele>
        <time>2020-07-01T12:46:00Z</time>
      </trkpt>
      <trkpt lat="48.95484" lon="3.08185">
        <ele>65.7</ele>
        <time>2020-07-01T12:46:01Z</time>
      </trkpt>
      <trkpt lat="48.95484" lon="3.08179">
        <ele>65.9</ele>
        <time>2020-07-01T12:46:02Z</time>
      </trkpt>
      <trkpt lat="48.95484" lon="3.08174">
        <ele>66</ele>
        <time>2020-07-01T12:46:03Z</time>
      </trkpt>
      <trkpt lat="48.95483" lon="3.08169">
        <ele>66.1</ele>
        <time>2020-07-01T12:46:04Z</time>
      </trkpt>
      <trkpt lat="48.95482" lon="3.08167">
        <ele>66.2</ele>
        <time>2020-07-01T12:46:05Z</time>
      </trkpt>
      <trkpt lat="48.9548" lon="3.08162">
        <ele>66.3</ele>
        <time>2020-07-01T12:46:06Z</time>
      </trkpt>
      <trkpt lat="48.95479" lon="3.08161">
        <ele>66.3</ele>
        <time>2020-07-01T12:46:07Z</time>
      </trkpt>
      <trkpt lat="48.95477" lon="3.08158">
        <ele>66.4</ele>
        <time>2020-07-01T12:46:08Z</time>
      </trkpt>
      <trkpt lat="48.95476" lon="3.08157">
        <ele>66.5</ele>
        <time>2020-07-01T12:46:09Z</time>
      </trkpt>
      <trkpt lat="48.95474" lon="3.08154">
        <ele>66.5</ele>
        <time>2020-07-01T12:46:10Z</time>
      </trkpt>
      <trkpt lat="48.95473" lon="3.08152">
        <ele>66.5</ele>
        <time>2020-07-01T12:46:11Z</time>
      </trkpt>
      <trkpt lat="48.9547" lon="3.08149">
        <ele>66.5</ele>
        <time>2020-07-01T12:46:12Z</time>
      </trkpt>
      <trkpt lat="48.95469" lon="3.08147">
        <ele>66.5</ele>
        <time>2020-07-01T12:46:13Z</time>
      </trkpt>
      <trkpt lat="48.95466" lon="3.08144">
        <ele>66.3</ele>
        <time>2020-07-01T12:46:14Z</time>
      </trkpt>
      <trkpt lat="48.95464" lon="3.08141">
        <ele>66.2</ele>
        <time>2020-07-01T12:46:15Z</time>
      </trkpt>
      <trkpt lat="48.95462" lon="3.08138">
        <ele>66.2</ele>
        <time>2020-07-01T12:46:16Z</time>
      </trkpt>
      <trkpt lat="48.9546" lon="3.08133">
        <ele>66.1</ele>
        <time>2020-07-01T12:46:17Z</time>
      </trkpt>
      <trkpt lat="48.9546" lon="3.08129">
        <ele>66</ele>
        <time>2020-07-01T12:46:18Z</time>
      </trkpt>
      <trkpt lat="48.95461" lon="3.08124">
        <ele>65.9</ele>
        <time>2020-07-01T12:46:19Z</time>
      </trkpt>
      <trkpt lat="48.95461" lon="3.08119">
        <ele>65.7</ele>
        <time>2020-07-01T12:46:20Z</time>
      </trkpt>
      <trkpt lat="48.95462" lon="3.08114">
        <ele>65.6</ele>
        <time>2020-07-01T12:46:21Z</time>
      </trkpt>
      <trkpt lat="48.95461" lon="3.08108">
        <ele>65.4</ele>
        <time>2020-07-01T12:46:22Z</time>
      </trkpt>
      <trkpt lat="48.95461" lon="3.08102">
        <ele>65.2</ele>
        <time>2020-07-01T12:46:23Z</time>
      </trkpt>
      <trkpt lat="48.95462" lon="3.08096">
        <ele>65</ele>
        <time>2020-07-01T12:46:24Z</time>
      </trkpt>
      <trkpt lat="48.95462" lon="3.08089">
        <ele>64.8</ele>
        <time>2020-07-01T12:46:25Z</time>
      </trkpt>
      <trkpt lat="48.95461" lon="3.08081">
        <ele>64.5</ele>
        <time>2020-07-01T12:46:26Z</time>
      </trkpt>
      <trkpt lat="48.95461" lon="3.08072">
        <ele>64.3</ele>
        <time>2020-07-01T12:46:27Z</time>
      </trkpt>
      <trkpt lat="48.95462" lon="3.08063">
        <ele>64</ele>
        <time>2020-07-01T12:46:28Z</time>
      </trkpt>
      <trkpt lat="48.95462" lon="3.08054">
        <ele>63.7</ele>
        <time>2020-07-01T12:46:29Z</time>
      </trkpt>
      <trkpt lat="48.95463" lon="3.08044">
        <ele>63.6</ele>
        <time>2020-07-01T12:46:30Z</time>
      </trkpt>
      <trkpt lat="48.95463" lon="3.08034">
        <ele>63.4</ele>
        <time>2020-07-01T12:46:31Z</time>
      </trkpt>
      <trkpt lat="48.95463" lon="3.08025">
        <ele>63.2</ele>
        <time>2020-07-01T12:46:32Z</time>
      </trkpt>
      <trkpt lat="48.95463" lon="3.08015">
        <ele>63.1</ele>
        <time>2020-07-01T12:46:33Z</time>
      </trkpt>
      <trkpt lat="48.95463" lon="3.08006">
        <ele>62.9</ele>
        <time>2020-07-01T12:46:34Z</time>
      </trkpt>
      <trkpt lat="48.95462" lon="3.07996">
        <ele>62.6</ele>
        <time>2020-07-01T12:46:35Z</time>
      </trkpt>
      <trkpt lat="48.95461" lon="3.07986">
        <ele>62.4</ele>
        <time>2020-07-01T12:46:36Z</time>
      </trkpt>
      <trkpt lat="48.95459" lon="3.07976">
        <ele>62.2</ele>
        <time>2020-07-01T12:46:37Z</time>
      </trkpt>
      <trkpt lat="48.95458" lon="3.07966">
        <ele>62</ele>
        <time>2020-07-01T12:46:38Z</time>
      </trkpt>
      <trkpt lat="48.95457" lon="3.07956">
        <ele>61.8</ele>
        <time>2020-07-01T12:46:39Z</time>
      </trkpt>
      <trkpt lat="48.95455" lon="3.07947">
        <ele>61.6</ele>
        <time>2020-07-01T12:46:40Z</time>
      </trkpt>
      <trkpt lat="48.95455" lon="3.07937">
        <ele>61.5</ele>
        <time>2020-07-01T12:46:41Z</time>
      </trkpt>
      <trkpt lat="48.95454" lon="3.07928">
        <ele>61.3</ele>
        <time>2020-07-01T12:46:42Z</time>
      </trkpt>
      <trkpt lat="48.95453" lon="3.07919">
        <ele>61.2</ele>
        <time>2020-07-01T12:46:43Z</time>
      </trkpt>
      <trkpt lat="48.95452" lon="3.0791">
        <ele>61.1</ele>
        <time>2020-07-01T12:46:44Z</time>
      </trkpt>
      <trkpt lat="48.95451" lon="3.07901">
        <ele>61</ele>
        <time>2020-07-01T12:46:45Z</time>
      </trkpt>
      <trkpt lat="48.95451" lon="3.07892">
        <ele>60.9</ele>
        <time>2020-07-01T12:46:46Z</time>
      </trkpt>
      <trkpt lat="48.95452" lon="3.07883">
        <ele>60.7</ele>
        <time>2020-07-01T12:46:47Z</time>
      </trkpt>
      <trkpt lat="48.95453" lon="3.07873">
        <ele>60.6</ele>
        <time>2020-07-01T12:46:48Z</time>
      </trkpt>
      <trkpt lat="48.95454" lon="3.07864">
        <ele>60.5</ele>
        <time>2020-07-01T12:46:49Z</time>
      </trkpt>
      <trkpt lat="48.95455" lon="3.07856">
        <ele>60.3</ele>
        <time>2020-07-01T12:46:50Z</time>
      </trkpt>
      <trkpt lat="48.95456" lon="3.07847">
        <ele>60.2</ele>
        <time>2020-07-01T12:46:51Z</time>
      </trkpt>
      <trkpt lat="48.95457" lon="3.07838">
        <ele>60.2</ele>
        <time>2020-07-01T12:46:52Z</time>
      </trkpt>
      <trkpt lat="48.95459" lon="3.0783">
        <ele>60.1</ele>
        <time>2020-07-01T12:46:53Z</time>
      </trkpt>
      <trkpt lat="48.9546" lon="3.07821">
        <ele>60</ele>
        <time>2020-07-01T12:46:54Z</time>
      </trkpt>
      <trkpt lat="48.95461" lon="3.07813">
        <ele>59.9</ele>
        <time>2020-07-01T12:46:55Z</time>
      </trkpt>
      <trkpt lat="48.95463" lon="3.07804">
        <ele>59.8</ele>
        <time>2020-07-01T12:46:56Z</time>
      </trkpt>
      <trkpt lat="48.95464" lon="3.07795">
        <ele>59.8</ele>
        <time>2020-07-01T12:46:57Z</time>
      </trkpt>
      <trkpt lat="48.95465" lon="3.07785">
        <ele>59.7</ele>
        <time>2020-07-01T12:46:58Z</time>
      </trkpt>
      <trkpt lat="48.95466" lon="3.07776">
        <ele>59.7</ele>
        <time>2020-07-01T12:46:59Z</time>
      </trkpt>
      <trkpt lat="48.95466" lon="3.07767">
        <ele>59.7</ele>
        <time>2020-07-01T12:47:00Z</time>
      </trkpt>
      <trkpt lat="48.95466" lon="3.07757">
        <ele>59.8</ele>
        <time>2020-07-01T12:47:01Z</time>
      </trkpt>
      <trkpt lat="48.95466" lon="3.07749">
        <ele>59.8</ele>
        <time>2020-07-01T12:47:02Z</time>
      </trkpt>
      <trkpt lat="48.95463" lon="3.07742">
        <ele>59.8</ele>
        <time>2020-07-01T12:47:03Z</time>
      </trkpt>
      <trkpt lat="48.95461" lon="3.07734">
        <ele>59.8</ele>
        <time>2020-07-01T12:47:04Z</time>
      </trkpt>
      <trkpt lat="48.95458" lon="3.07728">
        <ele>59.8</ele>
        <time>2020-07-01T12:47:05Z</time>
      </trkpt>
      <trkpt lat="48.95454" lon="3.07722">
        <ele>59.8</ele>
        <time>2020-07-01T12:47:06Z</time>
      </trkpt>
      <trkpt lat="48.95452" lon="3.07715">
        <ele>59.8</ele>
        <time>2020-07-01T12:47:07Z</time>
      </trkpt>
      <trkpt lat="48.95448" lon="3.07711">
        <ele>59.9</ele>
        <time>2020-07-01T12:47:08Z</time>
      </trkpt>
      <trkpt lat="48.95445" lon="3.07705">
        <ele>59.9</ele>
        <time>2020-07-01T12:47:09Z</time>
      </trkpt>
      <trkpt lat="48.9544" lon="3.07701">
        <ele>59.9</ele>
        <time>2020-07-01T12:47:10Z</time>
      </trkpt>
      <trkpt lat="48.95436" lon="3.07697">
        <ele>60</ele>
        <time>2020-07-01T12:47:11Z</time>
      </trkpt>
      <trkpt lat="48.95432" lon="3.07691">
        <ele>60</ele>
        <time>2020-07-01T12:47:12Z</time>
      </trkpt>
      <trkpt lat="48.95427" lon="3.07687">
        <ele>60.1</ele>
        <time>2020-07-01T12:47:13Z</time>
      </trkpt>
      <trkpt lat="48.95422" lon="3.07682">
        <ele>60.1</ele>
        <time>2020-07-01T12:47:14Z</time>
      </trkpt>
      <trkpt lat="48.95418" lon="3.07676">
        <ele>60.1</ele>
        <time>2020-07-01T12:47:15Z</time>
      </trkpt>
      <trkpt lat="48.95415" lon="3.0767">
        <ele>60.1</ele>
        <time>2020-07-01T12:47:16Z</time>
      </trkpt>
      <trkpt lat="48.95413" lon="3.07662">
        <ele>60.1</ele>
        <time>2020-07-01T12:47:17Z</time>
      </trkpt>
      <trkpt lat="48.95411" lon="3.07654">
        <ele>60.1</ele>
        <time>2020-07-01T12:47:18Z</time>
      </trkpt>
      <trkpt lat="48.9541" lon="3.07645">
        <ele>60</ele>
        <time>2020-07-01T12:47:19Z</time>
      </trkpt>
      <trkpt lat="48.95409" lon="3.07635">
        <ele>60</ele>
        <time>2020-07-01T12:47:20Z</time>
      </trkpt>
      <trkpt lat="48.95408" lon="3.07626">
        <ele>59.9</ele>
        <time>2020-07-01T12:47:21Z</time>
      </trkpt>
      <trkpt lat="48.95408" lon="3.07616">
        <ele>59.8</ele>
        <time>2020-07-01T12:47:22Z</time>
      </trkpt>
      <trkpt lat="48.95408" lon="3.07607">
        <ele>59.7</ele>
        <time>2020-07-01T12:47:23Z</time>
      </trkpt>
      <trkpt lat="48.95407" lon="3.07598">
        <ele>59.7</ele>
        <time>2020-07-01T12:47:24Z</time>
      </trkpt>
      <trkpt lat="48.95407" lon="3.07588">
        <ele>59.6</ele>
        <time>2020-07-01T12:47:25Z</time>
      </trkpt>
      <trkpt lat="48.95406" lon="3.07578">
        <ele>59.6</ele>
        <time>2020-07-01T12:47:26Z</time>
      </trkpt>
      <trkpt lat="48.95405" lon="3.07569">
        <ele>59.6</ele>
        <time>2020-07-01T12:47:27Z</time>
      </trkpt>
      <trkpt lat="48.95403" lon="3.07559">
        <ele>59.5</ele>
        <time>2020-07-01T12:47:28Z</time>
      </trkpt>
      <trkpt lat="48.95403" lon="3.0755">
        <ele>59.4</ele>
        <time>2020-07-01T12:47:29Z</time>
      </trkpt>
      <trkpt lat="48.95402" lon="3.0754">
        <ele>59.4</ele>
        <time>2020-07-01T12:47:30Z</time>
      </trkpt>
      <trkpt lat="48.95402" lon="3.07531">
        <ele>59.3</ele>
        <time>2020-07-01T12:47:31Z</time>
      </trkpt>
      <trkpt lat="48.95401" lon="3.07522">
        <ele>59.2</ele>
        <time>2020-07-01T12:47:32Z</time>
      </trkpt>
      <trkpt lat="48.954" lon="3.07513">
        <ele>59.2</ele>
        <time>2020-07-01T12:47:33Z</time>
      </trkpt>
      <trkpt lat="48.954" lon="3.07504">
        <ele>59.1</ele>
        <time>2020-07-01T12:47:34Z</time>
      </trkpt>
      <trkpt lat="48.95399" lon="3.07494">
        <ele>59.1</ele>
        <time>2020-07-01T12:47:35Z</time>
      </trkpt>
      <trkpt lat="48.95399" lon="3.07486">
        <ele>59</ele>
        <time>2020-07-01T12:47:36Z</time>
      </trkpt>
      <trkpt lat="48.95398" lon="3.07479">
        <ele>59</ele>
        <time>2020-07-01T12:47:37Z</time>
      </trkpt>
      <trkpt lat="48.95397" lon="3.07474">
        <ele>58.9</ele>
        <time>2020-07-01T12:47:38Z</time>
      </trkpt>
      <trkpt lat="48.95397" lon="3.07469">
        <ele>58.9</ele>
        <time>2020-07-01T12:47:39Z</time>
      </trkpt>
      <trkpt lat="48.95395" lon="3.07465">
        <ele>58.8</ele>
        <time>2020-07-01T12:47:40Z</time>
      </trkpt>
      <trkpt lat="48.95394" lon="3.07463">
        <ele>58.8</ele>
        <time>2020-07-01T12:47:41Z</time>
      </trkpt>
      <trkpt lat="48.95393" lon="3.07461">
        <ele>58.8</ele>
        <time>2020-07-01T12:47:42Z</time>
      </trkpt>
      <trkpt lat="48.95393" lon="3.07459">
        <ele>58.8</ele>
        <time>2020-07-01T12:47:43Z</time>
      </trkpt>
      <trkpt lat="48.95394" lon="3.07457">
        <ele>58.7</ele>
        <time>2020-07-01T12:47:44Z</time>
      </trkpt>
      <trkpt lat="48.95393" lon="3.07454">
        <ele>58.7</ele>
        <time>2020-07-01T12:47:45Z</time>
      </trkpt>
      <trkpt lat="48.95392" lon="3.0745">
        <ele>58.7</ele>
        <time>2020-07-01T12:47:46Z</time>
      </trkpt>
      <trkpt lat="48.95391" lon="3.07446">
        <ele>58.6</ele>
        <time>2020-07-01T12:47:47Z</time>
      </trkpt>
      <trkpt lat="48.9539" lon="3.07442">
        <ele>58.6</ele>
        <time>2020-07-01T12:47:48Z</time>
      </trkpt>
      <trkpt lat="48.95389" lon="3.07437">
        <ele>58.6</ele>
        <time>2020-07-01T12:47:49Z</time>
      </trkpt>
      <trkpt lat="48.95388" lon="3.07433">
        <ele>58.5</ele>
        <time>2020-07-01T12:47:50Z</time>
      </trkpt>
      <trkpt lat="48.95389" lon="3.07426">
        <ele>58.5</ele>
        <time>2020-07-01T12:47:51Z</time>
      </trkpt>
      <trkpt lat="48.95389" lon="3.07419">
        <ele>58.5</ele>
        <time>2020-07-01T12:47:52Z</time>
      </trkpt>
      <trkpt lat="48.9539" lon="3.07412">
        <ele>58.4</ele>
        <time>2020-07-01T12:47:53Z</time>
      </trkpt>
      <trkpt lat="48.9539" lon="3.07405">
        <ele>58.3</ele>
        <time>2020-07-01T12:47:54Z</time>
      </trkpt>
      <trkpt lat="48.9539" lon="3.07398">
        <ele>58.1</ele>
        <time>2020-07-01T12:47:55Z</time>
      </trkpt>
      <trkpt lat="48.9539" lon="3.07391">
        <ele>58</ele>
        <time>2020-07-01T12:47:56Z</time>
      </trkpt>
      <trkpt lat="48.95391" lon="3.07385">
        <ele>57.9</ele>
        <time>2020-07-01T12:47:57Z</time>
      </trkpt>
      <trkpt lat="48.95392" lon="3.07377">
        <ele>57.8</ele>
        <time>2020-07-01T12:47:58Z</time>
      </trkpt>
      <trkpt lat="48.95391" lon="3.07369">
        <ele>57.7</ele>
        <time>2020-07-01T12:47:59Z</time>
      </trkpt>
      <trkpt lat="48.95392" lon="3.07361">
        <ele>57.6</ele>
        <time>2020-07-01T12:48:00Z</time>
      </trkpt>
      <trkpt lat="48.95393" lon="3.07353">
        <ele>57.4</ele>
        <time>2020-07-01T12:48:01Z</time>
      </trkpt>
      <trkpt lat="48.95394" lon="3.07345">
        <ele>57.3</ele>
        <time>2020-07-01T12:48:02Z</time>
      </trkpt>
      <trkpt lat="48.95395" lon="3.07337">
        <ele>57.3</ele>
        <time>2020-07-01T12:48:03Z</time>
      </trkpt>
      <trkpt lat="48.95397" lon="3.0733">
        <ele>57.2</ele>
        <time>2020-07-01T12:48:04Z</time>
      </trkpt>
      <trkpt lat="48.95397" lon="3.07323">
        <ele>57.1</ele>
        <time>2020-07-01T12:48:05Z</time>
      </trkpt>
      <trkpt lat="48.95398" lon="3.07315">
        <ele>57</ele>
        <time>2020-07-01T12:48:06Z</time>
      </trkpt>
      <trkpt lat="48.95398" lon="3.07307">
        <ele>56.9</ele>
        <time>2020-07-01T12:48:07Z</time>
      </trkpt>
      <trkpt lat="48.95398" lon="3.073">
        <ele>56.8</ele>
        <time>2020-07-01T12:48:08Z</time>
      </trkpt>
      <trkpt lat="48.95398" lon="3.07293">
        <ele>56.7</ele>
        <time>2020-07-01T12:48:09Z</time>
      </trkpt>
      <trkpt lat="48.95398" lon="3.07285">
        <ele>56.5</ele>
        <time>2020-07-01T12:48:10Z</time>
      </trkpt>
      <trkpt lat="48.95399" lon="3.07278">
        <ele>56.4</ele>
        <time>2020-07-01T12:48:11Z</time>
      </trkpt>
      <trkpt lat="48.95399" lon="3.07269">
        <ele>56.3</ele>
        <time>2020-07-01T12:48:12Z</time>
      </trkpt>
      <trkpt lat="48.95399" lon="3.0726">
        <ele>56.2</ele>
        <time>2020-07-01T12:48:13Z</time>
      </trkpt>
      <trkpt lat="48.95399" lon="3.07251">
        <ele>56</ele>
        <time>2020-07-01T12:48:14Z</time>
      </trkpt>
      <trkpt lat="48.95398" lon="3.07243">
        <ele>55.9</ele>
        <time>2020-07-01T12:48:15Z</time>
      </trkpt>
      <trkpt lat="48.95398" lon="3.07234">
        <ele>55.7</ele>
        <time>2020-07-01T12:48:16Z</time>
      </trkpt>
      <trkpt lat="48.95399" lon="3.07226">
        <ele>55.6</ele>
        <time>2020-07-01T12:48:17Z</time>
      </trkpt>
      <trkpt lat="48.954" lon="3.07217">
        <ele>55.5</ele>
        <time>2020-07-01T12:48:18Z</time>
      </trkpt>
      <trkpt lat="48.954" lon="3.07209">
        <ele>55.5</ele>
        <time>2020-07-01T12:48:19Z</time>
      </trkpt>
      <trkpt lat="48.95401" lon="3.07201">
        <ele>55.6</ele>
        <time>2020-07-01T12:48:20Z</time>
      </trkpt>
      <trkpt lat="48.95401" lon="3.07193">
        <ele>55.6</ele>
        <time>2020-07-01T12:48:21Z</time>
      </trkpt>
      <trkpt lat="48.95401" lon="3.07187">
        <ele>55.7</ele>
        <time>2020-07-01T12:48:22Z</time>
      </trkpt>
      <trkpt lat="48.95402" lon="3.0718">
        <ele>55.8</ele>
        <time>2020-07-01T12:48:23Z</time>
      </trkpt>
      <trkpt lat="48.95402" lon="3.07174">
        <ele>55.8</ele>
        <time>2020-07-01T12:48:24Z</time>
      </trkpt>
      <trkpt lat="48.95403" lon="3.07168">
        <ele>55.9</ele>
        <time>2020-07-01T12:48:25Z</time>
      </trkpt>
      <trkpt lat="48.95404" lon="3.07161">
        <ele>56</ele>
        <time>2020-07-01T12:48:26Z</time>
      </trkpt>
      <trkpt lat="48.95404" lon="3.07155">
        <ele>56</ele>
        <time>2020-07-01T12:48:27Z</time>
      </trkpt>
      <trkpt lat="48.95404" lon="3.07148">
        <ele>56.1</ele>
        <time>2020-07-01T12:48:28Z</time>
      </trkpt>
      <trkpt lat="48.95405" lon="3.07142">
        <ele>56.1</ele>
        <time>2020-07-01T12:48:29Z</time>
      </trkpt>
      <trkpt lat="48.95405" lon="3.07136">
        <ele>56.1</ele>
        <time>2020-07-01T12:48:30Z</time>
      </trkpt>
      <trkpt lat="48.95407" lon="3.07128">
        <ele>56.2</ele>
        <time>2020-07-01T12:48:31Z</time>
      </trkpt>
      <trkpt lat="48.95408" lon="3.07121">
        <ele>56.2</ele>
        <time>2020-07-01T12:48:32Z</time>
      </trkpt>
      <trkpt lat="48.95409" lon="3.07113">
        <ele>56.2</ele>
        <time>2020-07-01T12:48:33Z</time>
      </trkpt>
      <trkpt lat="48.9541" lon="3.07105">
        <ele>56.2</ele>
        <time>2020-07-01T12:48:34Z</time>
      </trkpt>
      <trkpt lat="48.95412" lon="3.07097">
        <ele>56.3</ele>
        <time>2020-07-01T12:48:35Z</time>
      </trkpt>
      <trkpt lat="48.95415" lon="3.07089">
        <ele>56.4</ele>
        <time>2020-07-01T12:48:36Z</time>
      </trkpt>
      <trkpt lat="48.95418" lon="3.0708">
        <ele>56.5</ele>
        <time>2020-07-01T12:48:37Z</time>
      </trkpt>
      <trkpt lat="48.95421" lon="3.07071">
        <ele>56.7</ele>
        <time>2020-07-01T12:48:38Z</time>
      </trkpt>
      <trkpt lat="48.95424" lon="3.07062">
        <ele>56.9</ele>
        <time>2020-07-01T12:48:39Z</time>
      </trkpt>
      <trkpt lat="48.95426" lon="3.07055">
        <ele>57.1</ele>
        <time>2020-07-01T12:48:40Z</time>
      </trkpt>
      <trkpt lat="48.95428" lon="3.07049">
        <ele>57.2</ele>
        <time>2020-07-01T12:48:41Z</time>
      </trkpt>
      <trkpt lat="48.9543" lon="3.07041">
        <ele>57.3</ele>
        <time>2020-07-01T12:48:42Z</time>
      </trkpt>
      <trkpt lat="48.95432" lon="3.07035">
        <ele>57.4</ele>
        <time>2020-07-01T12:48:43Z</time>
      </trkpt>
      <trkpt lat="48.95434" lon="3.07029">
        <ele>57.5</ele>
        <time>2020-07-01T12:48:44Z</time>
      </trkpt>
      <trkpt lat="48.95436" lon="3.07023">
        <ele>57.6</ele>
        <time>2020-07-01T12:48:45Z</time>
      </trkpt>
      <trkpt lat="48.95438" lon="3.07019">
        <ele>57.7</ele>
        <time>2020-07-01T12:48:46Z</time>
      </trkpt>
      <trkpt lat="48.9544" lon="3.07013">
        <ele>57.8</ele>
        <time>2020-07-01T12:48:47Z</time>
      </trkpt>
      <trkpt lat="48.95442" lon="3.07008">
        <ele>57.9</ele>
        <time>2020-07-01T12:48:48Z</time>
      </trkpt>
      <trkpt lat="48.95444" lon="3.07">
        <ele>57.9</ele>
        <time>2020-07-01T12:48:49Z</time>
      </trkpt>
      <trkpt lat="48.95445" lon="3.06992">
        <ele>58</ele>
        <time>2020-07-01T12:48:50Z</time>
      </trkpt>
      <trkpt lat="48.95445" lon="3.06984">
        <ele>58.1</ele>
        <time>2020-07-01T12:48:51Z</time>
      </trkpt>
      <trkpt lat="48.95446" lon="3.06977">
        <ele>58.1</ele>
        <time>2020-07-01T12:48:52Z</time>
      </trkpt>
      <trkpt lat="48.95447" lon="3.06969">
        <ele>58.1</ele>
        <time>2020-07-01T12:48:53Z</time>
      </trkpt>
      <trkpt lat="48.95449" lon="3.06961">
        <ele>58.1</ele>
        <time>2020-07-01T12:48:54Z</time>
      </trkpt>
      <trkpt lat="48.9545" lon="3.06955">
        <ele>58.2</ele>
        <time>2020-07-01T12:48:55Z</time>
      </trkpt>
      <trkpt lat="48.95453" lon="3.06948">
        <ele>58.2</ele>
        <time>2020-07-01T12:48:56Z</time>
      </trkpt>
      <trkpt lat="48.95454" lon="3.06942">
        <ele>58.2</ele>
        <time>2020-07-01T12:48:57Z</time>
      </trkpt>
      <trkpt lat="48.95456" lon="3.06935">
        <ele>58.2</ele>
        <time>2020-07-01T12:48:58Z</time>
      </trkpt>
      <trkpt lat="48.95456" lon="3.0693">
        <ele>58.2</ele>
        <time>2020-07-01T12:48:59Z</time>
      </trkpt>
      <trkpt lat="48.95458" lon="3.06923">
        <ele>58.2</ele>
        <time>2020-07-01T12:49:00Z</time>
      </trkpt>
      <trkpt lat="48.95459" lon="3.06916">
        <ele>58.2</ele>
        <time>2020-07-01T12:49:01Z</time>
      </trkpt>
      <trkpt lat="48.95461" lon="3.06909">
        <ele>58.2</ele>
        <time>2020-07-01T12:49:02Z</time>
      </trkpt>
      <trkpt lat="48.95461" lon="3.06904">
        <ele>58.2</ele>
        <time>2020-07-01T12:49:03Z</time>
      </trkpt>
      <trkpt lat="48.95464" lon="3.06897">
        <ele>58.2</ele>
        <time>2020-07-01T12:49:04Z</time>
      </trkpt>
      <trkpt lat="48.95466" lon="3.0689">
        <ele>58.2</ele>
        <time>2020-07-01T12:49:05Z</time>
      </trkpt>
      <trkpt lat="48.9547" lon="3.06886">
        <ele>58.2</ele>
        <time>2020-07-01T12:49:06Z</time>
      </trkpt>
      <trkpt lat="48.95474" lon="3.06884">
        <ele>58.2</ele>
        <time>2020-07-01T12:49:07Z</time>
      </trkpt>
      <trkpt lat="48.95479" lon="3.06883">
        <ele>58.1</ele>
        <time>2020-07-01T12:49:08Z</time>
      </trkpt>
      <trkpt lat="48.95482" lon="3.06882">
        <ele>58.1</ele>
        <time>2020-07-01T12:49:09Z</time>
      </trkpt>
      <trkpt lat="48.95486" lon="3.06883">
        <ele>58.1</ele>
        <time>2020-07-01T12:49:10Z</time>
      </trkpt>
      <trkpt lat="48.95491" lon="3.06882">
        <ele>58.1</ele>
        <time>2020-07-01T12:49:11Z</time>
      </trkpt>
      <trkpt lat="48.95496" lon="3.0688">
        <ele>58.1</ele>
        <time>2020-07-01T12:49:12Z</time>
      </trkpt>
      <trkpt lat="48.95502" lon="3.06879">
        <ele>58.1</ele>
        <time>2020-07-01T12:49:13Z</time>
      </trkpt>
      <trkpt lat="48.95506" lon="3.06878">
        <ele>58.1</ele>
        <time>2020-07-01T12:49:14Z</time>
      </trkpt>
      <trkpt lat="48.95511" lon="3.06876">
        <ele>58</ele>
        <time>2020-07-01T12:49:15Z</time>
      </trkpt>
      <trkpt lat="48.95516" lon="3.06874">
        <ele>58</ele>
        <time>2020-07-01T12:49:16Z</time>
      </trkpt>
      <trkpt lat="48.95521" lon="3.0687">
        <ele>57.9</ele>
        <time>2020-07-01T12:49:17Z</time>
      </trkpt>
      <trkpt lat="48.95524" lon="3.06864">
        <ele>57.8</ele>
        <time>2020-07-01T12:49:18Z</time>
      </trkpt>
      <trkpt lat="48.95525" lon="3.06855">
        <ele>57.6</ele>
        <time>2020-07-01T12:49:19Z</time>
      </trkpt>
      <trkpt lat="48.95525" lon="3.06847">
        <ele>57.5</ele>
        <time>2020-07-01T12:49:20Z</time>
      </trkpt>
      <trkpt lat="48.95525" lon="3.0684">
        <ele>57.4</ele>
        <time>2020-07-01T12:49:21Z</time>
      </trkpt>
      <trkpt lat="48.95525" lon="3.06833">
        <ele>57.3</ele>
        <time>2020-07-01T12:49:22Z</time>
      </trkpt>
      <trkpt lat="48.95526" lon="3.06825">
        <ele>57.2</ele>
        <time>2020-07-01T12:49:23Z</time>
      </trkpt>
      <trkpt lat="48.95527" lon="3.06815">
        <ele>57.1</ele>
        <time>2020-07-01T12:49:24Z</time>
      </trkpt>
      <trkpt lat="48.95527" lon="3.06809">
        <ele>57.1</ele>
        <time>2020-07-01T12:49:25Z</time>
      </trkpt>
      <trkpt lat="48.95528" lon="3.06801">
        <ele>57</ele>
        <time>2020-07-01T12:49:26Z</time>
      </trkpt>
      <trkpt lat="48.9553" lon="3.06792">
        <ele>56.9</ele>
        <time>2020-07-01T12:49:27Z</time>
      </trkpt>
      <trkpt lat="48.95531" lon="3.06783">
        <ele>56.8</ele>
        <time>2020-07-01T12:49:28Z</time>
      </trkpt>
      <trkpt lat="48.95533" lon="3.06777">
        <ele>56.7</ele>
        <time>2020-07-01T12:49:29Z</time>
      </trkpt>
      <trkpt lat="48.95535" lon="3.06771">
        <ele>56.6</ele>
        <time>2020-07-01T12:49:30Z</time>
      </trkpt>
      <trkpt lat="48.95538" lon="3.06764">
        <ele>56.5</ele>
        <time>2020-07-01T12:49:31Z</time>
      </trkpt>
      <trkpt lat="48.9554" lon="3.06757">
        <ele>56.4</ele>
        <time>2020-07-01T12:49:32Z</time>
      </trkpt>
      <trkpt lat="48.95542" lon="3.06748">
        <ele>56.4</ele>
        <time>2020-07-01T12:49:33Z</time>
      </trkpt>
      <trkpt lat="48.95544" lon="3.06741">
        <ele>56.3</ele>
        <time>2020-07-01T12:49:34Z</time>
      </trkpt>
      <trkpt lat="48.95548" lon="3.06732">
        <ele>56.2</ele>
        <time>2020-07-01T12:49:35Z</time>
      </trkpt>
      <trkpt lat="48.9555" lon="3.06725">
        <ele>56.1</ele>
        <time>2020-07-01T12:49:36Z</time>
      </trkpt>
      <trkpt lat="48.95553" lon="3.06718">
        <ele>56</ele>
        <time>2020-07-01T12:49:37Z</time>
      </trkpt>
      <trkpt lat="48.95555" lon="3.06709">
        <ele>55.9</ele>
        <time>2020-07-01T12:49:38Z</time>
      </trkpt>
      <trkpt lat="48.95558" lon="3.06702">
        <ele>55.8</ele>
        <time>2020-07-01T12:49:39Z</time>
      </trkpt>
      <trkpt lat="48.95561" lon="3.06694">
        <ele>55.7</ele>
        <time>2020-07-01T12:49:40Z</time>
      </trkpt>
      <trkpt lat="48.95564" lon="3.06686">
        <ele>55.7</ele>
        <time>2020-07-01T12:49:41Z</time>
      </trkpt>
      <trkpt lat="48.95567" lon="3.06678">
        <ele>55.6</ele>
        <time>2020-07-01T12:49:42Z</time>
      </trkpt>
      <trkpt lat="48.9557" lon="3.06672">
        <ele>55.5</ele>
        <time>2020-07-01T12:49:43Z</time>
      </trkpt>
      <trkpt lat="48.95574" lon="3.06663">
        <ele>55.4</ele>
        <time>2020-07-01T12:49:44Z</time>
      </trkpt>
      <trkpt lat="48.95577" lon="3.06653">
        <ele>55.3</ele>
        <time>2020-07-01T12:49:45Z</time>
      </trkpt>
      <trkpt lat="48.95581" lon="3.06644">
        <ele>55.2</ele>
        <time>2020-07-01T12:49:46Z</time>
      </trkpt>
      <trkpt lat="48.95584" lon="3.06635">
        <ele>55.1</ele>
        <time>2020-07-01T12:49:47Z</time>
      </trkpt>
      <trkpt lat="48.95588" lon="3.06626">
        <ele>55</ele>
        <time>2020-07-01T12:49:48Z</time>
      </trkpt>
      <trkpt lat="48.95591" lon="3.06616">
        <ele>54.9</ele>
        <time>2020-07-01T12:49:49Z</time>
      </trkpt>
      <trkpt lat="48.95595" lon="3.06608">
        <ele>54.8</ele>
        <time>2020-07-01T12:49:50Z</time>
      </trkpt>
      <trkpt lat="48.95598" lon="3.06599">
        <ele>54.7</ele>
        <time>2020-07-01T12:49:51Z</time>
      </trkpt>
      <trkpt lat="48.95602" lon="3.0659">
        <ele>54.6</ele>
        <time>2020-07-01T12:49:52Z</time>
      </trkpt>
      <trkpt lat="48.95605" lon="3.06582">
        <ele>54.5</ele>
        <time>2020-07-01T12:49:53Z</time>
      </trkpt>
      <trkpt lat="48.95608" lon="3.06573">
        <ele>54.4</ele>
        <time>2020-07-01T12:49:54Z</time>
      </trkpt>
      <trkpt lat="48.95612" lon="3.06566">
        <ele>54.3</ele>
        <time>2020-07-01T12:49:55Z</time>
      </trkpt>
      <trkpt lat="48.95615" lon="3.06559">
        <ele>54.3</ele>
        <time>2020-07-01T12:49:56Z</time>
      </trkpt>
      <trkpt lat="48.95619" lon="3.06551">
        <ele>54.3</ele>
        <time>2020-07-01T12:49:57Z</time>
      </trkpt>
      <trkpt lat="48.95622" lon="3.06544">
        <ele>54.2</ele>
        <time>2020-07-01T12:49:58Z</time>
      </trkpt>
      <trkpt lat="48.95626" lon="3.06535">
        <ele>54.2</ele>
        <time>2020-07-01T12:49:59Z</time>
      </trkpt>
      <trkpt lat="48.9563" lon="3.06526">
        <ele>54.3</ele>
        <time>2020-07-01T12:50:00Z</time>
      </trkpt>
      <trkpt lat="48.95634" lon="3.06518">
        <ele>54.3</ele>
        <time>2020-07-01T12:50:01Z</time>
      </trkpt>
      <trkpt lat="48.95638" lon="3.06509">
        <ele>54.3</ele>
        <time>2020-07-01T12:50:02Z</time>
      </trkpt>
      <trkpt lat="48.95641" lon="3.065">
        <ele>54.3</ele>
        <time>2020-07-01T12:50:03Z</time>
      </trkpt>
      <trkpt lat="48.95645" lon="3.06492">
        <ele>54.2</ele>
        <time>2020-07-01T12:50:04Z</time>
      </trkpt>
      <trkpt lat="48.95648" lon="3.06484">
        <ele>54.2</ele>
        <time>2020-07-01T12:50:05Z</time>
      </trkpt>
      <trkpt lat="48.95652" lon="3.06476">
        <ele>54.3</ele>
        <time>2020-07-01T12:50:06Z</time>
      </trkpt>
      <trkpt lat="48.95655" lon="3.06468">
        <ele>54.4</ele>
        <time>2020-07-01T12:50:07Z</time>
      </trkpt>
      <trkpt lat="48.95659" lon="3.0646">
        <ele>54.5</ele>
        <time>2020-07-01T12:50:08Z</time>
      </trkpt>
      <trkpt lat="48.95662" lon="3.06451">
        <ele>54.6</ele>
        <time>2020-07-01T12:50:09Z</time>
      </trkpt>
      <trkpt lat="48.95666" lon="3.06443">
        <ele>54.7</ele>
        <time>2020-07-01T12:50:10Z</time>
      </trkpt>
      <trkpt lat="48.9567" lon="3.06436">
        <ele>54.9</ele>
        <time>2020-07-01T12:50:11Z</time>
      </trkpt>
      <trkpt lat="48.95675" lon="3.06428">
        <ele>55.1</ele>
        <time>2020-07-01T12:50:12Z</time>
      </trkpt>
      <trkpt lat="48.95678" lon="3.06419">
        <ele>55.3</ele>
        <time>2020-07-01T12:50:13Z</time>
      </trkpt>
      <trkpt lat="48.95681" lon="3.06412">
        <ele>55.5</ele>
        <time>2020-07-01T12:50:14Z</time>
      </trkpt>
      <trkpt lat="48.95685" lon="3.06404">
        <ele>55.7</ele>
        <time>2020-07-01T12:50:15Z</time>
      </trkpt>
      <trkpt lat="48.95688" lon="3.06396">
        <ele>55.9</ele>
        <time>2020-07-01T12:50:16Z</time>
      </trkpt>
      <trkpt lat="48.9569" lon="3.06389">
        <ele>56</ele>
        <time>2020-07-01T12:50:17Z</time>
      </trkpt>
      <trkpt lat="48.95693" lon="3.06383">
        <ele>56.2</ele>
        <time>2020-07-01T12:50:18Z</time>
      </trkpt>
      <trkpt lat="48.95696" lon="3.06376">
        <ele>56.3</ele>
        <time>2020-07-01T12:50:19Z</time>
      </trkpt>
      <trkpt lat="48.95699" lon="3.0637">
        <ele>56.5</ele>
        <time>2020-07-01T12:50:20Z</time>
      </trkpt>
      <trkpt lat="48.95701" lon="3.06364">
        <ele>56.6</ele>
        <time>2020-07-01T12:50:21Z</time>
      </trkpt>
      <trkpt lat="48.95704" lon="3.06358">
        <ele>56.8</ele>
        <time>2020-07-01T12:50:22Z</time>
      </trkpt>
      <trkpt lat="48.95707" lon="3.06353">
        <ele>56.9</ele>
        <time>2020-07-01T12:50:23Z</time>
      </trkpt>
      <trkpt lat="48.95709" lon="3.06348">
        <ele>56.9</ele>
        <time>2020-07-01T12:50:24Z</time>
      </trkpt>
      <trkpt lat="48.95711" lon="3.06341">
        <ele>57</ele>
        <time>2020-07-01T12:50:25Z</time>
      </trkpt>
      <trkpt lat="48.95713" lon="3.06336">
        <ele>57.1</ele>
        <time>2020-07-01T12:50:26Z</time>
      </trkpt>
      <trkpt lat="48.95716" lon="3.0633">
        <ele>57.2</ele>
        <time>2020-07-01T12:50:27Z</time>
      </trkpt>
      <trkpt lat="48.95719" lon="3.06322">
        <ele>57.4</ele>
        <time>2020-07-01T12:50:28Z</time>
      </trkpt>
      <trkpt lat="48.95722" lon="3.06314">
        <ele>57.5</ele>
        <time>2020-07-01T12:50:29Z</time>
      </trkpt>
      <trkpt lat="48.95725" lon="3.06308">
        <ele>57.6</ele>
        <time>2020-07-01T12:50:30Z</time>
      </trkpt>
      <trkpt lat="48.95727" lon="3.06302">
        <ele>57.7</ele>
        <time>2020-07-01T12:50:31Z</time>
      </trkpt>
      <trkpt lat="48.9573" lon="3.06295">
        <ele>57.7</ele>
        <time>2020-07-01T12:50:32Z</time>
      </trkpt>
      <trkpt lat="48.95733" lon="3.06288">
        <ele>57.8</ele>
        <time>2020-07-01T12:50:33Z</time>
      </trkpt>
      <trkpt lat="48.95735" lon="3.06281">
        <ele>57.9</ele>
        <time>2020-07-01T12:50:34Z</time>
      </trkpt>
      <trkpt lat="48.95738" lon="3.06273">
        <ele>58</ele>
        <time>2020-07-01T12:50:35Z</time>
      </trkpt>
      <trkpt lat="48.95741" lon="3.06266">
        <ele>58.1</ele>
        <time>2020-07-01T12:50:36Z</time>
      </trkpt>
      <trkpt lat="48.95744" lon="3.06259">
        <ele>58.2</ele>
        <time>2020-07-01T12:50:37Z</time>
      </trkpt>
      <trkpt lat="48.95747" lon="3.06253">
        <ele>58.3</ele>
        <time>2020-07-01T12:50:38Z</time>
      </trkpt>
      <trkpt lat="48.95748" lon="3.06248">
        <ele>58.3</ele>
        <time>2020-07-01T12:50:39Z</time>
      </trkpt>
      <trkpt lat="48.9575" lon="3.06242">
        <ele>58.3</ele>
        <time>2020-07-01T12:50:40Z</time>
      </trkpt>
      <trkpt lat="48.95753" lon="3.06236">
        <ele>58.4</ele>
        <time>2020-07-01T12:50:41Z</time>
      </trkpt>
      <trkpt lat="48.95755" lon="3.0623">
        <ele>58.4</ele>
        <time>2020-07-01T12:50:42Z</time>
      </trkpt>
      <trkpt lat="48.95757" lon="3.06223">
        <ele>58.5</ele>
        <time>2020-07-01T12:50:43Z</time>
      </trkpt>
      <trkpt lat="48.9576" lon="3.06216">
        <ele>58.6</ele>
        <time>2020-07-01T12:50:44Z</time>
      </trkpt>
      <trkpt lat="48.95762" lon="3.06209">
        <ele>58.7</ele>
        <time>2020-07-01T12:50:45Z</time>
      </trkpt>
      <trkpt lat="48.95763" lon="3.06203">
        <ele>58.7</ele>
        <time>2020-07-01T12:50:46Z</time>
      </trkpt>
      <trkpt lat="48.95765" lon="3.06195">
        <ele>58.7</ele>
        <time>2020-07-01T12:50:47Z</time>
      </trkpt>
      <trkpt lat="48.95767" lon="3.06187">
        <ele>58.7</ele>
        <time>2020-07-01T12:50:48Z</time>
      </trkpt>
      <trkpt lat="48.95768" lon="3.06181">
        <ele>58.7</ele>
        <time>2020-07-01T12:50:49Z</time>
      </trkpt>
      <trkpt lat="48.95769" lon="3.06174">
        <ele>58.7</ele>
        <time>2020-07-01T12:50:50Z</time>
      </trkpt>
      <trkpt lat="48.9577" lon="3.06169">
        <ele>58.8</ele>
        <time>2020-07-01T12:50:51Z</time>
      </trkpt>
      <trkpt lat="48.95771" lon="3.06161">
        <ele>58.8</ele>
        <time>2020-07-01T12:50:52Z</time>
      </trkpt>
      <trkpt lat="48.95773" lon="3.06152">
        <ele>58.8</ele>
        <time>2020-07-01T12:50:53Z</time>
      </trkpt>
      <trkpt lat="48.95775" lon="3.06143">
        <ele>58.8</ele>
        <time>2020-07-01T12:50:54Z</time>
      </trkpt>
      <trkpt lat="48.95777" lon="3.06135">
        <ele>58.9</ele>
        <time>2020-07-01T12:50:55Z</time>
      </trkpt>
      <trkpt lat="48.95778" lon="3.06128">
        <ele>58.9</ele>
        <time>2020-07-01T12:50:56Z</time>
      </trkpt>
      <trkpt lat="48.95779" lon="3.06119">
        <ele>58.9</ele>
        <time>2020-07-01T12:50:57Z</time>
      </trkpt>
      <trkpt lat="48.95781" lon="3.06109">
        <ele>59</ele>
        <time>2020-07-01T12:50:58Z</time>
      </trkpt>
      <trkpt lat="48.95782" lon="3.06101">
        <ele>59</ele>
        <time>2020-07-01T12:50:59Z</time>
      </trkpt>
      <trkpt lat="48.95784" lon="3.06093">
        <ele>59.1</ele>
        <time>2020-07-01T12:51:00Z</time>
      </trkpt>
      <trkpt lat="48.95785" lon="3.06084">
        <ele>59.1</ele>
        <time>2020-07-01T12:51:01Z</time>
      </trkpt>
      <trkpt lat="48.95786" lon="3.06077">
        <ele>59.2</ele>
        <time>2020-07-01T12:51:02Z</time>
      </trkpt>
      <trkpt lat="48.95787" lon="3.0607">
        <ele>59.2</ele>
        <time>2020-07-01T12:51:03Z</time>
      </trkpt>
      <trkpt lat="48.95788" lon="3.06063">
        <ele>59.3</ele>
        <time>2020-07-01T12:51:04Z</time>
      </trkpt>
      <trkpt lat="48.95789" lon="3.06057">
        <ele>59.3</ele>
        <time>2020-07-01T12:51:05Z</time>
      </trkpt>
      <trkpt lat="48.95791" lon="3.06048">
        <ele>59.4</ele>
        <time>2020-07-01T12:51:06Z</time>
      </trkpt>
      <trkpt lat="48.95793" lon="3.06041">
        <ele>59.4</ele>
        <time>2020-07-01T12:51:07Z</time>
      </trkpt>
      <trkpt lat="48.95794" lon="3.06033">
        <ele>59.4</ele>
        <time>2020-07-01T12:51:08Z</time>
      </trkpt>
      <trkpt lat="48.95795" lon="3.06025">
        <ele>59.4</ele>
        <time>2020-07-01T12:51:09Z</time>
      </trkpt>
      <trkpt lat="48.95796" lon="3.06018">
        <ele>59.4</ele>
        <time>2020-07-01T12:51:10Z</time>
      </trkpt>
      <trkpt lat="48.95798" lon="3.06008">
        <ele>59.5</ele>
        <time>2020-07-01T12:51:11Z</time>
      </trkpt>
      <trkpt lat="48.958" lon="3.06001">
        <ele>59.5</ele>
        <time>2020-07-01T12:51:12Z</time>
      </trkpt>
      <trkpt lat="48.958" lon="3.05994">
        <ele>59.5</ele>
        <time>2020-07-01T12:51:13Z</time>
      </trkpt>
      <trkpt lat="48.95802" lon="3.05987">
        <ele>59.5</ele>
        <time>2020-07-01T12:51:14Z</time>
      </trkpt>
      <trkpt lat="48.95804" lon="3.05979">
        <ele>59.6</ele>
        <time>2020-07-01T12:51:15Z</time>
      </trkpt>
      <trkpt lat="48.95806" lon="3.05971">
        <ele>59.6</ele>
        <time>2020-07-01T12:51:16Z</time>
      </trkpt>
      <trkpt lat="48.95807" lon="3.05963">
        <ele>59.6</ele>
        <time>2020-07-01T12:51:17Z</time>
      </trkpt>
      <trkpt lat="48.95809" lon="3.05955">
        <ele>59.6</ele>
        <time>2020-07-01T12:51:18Z</time>
      </trkpt>
      <trkpt lat="48.9581" lon="3.05946">
        <ele>59.7</ele>
        <time>2020-07-01T12:51:19Z</time>
      </trkpt>
      <trkpt lat="48.95812" lon="3.05938">
        <ele>59.8</ele>
        <time>2020-07-01T12:51:20Z</time>
      </trkpt>
      <trkpt lat="48.95814" lon="3.05931">
        <ele>59.8</ele>
        <time>2020-07-01T12:51:21Z</time>
      </trkpt>
      <trkpt lat="48.95815" lon="3.05923">
        <ele>59.9</ele>
        <time>2020-07-01T12:51:22Z</time>
      </trkpt>
      <trkpt lat="48.95817" lon="3.05914">
        <ele>60</ele>
        <time>2020-07-01T12:51:23Z</time>
      </trkpt>
      <trkpt lat="48.95818" lon="3.05906">
        <ele>60</ele>
        <time>2020-07-01T12:51:24Z</time>
      </trkpt>
      <trkpt lat="48.9582" lon="3.05898">
        <ele>60.1</ele>
        <time>2020-07-01T12:51:25Z</time>
      </trkpt>
      <trkpt lat="48.95821" lon="3.05892">
        <ele>60.1</ele>
        <time>2020-07-01T12:51:26Z</time>
      </trkpt>
      <trkpt lat="48.95823" lon="3.05884">
        <ele>60.1</ele>
        <time>2020-07-01T12:51:27Z</time>
      </trkpt>
      <trkpt lat="48.95824" lon="3.05876">
        <ele>60.1</ele>
        <time>2020-07-01T12:51:28Z</time>
      </trkpt>
      <trkpt lat="48.95826" lon="3.05866">
        <ele>60.1</ele>
        <time>2020-07-01T12:51:29Z</time>
      </trkpt>
      <trkpt lat="48.95828" lon="3.05858">
        <ele>60.2</ele>
        <time>2020-07-01T12:51:30Z</time>
      </trkpt>
      <trkpt lat="48.95829" lon="3.05851">
        <ele>60.2</ele>
        <time>2020-07-01T12:51:31Z</time>
      </trkpt>
      <trkpt lat="48.9583" lon="3.05844">
        <ele>60.3</ele>
        <time>2020-07-01T12:51:32Z</time>
      </trkpt>
      <trkpt lat="48.95831" lon="3.05837">
        <ele>60.3</ele>
        <time>2020-07-01T12:51:33Z</time>
      </trkpt>
      <trkpt lat="48.95832" lon="3.05831">
        <ele>60.4</ele>
        <time>2020-07-01T12:51:34Z</time>
      </trkpt>
      <trkpt lat="48.95833" lon="3.05824">
        <ele>60.4</ele>
        <time>2020-07-01T12:51:35Z</time>
      </trkpt>
      <trkpt lat="48.95834" lon="3.05816">
        <ele>60.5</ele>
        <time>2020-07-01T12:51:36Z</time>
      </trkpt>
      <trkpt lat="48.95835" lon="3.05808">
        <ele>60.6</ele>
        <time>2020-07-01T12:51:37Z</time>
      </trkpt>
      <trkpt lat="48.95837" lon="3.05798">
        <ele>60.7</ele>
        <time>2020-07-01T12:51:38Z</time>
      </trkpt>
      <trkpt lat="48.95838" lon="3.0579">
        <ele>60.7</ele>
        <time>2020-07-01T12:51:39Z</time>
      </trkpt>
      <trkpt lat="48.95839" lon="3.05782">
        <ele>60.8</ele>
        <time>2020-07-01T12:51:40Z</time>
      </trkpt>
      <trkpt lat="48.9584" lon="3.05775">
        <ele>60.9</ele>
        <time>2020-07-01T12:51:41Z</time>
      </trkpt>
      <trkpt lat="48.95841" lon="3.05768">
        <ele>60.9</ele>
        <time>2020-07-01T12:51:42Z</time>
      </trkpt>
      <trkpt lat="48.95842" lon="3.0576">
        <ele>61</ele>
        <time>2020-07-01T12:51:43Z</time>
      </trkpt>
      <trkpt lat="48.95844" lon="3.05752">
        <ele>61</ele>
        <time>2020-07-01T12:51:44Z</time>
      </trkpt>
      <trkpt lat="48.95845" lon="3.05745">
        <ele>61.1</ele>
        <time>2020-07-01T12:51:45Z</time>
      </trkpt>
      <trkpt lat="48.95846" lon="3.05737">
        <ele>61.2</ele>
        <time>2020-07-01T12:51:46Z</time>
      </trkpt>
      <trkpt lat="48.95847" lon="3.05729">
        <ele>61.2</ele>
        <time>2020-07-01T12:51:47Z</time>
      </trkpt>
      <trkpt lat="48.95848" lon="3.05723">
        <ele>61.3</ele>
        <time>2020-07-01T12:51:48Z</time>
      </trkpt>
      <trkpt lat="48.9585" lon="3.05715">
        <ele>61.3</ele>
        <time>2020-07-01T12:51:49Z</time>
      </trkpt>
      <trkpt lat="48.95851" lon="3.05707">
        <ele>61.4</ele>
        <time>2020-07-01T12:51:50Z</time>
      </trkpt>
      <trkpt lat="48.95852" lon="3.057">
        <ele>61.4</ele>
        <time>2020-07-01T12:51:51Z</time>
      </trkpt>
      <trkpt lat="48.95853" lon="3.05691">
        <ele>61.4</ele>
        <time>2020-07-01T12:51:52Z</time>
      </trkpt>
      <trkpt lat="48.95855" lon="3.05682">
        <ele>61.4</ele>
        <time>2020-07-01T12:51:53Z</time>
      </trkpt>
      <trkpt lat="48.95856" lon="3.05674">
        <ele>61.4</ele>
        <time>2020-07-01T12:51:54Z</time>
      </trkpt>
      <trkpt lat="48.95857" lon="3.05665">
        <ele>61.4</ele>
        <time>2020-07-01T12:51:55Z</time>
      </trkpt>
      <trkpt lat="48.95858" lon="3.05657">
        <ele>61.4</ele>
        <time>2020-07-01T12:51:56Z</time>
      </trkpt>
      <trkpt lat="48.9586" lon="3.05648">
        <ele>61.4</ele>
        <time>2020-07-01T12:51:57Z</time>
      </trkpt>
      <trkpt lat="48.95861" lon="3.0564">
        <ele>61.4</ele>
        <time>2020-07-01T12:51:58Z</time>
      </trkpt>
      <trkpt lat="48.95862" lon="3.05633">
        <ele>61.4</ele>
        <time>2020-07-01T12:51:59Z</time>
      </trkpt>
      <trkpt lat="48.95863" lon="3.05626">
        <ele>61.5</ele>
        <time>2020-07-01T12:52:00Z</time>
      </trkpt>
      <trkpt lat="48.95864" lon="3.05617">
        <ele>61.5</ele>
        <time>2020-07-01T12:52:01Z</time>
      </trkpt>
      <trkpt lat="48.95866" lon="3.05606">
        <ele>61.5</ele>
        <time>2020-07-01T12:52:02Z</time>
      </trkpt>
      <trkpt lat="48.95867" lon="3.05597">
        <ele>61.5</ele>
        <time>2020-07-01T12:52:03Z</time>
      </trkpt>
      <trkpt lat="48.95867" lon="3.0559">
        <ele>61.6</ele>
        <time>2020-07-01T12:52:04Z</time>
      </trkpt>
      <trkpt lat="48.95868" lon="3.05582">
        <ele>61.6</ele>
        <time>2020-07-01T12:52:05Z</time>
      </trkpt>
      <trkpt lat="48.95868" lon="3.05574">
        <ele>61.6</ele>
        <time>2020-07-01T12:52:06Z</time>
      </trkpt>
      <trkpt lat="48.95869" lon="3.05566">
        <ele>61.7</ele>
        <time>2020-07-01T12:52:07Z</time>
      </trkpt>
      <trkpt lat="48.9587" lon="3.05557">
        <ele>61.7</ele>
        <time>2020-07-01T12:52:08Z</time>
      </trkpt>
      <trkpt lat="48.95871" lon="3.0555">
        <ele>61.7</ele>
        <time>2020-07-01T12:52:09Z</time>
      </trkpt>
      <trkpt lat="48.95872" lon="3.05543">
        <ele>61.8</ele>
        <time>2020-07-01T12:52:10Z</time>
      </trkpt>
      <trkpt lat="48.95874" lon="3.05533">
        <ele>61.8</ele>
        <time>2020-07-01T12:52:11Z</time>
      </trkpt>
      <trkpt lat="48.95876" lon="3.05525">
        <ele>61.9</ele>
        <time>2020-07-01T12:52:12Z</time>
      </trkpt>
      <trkpt lat="48.95877" lon="3.05515">
        <ele>61.9</ele>
        <time>2020-07-01T12:52:13Z</time>
      </trkpt>
      <trkpt lat="48.95878" lon="3.05508">
        <ele>61.9</ele>
        <time>2020-07-01T12:52:14Z</time>
      </trkpt>
      <trkpt lat="48.95879" lon="3.05501">
        <ele>61.9</ele>
        <time>2020-07-01T12:52:15Z</time>
      </trkpt>
      <trkpt lat="48.9588" lon="3.05494">
        <ele>61.9</ele>
        <time>2020-07-01T12:52:16Z</time>
      </trkpt>
      <trkpt lat="48.95881" lon="3.05486">
        <ele>61.8</ele>
        <time>2020-07-01T12:52:17Z</time>
      </trkpt>
      <trkpt lat="48.95883" lon="3.05478">
        <ele>61.7</ele>
        <time>2020-07-01T12:52:18Z</time>
      </trkpt>
      <trkpt lat="48.95884" lon="3.0547">
        <ele>61.7</ele>
        <time>2020-07-01T12:52:19Z</time>
      </trkpt>
      <trkpt lat="48.95885" lon="3.05462">
        <ele>61.7</ele>
        <time>2020-07-01T12:52:20Z</time>
      </trkpt>
      <trkpt lat="48.95887" lon="3.05454">
        <ele>61.7</ele>
        <time>2020-07-01T12:52:21Z</time>
      </trkpt>
      <trkpt lat="48.95888" lon="3.05446">
        <ele>61.7</ele>
        <time>2020-07-01T12:52:22Z</time>
      </trkpt>
      <trkpt lat="48.95889" lon="3.05438">
        <ele>61.7</ele>
        <time>2020-07-01T12:52:23Z</time>
      </trkpt>
      <trkpt lat="48.9589" lon="3.05431">
        <ele>61.7</ele>
        <time>2020-07-01T12:52:24Z</time>
      </trkpt>
      <trkpt lat="48.95891" lon="3.05423">
        <ele>61.7</ele>
        <time>2020-07-01T12:52:25Z</time>
      </trkpt>
      <trkpt lat="48.95892" lon="3.05416">
        <ele>61.7</ele>
        <time>2020-07-01T12:52:26Z</time>
      </trkpt>
      <trkpt lat="48.95893" lon="3.05408">
        <ele>61.8</ele>
        <time>2020-07-01T12:52:27Z</time>
      </trkpt>
      <trkpt lat="48.95894" lon="3.054">
        <ele>61.8</ele>
        <time>2020-07-01T12:52:28Z</time>
      </trkpt>
      <trkpt lat="48.95896" lon="3.05392">
        <ele>61.8</ele>
        <time>2020-07-01T12:52:29Z</time>
      </trkpt>
      <trkpt lat="48.95897" lon="3.05384">
        <ele>61.8</ele>
        <time>2020-07-01T12:52:30Z</time>
      </trkpt>
      <trkpt lat="48.95899" lon="3.05377">
        <ele>61.8</ele>
        <time>2020-07-01T12:52:31Z</time>
      </trkpt>
      <trkpt lat="48.95901" lon="3.05368">
        <ele>61.9</ele>
        <time>2020-07-01T12:52:32Z</time>
      </trkpt>
      <trkpt lat="48.95903" lon="3.05359">
        <ele>61.9</ele>
        <time>2020-07-01T12:52:33Z</time>
      </trkpt>
      <trkpt lat="48.95905" lon="3.05351">
        <ele>61.9</ele>
        <time>2020-07-01T12:52:34Z</time>
      </trkpt>
      <trkpt lat="48.95907" lon="3.05343">
        <ele>62</ele>
        <time>2020-07-01T12:52:35Z</time>
      </trkpt>
      <trkpt lat="48.95909" lon="3.05336">
        <ele>62</ele>
        <time>2020-07-01T12:52:36Z</time>
      </trkpt>
      <trkpt lat="48.9591" lon="3.05328">
        <ele>62.1</ele>
        <time>2020-07-01T12:52:37Z</time>
      </trkpt>
      <trkpt lat="48.95911" lon="3.05321">
        <ele>62.1</ele>
        <time>2020-07-01T12:52:38Z</time>
      </trkpt>
      <trkpt lat="48.95912" lon="3.05313">
        <ele>62.1</ele>
        <time>2020-07-01T12:52:39Z</time>
      </trkpt>
      <trkpt lat="48.95913" lon="3.05306">
        <ele>62.2</ele>
        <time>2020-07-01T12:52:40Z</time>
      </trkpt>
      <trkpt lat="48.95915" lon="3.05299">
        <ele>62.2</ele>
        <time>2020-07-01T12:52:41Z</time>
      </trkpt>
      <trkpt lat="48.95917" lon="3.0529">
        <ele>62.2</ele>
        <time>2020-07-01T12:52:42Z</time>
      </trkpt>
      <trkpt lat="48.95918" lon="3.05282">
        <ele>62.3</ele>
        <time>2020-07-01T12:52:43Z</time>
      </trkpt>
      <trkpt lat="48.9592" lon="3.05275">
        <ele>62.3</ele>
        <time>2020-07-01T12:52:44Z</time>
      </trkpt>
      <trkpt lat="48.95922" lon="3.05266">
        <ele>62.4</ele>
        <time>2020-07-01T12:52:45Z</time>
      </trkpt>
      <trkpt lat="48.95922" lon="3.05258">
        <ele>62.4</ele>
        <time>2020-07-01T12:52:46Z</time>
      </trkpt>
      <trkpt lat="48.95923" lon="3.0525">
        <ele>62.5</ele>
        <time>2020-07-01T12:52:47Z</time>
      </trkpt>
      <trkpt lat="48.95924" lon="3.05243">
        <ele>62.5</ele>
        <time>2020-07-01T12:52:48Z</time>
      </trkpt>
      <trkpt lat="48.95925" lon="3.05235">
        <ele>62.6</ele>
        <time>2020-07-01T12:52:49Z</time>
      </trkpt>
      <trkpt lat="48.95926" lon="3.05227">
        <ele>62.6</ele>
        <time>2020-07-01T12:52:50Z</time>
      </trkpt>
      <trkpt lat="48.95926" lon="3.05219">
        <ele>62.7</ele>
        <time>2020-07-01T12:52:51Z</time>
      </trkpt>
      <trkpt lat="48.95928" lon="3.0521">
        <ele>62.7</ele>
        <time>2020-07-01T12:52:52Z</time>
      </trkpt>
      <trkpt lat="48.95929" lon="3.05203">
        <ele>62.8</ele>
        <time>2020-07-01T12:52:53Z</time>
      </trkpt>
      <trkpt lat="48.95931" lon="3.05195">
        <ele>62.8</ele>
        <time>2020-07-01T12:52:54Z</time>
      </trkpt>
      <trkpt lat="48.95932" lon="3.05188">
        <ele>62.9</ele>
        <time>2020-07-01T12:52:55Z</time>
      </trkpt>
      <trkpt lat="48.95933" lon="3.0518">
        <ele>62.9</ele>
        <time>2020-07-01T12:52:56Z</time>
      </trkpt>
      <trkpt lat="48.95933" lon="3.05172">
        <ele>63</ele>
        <time>2020-07-01T12:52:57Z</time>
      </trkpt>
      <trkpt lat="48.95933" lon="3.05164">
        <ele>63</ele>
        <time>2020-07-01T12:52:58Z</time>
      </trkpt>
      <trkpt lat="48.95933" lon="3.05156">
        <ele>63</ele>
        <time>2020-07-01T12:52:59Z</time>
      </trkpt>
      <trkpt lat="48.95934" lon="3.05148">
        <ele>63.1</ele>
        <time>2020-07-01T12:53:00Z</time>
      </trkpt>
      <trkpt lat="48.95934" lon="3.05141">
        <ele>63.1</ele>
        <time>2020-07-01T12:53:01Z</time>
      </trkpt>
      <trkpt lat="48.95934" lon="3.05133">
        <ele>63.1</ele>
        <time>2020-07-01T12:53:02Z</time>
      </trkpt>
      <trkpt lat="48.95934" lon="3.05126">
        <ele>63.2</ele>
        <time>2020-07-01T12:53:03Z</time>
      </trkpt>
      <trkpt lat="48.95934" lon="3.05118">
        <ele>63.2</ele>
        <time>2020-07-01T12:53:04Z</time>
      </trkpt>
      <trkpt lat="48.95934" lon="3.05109">
        <ele>63.2</ele>
        <time>2020-07-01T12:53:05Z</time>
      </trkpt>
      <trkpt lat="48.95935" lon="3.05101">
        <ele>63.3</ele>
        <time>2020-07-01T12:53:06Z</time>
      </trkpt>
      <trkpt lat="48.95935" lon="3.05092">
        <ele>63.3</ele>
        <time>2020-07-01T12:53:07Z</time>
      </trkpt>
      <trkpt lat="48.95935" lon="3.05084">
        <ele>63.3</ele>
        <time>2020-07-01T12:53:08Z</time>
      </trkpt>
      <trkpt lat="48.95936" lon="3.05075">
        <ele>63.3</ele>
        <time>2020-07-01T12:53:09Z</time>
      </trkpt>
      <trkpt lat="48.95937" lon="3.05067">
        <ele>63.3</ele>
        <time>2020-07-01T12:53:10Z</time>
      </trkpt>
      <trkpt lat="48.95937" lon="3.05057">
        <ele>63.2</ele>
        <time>2020-07-01T12:53:11Z</time>
      </trkpt>
      <trkpt lat="48.95937" lon="3.05048">
        <ele>63.2</ele>
        <time>2020-07-01T12:53:12Z</time>
      </trkpt>
      <trkpt lat="48.95937" lon="3.05039">
        <ele>63.2</ele>
        <time>2020-07-01T12:53:13Z</time>
      </trkpt>
      <trkpt lat="48.95937" lon="3.05031">
        <ele>63.2</ele>
        <time>2020-07-01T12:53:14Z</time>
      </trkpt>
      <trkpt lat="48.95936" lon="3.05023">
        <ele>63.1</ele>
        <time>2020-07-01T12:53:15Z</time>
      </trkpt>
      <trkpt lat="48.95936" lon="3.05014">
        <ele>63.1</ele>
        <time>2020-07-01T12:53:16Z</time>
      </trkpt>
      <trkpt lat="48.95935" lon="3.05006">
        <ele>63.1</ele>
        <time>2020-07-01T12:53:17Z</time>
      </trkpt>
      <trkpt lat="48.95935" lon="3.04996">
        <ele>63.1</ele>
        <time>2020-07-01T12:53:18Z</time>
      </trkpt>
      <trkpt lat="48.95935" lon="3.04987">
        <ele>63.1</ele>
        <time>2020-07-01T12:53:19Z</time>
      </trkpt>
      <trkpt lat="48.95935" lon="3.04978">
        <ele>63</ele>
        <time>2020-07-01T12:53:20Z</time>
      </trkpt>
      <trkpt lat="48.95934" lon="3.04969">
        <ele>63</ele>
        <time>2020-07-01T12:53:21Z</time>
      </trkpt>
      <trkpt lat="48.95933" lon="3.0496">
        <ele>62.9</ele>
        <time>2020-07-01T12:53:22Z</time>
      </trkpt>
      <trkpt lat="48.95933" lon="3.04951">
        <ele>62.9</ele>
        <time>2020-07-01T12:53:23Z</time>
      </trkpt>
      <trkpt lat="48.95933" lon="3.04941">
        <ele>62.8</ele>
        <time>2020-07-01T12:53:24Z</time>
      </trkpt>
      <trkpt lat="48.95933" lon="3.04932">
        <ele>62.8</ele>
        <time>2020-07-01T12:53:25Z</time>
      </trkpt>
      <trkpt lat="48.95933" lon="3.04923">
        <ele>62.7</ele>
        <time>2020-07-01T12:53:26Z</time>
      </trkpt>
      <trkpt lat="48.95933" lon="3.04915">
        <ele>62.7</ele>
        <time>2020-07-01T12:53:27Z</time>
      </trkpt>
      <trkpt lat="48.95933" lon="3.04906">
        <ele>62.6</ele>
        <time>2020-07-01T12:53:28Z</time>
      </trkpt>
      <trkpt lat="48.95933" lon="3.04897">
        <ele>62.5</ele>
        <time>2020-07-01T12:53:29Z</time>
      </trkpt>
      <trkpt lat="48.95933" lon="3.04889">
        <ele>62.5</ele>
        <time>2020-07-01T12:53:30Z</time>
      </trkpt>
      <trkpt lat="48.95932" lon="3.0488">
        <ele>62.4</ele>
        <time>2020-07-01T12:53:31Z</time>
      </trkpt>
      <trkpt lat="48.95932" lon="3.04872">
        <ele>62.3</ele>
        <time>2020-07-01T12:53:32Z</time>
      </trkpt>
      <trkpt lat="48.95932" lon="3.04863">
        <ele>62.2</ele>
        <time>2020-07-01T12:53:33Z</time>
      </trkpt>
      <trkpt lat="48.95931" lon="3.04854">
        <ele>62.1</ele>
        <time>2020-07-01T12:53:34Z</time>
      </trkpt>
      <trkpt lat="48.95931" lon="3.04845">
        <ele>62</ele>
        <time>2020-07-01T12:53:35Z</time>
      </trkpt>
      <trkpt lat="48.95931" lon="3.04835">
        <ele>62</ele>
        <time>2020-07-01T12:53:36Z</time>
      </trkpt>
      <trkpt lat="48.9593" lon="3.04824">
        <ele>61.9</ele>
        <time>2020-07-01T12:53:37Z</time>
      </trkpt>
      <trkpt lat="48.9593" lon="3.04814">
        <ele>61.9</ele>
        <time>2020-07-01T12:53:38Z</time>
      </trkpt>
      <trkpt lat="48.9593" lon="3.04803">
        <ele>61.8</ele>
        <time>2020-07-01T12:53:39Z</time>
      </trkpt>
      <trkpt lat="48.95929" lon="3.04794">
        <ele>61.8</ele>
        <time>2020-07-01T12:53:40Z</time>
      </trkpt>
      <trkpt lat="48.95929" lon="3.04783">
        <ele>61.7</ele>
        <time>2020-07-01T12:53:41Z</time>
      </trkpt>
      <trkpt lat="48.95928" lon="3.04773">
        <ele>61.6</ele>
        <time>2020-07-01T12:53:42Z</time>
      </trkpt>
      <trkpt lat="48.95929" lon="3.04764">
        <ele>61.5</ele>
        <time>2020-07-01T12:53:43Z</time>
      </trkpt>
      <trkpt lat="48.95929" lon="3.04756">
        <ele>61.5</ele>
        <time>2020-07-01T12:53:44Z</time>
      </trkpt>
      <trkpt lat="48.95928" lon="3.04747">
        <ele>61.4</ele>
        <time>2020-07-01T12:53:45Z</time>
      </trkpt>
      <trkpt lat="48.95928" lon="3.04739">
        <ele>61.4</ele>
        <time>2020-07-01T12:53:46Z</time>
      </trkpt>
      <trkpt lat="48.95927" lon="3.0473">
        <ele>61.3</ele>
        <time>2020-07-01T12:53:47Z</time>
      </trkpt>
      <trkpt lat="48.95927" lon="3.0472">
        <ele>61.3</ele>
        <time>2020-07-01T12:53:48Z</time>
      </trkpt>
      <trkpt lat="48.95926" lon="3.0471">
        <ele>61.2</ele>
        <time>2020-07-01T12:53:49Z</time>
      </trkpt>
      <trkpt lat="48.95926" lon="3.04702">
        <ele>61.1</ele>
        <time>2020-07-01T12:53:50Z</time>
      </trkpt>
      <trkpt lat="48.95926" lon="3.04693">
        <ele>61.1</ele>
        <time>2020-07-01T12:53:51Z</time>
      </trkpt>
      <trkpt lat="48.95926" lon="3.04684">
        <ele>61</ele>
        <time>2020-07-01T12:53:52Z</time>
      </trkpt>
      <trkpt lat="48.95926" lon="3.04672">
        <ele>61</ele>
        <time>2020-07-01T12:53:53Z</time>
      </trkpt>
      <trkpt lat="48.95925" lon="3.04662">
        <ele>60.9</ele>
        <time>2020-07-01T12:53:54Z</time>
      </trkpt>
      <trkpt lat="48.95925" lon="3.04653">
        <ele>60.9</ele>
        <time>2020-07-01T12:53:55Z</time>
      </trkpt>
      <trkpt lat="48.95924" lon="3.04644">
        <ele>60.9</ele>
        <time>2020-07-01T12:53:56Z</time>
      </trkpt>
      <trkpt lat="48.95923" lon="3.04634">
        <ele>60.8</ele>
        <time>2020-07-01T12:53:57Z</time>
      </trkpt>
      <trkpt lat="48.95923" lon="3.04625">
        <ele>60.8</ele>
        <time>2020-07-01T12:53:58Z</time>
      </trkpt>
      <trkpt lat="48.95922" lon="3.04616">
        <ele>60.7</ele>
        <time>2020-07-01T12:53:59Z</time>
      </trkpt>
      <trkpt lat="48.95922" lon="3.04606">
        <ele>60.7</ele>
        <time>2020-07-01T12:54:00Z</time>
      </trkpt>
      <trkpt lat="48.95921" lon="3.04596">
        <ele>60.7</ele>
        <time>2020-07-01T12:54:01Z</time>
      </trkpt>
      <trkpt lat="48.95921" lon="3.04586">
        <ele>60.6</ele>
        <time>2020-07-01T12:54:02Z</time>
      </trkpt>
      <trkpt lat="48.9592" lon="3.04577">
        <ele>60.6</ele>
        <time>2020-07-01T12:54:03Z</time>
      </trkpt>
      <trkpt lat="48.9592" lon="3.04568">
        <ele>60.6</ele>
        <time>2020-07-01T12:54:04Z</time>
      </trkpt>
      <trkpt lat="48.9592" lon="3.04558">
        <ele>60.6</ele>
        <time>2020-07-01T12:54:05Z</time>
      </trkpt>
      <trkpt lat="48.9592" lon="3.04549">
        <ele>60.5</ele>
        <time>2020-07-01T12:54:06Z</time>
      </trkpt>
      <trkpt lat="48.95919" lon="3.0454">
        <ele>60.5</ele>
        <time>2020-07-01T12:54:07Z</time>
      </trkpt>
      <trkpt lat="48.95919" lon="3.0453">
        <ele>60.5</ele>
        <time>2020-07-01T12:54:08Z</time>
      </trkpt>
      <trkpt lat="48.95918" lon="3.04521">
        <ele>60.5</ele>
        <time>2020-07-01T12:54:09Z</time>
      </trkpt>
      <trkpt lat="48.95917" lon="3.04511">
        <ele>60.5</ele>
        <time>2020-07-01T12:54:10Z</time>
      </trkpt>
      <trkpt lat="48.95917" lon="3.04502">
        <ele>60.4</ele>
        <time>2020-07-01T12:54:11Z</time>
      </trkpt>
      <trkpt lat="48.95916" lon="3.04493">
        <ele>60.4</ele>
        <time>2020-07-01T12:54:12Z</time>
      </trkpt>
      <trkpt lat="48.95916" lon="3.04483">
        <ele>60.4</ele>
        <time>2020-07-01T12:54:13Z</time>
      </trkpt>
      <trkpt lat="48.95916" lon="3.04474">
        <ele>60.3</ele>
        <time>2020-07-01T12:54:14Z</time>
      </trkpt>
      <trkpt lat="48.95916" lon="3.04464">
        <ele>60.3</ele>
        <time>2020-07-01T12:54:15Z</time>
      </trkpt>
      <trkpt lat="48.95916" lon="3.04455">
        <ele>60.3</ele>
        <time>2020-07-01T12:54:16Z</time>
      </trkpt>
      <trkpt lat="48.95916" lon="3.04445">
        <ele>60.2</ele>
        <time>2020-07-01T12:54:17Z</time>
      </trkpt>
      <trkpt lat="48.95916" lon="3.04436">
        <ele>60.2</ele>
        <time>2020-07-01T12:54:18Z</time>
      </trkpt>
      <trkpt lat="48.95916" lon="3.04426">
        <ele>60.2</ele>
        <time>2020-07-01T12:54:19Z</time>
      </trkpt>
      <trkpt lat="48.95915" lon="3.04417">
        <ele>60.1</ele>
        <time>2020-07-01T12:54:20Z</time>
      </trkpt>
      <trkpt lat="48.95915" lon="3.04407">
        <ele>60.1</ele>
        <time>2020-07-01T12:54:21Z</time>
      </trkpt>
      <trkpt lat="48.95915" lon="3.04396">
        <ele>60.1</ele>
        <time>2020-07-01T12:54:22Z</time>
      </trkpt>
      <trkpt lat="48.95915" lon="3.04387">
        <ele>60.1</ele>
        <time>2020-07-01T12:54:23Z</time>
      </trkpt>
      <trkpt lat="48.95915" lon="3.0438">
        <ele>60.1</ele>
        <time>2020-07-01T12:54:24Z</time>
      </trkpt>
      <trkpt lat="48.95916" lon="3.04371">
        <ele>60.2</ele>
        <time>2020-07-01T12:54:25Z</time>
      </trkpt>
      <trkpt lat="48.95916" lon="3.0436">
        <ele>60.2</ele>
        <time>2020-07-01T12:54:26Z</time>
      </trkpt>
      <trkpt lat="48.95916" lon="3.04352">
        <ele>60.1</ele>
        <time>2020-07-01T12:54:27Z</time>
      </trkpt>
      <trkpt lat="48.95916" lon="3.04343">
        <ele>60</ele>
        <time>2020-07-01T12:54:28Z</time>
      </trkpt>
      <trkpt lat="48.95917" lon="3.04336">
        <ele>60</ele>
        <time>2020-07-01T12:54:29Z</time>
      </trkpt>
      <trkpt lat="48.95916" lon="3.04327">
        <ele>59.9</ele>
        <time>2020-07-01T12:54:30Z</time>
      </trkpt>
      <trkpt lat="48.95917" lon="3.04318">
        <ele>59.9</ele>
        <time>2020-07-01T12:54:31Z</time>
      </trkpt>
      <trkpt lat="48.95917" lon="3.0431">
        <ele>59.8</ele>
        <time>2020-07-01T12:54:32Z</time>
      </trkpt>
      <trkpt lat="48.95917" lon="3.043">
        <ele>59.7</ele>
        <time>2020-07-01T12:54:33Z</time>
      </trkpt>
      <trkpt lat="48.95918" lon="3.04291">
        <ele>59.6</ele>
        <time>2020-07-01T12:54:34Z</time>
      </trkpt>
      <trkpt lat="48.95918" lon="3.04284">
        <ele>59.6</ele>
        <time>2020-07-01T12:54:35Z</time>
      </trkpt>
      <trkpt lat="48.95918" lon="3.04275">
        <ele>59.5</ele>
        <time>2020-07-01T12:54:36Z</time>
      </trkpt>
      <trkpt lat="48.95918" lon="3.04267">
        <ele>59.4</ele>
        <time>2020-07-01T12:54:37Z</time>
      </trkpt>
      <trkpt lat="48.95918" lon="3.04257">
        <ele>59.3</ele>
        <time>2020-07-01T12:54:38Z</time>
      </trkpt>
      <trkpt lat="48.95918" lon="3.04247">
        <ele>59.2</ele>
        <time>2020-07-01T12:54:39Z</time>
      </trkpt>
      <trkpt lat="48.95918" lon="3.04238">
        <ele>59.1</ele>
        <time>2020-07-01T12:54:40Z</time>
      </trkpt>
      <trkpt lat="48.95919" lon="3.04229">
        <ele>59.1</ele>
        <time>2020-07-01T12:54:41Z</time>
      </trkpt>
      <trkpt lat="48.95918" lon="3.04222">
        <ele>59</ele>
        <time>2020-07-01T12:54:42Z</time>
      </trkpt>
      <trkpt lat="48.95918" lon="3.04213">
        <ele>58.9</ele>
        <time>2020-07-01T12:54:43Z</time>
      </trkpt>
      <trkpt lat="48.95919" lon="3.04203">
        <ele>58.7</ele>
        <time>2020-07-01T12:54:44Z</time>
      </trkpt>
      <trkpt lat="48.95919" lon="3.04192">
        <ele>58.6</ele>
        <time>2020-07-01T12:54:45Z</time>
      </trkpt>
      <trkpt lat="48.9592" lon="3.04184">
        <ele>58.5</ele>
        <time>2020-07-01T12:54:46Z</time>
      </trkpt>
      <trkpt lat="48.9592" lon="3.04173">
        <ele>58.4</ele>
        <time>2020-07-01T12:54:47Z</time>
      </trkpt>
      <trkpt lat="48.9592" lon="3.04163">
        <ele>58.3</ele>
        <time>2020-07-01T12:54:48Z</time>
      </trkpt>
      <trkpt lat="48.9592" lon="3.04154">
        <ele>58.3</ele>
        <time>2020-07-01T12:54:49Z</time>
      </trkpt>
      <trkpt lat="48.95919" lon="3.04144">
        <ele>58.2</ele>
        <time>2020-07-01T12:54:50Z</time>
      </trkpt>
      <trkpt lat="48.9592" lon="3.04134">
        <ele>58.2</ele>
        <time>2020-07-01T12:54:51Z</time>
      </trkpt>
      <trkpt lat="48.95919" lon="3.04124">
        <ele>58.2</ele>
        <time>2020-07-01T12:54:52Z</time>
      </trkpt>
      <trkpt lat="48.9592" lon="3.04114">
        <ele>58.2</ele>
        <time>2020-07-01T12:54:53Z</time>
      </trkpt>
      <trkpt lat="48.9592" lon="3.04104">
        <ele>58.2</ele>
        <time>2020-07-01T12:54:54Z</time>
      </trkpt>
      <trkpt lat="48.9592" lon="3.04095">
        <ele>58.2</ele>
        <time>2020-07-01T12:54:55Z</time>
      </trkpt>
      <trkpt lat="48.95919" lon="3.04089">
        <ele>58.2</ele>
        <time>2020-07-01T12:54:56Z</time>
      </trkpt>
      <trkpt lat="48.9592" lon="3.04081">
        <ele>58.3</ele>
        <time>2020-07-01T12:54:57Z</time>
      </trkpt>
      <trkpt lat="48.9592" lon="3.04072">
        <ele>58.3</ele>
        <time>2020-07-01T12:54:58Z</time>
      </trkpt>
      <trkpt lat="48.9592" lon="3.04061">
        <ele>58.3</ele>
        <time>2020-07-01T12:54:59Z</time>
      </trkpt>
      <trkpt lat="48.95921" lon="3.04051">
        <ele>58.4</ele>
        <time>2020-07-01T12:55:00Z</time>
      </trkpt>
      <trkpt lat="48.95921" lon="3.04041">
        <ele>58.4</ele>
        <time>2020-07-01T12:55:01Z</time>
      </trkpt>
      <trkpt lat="48.95921" lon="3.04029">
        <ele>58.5</ele>
        <time>2020-07-01T12:55:02Z</time>
      </trkpt>
      <trkpt lat="48.95921" lon="3.04019">
        <ele>58.7</ele>
        <time>2020-07-01T12:55:03Z</time>
      </trkpt>
      <trkpt lat="48.95921" lon="3.04007">
        <ele>58.8</ele>
        <time>2020-07-01T12:55:04Z</time>
      </trkpt>
      <trkpt lat="48.9592" lon="3.03996">
        <ele>59</ele>
        <time>2020-07-01T12:55:05Z</time>
      </trkpt>
      <trkpt lat="48.9592" lon="3.03985">
        <ele>59.1</ele>
        <time>2020-07-01T12:55:06Z</time>
      </trkpt>
      <trkpt lat="48.95919" lon="3.03975">
        <ele>59.3</ele>
        <time>2020-07-01T12:55:07Z</time>
      </trkpt>
      <trkpt lat="48.95919" lon="3.03965">
        <ele>59.4</ele>
        <time>2020-07-01T12:55:08Z</time>
      </trkpt>
      <trkpt lat="48.95918" lon="3.03954">
        <ele>59.5</ele>
        <time>2020-07-01T12:55:09Z</time>
      </trkpt>
      <trkpt lat="48.95918" lon="3.03944">
        <ele>59.6</ele>
        <time>2020-07-01T12:55:10Z</time>
      </trkpt>
      <trkpt lat="48.95918" lon="3.03934">
        <ele>59.6</ele>
        <time>2020-07-01T12:55:11Z</time>
      </trkpt>
      <trkpt lat="48.95918" lon="3.03925">
        <ele>59.6</ele>
        <time>2020-07-01T12:55:12Z</time>
      </trkpt>
      <trkpt lat="48.95918" lon="3.03916">
        <ele>59.7</ele>
        <time>2020-07-01T12:55:13Z</time>
      </trkpt>
      <trkpt lat="48.95918" lon="3.03907">
        <ele>59.7</ele>
        <time>2020-07-01T12:55:14Z</time>
      </trkpt>
      <trkpt lat="48.95918" lon="3.03898">
        <ele>59.6</ele>
        <time>2020-07-01T12:55:15Z</time>
      </trkpt>
      <trkpt lat="48.95918" lon="3.0389">
        <ele>59.6</ele>
        <time>2020-07-01T12:55:16Z</time>
      </trkpt>
      <trkpt lat="48.95918" lon="3.03881">
        <ele>59.5</ele>
        <time>2020-07-01T12:55:17Z</time>
      </trkpt>
      <trkpt lat="48.95918" lon="3.03873">
        <ele>59.5</ele>
        <time>2020-07-01T12:55:18Z</time>
      </trkpt>
      <trkpt lat="48.95919" lon="3.03865">
        <ele>59.4</ele>
        <time>2020-07-01T12:55:19Z</time>
      </trkpt>
      <trkpt lat="48.9592" lon="3.03856">
        <ele>59.3</ele>
        <time>2020-07-01T12:55:20Z</time>
      </trkpt>
      <trkpt lat="48.95919" lon="3.03847">
        <ele>59.2</ele>
        <time>2020-07-01T12:55:21Z</time>
      </trkpt>
      <trkpt lat="48.95919" lon="3.03838">
        <ele>59.2</ele>
        <time>2020-07-01T12:55:22Z</time>
      </trkpt>
      <trkpt lat="48.95918" lon="3.03828">
        <ele>59.1</ele>
        <time>2020-07-01T12:55:23Z</time>
      </trkpt>
      <trkpt lat="48.95917" lon="3.03818">
        <ele>58.9</ele>
        <time>2020-07-01T12:55:24Z</time>
      </trkpt>
      <trkpt lat="48.95917" lon="3.03808">
        <ele>58.8</ele>
        <time>2020-07-01T12:55:25Z</time>
      </trkpt>
      <trkpt lat="48.95917" lon="3.03798">
        <ele>58.6</ele>
        <time>2020-07-01T12:55:26Z</time>
      </trkpt>
      <trkpt lat="48.95916" lon="3.03788">
        <ele>58.5</ele>
        <time>2020-07-01T12:55:27Z</time>
      </trkpt>
      <trkpt lat="48.95916" lon="3.03779">
        <ele>58.3</ele>
        <time>2020-07-01T12:55:28Z</time>
      </trkpt>
      <trkpt lat="48.95916" lon="3.03769">
        <ele>58.2</ele>
        <time>2020-07-01T12:55:29Z</time>
      </trkpt>
      <trkpt lat="48.95915" lon="3.0376">
        <ele>58.1</ele>
        <time>2020-07-01T12:55:30Z</time>
      </trkpt>
      <trkpt lat="48.95915" lon="3.0375">
        <ele>57.9</ele>
        <time>2020-07-01T12:55:31Z</time>
      </trkpt>
      <trkpt lat="48.95914" lon="3.0374">
        <ele>57.8</ele>
        <time>2020-07-01T12:55:32Z</time>
      </trkpt>
      <trkpt lat="48.95914" lon="3.0373">
        <ele>57.7</ele>
        <time>2020-07-01T12:55:33Z</time>
      </trkpt>
      <trkpt lat="48.95914" lon="3.03721">
        <ele>57.6</ele>
        <time>2020-07-01T12:55:34Z</time>
      </trkpt>
      <trkpt lat="48.95914" lon="3.03711">
        <ele>57.4</ele>
        <time>2020-07-01T12:55:35Z</time>
      </trkpt>
      <trkpt lat="48.95914" lon="3.03701">
        <ele>57.3</ele>
        <time>2020-07-01T12:55:36Z</time>
      </trkpt>
      <trkpt lat="48.95914" lon="3.03691">
        <ele>57.1</ele>
        <time>2020-07-01T12:55:37Z</time>
      </trkpt>
      <trkpt lat="48.95914" lon="3.03682">
        <ele>57</ele>
        <time>2020-07-01T12:55:38Z</time>
      </trkpt>
      <trkpt lat="48.95913" lon="3.03672">
        <ele>56.9</ele>
        <time>2020-07-01T12:55:39Z</time>
      </trkpt>
      <trkpt lat="48.95913" lon="3.03662">
        <ele>56.7</ele>
        <time>2020-07-01T12:55:40Z</time>
      </trkpt>
      <trkpt lat="48.95913" lon="3.03652">
        <ele>56.6</ele>
        <time>2020-07-01T12:55:41Z</time>
      </trkpt>
      <trkpt lat="48.95913" lon="3.03641">
        <ele>56.5</ele>
        <time>2020-07-01T12:55:42Z</time>
      </trkpt>
      <trkpt lat="48.95913" lon="3.03631">
        <ele>56.3</ele>
        <time>2020-07-01T12:55:43Z</time>
      </trkpt>
      <trkpt lat="48.95912" lon="3.03621">
        <ele>56.2</ele>
        <time>2020-07-01T12:55:44Z</time>
      </trkpt>
      <trkpt lat="48.95912" lon="3.03611">
        <ele>56.1</ele>
        <time>2020-07-01T12:55:45Z</time>
      </trkpt>
      <trkpt lat="48.95911" lon="3.03601">
        <ele>56</ele>
        <time>2020-07-01T12:55:46Z</time>
      </trkpt>
      <trkpt lat="48.95911" lon="3.03591">
        <ele>55.9</ele>
        <time>2020-07-01T12:55:47Z</time>
      </trkpt>
      <trkpt lat="48.95912" lon="3.03581">
        <ele>55.9</ele>
        <time>2020-07-01T12:55:48Z</time>
      </trkpt>
      <trkpt lat="48.95912" lon="3.03571">
        <ele>55.8</ele>
        <time>2020-07-01T12:55:49Z</time>
      </trkpt>
      <trkpt lat="48.95912" lon="3.03561">
        <ele>55.8</ele>
        <time>2020-07-01T12:55:50Z</time>
      </trkpt>
      <trkpt lat="48.95912" lon="3.03551">
        <ele>55.8</ele>
        <time>2020-07-01T12:55:51Z</time>
      </trkpt>
      <trkpt lat="48.95912" lon="3.03541">
        <ele>55.8</ele>
        <time>2020-07-01T12:55:52Z</time>
      </trkpt>
      <trkpt lat="48.95912" lon="3.03531">
        <ele>55.9</ele>
        <time>2020-07-01T12:55:53Z</time>
      </trkpt>
      <trkpt lat="48.95912" lon="3.03521">
        <ele>55.9</ele>
        <time>2020-07-01T12:55:54Z</time>
      </trkpt>
      <trkpt lat="48.95912" lon="3.03511">
        <ele>56</ele>
        <time>2020-07-01T12:55:55Z</time>
      </trkpt>
      <trkpt lat="48.95912" lon="3.03501">
        <ele>56.1</ele>
        <time>2020-07-01T12:55:56Z</time>
      </trkpt>
      <trkpt lat="48.95912" lon="3.03492">
        <ele>56.2</ele>
        <time>2020-07-01T12:55:57Z</time>
      </trkpt>
      <trkpt lat="48.95911" lon="3.03482">
        <ele>56.3</ele>
        <time>2020-07-01T12:55:58Z</time>
      </trkpt>
      <trkpt lat="48.95912" lon="3.03473">
        <ele>56.4</ele>
        <time>2020-07-01T12:55:59Z</time>
      </trkpt>
      <trkpt lat="48.95912" lon="3.03463">
        <ele>56.5</ele>
        <time>2020-07-01T12:56:00Z</time>
      </trkpt>
      <trkpt lat="48.95913" lon="3.03453">
        <ele>56.6</ele>
        <time>2020-07-01T12:56:01Z</time>
      </trkpt>
      <trkpt lat="48.95912" lon="3.03443">
        <ele>56.8</ele>
        <time>2020-07-01T12:56:02Z</time>
      </trkpt>
      <trkpt lat="48.95913" lon="3.03433">
        <ele>56.9</ele>
        <time>2020-07-01T12:56:03Z</time>
      </trkpt>
      <trkpt lat="48.95913" lon="3.03423">
        <ele>57</ele>
        <time>2020-07-01T12:56:04Z</time>
      </trkpt>
      <trkpt lat="48.95913" lon="3.03413">
        <ele>57.1</ele>
        <time>2020-07-01T12:56:05Z</time>
      </trkpt>
      <trkpt lat="48.95913" lon="3.03404">
        <ele>57.2</ele>
        <time>2020-07-01T12:56:06Z</time>
      </trkpt>
      <trkpt lat="48.95912" lon="3.03395">
        <ele>57.3</ele>
        <time>2020-07-01T12:56:07Z</time>
      </trkpt>
      <trkpt lat="48.95912" lon="3.03386">
        <ele>57.5</ele>
        <time>2020-07-01T12:56:08Z</time>
      </trkpt>
      <trkpt lat="48.95912" lon="3.03377">
        <ele>57.6</ele>
        <time>2020-07-01T12:56:09Z</time>
      </trkpt>
      <trkpt lat="48.95912" lon="3.03368">
        <ele>57.7</ele>
        <time>2020-07-01T12:56:10Z</time>
      </trkpt>
      <trkpt lat="48.95912" lon="3.0336">
        <ele>57.9</ele>
        <time>2020-07-01T12:56:11Z</time>
      </trkpt>
      <trkpt lat="48.95911" lon="3.03352">
        <ele>58</ele>
        <time>2020-07-01T12:56:12Z</time>
      </trkpt>
      <trkpt lat="48.95911" lon="3.03344">
        <ele>58.2</ele>
        <time>2020-07-01T12:56:13Z</time>
      </trkpt>
      <trkpt lat="48.9591" lon="3.03336">
        <ele>58.4</ele>
        <time>2020-07-01T12:56:14Z</time>
      </trkpt>
      <trkpt lat="48.9591" lon="3.03328">
        <ele>58.5</ele>
        <time>2020-07-01T12:56:15Z</time>
      </trkpt>
      <trkpt lat="48.9591" lon="3.0332">
        <ele>58.7</ele>
        <time>2020-07-01T12:56:16Z</time>
      </trkpt>
      <trkpt lat="48.9591" lon="3.03313">
        <ele>58.8</ele>
        <time>2020-07-01T12:56:17Z</time>
      </trkpt>
      <trkpt lat="48.9591" lon="3.03304">
        <ele>59</ele>
        <time>2020-07-01T12:56:18Z</time>
      </trkpt>
      <trkpt lat="48.95909" lon="3.03296">
        <ele>59.1</ele>
        <time>2020-07-01T12:56:19Z</time>
      </trkpt>
      <trkpt lat="48.9591" lon="3.03288">
        <ele>59.2</ele>
        <time>2020-07-01T12:56:20Z</time>
      </trkpt>
      <trkpt lat="48.9591" lon="3.03281">
        <ele>59.3</ele>
        <time>2020-07-01T12:56:21Z</time>
      </trkpt>
      <trkpt lat="48.9591" lon="3.03273">
        <ele>59.4</ele>
        <time>2020-07-01T12:56:22Z</time>
      </trkpt>
      <trkpt lat="48.9591" lon="3.03264">
        <ele>59.5</ele>
        <time>2020-07-01T12:56:23Z</time>
      </trkpt>
      <trkpt lat="48.9591" lon="3.03255">
        <ele>59.6</ele>
        <time>2020-07-01T12:56:24Z</time>
      </trkpt>
      <trkpt lat="48.95909" lon="3.03247">
        <ele>59.8</ele>
        <time>2020-07-01T12:56:25Z</time>
      </trkpt>
      <trkpt lat="48.95908" lon="3.03239">
        <ele>60</ele>
        <time>2020-07-01T12:56:26Z</time>
      </trkpt>
      <trkpt lat="48.95909" lon="3.0323">
        <ele>60.1</ele>
        <time>2020-07-01T12:56:27Z</time>
      </trkpt>
      <trkpt lat="48.95909" lon="3.03222">
        <ele>60.3</ele>
        <time>2020-07-01T12:56:28Z</time>
      </trkpt>
      <trkpt lat="48.95908" lon="3.03214">
        <ele>60.4</ele>
        <time>2020-07-01T12:56:29Z</time>
      </trkpt>
      <trkpt lat="48.95908" lon="3.03207">
        <ele>60.5</ele>
        <time>2020-07-01T12:56:30Z</time>
      </trkpt>
      <trkpt lat="48.95907" lon="3.032">
        <ele>60.6</ele>
        <time>2020-07-01T12:56:31Z</time>
      </trkpt>
      <trkpt lat="48.95907" lon="3.03192">
        <ele>60.7</ele>
        <time>2020-07-01T12:56:32Z</time>
      </trkpt>
      <trkpt lat="48.95907" lon="3.03179">
        <ele>61</ele>
        <time>2020-07-01T12:56:33Z</time>
      </trkpt>
      <trkpt lat="48.95907" lon="3.03172">
        <ele>61.1</ele>
        <time>2020-07-01T12:56:34Z</time>
      </trkpt>
      <trkpt lat="48.95907" lon="3.03165">
        <ele>61.2</ele>
        <time>2020-07-01T12:56:35Z</time>
      </trkpt>
      <trkpt lat="48.95908" lon="3.03156">
        <ele>61.4</ele>
        <time>2020-07-01T12:56:36Z</time>
      </trkpt>
      <trkpt lat="48.95908" lon="3.03147">
        <ele>61.5</ele>
        <time>2020-07-01T12:56:37Z</time>
      </trkpt>
      <trkpt lat="48.95909" lon="3.03137">
        <ele>61.6</ele>
        <time>2020-07-01T12:56:38Z</time>
      </trkpt>
      <trkpt lat="48.95908" lon="3.0313">
        <ele>61.7</ele>
        <time>2020-07-01T12:56:39Z</time>
      </trkpt>
      <trkpt lat="48.95908" lon="3.03123">
        <ele>61.7</ele>
        <time>2020-07-01T12:56:40Z</time>
      </trkpt>
      <trkpt lat="48.95907" lon="3.03116">
        <ele>61.8</ele>
        <time>2020-07-01T12:56:41Z</time>
      </trkpt>
      <trkpt lat="48.95908" lon="3.03105">
        <ele>61.9</ele>
        <time>2020-07-01T12:56:42Z</time>
      </trkpt>
      <trkpt lat="48.95908" lon="3.03097">
        <ele>62</ele>
        <time>2020-07-01T12:56:43Z</time>
      </trkpt>
      <trkpt lat="48.95908" lon="3.03091">
        <ele>62.1</ele>
        <time>2020-07-01T12:56:44Z</time>
      </trkpt>
      <trkpt lat="48.95908" lon="3.03085">
        <ele>62.1</ele>
        <time>2020-07-01T12:56:45Z</time>
      </trkpt>
      <trkpt lat="48.95909" lon="3.0308">
        <ele>62.2</ele>
        <time>2020-07-01T12:56:46Z</time>
      </trkpt>
      <trkpt lat="48.95909" lon="3.03073">
        <ele>62.3</ele>
        <time>2020-07-01T12:56:47Z</time>
      </trkpt>
      <trkpt lat="48.95908" lon="3.03069">
        <ele>62.3</ele>
        <time>2020-07-01T12:56:48Z</time>
      </trkpt>
      <trkpt lat="48.95908" lon="3.03062">
        <ele>62.4</ele>
        <time>2020-07-01T12:56:49Z</time>
      </trkpt>
      <trkpt lat="48.95907" lon="3.03054">
        <ele>62.5</ele>
        <time>2020-07-01T12:56:50Z</time>
      </trkpt>
      <trkpt lat="48.95906" lon="3.03046">
        <ele>62.5</ele>
        <time>2020-07-01T12:56:51Z</time>
      </trkpt>
      <trkpt lat="48.95906" lon="3.0304">
        <ele>62.6</ele>
        <time>2020-07-01T12:56:52Z</time>
      </trkpt>
      <trkpt lat="48.95905" lon="3.03033">
        <ele>62.6</ele>
        <time>2020-07-01T12:56:53Z</time>
      </trkpt>
      <trkpt lat="48.95905" lon="3.03029">
        <ele>62.7</ele>
        <time>2020-07-01T12:56:54Z</time>
      </trkpt>
      <trkpt lat="48.95905" lon="3.03025">
        <ele>62.7</ele>
        <time>2020-07-01T12:56:55Z</time>
      </trkpt>
      <trkpt lat="48.95904" lon="3.03018">
        <ele>62.8</ele>
        <time>2020-07-01T12:56:56Z</time>
      </trkpt>
      <trkpt lat="48.95904" lon="3.03015">
        <ele>62.8</ele>
        <time>2020-07-01T12:56:57Z</time>
      </trkpt>
      <trkpt lat="48.95904" lon="3.03013">
        <ele>62.8</ele>
        <time>2020-07-01T12:56:58Z</time>
      </trkpt>
      <trkpt lat="48.95904" lon="3.03011">
        <ele>62.8</ele>
        <time>2020-07-01T12:56:59Z</time>
      </trkpt>
      <trkpt lat="48.95903" lon="3.03011">
        <ele>62.8</ele>
        <time>2020-07-01T12:57:00Z</time>
      </trkpt>
      <trkpt lat="48.95903" lon="3.03011">
        <ele>62.8</ele>
        <time>2020-07-01T12:57:01Z</time>
      </trkpt>
      <trkpt lat="48.95902" lon="3.0301">
        <ele>62.8</ele>
        <time>2020-07-01T12:57:02Z</time>
      </trkpt>
      <trkpt lat="48.95902" lon="3.0301">
        <ele>62.8</ele>
        <time>2020-07-01T12:57:03Z</time>
      </trkpt>
      <trkpt lat="48.95902" lon="3.0301">
        <ele>62.8</ele>
        <time>2020-07-01T12:57:04Z</time>
      </trkpt>
      <trkpt lat="48.95901" lon="3.03009">
        <ele>62.9</ele>
        <time>2020-07-01T12:57:05Z</time>
      </trkpt>
      <trkpt lat="48.95901" lon="3.03009">
        <ele>62.9</ele>
        <time>2020-07-01T12:57:06Z</time>
      </trkpt>
      <trkpt lat="48.959" lon="3.03009">
        <ele>62.9</ele>
        <time>2020-07-01T12:57:07Z</time>
      </trkpt>
      <trkpt lat="48.959" lon="3.03008">
        <ele>62.9</ele>
        <time>2020-07-01T12:57:08Z</time>
      </trkpt>
      <trkpt lat="48.959" lon="3.03008">
        <ele>62.9</ele>
        <time>2020-07-01T12:57:09Z</time>
      </trkpt>
      <trkpt lat="48.95899" lon="3.03008">
        <ele>62.9</ele>
        <time>2020-07-01T12:57:10Z</time>
      </trkpt>
      <trkpt lat="48.95899" lon="3.03007">
        <ele>62.9</ele>
        <time>2020-07-01T12:57:11Z</time>
      </trkpt>
      <trkpt lat="48.95898" lon="3.03007">
        <ele>62.9</ele>
        <time>2020-07-01T12:58:25Z</time>
      </trkpt>
      <trkpt lat="48.95898" lon="3.03007">
        <ele>62.9</ele>
        <time>2020-07-01T12:58:26Z</time>
      </trkpt>
      <trkpt lat="48.95897" lon="3.03002">
        <ele>62.9</ele>
        <time>2020-07-01T12:58:27Z</time>
      </trkpt>
      <trkpt lat="48.95898" lon="3.02996">
        <ele>63</ele>
        <time>2020-07-01T12:58:28Z</time>
      </trkpt>
      <trkpt lat="48.95897" lon="3.02991">
        <ele>63</ele>
        <time>2020-07-01T12:58:29Z</time>
      </trkpt>
      <trkpt lat="48.95896" lon="3.02984">
        <ele>63</ele>
        <time>2020-07-01T12:58:30Z</time>
      </trkpt>
      <trkpt lat="48.95895" lon="3.02979">
        <ele>63</ele>
        <time>2020-07-01T12:58:31Z</time>
      </trkpt>
      <trkpt lat="48.95894" lon="3.02973">
        <ele>63</ele>
        <time>2020-07-01T12:58:32Z</time>
      </trkpt>
      <trkpt lat="48.95893" lon="3.02966">
        <ele>63</ele>
        <time>2020-07-01T12:58:33Z</time>
      </trkpt>
      <trkpt lat="48.95893" lon="3.02958">
        <ele>63</ele>
        <time>2020-07-01T12:58:34Z</time>
      </trkpt>
      <trkpt lat="48.95893" lon="3.0295">
        <ele>62.9</ele>
        <time>2020-07-01T12:58:35Z</time>
      </trkpt>
      <trkpt lat="48.95893" lon="3.02944">
        <ele>62.8</ele>
        <time>2020-07-01T12:58:36Z</time>
      </trkpt>
      <trkpt lat="48.95892" lon="3.02937">
        <ele>62.8</ele>
        <time>2020-07-01T12:58:37Z</time>
      </trkpt>
      <trkpt lat="48.95891" lon="3.0293">
        <ele>62.7</ele>
        <time>2020-07-01T12:58:38Z</time>
      </trkpt>
      <trkpt lat="48.95892" lon="3.02923">
        <ele>62.7</ele>
        <time>2020-07-01T12:58:39Z</time>
      </trkpt>
      <trkpt lat="48.95891" lon="3.02915">
        <ele>62.7</ele>
        <time>2020-07-01T12:58:40Z</time>
      </trkpt>
      <trkpt lat="48.9589" lon="3.02907">
        <ele>62.6</ele>
        <time>2020-07-01T12:58:41Z</time>
      </trkpt>
      <trkpt lat="48.9589" lon="3.02899">
        <ele>62.6</ele>
        <time>2020-07-01T12:58:42Z</time>
      </trkpt>
      <trkpt lat="48.95889" lon="3.02891">
        <ele>62.6</ele>
        <time>2020-07-01T12:58:43Z</time>
      </trkpt>
      <trkpt lat="48.95889" lon="3.02883">
        <ele>62.5</ele>
        <time>2020-07-01T12:58:44Z</time>
      </trkpt>
      <trkpt lat="48.95888" lon="3.02875">
        <ele>62.5</ele>
        <time>2020-07-01T12:58:45Z</time>
      </trkpt>
      <trkpt lat="48.95887" lon="3.02866">
        <ele>62.4</ele>
        <time>2020-07-01T12:58:46Z</time>
      </trkpt>
      <trkpt lat="48.95886" lon="3.02858">
        <ele>62.4</ele>
        <time>2020-07-01T12:58:47Z</time>
      </trkpt>
      <trkpt lat="48.95884" lon="3.0285">
        <ele>62.3</ele>
        <time>2020-07-01T12:58:48Z</time>
      </trkpt>
      <trkpt lat="48.95883" lon="3.02842">
        <ele>62.3</ele>
        <time>2020-07-01T12:58:49Z</time>
      </trkpt>
      <trkpt lat="48.95882" lon="3.02833">
        <ele>62.2</ele>
        <time>2020-07-01T12:58:50Z</time>
      </trkpt>
      <trkpt lat="48.95881" lon="3.02824">
        <ele>62.1</ele>
        <time>2020-07-01T12:58:51Z</time>
      </trkpt>
      <trkpt lat="48.9588" lon="3.02816">
        <ele>62.1</ele>
        <time>2020-07-01T12:58:52Z</time>
      </trkpt>
      <trkpt lat="48.9588" lon="3.02807">
        <ele>62</ele>
        <time>2020-07-01T12:58:53Z</time>
      </trkpt>
      <trkpt lat="48.95879" lon="3.02799">
        <ele>61.9</ele>
        <time>2020-07-01T12:58:54Z</time>
      </trkpt>
      <trkpt lat="48.95878" lon="3.02791">
        <ele>61.8</ele>
        <time>2020-07-01T12:58:55Z</time>
      </trkpt>
      <trkpt lat="48.95876" lon="3.02782">
        <ele>61.7</ele>
        <time>2020-07-01T12:58:56Z</time>
      </trkpt>
      <trkpt lat="48.95875" lon="3.02773">
        <ele>61.6</ele>
        <time>2020-07-01T12:58:57Z</time>
      </trkpt>
      <trkpt lat="48.95874" lon="3.02764">
        <ele>61.6</ele>
        <time>2020-07-01T12:58:58Z</time>
      </trkpt>
      <trkpt lat="48.95873" lon="3.02756">
        <ele>61.6</ele>
        <time>2020-07-01T12:58:59Z</time>
      </trkpt>
      <trkpt lat="48.95871" lon="3.02747">
        <ele>61.7</ele>
        <time>2020-07-01T12:59:00Z</time>
      </trkpt>
      <trkpt lat="48.95869" lon="3.02739">
        <ele>61.7</ele>
        <time>2020-07-01T12:59:01Z</time>
      </trkpt>
      <trkpt lat="48.95868" lon="3.02731">
        <ele>61.7</ele>
        <time>2020-07-01T12:59:02Z</time>
      </trkpt>
      <trkpt lat="48.95866" lon="3.02722">
        <ele>61.7</ele>
        <time>2020-07-01T12:59:03Z</time>
      </trkpt>
      <trkpt lat="48.95865" lon="3.02715">
        <ele>61.8</ele>
        <time>2020-07-01T12:59:04Z</time>
      </trkpt>
      <trkpt lat="48.95863" lon="3.02708">
        <ele>61.8</ele>
        <time>2020-07-01T12:59:05Z</time>
      </trkpt>
      <trkpt lat="48.95861" lon="3.027">
        <ele>61.9</ele>
        <time>2020-07-01T12:59:06Z</time>
      </trkpt>
      <trkpt lat="48.95859" lon="3.02692">
        <ele>62.1</ele>
        <time>2020-07-01T12:59:07Z</time>
      </trkpt>
      <trkpt lat="48.95856" lon="3.02685">
        <ele>62.1</ele>
        <time>2020-07-01T12:59:08Z</time>
      </trkpt>
      <trkpt lat="48.95855" lon="3.02676">
        <ele>62</ele>
        <time>2020-07-01T12:59:09Z</time>
      </trkpt>
      <trkpt lat="48.95853" lon="3.02668">
        <ele>61.9</ele>
        <time>2020-07-01T12:59:10Z</time>
      </trkpt>
      <trkpt lat="48.95851" lon="3.02661">
        <ele>61.7</ele>
        <time>2020-07-01T12:59:11Z</time>
      </trkpt>
      <trkpt lat="48.95848" lon="3.02652">
        <ele>61.6</ele>
        <time>2020-07-01T12:59:12Z</time>
      </trkpt>
      <trkpt lat="48.95846" lon="3.02643">
        <ele>61.5</ele>
        <time>2020-07-01T12:59:13Z</time>
      </trkpt>
      <trkpt lat="48.95845" lon="3.02633">
        <ele>61.3</ele>
        <time>2020-07-01T12:59:14Z</time>
      </trkpt>
      <trkpt lat="48.95843" lon="3.02623">
        <ele>61.2</ele>
        <time>2020-07-01T12:59:15Z</time>
      </trkpt>
      <trkpt lat="48.95842" lon="3.02613">
        <ele>61.1</ele>
        <time>2020-07-01T12:59:16Z</time>
      </trkpt>
      <trkpt lat="48.9584" lon="3.02604">
        <ele>61</ele>
        <time>2020-07-01T12:59:17Z</time>
      </trkpt>
      <trkpt lat="48.95838" lon="3.02595">
        <ele>60.9</ele>
        <time>2020-07-01T12:59:18Z</time>
      </trkpt>
      <trkpt lat="48.95837" lon="3.02586">
        <ele>60.8</ele>
        <time>2020-07-01T12:59:19Z</time>
      </trkpt>
      <trkpt lat="48.95836" lon="3.02577">
        <ele>60.7</ele>
        <time>2020-07-01T12:59:20Z</time>
      </trkpt>
      <trkpt lat="48.95834" lon="3.02567">
        <ele>60.6</ele>
        <time>2020-07-01T12:59:21Z</time>
      </trkpt>
      <trkpt lat="48.95833" lon="3.02559">
        <ele>60.6</ele>
        <time>2020-07-01T12:59:22Z</time>
      </trkpt>
      <trkpt lat="48.95833" lon="3.02551">
        <ele>60.5</ele>
        <time>2020-07-01T12:59:23Z</time>
      </trkpt>
      <trkpt lat="48.95832" lon="3.02544">
        <ele>60.5</ele>
        <time>2020-07-01T12:59:24Z</time>
      </trkpt>
      <trkpt lat="48.95831" lon="3.02538">
        <ele>60.4</ele>
        <time>2020-07-01T12:59:25Z</time>
      </trkpt>
      <trkpt lat="48.9583" lon="3.02532">
        <ele>60.4</ele>
        <time>2020-07-01T12:59:26Z</time>
      </trkpt>
      <trkpt lat="48.95829" lon="3.02527">
        <ele>60.3</ele>
        <time>2020-07-01T12:59:27Z</time>
      </trkpt>
      <trkpt lat="48.95828" lon="3.02521">
        <ele>60.2</ele>
        <time>2020-07-01T12:59:28Z</time>
      </trkpt>
      <trkpt lat="48.95827" lon="3.02515">
        <ele>60.2</ele>
        <time>2020-07-01T12:59:29Z</time>
      </trkpt>
      <trkpt lat="48.95827" lon="3.02509">
        <ele>60.1</ele>
        <time>2020-07-01T12:59:30Z</time>
      </trkpt>
      <trkpt lat="48.95826" lon="3.02501">
        <ele>60</ele>
        <time>2020-07-01T12:59:31Z</time>
      </trkpt>
      <trkpt lat="48.95825" lon="3.02495">
        <ele>60</ele>
        <time>2020-07-01T12:59:32Z</time>
      </trkpt>
      <trkpt lat="48.95824" lon="3.02487">
        <ele>59.9</ele>
        <time>2020-07-01T12:59:33Z</time>
      </trkpt>
      <trkpt lat="48.95824" lon="3.02478">
        <ele>59.8</ele>
        <time>2020-07-01T12:59:34Z</time>
      </trkpt>
      <trkpt lat="48.95823" lon="3.0247">
        <ele>59.7</ele>
        <time>2020-07-01T12:59:35Z</time>
      </trkpt>
      <trkpt lat="48.95821" lon="3.02461">
        <ele>59.6</ele>
        <time>2020-07-01T12:59:36Z</time>
      </trkpt>
      <trkpt lat="48.9582" lon="3.02452">
        <ele>59.5</ele>
        <time>2020-07-01T12:59:37Z</time>
      </trkpt>
      <trkpt lat="48.95819" lon="3.02444">
        <ele>59.4</ele>
        <time>2020-07-01T12:59:38Z</time>
      </trkpt>
      <trkpt lat="48.95818" lon="3.02436">
        <ele>59.2</ele>
        <time>2020-07-01T12:59:39Z</time>
      </trkpt>
      <trkpt lat="48.95817" lon="3.02429">
        <ele>59.1</ele>
        <time>2020-07-01T12:59:40Z</time>
      </trkpt>
      <trkpt lat="48.95816" lon="3.0242">
        <ele>58.9</ele>
        <time>2020-07-01T12:59:41Z</time>
      </trkpt>
      <trkpt lat="48.95814" lon="3.0241">
        <ele>58.7</ele>
        <time>2020-07-01T12:59:42Z</time>
      </trkpt>
      <trkpt lat="48.95813" lon="3.02402">
        <ele>58.5</ele>
        <time>2020-07-01T12:59:43Z</time>
      </trkpt>
      <trkpt lat="48.95812" lon="3.02394">
        <ele>58.4</ele>
        <time>2020-07-01T12:59:44Z</time>
      </trkpt>
      <trkpt lat="48.95811" lon="3.02385">
        <ele>58.3</ele>
        <time>2020-07-01T12:59:45Z</time>
      </trkpt>
      <trkpt lat="48.95809" lon="3.02376">
        <ele>58.1</ele>
        <time>2020-07-01T12:59:46Z</time>
      </trkpt>
      <trkpt lat="48.95808" lon="3.02367">
        <ele>58</ele>
        <time>2020-07-01T12:59:47Z</time>
      </trkpt>
      <trkpt lat="48.95807" lon="3.02359">
        <ele>57.8</ele>
        <time>2020-07-01T12:59:48Z</time>
      </trkpt>
      <trkpt lat="48.95805" lon="3.02351">
        <ele>57.7</ele>
        <time>2020-07-01T12:59:49Z</time>
      </trkpt>
      <trkpt lat="48.95803" lon="3.02342">
        <ele>57.6</ele>
        <time>2020-07-01T12:59:50Z</time>
      </trkpt>
      <trkpt lat="48.95801" lon="3.02335">
        <ele>57.5</ele>
        <time>2020-07-01T12:59:51Z</time>
      </trkpt>
      <trkpt lat="48.958" lon="3.02326">
        <ele>57.3</ele>
        <time>2020-07-01T12:59:52Z</time>
      </trkpt>
      <trkpt lat="48.95797" lon="3.02319">
        <ele>57.3</ele>
        <time>2020-07-01T12:59:53Z</time>
      </trkpt>
      <trkpt lat="48.95795" lon="3.02312">
        <ele>57.2</ele>
        <time>2020-07-01T12:59:54Z</time>
      </trkpt>
      <trkpt lat="48.95793" lon="3.02305">
        <ele>57.1</ele>
        <time>2020-07-01T12:59:55Z</time>
      </trkpt>
      <trkpt lat="48.9579" lon="3.02299">
        <ele>57.1</ele>
        <time>2020-07-01T12:59:56Z</time>
      </trkpt>
      <trkpt lat="48.95788" lon="3.02291">
        <ele>57.1</ele>
        <time>2020-07-01T12:59:57Z</time>
      </trkpt>
      <trkpt lat="48.95786" lon="3.02284">
        <ele>57.1</ele>
        <time>2020-07-01T12:59:58Z</time>
      </trkpt>
      <trkpt lat="48.95784" lon="3.02277">
        <ele>57</ele>
        <time>2020-07-01T12:59:59Z</time>
      </trkpt>
      <trkpt lat="48.9578" lon="3.02271">
        <ele>57</ele>
        <time>2020-07-01T13:00:00Z</time>
      </trkpt>
      <trkpt lat="48.95778" lon="3.02263">
        <ele>57</ele>
        <time>2020-07-01T13:00:01Z</time>
      </trkpt>
      <trkpt lat="48.95775" lon="3.02256">
        <ele>57</ele>
        <time>2020-07-01T13:00:02Z</time>
      </trkpt>
      <trkpt lat="48.95773" lon="3.02248">
        <ele>56.9</ele>
        <time>2020-07-01T13:00:03Z</time>
      </trkpt>
      <trkpt lat="48.9577" lon="3.02242">
        <ele>56.9</ele>
        <time>2020-07-01T13:00:04Z</time>
      </trkpt>
      <trkpt lat="48.95768" lon="3.02236">
        <ele>56.9</ele>
        <time>2020-07-01T13:00:05Z</time>
      </trkpt>
      <trkpt lat="48.95766" lon="3.0223">
        <ele>56.9</ele>
        <time>2020-07-01T13:00:06Z</time>
      </trkpt>
      <trkpt lat="48.95763" lon="3.02224">
        <ele>56.9</ele>
        <time>2020-07-01T13:00:07Z</time>
      </trkpt>
      <trkpt lat="48.95761" lon="3.02218">
        <ele>56.9</ele>
        <time>2020-07-01T13:00:08Z</time>
      </trkpt>
      <trkpt lat="48.9576" lon="3.02212">
        <ele>56.8</ele>
        <time>2020-07-01T13:00:09Z</time>
      </trkpt>
      <trkpt lat="48.95758" lon="3.02207">
        <ele>56.8</ele>
        <time>2020-07-01T13:00:10Z</time>
      </trkpt>
      <trkpt lat="48.95755" lon="3.02202">
        <ele>56.8</ele>
        <time>2020-07-01T13:00:11Z</time>
      </trkpt>
      <trkpt lat="48.95751" lon="3.02197">
        <ele>56.8</ele>
        <time>2020-07-01T13:00:12Z</time>
      </trkpt>
      <trkpt lat="48.95748" lon="3.0219">
        <ele>56.7</ele>
        <time>2020-07-01T13:00:13Z</time>
      </trkpt>
      <trkpt lat="48.95745" lon="3.02182">
        <ele>56.7</ele>
        <time>2020-07-01T13:00:14Z</time>
      </trkpt>
      <trkpt lat="48.95742" lon="3.02174">
        <ele>56.7</ele>
        <time>2020-07-01T13:00:15Z</time>
      </trkpt>
      <trkpt lat="48.9574" lon="3.02166">
        <ele>56.7</ele>
        <time>2020-07-01T13:00:16Z</time>
      </trkpt>
      <trkpt lat="48.95737" lon="3.02158">
        <ele>56.7</ele>
        <time>2020-07-01T13:00:17Z</time>
      </trkpt>
      <trkpt lat="48.95735" lon="3.0215">
        <ele>56.7</ele>
        <time>2020-07-01T13:00:18Z</time>
      </trkpt>
      <trkpt lat="48.95732" lon="3.02143">
        <ele>56.7</ele>
        <time>2020-07-01T13:00:19Z</time>
      </trkpt>
      <trkpt lat="48.9573" lon="3.02136">
        <ele>56.6</ele>
        <time>2020-07-01T13:00:20Z</time>
      </trkpt>
      <trkpt lat="48.95728" lon="3.0213">
        <ele>56.6</ele>
        <time>2020-07-01T13:00:21Z</time>
      </trkpt>
      <trkpt lat="48.95727" lon="3.02123">
        <ele>56.6</ele>
        <time>2020-07-01T13:00:22Z</time>
      </trkpt>
      <trkpt lat="48.95726" lon="3.02118">
        <ele>56.6</ele>
        <time>2020-07-01T13:00:23Z</time>
      </trkpt>
      <trkpt lat="48.95725" lon="3.02113">
        <ele>56.6</ele>
        <time>2020-07-01T13:00:24Z</time>
      </trkpt>
      <trkpt lat="48.95724" lon="3.02111">
        <ele>56.5</ele>
        <time>2020-07-01T13:00:25Z</time>
      </trkpt>
      <trkpt lat="48.95723" lon="3.02107">
        <ele>56.5</ele>
        <time>2020-07-01T13:00:26Z</time>
      </trkpt>
      <trkpt lat="48.95723" lon="3.02103">
        <ele>56.5</ele>
        <time>2020-07-01T13:00:27Z</time>
      </trkpt>
      <trkpt lat="48.95722" lon="3.02099">
        <ele>56.5</ele>
        <time>2020-07-01T13:00:28Z</time>
      </trkpt>
      <trkpt lat="48.95721" lon="3.02094">
        <ele>56.4</ele>
        <time>2020-07-01T13:00:29Z</time>
      </trkpt>
      <trkpt lat="48.9572" lon="3.02089">
        <ele>56.4</ele>
        <time>2020-07-01T13:00:30Z</time>
      </trkpt>
      <trkpt lat="48.95718" lon="3.02083">
        <ele>56.4</ele>
        <time>2020-07-01T13:00:31Z</time>
      </trkpt>
      <trkpt lat="48.95717" lon="3.02076">
        <ele>56.3</ele>
        <time>2020-07-01T13:00:32Z</time>
      </trkpt>
      <trkpt lat="48.95716" lon="3.02069">
        <ele>56.3</ele>
        <time>2020-07-01T13:00:33Z</time>
      </trkpt>
      <trkpt lat="48.95715" lon="3.02064">
        <ele>56.3</ele>
        <time>2020-07-01T13:00:34Z</time>
      </trkpt>
      <trkpt lat="48.95714" lon="3.02057">
        <ele>56.2</ele>
        <time>2020-07-01T13:00:35Z</time>
      </trkpt>
      <trkpt lat="48.95712" lon="3.02051">
        <ele>56.2</ele>
        <time>2020-07-01T13:00:36Z</time>
      </trkpt>
      <trkpt lat="48.95712" lon="3.02045">
        <ele>56.2</ele>
        <time>2020-07-01T13:00:37Z</time>
      </trkpt>
      <trkpt lat="48.9571" lon="3.02038">
        <ele>56.2</ele>
        <time>2020-07-01T13:00:38Z</time>
      </trkpt>
      <trkpt lat="48.9571" lon="3.02031">
        <ele>56.1</ele>
        <time>2020-07-01T13:00:39Z</time>
      </trkpt>
      <trkpt lat="48.95709" lon="3.02026">
        <ele>56.1</ele>
        <time>2020-07-01T13:00:40Z</time>
      </trkpt>
      <trkpt lat="48.95709" lon="3.02019">
        <ele>56.1</ele>
        <time>2020-07-01T13:00:41Z</time>
      </trkpt>
      <trkpt lat="48.95708" lon="3.02013">
        <ele>56</ele>
        <time>2020-07-01T13:00:42Z</time>
      </trkpt>
      <trkpt lat="48.95707" lon="3.02007">
        <ele>56</ele>
        <time>2020-07-01T13:00:43Z</time>
      </trkpt>
      <trkpt lat="48.95706" lon="3.01999">
        <ele>55.9</ele>
        <time>2020-07-01T13:00:44Z</time>
      </trkpt>
      <trkpt lat="48.95706" lon="3.01993">
        <ele>55.9</ele>
        <time>2020-07-01T13:00:45Z</time>
      </trkpt>
      <trkpt lat="48.95706" lon="3.01987">
        <ele>55.8</ele>
        <time>2020-07-01T13:00:46Z</time>
      </trkpt>
      <trkpt lat="48.95706" lon="3.01981">
        <ele>55.8</ele>
        <time>2020-07-01T13:00:47Z</time>
      </trkpt>
      <trkpt lat="48.95706" lon="3.01976">
        <ele>55.8</ele>
        <time>2020-07-01T13:00:48Z</time>
      </trkpt>
      <trkpt lat="48.95706" lon="3.0197">
        <ele>55.7</ele>
        <time>2020-07-01T13:00:49Z</time>
      </trkpt>
      <trkpt lat="48.95706" lon="3.01964">
        <ele>55.6</ele>
        <time>2020-07-01T13:00:50Z</time>
      </trkpt>
      <trkpt lat="48.95705" lon="3.01958">
        <ele>55.6</ele>
        <time>2020-07-01T13:00:51Z</time>
      </trkpt>
      <trkpt lat="48.95704" lon="3.01952">
        <ele>55.5</ele>
        <time>2020-07-01T13:00:52Z</time>
      </trkpt>
      <trkpt lat="48.95704" lon="3.01945">
        <ele>55.4</ele>
        <time>2020-07-01T13:00:53Z</time>
      </trkpt>
      <trkpt lat="48.95703" lon="3.01939">
        <ele>55.3</ele>
        <time>2020-07-01T13:00:54Z</time>
      </trkpt>
      <trkpt lat="48.95702" lon="3.01932">
        <ele>55.2</ele>
        <time>2020-07-01T13:00:55Z</time>
      </trkpt>
      <trkpt lat="48.957" lon="3.01925">
        <ele>55.2</ele>
        <time>2020-07-01T13:00:56Z</time>
      </trkpt>
      <trkpt lat="48.95699" lon="3.01918">
        <ele>55</ele>
        <time>2020-07-01T13:00:57Z</time>
      </trkpt>
      <trkpt lat="48.95698" lon="3.0191">
        <ele>54.9</ele>
        <time>2020-07-01T13:00:58Z</time>
      </trkpt>
      <trkpt lat="48.95697" lon="3.01903">
        <ele>54.9</ele>
        <time>2020-07-01T13:00:59Z</time>
      </trkpt>
      <trkpt lat="48.95696" lon="3.01896">
        <ele>54.8</ele>
        <time>2020-07-01T13:01:00Z</time>
      </trkpt>
      <trkpt lat="48.95695" lon="3.01888">
        <ele>54.8</ele>
        <time>2020-07-01T13:01:01Z</time>
      </trkpt>
      <trkpt lat="48.95694" lon="3.01881">
        <ele>54.8</ele>
        <time>2020-07-01T13:01:02Z</time>
      </trkpt>
      <trkpt lat="48.95693" lon="3.01874">
        <ele>54.7</ele>
        <time>2020-07-01T13:01:03Z</time>
      </trkpt>
      <trkpt lat="48.95692" lon="3.01868">
        <ele>54.7</ele>
        <time>2020-07-01T13:01:04Z</time>
      </trkpt>
      <trkpt lat="48.95691" lon="3.01861">
        <ele>54.7</ele>
        <time>2020-07-01T13:01:05Z</time>
      </trkpt>
      <trkpt lat="48.9569" lon="3.01854">
        <ele>54.6</ele>
        <time>2020-07-01T13:01:06Z</time>
      </trkpt>
      <trkpt lat="48.95689" lon="3.01846">
        <ele>54.6</ele>
        <time>2020-07-01T13:01:07Z</time>
      </trkpt>
      <trkpt lat="48.95689" lon="3.01838">
        <ele>54.5</ele>
        <time>2020-07-01T13:01:08Z</time>
      </trkpt>
      <trkpt lat="48.95688" lon="3.01831">
        <ele>54.4</ele>
        <time>2020-07-01T13:01:09Z</time>
      </trkpt>
      <trkpt lat="48.95687" lon="3.01823">
        <ele>54.4</ele>
        <time>2020-07-01T13:01:10Z</time>
      </trkpt>
      <trkpt lat="48.95684" lon="3.01817">
        <ele>54.3</ele>
        <time>2020-07-01T13:01:11Z</time>
      </trkpt>
      <trkpt lat="48.95681" lon="3.01811">
        <ele>54.2</ele>
        <time>2020-07-01T13:01:12Z</time>
      </trkpt>
      <trkpt lat="48.95677" lon="3.01811">
        <ele>54.2</ele>
        <time>2020-07-01T13:01:13Z</time>
      </trkpt>
      <trkpt lat="48.95671" lon="3.01812">
        <ele>54</ele>
        <time>2020-07-01T13:01:14Z</time>
      </trkpt>
      <trkpt lat="48.95665" lon="3.01814">
        <ele>53.8</ele>
        <time>2020-07-01T13:01:15Z</time>
      </trkpt>
      <trkpt lat="48.95659" lon="3.01815">
        <ele>53.6</ele>
        <time>2020-07-01T13:01:16Z</time>
      </trkpt>
      <trkpt lat="48.95653" lon="3.01815">
        <ele>53.5</ele>
        <time>2020-07-01T13:01:17Z</time>
      </trkpt>
      <trkpt lat="48.95647" lon="3.01816">
        <ele>53.3</ele>
        <time>2020-07-01T13:01:18Z</time>
      </trkpt>
      <trkpt lat="48.95641" lon="3.01817">
        <ele>53.2</ele>
        <time>2020-07-01T13:01:19Z</time>
      </trkpt>
      <trkpt lat="48.95634" lon="3.01818">
        <ele>53.1</ele>
        <time>2020-07-01T13:01:20Z</time>
      </trkpt>
      <trkpt lat="48.95628" lon="3.0182">
        <ele>53</ele>
        <time>2020-07-01T13:01:21Z</time>
      </trkpt>
      <trkpt lat="48.95622" lon="3.01822">
        <ele>53</ele>
        <time>2020-07-01T13:01:22Z</time>
      </trkpt>
      <trkpt lat="48.95616" lon="3.01826">
        <ele>53</ele>
        <time>2020-07-01T13:01:23Z</time>
      </trkpt>
      <trkpt lat="48.95611" lon="3.01829">
        <ele>53</ele>
        <time>2020-07-01T13:01:24Z</time>
      </trkpt>
      <trkpt lat="48.95605" lon="3.01831">
        <ele>53</ele>
        <time>2020-07-01T13:01:25Z</time>
      </trkpt>
      <trkpt lat="48.956" lon="3.01832">
        <ele>53</ele>
        <time>2020-07-01T13:01:26Z</time>
      </trkpt>
      <trkpt lat="48.95595" lon="3.01832">
        <ele>53.1</ele>
        <time>2020-07-01T13:01:27Z</time>
      </trkpt>
      <trkpt lat="48.9559" lon="3.01833">
        <ele>53.2</ele>
        <time>2020-07-01T13:01:28Z</time>
      </trkpt>
      <trkpt lat="48.95585" lon="3.01834">
        <ele>53.3</ele>
        <time>2020-07-01T13:01:29Z</time>
      </trkpt>
      <trkpt lat="48.95579" lon="3.01836">
        <ele>53.5</ele>
        <time>2020-07-01T13:01:30Z</time>
      </trkpt>
      <trkpt lat="48.95574" lon="3.01837">
        <ele>53.6</ele>
        <time>2020-07-01T13:01:31Z</time>
      </trkpt>
      <trkpt lat="48.95569" lon="3.01838">
        <ele>53.8</ele>
        <time>2020-07-01T13:01:32Z</time>
      </trkpt>
      <trkpt lat="48.95564" lon="3.01839">
        <ele>53.9</ele>
        <time>2020-07-01T13:01:33Z</time>
      </trkpt>
      <trkpt lat="48.9556" lon="3.0184">
        <ele>54</ele>
        <time>2020-07-01T13:01:34Z</time>
      </trkpt>
      <trkpt lat="48.95555" lon="3.01842">
        <ele>54.1</ele>
        <time>2020-07-01T13:01:35Z</time>
      </trkpt>
      <trkpt lat="48.95552" lon="3.01844">
        <ele>54.1</ele>
        <time>2020-07-01T13:01:36Z</time>
      </trkpt>
      <trkpt lat="48.95548" lon="3.01845">
        <ele>54.2</ele>
        <time>2020-07-01T13:01:37Z</time>
      </trkpt>
      <trkpt lat="48.95544" lon="3.01847">
        <ele>54.3</ele>
        <time>2020-07-01T13:01:38Z</time>
      </trkpt>
      <trkpt lat="48.95541" lon="3.01848">
        <ele>54.3</ele>
        <time>2020-07-01T13:01:39Z</time>
      </trkpt>
      <trkpt lat="48.95537" lon="3.01849">
        <ele>54.4</ele>
        <time>2020-07-01T13:01:40Z</time>
      </trkpt>
      <trkpt lat="48.95533" lon="3.01851">
        <ele>54.5</ele>
        <time>2020-07-01T13:01:41Z</time>
      </trkpt>
      <trkpt lat="48.9553" lon="3.01853">
        <ele>54.7</ele>
        <time>2020-07-01T13:01:42Z</time>
      </trkpt>
      <trkpt lat="48.95526" lon="3.01855">
        <ele>54.8</ele>
        <time>2020-07-01T13:01:43Z</time>
      </trkpt>
      <trkpt lat="48.95523" lon="3.01857">
        <ele>55</ele>
        <time>2020-07-01T13:01:44Z</time>
      </trkpt>
      <trkpt lat="48.95518" lon="3.01859">
        <ele>55.1</ele>
        <time>2020-07-01T13:01:45Z</time>
      </trkpt>
      <trkpt lat="48.95514" lon="3.01861">
        <ele>55.2</ele>
        <time>2020-07-01T13:01:46Z</time>
      </trkpt>
      <trkpt lat="48.9551" lon="3.01863">
        <ele>55.3</ele>
        <time>2020-07-01T13:01:47Z</time>
      </trkpt>
      <trkpt lat="48.95507" lon="3.01865">
        <ele>55.4</ele>
        <time>2020-07-01T13:01:48Z</time>
      </trkpt>
      <trkpt lat="48.95503" lon="3.01867">
        <ele>55.5</ele>
        <time>2020-07-01T13:01:49Z</time>
      </trkpt>
      <trkpt lat="48.95499" lon="3.01869">
        <ele>55.6</ele>
        <time>2020-07-01T13:01:50Z</time>
      </trkpt>
      <trkpt lat="48.95495" lon="3.01871">
        <ele>55.7</ele>
        <time>2020-07-01T13:01:51Z</time>
      </trkpt>
      <trkpt lat="48.95491" lon="3.01874">
        <ele>55.7</ele>
        <time>2020-07-01T13:01:52Z</time>
      </trkpt>
      <trkpt lat="48.95487" lon="3.01877">
        <ele>55.8</ele>
        <time>2020-07-01T13:01:53Z</time>
      </trkpt>
      <trkpt lat="48.95483" lon="3.01878">
        <ele>55.8</ele>
        <time>2020-07-01T13:01:54Z</time>
      </trkpt>
      <trkpt lat="48.95479" lon="3.01879">
        <ele>55.8</ele>
        <time>2020-07-01T13:01:55Z</time>
      </trkpt>
      <trkpt lat="48.95475" lon="3.01881">
        <ele>55.8</ele>
        <time>2020-07-01T13:01:56Z</time>
      </trkpt>
      <trkpt lat="48.95471" lon="3.01884">
        <ele>55.7</ele>
        <time>2020-07-01T13:01:57Z</time>
      </trkpt>
      <trkpt lat="48.95467" lon="3.01886">
        <ele>55.7</ele>
        <time>2020-07-01T13:01:58Z</time>
      </trkpt>
      <trkpt lat="48.95463" lon="3.01889">
        <ele>55.6</ele>
        <time>2020-07-01T13:01:59Z</time>
      </trkpt>
      <trkpt lat="48.95458" lon="3.0189">
        <ele>55.5</ele>
        <time>2020-07-01T13:02:00Z</time>
      </trkpt>
      <trkpt lat="48.95453" lon="3.01892">
        <ele>55.5</ele>
        <time>2020-07-01T13:02:01Z</time>
      </trkpt>
      <trkpt lat="48.95449" lon="3.01894">
        <ele>55.4</ele>
        <time>2020-07-01T13:02:02Z</time>
      </trkpt>
      <trkpt lat="48.95444" lon="3.01896">
        <ele>55.3</ele>
        <time>2020-07-01T13:02:03Z</time>
      </trkpt>
      <trkpt lat="48.95439" lon="3.01897">
        <ele>55.1</ele>
        <time>2020-07-01T13:02:04Z</time>
      </trkpt>
      <trkpt lat="48.95432" lon="3.01901">
        <ele>55</ele>
        <time>2020-07-01T13:02:05Z</time>
      </trkpt>
      <trkpt lat="48.95426" lon="3.01903">
        <ele>54.9</ele>
        <time>2020-07-01T13:02:06Z</time>
      </trkpt>
      <trkpt lat="48.9542" lon="3.01906">
        <ele>54.7</ele>
        <time>2020-07-01T13:02:07Z</time>
      </trkpt>
      <trkpt lat="48.95415" lon="3.01908">
        <ele>54.6</ele>
        <time>2020-07-01T13:02:08Z</time>
      </trkpt>
      <trkpt lat="48.9541" lon="3.01911">
        <ele>54.5</ele>
        <time>2020-07-01T13:02:09Z</time>
      </trkpt>
      <trkpt lat="48.95405" lon="3.01912">
        <ele>54.4</ele>
        <time>2020-07-01T13:02:10Z</time>
      </trkpt>
      <trkpt lat="48.95398" lon="3.01915">
        <ele>54.3</ele>
        <time>2020-07-01T13:02:11Z</time>
      </trkpt>
      <trkpt lat="48.95391" lon="3.01916">
        <ele>54.1</ele>
        <time>2020-07-01T13:02:12Z</time>
      </trkpt>
      <trkpt lat="48.95385" lon="3.01917">
        <ele>54</ele>
        <time>2020-07-01T13:02:13Z</time>
      </trkpt>
      <trkpt lat="48.95378" lon="3.01918">
        <ele>53.8</ele>
        <time>2020-07-01T13:02:14Z</time>
      </trkpt>
      <trkpt lat="48.95371" lon="3.0192">
        <ele>53.7</ele>
        <time>2020-07-01T13:02:15Z</time>
      </trkpt>
      <trkpt lat="48.95365" lon="3.01921">
        <ele>53.6</ele>
        <time>2020-07-01T13:02:16Z</time>
      </trkpt>
      <trkpt lat="48.95358" lon="3.01922">
        <ele>53.5</ele>
        <time>2020-07-01T13:02:17Z</time>
      </trkpt>
      <trkpt lat="48.95352" lon="3.01923">
        <ele>53.4</ele>
        <time>2020-07-01T13:02:18Z</time>
      </trkpt>
      <trkpt lat="48.95345" lon="3.01924">
        <ele>53.4</ele>
        <time>2020-07-01T13:02:19Z</time>
      </trkpt>
      <trkpt lat="48.95339" lon="3.01924">
        <ele>53.3</ele>
        <time>2020-07-01T13:02:20Z</time>
      </trkpt>
      <trkpt lat="48.95333" lon="3.01925">
        <ele>53.3</ele>
        <time>2020-07-01T13:02:21Z</time>
      </trkpt>
      <trkpt lat="48.95327" lon="3.01925">
        <ele>53.3</ele>
        <time>2020-07-01T13:02:22Z</time>
      </trkpt>
      <trkpt lat="48.95321" lon="3.01926">
        <ele>53.3</ele>
        <time>2020-07-01T13:02:23Z</time>
      </trkpt>
      <trkpt lat="48.95316" lon="3.01926">
        <ele>53.3</ele>
        <time>2020-07-01T13:02:24Z</time>
      </trkpt>
      <trkpt lat="48.95311" lon="3.01926">
        <ele>53.3</ele>
        <time>2020-07-01T13:02:25Z</time>
      </trkpt>
      <trkpt lat="48.95306" lon="3.01926">
        <ele>53.3</ele>
        <time>2020-07-01T13:02:26Z</time>
      </trkpt>
      <trkpt lat="48.95301" lon="3.01925">
        <ele>53.3</ele>
        <time>2020-07-01T13:02:27Z</time>
      </trkpt>
      <trkpt lat="48.95295" lon="3.01924">
        <ele>53.3</ele>
        <time>2020-07-01T13:02:28Z</time>
      </trkpt>
      <trkpt lat="48.9529" lon="3.01923">
        <ele>53.3</ele>
        <time>2020-07-01T13:02:29Z</time>
      </trkpt>
      <trkpt lat="48.95284" lon="3.01921">
        <ele>53.3</ele>
        <time>2020-07-01T13:02:30Z</time>
      </trkpt>
      <trkpt lat="48.95279" lon="3.01921">
        <ele>53.3</ele>
        <time>2020-07-01T13:02:31Z</time>
      </trkpt>
      <trkpt lat="48.95274" lon="3.01919">
        <ele>53.3</ele>
        <time>2020-07-01T13:02:32Z</time>
      </trkpt>
      <trkpt lat="48.95269" lon="3.01918">
        <ele>53.2</ele>
        <time>2020-07-01T13:02:33Z</time>
      </trkpt>
      <trkpt lat="48.95264" lon="3.01918">
        <ele>53.2</ele>
        <time>2020-07-01T13:02:34Z</time>
      </trkpt>
      <trkpt lat="48.95258" lon="3.01918">
        <ele>53.2</ele>
        <time>2020-07-01T13:02:35Z</time>
      </trkpt>
      <trkpt lat="48.95252" lon="3.01918">
        <ele>53.2</ele>
        <time>2020-07-01T13:02:36Z</time>
      </trkpt>
      <trkpt lat="48.95246" lon="3.01917">
        <ele>53.2</ele>
        <time>2020-07-01T13:02:37Z</time>
      </trkpt>
      <trkpt lat="48.95242" lon="3.01916">
        <ele>53.2</ele>
        <time>2020-07-01T13:02:38Z</time>
      </trkpt>
      <trkpt lat="48.95237" lon="3.01915">
        <ele>53.2</ele>
        <time>2020-07-01T13:02:39Z</time>
      </trkpt>
      <trkpt lat="48.95232" lon="3.01914">
        <ele>53.2</ele>
        <time>2020-07-01T13:02:40Z</time>
      </trkpt>
      <trkpt lat="48.95228" lon="3.01913">
        <ele>53.2</ele>
        <time>2020-07-01T13:02:41Z</time>
      </trkpt>
      <trkpt lat="48.95222" lon="3.01913">
        <ele>53.2</ele>
        <time>2020-07-01T13:02:42Z</time>
      </trkpt>
      <trkpt lat="48.95217" lon="3.01913">
        <ele>53.2</ele>
        <time>2020-07-01T13:02:43Z</time>
      </trkpt>
      <trkpt lat="48.95213" lon="3.01912">
        <ele>53.2</ele>
        <time>2020-07-01T13:02:44Z</time>
      </trkpt>
      <trkpt lat="48.95209" lon="3.01911">
        <ele>53.2</ele>
        <time>2020-07-01T13:02:45Z</time>
      </trkpt>
      <trkpt lat="48.95204" lon="3.0191">
        <ele>53.2</ele>
        <time>2020-07-01T13:02:46Z</time>
      </trkpt>
      <trkpt lat="48.952" lon="3.0191">
        <ele>53.2</ele>
        <time>2020-07-01T13:02:47Z</time>
      </trkpt>
      <trkpt lat="48.95196" lon="3.0191">
        <ele>53.3</ele>
        <time>2020-07-01T13:02:48Z</time>
      </trkpt>
      <trkpt lat="48.95192" lon="3.01907">
        <ele>53.3</ele>
        <time>2020-07-01T13:02:49Z</time>
      </trkpt>
      <trkpt lat="48.95191" lon="3.01904">
        <ele>53.2</ele>
        <time>2020-07-01T13:02:50Z</time>
      </trkpt>
      <trkpt lat="48.95191" lon="3.01893">
        <ele>53.2</ele>
        <time>2020-07-01T13:02:51Z</time>
      </trkpt>
      <trkpt lat="48.95192" lon="3.01884">
        <ele>53.1</ele>
        <time>2020-07-01T13:02:52Z</time>
      </trkpt>
      <trkpt lat="48.95192" lon="3.01876">
        <ele>53.1</ele>
        <time>2020-07-01T13:02:53Z</time>
      </trkpt>
      <trkpt lat="48.95191" lon="3.01868">
        <ele>53.1</ele>
        <time>2020-07-01T13:02:54Z</time>
      </trkpt>
      <trkpt lat="48.95191" lon="3.01859">
        <ele>53</ele>
        <time>2020-07-01T13:02:55Z</time>
      </trkpt>
      <trkpt lat="48.95191" lon="3.01851">
        <ele>53</ele>
        <time>2020-07-01T13:02:56Z</time>
      </trkpt>
      <trkpt lat="48.95192" lon="3.01845">
        <ele>52.9</ele>
        <time>2020-07-01T13:02:57Z</time>
      </trkpt>
      <trkpt lat="48.95193" lon="3.01839">
        <ele>52.9</ele>
        <time>2020-07-01T13:02:58Z</time>
      </trkpt>
      <trkpt lat="48.95194" lon="3.0183">
        <ele>52.8</ele>
        <time>2020-07-01T13:02:59Z</time>
      </trkpt>
      <trkpt lat="48.95196" lon="3.01823">
        <ele>52.7</ele>
        <time>2020-07-01T13:03:00Z</time>
      </trkpt>
      <trkpt lat="48.95197" lon="3.01814">
        <ele>52.7</ele>
        <time>2020-07-01T13:03:01Z</time>
      </trkpt>
      <trkpt lat="48.95197" lon="3.0181">
        <ele>52.6</ele>
        <time>2020-07-01T13:03:02Z</time>
      </trkpt>
      <trkpt lat="48.95198" lon="3.01803">
        <ele>52.6</ele>
        <time>2020-07-01T13:03:03Z</time>
      </trkpt>
      <trkpt lat="48.95199" lon="3.01794">
        <ele>52.6</ele>
        <time>2020-07-01T13:03:04Z</time>
      </trkpt>
      <trkpt lat="48.95201" lon="3.01786">
        <ele>52.6</ele>
        <time>2020-07-01T13:03:05Z</time>
      </trkpt>
      <trkpt lat="48.95202" lon="3.01778">
        <ele>52.5</ele>
        <time>2020-07-01T13:03:06Z</time>
      </trkpt>
      <trkpt lat="48.95203" lon="3.01772">
        <ele>52.5</ele>
        <time>2020-07-01T13:03:07Z</time>
      </trkpt>
      <trkpt lat="48.95205" lon="3.01763">
        <ele>52.5</ele>
        <time>2020-07-01T13:03:08Z</time>
      </trkpt>
      <trkpt lat="48.95205" lon="3.01757">
        <ele>52.5</ele>
        <time>2020-07-01T13:03:09Z</time>
      </trkpt>
      <trkpt lat="48.95205" lon="3.01749">
        <ele>52.5</ele>
        <time>2020-07-01T13:03:10Z</time>
      </trkpt>
      <trkpt lat="48.95206" lon="3.01742">
        <ele>52.5</ele>
        <time>2020-07-01T13:03:11Z</time>
      </trkpt>
      <trkpt lat="48.95205" lon="3.01737">
        <ele>52.5</ele>
        <time>2020-07-01T13:03:12Z</time>
      </trkpt>
      <trkpt lat="48.95205" lon="3.0173">
        <ele>52.5</ele>
        <time>2020-07-01T13:03:13Z</time>
      </trkpt>
      <trkpt lat="48.95206" lon="3.01723">
        <ele>52.5</ele>
        <time>2020-07-01T13:03:14Z</time>
      </trkpt>
      <trkpt lat="48.95205" lon="3.01715">
        <ele>52.6</ele>
        <time>2020-07-01T13:03:15Z</time>
      </trkpt>
      <trkpt lat="48.95205" lon="3.01708">
        <ele>52.6</ele>
        <time>2020-07-01T13:03:16Z</time>
      </trkpt>
      <trkpt lat="48.95204" lon="3.01701">
        <ele>52.6</ele>
        <time>2020-07-01T13:03:17Z</time>
      </trkpt>
      <trkpt lat="48.95204" lon="3.01694">
        <ele>52.6</ele>
        <time>2020-07-01T13:03:18Z</time>
      </trkpt>
      <trkpt lat="48.95205" lon="3.01685">
        <ele>52.6</ele>
        <time>2020-07-01T13:03:19Z</time>
      </trkpt>
      <trkpt lat="48.95205" lon="3.01678">
        <ele>52.6</ele>
        <time>2020-07-01T13:03:20Z</time>
      </trkpt>
      <trkpt lat="48.95206" lon="3.01671">
        <ele>52.6</ele>
        <time>2020-07-01T13:03:21Z</time>
      </trkpt>
      <trkpt lat="48.95206" lon="3.01664">
        <ele>52.6</ele>
        <time>2020-07-01T13:03:22Z</time>
      </trkpt>
      <trkpt lat="48.95207" lon="3.01658">
        <ele>52.7</ele>
        <time>2020-07-01T13:03:23Z</time>
      </trkpt>
      <trkpt lat="48.95207" lon="3.01653">
        <ele>52.7</ele>
        <time>2020-07-01T13:03:24Z</time>
      </trkpt>
      <trkpt lat="48.95208" lon="3.01648">
        <ele>52.8</ele>
        <time>2020-07-01T13:03:25Z</time>
      </trkpt>
      <trkpt lat="48.95208" lon="3.01643">
        <ele>52.9</ele>
        <time>2020-07-01T13:03:26Z</time>
      </trkpt>
      <trkpt lat="48.95208" lon="3.01638">
        <ele>53</ele>
        <time>2020-07-01T13:03:27Z</time>
      </trkpt>
      <trkpt lat="48.95208" lon="3.01633">
        <ele>53.2</ele>
        <time>2020-07-01T13:03:28Z</time>
      </trkpt>
      <trkpt lat="48.95208" lon="3.01632">
        <ele>53.2</ele>
        <time>2020-07-01T13:03:29Z</time>
      </trkpt>
      <trkpt lat="48.95209" lon="3.01626">
        <ele>53.3</ele>
        <time>2020-07-01T13:03:30Z</time>
      </trkpt>
      <trkpt lat="48.95209" lon="3.01625">
        <ele>53.3</ele>
        <time>2020-07-01T13:03:31Z</time>
      </trkpt>
      <trkpt lat="48.95209" lon="3.0162">
        <ele>53.4</ele>
        <time>2020-07-01T13:03:32Z</time>
      </trkpt>
      <trkpt lat="48.95209" lon="3.01614">
        <ele>53.4</ele>
        <time>2020-07-01T13:03:33Z</time>
      </trkpt>
      <trkpt lat="48.95209" lon="3.01609">
        <ele>53.4</ele>
        <time>2020-07-01T13:03:34Z</time>
      </trkpt>
      <trkpt lat="48.95209" lon="3.01602">
        <ele>53.4</ele>
        <time>2020-07-01T13:03:35Z</time>
      </trkpt>
      <trkpt lat="48.95211" lon="3.01595">
        <ele>53.4</ele>
        <time>2020-07-01T13:03:36Z</time>
      </trkpt>
      <trkpt lat="48.95211" lon="3.01587">
        <ele>53.4</ele>
        <time>2020-07-01T13:03:37Z</time>
      </trkpt>
      <trkpt lat="48.95212" lon="3.01579">
        <ele>53.3</ele>
        <time>2020-07-01T13:03:38Z</time>
      </trkpt>
      <trkpt lat="48.95213" lon="3.01573">
        <ele>53.3</ele>
        <time>2020-07-01T13:03:39Z</time>
      </trkpt>
      <trkpt lat="48.95214" lon="3.01566">
        <ele>53.2</ele>
        <time>2020-07-01T13:03:40Z</time>
      </trkpt>
      <trkpt lat="48.95215" lon="3.01559">
        <ele>53.2</ele>
        <time>2020-07-01T13:03:41Z</time>
      </trkpt>
      <trkpt lat="48.95216" lon="3.01552">
        <ele>53.1</ele>
        <time>2020-07-01T13:03:42Z</time>
      </trkpt>
      <trkpt lat="48.95218" lon="3.01546">
        <ele>53.1</ele>
        <time>2020-07-01T13:03:43Z</time>
      </trkpt>
      <trkpt lat="48.95219" lon="3.01539">
        <ele>53.1</ele>
        <time>2020-07-01T13:03:44Z</time>
      </trkpt>
      <trkpt lat="48.95223" lon="3.0153">
        <ele>53</ele>
        <time>2020-07-01T13:03:45Z</time>
      </trkpt>
      <trkpt lat="48.95224" lon="3.01524">
        <ele>52.9</ele>
        <time>2020-07-01T13:03:46Z</time>
      </trkpt>
      <trkpt lat="48.95225" lon="3.01517">
        <ele>52.8</ele>
        <time>2020-07-01T13:03:47Z</time>
      </trkpt>
      <trkpt lat="48.95227" lon="3.0151">
        <ele>52.7</ele>
        <time>2020-07-01T13:03:48Z</time>
      </trkpt>
      <trkpt lat="48.95228" lon="3.01502">
        <ele>52.7</ele>
        <time>2020-07-01T13:03:49Z</time>
      </trkpt>
      <trkpt lat="48.95229" lon="3.01495">
        <ele>52.7</ele>
        <time>2020-07-01T13:03:50Z</time>
      </trkpt>
      <trkpt lat="48.95231" lon="3.01486">
        <ele>52.7</ele>
        <time>2020-07-01T13:03:51Z</time>
      </trkpt>
      <trkpt lat="48.95232" lon="3.01478">
        <ele>52.7</ele>
        <time>2020-07-01T13:03:52Z</time>
      </trkpt>
      <trkpt lat="48.95233" lon="3.01469">
        <ele>52.7</ele>
        <time>2020-07-01T13:03:53Z</time>
      </trkpt>
      <trkpt lat="48.95233" lon="3.01462">
        <ele>52.6</ele>
        <time>2020-07-01T13:03:54Z</time>
      </trkpt>
      <trkpt lat="48.95235" lon="3.01453">
        <ele>52.6</ele>
        <time>2020-07-01T13:03:55Z</time>
      </trkpt>
      <trkpt lat="48.95237" lon="3.01445">
        <ele>52.6</ele>
        <time>2020-07-01T13:03:56Z</time>
      </trkpt>
      <trkpt lat="48.95239" lon="3.01437">
        <ele>52.5</ele>
        <time>2020-07-01T13:03:57Z</time>
      </trkpt>
      <trkpt lat="48.9524" lon="3.01427">
        <ele>52.5</ele>
        <time>2020-07-01T13:03:58Z</time>
      </trkpt>
      <trkpt lat="48.95242" lon="3.0142">
        <ele>52.5</ele>
        <time>2020-07-01T13:03:59Z</time>
      </trkpt>
      <trkpt lat="48.95242" lon="3.01411">
        <ele>52.5</ele>
        <time>2020-07-01T13:04:00Z</time>
      </trkpt>
      <trkpt lat="48.95243" lon="3.01402">
        <ele>52.5</ele>
        <time>2020-07-01T13:04:01Z</time>
      </trkpt>
      <trkpt lat="48.95245" lon="3.01394">
        <ele>52.5</ele>
        <time>2020-07-01T13:04:02Z</time>
      </trkpt>
      <trkpt lat="48.95246" lon="3.01385">
        <ele>52.5</ele>
        <time>2020-07-01T13:04:03Z</time>
      </trkpt>
      <trkpt lat="48.95247" lon="3.01376">
        <ele>52.4</ele>
        <time>2020-07-01T13:04:04Z</time>
      </trkpt>
      <trkpt lat="48.95248" lon="3.01368">
        <ele>52.4</ele>
        <time>2020-07-01T13:04:05Z</time>
      </trkpt>
      <trkpt lat="48.9525" lon="3.01359">
        <ele>52.4</ele>
        <time>2020-07-01T13:04:06Z</time>
      </trkpt>
      <trkpt lat="48.95252" lon="3.0135">
        <ele>52.4</ele>
        <time>2020-07-01T13:04:07Z</time>
      </trkpt>
      <trkpt lat="48.95254" lon="3.01342">
        <ele>52.4</ele>
        <time>2020-07-01T13:04:08Z</time>
      </trkpt>
      <trkpt lat="48.95257" lon="3.01334">
        <ele>52.4</ele>
        <time>2020-07-01T13:04:09Z</time>
      </trkpt>
      <trkpt lat="48.95258" lon="3.01325">
        <ele>52.5</ele>
        <time>2020-07-01T13:04:10Z</time>
      </trkpt>
      <trkpt lat="48.95259" lon="3.01317">
        <ele>52.5</ele>
        <time>2020-07-01T13:04:11Z</time>
      </trkpt>
      <trkpt lat="48.95259" lon="3.01311">
        <ele>52.5</ele>
        <time>2020-07-01T13:04:12Z</time>
      </trkpt>
      <trkpt lat="48.9526" lon="3.01303">
        <ele>52.5</ele>
        <time>2020-07-01T13:04:13Z</time>
      </trkpt>
      <trkpt lat="48.95261" lon="3.01296">
        <ele>52.5</ele>
        <time>2020-07-01T13:04:14Z</time>
      </trkpt>
      <trkpt lat="48.95262" lon="3.01288">
        <ele>52.5</ele>
        <time>2020-07-01T13:04:15Z</time>
      </trkpt>
      <trkpt lat="48.95263" lon="3.0128">
        <ele>52.5</ele>
        <time>2020-07-01T13:04:16Z</time>
      </trkpt>
      <trkpt lat="48.95262" lon="3.01273">
        <ele>52.5</ele>
        <time>2020-07-01T13:04:17Z</time>
      </trkpt>
      <trkpt lat="48.9526" lon="3.01268">
        <ele>52.5</ele>
        <time>2020-07-01T13:04:18Z</time>
      </trkpt>
      <trkpt lat="48.95256" lon="3.01264">
        <ele>52.6</ele>
        <time>2020-07-01T13:04:19Z</time>
      </trkpt>
      <trkpt lat="48.95252" lon="3.01259">
        <ele>52.7</ele>
        <time>2020-07-01T13:04:20Z</time>
      </trkpt>
      <trkpt lat="48.95247" lon="3.01255">
        <ele>52.8</ele>
        <time>2020-07-01T13:04:21Z</time>
      </trkpt>
      <trkpt lat="48.95244" lon="3.01251">
        <ele>53</ele>
        <time>2020-07-01T13:04:22Z</time>
      </trkpt>
      <trkpt lat="48.9524" lon="3.01249">
        <ele>53.1</ele>
        <time>2020-07-01T13:04:23Z</time>
      </trkpt>
      <trkpt lat="48.95236" lon="3.01246">
        <ele>53.2</ele>
        <time>2020-07-01T13:04:24Z</time>
      </trkpt>
      <trkpt lat="48.95232" lon="3.01244">
        <ele>53.3</ele>
        <time>2020-07-01T13:04:25Z</time>
      </trkpt>
      <trkpt lat="48.9523" lon="3.01242">
        <ele>53.5</ele>
        <time>2020-07-01T13:04:26Z</time>
      </trkpt>
      <trkpt lat="48.95227" lon="3.01239">
        <ele>53.6</ele>
        <time>2020-07-01T13:04:27Z</time>
      </trkpt>
      <trkpt lat="48.95225" lon="3.01236">
        <ele>53.8</ele>
        <time>2020-07-01T13:04:28Z</time>
      </trkpt>
      <trkpt lat="48.95224" lon="3.01235">
        <ele>53.8</ele>
        <time>2020-07-01T13:04:29Z</time>
      </trkpt>
      <trkpt lat="48.95223" lon="3.01233">
        <ele>53.9</ele>
        <time>2020-07-01T13:04:30Z</time>
      </trkpt>
      <trkpt lat="48.95223" lon="3.01231">
        <ele>54.2</ele>
        <time>2020-07-01T13:04:31Z</time>
      </trkpt>
      <trkpt lat="48.95224" lon="3.01225">
        <ele>54.1</ele>
        <time>2020-07-01T13:04:32Z</time>
      </trkpt>
      <trkpt lat="48.95225" lon="3.01222">
        <ele>54.1</ele>
        <time>2020-07-01T13:04:33Z</time>
      </trkpt>
      <trkpt lat="48.95226" lon="3.01216">
        <ele>54</ele>
        <time>2020-07-01T13:04:34Z</time>
      </trkpt>
      <trkpt lat="48.95228" lon="3.0121">
        <ele>54</ele>
        <time>2020-07-01T13:04:35Z</time>
      </trkpt>
      <trkpt lat="48.9523" lon="3.01205">
        <ele>53.9</ele>
        <time>2020-07-01T13:04:36Z</time>
      </trkpt>
      <trkpt lat="48.95232" lon="3.012">
        <ele>53.9</ele>
        <time>2020-07-01T13:04:37Z</time>
      </trkpt>
      <trkpt lat="48.95234" lon="3.01195">
        <ele>53.9</ele>
        <time>2020-07-01T13:04:38Z</time>
      </trkpt>
      <trkpt lat="48.95237" lon="3.01189">
        <ele>53.9</ele>
        <time>2020-07-01T13:04:39Z</time>
      </trkpt>
      <trkpt lat="48.9524" lon="3.01182">
        <ele>53.9</ele>
        <time>2020-07-01T13:04:40Z</time>
      </trkpt>
      <trkpt lat="48.95243" lon="3.01178">
        <ele>53.9</ele>
        <time>2020-07-01T13:04:41Z</time>
      </trkpt>
      <trkpt lat="48.95245" lon="3.01172">
        <ele>53.9</ele>
        <time>2020-07-01T13:04:42Z</time>
      </trkpt>
      <trkpt lat="48.95248" lon="3.01166">
        <ele>53.9</ele>
        <time>2020-07-01T13:04:43Z</time>
      </trkpt>
      <trkpt lat="48.9525" lon="3.01159">
        <ele>53.9</ele>
        <time>2020-07-01T13:04:44Z</time>
      </trkpt>
      <trkpt lat="48.95254" lon="3.01153">
        <ele>53.9</ele>
        <time>2020-07-01T13:04:45Z</time>
      </trkpt>
      <trkpt lat="48.95257" lon="3.01146">
        <ele>53.9</ele>
        <time>2020-07-01T13:04:46Z</time>
      </trkpt>
      <trkpt lat="48.9526" lon="3.01139">
        <ele>53.9</ele>
        <time>2020-07-01T13:04:47Z</time>
      </trkpt>
      <trkpt lat="48.95263" lon="3.01132">
        <ele>53.9</ele>
        <time>2020-07-01T13:04:48Z</time>
      </trkpt>
      <trkpt lat="48.95266" lon="3.01125">
        <ele>54</ele>
        <time>2020-07-01T13:04:49Z</time>
      </trkpt>
      <trkpt lat="48.95269" lon="3.01119">
        <ele>54.1</ele>
        <time>2020-07-01T13:04:50Z</time>
      </trkpt>
      <trkpt lat="48.95273" lon="3.01113">
        <ele>54.1</ele>
        <time>2020-07-01T13:04:51Z</time>
      </trkpt>
      <trkpt lat="48.95277" lon="3.01107">
        <ele>54.2</ele>
        <time>2020-07-01T13:04:52Z</time>
      </trkpt>
      <trkpt lat="48.95279" lon="3.01102">
        <ele>54.3</ele>
        <time>2020-07-01T13:04:53Z</time>
      </trkpt>
      <trkpt lat="48.95282" lon="3.01095">
        <ele>54.3</ele>
        <time>2020-07-01T13:04:54Z</time>
      </trkpt>
      <trkpt lat="48.95285" lon="3.01088">
        <ele>54.3</ele>
        <time>2020-07-01T13:04:55Z</time>
      </trkpt>
      <trkpt lat="48.95288" lon="3.01082">
        <ele>54.4</ele>
        <time>2020-07-01T13:04:56Z</time>
      </trkpt>
      <trkpt lat="48.9529" lon="3.01077">
        <ele>54.3</ele>
        <time>2020-07-01T13:04:57Z</time>
      </trkpt>
      <trkpt lat="48.95294" lon="3.0107">
        <ele>54.3</ele>
        <time>2020-07-01T13:04:58Z</time>
      </trkpt>
      <trkpt lat="48.95296" lon="3.01064">
        <ele>54.3</ele>
        <time>2020-07-01T13:04:59Z</time>
      </trkpt>
      <trkpt lat="48.95298" lon="3.01057">
        <ele>54.2</ele>
        <time>2020-07-01T13:05:00Z</time>
      </trkpt>
      <trkpt lat="48.95301" lon="3.0105">
        <ele>54.2</ele>
        <time>2020-07-01T13:05:01Z</time>
      </trkpt>
      <trkpt lat="48.95303" lon="3.01042">
        <ele>54.2</ele>
        <time>2020-07-01T13:05:02Z</time>
      </trkpt>
      <trkpt lat="48.95306" lon="3.01034">
        <ele>54.2</ele>
        <time>2020-07-01T13:05:03Z</time>
      </trkpt>
      <trkpt lat="48.95308" lon="3.01026">
        <ele>54.1</ele>
        <time>2020-07-01T13:05:04Z</time>
      </trkpt>
      <trkpt lat="48.95312" lon="3.01018">
        <ele>54.1</ele>
        <time>2020-07-01T13:05:05Z</time>
      </trkpt>
      <trkpt lat="48.95314" lon="3.01013">
        <ele>54.1</ele>
        <time>2020-07-01T13:05:06Z</time>
      </trkpt>
      <trkpt lat="48.95317" lon="3.01006">
        <ele>54</ele>
        <time>2020-07-01T13:05:07Z</time>
      </trkpt>
      <trkpt lat="48.9532" lon="3.00999">
        <ele>54</ele>
        <time>2020-07-01T13:05:08Z</time>
      </trkpt>
      <trkpt lat="48.95323" lon="3.00991">
        <ele>53.9</ele>
        <time>2020-07-01T13:05:09Z</time>
      </trkpt>
      <trkpt lat="48.95326" lon="3.00984">
        <ele>53.9</ele>
        <time>2020-07-01T13:05:10Z</time>
      </trkpt>
      <trkpt lat="48.95328" lon="3.00977">
        <ele>53.8</ele>
        <time>2020-07-01T13:05:11Z</time>
      </trkpt>
      <trkpt lat="48.95331" lon="3.0097">
        <ele>53.8</ele>
        <time>2020-07-01T13:05:12Z</time>
      </trkpt>
      <trkpt lat="48.95334" lon="3.00965">
        <ele>53.7</ele>
        <time>2020-07-01T13:05:13Z</time>
      </trkpt>
      <trkpt lat="48.95336" lon="3.0096">
        <ele>53.7</ele>
        <time>2020-07-01T13:05:14Z</time>
      </trkpt>
      <trkpt lat="48.95339" lon="3.00954">
        <ele>53.7</ele>
        <time>2020-07-01T13:05:15Z</time>
      </trkpt>
      <trkpt lat="48.95342" lon="3.00948">
        <ele>53.7</ele>
        <time>2020-07-01T13:05:16Z</time>
      </trkpt>
      <trkpt lat="48.95344" lon="3.00941">
        <ele>53.8</ele>
        <time>2020-07-01T13:05:17Z</time>
      </trkpt>
      <trkpt lat="48.95348" lon="3.00932">
        <ele>53.8</ele>
        <time>2020-07-01T13:05:18Z</time>
      </trkpt>
      <trkpt lat="48.9535" lon="3.00925">
        <ele>53.8</ele>
        <time>2020-07-01T13:05:19Z</time>
      </trkpt>
      <trkpt lat="48.95353" lon="3.00919">
        <ele>53.7</ele>
        <time>2020-07-01T13:05:20Z</time>
      </trkpt>
      <trkpt lat="48.95357" lon="3.00912">
        <ele>53.7</ele>
        <time>2020-07-01T13:05:21Z</time>
      </trkpt>
      <trkpt lat="48.9536" lon="3.00908">
        <ele>53.7</ele>
        <time>2020-07-01T13:05:22Z</time>
      </trkpt>
      <trkpt lat="48.95364" lon="3.00901">
        <ele>53.7</ele>
        <time>2020-07-01T13:05:23Z</time>
      </trkpt>
      <trkpt lat="48.95367" lon="3.00895">
        <ele>53.7</ele>
        <time>2020-07-01T13:05:24Z</time>
      </trkpt>
      <trkpt lat="48.9537" lon="3.00889">
        <ele>53.8</ele>
        <time>2020-07-01T13:05:25Z</time>
      </trkpt>
      <trkpt lat="48.95373" lon="3.00882">
        <ele>53.8</ele>
        <time>2020-07-01T13:05:26Z</time>
      </trkpt>
      <trkpt lat="48.95375" lon="3.00877">
        <ele>53.8</ele>
        <time>2020-07-01T13:05:27Z</time>
      </trkpt>
      <trkpt lat="48.95378" lon="3.0087">
        <ele>53.8</ele>
        <time>2020-07-01T13:05:28Z</time>
      </trkpt>
      <trkpt lat="48.95382" lon="3.00864">
        <ele>53.9</ele>
        <time>2020-07-01T13:05:29Z</time>
      </trkpt>
      <trkpt lat="48.95385" lon="3.00858">
        <ele>53.9</ele>
        <time>2020-07-01T13:05:30Z</time>
      </trkpt>
      <trkpt lat="48.95388" lon="3.00851">
        <ele>53.9</ele>
        <time>2020-07-01T13:05:31Z</time>
      </trkpt>
      <trkpt lat="48.95391" lon="3.00843">
        <ele>54</ele>
        <time>2020-07-01T13:05:32Z</time>
      </trkpt>
      <trkpt lat="48.95395" lon="3.00836">
        <ele>54</ele>
        <time>2020-07-01T13:05:33Z</time>
      </trkpt>
      <trkpt lat="48.95398" lon="3.00828">
        <ele>54.1</ele>
        <time>2020-07-01T13:05:34Z</time>
      </trkpt>
      <trkpt lat="48.95401" lon="3.00821">
        <ele>54.1</ele>
        <time>2020-07-01T13:05:35Z</time>
      </trkpt>
      <trkpt lat="48.95404" lon="3.00813">
        <ele>54.2</ele>
        <time>2020-07-01T13:05:36Z</time>
      </trkpt>
      <trkpt lat="48.95407" lon="3.00805">
        <ele>54.2</ele>
        <time>2020-07-01T13:05:37Z</time>
      </trkpt>
      <trkpt lat="48.9541" lon="3.00798">
        <ele>54.3</ele>
        <time>2020-07-01T13:05:38Z</time>
      </trkpt>
      <trkpt lat="48.95414" lon="3.00791">
        <ele>54.3</ele>
        <time>2020-07-01T13:05:39Z</time>
      </trkpt>
      <trkpt lat="48.95418" lon="3.00784">
        <ele>54.4</ele>
        <time>2020-07-01T13:05:40Z</time>
      </trkpt>
      <trkpt lat="48.95422" lon="3.00777">
        <ele>54.5</ele>
        <time>2020-07-01T13:05:41Z</time>
      </trkpt>
      <trkpt lat="48.95424" lon="3.0077">
        <ele>54.5</ele>
        <time>2020-07-01T13:05:42Z</time>
      </trkpt>
      <trkpt lat="48.95428" lon="3.00763">
        <ele>54.6</ele>
        <time>2020-07-01T13:05:43Z</time>
      </trkpt>
      <trkpt lat="48.9543" lon="3.00755">
        <ele>54.7</ele>
        <time>2020-07-01T13:05:44Z</time>
      </trkpt>
      <trkpt lat="48.95433" lon="3.00748">
        <ele>54.9</ele>
        <time>2020-07-01T13:05:45Z</time>
      </trkpt>
      <trkpt lat="48.95436" lon="3.00741">
        <ele>55</ele>
        <time>2020-07-01T13:05:46Z</time>
      </trkpt>
      <trkpt lat="48.95439" lon="3.00734">
        <ele>55.1</ele>
        <time>2020-07-01T13:05:47Z</time>
      </trkpt>
      <trkpt lat="48.95442" lon="3.00727">
        <ele>55.2</ele>
        <time>2020-07-01T13:05:48Z</time>
      </trkpt>
      <trkpt lat="48.95445" lon="3.0072">
        <ele>55.3</ele>
        <time>2020-07-01T13:05:49Z</time>
      </trkpt>
      <trkpt lat="48.95449" lon="3.00715">
        <ele>55.5</ele>
        <time>2020-07-01T13:05:50Z</time>
      </trkpt>
      <trkpt lat="48.95452" lon="3.0071">
        <ele>55.6</ele>
        <time>2020-07-01T13:05:51Z</time>
      </trkpt>
      <trkpt lat="48.95456" lon="3.00704">
        <ele>55.7</ele>
        <time>2020-07-01T13:05:52Z</time>
      </trkpt>
      <trkpt lat="48.95459" lon="3.00698">
        <ele>55.9</ele>
        <time>2020-07-01T13:05:53Z</time>
      </trkpt>
      <trkpt lat="48.95462" lon="3.00693">
        <ele>56</ele>
        <time>2020-07-01T13:05:54Z</time>
      </trkpt>
      <trkpt lat="48.95465" lon="3.00688">
        <ele>56.1</ele>
        <time>2020-07-01T13:05:55Z</time>
      </trkpt>
      <trkpt lat="48.95469" lon="3.00682">
        <ele>56.3</ele>
        <time>2020-07-01T13:05:56Z</time>
      </trkpt>
      <trkpt lat="48.95471" lon="3.00677">
        <ele>56.5</ele>
        <time>2020-07-01T13:05:57Z</time>
      </trkpt>
      <trkpt lat="48.95475" lon="3.00672">
        <ele>56.7</ele>
        <time>2020-07-01T13:05:58Z</time>
      </trkpt>
      <trkpt lat="48.95479" lon="3.00666">
        <ele>56.9</ele>
        <time>2020-07-01T13:05:59Z</time>
      </trkpt>
      <trkpt lat="48.95481" lon="3.00662">
        <ele>57.1</ele>
        <time>2020-07-01T13:06:00Z</time>
      </trkpt>
      <trkpt lat="48.95484" lon="3.00656">
        <ele>57.2</ele>
        <time>2020-07-01T13:06:01Z</time>
      </trkpt>
      <trkpt lat="48.95487" lon="3.00653">
        <ele>57.2</ele>
        <time>2020-07-01T13:06:02Z</time>
      </trkpt>
      <trkpt lat="48.95491" lon="3.00649">
        <ele>57.3</ele>
        <time>2020-07-01T13:06:03Z</time>
      </trkpt>
      <trkpt lat="48.95494" lon="3.00644">
        <ele>57.3</ele>
        <time>2020-07-01T13:06:04Z</time>
      </trkpt>
      <trkpt lat="48.95496" lon="3.0064">
        <ele>57.4</ele>
        <time>2020-07-01T13:06:05Z</time>
      </trkpt>
      <trkpt lat="48.955" lon="3.00636">
        <ele>57.5</ele>
        <time>2020-07-01T13:06:06Z</time>
      </trkpt>
      <trkpt lat="48.95504" lon="3.00632">
        <ele>57.6</ele>
        <time>2020-07-01T13:06:07Z</time>
      </trkpt>
      <trkpt lat="48.95507" lon="3.00627">
        <ele>57.8</ele>
        <time>2020-07-01T13:06:08Z</time>
      </trkpt>
      <trkpt lat="48.95511" lon="3.00623">
        <ele>57.9</ele>
        <time>2020-07-01T13:06:09Z</time>
      </trkpt>
      <trkpt lat="48.95515" lon="3.00618">
        <ele>58</ele>
        <time>2020-07-01T13:06:10Z</time>
      </trkpt>
      <trkpt lat="48.95519" lon="3.00613">
        <ele>58.2</ele>
        <time>2020-07-01T13:06:11Z</time>
      </trkpt>
      <trkpt lat="48.95523" lon="3.00609">
        <ele>58.3</ele>
        <time>2020-07-01T13:06:12Z</time>
      </trkpt>
      <trkpt lat="48.95526" lon="3.00605">
        <ele>58.5</ele>
        <time>2020-07-01T13:06:13Z</time>
      </trkpt>
      <trkpt lat="48.95529" lon="3.00601">
        <ele>58.6</ele>
        <time>2020-07-01T13:06:14Z</time>
      </trkpt>
      <trkpt lat="48.9553" lon="3.00597">
        <ele>58.7</ele>
        <time>2020-07-01T13:06:15Z</time>
      </trkpt>
      <trkpt lat="48.95533" lon="3.00593">
        <ele>58.8</ele>
        <time>2020-07-01T13:06:16Z</time>
      </trkpt>
      <trkpt lat="48.95536" lon="3.00588">
        <ele>59</ele>
        <time>2020-07-01T13:06:17Z</time>
      </trkpt>
      <trkpt lat="48.95539" lon="3.00583">
        <ele>59.2</ele>
        <time>2020-07-01T13:06:18Z</time>
      </trkpt>
      <trkpt lat="48.95542" lon="3.00578">
        <ele>59.4</ele>
        <time>2020-07-01T13:06:19Z</time>
      </trkpt>
      <trkpt lat="48.95545" lon="3.00573">
        <ele>59.6</ele>
        <time>2020-07-01T13:06:20Z</time>
      </trkpt>
      <trkpt lat="48.9555" lon="3.0057">
        <ele>59.8</ele>
        <time>2020-07-01T13:06:21Z</time>
      </trkpt>
      <trkpt lat="48.95553" lon="3.00567">
        <ele>59.9</ele>
        <time>2020-07-01T13:06:22Z</time>
      </trkpt>
      <trkpt lat="48.95556" lon="3.00563">
        <ele>60.1</ele>
        <time>2020-07-01T13:06:23Z</time>
      </trkpt>
      <trkpt lat="48.95561" lon="3.00558">
        <ele>60.3</ele>
        <time>2020-07-01T13:06:24Z</time>
      </trkpt>
      <trkpt lat="48.95565" lon="3.00554">
        <ele>60.5</ele>
        <time>2020-07-01T13:06:25Z</time>
      </trkpt>
      <trkpt lat="48.95568" lon="3.0055">
        <ele>60.7</ele>
        <time>2020-07-01T13:06:26Z</time>
      </trkpt>
      <trkpt lat="48.95572" lon="3.00545">
        <ele>60.8</ele>
        <time>2020-07-01T13:06:27Z</time>
      </trkpt>
      <trkpt lat="48.95575" lon="3.00541">
        <ele>61</ele>
        <time>2020-07-01T13:06:28Z</time>
      </trkpt>
      <trkpt lat="48.95579" lon="3.00538">
        <ele>61.2</ele>
        <time>2020-07-01T13:06:29Z</time>
      </trkpt>
      <trkpt lat="48.95583" lon="3.00534">
        <ele>61.4</ele>
        <time>2020-07-01T13:06:30Z</time>
      </trkpt>
      <trkpt lat="48.95586" lon="3.0053">
        <ele>61.6</ele>
        <time>2020-07-01T13:06:31Z</time>
      </trkpt>
      <trkpt lat="48.9559" lon="3.00526">
        <ele>61.8</ele>
        <time>2020-07-01T13:06:32Z</time>
      </trkpt>
      <trkpt lat="48.95592" lon="3.00523">
        <ele>62</ele>
        <time>2020-07-01T13:06:33Z</time>
      </trkpt>
      <trkpt lat="48.95596" lon="3.0052">
        <ele>62.2</ele>
        <time>2020-07-01T13:06:34Z</time>
      </trkpt>
      <trkpt lat="48.95599" lon="3.00515">
        <ele>62.4</ele>
        <time>2020-07-01T13:06:35Z</time>
      </trkpt>
      <trkpt lat="48.95602" lon="3.00512">
        <ele>62.5</ele>
        <time>2020-07-01T13:06:36Z</time>
      </trkpt>
      <trkpt lat="48.95604" lon="3.00509">
        <ele>62.7</ele>
        <time>2020-07-01T13:06:37Z</time>
      </trkpt>
      <trkpt lat="48.95607" lon="3.00506">
        <ele>62.9</ele>
        <time>2020-07-01T13:06:38Z</time>
      </trkpt>
      <trkpt lat="48.9561" lon="3.00503">
        <ele>63.1</ele>
        <time>2020-07-01T13:06:39Z</time>
      </trkpt>
      <trkpt lat="48.95614" lon="3.005">
        <ele>63.3</ele>
        <time>2020-07-01T13:06:40Z</time>
      </trkpt>
      <trkpt lat="48.95617" lon="3.00498">
        <ele>63.5</ele>
        <time>2020-07-01T13:06:41Z</time>
      </trkpt>
      <trkpt lat="48.9562" lon="3.00494">
        <ele>63.8</ele>
        <time>2020-07-01T13:06:42Z</time>
      </trkpt>
      <trkpt lat="48.95623" lon="3.0049">
        <ele>64</ele>
        <time>2020-07-01T13:06:43Z</time>
      </trkpt>
      <trkpt lat="48.95627" lon="3.00486">
        <ele>64.3</ele>
        <time>2020-07-01T13:06:44Z</time>
      </trkpt>
      <trkpt lat="48.95631" lon="3.00481">
        <ele>64.6</ele>
        <time>2020-07-01T13:06:45Z</time>
      </trkpt>
      <trkpt lat="48.95634" lon="3.00478">
        <ele>64.9</ele>
        <time>2020-07-01T13:06:46Z</time>
      </trkpt>
      <trkpt lat="48.95638" lon="3.00474">
        <ele>65.1</ele>
        <time>2020-07-01T13:06:47Z</time>
      </trkpt>
      <trkpt lat="48.9564" lon="3.00471">
        <ele>65.3</ele>
        <time>2020-07-01T13:06:48Z</time>
      </trkpt>
      <trkpt lat="48.95644" lon="3.00468">
        <ele>65.5</ele>
        <time>2020-07-01T13:06:49Z</time>
      </trkpt>
      <trkpt lat="48.95647" lon="3.00464">
        <ele>65.7</ele>
        <time>2020-07-01T13:06:50Z</time>
      </trkpt>
      <trkpt lat="48.95649" lon="3.00461">
        <ele>65.8</ele>
        <time>2020-07-01T13:06:51Z</time>
      </trkpt>
      <trkpt lat="48.95652" lon="3.00459">
        <ele>66</ele>
        <time>2020-07-01T13:06:52Z</time>
      </trkpt>
      <trkpt lat="48.95654" lon="3.00456">
        <ele>66.1</ele>
        <time>2020-07-01T13:06:53Z</time>
      </trkpt>
      <trkpt lat="48.95657" lon="3.00454">
        <ele>66.3</ele>
        <time>2020-07-01T13:06:54Z</time>
      </trkpt>
      <trkpt lat="48.95662" lon="3.0045">
        <ele>66.5</ele>
        <time>2020-07-01T13:06:55Z</time>
      </trkpt>
      <trkpt lat="48.95666" lon="3.00446">
        <ele>66.8</ele>
        <time>2020-07-01T13:06:56Z</time>
      </trkpt>
      <trkpt lat="48.95669" lon="3.00444">
        <ele>66.9</ele>
        <time>2020-07-01T13:06:57Z</time>
      </trkpt>
      <trkpt lat="48.95672" lon="3.00441">
        <ele>67.1</ele>
        <time>2020-07-01T13:06:58Z</time>
      </trkpt>
      <trkpt lat="48.95675" lon="3.00439">
        <ele>67.2</ele>
        <time>2020-07-01T13:06:59Z</time>
      </trkpt>
      <trkpt lat="48.95678" lon="3.00437">
        <ele>67.4</ele>
        <time>2020-07-01T13:07:00Z</time>
      </trkpt>
      <trkpt lat="48.9568" lon="3.00434">
        <ele>67.5</ele>
        <time>2020-07-01T13:07:01Z</time>
      </trkpt>
      <trkpt lat="48.95685" lon="3.0043">
        <ele>67.8</ele>
        <time>2020-07-01T13:07:02Z</time>
      </trkpt>
      <trkpt lat="48.95688" lon="3.00427">
        <ele>67.9</ele>
        <time>2020-07-01T13:07:03Z</time>
      </trkpt>
      <trkpt lat="48.95691" lon="3.00424">
        <ele>68.1</ele>
        <time>2020-07-01T13:07:04Z</time>
      </trkpt>
      <trkpt lat="48.95694" lon="3.0042">
        <ele>68.3</ele>
        <time>2020-07-01T13:07:05Z</time>
      </trkpt>
      <trkpt lat="48.95697" lon="3.00417">
        <ele>68.4</ele>
        <time>2020-07-01T13:07:06Z</time>
      </trkpt>
      <trkpt lat="48.957" lon="3.00413">
        <ele>68.5</ele>
        <time>2020-07-01T13:07:07Z</time>
      </trkpt>
      <trkpt lat="48.95703" lon="3.00409">
        <ele>68.7</ele>
        <time>2020-07-01T13:07:08Z</time>
      </trkpt>
      <trkpt lat="48.95706" lon="3.00405">
        <ele>68.9</ele>
        <time>2020-07-01T13:07:09Z</time>
      </trkpt>
      <trkpt lat="48.95708" lon="3.00403">
        <ele>69</ele>
        <time>2020-07-01T13:07:10Z</time>
      </trkpt>
      <trkpt lat="48.95712" lon="3.004">
        <ele>69.2</ele>
        <time>2020-07-01T13:07:11Z</time>
      </trkpt>
      <trkpt lat="48.95717" lon="3.00397">
        <ele>69.5</ele>
        <time>2020-07-01T13:07:12Z</time>
      </trkpt>
      <trkpt lat="48.95721" lon="3.00394">
        <ele>69.7</ele>
        <time>2020-07-01T13:07:13Z</time>
      </trkpt>
      <trkpt lat="48.95724" lon="3.0039">
        <ele>69.9</ele>
        <time>2020-07-01T13:07:14Z</time>
      </trkpt>
      <trkpt lat="48.95728" lon="3.00384">
        <ele>70.2</ele>
        <time>2020-07-01T13:07:15Z</time>
      </trkpt>
      <trkpt lat="48.95731" lon="3.0038">
        <ele>70.4</ele>
        <time>2020-07-01T13:07:16Z</time>
      </trkpt>
      <trkpt lat="48.95735" lon="3.00377">
        <ele>70.6</ele>
        <time>2020-07-01T13:07:17Z</time>
      </trkpt>
      <trkpt lat="48.95738" lon="3.00374">
        <ele>70.8</ele>
        <time>2020-07-01T13:07:18Z</time>
      </trkpt>
      <trkpt lat="48.95741" lon="3.00371">
        <ele>71</ele>
        <time>2020-07-01T13:07:19Z</time>
      </trkpt>
      <trkpt lat="48.95744" lon="3.00368">
        <ele>71.2</ele>
        <time>2020-07-01T13:07:20Z</time>
      </trkpt>
      <trkpt lat="48.95746" lon="3.00365">
        <ele>71.3</ele>
        <time>2020-07-01T13:07:21Z</time>
      </trkpt>
      <trkpt lat="48.95749" lon="3.00361">
        <ele>71.5</ele>
        <time>2020-07-01T13:07:22Z</time>
      </trkpt>
      <trkpt lat="48.95752" lon="3.00357">
        <ele>71.7</ele>
        <time>2020-07-01T13:07:23Z</time>
      </trkpt>
      <trkpt lat="48.95755" lon="3.00354">
        <ele>71.9</ele>
        <time>2020-07-01T13:07:24Z</time>
      </trkpt>
      <trkpt lat="48.95758" lon="3.00351">
        <ele>72.1</ele>
        <time>2020-07-01T13:07:25Z</time>
      </trkpt>
      <trkpt lat="48.95761" lon="3.00348">
        <ele>72.4</ele>
        <time>2020-07-01T13:07:26Z</time>
      </trkpt>
      <trkpt lat="48.95764" lon="3.00344">
        <ele>72.6</ele>
        <time>2020-07-01T13:07:27Z</time>
      </trkpt>
      <trkpt lat="48.95768" lon="3.0034">
        <ele>72.9</ele>
        <time>2020-07-01T13:07:28Z</time>
      </trkpt>
      <trkpt lat="48.95771" lon="3.00337">
        <ele>73.1</ele>
        <time>2020-07-01T13:07:29Z</time>
      </trkpt>
      <trkpt lat="48.95774" lon="3.00333">
        <ele>73.3</ele>
        <time>2020-07-01T13:07:30Z</time>
      </trkpt>
      <trkpt lat="48.95777" lon="3.0033">
        <ele>73.5</ele>
        <time>2020-07-01T13:07:31Z</time>
      </trkpt>
      <trkpt lat="48.95779" lon="3.00327">
        <ele>73.7</ele>
        <time>2020-07-01T13:07:32Z</time>
      </trkpt>
      <trkpt lat="48.95783" lon="3.00323">
        <ele>74</ele>
        <time>2020-07-01T13:07:33Z</time>
      </trkpt>
      <trkpt lat="48.95786" lon="3.00319">
        <ele>74.2</ele>
        <time>2020-07-01T13:07:34Z</time>
      </trkpt>
      <trkpt lat="48.95789" lon="3.00315">
        <ele>74.4</ele>
        <time>2020-07-01T13:07:35Z</time>
      </trkpt>
      <trkpt lat="48.95792" lon="3.00313">
        <ele>74.6</ele>
        <time>2020-07-01T13:07:36Z</time>
      </trkpt>
      <trkpt lat="48.95796" lon="3.00309">
        <ele>74.8</ele>
        <time>2020-07-01T13:07:37Z</time>
      </trkpt>
      <trkpt lat="48.95799" lon="3.00307">
        <ele>75</ele>
        <time>2020-07-01T13:07:38Z</time>
      </trkpt>
      <trkpt lat="48.95802" lon="3.00303">
        <ele>75.3</ele>
        <time>2020-07-01T13:07:39Z</time>
      </trkpt>
      <trkpt lat="48.95804" lon="3.00301">
        <ele>75.4</ele>
        <time>2020-07-01T13:07:40Z</time>
      </trkpt>
      <trkpt lat="48.95808" lon="3.00298">
        <ele>75.7</ele>
        <time>2020-07-01T13:07:41Z</time>
      </trkpt>
      <trkpt lat="48.95811" lon="3.00296">
        <ele>75.9</ele>
        <time>2020-07-01T13:07:42Z</time>
      </trkpt>
      <trkpt lat="48.95813" lon="3.00294">
        <ele>76.1</ele>
        <time>2020-07-01T13:07:43Z</time>
      </trkpt>
      <trkpt lat="48.95816" lon="3.00291">
        <ele>76.2</ele>
        <time>2020-07-01T13:07:44Z</time>
      </trkpt>
      <trkpt lat="48.95818" lon="3.00289">
        <ele>76.4</ele>
        <time>2020-07-01T13:07:45Z</time>
      </trkpt>
      <trkpt lat="48.95821" lon="3.00287">
        <ele>76.7</ele>
        <time>2020-07-01T13:07:46Z</time>
      </trkpt>
      <trkpt lat="48.95824" lon="3.00284">
        <ele>76.9</ele>
        <time>2020-07-01T13:07:47Z</time>
      </trkpt>
      <trkpt lat="48.95827" lon="3.0028">
        <ele>77.1</ele>
        <time>2020-07-01T13:07:48Z</time>
      </trkpt>
      <trkpt lat="48.9583" lon="3.00277">
        <ele>77.4</ele>
        <time>2020-07-01T13:07:49Z</time>
      </trkpt>
      <trkpt lat="48.95833" lon="3.00273">
        <ele>77.6</ele>
        <time>2020-07-01T13:07:50Z</time>
      </trkpt>
      <trkpt lat="48.95836" lon="3.00269">
        <ele>77.9</ele>
        <time>2020-07-01T13:07:51Z</time>
      </trkpt>
      <trkpt lat="48.95839" lon="3.00266">
        <ele>78.1</ele>
        <time>2020-07-01T13:07:52Z</time>
      </trkpt>
      <trkpt lat="48.95842" lon="3.00262">
        <ele>78.3</ele>
        <time>2020-07-01T13:07:53Z</time>
      </trkpt>
      <trkpt lat="48.95844" lon="3.00258">
        <ele>78.5</ele>
        <time>2020-07-01T13:07:54Z</time>
      </trkpt>
      <trkpt lat="48.95847" lon="3.00254">
        <ele>78.7</ele>
        <time>2020-07-01T13:07:55Z</time>
      </trkpt>
      <trkpt lat="48.95852" lon="3.00251">
        <ele>79</ele>
        <time>2020-07-01T13:07:56Z</time>
      </trkpt>
      <trkpt lat="48.95855" lon="3.00249">
        <ele>79.2</ele>
        <time>2020-07-01T13:07:57Z</time>
      </trkpt>
      <trkpt lat="48.95858" lon="3.00246">
        <ele>79.4</ele>
        <time>2020-07-01T13:07:58Z</time>
      </trkpt>
      <trkpt lat="48.95861" lon="3.00243">
        <ele>79.6</ele>
        <time>2020-07-01T13:07:59Z</time>
      </trkpt>
      <trkpt lat="48.95864" lon="3.0024">
        <ele>79.8</ele>
        <time>2020-07-01T13:08:00Z</time>
      </trkpt>
      <trkpt lat="48.95867" lon="3.00236">
        <ele>80</ele>
        <time>2020-07-01T13:08:01Z</time>
      </trkpt>
      <trkpt lat="48.9587" lon="3.00232">
        <ele>80.2</ele>
        <time>2020-07-01T13:08:02Z</time>
      </trkpt>
      <trkpt lat="48.95874" lon="3.00229">
        <ele>80.4</ele>
        <time>2020-07-01T13:08:03Z</time>
      </trkpt>
      <trkpt lat="48.95877" lon="3.00225">
        <ele>80.6</ele>
        <time>2020-07-01T13:08:04Z</time>
      </trkpt>
      <trkpt lat="48.9588" lon="3.00222">
        <ele>80.8</ele>
        <time>2020-07-01T13:08:05Z</time>
      </trkpt>
      <trkpt lat="48.95884" lon="3.00218">
        <ele>81</ele>
        <time>2020-07-01T13:08:06Z</time>
      </trkpt>
      <trkpt lat="48.95887" lon="3.00215">
        <ele>81.2</ele>
        <time>2020-07-01T13:08:07Z</time>
      </trkpt>
      <trkpt lat="48.9589" lon="3.00212">
        <ele>81.4</ele>
        <time>2020-07-01T13:08:08Z</time>
      </trkpt>
      <trkpt lat="48.95893" lon="3.00208">
        <ele>81.5</ele>
        <time>2020-07-01T13:08:09Z</time>
      </trkpt>
      <trkpt lat="48.95896" lon="3.00205">
        <ele>81.7</ele>
        <time>2020-07-01T13:08:10Z</time>
      </trkpt>
      <trkpt lat="48.959" lon="3.00202">
        <ele>81.9</ele>
        <time>2020-07-01T13:08:11Z</time>
      </trkpt>
      <trkpt lat="48.95903" lon="3.00198">
        <ele>82.1</ele>
        <time>2020-07-01T13:08:12Z</time>
      </trkpt>
      <trkpt lat="48.95905" lon="3.00194">
        <ele>82.3</ele>
        <time>2020-07-01T13:08:13Z</time>
      </trkpt>
      <trkpt lat="48.95908" lon="3.00189">
        <ele>82.4</ele>
        <time>2020-07-01T13:08:14Z</time>
      </trkpt>
      <trkpt lat="48.95911" lon="3.00185">
        <ele>82.6</ele>
        <time>2020-07-01T13:08:15Z</time>
      </trkpt>
      <trkpt lat="48.95913" lon="3.00181">
        <ele>82.8</ele>
        <time>2020-07-01T13:08:16Z</time>
      </trkpt>
      <trkpt lat="48.95915" lon="3.00177">
        <ele>83</ele>
        <time>2020-07-01T13:08:17Z</time>
      </trkpt>
      <trkpt lat="48.95917" lon="3.00172">
        <ele>83.1</ele>
        <time>2020-07-01T13:08:18Z</time>
      </trkpt>
      <trkpt lat="48.95918" lon="3.00168">
        <ele>83.3</ele>
        <time>2020-07-01T13:08:19Z</time>
      </trkpt>
      <trkpt lat="48.95918" lon="3.00162">
        <ele>83.5</ele>
        <time>2020-07-01T13:08:20Z</time>
      </trkpt>
      <trkpt lat="48.95917" lon="3.00157">
        <ele>83.6</ele>
        <time>2020-07-01T13:08:21Z</time>
      </trkpt>
      <trkpt lat="48.95917" lon="3.00152">
        <ele>83.8</ele>
        <time>2020-07-01T13:08:22Z</time>
      </trkpt>
      <trkpt lat="48.95919" lon="3.00145">
        <ele>83.9</ele>
        <time>2020-07-01T13:08:23Z</time>
      </trkpt>
      <trkpt lat="48.9592" lon="3.00143">
        <ele>84</ele>
        <time>2020-07-01T13:08:24Z</time>
      </trkpt>
      <trkpt lat="48.9592" lon="3.00138">
        <ele>84.1</ele>
        <time>2020-07-01T13:08:25Z</time>
      </trkpt>
      <trkpt lat="48.95922" lon="3.00132">
        <ele>84.3</ele>
        <time>2020-07-01T13:08:26Z</time>
      </trkpt>
      <trkpt lat="48.95923" lon="3.00127">
        <ele>84.4</ele>
        <time>2020-07-01T13:08:27Z</time>
      </trkpt>
      <trkpt lat="48.95922" lon="3.00122">
        <ele>84.5</ele>
        <time>2020-07-01T13:08:28Z</time>
      </trkpt>
      <trkpt lat="48.95922" lon="3.00116">
        <ele>84.6</ele>
        <time>2020-07-01T13:08:29Z</time>
      </trkpt>
      <trkpt lat="48.95924" lon="3.0011">
        <ele>84.8</ele>
        <time>2020-07-01T13:08:30Z</time>
      </trkpt>
      <trkpt lat="48.95924" lon="3.00105">
        <ele>84.9</ele>
        <time>2020-07-01T13:08:31Z</time>
      </trkpt>
      <trkpt lat="48.95926" lon="3.00098">
        <ele>85.1</ele>
        <time>2020-07-01T13:08:32Z</time>
      </trkpt>
      <trkpt lat="48.9593" lon="3.00092">
        <ele>85.2</ele>
        <time>2020-07-01T13:08:33Z</time>
      </trkpt>
      <trkpt lat="48.95932" lon="3.00087">
        <ele>85.3</ele>
        <time>2020-07-01T13:08:34Z</time>
      </trkpt>
      <trkpt lat="48.95934" lon="3.00081">
        <ele>85.4</ele>
        <time>2020-07-01T13:08:35Z</time>
      </trkpt>
      <trkpt lat="48.95935" lon="3.00076">
        <ele>85.5</ele>
        <time>2020-07-01T13:08:36Z</time>
      </trkpt>
      <trkpt lat="48.95936" lon="3.00071">
        <ele>85.6</ele>
        <time>2020-07-01T13:08:37Z</time>
      </trkpt>
      <trkpt lat="48.95936" lon="3.00064">
        <ele>85.7</ele>
        <time>2020-07-01T13:08:38Z</time>
      </trkpt>
      <trkpt lat="48.95936" lon="3.00058">
        <ele>85.8</ele>
        <time>2020-07-01T13:08:39Z</time>
      </trkpt>
      <trkpt lat="48.95937" lon="3.00052">
        <ele>85.8</ele>
        <time>2020-07-01T13:08:40Z</time>
      </trkpt>
      <trkpt lat="48.95937" lon="3.00046">
        <ele>85.9</ele>
        <time>2020-07-01T13:08:41Z</time>
      </trkpt>
      <trkpt lat="48.95938" lon="3.0004">
        <ele>86</ele>
        <time>2020-07-01T13:08:42Z</time>
      </trkpt>
      <trkpt lat="48.95938" lon="3.00032">
        <ele>86</ele>
        <time>2020-07-01T13:08:43Z</time>
      </trkpt>
      <trkpt lat="48.95938" lon="3.00025">
        <ele>86</ele>
        <time>2020-07-01T13:08:44Z</time>
      </trkpt>
      <trkpt lat="48.95936" lon="3.00019">
        <ele>86</ele>
        <time>2020-07-01T13:08:45Z</time>
      </trkpt>
      <trkpt lat="48.95937" lon="3.00009">
        <ele>86</ele>
        <time>2020-07-01T13:08:46Z</time>
      </trkpt>
      <trkpt lat="48.95938" lon="3.00001">
        <ele>86</ele>
        <time>2020-07-01T13:08:47Z</time>
      </trkpt>
      <trkpt lat="48.95939" lon="2.99994">
        <ele>85.9</ele>
        <time>2020-07-01T13:08:48Z</time>
      </trkpt>
      <trkpt lat="48.95938" lon="2.99988">
        <ele>85.9</ele>
        <time>2020-07-01T13:08:49Z</time>
      </trkpt>
      <trkpt lat="48.95939" lon="2.9998">
        <ele>85.9</ele>
        <time>2020-07-01T13:08:50Z</time>
      </trkpt>
      <trkpt lat="48.95937" lon="2.99973">
        <ele>85.8</ele>
        <time>2020-07-01T13:08:51Z</time>
      </trkpt>
      <trkpt lat="48.95938" lon="2.99965">
        <ele>85.8</ele>
        <time>2020-07-01T13:08:52Z</time>
      </trkpt>
      <trkpt lat="48.95938" lon="2.99957">
        <ele>85.8</ele>
        <time>2020-07-01T13:08:53Z</time>
      </trkpt>
      <trkpt lat="48.95937" lon="2.99951">
        <ele>85.8</ele>
        <time>2020-07-01T13:08:54Z</time>
      </trkpt>
      <trkpt lat="48.95938" lon="2.99942">
        <ele>85.8</ele>
        <time>2020-07-01T13:08:55Z</time>
      </trkpt>
      <trkpt lat="48.95937" lon="2.99934">
        <ele>85.8</ele>
        <time>2020-07-01T13:08:56Z</time>
      </trkpt>
      <trkpt lat="48.95936" lon="2.99927">
        <ele>85.8</ele>
        <time>2020-07-01T13:08:57Z</time>
      </trkpt>
      <trkpt lat="48.95937" lon="2.99917">
        <ele>85.8</ele>
        <time>2020-07-01T13:08:58Z</time>
      </trkpt>
      <trkpt lat="48.95937" lon="2.99908">
        <ele>85.8</ele>
        <time>2020-07-01T13:08:59Z</time>
      </trkpt>
      <trkpt lat="48.95936" lon="2.99899">
        <ele>85.9</ele>
        <time>2020-07-01T13:09:00Z</time>
      </trkpt>
      <trkpt lat="48.95936" lon="2.9989">
        <ele>85.9</ele>
        <time>2020-07-01T13:09:01Z</time>
      </trkpt>
      <trkpt lat="48.95935" lon="2.99882">
        <ele>85.9</ele>
        <time>2020-07-01T13:09:02Z</time>
      </trkpt>
      <trkpt lat="48.95935" lon="2.99873">
        <ele>85.9</ele>
        <time>2020-07-01T13:09:03Z</time>
      </trkpt>
      <trkpt lat="48.95934" lon="2.99865">
        <ele>85.9</ele>
        <time>2020-07-01T13:09:04Z</time>
      </trkpt>
      <trkpt lat="48.95935" lon="2.99857">
        <ele>86</ele>
        <time>2020-07-01T13:09:05Z</time>
      </trkpt>
      <trkpt lat="48.95935" lon="2.99848">
        <ele>86</ele>
        <time>2020-07-01T13:09:06Z</time>
      </trkpt>
      <trkpt lat="48.95934" lon="2.9984">
        <ele>86.1</ele>
        <time>2020-07-01T13:09:07Z</time>
      </trkpt>
      <trkpt lat="48.95934" lon="2.99832">
        <ele>86.2</ele>
        <time>2020-07-01T13:09:08Z</time>
      </trkpt>
      <trkpt lat="48.95933" lon="2.99825">
        <ele>86.3</ele>
        <time>2020-07-01T13:09:09Z</time>
      </trkpt>
      <trkpt lat="48.95933" lon="2.99818">
        <ele>86.4</ele>
        <time>2020-07-01T13:09:10Z</time>
      </trkpt>
      <trkpt lat="48.95932" lon="2.99811">
        <ele>86.5</ele>
        <time>2020-07-01T13:09:11Z</time>
      </trkpt>
      <trkpt lat="48.95932" lon="2.99804">
        <ele>86.6</ele>
        <time>2020-07-01T13:09:12Z</time>
      </trkpt>
      <trkpt lat="48.95931" lon="2.99796">
        <ele>86.8</ele>
        <time>2020-07-01T13:09:13Z</time>
      </trkpt>
      <trkpt lat="48.95931" lon="2.99787">
        <ele>87</ele>
        <time>2020-07-01T13:09:14Z</time>
      </trkpt>
      <trkpt lat="48.9593" lon="2.99781">
        <ele>87.2</ele>
        <time>2020-07-01T13:09:15Z</time>
      </trkpt>
      <trkpt lat="48.9593" lon="2.99774">
        <ele>87.4</ele>
        <time>2020-07-01T13:09:16Z</time>
      </trkpt>
      <trkpt lat="48.95929" lon="2.99767">
        <ele>87.6</ele>
        <time>2020-07-01T13:09:17Z</time>
      </trkpt>
      <trkpt lat="48.95928" lon="2.9976">
        <ele>87.9</ele>
        <time>2020-07-01T13:09:18Z</time>
      </trkpt>
      <trkpt lat="48.95928" lon="2.99753">
        <ele>88.1</ele>
        <time>2020-07-01T13:09:19Z</time>
      </trkpt>
      <trkpt lat="48.95928" lon="2.99748">
        <ele>88.3</ele>
        <time>2020-07-01T13:09:20Z</time>
      </trkpt>
      <trkpt lat="48.95929" lon="2.99741">
        <ele>88.5</ele>
        <time>2020-07-01T13:09:21Z</time>
      </trkpt>
      <trkpt lat="48.95929" lon="2.99735">
        <ele>88.6</ele>
        <time>2020-07-01T13:09:22Z</time>
      </trkpt>
      <trkpt lat="48.95928" lon="2.99729">
        <ele>88.6</ele>
        <time>2020-07-01T13:09:23Z</time>
      </trkpt>
      <trkpt lat="48.95928" lon="2.99723">
        <ele>88.5</ele>
        <time>2020-07-01T13:09:24Z</time>
      </trkpt>
      <trkpt lat="48.95928" lon="2.99717">
        <ele>88.5</ele>
        <time>2020-07-01T13:09:25Z</time>
      </trkpt>
      <trkpt lat="48.95927" lon="2.99711">
        <ele>88.8</ele>
        <time>2020-07-01T13:09:26Z</time>
      </trkpt>
      <trkpt lat="48.95928" lon="2.99706">
        <ele>89</ele>
        <time>2020-07-01T13:09:27Z</time>
      </trkpt>
      <trkpt lat="48.95927" lon="2.99701">
        <ele>89.3</ele>
        <time>2020-07-01T13:09:28Z</time>
      </trkpt>
      <trkpt lat="48.95926" lon="2.99697">
        <ele>89.5</ele>
        <time>2020-07-01T13:09:29Z</time>
      </trkpt>
      <trkpt lat="48.95925" lon="2.99692">
        <ele>89.8</ele>
        <time>2020-07-01T13:09:30Z</time>
      </trkpt>
      <trkpt lat="48.95924" lon="2.99686">
        <ele>90.2</ele>
        <time>2020-07-01T13:09:31Z</time>
      </trkpt>
      <trkpt lat="48.95923" lon="2.99681">
        <ele>90.5</ele>
        <time>2020-07-01T13:09:32Z</time>
      </trkpt>
      <trkpt lat="48.95921" lon="2.99676">
        <ele>90.8</ele>
        <time>2020-07-01T13:09:33Z</time>
      </trkpt>
      <trkpt lat="48.95923" lon="2.99672">
        <ele>91</ele>
        <time>2020-07-01T13:09:34Z</time>
      </trkpt>
      <trkpt lat="48.95923" lon="2.99667">
        <ele>91.3</ele>
        <time>2020-07-01T13:09:35Z</time>
      </trkpt>
      <trkpt lat="48.95921" lon="2.99663">
        <ele>91.6</ele>
        <time>2020-07-01T13:09:36Z</time>
      </trkpt>
      <trkpt lat="48.95921" lon="2.99661">
        <ele>91.7</ele>
        <time>2020-07-01T13:09:37Z</time>
      </trkpt>
      <trkpt lat="48.95921" lon="2.99656">
        <ele>92</ele>
        <time>2020-07-01T13:09:38Z</time>
      </trkpt>
      <trkpt lat="48.95921" lon="2.99651">
        <ele>92.3</ele>
        <time>2020-07-01T13:09:39Z</time>
      </trkpt>
      <trkpt lat="48.95921" lon="2.9965">
        <ele>92.4</ele>
        <time>2020-07-01T13:09:40Z</time>
      </trkpt>
      <trkpt lat="48.95922" lon="2.99646">
        <ele>92.7</ele>
        <time>2020-07-01T13:09:41Z</time>
      </trkpt>
      <trkpt lat="48.95923" lon="2.99644">
        <ele>92.8</ele>
        <time>2020-07-01T13:09:42Z</time>
      </trkpt>
      <trkpt lat="48.95923" lon="2.9964">
        <ele>93</ele>
        <time>2020-07-01T13:09:43Z</time>
      </trkpt>
      <trkpt lat="48.95922" lon="2.99636">
        <ele>93.3</ele>
        <time>2020-07-01T13:09:44Z</time>
      </trkpt>
      <trkpt lat="48.95922" lon="2.99631">
        <ele>93.6</ele>
        <time>2020-07-01T13:09:45Z</time>
      </trkpt>
      <trkpt lat="48.95922" lon="2.99629">
        <ele>93.7</ele>
        <time>2020-07-01T13:09:46Z</time>
      </trkpt>
      <trkpt lat="48.95921" lon="2.99625">
        <ele>94</ele>
        <time>2020-07-01T13:09:47Z</time>
      </trkpt>
      <trkpt lat="48.95921" lon="2.9962">
        <ele>94.2</ele>
        <time>2020-07-01T13:09:48Z</time>
      </trkpt>
      <trkpt lat="48.95921" lon="2.99618">
        <ele>94.3</ele>
        <time>2020-07-01T13:09:49Z</time>
      </trkpt>
      <trkpt lat="48.95923" lon="2.99612">
        <ele>94.7</ele>
        <time>2020-07-01T13:09:50Z</time>
      </trkpt>
      <trkpt lat="48.95924" lon="2.9961">
        <ele>94.8</ele>
        <time>2020-07-01T13:09:51Z</time>
      </trkpt>
      <trkpt lat="48.95926" lon="2.99605">
        <ele>95.2</ele>
        <time>2020-07-01T13:09:52Z</time>
      </trkpt>
      <trkpt lat="48.95926" lon="2.996">
        <ele>95.4</ele>
        <time>2020-07-01T13:09:53Z</time>
      </trkpt>
      <trkpt lat="48.95926" lon="2.99595">
        <ele>95.7</ele>
        <time>2020-07-01T13:09:54Z</time>
      </trkpt>
      <trkpt lat="48.95925" lon="2.9959">
        <ele>96</ele>
        <time>2020-07-01T13:09:55Z</time>
      </trkpt>
      <trkpt lat="48.95925" lon="2.99585">
        <ele>96.3</ele>
        <time>2020-07-01T13:09:56Z</time>
      </trkpt>
      <trkpt lat="48.95925" lon="2.99583">
        <ele>96.3</ele>
        <time>2020-07-01T13:09:57Z</time>
      </trkpt>
      <trkpt lat="48.95923" lon="2.99579">
        <ele>96.6</ele>
        <time>2020-07-01T13:09:58Z</time>
      </trkpt>
      <trkpt lat="48.95923" lon="2.99573">
        <ele>96.9</ele>
        <time>2020-07-01T13:09:59Z</time>
      </trkpt>
      <trkpt lat="48.95924" lon="2.99569">
        <ele>97.1</ele>
        <time>2020-07-01T13:10:00Z</time>
      </trkpt>
      <trkpt lat="48.95923" lon="2.99563">
        <ele>97.4</ele>
        <time>2020-07-01T13:10:01Z</time>
      </trkpt>
      <trkpt lat="48.95923" lon="2.99561">
        <ele>97.5</ele>
        <time>2020-07-01T13:10:02Z</time>
      </trkpt>
      <trkpt lat="48.95922" lon="2.99556">
        <ele>97.7</ele>
        <time>2020-07-01T13:10:03Z</time>
      </trkpt>
      <trkpt lat="48.95921" lon="2.99552">
        <ele>98</ele>
        <time>2020-07-01T13:10:04Z</time>
      </trkpt>
      <trkpt lat="48.9592" lon="2.99547">
        <ele>98.2</ele>
        <time>2020-07-01T13:10:05Z</time>
      </trkpt>
      <trkpt lat="48.9592" lon="2.99542">
        <ele>98.5</ele>
        <time>2020-07-01T13:10:06Z</time>
      </trkpt>
      <trkpt lat="48.9592" lon="2.99538">
        <ele>98.7</ele>
        <time>2020-07-01T13:10:07Z</time>
      </trkpt>
      <trkpt lat="48.9592" lon="2.99533">
        <ele>99</ele>
        <time>2020-07-01T13:10:08Z</time>
      </trkpt>
      <trkpt lat="48.9592" lon="2.99531">
        <ele>99.1</ele>
        <time>2020-07-01T13:10:09Z</time>
      </trkpt>
      <trkpt lat="48.95919" lon="2.99525">
        <ele>99.4</ele>
        <time>2020-07-01T13:10:10Z</time>
      </trkpt>
      <trkpt lat="48.95919" lon="2.99523">
        <ele>99.5</ele>
        <time>2020-07-01T13:10:11Z</time>
      </trkpt>
      <trkpt lat="48.95919" lon="2.99518">
        <ele>99.8</ele>
        <time>2020-07-01T13:10:12Z</time>
      </trkpt>
      <trkpt lat="48.9592" lon="2.99513">
        <ele>100.1</ele>
        <time>2020-07-01T13:10:13Z</time>
      </trkpt>
      <trkpt lat="48.9592" lon="2.9951">
        <ele>100.2</ele>
        <time>2020-07-01T13:10:14Z</time>
      </trkpt>
      <trkpt lat="48.9592" lon="2.99505">
        <ele>100.5</ele>
        <time>2020-07-01T13:10:15Z</time>
      </trkpt>
      <trkpt lat="48.9592" lon="2.99503">
        <ele>100.6</ele>
        <time>2020-07-01T13:10:16Z</time>
      </trkpt>
      <trkpt lat="48.9592" lon="2.99499">
        <ele>100.9</ele>
        <time>2020-07-01T13:10:17Z</time>
      </trkpt>
      <trkpt lat="48.95919" lon="2.99494">
        <ele>101.1</ele>
        <time>2020-07-01T13:10:18Z</time>
      </trkpt>
      <trkpt lat="48.95919" lon="2.99493">
        <ele>101.2</ele>
        <time>2020-07-01T13:10:19Z</time>
      </trkpt>
      <trkpt lat="48.95919" lon="2.99487">
        <ele>101.5</ele>
        <time>2020-07-01T13:10:20Z</time>
      </trkpt>
      <trkpt lat="48.95919" lon="2.99486">
        <ele>101.6</ele>
        <time>2020-07-01T13:10:21Z</time>
      </trkpt>
      <trkpt lat="48.95919" lon="2.99481">
        <ele>101.9</ele>
        <time>2020-07-01T13:10:22Z</time>
      </trkpt>
      <trkpt lat="48.95918" lon="2.99479">
        <ele>101.9</ele>
        <time>2020-07-01T13:10:23Z</time>
      </trkpt>
      <trkpt lat="48.95918" lon="2.99475">
        <ele>102.2</ele>
        <time>2020-07-01T13:10:24Z</time>
      </trkpt>
      <trkpt lat="48.95918" lon="2.99473">
        <ele>102.2</ele>
        <time>2020-07-01T13:10:25Z</time>
      </trkpt>
      <trkpt lat="48.95918" lon="2.99468">
        <ele>102.5</ele>
        <time>2020-07-01T13:10:26Z</time>
      </trkpt>
      <trkpt lat="48.95917" lon="2.99467">
        <ele>102.6</ele>
        <time>2020-07-01T13:10:27Z</time>
      </trkpt>
      <trkpt lat="48.95919" lon="2.99462">
        <ele>102.9</ele>
        <time>2020-07-01T13:10:28Z</time>
      </trkpt>
      <trkpt lat="48.95919" lon="2.9946">
        <ele>103</ele>
        <time>2020-07-01T13:10:29Z</time>
      </trkpt>
      <trkpt lat="48.95919" lon="2.99456">
        <ele>103.2</ele>
        <time>2020-07-01T13:10:30Z</time>
      </trkpt>
      <trkpt lat="48.95919" lon="2.99454">
        <ele>103.3</ele>
        <time>2020-07-01T13:10:31Z</time>
      </trkpt>
      <trkpt lat="48.95918" lon="2.99449">
        <ele>103.5</ele>
        <time>2020-07-01T13:10:32Z</time>
      </trkpt>
      <trkpt lat="48.95918" lon="2.99448">
        <ele>103.6</ele>
        <time>2020-07-01T13:10:33Z</time>
      </trkpt>
      <trkpt lat="48.95916" lon="2.99443">
        <ele>103.9</ele>
        <time>2020-07-01T13:10:34Z</time>
      </trkpt>
      <trkpt lat="48.95916" lon="2.99441">
        <ele>104</ele>
        <time>2020-07-01T13:10:35Z</time>
      </trkpt>
      <trkpt lat="48.95915" lon="2.99437">
        <ele>104.2</ele>
        <time>2020-07-01T13:10:36Z</time>
      </trkpt>
      <trkpt lat="48.95914" lon="2.99431">
        <ele>104.5</ele>
        <time>2020-07-01T13:10:37Z</time>
      </trkpt>
      <trkpt lat="48.95914" lon="2.99427">
        <ele>104.7</ele>
        <time>2020-07-01T13:10:38Z</time>
      </trkpt>
      <trkpt lat="48.95914" lon="2.99421">
        <ele>105</ele>
        <time>2020-07-01T13:10:39Z</time>
      </trkpt>
      <trkpt lat="48.95914" lon="2.99419">
        <ele>105.1</ele>
        <time>2020-07-01T13:10:40Z</time>
      </trkpt>
      <trkpt lat="48.95914" lon="2.99415">
        <ele>105.3</ele>
        <time>2020-07-01T13:10:41Z</time>
      </trkpt>
      <trkpt lat="48.95913" lon="2.99409">
        <ele>105.6</ele>
        <time>2020-07-01T13:10:42Z</time>
      </trkpt>
      <trkpt lat="48.95913" lon="2.99407">
        <ele>105.7</ele>
        <time>2020-07-01T13:10:43Z</time>
      </trkpt>
      <trkpt lat="48.95913" lon="2.99401">
        <ele>106</ele>
        <time>2020-07-01T13:10:44Z</time>
      </trkpt>
      <trkpt lat="48.95913" lon="2.99398">
        <ele>106.2</ele>
        <time>2020-07-01T13:10:45Z</time>
      </trkpt>
      <trkpt lat="48.95913" lon="2.99393">
        <ele>106.4</ele>
        <time>2020-07-01T13:10:46Z</time>
      </trkpt>
      <trkpt lat="48.95912" lon="2.99389">
        <ele>106.7</ele>
        <time>2020-07-01T13:10:47Z</time>
      </trkpt>
      <trkpt lat="48.95912" lon="2.99384">
        <ele>106.9</ele>
        <time>2020-07-01T13:10:48Z</time>
      </trkpt>
      <trkpt lat="48.95912" lon="2.99379">
        <ele>107.1</ele>
        <time>2020-07-01T13:10:49Z</time>
      </trkpt>
      <trkpt lat="48.95912" lon="2.99375">
        <ele>107.3</ele>
        <time>2020-07-01T13:10:50Z</time>
      </trkpt>
      <trkpt lat="48.95912" lon="2.99369">
        <ele>107.6</ele>
        <time>2020-07-01T13:10:51Z</time>
      </trkpt>
      <trkpt lat="48.95912" lon="2.99366">
        <ele>107.8</ele>
        <time>2020-07-01T13:10:52Z</time>
      </trkpt>
      <trkpt lat="48.95911" lon="2.99362">
        <ele>108</ele>
        <time>2020-07-01T13:10:53Z</time>
      </trkpt>
      <trkpt lat="48.95911" lon="2.99357">
        <ele>108.2</ele>
        <time>2020-07-01T13:10:54Z</time>
      </trkpt>
      <trkpt lat="48.95911" lon="2.99352">
        <ele>108.4</ele>
        <time>2020-07-01T13:10:55Z</time>
      </trkpt>
      <trkpt lat="48.95911" lon="2.99351">
        <ele>108.5</ele>
        <time>2020-07-01T13:10:56Z</time>
      </trkpt>
      <trkpt lat="48.95911" lon="2.99346">
        <ele>108.7</ele>
        <time>2020-07-01T13:10:57Z</time>
      </trkpt>
      <trkpt lat="48.95912" lon="2.99342">
        <ele>108.9</ele>
        <time>2020-07-01T13:10:58Z</time>
      </trkpt>
      <trkpt lat="48.95912" lon="2.9934">
        <ele>109</ele>
        <time>2020-07-01T13:10:59Z</time>
      </trkpt>
      <trkpt lat="48.95912" lon="2.99335">
        <ele>109.2</ele>
        <time>2020-07-01T13:11:00Z</time>
      </trkpt>
      <trkpt lat="48.95913" lon="2.99333">
        <ele>109.2</ele>
        <time>2020-07-01T13:11:01Z</time>
      </trkpt>
      <trkpt lat="48.95913" lon="2.99328">
        <ele>109.4</ele>
        <time>2020-07-01T13:11:02Z</time>
      </trkpt>
      <trkpt lat="48.95913" lon="2.99326">
        <ele>109.4</ele>
        <time>2020-07-01T13:11:03Z</time>
      </trkpt>
      <trkpt lat="48.95913" lon="2.99321">
        <ele>109.6</ele>
        <time>2020-07-01T13:11:04Z</time>
      </trkpt>
      <trkpt lat="48.95913" lon="2.99319">
        <ele>109.6</ele>
        <time>2020-07-01T13:11:05Z</time>
      </trkpt>
      <trkpt lat="48.95912" lon="2.99314">
        <ele>109.8</ele>
        <time>2020-07-01T13:11:06Z</time>
      </trkpt>
      <trkpt lat="48.95912" lon="2.99312">
        <ele>109.8</ele>
        <time>2020-07-01T13:11:07Z</time>
      </trkpt>
      <trkpt lat="48.95912" lon="2.99305">
        <ele>110</ele>
        <time>2020-07-01T13:11:08Z</time>
      </trkpt>
      <trkpt lat="48.95912" lon="2.99303">
        <ele>110.1</ele>
        <time>2020-07-01T13:11:09Z</time>
      </trkpt>
      <trkpt lat="48.95912" lon="2.99298">
        <ele>110.3</ele>
        <time>2020-07-01T13:11:10Z</time>
      </trkpt>
      <trkpt lat="48.95912" lon="2.99294">
        <ele>110.4</ele>
        <time>2020-07-01T13:11:11Z</time>
      </trkpt>
      <trkpt lat="48.95911" lon="2.9929">
        <ele>110.6</ele>
        <time>2020-07-01T13:11:12Z</time>
      </trkpt>
      <trkpt lat="48.95911" lon="2.99288">
        <ele>110.6</ele>
        <time>2020-07-01T13:11:13Z</time>
      </trkpt>
      <trkpt lat="48.9591" lon="2.99281">
        <ele>110.8</ele>
        <time>2020-07-01T13:11:14Z</time>
      </trkpt>
      <trkpt lat="48.9591" lon="2.99279">
        <ele>110.9</ele>
        <time>2020-07-01T13:11:15Z</time>
      </trkpt>
      <trkpt lat="48.9591" lon="2.99273">
        <ele>111.1</ele>
        <time>2020-07-01T13:11:16Z</time>
      </trkpt>
      <trkpt lat="48.9591" lon="2.99268">
        <ele>111.2</ele>
        <time>2020-07-01T13:11:17Z</time>
      </trkpt>
      <trkpt lat="48.95911" lon="2.99264">
        <ele>111.4</ele>
        <time>2020-07-01T13:11:18Z</time>
      </trkpt>
      <trkpt lat="48.95911" lon="2.99259">
        <ele>111.5</ele>
        <time>2020-07-01T13:11:19Z</time>
      </trkpt>
      <trkpt lat="48.9591" lon="2.99254">
        <ele>111.6</ele>
        <time>2020-07-01T13:11:20Z</time>
      </trkpt>
      <trkpt lat="48.9591" lon="2.99249">
        <ele>111.7</ele>
        <time>2020-07-01T13:11:21Z</time>
      </trkpt>
      <trkpt lat="48.9591" lon="2.99244">
        <ele>111.8</ele>
        <time>2020-07-01T13:11:22Z</time>
      </trkpt>
      <trkpt lat="48.95911" lon="2.99238">
        <ele>111.9</ele>
        <time>2020-07-01T13:11:23Z</time>
      </trkpt>
      <trkpt lat="48.9591" lon="2.99234">
        <ele>112</ele>
        <time>2020-07-01T13:11:24Z</time>
      </trkpt>
      <trkpt lat="48.9591" lon="2.99229">
        <ele>112.1</ele>
        <time>2020-07-01T13:11:25Z</time>
      </trkpt>
      <trkpt lat="48.95911" lon="2.99223">
        <ele>112.2</ele>
        <time>2020-07-01T13:11:26Z</time>
      </trkpt>
      <trkpt lat="48.9591" lon="2.99217">
        <ele>112.4</ele>
        <time>2020-07-01T13:11:27Z</time>
      </trkpt>
      <trkpt lat="48.9591" lon="2.99214">
        <ele>112.4</ele>
        <time>2020-07-01T13:11:28Z</time>
      </trkpt>
      <trkpt lat="48.9591" lon="2.9921">
        <ele>112.5</ele>
        <time>2020-07-01T13:11:29Z</time>
      </trkpt>
      <trkpt lat="48.95909" lon="2.99203">
        <ele>112.6</ele>
        <time>2020-07-01T13:11:30Z</time>
      </trkpt>
      <trkpt lat="48.9591" lon="2.99201">
        <ele>112.7</ele>
        <time>2020-07-01T13:11:31Z</time>
      </trkpt>
      <trkpt lat="48.95909" lon="2.99196">
        <ele>112.8</ele>
        <time>2020-07-01T13:11:32Z</time>
      </trkpt>
      <trkpt lat="48.95909" lon="2.99191">
        <ele>112.9</ele>
        <time>2020-07-01T13:11:33Z</time>
      </trkpt>
      <trkpt lat="48.95909" lon="2.99185">
        <ele>113</ele>
        <time>2020-07-01T13:11:34Z</time>
      </trkpt>
      <trkpt lat="48.95909" lon="2.9918">
        <ele>113.1</ele>
        <time>2020-07-01T13:11:35Z</time>
      </trkpt>
      <trkpt lat="48.95908" lon="2.99173">
        <ele>113.2</ele>
        <time>2020-07-01T13:11:36Z</time>
      </trkpt>
      <trkpt lat="48.95907" lon="2.99166">
        <ele>113.3</ele>
        <time>2020-07-01T13:11:37Z</time>
      </trkpt>
      <trkpt lat="48.95907" lon="2.99159">
        <ele>113.4</ele>
        <time>2020-07-01T13:11:38Z</time>
      </trkpt>
      <trkpt lat="48.95907" lon="2.99153">
        <ele>113.5</ele>
        <time>2020-07-01T13:11:39Z</time>
      </trkpt>
      <trkpt lat="48.95907" lon="2.99147">
        <ele>113.5</ele>
        <time>2020-07-01T13:11:40Z</time>
      </trkpt>
      <trkpt lat="48.95907" lon="2.99141">
        <ele>113.6</ele>
        <time>2020-07-01T13:11:41Z</time>
      </trkpt>
      <trkpt lat="48.95907" lon="2.99136">
        <ele>113.6</ele>
        <time>2020-07-01T13:11:42Z</time>
      </trkpt>
      <trkpt lat="48.95907" lon="2.9913">
        <ele>113.7</ele>
        <time>2020-07-01T13:11:43Z</time>
      </trkpt>
      <trkpt lat="48.95907" lon="2.99124">
        <ele>113.7</ele>
        <time>2020-07-01T13:11:44Z</time>
      </trkpt>
      <trkpt lat="48.95907" lon="2.99118">
        <ele>113.7</ele>
        <time>2020-07-01T13:11:45Z</time>
      </trkpt>
      <trkpt lat="48.95907" lon="2.99112">
        <ele>113.7</ele>
        <time>2020-07-01T13:11:46Z</time>
      </trkpt>
      <trkpt lat="48.95907" lon="2.99106">
        <ele>113.7</ele>
        <time>2020-07-01T13:11:47Z</time>
      </trkpt>
      <trkpt lat="48.95906" lon="2.991">
        <ele>113.7</ele>
        <time>2020-07-01T13:11:48Z</time>
      </trkpt>
      <trkpt lat="48.95906" lon="2.99094">
        <ele>113.7</ele>
        <time>2020-07-01T13:11:49Z</time>
      </trkpt>
      <trkpt lat="48.95906" lon="2.99089">
        <ele>113.7</ele>
        <time>2020-07-01T13:11:50Z</time>
      </trkpt>
      <trkpt lat="48.95905" lon="2.99083">
        <ele>113.7</ele>
        <time>2020-07-01T13:11:51Z</time>
      </trkpt>
      <trkpt lat="48.95905" lon="2.99075">
        <ele>113.7</ele>
        <time>2020-07-01T13:11:52Z</time>
      </trkpt>
      <trkpt lat="48.95904" lon="2.99068">
        <ele>113.7</ele>
        <time>2020-07-01T13:11:53Z</time>
      </trkpt>
      <trkpt lat="48.95904" lon="2.9906">
        <ele>113.6</ele>
        <time>2020-07-01T13:11:54Z</time>
      </trkpt>
      <trkpt lat="48.95904" lon="2.99053">
        <ele>113.6</ele>
        <time>2020-07-01T13:11:55Z</time>
      </trkpt>
      <trkpt lat="48.95903" lon="2.99046">
        <ele>113.5</ele>
        <time>2020-07-01T13:11:56Z</time>
      </trkpt>
      <trkpt lat="48.95903" lon="2.99038">
        <ele>113.4</ele>
        <time>2020-07-01T13:11:57Z</time>
      </trkpt>
      <trkpt lat="48.95903" lon="2.99029">
        <ele>113.3</ele>
        <time>2020-07-01T13:11:58Z</time>
      </trkpt>
      <trkpt lat="48.95903" lon="2.9902">
        <ele>113.2</ele>
        <time>2020-07-01T13:11:59Z</time>
      </trkpt>
      <trkpt lat="48.95903" lon="2.99011">
        <ele>113.2</ele>
        <time>2020-07-01T13:12:00Z</time>
      </trkpt>
      <trkpt lat="48.95903" lon="2.99003">
        <ele>113.1</ele>
        <time>2020-07-01T13:12:01Z</time>
      </trkpt>
      <trkpt lat="48.95903" lon="2.98995">
        <ele>113</ele>
        <time>2020-07-01T13:12:02Z</time>
      </trkpt>
      <trkpt lat="48.95902" lon="2.98986">
        <ele>112.9</ele>
        <time>2020-07-01T13:12:03Z</time>
      </trkpt>
      <trkpt lat="48.95902" lon="2.98978">
        <ele>112.8</ele>
        <time>2020-07-01T13:12:04Z</time>
      </trkpt>
      <trkpt lat="48.95903" lon="2.98969">
        <ele>112.7</ele>
        <time>2020-07-01T13:12:05Z</time>
      </trkpt>
      <trkpt lat="48.95903" lon="2.9896">
        <ele>112.7</ele>
        <time>2020-07-01T13:12:06Z</time>
      </trkpt>
      <trkpt lat="48.95903" lon="2.98951">
        <ele>112.6</ele>
        <time>2020-07-01T13:12:07Z</time>
      </trkpt>
      <trkpt lat="48.95903" lon="2.98942">
        <ele>112.6</ele>
        <time>2020-07-01T13:12:08Z</time>
      </trkpt>
      <trkpt lat="48.95903" lon="2.98933">
        <ele>112.5</ele>
        <time>2020-07-01T13:12:09Z</time>
      </trkpt>
      <trkpt lat="48.95903" lon="2.98923">
        <ele>112.5</ele>
        <time>2020-07-01T13:12:10Z</time>
      </trkpt>
      <trkpt lat="48.95903" lon="2.98916">
        <ele>112.5</ele>
        <time>2020-07-01T13:12:11Z</time>
      </trkpt>
      <trkpt lat="48.95903" lon="2.98907">
        <ele>112.5</ele>
        <time>2020-07-01T13:12:12Z</time>
      </trkpt>
      <trkpt lat="48.95902" lon="2.98898">
        <ele>112.5</ele>
        <time>2020-07-01T13:12:13Z</time>
      </trkpt>
      <trkpt lat="48.95902" lon="2.98888">
        <ele>112.4</ele>
        <time>2020-07-01T13:12:14Z</time>
      </trkpt>
      <trkpt lat="48.95902" lon="2.98878">
        <ele>112.3</ele>
        <time>2020-07-01T13:12:15Z</time>
      </trkpt>
      <trkpt lat="48.95902" lon="2.9887">
        <ele>112.3</ele>
        <time>2020-07-01T13:12:16Z</time>
      </trkpt>
      <trkpt lat="48.95901" lon="2.9886">
        <ele>112.3</ele>
        <time>2020-07-01T13:12:17Z</time>
      </trkpt>
      <trkpt lat="48.95901" lon="2.98851">
        <ele>112.3</ele>
        <time>2020-07-01T13:12:18Z</time>
      </trkpt>
      <trkpt lat="48.95902" lon="2.98843">
        <ele>112.3</ele>
        <time>2020-07-01T13:12:19Z</time>
      </trkpt>
      <trkpt lat="48.95901" lon="2.98835">
        <ele>112.3</ele>
        <time>2020-07-01T13:12:20Z</time>
      </trkpt>
      <trkpt lat="48.95901" lon="2.98827">
        <ele>112.3</ele>
        <time>2020-07-01T13:12:21Z</time>
      </trkpt>
      <trkpt lat="48.95901" lon="2.98818">
        <ele>112.3</ele>
        <time>2020-07-01T13:12:22Z</time>
      </trkpt>
      <trkpt lat="48.959" lon="2.98809">
        <ele>112.4</ele>
        <time>2020-07-01T13:12:23Z</time>
      </trkpt>
      <trkpt lat="48.95901" lon="2.988">
        <ele>112.4</ele>
        <time>2020-07-01T13:12:24Z</time>
      </trkpt>
      <trkpt lat="48.959" lon="2.98792">
        <ele>112.4</ele>
        <time>2020-07-01T13:12:25Z</time>
      </trkpt>
      <trkpt lat="48.959" lon="2.98782">
        <ele>112.5</ele>
        <time>2020-07-01T13:12:26Z</time>
      </trkpt>
      <trkpt lat="48.95901" lon="2.98773">
        <ele>112.5</ele>
        <time>2020-07-01T13:12:27Z</time>
      </trkpt>
      <trkpt lat="48.95899" lon="2.98765">
        <ele>112.6</ele>
        <time>2020-07-01T13:12:28Z</time>
      </trkpt>
      <trkpt lat="48.95899" lon="2.98756">
        <ele>112.6</ele>
        <time>2020-07-01T13:12:29Z</time>
      </trkpt>
      <trkpt lat="48.95899" lon="2.98747">
        <ele>112.6</ele>
        <time>2020-07-01T13:12:30Z</time>
      </trkpt>
      <trkpt lat="48.95898" lon="2.98738">
        <ele>112.7</ele>
        <time>2020-07-01T13:12:31Z</time>
      </trkpt>
      <trkpt lat="48.95898" lon="2.98728">
        <ele>112.7</ele>
        <time>2020-07-01T13:12:32Z</time>
      </trkpt>
      <trkpt lat="48.95897" lon="2.9872">
        <ele>112.8</ele>
        <time>2020-07-01T13:12:33Z</time>
      </trkpt>
      <trkpt lat="48.95897" lon="2.98711">
        <ele>112.8</ele>
        <time>2020-07-01T13:12:34Z</time>
      </trkpt>
      <trkpt lat="48.95896" lon="2.98702">
        <ele>112.8</ele>
        <time>2020-07-01T13:12:35Z</time>
      </trkpt>
      <trkpt lat="48.95896" lon="2.98693">
        <ele>112.9</ele>
        <time>2020-07-01T13:12:36Z</time>
      </trkpt>
      <trkpt lat="48.95896" lon="2.98684">
        <ele>113</ele>
        <time>2020-07-01T13:12:37Z</time>
      </trkpt>
      <trkpt lat="48.95896" lon="2.98676">
        <ele>113.1</ele>
        <time>2020-07-01T13:12:38Z</time>
      </trkpt>
      <trkpt lat="48.95897" lon="2.98666">
        <ele>113.1</ele>
        <time>2020-07-01T13:12:39Z</time>
      </trkpt>
      <trkpt lat="48.95897" lon="2.98658">
        <ele>113.2</ele>
        <time>2020-07-01T13:12:40Z</time>
      </trkpt>
      <trkpt lat="48.95897" lon="2.98649">
        <ele>113.3</ele>
        <time>2020-07-01T13:12:41Z</time>
      </trkpt>
      <trkpt lat="48.95897" lon="2.9864">
        <ele>113.4</ele>
        <time>2020-07-01T13:12:42Z</time>
      </trkpt>
      <trkpt lat="48.95897" lon="2.98633">
        <ele>113.4</ele>
        <time>2020-07-01T13:12:43Z</time>
      </trkpt>
      <trkpt lat="48.95896" lon="2.98625">
        <ele>113.6</ele>
        <time>2020-07-01T13:12:44Z</time>
      </trkpt>
      <trkpt lat="48.95896" lon="2.98616">
        <ele>113.7</ele>
        <time>2020-07-01T13:12:45Z</time>
      </trkpt>
      <trkpt lat="48.95896" lon="2.98608">
        <ele>113.8</ele>
        <time>2020-07-01T13:12:46Z</time>
      </trkpt>
      <trkpt lat="48.95896" lon="2.98599">
        <ele>113.9</ele>
        <time>2020-07-01T13:12:47Z</time>
      </trkpt>
      <trkpt lat="48.95896" lon="2.98591">
        <ele>113.9</ele>
        <time>2020-07-01T13:12:48Z</time>
      </trkpt>
      <trkpt lat="48.95895" lon="2.98584">
        <ele>113.9</ele>
        <time>2020-07-01T13:12:49Z</time>
      </trkpt>
      <trkpt lat="48.95896" lon="2.98576">
        <ele>113.9</ele>
        <time>2020-07-01T13:12:50Z</time>
      </trkpt>
      <trkpt lat="48.95895" lon="2.9857">
        <ele>113.7</ele>
        <time>2020-07-01T13:12:51Z</time>
      </trkpt>
      <trkpt lat="48.95895" lon="2.98562">
        <ele>114</ele>
        <time>2020-07-01T13:12:52Z</time>
      </trkpt>
      <trkpt lat="48.95894" lon="2.98555">
        <ele>114.2</ele>
        <time>2020-07-01T13:12:53Z</time>
      </trkpt>
      <trkpt lat="48.95894" lon="2.98548">
        <ele>114.4</ele>
        <time>2020-07-01T13:12:54Z</time>
      </trkpt>
      <trkpt lat="48.95893" lon="2.98541">
        <ele>114.6</ele>
        <time>2020-07-01T13:12:55Z</time>
      </trkpt>
      <trkpt lat="48.95893" lon="2.98534">
        <ele>114.7</ele>
        <time>2020-07-01T13:12:56Z</time>
      </trkpt>
      <trkpt lat="48.95893" lon="2.98527">
        <ele>114.9</ele>
        <time>2020-07-01T13:12:57Z</time>
      </trkpt>
      <trkpt lat="48.95893" lon="2.98519">
        <ele>115.1</ele>
        <time>2020-07-01T13:12:58Z</time>
      </trkpt>
      <trkpt lat="48.95892" lon="2.98511">
        <ele>115.3</ele>
        <time>2020-07-01T13:12:59Z</time>
      </trkpt>
      <trkpt lat="48.95893" lon="2.98502">
        <ele>115.5</ele>
        <time>2020-07-01T13:13:00Z</time>
      </trkpt>
      <trkpt lat="48.95893" lon="2.98495">
        <ele>115.6</ele>
        <time>2020-07-01T13:13:01Z</time>
      </trkpt>
      <trkpt lat="48.95892" lon="2.98487">
        <ele>115.8</ele>
        <time>2020-07-01T13:13:02Z</time>
      </trkpt>
      <trkpt lat="48.95892" lon="2.9848">
        <ele>115.9</ele>
        <time>2020-07-01T13:13:03Z</time>
      </trkpt>
      <trkpt lat="48.95892" lon="2.98472">
        <ele>116.1</ele>
        <time>2020-07-01T13:13:04Z</time>
      </trkpt>
      <trkpt lat="48.95892" lon="2.98463">
        <ele>116.2</ele>
        <time>2020-07-01T13:13:05Z</time>
      </trkpt>
      <trkpt lat="48.95891" lon="2.98454">
        <ele>116.4</ele>
        <time>2020-07-01T13:13:06Z</time>
      </trkpt>
      <trkpt lat="48.95891" lon="2.98445">
        <ele>116.3</ele>
        <time>2020-07-01T13:13:07Z</time>
      </trkpt>
      <trkpt lat="48.95891" lon="2.98438">
        <ele>116.2</ele>
        <time>2020-07-01T13:13:08Z</time>
      </trkpt>
      <trkpt lat="48.9589" lon="2.9843">
        <ele>116</ele>
        <time>2020-07-01T13:13:09Z</time>
      </trkpt>
      <trkpt lat="48.9589" lon="2.98421">
        <ele>115.9</ele>
        <time>2020-07-01T13:13:10Z</time>
      </trkpt>
      <trkpt lat="48.9589" lon="2.98411">
        <ele>115.7</ele>
        <time>2020-07-01T13:13:11Z</time>
      </trkpt>
      <trkpt lat="48.95889" lon="2.98403">
        <ele>115.5</ele>
        <time>2020-07-01T13:13:12Z</time>
      </trkpt>
      <trkpt lat="48.95889" lon="2.98393">
        <ele>115.2</ele>
        <time>2020-07-01T13:13:13Z</time>
      </trkpt>
      <trkpt lat="48.9589" lon="2.98383">
        <ele>114.9</ele>
        <time>2020-07-01T13:13:14Z</time>
      </trkpt>
      <trkpt lat="48.9589" lon="2.98373">
        <ele>114.7</ele>
        <time>2020-07-01T13:13:15Z</time>
      </trkpt>
      <trkpt lat="48.95889" lon="2.98363">
        <ele>114.4</ele>
        <time>2020-07-01T13:13:16Z</time>
      </trkpt>
      <trkpt lat="48.95888" lon="2.98351">
        <ele>114.1</ele>
        <time>2020-07-01T13:13:17Z</time>
      </trkpt>
      <trkpt lat="48.95887" lon="2.98341">
        <ele>113.8</ele>
        <time>2020-07-01T13:13:18Z</time>
      </trkpt>
      <trkpt lat="48.95886" lon="2.98329">
        <ele>113.4</ele>
        <time>2020-07-01T13:13:19Z</time>
      </trkpt>
      <trkpt lat="48.95886" lon="2.98317">
        <ele>113</ele>
        <time>2020-07-01T13:13:20Z</time>
      </trkpt>
      <trkpt lat="48.95885" lon="2.98306">
        <ele>112.7</ele>
        <time>2020-07-01T13:13:21Z</time>
      </trkpt>
      <trkpt lat="48.95884" lon="2.98294">
        <ele>112.5</ele>
        <time>2020-07-01T13:13:22Z</time>
      </trkpt>
      <trkpt lat="48.95883" lon="2.98283">
        <ele>112.1</ele>
        <time>2020-07-01T13:13:23Z</time>
      </trkpt>
      <trkpt lat="48.95883" lon="2.98271">
        <ele>111.7</ele>
        <time>2020-07-01T13:13:24Z</time>
      </trkpt>
      <trkpt lat="48.95884" lon="2.98258">
        <ele>111.3</ele>
        <time>2020-07-01T13:13:25Z</time>
      </trkpt>
      <trkpt lat="48.95884" lon="2.98244">
        <ele>110.8</ele>
        <time>2020-07-01T13:13:26Z</time>
      </trkpt>
      <trkpt lat="48.95884" lon="2.9823">
        <ele>110.4</ele>
        <time>2020-07-01T13:13:27Z</time>
      </trkpt>
      <trkpt lat="48.95883" lon="2.98216">
        <ele>109.9</ele>
        <time>2020-07-01T13:13:28Z</time>
      </trkpt>
      <trkpt lat="48.95883" lon="2.98201">
        <ele>109.4</ele>
        <time>2020-07-01T13:13:29Z</time>
      </trkpt>
      <trkpt lat="48.95882" lon="2.98186">
        <ele>109</ele>
        <time>2020-07-01T13:13:30Z</time>
      </trkpt>
      <trkpt lat="48.95881" lon="2.98171">
        <ele>108.4</ele>
        <time>2020-07-01T13:13:31Z</time>
      </trkpt>
      <trkpt lat="48.95881" lon="2.98157">
        <ele>107.9</ele>
        <time>2020-07-01T13:13:32Z</time>
      </trkpt>
      <trkpt lat="48.95881" lon="2.98142">
        <ele>107.4</ele>
        <time>2020-07-01T13:13:33Z</time>
      </trkpt>
      <trkpt lat="48.95881" lon="2.98128">
        <ele>107</ele>
        <time>2020-07-01T13:13:34Z</time>
      </trkpt>
      <trkpt lat="48.9588" lon="2.98113">
        <ele>106.4</ele>
        <time>2020-07-01T13:13:35Z</time>
      </trkpt>
      <trkpt lat="48.95878" lon="2.98099">
        <ele>105.9</ele>
        <time>2020-07-01T13:13:36Z</time>
      </trkpt>
      <trkpt lat="48.95877" lon="2.98084">
        <ele>105.4</ele>
        <time>2020-07-01T13:13:37Z</time>
      </trkpt>
      <trkpt lat="48.95877" lon="2.98069">
        <ele>104.8</ele>
        <time>2020-07-01T13:13:38Z</time>
      </trkpt>
      <trkpt lat="48.95876" lon="2.98054">
        <ele>104.3</ele>
        <time>2020-07-01T13:13:39Z</time>
      </trkpt>
      <trkpt lat="48.95876" lon="2.98039">
        <ele>103.8</ele>
        <time>2020-07-01T13:13:40Z</time>
      </trkpt>
      <trkpt lat="48.95876" lon="2.98025">
        <ele>103.3</ele>
        <time>2020-07-01T13:13:41Z</time>
      </trkpt>
      <trkpt lat="48.95877" lon="2.98011">
        <ele>102.8</ele>
        <time>2020-07-01T13:13:42Z</time>
      </trkpt>
      <trkpt lat="48.95877" lon="2.97996">
        <ele>102.3</ele>
        <time>2020-07-01T13:13:43Z</time>
      </trkpt>
      <trkpt lat="48.95877" lon="2.97981">
        <ele>101.7</ele>
        <time>2020-07-01T13:13:44Z</time>
      </trkpt>
      <trkpt lat="48.95876" lon="2.97966">
        <ele>101.2</ele>
        <time>2020-07-01T13:13:45Z</time>
      </trkpt>
      <trkpt lat="48.95876" lon="2.97951">
        <ele>100.7</ele>
        <time>2020-07-01T13:13:46Z</time>
      </trkpt>
      <trkpt lat="48.95876" lon="2.97937">
        <ele>100.3</ele>
        <time>2020-07-01T13:13:47Z</time>
      </trkpt>
      <trkpt lat="48.95876" lon="2.97922">
        <ele>99.8</ele>
        <time>2020-07-01T13:13:48Z</time>
      </trkpt>
      <trkpt lat="48.95876" lon="2.97907">
        <ele>99.2</ele>
        <time>2020-07-01T13:13:49Z</time>
      </trkpt>
      <trkpt lat="48.95874" lon="2.97893">
        <ele>98.8</ele>
        <time>2020-07-01T13:13:50Z</time>
      </trkpt>
      <trkpt lat="48.95873" lon="2.97878">
        <ele>98.4</ele>
        <time>2020-07-01T13:13:51Z</time>
      </trkpt>
      <trkpt lat="48.95872" lon="2.97863">
        <ele>98</ele>
        <time>2020-07-01T13:13:52Z</time>
      </trkpt>
      <trkpt lat="48.95871" lon="2.97849">
        <ele>97.5</ele>
        <time>2020-07-01T13:13:53Z</time>
      </trkpt>
      <trkpt lat="48.95871" lon="2.97834">
        <ele>97</ele>
        <time>2020-07-01T13:13:54Z</time>
      </trkpt>
      <trkpt lat="48.95871" lon="2.97819">
        <ele>96.5</ele>
        <time>2020-07-01T13:13:55Z</time>
      </trkpt>
      <trkpt lat="48.95871" lon="2.97804">
        <ele>96</ele>
        <time>2020-07-01T13:13:56Z</time>
      </trkpt>
      <trkpt lat="48.95871" lon="2.97789">
        <ele>95.5</ele>
        <time>2020-07-01T13:13:57Z</time>
      </trkpt>
      <trkpt lat="48.95871" lon="2.97774">
        <ele>95</ele>
        <time>2020-07-01T13:13:58Z</time>
      </trkpt>
      <trkpt lat="48.9587" lon="2.97759">
        <ele>94.4</ele>
        <time>2020-07-01T13:13:59Z</time>
      </trkpt>
      <trkpt lat="48.9587" lon="2.97744">
        <ele>93.9</ele>
        <time>2020-07-01T13:14:00Z</time>
      </trkpt>
      <trkpt lat="48.95869" lon="2.97729">
        <ele>93.3</ele>
        <time>2020-07-01T13:14:01Z</time>
      </trkpt>
      <trkpt lat="48.95869" lon="2.97713">
        <ele>92.8</ele>
        <time>2020-07-01T13:14:02Z</time>
      </trkpt>
      <trkpt lat="48.95868" lon="2.97697">
        <ele>92.4</ele>
        <time>2020-07-01T13:14:03Z</time>
      </trkpt>
      <trkpt lat="48.95868" lon="2.97681">
        <ele>91.9</ele>
        <time>2020-07-01T13:14:04Z</time>
      </trkpt>
      <trkpt lat="48.95867" lon="2.97665">
        <ele>91.4</ele>
        <time>2020-07-01T13:14:05Z</time>
      </trkpt>
      <trkpt lat="48.95866" lon="2.97649">
        <ele>90.9</ele>
        <time>2020-07-01T13:14:06Z</time>
      </trkpt>
      <trkpt lat="48.95866" lon="2.97633">
        <ele>90.4</ele>
        <time>2020-07-01T13:14:07Z</time>
      </trkpt>
      <trkpt lat="48.95865" lon="2.97618">
        <ele>89.9</ele>
        <time>2020-07-01T13:14:08Z</time>
      </trkpt>
      <trkpt lat="48.95865" lon="2.97603">
        <ele>89.5</ele>
        <time>2020-07-01T13:14:09Z</time>
      </trkpt>
      <trkpt lat="48.95864" lon="2.97587">
        <ele>89</ele>
        <time>2020-07-01T13:14:10Z</time>
      </trkpt>
      <trkpt lat="48.95864" lon="2.97571">
        <ele>88.4</ele>
        <time>2020-07-01T13:14:11Z</time>
      </trkpt>
      <trkpt lat="48.95863" lon="2.97554">
        <ele>87.7</ele>
        <time>2020-07-01T13:14:12Z</time>
      </trkpt>
      <trkpt lat="48.95863" lon="2.97538">
        <ele>87.2</ele>
        <time>2020-07-01T13:14:13Z</time>
      </trkpt>
      <trkpt lat="48.95863" lon="2.97522">
        <ele>86.6</ele>
        <time>2020-07-01T13:14:14Z</time>
      </trkpt>
      <trkpt lat="48.95863" lon="2.97507">
        <ele>86.1</ele>
        <time>2020-07-01T13:14:15Z</time>
      </trkpt>
      <trkpt lat="48.95862" lon="2.97491">
        <ele>85.7</ele>
        <time>2020-07-01T13:14:16Z</time>
      </trkpt>
      <trkpt lat="48.95861" lon="2.97476">
        <ele>85.2</ele>
        <time>2020-07-01T13:14:17Z</time>
      </trkpt>
      <trkpt lat="48.95861" lon="2.97461">
        <ele>84.7</ele>
        <time>2020-07-01T13:14:18Z</time>
      </trkpt>
      <trkpt lat="48.9586" lon="2.97447">
        <ele>84.3</ele>
        <time>2020-07-01T13:14:19Z</time>
      </trkpt>
      <trkpt lat="48.95859" lon="2.97433">
        <ele>83.8</ele>
        <time>2020-07-01T13:14:20Z</time>
      </trkpt>
      <trkpt lat="48.95859" lon="2.97419">
        <ele>83.4</ele>
        <time>2020-07-01T13:14:21Z</time>
      </trkpt>
      <trkpt lat="48.95858" lon="2.97405">
        <ele>83</ele>
        <time>2020-07-01T13:14:22Z</time>
      </trkpt>
      <trkpt lat="48.95857" lon="2.97391">
        <ele>82.5</ele>
        <time>2020-07-01T13:14:23Z</time>
      </trkpt>
      <trkpt lat="48.95856" lon="2.97377">
        <ele>82.1</ele>
        <time>2020-07-01T13:14:24Z</time>
      </trkpt>
      <trkpt lat="48.95855" lon="2.97363">
        <ele>81.6</ele>
        <time>2020-07-01T13:14:25Z</time>
      </trkpt>
      <trkpt lat="48.95855" lon="2.97349">
        <ele>81.2</ele>
        <time>2020-07-01T13:14:26Z</time>
      </trkpt>
      <trkpt lat="48.95855" lon="2.97335">
        <ele>80.8</ele>
        <time>2020-07-01T13:14:27Z</time>
      </trkpt>
      <trkpt lat="48.95853" lon="2.9732">
        <ele>80.3</ele>
        <time>2020-07-01T13:14:28Z</time>
      </trkpt>
      <trkpt lat="48.95853" lon="2.97305">
        <ele>79.9</ele>
        <time>2020-07-01T13:14:29Z</time>
      </trkpt>
      <trkpt lat="48.95852" lon="2.9729">
        <ele>79.5</ele>
        <time>2020-07-01T13:14:30Z</time>
      </trkpt>
      <trkpt lat="48.95851" lon="2.97275">
        <ele>79.1</ele>
        <time>2020-07-01T13:14:31Z</time>
      </trkpt>
      <trkpt lat="48.95851" lon="2.97261">
        <ele>78.8</ele>
        <time>2020-07-01T13:14:32Z</time>
      </trkpt>
      <trkpt lat="48.9585" lon="2.97247">
        <ele>78.5</ele>
        <time>2020-07-01T13:14:33Z</time>
      </trkpt>
      <trkpt lat="48.95849" lon="2.97233">
        <ele>78.2</ele>
        <time>2020-07-01T13:14:34Z</time>
      </trkpt>
      <trkpt lat="48.95849" lon="2.97219">
        <ele>78</ele>
        <time>2020-07-01T13:14:35Z</time>
      </trkpt>
      <trkpt lat="48.95849" lon="2.97205">
        <ele>77.7</ele>
        <time>2020-07-01T13:14:36Z</time>
      </trkpt>
      <trkpt lat="48.95849" lon="2.97192">
        <ele>77.5</ele>
        <time>2020-07-01T13:14:37Z</time>
      </trkpt>
      <trkpt lat="48.95848" lon="2.97179">
        <ele>77.3</ele>
        <time>2020-07-01T13:14:38Z</time>
      </trkpt>
      <trkpt lat="48.95848" lon="2.97166">
        <ele>77.1</ele>
        <time>2020-07-01T13:14:39Z</time>
      </trkpt>
      <trkpt lat="48.95848" lon="2.97153">
        <ele>76.8</ele>
        <time>2020-07-01T13:14:40Z</time>
      </trkpt>
      <trkpt lat="48.95847" lon="2.9714">
        <ele>76.5</ele>
        <time>2020-07-01T13:14:41Z</time>
      </trkpt>
      <trkpt lat="48.95847" lon="2.97127">
        <ele>76</ele>
        <time>2020-07-01T13:14:42Z</time>
      </trkpt>
      <trkpt lat="48.95847" lon="2.97114">
        <ele>74.6</ele>
        <time>2020-07-01T13:14:43Z</time>
      </trkpt>
      <trkpt lat="48.95846" lon="2.971">
        <ele>75.1</ele>
        <time>2020-07-01T13:14:44Z</time>
      </trkpt>
      <trkpt lat="48.95846" lon="2.97087">
        <ele>75.2</ele>
        <time>2020-07-01T13:14:45Z</time>
      </trkpt>
      <trkpt lat="48.95846" lon="2.97074">
        <ele>75</ele>
        <time>2020-07-01T13:14:46Z</time>
      </trkpt>
      <trkpt lat="48.95845" lon="2.97061">
        <ele>74.6</ele>
        <time>2020-07-01T13:14:47Z</time>
      </trkpt>
      <trkpt lat="48.95844" lon="2.97048">
        <ele>74.4</ele>
        <time>2020-07-01T13:14:48Z</time>
      </trkpt>
      <trkpt lat="48.95844" lon="2.97035">
        <ele>74.1</ele>
        <time>2020-07-01T13:14:49Z</time>
      </trkpt>
      <trkpt lat="48.95843" lon="2.97021">
        <ele>73.9</ele>
        <time>2020-07-01T13:14:50Z</time>
      </trkpt>
      <trkpt lat="48.95843" lon="2.97008">
        <ele>73.6</ele>
        <time>2020-07-01T13:14:51Z</time>
      </trkpt>
      <trkpt lat="48.95843" lon="2.96995">
        <ele>73.4</ele>
        <time>2020-07-01T13:14:52Z</time>
      </trkpt>
      <trkpt lat="48.95842" lon="2.96981">
        <ele>73.1</ele>
        <time>2020-07-01T13:14:53Z</time>
      </trkpt>
      <trkpt lat="48.95842" lon="2.96968">
        <ele>72.8</ele>
        <time>2020-07-01T13:14:54Z</time>
      </trkpt>
      <trkpt lat="48.95841" lon="2.96955">
        <ele>72.5</ele>
        <time>2020-07-01T13:14:55Z</time>
      </trkpt>
      <trkpt lat="48.95841" lon="2.96941">
        <ele>72.1</ele>
        <time>2020-07-01T13:14:56Z</time>
      </trkpt>
      <trkpt lat="48.9584" lon="2.96928">
        <ele>71.9</ele>
        <time>2020-07-01T13:14:57Z</time>
      </trkpt>
      <trkpt lat="48.9584" lon="2.96915">
        <ele>71.6</ele>
        <time>2020-07-01T13:14:58Z</time>
      </trkpt>
      <trkpt lat="48.95839" lon="2.96902">
        <ele>71.3</ele>
        <time>2020-07-01T13:14:59Z</time>
      </trkpt>
      <trkpt lat="48.95839" lon="2.9689">
        <ele>71</ele>
        <time>2020-07-01T13:15:00Z</time>
      </trkpt>
      <trkpt lat="48.95838" lon="2.96877">
        <ele>70.6</ele>
        <time>2020-07-01T13:15:01Z</time>
      </trkpt>
      <trkpt lat="48.95837" lon="2.96864">
        <ele>70.4</ele>
        <time>2020-07-01T13:15:02Z</time>
      </trkpt>
      <trkpt lat="48.95837" lon="2.96852">
        <ele>70.2</ele>
        <time>2020-07-01T13:15:03Z</time>
      </trkpt>
      <trkpt lat="48.95837" lon="2.96839">
        <ele>69.9</ele>
        <time>2020-07-01T13:15:04Z</time>
      </trkpt>
      <trkpt lat="48.95837" lon="2.96826">
        <ele>69.7</ele>
        <time>2020-07-01T13:15:05Z</time>
      </trkpt>
      <trkpt lat="48.95836" lon="2.96813">
        <ele>69.5</ele>
        <time>2020-07-01T13:15:06Z</time>
      </trkpt>
      <trkpt lat="48.95836" lon="2.968">
        <ele>69.3</ele>
        <time>2020-07-01T13:15:07Z</time>
      </trkpt>
      <trkpt lat="48.95835" lon="2.96786">
        <ele>69</ele>
        <time>2020-07-01T13:15:08Z</time>
      </trkpt>
      <trkpt lat="48.95835" lon="2.96773">
        <ele>68.8</ele>
        <time>2020-07-01T13:15:09Z</time>
      </trkpt>
      <trkpt lat="48.95834" lon="2.9676">
        <ele>68.5</ele>
        <time>2020-07-01T13:15:10Z</time>
      </trkpt>
      <trkpt lat="48.95834" lon="2.96746">
        <ele>68.1</ele>
        <time>2020-07-01T13:15:11Z</time>
      </trkpt>
      <trkpt lat="48.95834" lon="2.96733">
        <ele>67.8</ele>
        <time>2020-07-01T13:15:12Z</time>
      </trkpt>
      <trkpt lat="48.95833" lon="2.96719">
        <ele>67.5</ele>
        <time>2020-07-01T13:15:13Z</time>
      </trkpt>
      <trkpt lat="48.95833" lon="2.96705">
        <ele>67.2</ele>
        <time>2020-07-01T13:15:14Z</time>
      </trkpt>
      <trkpt lat="48.95832" lon="2.96691">
        <ele>66.8</ele>
        <time>2020-07-01T13:15:15Z</time>
      </trkpt>
      <trkpt lat="48.95831" lon="2.96677">
        <ele>66.4</ele>
        <time>2020-07-01T13:15:16Z</time>
      </trkpt>
      <trkpt lat="48.95831" lon="2.96663">
        <ele>66</ele>
        <time>2020-07-01T13:15:17Z</time>
      </trkpt>
      <trkpt lat="48.95831" lon="2.96649">
        <ele>65.6</ele>
        <time>2020-07-01T13:15:18Z</time>
      </trkpt>
      <trkpt lat="48.9583" lon="2.96635">
        <ele>65.2</ele>
        <time>2020-07-01T13:15:19Z</time>
      </trkpt>
      <trkpt lat="48.95829" lon="2.96621">
        <ele>64.8</ele>
        <time>2020-07-01T13:15:20Z</time>
      </trkpt>
      <trkpt lat="48.95829" lon="2.96607">
        <ele>64.5</ele>
        <time>2020-07-01T13:15:21Z</time>
      </trkpt>
      <trkpt lat="48.95828" lon="2.96593">
        <ele>64.1</ele>
        <time>2020-07-01T13:15:22Z</time>
      </trkpt>
      <trkpt lat="48.95828" lon="2.96579">
        <ele>63.7</ele>
        <time>2020-07-01T13:15:23Z</time>
      </trkpt>
      <trkpt lat="48.95828" lon="2.96565">
        <ele>63.4</ele>
        <time>2020-07-01T13:15:24Z</time>
      </trkpt>
      <trkpt lat="48.95827" lon="2.96551">
        <ele>63</ele>
        <time>2020-07-01T13:15:25Z</time>
      </trkpt>
      <trkpt lat="48.95827" lon="2.96538">
        <ele>62.7</ele>
        <time>2020-07-01T13:15:26Z</time>
      </trkpt>
      <trkpt lat="48.95827" lon="2.96524">
        <ele>62.4</ele>
        <time>2020-07-01T13:15:27Z</time>
      </trkpt>
      <trkpt lat="48.95827" lon="2.9651">
        <ele>62.1</ele>
        <time>2020-07-01T13:15:28Z</time>
      </trkpt>
      <trkpt lat="48.95827" lon="2.96497">
        <ele>61.7</ele>
        <time>2020-07-01T13:15:29Z</time>
      </trkpt>
      <trkpt lat="48.95827" lon="2.96483">
        <ele>61.3</ele>
        <time>2020-07-01T13:15:30Z</time>
      </trkpt>
      <trkpt lat="48.95827" lon="2.9647">
        <ele>61</ele>
        <time>2020-07-01T13:15:31Z</time>
      </trkpt>
      <trkpt lat="48.95826" lon="2.96456">
        <ele>60.7</ele>
        <time>2020-07-01T13:15:32Z</time>
      </trkpt>
      <trkpt lat="48.95826" lon="2.96443">
        <ele>60.4</ele>
        <time>2020-07-01T13:15:33Z</time>
      </trkpt>
      <trkpt lat="48.95826" lon="2.96429">
        <ele>60.1</ele>
        <time>2020-07-01T13:15:34Z</time>
      </trkpt>
      <trkpt lat="48.95826" lon="2.96416">
        <ele>59.8</ele>
        <time>2020-07-01T13:15:35Z</time>
      </trkpt>
      <trkpt lat="48.95826" lon="2.96403">
        <ele>59.6</ele>
        <time>2020-07-01T13:15:36Z</time>
      </trkpt>
      <trkpt lat="48.95825" lon="2.96389">
        <ele>59.4</ele>
        <time>2020-07-01T13:15:37Z</time>
      </trkpt>
      <trkpt lat="48.95825" lon="2.96376">
        <ele>59.2</ele>
        <time>2020-07-01T13:15:38Z</time>
      </trkpt>
      <trkpt lat="48.95825" lon="2.96364">
        <ele>59</ele>
        <time>2020-07-01T13:15:39Z</time>
      </trkpt>
      <trkpt lat="48.95824" lon="2.96352">
        <ele>58.7</ele>
        <time>2020-07-01T13:15:40Z</time>
      </trkpt>
      <trkpt lat="48.95824" lon="2.9634">
        <ele>58.5</ele>
        <time>2020-07-01T13:15:41Z</time>
      </trkpt>
      <trkpt lat="48.95824" lon="2.96329">
        <ele>58.3</ele>
        <time>2020-07-01T13:15:42Z</time>
      </trkpt>
      <trkpt lat="48.95824" lon="2.96317">
        <ele>58.3</ele>
        <time>2020-07-01T13:15:43Z</time>
      </trkpt>
      <trkpt lat="48.95824" lon="2.96306">
        <ele>58.2</ele>
        <time>2020-07-01T13:15:44Z</time>
      </trkpt>
      <trkpt lat="48.95824" lon="2.96295">
        <ele>58.2</ele>
        <time>2020-07-01T13:15:45Z</time>
      </trkpt>
      <trkpt lat="48.95824" lon="2.96284">
        <ele>58.3</ele>
        <time>2020-07-01T13:15:46Z</time>
      </trkpt>
      <trkpt lat="48.95823" lon="2.96273">
        <ele>58.4</ele>
        <time>2020-07-01T13:15:47Z</time>
      </trkpt>
      <trkpt lat="48.95823" lon="2.96262">
        <ele>58.6</ele>
        <time>2020-07-01T13:15:48Z</time>
      </trkpt>
      <trkpt lat="48.95823" lon="2.96251">
        <ele>58.5</ele>
        <time>2020-07-01T13:15:49Z</time>
      </trkpt>
      <trkpt lat="48.95822" lon="2.96241">
        <ele>58.4</ele>
        <time>2020-07-01T13:15:50Z</time>
      </trkpt>
      <trkpt lat="48.95822" lon="2.9623">
        <ele>58.3</ele>
        <time>2020-07-01T13:15:51Z</time>
      </trkpt>
      <trkpt lat="48.95822" lon="2.96219">
        <ele>58.2</ele>
        <time>2020-07-01T13:15:52Z</time>
      </trkpt>
      <trkpt lat="48.95822" lon="2.96208">
        <ele>58.2</ele>
        <time>2020-07-01T13:15:53Z</time>
      </trkpt>
      <trkpt lat="48.95821" lon="2.96197">
        <ele>58.1</ele>
        <time>2020-07-01T13:15:54Z</time>
      </trkpt>
      <trkpt lat="48.95821" lon="2.96187">
        <ele>58</ele>
        <time>2020-07-01T13:15:55Z</time>
      </trkpt>
      <trkpt lat="48.95822" lon="2.96176">
        <ele>57.9</ele>
        <time>2020-07-01T13:15:56Z</time>
      </trkpt>
      <trkpt lat="48.95821" lon="2.96165">
        <ele>57.8</ele>
        <time>2020-07-01T13:15:57Z</time>
      </trkpt>
      <trkpt lat="48.95821" lon="2.96154">
        <ele>57.7</ele>
        <time>2020-07-01T13:15:58Z</time>
      </trkpt>
      <trkpt lat="48.95821" lon="2.96144">
        <ele>57.6</ele>
        <time>2020-07-01T13:15:59Z</time>
      </trkpt>
      <trkpt lat="48.95821" lon="2.96133">
        <ele>57.5</ele>
        <time>2020-07-01T13:16:00Z</time>
      </trkpt>
      <trkpt lat="48.95821" lon="2.96122">
        <ele>57.4</ele>
        <time>2020-07-01T13:16:01Z</time>
      </trkpt>
      <trkpt lat="48.95821" lon="2.96112">
        <ele>57.3</ele>
        <time>2020-07-01T13:16:02Z</time>
      </trkpt>
      <trkpt lat="48.95821" lon="2.96101">
        <ele>57.3</ele>
        <time>2020-07-01T13:16:03Z</time>
      </trkpt>
      <trkpt lat="48.95821" lon="2.9609">
        <ele>57.2</ele>
        <time>2020-07-01T13:16:04Z</time>
      </trkpt>
      <trkpt lat="48.95821" lon="2.9608">
        <ele>57.1</ele>
        <time>2020-07-01T13:16:05Z</time>
      </trkpt>
      <trkpt lat="48.95821" lon="2.9607">
        <ele>57</ele>
        <time>2020-07-01T13:16:06Z</time>
      </trkpt>
      <trkpt lat="48.9582" lon="2.9606">
        <ele>57</ele>
        <time>2020-07-01T13:16:07Z</time>
      </trkpt>
      <trkpt lat="48.9582" lon="2.9605">
        <ele>57</ele>
        <time>2020-07-01T13:16:08Z</time>
      </trkpt>
      <trkpt lat="48.95819" lon="2.9604">
        <ele>57</ele>
        <time>2020-07-01T13:16:09Z</time>
      </trkpt>
      <trkpt lat="48.95819" lon="2.96031">
        <ele>56.9</ele>
        <time>2020-07-01T13:16:10Z</time>
      </trkpt>
      <trkpt lat="48.95819" lon="2.96021">
        <ele>56.9</ele>
        <time>2020-07-01T13:16:11Z</time>
      </trkpt>
      <trkpt lat="48.95818" lon="2.96012">
        <ele>56.9</ele>
        <time>2020-07-01T13:16:12Z</time>
      </trkpt>
      <trkpt lat="48.95818" lon="2.96003">
        <ele>56.9</ele>
        <time>2020-07-01T13:16:13Z</time>
      </trkpt>
      <trkpt lat="48.95818" lon="2.95993">
        <ele>56.9</ele>
        <time>2020-07-01T13:16:14Z</time>
      </trkpt>
      <trkpt lat="48.95817" lon="2.95984">
        <ele>56.9</ele>
        <time>2020-07-01T13:16:15Z</time>
      </trkpt>
      <trkpt lat="48.95817" lon="2.95975">
        <ele>56.9</ele>
        <time>2020-07-01T13:16:16Z</time>
      </trkpt>
      <trkpt lat="48.95816" lon="2.95967">
        <ele>56.9</ele>
        <time>2020-07-01T13:16:17Z</time>
      </trkpt>
      <trkpt lat="48.95816" lon="2.95958">
        <ele>56.8</ele>
        <time>2020-07-01T13:16:18Z</time>
      </trkpt>
      <trkpt lat="48.95816" lon="2.9595">
        <ele>56.8</ele>
        <time>2020-07-01T13:16:19Z</time>
      </trkpt>
      <trkpt lat="48.95815" lon="2.95942">
        <ele>56.8</ele>
        <time>2020-07-01T13:16:20Z</time>
      </trkpt>
      <trkpt lat="48.95815" lon="2.95935">
        <ele>56.8</ele>
        <time>2020-07-01T13:16:21Z</time>
      </trkpt>
      <trkpt lat="48.95815" lon="2.95928">
        <ele>56.8</ele>
        <time>2020-07-01T13:16:22Z</time>
      </trkpt>
      <trkpt lat="48.95815" lon="2.95921">
        <ele>56.8</ele>
        <time>2020-07-01T13:16:23Z</time>
      </trkpt>
      <trkpt lat="48.95815" lon="2.95915">
        <ele>56.8</ele>
        <time>2020-07-01T13:16:24Z</time>
      </trkpt>
      <trkpt lat="48.95816" lon="2.95909">
        <ele>56.7</ele>
        <time>2020-07-01T13:16:25Z</time>
      </trkpt>
      <trkpt lat="48.95816" lon="2.95903">
        <ele>56.7</ele>
        <time>2020-07-01T13:16:26Z</time>
      </trkpt>
      <trkpt lat="48.95815" lon="2.95898">
        <ele>56.7</ele>
        <time>2020-07-01T13:16:27Z</time>
      </trkpt>
      <trkpt lat="48.95815" lon="2.95893">
        <ele>56.7</ele>
        <time>2020-07-01T13:16:28Z</time>
      </trkpt>
      <trkpt lat="48.95815" lon="2.95887">
        <ele>56.7</ele>
        <time>2020-07-01T13:16:29Z</time>
      </trkpt>
      <trkpt lat="48.95815" lon="2.95882">
        <ele>56.7</ele>
        <time>2020-07-01T13:16:30Z</time>
      </trkpt>
      <trkpt lat="48.95815" lon="2.95877">
        <ele>56.7</ele>
        <time>2020-07-01T13:16:31Z</time>
      </trkpt>
      <trkpt lat="48.95815" lon="2.95871">
        <ele>56.6</ele>
        <time>2020-07-01T13:16:32Z</time>
      </trkpt>
      <trkpt lat="48.95815" lon="2.95864">
        <ele>56.5</ele>
        <time>2020-07-01T13:16:33Z</time>
      </trkpt>
      <trkpt lat="48.95815" lon="2.95857">
        <ele>56.4</ele>
        <time>2020-07-01T13:16:34Z</time>
      </trkpt>
      <trkpt lat="48.95816" lon="2.95849">
        <ele>56.3</ele>
        <time>2020-07-01T13:16:35Z</time>
      </trkpt>
      <trkpt lat="48.95816" lon="2.95841">
        <ele>56.2</ele>
        <time>2020-07-01T13:16:36Z</time>
      </trkpt>
      <trkpt lat="48.95815" lon="2.95832">
        <ele>56.1</ele>
        <time>2020-07-01T13:16:37Z</time>
      </trkpt>
      <trkpt lat="48.95816" lon="2.95822">
        <ele>56.1</ele>
        <time>2020-07-01T13:16:38Z</time>
      </trkpt>
      <trkpt lat="48.95816" lon="2.95812">
        <ele>56</ele>
        <time>2020-07-01T13:16:39Z</time>
      </trkpt>
      <trkpt lat="48.95816" lon="2.95803">
        <ele>56</ele>
        <time>2020-07-01T13:16:40Z</time>
      </trkpt>
      <trkpt lat="48.95815" lon="2.95793">
        <ele>56</ele>
        <time>2020-07-01T13:16:41Z</time>
      </trkpt>
      <trkpt lat="48.95815" lon="2.95783">
        <ele>56</ele>
        <time>2020-07-01T13:16:42Z</time>
      </trkpt>
      <trkpt lat="48.95814" lon="2.95774">
        <ele>55.9</ele>
        <time>2020-07-01T13:16:43Z</time>
      </trkpt>
      <trkpt lat="48.95813" lon="2.95764">
        <ele>55.9</ele>
        <time>2020-07-01T13:16:44Z</time>
      </trkpt>
      <trkpt lat="48.95812" lon="2.95754">
        <ele>55.9</ele>
        <time>2020-07-01T13:16:45Z</time>
      </trkpt>
      <trkpt lat="48.95811" lon="2.95745">
        <ele>55.9</ele>
        <time>2020-07-01T13:16:46Z</time>
      </trkpt>
      <trkpt lat="48.95811" lon="2.95736">
        <ele>55.9</ele>
        <time>2020-07-01T13:16:47Z</time>
      </trkpt>
      <trkpt lat="48.95811" lon="2.95728">
        <ele>55.9</ele>
        <time>2020-07-01T13:16:48Z</time>
      </trkpt>
      <trkpt lat="48.95811" lon="2.95719">
        <ele>55.9</ele>
        <time>2020-07-01T13:16:49Z</time>
      </trkpt>
      <trkpt lat="48.9581" lon="2.9571">
        <ele>55.9</ele>
        <time>2020-07-01T13:16:50Z</time>
      </trkpt>
      <trkpt lat="48.9581" lon="2.95701">
        <ele>55.8</ele>
        <time>2020-07-01T13:16:51Z</time>
      </trkpt>
      <trkpt lat="48.95809" lon="2.95687">
        <ele>55.8</ele>
        <time>2020-07-01T13:16:52Z</time>
      </trkpt>
      <trkpt lat="48.95808" lon="2.95678">
        <ele>55.8</ele>
        <time>2020-07-01T13:16:53Z</time>
      </trkpt>
      <trkpt lat="48.95808" lon="2.95668">
        <ele>55.8</ele>
        <time>2020-07-01T13:16:54Z</time>
      </trkpt>
      <trkpt lat="48.95809" lon="2.95658">
        <ele>55.8</ele>
        <time>2020-07-01T13:16:55Z</time>
      </trkpt>
      <trkpt lat="48.95808" lon="2.95648">
        <ele>55.9</ele>
        <time>2020-07-01T13:16:56Z</time>
      </trkpt>
      <trkpt lat="48.95808" lon="2.9564">
        <ele>55.9</ele>
        <time>2020-07-01T13:16:57Z</time>
      </trkpt>
      <trkpt lat="48.95808" lon="2.95631">
        <ele>56</ele>
        <time>2020-07-01T13:16:58Z</time>
      </trkpt>
      <trkpt lat="48.95808" lon="2.95625">
        <ele>56</ele>
        <time>2020-07-01T13:16:59Z</time>
      </trkpt>
      <trkpt lat="48.95808" lon="2.95613">
        <ele>56</ele>
        <time>2020-07-01T13:17:00Z</time>
      </trkpt>
      <trkpt lat="48.95808" lon="2.95603">
        <ele>56</ele>
        <time>2020-07-01T13:17:01Z</time>
      </trkpt>
      <trkpt lat="48.95808" lon="2.95591">
        <ele>55.9</ele>
        <time>2020-07-01T13:17:02Z</time>
      </trkpt>
      <trkpt lat="48.95808" lon="2.95583">
        <ele>55.9</ele>
        <time>2020-07-01T13:17:03Z</time>
      </trkpt>
      <trkpt lat="48.95808" lon="2.95572">
        <ele>55.9</ele>
        <time>2020-07-01T13:17:04Z</time>
      </trkpt>
      <trkpt lat="48.95808" lon="2.95563">
        <ele>55.9</ele>
        <time>2020-07-01T13:17:05Z</time>
      </trkpt>
      <trkpt lat="48.95807" lon="2.95553">
        <ele>55.9</ele>
        <time>2020-07-01T13:17:06Z</time>
      </trkpt>
      <trkpt lat="48.95807" lon="2.95544">
        <ele>55.9</ele>
        <time>2020-07-01T13:17:07Z</time>
      </trkpt>
      <trkpt lat="48.95806" lon="2.95534">
        <ele>55.9</ele>
        <time>2020-07-01T13:17:08Z</time>
      </trkpt>
      <trkpt lat="48.95806" lon="2.95527">
        <ele>55.9</ele>
        <time>2020-07-01T13:17:09Z</time>
      </trkpt>
      <trkpt lat="48.95806" lon="2.95519">
        <ele>55.9</ele>
        <time>2020-07-01T13:17:10Z</time>
      </trkpt>
      <trkpt lat="48.95806" lon="2.95513">
        <ele>55.9</ele>
        <time>2020-07-01T13:17:11Z</time>
      </trkpt>
      <trkpt lat="48.95805" lon="2.95504">
        <ele>55.9</ele>
        <time>2020-07-01T13:17:12Z</time>
      </trkpt>
      <trkpt lat="48.95805" lon="2.95495">
        <ele>56</ele>
        <time>2020-07-01T13:17:13Z</time>
      </trkpt>
      <trkpt lat="48.95804" lon="2.95486">
        <ele>56.1</ele>
        <time>2020-07-01T13:17:14Z</time>
      </trkpt>
      <trkpt lat="48.95803" lon="2.95478">
        <ele>56.1</ele>
        <time>2020-07-01T13:17:15Z</time>
      </trkpt>
      <trkpt lat="48.95803" lon="2.95471">
        <ele>56.1</ele>
        <time>2020-07-01T13:17:16Z</time>
      </trkpt>
      <trkpt lat="48.95803" lon="2.95461">
        <ele>56.2</ele>
        <time>2020-07-01T13:17:17Z</time>
      </trkpt>
      <trkpt lat="48.95803" lon="2.95452">
        <ele>56.2</ele>
        <time>2020-07-01T13:17:18Z</time>
      </trkpt>
      <trkpt lat="48.95803" lon="2.95442">
        <ele>56.2</ele>
        <time>2020-07-01T13:17:19Z</time>
      </trkpt>
      <trkpt lat="48.95803" lon="2.95432">
        <ele>56.3</ele>
        <time>2020-07-01T13:17:20Z</time>
      </trkpt>
      <trkpt lat="48.95803" lon="2.95423">
        <ele>56.3</ele>
        <time>2020-07-01T13:17:21Z</time>
      </trkpt>
      <trkpt lat="48.95803" lon="2.95413">
        <ele>56.3</ele>
        <time>2020-07-01T13:17:22Z</time>
      </trkpt>
      <trkpt lat="48.95802" lon="2.95406">
        <ele>56.4</ele>
        <time>2020-07-01T13:17:23Z</time>
      </trkpt>
      <trkpt lat="48.95802" lon="2.95399">
        <ele>56.4</ele>
        <time>2020-07-01T13:17:24Z</time>
      </trkpt>
      <trkpt lat="48.95802" lon="2.95389">
        <ele>56.4</ele>
        <time>2020-07-01T13:17:25Z</time>
      </trkpt>
      <trkpt lat="48.95801" lon="2.9538">
        <ele>56.5</ele>
        <time>2020-07-01T13:17:26Z</time>
      </trkpt>
      <trkpt lat="48.95801" lon="2.95372">
        <ele>56.6</ele>
        <time>2020-07-01T13:17:27Z</time>
      </trkpt>
      <trkpt lat="48.95801" lon="2.95366">
        <ele>56.6</ele>
        <time>2020-07-01T13:17:28Z</time>
      </trkpt>
      <trkpt lat="48.95802" lon="2.95356">
        <ele>56.7</ele>
        <time>2020-07-01T13:17:29Z</time>
      </trkpt>
      <trkpt lat="48.95802" lon="2.95347">
        <ele>56.7</ele>
        <time>2020-07-01T13:17:30Z</time>
      </trkpt>
      <trkpt lat="48.95802" lon="2.9534">
        <ele>56.7</ele>
        <time>2020-07-01T13:17:31Z</time>
      </trkpt>
      <trkpt lat="48.95802" lon="2.95334">
        <ele>56.7</ele>
        <time>2020-07-01T13:17:32Z</time>
      </trkpt>
      <trkpt lat="48.95801" lon="2.95326">
        <ele>56.7</ele>
        <time>2020-07-01T13:17:33Z</time>
      </trkpt>
      <trkpt lat="48.95801" lon="2.95319">
        <ele>56.7</ele>
        <time>2020-07-01T13:17:34Z</time>
      </trkpt>
      <trkpt lat="48.958" lon="2.95308">
        <ele>56.7</ele>
        <time>2020-07-01T13:17:35Z</time>
      </trkpt>
      <trkpt lat="48.958" lon="2.95299">
        <ele>56.8</ele>
        <time>2020-07-01T13:17:36Z</time>
      </trkpt>
      <trkpt lat="48.958" lon="2.95292">
        <ele>56.8</ele>
        <time>2020-07-01T13:17:37Z</time>
      </trkpt>
      <trkpt lat="48.958" lon="2.95284">
        <ele>56.9</ele>
        <time>2020-07-01T13:17:38Z</time>
      </trkpt>
      <trkpt lat="48.958" lon="2.95277">
        <ele>56.9</ele>
        <time>2020-07-01T13:17:39Z</time>
      </trkpt>
      <trkpt lat="48.958" lon="2.9527">
        <ele>57</ele>
        <time>2020-07-01T13:17:40Z</time>
      </trkpt>
      <trkpt lat="48.958" lon="2.95262">
        <ele>57</ele>
        <time>2020-07-01T13:17:41Z</time>
      </trkpt>
      <trkpt lat="48.958" lon="2.95255">
        <ele>57.1</ele>
        <time>2020-07-01T13:17:42Z</time>
      </trkpt>
      <trkpt lat="48.958" lon="2.95248">
        <ele>57.1</ele>
        <time>2020-07-01T13:17:43Z</time>
      </trkpt>
      <trkpt lat="48.95799" lon="2.95239">
        <ele>57.2</ele>
        <time>2020-07-01T13:17:44Z</time>
      </trkpt>
      <trkpt lat="48.95799" lon="2.9523">
        <ele>57.2</ele>
        <time>2020-07-01T13:17:45Z</time>
      </trkpt>
      <trkpt lat="48.95799" lon="2.95222">
        <ele>57.3</ele>
        <time>2020-07-01T13:17:46Z</time>
      </trkpt>
      <trkpt lat="48.95799" lon="2.95214">
        <ele>57.3</ele>
        <time>2020-07-01T13:17:47Z</time>
      </trkpt>
      <trkpt lat="48.95799" lon="2.95201">
        <ele>57.4</ele>
        <time>2020-07-01T13:17:48Z</time>
      </trkpt>
      <trkpt lat="48.95798" lon="2.95193">
        <ele>57.5</ele>
        <time>2020-07-01T13:17:49Z</time>
      </trkpt>
      <trkpt lat="48.95798" lon="2.95186">
        <ele>57.5</ele>
        <time>2020-07-01T13:17:50Z</time>
      </trkpt>
      <trkpt lat="48.95799" lon="2.95176">
        <ele>57.5</ele>
        <time>2020-07-01T13:17:51Z</time>
      </trkpt>
      <trkpt lat="48.95799" lon="2.95169">
        <ele>57.5</ele>
        <time>2020-07-01T13:17:52Z</time>
      </trkpt>
      <trkpt lat="48.95798" lon="2.95164">
        <ele>57.5</ele>
        <time>2020-07-01T13:17:53Z</time>
      </trkpt>
      <trkpt lat="48.95798" lon="2.95156">
        <ele>57.6</ele>
        <time>2020-07-01T13:17:54Z</time>
      </trkpt>
      <trkpt lat="48.95797" lon="2.9515">
        <ele>57.6</ele>
        <time>2020-07-01T13:17:55Z</time>
      </trkpt>
      <trkpt lat="48.95797" lon="2.9514">
        <ele>57.8</ele>
        <time>2020-07-01T13:17:56Z</time>
      </trkpt>
      <trkpt lat="48.95797" lon="2.95134">
        <ele>57.9</ele>
        <time>2020-07-01T13:17:57Z</time>
      </trkpt>
      <trkpt lat="48.95796" lon="2.95128">
        <ele>58</ele>
        <time>2020-07-01T13:17:58Z</time>
      </trkpt>
      <trkpt lat="48.95795" lon="2.95123">
        <ele>58</ele>
        <time>2020-07-01T13:17:59Z</time>
      </trkpt>
      <trkpt lat="48.95794" lon="2.95117">
        <ele>58.1</ele>
        <time>2020-07-01T13:18:00Z</time>
      </trkpt>
      <trkpt lat="48.95793" lon="2.95112">
        <ele>58.2</ele>
        <time>2020-07-01T13:18:01Z</time>
      </trkpt>
      <trkpt lat="48.95792" lon="2.95105">
        <ele>58.3</ele>
        <time>2020-07-01T13:18:02Z</time>
      </trkpt>
      <trkpt lat="48.95791" lon="2.95097">
        <ele>58.4</ele>
        <time>2020-07-01T13:18:03Z</time>
      </trkpt>
      <trkpt lat="48.95791" lon="2.95091">
        <ele>58.5</ele>
        <time>2020-07-01T13:18:04Z</time>
      </trkpt>
      <trkpt lat="48.95791" lon="2.95086">
        <ele>58.5</ele>
        <time>2020-07-01T13:18:05Z</time>
      </trkpt>
      <trkpt lat="48.95791" lon="2.95079">
        <ele>58.6</ele>
        <time>2020-07-01T13:18:06Z</time>
      </trkpt>
      <trkpt lat="48.9579" lon="2.95071">
        <ele>58.7</ele>
        <time>2020-07-01T13:18:07Z</time>
      </trkpt>
      <trkpt lat="48.95789" lon="2.95066">
        <ele>58.7</ele>
        <time>2020-07-01T13:18:08Z</time>
      </trkpt>
      <trkpt lat="48.95789" lon="2.9506">
        <ele>58.8</ele>
        <time>2020-07-01T13:18:09Z</time>
      </trkpt>
      <trkpt lat="48.95789" lon="2.95054">
        <ele>58.8</ele>
        <time>2020-07-01T13:18:10Z</time>
      </trkpt>
      <trkpt lat="48.95789" lon="2.95052">
        <ele>58.9</ele>
        <time>2020-07-01T13:18:11Z</time>
      </trkpt>
      <trkpt lat="48.9579" lon="2.95047">
        <ele>58.9</ele>
        <time>2020-07-01T13:18:12Z</time>
      </trkpt>
      <trkpt lat="48.9579" lon="2.95046">
        <ele>58.9</ele>
        <time>2020-07-01T13:18:13Z</time>
      </trkpt>
      <trkpt lat="48.95791" lon="2.9504">
        <ele>58.9</ele>
        <time>2020-07-01T13:18:14Z</time>
      </trkpt>
      <trkpt lat="48.95792" lon="2.95036">
        <ele>58.9</ele>
        <time>2020-07-01T13:18:15Z</time>
      </trkpt>
      <trkpt lat="48.95792" lon="2.95031">
        <ele>58.9</ele>
        <time>2020-07-01T13:18:16Z</time>
      </trkpt>
      <trkpt lat="48.95792" lon="2.95025">
        <ele>58.9</ele>
        <time>2020-07-01T13:18:17Z</time>
      </trkpt>
      <trkpt lat="48.95793" lon="2.95019">
        <ele>58.9</ele>
        <time>2020-07-01T13:18:18Z</time>
      </trkpt>
      <trkpt lat="48.95793" lon="2.95014">
        <ele>58.9</ele>
        <time>2020-07-01T13:18:19Z</time>
      </trkpt>
      <trkpt lat="48.95793" lon="2.95006">
        <ele>58.9</ele>
        <time>2020-07-01T13:18:20Z</time>
      </trkpt>
      <trkpt lat="48.95793" lon="2.94997">
        <ele>58.9</ele>
        <time>2020-07-01T13:18:21Z</time>
      </trkpt>
      <trkpt lat="48.95793" lon="2.94991">
        <ele>58.9</ele>
        <time>2020-07-01T13:18:22Z</time>
      </trkpt>
      <trkpt lat="48.95793" lon="2.94982">
        <ele>58.9</ele>
        <time>2020-07-01T13:18:23Z</time>
      </trkpt>
      <trkpt lat="48.95794" lon="2.94976">
        <ele>58.8</ele>
        <time>2020-07-01T13:18:24Z</time>
      </trkpt>
      <trkpt lat="48.95794" lon="2.94969">
        <ele>58.8</ele>
        <time>2020-07-01T13:18:25Z</time>
      </trkpt>
      <trkpt lat="48.95795" lon="2.94962">
        <ele>58.7</ele>
        <time>2020-07-01T13:18:26Z</time>
      </trkpt>
      <trkpt lat="48.95794" lon="2.94955">
        <ele>58.6</ele>
        <time>2020-07-01T13:18:27Z</time>
      </trkpt>
      <trkpt lat="48.95794" lon="2.94946">
        <ele>58.5</ele>
        <time>2020-07-01T13:18:28Z</time>
      </trkpt>
      <trkpt lat="48.95792" lon="2.94941">
        <ele>58.5</ele>
        <time>2020-07-01T13:18:29Z</time>
      </trkpt>
      <trkpt lat="48.95792" lon="2.94934">
        <ele>58.4</ele>
        <time>2020-07-01T13:18:30Z</time>
      </trkpt>
      <trkpt lat="48.95792" lon="2.94926">
        <ele>58.3</ele>
        <time>2020-07-01T13:18:31Z</time>
      </trkpt>
      <trkpt lat="48.95792" lon="2.9492">
        <ele>58.2</ele>
        <time>2020-07-01T13:18:32Z</time>
      </trkpt>
      <trkpt lat="48.95793" lon="2.94913">
        <ele>58</ele>
        <time>2020-07-01T13:18:33Z</time>
      </trkpt>
      <trkpt lat="48.95793" lon="2.94905">
        <ele>57.9</ele>
        <time>2020-07-01T13:18:34Z</time>
      </trkpt>
      <trkpt lat="48.95792" lon="2.94897">
        <ele>57.7</ele>
        <time>2020-07-01T13:18:35Z</time>
      </trkpt>
      <trkpt lat="48.95792" lon="2.9489">
        <ele>57.6</ele>
        <time>2020-07-01T13:18:36Z</time>
      </trkpt>
      <trkpt lat="48.95791" lon="2.9488">
        <ele>57.5</ele>
        <time>2020-07-01T13:18:37Z</time>
      </trkpt>
      <trkpt lat="48.95791" lon="2.94872">
        <ele>57.4</ele>
        <time>2020-07-01T13:18:38Z</time>
      </trkpt>
      <trkpt lat="48.95789" lon="2.94863">
        <ele>57.2</ele>
        <time>2020-07-01T13:18:39Z</time>
      </trkpt>
      <trkpt lat="48.95788" lon="2.94855">
        <ele>57.2</ele>
        <time>2020-07-01T13:18:40Z</time>
      </trkpt>
      <trkpt lat="48.95788" lon="2.94847">
        <ele>57.1</ele>
        <time>2020-07-01T13:18:41Z</time>
      </trkpt>
      <trkpt lat="48.95787" lon="2.94838">
        <ele>56.9</ele>
        <time>2020-07-01T13:18:42Z</time>
      </trkpt>
      <trkpt lat="48.95787" lon="2.94828">
        <ele>56.9</ele>
        <time>2020-07-01T13:18:43Z</time>
      </trkpt>
      <trkpt lat="48.95787" lon="2.9482">
        <ele>56.8</ele>
        <time>2020-07-01T13:18:44Z</time>
      </trkpt>
      <trkpt lat="48.95786" lon="2.94811">
        <ele>56.7</ele>
        <time>2020-07-01T13:18:45Z</time>
      </trkpt>
      <trkpt lat="48.95786" lon="2.94801">
        <ele>56.6</ele>
        <time>2020-07-01T13:18:46Z</time>
      </trkpt>
      <trkpt lat="48.95786" lon="2.94792">
        <ele>56.5</ele>
        <time>2020-07-01T13:18:47Z</time>
      </trkpt>
      <trkpt lat="48.95786" lon="2.94784">
        <ele>56.5</ele>
        <time>2020-07-01T13:18:48Z</time>
      </trkpt>
      <trkpt lat="48.95786" lon="2.94775">
        <ele>56.4</ele>
        <time>2020-07-01T13:18:49Z</time>
      </trkpt>
      <trkpt lat="48.95785" lon="2.94764">
        <ele>56.3</ele>
        <time>2020-07-01T13:18:50Z</time>
      </trkpt>
      <trkpt lat="48.95785" lon="2.94754">
        <ele>56.3</ele>
        <time>2020-07-01T13:18:51Z</time>
      </trkpt>
      <trkpt lat="48.95785" lon="2.94746">
        <ele>56.3</ele>
        <time>2020-07-01T13:18:52Z</time>
      </trkpt>
      <trkpt lat="48.95785" lon="2.94739">
        <ele>56.2</ele>
        <time>2020-07-01T13:18:53Z</time>
      </trkpt>
      <trkpt lat="48.95785" lon="2.9473">
        <ele>56.2</ele>
        <time>2020-07-01T13:18:54Z</time>
      </trkpt>
      <trkpt lat="48.95785" lon="2.94722">
        <ele>56.2</ele>
        <time>2020-07-01T13:18:55Z</time>
      </trkpt>
      <trkpt lat="48.95784" lon="2.94712">
        <ele>56.3</ele>
        <time>2020-07-01T13:18:56Z</time>
      </trkpt>
      <trkpt lat="48.95784" lon="2.94703">
        <ele>56.3</ele>
        <time>2020-07-01T13:18:57Z</time>
      </trkpt>
      <trkpt lat="48.95784" lon="2.94693">
        <ele>55.8</ele>
        <time>2020-07-01T13:18:58Z</time>
      </trkpt>
      <trkpt lat="48.95784" lon="2.94681">
        <ele>55.2</ele>
        <time>2020-07-01T13:18:59Z</time>
      </trkpt>
      <trkpt lat="48.95785" lon="2.94671">
        <ele>55</ele>
        <time>2020-07-01T13:19:00Z</time>
      </trkpt>
      <trkpt lat="48.95784" lon="2.94661">
        <ele>54.7</ele>
        <time>2020-07-01T13:19:01Z</time>
      </trkpt>
      <trkpt lat="48.95785" lon="2.94653">
        <ele>54.5</ele>
        <time>2020-07-01T13:19:02Z</time>
      </trkpt>
      <trkpt lat="48.95783" lon="2.94642">
        <ele>53.9</ele>
        <time>2020-07-01T13:19:03Z</time>
      </trkpt>
      <trkpt lat="48.95782" lon="2.94632">
        <ele>53.8</ele>
        <time>2020-07-01T13:19:04Z</time>
      </trkpt>
      <trkpt lat="48.95782" lon="2.94622">
        <ele>53.6</ele>
        <time>2020-07-01T13:19:05Z</time>
      </trkpt>
      <trkpt lat="48.95782" lon="2.94615">
        <ele>53.5</ele>
        <time>2020-07-01T13:19:06Z</time>
      </trkpt>
      <trkpt lat="48.95782" lon="2.94606">
        <ele>53.4</ele>
        <time>2020-07-01T13:19:07Z</time>
      </trkpt>
      <trkpt lat="48.95781" lon="2.94594">
        <ele>53</ele>
        <time>2020-07-01T13:19:08Z</time>
      </trkpt>
      <trkpt lat="48.95781" lon="2.94584">
        <ele>52.8</ele>
        <time>2020-07-01T13:19:09Z</time>
      </trkpt>
      <trkpt lat="48.9578" lon="2.94574">
        <ele>52.6</ele>
        <time>2020-07-01T13:19:10Z</time>
      </trkpt>
      <trkpt lat="48.9578" lon="2.94564">
        <ele>52.5</ele>
        <time>2020-07-01T13:19:11Z</time>
      </trkpt>
      <trkpt lat="48.9578" lon="2.94554">
        <ele>52.4</ele>
        <time>2020-07-01T13:19:12Z</time>
      </trkpt>
      <trkpt lat="48.9578" lon="2.94544">
        <ele>52.4</ele>
        <time>2020-07-01T13:19:13Z</time>
      </trkpt>
      <trkpt lat="48.9578" lon="2.94533">
        <ele>52.4</ele>
        <time>2020-07-01T13:19:14Z</time>
      </trkpt>
      <trkpt lat="48.95779" lon="2.94524">
        <ele>52.4</ele>
        <time>2020-07-01T13:19:15Z</time>
      </trkpt>
      <trkpt lat="48.95779" lon="2.94516">
        <ele>52.4</ele>
        <time>2020-07-01T13:19:16Z</time>
      </trkpt>
      <trkpt lat="48.95778" lon="2.94505">
        <ele>52.4</ele>
        <time>2020-07-01T13:19:17Z</time>
      </trkpt>
      <trkpt lat="48.95777" lon="2.94496">
        <ele>52.4</ele>
        <time>2020-07-01T13:19:18Z</time>
      </trkpt>
      <trkpt lat="48.95776" lon="2.94487">
        <ele>52.4</ele>
        <time>2020-07-01T13:19:19Z</time>
      </trkpt>
      <trkpt lat="48.95775" lon="2.94479">
        <ele>52.4</ele>
        <time>2020-07-01T13:19:20Z</time>
      </trkpt>
      <trkpt lat="48.95775" lon="2.94471">
        <ele>52.4</ele>
        <time>2020-07-01T13:19:21Z</time>
      </trkpt>
      <trkpt lat="48.95775" lon="2.94463">
        <ele>52.4</ele>
        <time>2020-07-01T13:19:22Z</time>
      </trkpt>
      <trkpt lat="48.95774" lon="2.94453">
        <ele>52.4</ele>
        <time>2020-07-01T13:19:23Z</time>
      </trkpt>
      <trkpt lat="48.95774" lon="2.94445">
        <ele>52.4</ele>
        <time>2020-07-01T13:19:24Z</time>
      </trkpt>
      <trkpt lat="48.95774" lon="2.94437">
        <ele>52.5</ele>
        <time>2020-07-01T13:19:25Z</time>
      </trkpt>
      <trkpt lat="48.95774" lon="2.94429">
        <ele>52.5</ele>
        <time>2020-07-01T13:19:26Z</time>
      </trkpt>
      <trkpt lat="48.95774" lon="2.94421">
        <ele>52.5</ele>
        <time>2020-07-01T13:19:27Z</time>
      </trkpt>
      <trkpt lat="48.95774" lon="2.9441">
        <ele>52.5</ele>
        <time>2020-07-01T13:19:28Z</time>
      </trkpt>
      <trkpt lat="48.95774" lon="2.944">
        <ele>52.5</ele>
        <time>2020-07-01T13:19:29Z</time>
      </trkpt>
      <trkpt lat="48.95773" lon="2.94392">
        <ele>52.5</ele>
        <time>2020-07-01T13:19:30Z</time>
      </trkpt>
      <trkpt lat="48.95773" lon="2.94384">
        <ele>52.4</ele>
        <time>2020-07-01T13:19:31Z</time>
      </trkpt>
      <trkpt lat="48.95772" lon="2.94376">
        <ele>52.4</ele>
        <time>2020-07-01T13:19:32Z</time>
      </trkpt>
      <trkpt lat="48.95771" lon="2.9437">
        <ele>52.3</ele>
        <time>2020-07-01T13:19:33Z</time>
      </trkpt>
      <trkpt lat="48.95772" lon="2.94363">
        <ele>52.3</ele>
        <time>2020-07-01T13:19:34Z</time>
      </trkpt>
      <trkpt lat="48.95771" lon="2.94353">
        <ele>52.2</ele>
        <time>2020-07-01T13:19:35Z</time>
      </trkpt>
      <trkpt lat="48.95771" lon="2.94343">
        <ele>52.1</ele>
        <time>2020-07-01T13:19:36Z</time>
      </trkpt>
      <trkpt lat="48.95771" lon="2.94332">
        <ele>52</ele>
        <time>2020-07-01T13:19:37Z</time>
      </trkpt>
      <trkpt lat="48.95772" lon="2.94324">
        <ele>51.9</ele>
        <time>2020-07-01T13:19:38Z</time>
      </trkpt>
      <trkpt lat="48.95772" lon="2.94312">
        <ele>51.8</ele>
        <time>2020-07-01T13:19:39Z</time>
      </trkpt>
      <trkpt lat="48.95772" lon="2.94304">
        <ele>51.7</ele>
        <time>2020-07-01T13:19:40Z</time>
      </trkpt>
      <trkpt lat="48.95772" lon="2.94296">
        <ele>51.7</ele>
        <time>2020-07-01T13:19:41Z</time>
      </trkpt>
      <trkpt lat="48.95772" lon="2.94287">
        <ele>51.6</ele>
        <time>2020-07-01T13:19:42Z</time>
      </trkpt>
      <trkpt lat="48.95772" lon="2.94279">
        <ele>51.5</ele>
        <time>2020-07-01T13:19:43Z</time>
      </trkpt>
      <trkpt lat="48.95771" lon="2.94268">
        <ele>51.4</ele>
        <time>2020-07-01T13:19:44Z</time>
      </trkpt>
      <trkpt lat="48.95771" lon="2.9426">
        <ele>51.4</ele>
        <time>2020-07-01T13:19:45Z</time>
      </trkpt>
      <trkpt lat="48.95771" lon="2.9425">
        <ele>51.4</ele>
        <time>2020-07-01T13:19:46Z</time>
      </trkpt>
      <trkpt lat="48.95771" lon="2.94241">
        <ele>51.4</ele>
        <time>2020-07-01T13:19:47Z</time>
      </trkpt>
      <trkpt lat="48.95771" lon="2.94232">
        <ele>51.3</ele>
        <time>2020-07-01T13:19:48Z</time>
      </trkpt>
      <trkpt lat="48.9577" lon="2.94222">
        <ele>51.3</ele>
        <time>2020-07-01T13:19:49Z</time>
      </trkpt>
      <trkpt lat="48.9577" lon="2.94212">
        <ele>51.2</ele>
        <time>2020-07-01T13:19:50Z</time>
      </trkpt>
      <trkpt lat="48.9577" lon="2.94202">
        <ele>51.1</ele>
        <time>2020-07-01T13:19:51Z</time>
      </trkpt>
      <trkpt lat="48.9577" lon="2.94193">
        <ele>51.1</ele>
        <time>2020-07-01T13:19:52Z</time>
      </trkpt>
      <trkpt lat="48.9577" lon="2.94183">
        <ele>51</ele>
        <time>2020-07-01T13:19:53Z</time>
      </trkpt>
      <trkpt lat="48.95769" lon="2.94174">
        <ele>51</ele>
        <time>2020-07-01T13:19:54Z</time>
      </trkpt>
      <trkpt lat="48.9577" lon="2.94164">
        <ele>50.9</ele>
        <time>2020-07-01T13:19:55Z</time>
      </trkpt>
      <trkpt lat="48.95769" lon="2.94156">
        <ele>50.9</ele>
        <time>2020-07-01T13:19:56Z</time>
      </trkpt>
      <trkpt lat="48.95769" lon="2.94147">
        <ele>50.9</ele>
        <time>2020-07-01T13:19:57Z</time>
      </trkpt>
      <trkpt lat="48.95768" lon="2.94136">
        <ele>50.8</ele>
        <time>2020-07-01T13:19:58Z</time>
      </trkpt>
      <trkpt lat="48.95768" lon="2.94127">
        <ele>50.8</ele>
        <time>2020-07-01T13:19:59Z</time>
      </trkpt>
      <trkpt lat="48.95767" lon="2.94117">
        <ele>50.7</ele>
        <time>2020-07-01T13:20:00Z</time>
      </trkpt>
      <trkpt lat="48.95767" lon="2.94109">
        <ele>50.7</ele>
        <time>2020-07-01T13:20:01Z</time>
      </trkpt>
      <trkpt lat="48.95767" lon="2.94098">
        <ele>50.6</ele>
        <time>2020-07-01T13:20:02Z</time>
      </trkpt>
      <trkpt lat="48.95767" lon="2.94088">
        <ele>50.6</ele>
        <time>2020-07-01T13:20:03Z</time>
      </trkpt>
      <trkpt lat="48.95766" lon="2.94078">
        <ele>50.5</ele>
        <time>2020-07-01T13:20:04Z</time>
      </trkpt>
      <trkpt lat="48.95766" lon="2.94068">
        <ele>50.5</ele>
        <time>2020-07-01T13:20:05Z</time>
      </trkpt>
      <trkpt lat="48.95765" lon="2.94058">
        <ele>50.5</ele>
        <time>2020-07-01T13:20:06Z</time>
      </trkpt>
      <trkpt lat="48.95765" lon="2.94047">
        <ele>50.4</ele>
        <time>2020-07-01T13:20:07Z</time>
      </trkpt>
      <trkpt lat="48.95765" lon="2.94039">
        <ele>50.4</ele>
        <time>2020-07-01T13:20:08Z</time>
      </trkpt>
      <trkpt lat="48.95764" lon="2.9403">
        <ele>50.4</ele>
        <time>2020-07-01T13:20:09Z</time>
      </trkpt>
      <trkpt lat="48.95764" lon="2.94023">
        <ele>50.3</ele>
        <time>2020-07-01T13:20:10Z</time>
      </trkpt>
      <trkpt lat="48.95764" lon="2.94014">
        <ele>50.3</ele>
        <time>2020-07-01T13:20:11Z</time>
      </trkpt>
      <trkpt lat="48.95764" lon="2.94006">
        <ele>50.3</ele>
        <time>2020-07-01T13:20:12Z</time>
      </trkpt>
      <trkpt lat="48.95763" lon="2.93998">
        <ele>50.3</ele>
        <time>2020-07-01T13:20:13Z</time>
      </trkpt>
      <trkpt lat="48.95762" lon="2.93988">
        <ele>50.3</ele>
        <time>2020-07-01T13:20:14Z</time>
      </trkpt>
      <trkpt lat="48.95762" lon="2.9398">
        <ele>50.3</ele>
        <time>2020-07-01T13:20:15Z</time>
      </trkpt>
      <trkpt lat="48.95761" lon="2.93972">
        <ele>50.3</ele>
        <time>2020-07-01T13:20:16Z</time>
      </trkpt>
      <trkpt lat="48.95761" lon="2.93963">
        <ele>50.3</ele>
        <time>2020-07-01T13:20:17Z</time>
      </trkpt>
      <trkpt lat="48.9576" lon="2.93952">
        <ele>50.3</ele>
        <time>2020-07-01T13:20:18Z</time>
      </trkpt>
      <trkpt lat="48.9576" lon="2.93942">
        <ele>50.3</ele>
        <time>2020-07-01T13:20:19Z</time>
      </trkpt>
      <trkpt lat="48.9576" lon="2.93934">
        <ele>50.3</ele>
        <time>2020-07-01T13:20:20Z</time>
      </trkpt>
      <trkpt lat="48.95759" lon="2.93924">
        <ele>50.3</ele>
        <time>2020-07-01T13:20:21Z</time>
      </trkpt>
      <trkpt lat="48.95758" lon="2.93911">
        <ele>50.3</ele>
        <time>2020-07-01T13:20:22Z</time>
      </trkpt>
      <trkpt lat="48.95759" lon="2.93902">
        <ele>50.3</ele>
        <time>2020-07-01T13:20:23Z</time>
      </trkpt>
      <trkpt lat="48.95758" lon="2.93892">
        <ele>50.3</ele>
        <time>2020-07-01T13:20:24Z</time>
      </trkpt>
      <trkpt lat="48.95757" lon="2.93883">
        <ele>50.3</ele>
        <time>2020-07-01T13:20:25Z</time>
      </trkpt>
      <trkpt lat="48.95757" lon="2.93873">
        <ele>50.3</ele>
        <time>2020-07-01T13:20:26Z</time>
      </trkpt>
      <trkpt lat="48.95757" lon="2.93865">
        <ele>50.3</ele>
        <time>2020-07-01T13:20:27Z</time>
      </trkpt>
      <trkpt lat="48.95758" lon="2.93857">
        <ele>50.3</ele>
        <time>2020-07-01T13:20:28Z</time>
      </trkpt>
      <trkpt lat="48.95758" lon="2.93846">
        <ele>50.3</ele>
        <time>2020-07-01T13:20:29Z</time>
      </trkpt>
      <trkpt lat="48.95758" lon="2.93838">
        <ele>50.3</ele>
        <time>2020-07-01T13:20:30Z</time>
      </trkpt>
      <trkpt lat="48.95758" lon="2.93828">
        <ele>50.4</ele>
        <time>2020-07-01T13:20:31Z</time>
      </trkpt>
      <trkpt lat="48.95758" lon="2.93819">
        <ele>50.4</ele>
        <time>2020-07-01T13:20:32Z</time>
      </trkpt>
      <trkpt lat="48.95758" lon="2.9381">
        <ele>50.4</ele>
        <time>2020-07-01T13:20:33Z</time>
      </trkpt>
      <trkpt lat="48.95758" lon="2.938">
        <ele>50.5</ele>
        <time>2020-07-01T13:20:34Z</time>
      </trkpt>
      <trkpt lat="48.95759" lon="2.9379">
        <ele>50.6</ele>
        <time>2020-07-01T13:20:35Z</time>
      </trkpt>
      <trkpt lat="48.95759" lon="2.93782">
        <ele>50.6</ele>
        <time>2020-07-01T13:20:36Z</time>
      </trkpt>
      <trkpt lat="48.95759" lon="2.93768">
        <ele>50.7</ele>
        <time>2020-07-01T13:20:37Z</time>
      </trkpt>
      <trkpt lat="48.95759" lon="2.93758">
        <ele>50.8</ele>
        <time>2020-07-01T13:20:38Z</time>
      </trkpt>
      <trkpt lat="48.95759" lon="2.9375">
        <ele>50.9</ele>
        <time>2020-07-01T13:20:39Z</time>
      </trkpt>
      <trkpt lat="48.95758" lon="2.93742">
        <ele>51</ele>
        <time>2020-07-01T13:20:40Z</time>
      </trkpt>
      <trkpt lat="48.95757" lon="2.93733">
        <ele>51</ele>
        <time>2020-07-01T13:20:41Z</time>
      </trkpt>
      <trkpt lat="48.95757" lon="2.93727">
        <ele>51</ele>
        <time>2020-07-01T13:20:42Z</time>
      </trkpt>
      <trkpt lat="48.95757" lon="2.93713">
        <ele>51.1</ele>
        <time>2020-07-01T13:20:43Z</time>
      </trkpt>
      <trkpt lat="48.95757" lon="2.93705">
        <ele>51.1</ele>
        <time>2020-07-01T13:20:44Z</time>
      </trkpt>
      <trkpt lat="48.95757" lon="2.93698">
        <ele>51.1</ele>
        <time>2020-07-01T13:20:45Z</time>
      </trkpt>
      <trkpt lat="48.95756" lon="2.9369">
        <ele>51.2</ele>
        <time>2020-07-01T13:20:46Z</time>
      </trkpt>
      <trkpt lat="48.95756" lon="2.93682">
        <ele>51.2</ele>
        <time>2020-07-01T13:20:47Z</time>
      </trkpt>
      <trkpt lat="48.95756" lon="2.93675">
        <ele>51.2</ele>
        <time>2020-07-01T13:20:48Z</time>
      </trkpt>
      <trkpt lat="48.95757" lon="2.93666">
        <ele>51.2</ele>
        <time>2020-07-01T13:20:49Z</time>
      </trkpt>
      <trkpt lat="48.95757" lon="2.93655">
        <ele>51.1</ele>
        <time>2020-07-01T13:20:50Z</time>
      </trkpt>
      <trkpt lat="48.95757" lon="2.93645">
        <ele>51.1</ele>
        <time>2020-07-01T13:20:51Z</time>
      </trkpt>
      <trkpt lat="48.95757" lon="2.93638">
        <ele>51.1</ele>
        <time>2020-07-01T13:20:52Z</time>
      </trkpt>
      <trkpt lat="48.95757" lon="2.93629">
        <ele>51.1</ele>
        <time>2020-07-01T13:20:53Z</time>
      </trkpt>
      <trkpt lat="48.95756" lon="2.93618">
        <ele>51</ele>
        <time>2020-07-01T13:20:54Z</time>
      </trkpt>
      <trkpt lat="48.95756" lon="2.93609">
        <ele>50.9</ele>
        <time>2020-07-01T13:20:55Z</time>
      </trkpt>
      <trkpt lat="48.95755" lon="2.93599">
        <ele>50.8</ele>
        <time>2020-07-01T13:20:56Z</time>
      </trkpt>
      <trkpt lat="48.95754" lon="2.93589">
        <ele>50.8</ele>
        <time>2020-07-01T13:20:57Z</time>
      </trkpt>
      <trkpt lat="48.95753" lon="2.9358">
        <ele>50.7</ele>
        <time>2020-07-01T13:20:58Z</time>
      </trkpt>
      <trkpt lat="48.95752" lon="2.9357">
        <ele>50.7</ele>
        <time>2020-07-01T13:20:59Z</time>
      </trkpt>
      <trkpt lat="48.95751" lon="2.9356">
        <ele>50.6</ele>
        <time>2020-07-01T13:21:00Z</time>
      </trkpt>
      <trkpt lat="48.95751" lon="2.93551">
        <ele>50.6</ele>
        <time>2020-07-01T13:21:01Z</time>
      </trkpt>
      <trkpt lat="48.9575" lon="2.93543">
        <ele>50.5</ele>
        <time>2020-07-01T13:21:02Z</time>
      </trkpt>
      <trkpt lat="48.9575" lon="2.93535">
        <ele>50.5</ele>
        <time>2020-07-01T13:21:03Z</time>
      </trkpt>
      <trkpt lat="48.95749" lon="2.93529">
        <ele>50.5</ele>
        <time>2020-07-01T13:21:04Z</time>
      </trkpt>
      <trkpt lat="48.95748" lon="2.9352">
        <ele>50.5</ele>
        <time>2020-07-01T13:21:05Z</time>
      </trkpt>
      <trkpt lat="48.95748" lon="2.93511">
        <ele>50.5</ele>
        <time>2020-07-01T13:21:06Z</time>
      </trkpt>
      <trkpt lat="48.95748" lon="2.935">
        <ele>50.5</ele>
        <time>2020-07-01T13:21:07Z</time>
      </trkpt>
      <trkpt lat="48.95748" lon="2.93489">
        <ele>50.5</ele>
        <time>2020-07-01T13:21:08Z</time>
      </trkpt>
      <trkpt lat="48.95748" lon="2.93479">
        <ele>50.5</ele>
        <time>2020-07-01T13:21:09Z</time>
      </trkpt>
      <trkpt lat="48.95747" lon="2.93471">
        <ele>50.5</ele>
        <time>2020-07-01T13:21:10Z</time>
      </trkpt>
      <trkpt lat="48.95747" lon="2.93464">
        <ele>50.5</ele>
        <time>2020-07-01T13:21:11Z</time>
      </trkpt>
      <trkpt lat="48.95746" lon="2.93455">
        <ele>50.6</ele>
        <time>2020-07-01T13:21:12Z</time>
      </trkpt>
      <trkpt lat="48.95746" lon="2.93446">
        <ele>50.6</ele>
        <time>2020-07-01T13:21:13Z</time>
      </trkpt>
      <trkpt lat="48.95745" lon="2.93437">
        <ele>50.6</ele>
        <time>2020-07-01T13:21:14Z</time>
      </trkpt>
      <trkpt lat="48.95745" lon="2.93428">
        <ele>50.6</ele>
        <time>2020-07-01T13:21:15Z</time>
      </trkpt>
      <trkpt lat="48.95744" lon="2.93418">
        <ele>50.6</ele>
        <time>2020-07-01T13:21:16Z</time>
      </trkpt>
      <trkpt lat="48.95744" lon="2.9341">
        <ele>50.7</ele>
        <time>2020-07-01T13:21:17Z</time>
      </trkpt>
      <trkpt lat="48.95744" lon="2.93401">
        <ele>50.7</ele>
        <time>2020-07-01T13:21:18Z</time>
      </trkpt>
      <trkpt lat="48.95744" lon="2.93388">
        <ele>50.8</ele>
        <time>2020-07-01T13:21:19Z</time>
      </trkpt>
      <trkpt lat="48.95744" lon="2.93379">
        <ele>51</ele>
        <time>2020-07-01T13:21:20Z</time>
      </trkpt>
      <trkpt lat="48.95744" lon="2.93369">
        <ele>51.1</ele>
        <time>2020-07-01T13:21:21Z</time>
      </trkpt>
      <trkpt lat="48.95744" lon="2.9336">
        <ele>51.2</ele>
        <time>2020-07-01T13:21:22Z</time>
      </trkpt>
      <trkpt lat="48.95743" lon="2.93352">
        <ele>51.2</ele>
        <time>2020-07-01T13:21:23Z</time>
      </trkpt>
      <trkpt lat="48.95743" lon="2.93343">
        <ele>51.2</ele>
        <time>2020-07-01T13:21:24Z</time>
      </trkpt>
      <trkpt lat="48.95743" lon="2.93334">
        <ele>51.2</ele>
        <time>2020-07-01T13:21:25Z</time>
      </trkpt>
      <trkpt lat="48.95743" lon="2.93326">
        <ele>51.2</ele>
        <time>2020-07-01T13:21:26Z</time>
      </trkpt>
      <trkpt lat="48.95743" lon="2.93313">
        <ele>51.2</ele>
        <time>2020-07-01T13:21:27Z</time>
      </trkpt>
      <trkpt lat="48.95743" lon="2.93304">
        <ele>51.2</ele>
        <time>2020-07-01T13:21:28Z</time>
      </trkpt>
      <trkpt lat="48.95743" lon="2.93295">
        <ele>51.2</ele>
        <time>2020-07-01T13:21:29Z</time>
      </trkpt>
      <trkpt lat="48.95743" lon="2.93286">
        <ele>51.2</ele>
        <time>2020-07-01T13:21:30Z</time>
      </trkpt>
      <trkpt lat="48.95742" lon="2.93276">
        <ele>51.3</ele>
        <time>2020-07-01T13:21:31Z</time>
      </trkpt>
      <trkpt lat="48.95742" lon="2.93267">
        <ele>51.4</ele>
        <time>2020-07-01T13:21:32Z</time>
      </trkpt>
      <trkpt lat="48.95742" lon="2.93258">
        <ele>51.5</ele>
        <time>2020-07-01T13:21:33Z</time>
      </trkpt>
      <trkpt lat="48.95742" lon="2.9325">
        <ele>51.6</ele>
        <time>2020-07-01T13:21:34Z</time>
      </trkpt>
      <trkpt lat="48.95741" lon="2.93243">
        <ele>51.6</ele>
        <time>2020-07-01T13:21:35Z</time>
      </trkpt>
      <trkpt lat="48.95741" lon="2.9323">
        <ele>51.8</ele>
        <time>2020-07-01T13:21:36Z</time>
      </trkpt>
      <trkpt lat="48.95741" lon="2.93222">
        <ele>51.9</ele>
        <time>2020-07-01T13:21:37Z</time>
      </trkpt>
      <trkpt lat="48.95741" lon="2.93212">
        <ele>52</ele>
        <time>2020-07-01T13:21:38Z</time>
      </trkpt>
      <trkpt lat="48.95741" lon="2.93203">
        <ele>52.1</ele>
        <time>2020-07-01T13:21:39Z</time>
      </trkpt>
      <trkpt lat="48.95741" lon="2.93195">
        <ele>52.2</ele>
        <time>2020-07-01T13:21:40Z</time>
      </trkpt>
      <trkpt lat="48.9574" lon="2.93188">
        <ele>52.2</ele>
        <time>2020-07-01T13:21:41Z</time>
      </trkpt>
      <trkpt lat="48.9574" lon="2.93179">
        <ele>52.3</ele>
        <time>2020-07-01T13:21:42Z</time>
      </trkpt>
      <trkpt lat="48.95739" lon="2.93172">
        <ele>52.3</ele>
        <time>2020-07-01T13:21:43Z</time>
      </trkpt>
      <trkpt lat="48.95739" lon="2.93164">
        <ele>52.4</ele>
        <time>2020-07-01T13:21:44Z</time>
      </trkpt>
      <trkpt lat="48.95739" lon="2.93159">
        <ele>52.5</ele>
        <time>2020-07-01T13:21:45Z</time>
      </trkpt>
      <trkpt lat="48.95738" lon="2.93153">
        <ele>52.7</ele>
        <time>2020-07-01T13:21:46Z</time>
      </trkpt>
      <trkpt lat="48.95738" lon="2.93145">
        <ele>52.8</ele>
        <time>2020-07-01T13:21:47Z</time>
      </trkpt>
      <trkpt lat="48.95737" lon="2.93138">
        <ele>53</ele>
        <time>2020-07-01T13:21:48Z</time>
      </trkpt>
      <trkpt lat="48.95737" lon="2.93131">
        <ele>53.1</ele>
        <time>2020-07-01T13:21:49Z</time>
      </trkpt>
      <trkpt lat="48.95736" lon="2.93123">
        <ele>53.3</ele>
        <time>2020-07-01T13:21:50Z</time>
      </trkpt>
      <trkpt lat="48.95736" lon="2.93115">
        <ele>53.6</ele>
        <time>2020-07-01T13:21:51Z</time>
      </trkpt>
      <trkpt lat="48.95735" lon="2.93106">
        <ele>53.8</ele>
        <time>2020-07-01T13:21:52Z</time>
      </trkpt>
      <trkpt lat="48.95735" lon="2.93097">
        <ele>54.1</ele>
        <time>2020-07-01T13:21:53Z</time>
      </trkpt>
      <trkpt lat="48.95735" lon="2.93087">
        <ele>54.3</ele>
        <time>2020-07-01T13:21:54Z</time>
      </trkpt>
      <trkpt lat="48.95735" lon="2.93079">
        <ele>54.5</ele>
        <time>2020-07-01T13:21:55Z</time>
      </trkpt>
      <trkpt lat="48.95734" lon="2.93072">
        <ele>54.7</ele>
        <time>2020-07-01T13:21:56Z</time>
      </trkpt>
      <trkpt lat="48.95734" lon="2.93059">
        <ele>55.1</ele>
        <time>2020-07-01T13:21:57Z</time>
      </trkpt>
      <trkpt lat="48.95734" lon="2.9305">
        <ele>55.4</ele>
        <time>2020-07-01T13:21:58Z</time>
      </trkpt>
      <trkpt lat="48.95735" lon="2.9304">
        <ele>55.7</ele>
        <time>2020-07-01T13:21:59Z</time>
      </trkpt>
      <trkpt lat="48.95735" lon="2.93031">
        <ele>56</ele>
        <time>2020-07-01T13:22:00Z</time>
      </trkpt>
      <trkpt lat="48.95735" lon="2.93026">
        <ele>56.1</ele>
        <time>2020-07-01T13:22:01Z</time>
      </trkpt>
      <trkpt lat="48.95735" lon="2.93018">
        <ele>56.3</ele>
        <time>2020-07-01T13:22:02Z</time>
      </trkpt>
      <trkpt lat="48.95735" lon="2.93009">
        <ele>56.6</ele>
        <time>2020-07-01T13:22:03Z</time>
      </trkpt>
      <trkpt lat="48.95735" lon="2.93002">
        <ele>56.8</ele>
        <time>2020-07-01T13:22:04Z</time>
      </trkpt>
      <trkpt lat="48.95735" lon="2.92995">
        <ele>57</ele>
        <time>2020-07-01T13:22:05Z</time>
      </trkpt>
      <trkpt lat="48.95735" lon="2.92988">
        <ele>57.1</ele>
        <time>2020-07-01T13:22:06Z</time>
      </trkpt>
      <trkpt lat="48.95735" lon="2.92982">
        <ele>57.3</ele>
        <time>2020-07-01T13:22:07Z</time>
      </trkpt>
      <trkpt lat="48.95734" lon="2.92976">
        <ele>57.5</ele>
        <time>2020-07-01T13:22:08Z</time>
      </trkpt>
      <trkpt lat="48.95735" lon="2.9297">
        <ele>57.7</ele>
        <time>2020-07-01T13:22:09Z</time>
      </trkpt>
      <trkpt lat="48.95735" lon="2.92963">
        <ele>57.9</ele>
        <time>2020-07-01T13:22:10Z</time>
      </trkpt>
      <trkpt lat="48.95734" lon="2.92957">
        <ele>58.1</ele>
        <time>2020-07-01T13:22:11Z</time>
      </trkpt>
      <trkpt lat="48.95733" lon="2.9295">
        <ele>58.3</ele>
        <time>2020-07-01T13:22:12Z</time>
      </trkpt>
      <trkpt lat="48.95733" lon="2.92945">
        <ele>58.4</ele>
        <time>2020-07-01T13:22:13Z</time>
      </trkpt>
      <trkpt lat="48.95733" lon="2.92939">
        <ele>58.6</ele>
        <time>2020-07-01T13:22:14Z</time>
      </trkpt>
      <trkpt lat="48.95732" lon="2.92933">
        <ele>58.8</ele>
        <time>2020-07-01T13:22:15Z</time>
      </trkpt>
      <trkpt lat="48.95732" lon="2.92927">
        <ele>58.9</ele>
        <time>2020-07-01T13:22:16Z</time>
      </trkpt>
      <trkpt lat="48.95732" lon="2.92921">
        <ele>59.1</ele>
        <time>2020-07-01T13:22:17Z</time>
      </trkpt>
      <trkpt lat="48.95731" lon="2.92916">
        <ele>59.2</ele>
        <time>2020-07-01T13:22:18Z</time>
      </trkpt>
      <trkpt lat="48.95731" lon="2.9291">
        <ele>59.4</ele>
        <time>2020-07-01T13:22:19Z</time>
      </trkpt>
      <trkpt lat="48.9573" lon="2.92904">
        <ele>59.6</ele>
        <time>2020-07-01T13:22:20Z</time>
      </trkpt>
      <trkpt lat="48.95731" lon="2.92899">
        <ele>59.7</ele>
        <time>2020-07-01T13:22:21Z</time>
      </trkpt>
      <trkpt lat="48.95731" lon="2.92892">
        <ele>59.9</ele>
        <time>2020-07-01T13:22:22Z</time>
      </trkpt>
      <trkpt lat="48.95731" lon="2.92886">
        <ele>60</ele>
        <time>2020-07-01T13:22:23Z</time>
      </trkpt>
      <trkpt lat="48.95731" lon="2.9288">
        <ele>60.2</ele>
        <time>2020-07-01T13:22:24Z</time>
      </trkpt>
      <trkpt lat="48.95731" lon="2.92874">
        <ele>60.3</ele>
        <time>2020-07-01T13:22:25Z</time>
      </trkpt>
      <trkpt lat="48.9573" lon="2.92869">
        <ele>60.5</ele>
        <time>2020-07-01T13:22:26Z</time>
      </trkpt>
      <trkpt lat="48.9573" lon="2.92864">
        <ele>60.7</ele>
        <time>2020-07-01T13:22:27Z</time>
      </trkpt>
      <trkpt lat="48.95729" lon="2.92858">
        <ele>60.9</ele>
        <time>2020-07-01T13:22:28Z</time>
      </trkpt>
      <trkpt lat="48.95729" lon="2.92854">
        <ele>61.1</ele>
        <time>2020-07-01T13:22:29Z</time>
      </trkpt>
      <trkpt lat="48.95729" lon="2.9285">
        <ele>61.2</ele>
        <time>2020-07-01T13:22:30Z</time>
      </trkpt>
      <trkpt lat="48.95728" lon="2.92845">
        <ele>61.4</ele>
        <time>2020-07-01T13:22:31Z</time>
      </trkpt>
      <trkpt lat="48.95727" lon="2.9284">
        <ele>61.6</ele>
        <time>2020-07-01T13:22:32Z</time>
      </trkpt>
      <trkpt lat="48.95728" lon="2.92834">
        <ele>61.8</ele>
        <time>2020-07-01T13:22:33Z</time>
      </trkpt>
      <trkpt lat="48.95727" lon="2.92827">
        <ele>61.9</ele>
        <time>2020-07-01T13:22:34Z</time>
      </trkpt>
      <trkpt lat="48.95728" lon="2.92821">
        <ele>62.1</ele>
        <time>2020-07-01T13:22:35Z</time>
      </trkpt>
      <trkpt lat="48.95729" lon="2.92815">
        <ele>62.2</ele>
        <time>2020-07-01T13:22:36Z</time>
      </trkpt>
      <trkpt lat="48.95727" lon="2.92809">
        <ele>62.4</ele>
        <time>2020-07-01T13:22:37Z</time>
      </trkpt>
      <trkpt lat="48.95727" lon="2.92803">
        <ele>62.5</ele>
        <time>2020-07-01T13:22:38Z</time>
      </trkpt>
      <trkpt lat="48.95728" lon="2.92797">
        <ele>62.7</ele>
        <time>2020-07-01T13:22:39Z</time>
      </trkpt>
      <trkpt lat="48.95728" lon="2.92789">
        <ele>62.9</ele>
        <time>2020-07-01T13:22:40Z</time>
      </trkpt>
      <trkpt lat="48.95728" lon="2.92782">
        <ele>63.2</ele>
        <time>2020-07-01T13:22:41Z</time>
      </trkpt>
      <trkpt lat="48.95728" lon="2.92775">
        <ele>63.2</ele>
        <time>2020-07-01T13:22:42Z</time>
      </trkpt>
      <trkpt lat="48.95728" lon="2.92769">
        <ele>63.3</ele>
        <time>2020-07-01T13:22:43Z</time>
      </trkpt>
      <trkpt lat="48.95728" lon="2.92763">
        <ele>63.3</ele>
        <time>2020-07-01T13:22:44Z</time>
      </trkpt>
      <trkpt lat="48.95727" lon="2.92756">
        <ele>63.3</ele>
        <time>2020-07-01T13:22:45Z</time>
      </trkpt>
      <trkpt lat="48.95728" lon="2.92749">
        <ele>63.4</ele>
        <time>2020-07-01T13:22:46Z</time>
      </trkpt>
      <trkpt lat="48.95728" lon="2.92741">
        <ele>63.5</ele>
        <time>2020-07-01T13:22:47Z</time>
      </trkpt>
      <trkpt lat="48.95727" lon="2.92733">
        <ele>63.6</ele>
        <time>2020-07-01T13:22:48Z</time>
      </trkpt>
      <trkpt lat="48.95727" lon="2.92727">
        <ele>63.7</ele>
        <time>2020-07-01T13:22:49Z</time>
      </trkpt>
      <trkpt lat="48.95726" lon="2.9272">
        <ele>63.8</ele>
        <time>2020-07-01T13:22:50Z</time>
      </trkpt>
      <trkpt lat="48.95726" lon="2.92713">
        <ele>64</ele>
        <time>2020-07-01T13:22:51Z</time>
      </trkpt>
      <trkpt lat="48.95726" lon="2.92706">
        <ele>64.1</ele>
        <time>2020-07-01T13:22:52Z</time>
      </trkpt>
      <trkpt lat="48.95725" lon="2.927">
        <ele>64.3</ele>
        <time>2020-07-01T13:22:53Z</time>
      </trkpt>
      <trkpt lat="48.95726" lon="2.92694">
        <ele>64.4</ele>
        <time>2020-07-01T13:22:54Z</time>
      </trkpt>
      <trkpt lat="48.95725" lon="2.92686">
        <ele>64.5</ele>
        <time>2020-07-01T13:22:55Z</time>
      </trkpt>
      <trkpt lat="48.95725" lon="2.9268">
        <ele>64.7</ele>
        <time>2020-07-01T13:22:56Z</time>
      </trkpt>
      <trkpt lat="48.95724" lon="2.92674">
        <ele>64.8</ele>
        <time>2020-07-01T13:22:57Z</time>
      </trkpt>
      <trkpt lat="48.95725" lon="2.92669">
        <ele>65</ele>
        <time>2020-07-01T13:22:58Z</time>
      </trkpt>
      <trkpt lat="48.95725" lon="2.92663">
        <ele>65.1</ele>
        <time>2020-07-01T13:22:59Z</time>
      </trkpt>
      <trkpt lat="48.95726" lon="2.92657">
        <ele>65.3</ele>
        <time>2020-07-01T13:23:00Z</time>
      </trkpt>
      <trkpt lat="48.95724" lon="2.9265">
        <ele>65.4</ele>
        <time>2020-07-01T13:23:01Z</time>
      </trkpt>
      <trkpt lat="48.95723" lon="2.92643">
        <ele>65.6</ele>
        <time>2020-07-01T13:23:02Z</time>
      </trkpt>
      <trkpt lat="48.95723" lon="2.92635">
        <ele>65.8</ele>
        <time>2020-07-01T13:23:03Z</time>
      </trkpt>
      <trkpt lat="48.95722" lon="2.92628">
        <ele>66</ele>
        <time>2020-07-01T13:23:04Z</time>
      </trkpt>
      <trkpt lat="48.95723" lon="2.92622">
        <ele>66.1</ele>
        <time>2020-07-01T13:23:05Z</time>
      </trkpt>
      <trkpt lat="48.95723" lon="2.92616">
        <ele>66.3</ele>
        <time>2020-07-01T13:23:06Z</time>
      </trkpt>
      <trkpt lat="48.95724" lon="2.9261">
        <ele>66.4</ele>
        <time>2020-07-01T13:23:07Z</time>
      </trkpt>
      <trkpt lat="48.95724" lon="2.92604">
        <ele>66.6</ele>
        <time>2020-07-01T13:23:08Z</time>
      </trkpt>
      <trkpt lat="48.95724" lon="2.92598">
        <ele>66.7</ele>
        <time>2020-07-01T13:23:09Z</time>
      </trkpt>
      <trkpt lat="48.95723" lon="2.92591">
        <ele>66.9</ele>
        <time>2020-07-01T13:23:10Z</time>
      </trkpt>
      <trkpt lat="48.95725" lon="2.92586">
        <ele>67</ele>
        <time>2020-07-01T13:23:11Z</time>
      </trkpt>
      <trkpt lat="48.95724" lon="2.9258">
        <ele>67.2</ele>
        <time>2020-07-01T13:23:12Z</time>
      </trkpt>
      <trkpt lat="48.95723" lon="2.92573">
        <ele>67.3</ele>
        <time>2020-07-01T13:23:13Z</time>
      </trkpt>
      <trkpt lat="48.95723" lon="2.92566">
        <ele>67.5</ele>
        <time>2020-07-01T13:23:14Z</time>
      </trkpt>
      <trkpt lat="48.95723" lon="2.92558">
        <ele>67.7</ele>
        <time>2020-07-01T13:23:15Z</time>
      </trkpt>
      <trkpt lat="48.95723" lon="2.92553">
        <ele>67.8</ele>
        <time>2020-07-01T13:23:16Z</time>
      </trkpt>
      <trkpt lat="48.95723" lon="2.92546">
        <ele>68</ele>
        <time>2020-07-01T13:23:17Z</time>
      </trkpt>
      <trkpt lat="48.95723" lon="2.9254">
        <ele>68.1</ele>
        <time>2020-07-01T13:23:18Z</time>
      </trkpt>
      <trkpt lat="48.95723" lon="2.92534">
        <ele>68.3</ele>
        <time>2020-07-01T13:23:19Z</time>
      </trkpt>
      <trkpt lat="48.95723" lon="2.92529">
        <ele>68.4</ele>
        <time>2020-07-01T13:23:20Z</time>
      </trkpt>
      <trkpt lat="48.95723" lon="2.92525">
        <ele>68.5</ele>
        <time>2020-07-01T13:23:21Z</time>
      </trkpt>
      <trkpt lat="48.95722" lon="2.9252">
        <ele>68.6</ele>
        <time>2020-07-01T13:23:22Z</time>
      </trkpt>
      <trkpt lat="48.95721" lon="2.92515">
        <ele>68.8</ele>
        <time>2020-07-01T13:23:23Z</time>
      </trkpt>
      <trkpt lat="48.9572" lon="2.9251">
        <ele>68.9</ele>
        <time>2020-07-01T13:23:24Z</time>
      </trkpt>
      <trkpt lat="48.95721" lon="2.92504">
        <ele>69.1</ele>
        <time>2020-07-01T13:23:25Z</time>
      </trkpt>
      <trkpt lat="48.9572" lon="2.92499">
        <ele>69.3</ele>
        <time>2020-07-01T13:23:26Z</time>
      </trkpt>
      <trkpt lat="48.95721" lon="2.92494">
        <ele>69.4</ele>
        <time>2020-07-01T13:23:27Z</time>
      </trkpt>
      <trkpt lat="48.95718" lon="2.92489">
        <ele>69.6</ele>
        <time>2020-07-01T13:23:28Z</time>
      </trkpt>
      <trkpt lat="48.95718" lon="2.92484">
        <ele>69.7</ele>
        <time>2020-07-01T13:23:29Z</time>
      </trkpt>
      <trkpt lat="48.95718" lon="2.92478">
        <ele>69.9</ele>
        <time>2020-07-01T13:23:30Z</time>
      </trkpt>
      <trkpt lat="48.95718" lon="2.92473">
        <ele>70.1</ele>
        <time>2020-07-01T13:23:31Z</time>
      </trkpt>
      <trkpt lat="48.95717" lon="2.92467">
        <ele>70.3</ele>
        <time>2020-07-01T13:23:32Z</time>
      </trkpt>
      <trkpt lat="48.95717" lon="2.92461">
        <ele>70.4</ele>
        <time>2020-07-01T13:23:33Z</time>
      </trkpt>
      <trkpt lat="48.95718" lon="2.92455">
        <ele>70.7</ele>
        <time>2020-07-01T13:23:34Z</time>
      </trkpt>
      <trkpt lat="48.95718" lon="2.92449">
        <ele>70.8</ele>
        <time>2020-07-01T13:23:35Z</time>
      </trkpt>
      <trkpt lat="48.95717" lon="2.92443">
        <ele>71</ele>
        <time>2020-07-01T13:23:36Z</time>
      </trkpt>
      <trkpt lat="48.95717" lon="2.92438">
        <ele>71.2</ele>
        <time>2020-07-01T13:23:37Z</time>
      </trkpt>
      <trkpt lat="48.95717" lon="2.92433">
        <ele>71.5</ele>
        <time>2020-07-01T13:23:38Z</time>
      </trkpt>
      <trkpt lat="48.95717" lon="2.92427">
        <ele>71.7</ele>
        <time>2020-07-01T13:23:39Z</time>
      </trkpt>
      <trkpt lat="48.95716" lon="2.9242">
        <ele>71.9</ele>
        <time>2020-07-01T13:23:40Z</time>
      </trkpt>
      <trkpt lat="48.95716" lon="2.92414">
        <ele>72</ele>
        <time>2020-07-01T13:23:41Z</time>
      </trkpt>
      <trkpt lat="48.95716" lon="2.92409">
        <ele>72.2</ele>
        <time>2020-07-01T13:23:42Z</time>
      </trkpt>
      <trkpt lat="48.95716" lon="2.92402">
        <ele>72.4</ele>
        <time>2020-07-01T13:23:43Z</time>
      </trkpt>
      <trkpt lat="48.95716" lon="2.92397">
        <ele>72.5</ele>
        <time>2020-07-01T13:23:44Z</time>
      </trkpt>
      <trkpt lat="48.95716" lon="2.92393">
        <ele>72.6</ele>
        <time>2020-07-01T13:23:45Z</time>
      </trkpt>
      <trkpt lat="48.95715" lon="2.92387">
        <ele>72.8</ele>
        <time>2020-07-01T13:23:46Z</time>
      </trkpt>
      <trkpt lat="48.95715" lon="2.92382">
        <ele>72.9</ele>
        <time>2020-07-01T13:23:47Z</time>
      </trkpt>
      <trkpt lat="48.95715" lon="2.92377">
        <ele>73.1</ele>
        <time>2020-07-01T13:23:48Z</time>
      </trkpt>
      <trkpt lat="48.95716" lon="2.9237">
        <ele>73.2</ele>
        <time>2020-07-01T13:23:49Z</time>
      </trkpt>
      <trkpt lat="48.95715" lon="2.92364">
        <ele>73.4</ele>
        <time>2020-07-01T13:23:50Z</time>
      </trkpt>
      <trkpt lat="48.95714" lon="2.92358">
        <ele>73.5</ele>
        <time>2020-07-01T13:23:51Z</time>
      </trkpt>
      <trkpt lat="48.95714" lon="2.92352">
        <ele>73.6</ele>
        <time>2020-07-01T13:23:52Z</time>
      </trkpt>
      <trkpt lat="48.95714" lon="2.92348">
        <ele>73.8</ele>
        <time>2020-07-01T13:23:53Z</time>
      </trkpt>
      <trkpt lat="48.95713" lon="2.92342">
        <ele>73.9</ele>
        <time>2020-07-01T13:23:54Z</time>
      </trkpt>
      <trkpt lat="48.95713" lon="2.92336">
        <ele>74.1</ele>
        <time>2020-07-01T13:23:55Z</time>
      </trkpt>
      <trkpt lat="48.95713" lon="2.9233">
        <ele>74.3</ele>
        <time>2020-07-01T13:23:56Z</time>
      </trkpt>
      <trkpt lat="48.95713" lon="2.92324">
        <ele>74.5</ele>
        <time>2020-07-01T13:23:57Z</time>
      </trkpt>
      <trkpt lat="48.95711" lon="2.92319">
        <ele>74.7</ele>
        <time>2020-07-01T13:23:58Z</time>
      </trkpt>
      <trkpt lat="48.95711" lon="2.92313">
        <ele>74.8</ele>
        <time>2020-07-01T13:23:59Z</time>
      </trkpt>
      <trkpt lat="48.9571" lon="2.92307">
        <ele>75</ele>
        <time>2020-07-01T13:24:00Z</time>
      </trkpt>
      <trkpt lat="48.9571" lon="2.92302">
        <ele>75.1</ele>
        <time>2020-07-01T13:24:01Z</time>
      </trkpt>
      <trkpt lat="48.95711" lon="2.92295">
        <ele>75.3</ele>
        <time>2020-07-01T13:24:02Z</time>
      </trkpt>
      <trkpt lat="48.95711" lon="2.92289">
        <ele>75.4</ele>
        <time>2020-07-01T13:24:03Z</time>
      </trkpt>
      <trkpt lat="48.95711" lon="2.92283">
        <ele>75.6</ele>
        <time>2020-07-01T13:24:04Z</time>
      </trkpt>
      <trkpt lat="48.95711" lon="2.92276">
        <ele>75.8</ele>
        <time>2020-07-01T13:24:05Z</time>
      </trkpt>
      <trkpt lat="48.95711" lon="2.92269">
        <ele>75.9</ele>
        <time>2020-07-01T13:24:06Z</time>
      </trkpt>
      <trkpt lat="48.95711" lon="2.92264">
        <ele>76</ele>
        <time>2020-07-01T13:24:07Z</time>
      </trkpt>
      <trkpt lat="48.9571" lon="2.92259">
        <ele>76.1</ele>
        <time>2020-07-01T13:24:08Z</time>
      </trkpt>
      <trkpt lat="48.9571" lon="2.92253">
        <ele>76.2</ele>
        <time>2020-07-01T13:24:09Z</time>
      </trkpt>
      <trkpt lat="48.95711" lon="2.92246">
        <ele>76.3</ele>
        <time>2020-07-01T13:24:10Z</time>
      </trkpt>
      <trkpt lat="48.95711" lon="2.92241">
        <ele>76.3</ele>
        <time>2020-07-01T13:24:11Z</time>
      </trkpt>
      <trkpt lat="48.95711" lon="2.92235">
        <ele>76.4</ele>
        <time>2020-07-01T13:24:12Z</time>
      </trkpt>
      <trkpt lat="48.95711" lon="2.92229">
        <ele>76.5</ele>
        <time>2020-07-01T13:24:13Z</time>
      </trkpt>
      <trkpt lat="48.95711" lon="2.92222">
        <ele>76.6</ele>
        <time>2020-07-01T13:24:14Z</time>
      </trkpt>
      <trkpt lat="48.95712" lon="2.92217">
        <ele>76.7</ele>
        <time>2020-07-01T13:24:15Z</time>
      </trkpt>
      <trkpt lat="48.95712" lon="2.92211">
        <ele>76.7</ele>
        <time>2020-07-01T13:24:16Z</time>
      </trkpt>
      <trkpt lat="48.95712" lon="2.92205">
        <ele>76.8</ele>
        <time>2020-07-01T13:24:17Z</time>
      </trkpt>
      <trkpt lat="48.95711" lon="2.92199">
        <ele>76.9</ele>
        <time>2020-07-01T13:24:18Z</time>
      </trkpt>
      <trkpt lat="48.95711" lon="2.92192">
        <ele>77</ele>
        <time>2020-07-01T13:24:19Z</time>
      </trkpt>
      <trkpt lat="48.9571" lon="2.92186">
        <ele>77</ele>
        <time>2020-07-01T13:24:20Z</time>
      </trkpt>
      <trkpt lat="48.95711" lon="2.92179">
        <ele>77.1</ele>
        <time>2020-07-01T13:24:21Z</time>
      </trkpt>
      <trkpt lat="48.95711" lon="2.9217">
        <ele>77.1</ele>
        <time>2020-07-01T13:24:22Z</time>
      </trkpt>
      <trkpt lat="48.95711" lon="2.92163">
        <ele>77.2</ele>
        <time>2020-07-01T13:24:23Z</time>
      </trkpt>
      <trkpt lat="48.95711" lon="2.92158">
        <ele>77.2</ele>
        <time>2020-07-01T13:24:24Z</time>
      </trkpt>
      <trkpt lat="48.9571" lon="2.92153">
        <ele>77.1</ele>
        <time>2020-07-01T13:24:25Z</time>
      </trkpt>
      <trkpt lat="48.95711" lon="2.92147">
        <ele>77.1</ele>
        <time>2020-07-01T13:24:26Z</time>
      </trkpt>
      <trkpt lat="48.95711" lon="2.92141">
        <ele>77.1</ele>
        <time>2020-07-01T13:24:27Z</time>
      </trkpt>
      <trkpt lat="48.95709" lon="2.92135">
        <ele>77.1</ele>
        <time>2020-07-01T13:24:28Z</time>
      </trkpt>
      <trkpt lat="48.95709" lon="2.92127">
        <ele>77.1</ele>
        <time>2020-07-01T13:24:29Z</time>
      </trkpt>
      <trkpt lat="48.95709" lon="2.92121">
        <ele>77</ele>
        <time>2020-07-01T13:24:30Z</time>
      </trkpt>
      <trkpt lat="48.95709" lon="2.92114">
        <ele>77</ele>
        <time>2020-07-01T13:24:31Z</time>
      </trkpt>
      <trkpt lat="48.95709" lon="2.92107">
        <ele>77</ele>
        <time>2020-07-01T13:24:32Z</time>
      </trkpt>
      <trkpt lat="48.95708" lon="2.92099">
        <ele>76.9</ele>
        <time>2020-07-01T13:24:33Z</time>
      </trkpt>
      <trkpt lat="48.95708" lon="2.92091">
        <ele>76.9</ele>
        <time>2020-07-01T13:24:34Z</time>
      </trkpt>
      <trkpt lat="48.95707" lon="2.92083">
        <ele>76.8</ele>
        <time>2020-07-01T13:24:35Z</time>
      </trkpt>
      <trkpt lat="48.95708" lon="2.92073">
        <ele>76.8</ele>
        <time>2020-07-01T13:24:36Z</time>
      </trkpt>
      <trkpt lat="48.95708" lon="2.92065">
        <ele>76.7</ele>
        <time>2020-07-01T13:24:37Z</time>
      </trkpt>
      <trkpt lat="48.95707" lon="2.92056">
        <ele>76.7</ele>
        <time>2020-07-01T13:24:38Z</time>
      </trkpt>
      <trkpt lat="48.95707" lon="2.92046">
        <ele>76.6</ele>
        <time>2020-07-01T13:24:39Z</time>
      </trkpt>
      <trkpt lat="48.95707" lon="2.92037">
        <ele>76.6</ele>
        <time>2020-07-01T13:24:40Z</time>
      </trkpt>
      <trkpt lat="48.95707" lon="2.92029">
        <ele>76.6</ele>
        <time>2020-07-01T13:24:41Z</time>
      </trkpt>
      <trkpt lat="48.95706" lon="2.92021">
        <ele>76.7</ele>
        <time>2020-07-01T13:24:42Z</time>
      </trkpt>
      <trkpt lat="48.95706" lon="2.92012">
        <ele>76.6</ele>
        <time>2020-07-01T13:24:43Z</time>
      </trkpt>
      <trkpt lat="48.95706" lon="2.92004">
        <ele>76.5</ele>
        <time>2020-07-01T13:24:44Z</time>
      </trkpt>
      <trkpt lat="48.95706" lon="2.91995">
        <ele>76.4</ele>
        <time>2020-07-01T13:24:45Z</time>
      </trkpt>
      <trkpt lat="48.95704" lon="2.91989">
        <ele>76.3</ele>
        <time>2020-07-01T13:24:46Z</time>
      </trkpt>
      <trkpt lat="48.95705" lon="2.9198">
        <ele>76.2</ele>
        <time>2020-07-01T13:24:47Z</time>
      </trkpt>
      <trkpt lat="48.95704" lon="2.91969">
        <ele>76.1</ele>
        <time>2020-07-01T13:24:48Z</time>
      </trkpt>
      <trkpt lat="48.95704" lon="2.91961">
        <ele>75.9</ele>
        <time>2020-07-01T13:24:49Z</time>
      </trkpt>
      <trkpt lat="48.95704" lon="2.91952">
        <ele>75.9</ele>
        <time>2020-07-01T13:24:50Z</time>
      </trkpt>
      <trkpt lat="48.95703" lon="2.91944">
        <ele>75.8</ele>
        <time>2020-07-01T13:24:51Z</time>
      </trkpt>
      <trkpt lat="48.95704" lon="2.91936">
        <ele>75.7</ele>
        <time>2020-07-01T13:24:52Z</time>
      </trkpt>
      <trkpt lat="48.95703" lon="2.91928">
        <ele>75.7</ele>
        <time>2020-07-01T13:24:53Z</time>
      </trkpt>
      <trkpt lat="48.95703" lon="2.91921">
        <ele>75.6</ele>
        <time>2020-07-01T13:24:54Z</time>
      </trkpt>
      <trkpt lat="48.95703" lon="2.91912">
        <ele>75.5</ele>
        <time>2020-07-01T13:24:55Z</time>
      </trkpt>
      <trkpt lat="48.95703" lon="2.91904">
        <ele>75.4</ele>
        <time>2020-07-01T13:24:56Z</time>
      </trkpt>
      <trkpt lat="48.95701" lon="2.91894">
        <ele>75.4</ele>
        <time>2020-07-01T13:24:57Z</time>
      </trkpt>
      <trkpt lat="48.95701" lon="2.91883">
        <ele>75.2</ele>
        <time>2020-07-01T13:24:58Z</time>
      </trkpt>
      <trkpt lat="48.95701" lon="2.91873">
        <ele>75.1</ele>
        <time>2020-07-01T13:24:59Z</time>
      </trkpt>
      <trkpt lat="48.957" lon="2.91864">
        <ele>75.1</ele>
        <time>2020-07-01T13:25:00Z</time>
      </trkpt>
      <trkpt lat="48.957" lon="2.91853">
        <ele>75</ele>
        <time>2020-07-01T13:25:01Z</time>
      </trkpt>
      <trkpt lat="48.957" lon="2.91846">
        <ele>75</ele>
        <time>2020-07-01T13:25:02Z</time>
      </trkpt>
      <trkpt lat="48.957" lon="2.91838">
        <ele>74.9</ele>
        <time>2020-07-01T13:25:03Z</time>
      </trkpt>
      <trkpt lat="48.957" lon="2.91828">
        <ele>74.9</ele>
        <time>2020-07-01T13:25:04Z</time>
      </trkpt>
      <trkpt lat="48.957" lon="2.91819">
        <ele>74.8</ele>
        <time>2020-07-01T13:25:05Z</time>
      </trkpt>
      <trkpt lat="48.95699" lon="2.9181">
        <ele>74.7</ele>
        <time>2020-07-01T13:25:06Z</time>
      </trkpt>
      <trkpt lat="48.95699" lon="2.91799">
        <ele>74.6</ele>
        <time>2020-07-01T13:25:07Z</time>
      </trkpt>
      <trkpt lat="48.95699" lon="2.91789">
        <ele>74.5</ele>
        <time>2020-07-01T13:25:08Z</time>
      </trkpt>
      <trkpt lat="48.95698" lon="2.91782">
        <ele>74.5</ele>
        <time>2020-07-01T13:25:09Z</time>
      </trkpt>
      <trkpt lat="48.95698" lon="2.91771">
        <ele>74.3</ele>
        <time>2020-07-01T13:25:10Z</time>
      </trkpt>
      <trkpt lat="48.95698" lon="2.91761">
        <ele>74.3</ele>
        <time>2020-07-01T13:25:11Z</time>
      </trkpt>
      <trkpt lat="48.95698" lon="2.91751">
        <ele>74.2</ele>
        <time>2020-07-01T13:25:12Z</time>
      </trkpt>
      <trkpt lat="48.95698" lon="2.91743">
        <ele>74.1</ele>
        <time>2020-07-01T13:25:13Z</time>
      </trkpt>
      <trkpt lat="48.95698" lon="2.91735">
        <ele>74</ele>
        <time>2020-07-01T13:25:14Z</time>
      </trkpt>
      <trkpt lat="48.95697" lon="2.91726">
        <ele>74</ele>
        <time>2020-07-01T13:25:15Z</time>
      </trkpt>
      <trkpt lat="48.95697" lon="2.91719">
        <ele>73.9</ele>
        <time>2020-07-01T13:25:16Z</time>
      </trkpt>
      <trkpt lat="48.95697" lon="2.91712">
        <ele>73.9</ele>
        <time>2020-07-01T13:25:17Z</time>
      </trkpt>
      <trkpt lat="48.95697" lon="2.91707">
        <ele>73.8</ele>
        <time>2020-07-01T13:25:18Z</time>
      </trkpt>
      <trkpt lat="48.95697" lon="2.91699">
        <ele>73.8</ele>
        <time>2020-07-01T13:25:19Z</time>
      </trkpt>
      <trkpt lat="48.95697" lon="2.91695">
        <ele>73.7</ele>
        <time>2020-07-01T13:25:20Z</time>
      </trkpt>
      <trkpt lat="48.95697" lon="2.91694">
        <ele>73.7</ele>
        <time>2020-07-01T13:25:21Z</time>
      </trkpt>
      <trkpt lat="48.95697" lon="2.91694">
        <ele>73.7</ele>
        <time>2020-07-01T13:25:22Z</time>
      </trkpt>
      <trkpt lat="48.95696" lon="2.91696">
        <ele>73.7</ele>
        <time>2020-07-01T13:25:23Z</time>
      </trkpt>
      <trkpt lat="48.95696" lon="2.91695">
        <ele>73.7</ele>
        <time>2020-07-01T13:25:24Z</time>
      </trkpt>
      <trkpt lat="48.95695" lon="2.91697">
        <ele>73.7</ele>
        <time>2020-07-01T13:25:25Z</time>
      </trkpt>
      <trkpt lat="48.95695" lon="2.91694">
        <ele>73.7</ele>
        <time>2020-07-01T13:25:26Z</time>
      </trkpt>
      <trkpt lat="48.95696" lon="2.91693">
        <ele>73.7</ele>
        <time>2020-07-01T13:25:27Z</time>
      </trkpt>
      <trkpt lat="48.95696" lon="2.91693">
        <ele>73.7</ele>
        <time>2020-07-01T13:25:28Z</time>
      </trkpt>
      <trkpt lat="48.95696" lon="2.91692">
        <ele>73.7</ele>
        <time>2020-07-01T13:25:29Z</time>
      </trkpt>
      <trkpt lat="48.95696" lon="2.91692">
        <ele>73.7</ele>
        <time>2020-07-01T13:25:30Z</time>
      </trkpt>
      <trkpt lat="48.95697" lon="2.91691">
        <ele>73.7</ele>
        <time>2020-07-01T13:25:31Z</time>
      </trkpt>
      <trkpt lat="48.95697" lon="2.91691">
        <ele>73.7</ele>
        <time>2020-07-01T13:25:32Z</time>
      </trkpt>
      <trkpt lat="48.95697" lon="2.9169">
        <ele>73.7</ele>
        <time>2020-07-01T13:25:33Z</time>
      </trkpt>
      <trkpt lat="48.95697" lon="2.91683">
        <ele>74.1</ele>
        <time>2020-07-01T13:25:34Z</time>
      </trkpt>
      <trkpt lat="48.95697" lon="2.91678">
        <ele>74</ele>
        <time>2020-07-01T13:25:35Z</time>
      </trkpt>
      <trkpt lat="48.95697" lon="2.91673">
        <ele>74</ele>
        <time>2020-07-01T13:25:36Z</time>
      </trkpt>
      <trkpt lat="48.95697" lon="2.91669">
        <ele>73.9</ele>
        <time>2020-07-01T13:25:37Z</time>
      </trkpt>
      <trkpt lat="48.95696" lon="2.91663">
        <ele>73.8</ele>
        <time>2020-07-01T13:25:38Z</time>
      </trkpt>
      <trkpt lat="48.95696" lon="2.91654">
        <ele>73.7</ele>
        <time>2020-07-01T13:25:39Z</time>
      </trkpt>
      <trkpt lat="48.95696" lon="2.91641">
        <ele>73.6</ele>
        <time>2020-07-01T13:25:40Z</time>
      </trkpt>
      <trkpt lat="48.95695" lon="2.91636">
        <ele>73.5</ele>
        <time>2020-07-01T13:25:41Z</time>
      </trkpt>
      <trkpt lat="48.95695" lon="2.91631">
        <ele>73.4</ele>
        <time>2020-07-01T13:25:42Z</time>
      </trkpt>
      <trkpt lat="48.95694" lon="2.91626">
        <ele>73.4</ele>
        <time>2020-07-01T13:25:43Z</time>
      </trkpt>
      <trkpt lat="48.95695" lon="2.9162">
        <ele>73.3</ele>
        <time>2020-07-01T13:25:44Z</time>
      </trkpt>
      <trkpt lat="48.95695" lon="2.91617">
        <ele>73.3</ele>
        <time>2020-07-01T13:25:45Z</time>
      </trkpt>
      <trkpt lat="48.95694" lon="2.91605">
        <ele>73.2</ele>
        <time>2020-07-01T13:25:46Z</time>
      </trkpt>
      <trkpt lat="48.95694" lon="2.916">
        <ele>73.1</ele>
        <time>2020-07-01T13:25:47Z</time>
      </trkpt>
      <trkpt lat="48.95694" lon="2.91593">
        <ele>73.1</ele>
        <time>2020-07-01T13:25:48Z</time>
      </trkpt>
      <trkpt lat="48.95693" lon="2.91587">
        <ele>73</ele>
        <time>2020-07-01T13:25:49Z</time>
      </trkpt>
      <trkpt lat="48.95694" lon="2.91581">
        <ele>73</ele>
        <time>2020-07-01T13:25:50Z</time>
      </trkpt>
      <trkpt lat="48.95694" lon="2.91574">
        <ele>73</ele>
        <time>2020-07-01T13:25:51Z</time>
      </trkpt>
      <trkpt lat="48.95693" lon="2.91568">
        <ele>72.9</ele>
        <time>2020-07-01T13:25:52Z</time>
      </trkpt>
      <trkpt lat="48.95692" lon="2.91563">
        <ele>72.9</ele>
        <time>2020-07-01T13:25:53Z</time>
      </trkpt>
      <trkpt lat="48.95692" lon="2.91557">
        <ele>72.8</ele>
        <time>2020-07-01T13:25:54Z</time>
      </trkpt>
      <trkpt lat="48.9569" lon="2.91552">
        <ele>72.8</ele>
        <time>2020-07-01T13:25:55Z</time>
      </trkpt>
      <trkpt lat="48.95689" lon="2.91545">
        <ele>72.7</ele>
        <time>2020-07-01T13:25:56Z</time>
      </trkpt>
      <trkpt lat="48.95689" lon="2.91544">
        <ele>72.7</ele>
        <time>2020-07-01T13:25:57Z</time>
      </trkpt>
      <trkpt lat="48.95689" lon="2.91545">
        <ele>72.7</ele>
        <time>2020-07-01T13:25:58Z</time>
      </trkpt>
      <trkpt lat="48.95689" lon="2.91546">
        <ele>72.7</ele>
        <time>2020-07-01T13:25:59Z</time>
      </trkpt>
      <trkpt lat="48.95689" lon="2.91546">
        <ele>72.7</ele>
        <time>2020-07-01T13:26:00Z</time>
      </trkpt>
      <trkpt lat="48.95689" lon="2.91547">
        <ele>72.7</ele>
        <time>2020-07-01T13:26:01Z</time>
      </trkpt>
      <trkpt lat="48.95689" lon="2.91547">
        <ele>72.7</ele>
        <time>2020-07-01T13:26:02Z</time>
      </trkpt>
      <trkpt lat="48.95689" lon="2.91547">
        <ele>72.7</ele>
        <time>2020-07-01T13:26:03Z</time>
      </trkpt>
      <trkpt lat="48.95689" lon="2.91548">
        <ele>72.7</ele>
        <time>2020-07-01T13:26:04Z</time>
      </trkpt>
      <trkpt lat="48.9569" lon="2.91548">
        <ele>72.7</ele>
        <time>2020-07-01T13:26:05Z</time>
      </trkpt>
      <trkpt lat="48.9569" lon="2.91549">
        <ele>72.7</ele>
        <time>2020-07-01T13:26:06Z</time>
      </trkpt>
      <trkpt lat="48.9569" lon="2.9155">
        <ele>72.7</ele>
        <time>2020-07-01T13:26:07Z</time>
      </trkpt>
      <trkpt lat="48.9569" lon="2.91549">
        <ele>72.7</ele>
        <time>2020-07-01T13:26:08Z</time>
      </trkpt>
      <trkpt lat="48.95691" lon="2.91538">
        <ele>72.6</ele>
        <time>2020-07-01T13:26:32Z</time>
      </trkpt>
      <trkpt lat="48.95691" lon="2.91534">
        <ele>72.6</ele>
        <time>2020-07-01T13:26:33Z</time>
      </trkpt>
      <trkpt lat="48.95691" lon="2.91526">
        <ele>72.5</ele>
        <time>2020-07-01T13:26:34Z</time>
      </trkpt>
      <trkpt lat="48.95691" lon="2.91522">
        <ele>72.5</ele>
        <time>2020-07-01T13:26:35Z</time>
      </trkpt>
      <trkpt lat="48.95691" lon="2.91517">
        <ele>72.5</ele>
        <time>2020-07-01T13:26:36Z</time>
      </trkpt>
      <trkpt lat="48.95691" lon="2.9151">
        <ele>72.5</ele>
        <time>2020-07-01T13:26:37Z</time>
      </trkpt>
      <trkpt lat="48.95692" lon="2.91501">
        <ele>72.4</ele>
        <time>2020-07-01T13:26:38Z</time>
      </trkpt>
      <trkpt lat="48.95692" lon="2.91492">
        <ele>72.2</ele>
        <time>2020-07-01T13:26:39Z</time>
      </trkpt>
      <trkpt lat="48.95691" lon="2.91483">
        <ele>72</ele>
        <time>2020-07-01T13:26:40Z</time>
      </trkpt>
      <trkpt lat="48.95691" lon="2.91475">
        <ele>71.9</ele>
        <time>2020-07-01T13:26:41Z</time>
      </trkpt>
      <trkpt lat="48.9569" lon="2.91467">
        <ele>71.7</ele>
        <time>2020-07-01T13:26:42Z</time>
      </trkpt>
      <trkpt lat="48.9569" lon="2.9146">
        <ele>71.6</ele>
        <time>2020-07-01T13:26:43Z</time>
      </trkpt>
      <trkpt lat="48.95689" lon="2.91451">
        <ele>71.4</ele>
        <time>2020-07-01T13:26:44Z</time>
      </trkpt>
      <trkpt lat="48.95689" lon="2.91442">
        <ele>71.3</ele>
        <time>2020-07-01T13:26:45Z</time>
      </trkpt>
      <trkpt lat="48.95689" lon="2.91431">
        <ele>71.2</ele>
        <time>2020-07-01T13:26:46Z</time>
      </trkpt>
      <trkpt lat="48.95688" lon="2.91424">
        <ele>71.1</ele>
        <time>2020-07-01T13:26:47Z</time>
      </trkpt>
      <trkpt lat="48.95688" lon="2.91417">
        <ele>71</ele>
        <time>2020-07-01T13:26:48Z</time>
      </trkpt>
      <trkpt lat="48.95687" lon="2.91408">
        <ele>71</ele>
        <time>2020-07-01T13:26:49Z</time>
      </trkpt>
      <trkpt lat="48.95687" lon="2.91398">
        <ele>70.9</ele>
        <time>2020-07-01T13:26:50Z</time>
      </trkpt>
      <trkpt lat="48.95685" lon="2.91387">
        <ele>70.8</ele>
        <time>2020-07-01T13:26:51Z</time>
      </trkpt>
      <trkpt lat="48.95685" lon="2.9138">
        <ele>70.7</ele>
        <time>2020-07-01T13:26:52Z</time>
      </trkpt>
      <trkpt lat="48.95685" lon="2.9137">
        <ele>70.7</ele>
        <time>2020-07-01T13:26:53Z</time>
      </trkpt>
      <trkpt lat="48.95684" lon="2.91362">
        <ele>70.6</ele>
        <time>2020-07-01T13:26:54Z</time>
      </trkpt>
      <trkpt lat="48.95684" lon="2.91354">
        <ele>70.6</ele>
        <time>2020-07-01T13:26:55Z</time>
      </trkpt>
      <trkpt lat="48.95684" lon="2.91342">
        <ele>70.6</ele>
        <time>2020-07-01T13:26:56Z</time>
      </trkpt>
      <trkpt lat="48.95684" lon="2.91333">
        <ele>70.6</ele>
        <time>2020-07-01T13:26:57Z</time>
      </trkpt>
      <trkpt lat="48.95684" lon="2.91322">
        <ele>70.3</ele>
        <time>2020-07-01T13:26:58Z</time>
      </trkpt>
      <trkpt lat="48.95684" lon="2.91315">
        <ele>70.2</ele>
        <time>2020-07-01T13:26:59Z</time>
      </trkpt>
      <trkpt lat="48.95684" lon="2.91305">
        <ele>70.1</ele>
        <time>2020-07-01T13:27:00Z</time>
      </trkpt>
      <trkpt lat="48.95683" lon="2.91296">
        <ele>70</ele>
        <time>2020-07-01T13:27:01Z</time>
      </trkpt>
      <trkpt lat="48.95683" lon="2.91285">
        <ele>69.9</ele>
        <time>2020-07-01T13:27:02Z</time>
      </trkpt>
      <trkpt lat="48.95682" lon="2.91277">
        <ele>69.8</ele>
        <time>2020-07-01T13:27:03Z</time>
      </trkpt>
      <trkpt lat="48.95682" lon="2.91267">
        <ele>69.7</ele>
        <time>2020-07-01T13:27:04Z</time>
      </trkpt>
      <trkpt lat="48.95682" lon="2.91257">
        <ele>69.7</ele>
        <time>2020-07-01T13:27:05Z</time>
      </trkpt>
      <trkpt lat="48.95682" lon="2.91249">
        <ele>69.7</ele>
        <time>2020-07-01T13:27:06Z</time>
      </trkpt>
      <trkpt lat="48.95682" lon="2.9124">
        <ele>69.6</ele>
        <time>2020-07-01T13:27:07Z</time>
      </trkpt>
      <trkpt lat="48.95682" lon="2.9123">
        <ele>69.6</ele>
        <time>2020-07-01T13:27:08Z</time>
      </trkpt>
      <trkpt lat="48.95682" lon="2.9122">
        <ele>69.5</ele>
        <time>2020-07-01T13:27:09Z</time>
      </trkpt>
      <trkpt lat="48.95681" lon="2.9121">
        <ele>69.5</ele>
        <time>2020-07-01T13:27:10Z</time>
      </trkpt>
      <trkpt lat="48.95681" lon="2.912">
        <ele>69.5</ele>
        <time>2020-07-01T13:27:11Z</time>
      </trkpt>
      <trkpt lat="48.9568" lon="2.9119">
        <ele>69.6</ele>
        <time>2020-07-01T13:27:12Z</time>
      </trkpt>
      <trkpt lat="48.95681" lon="2.9118">
        <ele>69.7</ele>
        <time>2020-07-01T13:27:13Z</time>
      </trkpt>
      <trkpt lat="48.95681" lon="2.91169">
        <ele>69.5</ele>
        <time>2020-07-01T13:27:14Z</time>
      </trkpt>
      <trkpt lat="48.9568" lon="2.91159">
        <ele>69.4</ele>
        <time>2020-07-01T13:27:15Z</time>
      </trkpt>
      <trkpt lat="48.95679" lon="2.91148">
        <ele>69.3</ele>
        <time>2020-07-01T13:27:16Z</time>
      </trkpt>
      <trkpt lat="48.95679" lon="2.91137">
        <ele>69</ele>
        <time>2020-07-01T13:27:17Z</time>
      </trkpt>
      <trkpt lat="48.95679" lon="2.91127">
        <ele>69</ele>
        <time>2020-07-01T13:27:18Z</time>
      </trkpt>
      <trkpt lat="48.95679" lon="2.91117">
        <ele>68.9</ele>
        <time>2020-07-01T13:27:19Z</time>
      </trkpt>
      <trkpt lat="48.95678" lon="2.91107">
        <ele>68.8</ele>
        <time>2020-07-01T13:27:20Z</time>
      </trkpt>
      <trkpt lat="48.95678" lon="2.91097">
        <ele>68.7</ele>
        <time>2020-07-01T13:27:21Z</time>
      </trkpt>
      <trkpt lat="48.95678" lon="2.91086">
        <ele>68.7</ele>
        <time>2020-07-01T13:27:22Z</time>
      </trkpt>
      <trkpt lat="48.95678" lon="2.91076">
        <ele>68.6</ele>
        <time>2020-07-01T13:27:23Z</time>
      </trkpt>
      <trkpt lat="48.95678" lon="2.91065">
        <ele>68.6</ele>
        <time>2020-07-01T13:27:24Z</time>
      </trkpt>
      <trkpt lat="48.95677" lon="2.91055">
        <ele>68.5</ele>
        <time>2020-07-01T13:27:25Z</time>
      </trkpt>
      <trkpt lat="48.95677" lon="2.91044">
        <ele>68.4</ele>
        <time>2020-07-01T13:27:26Z</time>
      </trkpt>
      <trkpt lat="48.95676" lon="2.91033">
        <ele>68.3</ele>
        <time>2020-07-01T13:27:27Z</time>
      </trkpt>
      <trkpt lat="48.95676" lon="2.91023">
        <ele>68.2</ele>
        <time>2020-07-01T13:27:28Z</time>
      </trkpt>
      <trkpt lat="48.95676" lon="2.91013">
        <ele>68.1</ele>
        <time>2020-07-01T13:27:29Z</time>
      </trkpt>
      <trkpt lat="48.95676" lon="2.91003">
        <ele>67.6</ele>
        <time>2020-07-01T13:27:30Z</time>
      </trkpt>
      <trkpt lat="48.95675" lon="2.90992">
        <ele>67.3</ele>
        <time>2020-07-01T13:27:31Z</time>
      </trkpt>
      <trkpt lat="48.95675" lon="2.90982">
        <ele>67.1</ele>
        <time>2020-07-01T13:27:32Z</time>
      </trkpt>
      <trkpt lat="48.95675" lon="2.90972">
        <ele>67</ele>
        <time>2020-07-01T13:27:33Z</time>
      </trkpt>
      <trkpt lat="48.95675" lon="2.90961">
        <ele>66.9</ele>
        <time>2020-07-01T13:27:34Z</time>
      </trkpt>
      <trkpt lat="48.95675" lon="2.90951">
        <ele>66.8</ele>
        <time>2020-07-01T13:27:35Z</time>
      </trkpt>
      <trkpt lat="48.95675" lon="2.9094">
        <ele>66.6</ele>
        <time>2020-07-01T13:27:36Z</time>
      </trkpt>
      <trkpt lat="48.95674" lon="2.9093">
        <ele>66.5</ele>
        <time>2020-07-01T13:27:37Z</time>
      </trkpt>
      <trkpt lat="48.95674" lon="2.90919">
        <ele>66.3</ele>
        <time>2020-07-01T13:27:38Z</time>
      </trkpt>
      <trkpt lat="48.95674" lon="2.90909">
        <ele>66.2</ele>
        <time>2020-07-01T13:27:39Z</time>
      </trkpt>
      <trkpt lat="48.95674" lon="2.90898">
        <ele>66.1</ele>
        <time>2020-07-01T13:27:40Z</time>
      </trkpt>
      <trkpt lat="48.95673" lon="2.90887">
        <ele>66</ele>
        <time>2020-07-01T13:27:41Z</time>
      </trkpt>
      <trkpt lat="48.95673" lon="2.90876">
        <ele>65.9</ele>
        <time>2020-07-01T13:27:42Z</time>
      </trkpt>
      <trkpt lat="48.95672" lon="2.90865">
        <ele>65.8</ele>
        <time>2020-07-01T13:27:43Z</time>
      </trkpt>
      <trkpt lat="48.95672" lon="2.90854">
        <ele>65.7</ele>
        <time>2020-07-01T13:27:44Z</time>
      </trkpt>
      <trkpt lat="48.95671" lon="2.90844">
        <ele>65.6</ele>
        <time>2020-07-01T13:27:45Z</time>
      </trkpt>
      <trkpt lat="48.95671" lon="2.90834">
        <ele>65.5</ele>
        <time>2020-07-01T13:27:46Z</time>
      </trkpt>
      <trkpt lat="48.9567" lon="2.90823">
        <ele>65.4</ele>
        <time>2020-07-01T13:27:47Z</time>
      </trkpt>
      <trkpt lat="48.9567" lon="2.90812">
        <ele>65.3</ele>
        <time>2020-07-01T13:27:48Z</time>
      </trkpt>
      <trkpt lat="48.9567" lon="2.90802">
        <ele>65.1</ele>
        <time>2020-07-01T13:27:49Z</time>
      </trkpt>
      <trkpt lat="48.95669" lon="2.90791">
        <ele>65</ele>
        <time>2020-07-01T13:27:50Z</time>
      </trkpt>
      <trkpt lat="48.95669" lon="2.9078">
        <ele>64.9</ele>
        <time>2020-07-01T13:27:51Z</time>
      </trkpt>
      <trkpt lat="48.95669" lon="2.90769">
        <ele>64.8</ele>
        <time>2020-07-01T13:27:52Z</time>
      </trkpt>
      <trkpt lat="48.95668" lon="2.90759">
        <ele>64.8</ele>
        <time>2020-07-01T13:27:53Z</time>
      </trkpt>
      <trkpt lat="48.95668" lon="2.90749">
        <ele>64.9</ele>
        <time>2020-07-01T13:27:54Z</time>
      </trkpt>
      <trkpt lat="48.95668" lon="2.90738">
        <ele>64.9</ele>
        <time>2020-07-01T13:27:55Z</time>
      </trkpt>
      <trkpt lat="48.95668" lon="2.90727">
        <ele>64.6</ele>
        <time>2020-07-01T13:27:56Z</time>
      </trkpt>
      <trkpt lat="48.95668" lon="2.90715">
        <ele>64.5</ele>
        <time>2020-07-01T13:27:57Z</time>
      </trkpt>
      <trkpt lat="48.95668" lon="2.90704">
        <ele>64.3</ele>
        <time>2020-07-01T13:27:58Z</time>
      </trkpt>
      <trkpt lat="48.95667" lon="2.90692">
        <ele>64.1</ele>
        <time>2020-07-01T13:27:59Z</time>
      </trkpt>
      <trkpt lat="48.95666" lon="2.90681">
        <ele>63.9</ele>
        <time>2020-07-01T13:28:00Z</time>
      </trkpt>
      <trkpt lat="48.95666" lon="2.9067">
        <ele>63.8</ele>
        <time>2020-07-01T13:28:01Z</time>
      </trkpt>
      <trkpt lat="48.95665" lon="2.90658">
        <ele>63.7</ele>
        <time>2020-07-01T13:28:02Z</time>
      </trkpt>
      <trkpt lat="48.95664" lon="2.90647">
        <ele>63.5</ele>
        <time>2020-07-01T13:28:03Z</time>
      </trkpt>
      <trkpt lat="48.95664" lon="2.90635">
        <ele>63.4</ele>
        <time>2020-07-01T13:28:04Z</time>
      </trkpt>
      <trkpt lat="48.95663" lon="2.90624">
        <ele>63.3</ele>
        <time>2020-07-01T13:28:05Z</time>
      </trkpt>
      <trkpt lat="48.95663" lon="2.90613">
        <ele>63.2</ele>
        <time>2020-07-01T13:28:06Z</time>
      </trkpt>
      <trkpt lat="48.95664" lon="2.90602">
        <ele>63.1</ele>
        <time>2020-07-01T13:28:07Z</time>
      </trkpt>
      <trkpt lat="48.95664" lon="2.9059">
        <ele>63</ele>
        <time>2020-07-01T13:28:08Z</time>
      </trkpt>
      <trkpt lat="48.95664" lon="2.90579">
        <ele>63</ele>
        <time>2020-07-01T13:28:09Z</time>
      </trkpt>
      <trkpt lat="48.95665" lon="2.90569">
        <ele>62.9</ele>
        <time>2020-07-01T13:28:10Z</time>
      </trkpt>
      <trkpt lat="48.95665" lon="2.90558">
        <ele>62.9</ele>
        <time>2020-07-01T13:28:11Z</time>
      </trkpt>
      <trkpt lat="48.95665" lon="2.90548">
        <ele>62.9</ele>
        <time>2020-07-01T13:28:12Z</time>
      </trkpt>
      <trkpt lat="48.95665" lon="2.90539">
        <ele>62.9</ele>
        <time>2020-07-01T13:28:13Z</time>
      </trkpt>
      <trkpt lat="48.95665" lon="2.90532">
        <ele>62.9</ele>
        <time>2020-07-01T13:28:14Z</time>
      </trkpt>
      <trkpt lat="48.95665" lon="2.90526">
        <ele>62.9</ele>
        <time>2020-07-01T13:28:15Z</time>
      </trkpt>
      <trkpt lat="48.95665" lon="2.9052">
        <ele>62.9</ele>
        <time>2020-07-01T13:28:16Z</time>
      </trkpt>
      <trkpt lat="48.95666" lon="2.90515">
        <ele>62.9</ele>
        <time>2020-07-01T13:28:17Z</time>
      </trkpt>
      <trkpt lat="48.95666" lon="2.9051">
        <ele>62.9</ele>
        <time>2020-07-01T13:28:18Z</time>
      </trkpt>
      <trkpt lat="48.95666" lon="2.90505">
        <ele>62.9</ele>
        <time>2020-07-01T13:28:19Z</time>
      </trkpt>
      <trkpt lat="48.95668" lon="2.90502">
        <ele>62.9</ele>
        <time>2020-07-01T13:28:20Z</time>
      </trkpt>
      <trkpt lat="48.95668" lon="2.90497">
        <ele>62.9</ele>
        <time>2020-07-01T13:28:21Z</time>
      </trkpt>
      <trkpt lat="48.95668" lon="2.90495">
        <ele>62.9</ele>
        <time>2020-07-01T13:28:22Z</time>
      </trkpt>
      <trkpt lat="48.95669" lon="2.90493">
        <ele>62.9</ele>
        <time>2020-07-01T13:28:23Z</time>
      </trkpt>
      <trkpt lat="48.95669" lon="2.90491">
        <ele>62.9</ele>
        <time>2020-07-01T13:28:24Z</time>
      </trkpt>
      <trkpt lat="48.95669" lon="2.9049">
        <ele>62.9</ele>
        <time>2020-07-01T13:28:25Z</time>
      </trkpt>
      <trkpt lat="48.95669" lon="2.90488">
        <ele>62.9</ele>
        <time>2020-07-01T13:28:26Z</time>
      </trkpt>
      <trkpt lat="48.95669" lon="2.90486">
        <ele>62.9</ele>
        <time>2020-07-01T13:28:27Z</time>
      </trkpt>
      <trkpt lat="48.95669" lon="2.90483">
        <ele>62.9</ele>
        <time>2020-07-01T13:28:28Z</time>
      </trkpt>
      <trkpt lat="48.95669" lon="2.90482">
        <ele>62.9</ele>
        <time>2020-07-01T13:28:29Z</time>
      </trkpt>
      <trkpt lat="48.95669" lon="2.9048">
        <ele>62.9</ele>
        <time>2020-07-01T13:28:30Z</time>
      </trkpt>
      <trkpt lat="48.95671" lon="2.90475">
        <ele>63</ele>
        <time>2020-07-01T13:28:31Z</time>
      </trkpt>
      <trkpt lat="48.95671" lon="2.90473">
        <ele>63</ele>
        <time>2020-07-01T13:28:32Z</time>
      </trkpt>
      <trkpt lat="48.95672" lon="2.90467">
        <ele>63</ele>
        <time>2020-07-01T13:28:33Z</time>
      </trkpt>
      <trkpt lat="48.95672" lon="2.90462">
        <ele>62.9</ele>
        <time>2020-07-01T13:28:34Z</time>
      </trkpt>
      <trkpt lat="48.95673" lon="2.90456">
        <ele>62.9</ele>
        <time>2020-07-01T13:28:35Z</time>
      </trkpt>
      <trkpt lat="48.95673" lon="2.9045">
        <ele>62.8</ele>
        <time>2020-07-01T13:28:36Z</time>
      </trkpt>
      <trkpt lat="48.95675" lon="2.90443">
        <ele>62.8</ele>
        <time>2020-07-01T13:28:37Z</time>
      </trkpt>
      <trkpt lat="48.95675" lon="2.90436">
        <ele>62.7</ele>
        <time>2020-07-01T13:28:38Z</time>
      </trkpt>
      <trkpt lat="48.95676" lon="2.90429">
        <ele>62.6</ele>
        <time>2020-07-01T13:28:39Z</time>
      </trkpt>
      <trkpt lat="48.95677" lon="2.90421">
        <ele>62.6</ele>
        <time>2020-07-01T13:28:40Z</time>
      </trkpt>
      <trkpt lat="48.95677" lon="2.90412">
        <ele>62.5</ele>
        <time>2020-07-01T13:28:41Z</time>
      </trkpt>
      <trkpt lat="48.95677" lon="2.90404">
        <ele>62.5</ele>
        <time>2020-07-01T13:28:42Z</time>
      </trkpt>
      <trkpt lat="48.95678" lon="2.90396">
        <ele>62.5</ele>
        <time>2020-07-01T13:28:43Z</time>
      </trkpt>
      <trkpt lat="48.95678" lon="2.90388">
        <ele>62.4</ele>
        <time>2020-07-01T13:28:44Z</time>
      </trkpt>
      <trkpt lat="48.95679" lon="2.9038">
        <ele>62.4</ele>
        <time>2020-07-01T13:28:45Z</time>
      </trkpt>
      <trkpt lat="48.95679" lon="2.90372">
        <ele>62.4</ele>
        <time>2020-07-01T13:28:46Z</time>
      </trkpt>
      <trkpt lat="48.9568" lon="2.90363">
        <ele>62.3</ele>
        <time>2020-07-01T13:28:47Z</time>
      </trkpt>
      <trkpt lat="48.9568" lon="2.90356">
        <ele>62.3</ele>
        <time>2020-07-01T13:28:48Z</time>
      </trkpt>
      <trkpt lat="48.95681" lon="2.90348">
        <ele>62.2</ele>
        <time>2020-07-01T13:28:49Z</time>
      </trkpt>
      <trkpt lat="48.95682" lon="2.9034">
        <ele>62.2</ele>
        <time>2020-07-01T13:28:50Z</time>
      </trkpt>
      <trkpt lat="48.95682" lon="2.90331">
        <ele>62.1</ele>
        <time>2020-07-01T13:28:51Z</time>
      </trkpt>
      <trkpt lat="48.95684" lon="2.90323">
        <ele>62.1</ele>
        <time>2020-07-01T13:28:52Z</time>
      </trkpt>
      <trkpt lat="48.95684" lon="2.90315">
        <ele>62</ele>
        <time>2020-07-01T13:28:53Z</time>
      </trkpt>
      <trkpt lat="48.95685" lon="2.90306">
        <ele>61.9</ele>
        <time>2020-07-01T13:28:54Z</time>
      </trkpt>
      <trkpt lat="48.95686" lon="2.90297">
        <ele>61.8</ele>
        <time>2020-07-01T13:28:55Z</time>
      </trkpt>
      <trkpt lat="48.95687" lon="2.90289">
        <ele>61.7</ele>
        <time>2020-07-01T13:28:56Z</time>
      </trkpt>
      <trkpt lat="48.95687" lon="2.90281">
        <ele>61.5</ele>
        <time>2020-07-01T13:28:57Z</time>
      </trkpt>
      <trkpt lat="48.95688" lon="2.90272">
        <ele>61.3</ele>
        <time>2020-07-01T13:28:58Z</time>
      </trkpt>
      <trkpt lat="48.95689" lon="2.90264">
        <ele>61.1</ele>
        <time>2020-07-01T13:28:59Z</time>
      </trkpt>
      <trkpt lat="48.95689" lon="2.90255">
        <ele>60.9</ele>
        <time>2020-07-01T13:29:00Z</time>
      </trkpt>
      <trkpt lat="48.9569" lon="2.90246">
        <ele>60.8</ele>
        <time>2020-07-01T13:29:01Z</time>
      </trkpt>
      <trkpt lat="48.95691" lon="2.90237">
        <ele>60.6</ele>
        <time>2020-07-01T13:29:02Z</time>
      </trkpt>
      <trkpt lat="48.95692" lon="2.90228">
        <ele>60.4</ele>
        <time>2020-07-01T13:29:03Z</time>
      </trkpt>
      <trkpt lat="48.95693" lon="2.90219">
        <ele>60.1</ele>
        <time>2020-07-01T13:29:04Z</time>
      </trkpt>
      <trkpt lat="48.95694" lon="2.90209">
        <ele>60</ele>
        <time>2020-07-01T13:29:05Z</time>
      </trkpt>
      <trkpt lat="48.95695" lon="2.902">
        <ele>59.8</ele>
        <time>2020-07-01T13:29:06Z</time>
      </trkpt>
      <trkpt lat="48.95696" lon="2.90189">
        <ele>59.5</ele>
        <time>2020-07-01T13:29:07Z</time>
      </trkpt>
      <trkpt lat="48.95698" lon="2.90178">
        <ele>59.3</ele>
        <time>2020-07-01T13:29:08Z</time>
      </trkpt>
      <trkpt lat="48.95699" lon="2.90167">
        <ele>59.1</ele>
        <time>2020-07-01T13:29:09Z</time>
      </trkpt>
      <trkpt lat="48.957" lon="2.90156">
        <ele>58.8</ele>
        <time>2020-07-01T13:29:10Z</time>
      </trkpt>
      <trkpt lat="48.95701" lon="2.90144">
        <ele>58.5</ele>
        <time>2020-07-01T13:29:11Z</time>
      </trkpt>
      <trkpt lat="48.95701" lon="2.90132">
        <ele>58.2</ele>
        <time>2020-07-01T13:29:12Z</time>
      </trkpt>
      <trkpt lat="48.95702" lon="2.9012">
        <ele>58</ele>
        <time>2020-07-01T13:29:13Z</time>
      </trkpt>
      <trkpt lat="48.95702" lon="2.90109">
        <ele>57.7</ele>
        <time>2020-07-01T13:29:14Z</time>
      </trkpt>
      <trkpt lat="48.95703" lon="2.90097">
        <ele>57.4</ele>
        <time>2020-07-01T13:29:15Z</time>
      </trkpt>
      <trkpt lat="48.95704" lon="2.90086">
        <ele>57.1</ele>
        <time>2020-07-01T13:29:16Z</time>
      </trkpt>
      <trkpt lat="48.95705" lon="2.90074">
        <ele>56.9</ele>
        <time>2020-07-01T13:29:17Z</time>
      </trkpt>
      <trkpt lat="48.95705" lon="2.90063">
        <ele>56.6</ele>
        <time>2020-07-01T13:29:18Z</time>
      </trkpt>
      <trkpt lat="48.95707" lon="2.90051">
        <ele>56.3</ele>
        <time>2020-07-01T13:29:19Z</time>
      </trkpt>
      <trkpt lat="48.95708" lon="2.90039">
        <ele>56</ele>
        <time>2020-07-01T13:29:20Z</time>
      </trkpt>
      <trkpt lat="48.95709" lon="2.90028">
        <ele>55.8</ele>
        <time>2020-07-01T13:29:21Z</time>
      </trkpt>
      <trkpt lat="48.9571" lon="2.90016">
        <ele>55.5</ele>
        <time>2020-07-01T13:29:22Z</time>
      </trkpt>
      <trkpt lat="48.95711" lon="2.90004">
        <ele>55.3</ele>
        <time>2020-07-01T13:29:23Z</time>
      </trkpt>
      <trkpt lat="48.95712" lon="2.89992">
        <ele>55</ele>
        <time>2020-07-01T13:29:24Z</time>
      </trkpt>
      <trkpt lat="48.95712" lon="2.89981">
        <ele>54.9</ele>
        <time>2020-07-01T13:29:25Z</time>
      </trkpt>
      <trkpt lat="48.95714" lon="2.89969">
        <ele>54.7</ele>
        <time>2020-07-01T13:29:26Z</time>
      </trkpt>
      <trkpt lat="48.95715" lon="2.89958">
        <ele>54.5</ele>
        <time>2020-07-01T13:29:27Z</time>
      </trkpt>
      <trkpt lat="48.95716" lon="2.89947">
        <ele>54.3</ele>
        <time>2020-07-01T13:29:28Z</time>
      </trkpt>
      <trkpt lat="48.95717" lon="2.89937">
        <ele>54.2</ele>
        <time>2020-07-01T13:29:29Z</time>
      </trkpt>
      <trkpt lat="48.95718" lon="2.89927">
        <ele>54.1</ele>
        <time>2020-07-01T13:29:30Z</time>
      </trkpt>
      <trkpt lat="48.95719" lon="2.89916">
        <ele>53.9</ele>
        <time>2020-07-01T13:29:31Z</time>
      </trkpt>
      <trkpt lat="48.9572" lon="2.89905">
        <ele>53.8</ele>
        <time>2020-07-01T13:29:32Z</time>
      </trkpt>
      <trkpt lat="48.95722" lon="2.89894">
        <ele>53.7</ele>
        <time>2020-07-01T13:29:33Z</time>
      </trkpt>
      <trkpt lat="48.95723" lon="2.89883">
        <ele>53.6</ele>
        <time>2020-07-01T13:29:34Z</time>
      </trkpt>
      <trkpt lat="48.95724" lon="2.89871">
        <ele>53.6</ele>
        <time>2020-07-01T13:29:35Z</time>
      </trkpt>
      <trkpt lat="48.95725" lon="2.8986">
        <ele>53.5</ele>
        <time>2020-07-01T13:29:36Z</time>
      </trkpt>
      <trkpt lat="48.95726" lon="2.89849">
        <ele>53.4</ele>
        <time>2020-07-01T13:29:37Z</time>
      </trkpt>
      <trkpt lat="48.95727" lon="2.89837">
        <ele>53.3</ele>
        <time>2020-07-01T13:29:38Z</time>
      </trkpt>
      <trkpt lat="48.95728" lon="2.89825">
        <ele>53.2</ele>
        <time>2020-07-01T13:29:39Z</time>
      </trkpt>
      <trkpt lat="48.95729" lon="2.89814">
        <ele>53.1</ele>
        <time>2020-07-01T13:29:40Z</time>
      </trkpt>
      <trkpt lat="48.9573" lon="2.89802">
        <ele>53</ele>
        <time>2020-07-01T13:29:41Z</time>
      </trkpt>
      <trkpt lat="48.95731" lon="2.89791">
        <ele>52.9</ele>
        <time>2020-07-01T13:29:42Z</time>
      </trkpt>
      <trkpt lat="48.95732" lon="2.8978">
        <ele>52.8</ele>
        <time>2020-07-01T13:29:43Z</time>
      </trkpt>
      <trkpt lat="48.95733" lon="2.89769">
        <ele>52.7</ele>
        <time>2020-07-01T13:29:44Z</time>
      </trkpt>
      <trkpt lat="48.95734" lon="2.89758">
        <ele>52.6</ele>
        <time>2020-07-01T13:29:45Z</time>
      </trkpt>
      <trkpt lat="48.95735" lon="2.89747">
        <ele>52.5</ele>
        <time>2020-07-01T13:29:46Z</time>
      </trkpt>
      <trkpt lat="48.95737" lon="2.89736">
        <ele>52.4</ele>
        <time>2020-07-01T13:29:47Z</time>
      </trkpt>
      <trkpt lat="48.95737" lon="2.89726">
        <ele>52.4</ele>
        <time>2020-07-01T13:29:48Z</time>
      </trkpt>
      <trkpt lat="48.95737" lon="2.89716">
        <ele>52.4</ele>
        <time>2020-07-01T13:29:49Z</time>
      </trkpt>
      <trkpt lat="48.95738" lon="2.89705">
        <ele>52.3</ele>
        <time>2020-07-01T13:29:50Z</time>
      </trkpt>
      <trkpt lat="48.95739" lon="2.89695">
        <ele>52.3</ele>
        <time>2020-07-01T13:29:51Z</time>
      </trkpt>
      <trkpt lat="48.9574" lon="2.89684">
        <ele>52.2</ele>
        <time>2020-07-01T13:29:52Z</time>
      </trkpt>
      <trkpt lat="48.95741" lon="2.89674">
        <ele>52.2</ele>
        <time>2020-07-01T13:29:53Z</time>
      </trkpt>
      <trkpt lat="48.95742" lon="2.89663">
        <ele>52.1</ele>
        <time>2020-07-01T13:29:54Z</time>
      </trkpt>
      <trkpt lat="48.95743" lon="2.89652">
        <ele>52.1</ele>
        <time>2020-07-01T13:29:55Z</time>
      </trkpt>
      <trkpt lat="48.95744" lon="2.89642">
        <ele>52</ele>
        <time>2020-07-01T13:29:56Z</time>
      </trkpt>
      <trkpt lat="48.95745" lon="2.89632">
        <ele>52</ele>
        <time>2020-07-01T13:29:57Z</time>
      </trkpt>
      <trkpt lat="48.95746" lon="2.89621">
        <ele>51.9</ele>
        <time>2020-07-01T13:29:58Z</time>
      </trkpt>
      <trkpt lat="48.95746" lon="2.89611">
        <ele>51.9</ele>
        <time>2020-07-01T13:29:59Z</time>
      </trkpt>
      <trkpt lat="48.95747" lon="2.89601">
        <ele>51.8</ele>
        <time>2020-07-01T13:30:00Z</time>
      </trkpt>
      <trkpt lat="48.95748" lon="2.89592">
        <ele>51.8</ele>
        <time>2020-07-01T13:30:01Z</time>
      </trkpt>
      <trkpt lat="48.95749" lon="2.89582">
        <ele>51.8</ele>
        <time>2020-07-01T13:30:02Z</time>
      </trkpt>
      <trkpt lat="48.9575" lon="2.89573">
        <ele>51.7</ele>
        <time>2020-07-01T13:30:03Z</time>
      </trkpt>
      <trkpt lat="48.95751" lon="2.89565">
        <ele>51.7</ele>
        <time>2020-07-01T13:30:04Z</time>
      </trkpt>
      <trkpt lat="48.95752" lon="2.89558">
        <ele>51.7</ele>
        <time>2020-07-01T13:30:05Z</time>
      </trkpt>
      <trkpt lat="48.95752" lon="2.89551">
        <ele>51.7</ele>
        <time>2020-07-01T13:30:06Z</time>
      </trkpt>
      <trkpt lat="48.95753" lon="2.89545">
        <ele>51.6</ele>
        <time>2020-07-01T13:30:07Z</time>
      </trkpt>
      <trkpt lat="48.95753" lon="2.8954">
        <ele>51.6</ele>
        <time>2020-07-01T13:30:08Z</time>
      </trkpt>
      <trkpt lat="48.95753" lon="2.89535">
        <ele>51.6</ele>
        <time>2020-07-01T13:30:09Z</time>
      </trkpt>
      <trkpt lat="48.95754" lon="2.89531">
        <ele>51.6</ele>
        <time>2020-07-01T13:30:10Z</time>
      </trkpt>
      <trkpt lat="48.95754" lon="2.89526">
        <ele>51.5</ele>
        <time>2020-07-01T13:30:11Z</time>
      </trkpt>
      <trkpt lat="48.95755" lon="2.89522">
        <ele>51.5</ele>
        <time>2020-07-01T13:30:12Z</time>
      </trkpt>
      <trkpt lat="48.95756" lon="2.89517">
        <ele>51.5</ele>
        <time>2020-07-01T13:30:13Z</time>
      </trkpt>
      <trkpt lat="48.95757" lon="2.89512">
        <ele>51.5</ele>
        <time>2020-07-01T13:30:14Z</time>
      </trkpt>
      <trkpt lat="48.95757" lon="2.89507">
        <ele>51.5</ele>
        <time>2020-07-01T13:30:15Z</time>
      </trkpt>
      <trkpt lat="48.95758" lon="2.89503">
        <ele>51.5</ele>
        <time>2020-07-01T13:30:16Z</time>
      </trkpt>
      <trkpt lat="48.95759" lon="2.89497">
        <ele>51.5</ele>
        <time>2020-07-01T13:30:17Z</time>
      </trkpt>
      <trkpt lat="48.95759" lon="2.89492">
        <ele>51.5</ele>
        <time>2020-07-01T13:30:18Z</time>
      </trkpt>
      <trkpt lat="48.9576" lon="2.89487">
        <ele>51.4</ele>
        <time>2020-07-01T13:30:19Z</time>
      </trkpt>
      <trkpt lat="48.9576" lon="2.89483">
        <ele>51.4</ele>
        <time>2020-07-01T13:30:20Z</time>
      </trkpt>
      <trkpt lat="48.9576" lon="2.89479">
        <ele>51.4</ele>
        <time>2020-07-01T13:30:21Z</time>
      </trkpt>
      <trkpt lat="48.9576" lon="2.89478">
        <ele>51.4</ele>
        <time>2020-07-01T13:30:22Z</time>
      </trkpt>
      <trkpt lat="48.9576" lon="2.89477">
        <ele>51.4</ele>
        <time>2020-07-01T13:30:23Z</time>
      </trkpt>
      <trkpt lat="48.9576" lon="2.89475">
        <ele>51.4</ele>
        <time>2020-07-01T13:30:24Z</time>
      </trkpt>
      <trkpt lat="48.95762" lon="2.89473">
        <ele>51.4</ele>
        <time>2020-07-01T13:30:25Z</time>
      </trkpt>
      <trkpt lat="48.95764" lon="2.8947">
        <ele>51.4</ele>
        <time>2020-07-01T13:30:26Z</time>
      </trkpt>
      <trkpt lat="48.95765" lon="2.89469">
        <ele>51.4</ele>
        <time>2020-07-01T13:30:27Z</time>
      </trkpt>
      <trkpt lat="48.95766" lon="2.8947">
        <ele>51.4</ele>
        <time>2020-07-01T13:30:28Z</time>
      </trkpt>
      <trkpt lat="48.95767" lon="2.89471">
        <ele>51.4</ele>
        <time>2020-07-01T13:30:29Z</time>
      </trkpt>
      <trkpt lat="48.95767" lon="2.89471">
        <ele>51.4</ele>
        <time>2020-07-01T13:30:30Z</time>
      </trkpt>
      <trkpt lat="48.95767" lon="2.89472">
        <ele>51.4</ele>
        <time>2020-07-01T13:30:31Z</time>
      </trkpt>
      <trkpt lat="48.95767" lon="2.89473">
        <ele>51.4</ele>
        <time>2020-07-01T13:30:32Z</time>
      </trkpt>
      <trkpt lat="48.95767" lon="2.8947">
        <ele>51.4</ele>
        <time>2020-07-01T13:30:33Z</time>
      </trkpt>
      <trkpt lat="48.95767" lon="2.8947">
        <ele>51.4</ele>
        <time>2020-07-01T13:30:34Z</time>
      </trkpt>
      <trkpt lat="48.95768" lon="2.89467">
        <ele>51.4</ele>
        <time>2020-07-01T13:30:35Z</time>
      </trkpt>
      <trkpt lat="48.95769" lon="2.89466">
        <ele>51.4</ele>
        <time>2020-07-01T13:30:36Z</time>
      </trkpt>
      <trkpt lat="48.95769" lon="2.89466">
        <ele>51.4</ele>
        <time>2020-07-01T13:30:37Z</time>
      </trkpt>
      <trkpt lat="48.9577" lon="2.89467">
        <ele>51.4</ele>
        <time>2020-07-01T13:30:38Z</time>
      </trkpt>
      <trkpt lat="48.9577" lon="2.89467">
        <ele>51.4</ele>
        <time>2020-07-01T13:30:39Z</time>
      </trkpt>
      <trkpt lat="48.95769" lon="2.89467">
        <ele>51.4</ele>
        <time>2020-07-01T13:30:40Z</time>
      </trkpt>
      <trkpt lat="48.9577" lon="2.89468">
        <ele>51.4</ele>
        <time>2020-07-01T13:30:41Z</time>
      </trkpt>
      <trkpt lat="48.9577" lon="2.89468">
        <ele>51.4</ele>
        <time>2020-07-01T13:30:42Z</time>
      </trkpt>
      <trkpt lat="48.9577" lon="2.89468">
        <ele>51.4</ele>
        <time>2020-07-01T13:30:43Z</time>
      </trkpt>
      <trkpt lat="48.95769" lon="2.89467">
        <ele>51.4</ele>
        <time>2020-07-01T13:30:44Z</time>
      </trkpt>
      <trkpt lat="48.9577" lon="2.89467">
        <ele>51.4</ele>
        <time>2020-07-01T13:30:45Z</time>
      </trkpt>
      <trkpt lat="48.95769" lon="2.89464">
        <ele>51.4</ele>
        <time>2020-07-01T13:30:46Z</time>
      </trkpt>
      <trkpt lat="48.95768" lon="2.89462">
        <ele>51.4</ele>
        <time>2020-07-01T13:30:47Z</time>
      </trkpt>
      <trkpt lat="48.95768" lon="2.89459">
        <ele>51.4</ele>
        <time>2020-07-01T13:30:48Z</time>
      </trkpt>
      <trkpt lat="48.95768" lon="2.89457">
        <ele>51.4</ele>
        <time>2020-07-01T13:30:49Z</time>
      </trkpt>
      <trkpt lat="48.95769" lon="2.89456">
        <ele>51.4</ele>
        <time>2020-07-01T13:30:50Z</time>
      </trkpt>
      <trkpt lat="48.95769" lon="2.89453">
        <ele>51.5</ele>
        <time>2020-07-01T13:30:51Z</time>
      </trkpt>
      <trkpt lat="48.9577" lon="2.89451">
        <ele>51.5</ele>
        <time>2020-07-01T13:30:52Z</time>
      </trkpt>
      <trkpt lat="48.95768" lon="2.89449">
        <ele>51.5</ele>
        <time>2020-07-01T13:30:53Z</time>
      </trkpt>
      <trkpt lat="48.95767" lon="2.89449">
        <ele>51.5</ele>
        <time>2020-07-01T13:30:54Z</time>
      </trkpt>
      <trkpt lat="48.95764" lon="2.89446">
        <ele>51.5</ele>
        <time>2020-07-01T13:30:55Z</time>
      </trkpt>
      <trkpt lat="48.95763" lon="2.89446">
        <ele>51.4</ele>
        <time>2020-07-01T13:30:56Z</time>
      </trkpt>
      <trkpt lat="48.9576" lon="2.89444">
        <ele>51.4</ele>
        <time>2020-07-01T13:30:57Z</time>
      </trkpt>
      <trkpt lat="48.95757" lon="2.89441">
        <ele>51.4</ele>
        <time>2020-07-01T13:30:58Z</time>
      </trkpt>
      <trkpt lat="48.95753" lon="2.89441">
        <ele>51.4</ele>
        <time>2020-07-01T13:30:59Z</time>
      </trkpt>
      <trkpt lat="48.9575" lon="2.8944">
        <ele>51.3</ele>
        <time>2020-07-01T13:31:00Z</time>
      </trkpt>
      <trkpt lat="48.95746" lon="2.89438">
        <ele>51.3</ele>
        <time>2020-07-01T13:31:01Z</time>
      </trkpt>
      <trkpt lat="48.95742" lon="2.89435">
        <ele>51.1</ele>
        <time>2020-07-01T13:31:02Z</time>
      </trkpt>
      <trkpt lat="48.95738" lon="2.89434">
        <ele>51.1</ele>
        <time>2020-07-01T13:31:03Z</time>
      </trkpt>
      <trkpt lat="48.95735" lon="2.89431">
        <ele>51.1</ele>
        <time>2020-07-01T13:31:04Z</time>
      </trkpt>
      <trkpt lat="48.95733" lon="2.89426">
        <ele>51.1</ele>
        <time>2020-07-01T13:31:05Z</time>
      </trkpt>
      <trkpt lat="48.95731" lon="2.8942">
        <ele>51</ele>
        <time>2020-07-01T13:31:06Z</time>
      </trkpt>
      <trkpt lat="48.9573" lon="2.89414">
        <ele>51</ele>
        <time>2020-07-01T13:31:07Z</time>
      </trkpt>
      <trkpt lat="48.95729" lon="2.89407">
        <ele>51</ele>
        <time>2020-07-01T13:31:08Z</time>
      </trkpt>
      <trkpt lat="48.95727" lon="2.89401">
        <ele>51</ele>
        <time>2020-07-01T13:31:09Z</time>
      </trkpt>
      <trkpt lat="48.95725" lon="2.89394">
        <ele>51</ele>
        <time>2020-07-01T13:31:10Z</time>
      </trkpt>
      <trkpt lat="48.95724" lon="2.89388">
        <ele>51</ele>
        <time>2020-07-01T13:31:11Z</time>
      </trkpt>
      <trkpt lat="48.95721" lon="2.89382">
        <ele>51</ele>
        <time>2020-07-01T13:31:12Z</time>
      </trkpt>
      <trkpt lat="48.95718" lon="2.89376">
        <ele>51</ele>
        <time>2020-07-01T13:31:13Z</time>
      </trkpt>
      <trkpt lat="48.95716" lon="2.89369">
        <ele>51</ele>
        <time>2020-07-01T13:31:14Z</time>
      </trkpt>
      <trkpt lat="48.95714" lon="2.89362">
        <ele>50.9</ele>
        <time>2020-07-01T13:31:15Z</time>
      </trkpt>
      <trkpt lat="48.95712" lon="2.89355">
        <ele>50.9</ele>
        <time>2020-07-01T13:31:16Z</time>
      </trkpt>
      <trkpt lat="48.9571" lon="2.89347">
        <ele>50.9</ele>
        <time>2020-07-01T13:31:17Z</time>
      </trkpt>
      <trkpt lat="48.95708" lon="2.89341">
        <ele>50.9</ele>
        <time>2020-07-01T13:31:18Z</time>
      </trkpt>
      <trkpt lat="48.95706" lon="2.89333">
        <ele>50.9</ele>
        <time>2020-07-01T13:31:19Z</time>
      </trkpt>
      <trkpt lat="48.95704" lon="2.89327">
        <ele>50.9</ele>
        <time>2020-07-01T13:31:20Z</time>
      </trkpt>
      <trkpt lat="48.95702" lon="2.8932">
        <ele>50.9</ele>
        <time>2020-07-01T13:31:21Z</time>
      </trkpt>
      <trkpt lat="48.957" lon="2.89313">
        <ele>50.9</ele>
        <time>2020-07-01T13:31:22Z</time>
      </trkpt>
      <trkpt lat="48.95698" lon="2.89307">
        <ele>50.9</ele>
        <time>2020-07-01T13:31:23Z</time>
      </trkpt>
      <trkpt lat="48.95696" lon="2.893">
        <ele>50.9</ele>
        <time>2020-07-01T13:31:24Z</time>
      </trkpt>
      <trkpt lat="48.95694" lon="2.89294">
        <ele>50.9</ele>
        <time>2020-07-01T13:31:25Z</time>
      </trkpt>
      <trkpt lat="48.95692" lon="2.89287">
        <ele>50.8</ele>
        <time>2020-07-01T13:31:26Z</time>
      </trkpt>
      <trkpt lat="48.95689" lon="2.89282">
        <ele>50.8</ele>
        <time>2020-07-01T13:31:27Z</time>
      </trkpt>
      <trkpt lat="48.95686" lon="2.89275">
        <ele>50.7</ele>
        <time>2020-07-01T13:31:28Z</time>
      </trkpt>
      <trkpt lat="48.95683" lon="2.89269">
        <ele>50.6</ele>
        <time>2020-07-01T13:31:29Z</time>
      </trkpt>
      <trkpt lat="48.95679" lon="2.89262">
        <ele>50.6</ele>
        <time>2020-07-01T13:31:30Z</time>
      </trkpt>
      <trkpt lat="48.95676" lon="2.89254">
        <ele>50.5</ele>
        <time>2020-07-01T13:31:31Z</time>
      </trkpt>
      <trkpt lat="48.95673" lon="2.89246">
        <ele>50.4</ele>
        <time>2020-07-01T13:31:32Z</time>
      </trkpt>
      <trkpt lat="48.95671" lon="2.89239">
        <ele>50.3</ele>
        <time>2020-07-01T13:31:33Z</time>
      </trkpt>
      <trkpt lat="48.95668" lon="2.8923">
        <ele>50.2</ele>
        <time>2020-07-01T13:31:34Z</time>
      </trkpt>
      <trkpt lat="48.95664" lon="2.89223">
        <ele>50.1</ele>
        <time>2020-07-01T13:31:35Z</time>
      </trkpt>
      <trkpt lat="48.95661" lon="2.89215">
        <ele>49.9</ele>
        <time>2020-07-01T13:31:36Z</time>
      </trkpt>
      <trkpt lat="48.95658" lon="2.89207">
        <ele>49.8</ele>
        <time>2020-07-01T13:31:37Z</time>
      </trkpt>
      <trkpt lat="48.95655" lon="2.89199">
        <ele>49.7</ele>
        <time>2020-07-01T13:31:38Z</time>
      </trkpt>
      <trkpt lat="48.95653" lon="2.8919">
        <ele>49.5</ele>
        <time>2020-07-01T13:31:39Z</time>
      </trkpt>
      <trkpt lat="48.95652" lon="2.89182">
        <ele>49.4</ele>
        <time>2020-07-01T13:31:40Z</time>
      </trkpt>
      <trkpt lat="48.95649" lon="2.89174">
        <ele>49.3</ele>
        <time>2020-07-01T13:31:41Z</time>
      </trkpt>
      <trkpt lat="48.95648" lon="2.89166">
        <ele>49.1</ele>
        <time>2020-07-01T13:31:42Z</time>
      </trkpt>
      <trkpt lat="48.95646" lon="2.8916">
        <ele>49</ele>
        <time>2020-07-01T13:31:43Z</time>
      </trkpt>
      <trkpt lat="48.95644" lon="2.89154">
        <ele>48.9</ele>
        <time>2020-07-01T13:31:44Z</time>
      </trkpt>
      <trkpt lat="48.95643" lon="2.89149">
        <ele>48.8</ele>
        <time>2020-07-01T13:31:45Z</time>
      </trkpt>
      <trkpt lat="48.95643" lon="2.89144">
        <ele>48.7</ele>
        <time>2020-07-01T13:31:46Z</time>
      </trkpt>
      <trkpt lat="48.95641" lon="2.89139">
        <ele>48.6</ele>
        <time>2020-07-01T13:31:47Z</time>
      </trkpt>
      <trkpt lat="48.95641" lon="2.89134">
        <ele>48.5</ele>
        <time>2020-07-01T13:31:48Z</time>
      </trkpt>
      <trkpt lat="48.9564" lon="2.89129">
        <ele>48.4</ele>
        <time>2020-07-01T13:31:49Z</time>
      </trkpt>
      <trkpt lat="48.95639" lon="2.89124">
        <ele>48.3</ele>
        <time>2020-07-01T13:31:50Z</time>
      </trkpt>
      <trkpt lat="48.95638" lon="2.8912">
        <ele>48.2</ele>
        <time>2020-07-01T13:31:51Z</time>
      </trkpt>
      <trkpt lat="48.95637" lon="2.89114">
        <ele>48.2</ele>
        <time>2020-07-01T13:31:52Z</time>
      </trkpt>
      <trkpt lat="48.95637" lon="2.89108">
        <ele>48.1</ele>
        <time>2020-07-01T13:31:53Z</time>
      </trkpt>
      <trkpt lat="48.95636" lon="2.89101">
        <ele>48.1</ele>
        <time>2020-07-01T13:31:54Z</time>
      </trkpt>
      <trkpt lat="48.95636" lon="2.89093">
        <ele>48</ele>
        <time>2020-07-01T13:31:55Z</time>
      </trkpt>
      <trkpt lat="48.95637" lon="2.89085">
        <ele>48</ele>
        <time>2020-07-01T13:31:56Z</time>
      </trkpt>
      <trkpt lat="48.95637" lon="2.89076">
        <ele>48</ele>
        <time>2020-07-01T13:31:57Z</time>
      </trkpt>
      <trkpt lat="48.95637" lon="2.89066">
        <ele>48</ele>
        <time>2020-07-01T13:31:58Z</time>
      </trkpt>
      <trkpt lat="48.95638" lon="2.89057">
        <ele>48</ele>
        <time>2020-07-01T13:31:59Z</time>
      </trkpt>
      <trkpt lat="48.95639" lon="2.89047">
        <ele>48</ele>
        <time>2020-07-01T13:32:00Z</time>
      </trkpt>
      <trkpt lat="48.95638" lon="2.89038">
        <ele>47.9</ele>
        <time>2020-07-01T13:32:01Z</time>
      </trkpt>
      <trkpt lat="48.95637" lon="2.89028">
        <ele>47.9</ele>
        <time>2020-07-01T13:32:02Z</time>
      </trkpt>
      <trkpt lat="48.95636" lon="2.89019">
        <ele>48</ele>
        <time>2020-07-01T13:32:03Z</time>
      </trkpt>
      <trkpt lat="48.95636" lon="2.89009">
        <ele>48</ele>
        <time>2020-07-01T13:32:04Z</time>
      </trkpt>
      <trkpt lat="48.95636" lon="2.89">
        <ele>48</ele>
        <time>2020-07-01T13:32:05Z</time>
      </trkpt>
      <trkpt lat="48.95635" lon="2.88991">
        <ele>48.1</ele>
        <time>2020-07-01T13:32:06Z</time>
      </trkpt>
      <trkpt lat="48.95635" lon="2.88981">
        <ele>48.2</ele>
        <time>2020-07-01T13:32:07Z</time>
      </trkpt>
      <trkpt lat="48.95633" lon="2.88972">
        <ele>48.3</ele>
        <time>2020-07-01T13:32:08Z</time>
      </trkpt>
      <trkpt lat="48.95633" lon="2.88964">
        <ele>48.4</ele>
        <time>2020-07-01T13:32:09Z</time>
      </trkpt>
      <trkpt lat="48.95633" lon="2.88956">
        <ele>48.5</ele>
        <time>2020-07-01T13:32:10Z</time>
      </trkpt>
      <trkpt lat="48.95633" lon="2.88948">
        <ele>48.6</ele>
        <time>2020-07-01T13:32:11Z</time>
      </trkpt>
      <trkpt lat="48.95634" lon="2.8894">
        <ele>48.7</ele>
        <time>2020-07-01T13:32:12Z</time>
      </trkpt>
      <trkpt lat="48.95634" lon="2.88933">
        <ele>48.8</ele>
        <time>2020-07-01T13:32:13Z</time>
      </trkpt>
      <trkpt lat="48.95634" lon="2.88927">
        <ele>48.8</ele>
        <time>2020-07-01T13:32:14Z</time>
      </trkpt>
      <trkpt lat="48.95635" lon="2.88922">
        <ele>48.9</ele>
        <time>2020-07-01T13:32:15Z</time>
      </trkpt>
      <trkpt lat="48.95635" lon="2.88918">
        <ele>48.9</ele>
        <time>2020-07-01T13:32:16Z</time>
      </trkpt>
      <trkpt lat="48.95634" lon="2.88917">
        <ele>48.9</ele>
        <time>2020-07-01T13:32:17Z</time>
      </trkpt>
      <trkpt lat="48.95633" lon="2.88917">
        <ele>48.9</ele>
        <time>2020-07-01T13:32:18Z</time>
      </trkpt>
      <trkpt lat="48.95633" lon="2.88917">
        <ele>48.9</ele>
        <time>2020-07-01T13:32:19Z</time>
      </trkpt>
      <trkpt lat="48.95633" lon="2.88917">
        <ele>48.9</ele>
        <time>2020-07-01T13:32:20Z</time>
      </trkpt>
      <trkpt lat="48.95633" lon="2.88916">
        <ele>48.9</ele>
        <time>2020-07-01T13:32:21Z</time>
      </trkpt>
      <trkpt lat="48.95633" lon="2.88916">
        <ele>48.9</ele>
        <time>2020-07-01T13:32:22Z</time>
      </trkpt>
      <trkpt lat="48.95633" lon="2.88915">
        <ele>48.9</ele>
        <time>2020-07-01T13:32:23Z</time>
      </trkpt>
      <trkpt lat="48.95633" lon="2.88915">
        <ele>48.9</ele>
        <time>2020-07-01T13:32:24Z</time>
      </trkpt>
      <trkpt lat="48.95634" lon="2.88914">
        <ele>48.9</ele>
        <time>2020-07-01T13:32:25Z</time>
      </trkpt>
      <trkpt lat="48.95634" lon="2.88913">
        <ele>49</ele>
        <time>2020-07-01T13:32:26Z</time>
      </trkpt>
      <trkpt lat="48.95634" lon="2.88912">
        <ele>49</ele>
        <time>2020-07-01T13:32:27Z</time>
      </trkpt>
      <trkpt lat="48.95633" lon="2.88911">
        <ele>49</ele>
        <time>2020-07-01T13:32:28Z</time>
      </trkpt>
      <trkpt lat="48.95633" lon="2.8891">
        <ele>49</ele>
        <time>2020-07-01T13:32:29Z</time>
      </trkpt>
      <trkpt lat="48.95632" lon="2.88909">
        <ele>49</ele>
        <time>2020-07-01T13:32:30Z</time>
      </trkpt>
      <trkpt lat="48.95633" lon="2.88907">
        <ele>49</ele>
        <time>2020-07-01T13:32:31Z</time>
      </trkpt>
      <trkpt lat="48.95632" lon="2.88904">
        <ele>49</ele>
        <time>2020-07-01T13:32:32Z</time>
      </trkpt>
      <trkpt lat="48.95632" lon="2.889">
        <ele>49.1</ele>
        <time>2020-07-01T13:32:33Z</time>
      </trkpt>
      <trkpt lat="48.95632" lon="2.88898">
        <ele>49.1</ele>
        <time>2020-07-01T13:32:34Z</time>
      </trkpt>
      <trkpt lat="48.95632" lon="2.88892">
        <ele>49.1</ele>
        <time>2020-07-01T13:32:35Z</time>
      </trkpt>
      <trkpt lat="48.95632" lon="2.88889">
        <ele>49.2</ele>
        <time>2020-07-01T13:32:36Z</time>
      </trkpt>
      <trkpt lat="48.95632" lon="2.88884">
        <ele>49.2</ele>
        <time>2020-07-01T13:32:37Z</time>
      </trkpt>
      <trkpt lat="48.95632" lon="2.88879">
        <ele>49.2</ele>
        <time>2020-07-01T13:32:38Z</time>
      </trkpt>
      <trkpt lat="48.95633" lon="2.88873">
        <ele>49.3</ele>
        <time>2020-07-01T13:32:39Z</time>
      </trkpt>
      <trkpt lat="48.95633" lon="2.88866">
        <ele>49.3</ele>
        <time>2020-07-01T13:32:40Z</time>
      </trkpt>
      <trkpt lat="48.95634" lon="2.8886">
        <ele>49.3</ele>
        <time>2020-07-01T13:32:41Z</time>
      </trkpt>
      <trkpt lat="48.95633" lon="2.88853">
        <ele>49.2</ele>
        <time>2020-07-01T13:32:42Z</time>
      </trkpt>
      <trkpt lat="48.95635" lon="2.88845">
        <ele>49.1</ele>
        <time>2020-07-01T13:32:43Z</time>
      </trkpt>
      <trkpt lat="48.95636" lon="2.88838">
        <ele>49.1</ele>
        <time>2020-07-01T13:32:44Z</time>
      </trkpt>
      <trkpt lat="48.95638" lon="2.8883">
        <ele>49.2</ele>
        <time>2020-07-01T13:32:45Z</time>
      </trkpt>
      <trkpt lat="48.9564" lon="2.88823">
        <ele>49.2</ele>
        <time>2020-07-01T13:32:46Z</time>
      </trkpt>
      <trkpt lat="48.9564" lon="2.88815">
        <ele>49.2</ele>
        <time>2020-07-01T13:32:47Z</time>
      </trkpt>
      <trkpt lat="48.9564" lon="2.88806">
        <ele>49.3</ele>
        <time>2020-07-01T13:32:48Z</time>
      </trkpt>
      <trkpt lat="48.95642" lon="2.88797">
        <ele>49.3</ele>
        <time>2020-07-01T13:32:49Z</time>
      </trkpt>
      <trkpt lat="48.95641" lon="2.88787">
        <ele>49.4</ele>
        <time>2020-07-01T13:32:50Z</time>
      </trkpt>
      <trkpt lat="48.95641" lon="2.88777">
        <ele>49.5</ele>
        <time>2020-07-01T13:32:51Z</time>
      </trkpt>
      <trkpt lat="48.9564" lon="2.88767">
        <ele>49.5</ele>
        <time>2020-07-01T13:32:52Z</time>
      </trkpt>
      <trkpt lat="48.9564" lon="2.88758">
        <ele>49.6</ele>
        <time>2020-07-01T13:32:53Z</time>
      </trkpt>
      <trkpt lat="48.9564" lon="2.8875">
        <ele>49.6</ele>
        <time>2020-07-01T13:32:54Z</time>
      </trkpt>
      <trkpt lat="48.95641" lon="2.88739">
        <ele>49.6</ele>
        <time>2020-07-01T13:32:55Z</time>
      </trkpt>
      <trkpt lat="48.95641" lon="2.88732">
        <ele>49.6</ele>
        <time>2020-07-01T13:32:56Z</time>
      </trkpt>
      <trkpt lat="48.9564" lon="2.88722">
        <ele>49.6</ele>
        <time>2020-07-01T13:32:57Z</time>
      </trkpt>
      <trkpt lat="48.95641" lon="2.88714">
        <ele>49.5</ele>
        <time>2020-07-01T13:32:58Z</time>
      </trkpt>
      <trkpt lat="48.95641" lon="2.88706">
        <ele>49.5</ele>
        <time>2020-07-01T13:32:59Z</time>
      </trkpt>
      <trkpt lat="48.95642" lon="2.88692">
        <ele>49.4</ele>
        <time>2020-07-01T13:33:00Z</time>
      </trkpt>
      <trkpt lat="48.95642" lon="2.88684">
        <ele>49.4</ele>
        <time>2020-07-01T13:33:01Z</time>
      </trkpt>
      <trkpt lat="48.95642" lon="2.88677">
        <ele>49.4</ele>
        <time>2020-07-01T13:33:02Z</time>
      </trkpt>
      <trkpt lat="48.95642" lon="2.88668">
        <ele>49.4</ele>
        <time>2020-07-01T13:33:03Z</time>
      </trkpt>
      <trkpt lat="48.95642" lon="2.88658">
        <ele>49.4</ele>
        <time>2020-07-01T13:33:04Z</time>
      </trkpt>
      <trkpt lat="48.95643" lon="2.88649">
        <ele>49.4</ele>
        <time>2020-07-01T13:33:05Z</time>
      </trkpt>
      <trkpt lat="48.95644" lon="2.8864">
        <ele>49.4</ele>
        <time>2020-07-01T13:33:06Z</time>
      </trkpt>
      <trkpt lat="48.95645" lon="2.88632">
        <ele>49.4</ele>
        <time>2020-07-01T13:33:07Z</time>
      </trkpt>
      <trkpt lat="48.95645" lon="2.88624">
        <ele>49.4</ele>
        <time>2020-07-01T13:33:08Z</time>
      </trkpt>
      <trkpt lat="48.95645" lon="2.88614">
        <ele>49.4</ele>
        <time>2020-07-01T13:33:09Z</time>
      </trkpt>
      <trkpt lat="48.95645" lon="2.88608">
        <ele>49.4</ele>
        <time>2020-07-01T13:33:10Z</time>
      </trkpt>
      <trkpt lat="48.95644" lon="2.886">
        <ele>49.3</ele>
        <time>2020-07-01T13:33:11Z</time>
      </trkpt>
      <trkpt lat="48.95643" lon="2.88593">
        <ele>49.3</ele>
        <time>2020-07-01T13:33:12Z</time>
      </trkpt>
      <trkpt lat="48.95641" lon="2.8858">
        <ele>49.3</ele>
        <time>2020-07-01T13:33:13Z</time>
      </trkpt>
      <trkpt lat="48.95638" lon="2.88569">
        <ele>49.3</ele>
        <time>2020-07-01T13:33:14Z</time>
      </trkpt>
      <trkpt lat="48.95638" lon="2.88559">
        <ele>49.2</ele>
        <time>2020-07-01T13:33:15Z</time>
      </trkpt>
      <trkpt lat="48.95637" lon="2.88548">
        <ele>49.1</ele>
        <time>2020-07-01T13:33:16Z</time>
      </trkpt>
      <trkpt lat="48.95637" lon="2.88538">
        <ele>49.1</ele>
        <time>2020-07-01T13:33:17Z</time>
      </trkpt>
      <trkpt lat="48.95636" lon="2.88527">
        <ele>49</ele>
        <time>2020-07-01T13:33:18Z</time>
      </trkpt>
      <trkpt lat="48.95636" lon="2.88516">
        <ele>48.8</ele>
        <time>2020-07-01T13:33:19Z</time>
      </trkpt>
      <trkpt lat="48.95635" lon="2.88506">
        <ele>48.8</ele>
        <time>2020-07-01T13:33:20Z</time>
      </trkpt>
      <trkpt lat="48.95634" lon="2.88496">
        <ele>48.7</ele>
        <time>2020-07-01T13:33:21Z</time>
      </trkpt>
      <trkpt lat="48.95633" lon="2.88487">
        <ele>48.6</ele>
        <time>2020-07-01T13:33:22Z</time>
      </trkpt>
      <trkpt lat="48.9563" lon="2.88475">
        <ele>48.5</ele>
        <time>2020-07-01T13:33:23Z</time>
      </trkpt>
      <trkpt lat="48.95629" lon="2.88465">
        <ele>48.5</ele>
        <time>2020-07-01T13:33:24Z</time>
      </trkpt>
      <trkpt lat="48.95629" lon="2.88456">
        <ele>48.5</ele>
        <time>2020-07-01T13:33:25Z</time>
      </trkpt>
      <trkpt lat="48.95629" lon="2.88448">
        <ele>48.4</ele>
        <time>2020-07-01T13:33:26Z</time>
      </trkpt>
      <trkpt lat="48.9563" lon="2.88439">
        <ele>48.4</ele>
        <time>2020-07-01T13:33:27Z</time>
      </trkpt>
      <trkpt lat="48.9563" lon="2.88432">
        <ele>48.4</ele>
        <time>2020-07-01T13:33:28Z</time>
      </trkpt>
      <trkpt lat="48.9563" lon="2.88426">
        <ele>48.4</ele>
        <time>2020-07-01T13:33:29Z</time>
      </trkpt>
      <trkpt lat="48.9563" lon="2.88418">
        <ele>48.4</ele>
        <time>2020-07-01T13:33:30Z</time>
      </trkpt>
      <trkpt lat="48.95629" lon="2.8841">
        <ele>48.5</ele>
        <time>2020-07-01T13:33:31Z</time>
      </trkpt>
      <trkpt lat="48.95629" lon="2.88401">
        <ele>48.5</ele>
        <time>2020-07-01T13:33:32Z</time>
      </trkpt>
      <trkpt lat="48.95629" lon="2.88392">
        <ele>48.6</ele>
        <time>2020-07-01T13:33:33Z</time>
      </trkpt>
      <trkpt lat="48.95629" lon="2.88387">
        <ele>48.6</ele>
        <time>2020-07-01T13:33:34Z</time>
      </trkpt>
      <trkpt lat="48.95629" lon="2.8838">
        <ele>48.6</ele>
        <time>2020-07-01T13:33:35Z</time>
      </trkpt>
      <trkpt lat="48.95629" lon="2.88374">
        <ele>48.6</ele>
        <time>2020-07-01T13:33:36Z</time>
      </trkpt>
      <trkpt lat="48.95629" lon="2.88362">
        <ele>48.7</ele>
        <time>2020-07-01T13:33:37Z</time>
      </trkpt>
      <trkpt lat="48.95628" lon="2.88357">
        <ele>48.7</ele>
        <time>2020-07-01T13:33:38Z</time>
      </trkpt>
      <trkpt lat="48.95628" lon="2.88348">
        <ele>48.7</ele>
        <time>2020-07-01T13:33:39Z</time>
      </trkpt>
      <trkpt lat="48.95628" lon="2.8834">
        <ele>48.8</ele>
        <time>2020-07-01T13:33:40Z</time>
      </trkpt>
      <trkpt lat="48.95627" lon="2.88333">
        <ele>48.8</ele>
        <time>2020-07-01T13:33:41Z</time>
      </trkpt>
      <trkpt lat="48.95627" lon="2.88327">
        <ele>48.8</ele>
        <time>2020-07-01T13:33:42Z</time>
      </trkpt>
      <trkpt lat="48.95627" lon="2.88325">
        <ele>48.8</ele>
        <time>2020-07-01T13:33:43Z</time>
      </trkpt>
      <trkpt lat="48.95627" lon="2.88324">
        <ele>48.8</ele>
        <time>2020-07-01T13:33:44Z</time>
      </trkpt>
      <trkpt lat="48.95626" lon="2.88324">
        <ele>48.8</ele>
        <time>2020-07-01T13:33:45Z</time>
      </trkpt>
      <trkpt lat="48.95628" lon="2.88325">
        <ele>48.8</ele>
        <time>2020-07-01T13:33:46Z</time>
      </trkpt>
      <trkpt lat="48.95628" lon="2.88323">
        <ele>48.8</ele>
        <time>2020-07-01T13:33:47Z</time>
      </trkpt>
      <trkpt lat="48.95628" lon="2.8832">
        <ele>48.8</ele>
        <time>2020-07-01T13:33:48Z</time>
      </trkpt>
      <trkpt lat="48.95629" lon="2.8832">
        <ele>48.8</ele>
        <time>2020-07-01T13:33:49Z</time>
      </trkpt>
      <trkpt lat="48.95629" lon="2.88319">
        <ele>48.8</ele>
        <time>2020-07-01T13:33:50Z</time>
      </trkpt>
      <trkpt lat="48.9563" lon="2.88318">
        <ele>48.8</ele>
        <time>2020-07-01T13:33:51Z</time>
      </trkpt>
      <trkpt lat="48.9563" lon="2.88317">
        <ele>48.8</ele>
        <time>2020-07-01T13:33:52Z</time>
      </trkpt>
      <trkpt lat="48.95631" lon="2.88316">
        <ele>48.8</ele>
        <time>2020-07-01T13:33:53Z</time>
      </trkpt>
      <trkpt lat="48.95631" lon="2.88316">
        <ele>48.8</ele>
        <time>2020-07-01T13:33:54Z</time>
      </trkpt>
      <trkpt lat="48.95632" lon="2.88315">
        <ele>48.8</ele>
        <time>2020-07-01T13:33:55Z</time>
      </trkpt>
      <trkpt lat="48.95632" lon="2.88314">
        <ele>48.8</ele>
        <time>2020-07-01T13:34:27Z</time>
      </trkpt>
      <trkpt lat="48.95633" lon="2.88313">
        <ele>48.9</ele>
        <time>2020-07-01T13:34:28Z</time>
      </trkpt>
      <trkpt lat="48.95633" lon="2.88307">
        <ele>48.9</ele>
        <time>2020-07-01T13:34:29Z</time>
      </trkpt>
      <trkpt lat="48.95634" lon="2.883">
        <ele>49</ele>
        <time>2020-07-01T13:34:30Z</time>
      </trkpt>
      <trkpt lat="48.95635" lon="2.88293">
        <ele>49.1</ele>
        <time>2020-07-01T13:34:31Z</time>
      </trkpt>
      <trkpt lat="48.95635" lon="2.88285">
        <ele>49.2</ele>
        <time>2020-07-01T13:34:32Z</time>
      </trkpt>
      <trkpt lat="48.95636" lon="2.88281">
        <ele>49.2</ele>
        <time>2020-07-01T13:34:33Z</time>
      </trkpt>
      <trkpt lat="48.95637" lon="2.88276">
        <ele>49.3</ele>
        <time>2020-07-01T13:34:34Z</time>
      </trkpt>
      <trkpt lat="48.95638" lon="2.88268">
        <ele>49.4</ele>
        <time>2020-07-01T13:34:35Z</time>
      </trkpt>
      <trkpt lat="48.95638" lon="2.88263">
        <ele>49.5</ele>
        <time>2020-07-01T13:34:36Z</time>
      </trkpt>
      <trkpt lat="48.95638" lon="2.88258">
        <ele>49.5</ele>
        <time>2020-07-01T13:34:37Z</time>
      </trkpt>
      <trkpt lat="48.95639" lon="2.88251">
        <ele>49.6</ele>
        <time>2020-07-01T13:34:38Z</time>
      </trkpt>
      <trkpt lat="48.95641" lon="2.88245">
        <ele>49.7</ele>
        <time>2020-07-01T13:34:39Z</time>
      </trkpt>
      <trkpt lat="48.95642" lon="2.88241">
        <ele>49.6</ele>
        <time>2020-07-01T13:34:40Z</time>
      </trkpt>
      <trkpt lat="48.95644" lon="2.88237">
        <ele>49.5</ele>
        <time>2020-07-01T13:34:41Z</time>
      </trkpt>
      <trkpt lat="48.95647" lon="2.88237">
        <ele>49.4</ele>
        <time>2020-07-01T13:34:42Z</time>
      </trkpt>
      <trkpt lat="48.95651" lon="2.88236">
        <ele>49.3</ele>
        <time>2020-07-01T13:34:43Z</time>
      </trkpt>
      <trkpt lat="48.95652" lon="2.88236">
        <ele>49.2</ele>
        <time>2020-07-01T13:34:44Z</time>
      </trkpt>
      <trkpt lat="48.95654" lon="2.88235">
        <ele>49.1</ele>
        <time>2020-07-01T13:34:45Z</time>
      </trkpt>
      <trkpt lat="48.95655" lon="2.88234">
        <ele>49.1</ele>
        <time>2020-07-01T13:34:46Z</time>
      </trkpt>
      <trkpt lat="48.95657" lon="2.88232">
        <ele>49</ele>
        <time>2020-07-01T13:34:47Z</time>
      </trkpt>
      <trkpt lat="48.95659" lon="2.88232">
        <ele>48.9</ele>
        <time>2020-07-01T13:34:48Z</time>
      </trkpt>
      <trkpt lat="48.95661" lon="2.88231">
        <ele>48.8</ele>
        <time>2020-07-01T13:34:49Z</time>
      </trkpt>
      <trkpt lat="48.95665" lon="2.88231">
        <ele>48.7</ele>
        <time>2020-07-01T13:34:50Z</time>
      </trkpt>
      <trkpt lat="48.95668" lon="2.88231">
        <ele>48.6</ele>
        <time>2020-07-01T13:34:51Z</time>
      </trkpt>
      <trkpt lat="48.95674" lon="2.8823">
        <ele>48.4</ele>
        <time>2020-07-01T13:34:52Z</time>
      </trkpt>
      <trkpt lat="48.95678" lon="2.8823">
        <ele>48.3</ele>
        <time>2020-07-01T13:34:53Z</time>
      </trkpt>
      <trkpt lat="48.95682" lon="2.88229">
        <ele>48.2</ele>
        <time>2020-07-01T13:34:54Z</time>
      </trkpt>
      <trkpt lat="48.95687" lon="2.88228">
        <ele>48.2</ele>
        <time>2020-07-01T13:34:55Z</time>
      </trkpt>
      <trkpt lat="48.95691" lon="2.88227">
        <ele>48.1</ele>
        <time>2020-07-01T13:34:56Z</time>
      </trkpt>
      <trkpt lat="48.95696" lon="2.88227">
        <ele>48</ele>
        <time>2020-07-01T13:34:57Z</time>
      </trkpt>
      <trkpt lat="48.95701" lon="2.88227">
        <ele>48</ele>
        <time>2020-07-01T13:34:58Z</time>
      </trkpt>
      <trkpt lat="48.95706" lon="2.88229">
        <ele>47.9</ele>
        <time>2020-07-01T13:34:59Z</time>
      </trkpt>
      <trkpt lat="48.95708" lon="2.88227">
        <ele>47.9</ele>
        <time>2020-07-01T13:35:00Z</time>
      </trkpt>
      <trkpt lat="48.95712" lon="2.88227">
        <ele>47.9</ele>
        <time>2020-07-01T13:35:01Z</time>
      </trkpt>
      <trkpt lat="48.95717" lon="2.88225">
        <ele>47.8</ele>
        <time>2020-07-01T13:35:02Z</time>
      </trkpt>
      <trkpt lat="48.95723" lon="2.88226">
        <ele>47.8</ele>
        <time>2020-07-01T13:35:03Z</time>
      </trkpt>
      <trkpt lat="48.95726" lon="2.88226">
        <ele>47.8</ele>
        <time>2020-07-01T13:35:04Z</time>
      </trkpt>
      <trkpt lat="48.95728" lon="2.88223">
        <ele>47.8</ele>
        <time>2020-07-01T13:35:05Z</time>
      </trkpt>
      <trkpt lat="48.95732" lon="2.88221">
        <ele>47.9</ele>
        <time>2020-07-01T13:35:06Z</time>
      </trkpt>
      <trkpt lat="48.95735" lon="2.88219">
        <ele>47.9</ele>
        <time>2020-07-01T13:35:07Z</time>
      </trkpt>
      <trkpt lat="48.95738" lon="2.88215">
        <ele>47.9</ele>
        <time>2020-07-01T13:35:08Z</time>
      </trkpt>
      <trkpt lat="48.9574" lon="2.88212">
        <ele>47.9</ele>
        <time>2020-07-01T13:35:09Z</time>
      </trkpt>
      <trkpt lat="48.95742" lon="2.8821">
        <ele>48</ele>
        <time>2020-07-01T13:35:10Z</time>
      </trkpt>
      <trkpt lat="48.95745" lon="2.88206">
        <ele>48</ele>
        <time>2020-07-01T13:35:11Z</time>
      </trkpt>
      <trkpt lat="48.95749" lon="2.88202">
        <ele>48.1</ele>
        <time>2020-07-01T13:35:12Z</time>
      </trkpt>
      <trkpt lat="48.95752" lon="2.88199">
        <ele>48.1</ele>
        <time>2020-07-01T13:35:13Z</time>
      </trkpt>
      <trkpt lat="48.95753" lon="2.88197">
        <ele>48.2</ele>
        <time>2020-07-01T13:35:14Z</time>
      </trkpt>
      <trkpt lat="48.95753" lon="2.88195">
        <ele>48.2</ele>
        <time>2020-07-01T13:35:15Z</time>
      </trkpt>
      <trkpt lat="48.95753" lon="2.8819">
        <ele>48.1</ele>
        <time>2020-07-01T13:35:16Z</time>
      </trkpt>
      <trkpt lat="48.95753" lon="2.88188">
        <ele>48.1</ele>
        <time>2020-07-01T13:35:17Z</time>
      </trkpt>
      <trkpt lat="48.95754" lon="2.88183">
        <ele>48.1</ele>
        <time>2020-07-01T13:35:18Z</time>
      </trkpt>
      <trkpt lat="48.95754" lon="2.88178">
        <ele>48.1</ele>
        <time>2020-07-01T13:35:19Z</time>
      </trkpt>
      <trkpt lat="48.95755" lon="2.88173">
        <ele>48.1</ele>
        <time>2020-07-01T13:35:20Z</time>
      </trkpt>
      <trkpt lat="48.95757" lon="2.88168">
        <ele>48.1</ele>
        <time>2020-07-01T13:35:21Z</time>
      </trkpt>
      <trkpt lat="48.95759" lon="2.88162">
        <ele>48.1</ele>
        <time>2020-07-01T13:35:22Z</time>
      </trkpt>
      <trkpt lat="48.95761" lon="2.88156">
        <ele>48.1</ele>
        <time>2020-07-01T13:35:23Z</time>
      </trkpt>
      <trkpt lat="48.95762" lon="2.8815">
        <ele>48.1</ele>
        <time>2020-07-01T13:35:24Z</time>
      </trkpt>
      <trkpt lat="48.95762" lon="2.88144">
        <ele>48</ele>
        <time>2020-07-01T13:35:25Z</time>
      </trkpt>
      <trkpt lat="48.95765" lon="2.88138">
        <ele>48</ele>
        <time>2020-07-01T13:35:26Z</time>
      </trkpt>
      <trkpt lat="48.95767" lon="2.88133">
        <ele>48</ele>
        <time>2020-07-01T13:35:27Z</time>
      </trkpt>
      <trkpt lat="48.95769" lon="2.88127">
        <ele>48</ele>
        <time>2020-07-01T13:35:28Z</time>
      </trkpt>
      <trkpt lat="48.95771" lon="2.88121">
        <ele>48</ele>
        <time>2020-07-01T13:35:29Z</time>
      </trkpt>
      <trkpt lat="48.95773" lon="2.88117">
        <ele>48</ele>
        <time>2020-07-01T13:35:30Z</time>
      </trkpt>
      <trkpt lat="48.95775" lon="2.88111">
        <ele>48</ele>
        <time>2020-07-01T13:35:31Z</time>
      </trkpt>
      <trkpt lat="48.95777" lon="2.88106">
        <ele>48</ele>
        <time>2020-07-01T13:35:32Z</time>
      </trkpt>
      <trkpt lat="48.95779" lon="2.88101">
        <ele>47.9</ele>
        <time>2020-07-01T13:35:33Z</time>
      </trkpt>
      <trkpt lat="48.95781" lon="2.88096">
        <ele>47.9</ele>
        <time>2020-07-01T13:35:34Z</time>
      </trkpt>
      <trkpt lat="48.95782" lon="2.88091">
        <ele>47.9</ele>
        <time>2020-07-01T13:35:35Z</time>
      </trkpt>
      <trkpt lat="48.95785" lon="2.88086">
        <ele>47.9</ele>
        <time>2020-07-01T13:35:36Z</time>
      </trkpt>
      <trkpt lat="48.95786" lon="2.88082">
        <ele>47.9</ele>
        <time>2020-07-01T13:35:37Z</time>
      </trkpt>
      <trkpt lat="48.95791" lon="2.88077">
        <ele>47.9</ele>
        <time>2020-07-01T13:35:38Z</time>
      </trkpt>
      <trkpt lat="48.95794" lon="2.8807">
        <ele>47.9</ele>
        <time>2020-07-01T13:35:39Z</time>
      </trkpt>
      <trkpt lat="48.95796" lon="2.88064">
        <ele>47.9</ele>
        <time>2020-07-01T13:35:40Z</time>
      </trkpt>
      <trkpt lat="48.95798" lon="2.88058">
        <ele>48</ele>
        <time>2020-07-01T13:35:41Z</time>
      </trkpt>
      <trkpt lat="48.958" lon="2.88053">
        <ele>48</ele>
        <time>2020-07-01T13:35:42Z</time>
      </trkpt>
      <trkpt lat="48.95801" lon="2.88051">
        <ele>48</ele>
        <time>2020-07-01T13:35:43Z</time>
      </trkpt>
      <trkpt lat="48.95803" lon="2.88046">
        <ele>48.1</ele>
        <time>2020-07-01T13:35:44Z</time>
      </trkpt>
      <trkpt lat="48.95805" lon="2.88042">
        <ele>48.2</ele>
        <time>2020-07-01T13:35:45Z</time>
      </trkpt>
      <trkpt lat="48.95805" lon="2.88037">
        <ele>48.2</ele>
        <time>2020-07-01T13:35:46Z</time>
      </trkpt>
      <trkpt lat="48.95807" lon="2.88032">
        <ele>48.3</ele>
        <time>2020-07-01T13:35:47Z</time>
      </trkpt>
      <trkpt lat="48.95809" lon="2.88027">
        <ele>48.4</ele>
        <time>2020-07-01T13:35:48Z</time>
      </trkpt>
      <trkpt lat="48.95811" lon="2.88021">
        <ele>48.5</ele>
        <time>2020-07-01T13:35:49Z</time>
      </trkpt>
      <trkpt lat="48.95812" lon="2.88016">
        <ele>48.6</ele>
        <time>2020-07-01T13:35:50Z</time>
      </trkpt>
      <trkpt lat="48.95814" lon="2.88011">
        <ele>48.7</ele>
        <time>2020-07-01T13:35:51Z</time>
      </trkpt>
      <trkpt lat="48.95814" lon="2.88009">
        <ele>48.7</ele>
        <time>2020-07-01T13:35:52Z</time>
      </trkpt>
      <trkpt lat="48.95815" lon="2.88005">
        <ele>48.8</ele>
        <time>2020-07-01T13:35:53Z</time>
      </trkpt>
      <trkpt lat="48.95816" lon="2.88">
        <ele>48.9</ele>
        <time>2020-07-01T13:35:54Z</time>
      </trkpt>
      <trkpt lat="48.95816" lon="2.87998">
        <ele>49</ele>
        <time>2020-07-01T13:35:55Z</time>
      </trkpt>
      <trkpt lat="48.95814" lon="2.87997">
        <ele>48.9</ele>
        <time>2020-07-01T13:35:56Z</time>
      </trkpt>
      <trkpt lat="48.95814" lon="2.87994">
        <ele>49</ele>
        <time>2020-07-01T13:35:57Z</time>
      </trkpt>
      <trkpt lat="48.95814" lon="2.87991">
        <ele>49</ele>
        <time>2020-07-01T13:35:58Z</time>
      </trkpt>
      <trkpt lat="48.95812" lon="2.8799">
        <ele>49</ele>
        <time>2020-07-01T13:35:59Z</time>
      </trkpt>
      <trkpt lat="48.9581" lon="2.87993">
        <ele>49</ele>
        <time>2020-07-01T13:36:00Z</time>
      </trkpt>
      <trkpt lat="48.95809" lon="2.87993">
        <ele>49</ele>
        <time>2020-07-01T13:36:01Z</time>
      </trkpt>
      <trkpt lat="48.95808" lon="2.87994">
        <ele>49</ele>
        <time>2020-07-01T13:36:02Z</time>
      </trkpt>
      <trkpt lat="48.95808" lon="2.87995">
        <ele>49</ele>
        <time>2020-07-01T13:36:03Z</time>
      </trkpt>
      <trkpt lat="48.95807" lon="2.87995">
        <ele>49</ele>
        <time>2020-07-01T13:36:04Z</time>
      </trkpt>
      <trkpt lat="48.95807" lon="2.87997">
        <ele>49</ele>
        <time>2020-07-01T13:36:05Z</time>
      </trkpt>
      <trkpt lat="48.95808" lon="2.87997">
        <ele>49</ele>
        <time>2020-07-01T13:36:06Z</time>
      </trkpt>
      <trkpt lat="48.95808" lon="2.87998">
        <ele>49</ele>
        <time>2020-07-01T13:36:07Z</time>
      </trkpt>
      <trkpt lat="48.95806" lon="2.87998">
        <ele>49</ele>
        <time>2020-07-01T13:36:08Z</time>
      </trkpt>
      <trkpt lat="48.95806" lon="2.87998">
        <ele>49</ele>
        <time>2020-07-01T13:36:09Z</time>
      </trkpt>
      <trkpt lat="48.95809" lon="2.87983">
        <ele>49</ele>
        <time>2020-07-01T13:36:16Z</time>
      </trkpt>
      <trkpt lat="48.95811" lon="2.87979">
        <ele>49</ele>
        <time>2020-07-01T13:36:17Z</time>
      </trkpt>
      <trkpt lat="48.95813" lon="2.87973">
        <ele>49</ele>
        <time>2020-07-01T13:36:18Z</time>
      </trkpt>
      <trkpt lat="48.95814" lon="2.87971">
        <ele>48.9</ele>
        <time>2020-07-01T13:36:19Z</time>
      </trkpt>
      <trkpt lat="48.95815" lon="2.87965">
        <ele>48.9</ele>
        <time>2020-07-01T13:36:20Z</time>
      </trkpt>
      <trkpt lat="48.95816" lon="2.87959">
        <ele>48.9</ele>
        <time>2020-07-01T13:36:21Z</time>
      </trkpt>
      <trkpt lat="48.95817" lon="2.87953">
        <ele>48.9</ele>
        <time>2020-07-01T13:36:22Z</time>
      </trkpt>
      <trkpt lat="48.95819" lon="2.87949">
        <ele>48.9</ele>
        <time>2020-07-01T13:36:23Z</time>
      </trkpt>
      <trkpt lat="48.95819" lon="2.87942">
        <ele>48.9</ele>
        <time>2020-07-01T13:36:24Z</time>
      </trkpt>
      <trkpt lat="48.9582" lon="2.87937">
        <ele>48.9</ele>
        <time>2020-07-01T13:36:25Z</time>
      </trkpt>
      <trkpt lat="48.95819" lon="2.8793">
        <ele>48.9</ele>
        <time>2020-07-01T13:36:26Z</time>
      </trkpt>
      <trkpt lat="48.95819" lon="2.87924">
        <ele>48.9</ele>
        <time>2020-07-01T13:36:27Z</time>
      </trkpt>
      <trkpt lat="48.95819" lon="2.87916">
        <ele>48.9</ele>
        <time>2020-07-01T13:36:28Z</time>
      </trkpt>
      <trkpt lat="48.95818" lon="2.87911">
        <ele>48.8</ele>
        <time>2020-07-01T13:36:29Z</time>
      </trkpt>
      <trkpt lat="48.95817" lon="2.87906">
        <ele>48.8</ele>
        <time>2020-07-01T13:36:30Z</time>
      </trkpt>
      <trkpt lat="48.95816" lon="2.87902">
        <ele>48.8</ele>
        <time>2020-07-01T13:36:31Z</time>
      </trkpt>
      <trkpt lat="48.95815" lon="2.87897">
        <ele>48.8</ele>
        <time>2020-07-01T13:36:32Z</time>
      </trkpt>
      <trkpt lat="48.95813" lon="2.87891">
        <ele>48.8</ele>
        <time>2020-07-01T13:36:33Z</time>
      </trkpt>
      <trkpt lat="48.95811" lon="2.87885">
        <ele>48.8</ele>
        <time>2020-07-01T13:36:34Z</time>
      </trkpt>
      <trkpt lat="48.9581" lon="2.87879">
        <ele>48.8</ele>
        <time>2020-07-01T13:36:35Z</time>
      </trkpt>
      <trkpt lat="48.95808" lon="2.87871">
        <ele>48.8</ele>
        <time>2020-07-01T13:36:36Z</time>
      </trkpt>
      <trkpt lat="48.95807" lon="2.87863">
        <ele>48.8</ele>
        <time>2020-07-01T13:36:37Z</time>
      </trkpt>
      <trkpt lat="48.95805" lon="2.87855">
        <ele>48.8</ele>
        <time>2020-07-01T13:36:38Z</time>
      </trkpt>
      <trkpt lat="48.95804" lon="2.87847">
        <ele>48.8</ele>
        <time>2020-07-01T13:36:39Z</time>
      </trkpt>
      <trkpt lat="48.95802" lon="2.87842">
        <ele>48.8</ele>
        <time>2020-07-01T13:36:40Z</time>
      </trkpt>
      <trkpt lat="48.95799" lon="2.87835">
        <ele>48.8</ele>
        <time>2020-07-01T13:36:41Z</time>
      </trkpt>
      <trkpt lat="48.95798" lon="2.87829">
        <ele>48.7</ele>
        <time>2020-07-01T13:36:42Z</time>
      </trkpt>
      <trkpt lat="48.95798" lon="2.87823">
        <ele>48.7</ele>
        <time>2020-07-01T13:36:43Z</time>
      </trkpt>
      <trkpt lat="48.95797" lon="2.87816">
        <ele>48.7</ele>
        <time>2020-07-01T13:36:44Z</time>
      </trkpt>
      <trkpt lat="48.95797" lon="2.87809">
        <ele>48.7</ele>
        <time>2020-07-01T13:36:45Z</time>
      </trkpt>
      <trkpt lat="48.95796" lon="2.87804">
        <ele>48.7</ele>
        <time>2020-07-01T13:36:46Z</time>
      </trkpt>
      <trkpt lat="48.95795" lon="2.87798">
        <ele>48.7</ele>
        <time>2020-07-01T13:36:47Z</time>
      </trkpt>
      <trkpt lat="48.95794" lon="2.87792">
        <ele>48.7</ele>
        <time>2020-07-01T13:36:48Z</time>
      </trkpt>
      <trkpt lat="48.95793" lon="2.87787">
        <ele>48.7</ele>
        <time>2020-07-01T13:36:49Z</time>
      </trkpt>
      <trkpt lat="48.95793" lon="2.87782">
        <ele>48.7</ele>
        <time>2020-07-01T13:36:50Z</time>
      </trkpt>
      <trkpt lat="48.95793" lon="2.87777">
        <ele>48.7</ele>
        <time>2020-07-01T13:36:51Z</time>
      </trkpt>
      <trkpt lat="48.95792" lon="2.87772">
        <ele>48.8</ele>
        <time>2020-07-01T13:36:52Z</time>
      </trkpt>
      <trkpt lat="48.95791" lon="2.87766">
        <ele>48.8</ele>
        <time>2020-07-01T13:36:53Z</time>
      </trkpt>
      <trkpt lat="48.9579" lon="2.87761">
        <ele>48.8</ele>
        <time>2020-07-01T13:36:54Z</time>
      </trkpt>
      <trkpt lat="48.95789" lon="2.87755">
        <ele>48.8</ele>
        <time>2020-07-01T13:36:55Z</time>
      </trkpt>
      <trkpt lat="48.95787" lon="2.8775">
        <ele>48.8</ele>
        <time>2020-07-01T13:36:56Z</time>
      </trkpt>
      <trkpt lat="48.95787" lon="2.87745">
        <ele>48.8</ele>
        <time>2020-07-01T13:36:57Z</time>
      </trkpt>
      <trkpt lat="48.95785" lon="2.8774">
        <ele>48.8</ele>
        <time>2020-07-01T13:36:58Z</time>
      </trkpt>
      <trkpt lat="48.95785" lon="2.87737">
        <ele>48.8</ele>
        <time>2020-07-01T13:36:59Z</time>
      </trkpt>
      <trkpt lat="48.95784" lon="2.87735">
        <ele>48.8</ele>
        <time>2020-07-01T13:37:00Z</time>
      </trkpt>
      <trkpt lat="48.95784" lon="2.87733">
        <ele>48.8</ele>
        <time>2020-07-01T13:37:01Z</time>
      </trkpt>
      <trkpt lat="48.95783" lon="2.87732">
        <ele>48.7</ele>
        <time>2020-07-01T13:37:02Z</time>
      </trkpt>
      <trkpt lat="48.95782" lon="2.87732">
        <ele>48.6</ele>
        <time>2020-07-01T13:37:03Z</time>
      </trkpt>
      <trkpt lat="48.95781" lon="2.87734">
        <ele>48.6</ele>
        <time>2020-07-01T13:37:04Z</time>
      </trkpt>
      <trkpt lat="48.95781" lon="2.87735">
        <ele>48.6</ele>
        <time>2020-07-01T13:37:05Z</time>
      </trkpt>
      <trkpt lat="48.9578" lon="2.87736">
        <ele>48.6</ele>
        <time>2020-07-01T13:37:06Z</time>
      </trkpt>
      <trkpt lat="48.95781" lon="2.87734">
        <ele>48.5</ele>
        <time>2020-07-01T13:37:07Z</time>
      </trkpt>
      <trkpt lat="48.95781" lon="2.87735">
        <ele>48.5</ele>
        <time>2020-07-01T13:37:08Z</time>
      </trkpt>
      <trkpt lat="48.95781" lon="2.87736">
        <ele>48.5</ele>
        <time>2020-07-01T13:37:09Z</time>
      </trkpt>
      <trkpt lat="48.95781" lon="2.87738">
        <ele>48.5</ele>
        <time>2020-07-01T13:37:10Z</time>
      </trkpt>
      <trkpt lat="48.9578" lon="2.87738">
        <ele>48.5</ele>
        <time>2020-07-01T13:37:11Z</time>
      </trkpt>
      <trkpt lat="48.9578" lon="2.87738">
        <ele>48.5</ele>
        <time>2020-07-01T13:37:12Z</time>
      </trkpt>
      <trkpt lat="48.95783" lon="2.87733">
        <ele>48.4</ele>
        <time>2020-07-01T13:37:23Z</time>
      </trkpt>
      <trkpt lat="48.95784" lon="2.87731">
        <ele>48.3</ele>
        <time>2020-07-01T13:37:24Z</time>
      </trkpt>
      <trkpt lat="48.95786" lon="2.87726">
        <ele>48.3</ele>
        <time>2020-07-01T13:37:25Z</time>
      </trkpt>
      <trkpt lat="48.95786" lon="2.87725">
        <ele>48.2</ele>
        <time>2020-07-01T13:37:26Z</time>
      </trkpt>
      <trkpt lat="48.9579" lon="2.87725">
        <ele>48.2</ele>
        <time>2020-07-01T13:37:27Z</time>
      </trkpt>
      <trkpt lat="48.95794" lon="2.87726">
        <ele>48.1</ele>
        <time>2020-07-01T13:37:28Z</time>
      </trkpt>
      <trkpt lat="48.95799" lon="2.87726">
        <ele>48.1</ele>
        <time>2020-07-01T13:37:29Z</time>
      </trkpt>
      <trkpt lat="48.95803" lon="2.87729">
        <ele>48</ele>
        <time>2020-07-01T13:37:30Z</time>
      </trkpt>
      <trkpt lat="48.95807" lon="2.87731">
        <ele>48</ele>
        <time>2020-07-01T13:37:31Z</time>
      </trkpt>
      <trkpt lat="48.95812" lon="2.87731">
        <ele>48</ele>
        <time>2020-07-01T13:37:32Z</time>
      </trkpt>
      <trkpt lat="48.95816" lon="2.87732">
        <ele>48</ele>
        <time>2020-07-01T13:37:33Z</time>
      </trkpt>
      <trkpt lat="48.95821" lon="2.8773">
        <ele>48</ele>
        <time>2020-07-01T13:37:34Z</time>
      </trkpt>
      <trkpt lat="48.95825" lon="2.87729">
        <ele>48</ele>
        <time>2020-07-01T13:37:35Z</time>
      </trkpt>
      <trkpt lat="48.9583" lon="2.8773">
        <ele>48.1</ele>
        <time>2020-07-01T13:37:36Z</time>
      </trkpt>
      <trkpt lat="48.95836" lon="2.87729">
        <ele>48.1</ele>
        <time>2020-07-01T13:37:37Z</time>
      </trkpt>
      <trkpt lat="48.9584" lon="2.8773">
        <ele>48.2</ele>
        <time>2020-07-01T13:37:38Z</time>
      </trkpt>
      <trkpt lat="48.95845" lon="2.87731">
        <ele>48.2</ele>
        <time>2020-07-01T13:37:39Z</time>
      </trkpt>
      <trkpt lat="48.95848" lon="2.87732">
        <ele>48.5</ele>
        <time>2020-07-01T13:37:40Z</time>
      </trkpt>
      <trkpt lat="48.95852" lon="2.87731">
        <ele>48.7</ele>
        <time>2020-07-01T13:37:41Z</time>
      </trkpt>
      <trkpt lat="48.95855" lon="2.8773">
        <ele>48.9</ele>
        <time>2020-07-01T13:37:42Z</time>
      </trkpt>
      <trkpt lat="48.95858" lon="2.87727">
        <ele>49</ele>
        <time>2020-07-01T13:37:43Z</time>
      </trkpt>
      <trkpt lat="48.9586" lon="2.8772">
        <ele>49.3</ele>
        <time>2020-07-01T13:37:44Z</time>
      </trkpt>
      <trkpt lat="48.95861" lon="2.87715">
        <ele>49.3</ele>
        <time>2020-07-01T13:37:45Z</time>
      </trkpt>
      <trkpt lat="48.95861" lon="2.87713">
        <ele>49.4</ele>
        <time>2020-07-01T13:37:46Z</time>
      </trkpt>
      <trkpt lat="48.95861" lon="2.87706">
        <ele>49.2</ele>
        <time>2020-07-01T13:37:47Z</time>
      </trkpt>
      <trkpt lat="48.95861" lon="2.87702">
        <ele>49.2</ele>
        <time>2020-07-01T13:37:48Z</time>
      </trkpt>
      <trkpt lat="48.95861" lon="2.87696">
        <ele>49.1</ele>
        <time>2020-07-01T13:37:49Z</time>
      </trkpt>
      <trkpt lat="48.95861" lon="2.87688">
        <ele>49.1</ele>
        <time>2020-07-01T13:37:50Z</time>
      </trkpt>
      <trkpt lat="48.95861" lon="2.8768">
        <ele>49</ele>
        <time>2020-07-01T13:37:51Z</time>
      </trkpt>
      <trkpt lat="48.95861" lon="2.87673">
        <ele>49</ele>
        <time>2020-07-01T13:37:52Z</time>
      </trkpt>
      <trkpt lat="48.95861" lon="2.87667">
        <ele>49</ele>
        <time>2020-07-01T13:37:53Z</time>
      </trkpt>
      <trkpt lat="48.9586" lon="2.87659">
        <ele>49.1</ele>
        <time>2020-07-01T13:37:54Z</time>
      </trkpt>
      <trkpt lat="48.9586" lon="2.87652">
        <ele>49.1</ele>
        <time>2020-07-01T13:37:55Z</time>
      </trkpt>
      <trkpt lat="48.9586" lon="2.87645">
        <ele>49.1</ele>
        <time>2020-07-01T13:37:56Z</time>
      </trkpt>
      <trkpt lat="48.95861" lon="2.87637">
        <ele>49.1</ele>
        <time>2020-07-01T13:37:57Z</time>
      </trkpt>
      <trkpt lat="48.95861" lon="2.87631">
        <ele>49.1</ele>
        <time>2020-07-01T13:37:58Z</time>
      </trkpt>
      <trkpt lat="48.9586" lon="2.87624">
        <ele>49</ele>
        <time>2020-07-01T13:37:59Z</time>
      </trkpt>
      <trkpt lat="48.95859" lon="2.87617">
        <ele>49</ele>
        <time>2020-07-01T13:38:00Z</time>
      </trkpt>
      <trkpt lat="48.95858" lon="2.87609">
        <ele>48.9</ele>
        <time>2020-07-01T13:38:01Z</time>
      </trkpt>
      <trkpt lat="48.95858" lon="2.87603">
        <ele>48.8</ele>
        <time>2020-07-01T13:38:02Z</time>
      </trkpt>
      <trkpt lat="48.95858" lon="2.87596">
        <ele>48.8</ele>
        <time>2020-07-01T13:38:03Z</time>
      </trkpt>
      <trkpt lat="48.95858" lon="2.87588">
        <ele>48.7</ele>
        <time>2020-07-01T13:38:04Z</time>
      </trkpt>
      <trkpt lat="48.95858" lon="2.87581">
        <ele>48.7</ele>
        <time>2020-07-01T13:38:05Z</time>
      </trkpt>
      <trkpt lat="48.95858" lon="2.87575">
        <ele>48.7</ele>
        <time>2020-07-01T13:38:06Z</time>
      </trkpt>
      <trkpt lat="48.95858" lon="2.87568">
        <ele>48.7</ele>
        <time>2020-07-01T13:38:07Z</time>
      </trkpt>
      <trkpt lat="48.95857" lon="2.87561">
        <ele>48.7</ele>
        <time>2020-07-01T13:38:08Z</time>
      </trkpt>
      <trkpt lat="48.95856" lon="2.87554">
        <ele>48.7</ele>
        <time>2020-07-01T13:38:09Z</time>
      </trkpt>
      <trkpt lat="48.95855" lon="2.87546">
        <ele>48.7</ele>
        <time>2020-07-01T13:38:10Z</time>
      </trkpt>
      <trkpt lat="48.95854" lon="2.87537">
        <ele>48.7</ele>
        <time>2020-07-01T13:38:11Z</time>
      </trkpt>
      <trkpt lat="48.95853" lon="2.87529">
        <ele>48.7</ele>
        <time>2020-07-01T13:38:12Z</time>
      </trkpt>
      <trkpt lat="48.95853" lon="2.87523">
        <ele>48.7</ele>
        <time>2020-07-01T13:38:13Z</time>
      </trkpt>
      <trkpt lat="48.95853" lon="2.87516">
        <ele>48.6</ele>
        <time>2020-07-01T13:38:14Z</time>
      </trkpt>
      <trkpt lat="48.95852" lon="2.87508">
        <ele>48.6</ele>
        <time>2020-07-01T13:38:15Z</time>
      </trkpt>
      <trkpt lat="48.95852" lon="2.87501">
        <ele>48.5</ele>
        <time>2020-07-01T13:38:16Z</time>
      </trkpt>
      <trkpt lat="48.95854" lon="2.87492">
        <ele>48.5</ele>
        <time>2020-07-01T13:38:17Z</time>
      </trkpt>
      <trkpt lat="48.95856" lon="2.87487">
        <ele>48.4</ele>
        <time>2020-07-01T13:38:18Z</time>
      </trkpt>
      <trkpt lat="48.95858" lon="2.87481">
        <ele>48.4</ele>
        <time>2020-07-01T13:38:19Z</time>
      </trkpt>
      <trkpt lat="48.9586" lon="2.87475">
        <ele>48.3</ele>
        <time>2020-07-01T13:38:20Z</time>
      </trkpt>
      <trkpt lat="48.95864" lon="2.8747">
        <ele>48.3</ele>
        <time>2020-07-01T13:38:21Z</time>
      </trkpt>
      <trkpt lat="48.95868" lon="2.87465">
        <ele>48.2</ele>
        <time>2020-07-01T13:38:22Z</time>
      </trkpt>
      <trkpt lat="48.95871" lon="2.8746">
        <ele>48.1</ele>
        <time>2020-07-01T13:38:23Z</time>
      </trkpt>
      <trkpt lat="48.95875" lon="2.87455">
        <ele>48</ele>
        <time>2020-07-01T13:38:24Z</time>
      </trkpt>
      <trkpt lat="48.95879" lon="2.87449">
        <ele>47.9</ele>
        <time>2020-07-01T13:38:25Z</time>
      </trkpt>
      <trkpt lat="48.95882" lon="2.87443">
        <ele>47.8</ele>
        <time>2020-07-01T13:38:26Z</time>
      </trkpt>
      <trkpt lat="48.95886" lon="2.87436">
        <ele>47.6</ele>
        <time>2020-07-01T13:38:27Z</time>
      </trkpt>
      <trkpt lat="48.95889" lon="2.87429">
        <ele>47.6</ele>
        <time>2020-07-01T13:38:28Z</time>
      </trkpt>
      <trkpt lat="48.95893" lon="2.87424">
        <ele>47.6</ele>
        <time>2020-07-01T13:38:29Z</time>
      </trkpt>
      <trkpt lat="48.95897" lon="2.87417">
        <ele>47.5</ele>
        <time>2020-07-01T13:38:30Z</time>
      </trkpt>
      <trkpt lat="48.959" lon="2.8741">
        <ele>47.5</ele>
        <time>2020-07-01T13:38:31Z</time>
      </trkpt>
      <trkpt lat="48.95904" lon="2.87403">
        <ele>47.6</ele>
        <time>2020-07-01T13:38:32Z</time>
      </trkpt>
      <trkpt lat="48.95908" lon="2.87398">
        <ele>47.6</ele>
        <time>2020-07-01T13:38:33Z</time>
      </trkpt>
      <trkpt lat="48.95912" lon="2.87393">
        <ele>47.6</ele>
        <time>2020-07-01T13:38:34Z</time>
      </trkpt>
      <trkpt lat="48.95915" lon="2.87388">
        <ele>47.7</ele>
        <time>2020-07-01T13:38:35Z</time>
      </trkpt>
      <trkpt lat="48.95917" lon="2.87384">
        <ele>47.7</ele>
        <time>2020-07-01T13:38:36Z</time>
      </trkpt>
      <trkpt lat="48.9592" lon="2.8738">
        <ele>47.7</ele>
        <time>2020-07-01T13:38:37Z</time>
      </trkpt>
      <trkpt lat="48.95923" lon="2.87378">
        <ele>47.7</ele>
        <time>2020-07-01T13:38:38Z</time>
      </trkpt>
      <trkpt lat="48.95924" lon="2.87378">
        <ele>47.7</ele>
        <time>2020-07-01T13:38:39Z</time>
      </trkpt>
      <trkpt lat="48.95925" lon="2.87377">
        <ele>47.7</ele>
        <time>2020-07-01T13:38:40Z</time>
      </trkpt>
      <trkpt lat="48.95926" lon="2.87375">
        <ele>47.8</ele>
        <time>2020-07-01T13:38:41Z</time>
      </trkpt>
      <trkpt lat="48.95926" lon="2.87377">
        <ele>47.8</ele>
        <time>2020-07-01T13:38:42Z</time>
      </trkpt>
      <trkpt lat="48.95927" lon="2.87379">
        <ele>47.8</ele>
        <time>2020-07-01T13:38:43Z</time>
      </trkpt>
      <trkpt lat="48.95927" lon="2.87379">
        <ele>47.8</ele>
        <time>2020-07-01T13:38:44Z</time>
      </trkpt>
      <trkpt lat="48.95926" lon="2.8738">
        <ele>47.8</ele>
        <time>2020-07-01T13:38:45Z</time>
      </trkpt>
      <trkpt lat="48.95924" lon="2.87382">
        <ele>47.8</ele>
        <time>2020-07-01T13:38:46Z</time>
      </trkpt>
      <trkpt lat="48.95923" lon="2.87382">
        <ele>47.8</ele>
        <time>2020-07-01T13:38:47Z</time>
      </trkpt>
      <trkpt lat="48.95923" lon="2.87381">
        <ele>47.8</ele>
        <time>2020-07-01T13:38:48Z</time>
      </trkpt>
      <trkpt lat="48.95922" lon="2.87379">
        <ele>47.8</ele>
        <time>2020-07-01T13:38:49Z</time>
      </trkpt>
      <trkpt lat="48.95922" lon="2.87377">
        <ele>47.8</ele>
        <time>2020-07-01T13:38:50Z</time>
      </trkpt>
      <trkpt lat="48.95922" lon="2.87376">
        <ele>47.8</ele>
        <time>2020-07-01T13:38:51Z</time>
      </trkpt>
      <trkpt lat="48.95922" lon="2.87374">
        <ele>47.8</ele>
        <time>2020-07-01T13:38:52Z</time>
      </trkpt>
      <trkpt lat="48.95922" lon="2.87372">
        <ele>47.8</ele>
        <time>2020-07-01T13:39:15Z</time>
      </trkpt>
      <trkpt lat="48.95921" lon="2.8737">
        <ele>47.8</ele>
        <time>2020-07-01T13:39:16Z</time>
      </trkpt>
      <trkpt lat="48.95924" lon="2.87364">
        <ele>47.9</ele>
        <time>2020-07-01T13:39:17Z</time>
      </trkpt>
      <trkpt lat="48.95926" lon="2.87356">
        <ele>48</ele>
        <time>2020-07-01T13:39:18Z</time>
      </trkpt>
      <trkpt lat="48.95927" lon="2.8735">
        <ele>48</ele>
        <time>2020-07-01T13:39:19Z</time>
      </trkpt>
      <trkpt lat="48.95929" lon="2.87342">
        <ele>48.1</ele>
        <time>2020-07-01T13:39:20Z</time>
      </trkpt>
      <trkpt lat="48.95929" lon="2.87334">
        <ele>48.1</ele>
        <time>2020-07-01T13:39:21Z</time>
      </trkpt>
      <trkpt lat="48.95928" lon="2.87327">
        <ele>48.2</ele>
        <time>2020-07-01T13:39:22Z</time>
      </trkpt>
      <trkpt lat="48.95927" lon="2.87318">
        <ele>48.3</ele>
        <time>2020-07-01T13:39:23Z</time>
      </trkpt>
      <trkpt lat="48.95925" lon="2.8731">
        <ele>48.3</ele>
        <time>2020-07-01T13:39:24Z</time>
      </trkpt>
      <trkpt lat="48.95924" lon="2.87301">
        <ele>48.4</ele>
        <time>2020-07-01T13:39:25Z</time>
      </trkpt>
      <trkpt lat="48.95922" lon="2.87294">
        <ele>48.4</ele>
        <time>2020-07-01T13:39:26Z</time>
      </trkpt>
      <trkpt lat="48.95921" lon="2.87287">
        <ele>48.5</ele>
        <time>2020-07-01T13:39:27Z</time>
      </trkpt>
      <trkpt lat="48.95919" lon="2.8728">
        <ele>48.5</ele>
        <time>2020-07-01T13:39:28Z</time>
      </trkpt>
      <trkpt lat="48.95916" lon="2.87273">
        <ele>48.5</ele>
        <time>2020-07-01T13:39:29Z</time>
      </trkpt>
      <trkpt lat="48.95915" lon="2.87268">
        <ele>48.5</ele>
        <time>2020-07-01T13:39:30Z</time>
      </trkpt>
      <trkpt lat="48.95912" lon="2.87264">
        <ele>48.5</ele>
        <time>2020-07-01T13:39:31Z</time>
      </trkpt>
      <trkpt lat="48.95909" lon="2.87257">
        <ele>48.5</ele>
        <time>2020-07-01T13:39:32Z</time>
      </trkpt>
      <trkpt lat="48.95905" lon="2.87255">
        <ele>48.5</ele>
        <time>2020-07-01T13:39:33Z</time>
      </trkpt>
      <trkpt lat="48.95901" lon="2.87254">
        <ele>48.8</ele>
        <time>2020-07-01T13:39:34Z</time>
      </trkpt>
      <trkpt lat="48.95896" lon="2.87252">
        <ele>49</ele>
        <time>2020-07-01T13:39:35Z</time>
      </trkpt>
      <trkpt lat="48.95891" lon="2.87251">
        <ele>49.2</ele>
        <time>2020-07-01T13:39:36Z</time>
      </trkpt>
      <trkpt lat="48.95886" lon="2.87249">
        <ele>49.3</ele>
        <time>2020-07-01T13:39:37Z</time>
      </trkpt>
      <trkpt lat="48.95881" lon="2.87247">
        <ele>49.4</ele>
        <time>2020-07-01T13:39:38Z</time>
      </trkpt>
      <trkpt lat="48.95877" lon="2.87246">
        <ele>49.5</ele>
        <time>2020-07-01T13:39:39Z</time>
      </trkpt>
      <trkpt lat="48.95872" lon="2.87245">
        <ele>49.7</ele>
        <time>2020-07-01T13:39:40Z</time>
      </trkpt>
      <trkpt lat="48.95866" lon="2.87241">
        <ele>49.8</ele>
        <time>2020-07-01T13:39:41Z</time>
      </trkpt>
      <trkpt lat="48.9586" lon="2.87241">
        <ele>49.9</ele>
        <time>2020-07-01T13:39:42Z</time>
      </trkpt>
      <trkpt lat="48.95854" lon="2.87242">
        <ele>50.1</ele>
        <time>2020-07-01T13:39:43Z</time>
      </trkpt>
      <trkpt lat="48.95848" lon="2.87242">
        <ele>50.2</ele>
        <time>2020-07-01T13:39:44Z</time>
      </trkpt>
      <trkpt lat="48.95843" lon="2.87243">
        <ele>50.3</ele>
        <time>2020-07-01T13:39:45Z</time>
      </trkpt>
      <trkpt lat="48.95837" lon="2.87243">
        <ele>50.4</ele>
        <time>2020-07-01T13:39:46Z</time>
      </trkpt>
      <trkpt lat="48.95832" lon="2.87243">
        <ele>50.5</ele>
        <time>2020-07-01T13:39:47Z</time>
      </trkpt>
      <trkpt lat="48.95827" lon="2.87242">
        <ele>50.7</ele>
        <time>2020-07-01T13:39:48Z</time>
      </trkpt>
      <trkpt lat="48.95822" lon="2.87242">
        <ele>50.8</ele>
        <time>2020-07-01T13:39:49Z</time>
      </trkpt>
      <trkpt lat="48.95817" lon="2.87242">
        <ele>50.9</ele>
        <time>2020-07-01T13:39:50Z</time>
      </trkpt>
      <trkpt lat="48.95812" lon="2.87242">
        <ele>51.1</ele>
        <time>2020-07-01T13:39:51Z</time>
      </trkpt>
      <trkpt lat="48.95807" lon="2.87243">
        <ele>51.2</ele>
        <time>2020-07-01T13:39:52Z</time>
      </trkpt>
      <trkpt lat="48.95803" lon="2.87242">
        <ele>51.3</ele>
        <time>2020-07-01T13:39:53Z</time>
      </trkpt>
      <trkpt lat="48.95798" lon="2.87243">
        <ele>51.5</ele>
        <time>2020-07-01T13:39:54Z</time>
      </trkpt>
      <trkpt lat="48.95793" lon="2.87243">
        <ele>51.7</ele>
        <time>2020-07-01T13:39:55Z</time>
      </trkpt>
      <trkpt lat="48.95788" lon="2.87243">
        <ele>51.8</ele>
        <time>2020-07-01T13:39:56Z</time>
      </trkpt>
      <trkpt lat="48.95782" lon="2.87245">
        <ele>52</ele>
        <time>2020-07-01T13:39:57Z</time>
      </trkpt>
      <trkpt lat="48.95778" lon="2.87246">
        <ele>52.1</ele>
        <time>2020-07-01T13:39:58Z</time>
      </trkpt>
      <trkpt lat="48.95772" lon="2.87246">
        <ele>52.3</ele>
        <time>2020-07-01T13:39:59Z</time>
      </trkpt>
      <trkpt lat="48.95767" lon="2.87245">
        <ele>52.5</ele>
        <time>2020-07-01T13:40:00Z</time>
      </trkpt>
      <trkpt lat="48.95762" lon="2.87245">
        <ele>52.7</ele>
        <time>2020-07-01T13:40:01Z</time>
      </trkpt>
      <trkpt lat="48.95757" lon="2.87246">
        <ele>52.9</ele>
        <time>2020-07-01T13:40:02Z</time>
      </trkpt>
      <trkpt lat="48.95752" lon="2.87244">
        <ele>53.1</ele>
        <time>2020-07-01T13:40:03Z</time>
      </trkpt>
      <trkpt lat="48.95748" lon="2.87245">
        <ele>53.3</ele>
        <time>2020-07-01T13:40:04Z</time>
      </trkpt>
      <trkpt lat="48.95743" lon="2.87245">
        <ele>53.4</ele>
        <time>2020-07-01T13:40:05Z</time>
      </trkpt>
      <trkpt lat="48.95739" lon="2.87246">
        <ele>53.6</ele>
        <time>2020-07-01T13:40:06Z</time>
      </trkpt>
      <trkpt lat="48.95734" lon="2.87246">
        <ele>53.8</ele>
        <time>2020-07-01T13:40:07Z</time>
      </trkpt>
      <trkpt lat="48.95729" lon="2.87246">
        <ele>54</ele>
        <time>2020-07-01T13:40:08Z</time>
      </trkpt>
      <trkpt lat="48.95725" lon="2.87246">
        <ele>54.1</ele>
        <time>2020-07-01T13:40:09Z</time>
      </trkpt>
      <trkpt lat="48.95719" lon="2.87246">
        <ele>54.3</ele>
        <time>2020-07-01T13:40:10Z</time>
      </trkpt>
      <trkpt lat="48.95714" lon="2.87246">
        <ele>54.5</ele>
        <time>2020-07-01T13:40:11Z</time>
      </trkpt>
      <trkpt lat="48.9571" lon="2.87246">
        <ele>54.7</ele>
        <time>2020-07-01T13:40:12Z</time>
      </trkpt>
      <trkpt lat="48.95706" lon="2.87244">
        <ele>54.8</ele>
        <time>2020-07-01T13:40:13Z</time>
      </trkpt>
      <trkpt lat="48.95701" lon="2.87244">
        <ele>55</ele>
        <time>2020-07-01T13:40:14Z</time>
      </trkpt>
      <trkpt lat="48.95698" lon="2.87244">
        <ele>55.1</ele>
        <time>2020-07-01T13:40:15Z</time>
      </trkpt>
      <trkpt lat="48.95694" lon="2.87245">
        <ele>55.2</ele>
        <time>2020-07-01T13:40:16Z</time>
      </trkpt>
      <trkpt lat="48.9569" lon="2.87245">
        <ele>55.4</ele>
        <time>2020-07-01T13:40:17Z</time>
      </trkpt>
      <trkpt lat="48.95687" lon="2.87246">
        <ele>55.4</ele>
        <time>2020-07-01T13:40:18Z</time>
      </trkpt>
      <trkpt lat="48.95683" lon="2.87245">
        <ele>55.4</ele>
        <time>2020-07-01T13:40:19Z</time>
      </trkpt>
      <trkpt lat="48.95679" lon="2.87246">
        <ele>55.3</ele>
        <time>2020-07-01T13:40:20Z</time>
      </trkpt>
      <trkpt lat="48.95675" lon="2.87247">
        <ele>55.4</ele>
        <time>2020-07-01T13:40:21Z</time>
      </trkpt>
      <trkpt lat="48.95671" lon="2.87247">
        <ele>55.6</ele>
        <time>2020-07-01T13:40:22Z</time>
      </trkpt>
      <trkpt lat="48.95667" lon="2.87248">
        <ele>55.7</ele>
        <time>2020-07-01T13:40:23Z</time>
      </trkpt>
      <trkpt lat="48.95662" lon="2.87247">
        <ele>55.8</ele>
        <time>2020-07-01T13:40:24Z</time>
      </trkpt>
      <trkpt lat="48.95656" lon="2.87245">
        <ele>56</ele>
        <time>2020-07-01T13:40:25Z</time>
      </trkpt>
      <trkpt lat="48.95651" lon="2.87246">
        <ele>56.1</ele>
        <time>2020-07-01T13:40:26Z</time>
      </trkpt>
      <trkpt lat="48.95645" lon="2.87246">
        <ele>56.2</ele>
        <time>2020-07-01T13:40:27Z</time>
      </trkpt>
      <trkpt lat="48.95641" lon="2.87245">
        <ele>56.4</ele>
        <time>2020-07-01T13:40:28Z</time>
      </trkpt>
      <trkpt lat="48.95637" lon="2.87244">
        <ele>56.5</ele>
        <time>2020-07-01T13:40:29Z</time>
      </trkpt>
      <trkpt lat="48.95633" lon="2.87243">
        <ele>56.6</ele>
        <time>2020-07-01T13:40:30Z</time>
      </trkpt>
      <trkpt lat="48.95629" lon="2.87243">
        <ele>56.7</ele>
        <time>2020-07-01T13:40:31Z</time>
      </trkpt>
      <trkpt lat="48.95625" lon="2.87243">
        <ele>56.8</ele>
        <time>2020-07-01T13:40:32Z</time>
      </trkpt>
      <trkpt lat="48.9562" lon="2.87243">
        <ele>56.8</ele>
        <time>2020-07-01T13:40:33Z</time>
      </trkpt>
      <trkpt lat="48.95617" lon="2.87241">
        <ele>56.9</ele>
        <time>2020-07-01T13:40:34Z</time>
      </trkpt>
      <trkpt lat="48.95613" lon="2.87241">
        <ele>57</ele>
        <time>2020-07-01T13:40:35Z</time>
      </trkpt>
      <trkpt lat="48.9561" lon="2.8724">
        <ele>57.2</ele>
        <time>2020-07-01T13:40:36Z</time>
      </trkpt>
      <trkpt lat="48.95607" lon="2.87241">
        <ele>57.3</ele>
        <time>2020-07-01T13:40:37Z</time>
      </trkpt>
      <trkpt lat="48.95603" lon="2.87244">
        <ele>57.4</ele>
        <time>2020-07-01T13:40:38Z</time>
      </trkpt>
      <trkpt lat="48.95599" lon="2.87245">
        <ele>57.6</ele>
        <time>2020-07-01T13:40:39Z</time>
      </trkpt>
      <trkpt lat="48.95598" lon="2.87245">
        <ele>57.6</ele>
        <time>2020-07-01T13:40:40Z</time>
      </trkpt>
      <trkpt lat="48.95595" lon="2.87246">
        <ele>57.7</ele>
        <time>2020-07-01T13:40:41Z</time>
      </trkpt>
      <trkpt lat="48.95592" lon="2.87248">
        <ele>57.8</ele>
        <time>2020-07-01T13:40:42Z</time>
      </trkpt>
      <trkpt lat="48.95591" lon="2.87249">
        <ele>57.9</ele>
        <time>2020-07-01T13:40:43Z</time>
      </trkpt>
      <trkpt lat="48.95589" lon="2.87249">
        <ele>57.9</ele>
        <time>2020-07-01T13:40:44Z</time>
      </trkpt>
      <trkpt lat="48.95588" lon="2.87249">
        <ele>58</ele>
        <time>2020-07-01T13:40:45Z</time>
      </trkpt>
      <trkpt lat="48.95587" lon="2.87249">
        <ele>58</ele>
        <time>2020-07-01T13:40:46Z</time>
      </trkpt>
      <trkpt lat="48.95586" lon="2.87247">
        <ele>58</ele>
        <time>2020-07-01T13:40:47Z</time>
      </trkpt>
      <trkpt lat="48.95586" lon="2.87247">
        <ele>58.1</ele>
        <time>2020-07-01T13:40:48Z</time>
      </trkpt>
      <trkpt lat="48.95585" lon="2.87246">
        <ele>58.1</ele>
        <time>2020-07-01T13:40:49Z</time>
      </trkpt>
      <trkpt lat="48.95585" lon="2.87246">
        <ele>58.1</ele>
        <time>2020-07-01T13:40:50Z</time>
      </trkpt>
      <trkpt lat="48.95585" lon="2.87245">
        <ele>58.1</ele>
        <time>2020-07-01T13:40:51Z</time>
      </trkpt>
      <trkpt lat="48.95584" lon="2.87245">
        <ele>58.1</ele>
        <time>2020-07-01T13:40:52Z</time>
      </trkpt>
      <trkpt lat="48.9558" lon="2.87244">
        <ele>58.2</ele>
        <time>2020-07-01T13:40:53Z</time>
      </trkpt>
      <trkpt lat="48.95579" lon="2.87244">
        <ele>58.3</ele>
        <time>2020-07-01T13:40:54Z</time>
      </trkpt>
      <trkpt lat="48.95575" lon="2.87243">
        <ele>58.4</ele>
        <time>2020-07-01T13:40:55Z</time>
      </trkpt>
      <trkpt lat="48.95573" lon="2.87244">
        <ele>58.4</ele>
        <time>2020-07-01T13:40:56Z</time>
      </trkpt>
      <trkpt lat="48.9557" lon="2.87244">
        <ele>58.5</ele>
        <time>2020-07-01T13:40:57Z</time>
      </trkpt>
      <trkpt lat="48.95565" lon="2.87245">
        <ele>58.7</ele>
        <time>2020-07-01T13:40:58Z</time>
      </trkpt>
      <trkpt lat="48.95563" lon="2.87245">
        <ele>58.7</ele>
        <time>2020-07-01T13:40:59Z</time>
      </trkpt>
      <trkpt lat="48.95559" lon="2.87244">
        <ele>58.9</ele>
        <time>2020-07-01T13:41:00Z</time>
      </trkpt>
      <trkpt lat="48.95554" lon="2.87244">
        <ele>59</ele>
        <time>2020-07-01T13:41:01Z</time>
      </trkpt>
      <trkpt lat="48.9555" lon="2.87244">
        <ele>59.1</ele>
        <time>2020-07-01T13:41:02Z</time>
      </trkpt>
      <trkpt lat="48.95544" lon="2.87245">
        <ele>59.3</ele>
        <time>2020-07-01T13:41:03Z</time>
      </trkpt>
      <trkpt lat="48.95539" lon="2.87245">
        <ele>59.5</ele>
        <time>2020-07-01T13:41:04Z</time>
      </trkpt>
      <trkpt lat="48.95534" lon="2.87244">
        <ele>59.6</ele>
        <time>2020-07-01T13:41:05Z</time>
      </trkpt>
      <trkpt lat="48.9553" lon="2.87243">
        <ele>59.8</ele>
        <time>2020-07-01T13:41:06Z</time>
      </trkpt>
      <trkpt lat="48.95526" lon="2.87242">
        <ele>59.9</ele>
        <time>2020-07-01T13:41:07Z</time>
      </trkpt>
      <trkpt lat="48.95522" lon="2.87241">
        <ele>60.1</ele>
        <time>2020-07-01T13:41:08Z</time>
      </trkpt>
      <trkpt lat="48.95518" lon="2.87239">
        <ele>60.2</ele>
        <time>2020-07-01T13:41:09Z</time>
      </trkpt>
      <trkpt lat="48.95516" lon="2.87237">
        <ele>60.3</ele>
        <time>2020-07-01T13:41:10Z</time>
      </trkpt>
      <trkpt lat="48.95512" lon="2.87234">
        <ele>60.4</ele>
        <time>2020-07-01T13:41:11Z</time>
      </trkpt>
      <trkpt lat="48.9551" lon="2.87231">
        <ele>60.5</ele>
        <time>2020-07-01T13:41:12Z</time>
      </trkpt>
      <trkpt lat="48.95507" lon="2.87227">
        <ele>60.6</ele>
        <time>2020-07-01T13:41:13Z</time>
      </trkpt>
      <trkpt lat="48.95504" lon="2.87224">
        <ele>60.7</ele>
        <time>2020-07-01T13:41:14Z</time>
      </trkpt>
      <trkpt lat="48.95502" lon="2.8722">
        <ele>60.8</ele>
        <time>2020-07-01T13:41:15Z</time>
      </trkpt>
      <trkpt lat="48.955" lon="2.87217">
        <ele>60.9</ele>
        <time>2020-07-01T13:41:16Z</time>
      </trkpt>
      <trkpt lat="48.95498" lon="2.87212">
        <ele>61.1</ele>
        <time>2020-07-01T13:41:17Z</time>
      </trkpt>
      <trkpt lat="48.95495" lon="2.87205">
        <ele>61.2</ele>
        <time>2020-07-01T13:41:18Z</time>
      </trkpt>
      <trkpt lat="48.95495" lon="2.87201">
        <ele>61.3</ele>
        <time>2020-07-01T13:41:19Z</time>
      </trkpt>
      <trkpt lat="48.95494" lon="2.87196">
        <ele>61.5</ele>
        <time>2020-07-01T13:41:20Z</time>
      </trkpt>
      <trkpt lat="48.95494" lon="2.87191">
        <ele>61.6</ele>
        <time>2020-07-01T13:41:21Z</time>
      </trkpt>
      <trkpt lat="48.95493" lon="2.87184">
        <ele>61.7</ele>
        <time>2020-07-01T13:41:22Z</time>
      </trkpt>
      <trkpt lat="48.95492" lon="2.87179">
        <ele>61.9</ele>
        <time>2020-07-01T13:41:23Z</time>
      </trkpt>
      <trkpt lat="48.95492" lon="2.87173">
        <ele>62</ele>
        <time>2020-07-01T13:41:24Z</time>
      </trkpt>
      <trkpt lat="48.95492" lon="2.87168">
        <ele>62.1</ele>
        <time>2020-07-01T13:41:25Z</time>
      </trkpt>
      <trkpt lat="48.95492" lon="2.87163">
        <ele>62.2</ele>
        <time>2020-07-01T13:41:26Z</time>
      </trkpt>
      <trkpt lat="48.95493" lon="2.87161">
        <ele>62.2</ele>
        <time>2020-07-01T13:41:27Z</time>
      </trkpt>
      <trkpt lat="48.95493" lon="2.87156">
        <ele>62.3</ele>
        <time>2020-07-01T13:41:28Z</time>
      </trkpt>
      <trkpt lat="48.95493" lon="2.87154">
        <ele>62.4</ele>
        <time>2020-07-01T13:41:29Z</time>
      </trkpt>
      <trkpt lat="48.95494" lon="2.8715">
        <ele>62.4</ele>
        <time>2020-07-01T13:41:30Z</time>
      </trkpt>
      <trkpt lat="48.95494" lon="2.87148">
        <ele>62.5</ele>
        <time>2020-07-01T13:41:31Z</time>
      </trkpt>
      <trkpt lat="48.95494" lon="2.87143">
        <ele>62.5</ele>
        <time>2020-07-01T13:41:32Z</time>
      </trkpt>
      <trkpt lat="48.95494" lon="2.87141">
        <ele>62.6</ele>
        <time>2020-07-01T13:41:33Z</time>
      </trkpt>
      <trkpt lat="48.95495" lon="2.87137">
        <ele>62.6</ele>
        <time>2020-07-01T13:41:34Z</time>
      </trkpt>
      <trkpt lat="48.95495" lon="2.87136">
        <ele>62.6</ele>
        <time>2020-07-01T13:41:35Z</time>
      </trkpt>
      <trkpt lat="48.95495" lon="2.87135">
        <ele>62.6</ele>
        <time>2020-07-01T13:41:36Z</time>
      </trkpt>
      <trkpt lat="48.95495" lon="2.87135">
        <ele>62.6</ele>
        <time>2020-07-01T13:41:37Z</time>
      </trkpt>
      <trkpt lat="48.95496" lon="2.87135">
        <ele>62.6</ele>
        <time>2020-07-01T13:41:38Z</time>
      </trkpt>
      <trkpt lat="48.95497" lon="2.87133">
        <ele>62.7</ele>
        <time>2020-07-01T13:41:39Z</time>
      </trkpt>
      <trkpt lat="48.95497" lon="2.87131">
        <ele>62.7</ele>
        <time>2020-07-01T13:41:40Z</time>
      </trkpt>
      <trkpt lat="48.95498" lon="2.87126">
        <ele>62.9</ele>
        <time>2020-07-01T13:41:41Z</time>
      </trkpt>
      <trkpt lat="48.95498" lon="2.87126">
        <ele>62.9</ele>
        <time>2020-07-01T13:41:42Z</time>
      </trkpt>
      <trkpt lat="48.95499" lon="2.87122">
        <ele>63</ele>
        <time>2020-07-01T13:41:43Z</time>
      </trkpt>
      <trkpt lat="48.955" lon="2.87116">
        <ele>63.2</ele>
        <time>2020-07-01T13:41:44Z</time>
      </trkpt>
      <trkpt lat="48.955" lon="2.87113">
        <ele>63.3</ele>
        <time>2020-07-01T13:41:45Z</time>
      </trkpt>
      <trkpt lat="48.95499" lon="2.87109">
        <ele>63.4</ele>
        <time>2020-07-01T13:41:46Z</time>
      </trkpt>
      <trkpt lat="48.95499" lon="2.87103">
        <ele>63.5</ele>
        <time>2020-07-01T13:41:47Z</time>
      </trkpt>
      <trkpt lat="48.955" lon="2.87096">
        <ele>63.7</ele>
        <time>2020-07-01T13:41:48Z</time>
      </trkpt>
      <trkpt lat="48.955" lon="2.87089">
        <ele>63.9</ele>
        <time>2020-07-01T13:41:49Z</time>
      </trkpt>
      <trkpt lat="48.955" lon="2.87083">
        <ele>64.1</ele>
        <time>2020-07-01T13:41:50Z</time>
      </trkpt>
      <trkpt lat="48.95501" lon="2.87076">
        <ele>64.3</ele>
        <time>2020-07-01T13:41:51Z</time>
      </trkpt>
      <trkpt lat="48.95501" lon="2.8707">
        <ele>64.4</ele>
        <time>2020-07-01T13:41:52Z</time>
      </trkpt>
      <trkpt lat="48.95502" lon="2.87063">
        <ele>64.6</ele>
        <time>2020-07-01T13:41:53Z</time>
      </trkpt>
      <trkpt lat="48.95502" lon="2.87056">
        <ele>64.8</ele>
        <time>2020-07-01T13:41:54Z</time>
      </trkpt>
      <trkpt lat="48.95502" lon="2.87049">
        <ele>65</ele>
        <time>2020-07-01T13:41:55Z</time>
      </trkpt>
      <trkpt lat="48.95502" lon="2.87042">
        <ele>65.2</ele>
        <time>2020-07-01T13:41:56Z</time>
      </trkpt>
      <trkpt lat="48.95501" lon="2.8704">
        <ele>65.3</ele>
        <time>2020-07-01T13:41:57Z</time>
      </trkpt>
      <trkpt lat="48.95504" lon="2.87034">
        <ele>65.5</ele>
        <time>2020-07-01T13:41:58Z</time>
      </trkpt>
      <trkpt lat="48.95506" lon="2.87027">
        <ele>65.7</ele>
        <time>2020-07-01T13:41:59Z</time>
      </trkpt>
      <trkpt lat="48.95507" lon="2.87021">
        <ele>65.9</ele>
        <time>2020-07-01T13:42:00Z</time>
      </trkpt>
      <trkpt lat="48.95506" lon="2.87016">
        <ele>66</ele>
        <time>2020-07-01T13:42:01Z</time>
      </trkpt>
      <trkpt lat="48.95507" lon="2.8701">
        <ele>66.1</ele>
        <time>2020-07-01T13:42:02Z</time>
      </trkpt>
      <trkpt lat="48.95507" lon="2.87007">
        <ele>66.2</ele>
        <time>2020-07-01T13:42:03Z</time>
      </trkpt>
      <trkpt lat="48.95508" lon="2.87001">
        <ele>66.3</ele>
        <time>2020-07-01T13:42:04Z</time>
      </trkpt>
      <trkpt lat="48.95508" lon="2.86995">
        <ele>66.5</ele>
        <time>2020-07-01T13:42:05Z</time>
      </trkpt>
      <trkpt lat="48.95509" lon="2.86991">
        <ele>66.6</ele>
        <time>2020-07-01T13:42:06Z</time>
      </trkpt>
      <trkpt lat="48.9551" lon="2.86985">
        <ele>66.7</ele>
        <time>2020-07-01T13:42:07Z</time>
      </trkpt>
      <trkpt lat="48.95511" lon="2.86979">
        <ele>66.8</ele>
        <time>2020-07-01T13:42:08Z</time>
      </trkpt>
      <trkpt lat="48.95511" lon="2.86973">
        <ele>67</ele>
        <time>2020-07-01T13:42:09Z</time>
      </trkpt>
      <trkpt lat="48.95512" lon="2.86966">
        <ele>67.2</ele>
        <time>2020-07-01T13:42:10Z</time>
      </trkpt>
      <trkpt lat="48.95514" lon="2.8696">
        <ele>67.3</ele>
        <time>2020-07-01T13:42:11Z</time>
      </trkpt>
      <trkpt lat="48.95515" lon="2.86956">
        <ele>67.5</ele>
        <time>2020-07-01T13:42:12Z</time>
      </trkpt>
      <trkpt lat="48.95517" lon="2.86952">
        <ele>67.6</ele>
        <time>2020-07-01T13:42:13Z</time>
      </trkpt>
      <trkpt lat="48.95519" lon="2.86948">
        <ele>67.8</ele>
        <time>2020-07-01T13:42:14Z</time>
      </trkpt>
      <trkpt lat="48.9552" lon="2.86942">
        <ele>67.9</ele>
        <time>2020-07-01T13:42:15Z</time>
      </trkpt>
      <trkpt lat="48.95522" lon="2.86936">
        <ele>68.1</ele>
        <time>2020-07-01T13:42:16Z</time>
      </trkpt>
      <trkpt lat="48.95522" lon="2.86931">
        <ele>68.3</ele>
        <time>2020-07-01T13:42:17Z</time>
      </trkpt>
      <trkpt lat="48.95523" lon="2.86925">
        <ele>68.5</ele>
        <time>2020-07-01T13:42:18Z</time>
      </trkpt>
      <trkpt lat="48.95524" lon="2.86919">
        <ele>68.6</ele>
        <time>2020-07-01T13:42:19Z</time>
      </trkpt>
      <trkpt lat="48.95525" lon="2.86913">
        <ele>68.8</ele>
        <time>2020-07-01T13:42:20Z</time>
      </trkpt>
      <trkpt lat="48.95525" lon="2.86909">
        <ele>68.9</ele>
        <time>2020-07-01T13:42:21Z</time>
      </trkpt>
      <trkpt lat="48.95526" lon="2.86904">
        <ele>69.1</ele>
        <time>2020-07-01T13:42:22Z</time>
      </trkpt>
      <trkpt lat="48.95527" lon="2.86898">
        <ele>69.3</ele>
        <time>2020-07-01T13:42:23Z</time>
      </trkpt>
      <trkpt lat="48.95527" lon="2.86893">
        <ele>69.4</ele>
        <time>2020-07-01T13:42:24Z</time>
      </trkpt>
      <trkpt lat="48.95528" lon="2.86887">
        <ele>69.6</ele>
        <time>2020-07-01T13:42:25Z</time>
      </trkpt>
      <trkpt lat="48.95529" lon="2.86882">
        <ele>69.7</ele>
        <time>2020-07-01T13:42:26Z</time>
      </trkpt>
      <trkpt lat="48.9553" lon="2.86877">
        <ele>69.9</ele>
        <time>2020-07-01T13:42:27Z</time>
      </trkpt>
      <trkpt lat="48.95529" lon="2.86872">
        <ele>70</ele>
        <time>2020-07-01T13:42:28Z</time>
      </trkpt>
      <trkpt lat="48.95529" lon="2.86865">
        <ele>70.2</ele>
        <time>2020-07-01T13:42:29Z</time>
      </trkpt>
      <trkpt lat="48.9553" lon="2.86859">
        <ele>70.4</ele>
        <time>2020-07-01T13:42:30Z</time>
      </trkpt>
      <trkpt lat="48.95531" lon="2.86854">
        <ele>70.5</ele>
        <time>2020-07-01T13:42:31Z</time>
      </trkpt>
      <trkpt lat="48.95532" lon="2.86847">
        <ele>70.7</ele>
        <time>2020-07-01T13:42:32Z</time>
      </trkpt>
      <trkpt lat="48.95532" lon="2.86842">
        <ele>70.9</ele>
        <time>2020-07-01T13:42:33Z</time>
      </trkpt>
      <trkpt lat="48.95533" lon="2.86835">
        <ele>71.1</ele>
        <time>2020-07-01T13:42:34Z</time>
      </trkpt>
      <trkpt lat="48.95534" lon="2.86828">
        <ele>71.2</ele>
        <time>2020-07-01T13:42:35Z</time>
      </trkpt>
      <trkpt lat="48.95534" lon="2.86822">
        <ele>71.4</ele>
        <time>2020-07-01T13:42:36Z</time>
      </trkpt>
      <trkpt lat="48.95535" lon="2.86816">
        <ele>71.5</ele>
        <time>2020-07-01T13:42:37Z</time>
      </trkpt>
      <trkpt lat="48.95535" lon="2.86813">
        <ele>71.6</ele>
        <time>2020-07-01T13:42:38Z</time>
      </trkpt>
      <trkpt lat="48.95536" lon="2.86806">
        <ele>71.8</ele>
        <time>2020-07-01T13:42:39Z</time>
      </trkpt>
      <trkpt lat="48.95536" lon="2.86801">
        <ele>71.9</ele>
        <time>2020-07-01T13:42:40Z</time>
      </trkpt>
      <trkpt lat="48.95537" lon="2.86797">
        <ele>72</ele>
        <time>2020-07-01T13:42:41Z</time>
      </trkpt>
      <trkpt lat="48.95537" lon="2.86791">
        <ele>72.2</ele>
        <time>2020-07-01T13:42:42Z</time>
      </trkpt>
      <trkpt lat="48.95538" lon="2.86787">
        <ele>72.3</ele>
        <time>2020-07-01T13:42:43Z</time>
      </trkpt>
      <trkpt lat="48.95538" lon="2.86782">
        <ele>72.4</ele>
        <time>2020-07-01T13:42:44Z</time>
      </trkpt>
      <trkpt lat="48.95538" lon="2.86776">
        <ele>72.6</ele>
        <time>2020-07-01T13:42:45Z</time>
      </trkpt>
      <trkpt lat="48.95538" lon="2.86769">
        <ele>72.7</ele>
        <time>2020-07-01T13:42:46Z</time>
      </trkpt>
      <trkpt lat="48.95539" lon="2.86764">
        <ele>72.9</ele>
        <time>2020-07-01T13:42:47Z</time>
      </trkpt>
      <trkpt lat="48.95542" lon="2.86758">
        <ele>73.1</ele>
        <time>2020-07-01T13:42:48Z</time>
      </trkpt>
      <trkpt lat="48.95544" lon="2.86756">
        <ele>73.1</ele>
        <time>2020-07-01T13:42:49Z</time>
      </trkpt>
      <trkpt lat="48.95545" lon="2.8675">
        <ele>73.3</ele>
        <time>2020-07-01T13:42:50Z</time>
      </trkpt>
      <trkpt lat="48.95545" lon="2.86746">
        <ele>73.4</ele>
        <time>2020-07-01T13:42:51Z</time>
      </trkpt>
      <trkpt lat="48.95546" lon="2.86741">
        <ele>73.6</ele>
        <time>2020-07-01T13:42:52Z</time>
      </trkpt>
      <trkpt lat="48.95547" lon="2.86736">
        <ele>73.7</ele>
        <time>2020-07-01T13:42:53Z</time>
      </trkpt>
      <trkpt lat="48.95547" lon="2.86732">
        <ele>73.8</ele>
        <time>2020-07-01T13:42:54Z</time>
      </trkpt>
      <trkpt lat="48.95547" lon="2.86727">
        <ele>74</ele>
        <time>2020-07-01T13:42:55Z</time>
      </trkpt>
      <trkpt lat="48.95548" lon="2.86722">
        <ele>74.1</ele>
        <time>2020-07-01T13:42:56Z</time>
      </trkpt>
      <trkpt lat="48.95549" lon="2.86716">
        <ele>74.3</ele>
        <time>2020-07-01T13:42:57Z</time>
      </trkpt>
      <trkpt lat="48.9555" lon="2.86711">
        <ele>74.4</ele>
        <time>2020-07-01T13:42:58Z</time>
      </trkpt>
      <trkpt lat="48.9555" lon="2.86706">
        <ele>74.6</ele>
        <time>2020-07-01T13:42:59Z</time>
      </trkpt>
      <trkpt lat="48.95552" lon="2.867">
        <ele>74.7</ele>
        <time>2020-07-01T13:43:00Z</time>
      </trkpt>
      <trkpt lat="48.95552" lon="2.86694">
        <ele>74.9</ele>
        <time>2020-07-01T13:43:01Z</time>
      </trkpt>
      <trkpt lat="48.95553" lon="2.86689">
        <ele>75</ele>
        <time>2020-07-01T13:43:02Z</time>
      </trkpt>
      <trkpt lat="48.95553" lon="2.86683">
        <ele>75.2</ele>
        <time>2020-07-01T13:43:03Z</time>
      </trkpt>
      <trkpt lat="48.95553" lon="2.86677">
        <ele>75.3</ele>
        <time>2020-07-01T13:43:04Z</time>
      </trkpt>
      <trkpt lat="48.95554" lon="2.86671">
        <ele>75.5</ele>
        <time>2020-07-01T13:43:05Z</time>
      </trkpt>
      <trkpt lat="48.95554" lon="2.86666">
        <ele>75.6</ele>
        <time>2020-07-01T13:43:06Z</time>
      </trkpt>
      <trkpt lat="48.95555" lon="2.8666">
        <ele>75.8</ele>
        <time>2020-07-01T13:43:07Z</time>
      </trkpt>
      <trkpt lat="48.95556" lon="2.86654">
        <ele>76</ele>
        <time>2020-07-01T13:43:08Z</time>
      </trkpt>
      <trkpt lat="48.95557" lon="2.86648">
        <ele>76.1</ele>
        <time>2020-07-01T13:43:09Z</time>
      </trkpt>
      <trkpt lat="48.95557" lon="2.86643">
        <ele>76.3</ele>
        <time>2020-07-01T13:43:10Z</time>
      </trkpt>
      <trkpt lat="48.95558" lon="2.86638">
        <ele>76.4</ele>
        <time>2020-07-01T13:43:11Z</time>
      </trkpt>
      <trkpt lat="48.95558" lon="2.86633">
        <ele>76.6</ele>
        <time>2020-07-01T13:43:12Z</time>
      </trkpt>
      <trkpt lat="48.95559" lon="2.86628">
        <ele>76.7</ele>
        <time>2020-07-01T13:43:13Z</time>
      </trkpt>
      <trkpt lat="48.9556" lon="2.86623">
        <ele>76.9</ele>
        <time>2020-07-01T13:43:14Z</time>
      </trkpt>
      <trkpt lat="48.9556" lon="2.86618">
        <ele>77</ele>
        <time>2020-07-01T13:43:15Z</time>
      </trkpt>
      <trkpt lat="48.9556" lon="2.86613">
        <ele>77.1</ele>
        <time>2020-07-01T13:43:16Z</time>
      </trkpt>
      <trkpt lat="48.95561" lon="2.86608">
        <ele>77.2</ele>
        <time>2020-07-01T13:43:17Z</time>
      </trkpt>
      <trkpt lat="48.95561" lon="2.86604">
        <ele>77.4</ele>
        <time>2020-07-01T13:43:18Z</time>
      </trkpt>
      <trkpt lat="48.95563" lon="2.86597">
        <ele>77.5</ele>
        <time>2020-07-01T13:43:19Z</time>
      </trkpt>
      <trkpt lat="48.95563" lon="2.86592">
        <ele>77.7</ele>
        <time>2020-07-01T13:43:20Z</time>
      </trkpt>
      <trkpt lat="48.95564" lon="2.86586">
        <ele>77.8</ele>
        <time>2020-07-01T13:43:21Z</time>
      </trkpt>
      <trkpt lat="48.95565" lon="2.8658">
        <ele>78</ele>
        <time>2020-07-01T13:43:22Z</time>
      </trkpt>
      <trkpt lat="48.95566" lon="2.86574">
        <ele>78.2</ele>
        <time>2020-07-01T13:43:23Z</time>
      </trkpt>
      <trkpt lat="48.95567" lon="2.86568">
        <ele>78.3</ele>
        <time>2020-07-01T13:43:24Z</time>
      </trkpt>
      <trkpt lat="48.95567" lon="2.86562">
        <ele>78.5</ele>
        <time>2020-07-01T13:43:25Z</time>
      </trkpt>
      <trkpt lat="48.95568" lon="2.86556">
        <ele>78.6</ele>
        <time>2020-07-01T13:43:26Z</time>
      </trkpt>
      <trkpt lat="48.95568" lon="2.86549">
        <ele>78.7</ele>
        <time>2020-07-01T13:43:27Z</time>
      </trkpt>
      <trkpt lat="48.95568" lon="2.86544">
        <ele>78.8</ele>
        <time>2020-07-01T13:43:28Z</time>
      </trkpt>
      <trkpt lat="48.95568" lon="2.86539">
        <ele>79</ele>
        <time>2020-07-01T13:43:29Z</time>
      </trkpt>
      <trkpt lat="48.95568" lon="2.86534">
        <ele>79.1</ele>
        <time>2020-07-01T13:43:30Z</time>
      </trkpt>
      <trkpt lat="48.95569" lon="2.86531">
        <ele>79.1</ele>
        <time>2020-07-01T13:43:31Z</time>
      </trkpt>
      <trkpt lat="48.95569" lon="2.86529">
        <ele>79.2</ele>
        <time>2020-07-01T13:43:32Z</time>
      </trkpt>
      <trkpt lat="48.95569" lon="2.86526">
        <ele>79.2</ele>
        <time>2020-07-01T13:43:33Z</time>
      </trkpt>
      <trkpt lat="48.95569" lon="2.86525">
        <ele>79.3</ele>
        <time>2020-07-01T13:43:34Z</time>
      </trkpt>
      <trkpt lat="48.95569" lon="2.86523">
        <ele>79.3</ele>
        <time>2020-07-01T13:43:35Z</time>
      </trkpt>
      <trkpt lat="48.95569" lon="2.86522">
        <ele>79.3</ele>
        <time>2020-07-01T13:43:36Z</time>
      </trkpt>
      <trkpt lat="48.9557" lon="2.86517">
        <ele>79.4</ele>
        <time>2020-07-01T13:43:37Z</time>
      </trkpt>
      <trkpt lat="48.9557" lon="2.86516">
        <ele>79.4</ele>
        <time>2020-07-01T13:43:38Z</time>
      </trkpt>
      <trkpt lat="48.95571" lon="2.86511">
        <ele>79.5</ele>
        <time>2020-07-01T13:43:39Z</time>
      </trkpt>
      <trkpt lat="48.95571" lon="2.86509">
        <ele>79.6</ele>
        <time>2020-07-01T13:43:40Z</time>
      </trkpt>
      <trkpt lat="48.95571" lon="2.86505">
        <ele>79.6</ele>
        <time>2020-07-01T13:43:41Z</time>
      </trkpt>
      <trkpt lat="48.95571" lon="2.86504">
        <ele>79.6</ele>
        <time>2020-07-01T13:43:42Z</time>
      </trkpt>
      <trkpt lat="48.95571" lon="2.86503">
        <ele>79.6</ele>
        <time>2020-07-01T13:43:43Z</time>
      </trkpt>
      <trkpt lat="48.95572" lon="2.86501">
        <ele>79.7</ele>
        <time>2020-07-01T13:43:44Z</time>
      </trkpt>
      <trkpt lat="48.95571" lon="2.86499">
        <ele>79.7</ele>
        <time>2020-07-01T13:43:45Z</time>
      </trkpt>
      <trkpt lat="48.95572" lon="2.86494">
        <ele>79.8</ele>
        <time>2020-07-01T13:43:46Z</time>
      </trkpt>
      <trkpt lat="48.95573" lon="2.86491">
        <ele>79.8</ele>
        <time>2020-07-01T13:43:47Z</time>
      </trkpt>
      <trkpt lat="48.95573" lon="2.86486">
        <ele>79.9</ele>
        <time>2020-07-01T13:43:48Z</time>
      </trkpt>
      <trkpt lat="48.95574" lon="2.86481">
        <ele>80</ele>
        <time>2020-07-01T13:43:49Z</time>
      </trkpt>
      <trkpt lat="48.95575" lon="2.86477">
        <ele>80.1</ele>
        <time>2020-07-01T13:43:50Z</time>
      </trkpt>
      <trkpt lat="48.95576" lon="2.86472">
        <ele>80.2</ele>
        <time>2020-07-01T13:43:51Z</time>
      </trkpt>
      <trkpt lat="48.95577" lon="2.8647">
        <ele>80.2</ele>
        <time>2020-07-01T13:43:52Z</time>
      </trkpt>
      <trkpt lat="48.95579" lon="2.86468">
        <ele>80.3</ele>
        <time>2020-07-01T13:43:53Z</time>
      </trkpt>
      <trkpt lat="48.95579" lon="2.86467">
        <ele>80.3</ele>
        <time>2020-07-01T13:43:54Z</time>
      </trkpt>
      <trkpt lat="48.9558" lon="2.86466">
        <ele>80.3</ele>
        <time>2020-07-01T13:43:55Z</time>
      </trkpt>
      <trkpt lat="48.9558" lon="2.86463">
        <ele>80.4</ele>
        <time>2020-07-01T13:43:56Z</time>
      </trkpt>
      <trkpt lat="48.95581" lon="2.86461">
        <ele>80.5</ele>
        <time>2020-07-01T13:43:57Z</time>
      </trkpt>
      <trkpt lat="48.9558" lon="2.86456">
        <ele>80.6</ele>
        <time>2020-07-01T13:43:58Z</time>
      </trkpt>
      <trkpt lat="48.9558" lon="2.86454">
        <ele>80.6</ele>
        <time>2020-07-01T13:43:59Z</time>
      </trkpt>
      <trkpt lat="48.9558" lon="2.86449">
        <ele>80.7</ele>
        <time>2020-07-01T13:44:00Z</time>
      </trkpt>
      <trkpt lat="48.9558" lon="2.86444">
        <ele>80.8</ele>
        <time>2020-07-01T13:44:01Z</time>
      </trkpt>
      <trkpt lat="48.9558" lon="2.86439">
        <ele>80.9</ele>
        <time>2020-07-01T13:44:02Z</time>
      </trkpt>
      <trkpt lat="48.95581" lon="2.86433">
        <ele>80.9</ele>
        <time>2020-07-01T13:44:03Z</time>
      </trkpt>
      <trkpt lat="48.95582" lon="2.86427">
        <ele>81</ele>
        <time>2020-07-01T13:44:04Z</time>
      </trkpt>
      <trkpt lat="48.95583" lon="2.86422">
        <ele>81</ele>
        <time>2020-07-01T13:44:05Z</time>
      </trkpt>
      <trkpt lat="48.95584" lon="2.86417">
        <ele>81.1</ele>
        <time>2020-07-01T13:44:06Z</time>
      </trkpt>
      <trkpt lat="48.95585" lon="2.86409">
        <ele>81.1</ele>
        <time>2020-07-01T13:44:07Z</time>
      </trkpt>
      <trkpt lat="48.95587" lon="2.86401">
        <ele>81.2</ele>
        <time>2020-07-01T13:44:08Z</time>
      </trkpt>
      <trkpt lat="48.95588" lon="2.86393">
        <ele>81.3</ele>
        <time>2020-07-01T13:44:09Z</time>
      </trkpt>
      <trkpt lat="48.95589" lon="2.86385">
        <ele>81.3</ele>
        <time>2020-07-01T13:44:10Z</time>
      </trkpt>
      <trkpt lat="48.95589" lon="2.86378">
        <ele>81.4</ele>
        <time>2020-07-01T13:44:11Z</time>
      </trkpt>
      <trkpt lat="48.95591" lon="2.86371">
        <ele>81.5</ele>
        <time>2020-07-01T13:44:12Z</time>
      </trkpt>
      <trkpt lat="48.95592" lon="2.86363">
        <ele>81.6</ele>
        <time>2020-07-01T13:44:13Z</time>
      </trkpt>
      <trkpt lat="48.95592" lon="2.86354">
        <ele>81.7</ele>
        <time>2020-07-01T13:44:14Z</time>
      </trkpt>
      <trkpt lat="48.95593" lon="2.86344">
        <ele>81.7</ele>
        <time>2020-07-01T13:44:15Z</time>
      </trkpt>
      <trkpt lat="48.95594" lon="2.86337">
        <ele>81.7</ele>
        <time>2020-07-01T13:44:16Z</time>
      </trkpt>
      <trkpt lat="48.95595" lon="2.8633">
        <ele>81.7</ele>
        <time>2020-07-01T13:44:17Z</time>
      </trkpt>
      <trkpt lat="48.95595" lon="2.86322">
        <ele>81.7</ele>
        <time>2020-07-01T13:44:18Z</time>
      </trkpt>
      <trkpt lat="48.95596" lon="2.86315">
        <ele>81.7</ele>
        <time>2020-07-01T13:44:19Z</time>
      </trkpt>
      <trkpt lat="48.95597" lon="2.86308">
        <ele>81.7</ele>
        <time>2020-07-01T13:44:20Z</time>
      </trkpt>
      <trkpt lat="48.95598" lon="2.86299">
        <ele>81.7</ele>
        <time>2020-07-01T13:44:21Z</time>
      </trkpt>
      <trkpt lat="48.95599" lon="2.8629">
        <ele>81.7</ele>
        <time>2020-07-01T13:44:22Z</time>
      </trkpt>
      <trkpt lat="48.95599" lon="2.86281">
        <ele>81.7</ele>
        <time>2020-07-01T13:44:23Z</time>
      </trkpt>
      <trkpt lat="48.956" lon="2.86271">
        <ele>81.6</ele>
        <time>2020-07-01T13:44:24Z</time>
      </trkpt>
      <trkpt lat="48.95601" lon="2.86262">
        <ele>81.6</ele>
        <time>2020-07-01T13:44:25Z</time>
      </trkpt>
      <trkpt lat="48.95602" lon="2.86253">
        <ele>81.5</ele>
        <time>2020-07-01T13:44:26Z</time>
      </trkpt>
      <trkpt lat="48.95602" lon="2.86246">
        <ele>81.5</ele>
        <time>2020-07-01T13:44:27Z</time>
      </trkpt>
      <trkpt lat="48.95603" lon="2.86236">
        <ele>81.5</ele>
        <time>2020-07-01T13:44:28Z</time>
      </trkpt>
      <trkpt lat="48.95604" lon="2.86228">
        <ele>81.4</ele>
        <time>2020-07-01T13:44:29Z</time>
      </trkpt>
      <trkpt lat="48.95605" lon="2.86218">
        <ele>81.4</ele>
        <time>2020-07-01T13:44:30Z</time>
      </trkpt>
      <trkpt lat="48.95607" lon="2.86209">
        <ele>81.2</ele>
        <time>2020-07-01T13:44:31Z</time>
      </trkpt>
      <trkpt lat="48.95608" lon="2.86202">
        <ele>81</ele>
        <time>2020-07-01T13:44:32Z</time>
      </trkpt>
      <trkpt lat="48.95609" lon="2.86193">
        <ele>80.9</ele>
        <time>2020-07-01T13:44:33Z</time>
      </trkpt>
      <trkpt lat="48.9561" lon="2.86185">
        <ele>80.8</ele>
        <time>2020-07-01T13:44:34Z</time>
      </trkpt>
      <trkpt lat="48.95612" lon="2.86177">
        <ele>80.7</ele>
        <time>2020-07-01T13:44:35Z</time>
      </trkpt>
      <trkpt lat="48.95614" lon="2.86164">
        <ele>80.7</ele>
        <time>2020-07-01T13:44:36Z</time>
      </trkpt>
      <trkpt lat="48.95616" lon="2.86153">
        <ele>80.6</ele>
        <time>2020-07-01T13:44:37Z</time>
      </trkpt>
      <trkpt lat="48.95616" lon="2.86142">
        <ele>80.5</ele>
        <time>2020-07-01T13:44:38Z</time>
      </trkpt>
      <trkpt lat="48.95617" lon="2.86132">
        <ele>80.5</ele>
        <time>2020-07-01T13:44:39Z</time>
      </trkpt>
      <trkpt lat="48.95618" lon="2.86123">
        <ele>80.5</ele>
        <time>2020-07-01T13:44:40Z</time>
      </trkpt>
      <trkpt lat="48.9562" lon="2.86115">
        <ele>80.5</ele>
        <time>2020-07-01T13:44:41Z</time>
      </trkpt>
      <trkpt lat="48.95621" lon="2.86106">
        <ele>80.4</ele>
        <time>2020-07-01T13:44:42Z</time>
      </trkpt>
      <trkpt lat="48.95622" lon="2.86096">
        <ele>80.4</ele>
        <time>2020-07-01T13:44:43Z</time>
      </trkpt>
      <trkpt lat="48.95623" lon="2.86086">
        <ele>80.3</ele>
        <time>2020-07-01T13:44:44Z</time>
      </trkpt>
      <trkpt lat="48.95624" lon="2.86077">
        <ele>80.2</ele>
        <time>2020-07-01T13:44:45Z</time>
      </trkpt>
      <trkpt lat="48.95625" lon="2.86068">
        <ele>80.1</ele>
        <time>2020-07-01T13:44:46Z</time>
      </trkpt>
      <trkpt lat="48.95626" lon="2.86058">
        <ele>80</ele>
        <time>2020-07-01T13:44:47Z</time>
      </trkpt>
      <trkpt lat="48.95628" lon="2.86047">
        <ele>79.9</ele>
        <time>2020-07-01T13:44:48Z</time>
      </trkpt>
      <trkpt lat="48.95628" lon="2.86036">
        <ele>79.9</ele>
        <time>2020-07-01T13:44:49Z</time>
      </trkpt>
      <trkpt lat="48.95629" lon="2.86027">
        <ele>79.8</ele>
        <time>2020-07-01T13:44:50Z</time>
      </trkpt>
      <trkpt lat="48.9563" lon="2.86017">
        <ele>79.8</ele>
        <time>2020-07-01T13:44:51Z</time>
      </trkpt>
      <trkpt lat="48.95631" lon="2.86006">
        <ele>79.7</ele>
        <time>2020-07-01T13:44:52Z</time>
      </trkpt>
      <trkpt lat="48.95633" lon="2.85998">
        <ele>79.7</ele>
        <time>2020-07-01T13:44:53Z</time>
      </trkpt>
      <trkpt lat="48.95634" lon="2.85988">
        <ele>79.5</ele>
        <time>2020-07-01T13:44:54Z</time>
      </trkpt>
      <trkpt lat="48.95636" lon="2.85979">
        <ele>79.4</ele>
        <time>2020-07-01T13:44:55Z</time>
      </trkpt>
      <trkpt lat="48.95637" lon="2.85971">
        <ele>79.3</ele>
        <time>2020-07-01T13:44:56Z</time>
      </trkpt>
      <trkpt lat="48.95638" lon="2.85962">
        <ele>79.2</ele>
        <time>2020-07-01T13:44:57Z</time>
      </trkpt>
      <trkpt lat="48.95639" lon="2.85952">
        <ele>79.1</ele>
        <time>2020-07-01T13:44:58Z</time>
      </trkpt>
      <trkpt lat="48.95641" lon="2.85941">
        <ele>79.1</ele>
        <time>2020-07-01T13:44:59Z</time>
      </trkpt>
      <trkpt lat="48.95642" lon="2.85931">
        <ele>79</ele>
        <time>2020-07-01T13:45:00Z</time>
      </trkpt>
      <trkpt lat="48.95643" lon="2.85922">
        <ele>78.9</ele>
        <time>2020-07-01T13:45:01Z</time>
      </trkpt>
      <trkpt lat="48.95644" lon="2.85914">
        <ele>78.8</ele>
        <time>2020-07-01T13:45:02Z</time>
      </trkpt>
      <trkpt lat="48.95646" lon="2.85905">
        <ele>78.7</ele>
        <time>2020-07-01T13:45:03Z</time>
      </trkpt>
      <trkpt lat="48.95647" lon="2.85898">
        <ele>78.7</ele>
        <time>2020-07-01T13:45:04Z</time>
      </trkpt>
      <trkpt lat="48.95648" lon="2.85891">
        <ele>78.7</ele>
        <time>2020-07-01T13:45:05Z</time>
      </trkpt>
      <trkpt lat="48.9565" lon="2.85882">
        <ele>78.6</ele>
        <time>2020-07-01T13:45:06Z</time>
      </trkpt>
      <trkpt lat="48.95651" lon="2.85874">
        <ele>78.5</ele>
        <time>2020-07-01T13:45:07Z</time>
      </trkpt>
      <trkpt lat="48.95653" lon="2.85867">
        <ele>78.4</ele>
        <time>2020-07-01T13:45:08Z</time>
      </trkpt>
      <trkpt lat="48.95656" lon="2.85861">
        <ele>78.1</ele>
        <time>2020-07-01T13:45:09Z</time>
      </trkpt>
      <trkpt lat="48.9566" lon="2.85857">
        <ele>78.1</ele>
        <time>2020-07-01T13:45:10Z</time>
      </trkpt>
      <trkpt lat="48.95666" lon="2.85851">
        <ele>78.2</ele>
        <time>2020-07-01T13:45:11Z</time>
      </trkpt>
      <trkpt lat="48.9567" lon="2.85845">
        <ele>78.2</ele>
        <time>2020-07-01T13:45:12Z</time>
      </trkpt>
      <trkpt lat="48.95674" lon="2.85836">
        <ele>78.1</ele>
        <time>2020-07-01T13:45:13Z</time>
      </trkpt>
      <trkpt lat="48.95677" lon="2.8583">
        <ele>78</ele>
        <time>2020-07-01T13:45:14Z</time>
      </trkpt>
      <trkpt lat="48.95678" lon="2.85822">
        <ele>77.9</ele>
        <time>2020-07-01T13:45:15Z</time>
      </trkpt>
      <trkpt lat="48.95678" lon="2.85818">
        <ele>77.9</ele>
        <time>2020-07-01T13:45:16Z</time>
      </trkpt>
      <trkpt lat="48.95679" lon="2.85809">
        <ele>77.8</ele>
        <time>2020-07-01T13:45:17Z</time>
      </trkpt>
      <trkpt lat="48.95679" lon="2.85802">
        <ele>77.6</ele>
        <time>2020-07-01T13:45:18Z</time>
      </trkpt>
      <trkpt lat="48.95677" lon="2.85794">
        <ele>77.7</ele>
        <time>2020-07-01T13:45:19Z</time>
      </trkpt>
      <trkpt lat="48.95674" lon="2.85787">
        <ele>77.7</ele>
        <time>2020-07-01T13:45:20Z</time>
      </trkpt>
      <trkpt lat="48.95672" lon="2.8578">
        <ele>77.7</ele>
        <time>2020-07-01T13:45:21Z</time>
      </trkpt>
      <trkpt lat="48.9567" lon="2.85773">
        <ele>77.7</ele>
        <time>2020-07-01T13:45:22Z</time>
      </trkpt>
      <trkpt lat="48.95668" lon="2.85766">
        <ele>77.6</ele>
        <time>2020-07-01T13:45:23Z</time>
      </trkpt>
      <trkpt lat="48.95665" lon="2.85758">
        <ele>77.5</ele>
        <time>2020-07-01T13:45:24Z</time>
      </trkpt>
      <trkpt lat="48.95664" lon="2.85749">
        <ele>77.4</ele>
        <time>2020-07-01T13:45:25Z</time>
      </trkpt>
      <trkpt lat="48.95664" lon="2.85741">
        <ele>77.2</ele>
        <time>2020-07-01T13:45:26Z</time>
      </trkpt>
      <trkpt lat="48.95666" lon="2.85731">
        <ele>77</ele>
        <time>2020-07-01T13:45:27Z</time>
      </trkpt>
      <trkpt lat="48.95668" lon="2.85722">
        <ele>76.8</ele>
        <time>2020-07-01T13:45:28Z</time>
      </trkpt>
      <trkpt lat="48.9567" lon="2.85712">
        <ele>76.6</ele>
        <time>2020-07-01T13:45:29Z</time>
      </trkpt>
      <trkpt lat="48.95672" lon="2.85702">
        <ele>76.4</ele>
        <time>2020-07-01T13:45:30Z</time>
      </trkpt>
      <trkpt lat="48.95674" lon="2.85695">
        <ele>76.3</ele>
        <time>2020-07-01T13:45:31Z</time>
      </trkpt>
      <trkpt lat="48.95675" lon="2.85686">
        <ele>76.2</ele>
        <time>2020-07-01T13:45:32Z</time>
      </trkpt>
      <trkpt lat="48.95676" lon="2.85681">
        <ele>76.1</ele>
        <time>2020-07-01T13:45:33Z</time>
      </trkpt>
      <trkpt lat="48.95676" lon="2.85677">
        <ele>76.1</ele>
        <time>2020-07-01T13:45:34Z</time>
      </trkpt>
      <trkpt lat="48.95677" lon="2.85671">
        <ele>76</ele>
        <time>2020-07-01T13:45:35Z</time>
      </trkpt>
      <trkpt lat="48.95677" lon="2.85667">
        <ele>75.9</ele>
        <time>2020-07-01T13:45:36Z</time>
      </trkpt>
      <trkpt lat="48.95678" lon="2.85661">
        <ele>75.8</ele>
        <time>2020-07-01T13:45:37Z</time>
      </trkpt>
      <trkpt lat="48.95679" lon="2.85657">
        <ele>75.8</ele>
        <time>2020-07-01T13:45:38Z</time>
      </trkpt>
      <trkpt lat="48.9568" lon="2.85652">
        <ele>75.7</ele>
        <time>2020-07-01T13:45:39Z</time>
      </trkpt>
      <trkpt lat="48.9568" lon="2.85647">
        <ele>75.7</ele>
        <time>2020-07-01T13:45:40Z</time>
      </trkpt>
      <trkpt lat="48.9568" lon="2.85645">
        <ele>75.7</ele>
        <time>2020-07-01T13:45:41Z</time>
      </trkpt>
      <trkpt lat="48.9568" lon="2.85644">
        <ele>75.7</ele>
        <time>2020-07-01T13:45:42Z</time>
      </trkpt>
      <trkpt lat="48.9568" lon="2.85645">
        <ele>75.7</ele>
        <time>2020-07-01T13:45:43Z</time>
      </trkpt>
      <trkpt lat="48.9568" lon="2.85645">
        <ele>75.7</ele>
        <time>2020-07-01T13:45:44Z</time>
      </trkpt>
      <trkpt lat="48.9568" lon="2.85645">
        <ele>75.7</ele>
        <time>2020-07-01T13:45:45Z</time>
      </trkpt>
      <trkpt lat="48.9568" lon="2.85646">
        <ele>75.7</ele>
        <time>2020-07-01T13:45:46Z</time>
      </trkpt>
      <trkpt lat="48.9568" lon="2.85646">
        <ele>75.7</ele>
        <time>2020-07-01T13:45:47Z</time>
      </trkpt>
      <trkpt lat="48.9568" lon="2.85647">
        <ele>75.7</ele>
        <time>2020-07-01T13:45:48Z</time>
      </trkpt>
      <trkpt lat="48.95679" lon="2.85647">
        <ele>75.7</ele>
        <time>2020-07-01T13:45:49Z</time>
      </trkpt>
      <trkpt lat="48.95679" lon="2.85649">
        <ele>75.6</ele>
        <time>2020-07-01T13:45:50Z</time>
      </trkpt>
      <trkpt lat="48.95679" lon="2.85649">
        <ele>75.6</ele>
        <time>2020-07-01T13:45:51Z</time>
      </trkpt>
      <trkpt lat="48.95679" lon="2.85648">
        <ele>75.6</ele>
        <time>2020-07-01T13:45:52Z</time>
      </trkpt>
      <trkpt lat="48.95679" lon="2.85648">
        <ele>75.6</ele>
        <time>2020-07-01T13:45:53Z</time>
      </trkpt>
      <trkpt lat="48.9568" lon="2.85638">
        <ele>75.6</ele>
        <time>2020-07-01T13:50:37Z</time>
      </trkpt>
      <trkpt lat="48.95681" lon="2.85634">
        <ele>75.5</ele>
        <time>2020-07-01T13:50:38Z</time>
      </trkpt>
      <trkpt lat="48.95682" lon="2.85629">
        <ele>75.5</ele>
        <time>2020-07-01T13:50:39Z</time>
      </trkpt>
      <trkpt lat="48.95683" lon="2.85624">
        <ele>75.4</ele>
        <time>2020-07-01T13:50:40Z</time>
      </trkpt>
      <trkpt lat="48.95684" lon="2.85619">
        <ele>75.4</ele>
        <time>2020-07-01T13:50:41Z</time>
      </trkpt>
      <trkpt lat="48.95684" lon="2.85615">
        <ele>75.4</ele>
        <time>2020-07-01T13:50:42Z</time>
      </trkpt>
      <trkpt lat="48.95685" lon="2.8561">
        <ele>75.3</ele>
        <time>2020-07-01T13:50:43Z</time>
      </trkpt>
      <trkpt lat="48.95685" lon="2.85603">
        <ele>75.2</ele>
        <time>2020-07-01T13:50:44Z</time>
      </trkpt>
      <trkpt lat="48.95686" lon="2.85595">
        <ele>75.1</ele>
        <time>2020-07-01T13:50:45Z</time>
      </trkpt>
      <trkpt lat="48.95686" lon="2.85587">
        <ele>75.1</ele>
        <time>2020-07-01T13:50:46Z</time>
      </trkpt>
      <trkpt lat="48.95687" lon="2.85578">
        <ele>75</ele>
        <time>2020-07-01T13:50:47Z</time>
      </trkpt>
      <trkpt lat="48.95687" lon="2.85568">
        <ele>75</ele>
        <time>2020-07-01T13:50:48Z</time>
      </trkpt>
      <trkpt lat="48.95688" lon="2.85559">
        <ele>74.9</ele>
        <time>2020-07-01T13:50:49Z</time>
      </trkpt>
      <trkpt lat="48.95689" lon="2.8555">
        <ele>74.9</ele>
        <time>2020-07-01T13:50:50Z</time>
      </trkpt>
      <trkpt lat="48.9569" lon="2.8554">
        <ele>74.8</ele>
        <time>2020-07-01T13:50:51Z</time>
      </trkpt>
      <trkpt lat="48.95692" lon="2.85531">
        <ele>74.7</ele>
        <time>2020-07-01T13:50:52Z</time>
      </trkpt>
      <trkpt lat="48.95693" lon="2.85521">
        <ele>74.4</ele>
        <time>2020-07-01T13:50:53Z</time>
      </trkpt>
      <trkpt lat="48.95694" lon="2.85511">
        <ele>73.8</ele>
        <time>2020-07-01T13:50:54Z</time>
      </trkpt>
      <trkpt lat="48.95695" lon="2.85501">
        <ele>73</ele>
        <time>2020-07-01T13:50:55Z</time>
      </trkpt>
      <trkpt lat="48.95696" lon="2.85491">
        <ele>72.5</ele>
        <time>2020-07-01T13:50:56Z</time>
      </trkpt>
      <trkpt lat="48.95697" lon="2.85481">
        <ele>72.2</ele>
        <time>2020-07-01T13:50:57Z</time>
      </trkpt>
      <trkpt lat="48.95698" lon="2.8547">
        <ele>71.9</ele>
        <time>2020-07-01T13:50:58Z</time>
      </trkpt>
      <trkpt lat="48.95699" lon="2.85461">
        <ele>71.7</ele>
        <time>2020-07-01T13:50:59Z</time>
      </trkpt>
      <trkpt lat="48.957" lon="2.85449">
        <ele>71.5</ele>
        <time>2020-07-01T13:51:00Z</time>
      </trkpt>
      <trkpt lat="48.95701" lon="2.85438">
        <ele>71.4</ele>
        <time>2020-07-01T13:51:01Z</time>
      </trkpt>
      <trkpt lat="48.95702" lon="2.85427">
        <ele>71.3</ele>
        <time>2020-07-01T13:51:02Z</time>
      </trkpt>
      <trkpt lat="48.95703" lon="2.85416">
        <ele>71.3</ele>
        <time>2020-07-01T13:51:03Z</time>
      </trkpt>
      <trkpt lat="48.95704" lon="2.85405">
        <ele>71.2</ele>
        <time>2020-07-01T13:51:04Z</time>
      </trkpt>
      <trkpt lat="48.95706" lon="2.85394">
        <ele>71.2</ele>
        <time>2020-07-01T13:51:05Z</time>
      </trkpt>
      <trkpt lat="48.95708" lon="2.85383">
        <ele>71.2</ele>
        <time>2020-07-01T13:51:06Z</time>
      </trkpt>
      <trkpt lat="48.95709" lon="2.85371">
        <ele>71.1</ele>
        <time>2020-07-01T13:51:07Z</time>
      </trkpt>
      <trkpt lat="48.9571" lon="2.8536">
        <ele>71.1</ele>
        <time>2020-07-01T13:51:08Z</time>
      </trkpt>
      <trkpt lat="48.95711" lon="2.85348">
        <ele>71</ele>
        <time>2020-07-01T13:51:09Z</time>
      </trkpt>
      <trkpt lat="48.95712" lon="2.85337">
        <ele>70.9</ele>
        <time>2020-07-01T13:51:10Z</time>
      </trkpt>
      <trkpt lat="48.95714" lon="2.85325">
        <ele>70.9</ele>
        <time>2020-07-01T13:51:11Z</time>
      </trkpt>
      <trkpt lat="48.95715" lon="2.85314">
        <ele>70.8</ele>
        <time>2020-07-01T13:51:12Z</time>
      </trkpt>
      <trkpt lat="48.95717" lon="2.85302">
        <ele>70.7</ele>
        <time>2020-07-01T13:51:13Z</time>
      </trkpt>
      <trkpt lat="48.95718" lon="2.8529">
        <ele>70.6</ele>
        <time>2020-07-01T13:51:14Z</time>
      </trkpt>
      <trkpt lat="48.95719" lon="2.85279">
        <ele>70.5</ele>
        <time>2020-07-01T13:51:15Z</time>
      </trkpt>
      <trkpt lat="48.95721" lon="2.85267">
        <ele>70.3</ele>
        <time>2020-07-01T13:51:16Z</time>
      </trkpt>
      <trkpt lat="48.95722" lon="2.85255">
        <ele>70.2</ele>
        <time>2020-07-01T13:51:17Z</time>
      </trkpt>
      <trkpt lat="48.95724" lon="2.85243">
        <ele>70</ele>
        <time>2020-07-01T13:51:18Z</time>
      </trkpt>
      <trkpt lat="48.95725" lon="2.85231">
        <ele>69.9</ele>
        <time>2020-07-01T13:51:19Z</time>
      </trkpt>
      <trkpt lat="48.95727" lon="2.85219">
        <ele>69.8</ele>
        <time>2020-07-01T13:51:20Z</time>
      </trkpt>
      <trkpt lat="48.95727" lon="2.85206">
        <ele>69.7</ele>
        <time>2020-07-01T13:51:21Z</time>
      </trkpt>
      <trkpt lat="48.95729" lon="2.85195">
        <ele>69.6</ele>
        <time>2020-07-01T13:51:22Z</time>
      </trkpt>
      <trkpt lat="48.9573" lon="2.85183">
        <ele>69.4</ele>
        <time>2020-07-01T13:51:23Z</time>
      </trkpt>
      <trkpt lat="48.95731" lon="2.85171">
        <ele>69.3</ele>
        <time>2020-07-01T13:51:24Z</time>
      </trkpt>
      <trkpt lat="48.95732" lon="2.85159">
        <ele>69.1</ele>
        <time>2020-07-01T13:51:25Z</time>
      </trkpt>
      <trkpt lat="48.95734" lon="2.85147">
        <ele>68.9</ele>
        <time>2020-07-01T13:51:26Z</time>
      </trkpt>
      <trkpt lat="48.95735" lon="2.85135">
        <ele>68.7</ele>
        <time>2020-07-01T13:51:27Z</time>
      </trkpt>
      <trkpt lat="48.95736" lon="2.85123">
        <ele>68.4</ele>
        <time>2020-07-01T13:51:28Z</time>
      </trkpt>
      <trkpt lat="48.95738" lon="2.85112">
        <ele>68.3</ele>
        <time>2020-07-01T13:51:29Z</time>
      </trkpt>
      <trkpt lat="48.95739" lon="2.851">
        <ele>68.2</ele>
        <time>2020-07-01T13:51:30Z</time>
      </trkpt>
      <trkpt lat="48.95741" lon="2.85089">
        <ele>68.1</ele>
        <time>2020-07-01T13:51:31Z</time>
      </trkpt>
      <trkpt lat="48.95742" lon="2.85078">
        <ele>68</ele>
        <time>2020-07-01T13:51:32Z</time>
      </trkpt>
      <trkpt lat="48.95744" lon="2.85067">
        <ele>68</ele>
        <time>2020-07-01T13:51:33Z</time>
      </trkpt>
      <trkpt lat="48.95745" lon="2.85057">
        <ele>68</ele>
        <time>2020-07-01T13:51:34Z</time>
      </trkpt>
      <trkpt lat="48.95747" lon="2.85046">
        <ele>68</ele>
        <time>2020-07-01T13:51:35Z</time>
      </trkpt>
      <trkpt lat="48.95748" lon="2.85036">
        <ele>68</ele>
        <time>2020-07-01T13:51:36Z</time>
      </trkpt>
      <trkpt lat="48.95749" lon="2.85026">
        <ele>68</ele>
        <time>2020-07-01T13:51:37Z</time>
      </trkpt>
      <trkpt lat="48.9575" lon="2.85016">
        <ele>68</ele>
        <time>2020-07-01T13:51:38Z</time>
      </trkpt>
      <trkpt lat="48.95752" lon="2.85007">
        <ele>68.1</ele>
        <time>2020-07-01T13:51:39Z</time>
      </trkpt>
      <trkpt lat="48.95754" lon="2.84998">
        <ele>68.2</ele>
        <time>2020-07-01T13:51:40Z</time>
      </trkpt>
      <trkpt lat="48.95757" lon="2.84989">
        <ele>68.6</ele>
        <time>2020-07-01T13:51:41Z</time>
      </trkpt>
      <trkpt lat="48.95762" lon="2.84983">
        <ele>68.7</ele>
        <time>2020-07-01T13:51:42Z</time>
      </trkpt>
      <trkpt lat="48.95768" lon="2.84978">
        <ele>68.7</ele>
        <time>2020-07-01T13:51:43Z</time>
      </trkpt>
      <trkpt lat="48.95774" lon="2.84973">
        <ele>68.8</ele>
        <time>2020-07-01T13:51:44Z</time>
      </trkpt>
      <trkpt lat="48.95779" lon="2.84971">
        <ele>68.8</ele>
        <time>2020-07-01T13:51:45Z</time>
      </trkpt>
      <trkpt lat="48.95785" lon="2.84968">
        <ele>68.8</ele>
        <time>2020-07-01T13:51:46Z</time>
      </trkpt>
      <trkpt lat="48.95791" lon="2.84966">
        <ele>68.9</ele>
        <time>2020-07-01T13:51:47Z</time>
      </trkpt>
      <trkpt lat="48.95796" lon="2.84964">
        <ele>68.9</ele>
        <time>2020-07-01T13:51:48Z</time>
      </trkpt>
      <trkpt lat="48.95802" lon="2.84962">
        <ele>69</ele>
        <time>2020-07-01T13:51:49Z</time>
      </trkpt>
      <trkpt lat="48.95808" lon="2.8496">
        <ele>69.1</ele>
        <time>2020-07-01T13:51:50Z</time>
      </trkpt>
      <trkpt lat="48.95813" lon="2.84958">
        <ele>69.2</ele>
        <time>2020-07-01T13:51:51Z</time>
      </trkpt>
      <trkpt lat="48.95817" lon="2.84956">
        <ele>69.3</ele>
        <time>2020-07-01T13:51:52Z</time>
      </trkpt>
      <trkpt lat="48.9582" lon="2.84954">
        <ele>69.5</ele>
        <time>2020-07-01T13:51:53Z</time>
      </trkpt>
      <trkpt lat="48.95822" lon="2.84953">
        <ele>69.5</ele>
        <time>2020-07-01T13:51:54Z</time>
      </trkpt>
      <trkpt lat="48.95821" lon="2.84954">
        <ele>69.5</ele>
        <time>2020-07-01T13:51:55Z</time>
      </trkpt>
      <trkpt lat="48.95821" lon="2.84954">
        <ele>69.5</ele>
        <time>2020-07-01T13:51:56Z</time>
      </trkpt>
      <trkpt lat="48.9582" lon="2.84954">
        <ele>69.6</ele>
        <time>2020-07-01T13:51:57Z</time>
      </trkpt>
      <trkpt lat="48.9582" lon="2.84953">
        <ele>69.6</ele>
        <time>2020-07-01T13:51:58Z</time>
      </trkpt>
      <trkpt lat="48.95819" lon="2.84953">
        <ele>69.6</ele>
        <time>2020-07-01T13:51:59Z</time>
      </trkpt>
      <trkpt lat="48.9582" lon="2.84953">
        <ele>69.6</ele>
        <time>2020-07-01T13:52:00Z</time>
      </trkpt>
      <trkpt lat="48.9582" lon="2.84953">
        <ele>69.6</ele>
        <time>2020-07-01T13:52:01Z</time>
      </trkpt>
      <trkpt lat="48.9582" lon="2.84952">
        <ele>69.6</ele>
        <time>2020-07-01T13:52:02Z</time>
      </trkpt>
      <trkpt lat="48.9582" lon="2.84952">
        <ele>69.7</ele>
        <time>2020-07-01T13:52:03Z</time>
      </trkpt>
      <trkpt lat="48.9582" lon="2.84952">
        <ele>69.7</ele>
        <time>2020-07-01T13:52:04Z</time>
      </trkpt>
      <trkpt lat="48.9582" lon="2.84952">
        <ele>69.7</ele>
        <time>2020-07-01T13:52:05Z</time>
      </trkpt>
      <trkpt lat="48.95821" lon="2.84952">
        <ele>69.7</ele>
        <time>2020-07-01T13:52:06Z</time>
      </trkpt>
      <trkpt lat="48.95821" lon="2.84952">
        <ele>69.7</ele>
        <time>2020-07-01T13:52:07Z</time>
      </trkpt>
      <trkpt lat="48.95821" lon="2.84952">
        <ele>69.7</ele>
        <time>2020-07-01T13:52:08Z</time>
      </trkpt>
      <trkpt lat="48.95821" lon="2.84952">
        <ele>69.7</ele>
        <time>2020-07-01T13:52:09Z</time>
      </trkpt>
      <trkpt lat="48.95822" lon="2.84954">
        <ele>69.7</ele>
        <time>2020-07-01T13:52:10Z</time>
      </trkpt>
      <trkpt lat="48.95821" lon="2.84953">
        <ele>69.8</ele>
        <time>2020-07-01T13:52:11Z</time>
      </trkpt>
      <trkpt lat="48.95821" lon="2.84953">
        <ele>69.8</ele>
        <time>2020-07-01T13:52:12Z</time>
      </trkpt>
      <trkpt lat="48.95821" lon="2.84953">
        <ele>69.8</ele>
        <time>2020-07-01T13:52:13Z</time>
      </trkpt>
      <trkpt lat="48.95821" lon="2.84954">
        <ele>69.8</ele>
        <time>2020-07-01T13:52:14Z</time>
      </trkpt>
      <trkpt lat="48.95821" lon="2.84954">
        <ele>69.8</ele>
        <time>2020-07-01T13:52:15Z</time>
      </trkpt>
      <trkpt lat="48.95822" lon="2.84955">
        <ele>69.8</ele>
        <time>2020-07-01T13:52:16Z</time>
      </trkpt>
      <trkpt lat="48.95822" lon="2.84956">
        <ele>69.8</ele>
        <time>2020-07-01T13:52:17Z</time>
      </trkpt>
      <trkpt lat="48.95823" lon="2.84948">
        <ele>70</ele>
        <time>2020-07-01T13:54:08Z</time>
      </trkpt>
      <trkpt lat="48.95823" lon="2.84947">
        <ele>70</ele>
        <time>2020-07-01T13:54:09Z</time>
      </trkpt>
      <trkpt lat="48.95824" lon="2.84947">
        <ele>70</ele>
        <time>2020-07-01T13:54:10Z</time>
      </trkpt>
      <trkpt lat="48.95825" lon="2.84949">
        <ele>70.1</ele>
        <time>2020-07-01T13:54:11Z</time>
      </trkpt>
      <trkpt lat="48.95826" lon="2.84948">
        <ele>70.1</ele>
        <time>2020-07-01T13:54:12Z</time>
      </trkpt>
      <trkpt lat="48.95827" lon="2.84947">
        <ele>70.2</ele>
        <time>2020-07-01T13:54:13Z</time>
      </trkpt>
      <trkpt lat="48.95828" lon="2.84946">
        <ele>70.2</ele>
        <time>2020-07-01T13:54:14Z</time>
      </trkpt>
      <trkpt lat="48.9583" lon="2.84946">
        <ele>70.3</ele>
        <time>2020-07-01T13:54:15Z</time>
      </trkpt>
      <trkpt lat="48.95831" lon="2.84946">
        <ele>70.3</ele>
        <time>2020-07-01T13:54:16Z</time>
      </trkpt>
      <trkpt lat="48.95834" lon="2.84944">
        <ele>70.4</ele>
        <time>2020-07-01T13:54:17Z</time>
      </trkpt>
      <trkpt lat="48.95835" lon="2.84944">
        <ele>70.4</ele>
        <time>2020-07-01T13:54:18Z</time>
      </trkpt>
      <trkpt lat="48.95839" lon="2.84943">
        <ele>70.6</ele>
        <time>2020-07-01T13:54:19Z</time>
      </trkpt>
      <trkpt lat="48.9584" lon="2.84943">
        <ele>70.6</ele>
        <time>2020-07-01T13:54:20Z</time>
      </trkpt>
      <trkpt lat="48.95844" lon="2.84941">
        <ele>70.8</ele>
        <time>2020-07-01T13:54:21Z</time>
      </trkpt>
      <trkpt lat="48.95845" lon="2.8494">
        <ele>70.8</ele>
        <time>2020-07-01T13:54:22Z</time>
      </trkpt>
      <trkpt lat="48.95848" lon="2.84939">
        <ele>70.9</ele>
        <time>2020-07-01T13:54:23Z</time>
      </trkpt>
      <trkpt lat="48.95851" lon="2.84937">
        <ele>71</ele>
        <time>2020-07-01T13:54:24Z</time>
      </trkpt>
      <trkpt lat="48.95854" lon="2.84935">
        <ele>71.2</ele>
        <time>2020-07-01T13:54:25Z</time>
      </trkpt>
      <trkpt lat="48.95858" lon="2.84934">
        <ele>71.3</ele>
        <time>2020-07-01T13:54:26Z</time>
      </trkpt>
      <trkpt lat="48.95862" lon="2.84932">
        <ele>71.5</ele>
        <time>2020-07-01T13:54:27Z</time>
      </trkpt>
      <trkpt lat="48.95866" lon="2.8493">
        <ele>71.6</ele>
        <time>2020-07-01T13:54:28Z</time>
      </trkpt>
      <trkpt lat="48.9587" lon="2.84929">
        <ele>71.7</ele>
        <time>2020-07-01T13:54:29Z</time>
      </trkpt>
      <trkpt lat="48.95874" lon="2.84927">
        <ele>71.8</ele>
        <time>2020-07-01T13:54:30Z</time>
      </trkpt>
      <trkpt lat="48.95877" lon="2.84924">
        <ele>71.9</ele>
        <time>2020-07-01T13:54:31Z</time>
      </trkpt>
      <trkpt lat="48.95882" lon="2.84922">
        <ele>72.1</ele>
        <time>2020-07-01T13:54:32Z</time>
      </trkpt>
      <trkpt lat="48.95886" lon="2.84919">
        <ele>72.2</ele>
        <time>2020-07-01T13:54:33Z</time>
      </trkpt>
      <trkpt lat="48.9589" lon="2.84916">
        <ele>72.3</ele>
        <time>2020-07-01T13:54:34Z</time>
      </trkpt>
      <trkpt lat="48.95894" lon="2.84913">
        <ele>72.5</ele>
        <time>2020-07-01T13:54:35Z</time>
      </trkpt>
      <trkpt lat="48.95899" lon="2.84911">
        <ele>72.7</ele>
        <time>2020-07-01T13:54:36Z</time>
      </trkpt>
      <trkpt lat="48.95903" lon="2.84909">
        <ele>72.8</ele>
        <time>2020-07-01T13:54:37Z</time>
      </trkpt>
      <trkpt lat="48.95907" lon="2.84908">
        <ele>73</ele>
        <time>2020-07-01T13:54:38Z</time>
      </trkpt>
      <trkpt lat="48.9591" lon="2.84906">
        <ele>73.1</ele>
        <time>2020-07-01T13:54:39Z</time>
      </trkpt>
      <trkpt lat="48.95915" lon="2.84904">
        <ele>73.2</ele>
        <time>2020-07-01T13:54:40Z</time>
      </trkpt>
      <trkpt lat="48.9592" lon="2.84901">
        <ele>73.4</ele>
        <time>2020-07-01T13:54:41Z</time>
      </trkpt>
      <trkpt lat="48.95924" lon="2.849">
        <ele>73.5</ele>
        <time>2020-07-01T13:54:42Z</time>
      </trkpt>
      <trkpt lat="48.95927" lon="2.84898">
        <ele>73.6</ele>
        <time>2020-07-01T13:54:43Z</time>
      </trkpt>
      <trkpt lat="48.95931" lon="2.84896">
        <ele>73.7</ele>
        <time>2020-07-01T13:54:44Z</time>
      </trkpt>
      <trkpt lat="48.95933" lon="2.84895">
        <ele>73.7</ele>
        <time>2020-07-01T13:54:45Z</time>
      </trkpt>
      <trkpt lat="48.95935" lon="2.84893">
        <ele>73.8</ele>
        <time>2020-07-01T13:54:46Z</time>
      </trkpt>
      <trkpt lat="48.95938" lon="2.84891">
        <ele>73.9</ele>
        <time>2020-07-01T13:54:47Z</time>
      </trkpt>
      <trkpt lat="48.95941" lon="2.84889">
        <ele>74</ele>
        <time>2020-07-01T13:54:48Z</time>
      </trkpt>
      <trkpt lat="48.95944" lon="2.84888">
        <ele>74.1</ele>
        <time>2020-07-01T13:54:49Z</time>
      </trkpt>
      <trkpt lat="48.95947" lon="2.84886">
        <ele>74.1</ele>
        <time>2020-07-01T13:54:50Z</time>
      </trkpt>
      <trkpt lat="48.9595" lon="2.84884">
        <ele>74.2</ele>
        <time>2020-07-01T13:54:51Z</time>
      </trkpt>
      <trkpt lat="48.95955" lon="2.84882">
        <ele>74.3</ele>
        <time>2020-07-01T13:54:52Z</time>
      </trkpt>
      <trkpt lat="48.95958" lon="2.8488">
        <ele>74.4</ele>
        <time>2020-07-01T13:54:53Z</time>
      </trkpt>
      <trkpt lat="48.95963" lon="2.84878">
        <ele>74.4</ele>
        <time>2020-07-01T13:54:54Z</time>
      </trkpt>
      <trkpt lat="48.95966" lon="2.84876">
        <ele>74.5</ele>
        <time>2020-07-01T13:54:55Z</time>
      </trkpt>
      <trkpt lat="48.9597" lon="2.84874">
        <ele>74.6</ele>
        <time>2020-07-01T13:54:56Z</time>
      </trkpt>
      <trkpt lat="48.95974" lon="2.84872">
        <ele>74.6</ele>
        <time>2020-07-01T13:54:57Z</time>
      </trkpt>
      <trkpt lat="48.95977" lon="2.84871">
        <ele>74.7</ele>
        <time>2020-07-01T13:54:58Z</time>
      </trkpt>
      <trkpt lat="48.95982" lon="2.84868">
        <ele>74.7</ele>
        <time>2020-07-01T13:54:59Z</time>
      </trkpt>
      <trkpt lat="48.95985" lon="2.84866">
        <ele>74.8</ele>
        <time>2020-07-01T13:55:00Z</time>
      </trkpt>
      <trkpt lat="48.95989" lon="2.84864">
        <ele>74.8</ele>
        <time>2020-07-01T13:55:01Z</time>
      </trkpt>
      <trkpt lat="48.95993" lon="2.84863">
        <ele>74.9</ele>
        <time>2020-07-01T13:55:02Z</time>
      </trkpt>
      <trkpt lat="48.95996" lon="2.8486">
        <ele>74.9</ele>
        <time>2020-07-01T13:55:03Z</time>
      </trkpt>
      <trkpt lat="48.96" lon="2.84859">
        <ele>75</ele>
        <time>2020-07-01T13:55:04Z</time>
      </trkpt>
      <trkpt lat="48.96004" lon="2.84857">
        <ele>75</ele>
        <time>2020-07-01T13:55:05Z</time>
      </trkpt>
      <trkpt lat="48.96008" lon="2.84854">
        <ele>75.1</ele>
        <time>2020-07-01T13:55:06Z</time>
      </trkpt>
      <trkpt lat="48.96014" lon="2.84852">
        <ele>75.1</ele>
        <time>2020-07-01T13:55:07Z</time>
      </trkpt>
      <trkpt lat="48.96018" lon="2.8485">
        <ele>75.2</ele>
        <time>2020-07-01T13:55:08Z</time>
      </trkpt>
      <trkpt lat="48.96022" lon="2.84848">
        <ele>75.2</ele>
        <time>2020-07-01T13:55:09Z</time>
      </trkpt>
      <trkpt lat="48.96026" lon="2.84846">
        <ele>75.3</ele>
        <time>2020-07-01T13:55:10Z</time>
      </trkpt>
      <trkpt lat="48.9603" lon="2.84844">
        <ele>75.3</ele>
        <time>2020-07-01T13:55:11Z</time>
      </trkpt>
      <trkpt lat="48.96035" lon="2.84842">
        <ele>75.3</ele>
        <time>2020-07-01T13:55:12Z</time>
      </trkpt>
      <trkpt lat="48.96038" lon="2.84841">
        <ele>75.3</ele>
        <time>2020-07-01T13:55:13Z</time>
      </trkpt>
      <trkpt lat="48.96042" lon="2.84839">
        <ele>75.4</ele>
        <time>2020-07-01T13:55:14Z</time>
      </trkpt>
      <trkpt lat="48.96048" lon="2.84837">
        <ele>75.4</ele>
        <time>2020-07-01T13:55:15Z</time>
      </trkpt>
      <trkpt lat="48.96053" lon="2.84835">
        <ele>75.4</ele>
        <time>2020-07-01T13:55:16Z</time>
      </trkpt>
      <trkpt lat="48.96059" lon="2.84833">
        <ele>75.4</ele>
        <time>2020-07-01T13:55:17Z</time>
      </trkpt>
      <trkpt lat="48.96065" lon="2.8483">
        <ele>75.4</ele>
        <time>2020-07-01T13:55:18Z</time>
      </trkpt>
      <trkpt lat="48.9607" lon="2.84828">
        <ele>75.4</ele>
        <time>2020-07-01T13:55:19Z</time>
      </trkpt>
      <trkpt lat="48.96077" lon="2.84825">
        <ele>75.4</ele>
        <time>2020-07-01T13:55:20Z</time>
      </trkpt>
      <trkpt lat="48.96082" lon="2.84822">
        <ele>75.4</ele>
        <time>2020-07-01T13:55:21Z</time>
      </trkpt>
      <trkpt lat="48.96088" lon="2.8482">
        <ele>75.3</ele>
        <time>2020-07-01T13:55:22Z</time>
      </trkpt>
      <trkpt lat="48.96092" lon="2.84818">
        <ele>75.3</ele>
        <time>2020-07-01T13:55:23Z</time>
      </trkpt>
      <trkpt lat="48.96096" lon="2.84816">
        <ele>75.3</ele>
        <time>2020-07-01T13:55:24Z</time>
      </trkpt>
      <trkpt lat="48.961" lon="2.84815">
        <ele>75.2</ele>
        <time>2020-07-01T13:55:25Z</time>
      </trkpt>
      <trkpt lat="48.96105" lon="2.84812">
        <ele>75.2</ele>
        <time>2020-07-01T13:55:26Z</time>
      </trkpt>
      <trkpt lat="48.96111" lon="2.84809">
        <ele>75.1</ele>
        <time>2020-07-01T13:55:27Z</time>
      </trkpt>
      <trkpt lat="48.96116" lon="2.84806">
        <ele>75.1</ele>
        <time>2020-07-01T13:55:28Z</time>
      </trkpt>
      <trkpt lat="48.96122" lon="2.84803">
        <ele>75</ele>
        <time>2020-07-01T13:55:29Z</time>
      </trkpt>
      <trkpt lat="48.96127" lon="2.84801">
        <ele>74.9</ele>
        <time>2020-07-01T13:55:30Z</time>
      </trkpt>
      <trkpt lat="48.96133" lon="2.84798">
        <ele>74.9</ele>
        <time>2020-07-01T13:55:31Z</time>
      </trkpt>
      <trkpt lat="48.96139" lon="2.84794">
        <ele>74.8</ele>
        <time>2020-07-01T13:55:32Z</time>
      </trkpt>
      <trkpt lat="48.96145" lon="2.84791">
        <ele>74.7</ele>
        <time>2020-07-01T13:55:33Z</time>
      </trkpt>
      <trkpt lat="48.9615" lon="2.84788">
        <ele>74.6</ele>
        <time>2020-07-01T13:55:34Z</time>
      </trkpt>
      <trkpt lat="48.96155" lon="2.84786">
        <ele>74.5</ele>
        <time>2020-07-01T13:55:35Z</time>
      </trkpt>
      <trkpt lat="48.96161" lon="2.84783">
        <ele>74.4</ele>
        <time>2020-07-01T13:55:36Z</time>
      </trkpt>
      <trkpt lat="48.96166" lon="2.8478">
        <ele>74.2</ele>
        <time>2020-07-01T13:55:37Z</time>
      </trkpt>
      <trkpt lat="48.96172" lon="2.84777">
        <ele>74.1</ele>
        <time>2020-07-01T13:55:38Z</time>
      </trkpt>
      <trkpt lat="48.96178" lon="2.84774">
        <ele>74</ele>
        <time>2020-07-01T13:55:39Z</time>
      </trkpt>
      <trkpt lat="48.96184" lon="2.84771">
        <ele>73.9</ele>
        <time>2020-07-01T13:55:40Z</time>
      </trkpt>
      <trkpt lat="48.9619" lon="2.84768">
        <ele>73.8</ele>
        <time>2020-07-01T13:55:41Z</time>
      </trkpt>
      <trkpt lat="48.96197" lon="2.84765">
        <ele>73.6</ele>
        <time>2020-07-01T13:55:42Z</time>
      </trkpt>
      <trkpt lat="48.96203" lon="2.84762">
        <ele>73.5</ele>
        <time>2020-07-01T13:55:43Z</time>
      </trkpt>
      <trkpt lat="48.96208" lon="2.84759">
        <ele>73.4</ele>
        <time>2020-07-01T13:55:44Z</time>
      </trkpt>
      <trkpt lat="48.96214" lon="2.84757">
        <ele>73.3</ele>
        <time>2020-07-01T13:55:45Z</time>
      </trkpt>
      <trkpt lat="48.9622" lon="2.84754">
        <ele>73.2</ele>
        <time>2020-07-01T13:55:46Z</time>
      </trkpt>
      <trkpt lat="48.96226" lon="2.84751">
        <ele>73</ele>
        <time>2020-07-01T13:55:47Z</time>
      </trkpt>
      <trkpt lat="48.96233" lon="2.84748">
        <ele>72.9</ele>
        <time>2020-07-01T13:55:48Z</time>
      </trkpt>
      <trkpt lat="48.9624" lon="2.84744">
        <ele>72.7</ele>
        <time>2020-07-01T13:55:49Z</time>
      </trkpt>
      <trkpt lat="48.96248" lon="2.8474">
        <ele>72.6</ele>
        <time>2020-07-01T13:55:50Z</time>
      </trkpt>
      <trkpt lat="48.96256" lon="2.84736">
        <ele>72.5</ele>
        <time>2020-07-01T13:55:51Z</time>
      </trkpt>
      <trkpt lat="48.96263" lon="2.84732">
        <ele>72.4</ele>
        <time>2020-07-01T13:55:52Z</time>
      </trkpt>
      <trkpt lat="48.9627" lon="2.84728">
        <ele>72.4</ele>
        <time>2020-07-01T13:55:53Z</time>
      </trkpt>
      <trkpt lat="48.96277" lon="2.84725">
        <ele>72.4</ele>
        <time>2020-07-01T13:55:54Z</time>
      </trkpt>
      <trkpt lat="48.96283" lon="2.84722">
        <ele>72.5</ele>
        <time>2020-07-01T13:55:55Z</time>
      </trkpt>
      <trkpt lat="48.9629" lon="2.84717">
        <ele>72.7</ele>
        <time>2020-07-01T13:55:56Z</time>
      </trkpt>
      <trkpt lat="48.96297" lon="2.84713">
        <ele>72.7</ele>
        <time>2020-07-01T13:55:57Z</time>
      </trkpt>
      <trkpt lat="48.96303" lon="2.8471">
        <ele>72.7</ele>
        <time>2020-07-01T13:55:58Z</time>
      </trkpt>
      <trkpt lat="48.9631" lon="2.84705">
        <ele>72.7</ele>
        <time>2020-07-01T13:55:59Z</time>
      </trkpt>
      <trkpt lat="48.96316" lon="2.84701">
        <ele>72.8</ele>
        <time>2020-07-01T13:56:00Z</time>
      </trkpt>
      <trkpt lat="48.96322" lon="2.84696">
        <ele>72.8</ele>
        <time>2020-07-01T13:56:01Z</time>
      </trkpt>
      <trkpt lat="48.96328" lon="2.84691">
        <ele>72.9</ele>
        <time>2020-07-01T13:56:02Z</time>
      </trkpt>
      <trkpt lat="48.96333" lon="2.84686">
        <ele>72.8</ele>
        <time>2020-07-01T13:56:03Z</time>
      </trkpt>
      <trkpt lat="48.96338" lon="2.84682">
        <ele>72.8</ele>
        <time>2020-07-01T13:56:04Z</time>
      </trkpt>
      <trkpt lat="48.96343" lon="2.84677">
        <ele>72.8</ele>
        <time>2020-07-01T13:56:05Z</time>
      </trkpt>
      <trkpt lat="48.96348" lon="2.84673">
        <ele>72.8</ele>
        <time>2020-07-01T13:56:06Z</time>
      </trkpt>
      <trkpt lat="48.96353" lon="2.84668">
        <ele>72.8</ele>
        <time>2020-07-01T13:56:07Z</time>
      </trkpt>
      <trkpt lat="48.96358" lon="2.84664">
        <ele>72.8</ele>
        <time>2020-07-01T13:56:08Z</time>
      </trkpt>
      <trkpt lat="48.96362" lon="2.84659">
        <ele>72.8</ele>
        <time>2020-07-01T13:56:09Z</time>
      </trkpt>
      <trkpt lat="48.96367" lon="2.84654">
        <ele>72.8</ele>
        <time>2020-07-01T13:56:10Z</time>
      </trkpt>
      <trkpt lat="48.96371" lon="2.84649">
        <ele>72.8</ele>
        <time>2020-07-01T13:56:11Z</time>
      </trkpt>
      <trkpt lat="48.96376" lon="2.84645">
        <ele>72.7</ele>
        <time>2020-07-01T13:56:12Z</time>
      </trkpt>
      <trkpt lat="48.9638" lon="2.84641">
        <ele>72.7</ele>
        <time>2020-07-01T13:56:13Z</time>
      </trkpt>
      <trkpt lat="48.96385" lon="2.84636">
        <ele>72.6</ele>
        <time>2020-07-01T13:56:14Z</time>
      </trkpt>
      <trkpt lat="48.9639" lon="2.84632">
        <ele>72.5</ele>
        <time>2020-07-01T13:56:15Z</time>
      </trkpt>
      <trkpt lat="48.96394" lon="2.84627">
        <ele>72.3</ele>
        <time>2020-07-01T13:56:16Z</time>
      </trkpt>
      <trkpt lat="48.96398" lon="2.84623">
        <ele>72.2</ele>
        <time>2020-07-01T13:56:17Z</time>
      </trkpt>
      <trkpt lat="48.96402" lon="2.84617">
        <ele>72.1</ele>
        <time>2020-07-01T13:56:18Z</time>
      </trkpt>
      <trkpt lat="48.96407" lon="2.84612">
        <ele>72</ele>
        <time>2020-07-01T13:56:19Z</time>
      </trkpt>
      <trkpt lat="48.96412" lon="2.84607">
        <ele>71.9</ele>
        <time>2020-07-01T13:56:20Z</time>
      </trkpt>
      <trkpt lat="48.96417" lon="2.84601">
        <ele>71.7</ele>
        <time>2020-07-01T13:56:21Z</time>
      </trkpt>
      <trkpt lat="48.96423" lon="2.84595">
        <ele>71.6</ele>
        <time>2020-07-01T13:56:22Z</time>
      </trkpt>
      <trkpt lat="48.96429" lon="2.8459">
        <ele>71.4</ele>
        <time>2020-07-01T13:56:23Z</time>
      </trkpt>
      <trkpt lat="48.96434" lon="2.84584">
        <ele>71.3</ele>
        <time>2020-07-01T13:56:24Z</time>
      </trkpt>
      <trkpt lat="48.96439" lon="2.84579">
        <ele>71.2</ele>
        <time>2020-07-01T13:56:25Z</time>
      </trkpt>
      <trkpt lat="48.96445" lon="2.84575">
        <ele>71.1</ele>
        <time>2020-07-01T13:56:26Z</time>
      </trkpt>
      <trkpt lat="48.96451" lon="2.8457">
        <ele>71</ele>
        <time>2020-07-01T13:56:27Z</time>
      </trkpt>
      <trkpt lat="48.96456" lon="2.84565">
        <ele>70.9</ele>
        <time>2020-07-01T13:56:28Z</time>
      </trkpt>
      <trkpt lat="48.96462" lon="2.8456">
        <ele>70.8</ele>
        <time>2020-07-01T13:56:29Z</time>
      </trkpt>
      <trkpt lat="48.96467" lon="2.84555">
        <ele>70.7</ele>
        <time>2020-07-01T13:56:30Z</time>
      </trkpt>
      <trkpt lat="48.96472" lon="2.84549">
        <ele>70.6</ele>
        <time>2020-07-01T13:56:31Z</time>
      </trkpt>
      <trkpt lat="48.96477" lon="2.84541">
        <ele>70.6</ele>
        <time>2020-07-01T13:56:32Z</time>
      </trkpt>
      <trkpt lat="48.96481" lon="2.84532">
        <ele>70.5</ele>
        <time>2020-07-01T13:56:33Z</time>
      </trkpt>
      <trkpt lat="48.96484" lon="2.84524">
        <ele>70.4</ele>
        <time>2020-07-01T13:56:34Z</time>
      </trkpt>
      <trkpt lat="48.96488" lon="2.84515">
        <ele>70.2</ele>
        <time>2020-07-01T13:56:35Z</time>
      </trkpt>
      <trkpt lat="48.96492" lon="2.84506">
        <ele>70.1</ele>
        <time>2020-07-01T13:56:36Z</time>
      </trkpt>
      <trkpt lat="48.96495" lon="2.84496">
        <ele>70</ele>
        <time>2020-07-01T13:56:37Z</time>
      </trkpt>
      <trkpt lat="48.96498" lon="2.84487">
        <ele>69.8</ele>
        <time>2020-07-01T13:56:38Z</time>
      </trkpt>
      <trkpt lat="48.96502" lon="2.84477">
        <ele>69.7</ele>
        <time>2020-07-01T13:56:39Z</time>
      </trkpt>
      <trkpt lat="48.96505" lon="2.84469">
        <ele>69.5</ele>
        <time>2020-07-01T13:56:40Z</time>
      </trkpt>
      <trkpt lat="48.96509" lon="2.84461">
        <ele>69.5</ele>
        <time>2020-07-01T13:56:41Z</time>
      </trkpt>
      <trkpt lat="48.96514" lon="2.84453">
        <ele>69.5</ele>
        <time>2020-07-01T13:56:42Z</time>
      </trkpt>
      <trkpt lat="48.96518" lon="2.84446">
        <ele>69.6</ele>
        <time>2020-07-01T13:56:43Z</time>
      </trkpt>
      <trkpt lat="48.96522" lon="2.84439">
        <ele>69.6</ele>
        <time>2020-07-01T13:56:44Z</time>
      </trkpt>
      <trkpt lat="48.96526" lon="2.84432">
        <ele>69.6</ele>
        <time>2020-07-01T13:56:45Z</time>
      </trkpt>
      <trkpt lat="48.9653" lon="2.84425">
        <ele>69.7</ele>
        <time>2020-07-01T13:56:46Z</time>
      </trkpt>
      <trkpt lat="48.96534" lon="2.84419">
        <ele>69.7</ele>
        <time>2020-07-01T13:56:47Z</time>
      </trkpt>
      <trkpt lat="48.96538" lon="2.84412">
        <ele>69.8</ele>
        <time>2020-07-01T13:56:48Z</time>
      </trkpt>
      <trkpt lat="48.96543" lon="2.84407">
        <ele>69.8</ele>
        <time>2020-07-01T13:56:49Z</time>
      </trkpt>
      <trkpt lat="48.96548" lon="2.84402">
        <ele>69.8</ele>
        <time>2020-07-01T13:56:50Z</time>
      </trkpt>
      <trkpt lat="48.96552" lon="2.84397">
        <ele>69.8</ele>
        <time>2020-07-01T13:56:51Z</time>
      </trkpt>
      <trkpt lat="48.96556" lon="2.84391">
        <ele>69.8</ele>
        <time>2020-07-01T13:56:52Z</time>
      </trkpt>
      <trkpt lat="48.9656" lon="2.84385">
        <ele>69.8</ele>
        <time>2020-07-01T13:56:53Z</time>
      </trkpt>
      <trkpt lat="48.96563" lon="2.8438">
        <ele>69.8</ele>
        <time>2020-07-01T13:56:54Z</time>
      </trkpt>
      <trkpt lat="48.96567" lon="2.84375">
        <ele>69.8</ele>
        <time>2020-07-01T13:56:55Z</time>
      </trkpt>
      <trkpt lat="48.9657" lon="2.84371">
        <ele>69.8</ele>
        <time>2020-07-01T13:56:56Z</time>
      </trkpt>
      <trkpt lat="48.96574" lon="2.84367">
        <ele>69.7</ele>
        <time>2020-07-01T13:56:57Z</time>
      </trkpt>
      <trkpt lat="48.96577" lon="2.84361">
        <ele>69.7</ele>
        <time>2020-07-01T13:56:58Z</time>
      </trkpt>
      <trkpt lat="48.9658" lon="2.84354">
        <ele>69.6</ele>
        <time>2020-07-01T13:56:59Z</time>
      </trkpt>
      <trkpt lat="48.96582" lon="2.84346">
        <ele>69.5</ele>
        <time>2020-07-01T13:57:00Z</time>
      </trkpt>
      <trkpt lat="48.96584" lon="2.84338">
        <ele>69.4</ele>
        <time>2020-07-01T13:57:01Z</time>
      </trkpt>
      <trkpt lat="48.96587" lon="2.84329">
        <ele>69.3</ele>
        <time>2020-07-01T13:57:02Z</time>
      </trkpt>
      <trkpt lat="48.96589" lon="2.84321">
        <ele>69.2</ele>
        <time>2020-07-01T13:57:03Z</time>
      </trkpt>
      <trkpt lat="48.96591" lon="2.84312">
        <ele>69.1</ele>
        <time>2020-07-01T13:57:04Z</time>
      </trkpt>
      <trkpt lat="48.96593" lon="2.84304">
        <ele>69.1</ele>
        <time>2020-07-01T13:57:05Z</time>
      </trkpt>
      <trkpt lat="48.96595" lon="2.84296">
        <ele>69</ele>
        <time>2020-07-01T13:57:06Z</time>
      </trkpt>
      <trkpt lat="48.96596" lon="2.8429">
        <ele>69</ele>
        <time>2020-07-01T13:57:07Z</time>
      </trkpt>
      <trkpt lat="48.96597" lon="2.84284">
        <ele>69</ele>
        <time>2020-07-01T13:57:08Z</time>
      </trkpt>
      <trkpt lat="48.96597" lon="2.84277">
        <ele>69</ele>
        <time>2020-07-01T13:57:09Z</time>
      </trkpt>
      <trkpt lat="48.96598" lon="2.8427">
        <ele>69.1</ele>
        <time>2020-07-01T13:57:10Z</time>
      </trkpt>
      <trkpt lat="48.96598" lon="2.84262">
        <ele>69.1</ele>
        <time>2020-07-01T13:57:11Z</time>
      </trkpt>
      <trkpt lat="48.96597" lon="2.84255">
        <ele>69.1</ele>
        <time>2020-07-01T13:57:12Z</time>
      </trkpt>
      <trkpt lat="48.96595" lon="2.84248">
        <ele>69</ele>
        <time>2020-07-01T13:57:13Z</time>
      </trkpt>
      <trkpt lat="48.96592" lon="2.84241">
        <ele>68.8</ele>
        <time>2020-07-01T13:57:14Z</time>
      </trkpt>
      <trkpt lat="48.96589" lon="2.84234">
        <ele>68.6</ele>
        <time>2020-07-01T13:57:15Z</time>
      </trkpt>
      <trkpt lat="48.96586" lon="2.84226">
        <ele>68.5</ele>
        <time>2020-07-01T13:57:16Z</time>
      </trkpt>
      <trkpt lat="48.96584" lon="2.84218">
        <ele>68.4</ele>
        <time>2020-07-01T13:57:17Z</time>
      </trkpt>
      <trkpt lat="48.96581" lon="2.8421">
        <ele>68.4</ele>
        <time>2020-07-01T13:57:18Z</time>
      </trkpt>
      <trkpt lat="48.96578" lon="2.84203">
        <ele>68.4</ele>
        <time>2020-07-01T13:57:19Z</time>
      </trkpt>
      <trkpt lat="48.96575" lon="2.84196">
        <ele>68.4</ele>
        <time>2020-07-01T13:57:20Z</time>
      </trkpt>
      <trkpt lat="48.96573" lon="2.84189">
        <ele>68.4</ele>
        <time>2020-07-01T13:57:21Z</time>
      </trkpt>
      <trkpt lat="48.96571" lon="2.84182">
        <ele>68.4</ele>
        <time>2020-07-01T13:57:22Z</time>
      </trkpt>
      <trkpt lat="48.96569" lon="2.84174">
        <ele>68.5</ele>
        <time>2020-07-01T13:57:23Z</time>
      </trkpt>
      <trkpt lat="48.96567" lon="2.84167">
        <ele>68.5</ele>
        <time>2020-07-01T13:57:24Z</time>
      </trkpt>
      <trkpt lat="48.96566" lon="2.84159">
        <ele>68.6</ele>
        <time>2020-07-01T13:57:25Z</time>
      </trkpt>
      <trkpt lat="48.96565" lon="2.84151">
        <ele>68.7</ele>
        <time>2020-07-01T13:57:26Z</time>
      </trkpt>
      <trkpt lat="48.96564" lon="2.84144">
        <ele>68.8</ele>
        <time>2020-07-01T13:57:27Z</time>
      </trkpt>
      <trkpt lat="48.96563" lon="2.84136">
        <ele>68.9</ele>
        <time>2020-07-01T13:57:28Z</time>
      </trkpt>
      <trkpt lat="48.96562" lon="2.84129">
        <ele>69</ele>
        <time>2020-07-01T13:57:29Z</time>
      </trkpt>
      <trkpt lat="48.9656" lon="2.84122">
        <ele>69.1</ele>
        <time>2020-07-01T13:57:30Z</time>
      </trkpt>
      <trkpt lat="48.96559" lon="2.84114">
        <ele>69.1</ele>
        <time>2020-07-01T13:57:31Z</time>
      </trkpt>
      <trkpt lat="48.96559" lon="2.84107">
        <ele>69.2</ele>
        <time>2020-07-01T13:57:32Z</time>
      </trkpt>
      <trkpt lat="48.96561" lon="2.84101">
        <ele>69.2</ele>
        <time>2020-07-01T13:57:33Z</time>
      </trkpt>
      <trkpt lat="48.96563" lon="2.84095">
        <ele>69.2</ele>
        <time>2020-07-01T13:57:34Z</time>
      </trkpt>
      <trkpt lat="48.96565" lon="2.84089">
        <ele>69.1</ele>
        <time>2020-07-01T13:57:35Z</time>
      </trkpt>
      <trkpt lat="48.96568" lon="2.84083">
        <ele>69.1</ele>
        <time>2020-07-01T13:57:36Z</time>
      </trkpt>
      <trkpt lat="48.96571" lon="2.84078">
        <ele>69.1</ele>
        <time>2020-07-01T13:57:37Z</time>
      </trkpt>
      <trkpt lat="48.96574" lon="2.84073">
        <ele>69.1</ele>
        <time>2020-07-01T13:57:38Z</time>
      </trkpt>
      <trkpt lat="48.96577" lon="2.84068">
        <ele>69.1</ele>
        <time>2020-07-01T13:57:39Z</time>
      </trkpt>
      <trkpt lat="48.9658" lon="2.84063">
        <ele>69.1</ele>
        <time>2020-07-01T13:57:40Z</time>
      </trkpt>
      <trkpt lat="48.96584" lon="2.84057">
        <ele>69.1</ele>
        <time>2020-07-01T13:57:41Z</time>
      </trkpt>
      <trkpt lat="48.96587" lon="2.84051">
        <ele>69.1</ele>
        <time>2020-07-01T13:57:42Z</time>
      </trkpt>
      <trkpt lat="48.9659" lon="2.84045">
        <ele>69.1</ele>
        <time>2020-07-01T13:57:43Z</time>
      </trkpt>
      <trkpt lat="48.96592" lon="2.8404">
        <ele>69.1</ele>
        <time>2020-07-01T13:57:44Z</time>
      </trkpt>
      <trkpt lat="48.96596" lon="2.84034">
        <ele>69.1</ele>
        <time>2020-07-01T13:57:45Z</time>
      </trkpt>
      <trkpt lat="48.96599" lon="2.84028">
        <ele>69.1</ele>
        <time>2020-07-01T13:57:46Z</time>
      </trkpt>
      <trkpt lat="48.96602" lon="2.84023">
        <ele>69.2</ele>
        <time>2020-07-01T13:57:47Z</time>
      </trkpt>
      <trkpt lat="48.96605" lon="2.84017">
        <ele>69.2</ele>
        <time>2020-07-01T13:57:48Z</time>
      </trkpt>
      <trkpt lat="48.96609" lon="2.84012">
        <ele>69.3</ele>
        <time>2020-07-01T13:57:49Z</time>
      </trkpt>
      <trkpt lat="48.96612" lon="2.84006">
        <ele>69.3</ele>
        <time>2020-07-01T13:57:50Z</time>
      </trkpt>
      <trkpt lat="48.96616" lon="2.84">
        <ele>69.3</ele>
        <time>2020-07-01T13:57:51Z</time>
      </trkpt>
      <trkpt lat="48.96619" lon="2.83995">
        <ele>69.4</ele>
        <time>2020-07-01T13:57:52Z</time>
      </trkpt>
      <trkpt lat="48.96622" lon="2.8399">
        <ele>69.4</ele>
        <time>2020-07-01T13:57:53Z</time>
      </trkpt>
      <trkpt lat="48.96626" lon="2.83986">
        <ele>69.5</ele>
        <time>2020-07-01T13:57:54Z</time>
      </trkpt>
      <trkpt lat="48.96629" lon="2.8398">
        <ele>69.5</ele>
        <time>2020-07-01T13:57:55Z</time>
      </trkpt>
      <trkpt lat="48.96633" lon="2.83974">
        <ele>69.6</ele>
        <time>2020-07-01T13:57:56Z</time>
      </trkpt>
      <trkpt lat="48.96636" lon="2.83969">
        <ele>69.7</ele>
        <time>2020-07-01T13:57:57Z</time>
      </trkpt>
      <trkpt lat="48.9664" lon="2.83963">
        <ele>69.7</ele>
        <time>2020-07-01T13:57:58Z</time>
      </trkpt>
      <trkpt lat="48.96644" lon="2.83956">
        <ele>69.8</ele>
        <time>2020-07-01T13:57:59Z</time>
      </trkpt>
      <trkpt lat="48.96647" lon="2.8395">
        <ele>69.8</ele>
        <time>2020-07-01T13:58:00Z</time>
      </trkpt>
      <trkpt lat="48.9665" lon="2.83942">
        <ele>69.8</ele>
        <time>2020-07-01T13:58:01Z</time>
      </trkpt>
      <trkpt lat="48.96653" lon="2.83936">
        <ele>69.9</ele>
        <time>2020-07-01T13:58:02Z</time>
      </trkpt>
      <trkpt lat="48.96656" lon="2.83929">
        <ele>69.9</ele>
        <time>2020-07-01T13:58:03Z</time>
      </trkpt>
      <trkpt lat="48.96659" lon="2.83923">
        <ele>69.9</ele>
        <time>2020-07-01T13:58:04Z</time>
      </trkpt>
      <trkpt lat="48.96661" lon="2.83916">
        <ele>69.9</ele>
        <time>2020-07-01T13:58:05Z</time>
      </trkpt>
      <trkpt lat="48.96664" lon="2.83908">
        <ele>69.9</ele>
        <time>2020-07-01T13:58:06Z</time>
      </trkpt>
      <trkpt lat="48.96667" lon="2.83901">
        <ele>70</ele>
        <time>2020-07-01T13:58:07Z</time>
      </trkpt>
      <trkpt lat="48.96669" lon="2.83893">
        <ele>70</ele>
        <time>2020-07-01T13:58:08Z</time>
      </trkpt>
      <trkpt lat="48.96672" lon="2.83885">
        <ele>70.1</ele>
        <time>2020-07-01T13:58:09Z</time>
      </trkpt>
      <trkpt lat="48.96675" lon="2.83877">
        <ele>70.2</ele>
        <time>2020-07-01T13:58:10Z</time>
      </trkpt>
      <trkpt lat="48.96678" lon="2.8387">
        <ele>70.2</ele>
        <time>2020-07-01T13:58:11Z</time>
      </trkpt>
      <trkpt lat="48.9668" lon="2.83862">
        <ele>70.3</ele>
        <time>2020-07-01T13:58:12Z</time>
      </trkpt>
      <trkpt lat="48.96683" lon="2.83855">
        <ele>70.4</ele>
        <time>2020-07-01T13:58:13Z</time>
      </trkpt>
      <trkpt lat="48.96686" lon="2.83847">
        <ele>70.6</ele>
        <time>2020-07-01T13:58:14Z</time>
      </trkpt>
      <trkpt lat="48.96689" lon="2.8384">
        <ele>70.7</ele>
        <time>2020-07-01T13:58:15Z</time>
      </trkpt>
      <trkpt lat="48.96691" lon="2.83833">
        <ele>70.8</ele>
        <time>2020-07-01T13:58:16Z</time>
      </trkpt>
      <trkpt lat="48.96695" lon="2.83826">
        <ele>70.9</ele>
        <time>2020-07-01T13:58:17Z</time>
      </trkpt>
      <trkpt lat="48.96698" lon="2.83819">
        <ele>71.1</ele>
        <time>2020-07-01T13:58:18Z</time>
      </trkpt>
      <trkpt lat="48.96701" lon="2.83812">
        <ele>71.2</ele>
        <time>2020-07-01T13:58:19Z</time>
      </trkpt>
      <trkpt lat="48.96704" lon="2.83807">
        <ele>71.3</ele>
        <time>2020-07-01T13:58:20Z</time>
      </trkpt>
      <trkpt lat="48.96708" lon="2.838">
        <ele>71.4</ele>
        <time>2020-07-01T13:58:21Z</time>
      </trkpt>
      <trkpt lat="48.96712" lon="2.83793">
        <ele>71.5</ele>
        <time>2020-07-01T13:58:22Z</time>
      </trkpt>
      <trkpt lat="48.96716" lon="2.83786">
        <ele>71.6</ele>
        <time>2020-07-01T13:58:23Z</time>
      </trkpt>
      <trkpt lat="48.96719" lon="2.8378">
        <ele>71.7</ele>
        <time>2020-07-01T13:58:24Z</time>
      </trkpt>
      <trkpt lat="48.96722" lon="2.83774">
        <ele>71.8</ele>
        <time>2020-07-01T13:58:25Z</time>
      </trkpt>
      <trkpt lat="48.96724" lon="2.83771">
        <ele>71.8</ele>
        <time>2020-07-01T13:58:26Z</time>
      </trkpt>
      <trkpt lat="48.96726" lon="2.83766">
        <ele>71.9</ele>
        <time>2020-07-01T13:58:27Z</time>
      </trkpt>
      <trkpt lat="48.96729" lon="2.83762">
        <ele>72</ele>
        <time>2020-07-01T13:58:28Z</time>
      </trkpt>
      <trkpt lat="48.96733" lon="2.83756">
        <ele>72</ele>
        <time>2020-07-01T13:58:29Z</time>
      </trkpt>
      <trkpt lat="48.96736" lon="2.83751">
        <ele>72.1</ele>
        <time>2020-07-01T13:58:30Z</time>
      </trkpt>
      <trkpt lat="48.9674" lon="2.83745">
        <ele>72.1</ele>
        <time>2020-07-01T13:58:31Z</time>
      </trkpt>
      <trkpt lat="48.96743" lon="2.83739">
        <ele>72.1</ele>
        <time>2020-07-01T13:58:32Z</time>
      </trkpt>
      <trkpt lat="48.96746" lon="2.83733">
        <ele>72.1</ele>
        <time>2020-07-01T13:58:33Z</time>
      </trkpt>
      <trkpt lat="48.96749" lon="2.83729">
        <ele>72.2</ele>
        <time>2020-07-01T13:58:34Z</time>
      </trkpt>
      <trkpt lat="48.96752" lon="2.83725">
        <ele>72.2</ele>
        <time>2020-07-01T13:58:35Z</time>
      </trkpt>
      <trkpt lat="48.96755" lon="2.83719">
        <ele>72.4</ele>
        <time>2020-07-01T13:58:36Z</time>
      </trkpt>
      <trkpt lat="48.96759" lon="2.83714">
        <ele>72.6</ele>
        <time>2020-07-01T13:58:37Z</time>
      </trkpt>
      <trkpt lat="48.96761" lon="2.83708">
        <ele>72.8</ele>
        <time>2020-07-01T13:58:38Z</time>
      </trkpt>
      <trkpt lat="48.96765" lon="2.83702">
        <ele>72.9</ele>
        <time>2020-07-01T13:58:39Z</time>
      </trkpt>
      <trkpt lat="48.96769" lon="2.83696">
        <ele>73.1</ele>
        <time>2020-07-01T13:58:40Z</time>
      </trkpt>
      <trkpt lat="48.96771" lon="2.83691">
        <ele>73.2</ele>
        <time>2020-07-01T13:58:41Z</time>
      </trkpt>
      <trkpt lat="48.96775" lon="2.83685">
        <ele>73.3</ele>
        <time>2020-07-01T13:58:42Z</time>
      </trkpt>
      <trkpt lat="48.96778" lon="2.8368">
        <ele>73.4</ele>
        <time>2020-07-01T13:58:43Z</time>
      </trkpt>
      <trkpt lat="48.96782" lon="2.83674">
        <ele>73.5</ele>
        <time>2020-07-01T13:58:44Z</time>
      </trkpt>
      <trkpt lat="48.96785" lon="2.83668">
        <ele>73.6</ele>
        <time>2020-07-01T13:58:45Z</time>
      </trkpt>
      <trkpt lat="48.96787" lon="2.83665">
        <ele>73.6</ele>
        <time>2020-07-01T13:58:46Z</time>
      </trkpt>
      <trkpt lat="48.9679" lon="2.83659">
        <ele>73.7</ele>
        <time>2020-07-01T13:58:47Z</time>
      </trkpt>
      <trkpt lat="48.96793" lon="2.83654">
        <ele>73.8</ele>
        <time>2020-07-01T13:58:48Z</time>
      </trkpt>
      <trkpt lat="48.96797" lon="2.83648">
        <ele>73.9</ele>
        <time>2020-07-01T13:58:49Z</time>
      </trkpt>
      <trkpt lat="48.968" lon="2.83643">
        <ele>74</ele>
        <time>2020-07-01T13:58:50Z</time>
      </trkpt>
      <trkpt lat="48.96803" lon="2.83636">
        <ele>74.1</ele>
        <time>2020-07-01T13:58:51Z</time>
      </trkpt>
      <trkpt lat="48.96807" lon="2.8363">
        <ele>74.3</ele>
        <time>2020-07-01T13:58:52Z</time>
      </trkpt>
      <trkpt lat="48.96811" lon="2.83622">
        <ele>74.4</ele>
        <time>2020-07-01T13:58:53Z</time>
      </trkpt>
      <trkpt lat="48.96813" lon="2.83617">
        <ele>74.5</ele>
        <time>2020-07-01T13:58:54Z</time>
      </trkpt>
      <trkpt lat="48.96816" lon="2.83612">
        <ele>74.6</ele>
        <time>2020-07-01T13:58:55Z</time>
      </trkpt>
      <trkpt lat="48.96819" lon="2.83605">
        <ele>74.7</ele>
        <time>2020-07-01T13:58:56Z</time>
      </trkpt>
      <trkpt lat="48.96822" lon="2.83598">
        <ele>74.9</ele>
        <time>2020-07-01T13:58:57Z</time>
      </trkpt>
      <trkpt lat="48.96825" lon="2.83592">
        <ele>75</ele>
        <time>2020-07-01T13:58:58Z</time>
      </trkpt>
      <trkpt lat="48.96828" lon="2.83585">
        <ele>75.1</ele>
        <time>2020-07-01T13:58:59Z</time>
      </trkpt>
      <trkpt lat="48.96831" lon="2.83578">
        <ele>75.2</ele>
        <time>2020-07-01T13:59:00Z</time>
      </trkpt>
      <trkpt lat="48.96833" lon="2.83572">
        <ele>75.3</ele>
        <time>2020-07-01T13:59:01Z</time>
      </trkpt>
      <trkpt lat="48.96836" lon="2.83565">
        <ele>75.4</ele>
        <time>2020-07-01T13:59:02Z</time>
      </trkpt>
      <trkpt lat="48.96838" lon="2.8356">
        <ele>75.5</ele>
        <time>2020-07-01T13:59:03Z</time>
      </trkpt>
      <trkpt lat="48.9684" lon="2.83554">
        <ele>75.6</ele>
        <time>2020-07-01T13:59:04Z</time>
      </trkpt>
      <trkpt lat="48.96842" lon="2.83548">
        <ele>75.7</ele>
        <time>2020-07-01T13:59:05Z</time>
      </trkpt>
      <trkpt lat="48.96844" lon="2.83543">
        <ele>75.8</ele>
        <time>2020-07-01T13:59:06Z</time>
      </trkpt>
      <trkpt lat="48.96846" lon="2.83537">
        <ele>75.8</ele>
        <time>2020-07-01T13:59:07Z</time>
      </trkpt>
      <trkpt lat="48.96848" lon="2.8353">
        <ele>75.9</ele>
        <time>2020-07-01T13:59:08Z</time>
      </trkpt>
      <trkpt lat="48.96851" lon="2.83522">
        <ele>76</ele>
        <time>2020-07-01T13:59:09Z</time>
      </trkpt>
      <trkpt lat="48.96853" lon="2.83516">
        <ele>76</ele>
        <time>2020-07-01T13:59:10Z</time>
      </trkpt>
      <trkpt lat="48.96855" lon="2.83508">
        <ele>76.1</ele>
        <time>2020-07-01T13:59:11Z</time>
      </trkpt>
      <trkpt lat="48.96856" lon="2.83501">
        <ele>76.1</ele>
        <time>2020-07-01T13:59:12Z</time>
      </trkpt>
      <trkpt lat="48.96857" lon="2.83495">
        <ele>76.1</ele>
        <time>2020-07-01T13:59:13Z</time>
      </trkpt>
      <trkpt lat="48.96859" lon="2.83487">
        <ele>76.2</ele>
        <time>2020-07-01T13:59:14Z</time>
      </trkpt>
      <trkpt lat="48.96861" lon="2.8348">
        <ele>76.2</ele>
        <time>2020-07-01T13:59:15Z</time>
      </trkpt>
      <trkpt lat="48.96862" lon="2.83473">
        <ele>76.2</ele>
        <time>2020-07-01T13:59:16Z</time>
      </trkpt>
      <trkpt lat="48.96863" lon="2.83464">
        <ele>76.2</ele>
        <time>2020-07-01T13:59:17Z</time>
      </trkpt>
      <trkpt lat="48.96865" lon="2.83456">
        <ele>76.3</ele>
        <time>2020-07-01T13:59:18Z</time>
      </trkpt>
      <trkpt lat="48.96866" lon="2.83449">
        <ele>76.3</ele>
        <time>2020-07-01T13:59:19Z</time>
      </trkpt>
      <trkpt lat="48.96867" lon="2.83441">
        <ele>76.4</ele>
        <time>2020-07-01T13:59:20Z</time>
      </trkpt>
      <trkpt lat="48.96868" lon="2.83432">
        <ele>76.4</ele>
        <time>2020-07-01T13:59:21Z</time>
      </trkpt>
      <trkpt lat="48.96869" lon="2.83424">
        <ele>76.5</ele>
        <time>2020-07-01T13:59:22Z</time>
      </trkpt>
      <trkpt lat="48.96869" lon="2.83415">
        <ele>76.6</ele>
        <time>2020-07-01T13:59:23Z</time>
      </trkpt>
      <trkpt lat="48.96869" lon="2.83407">
        <ele>76.7</ele>
        <time>2020-07-01T13:59:24Z</time>
      </trkpt>
      <trkpt lat="48.96869" lon="2.83398">
        <ele>76.8</ele>
        <time>2020-07-01T13:59:25Z</time>
      </trkpt>
      <trkpt lat="48.96869" lon="2.8339">
        <ele>76.8</ele>
        <time>2020-07-01T13:59:26Z</time>
      </trkpt>
      <trkpt lat="48.96869" lon="2.8338">
        <ele>76.9</ele>
        <time>2020-07-01T13:59:27Z</time>
      </trkpt>
      <trkpt lat="48.96869" lon="2.83372">
        <ele>77</ele>
        <time>2020-07-01T13:59:28Z</time>
      </trkpt>
      <trkpt lat="48.96869" lon="2.83364">
        <ele>77.1</ele>
        <time>2020-07-01T13:59:29Z</time>
      </trkpt>
      <trkpt lat="48.96869" lon="2.83357">
        <ele>77.2</ele>
        <time>2020-07-01T13:59:30Z</time>
      </trkpt>
      <trkpt lat="48.96869" lon="2.8335">
        <ele>77.3</ele>
        <time>2020-07-01T13:59:31Z</time>
      </trkpt>
      <trkpt lat="48.96869" lon="2.83344">
        <ele>77.3</ele>
        <time>2020-07-01T13:59:32Z</time>
      </trkpt>
      <trkpt lat="48.9687" lon="2.83339">
        <ele>77.4</ele>
        <time>2020-07-01T13:59:33Z</time>
      </trkpt>
      <trkpt lat="48.9687" lon="2.83333">
        <ele>77.5</ele>
        <time>2020-07-01T13:59:34Z</time>
      </trkpt>
      <trkpt lat="48.9687" lon="2.83327">
        <ele>77.5</ele>
        <time>2020-07-01T13:59:35Z</time>
      </trkpt>
      <trkpt lat="48.96871" lon="2.8332">
        <ele>77.6</ele>
        <time>2020-07-01T13:59:36Z</time>
      </trkpt>
      <trkpt lat="48.96872" lon="2.83314">
        <ele>77.7</ele>
        <time>2020-07-01T13:59:37Z</time>
      </trkpt>
      <trkpt lat="48.96873" lon="2.83306">
        <ele>77.7</ele>
        <time>2020-07-01T13:59:38Z</time>
      </trkpt>
      <trkpt lat="48.96874" lon="2.83299">
        <ele>77.8</ele>
        <time>2020-07-01T13:59:39Z</time>
      </trkpt>
      <trkpt lat="48.96875" lon="2.83294">
        <ele>77.9</ele>
        <time>2020-07-01T13:59:40Z</time>
      </trkpt>
      <trkpt lat="48.96876" lon="2.83288">
        <ele>77.9</ele>
        <time>2020-07-01T13:59:41Z</time>
      </trkpt>
      <trkpt lat="48.96877" lon="2.83282">
        <ele>78</ele>
        <time>2020-07-01T13:59:42Z</time>
      </trkpt>
      <trkpt lat="48.96878" lon="2.83276">
        <ele>78.1</ele>
        <time>2020-07-01T13:59:43Z</time>
      </trkpt>
      <trkpt lat="48.9688" lon="2.83269">
        <ele>78.2</ele>
        <time>2020-07-01T13:59:44Z</time>
      </trkpt>
      <trkpt lat="48.96881" lon="2.83263">
        <ele>78.2</ele>
        <time>2020-07-01T13:59:45Z</time>
      </trkpt>
      <trkpt lat="48.96883" lon="2.83257">
        <ele>78.3</ele>
        <time>2020-07-01T13:59:46Z</time>
      </trkpt>
      <trkpt lat="48.96884" lon="2.83251">
        <ele>78.4</ele>
        <time>2020-07-01T13:59:47Z</time>
      </trkpt>
      <trkpt lat="48.96886" lon="2.83248">
        <ele>78.4</ele>
        <time>2020-07-01T13:59:48Z</time>
      </trkpt>
      <trkpt lat="48.96887" lon="2.83243">
        <ele>78.5</ele>
        <time>2020-07-01T13:59:49Z</time>
      </trkpt>
      <trkpt lat="48.96889" lon="2.83239">
        <ele>78.6</ele>
        <time>2020-07-01T13:59:50Z</time>
      </trkpt>
      <trkpt lat="48.96891" lon="2.83235">
        <ele>78.7</ele>
        <time>2020-07-01T13:59:51Z</time>
      </trkpt>
      <trkpt lat="48.96892" lon="2.83229">
        <ele>78.8</ele>
        <time>2020-07-01T13:59:52Z</time>
      </trkpt>
      <trkpt lat="48.96893" lon="2.83224">
        <ele>78.9</ele>
        <time>2020-07-01T13:59:53Z</time>
      </trkpt>
      <trkpt lat="48.96894" lon="2.83219">
        <ele>79</ele>
        <time>2020-07-01T13:59:54Z</time>
      </trkpt>
      <trkpt lat="48.96896" lon="2.83213">
        <ele>79.1</ele>
        <time>2020-07-01T13:59:55Z</time>
      </trkpt>
      <trkpt lat="48.96898" lon="2.83207">
        <ele>79.2</ele>
        <time>2020-07-01T13:59:56Z</time>
      </trkpt>
      <trkpt lat="48.96899" lon="2.83201">
        <ele>79.3</ele>
        <time>2020-07-01T13:59:57Z</time>
      </trkpt>
      <trkpt lat="48.96901" lon="2.83195">
        <ele>79.4</ele>
        <time>2020-07-01T13:59:58Z</time>
      </trkpt>
      <trkpt lat="48.96902" lon="2.83188">
        <ele>79.6</ele>
        <time>2020-07-01T13:59:59Z</time>
      </trkpt>
      <trkpt lat="48.96904" lon="2.83182">
        <ele>79.7</ele>
        <time>2020-07-01T14:00:00Z</time>
      </trkpt>
      <trkpt lat="48.96906" lon="2.83176">
        <ele>79.9</ele>
        <time>2020-07-01T14:00:01Z</time>
      </trkpt>
      <trkpt lat="48.96908" lon="2.8317">
        <ele>80</ele>
        <time>2020-07-01T14:00:02Z</time>
      </trkpt>
      <trkpt lat="48.96909" lon="2.83165">
        <ele>80.2</ele>
        <time>2020-07-01T14:00:03Z</time>
      </trkpt>
      <trkpt lat="48.96911" lon="2.83158">
        <ele>80.4</ele>
        <time>2020-07-01T14:00:04Z</time>
      </trkpt>
      <trkpt lat="48.96913" lon="2.83151">
        <ele>80.6</ele>
        <time>2020-07-01T14:00:05Z</time>
      </trkpt>
      <trkpt lat="48.96914" lon="2.83145">
        <ele>80.8</ele>
        <time>2020-07-01T14:00:06Z</time>
      </trkpt>
      <trkpt lat="48.96916" lon="2.83138">
        <ele>81</ele>
        <time>2020-07-01T14:00:07Z</time>
      </trkpt>
      <trkpt lat="48.96917" lon="2.83131">
        <ele>81.1</ele>
        <time>2020-07-01T14:00:08Z</time>
      </trkpt>
      <trkpt lat="48.96919" lon="2.83126">
        <ele>81.3</ele>
        <time>2020-07-01T14:00:09Z</time>
      </trkpt>
      <trkpt lat="48.9692" lon="2.8312">
        <ele>81.4</ele>
        <time>2020-07-01T14:00:10Z</time>
      </trkpt>
      <trkpt lat="48.96923" lon="2.83116">
        <ele>81.6</ele>
        <time>2020-07-01T14:00:11Z</time>
      </trkpt>
      <trkpt lat="48.96925" lon="2.83113">
        <ele>81.7</ele>
        <time>2020-07-01T14:00:12Z</time>
      </trkpt>
      <trkpt lat="48.96927" lon="2.83108">
        <ele>81.9</ele>
        <time>2020-07-01T14:00:13Z</time>
      </trkpt>
      <trkpt lat="48.96929" lon="2.83104">
        <ele>82</ele>
        <time>2020-07-01T14:00:14Z</time>
      </trkpt>
      <trkpt lat="48.96931" lon="2.83099">
        <ele>82.2</ele>
        <time>2020-07-01T14:00:15Z</time>
      </trkpt>
      <trkpt lat="48.96932" lon="2.83094">
        <ele>82.4</ele>
        <time>2020-07-01T14:00:16Z</time>
      </trkpt>
      <trkpt lat="48.96935" lon="2.83088">
        <ele>82.6</ele>
        <time>2020-07-01T14:00:17Z</time>
      </trkpt>
      <trkpt lat="48.96936" lon="2.83083">
        <ele>82.8</ele>
        <time>2020-07-01T14:00:18Z</time>
      </trkpt>
      <trkpt lat="48.96938" lon="2.83078">
        <ele>83</ele>
        <time>2020-07-01T14:00:19Z</time>
      </trkpt>
      <trkpt lat="48.96939" lon="2.83074">
        <ele>83.1</ele>
        <time>2020-07-01T14:00:20Z</time>
      </trkpt>
      <trkpt lat="48.96942" lon="2.83068">
        <ele>83.3</ele>
        <time>2020-07-01T14:00:21Z</time>
      </trkpt>
      <trkpt lat="48.96944" lon="2.83063">
        <ele>83.5</ele>
        <time>2020-07-01T14:00:22Z</time>
      </trkpt>
      <trkpt lat="48.96946" lon="2.83058">
        <ele>83.7</ele>
        <time>2020-07-01T14:00:23Z</time>
      </trkpt>
      <trkpt lat="48.96948" lon="2.83053">
        <ele>83.9</ele>
        <time>2020-07-01T14:00:24Z</time>
      </trkpt>
      <trkpt lat="48.9695" lon="2.83049">
        <ele>84</ele>
        <time>2020-07-01T14:00:25Z</time>
      </trkpt>
      <trkpt lat="48.96952" lon="2.83043">
        <ele>84.2</ele>
        <time>2020-07-01T14:00:26Z</time>
      </trkpt>
      <trkpt lat="48.96955" lon="2.83038">
        <ele>84.4</ele>
        <time>2020-07-01T14:00:27Z</time>
      </trkpt>
      <trkpt lat="48.96957" lon="2.83034">
        <ele>84.5</ele>
        <time>2020-07-01T14:00:28Z</time>
      </trkpt>
      <trkpt lat="48.96959" lon="2.83031">
        <ele>84.6</ele>
        <time>2020-07-01T14:00:29Z</time>
      </trkpt>
      <trkpt lat="48.96961" lon="2.83028">
        <ele>84.7</ele>
        <time>2020-07-01T14:00:30Z</time>
      </trkpt>
      <trkpt lat="48.96964" lon="2.83024">
        <ele>84.9</ele>
        <time>2020-07-01T14:00:31Z</time>
      </trkpt>
      <trkpt lat="48.96965" lon="2.8302">
        <ele>84.9</ele>
        <time>2020-07-01T14:00:32Z</time>
      </trkpt>
      <trkpt lat="48.96967" lon="2.83017">
        <ele>85</ele>
        <time>2020-07-01T14:00:33Z</time>
      </trkpt>
      <trkpt lat="48.9697" lon="2.83012">
        <ele>85.1</ele>
        <time>2020-07-01T14:00:34Z</time>
      </trkpt>
      <trkpt lat="48.96972" lon="2.83008">
        <ele>85.2</ele>
        <time>2020-07-01T14:00:35Z</time>
      </trkpt>
      <trkpt lat="48.96974" lon="2.83005">
        <ele>85.3</ele>
        <time>2020-07-01T14:00:36Z</time>
      </trkpt>
      <trkpt lat="48.96976" lon="2.83001">
        <ele>85.4</ele>
        <time>2020-07-01T14:00:37Z</time>
      </trkpt>
      <trkpt lat="48.96978" lon="2.82997">
        <ele>85.5</ele>
        <time>2020-07-01T14:00:38Z</time>
      </trkpt>
      <trkpt lat="48.9698" lon="2.82993">
        <ele>85.6</ele>
        <time>2020-07-01T14:00:39Z</time>
      </trkpt>
      <trkpt lat="48.96982" lon="2.82988">
        <ele>85.7</ele>
        <time>2020-07-01T14:00:40Z</time>
      </trkpt>
      <trkpt lat="48.96984" lon="2.82983">
        <ele>85.8</ele>
        <time>2020-07-01T14:00:41Z</time>
      </trkpt>
      <trkpt lat="48.96985" lon="2.82977">
        <ele>85.9</ele>
        <time>2020-07-01T14:00:42Z</time>
      </trkpt>
      <trkpt lat="48.96985" lon="2.82971">
        <ele>85.9</ele>
        <time>2020-07-01T14:00:43Z</time>
      </trkpt>
      <trkpt lat="48.96984" lon="2.82964">
        <ele>86</ele>
        <time>2020-07-01T14:00:44Z</time>
      </trkpt>
      <trkpt lat="48.96981" lon="2.82958">
        <ele>86</ele>
        <time>2020-07-01T14:00:45Z</time>
      </trkpt>
      <trkpt lat="48.96979" lon="2.82953">
        <ele>86.1</ele>
        <time>2020-07-01T14:00:46Z</time>
      </trkpt>
      <trkpt lat="48.96976" lon="2.82948">
        <ele>86.1</ele>
        <time>2020-07-01T14:00:47Z</time>
      </trkpt>
      <trkpt lat="48.96974" lon="2.82942">
        <ele>86.2</ele>
        <time>2020-07-01T14:00:48Z</time>
      </trkpt>
      <trkpt lat="48.96971" lon="2.82936">
        <ele>86.3</ele>
        <time>2020-07-01T14:00:49Z</time>
      </trkpt>
      <trkpt lat="48.96968" lon="2.8293">
        <ele>86.4</ele>
        <time>2020-07-01T14:00:50Z</time>
      </trkpt>
      <trkpt lat="48.96966" lon="2.82925">
        <ele>86.5</ele>
        <time>2020-07-01T14:00:51Z</time>
      </trkpt>
      <trkpt lat="48.96963" lon="2.82919">
        <ele>86.5</ele>
        <time>2020-07-01T14:00:52Z</time>
      </trkpt>
      <trkpt lat="48.96961" lon="2.82914">
        <ele>86.6</ele>
        <time>2020-07-01T14:00:53Z</time>
      </trkpt>
      <trkpt lat="48.96959" lon="2.82908">
        <ele>86.7</ele>
        <time>2020-07-01T14:00:54Z</time>
      </trkpt>
      <trkpt lat="48.96956" lon="2.82901">
        <ele>86.7</ele>
        <time>2020-07-01T14:00:55Z</time>
      </trkpt>
      <trkpt lat="48.96953" lon="2.82895">
        <ele>86.8</ele>
        <time>2020-07-01T14:00:56Z</time>
      </trkpt>
      <trkpt lat="48.96951" lon="2.82889">
        <ele>86.8</ele>
        <time>2020-07-01T14:00:57Z</time>
      </trkpt>
      <trkpt lat="48.96949" lon="2.82885">
        <ele>86.8</ele>
        <time>2020-07-01T14:00:58Z</time>
      </trkpt>
      <trkpt lat="48.96946" lon="2.8288">
        <ele>86.9</ele>
        <time>2020-07-01T14:00:59Z</time>
      </trkpt>
      <trkpt lat="48.96944" lon="2.82874">
        <ele>87</ele>
        <time>2020-07-01T14:01:00Z</time>
      </trkpt>
      <trkpt lat="48.96941" lon="2.82868">
        <ele>87.1</ele>
        <time>2020-07-01T14:01:01Z</time>
      </trkpt>
      <trkpt lat="48.96938" lon="2.82862">
        <ele>87.3</ele>
        <time>2020-07-01T14:01:02Z</time>
      </trkpt>
      <trkpt lat="48.96936" lon="2.82856">
        <ele>87.4</ele>
        <time>2020-07-01T14:01:03Z</time>
      </trkpt>
      <trkpt lat="48.96934" lon="2.82851">
        <ele>87.5</ele>
        <time>2020-07-01T14:01:04Z</time>
      </trkpt>
      <trkpt lat="48.96931" lon="2.82845">
        <ele>87.5</ele>
        <time>2020-07-01T14:01:05Z</time>
      </trkpt>
      <trkpt lat="48.96928" lon="2.82839">
        <ele>87.6</ele>
        <time>2020-07-01T14:01:06Z</time>
      </trkpt>
      <trkpt lat="48.96926" lon="2.82833">
        <ele>87.7</ele>
        <time>2020-07-01T14:01:07Z</time>
      </trkpt>
      <trkpt lat="48.96923" lon="2.82827">
        <ele>87.8</ele>
        <time>2020-07-01T14:01:08Z</time>
      </trkpt>
      <trkpt lat="48.96921" lon="2.82823">
        <ele>87.9</ele>
        <time>2020-07-01T14:01:09Z</time>
      </trkpt>
      <trkpt lat="48.96919" lon="2.82818">
        <ele>88</ele>
        <time>2020-07-01T14:01:10Z</time>
      </trkpt>
      <trkpt lat="48.96916" lon="2.82812">
        <ele>88</ele>
        <time>2020-07-01T14:01:11Z</time>
      </trkpt>
      <trkpt lat="48.96914" lon="2.82807">
        <ele>88.2</ele>
        <time>2020-07-01T14:01:12Z</time>
      </trkpt>
      <trkpt lat="48.96912" lon="2.82802">
        <ele>88.3</ele>
        <time>2020-07-01T14:01:13Z</time>
      </trkpt>
      <trkpt lat="48.9691" lon="2.82797">
        <ele>88.4</ele>
        <time>2020-07-01T14:01:14Z</time>
      </trkpt>
      <trkpt lat="48.96908" lon="2.82792">
        <ele>88.5</ele>
        <time>2020-07-01T14:01:15Z</time>
      </trkpt>
      <trkpt lat="48.96905" lon="2.82786">
        <ele>88.6</ele>
        <time>2020-07-01T14:01:16Z</time>
      </trkpt>
      <trkpt lat="48.96903" lon="2.82779">
        <ele>88.8</ele>
        <time>2020-07-01T14:01:17Z</time>
      </trkpt>
      <trkpt lat="48.96901" lon="2.82774">
        <ele>88.9</ele>
        <time>2020-07-01T14:01:18Z</time>
      </trkpt>
      <trkpt lat="48.96899" lon="2.82769">
        <ele>89</ele>
        <time>2020-07-01T14:01:19Z</time>
      </trkpt>
      <trkpt lat="48.96897" lon="2.82763">
        <ele>89.1</ele>
        <time>2020-07-01T14:01:20Z</time>
      </trkpt>
      <trkpt lat="48.96895" lon="2.82757">
        <ele>89.1</ele>
        <time>2020-07-01T14:01:21Z</time>
      </trkpt>
      <trkpt lat="48.96892" lon="2.8275">
        <ele>89.2</ele>
        <time>2020-07-01T14:01:22Z</time>
      </trkpt>
      <trkpt lat="48.9689" lon="2.82744">
        <ele>89.3</ele>
        <time>2020-07-01T14:01:23Z</time>
      </trkpt>
      <trkpt lat="48.96888" lon="2.82739">
        <ele>89.3</ele>
        <time>2020-07-01T14:01:24Z</time>
      </trkpt>
      <trkpt lat="48.96886" lon="2.82734">
        <ele>89.4</ele>
        <time>2020-07-01T14:01:25Z</time>
      </trkpt>
      <trkpt lat="48.96884" lon="2.82728">
        <ele>89.5</ele>
        <time>2020-07-01T14:01:26Z</time>
      </trkpt>
      <trkpt lat="48.96882" lon="2.82723">
        <ele>89.6</ele>
        <time>2020-07-01T14:01:27Z</time>
      </trkpt>
      <trkpt lat="48.9688" lon="2.82717">
        <ele>89.7</ele>
        <time>2020-07-01T14:01:28Z</time>
      </trkpt>
      <trkpt lat="48.96878" lon="2.82712">
        <ele>89.8</ele>
        <time>2020-07-01T14:01:29Z</time>
      </trkpt>
      <trkpt lat="48.96877" lon="2.82705">
        <ele>89.9</ele>
        <time>2020-07-01T14:01:30Z</time>
      </trkpt>
      <trkpt lat="48.96875" lon="2.82699">
        <ele>90</ele>
        <time>2020-07-01T14:01:31Z</time>
      </trkpt>
      <trkpt lat="48.96874" lon="2.82694">
        <ele>90.1</ele>
        <time>2020-07-01T14:01:32Z</time>
      </trkpt>
      <trkpt lat="48.96872" lon="2.82687">
        <ele>90.2</ele>
        <time>2020-07-01T14:01:33Z</time>
      </trkpt>
      <trkpt lat="48.9687" lon="2.82681">
        <ele>90.3</ele>
        <time>2020-07-01T14:01:34Z</time>
      </trkpt>
      <trkpt lat="48.96868" lon="2.82672">
        <ele>90.4</ele>
        <time>2020-07-01T14:01:35Z</time>
      </trkpt>
      <trkpt lat="48.96866" lon="2.82665">
        <ele>90.5</ele>
        <time>2020-07-01T14:01:36Z</time>
      </trkpt>
      <trkpt lat="48.96865" lon="2.82659">
        <ele>90.6</ele>
        <time>2020-07-01T14:01:37Z</time>
      </trkpt>
      <trkpt lat="48.96864" lon="2.82652">
        <ele>90.7</ele>
        <time>2020-07-01T14:01:38Z</time>
      </trkpt>
      <trkpt lat="48.96863" lon="2.82647">
        <ele>90.8</ele>
        <time>2020-07-01T14:01:39Z</time>
      </trkpt>
      <trkpt lat="48.96862" lon="2.82639">
        <ele>90.9</ele>
        <time>2020-07-01T14:01:40Z</time>
      </trkpt>
      <trkpt lat="48.96861" lon="2.82633">
        <ele>91</ele>
        <time>2020-07-01T14:01:41Z</time>
      </trkpt>
      <trkpt lat="48.9686" lon="2.82627">
        <ele>91.1</ele>
        <time>2020-07-01T14:01:42Z</time>
      </trkpt>
      <trkpt lat="48.96859" lon="2.8262">
        <ele>91.2</ele>
        <time>2020-07-01T14:01:43Z</time>
      </trkpt>
      <trkpt lat="48.96858" lon="2.82615">
        <ele>91.2</ele>
        <time>2020-07-01T14:01:44Z</time>
      </trkpt>
      <trkpt lat="48.96857" lon="2.82608">
        <ele>91.3</ele>
        <time>2020-07-01T14:01:45Z</time>
      </trkpt>
      <trkpt lat="48.96856" lon="2.82602">
        <ele>91.4</ele>
        <time>2020-07-01T14:01:46Z</time>
      </trkpt>
      <trkpt lat="48.96855" lon="2.82595">
        <ele>91.5</ele>
        <time>2020-07-01T14:01:47Z</time>
      </trkpt>
      <trkpt lat="48.96854" lon="2.82589">
        <ele>91.6</ele>
        <time>2020-07-01T14:01:48Z</time>
      </trkpt>
      <trkpt lat="48.96853" lon="2.82582">
        <ele>91.7</ele>
        <time>2020-07-01T14:01:49Z</time>
      </trkpt>
      <trkpt lat="48.96853" lon="2.82577">
        <ele>91.8</ele>
        <time>2020-07-01T14:01:50Z</time>
      </trkpt>
      <trkpt lat="48.96852" lon="2.82572">
        <ele>91.9</ele>
        <time>2020-07-01T14:01:51Z</time>
      </trkpt>
      <trkpt lat="48.96851" lon="2.82565">
        <ele>92</ele>
        <time>2020-07-01T14:01:52Z</time>
      </trkpt>
      <trkpt lat="48.9685" lon="2.82559">
        <ele>92.1</ele>
        <time>2020-07-01T14:01:53Z</time>
      </trkpt>
      <trkpt lat="48.96848" lon="2.82553">
        <ele>92.2</ele>
        <time>2020-07-01T14:01:54Z</time>
      </trkpt>
      <trkpt lat="48.96847" lon="2.82545">
        <ele>92.3</ele>
        <time>2020-07-01T14:01:55Z</time>
      </trkpt>
      <trkpt lat="48.96847" lon="2.8254">
        <ele>92.4</ele>
        <time>2020-07-01T14:01:56Z</time>
      </trkpt>
      <trkpt lat="48.96846" lon="2.82533">
        <ele>92.4</ele>
        <time>2020-07-01T14:01:57Z</time>
      </trkpt>
      <trkpt lat="48.96845" lon="2.82526">
        <ele>92.5</ele>
        <time>2020-07-01T14:01:58Z</time>
      </trkpt>
      <trkpt lat="48.96844" lon="2.82518">
        <ele>92.6</ele>
        <time>2020-07-01T14:01:59Z</time>
      </trkpt>
      <trkpt lat="48.96843" lon="2.8251">
        <ele>92.7</ele>
        <time>2020-07-01T14:02:00Z</time>
      </trkpt>
      <trkpt lat="48.96842" lon="2.82503">
        <ele>92.8</ele>
        <time>2020-07-01T14:02:01Z</time>
      </trkpt>
      <trkpt lat="48.96841" lon="2.82497">
        <ele>92.9</ele>
        <time>2020-07-01T14:02:02Z</time>
      </trkpt>
      <trkpt lat="48.9684" lon="2.8249">
        <ele>92.9</ele>
        <time>2020-07-01T14:02:03Z</time>
      </trkpt>
      <trkpt lat="48.9684" lon="2.82485">
        <ele>93</ele>
        <time>2020-07-01T14:02:04Z</time>
      </trkpt>
      <trkpt lat="48.9684" lon="2.82478">
        <ele>93.1</ele>
        <time>2020-07-01T14:02:05Z</time>
      </trkpt>
      <trkpt lat="48.96839" lon="2.8247">
        <ele>93.1</ele>
        <time>2020-07-01T14:02:06Z</time>
      </trkpt>
      <trkpt lat="48.96838" lon="2.82464">
        <ele>93.2</ele>
        <time>2020-07-01T14:02:07Z</time>
      </trkpt>
      <trkpt lat="48.96836" lon="2.82457">
        <ele>93.2</ele>
        <time>2020-07-01T14:02:08Z</time>
      </trkpt>
      <trkpt lat="48.96835" lon="2.8245">
        <ele>93.3</ele>
        <time>2020-07-01T14:02:09Z</time>
      </trkpt>
      <trkpt lat="48.96835" lon="2.82444">
        <ele>93.3</ele>
        <time>2020-07-01T14:02:10Z</time>
      </trkpt>
      <trkpt lat="48.96835" lon="2.82438">
        <ele>93.3</ele>
        <time>2020-07-01T14:02:11Z</time>
      </trkpt>
      <trkpt lat="48.96835" lon="2.82432">
        <ele>93.4</ele>
        <time>2020-07-01T14:02:12Z</time>
      </trkpt>
      <trkpt lat="48.96834" lon="2.82426">
        <ele>93.4</ele>
        <time>2020-07-01T14:02:13Z</time>
      </trkpt>
      <trkpt lat="48.96834" lon="2.8242">
        <ele>93.4</ele>
        <time>2020-07-01T14:02:14Z</time>
      </trkpt>
      <trkpt lat="48.96833" lon="2.82414">
        <ele>93.4</ele>
        <time>2020-07-01T14:02:15Z</time>
      </trkpt>
      <trkpt lat="48.96833" lon="2.82408">
        <ele>93.5</ele>
        <time>2020-07-01T14:02:16Z</time>
      </trkpt>
      <trkpt lat="48.96832" lon="2.824">
        <ele>93.5</ele>
        <time>2020-07-01T14:02:17Z</time>
      </trkpt>
      <trkpt lat="48.96831" lon="2.82392">
        <ele>93.5</ele>
        <time>2020-07-01T14:02:18Z</time>
      </trkpt>
      <trkpt lat="48.9683" lon="2.82384">
        <ele>93.6</ele>
        <time>2020-07-01T14:02:19Z</time>
      </trkpt>
      <trkpt lat="48.96829" lon="2.82378">
        <ele>93.7</ele>
        <time>2020-07-01T14:02:20Z</time>
      </trkpt>
      <trkpt lat="48.96828" lon="2.8237">
        <ele>93.8</ele>
        <time>2020-07-01T14:02:21Z</time>
      </trkpt>
      <trkpt lat="48.96827" lon="2.82363">
        <ele>93.9</ele>
        <time>2020-07-01T14:02:22Z</time>
      </trkpt>
      <trkpt lat="48.96825" lon="2.82356">
        <ele>94</ele>
        <time>2020-07-01T14:02:23Z</time>
      </trkpt>
      <trkpt lat="48.96823" lon="2.82348">
        <ele>94</ele>
        <time>2020-07-01T14:02:24Z</time>
      </trkpt>
      <trkpt lat="48.96822" lon="2.82341">
        <ele>94.1</ele>
        <time>2020-07-01T14:02:25Z</time>
      </trkpt>
      <trkpt lat="48.96821" lon="2.82334">
        <ele>94.1</ele>
        <time>2020-07-01T14:02:26Z</time>
      </trkpt>
      <trkpt lat="48.9682" lon="2.82328">
        <ele>94.1</ele>
        <time>2020-07-01T14:02:27Z</time>
      </trkpt>
      <trkpt lat="48.9682" lon="2.8232">
        <ele>94.1</ele>
        <time>2020-07-01T14:02:28Z</time>
      </trkpt>
      <trkpt lat="48.96819" lon="2.82313">
        <ele>94.2</ele>
        <time>2020-07-01T14:02:29Z</time>
      </trkpt>
      <trkpt lat="48.96818" lon="2.82305">
        <ele>94.2</ele>
        <time>2020-07-01T14:02:30Z</time>
      </trkpt>
      <trkpt lat="48.96816" lon="2.82298">
        <ele>94.2</ele>
        <time>2020-07-01T14:02:31Z</time>
      </trkpt>
      <trkpt lat="48.96815" lon="2.82291">
        <ele>94.3</ele>
        <time>2020-07-01T14:02:32Z</time>
      </trkpt>
      <trkpt lat="48.96813" lon="2.82284">
        <ele>94.3</ele>
        <time>2020-07-01T14:02:33Z</time>
      </trkpt>
      <trkpt lat="48.96812" lon="2.82279">
        <ele>94.3</ele>
        <time>2020-07-01T14:02:34Z</time>
      </trkpt>
      <trkpt lat="48.96811" lon="2.82272">
        <ele>94.4</ele>
        <time>2020-07-01T14:02:35Z</time>
      </trkpt>
      <trkpt lat="48.9681" lon="2.82266">
        <ele>94.4</ele>
        <time>2020-07-01T14:02:36Z</time>
      </trkpt>
      <trkpt lat="48.96809" lon="2.82258">
        <ele>94.5</ele>
        <time>2020-07-01T14:02:37Z</time>
      </trkpt>
      <trkpt lat="48.96807" lon="2.82251">
        <ele>94.5</ele>
        <time>2020-07-01T14:02:38Z</time>
      </trkpt>
      <trkpt lat="48.96806" lon="2.82244">
        <ele>94.6</ele>
        <time>2020-07-01T14:02:39Z</time>
      </trkpt>
      <trkpt lat="48.96806" lon="2.8224">
        <ele>94.6</ele>
        <time>2020-07-01T14:02:40Z</time>
      </trkpt>
      <trkpt lat="48.96805" lon="2.82233">
        <ele>94.7</ele>
        <time>2020-07-01T14:02:41Z</time>
      </trkpt>
      <trkpt lat="48.96803" lon="2.82226">
        <ele>94.8</ele>
        <time>2020-07-01T14:02:42Z</time>
      </trkpt>
      <trkpt lat="48.96802" lon="2.82219">
        <ele>94.8</ele>
        <time>2020-07-01T14:02:43Z</time>
      </trkpt>
      <trkpt lat="48.96801" lon="2.82211">
        <ele>94.9</ele>
        <time>2020-07-01T14:02:44Z</time>
      </trkpt>
      <trkpt lat="48.96799" lon="2.82206">
        <ele>94.9</ele>
        <time>2020-07-01T14:02:45Z</time>
      </trkpt>
      <trkpt lat="48.96798" lon="2.822">
        <ele>94.9</ele>
        <time>2020-07-01T14:02:46Z</time>
      </trkpt>
      <trkpt lat="48.96796" lon="2.82193">
        <ele>95</ele>
        <time>2020-07-01T14:02:47Z</time>
      </trkpt>
      <trkpt lat="48.96794" lon="2.82186">
        <ele>95</ele>
        <time>2020-07-01T14:02:48Z</time>
      </trkpt>
      <trkpt lat="48.96793" lon="2.82178">
        <ele>95</ele>
        <time>2020-07-01T14:02:49Z</time>
      </trkpt>
      <trkpt lat="48.9679" lon="2.82172">
        <ele>95.1</ele>
        <time>2020-07-01T14:02:50Z</time>
      </trkpt>
      <trkpt lat="48.96789" lon="2.82167">
        <ele>95.1</ele>
        <time>2020-07-01T14:02:51Z</time>
      </trkpt>
      <trkpt lat="48.96786" lon="2.82161">
        <ele>95.1</ele>
        <time>2020-07-01T14:02:52Z</time>
      </trkpt>
      <trkpt lat="48.96785" lon="2.82155">
        <ele>95.1</ele>
        <time>2020-07-01T14:02:53Z</time>
      </trkpt>
      <trkpt lat="48.96782" lon="2.82149">
        <ele>95.1</ele>
        <time>2020-07-01T14:02:54Z</time>
      </trkpt>
      <trkpt lat="48.9678" lon="2.82143">
        <ele>95.1</ele>
        <time>2020-07-01T14:02:55Z</time>
      </trkpt>
      <trkpt lat="48.96778" lon="2.82137">
        <ele>95.2</ele>
        <time>2020-07-01T14:02:56Z</time>
      </trkpt>
      <trkpt lat="48.96776" lon="2.82131">
        <ele>95.2</ele>
        <time>2020-07-01T14:02:57Z</time>
      </trkpt>
      <trkpt lat="48.96773" lon="2.82124">
        <ele>95.2</ele>
        <time>2020-07-01T14:02:58Z</time>
      </trkpt>
      <trkpt lat="48.96771" lon="2.82118">
        <ele>95.2</ele>
        <time>2020-07-01T14:02:59Z</time>
      </trkpt>
      <trkpt lat="48.96768" lon="2.82112">
        <ele>95.2</ele>
        <time>2020-07-01T14:03:00Z</time>
      </trkpt>
      <trkpt lat="48.96766" lon="2.82106">
        <ele>95.2</ele>
        <time>2020-07-01T14:03:01Z</time>
      </trkpt>
      <trkpt lat="48.96763" lon="2.821">
        <ele>95.3</ele>
        <time>2020-07-01T14:03:02Z</time>
      </trkpt>
      <trkpt lat="48.9676" lon="2.82093">
        <ele>95.3</ele>
        <time>2020-07-01T14:03:03Z</time>
      </trkpt>
      <trkpt lat="48.96757" lon="2.82087">
        <ele>95.4</ele>
        <time>2020-07-01T14:03:04Z</time>
      </trkpt>
      <trkpt lat="48.96754" lon="2.82083">
        <ele>95.4</ele>
        <time>2020-07-01T14:03:05Z</time>
      </trkpt>
      <trkpt lat="48.96751" lon="2.82078">
        <ele>95.4</ele>
        <time>2020-07-01T14:03:06Z</time>
      </trkpt>
      <trkpt lat="48.96748" lon="2.82072">
        <ele>95.5</ele>
        <time>2020-07-01T14:03:07Z</time>
      </trkpt>
      <trkpt lat="48.96746" lon="2.82068">
        <ele>95.5</ele>
        <time>2020-07-01T14:03:08Z</time>
      </trkpt>
      <trkpt lat="48.96743" lon="2.82063">
        <ele>95.5</ele>
        <time>2020-07-01T14:03:09Z</time>
      </trkpt>
      <trkpt lat="48.96739" lon="2.82058">
        <ele>95.5</ele>
        <time>2020-07-01T14:03:10Z</time>
      </trkpt>
      <trkpt lat="48.96734" lon="2.82052">
        <ele>95.6</ele>
        <time>2020-07-01T14:03:11Z</time>
      </trkpt>
      <trkpt lat="48.96731" lon="2.82047">
        <ele>95.6</ele>
        <time>2020-07-01T14:03:12Z</time>
      </trkpt>
      <trkpt lat="48.96728" lon="2.82043">
        <ele>95.6</ele>
        <time>2020-07-01T14:03:13Z</time>
      </trkpt>
      <trkpt lat="48.96725" lon="2.82038">
        <ele>95.7</ele>
        <time>2020-07-01T14:03:14Z</time>
      </trkpt>
      <trkpt lat="48.96721" lon="2.82033">
        <ele>95.7</ele>
        <time>2020-07-01T14:03:15Z</time>
      </trkpt>
      <trkpt lat="48.96718" lon="2.82029">
        <ele>95.7</ele>
        <time>2020-07-01T14:03:16Z</time>
      </trkpt>
      <trkpt lat="48.96715" lon="2.82025">
        <ele>95.7</ele>
        <time>2020-07-01T14:03:17Z</time>
      </trkpt>
      <trkpt lat="48.96711" lon="2.8202">
        <ele>95.8</ele>
        <time>2020-07-01T14:03:18Z</time>
      </trkpt>
      <trkpt lat="48.96707" lon="2.82017">
        <ele>95.8</ele>
        <time>2020-07-01T14:03:19Z</time>
      </trkpt>
      <trkpt lat="48.96702" lon="2.82012">
        <ele>95.8</ele>
        <time>2020-07-01T14:03:20Z</time>
      </trkpt>
      <trkpt lat="48.96698" lon="2.82007">
        <ele>95.9</ele>
        <time>2020-07-01T14:03:21Z</time>
      </trkpt>
      <trkpt lat="48.96694" lon="2.82002">
        <ele>95.9</ele>
        <time>2020-07-01T14:03:22Z</time>
      </trkpt>
      <trkpt lat="48.9669" lon="2.81998">
        <ele>95.9</ele>
        <time>2020-07-01T14:03:23Z</time>
      </trkpt>
      <trkpt lat="48.96686" lon="2.81994">
        <ele>96</ele>
        <time>2020-07-01T14:03:24Z</time>
      </trkpt>
      <trkpt lat="48.96682" lon="2.81989">
        <ele>96</ele>
        <time>2020-07-01T14:03:25Z</time>
      </trkpt>
      <trkpt lat="48.96679" lon="2.81985">
        <ele>96</ele>
        <time>2020-07-01T14:03:26Z</time>
      </trkpt>
      <trkpt lat="48.96676" lon="2.8198">
        <ele>96</ele>
        <time>2020-07-01T14:03:27Z</time>
      </trkpt>
      <trkpt lat="48.96672" lon="2.81975">
        <ele>96</ele>
        <time>2020-07-01T14:03:28Z</time>
      </trkpt>
      <trkpt lat="48.96668" lon="2.81971">
        <ele>96</ele>
        <time>2020-07-01T14:03:29Z</time>
      </trkpt>
      <trkpt lat="48.96664" lon="2.81965">
        <ele>96.1</ele>
        <time>2020-07-01T14:03:30Z</time>
      </trkpt>
      <trkpt lat="48.9666" lon="2.8196">
        <ele>96.1</ele>
        <time>2020-07-01T14:03:31Z</time>
      </trkpt>
      <trkpt lat="48.96656" lon="2.81956">
        <ele>96.1</ele>
        <time>2020-07-01T14:03:32Z</time>
      </trkpt>
      <trkpt lat="48.96652" lon="2.81951">
        <ele>96.1</ele>
        <time>2020-07-01T14:03:33Z</time>
      </trkpt>
      <trkpt lat="48.96649" lon="2.81946">
        <ele>96.1</ele>
        <time>2020-07-01T14:03:34Z</time>
      </trkpt>
      <trkpt lat="48.96646" lon="2.81941">
        <ele>96.1</ele>
        <time>2020-07-01T14:03:35Z</time>
      </trkpt>
      <trkpt lat="48.96641" lon="2.81936">
        <ele>96.1</ele>
        <time>2020-07-01T14:03:36Z</time>
      </trkpt>
      <trkpt lat="48.96637" lon="2.81931">
        <ele>96.1</ele>
        <time>2020-07-01T14:03:37Z</time>
      </trkpt>
      <trkpt lat="48.96633" lon="2.81926">
        <ele>96.1</ele>
        <time>2020-07-01T14:03:38Z</time>
      </trkpt>
      <trkpt lat="48.96628" lon="2.81919">
        <ele>96.1</ele>
        <time>2020-07-01T14:03:39Z</time>
      </trkpt>
      <trkpt lat="48.96625" lon="2.81915">
        <ele>96.1</ele>
        <time>2020-07-01T14:03:40Z</time>
      </trkpt>
      <trkpt lat="48.9662" lon="2.8191">
        <ele>96.1</ele>
        <time>2020-07-01T14:03:41Z</time>
      </trkpt>
      <trkpt lat="48.96616" lon="2.81905">
        <ele>96.1</ele>
        <time>2020-07-01T14:03:42Z</time>
      </trkpt>
      <trkpt lat="48.96612" lon="2.81901">
        <ele>96.1</ele>
        <time>2020-07-01T14:03:43Z</time>
      </trkpt>
      <trkpt lat="48.96608" lon="2.81896">
        <ele>96.1</ele>
        <time>2020-07-01T14:03:44Z</time>
      </trkpt>
      <trkpt lat="48.96604" lon="2.81891">
        <ele>96.1</ele>
        <time>2020-07-01T14:03:45Z</time>
      </trkpt>
      <trkpt lat="48.96599" lon="2.81886">
        <ele>96.2</ele>
        <time>2020-07-01T14:03:46Z</time>
      </trkpt>
      <trkpt lat="48.96596" lon="2.81881">
        <ele>96.1</ele>
        <time>2020-07-01T14:03:47Z</time>
      </trkpt>
      <trkpt lat="48.96592" lon="2.81876">
        <ele>96</ele>
        <time>2020-07-01T14:03:48Z</time>
      </trkpt>
      <trkpt lat="48.96588" lon="2.81871">
        <ele>95.8</ele>
        <time>2020-07-01T14:03:49Z</time>
      </trkpt>
      <trkpt lat="48.96585" lon="2.81866">
        <ele>95.4</ele>
        <time>2020-07-01T14:03:50Z</time>
      </trkpt>
      <trkpt lat="48.96581" lon="2.81861">
        <ele>94.9</ele>
        <time>2020-07-01T14:03:51Z</time>
      </trkpt>
      <trkpt lat="48.96578" lon="2.81855">
        <ele>94.8</ele>
        <time>2020-07-01T14:03:52Z</time>
      </trkpt>
      <trkpt lat="48.96574" lon="2.8185">
        <ele>94.7</ele>
        <time>2020-07-01T14:03:53Z</time>
      </trkpt>
      <trkpt lat="48.9657" lon="2.81844">
        <ele>94.6</ele>
        <time>2020-07-01T14:03:54Z</time>
      </trkpt>
      <trkpt lat="48.96566" lon="2.8184">
        <ele>94.5</ele>
        <time>2020-07-01T14:03:55Z</time>
      </trkpt>
      <trkpt lat="48.96562" lon="2.81834">
        <ele>94.4</ele>
        <time>2020-07-01T14:03:56Z</time>
      </trkpt>
      <trkpt lat="48.96558" lon="2.81829">
        <ele>94.3</ele>
        <time>2020-07-01T14:03:57Z</time>
      </trkpt>
      <trkpt lat="48.96554" lon="2.81824">
        <ele>94.3</ele>
        <time>2020-07-01T14:03:58Z</time>
      </trkpt>
      <trkpt lat="48.9655" lon="2.81819">
        <ele>94.2</ele>
        <time>2020-07-01T14:03:59Z</time>
      </trkpt>
      <trkpt lat="48.96545" lon="2.81813">
        <ele>94.1</ele>
        <time>2020-07-01T14:04:00Z</time>
      </trkpt>
      <trkpt lat="48.96541" lon="2.81807">
        <ele>94</ele>
        <time>2020-07-01T14:04:01Z</time>
      </trkpt>
      <trkpt lat="48.96536" lon="2.81802">
        <ele>93.9</ele>
        <time>2020-07-01T14:04:02Z</time>
      </trkpt>
      <trkpt lat="48.96532" lon="2.81796">
        <ele>93.8</ele>
        <time>2020-07-01T14:04:03Z</time>
      </trkpt>
      <trkpt lat="48.96528" lon="2.81791">
        <ele>93.7</ele>
        <time>2020-07-01T14:04:04Z</time>
      </trkpt>
      <trkpt lat="48.96524" lon="2.81786">
        <ele>93.6</ele>
        <time>2020-07-01T14:04:05Z</time>
      </trkpt>
      <trkpt lat="48.9652" lon="2.81781">
        <ele>93.6</ele>
        <time>2020-07-01T14:04:06Z</time>
      </trkpt>
      <trkpt lat="48.96516" lon="2.81775">
        <ele>93.5</ele>
        <time>2020-07-01T14:04:07Z</time>
      </trkpt>
      <trkpt lat="48.96512" lon="2.8177">
        <ele>93.4</ele>
        <time>2020-07-01T14:04:08Z</time>
      </trkpt>
      <trkpt lat="48.96507" lon="2.81764">
        <ele>93.3</ele>
        <time>2020-07-01T14:04:09Z</time>
      </trkpt>
      <trkpt lat="48.96502" lon="2.81759">
        <ele>93.2</ele>
        <time>2020-07-01T14:04:10Z</time>
      </trkpt>
      <trkpt lat="48.96498" lon="2.81754">
        <ele>93.2</ele>
        <time>2020-07-01T14:04:11Z</time>
      </trkpt>
      <trkpt lat="48.96494" lon="2.81749">
        <ele>93.1</ele>
        <time>2020-07-01T14:04:12Z</time>
      </trkpt>
      <trkpt lat="48.96489" lon="2.81743">
        <ele>93.1</ele>
        <time>2020-07-01T14:04:13Z</time>
      </trkpt>
      <trkpt lat="48.96485" lon="2.81737">
        <ele>93</ele>
        <time>2020-07-01T14:04:14Z</time>
      </trkpt>
      <trkpt lat="48.96481" lon="2.81732">
        <ele>93</ele>
        <time>2020-07-01T14:04:15Z</time>
      </trkpt>
      <trkpt lat="48.96478" lon="2.81727">
        <ele>93</ele>
        <time>2020-07-01T14:04:16Z</time>
      </trkpt>
      <trkpt lat="48.96475" lon="2.81722">
        <ele>93</ele>
        <time>2020-07-01T14:04:17Z</time>
      </trkpt>
      <trkpt lat="48.96471" lon="2.81716">
        <ele>92.9</ele>
        <time>2020-07-01T14:04:18Z</time>
      </trkpt>
      <trkpt lat="48.96467" lon="2.8171">
        <ele>92.9</ele>
        <time>2020-07-01T14:04:19Z</time>
      </trkpt>
      <trkpt lat="48.96462" lon="2.81706">
        <ele>92.8</ele>
        <time>2020-07-01T14:04:20Z</time>
      </trkpt>
      <trkpt lat="48.96458" lon="2.817">
        <ele>92.7</ele>
        <time>2020-07-01T14:04:21Z</time>
      </trkpt>
      <trkpt lat="48.96454" lon="2.81695">
        <ele>92.7</ele>
        <time>2020-07-01T14:04:22Z</time>
      </trkpt>
      <trkpt lat="48.9645" lon="2.8169">
        <ele>92.6</ele>
        <time>2020-07-01T14:04:23Z</time>
      </trkpt>
      <trkpt lat="48.96446" lon="2.81684">
        <ele>92.6</ele>
        <time>2020-07-01T14:04:24Z</time>
      </trkpt>
      <trkpt lat="48.96441" lon="2.81678">
        <ele>92.5</ele>
        <time>2020-07-01T14:04:25Z</time>
      </trkpt>
      <trkpt lat="48.96436" lon="2.81672">
        <ele>92.5</ele>
        <time>2020-07-01T14:04:26Z</time>
      </trkpt>
      <trkpt lat="48.96431" lon="2.81666">
        <ele>92.5</ele>
        <time>2020-07-01T14:04:27Z</time>
      </trkpt>
      <trkpt lat="48.96427" lon="2.8166">
        <ele>92.4</ele>
        <time>2020-07-01T14:04:28Z</time>
      </trkpt>
      <trkpt lat="48.96423" lon="2.81655">
        <ele>92.4</ele>
        <time>2020-07-01T14:04:29Z</time>
      </trkpt>
      <trkpt lat="48.96419" lon="2.8165">
        <ele>92.4</ele>
        <time>2020-07-01T14:04:30Z</time>
      </trkpt>
      <trkpt lat="48.96416" lon="2.81646">
        <ele>92.3</ele>
        <time>2020-07-01T14:04:31Z</time>
      </trkpt>
      <trkpt lat="48.96413" lon="2.81643">
        <ele>92.3</ele>
        <time>2020-07-01T14:04:32Z</time>
      </trkpt>
      <trkpt lat="48.96409" lon="2.8164">
        <ele>92.3</ele>
        <time>2020-07-01T14:04:33Z</time>
      </trkpt>
      <trkpt lat="48.96406" lon="2.81637">
        <ele>92.3</ele>
        <time>2020-07-01T14:04:34Z</time>
      </trkpt>
      <trkpt lat="48.96402" lon="2.81632">
        <ele>92.2</ele>
        <time>2020-07-01T14:04:35Z</time>
      </trkpt>
      <trkpt lat="48.96399" lon="2.81627">
        <ele>92.2</ele>
        <time>2020-07-01T14:04:36Z</time>
      </trkpt>
      <trkpt lat="48.96395" lon="2.81622">
        <ele>92.1</ele>
        <time>2020-07-01T14:04:37Z</time>
      </trkpt>
      <trkpt lat="48.9639" lon="2.81616">
        <ele>92</ele>
        <time>2020-07-01T14:04:38Z</time>
      </trkpt>
      <trkpt lat="48.96385" lon="2.81611">
        <ele>91.9</ele>
        <time>2020-07-01T14:04:39Z</time>
      </trkpt>
      <trkpt lat="48.9638" lon="2.81605">
        <ele>91.9</ele>
        <time>2020-07-01T14:04:40Z</time>
      </trkpt>
      <trkpt lat="48.96376" lon="2.816">
        <ele>91.8</ele>
        <time>2020-07-01T14:04:41Z</time>
      </trkpt>
      <trkpt lat="48.96371" lon="2.81595">
        <ele>91.8</ele>
        <time>2020-07-01T14:04:42Z</time>
      </trkpt>
      <trkpt lat="48.96366" lon="2.81592">
        <ele>91.7</ele>
        <time>2020-07-01T14:04:43Z</time>
      </trkpt>
      <trkpt lat="48.96362" lon="2.81589">
        <ele>91.7</ele>
        <time>2020-07-01T14:04:44Z</time>
      </trkpt>
      <trkpt lat="48.96358" lon="2.81586">
        <ele>91.6</ele>
        <time>2020-07-01T14:04:45Z</time>
      </trkpt>
      <trkpt lat="48.96352" lon="2.81581">
        <ele>91.4</ele>
        <time>2020-07-01T14:04:46Z</time>
      </trkpt>
      <trkpt lat="48.96348" lon="2.81578">
        <ele>91.3</ele>
        <time>2020-07-01T14:04:47Z</time>
      </trkpt>
      <trkpt lat="48.96344" lon="2.81576">
        <ele>91.2</ele>
        <time>2020-07-01T14:04:48Z</time>
      </trkpt>
      <trkpt lat="48.9634" lon="2.81573">
        <ele>91.1</ele>
        <time>2020-07-01T14:04:49Z</time>
      </trkpt>
      <trkpt lat="48.96335" lon="2.81572">
        <ele>91</ele>
        <time>2020-07-01T14:04:50Z</time>
      </trkpt>
      <trkpt lat="48.96331" lon="2.81569">
        <ele>91</ele>
        <time>2020-07-01T14:04:51Z</time>
      </trkpt>
      <trkpt lat="48.96327" lon="2.81568">
        <ele>90.9</ele>
        <time>2020-07-01T14:04:52Z</time>
      </trkpt>
      <trkpt lat="48.96321" lon="2.81566">
        <ele>90.8</ele>
        <time>2020-07-01T14:04:53Z</time>
      </trkpt>
      <trkpt lat="48.96317" lon="2.81565">
        <ele>90.7</ele>
        <time>2020-07-01T14:04:54Z</time>
      </trkpt>
      <trkpt lat="48.96313" lon="2.81563">
        <ele>90.6</ele>
        <time>2020-07-01T14:04:55Z</time>
      </trkpt>
      <trkpt lat="48.96309" lon="2.81561">
        <ele>90.6</ele>
        <time>2020-07-01T14:04:56Z</time>
      </trkpt>
      <trkpt lat="48.96304" lon="2.81558">
        <ele>90.5</ele>
        <time>2020-07-01T14:04:57Z</time>
      </trkpt>
      <trkpt lat="48.963" lon="2.81556">
        <ele>90.4</ele>
        <time>2020-07-01T14:04:58Z</time>
      </trkpt>
      <trkpt lat="48.96296" lon="2.81554">
        <ele>90.3</ele>
        <time>2020-07-01T14:04:59Z</time>
      </trkpt>
      <trkpt lat="48.96293" lon="2.81551">
        <ele>90.3</ele>
        <time>2020-07-01T14:05:00Z</time>
      </trkpt>
      <trkpt lat="48.96288" lon="2.81549">
        <ele>90.2</ele>
        <time>2020-07-01T14:05:01Z</time>
      </trkpt>
      <trkpt lat="48.96283" lon="2.81547">
        <ele>90.1</ele>
        <time>2020-07-01T14:05:02Z</time>
      </trkpt>
      <trkpt lat="48.96279" lon="2.81545">
        <ele>90</ele>
        <time>2020-07-01T14:05:03Z</time>
      </trkpt>
      <trkpt lat="48.96275" lon="2.81542">
        <ele>89.8</ele>
        <time>2020-07-01T14:05:04Z</time>
      </trkpt>
      <trkpt lat="48.9627" lon="2.8154">
        <ele>89.7</ele>
        <time>2020-07-01T14:05:05Z</time>
      </trkpt>
      <trkpt lat="48.96265" lon="2.81538">
        <ele>89.5</ele>
        <time>2020-07-01T14:05:06Z</time>
      </trkpt>
      <trkpt lat="48.96261" lon="2.81536">
        <ele>89.4</ele>
        <time>2020-07-01T14:05:07Z</time>
      </trkpt>
      <trkpt lat="48.96257" lon="2.81534">
        <ele>89.2</ele>
        <time>2020-07-01T14:05:08Z</time>
      </trkpt>
      <trkpt lat="48.96251" lon="2.81532">
        <ele>89</ele>
        <time>2020-07-01T14:05:09Z</time>
      </trkpt>
      <trkpt lat="48.96246" lon="2.81529">
        <ele>88.8</ele>
        <time>2020-07-01T14:05:10Z</time>
      </trkpt>
      <trkpt lat="48.96241" lon="2.81526">
        <ele>88.7</ele>
        <time>2020-07-01T14:05:11Z</time>
      </trkpt>
      <trkpt lat="48.96236" lon="2.81524">
        <ele>88.5</ele>
        <time>2020-07-01T14:05:12Z</time>
      </trkpt>
      <trkpt lat="48.96231" lon="2.81521">
        <ele>88.4</ele>
        <time>2020-07-01T14:05:13Z</time>
      </trkpt>
      <trkpt lat="48.96226" lon="2.81519">
        <ele>88.3</ele>
        <time>2020-07-01T14:05:14Z</time>
      </trkpt>
      <trkpt lat="48.9622" lon="2.81517">
        <ele>88.2</ele>
        <time>2020-07-01T14:05:15Z</time>
      </trkpt>
      <trkpt lat="48.96215" lon="2.81515">
        <ele>88</ele>
        <time>2020-07-01T14:05:16Z</time>
      </trkpt>
      <trkpt lat="48.9621" lon="2.81512">
        <ele>87.9</ele>
        <time>2020-07-01T14:05:17Z</time>
      </trkpt>
      <trkpt lat="48.96205" lon="2.8151">
        <ele>87.7</ele>
        <time>2020-07-01T14:05:18Z</time>
      </trkpt>
      <trkpt lat="48.962" lon="2.81508">
        <ele>87.6</ele>
        <time>2020-07-01T14:05:19Z</time>
      </trkpt>
      <trkpt lat="48.96195" lon="2.81506">
        <ele>87.5</ele>
        <time>2020-07-01T14:05:20Z</time>
      </trkpt>
      <trkpt lat="48.9619" lon="2.81504">
        <ele>87.3</ele>
        <time>2020-07-01T14:05:21Z</time>
      </trkpt>
      <trkpt lat="48.96185" lon="2.81502">
        <ele>87.2</ele>
        <time>2020-07-01T14:05:22Z</time>
      </trkpt>
      <trkpt lat="48.96181" lon="2.81499">
        <ele>87.1</ele>
        <time>2020-07-01T14:05:23Z</time>
      </trkpt>
      <trkpt lat="48.96178" lon="2.81496">
        <ele>87</ele>
        <time>2020-07-01T14:05:24Z</time>
      </trkpt>
      <trkpt lat="48.96173" lon="2.81493">
        <ele>86.8</ele>
        <time>2020-07-01T14:05:25Z</time>
      </trkpt>
      <trkpt lat="48.96168" lon="2.81488">
        <ele>86.6</ele>
        <time>2020-07-01T14:05:26Z</time>
      </trkpt>
      <trkpt lat="48.96164" lon="2.81486">
        <ele>86.5</ele>
        <time>2020-07-01T14:05:27Z</time>
      </trkpt>
      <trkpt lat="48.96159" lon="2.81482">
        <ele>86.3</ele>
        <time>2020-07-01T14:05:28Z</time>
      </trkpt>
      <trkpt lat="48.96154" lon="2.81479">
        <ele>86.1</ele>
        <time>2020-07-01T14:05:29Z</time>
      </trkpt>
      <trkpt lat="48.96149" lon="2.81475">
        <ele>86</ele>
        <time>2020-07-01T14:05:30Z</time>
      </trkpt>
      <trkpt lat="48.96145" lon="2.81473">
        <ele>85.8</ele>
        <time>2020-07-01T14:05:31Z</time>
      </trkpt>
      <trkpt lat="48.96141" lon="2.81471">
        <ele>85.7</ele>
        <time>2020-07-01T14:05:32Z</time>
      </trkpt>
      <trkpt lat="48.96134" lon="2.81468">
        <ele>85.5</ele>
        <time>2020-07-01T14:05:33Z</time>
      </trkpt>
      <trkpt lat="48.96129" lon="2.81466">
        <ele>85.4</ele>
        <time>2020-07-01T14:05:34Z</time>
      </trkpt>
      <trkpt lat="48.96123" lon="2.81463">
        <ele>85.3</ele>
        <time>2020-07-01T14:05:35Z</time>
      </trkpt>
      <trkpt lat="48.96119" lon="2.8146">
        <ele>85.2</ele>
        <time>2020-07-01T14:05:36Z</time>
      </trkpt>
      <trkpt lat="48.96115" lon="2.81458">
        <ele>85.1</ele>
        <time>2020-07-01T14:05:37Z</time>
      </trkpt>
      <trkpt lat="48.9611" lon="2.81456">
        <ele>85</ele>
        <time>2020-07-01T14:05:38Z</time>
      </trkpt>
      <trkpt lat="48.96105" lon="2.81455">
        <ele>84.9</ele>
        <time>2020-07-01T14:05:39Z</time>
      </trkpt>
      <trkpt lat="48.96102" lon="2.81452">
        <ele>84.8</ele>
        <time>2020-07-01T14:05:40Z</time>
      </trkpt>
      <trkpt lat="48.96097" lon="2.8145">
        <ele>84.7</ele>
        <time>2020-07-01T14:05:41Z</time>
      </trkpt>
      <trkpt lat="48.96093" lon="2.81448">
        <ele>84.6</ele>
        <time>2020-07-01T14:05:42Z</time>
      </trkpt>
      <trkpt lat="48.96087" lon="2.81446">
        <ele>84.5</ele>
        <time>2020-07-01T14:05:43Z</time>
      </trkpt>
      <trkpt lat="48.96083" lon="2.81443">
        <ele>84.4</ele>
        <time>2020-07-01T14:05:44Z</time>
      </trkpt>
      <trkpt lat="48.96078" lon="2.81441">
        <ele>84.4</ele>
        <time>2020-07-01T14:05:45Z</time>
      </trkpt>
      <trkpt lat="48.96074" lon="2.81439">
        <ele>84.3</ele>
        <time>2020-07-01T14:05:46Z</time>
      </trkpt>
      <trkpt lat="48.96069" lon="2.81436">
        <ele>84.2</ele>
        <time>2020-07-01T14:05:47Z</time>
      </trkpt>
      <trkpt lat="48.96064" lon="2.81433">
        <ele>84.2</ele>
        <time>2020-07-01T14:05:48Z</time>
      </trkpt>
      <trkpt lat="48.96059" lon="2.8143">
        <ele>84.1</ele>
        <time>2020-07-01T14:05:49Z</time>
      </trkpt>
      <trkpt lat="48.96054" lon="2.81427">
        <ele>84.1</ele>
        <time>2020-07-01T14:05:50Z</time>
      </trkpt>
      <trkpt lat="48.9605" lon="2.81425">
        <ele>84</ele>
        <time>2020-07-01T14:05:51Z</time>
      </trkpt>
      <trkpt lat="48.96046" lon="2.81423">
        <ele>84</ele>
        <time>2020-07-01T14:05:52Z</time>
      </trkpt>
      <trkpt lat="48.96043" lon="2.81421">
        <ele>83.9</ele>
        <time>2020-07-01T14:05:53Z</time>
      </trkpt>
      <trkpt lat="48.96038" lon="2.81419">
        <ele>83.9</ele>
        <time>2020-07-01T14:05:54Z</time>
      </trkpt>
      <trkpt lat="48.96035" lon="2.81417">
        <ele>83.8</ele>
        <time>2020-07-01T14:05:55Z</time>
      </trkpt>
      <trkpt lat="48.96031" lon="2.81415">
        <ele>83.8</ele>
        <time>2020-07-01T14:05:56Z</time>
      </trkpt>
      <trkpt lat="48.96028" lon="2.81413">
        <ele>83.8</ele>
        <time>2020-07-01T14:05:57Z</time>
      </trkpt>
      <trkpt lat="48.96025" lon="2.81411">
        <ele>83.7</ele>
        <time>2020-07-01T14:05:58Z</time>
      </trkpt>
      <trkpt lat="48.96021" lon="2.8141">
        <ele>83.7</ele>
        <time>2020-07-01T14:05:59Z</time>
      </trkpt>
      <trkpt lat="48.96018" lon="2.81407">
        <ele>83.7</ele>
        <time>2020-07-01T14:06:00Z</time>
      </trkpt>
      <trkpt lat="48.96014" lon="2.81404">
        <ele>83.6</ele>
        <time>2020-07-01T14:06:01Z</time>
      </trkpt>
      <trkpt lat="48.9601" lon="2.81401">
        <ele>83.6</ele>
        <time>2020-07-01T14:06:02Z</time>
      </trkpt>
      <trkpt lat="48.96006" lon="2.81398">
        <ele>83.6</ele>
        <time>2020-07-01T14:06:03Z</time>
      </trkpt>
      <trkpt lat="48.96002" lon="2.81395">
        <ele>83.5</ele>
        <time>2020-07-01T14:06:04Z</time>
      </trkpt>
      <trkpt lat="48.95998" lon="2.81392">
        <ele>83.5</ele>
        <time>2020-07-01T14:06:05Z</time>
      </trkpt>
      <trkpt lat="48.95995" lon="2.8139">
        <ele>83.5</ele>
        <time>2020-07-01T14:06:06Z</time>
      </trkpt>
      <trkpt lat="48.95992" lon="2.81389">
        <ele>83.5</ele>
        <time>2020-07-01T14:06:07Z</time>
      </trkpt>
      <trkpt lat="48.95987" lon="2.81387">
        <ele>83.5</ele>
        <time>2020-07-01T14:06:08Z</time>
      </trkpt>
      <trkpt lat="48.95983" lon="2.81387">
        <ele>83.4</ele>
        <time>2020-07-01T14:06:09Z</time>
      </trkpt>
      <trkpt lat="48.9598" lon="2.81386">
        <ele>83.4</ele>
        <time>2020-07-01T14:06:10Z</time>
      </trkpt>
      <trkpt lat="48.95976" lon="2.81385">
        <ele>83.3</ele>
        <time>2020-07-01T14:06:11Z</time>
      </trkpt>
      <trkpt lat="48.95973" lon="2.81384">
        <ele>83.3</ele>
        <time>2020-07-01T14:06:12Z</time>
      </trkpt>
      <trkpt lat="48.9597" lon="2.81381">
        <ele>83.3</ele>
        <time>2020-07-01T14:06:13Z</time>
      </trkpt>
      <trkpt lat="48.95966" lon="2.81378">
        <ele>83.2</ele>
        <time>2020-07-01T14:06:14Z</time>
      </trkpt>
      <trkpt lat="48.95962" lon="2.81376">
        <ele>83.2</ele>
        <time>2020-07-01T14:06:15Z</time>
      </trkpt>
      <trkpt lat="48.95958" lon="2.81373">
        <ele>83.1</ele>
        <time>2020-07-01T14:06:16Z</time>
      </trkpt>
      <trkpt lat="48.95954" lon="2.8137">
        <ele>83</ele>
        <time>2020-07-01T14:06:17Z</time>
      </trkpt>
      <trkpt lat="48.9595" lon="2.81367">
        <ele>83</ele>
        <time>2020-07-01T14:06:18Z</time>
      </trkpt>
      <trkpt lat="48.95946" lon="2.81365">
        <ele>82.9</ele>
        <time>2020-07-01T14:06:19Z</time>
      </trkpt>
      <trkpt lat="48.95941" lon="2.81363">
        <ele>82.9</ele>
        <time>2020-07-01T14:06:20Z</time>
      </trkpt>
      <trkpt lat="48.95935" lon="2.8136">
        <ele>82.8</ele>
        <time>2020-07-01T14:06:21Z</time>
      </trkpt>
      <trkpt lat="48.95931" lon="2.81358">
        <ele>82.8</ele>
        <time>2020-07-01T14:06:22Z</time>
      </trkpt>
      <trkpt lat="48.95927" lon="2.81356">
        <ele>82.8</ele>
        <time>2020-07-01T14:06:23Z</time>
      </trkpt>
      <trkpt lat="48.95923" lon="2.81353">
        <ele>82.7</ele>
        <time>2020-07-01T14:06:24Z</time>
      </trkpt>
      <trkpt lat="48.95919" lon="2.81351">
        <ele>82.7</ele>
        <time>2020-07-01T14:06:25Z</time>
      </trkpt>
      <trkpt lat="48.95914" lon="2.81349">
        <ele>82.7</ele>
        <time>2020-07-01T14:06:26Z</time>
      </trkpt>
      <trkpt lat="48.95909" lon="2.81348">
        <ele>82.7</ele>
        <time>2020-07-01T14:06:27Z</time>
      </trkpt>
      <trkpt lat="48.95905" lon="2.81346">
        <ele>82.7</ele>
        <time>2020-07-01T14:06:28Z</time>
      </trkpt>
      <trkpt lat="48.95901" lon="2.81344">
        <ele>82.7</ele>
        <time>2020-07-01T14:06:29Z</time>
      </trkpt>
      <trkpt lat="48.95896" lon="2.81341">
        <ele>82.6</ele>
        <time>2020-07-01T14:06:30Z</time>
      </trkpt>
      <trkpt lat="48.9589" lon="2.81338">
        <ele>82.6</ele>
        <time>2020-07-01T14:06:31Z</time>
      </trkpt>
      <trkpt lat="48.95886" lon="2.81336">
        <ele>82.6</ele>
        <time>2020-07-01T14:06:32Z</time>
      </trkpt>
      <trkpt lat="48.95881" lon="2.81333">
        <ele>82.6</ele>
        <time>2020-07-01T14:06:33Z</time>
      </trkpt>
      <trkpt lat="48.95876" lon="2.8133">
        <ele>82.6</ele>
        <time>2020-07-01T14:06:34Z</time>
      </trkpt>
      <trkpt lat="48.95872" lon="2.81327">
        <ele>82.7</ele>
        <time>2020-07-01T14:06:35Z</time>
      </trkpt>
      <trkpt lat="48.95868" lon="2.81324">
        <ele>82.7</ele>
        <time>2020-07-01T14:06:36Z</time>
      </trkpt>
      <trkpt lat="48.95864" lon="2.81321">
        <ele>82.8</ele>
        <time>2020-07-01T14:06:37Z</time>
      </trkpt>
      <trkpt lat="48.9586" lon="2.81318">
        <ele>82.9</ele>
        <time>2020-07-01T14:06:38Z</time>
      </trkpt>
      <trkpt lat="48.95856" lon="2.81316">
        <ele>83</ele>
        <time>2020-07-01T14:06:39Z</time>
      </trkpt>
      <trkpt lat="48.95852" lon="2.81313">
        <ele>83.1</ele>
        <time>2020-07-01T14:06:40Z</time>
      </trkpt>
      <trkpt lat="48.95849" lon="2.8131">
        <ele>83.2</ele>
        <time>2020-07-01T14:06:41Z</time>
      </trkpt>
      <trkpt lat="48.95846" lon="2.81311">
        <ele>83.3</ele>
        <time>2020-07-01T14:06:42Z</time>
      </trkpt>
      <trkpt lat="48.95843" lon="2.81309">
        <ele>83.4</ele>
        <time>2020-07-01T14:06:43Z</time>
      </trkpt>
      <trkpt lat="48.9584" lon="2.81308">
        <ele>83.4</ele>
        <time>2020-07-01T14:06:44Z</time>
      </trkpt>
      <trkpt lat="48.95837" lon="2.81306">
        <ele>83.5</ele>
        <time>2020-07-01T14:06:45Z</time>
      </trkpt>
      <trkpt lat="48.95836" lon="2.81305">
        <ele>83.5</ele>
        <time>2020-07-01T14:06:46Z</time>
      </trkpt>
      <trkpt lat="48.95835" lon="2.81303">
        <ele>83.5</ele>
        <time>2020-07-01T14:06:47Z</time>
      </trkpt>
      <trkpt lat="48.95834" lon="2.81302">
        <ele>83.5</ele>
        <time>2020-07-01T14:06:48Z</time>
      </trkpt>
      <trkpt lat="48.95834" lon="2.813">
        <ele>83.5</ele>
        <time>2020-07-01T14:06:49Z</time>
      </trkpt>
      <trkpt lat="48.95834" lon="2.81298">
        <ele>83.4</ele>
        <time>2020-07-01T14:06:50Z</time>
      </trkpt>
      <trkpt lat="48.95834" lon="2.81296">
        <ele>83.3</ele>
        <time>2020-07-01T14:06:51Z</time>
      </trkpt>
      <trkpt lat="48.95834" lon="2.81294">
        <ele>83.3</ele>
        <time>2020-07-01T14:06:52Z</time>
      </trkpt>
      <trkpt lat="48.95834" lon="2.81291">
        <ele>83.2</ele>
        <time>2020-07-01T14:06:53Z</time>
      </trkpt>
      <trkpt lat="48.95833" lon="2.81286">
        <ele>83.1</ele>
        <time>2020-07-01T14:06:54Z</time>
      </trkpt>
      <trkpt lat="48.95833" lon="2.81285">
        <ele>83.1</ele>
        <time>2020-07-01T14:06:55Z</time>
      </trkpt>
      <trkpt lat="48.95833" lon="2.81281">
        <ele>83</ele>
        <time>2020-07-01T14:06:56Z</time>
      </trkpt>
      <trkpt lat="48.95833" lon="2.8128">
        <ele>83</ele>
        <time>2020-07-01T14:06:57Z</time>
      </trkpt>
      <trkpt lat="48.95833" lon="2.81279">
        <ele>82.9</ele>
        <time>2020-07-01T14:06:58Z</time>
      </trkpt>
      <trkpt lat="48.95833" lon="2.81278">
        <ele>82.9</ele>
        <time>2020-07-01T14:06:59Z</time>
      </trkpt>
      <trkpt lat="48.95833" lon="2.81278">
        <ele>82.9</ele>
        <time>2020-07-01T14:07:00Z</time>
      </trkpt>
      <trkpt lat="48.95833" lon="2.81277">
        <ele>82.9</ele>
        <time>2020-07-01T14:07:01Z</time>
      </trkpt>
      <trkpt lat="48.95833" lon="2.81276">
        <ele>82.8</ele>
        <time>2020-07-01T14:07:02Z</time>
      </trkpt>
      <trkpt lat="48.95834" lon="2.81275">
        <ele>82.8</ele>
        <time>2020-07-01T14:07:03Z</time>
      </trkpt>
      <trkpt lat="48.95834" lon="2.81274">
        <ele>82.8</ele>
        <time>2020-07-01T14:07:04Z</time>
      </trkpt>
      <trkpt lat="48.95834" lon="2.81273">
        <ele>82.8</ele>
        <time>2020-07-01T14:07:05Z</time>
      </trkpt>
      <trkpt lat="48.95834" lon="2.81272">
        <ele>82.7</ele>
        <time>2020-07-01T14:07:06Z</time>
      </trkpt>
      <trkpt lat="48.95834" lon="2.81271">
        <ele>82.7</ele>
        <time>2020-07-01T14:07:07Z</time>
      </trkpt>
      <trkpt lat="48.95834" lon="2.8127">
        <ele>82.7</ele>
        <time>2020-07-01T14:07:08Z</time>
      </trkpt>
      <trkpt lat="48.95834" lon="2.81269">
        <ele>82.7</ele>
        <time>2020-07-01T14:07:09Z</time>
      </trkpt>
      <trkpt lat="48.95834" lon="2.81268">
        <ele>82.7</ele>
        <time>2020-07-01T14:07:10Z</time>
      </trkpt>
      <trkpt lat="48.95834" lon="2.81267">
        <ele>82.6</ele>
        <time>2020-07-01T14:07:11Z</time>
      </trkpt>
      <trkpt lat="48.95834" lon="2.81266">
        <ele>82.6</ele>
        <time>2020-07-01T14:07:12Z</time>
      </trkpt>
      <trkpt lat="48.95834" lon="2.81265">
        <ele>82.6</ele>
        <time>2020-07-01T14:07:13Z</time>
      </trkpt>
      <trkpt lat="48.95834" lon="2.81264">
        <ele>82.6</ele>
        <time>2020-07-01T14:07:14Z</time>
      </trkpt>
      <trkpt lat="48.95834" lon="2.81263">
        <ele>82.5</ele>
        <time>2020-07-01T14:07:15Z</time>
      </trkpt>
      <trkpt lat="48.95834" lon="2.81263">
        <ele>82.5</ele>
        <time>2020-07-01T14:07:16Z</time>
      </trkpt>
      <trkpt lat="48.95834" lon="2.81262">
        <ele>82.5</ele>
        <time>2020-07-01T14:09:58Z</time>
      </trkpt>
      <trkpt lat="48.95834" lon="2.81261">
        <ele>82.5</ele>
        <time>2020-07-01T14:09:59Z</time>
      </trkpt>
      <trkpt lat="48.95834" lon="2.81254">
        <ele>82.4</ele>
        <time>2020-07-01T14:10:00Z</time>
      </trkpt>
      <trkpt lat="48.95834" lon="2.81247">
        <ele>82.2</ele>
        <time>2020-07-01T14:10:01Z</time>
      </trkpt>
      <trkpt lat="48.95834" lon="2.81241">
        <ele>82.1</ele>
        <time>2020-07-01T14:10:02Z</time>
      </trkpt>
      <trkpt lat="48.95834" lon="2.81234">
        <ele>82</ele>
        <time>2020-07-01T14:10:03Z</time>
      </trkpt>
      <trkpt lat="48.95834" lon="2.81226">
        <ele>82</ele>
        <time>2020-07-01T14:10:04Z</time>
      </trkpt>
      <trkpt lat="48.95834" lon="2.81219">
        <ele>81.9</ele>
        <time>2020-07-01T14:10:05Z</time>
      </trkpt>
      <trkpt lat="48.95834" lon="2.8121">
        <ele>81.9</ele>
        <time>2020-07-01T14:10:06Z</time>
      </trkpt>
      <trkpt lat="48.95834" lon="2.81202">
        <ele>81.9</ele>
        <time>2020-07-01T14:10:07Z</time>
      </trkpt>
      <trkpt lat="48.95834" lon="2.81193">
        <ele>81.8</ele>
        <time>2020-07-01T14:10:08Z</time>
      </trkpt>
      <trkpt lat="48.95833" lon="2.81186">
        <ele>81.8</ele>
        <time>2020-07-01T14:10:09Z</time>
      </trkpt>
      <trkpt lat="48.95833" lon="2.81178">
        <ele>81.8</ele>
        <time>2020-07-01T14:10:10Z</time>
      </trkpt>
      <trkpt lat="48.95833" lon="2.8117">
        <ele>81.8</ele>
        <time>2020-07-01T14:10:11Z</time>
      </trkpt>
      <trkpt lat="48.95832" lon="2.81161">
        <ele>81.7</ele>
        <time>2020-07-01T14:10:12Z</time>
      </trkpt>
      <trkpt lat="48.95831" lon="2.81153">
        <ele>81.7</ele>
        <time>2020-07-01T14:10:13Z</time>
      </trkpt>
      <trkpt lat="48.9583" lon="2.81145">
        <ele>81.7</ele>
        <time>2020-07-01T14:10:14Z</time>
      </trkpt>
      <trkpt lat="48.9583" lon="2.81137">
        <ele>81.7</ele>
        <time>2020-07-01T14:10:15Z</time>
      </trkpt>
      <trkpt lat="48.95829" lon="2.81128">
        <ele>81.7</ele>
        <time>2020-07-01T14:10:16Z</time>
      </trkpt>
      <trkpt lat="48.95828" lon="2.81121">
        <ele>81.7</ele>
        <time>2020-07-01T14:10:17Z</time>
      </trkpt>
      <trkpt lat="48.95827" lon="2.81114">
        <ele>81.7</ele>
        <time>2020-07-01T14:10:18Z</time>
      </trkpt>
      <trkpt lat="48.95827" lon="2.81105">
        <ele>81.7</ele>
        <time>2020-07-01T14:10:19Z</time>
      </trkpt>
      <trkpt lat="48.95826" lon="2.81097">
        <ele>81.7</ele>
        <time>2020-07-01T14:10:20Z</time>
      </trkpt>
      <trkpt lat="48.95826" lon="2.81088">
        <ele>81.7</ele>
        <time>2020-07-01T14:10:21Z</time>
      </trkpt>
      <trkpt lat="48.95826" lon="2.8108">
        <ele>81.7</ele>
        <time>2020-07-01T14:10:22Z</time>
      </trkpt>
      <trkpt lat="48.95825" lon="2.81072">
        <ele>81.7</ele>
        <time>2020-07-01T14:10:23Z</time>
      </trkpt>
      <trkpt lat="48.95825" lon="2.81062">
        <ele>81.8</ele>
        <time>2020-07-01T14:10:24Z</time>
      </trkpt>
      <trkpt lat="48.95824" lon="2.81054">
        <ele>81.8</ele>
        <time>2020-07-01T14:10:25Z</time>
      </trkpt>
      <trkpt lat="48.95824" lon="2.81045">
        <ele>81.9</ele>
        <time>2020-07-01T14:10:26Z</time>
      </trkpt>
      <trkpt lat="48.95823" lon="2.81037">
        <ele>81.9</ele>
        <time>2020-07-01T14:10:27Z</time>
      </trkpt>
      <trkpt lat="48.95823" lon="2.81028">
        <ele>82</ele>
        <time>2020-07-01T14:10:28Z</time>
      </trkpt>
      <trkpt lat="48.95822" lon="2.81018">
        <ele>82.1</ele>
        <time>2020-07-01T14:10:29Z</time>
      </trkpt>
      <trkpt lat="48.95822" lon="2.81009">
        <ele>82.1</ele>
        <time>2020-07-01T14:10:30Z</time>
      </trkpt>
      <trkpt lat="48.95821" lon="2.81">
        <ele>82.1</ele>
        <time>2020-07-01T14:10:31Z</time>
      </trkpt>
      <trkpt lat="48.95821" lon="2.80991">
        <ele>82.2</ele>
        <time>2020-07-01T14:10:32Z</time>
      </trkpt>
      <trkpt lat="48.9582" lon="2.80982">
        <ele>82.2</ele>
        <time>2020-07-01T14:10:33Z</time>
      </trkpt>
      <trkpt lat="48.9582" lon="2.80973">
        <ele>82.3</ele>
        <time>2020-07-01T14:10:34Z</time>
      </trkpt>
      <trkpt lat="48.9582" lon="2.80963">
        <ele>82.3</ele>
        <time>2020-07-01T14:10:35Z</time>
      </trkpt>
      <trkpt lat="48.95819" lon="2.80954">
        <ele>82.4</ele>
        <time>2020-07-01T14:10:36Z</time>
      </trkpt>
      <trkpt lat="48.95819" lon="2.80945">
        <ele>82.4</ele>
        <time>2020-07-01T14:10:37Z</time>
      </trkpt>
      <trkpt lat="48.95818" lon="2.80937">
        <ele>82.5</ele>
        <time>2020-07-01T14:10:38Z</time>
      </trkpt>
      <trkpt lat="48.95817" lon="2.80928">
        <ele>82.5</ele>
        <time>2020-07-01T14:10:39Z</time>
      </trkpt>
      <trkpt lat="48.95817" lon="2.80919">
        <ele>82.6</ele>
        <time>2020-07-01T14:10:40Z</time>
      </trkpt>
      <trkpt lat="48.95816" lon="2.80908">
        <ele>82.8</ele>
        <time>2020-07-01T14:10:41Z</time>
      </trkpt>
      <trkpt lat="48.95815" lon="2.80899">
        <ele>83</ele>
        <time>2020-07-01T14:10:42Z</time>
      </trkpt>
      <trkpt lat="48.95815" lon="2.80889">
        <ele>83.3</ele>
        <time>2020-07-01T14:10:43Z</time>
      </trkpt>
      <trkpt lat="48.95814" lon="2.80881">
        <ele>83.5</ele>
        <time>2020-07-01T14:10:44Z</time>
      </trkpt>
      <trkpt lat="48.95814" lon="2.80873">
        <ele>83.9</ele>
        <time>2020-07-01T14:10:45Z</time>
      </trkpt>
      <trkpt lat="48.95813" lon="2.80864">
        <ele>84.3</ele>
        <time>2020-07-01T14:10:46Z</time>
      </trkpt>
      <trkpt lat="48.95813" lon="2.80855">
        <ele>84.6</ele>
        <time>2020-07-01T14:10:47Z</time>
      </trkpt>
      <trkpt lat="48.95812" lon="2.80845">
        <ele>84.8</ele>
        <time>2020-07-01T14:10:48Z</time>
      </trkpt>
      <trkpt lat="48.95812" lon="2.80835">
        <ele>85</ele>
        <time>2020-07-01T14:10:49Z</time>
      </trkpt>
      <trkpt lat="48.95811" lon="2.80826">
        <ele>85.1</ele>
        <time>2020-07-01T14:10:50Z</time>
      </trkpt>
      <trkpt lat="48.95811" lon="2.80818">
        <ele>85.3</ele>
        <time>2020-07-01T14:10:51Z</time>
      </trkpt>
      <trkpt lat="48.9581" lon="2.80808">
        <ele>85.4</ele>
        <time>2020-07-01T14:10:52Z</time>
      </trkpt>
      <trkpt lat="48.95809" lon="2.808">
        <ele>85.5</ele>
        <time>2020-07-01T14:10:53Z</time>
      </trkpt>
      <trkpt lat="48.95809" lon="2.8079">
        <ele>85.5</ele>
        <time>2020-07-01T14:10:54Z</time>
      </trkpt>
      <trkpt lat="48.95808" lon="2.80781">
        <ele>85.6</ele>
        <time>2020-07-01T14:10:55Z</time>
      </trkpt>
      <trkpt lat="48.95808" lon="2.80772">
        <ele>85.6</ele>
        <time>2020-07-01T14:10:56Z</time>
      </trkpt>
      <trkpt lat="48.95808" lon="2.80763">
        <ele>85.7</ele>
        <time>2020-07-01T14:10:57Z</time>
      </trkpt>
      <trkpt lat="48.95807" lon="2.80755">
        <ele>85.8</ele>
        <time>2020-07-01T14:10:58Z</time>
      </trkpt>
      <trkpt lat="48.95807" lon="2.80746">
        <ele>85.9</ele>
        <time>2020-07-01T14:10:59Z</time>
      </trkpt>
      <trkpt lat="48.95807" lon="2.80738">
        <ele>86.1</ele>
        <time>2020-07-01T14:11:00Z</time>
      </trkpt>
      <trkpt lat="48.95807" lon="2.8073">
        <ele>86.2</ele>
        <time>2020-07-01T14:11:01Z</time>
      </trkpt>
      <trkpt lat="48.95806" lon="2.80723">
        <ele>86.3</ele>
        <time>2020-07-01T14:11:02Z</time>
      </trkpt>
      <trkpt lat="48.95806" lon="2.80715">
        <ele>86.3</ele>
        <time>2020-07-01T14:11:03Z</time>
      </trkpt>
      <trkpt lat="48.95805" lon="2.80706">
        <ele>86.4</ele>
        <time>2020-07-01T14:11:04Z</time>
      </trkpt>
      <trkpt lat="48.95804" lon="2.80697">
        <ele>86.5</ele>
        <time>2020-07-01T14:11:05Z</time>
      </trkpt>
      <trkpt lat="48.95804" lon="2.80687">
        <ele>86.5</ele>
        <time>2020-07-01T14:11:06Z</time>
      </trkpt>
      <trkpt lat="48.95803" lon="2.80678">
        <ele>86.7</ele>
        <time>2020-07-01T14:11:07Z</time>
      </trkpt>
      <trkpt lat="48.95803" lon="2.8067">
        <ele>86.8</ele>
        <time>2020-07-01T14:11:08Z</time>
      </trkpt>
      <trkpt lat="48.95802" lon="2.8066">
        <ele>86.9</ele>
        <time>2020-07-01T14:11:09Z</time>
      </trkpt>
      <trkpt lat="48.95802" lon="2.8065">
        <ele>87</ele>
        <time>2020-07-01T14:11:10Z</time>
      </trkpt>
      <trkpt lat="48.95802" lon="2.8064">
        <ele>87.1</ele>
        <time>2020-07-01T14:11:11Z</time>
      </trkpt>
      <trkpt lat="48.95801" lon="2.80632">
        <ele>87.3</ele>
        <time>2020-07-01T14:11:12Z</time>
      </trkpt>
      <trkpt lat="48.95801" lon="2.80622">
        <ele>87.5</ele>
        <time>2020-07-01T14:11:13Z</time>
      </trkpt>
      <trkpt lat="48.95801" lon="2.80612">
        <ele>87.7</ele>
        <time>2020-07-01T14:11:14Z</time>
      </trkpt>
      <trkpt lat="48.958" lon="2.80601">
        <ele>87.8</ele>
        <time>2020-07-01T14:11:15Z</time>
      </trkpt>
      <trkpt lat="48.958" lon="2.80592">
        <ele>87.9</ele>
        <time>2020-07-01T14:11:16Z</time>
      </trkpt>
      <trkpt lat="48.958" lon="2.80584">
        <ele>88</ele>
        <time>2020-07-01T14:11:17Z</time>
      </trkpt>
      <trkpt lat="48.95799" lon="2.80575">
        <ele>88</ele>
        <time>2020-07-01T14:11:18Z</time>
      </trkpt>
      <trkpt lat="48.95799" lon="2.80566">
        <ele>88.1</ele>
        <time>2020-07-01T14:11:19Z</time>
      </trkpt>
      <trkpt lat="48.95798" lon="2.80556">
        <ele>88.2</ele>
        <time>2020-07-01T14:11:20Z</time>
      </trkpt>
      <trkpt lat="48.95798" lon="2.80547">
        <ele>88.3</ele>
        <time>2020-07-01T14:11:21Z</time>
      </trkpt>
      <trkpt lat="48.95798" lon="2.80539">
        <ele>88.2</ele>
        <time>2020-07-01T14:11:22Z</time>
      </trkpt>
      <trkpt lat="48.95797" lon="2.8053">
        <ele>87.8</ele>
        <time>2020-07-01T14:11:23Z</time>
      </trkpt>
      <trkpt lat="48.95797" lon="2.80521">
        <ele>87.2</ele>
        <time>2020-07-01T14:11:24Z</time>
      </trkpt>
      <trkpt lat="48.95796" lon="2.80512">
        <ele>86.3</ele>
        <time>2020-07-01T14:11:25Z</time>
      </trkpt>
      <trkpt lat="48.95796" lon="2.80504">
        <ele>86.1</ele>
        <time>2020-07-01T14:11:26Z</time>
      </trkpt>
      <trkpt lat="48.95796" lon="2.80497">
        <ele>86</ele>
        <time>2020-07-01T14:11:27Z</time>
      </trkpt>
      <trkpt lat="48.95795" lon="2.80489">
        <ele>85.8</ele>
        <time>2020-07-01T14:11:28Z</time>
      </trkpt>
      <trkpt lat="48.95794" lon="2.80481">
        <ele>85.7</ele>
        <time>2020-07-01T14:11:29Z</time>
      </trkpt>
      <trkpt lat="48.95794" lon="2.80472">
        <ele>85.6</ele>
        <time>2020-07-01T14:11:30Z</time>
      </trkpt>
      <trkpt lat="48.95793" lon="2.80463">
        <ele>85.5</ele>
        <time>2020-07-01T14:11:31Z</time>
      </trkpt>
      <trkpt lat="48.95793" lon="2.80454">
        <ele>85.4</ele>
        <time>2020-07-01T14:11:32Z</time>
      </trkpt>
      <trkpt lat="48.95792" lon="2.80445">
        <ele>85.3</ele>
        <time>2020-07-01T14:11:33Z</time>
      </trkpt>
      <trkpt lat="48.95791" lon="2.80437">
        <ele>85.2</ele>
        <time>2020-07-01T14:11:34Z</time>
      </trkpt>
      <trkpt lat="48.95791" lon="2.80428">
        <ele>85.1</ele>
        <time>2020-07-01T14:11:35Z</time>
      </trkpt>
      <trkpt lat="48.9579" lon="2.80418">
        <ele>85.1</ele>
        <time>2020-07-01T14:11:36Z</time>
      </trkpt>
      <trkpt lat="48.9579" lon="2.80407">
        <ele>85</ele>
        <time>2020-07-01T14:11:37Z</time>
      </trkpt>
      <trkpt lat="48.95789" lon="2.80399">
        <ele>84.9</ele>
        <time>2020-07-01T14:11:38Z</time>
      </trkpt>
      <trkpt lat="48.95788" lon="2.80389">
        <ele>84.8</ele>
        <time>2020-07-01T14:11:39Z</time>
      </trkpt>
      <trkpt lat="48.95788" lon="2.80378">
        <ele>84.7</ele>
        <time>2020-07-01T14:11:40Z</time>
      </trkpt>
      <trkpt lat="48.95788" lon="2.80368">
        <ele>84.6</ele>
        <time>2020-07-01T14:11:41Z</time>
      </trkpt>
      <trkpt lat="48.95787" lon="2.80359">
        <ele>84.5</ele>
        <time>2020-07-01T14:11:42Z</time>
      </trkpt>
      <trkpt lat="48.95786" lon="2.80348">
        <ele>84.5</ele>
        <time>2020-07-01T14:11:43Z</time>
      </trkpt>
      <trkpt lat="48.95786" lon="2.80338">
        <ele>84.4</ele>
        <time>2020-07-01T14:11:44Z</time>
      </trkpt>
      <trkpt lat="48.95785" lon="2.80328">
        <ele>84.3</ele>
        <time>2020-07-01T14:11:45Z</time>
      </trkpt>
      <trkpt lat="48.95785" lon="2.80318">
        <ele>84.2</ele>
        <time>2020-07-01T14:11:46Z</time>
      </trkpt>
      <trkpt lat="48.95784" lon="2.80309">
        <ele>84.1</ele>
        <time>2020-07-01T14:11:47Z</time>
      </trkpt>
      <trkpt lat="48.95784" lon="2.80299">
        <ele>84</ele>
        <time>2020-07-01T14:11:48Z</time>
      </trkpt>
      <trkpt lat="48.95783" lon="2.80289">
        <ele>83.9</ele>
        <time>2020-07-01T14:11:49Z</time>
      </trkpt>
      <trkpt lat="48.95783" lon="2.8028">
        <ele>83.8</ele>
        <time>2020-07-01T14:11:50Z</time>
      </trkpt>
      <trkpt lat="48.95782" lon="2.8027">
        <ele>83.7</ele>
        <time>2020-07-01T14:11:51Z</time>
      </trkpt>
      <trkpt lat="48.95782" lon="2.80261">
        <ele>83.6</ele>
        <time>2020-07-01T14:11:52Z</time>
      </trkpt>
      <trkpt lat="48.95781" lon="2.80251">
        <ele>83.6</ele>
        <time>2020-07-01T14:11:53Z</time>
      </trkpt>
      <trkpt lat="48.95781" lon="2.80241">
        <ele>83.5</ele>
        <time>2020-07-01T14:11:54Z</time>
      </trkpt>
      <trkpt lat="48.9578" lon="2.80232">
        <ele>83.4</ele>
        <time>2020-07-01T14:11:55Z</time>
      </trkpt>
      <trkpt lat="48.9578" lon="2.80222">
        <ele>83.4</ele>
        <time>2020-07-01T14:11:56Z</time>
      </trkpt>
      <trkpt lat="48.95779" lon="2.80213">
        <ele>83.4</ele>
        <time>2020-07-01T14:11:57Z</time>
      </trkpt>
      <trkpt lat="48.95779" lon="2.80203">
        <ele>83.4</ele>
        <time>2020-07-01T14:11:58Z</time>
      </trkpt>
      <trkpt lat="48.95778" lon="2.80192">
        <ele>83.4</ele>
        <time>2020-07-01T14:11:59Z</time>
      </trkpt>
      <trkpt lat="48.95777" lon="2.80182">
        <ele>83.4</ele>
        <time>2020-07-01T14:12:00Z</time>
      </trkpt>
      <trkpt lat="48.95776" lon="2.80171">
        <ele>83.6</ele>
        <time>2020-07-01T14:12:01Z</time>
      </trkpt>
      <trkpt lat="48.95776" lon="2.80161">
        <ele>83.7</ele>
        <time>2020-07-01T14:12:02Z</time>
      </trkpt>
      <trkpt lat="48.95775" lon="2.80151">
        <ele>83.8</ele>
        <time>2020-07-01T14:12:03Z</time>
      </trkpt>
      <trkpt lat="48.95774" lon="2.8014">
        <ele>83.7</ele>
        <time>2020-07-01T14:12:04Z</time>
      </trkpt>
      <trkpt lat="48.95773" lon="2.8013">
        <ele>83.6</ele>
        <time>2020-07-01T14:12:05Z</time>
      </trkpt>
      <trkpt lat="48.95772" lon="2.8012">
        <ele>83.4</ele>
        <time>2020-07-01T14:12:06Z</time>
      </trkpt>
      <trkpt lat="48.95771" lon="2.80109">
        <ele>83</ele>
        <time>2020-07-01T14:12:07Z</time>
      </trkpt>
      <trkpt lat="48.95771" lon="2.80099">
        <ele>82.5</ele>
        <time>2020-07-01T14:12:08Z</time>
      </trkpt>
      <trkpt lat="48.9577" lon="2.80088">
        <ele>82.2</ele>
        <time>2020-07-01T14:12:09Z</time>
      </trkpt>
      <trkpt lat="48.9577" lon="2.80078">
        <ele>82</ele>
        <time>2020-07-01T14:12:10Z</time>
      </trkpt>
      <trkpt lat="48.95769" lon="2.80067">
        <ele>81.9</ele>
        <time>2020-07-01T14:12:11Z</time>
      </trkpt>
      <trkpt lat="48.95768" lon="2.80057">
        <ele>81.9</ele>
        <time>2020-07-01T14:12:12Z</time>
      </trkpt>
      <trkpt lat="48.95768" lon="2.80046">
        <ele>82</ele>
        <time>2020-07-01T14:12:13Z</time>
      </trkpt>
      <trkpt lat="48.95767" lon="2.80036">
        <ele>82</ele>
        <time>2020-07-01T14:12:14Z</time>
      </trkpt>
      <trkpt lat="48.95766" lon="2.80026">
        <ele>81.9</ele>
        <time>2020-07-01T14:12:15Z</time>
      </trkpt>
      <trkpt lat="48.95766" lon="2.80015">
        <ele>81.7</ele>
        <time>2020-07-01T14:12:16Z</time>
      </trkpt>
      <trkpt lat="48.95766" lon="2.80005">
        <ele>81.5</ele>
        <time>2020-07-01T14:12:17Z</time>
      </trkpt>
      <trkpt lat="48.95765" lon="2.79995">
        <ele>81.3</ele>
        <time>2020-07-01T14:12:18Z</time>
      </trkpt>
      <trkpt lat="48.95765" lon="2.79984">
        <ele>81.1</ele>
        <time>2020-07-01T14:12:19Z</time>
      </trkpt>
      <trkpt lat="48.95764" lon="2.79974">
        <ele>81</ele>
        <time>2020-07-01T14:12:20Z</time>
      </trkpt>
      <trkpt lat="48.95764" lon="2.79964">
        <ele>80.8</ele>
        <time>2020-07-01T14:12:21Z</time>
      </trkpt>
      <trkpt lat="48.95763" lon="2.79954">
        <ele>80.7</ele>
        <time>2020-07-01T14:12:22Z</time>
      </trkpt>
      <trkpt lat="48.95763" lon="2.79944">
        <ele>80.6</ele>
        <time>2020-07-01T14:12:23Z</time>
      </trkpt>
      <trkpt lat="48.95762" lon="2.79935">
        <ele>80.5</ele>
        <time>2020-07-01T14:12:24Z</time>
      </trkpt>
      <trkpt lat="48.95761" lon="2.79925">
        <ele>80.3</ele>
        <time>2020-07-01T14:12:25Z</time>
      </trkpt>
      <trkpt lat="48.95761" lon="2.79915">
        <ele>80.2</ele>
        <time>2020-07-01T14:12:26Z</time>
      </trkpt>
      <trkpt lat="48.9576" lon="2.79906">
        <ele>80.1</ele>
        <time>2020-07-01T14:12:27Z</time>
      </trkpt>
      <trkpt lat="48.95759" lon="2.79896">
        <ele>80</ele>
        <time>2020-07-01T14:12:28Z</time>
      </trkpt>
      <trkpt lat="48.95759" lon="2.79887">
        <ele>79.9</ele>
        <time>2020-07-01T14:12:29Z</time>
      </trkpt>
      <trkpt lat="48.95758" lon="2.79878">
        <ele>79.9</ele>
        <time>2020-07-01T14:12:30Z</time>
      </trkpt>
      <trkpt lat="48.95758" lon="2.79869">
        <ele>79.8</ele>
        <time>2020-07-01T14:12:31Z</time>
      </trkpt>
      <trkpt lat="48.95757" lon="2.79859">
        <ele>79.7</ele>
        <time>2020-07-01T14:12:32Z</time>
      </trkpt>
      <trkpt lat="48.95757" lon="2.7985">
        <ele>79.6</ele>
        <time>2020-07-01T14:12:33Z</time>
      </trkpt>
      <trkpt lat="48.95756" lon="2.79841">
        <ele>79.6</ele>
        <time>2020-07-01T14:12:34Z</time>
      </trkpt>
      <trkpt lat="48.95755" lon="2.79831">
        <ele>79.6</ele>
        <time>2020-07-01T14:12:35Z</time>
      </trkpt>
      <trkpt lat="48.95755" lon="2.79822">
        <ele>79.6</ele>
        <time>2020-07-01T14:12:36Z</time>
      </trkpt>
      <trkpt lat="48.95754" lon="2.79812">
        <ele>79.7</ele>
        <time>2020-07-01T14:12:37Z</time>
      </trkpt>
      <trkpt lat="48.95754" lon="2.79802">
        <ele>79.7</ele>
        <time>2020-07-01T14:12:38Z</time>
      </trkpt>
      <trkpt lat="48.95753" lon="2.79793">
        <ele>79.8</ele>
        <time>2020-07-01T14:12:39Z</time>
      </trkpt>
      <trkpt lat="48.95753" lon="2.79783">
        <ele>79.8</ele>
        <time>2020-07-01T14:12:40Z</time>
      </trkpt>
      <trkpt lat="48.95752" lon="2.79774">
        <ele>79.8</ele>
        <time>2020-07-01T14:12:41Z</time>
      </trkpt>
      <trkpt lat="48.95752" lon="2.79764">
        <ele>79.8</ele>
        <time>2020-07-01T14:12:42Z</time>
      </trkpt>
      <trkpt lat="48.95751" lon="2.79754">
        <ele>79.8</ele>
        <time>2020-07-01T14:12:43Z</time>
      </trkpt>
      <trkpt lat="48.95751" lon="2.79745">
        <ele>79.9</ele>
        <time>2020-07-01T14:12:44Z</time>
      </trkpt>
      <trkpt lat="48.95751" lon="2.79736">
        <ele>79.9</ele>
        <time>2020-07-01T14:12:45Z</time>
      </trkpt>
      <trkpt lat="48.9575" lon="2.79726">
        <ele>80</ele>
        <time>2020-07-01T14:12:46Z</time>
      </trkpt>
      <trkpt lat="48.95749" lon="2.79717">
        <ele>80</ele>
        <time>2020-07-01T14:12:47Z</time>
      </trkpt>
      <trkpt lat="48.95749" lon="2.79708">
        <ele>80.1</ele>
        <time>2020-07-01T14:12:48Z</time>
      </trkpt>
      <trkpt lat="48.95748" lon="2.79699">
        <ele>80.2</ele>
        <time>2020-07-01T14:12:49Z</time>
      </trkpt>
      <trkpt lat="48.95748" lon="2.7969">
        <ele>80.4</ele>
        <time>2020-07-01T14:12:50Z</time>
      </trkpt>
      <trkpt lat="48.95747" lon="2.79681">
        <ele>80.5</ele>
        <time>2020-07-01T14:12:51Z</time>
      </trkpt>
      <trkpt lat="48.95747" lon="2.79671">
        <ele>80.7</ele>
        <time>2020-07-01T14:12:52Z</time>
      </trkpt>
      <trkpt lat="48.95747" lon="2.79662">
        <ele>80.8</ele>
        <time>2020-07-01T14:12:53Z</time>
      </trkpt>
      <trkpt lat="48.95746" lon="2.79653">
        <ele>80.9</ele>
        <time>2020-07-01T14:12:54Z</time>
      </trkpt>
      <trkpt lat="48.95746" lon="2.79644">
        <ele>80.9</ele>
        <time>2020-07-01T14:12:55Z</time>
      </trkpt>
      <trkpt lat="48.95745" lon="2.79635">
        <ele>81.1</ele>
        <time>2020-07-01T14:12:56Z</time>
      </trkpt>
      <trkpt lat="48.95744" lon="2.79626">
        <ele>81.3</ele>
        <time>2020-07-01T14:12:57Z</time>
      </trkpt>
      <trkpt lat="48.95744" lon="2.79617">
        <ele>81.6</ele>
        <time>2020-07-01T14:12:58Z</time>
      </trkpt>
      <trkpt lat="48.95744" lon="2.79608">
        <ele>81.7</ele>
        <time>2020-07-01T14:12:59Z</time>
      </trkpt>
      <trkpt lat="48.95743" lon="2.79599">
        <ele>81.9</ele>
        <time>2020-07-01T14:13:00Z</time>
      </trkpt>
      <trkpt lat="48.95743" lon="2.7959">
        <ele>82</ele>
        <time>2020-07-01T14:13:01Z</time>
      </trkpt>
      <trkpt lat="48.95743" lon="2.79582">
        <ele>82.2</ele>
        <time>2020-07-01T14:13:02Z</time>
      </trkpt>
      <trkpt lat="48.95742" lon="2.79574">
        <ele>82.4</ele>
        <time>2020-07-01T14:13:03Z</time>
      </trkpt>
      <trkpt lat="48.95742" lon="2.79565">
        <ele>82.6</ele>
        <time>2020-07-01T14:13:04Z</time>
      </trkpt>
      <trkpt lat="48.95741" lon="2.79556">
        <ele>82.8</ele>
        <time>2020-07-01T14:13:05Z</time>
      </trkpt>
      <trkpt lat="48.95741" lon="2.79548">
        <ele>82.9</ele>
        <time>2020-07-01T14:13:06Z</time>
      </trkpt>
      <trkpt lat="48.9574" lon="2.79539">
        <ele>83</ele>
        <time>2020-07-01T14:13:07Z</time>
      </trkpt>
      <trkpt lat="48.9574" lon="2.7953">
        <ele>83.2</ele>
        <time>2020-07-01T14:13:08Z</time>
      </trkpt>
      <trkpt lat="48.9574" lon="2.79521">
        <ele>83.4</ele>
        <time>2020-07-01T14:13:09Z</time>
      </trkpt>
      <trkpt lat="48.9574" lon="2.79512">
        <ele>83.6</ele>
        <time>2020-07-01T14:13:10Z</time>
      </trkpt>
      <trkpt lat="48.95739" lon="2.79504">
        <ele>83.9</ele>
        <time>2020-07-01T14:13:11Z</time>
      </trkpt>
      <trkpt lat="48.95739" lon="2.79496">
        <ele>84.2</ele>
        <time>2020-07-01T14:13:12Z</time>
      </trkpt>
      <trkpt lat="48.95738" lon="2.79488">
        <ele>84.5</ele>
        <time>2020-07-01T14:13:13Z</time>
      </trkpt>
      <trkpt lat="48.95738" lon="2.79479">
        <ele>84.8</ele>
        <time>2020-07-01T14:13:14Z</time>
      </trkpt>
      <trkpt lat="48.95738" lon="2.7947">
        <ele>85</ele>
        <time>2020-07-01T14:13:15Z</time>
      </trkpt>
      <trkpt lat="48.95737" lon="2.79461">
        <ele>85.2</ele>
        <time>2020-07-01T14:13:16Z</time>
      </trkpt>
      <trkpt lat="48.95737" lon="2.79452">
        <ele>85.3</ele>
        <time>2020-07-01T14:13:17Z</time>
      </trkpt>
      <trkpt lat="48.95736" lon="2.79444">
        <ele>85.4</ele>
        <time>2020-07-01T14:13:18Z</time>
      </trkpt>
      <trkpt lat="48.95736" lon="2.79438">
        <ele>85.5</ele>
        <time>2020-07-01T14:13:19Z</time>
      </trkpt>
      <trkpt lat="48.95735" lon="2.79429">
        <ele>85.6</ele>
        <time>2020-07-01T14:13:20Z</time>
      </trkpt>
      <trkpt lat="48.95735" lon="2.79421">
        <ele>85.6</ele>
        <time>2020-07-01T14:13:21Z</time>
      </trkpt>
      <trkpt lat="48.95735" lon="2.79411">
        <ele>85.7</ele>
        <time>2020-07-01T14:13:22Z</time>
      </trkpt>
      <trkpt lat="48.95735" lon="2.79402">
        <ele>85.8</ele>
        <time>2020-07-01T14:13:23Z</time>
      </trkpt>
      <trkpt lat="48.95734" lon="2.79393">
        <ele>85.9</ele>
        <time>2020-07-01T14:13:24Z</time>
      </trkpt>
      <trkpt lat="48.95734" lon="2.79385">
        <ele>86</ele>
        <time>2020-07-01T14:13:25Z</time>
      </trkpt>
      <trkpt lat="48.95733" lon="2.79376">
        <ele>86.1</ele>
        <time>2020-07-01T14:13:26Z</time>
      </trkpt>
      <trkpt lat="48.95732" lon="2.79368">
        <ele>86.3</ele>
        <time>2020-07-01T14:13:27Z</time>
      </trkpt>
      <trkpt lat="48.95732" lon="2.79358">
        <ele>86.6</ele>
        <time>2020-07-01T14:13:28Z</time>
      </trkpt>
      <trkpt lat="48.95731" lon="2.79349">
        <ele>86.8</ele>
        <time>2020-07-01T14:13:29Z</time>
      </trkpt>
      <trkpt lat="48.95731" lon="2.7934">
        <ele>86.9</ele>
        <time>2020-07-01T14:13:30Z</time>
      </trkpt>
      <trkpt lat="48.9573" lon="2.79333">
        <ele>87</ele>
        <time>2020-07-01T14:13:31Z</time>
      </trkpt>
      <trkpt lat="48.9573" lon="2.79323">
        <ele>87.2</ele>
        <time>2020-07-01T14:13:32Z</time>
      </trkpt>
      <trkpt lat="48.9573" lon="2.79317">
        <ele>87.3</ele>
        <time>2020-07-01T14:13:33Z</time>
      </trkpt>
      <trkpt lat="48.9573" lon="2.79309">
        <ele>87.4</ele>
        <time>2020-07-01T14:13:34Z</time>
      </trkpt>
      <trkpt lat="48.9573" lon="2.79303">
        <ele>87.4</ele>
        <time>2020-07-01T14:13:35Z</time>
      </trkpt>
      <trkpt lat="48.9573" lon="2.79294">
        <ele>87.6</ele>
        <time>2020-07-01T14:13:36Z</time>
      </trkpt>
      <trkpt lat="48.95729" lon="2.79286">
        <ele>87.7</ele>
        <time>2020-07-01T14:13:37Z</time>
      </trkpt>
      <trkpt lat="48.95729" lon="2.79278">
        <ele>87.9</ele>
        <time>2020-07-01T14:13:38Z</time>
      </trkpt>
      <trkpt lat="48.95728" lon="2.7927">
        <ele>88.1</ele>
        <time>2020-07-01T14:13:39Z</time>
      </trkpt>
      <trkpt lat="48.95728" lon="2.79262">
        <ele>88.3</ele>
        <time>2020-07-01T14:13:40Z</time>
      </trkpt>
      <trkpt lat="48.95727" lon="2.79253">
        <ele>88.5</ele>
        <time>2020-07-01T14:13:41Z</time>
      </trkpt>
      <trkpt lat="48.95727" lon="2.79245">
        <ele>88.8</ele>
        <time>2020-07-01T14:13:42Z</time>
      </trkpt>
      <trkpt lat="48.95726" lon="2.79237">
        <ele>89</ele>
        <time>2020-07-01T14:13:43Z</time>
      </trkpt>
      <trkpt lat="48.95726" lon="2.79227">
        <ele>89.2</ele>
        <time>2020-07-01T14:13:44Z</time>
      </trkpt>
      <trkpt lat="48.95725" lon="2.7922">
        <ele>89.3</ele>
        <time>2020-07-01T14:13:45Z</time>
      </trkpt>
      <trkpt lat="48.95725" lon="2.7921">
        <ele>89.6</ele>
        <time>2020-07-01T14:13:46Z</time>
      </trkpt>
      <trkpt lat="48.95724" lon="2.79202">
        <ele>89.8</ele>
        <time>2020-07-01T14:13:47Z</time>
      </trkpt>
      <trkpt lat="48.95723" lon="2.79195">
        <ele>90</ele>
        <time>2020-07-01T14:13:48Z</time>
      </trkpt>
      <trkpt lat="48.95723" lon="2.79187">
        <ele>90.3</ele>
        <time>2020-07-01T14:13:49Z</time>
      </trkpt>
      <trkpt lat="48.95722" lon="2.79179">
        <ele>90.4</ele>
        <time>2020-07-01T14:13:50Z</time>
      </trkpt>
      <trkpt lat="48.95722" lon="2.79172">
        <ele>90.6</ele>
        <time>2020-07-01T14:13:51Z</time>
      </trkpt>
      <trkpt lat="48.95721" lon="2.79164">
        <ele>90.8</ele>
        <time>2020-07-01T14:13:52Z</time>
      </trkpt>
      <trkpt lat="48.9572" lon="2.79157">
        <ele>90.9</ele>
        <time>2020-07-01T14:13:53Z</time>
      </trkpt>
      <trkpt lat="48.95719" lon="2.79148">
        <ele>91.1</ele>
        <time>2020-07-01T14:13:54Z</time>
      </trkpt>
      <trkpt lat="48.95718" lon="2.7914">
        <ele>91.2</ele>
        <time>2020-07-01T14:13:55Z</time>
      </trkpt>
      <trkpt lat="48.95717" lon="2.79133">
        <ele>91.2</ele>
        <time>2020-07-01T14:13:56Z</time>
      </trkpt>
      <trkpt lat="48.95716" lon="2.79126">
        <ele>91.3</ele>
        <time>2020-07-01T14:13:57Z</time>
      </trkpt>
      <trkpt lat="48.95715" lon="2.79119">
        <ele>91.4</ele>
        <time>2020-07-01T14:13:58Z</time>
      </trkpt>
      <trkpt lat="48.95713" lon="2.79112">
        <ele>91.4</ele>
        <time>2020-07-01T14:13:59Z</time>
      </trkpt>
      <trkpt lat="48.95711" lon="2.79105">
        <ele>91.5</ele>
        <time>2020-07-01T14:14:00Z</time>
      </trkpt>
      <trkpt lat="48.9571" lon="2.79098">
        <ele>91.6</ele>
        <time>2020-07-01T14:14:01Z</time>
      </trkpt>
      <trkpt lat="48.95709" lon="2.79091">
        <ele>91.8</ele>
        <time>2020-07-01T14:14:02Z</time>
      </trkpt>
      <trkpt lat="48.95707" lon="2.79082">
        <ele>91.9</ele>
        <time>2020-07-01T14:14:03Z</time>
      </trkpt>
      <trkpt lat="48.95706" lon="2.79077">
        <ele>92</ele>
        <time>2020-07-01T14:14:04Z</time>
      </trkpt>
      <trkpt lat="48.95705" lon="2.79069">
        <ele>92.1</ele>
        <time>2020-07-01T14:14:05Z</time>
      </trkpt>
      <trkpt lat="48.95703" lon="2.79061">
        <ele>92.1</ele>
        <time>2020-07-01T14:14:06Z</time>
      </trkpt>
      <trkpt lat="48.95701" lon="2.79053">
        <ele>92.2</ele>
        <time>2020-07-01T14:14:07Z</time>
      </trkpt>
      <trkpt lat="48.957" lon="2.79044">
        <ele>92.3</ele>
        <time>2020-07-01T14:14:08Z</time>
      </trkpt>
      <trkpt lat="48.95698" lon="2.79036">
        <ele>92.5</ele>
        <time>2020-07-01T14:14:09Z</time>
      </trkpt>
      <trkpt lat="48.95696" lon="2.79026">
        <ele>92.6</ele>
        <time>2020-07-01T14:14:10Z</time>
      </trkpt>
      <trkpt lat="48.95695" lon="2.79017">
        <ele>92.7</ele>
        <time>2020-07-01T14:14:11Z</time>
      </trkpt>
      <trkpt lat="48.95693" lon="2.79009">
        <ele>92.8</ele>
        <time>2020-07-01T14:14:12Z</time>
      </trkpt>
      <trkpt lat="48.95692" lon="2.79003">
        <ele>92.9</ele>
        <time>2020-07-01T14:14:13Z</time>
      </trkpt>
      <trkpt lat="48.9569" lon="2.78996">
        <ele>93</ele>
        <time>2020-07-01T14:14:14Z</time>
      </trkpt>
      <trkpt lat="48.95689" lon="2.78989">
        <ele>93.2</ele>
        <time>2020-07-01T14:14:15Z</time>
      </trkpt>
      <trkpt lat="48.95687" lon="2.7898">
        <ele>93.3</ele>
        <time>2020-07-01T14:14:16Z</time>
      </trkpt>
      <trkpt lat="48.95685" lon="2.78971">
        <ele>93.3</ele>
        <time>2020-07-01T14:14:17Z</time>
      </trkpt>
      <trkpt lat="48.95683" lon="2.78963">
        <ele>93.4</ele>
        <time>2020-07-01T14:14:18Z</time>
      </trkpt>
      <trkpt lat="48.95681" lon="2.78954">
        <ele>93.4</ele>
        <time>2020-07-01T14:14:19Z</time>
      </trkpt>
      <trkpt lat="48.9568" lon="2.78945">
        <ele>93.4</ele>
        <time>2020-07-01T14:14:20Z</time>
      </trkpt>
      <trkpt lat="48.95678" lon="2.78936">
        <ele>93.5</ele>
        <time>2020-07-01T14:14:21Z</time>
      </trkpt>
      <trkpt lat="48.95676" lon="2.78927">
        <ele>93.4</ele>
        <time>2020-07-01T14:14:22Z</time>
      </trkpt>
      <trkpt lat="48.95673" lon="2.78918">
        <ele>93.3</ele>
        <time>2020-07-01T14:14:23Z</time>
      </trkpt>
      <trkpt lat="48.95671" lon="2.78909">
        <ele>92.7</ele>
        <time>2020-07-01T14:14:24Z</time>
      </trkpt>
      <trkpt lat="48.95669" lon="2.789">
        <ele>91.2</ele>
        <time>2020-07-01T14:14:25Z</time>
      </trkpt>
      <trkpt lat="48.95667" lon="2.7889">
        <ele>85.4</ele>
        <time>2020-07-01T14:14:26Z</time>
      </trkpt>
      <trkpt lat="48.95665" lon="2.78881">
        <ele>84.7</ele>
        <time>2020-07-01T14:14:27Z</time>
      </trkpt>
      <trkpt lat="48.95663" lon="2.78872">
        <ele>84</ele>
        <time>2020-07-01T14:14:28Z</time>
      </trkpt>
      <trkpt lat="48.95661" lon="2.78863">
        <ele>83.3</ele>
        <time>2020-07-01T14:14:29Z</time>
      </trkpt>
      <trkpt lat="48.95658" lon="2.78853">
        <ele>82.7</ele>
        <time>2020-07-01T14:14:30Z</time>
      </trkpt>
      <trkpt lat="48.95656" lon="2.78844">
        <ele>82.1</ele>
        <time>2020-07-01T14:14:31Z</time>
      </trkpt>
      <trkpt lat="48.95654" lon="2.78834">
        <ele>81.6</ele>
        <time>2020-07-01T14:14:32Z</time>
      </trkpt>
      <trkpt lat="48.95651" lon="2.78824">
        <ele>81.2</ele>
        <time>2020-07-01T14:14:33Z</time>
      </trkpt>
      <trkpt lat="48.95649" lon="2.78814">
        <ele>80.9</ele>
        <time>2020-07-01T14:14:34Z</time>
      </trkpt>
      <trkpt lat="48.95647" lon="2.78804">
        <ele>80.6</ele>
        <time>2020-07-01T14:14:35Z</time>
      </trkpt>
      <trkpt lat="48.95644" lon="2.78794">
        <ele>80.2</ele>
        <time>2020-07-01T14:14:36Z</time>
      </trkpt>
      <trkpt lat="48.95642" lon="2.78784">
        <ele>79.8</ele>
        <time>2020-07-01T14:14:37Z</time>
      </trkpt>
      <trkpt lat="48.9564" lon="2.78774">
        <ele>79.4</ele>
        <time>2020-07-01T14:14:38Z</time>
      </trkpt>
      <trkpt lat="48.95637" lon="2.78763">
        <ele>79.1</ele>
        <time>2020-07-01T14:14:39Z</time>
      </trkpt>
      <trkpt lat="48.95635" lon="2.78753">
        <ele>78.9</ele>
        <time>2020-07-01T14:14:40Z</time>
      </trkpt>
      <trkpt lat="48.95633" lon="2.78743">
        <ele>78.7</ele>
        <time>2020-07-01T14:14:41Z</time>
      </trkpt>
      <trkpt lat="48.9563" lon="2.78733">
        <ele>78.4</ele>
        <time>2020-07-01T14:14:42Z</time>
      </trkpt>
      <trkpt lat="48.95628" lon="2.78722">
        <ele>78.1</ele>
        <time>2020-07-01T14:14:43Z</time>
      </trkpt>
      <trkpt lat="48.95626" lon="2.78711">
        <ele>77.8</ele>
        <time>2020-07-01T14:14:44Z</time>
      </trkpt>
      <trkpt lat="48.95623" lon="2.78701">
        <ele>77.6</ele>
        <time>2020-07-01T14:14:45Z</time>
      </trkpt>
      <trkpt lat="48.95621" lon="2.7869">
        <ele>77.4</ele>
        <time>2020-07-01T14:14:46Z</time>
      </trkpt>
      <trkpt lat="48.95618" lon="2.78678">
        <ele>77.4</ele>
        <time>2020-07-01T14:14:47Z</time>
      </trkpt>
      <trkpt lat="48.95616" lon="2.78667">
        <ele>77.4</ele>
        <time>2020-07-01T14:14:48Z</time>
      </trkpt>
      <trkpt lat="48.95613" lon="2.78656">
        <ele>77.4</ele>
        <time>2020-07-01T14:14:49Z</time>
      </trkpt>
      <trkpt lat="48.9561" lon="2.78645">
        <ele>77.4</ele>
        <time>2020-07-01T14:14:50Z</time>
      </trkpt>
      <trkpt lat="48.95608" lon="2.78634">
        <ele>77.2</ele>
        <time>2020-07-01T14:14:51Z</time>
      </trkpt>
      <trkpt lat="48.95605" lon="2.78622">
        <ele>76.9</ele>
        <time>2020-07-01T14:14:52Z</time>
      </trkpt>
      <trkpt lat="48.95602" lon="2.78611">
        <ele>76.6</ele>
        <time>2020-07-01T14:14:53Z</time>
      </trkpt>
      <trkpt lat="48.956" lon="2.78599">
        <ele>76.3</ele>
        <time>2020-07-01T14:14:54Z</time>
      </trkpt>
      <trkpt lat="48.95597" lon="2.78587">
        <ele>75.9</ele>
        <time>2020-07-01T14:14:55Z</time>
      </trkpt>
      <trkpt lat="48.95594" lon="2.78575">
        <ele>75.2</ele>
        <time>2020-07-01T14:14:56Z</time>
      </trkpt>
      <trkpt lat="48.95592" lon="2.78563">
        <ele>74.5</ele>
        <time>2020-07-01T14:14:57Z</time>
      </trkpt>
      <trkpt lat="48.95589" lon="2.7855">
        <ele>74.1</ele>
        <time>2020-07-01T14:14:58Z</time>
      </trkpt>
      <trkpt lat="48.95586" lon="2.78538">
        <ele>73.9</ele>
        <time>2020-07-01T14:14:59Z</time>
      </trkpt>
      <trkpt lat="48.95583" lon="2.78525">
        <ele>73.9</ele>
        <time>2020-07-01T14:15:00Z</time>
      </trkpt>
      <trkpt lat="48.9558" lon="2.78512">
        <ele>73.8</ele>
        <time>2020-07-01T14:15:01Z</time>
      </trkpt>
      <trkpt lat="48.95576" lon="2.78499">
        <ele>73.7</ele>
        <time>2020-07-01T14:15:02Z</time>
      </trkpt>
      <trkpt lat="48.95573" lon="2.78486">
        <ele>73.5</ele>
        <time>2020-07-01T14:15:03Z</time>
      </trkpt>
      <trkpt lat="48.9557" lon="2.78473">
        <ele>73.3</ele>
        <time>2020-07-01T14:15:04Z</time>
      </trkpt>
      <trkpt lat="48.95567" lon="2.78459">
        <ele>73.1</ele>
        <time>2020-07-01T14:15:05Z</time>
      </trkpt>
      <trkpt lat="48.95563" lon="2.78445">
        <ele>72.8</ele>
        <time>2020-07-01T14:15:06Z</time>
      </trkpt>
      <trkpt lat="48.9556" lon="2.78431">
        <ele>72.4</ele>
        <time>2020-07-01T14:15:07Z</time>
      </trkpt>
      <trkpt lat="48.95557" lon="2.78417">
        <ele>71.9</ele>
        <time>2020-07-01T14:15:08Z</time>
      </trkpt>
      <trkpt lat="48.95554" lon="2.78402">
        <ele>71.4</ele>
        <time>2020-07-01T14:15:09Z</time>
      </trkpt>
      <trkpt lat="48.9555" lon="2.78388">
        <ele>70.9</ele>
        <time>2020-07-01T14:15:10Z</time>
      </trkpt>
      <trkpt lat="48.95547" lon="2.78373">
        <ele>70.5</ele>
        <time>2020-07-01T14:15:11Z</time>
      </trkpt>
      <trkpt lat="48.95543" lon="2.78358">
        <ele>70.1</ele>
        <time>2020-07-01T14:15:12Z</time>
      </trkpt>
      <trkpt lat="48.9554" lon="2.78343">
        <ele>69.6</ele>
        <time>2020-07-01T14:15:13Z</time>
      </trkpt>
      <trkpt lat="48.95536" lon="2.78327">
        <ele>69.2</ele>
        <time>2020-07-01T14:15:14Z</time>
      </trkpt>
      <trkpt lat="48.95532" lon="2.78311">
        <ele>68.8</ele>
        <time>2020-07-01T14:15:15Z</time>
      </trkpt>
      <trkpt lat="48.95529" lon="2.78295">
        <ele>68.2</ele>
        <time>2020-07-01T14:15:16Z</time>
      </trkpt>
      <trkpt lat="48.95525" lon="2.78279">
        <ele>67.4</ele>
        <time>2020-07-01T14:15:17Z</time>
      </trkpt>
      <trkpt lat="48.95522" lon="2.78263">
        <ele>66.5</ele>
        <time>2020-07-01T14:15:18Z</time>
      </trkpt>
      <trkpt lat="48.95518" lon="2.78247">
        <ele>65.7</ele>
        <time>2020-07-01T14:15:19Z</time>
      </trkpt>
      <trkpt lat="48.95515" lon="2.7823">
        <ele>65.1</ele>
        <time>2020-07-01T14:15:20Z</time>
      </trkpt>
      <trkpt lat="48.95511" lon="2.78214">
        <ele>64.7</ele>
        <time>2020-07-01T14:15:21Z</time>
      </trkpt>
      <trkpt lat="48.95507" lon="2.78198">
        <ele>64.4</ele>
        <time>2020-07-01T14:15:22Z</time>
      </trkpt>
      <trkpt lat="48.95504" lon="2.78181">
        <ele>64.1</ele>
        <time>2020-07-01T14:15:23Z</time>
      </trkpt>
      <trkpt lat="48.955" lon="2.78165">
        <ele>63.7</ele>
        <time>2020-07-01T14:15:24Z</time>
      </trkpt>
      <trkpt lat="48.95497" lon="2.78149">
        <ele>63.3</ele>
        <time>2020-07-01T14:15:25Z</time>
      </trkpt>
      <trkpt lat="48.95494" lon="2.78134">
        <ele>63.1</ele>
        <time>2020-07-01T14:15:26Z</time>
      </trkpt>
      <trkpt lat="48.9549" lon="2.78119">
        <ele>62.9</ele>
        <time>2020-07-01T14:15:27Z</time>
      </trkpt>
      <trkpt lat="48.95487" lon="2.78104">
        <ele>62.9</ele>
        <time>2020-07-01T14:15:28Z</time>
      </trkpt>
      <trkpt lat="48.95484" lon="2.7809">
        <ele>63</ele>
        <time>2020-07-01T14:15:29Z</time>
      </trkpt>
      <trkpt lat="48.95481" lon="2.78076">
        <ele>63.2</ele>
        <time>2020-07-01T14:15:30Z</time>
      </trkpt>
      <trkpt lat="48.95478" lon="2.78063">
        <ele>63.2</ele>
        <time>2020-07-01T14:15:31Z</time>
      </trkpt>
      <trkpt lat="48.95475" lon="2.78051">
        <ele>63.3</ele>
        <time>2020-07-01T14:15:32Z</time>
      </trkpt>
      <trkpt lat="48.95472" lon="2.78039">
        <ele>63.4</ele>
        <time>2020-07-01T14:15:33Z</time>
      </trkpt>
      <trkpt lat="48.9547" lon="2.78027">
        <ele>63.6</ele>
        <time>2020-07-01T14:15:34Z</time>
      </trkpt>
      <trkpt lat="48.95467" lon="2.78017">
        <ele>63.8</ele>
        <time>2020-07-01T14:15:35Z</time>
      </trkpt>
      <trkpt lat="48.95465" lon="2.78007">
        <ele>64</ele>
        <time>2020-07-01T14:15:36Z</time>
      </trkpt>
      <trkpt lat="48.95463" lon="2.77997">
        <ele>64.3</ele>
        <time>2020-07-01T14:15:37Z</time>
      </trkpt>
      <trkpt lat="48.9546" lon="2.77988">
        <ele>64.5</ele>
        <time>2020-07-01T14:15:38Z</time>
      </trkpt>
      <trkpt lat="48.95458" lon="2.77979">
        <ele>64.8</ele>
        <time>2020-07-01T14:15:39Z</time>
      </trkpt>
      <trkpt lat="48.95457" lon="2.77971">
        <ele>65</ele>
        <time>2020-07-01T14:15:40Z</time>
      </trkpt>
      <trkpt lat="48.95455" lon="2.77963">
        <ele>65.3</ele>
        <time>2020-07-01T14:15:41Z</time>
      </trkpt>
      <trkpt lat="48.95453" lon="2.77955">
        <ele>65.7</ele>
        <time>2020-07-01T14:15:42Z</time>
      </trkpt>
      <trkpt lat="48.95452" lon="2.77947">
        <ele>66.1</ele>
        <time>2020-07-01T14:15:43Z</time>
      </trkpt>
      <trkpt lat="48.95451" lon="2.7794">
        <ele>66.5</ele>
        <time>2020-07-01T14:15:44Z</time>
      </trkpt>
      <trkpt lat="48.9545" lon="2.77932">
        <ele>67</ele>
        <time>2020-07-01T14:15:45Z</time>
      </trkpt>
      <trkpt lat="48.95448" lon="2.77925">
        <ele>67.5</ele>
        <time>2020-07-01T14:15:46Z</time>
      </trkpt>
      <trkpt lat="48.95447" lon="2.77918">
        <ele>67.9</ele>
        <time>2020-07-01T14:15:47Z</time>
      </trkpt>
      <trkpt lat="48.95445" lon="2.77911">
        <ele>68.3</ele>
        <time>2020-07-01T14:15:48Z</time>
      </trkpt>
      <trkpt lat="48.95444" lon="2.77905">
        <ele>68.6</ele>
        <time>2020-07-01T14:15:49Z</time>
      </trkpt>
      <trkpt lat="48.95442" lon="2.77899">
        <ele>68.9</ele>
        <time>2020-07-01T14:15:50Z</time>
      </trkpt>
      <trkpt lat="48.95441" lon="2.77893">
        <ele>69.2</ele>
        <time>2020-07-01T14:15:51Z</time>
      </trkpt>
      <trkpt lat="48.95439" lon="2.77887">
        <ele>69.5</ele>
        <time>2020-07-01T14:15:52Z</time>
      </trkpt>
      <trkpt lat="48.95439" lon="2.77882">
        <ele>69.7</ele>
        <time>2020-07-01T14:15:53Z</time>
      </trkpt>
      <trkpt lat="48.95438" lon="2.77876">
        <ele>70</ele>
        <time>2020-07-01T14:15:54Z</time>
      </trkpt>
      <trkpt lat="48.95437" lon="2.77871">
        <ele>70.2</ele>
        <time>2020-07-01T14:15:55Z</time>
      </trkpt>
      <trkpt lat="48.95436" lon="2.77866">
        <ele>70.5</ele>
        <time>2020-07-01T14:15:56Z</time>
      </trkpt>
      <trkpt lat="48.95435" lon="2.77861">
        <ele>70.7</ele>
        <time>2020-07-01T14:15:57Z</time>
      </trkpt>
      <trkpt lat="48.95434" lon="2.77856">
        <ele>70.9</ele>
        <time>2020-07-01T14:15:58Z</time>
      </trkpt>
      <trkpt lat="48.95432" lon="2.77851">
        <ele>71</ele>
        <time>2020-07-01T14:15:59Z</time>
      </trkpt>
      <trkpt lat="48.95431" lon="2.77844">
        <ele>71.2</ele>
        <time>2020-07-01T14:16:00Z</time>
      </trkpt>
      <trkpt lat="48.95429" lon="2.77838">
        <ele>71.4</ele>
        <time>2020-07-01T14:16:01Z</time>
      </trkpt>
      <trkpt lat="48.95428" lon="2.77833">
        <ele>71.5</ele>
        <time>2020-07-01T14:16:02Z</time>
      </trkpt>
      <trkpt lat="48.95426" lon="2.77826">
        <ele>71.8</ele>
        <time>2020-07-01T14:16:03Z</time>
      </trkpt>
      <trkpt lat="48.95425" lon="2.77821">
        <ele>72</ele>
        <time>2020-07-01T14:16:04Z</time>
      </trkpt>
      <trkpt lat="48.95424" lon="2.77815">
        <ele>72.2</ele>
        <time>2020-07-01T14:16:05Z</time>
      </trkpt>
      <trkpt lat="48.95423" lon="2.77809">
        <ele>72.5</ele>
        <time>2020-07-01T14:16:06Z</time>
      </trkpt>
      <trkpt lat="48.95422" lon="2.77804">
        <ele>72.8</ele>
        <time>2020-07-01T14:16:07Z</time>
      </trkpt>
      <trkpt lat="48.95421" lon="2.77799">
        <ele>73</ele>
        <time>2020-07-01T14:16:08Z</time>
      </trkpt>
      <trkpt lat="48.9542" lon="2.77795">
        <ele>73.2</ele>
        <time>2020-07-01T14:16:09Z</time>
      </trkpt>
      <trkpt lat="48.95418" lon="2.77789">
        <ele>73.5</ele>
        <time>2020-07-01T14:16:10Z</time>
      </trkpt>
      <trkpt lat="48.95417" lon="2.77783">
        <ele>73.8</ele>
        <time>2020-07-01T14:16:11Z</time>
      </trkpt>
      <trkpt lat="48.95416" lon="2.77778">
        <ele>74</ele>
        <time>2020-07-01T14:16:12Z</time>
      </trkpt>
      <trkpt lat="48.95415" lon="2.77773">
        <ele>74.3</ele>
        <time>2020-07-01T14:16:13Z</time>
      </trkpt>
      <trkpt lat="48.95414" lon="2.77767">
        <ele>74.6</ele>
        <time>2020-07-01T14:16:14Z</time>
      </trkpt>
      <trkpt lat="48.95413" lon="2.77762">
        <ele>74.8</ele>
        <time>2020-07-01T14:16:15Z</time>
      </trkpt>
      <trkpt lat="48.95411" lon="2.77756">
        <ele>75.1</ele>
        <time>2020-07-01T14:16:16Z</time>
      </trkpt>
      <trkpt lat="48.9541" lon="2.7775">
        <ele>75.4</ele>
        <time>2020-07-01T14:16:17Z</time>
      </trkpt>
      <trkpt lat="48.95409" lon="2.77744">
        <ele>75.7</ele>
        <time>2020-07-01T14:16:18Z</time>
      </trkpt>
      <trkpt lat="48.95407" lon="2.77739">
        <ele>75.9</ele>
        <time>2020-07-01T14:16:19Z</time>
      </trkpt>
      <trkpt lat="48.95406" lon="2.77733">
        <ele>76.1</ele>
        <time>2020-07-01T14:16:20Z</time>
      </trkpt>
      <trkpt lat="48.95404" lon="2.77727">
        <ele>76.3</ele>
        <time>2020-07-01T14:16:21Z</time>
      </trkpt>
      <trkpt lat="48.95403" lon="2.77721">
        <ele>76.5</ele>
        <time>2020-07-01T14:16:22Z</time>
      </trkpt>
      <trkpt lat="48.95402" lon="2.77715">
        <ele>76.6</ele>
        <time>2020-07-01T14:16:23Z</time>
      </trkpt>
      <trkpt lat="48.95401" lon="2.77709">
        <ele>76.8</ele>
        <time>2020-07-01T14:16:24Z</time>
      </trkpt>
      <trkpt lat="48.954" lon="2.77703">
        <ele>77</ele>
        <time>2020-07-01T14:16:25Z</time>
      </trkpt>
      <trkpt lat="48.95399" lon="2.77697">
        <ele>77.2</ele>
        <time>2020-07-01T14:16:26Z</time>
      </trkpt>
      <trkpt lat="48.95398" lon="2.77691">
        <ele>77.3</ele>
        <time>2020-07-01T14:16:27Z</time>
      </trkpt>
      <trkpt lat="48.95397" lon="2.77685">
        <ele>77.4</ele>
        <time>2020-07-01T14:16:28Z</time>
      </trkpt>
      <trkpt lat="48.95395" lon="2.77677">
        <ele>77.6</ele>
        <time>2020-07-01T14:16:29Z</time>
      </trkpt>
      <trkpt lat="48.95393" lon="2.7767">
        <ele>77.8</ele>
        <time>2020-07-01T14:16:30Z</time>
      </trkpt>
      <trkpt lat="48.95392" lon="2.77664">
        <ele>78</ele>
        <time>2020-07-01T14:16:31Z</time>
      </trkpt>
      <trkpt lat="48.9539" lon="2.77658">
        <ele>78.2</ele>
        <time>2020-07-01T14:16:32Z</time>
      </trkpt>
      <trkpt lat="48.95389" lon="2.77653">
        <ele>78.5</ele>
        <time>2020-07-01T14:16:33Z</time>
      </trkpt>
      <trkpt lat="48.95387" lon="2.77646">
        <ele>78.8</ele>
        <time>2020-07-01T14:16:34Z</time>
      </trkpt>
      <trkpt lat="48.95386" lon="2.77641">
        <ele>79.1</ele>
        <time>2020-07-01T14:16:35Z</time>
      </trkpt>
      <trkpt lat="48.95384" lon="2.77635">
        <ele>78.9</ele>
        <time>2020-07-01T14:16:36Z</time>
      </trkpt>
      <trkpt lat="48.95382" lon="2.77628">
        <ele>78.6</ele>
        <time>2020-07-01T14:16:37Z</time>
      </trkpt>
      <trkpt lat="48.9538" lon="2.77621">
        <ele>78.4</ele>
        <time>2020-07-01T14:16:38Z</time>
      </trkpt>
      <trkpt lat="48.95379" lon="2.77615">
        <ele>78.2</ele>
        <time>2020-07-01T14:16:39Z</time>
      </trkpt>
      <trkpt lat="48.95377" lon="2.77607">
        <ele>78</ele>
        <time>2020-07-01T14:16:40Z</time>
      </trkpt>
      <trkpt lat="48.95376" lon="2.77601">
        <ele>77.9</ele>
        <time>2020-07-01T14:16:41Z</time>
      </trkpt>
      <trkpt lat="48.95374" lon="2.77595">
        <ele>77.9</ele>
        <time>2020-07-01T14:16:42Z</time>
      </trkpt>
      <trkpt lat="48.95373" lon="2.77589">
        <ele>77.8</ele>
        <time>2020-07-01T14:16:43Z</time>
      </trkpt>
      <trkpt lat="48.95372" lon="2.77583">
        <ele>77.8</ele>
        <time>2020-07-01T14:16:44Z</time>
      </trkpt>
      <trkpt lat="48.9537" lon="2.77576">
        <ele>77.9</ele>
        <time>2020-07-01T14:16:45Z</time>
      </trkpt>
      <trkpt lat="48.95369" lon="2.77569">
        <ele>77.9</ele>
        <time>2020-07-01T14:16:46Z</time>
      </trkpt>
      <trkpt lat="48.95367" lon="2.77562">
        <ele>77.9</ele>
        <time>2020-07-01T14:16:47Z</time>
      </trkpt>
      <trkpt lat="48.95366" lon="2.77554">
        <ele>77.8</ele>
        <time>2020-07-01T14:16:48Z</time>
      </trkpt>
      <trkpt lat="48.95364" lon="2.77546">
        <ele>77.7</ele>
        <time>2020-07-01T14:16:49Z</time>
      </trkpt>
      <trkpt lat="48.95363" lon="2.77539">
        <ele>77.6</ele>
        <time>2020-07-01T14:16:50Z</time>
      </trkpt>
      <trkpt lat="48.95361" lon="2.77531">
        <ele>77.6</ele>
        <time>2020-07-01T14:16:51Z</time>
      </trkpt>
      <trkpt lat="48.9536" lon="2.77525">
        <ele>77.6</ele>
        <time>2020-07-01T14:16:52Z</time>
      </trkpt>
      <trkpt lat="48.95358" lon="2.77517">
        <ele>77.5</ele>
        <time>2020-07-01T14:16:53Z</time>
      </trkpt>
      <trkpt lat="48.95356" lon="2.77509">
        <ele>77.5</ele>
        <time>2020-07-01T14:16:54Z</time>
      </trkpt>
      <trkpt lat="48.95354" lon="2.77501">
        <ele>77.5</ele>
        <time>2020-07-01T14:16:55Z</time>
      </trkpt>
      <trkpt lat="48.95352" lon="2.77494">
        <ele>77.5</ele>
        <time>2020-07-01T14:16:56Z</time>
      </trkpt>
      <trkpt lat="48.95351" lon="2.77488">
        <ele>77.5</ele>
        <time>2020-07-01T14:16:57Z</time>
      </trkpt>
      <trkpt lat="48.9535" lon="2.77481">
        <ele>77.6</ele>
        <time>2020-07-01T14:16:58Z</time>
      </trkpt>
      <trkpt lat="48.95348" lon="2.77473">
        <ele>77.8</ele>
        <time>2020-07-01T14:16:59Z</time>
      </trkpt>
      <trkpt lat="48.95346" lon="2.77465">
        <ele>78</ele>
        <time>2020-07-01T14:17:00Z</time>
      </trkpt>
      <trkpt lat="48.95344" lon="2.77456">
        <ele>78.2</ele>
        <time>2020-07-01T14:17:01Z</time>
      </trkpt>
      <trkpt lat="48.95343" lon="2.77448">
        <ele>78.4</ele>
        <time>2020-07-01T14:17:02Z</time>
      </trkpt>
      <trkpt lat="48.95341" lon="2.7744">
        <ele>78.6</ele>
        <time>2020-07-01T14:17:03Z</time>
      </trkpt>
      <trkpt lat="48.95339" lon="2.77432">
        <ele>78.7</ele>
        <time>2020-07-01T14:17:04Z</time>
      </trkpt>
      <trkpt lat="48.95337" lon="2.77424">
        <ele>78.8</ele>
        <time>2020-07-01T14:17:05Z</time>
      </trkpt>
      <trkpt lat="48.95335" lon="2.77415">
        <ele>78.9</ele>
        <time>2020-07-01T14:17:06Z</time>
      </trkpt>
      <trkpt lat="48.95334" lon="2.77406">
        <ele>79</ele>
        <time>2020-07-01T14:17:07Z</time>
      </trkpt>
      <trkpt lat="48.95332" lon="2.77397">
        <ele>79.1</ele>
        <time>2020-07-01T14:17:08Z</time>
      </trkpt>
      <trkpt lat="48.9533" lon="2.77387">
        <ele>79.2</ele>
        <time>2020-07-01T14:17:09Z</time>
      </trkpt>
      <trkpt lat="48.95328" lon="2.77378">
        <ele>79.4</ele>
        <time>2020-07-01T14:17:10Z</time>
      </trkpt>
      <trkpt lat="48.95326" lon="2.77368">
        <ele>79.5</ele>
        <time>2020-07-01T14:17:11Z</time>
      </trkpt>
      <trkpt lat="48.95323" lon="2.77359">
        <ele>79.7</ele>
        <time>2020-07-01T14:17:12Z</time>
      </trkpt>
      <trkpt lat="48.95321" lon="2.77349">
        <ele>80.9</ele>
        <time>2020-07-01T14:17:13Z</time>
      </trkpt>
      <trkpt lat="48.95319" lon="2.77339">
        <ele>81.2</ele>
        <time>2020-07-01T14:17:14Z</time>
      </trkpt>
      <trkpt lat="48.95317" lon="2.7733">
        <ele>81.1</ele>
        <time>2020-07-01T14:17:15Z</time>
      </trkpt>
      <trkpt lat="48.95315" lon="2.77321">
        <ele>80.7</ele>
        <time>2020-07-01T14:17:16Z</time>
      </trkpt>
      <trkpt lat="48.95313" lon="2.77311">
        <ele>80.2</ele>
        <time>2020-07-01T14:17:17Z</time>
      </trkpt>
      <trkpt lat="48.95311" lon="2.77301">
        <ele>79.6</ele>
        <time>2020-07-01T14:17:18Z</time>
      </trkpt>
      <trkpt lat="48.95309" lon="2.77291">
        <ele>79</ele>
        <time>2020-07-01T14:17:19Z</time>
      </trkpt>
      <trkpt lat="48.95307" lon="2.77282">
        <ele>78.5</ele>
        <time>2020-07-01T14:17:20Z</time>
      </trkpt>
      <trkpt lat="48.95305" lon="2.77272">
        <ele>77.8</ele>
        <time>2020-07-01T14:17:21Z</time>
      </trkpt>
      <trkpt lat="48.95302" lon="2.77262">
        <ele>77.1</ele>
        <time>2020-07-01T14:17:22Z</time>
      </trkpt>
      <trkpt lat="48.953" lon="2.77252">
        <ele>76.5</ele>
        <time>2020-07-01T14:17:23Z</time>
      </trkpt>
      <trkpt lat="48.95298" lon="2.77242">
        <ele>76</ele>
        <time>2020-07-01T14:17:24Z</time>
      </trkpt>
      <trkpt lat="48.95296" lon="2.77233">
        <ele>75.5</ele>
        <time>2020-07-01T14:17:25Z</time>
      </trkpt>
      <trkpt lat="48.95293" lon="2.77223">
        <ele>75.1</ele>
        <time>2020-07-01T14:17:26Z</time>
      </trkpt>
      <trkpt lat="48.95291" lon="2.77213">
        <ele>74.6</ele>
        <time>2020-07-01T14:17:27Z</time>
      </trkpt>
      <trkpt lat="48.95289" lon="2.77203">
        <ele>74.2</ele>
        <time>2020-07-01T14:17:28Z</time>
      </trkpt>
      <trkpt lat="48.95286" lon="2.77193">
        <ele>73.8</ele>
        <time>2020-07-01T14:17:29Z</time>
      </trkpt>
      <trkpt lat="48.95284" lon="2.77183">
        <ele>73.4</ele>
        <time>2020-07-01T14:17:30Z</time>
      </trkpt>
      <trkpt lat="48.95282" lon="2.77173">
        <ele>73.1</ele>
        <time>2020-07-01T14:17:31Z</time>
      </trkpt>
      <trkpt lat="48.9528" lon="2.77163">
        <ele>72.9</ele>
        <time>2020-07-01T14:17:32Z</time>
      </trkpt>
      <trkpt lat="48.95278" lon="2.77152">
        <ele>72.6</ele>
        <time>2020-07-01T14:17:33Z</time>
      </trkpt>
      <trkpt lat="48.95276" lon="2.77142">
        <ele>72.2</ele>
        <time>2020-07-01T14:17:34Z</time>
      </trkpt>
      <trkpt lat="48.95273" lon="2.77131">
        <ele>71.8</ele>
        <time>2020-07-01T14:17:35Z</time>
      </trkpt>
      <trkpt lat="48.95271" lon="2.7712">
        <ele>71.4</ele>
        <time>2020-07-01T14:17:36Z</time>
      </trkpt>
      <trkpt lat="48.9527" lon="2.7711">
        <ele>70.9</ele>
        <time>2020-07-01T14:17:37Z</time>
      </trkpt>
      <trkpt lat="48.95268" lon="2.77099">
        <ele>70.5</ele>
        <time>2020-07-01T14:17:38Z</time>
      </trkpt>
      <trkpt lat="48.95267" lon="2.77087">
        <ele>70.7</ele>
        <time>2020-07-01T14:17:39Z</time>
      </trkpt>
      <trkpt lat="48.95265" lon="2.77076">
        <ele>70.6</ele>
        <time>2020-07-01T14:17:40Z</time>
      </trkpt>
      <trkpt lat="48.95263" lon="2.77065">
        <ele>70</ele>
        <time>2020-07-01T14:17:41Z</time>
      </trkpt>
      <trkpt lat="48.95261" lon="2.77054">
        <ele>69.6</ele>
        <time>2020-07-01T14:17:42Z</time>
      </trkpt>
      <trkpt lat="48.95258" lon="2.77043">
        <ele>69.3</ele>
        <time>2020-07-01T14:17:43Z</time>
      </trkpt>
      <trkpt lat="48.95256" lon="2.77032">
        <ele>69.3</ele>
        <time>2020-07-01T14:17:44Z</time>
      </trkpt>
      <trkpt lat="48.95253" lon="2.77021">
        <ele>69.4</ele>
        <time>2020-07-01T14:17:45Z</time>
      </trkpt>
      <trkpt lat="48.95251" lon="2.77011">
        <ele>69.6</ele>
        <time>2020-07-01T14:17:46Z</time>
      </trkpt>
      <trkpt lat="48.95248" lon="2.77">
        <ele>69.9</ele>
        <time>2020-07-01T14:17:47Z</time>
      </trkpt>
      <trkpt lat="48.95246" lon="2.7699">
        <ele>70.2</ele>
        <time>2020-07-01T14:17:48Z</time>
      </trkpt>
      <trkpt lat="48.95243" lon="2.7698">
        <ele>70.6</ele>
        <time>2020-07-01T14:17:49Z</time>
      </trkpt>
      <trkpt lat="48.95241" lon="2.7697">
        <ele>70.8</ele>
        <time>2020-07-01T14:17:50Z</time>
      </trkpt>
      <trkpt lat="48.95239" lon="2.7696">
        <ele>71</ele>
        <time>2020-07-01T14:17:51Z</time>
      </trkpt>
      <trkpt lat="48.95237" lon="2.76951">
        <ele>71.3</ele>
        <time>2020-07-01T14:17:52Z</time>
      </trkpt>
      <trkpt lat="48.95235" lon="2.76941">
        <ele>71.4</ele>
        <time>2020-07-01T14:17:53Z</time>
      </trkpt>
      <trkpt lat="48.95233" lon="2.76932">
        <ele>71.4</ele>
        <time>2020-07-01T14:17:54Z</time>
      </trkpt>
      <trkpt lat="48.95231" lon="2.76923">
        <ele>71.2</ele>
        <time>2020-07-01T14:17:55Z</time>
      </trkpt>
      <trkpt lat="48.95229" lon="2.76914">
        <ele>70.9</ele>
        <time>2020-07-01T14:17:56Z</time>
      </trkpt>
      <trkpt lat="48.95227" lon="2.76905">
        <ele>71</ele>
        <time>2020-07-01T14:17:57Z</time>
      </trkpt>
      <trkpt lat="48.95225" lon="2.76896">
        <ele>71.1</ele>
        <time>2020-07-01T14:17:58Z</time>
      </trkpt>
      <trkpt lat="48.95223" lon="2.76887">
        <ele>71.1</ele>
        <time>2020-07-01T14:17:59Z</time>
      </trkpt>
      <trkpt lat="48.95221" lon="2.76879">
        <ele>71.2</ele>
        <time>2020-07-01T14:18:00Z</time>
      </trkpt>
      <trkpt lat="48.95219" lon="2.76871">
        <ele>71.3</ele>
        <time>2020-07-01T14:18:01Z</time>
      </trkpt>
      <trkpt lat="48.95216" lon="2.76863">
        <ele>71.3</ele>
        <time>2020-07-01T14:18:02Z</time>
      </trkpt>
      <trkpt lat="48.95214" lon="2.76855">
        <ele>71.4</ele>
        <time>2020-07-01T14:18:03Z</time>
      </trkpt>
      <trkpt lat="48.95213" lon="2.76847">
        <ele>71.5</ele>
        <time>2020-07-01T14:18:04Z</time>
      </trkpt>
      <trkpt lat="48.95211" lon="2.76839">
        <ele>71.6</ele>
        <time>2020-07-01T14:18:05Z</time>
      </trkpt>
      <trkpt lat="48.95209" lon="2.76831">
        <ele>71.6</ele>
        <time>2020-07-01T14:18:06Z</time>
      </trkpt>
      <trkpt lat="48.95207" lon="2.76823">
        <ele>71.7</ele>
        <time>2020-07-01T14:18:07Z</time>
      </trkpt>
      <trkpt lat="48.95205" lon="2.76815">
        <ele>71.8</ele>
        <time>2020-07-01T14:18:08Z</time>
      </trkpt>
      <trkpt lat="48.95203" lon="2.76807">
        <ele>71.8</ele>
        <time>2020-07-01T14:18:09Z</time>
      </trkpt>
      <trkpt lat="48.95201" lon="2.768">
        <ele>71.9</ele>
        <time>2020-07-01T14:18:10Z</time>
      </trkpt>
      <trkpt lat="48.95199" lon="2.76792">
        <ele>72</ele>
        <time>2020-07-01T14:18:11Z</time>
      </trkpt>
      <trkpt lat="48.95197" lon="2.76785">
        <ele>72</ele>
        <time>2020-07-01T14:18:12Z</time>
      </trkpt>
      <trkpt lat="48.95195" lon="2.76778">
        <ele>72.1</ele>
        <time>2020-07-01T14:18:13Z</time>
      </trkpt>
      <trkpt lat="48.95193" lon="2.76771">
        <ele>72.1</ele>
        <time>2020-07-01T14:18:14Z</time>
      </trkpt>
      <trkpt lat="48.95191" lon="2.76763">
        <ele>72.2</ele>
        <time>2020-07-01T14:18:15Z</time>
      </trkpt>
      <trkpt lat="48.95189" lon="2.76755">
        <ele>72.3</ele>
        <time>2020-07-01T14:18:16Z</time>
      </trkpt>
      <trkpt lat="48.95188" lon="2.76748">
        <ele>72.3</ele>
        <time>2020-07-01T14:18:17Z</time>
      </trkpt>
      <trkpt lat="48.95186" lon="2.7674">
        <ele>72.4</ele>
        <time>2020-07-01T14:18:18Z</time>
      </trkpt>
      <trkpt lat="48.95184" lon="2.76733">
        <ele>72.5</ele>
        <time>2020-07-01T14:18:19Z</time>
      </trkpt>
      <trkpt lat="48.95182" lon="2.76726">
        <ele>72.5</ele>
        <time>2020-07-01T14:18:20Z</time>
      </trkpt>
      <trkpt lat="48.95181" lon="2.76719">
        <ele>72.6</ele>
        <time>2020-07-01T14:18:21Z</time>
      </trkpt>
      <trkpt lat="48.95179" lon="2.76712">
        <ele>72.6</ele>
        <time>2020-07-01T14:18:22Z</time>
      </trkpt>
      <trkpt lat="48.95177" lon="2.76705">
        <ele>72.7</ele>
        <time>2020-07-01T14:18:23Z</time>
      </trkpt>
      <trkpt lat="48.95176" lon="2.76698">
        <ele>72.8</ele>
        <time>2020-07-01T14:18:24Z</time>
      </trkpt>
      <trkpt lat="48.95174" lon="2.76692">
        <ele>72.8</ele>
        <time>2020-07-01T14:18:25Z</time>
      </trkpt>
      <trkpt lat="48.95173" lon="2.76686">
        <ele>72.9</ele>
        <time>2020-07-01T14:18:26Z</time>
      </trkpt>
      <trkpt lat="48.95172" lon="2.7668">
        <ele>72.9</ele>
        <time>2020-07-01T14:18:27Z</time>
      </trkpt>
      <trkpt lat="48.95171" lon="2.76675">
        <ele>73</ele>
        <time>2020-07-01T14:18:28Z</time>
      </trkpt>
      <trkpt lat="48.9517" lon="2.76672">
        <ele>73</ele>
        <time>2020-07-01T14:18:29Z</time>
      </trkpt>
      <trkpt lat="48.9517" lon="2.76671">
        <ele>73</ele>
        <time>2020-07-01T14:18:30Z</time>
      </trkpt>
      <trkpt lat="48.95171" lon="2.76673">
        <ele>73</ele>
        <time>2020-07-01T14:18:31Z</time>
      </trkpt>
      <trkpt lat="48.95171" lon="2.76675">
        <ele>73</ele>
        <time>2020-07-01T14:18:32Z</time>
      </trkpt>
      <trkpt lat="48.95172" lon="2.76674">
        <ele>73</ele>
        <time>2020-07-01T14:18:33Z</time>
      </trkpt>
      <trkpt lat="48.95173" lon="2.76673">
        <ele>73.1</ele>
        <time>2020-07-01T14:18:34Z</time>
      </trkpt>
      <trkpt lat="48.95173" lon="2.76671">
        <ele>73.1</ele>
        <time>2020-07-01T14:18:35Z</time>
      </trkpt>
      <trkpt lat="48.95174" lon="2.7667">
        <ele>73.1</ele>
        <time>2020-07-01T14:18:36Z</time>
      </trkpt>
      <trkpt lat="48.95175" lon="2.76668">
        <ele>73.1</ele>
        <time>2020-07-01T14:18:37Z</time>
      </trkpt>
      <trkpt lat="48.95176" lon="2.76667">
        <ele>73.1</ele>
        <time>2020-07-01T14:18:38Z</time>
      </trkpt>
      <trkpt lat="48.95176" lon="2.76666">
        <ele>74.5</ele>
        <time>2020-07-01T14:18:39Z</time>
      </trkpt>
      <trkpt lat="48.95177" lon="2.76664">
        <ele>74.5</ele>
        <time>2020-07-01T14:18:40Z</time>
      </trkpt>
      <trkpt lat="48.95178" lon="2.76663">
        <ele>74.5</ele>
        <time>2020-07-01T14:18:41Z</time>
      </trkpt>
      <trkpt lat="48.95179" lon="2.76661">
        <ele>74.5</ele>
        <time>2020-07-01T14:19:31Z</time>
      </trkpt>
      <trkpt lat="48.9518" lon="2.7666">
        <ele>74.5</ele>
        <time>2020-07-01T14:19:32Z</time>
      </trkpt>
      <trkpt lat="48.95179" lon="2.76656">
        <ele>74.6</ele>
        <time>2020-07-01T14:19:33Z</time>
      </trkpt>
      <trkpt lat="48.95177" lon="2.76652">
        <ele>74.6</ele>
        <time>2020-07-01T14:19:34Z</time>
      </trkpt>
      <trkpt lat="48.95176" lon="2.76647">
        <ele>74.6</ele>
        <time>2020-07-01T14:19:35Z</time>
      </trkpt>
      <trkpt lat="48.95175" lon="2.76642">
        <ele>74.6</ele>
        <time>2020-07-01T14:19:36Z</time>
      </trkpt>
      <trkpt lat="48.95175" lon="2.76637">
        <ele>74.6</ele>
        <time>2020-07-01T14:19:37Z</time>
      </trkpt>
      <trkpt lat="48.95174" lon="2.76631">
        <ele>74.7</ele>
        <time>2020-07-01T14:19:38Z</time>
      </trkpt>
      <trkpt lat="48.95174" lon="2.76626">
        <ele>74.8</ele>
        <time>2020-07-01T14:19:39Z</time>
      </trkpt>
      <trkpt lat="48.95171" lon="2.7662">
        <ele>74.9</ele>
        <time>2020-07-01T14:19:40Z</time>
      </trkpt>
      <trkpt lat="48.9517" lon="2.76614">
        <ele>75</ele>
        <time>2020-07-01T14:19:41Z</time>
      </trkpt>
      <trkpt lat="48.95169" lon="2.76609">
        <ele>75</ele>
        <time>2020-07-01T14:19:42Z</time>
      </trkpt>
      <trkpt lat="48.95168" lon="2.76603">
        <ele>75.1</ele>
        <time>2020-07-01T14:19:43Z</time>
      </trkpt>
      <trkpt lat="48.95166" lon="2.76597">
        <ele>75.2</ele>
        <time>2020-07-01T14:19:44Z</time>
      </trkpt>
      <trkpt lat="48.95165" lon="2.76591">
        <ele>75.2</ele>
        <time>2020-07-01T14:19:45Z</time>
      </trkpt>
      <trkpt lat="48.95164" lon="2.76585">
        <ele>75.2</ele>
        <time>2020-07-01T14:19:46Z</time>
      </trkpt>
      <trkpt lat="48.95163" lon="2.76578">
        <ele>75.3</ele>
        <time>2020-07-01T14:19:47Z</time>
      </trkpt>
      <trkpt lat="48.95161" lon="2.76571">
        <ele>75.3</ele>
        <time>2020-07-01T14:19:48Z</time>
      </trkpt>
      <trkpt lat="48.95159" lon="2.76565">
        <ele>75.3</ele>
        <time>2020-07-01T14:19:49Z</time>
      </trkpt>
      <trkpt lat="48.95157" lon="2.76558">
        <ele>75.4</ele>
        <time>2020-07-01T14:19:50Z</time>
      </trkpt>
      <trkpt lat="48.95155" lon="2.76551">
        <ele>75.3</ele>
        <time>2020-07-01T14:19:51Z</time>
      </trkpt>
      <trkpt lat="48.95153" lon="2.76545">
        <ele>75.3</ele>
        <time>2020-07-01T14:19:52Z</time>
      </trkpt>
      <trkpt lat="48.95152" lon="2.76538">
        <ele>75.3</ele>
        <time>2020-07-01T14:19:53Z</time>
      </trkpt>
      <trkpt lat="48.9515" lon="2.76531">
        <ele>75.3</ele>
        <time>2020-07-01T14:19:54Z</time>
      </trkpt>
      <trkpt lat="48.95149" lon="2.76525">
        <ele>75.3</ele>
        <time>2020-07-01T14:19:55Z</time>
      </trkpt>
      <trkpt lat="48.95147" lon="2.76518">
        <ele>75.3</ele>
        <time>2020-07-01T14:19:56Z</time>
      </trkpt>
      <trkpt lat="48.95146" lon="2.76511">
        <ele>75.4</ele>
        <time>2020-07-01T14:19:57Z</time>
      </trkpt>
      <trkpt lat="48.95144" lon="2.76504">
        <ele>75.5</ele>
        <time>2020-07-01T14:19:58Z</time>
      </trkpt>
      <trkpt lat="48.95143" lon="2.76498">
        <ele>75.6</ele>
        <time>2020-07-01T14:19:59Z</time>
      </trkpt>
      <trkpt lat="48.95141" lon="2.76492">
        <ele>75.7</ele>
        <time>2020-07-01T14:20:00Z</time>
      </trkpt>
      <trkpt lat="48.9514" lon="2.76486">
        <ele>75.7</ele>
        <time>2020-07-01T14:20:01Z</time>
      </trkpt>
      <trkpt lat="48.95139" lon="2.76479">
        <ele>75.7</ele>
        <time>2020-07-01T14:20:02Z</time>
      </trkpt>
      <trkpt lat="48.95137" lon="2.76472">
        <ele>75.7</ele>
        <time>2020-07-01T14:20:03Z</time>
      </trkpt>
      <trkpt lat="48.95135" lon="2.76465">
        <ele>75.6</ele>
        <time>2020-07-01T14:20:04Z</time>
      </trkpt>
      <trkpt lat="48.95134" lon="2.76457">
        <ele>75.6</ele>
        <time>2020-07-01T14:20:05Z</time>
      </trkpt>
      <trkpt lat="48.95133" lon="2.7645">
        <ele>75.5</ele>
        <time>2020-07-01T14:20:06Z</time>
      </trkpt>
      <trkpt lat="48.95131" lon="2.76442">
        <ele>75.4</ele>
        <time>2020-07-01T14:20:07Z</time>
      </trkpt>
      <trkpt lat="48.95129" lon="2.76435">
        <ele>75.4</ele>
        <time>2020-07-01T14:20:08Z</time>
      </trkpt>
      <trkpt lat="48.95128" lon="2.76427">
        <ele>75.4</ele>
        <time>2020-07-01T14:20:09Z</time>
      </trkpt>
      <trkpt lat="48.95126" lon="2.7642">
        <ele>75.4</ele>
        <time>2020-07-01T14:20:10Z</time>
      </trkpt>
      <trkpt lat="48.95124" lon="2.76413">
        <ele>75.4</ele>
        <time>2020-07-01T14:20:11Z</time>
      </trkpt>
      <trkpt lat="48.95123" lon="2.76406">
        <ele>75.4</ele>
        <time>2020-07-01T14:20:12Z</time>
      </trkpt>
      <trkpt lat="48.9512" lon="2.76397">
        <ele>75.4</ele>
        <time>2020-07-01T14:20:13Z</time>
      </trkpt>
      <trkpt lat="48.95119" lon="2.76389">
        <ele>75.4</ele>
        <time>2020-07-01T14:20:14Z</time>
      </trkpt>
      <trkpt lat="48.95118" lon="2.76381">
        <ele>75.5</ele>
        <time>2020-07-01T14:20:15Z</time>
      </trkpt>
      <trkpt lat="48.95116" lon="2.76374">
        <ele>75.5</ele>
        <time>2020-07-01T14:20:16Z</time>
      </trkpt>
      <trkpt lat="48.95114" lon="2.76366">
        <ele>75.5</ele>
        <time>2020-07-01T14:20:17Z</time>
      </trkpt>
      <trkpt lat="48.95113" lon="2.76359">
        <ele>75.6</ele>
        <time>2020-07-01T14:20:18Z</time>
      </trkpt>
      <trkpt lat="48.95111" lon="2.76352">
        <ele>75.6</ele>
        <time>2020-07-01T14:20:19Z</time>
      </trkpt>
      <trkpt lat="48.9511" lon="2.76345">
        <ele>75.7</ele>
        <time>2020-07-01T14:20:20Z</time>
      </trkpt>
      <trkpt lat="48.95108" lon="2.76339">
        <ele>75.8</ele>
        <time>2020-07-01T14:20:21Z</time>
      </trkpt>
      <trkpt lat="48.95106" lon="2.76331">
        <ele>76</ele>
        <time>2020-07-01T14:20:22Z</time>
      </trkpt>
      <trkpt lat="48.95105" lon="2.76324">
        <ele>76.2</ele>
        <time>2020-07-01T14:20:23Z</time>
      </trkpt>
      <trkpt lat="48.95103" lon="2.76318">
        <ele>76.4</ele>
        <time>2020-07-01T14:20:24Z</time>
      </trkpt>
      <trkpt lat="48.95102" lon="2.76311">
        <ele>76.6</ele>
        <time>2020-07-01T14:20:25Z</time>
      </trkpt>
      <trkpt lat="48.95101" lon="2.76305">
        <ele>76.8</ele>
        <time>2020-07-01T14:20:26Z</time>
      </trkpt>
      <trkpt lat="48.95099" lon="2.76299">
        <ele>77</ele>
        <time>2020-07-01T14:20:27Z</time>
      </trkpt>
      <trkpt lat="48.95098" lon="2.76293">
        <ele>77.1</ele>
        <time>2020-07-01T14:20:28Z</time>
      </trkpt>
      <trkpt lat="48.95096" lon="2.76287">
        <ele>77.2</ele>
        <time>2020-07-01T14:20:29Z</time>
      </trkpt>
      <trkpt lat="48.95094" lon="2.76281">
        <ele>77.2</ele>
        <time>2020-07-01T14:20:30Z</time>
      </trkpt>
      <trkpt lat="48.95093" lon="2.76276">
        <ele>77.3</ele>
        <time>2020-07-01T14:20:31Z</time>
      </trkpt>
      <trkpt lat="48.95092" lon="2.76271">
        <ele>77.3</ele>
        <time>2020-07-01T14:20:32Z</time>
      </trkpt>
      <trkpt lat="48.95091" lon="2.76265">
        <ele>77.3</ele>
        <time>2020-07-01T14:20:33Z</time>
      </trkpt>
      <trkpt lat="48.95089" lon="2.7626">
        <ele>77.3</ele>
        <time>2020-07-01T14:20:34Z</time>
      </trkpt>
      <trkpt lat="48.95088" lon="2.76255">
        <ele>77.4</ele>
        <time>2020-07-01T14:20:35Z</time>
      </trkpt>
      <trkpt lat="48.95087" lon="2.76249">
        <ele>77.5</ele>
        <time>2020-07-01T14:20:36Z</time>
      </trkpt>
      <trkpt lat="48.95086" lon="2.76244">
        <ele>77.5</ele>
        <time>2020-07-01T14:20:37Z</time>
      </trkpt>
      <trkpt lat="48.95085" lon="2.7624">
        <ele>77.6</ele>
        <time>2020-07-01T14:20:38Z</time>
      </trkpt>
      <trkpt lat="48.95083" lon="2.76234">
        <ele>77.7</ele>
        <time>2020-07-01T14:20:39Z</time>
      </trkpt>
      <trkpt lat="48.95083" lon="2.7623">
        <ele>77.7</ele>
        <time>2020-07-01T14:20:40Z</time>
      </trkpt>
      <trkpt lat="48.95082" lon="2.76225">
        <ele>77.8</ele>
        <time>2020-07-01T14:20:41Z</time>
      </trkpt>
      <trkpt lat="48.9508" lon="2.7622">
        <ele>77.9</ele>
        <time>2020-07-01T14:20:42Z</time>
      </trkpt>
      <trkpt lat="48.95079" lon="2.76214">
        <ele>78</ele>
        <time>2020-07-01T14:20:43Z</time>
      </trkpt>
      <trkpt lat="48.95078" lon="2.76213">
        <ele>78</ele>
        <time>2020-07-01T14:20:44Z</time>
      </trkpt>
      <trkpt lat="48.95077" lon="2.76208">
        <ele>78.1</ele>
        <time>2020-07-01T14:20:45Z</time>
      </trkpt>
      <trkpt lat="48.95077" lon="2.76207">
        <ele>78.2</ele>
        <time>2020-07-01T14:20:46Z</time>
      </trkpt>
      <trkpt lat="48.95077" lon="2.76202">
        <ele>78.4</ele>
        <time>2020-07-01T14:20:47Z</time>
      </trkpt>
      <trkpt lat="48.95076" lon="2.762">
        <ele>78.4</ele>
        <time>2020-07-01T14:20:48Z</time>
      </trkpt>
      <trkpt lat="48.95076" lon="2.76198">
        <ele>78.4</ele>
        <time>2020-07-01T14:20:49Z</time>
      </trkpt>
      <trkpt lat="48.95077" lon="2.76198">
        <ele>78.5</ele>
        <time>2020-07-01T14:20:50Z</time>
      </trkpt>
      <trkpt lat="48.95078" lon="2.76197">
        <ele>78.5</ele>
        <time>2020-07-01T14:20:51Z</time>
      </trkpt>
      <trkpt lat="48.95078" lon="2.76196">
        <ele>78.5</ele>
        <time>2020-07-01T14:20:52Z</time>
      </trkpt>
      <trkpt lat="48.95079" lon="2.76195">
        <ele>78.5</ele>
        <time>2020-07-01T14:20:53Z</time>
      </trkpt>
      <trkpt lat="48.9508" lon="2.76193">
        <ele>78.5</ele>
        <time>2020-07-01T14:20:54Z</time>
      </trkpt>
      <trkpt lat="48.9508" lon="2.76192">
        <ele>78.5</ele>
        <time>2020-07-01T14:20:55Z</time>
      </trkpt>
      <trkpt lat="48.95081" lon="2.76192">
        <ele>78.5</ele>
        <time>2020-07-01T14:20:56Z</time>
      </trkpt>
      <trkpt lat="48.95082" lon="2.76192">
        <ele>78.6</ele>
        <time>2020-07-01T14:20:57Z</time>
      </trkpt>
      <trkpt lat="48.95082" lon="2.76193">
        <ele>78.6</ele>
        <time>2020-07-01T14:20:58Z</time>
      </trkpt>
      <trkpt lat="48.95083" lon="2.76193">
        <ele>78.6</ele>
        <time>2020-07-01T14:20:59Z</time>
      </trkpt>
      <trkpt lat="48.95083" lon="2.76193">
        <ele>78.6</ele>
        <time>2020-07-01T14:21:00Z</time>
      </trkpt>
      <trkpt lat="48.95083" lon="2.76194">
        <ele>78.6</ele>
        <time>2020-07-01T14:21:01Z</time>
      </trkpt>
      <trkpt lat="48.95083" lon="2.76194">
        <ele>78.6</ele>
        <time>2020-07-01T14:21:02Z</time>
      </trkpt>
      <trkpt lat="48.95084" lon="2.76194">
        <ele>78.6</ele>
        <time>2020-07-01T14:21:03Z</time>
      </trkpt>
      <trkpt lat="48.95085" lon="2.76194">
        <ele>78.6</ele>
        <time>2020-07-01T14:21:04Z</time>
      </trkpt>
      <trkpt lat="48.95087" lon="2.76193">
        <ele>78.6</ele>
        <time>2020-07-01T14:21:05Z</time>
      </trkpt>
      <trkpt lat="48.95088" lon="2.76193">
        <ele>78.6</ele>
        <time>2020-07-01T14:21:06Z</time>
      </trkpt>
      <trkpt lat="48.95089" lon="2.76193">
        <ele>78.6</ele>
        <time>2020-07-01T14:21:07Z</time>
      </trkpt>
      <trkpt lat="48.9509" lon="2.76192">
        <ele>78.6</ele>
        <time>2020-07-01T14:21:29Z</time>
      </trkpt>
      <trkpt lat="48.95091" lon="2.76192">
        <ele>78.6</ele>
        <time>2020-07-01T14:21:30Z</time>
      </trkpt>
      <trkpt lat="48.95094" lon="2.7619">
        <ele>78.6</ele>
        <time>2020-07-01T14:21:31Z</time>
      </trkpt>
      <trkpt lat="48.95097" lon="2.76187">
        <ele>78.7</ele>
        <time>2020-07-01T14:21:32Z</time>
      </trkpt>
      <trkpt lat="48.95101" lon="2.76185">
        <ele>78.7</ele>
        <time>2020-07-01T14:21:33Z</time>
      </trkpt>
      <trkpt lat="48.95104" lon="2.76183">
        <ele>78.8</ele>
        <time>2020-07-01T14:21:34Z</time>
      </trkpt>
      <trkpt lat="48.95108" lon="2.76181">
        <ele>78.9</ele>
        <time>2020-07-01T14:21:35Z</time>
      </trkpt>
      <trkpt lat="48.95111" lon="2.7618">
        <ele>78.9</ele>
        <time>2020-07-01T14:21:36Z</time>
      </trkpt>
      <trkpt lat="48.95114" lon="2.76178">
        <ele>78.9</ele>
        <time>2020-07-01T14:21:37Z</time>
      </trkpt>
      <trkpt lat="48.95117" lon="2.76175">
        <ele>78.9</ele>
        <time>2020-07-01T14:21:38Z</time>
      </trkpt>
      <trkpt lat="48.9512" lon="2.76173">
        <ele>78.9</ele>
        <time>2020-07-01T14:21:39Z</time>
      </trkpt>
      <trkpt lat="48.95125" lon="2.76172">
        <ele>78.9</ele>
        <time>2020-07-01T14:21:40Z</time>
      </trkpt>
      <trkpt lat="48.95128" lon="2.7617">
        <ele>79</ele>
        <time>2020-07-01T14:21:41Z</time>
      </trkpt>
      <trkpt lat="48.95133" lon="2.76169">
        <ele>79</ele>
        <time>2020-07-01T14:21:42Z</time>
      </trkpt>
      <trkpt lat="48.95136" lon="2.76168">
        <ele>79.1</ele>
        <time>2020-07-01T14:21:43Z</time>
      </trkpt>
      <trkpt lat="48.9514" lon="2.76168">
        <ele>79.1</ele>
        <time>2020-07-01T14:21:44Z</time>
      </trkpt>
      <trkpt lat="48.95144" lon="2.76166">
        <ele>79.2</ele>
        <time>2020-07-01T14:21:45Z</time>
      </trkpt>
      <trkpt lat="48.95147" lon="2.76164">
        <ele>79.2</ele>
        <time>2020-07-01T14:21:46Z</time>
      </trkpt>
      <trkpt lat="48.9515" lon="2.76163">
        <ele>79.3</ele>
        <time>2020-07-01T14:21:47Z</time>
      </trkpt>
      <trkpt lat="48.95154" lon="2.76161">
        <ele>79.3</ele>
        <time>2020-07-01T14:21:48Z</time>
      </trkpt>
      <trkpt lat="48.95157" lon="2.76159">
        <ele>79.4</ele>
        <time>2020-07-01T14:21:49Z</time>
      </trkpt>
      <trkpt lat="48.95161" lon="2.76158">
        <ele>79.4</ele>
        <time>2020-07-01T14:21:50Z</time>
      </trkpt>
      <trkpt lat="48.95164" lon="2.76156">
        <ele>79.4</ele>
        <time>2020-07-01T14:21:51Z</time>
      </trkpt>
      <trkpt lat="48.95168" lon="2.76154">
        <ele>79.5</ele>
        <time>2020-07-01T14:21:52Z</time>
      </trkpt>
      <trkpt lat="48.95171" lon="2.76153">
        <ele>79.5</ele>
        <time>2020-07-01T14:21:53Z</time>
      </trkpt>
      <trkpt lat="48.95174" lon="2.7615">
        <ele>79.5</ele>
        <time>2020-07-01T14:21:54Z</time>
      </trkpt>
      <trkpt lat="48.95177" lon="2.76148">
        <ele>79.6</ele>
        <time>2020-07-01T14:21:55Z</time>
      </trkpt>
      <trkpt lat="48.9518" lon="2.76146">
        <ele>79.6</ele>
        <time>2020-07-01T14:21:56Z</time>
      </trkpt>
      <trkpt lat="48.95184" lon="2.76144">
        <ele>79.6</ele>
        <time>2020-07-01T14:21:57Z</time>
      </trkpt>
      <trkpt lat="48.95187" lon="2.76142">
        <ele>79.7</ele>
        <time>2020-07-01T14:21:58Z</time>
      </trkpt>
      <trkpt lat="48.95191" lon="2.76141">
        <ele>79.7</ele>
        <time>2020-07-01T14:21:59Z</time>
      </trkpt>
      <trkpt lat="48.95195" lon="2.76139">
        <ele>79.8</ele>
        <time>2020-07-01T14:22:00Z</time>
      </trkpt>
      <trkpt lat="48.95199" lon="2.76138">
        <ele>79.9</ele>
        <time>2020-07-01T14:22:01Z</time>
      </trkpt>
      <trkpt lat="48.95202" lon="2.76137">
        <ele>80</ele>
        <time>2020-07-01T14:22:02Z</time>
      </trkpt>
      <trkpt lat="48.95206" lon="2.76135">
        <ele>80.1</ele>
        <time>2020-07-01T14:22:03Z</time>
      </trkpt>
      <trkpt lat="48.95209" lon="2.76134">
        <ele>80.2</ele>
        <time>2020-07-01T14:22:04Z</time>
      </trkpt>
      <trkpt lat="48.95212" lon="2.76132">
        <ele>80.3</ele>
        <time>2020-07-01T14:22:05Z</time>
      </trkpt>
      <trkpt lat="48.95215" lon="2.76131">
        <ele>80.3</ele>
        <time>2020-07-01T14:22:06Z</time>
      </trkpt>
      <trkpt lat="48.95218" lon="2.76129">
        <ele>80.4</ele>
        <time>2020-07-01T14:22:07Z</time>
      </trkpt>
      <trkpt lat="48.95222" lon="2.76128">
        <ele>80.5</ele>
        <time>2020-07-01T14:22:08Z</time>
      </trkpt>
      <trkpt lat="48.95225" lon="2.76126">
        <ele>80.5</ele>
        <time>2020-07-01T14:22:09Z</time>
      </trkpt>
      <trkpt lat="48.95228" lon="2.76123">
        <ele>80.6</ele>
        <time>2020-07-01T14:22:10Z</time>
      </trkpt>
      <trkpt lat="48.95231" lon="2.7612">
        <ele>80.6</ele>
        <time>2020-07-01T14:22:11Z</time>
      </trkpt>
      <trkpt lat="48.95233" lon="2.76118">
        <ele>80.7</ele>
        <time>2020-07-01T14:22:12Z</time>
      </trkpt>
      <trkpt lat="48.95235" lon="2.76115">
        <ele>80.6</ele>
        <time>2020-07-01T14:22:13Z</time>
      </trkpt>
      <trkpt lat="48.95236" lon="2.76109">
        <ele>80.6</ele>
        <time>2020-07-01T14:22:14Z</time>
      </trkpt>
      <trkpt lat="48.95236" lon="2.76107">
        <ele>80.6</ele>
        <time>2020-07-01T14:22:15Z</time>
      </trkpt>
      <trkpt lat="48.95236" lon="2.76101">
        <ele>80.6</ele>
        <time>2020-07-01T14:22:16Z</time>
      </trkpt>
      <trkpt lat="48.95236" lon="2.76099">
        <ele>80.6</ele>
        <time>2020-07-01T14:22:17Z</time>
      </trkpt>
      <trkpt lat="48.95235" lon="2.76093">
        <ele>80.7</ele>
        <time>2020-07-01T14:22:18Z</time>
      </trkpt>
      <trkpt lat="48.95235" lon="2.76091">
        <ele>80.7</ele>
        <time>2020-07-01T14:22:19Z</time>
      </trkpt>
      <trkpt lat="48.95234" lon="2.76085">
        <ele>80.7</ele>
        <time>2020-07-01T14:22:20Z</time>
      </trkpt>
      <trkpt lat="48.95234" lon="2.76082">
        <ele>80.7</ele>
        <time>2020-07-01T14:22:21Z</time>
      </trkpt>
      <trkpt lat="48.95234" lon="2.76077">
        <ele>80.8</ele>
        <time>2020-07-01T14:22:22Z</time>
      </trkpt>
      <trkpt lat="48.95233" lon="2.76072">
        <ele>80.8</ele>
        <time>2020-07-01T14:22:23Z</time>
      </trkpt>
      <trkpt lat="48.95232" lon="2.76066">
        <ele>80.9</ele>
        <time>2020-07-01T14:22:24Z</time>
      </trkpt>
      <trkpt lat="48.95232" lon="2.76064">
        <ele>80.9</ele>
        <time>2020-07-01T14:22:25Z</time>
      </trkpt>
      <trkpt lat="48.95232" lon="2.7606">
        <ele>80.9</ele>
        <time>2020-07-01T14:22:26Z</time>
      </trkpt>
      <trkpt lat="48.95232" lon="2.76054">
        <ele>80.9</ele>
        <time>2020-07-01T14:22:27Z</time>
      </trkpt>
      <trkpt lat="48.95232" lon="2.7605">
        <ele>80.9</ele>
        <time>2020-07-01T14:22:28Z</time>
      </trkpt>
      <trkpt lat="48.95231" lon="2.76045">
        <ele>81</ele>
        <time>2020-07-01T14:22:29Z</time>
      </trkpt>
      <trkpt lat="48.95231" lon="2.7604">
        <ele>81</ele>
        <time>2020-07-01T14:22:30Z</time>
      </trkpt>
      <trkpt lat="48.9523" lon="2.76038">
        <ele>81</ele>
        <time>2020-07-01T14:22:31Z</time>
      </trkpt>
      <trkpt lat="48.9523" lon="2.76032">
        <ele>81</ele>
        <time>2020-07-01T14:22:32Z</time>
      </trkpt>
      <trkpt lat="48.9523" lon="2.7603">
        <ele>81</ele>
        <time>2020-07-01T14:22:33Z</time>
      </trkpt>
      <trkpt lat="48.9523" lon="2.76025">
        <ele>81</ele>
        <time>2020-07-01T14:22:34Z</time>
      </trkpt>
      <trkpt lat="48.9523" lon="2.76019">
        <ele>81</ele>
        <time>2020-07-01T14:22:35Z</time>
      </trkpt>
      <trkpt lat="48.95228" lon="2.76013">
        <ele>81</ele>
        <time>2020-07-01T14:22:36Z</time>
      </trkpt>
      <trkpt lat="48.95228" lon="2.76008">
        <ele>81</ele>
        <time>2020-07-01T14:22:37Z</time>
      </trkpt>
      <trkpt lat="48.95228" lon="2.76003">
        <ele>81</ele>
        <time>2020-07-01T14:22:38Z</time>
      </trkpt>
      <trkpt lat="48.95227" lon="2.75998">
        <ele>81</ele>
        <time>2020-07-01T14:22:39Z</time>
      </trkpt>
      <trkpt lat="48.95226" lon="2.75992">
        <ele>81</ele>
        <time>2020-07-01T14:22:40Z</time>
      </trkpt>
      <trkpt lat="48.95226" lon="2.7599">
        <ele>81</ele>
        <time>2020-07-01T14:22:41Z</time>
      </trkpt>
      <trkpt lat="48.95225" lon="2.75985">
        <ele>81</ele>
        <time>2020-07-01T14:22:42Z</time>
      </trkpt>
      <trkpt lat="48.95225" lon="2.75979">
        <ele>81</ele>
        <time>2020-07-01T14:22:43Z</time>
      </trkpt>
      <trkpt lat="48.95225" lon="2.75974">
        <ele>81</ele>
        <time>2020-07-01T14:22:44Z</time>
      </trkpt>
      <trkpt lat="48.95224" lon="2.75969">
        <ele>81</ele>
        <time>2020-07-01T14:22:45Z</time>
      </trkpt>
      <trkpt lat="48.95223" lon="2.75963">
        <ele>81</ele>
        <time>2020-07-01T14:22:46Z</time>
      </trkpt>
      <trkpt lat="48.95223" lon="2.75956">
        <ele>81.1</ele>
        <time>2020-07-01T14:22:47Z</time>
      </trkpt>
      <trkpt lat="48.95223" lon="2.75951">
        <ele>81.1</ele>
        <time>2020-07-01T14:22:48Z</time>
      </trkpt>
      <trkpt lat="48.95222" lon="2.75946">
        <ele>81.2</ele>
        <time>2020-07-01T14:22:49Z</time>
      </trkpt>
      <trkpt lat="48.95222" lon="2.7594">
        <ele>81.2</ele>
        <time>2020-07-01T14:22:50Z</time>
      </trkpt>
      <trkpt lat="48.95222" lon="2.75936">
        <ele>81.3</ele>
        <time>2020-07-01T14:22:51Z</time>
      </trkpt>
      <trkpt lat="48.95221" lon="2.75931">
        <ele>81.3</ele>
        <time>2020-07-01T14:22:52Z</time>
      </trkpt>
      <trkpt lat="48.95221" lon="2.75926">
        <ele>81.3</ele>
        <time>2020-07-01T14:22:53Z</time>
      </trkpt>
      <trkpt lat="48.9522" lon="2.7592">
        <ele>81.4</ele>
        <time>2020-07-01T14:22:54Z</time>
      </trkpt>
      <trkpt lat="48.9522" lon="2.75915">
        <ele>81.4</ele>
        <time>2020-07-01T14:22:55Z</time>
      </trkpt>
      <trkpt lat="48.9522" lon="2.75909">
        <ele>81.4</ele>
        <time>2020-07-01T14:22:56Z</time>
      </trkpt>
      <trkpt lat="48.95219" lon="2.75904">
        <ele>81.4</ele>
        <time>2020-07-01T14:22:57Z</time>
      </trkpt>
      <trkpt lat="48.95219" lon="2.75898">
        <ele>81.5</ele>
        <time>2020-07-01T14:22:58Z</time>
      </trkpt>
      <trkpt lat="48.95219" lon="2.75892">
        <ele>81.6</ele>
        <time>2020-07-01T14:22:59Z</time>
      </trkpt>
      <trkpt lat="48.95219" lon="2.75887">
        <ele>81.7</ele>
        <time>2020-07-01T14:23:00Z</time>
      </trkpt>
      <trkpt lat="48.95219" lon="2.75882">
        <ele>81.8</ele>
        <time>2020-07-01T14:23:01Z</time>
      </trkpt>
      <trkpt lat="48.95219" lon="2.75877">
        <ele>81.9</ele>
        <time>2020-07-01T14:23:02Z</time>
      </trkpt>
      <trkpt lat="48.95219" lon="2.75871">
        <ele>82.1</ele>
        <time>2020-07-01T14:23:03Z</time>
      </trkpt>
      <trkpt lat="48.95219" lon="2.75866">
        <ele>82.2</ele>
        <time>2020-07-01T14:23:04Z</time>
      </trkpt>
      <trkpt lat="48.95218" lon="2.75862">
        <ele>82.3</ele>
        <time>2020-07-01T14:23:05Z</time>
      </trkpt>
      <trkpt lat="48.95218" lon="2.75855">
        <ele>82.3</ele>
        <time>2020-07-01T14:23:06Z</time>
      </trkpt>
      <trkpt lat="48.95217" lon="2.75853">
        <ele>82.4</ele>
        <time>2020-07-01T14:23:07Z</time>
      </trkpt>
      <trkpt lat="48.95217" lon="2.75847">
        <ele>82.4</ele>
        <time>2020-07-01T14:23:08Z</time>
      </trkpt>
      <trkpt lat="48.95217" lon="2.75841">
        <ele>82.4</ele>
        <time>2020-07-01T14:23:09Z</time>
      </trkpt>
      <trkpt lat="48.95217" lon="2.75836">
        <ele>82.4</ele>
        <time>2020-07-01T14:23:10Z</time>
      </trkpt>
      <trkpt lat="48.95216" lon="2.7583">
        <ele>82.4</ele>
        <time>2020-07-01T14:23:11Z</time>
      </trkpt>
      <trkpt lat="48.95216" lon="2.75825">
        <ele>82.4</ele>
        <time>2020-07-01T14:23:12Z</time>
      </trkpt>
      <trkpt lat="48.95215" lon="2.7582">
        <ele>82.4</ele>
        <time>2020-07-01T14:23:13Z</time>
      </trkpt>
      <trkpt lat="48.95215" lon="2.75815">
        <ele>82.4</ele>
        <time>2020-07-01T14:23:14Z</time>
      </trkpt>
      <trkpt lat="48.95214" lon="2.7581">
        <ele>82.5</ele>
        <time>2020-07-01T14:23:15Z</time>
      </trkpt>
      <trkpt lat="48.95213" lon="2.75804">
        <ele>82.6</ele>
        <time>2020-07-01T14:23:16Z</time>
      </trkpt>
      <trkpt lat="48.95213" lon="2.75799">
        <ele>82.6</ele>
        <time>2020-07-01T14:23:17Z</time>
      </trkpt>
      <trkpt lat="48.95213" lon="2.75793">
        <ele>82.8</ele>
        <time>2020-07-01T14:23:18Z</time>
      </trkpt>
      <trkpt lat="48.95213" lon="2.75788">
        <ele>82.9</ele>
        <time>2020-07-01T14:23:19Z</time>
      </trkpt>
      <trkpt lat="48.95214" lon="2.75782">
        <ele>83</ele>
        <time>2020-07-01T14:23:20Z</time>
      </trkpt>
      <trkpt lat="48.95213" lon="2.75777">
        <ele>83</ele>
        <time>2020-07-01T14:23:21Z</time>
      </trkpt>
      <trkpt lat="48.95213" lon="2.75771">
        <ele>83.1</ele>
        <time>2020-07-01T14:23:22Z</time>
      </trkpt>
      <trkpt lat="48.95213" lon="2.75765">
        <ele>83.1</ele>
        <time>2020-07-01T14:23:23Z</time>
      </trkpt>
      <trkpt lat="48.95213" lon="2.75758">
        <ele>83.2</ele>
        <time>2020-07-01T14:23:24Z</time>
      </trkpt>
      <trkpt lat="48.95212" lon="2.75753">
        <ele>83.2</ele>
        <time>2020-07-01T14:23:25Z</time>
      </trkpt>
      <trkpt lat="48.95212" lon="2.75747">
        <ele>83.2</ele>
        <time>2020-07-01T14:23:26Z</time>
      </trkpt>
      <trkpt lat="48.95212" lon="2.75742">
        <ele>83.3</ele>
        <time>2020-07-01T14:23:27Z</time>
      </trkpt>
      <trkpt lat="48.95211" lon="2.75736">
        <ele>83.4</ele>
        <time>2020-07-01T14:23:28Z</time>
      </trkpt>
      <trkpt lat="48.95211" lon="2.75731">
        <ele>83.5</ele>
        <time>2020-07-01T14:23:29Z</time>
      </trkpt>
      <trkpt lat="48.95211" lon="2.75726">
        <ele>83.6</ele>
        <time>2020-07-01T14:23:30Z</time>
      </trkpt>
      <trkpt lat="48.9521" lon="2.75721">
        <ele>83.7</ele>
        <time>2020-07-01T14:23:31Z</time>
      </trkpt>
      <trkpt lat="48.9521" lon="2.75716">
        <ele>83.8</ele>
        <time>2020-07-01T14:23:32Z</time>
      </trkpt>
      <trkpt lat="48.9521" lon="2.75712">
        <ele>83.9</ele>
        <time>2020-07-01T14:23:33Z</time>
      </trkpt>
      <trkpt lat="48.9521" lon="2.75707">
        <ele>84</ele>
        <time>2020-07-01T14:23:34Z</time>
      </trkpt>
      <trkpt lat="48.9521" lon="2.75702">
        <ele>84</ele>
        <time>2020-07-01T14:23:35Z</time>
      </trkpt>
      <trkpt lat="48.9521" lon="2.75697">
        <ele>84.1</ele>
        <time>2020-07-01T14:23:36Z</time>
      </trkpt>
      <trkpt lat="48.95209" lon="2.75692">
        <ele>84.1</ele>
        <time>2020-07-01T14:23:37Z</time>
      </trkpt>
      <trkpt lat="48.95208" lon="2.75686">
        <ele>84.1</ele>
        <time>2020-07-01T14:23:38Z</time>
      </trkpt>
      <trkpt lat="48.95208" lon="2.75681">
        <ele>84.1</ele>
        <time>2020-07-01T14:23:39Z</time>
      </trkpt>
      <trkpt lat="48.95208" lon="2.75675">
        <ele>84.1</ele>
        <time>2020-07-01T14:23:40Z</time>
      </trkpt>
      <trkpt lat="48.95208" lon="2.7567">
        <ele>84.2</ele>
        <time>2020-07-01T14:23:41Z</time>
      </trkpt>
      <trkpt lat="48.95208" lon="2.75665">
        <ele>84.2</ele>
        <time>2020-07-01T14:23:42Z</time>
      </trkpt>
      <trkpt lat="48.95207" lon="2.7566">
        <ele>84.2</ele>
        <time>2020-07-01T14:23:43Z</time>
      </trkpt>
      <trkpt lat="48.95207" lon="2.75655">
        <ele>84.2</ele>
        <time>2020-07-01T14:23:44Z</time>
      </trkpt>
      <trkpt lat="48.95206" lon="2.7565">
        <ele>84.3</ele>
        <time>2020-07-01T14:23:45Z</time>
      </trkpt>
      <trkpt lat="48.95206" lon="2.75645">
        <ele>84.3</ele>
        <time>2020-07-01T14:23:46Z</time>
      </trkpt>
      <trkpt lat="48.95206" lon="2.7564">
        <ele>84.4</ele>
        <time>2020-07-01T14:23:47Z</time>
      </trkpt>
      <trkpt lat="48.95205" lon="2.75635">
        <ele>84.4</ele>
        <time>2020-07-01T14:23:48Z</time>
      </trkpt>
      <trkpt lat="48.95205" lon="2.7563">
        <ele>84.5</ele>
        <time>2020-07-01T14:23:49Z</time>
      </trkpt>
      <trkpt lat="48.95205" lon="2.75625">
        <ele>84.5</ele>
        <time>2020-07-01T14:23:50Z</time>
      </trkpt>
      <trkpt lat="48.95204" lon="2.7562">
        <ele>84.6</ele>
        <time>2020-07-01T14:23:51Z</time>
      </trkpt>
      <trkpt lat="48.95204" lon="2.75614">
        <ele>84.6</ele>
        <time>2020-07-01T14:23:52Z</time>
      </trkpt>
      <trkpt lat="48.95203" lon="2.75609">
        <ele>84.7</ele>
        <time>2020-07-01T14:23:53Z</time>
      </trkpt>
      <trkpt lat="48.95203" lon="2.75602">
        <ele>84.8</ele>
        <time>2020-07-01T14:23:54Z</time>
      </trkpt>
      <trkpt lat="48.95203" lon="2.75595">
        <ele>84.8</ele>
        <time>2020-07-01T14:23:55Z</time>
      </trkpt>
      <trkpt lat="48.95203" lon="2.7559">
        <ele>84.8</ele>
        <time>2020-07-01T14:23:56Z</time>
      </trkpt>
      <trkpt lat="48.95203" lon="2.75584">
        <ele>84.8</ele>
        <time>2020-07-01T14:23:57Z</time>
      </trkpt>
      <trkpt lat="48.95203" lon="2.75577">
        <ele>84.8</ele>
        <time>2020-07-01T14:23:58Z</time>
      </trkpt>
      <trkpt lat="48.95202" lon="2.75572">
        <ele>84.8</ele>
        <time>2020-07-01T14:23:59Z</time>
      </trkpt>
      <trkpt lat="48.95203" lon="2.75567">
        <ele>84.8</ele>
        <time>2020-07-01T14:24:00Z</time>
      </trkpt>
      <trkpt lat="48.95202" lon="2.75561">
        <ele>84.8</ele>
        <time>2020-07-01T14:24:01Z</time>
      </trkpt>
      <trkpt lat="48.95203" lon="2.75556">
        <ele>84.8</ele>
        <time>2020-07-01T14:24:02Z</time>
      </trkpt>
      <trkpt lat="48.95203" lon="2.7555">
        <ele>84.8</ele>
        <time>2020-07-01T14:24:03Z</time>
      </trkpt>
      <trkpt lat="48.95203" lon="2.75544">
        <ele>84.8</ele>
        <time>2020-07-01T14:24:04Z</time>
      </trkpt>
      <trkpt lat="48.95202" lon="2.75538">
        <ele>84.8</ele>
        <time>2020-07-01T14:24:05Z</time>
      </trkpt>
      <trkpt lat="48.95202" lon="2.75532">
        <ele>84.8</ele>
        <time>2020-07-01T14:24:06Z</time>
      </trkpt>
      <trkpt lat="48.95201" lon="2.75526">
        <ele>84.8</ele>
        <time>2020-07-01T14:24:07Z</time>
      </trkpt>
      <trkpt lat="48.95201" lon="2.75519">
        <ele>84.8</ele>
        <time>2020-07-01T14:24:08Z</time>
      </trkpt>
      <trkpt lat="48.952" lon="2.75513">
        <ele>84.9</ele>
        <time>2020-07-01T14:24:09Z</time>
      </trkpt>
      <trkpt lat="48.952" lon="2.75507">
        <ele>84.9</ele>
        <time>2020-07-01T14:24:10Z</time>
      </trkpt>
      <trkpt lat="48.95199" lon="2.75501">
        <ele>84.9</ele>
        <time>2020-07-01T14:24:11Z</time>
      </trkpt>
      <trkpt lat="48.95199" lon="2.75496">
        <ele>84.9</ele>
        <time>2020-07-01T14:24:12Z</time>
      </trkpt>
      <trkpt lat="48.95198" lon="2.75489">
        <ele>84.9</ele>
        <time>2020-07-01T14:24:13Z</time>
      </trkpt>
      <trkpt lat="48.95198" lon="2.75483">
        <ele>84.9</ele>
        <time>2020-07-01T14:24:14Z</time>
      </trkpt>
      <trkpt lat="48.95198" lon="2.75477">
        <ele>84.9</ele>
        <time>2020-07-01T14:24:15Z</time>
      </trkpt>
      <trkpt lat="48.95197" lon="2.75471">
        <ele>84.9</ele>
        <time>2020-07-01T14:24:16Z</time>
      </trkpt>
      <trkpt lat="48.95197" lon="2.75465">
        <ele>84.9</ele>
        <time>2020-07-01T14:24:17Z</time>
      </trkpt>
      <trkpt lat="48.95197" lon="2.75459">
        <ele>84.9</ele>
        <time>2020-07-01T14:24:18Z</time>
      </trkpt>
      <trkpt lat="48.95197" lon="2.75454">
        <ele>84.9</ele>
        <time>2020-07-01T14:24:19Z</time>
      </trkpt>
      <trkpt lat="48.95197" lon="2.75447">
        <ele>84.9</ele>
        <time>2020-07-01T14:24:20Z</time>
      </trkpt>
      <trkpt lat="48.95197" lon="2.75441">
        <ele>84.9</ele>
        <time>2020-07-01T14:24:21Z</time>
      </trkpt>
      <trkpt lat="48.95196" lon="2.75434">
        <ele>84.9</ele>
        <time>2020-07-01T14:24:22Z</time>
      </trkpt>
      <trkpt lat="48.95195" lon="2.75428">
        <ele>84.9</ele>
        <time>2020-07-01T14:24:23Z</time>
      </trkpt>
      <trkpt lat="48.95194" lon="2.75422">
        <ele>84.9</ele>
        <time>2020-07-01T14:24:24Z</time>
      </trkpt>
      <trkpt lat="48.95194" lon="2.75417">
        <ele>85</ele>
        <time>2020-07-01T14:24:25Z</time>
      </trkpt>
      <trkpt lat="48.95193" lon="2.75411">
        <ele>85</ele>
        <time>2020-07-01T14:24:26Z</time>
      </trkpt>
      <trkpt lat="48.95193" lon="2.75407">
        <ele>85.1</ele>
        <time>2020-07-01T14:24:27Z</time>
      </trkpt>
      <trkpt lat="48.95193" lon="2.75403">
        <ele>85.1</ele>
        <time>2020-07-01T14:24:28Z</time>
      </trkpt>
      <trkpt lat="48.95192" lon="2.75397">
        <ele>85.2</ele>
        <time>2020-07-01T14:24:29Z</time>
      </trkpt>
      <trkpt lat="48.95192" lon="2.75391">
        <ele>85.3</ele>
        <time>2020-07-01T14:24:30Z</time>
      </trkpt>
      <trkpt lat="48.95191" lon="2.75385">
        <ele>85.3</ele>
        <time>2020-07-01T14:24:31Z</time>
      </trkpt>
      <trkpt lat="48.95191" lon="2.75378">
        <ele>85.4</ele>
        <time>2020-07-01T14:24:32Z</time>
      </trkpt>
      <trkpt lat="48.95191" lon="2.75372">
        <ele>85.5</ele>
        <time>2020-07-01T14:24:33Z</time>
      </trkpt>
      <trkpt lat="48.9519" lon="2.75365">
        <ele>85.5</ele>
        <time>2020-07-01T14:24:34Z</time>
      </trkpt>
      <trkpt lat="48.9519" lon="2.75359">
        <ele>85.6</ele>
        <time>2020-07-01T14:24:35Z</time>
      </trkpt>
      <trkpt lat="48.9519" lon="2.75354">
        <ele>85.6</ele>
        <time>2020-07-01T14:24:36Z</time>
      </trkpt>
      <trkpt lat="48.9519" lon="2.75348">
        <ele>85.6</ele>
        <time>2020-07-01T14:24:37Z</time>
      </trkpt>
      <trkpt lat="48.9519" lon="2.75341">
        <ele>85.6</ele>
        <time>2020-07-01T14:24:38Z</time>
      </trkpt>
      <trkpt lat="48.9519" lon="2.75335">
        <ele>85.6</ele>
        <time>2020-07-01T14:24:39Z</time>
      </trkpt>
      <trkpt lat="48.95189" lon="2.7533">
        <ele>85.6</ele>
        <time>2020-07-01T14:24:40Z</time>
      </trkpt>
      <trkpt lat="48.95189" lon="2.75324">
        <ele>85.6</ele>
        <time>2020-07-01T14:24:41Z</time>
      </trkpt>
      <trkpt lat="48.95188" lon="2.75319">
        <ele>85.6</ele>
        <time>2020-07-01T14:24:42Z</time>
      </trkpt>
      <trkpt lat="48.95188" lon="2.75313">
        <ele>85.6</ele>
        <time>2020-07-01T14:24:43Z</time>
      </trkpt>
      <trkpt lat="48.95188" lon="2.75307">
        <ele>85.6</ele>
        <time>2020-07-01T14:24:44Z</time>
      </trkpt>
      <trkpt lat="48.95187" lon="2.753">
        <ele>85.6</ele>
        <time>2020-07-01T14:24:45Z</time>
      </trkpt>
      <trkpt lat="48.95187" lon="2.75294">
        <ele>85.6</ele>
        <time>2020-07-01T14:24:46Z</time>
      </trkpt>
      <trkpt lat="48.95187" lon="2.75288">
        <ele>85.6</ele>
        <time>2020-07-01T14:24:47Z</time>
      </trkpt>
      <trkpt lat="48.95187" lon="2.75282">
        <ele>85.6</ele>
        <time>2020-07-01T14:24:48Z</time>
      </trkpt>
      <trkpt lat="48.95186" lon="2.75275">
        <ele>85.6</ele>
        <time>2020-07-01T14:24:49Z</time>
      </trkpt>
      <trkpt lat="48.95186" lon="2.75269">
        <ele>85.6</ele>
        <time>2020-07-01T14:24:50Z</time>
      </trkpt>
      <trkpt lat="48.95185" lon="2.75262">
        <ele>85.6</ele>
        <time>2020-07-01T14:24:51Z</time>
      </trkpt>
      <trkpt lat="48.95185" lon="2.75256">
        <ele>85.7</ele>
        <time>2020-07-01T14:24:52Z</time>
      </trkpt>
      <trkpt lat="48.95185" lon="2.75249">
        <ele>85.7</ele>
        <time>2020-07-01T14:24:53Z</time>
      </trkpt>
      <trkpt lat="48.95184" lon="2.75243">
        <ele>85.8</ele>
        <time>2020-07-01T14:24:54Z</time>
      </trkpt>
      <trkpt lat="48.95183" lon="2.75236">
        <ele>85.8</ele>
        <time>2020-07-01T14:24:55Z</time>
      </trkpt>
      <trkpt lat="48.95183" lon="2.7523">
        <ele>85.9</ele>
        <time>2020-07-01T14:24:56Z</time>
      </trkpt>
      <trkpt lat="48.95183" lon="2.75223">
        <ele>85.9</ele>
        <time>2020-07-01T14:24:57Z</time>
      </trkpt>
      <trkpt lat="48.95182" lon="2.75217">
        <ele>85.9</ele>
        <time>2020-07-01T14:24:58Z</time>
      </trkpt>
      <trkpt lat="48.95181" lon="2.7521">
        <ele>85.9</ele>
        <time>2020-07-01T14:24:59Z</time>
      </trkpt>
      <trkpt lat="48.95181" lon="2.75204">
        <ele>85.9</ele>
        <time>2020-07-01T14:25:00Z</time>
      </trkpt>
      <trkpt lat="48.95181" lon="2.75198">
        <ele>85.9</ele>
        <time>2020-07-01T14:25:01Z</time>
      </trkpt>
      <trkpt lat="48.9518" lon="2.75191">
        <ele>85.8</ele>
        <time>2020-07-01T14:25:02Z</time>
      </trkpt>
      <trkpt lat="48.95179" lon="2.75184">
        <ele>85.8</ele>
        <time>2020-07-01T14:25:03Z</time>
      </trkpt>
      <trkpt lat="48.95178" lon="2.75178">
        <ele>85.7</ele>
        <time>2020-07-01T14:25:04Z</time>
      </trkpt>
      <trkpt lat="48.95178" lon="2.75171">
        <ele>85.7</ele>
        <time>2020-07-01T14:25:05Z</time>
      </trkpt>
      <trkpt lat="48.95177" lon="2.75165">
        <ele>85.7</ele>
        <time>2020-07-01T14:25:06Z</time>
      </trkpt>
      <trkpt lat="48.95177" lon="2.75158">
        <ele>85.7</ele>
        <time>2020-07-01T14:25:07Z</time>
      </trkpt>
      <trkpt lat="48.95177" lon="2.75151">
        <ele>85.7</ele>
        <time>2020-07-01T14:25:08Z</time>
      </trkpt>
      <trkpt lat="48.95176" lon="2.75143">
        <ele>85.8</ele>
        <time>2020-07-01T14:25:09Z</time>
      </trkpt>
      <trkpt lat="48.95177" lon="2.75136">
        <ele>85.8</ele>
        <time>2020-07-01T14:25:10Z</time>
      </trkpt>
      <trkpt lat="48.95177" lon="2.75129">
        <ele>85.9</ele>
        <time>2020-07-01T14:25:11Z</time>
      </trkpt>
      <trkpt lat="48.95177" lon="2.75122">
        <ele>86</ele>
        <time>2020-07-01T14:25:12Z</time>
      </trkpt>
      <trkpt lat="48.95176" lon="2.75116">
        <ele>86.1</ele>
        <time>2020-07-01T14:25:13Z</time>
      </trkpt>
      <trkpt lat="48.95176" lon="2.7511">
        <ele>86.2</ele>
        <time>2020-07-01T14:25:14Z</time>
      </trkpt>
      <trkpt lat="48.95175" lon="2.75104">
        <ele>86.2</ele>
        <time>2020-07-01T14:25:15Z</time>
      </trkpt>
      <trkpt lat="48.95174" lon="2.75098">
        <ele>86.3</ele>
        <time>2020-07-01T14:25:16Z</time>
      </trkpt>
      <trkpt lat="48.95174" lon="2.75091">
        <ele>86.3</ele>
        <time>2020-07-01T14:25:17Z</time>
      </trkpt>
      <trkpt lat="48.95173" lon="2.75085">
        <ele>86.3</ele>
        <time>2020-07-01T14:25:18Z</time>
      </trkpt>
      <trkpt lat="48.95172" lon="2.75079">
        <ele>86.3</ele>
        <time>2020-07-01T14:25:19Z</time>
      </trkpt>
      <trkpt lat="48.95171" lon="2.75073">
        <ele>86.2</ele>
        <time>2020-07-01T14:25:20Z</time>
      </trkpt>
      <trkpt lat="48.95171" lon="2.75065">
        <ele>86.2</ele>
        <time>2020-07-01T14:25:21Z</time>
      </trkpt>
      <trkpt lat="48.9517" lon="2.75059">
        <ele>86.2</ele>
        <time>2020-07-01T14:25:22Z</time>
      </trkpt>
      <trkpt lat="48.9517" lon="2.75052">
        <ele>86.2</ele>
        <time>2020-07-01T14:25:23Z</time>
      </trkpt>
      <trkpt lat="48.95169" lon="2.75045">
        <ele>86.1</ele>
        <time>2020-07-01T14:25:24Z</time>
      </trkpt>
      <trkpt lat="48.95169" lon="2.7504">
        <ele>86</ele>
        <time>2020-07-01T14:25:25Z</time>
      </trkpt>
      <trkpt lat="48.95168" lon="2.75033">
        <ele>85.9</ele>
        <time>2020-07-01T14:25:26Z</time>
      </trkpt>
      <trkpt lat="48.95168" lon="2.75027">
        <ele>85.8</ele>
        <time>2020-07-01T14:25:27Z</time>
      </trkpt>
      <trkpt lat="48.95167" lon="2.7502">
        <ele>85.7</ele>
        <time>2020-07-01T14:25:28Z</time>
      </trkpt>
      <trkpt lat="48.95167" lon="2.75012">
        <ele>85.6</ele>
        <time>2020-07-01T14:25:29Z</time>
      </trkpt>
      <trkpt lat="48.95166" lon="2.75005">
        <ele>85.6</ele>
        <time>2020-07-01T14:25:30Z</time>
      </trkpt>
      <trkpt lat="48.95165" lon="2.74998">
        <ele>85.6</ele>
        <time>2020-07-01T14:25:31Z</time>
      </trkpt>
      <trkpt lat="48.95165" lon="2.74991">
        <ele>85.6</ele>
        <time>2020-07-01T14:25:32Z</time>
      </trkpt>
      <trkpt lat="48.95164" lon="2.74984">
        <ele>85.6</ele>
        <time>2020-07-01T14:25:33Z</time>
      </trkpt>
      <trkpt lat="48.95163" lon="2.74977">
        <ele>85.6</ele>
        <time>2020-07-01T14:25:34Z</time>
      </trkpt>
      <trkpt lat="48.95163" lon="2.74969">
        <ele>85.6</ele>
        <time>2020-07-01T14:25:35Z</time>
      </trkpt>
      <trkpt lat="48.95164" lon="2.74963">
        <ele>85.6</ele>
        <time>2020-07-01T14:25:36Z</time>
      </trkpt>
      <trkpt lat="48.95163" lon="2.74955">
        <ele>85.6</ele>
        <time>2020-07-01T14:25:37Z</time>
      </trkpt>
      <trkpt lat="48.95162" lon="2.74948">
        <ele>85.6</ele>
        <time>2020-07-01T14:25:38Z</time>
      </trkpt>
      <trkpt lat="48.95162" lon="2.74942">
        <ele>85.7</ele>
        <time>2020-07-01T14:25:39Z</time>
      </trkpt>
      <trkpt lat="48.95163" lon="2.74935">
        <ele>85.7</ele>
        <time>2020-07-01T14:25:40Z</time>
      </trkpt>
      <trkpt lat="48.95163" lon="2.74928">
        <ele>85.7</ele>
        <time>2020-07-01T14:25:41Z</time>
      </trkpt>
      <trkpt lat="48.95163" lon="2.74921">
        <ele>85.7</ele>
        <time>2020-07-01T14:25:42Z</time>
      </trkpt>
      <trkpt lat="48.95162" lon="2.74915">
        <ele>85.7</ele>
        <time>2020-07-01T14:25:43Z</time>
      </trkpt>
      <trkpt lat="48.95163" lon="2.74908">
        <ele>85.7</ele>
        <time>2020-07-01T14:25:44Z</time>
      </trkpt>
      <trkpt lat="48.95162" lon="2.74903">
        <ele>85.7</ele>
        <time>2020-07-01T14:25:45Z</time>
      </trkpt>
      <trkpt lat="48.95162" lon="2.74898">
        <ele>85.6</ele>
        <time>2020-07-01T14:25:46Z</time>
      </trkpt>
      <trkpt lat="48.95162" lon="2.74892">
        <ele>85.6</ele>
        <time>2020-07-01T14:25:47Z</time>
      </trkpt>
      <trkpt lat="48.95161" lon="2.74887">
        <ele>85.6</ele>
        <time>2020-07-01T14:25:48Z</time>
      </trkpt>
      <trkpt lat="48.95162" lon="2.74881">
        <ele>85.6</ele>
        <time>2020-07-01T14:25:49Z</time>
      </trkpt>
      <trkpt lat="48.95161" lon="2.74875">
        <ele>85.6</ele>
        <time>2020-07-01T14:25:50Z</time>
      </trkpt>
      <trkpt lat="48.95161" lon="2.74869">
        <ele>85.6</ele>
        <time>2020-07-01T14:25:51Z</time>
      </trkpt>
      <trkpt lat="48.95161" lon="2.74863">
        <ele>85.6</ele>
        <time>2020-07-01T14:25:52Z</time>
      </trkpt>
      <trkpt lat="48.95161" lon="2.74855">
        <ele>85.6</ele>
        <time>2020-07-01T14:25:53Z</time>
      </trkpt>
      <trkpt lat="48.95162" lon="2.74849">
        <ele>85.6</ele>
        <time>2020-07-01T14:25:54Z</time>
      </trkpt>
      <trkpt lat="48.95161" lon="2.74841">
        <ele>85.6</ele>
        <time>2020-07-01T14:25:55Z</time>
      </trkpt>
      <trkpt lat="48.95161" lon="2.74835">
        <ele>85.6</ele>
        <time>2020-07-01T14:25:56Z</time>
      </trkpt>
      <trkpt lat="48.9516" lon="2.74828">
        <ele>85.6</ele>
        <time>2020-07-01T14:25:57Z</time>
      </trkpt>
      <trkpt lat="48.9516" lon="2.74822">
        <ele>85.5</ele>
        <time>2020-07-01T14:25:58Z</time>
      </trkpt>
      <trkpt lat="48.95159" lon="2.74816">
        <ele>85.5</ele>
        <time>2020-07-01T14:25:59Z</time>
      </trkpt>
      <trkpt lat="48.95158" lon="2.7481">
        <ele>85.5</ele>
        <time>2020-07-01T14:26:00Z</time>
      </trkpt>
      <trkpt lat="48.95158" lon="2.74804">
        <ele>85.5</ele>
        <time>2020-07-01T14:26:01Z</time>
      </trkpt>
      <trkpt lat="48.95159" lon="2.748">
        <ele>85.5</ele>
        <time>2020-07-01T14:26:02Z</time>
      </trkpt>
      <trkpt lat="48.95159" lon="2.74794">
        <ele>85.5</ele>
        <time>2020-07-01T14:26:03Z</time>
      </trkpt>
      <trkpt lat="48.95159" lon="2.74788">
        <ele>85.5</ele>
        <time>2020-07-01T14:26:04Z</time>
      </trkpt>
      <trkpt lat="48.95158" lon="2.74782">
        <ele>85.5</ele>
        <time>2020-07-01T14:26:05Z</time>
      </trkpt>
      <trkpt lat="48.95159" lon="2.74777">
        <ele>85.5</ele>
        <time>2020-07-01T14:26:06Z</time>
      </trkpt>
      <trkpt lat="48.95158" lon="2.74771">
        <ele>85.5</ele>
        <time>2020-07-01T14:26:07Z</time>
      </trkpt>
      <trkpt lat="48.95158" lon="2.74765">
        <ele>85.5</ele>
        <time>2020-07-01T14:26:08Z</time>
      </trkpt>
      <trkpt lat="48.95157" lon="2.74758">
        <ele>85.5</ele>
        <time>2020-07-01T14:26:09Z</time>
      </trkpt>
      <trkpt lat="48.95156" lon="2.74752">
        <ele>85.5</ele>
        <time>2020-07-01T14:26:10Z</time>
      </trkpt>
      <trkpt lat="48.95155" lon="2.74747">
        <ele>85.5</ele>
        <time>2020-07-01T14:26:11Z</time>
      </trkpt>
      <trkpt lat="48.95154" lon="2.74744">
        <ele>85.5</ele>
        <time>2020-07-01T14:26:12Z</time>
      </trkpt>
      <trkpt lat="48.95153" lon="2.74739">
        <ele>85.5</ele>
        <time>2020-07-01T14:26:13Z</time>
      </trkpt>
      <trkpt lat="48.95153" lon="2.74735">
        <ele>85.6</ele>
        <time>2020-07-01T14:26:14Z</time>
      </trkpt>
      <trkpt lat="48.95152" lon="2.74731">
        <ele>85.6</ele>
        <time>2020-07-01T14:26:15Z</time>
      </trkpt>
      <trkpt lat="48.95152" lon="2.7473">
        <ele>85.6</ele>
        <time>2020-07-01T14:26:16Z</time>
      </trkpt>
      <trkpt lat="48.95151" lon="2.74727">
        <ele>85.6</ele>
        <time>2020-07-01T14:26:17Z</time>
      </trkpt>
      <trkpt lat="48.9515" lon="2.74725">
        <ele>85.6</ele>
        <time>2020-07-01T14:26:18Z</time>
      </trkpt>
      <trkpt lat="48.9515" lon="2.74726">
        <ele>85.6</ele>
        <time>2020-07-01T14:26:19Z</time>
      </trkpt>
      <trkpt lat="48.95149" lon="2.74726">
        <ele>85.6</ele>
        <time>2020-07-01T14:26:20Z</time>
      </trkpt>
      <trkpt lat="48.95149" lon="2.74727">
        <ele>85.6</ele>
        <time>2020-07-01T14:26:21Z</time>
      </trkpt>
      <trkpt lat="48.95148" lon="2.74726">
        <ele>85.5</ele>
        <time>2020-07-01T14:26:22Z</time>
      </trkpt>
      <trkpt lat="48.95149" lon="2.74728">
        <ele>85.5</ele>
        <time>2020-07-01T14:26:23Z</time>
      </trkpt>
      <trkpt lat="48.95149" lon="2.74728">
        <ele>85.5</ele>
        <time>2020-07-01T14:26:24Z</time>
      </trkpt>
      <trkpt lat="48.95148" lon="2.74727">
        <ele>85.5</ele>
        <time>2020-07-01T14:26:25Z</time>
      </trkpt>
      <trkpt lat="48.95148" lon="2.74726">
        <ele>85.5</ele>
        <time>2020-07-01T14:26:26Z</time>
      </trkpt>
      <trkpt lat="48.95148" lon="2.74727">
        <ele>85.5</ele>
        <time>2020-07-01T14:26:27Z</time>
      </trkpt>
      <trkpt lat="48.95148" lon="2.74727">
        <ele>85.5</ele>
        <time>2020-07-01T14:26:28Z</time>
      </trkpt>
      <trkpt lat="48.95149" lon="2.74726">
        <ele>85.5</ele>
        <time>2020-07-01T14:26:29Z</time>
      </trkpt>
      <trkpt lat="48.95145" lon="2.7472">
        <ele>85.5</ele>
        <time>2020-07-01T14:28:27Z</time>
      </trkpt>
      <trkpt lat="48.95142" lon="2.74718">
        <ele>85.5</ele>
        <time>2020-07-01T14:28:28Z</time>
      </trkpt>
      <trkpt lat="48.95139" lon="2.74717">
        <ele>85.6</ele>
        <time>2020-07-01T14:28:29Z</time>
      </trkpt>
      <trkpt lat="48.95135" lon="2.74715">
        <ele>85.6</ele>
        <time>2020-07-01T14:28:30Z</time>
      </trkpt>
      <trkpt lat="48.95132" lon="2.74713">
        <ele>85.7</ele>
        <time>2020-07-01T14:28:31Z</time>
      </trkpt>
      <trkpt lat="48.95129" lon="2.74709">
        <ele>85.6</ele>
        <time>2020-07-01T14:28:32Z</time>
      </trkpt>
      <trkpt lat="48.95125" lon="2.74707">
        <ele>85.6</ele>
        <time>2020-07-01T14:28:33Z</time>
      </trkpt>
      <trkpt lat="48.95121" lon="2.74706">
        <ele>85.5</ele>
        <time>2020-07-01T14:28:34Z</time>
      </trkpt>
      <trkpt lat="48.95117" lon="2.74706">
        <ele>85.3</ele>
        <time>2020-07-01T14:28:35Z</time>
      </trkpt>
      <trkpt lat="48.95113" lon="2.74706">
        <ele>85.2</ele>
        <time>2020-07-01T14:28:36Z</time>
      </trkpt>
      <trkpt lat="48.95109" lon="2.74704">
        <ele>85.1</ele>
        <time>2020-07-01T14:28:37Z</time>
      </trkpt>
      <trkpt lat="48.95105" lon="2.74704">
        <ele>85</ele>
        <time>2020-07-01T14:28:38Z</time>
      </trkpt>
      <trkpt lat="48.95101" lon="2.74703">
        <ele>84.8</ele>
        <time>2020-07-01T14:28:39Z</time>
      </trkpt>
      <trkpt lat="48.95097" lon="2.74701">
        <ele>84.7</ele>
        <time>2020-07-01T14:28:40Z</time>
      </trkpt>
      <trkpt lat="48.95092" lon="2.747">
        <ele>84.5</ele>
        <time>2020-07-01T14:28:41Z</time>
      </trkpt>
      <trkpt lat="48.95088" lon="2.74699">
        <ele>84.3</ele>
        <time>2020-07-01T14:28:42Z</time>
      </trkpt>
      <trkpt lat="48.95083" lon="2.74698">
        <ele>84.2</ele>
        <time>2020-07-01T14:28:43Z</time>
      </trkpt>
      <trkpt lat="48.95078" lon="2.74698">
        <ele>84</ele>
        <time>2020-07-01T14:28:44Z</time>
      </trkpt>
      <trkpt lat="48.95074" lon="2.74697">
        <ele>83.9</ele>
        <time>2020-07-01T14:28:45Z</time>
      </trkpt>
      <trkpt lat="48.95069" lon="2.74696">
        <ele>83.7</ele>
        <time>2020-07-01T14:28:46Z</time>
      </trkpt>
      <trkpt lat="48.95063" lon="2.74694">
        <ele>83.5</ele>
        <time>2020-07-01T14:28:47Z</time>
      </trkpt>
      <trkpt lat="48.95058" lon="2.74693">
        <ele>83.3</ele>
        <time>2020-07-01T14:28:48Z</time>
      </trkpt>
      <trkpt lat="48.95052" lon="2.74692">
        <ele>83.2</ele>
        <time>2020-07-01T14:28:49Z</time>
      </trkpt>
      <trkpt lat="48.95047" lon="2.74692">
        <ele>83</ele>
        <time>2020-07-01T14:28:50Z</time>
      </trkpt>
      <trkpt lat="48.95042" lon="2.74691">
        <ele>82.8</ele>
        <time>2020-07-01T14:28:51Z</time>
      </trkpt>
      <trkpt lat="48.95036" lon="2.74688">
        <ele>82.6</ele>
        <time>2020-07-01T14:28:52Z</time>
      </trkpt>
      <trkpt lat="48.9503" lon="2.74686">
        <ele>82.5</ele>
        <time>2020-07-01T14:28:53Z</time>
      </trkpt>
      <trkpt lat="48.95024" lon="2.74686">
        <ele>82.3</ele>
        <time>2020-07-01T14:28:54Z</time>
      </trkpt>
      <trkpt lat="48.95019" lon="2.74686">
        <ele>82.1</ele>
        <time>2020-07-01T14:28:55Z</time>
      </trkpt>
      <trkpt lat="48.95014" lon="2.74686">
        <ele>81.9</ele>
        <time>2020-07-01T14:28:56Z</time>
      </trkpt>
      <trkpt lat="48.95009" lon="2.74685">
        <ele>81.7</ele>
        <time>2020-07-01T14:28:57Z</time>
      </trkpt>
      <trkpt lat="48.95003" lon="2.74683">
        <ele>81.5</ele>
        <time>2020-07-01T14:28:58Z</time>
      </trkpt>
      <trkpt lat="48.94997" lon="2.74684">
        <ele>81.3</ele>
        <time>2020-07-01T14:28:59Z</time>
      </trkpt>
      <trkpt lat="48.94992" lon="2.74684">
        <ele>81.1</ele>
        <time>2020-07-01T14:29:00Z</time>
      </trkpt>
      <trkpt lat="48.94986" lon="2.74683">
        <ele>80.8</ele>
        <time>2020-07-01T14:29:01Z</time>
      </trkpt>
      <trkpt lat="48.9498" lon="2.74682">
        <ele>80.5</ele>
        <time>2020-07-01T14:29:02Z</time>
      </trkpt>
      <trkpt lat="48.94973" lon="2.74681">
        <ele>80.2</ele>
        <time>2020-07-01T14:29:03Z</time>
      </trkpt>
      <trkpt lat="48.94966" lon="2.74679">
        <ele>79.9</ele>
        <time>2020-07-01T14:29:04Z</time>
      </trkpt>
      <trkpt lat="48.9496" lon="2.74678">
        <ele>79.6</ele>
        <time>2020-07-01T14:29:05Z</time>
      </trkpt>
      <trkpt lat="48.94954" lon="2.74677">
        <ele>79.2</ele>
        <time>2020-07-01T14:29:06Z</time>
      </trkpt>
      <trkpt lat="48.94948" lon="2.74676">
        <ele>78.9</ele>
        <time>2020-07-01T14:29:07Z</time>
      </trkpt>
      <trkpt lat="48.94941" lon="2.74675">
        <ele>78.5</ele>
        <time>2020-07-01T14:29:08Z</time>
      </trkpt>
      <trkpt lat="48.94936" lon="2.74673">
        <ele>78.1</ele>
        <time>2020-07-01T14:29:09Z</time>
      </trkpt>
      <trkpt lat="48.94929" lon="2.74671">
        <ele>77.7</ele>
        <time>2020-07-01T14:29:10Z</time>
      </trkpt>
      <trkpt lat="48.94923" lon="2.74669">
        <ele>77.2</ele>
        <time>2020-07-01T14:29:11Z</time>
      </trkpt>
      <trkpt lat="48.94915" lon="2.74667">
        <ele>76.7</ele>
        <time>2020-07-01T14:29:12Z</time>
      </trkpt>
      <trkpt lat="48.94907" lon="2.74666">
        <ele>76.2</ele>
        <time>2020-07-01T14:29:13Z</time>
      </trkpt>
      <trkpt lat="48.94899" lon="2.74664">
        <ele>75.8</ele>
        <time>2020-07-01T14:29:14Z</time>
      </trkpt>
      <trkpt lat="48.9489" lon="2.74662">
        <ele>75.5</ele>
        <time>2020-07-01T14:29:15Z</time>
      </trkpt>
      <trkpt lat="48.94881" lon="2.74661">
        <ele>75.2</ele>
        <time>2020-07-01T14:29:16Z</time>
      </trkpt>
      <trkpt lat="48.94874" lon="2.74662">
        <ele>74.9</ele>
        <time>2020-07-01T14:29:17Z</time>
      </trkpt>
      <trkpt lat="48.94866" lon="2.74663">
        <ele>74.7</ele>
        <time>2020-07-01T14:29:18Z</time>
      </trkpt>
      <trkpt lat="48.94859" lon="2.74663">
        <ele>74.6</ele>
        <time>2020-07-01T14:29:19Z</time>
      </trkpt>
      <trkpt lat="48.94854" lon="2.74661">
        <ele>74.5</ele>
        <time>2020-07-01T14:29:20Z</time>
      </trkpt>
      <trkpt lat="48.9485" lon="2.74659">
        <ele>74.5</ele>
        <time>2020-07-01T14:29:21Z</time>
      </trkpt>
      <trkpt lat="48.94845" lon="2.74656">
        <ele>74.4</ele>
        <time>2020-07-01T14:29:22Z</time>
      </trkpt>
      <trkpt lat="48.94843" lon="2.74655">
        <ele>74.4</ele>
        <time>2020-07-01T14:29:23Z</time>
      </trkpt>
      <trkpt lat="48.9484" lon="2.74654">
        <ele>74.4</ele>
        <time>2020-07-01T14:29:24Z</time>
      </trkpt>
      <trkpt lat="48.94838" lon="2.74653">
        <ele>74.3</ele>
        <time>2020-07-01T14:29:25Z</time>
      </trkpt>
      <trkpt lat="48.94835" lon="2.74652">
        <ele>74.3</ele>
        <time>2020-07-01T14:29:26Z</time>
      </trkpt>
      <trkpt lat="48.94831" lon="2.74649">
        <ele>74.3</ele>
        <time>2020-07-01T14:29:27Z</time>
      </trkpt>
      <trkpt lat="48.94826" lon="2.74648">
        <ele>74.3</ele>
        <time>2020-07-01T14:29:28Z</time>
      </trkpt>
      <trkpt lat="48.9482" lon="2.74645">
        <ele>74.3</ele>
        <time>2020-07-01T14:29:29Z</time>
      </trkpt>
      <trkpt lat="48.94814" lon="2.74643">
        <ele>74.3</ele>
        <time>2020-07-01T14:29:30Z</time>
      </trkpt>
      <trkpt lat="48.94809" lon="2.7464">
        <ele>74.3</ele>
        <time>2020-07-01T14:29:31Z</time>
      </trkpt>
      <trkpt lat="48.94804" lon="2.74636">
        <ele>74.4</ele>
        <time>2020-07-01T14:29:32Z</time>
      </trkpt>
      <trkpt lat="48.94798" lon="2.74635">
        <ele>74.4</ele>
        <time>2020-07-01T14:29:33Z</time>
      </trkpt>
      <trkpt lat="48.94792" lon="2.74633">
        <ele>74.5</ele>
        <time>2020-07-01T14:29:34Z</time>
      </trkpt>
      <trkpt lat="48.94788" lon="2.74631">
        <ele>74.6</ele>
        <time>2020-07-01T14:29:35Z</time>
      </trkpt>
      <trkpt lat="48.94783" lon="2.74629">
        <ele>74.7</ele>
        <time>2020-07-01T14:29:36Z</time>
      </trkpt>
      <trkpt lat="48.94778" lon="2.74626">
        <ele>74.8</ele>
        <time>2020-07-01T14:29:37Z</time>
      </trkpt>
      <trkpt lat="48.94773" lon="2.74625">
        <ele>74.9</ele>
        <time>2020-07-01T14:29:38Z</time>
      </trkpt>
      <trkpt lat="48.9477" lon="2.74624">
        <ele>74.9</ele>
        <time>2020-07-01T14:29:39Z</time>
      </trkpt>
      <trkpt lat="48.94767" lon="2.74621">
        <ele>75</ele>
        <time>2020-07-01T14:29:40Z</time>
      </trkpt>
      <trkpt lat="48.94764" lon="2.74619">
        <ele>75</ele>
        <time>2020-07-01T14:29:41Z</time>
      </trkpt>
      <trkpt lat="48.9476" lon="2.74618">
        <ele>75</ele>
        <time>2020-07-01T14:29:42Z</time>
      </trkpt>
      <trkpt lat="48.94759" lon="2.74618">
        <ele>75.1</ele>
        <time>2020-07-01T14:29:43Z</time>
      </trkpt>
      <trkpt lat="48.94756" lon="2.74618">
        <ele>75.1</ele>
        <time>2020-07-01T14:29:44Z</time>
      </trkpt>
      <trkpt lat="48.94754" lon="2.74616">
        <ele>75.1</ele>
        <time>2020-07-01T14:29:45Z</time>
      </trkpt>
      <trkpt lat="48.9475" lon="2.74614">
        <ele>75.1</ele>
        <time>2020-07-01T14:29:46Z</time>
      </trkpt>
      <trkpt lat="48.94747" lon="2.74613">
        <ele>75.1</ele>
        <time>2020-07-01T14:29:47Z</time>
      </trkpt>
      <trkpt lat="48.94743" lon="2.74611">
        <ele>75.1</ele>
        <time>2020-07-01T14:29:48Z</time>
      </trkpt>
      <trkpt lat="48.9474" lon="2.74608">
        <ele>75.1</ele>
        <time>2020-07-01T14:29:49Z</time>
      </trkpt>
      <trkpt lat="48.94737" lon="2.74604">
        <ele>75.1</ele>
        <time>2020-07-01T14:29:50Z</time>
      </trkpt>
      <trkpt lat="48.94734" lon="2.74601">
        <ele>75.1</ele>
        <time>2020-07-01T14:29:51Z</time>
      </trkpt>
      <trkpt lat="48.9473" lon="2.74598">
        <ele>75.1</ele>
        <time>2020-07-01T14:29:52Z</time>
      </trkpt>
      <trkpt lat="48.94726" lon="2.74596">
        <ele>75</ele>
        <time>2020-07-01T14:29:53Z</time>
      </trkpt>
      <trkpt lat="48.94722" lon="2.74594">
        <ele>75</ele>
        <time>2020-07-01T14:29:54Z</time>
      </trkpt>
      <trkpt lat="48.94718" lon="2.74593">
        <ele>74.9</ele>
        <time>2020-07-01T14:29:55Z</time>
      </trkpt>
      <trkpt lat="48.94713" lon="2.74591">
        <ele>74.8</ele>
        <time>2020-07-01T14:29:56Z</time>
      </trkpt>
      <trkpt lat="48.94709" lon="2.74589">
        <ele>74.8</ele>
        <time>2020-07-01T14:29:57Z</time>
      </trkpt>
      <trkpt lat="48.94705" lon="2.74585">
        <ele>74.7</ele>
        <time>2020-07-01T14:29:58Z</time>
      </trkpt>
      <trkpt lat="48.94701" lon="2.74582">
        <ele>74.6</ele>
        <time>2020-07-01T14:29:59Z</time>
      </trkpt>
      <trkpt lat="48.94697" lon="2.7458">
        <ele>74.5</ele>
        <time>2020-07-01T14:30:00Z</time>
      </trkpt>
      <trkpt lat="48.94692" lon="2.74578">
        <ele>74.4</ele>
        <time>2020-07-01T14:30:01Z</time>
      </trkpt>
      <trkpt lat="48.94688" lon="2.74578">
        <ele>74.3</ele>
        <time>2020-07-01T14:30:02Z</time>
      </trkpt>
      <trkpt lat="48.94683" lon="2.74578">
        <ele>74.2</ele>
        <time>2020-07-01T14:30:03Z</time>
      </trkpt>
      <trkpt lat="48.94677" lon="2.74579">
        <ele>74</ele>
        <time>2020-07-01T14:30:04Z</time>
      </trkpt>
      <trkpt lat="48.94672" lon="2.74579">
        <ele>73.8</ele>
        <time>2020-07-01T14:30:05Z</time>
      </trkpt>
      <trkpt lat="48.94667" lon="2.74578">
        <ele>73.6</ele>
        <time>2020-07-01T14:30:06Z</time>
      </trkpt>
      <trkpt lat="48.94662" lon="2.74577">
        <ele>73.4</ele>
        <time>2020-07-01T14:30:07Z</time>
      </trkpt>
      <trkpt lat="48.94657" lon="2.74573">
        <ele>73.3</ele>
        <time>2020-07-01T14:30:08Z</time>
      </trkpt>
      <trkpt lat="48.94652" lon="2.7457">
        <ele>73.1</ele>
        <time>2020-07-01T14:30:09Z</time>
      </trkpt>
      <trkpt lat="48.94647" lon="2.74567">
        <ele>72.9</ele>
        <time>2020-07-01T14:30:10Z</time>
      </trkpt>
      <trkpt lat="48.94642" lon="2.74565">
        <ele>72.8</ele>
        <time>2020-07-01T14:30:11Z</time>
      </trkpt>
      <trkpt lat="48.94637" lon="2.74563">
        <ele>72.6</ele>
        <time>2020-07-01T14:30:12Z</time>
      </trkpt>
      <trkpt lat="48.94632" lon="2.7456">
        <ele>72.4</ele>
        <time>2020-07-01T14:30:13Z</time>
      </trkpt>
      <trkpt lat="48.94627" lon="2.74558">
        <ele>72.3</ele>
        <time>2020-07-01T14:30:14Z</time>
      </trkpt>
      <trkpt lat="48.94622" lon="2.74555">
        <ele>72.1</ele>
        <time>2020-07-01T14:30:15Z</time>
      </trkpt>
      <trkpt lat="48.94617" lon="2.74551">
        <ele>71.9</ele>
        <time>2020-07-01T14:30:16Z</time>
      </trkpt>
      <trkpt lat="48.94612" lon="2.74549">
        <ele>71.8</ele>
        <time>2020-07-01T14:30:17Z</time>
      </trkpt>
      <trkpt lat="48.94607" lon="2.74547">
        <ele>71.6</ele>
        <time>2020-07-01T14:30:18Z</time>
      </trkpt>
      <trkpt lat="48.94602" lon="2.74545">
        <ele>71.5</ele>
        <time>2020-07-01T14:30:19Z</time>
      </trkpt>
      <trkpt lat="48.94597" lon="2.74543">
        <ele>71.4</ele>
        <time>2020-07-01T14:30:20Z</time>
      </trkpt>
      <trkpt lat="48.94591" lon="2.74539">
        <ele>71.2</ele>
        <time>2020-07-01T14:30:21Z</time>
      </trkpt>
      <trkpt lat="48.94586" lon="2.74538">
        <ele>71.1</ele>
        <time>2020-07-01T14:30:22Z</time>
      </trkpt>
      <trkpt lat="48.94581" lon="2.74535">
        <ele>71</ele>
        <time>2020-07-01T14:30:23Z</time>
      </trkpt>
      <trkpt lat="48.94575" lon="2.74532">
        <ele>70.9</ele>
        <time>2020-07-01T14:30:24Z</time>
      </trkpt>
      <trkpt lat="48.9457" lon="2.74529">
        <ele>70.7</ele>
        <time>2020-07-01T14:30:25Z</time>
      </trkpt>
      <trkpt lat="48.94564" lon="2.74526">
        <ele>70.6</ele>
        <time>2020-07-01T14:30:26Z</time>
      </trkpt>
      <trkpt lat="48.94559" lon="2.74523">
        <ele>70.5</ele>
        <time>2020-07-01T14:30:27Z</time>
      </trkpt>
      <trkpt lat="48.94553" lon="2.7452">
        <ele>70.3</ele>
        <time>2020-07-01T14:30:28Z</time>
      </trkpt>
      <trkpt lat="48.94548" lon="2.74518">
        <ele>70.2</ele>
        <time>2020-07-01T14:30:29Z</time>
      </trkpt>
      <trkpt lat="48.94542" lon="2.74515">
        <ele>70</ele>
        <time>2020-07-01T14:30:30Z</time>
      </trkpt>
      <trkpt lat="48.94536" lon="2.74512">
        <ele>69.9</ele>
        <time>2020-07-01T14:30:31Z</time>
      </trkpt>
      <trkpt lat="48.94531" lon="2.7451">
        <ele>69.8</ele>
        <time>2020-07-01T14:30:32Z</time>
      </trkpt>
      <trkpt lat="48.94525" lon="2.74508">
        <ele>69.6</ele>
        <time>2020-07-01T14:30:33Z</time>
      </trkpt>
      <trkpt lat="48.9452" lon="2.74506">
        <ele>69.5</ele>
        <time>2020-07-01T14:30:34Z</time>
      </trkpt>
      <trkpt lat="48.94514" lon="2.74504">
        <ele>69.3</ele>
        <time>2020-07-01T14:30:35Z</time>
      </trkpt>
      <trkpt lat="48.9451" lon="2.74502">
        <ele>69.2</ele>
        <time>2020-07-01T14:30:36Z</time>
      </trkpt>
      <trkpt lat="48.94504" lon="2.74499">
        <ele>69.1</ele>
        <time>2020-07-01T14:30:37Z</time>
      </trkpt>
      <trkpt lat="48.94499" lon="2.74497">
        <ele>68.9</ele>
        <time>2020-07-01T14:30:38Z</time>
      </trkpt>
      <trkpt lat="48.94495" lon="2.74494">
        <ele>68.8</ele>
        <time>2020-07-01T14:30:39Z</time>
      </trkpt>
      <trkpt lat="48.9449" lon="2.74493">
        <ele>68.7</ele>
        <time>2020-07-01T14:30:40Z</time>
      </trkpt>
      <trkpt lat="48.94484" lon="2.74491">
        <ele>68.5</ele>
        <time>2020-07-01T14:30:41Z</time>
      </trkpt>
      <trkpt lat="48.94479" lon="2.74487">
        <ele>68.4</ele>
        <time>2020-07-01T14:30:42Z</time>
      </trkpt>
      <trkpt lat="48.94474" lon="2.74485">
        <ele>68.3</ele>
        <time>2020-07-01T14:30:43Z</time>
      </trkpt>
      <trkpt lat="48.94469" lon="2.74483">
        <ele>68.1</ele>
        <time>2020-07-01T14:30:44Z</time>
      </trkpt>
      <trkpt lat="48.94464" lon="2.74481">
        <ele>68</ele>
        <time>2020-07-01T14:30:45Z</time>
      </trkpt>
      <trkpt lat="48.94459" lon="2.74479">
        <ele>67.8</ele>
        <time>2020-07-01T14:30:46Z</time>
      </trkpt>
      <trkpt lat="48.94453" lon="2.74476">
        <ele>67.7</ele>
        <time>2020-07-01T14:30:47Z</time>
      </trkpt>
      <trkpt lat="48.94448" lon="2.74474">
        <ele>67.6</ele>
        <time>2020-07-01T14:30:48Z</time>
      </trkpt>
      <trkpt lat="48.94443" lon="2.7447">
        <ele>67.4</ele>
        <time>2020-07-01T14:30:49Z</time>
      </trkpt>
      <trkpt lat="48.94438" lon="2.74467">
        <ele>67.3</ele>
        <time>2020-07-01T14:30:50Z</time>
      </trkpt>
      <trkpt lat="48.94433" lon="2.74465">
        <ele>67.2</ele>
        <time>2020-07-01T14:30:51Z</time>
      </trkpt>
      <trkpt lat="48.94428" lon="2.74462">
        <ele>67</ele>
        <time>2020-07-01T14:30:52Z</time>
      </trkpt>
      <trkpt lat="48.94423" lon="2.74459">
        <ele>66.9</ele>
        <time>2020-07-01T14:30:53Z</time>
      </trkpt>
      <trkpt lat="48.94418" lon="2.74455">
        <ele>66.7</ele>
        <time>2020-07-01T14:30:54Z</time>
      </trkpt>
      <trkpt lat="48.94412" lon="2.74453">
        <ele>66.6</ele>
        <time>2020-07-01T14:30:55Z</time>
      </trkpt>
      <trkpt lat="48.94407" lon="2.7445">
        <ele>66.4</ele>
        <time>2020-07-01T14:30:56Z</time>
      </trkpt>
      <trkpt lat="48.94401" lon="2.74449">
        <ele>66.2</ele>
        <time>2020-07-01T14:30:57Z</time>
      </trkpt>
      <trkpt lat="48.94395" lon="2.74447">
        <ele>66</ele>
        <time>2020-07-01T14:30:58Z</time>
      </trkpt>
      <trkpt lat="48.9439" lon="2.74444">
        <ele>65.8</ele>
        <time>2020-07-01T14:30:59Z</time>
      </trkpt>
      <trkpt lat="48.94385" lon="2.74441">
        <ele>65.6</ele>
        <time>2020-07-01T14:31:00Z</time>
      </trkpt>
      <trkpt lat="48.94379" lon="2.74439">
        <ele>65.5</ele>
        <time>2020-07-01T14:31:01Z</time>
      </trkpt>
      <trkpt lat="48.94374" lon="2.74436">
        <ele>65.3</ele>
        <time>2020-07-01T14:31:02Z</time>
      </trkpt>
      <trkpt lat="48.94369" lon="2.74433">
        <ele>65.2</ele>
        <time>2020-07-01T14:31:03Z</time>
      </trkpt>
      <trkpt lat="48.94363" lon="2.74431">
        <ele>65.1</ele>
        <time>2020-07-01T14:31:04Z</time>
      </trkpt>
      <trkpt lat="48.94358" lon="2.74429">
        <ele>65</ele>
        <time>2020-07-01T14:31:05Z</time>
      </trkpt>
      <trkpt lat="48.94353" lon="2.74426">
        <ele>64.9</ele>
        <time>2020-07-01T14:31:06Z</time>
      </trkpt>
      <trkpt lat="48.94347" lon="2.74423">
        <ele>64.8</ele>
        <time>2020-07-01T14:31:07Z</time>
      </trkpt>
      <trkpt lat="48.94342" lon="2.74419">
        <ele>64.6</ele>
        <time>2020-07-01T14:31:08Z</time>
      </trkpt>
      <trkpt lat="48.94337" lon="2.74416">
        <ele>64.4</ele>
        <time>2020-07-01T14:31:09Z</time>
      </trkpt>
      <trkpt lat="48.94332" lon="2.74415">
        <ele>64.3</ele>
        <time>2020-07-01T14:31:10Z</time>
      </trkpt>
      <trkpt lat="48.94327" lon="2.74414">
        <ele>64.2</ele>
        <time>2020-07-01T14:31:11Z</time>
      </trkpt>
      <trkpt lat="48.94322" lon="2.74413">
        <ele>64.1</ele>
        <time>2020-07-01T14:31:12Z</time>
      </trkpt>
      <trkpt lat="48.94318" lon="2.74411">
        <ele>64</ele>
        <time>2020-07-01T14:31:13Z</time>
      </trkpt>
      <trkpt lat="48.94313" lon="2.74408">
        <ele>63.9</ele>
        <time>2020-07-01T14:31:14Z</time>
      </trkpt>
      <trkpt lat="48.94309" lon="2.74406">
        <ele>63.8</ele>
        <time>2020-07-01T14:31:15Z</time>
      </trkpt>
      <trkpt lat="48.94305" lon="2.74403">
        <ele>63.7</ele>
        <time>2020-07-01T14:31:16Z</time>
      </trkpt>
      <trkpt lat="48.94301" lon="2.74401">
        <ele>63.7</ele>
        <time>2020-07-01T14:31:17Z</time>
      </trkpt>
      <trkpt lat="48.94297" lon="2.74399">
        <ele>63.6</ele>
        <time>2020-07-01T14:31:18Z</time>
      </trkpt>
      <trkpt lat="48.94293" lon="2.74399">
        <ele>63.4</ele>
        <time>2020-07-01T14:31:19Z</time>
      </trkpt>
      <trkpt lat="48.94289" lon="2.74401">
        <ele>63.4</ele>
        <time>2020-07-01T14:31:20Z</time>
      </trkpt>
      <trkpt lat="48.94286" lon="2.74399">
        <ele>63.4</ele>
        <time>2020-07-01T14:31:21Z</time>
      </trkpt>
      <trkpt lat="48.94283" lon="2.74398">
        <ele>63.4</ele>
        <time>2020-07-01T14:31:22Z</time>
      </trkpt>
      <trkpt lat="48.94279" lon="2.74396">
        <ele>63.3</ele>
        <time>2020-07-01T14:31:23Z</time>
      </trkpt>
      <trkpt lat="48.94275" lon="2.74395">
        <ele>63.2</ele>
        <time>2020-07-01T14:31:24Z</time>
      </trkpt>
      <trkpt lat="48.94271" lon="2.74394">
        <ele>63.1</ele>
        <time>2020-07-01T14:31:25Z</time>
      </trkpt>
      <trkpt lat="48.94267" lon="2.74393">
        <ele>63</ele>
        <time>2020-07-01T14:31:26Z</time>
      </trkpt>
      <trkpt lat="48.94264" lon="2.7439">
        <ele>62.9</ele>
        <time>2020-07-01T14:31:27Z</time>
      </trkpt>
      <trkpt lat="48.94259" lon="2.74389">
        <ele>62.7</ele>
        <time>2020-07-01T14:31:28Z</time>
      </trkpt>
      <trkpt lat="48.94255" lon="2.74385">
        <ele>62.6</ele>
        <time>2020-07-01T14:31:29Z</time>
      </trkpt>
      <trkpt lat="48.9425" lon="2.74384">
        <ele>62.5</ele>
        <time>2020-07-01T14:31:30Z</time>
      </trkpt>
      <trkpt lat="48.94246" lon="2.74381">
        <ele>62.3</ele>
        <time>2020-07-01T14:31:31Z</time>
      </trkpt>
      <trkpt lat="48.94241" lon="2.74378">
        <ele>62.2</ele>
        <time>2020-07-01T14:31:32Z</time>
      </trkpt>
      <trkpt lat="48.94236" lon="2.74375">
        <ele>62.1</ele>
        <time>2020-07-01T14:31:33Z</time>
      </trkpt>
      <trkpt lat="48.94231" lon="2.74372">
        <ele>61.9</ele>
        <time>2020-07-01T14:31:34Z</time>
      </trkpt>
      <trkpt lat="48.94226" lon="2.7437">
        <ele>61.8</ele>
        <time>2020-07-01T14:31:35Z</time>
      </trkpt>
      <trkpt lat="48.94222" lon="2.74366">
        <ele>61.7</ele>
        <time>2020-07-01T14:31:36Z</time>
      </trkpt>
      <trkpt lat="48.94218" lon="2.74363">
        <ele>61.5</ele>
        <time>2020-07-01T14:31:37Z</time>
      </trkpt>
      <trkpt lat="48.94214" lon="2.74361">
        <ele>61.4</ele>
        <time>2020-07-01T14:31:38Z</time>
      </trkpt>
      <trkpt lat="48.94211" lon="2.74358">
        <ele>61.3</ele>
        <time>2020-07-01T14:31:39Z</time>
      </trkpt>
      <trkpt lat="48.94208" lon="2.74356">
        <ele>61.3</ele>
        <time>2020-07-01T14:31:40Z</time>
      </trkpt>
      <trkpt lat="48.94205" lon="2.74353">
        <ele>61.2</ele>
        <time>2020-07-01T14:31:41Z</time>
      </trkpt>
      <trkpt lat="48.94202" lon="2.7435">
        <ele>60.8</ele>
        <time>2020-07-01T14:31:42Z</time>
      </trkpt>
      <trkpt lat="48.94201" lon="2.74351">
        <ele>60.8</ele>
        <time>2020-07-01T14:31:43Z</time>
      </trkpt>
      <trkpt lat="48.94197" lon="2.7435">
        <ele>60.8</ele>
        <time>2020-07-01T14:31:44Z</time>
      </trkpt>
      <trkpt lat="48.94193" lon="2.7435">
        <ele>60.7</ele>
        <time>2020-07-01T14:31:45Z</time>
      </trkpt>
      <trkpt lat="48.9419" lon="2.7435">
        <ele>60.6</ele>
        <time>2020-07-01T14:31:46Z</time>
      </trkpt>
      <trkpt lat="48.94186" lon="2.74349">
        <ele>60.5</ele>
        <time>2020-07-01T14:31:47Z</time>
      </trkpt>
      <trkpt lat="48.94182" lon="2.74347">
        <ele>60.4</ele>
        <time>2020-07-01T14:31:48Z</time>
      </trkpt>
      <trkpt lat="48.94178" lon="2.74344">
        <ele>60.2</ele>
        <time>2020-07-01T14:31:49Z</time>
      </trkpt>
      <trkpt lat="48.94173" lon="2.74341">
        <ele>60</ele>
        <time>2020-07-01T14:31:50Z</time>
      </trkpt>
      <trkpt lat="48.94168" lon="2.74339">
        <ele>59.9</ele>
        <time>2020-07-01T14:31:51Z</time>
      </trkpt>
      <trkpt lat="48.94164" lon="2.74338">
        <ele>59.7</ele>
        <time>2020-07-01T14:31:52Z</time>
      </trkpt>
      <trkpt lat="48.94159" lon="2.74337">
        <ele>59.6</ele>
        <time>2020-07-01T14:31:53Z</time>
      </trkpt>
      <trkpt lat="48.94154" lon="2.74336">
        <ele>59.5</ele>
        <time>2020-07-01T14:31:54Z</time>
      </trkpt>
      <trkpt lat="48.94149" lon="2.74335">
        <ele>59.4</ele>
        <time>2020-07-01T14:31:55Z</time>
      </trkpt>
      <trkpt lat="48.94144" lon="2.74334">
        <ele>59.3</ele>
        <time>2020-07-01T14:31:56Z</time>
      </trkpt>
      <trkpt lat="48.94138" lon="2.74334">
        <ele>59.1</ele>
        <time>2020-07-01T14:31:57Z</time>
      </trkpt>
      <trkpt lat="48.94133" lon="2.74331">
        <ele>59</ele>
        <time>2020-07-01T14:31:58Z</time>
      </trkpt>
      <trkpt lat="48.94128" lon="2.7433">
        <ele>58.9</ele>
        <time>2020-07-01T14:31:59Z</time>
      </trkpt>
      <trkpt lat="48.94123" lon="2.74328">
        <ele>58.8</ele>
        <time>2020-07-01T14:32:00Z</time>
      </trkpt>
      <trkpt lat="48.94117" lon="2.74327">
        <ele>58.7</ele>
        <time>2020-07-01T14:32:01Z</time>
      </trkpt>
      <trkpt lat="48.94112" lon="2.74324">
        <ele>58.6</ele>
        <time>2020-07-01T14:32:02Z</time>
      </trkpt>
      <trkpt lat="48.94107" lon="2.7432">
        <ele>58.5</ele>
        <time>2020-07-01T14:32:03Z</time>
      </trkpt>
      <trkpt lat="48.94102" lon="2.74316">
        <ele>58.5</ele>
        <time>2020-07-01T14:32:04Z</time>
      </trkpt>
      <trkpt lat="48.94097" lon="2.74314">
        <ele>58.4</ele>
        <time>2020-07-01T14:32:05Z</time>
      </trkpt>
      <trkpt lat="48.94092" lon="2.74312">
        <ele>58.4</ele>
        <time>2020-07-01T14:32:06Z</time>
      </trkpt>
      <trkpt lat="48.94087" lon="2.74311">
        <ele>58.3</ele>
        <time>2020-07-01T14:32:07Z</time>
      </trkpt>
      <trkpt lat="48.94084" lon="2.74309">
        <ele>58.3</ele>
        <time>2020-07-01T14:32:08Z</time>
      </trkpt>
      <trkpt lat="48.9408" lon="2.74309">
        <ele>58.1</ele>
        <time>2020-07-01T14:32:09Z</time>
      </trkpt>
      <trkpt lat="48.94076" lon="2.74307">
        <ele>58.1</ele>
        <time>2020-07-01T14:32:10Z</time>
      </trkpt>
      <trkpt lat="48.94074" lon="2.74307">
        <ele>58.1</ele>
        <time>2020-07-01T14:32:11Z</time>
      </trkpt>
      <trkpt lat="48.94071" lon="2.74305">
        <ele>58.1</ele>
        <time>2020-07-01T14:32:12Z</time>
      </trkpt>
      <trkpt lat="48.94068" lon="2.74302">
        <ele>58.1</ele>
        <time>2020-07-01T14:32:13Z</time>
      </trkpt>
      <trkpt lat="48.94066" lon="2.743">
        <ele>58</ele>
        <time>2020-07-01T14:32:14Z</time>
      </trkpt>
      <trkpt lat="48.94065" lon="2.74299">
        <ele>58</ele>
        <time>2020-07-01T14:32:15Z</time>
      </trkpt>
      <trkpt lat="48.94064" lon="2.74298">
        <ele>58</ele>
        <time>2020-07-01T14:32:16Z</time>
      </trkpt>
      <trkpt lat="48.94063" lon="2.74298">
        <ele>58</ele>
        <time>2020-07-01T14:32:17Z</time>
      </trkpt>
      <trkpt lat="48.94062" lon="2.74298">
        <ele>58</ele>
        <time>2020-07-01T14:32:18Z</time>
      </trkpt>
      <trkpt lat="48.94061" lon="2.74296">
        <ele>58</ele>
        <time>2020-07-01T14:32:19Z</time>
      </trkpt>
      <trkpt lat="48.94061" lon="2.74295">
        <ele>58</ele>
        <time>2020-07-01T14:32:20Z</time>
      </trkpt>
      <trkpt lat="48.9406" lon="2.74295">
        <ele>58</ele>
        <time>2020-07-01T14:32:21Z</time>
      </trkpt>
      <trkpt lat="48.9406" lon="2.74295">
        <ele>58</ele>
        <time>2020-07-01T14:32:22Z</time>
      </trkpt>
      <trkpt lat="48.94059" lon="2.74294">
        <ele>58</ele>
        <time>2020-07-01T14:32:23Z</time>
      </trkpt>
      <trkpt lat="48.94059" lon="2.74294">
        <ele>57.9</ele>
        <time>2020-07-01T14:32:24Z</time>
      </trkpt>
      <trkpt lat="48.94056" lon="2.74292">
        <ele>57.9</ele>
        <time>2020-07-01T14:32:25Z</time>
      </trkpt>
      <trkpt lat="48.94055" lon="2.74293">
        <ele>57.9</ele>
        <time>2020-07-01T14:32:26Z</time>
      </trkpt>
      <trkpt lat="48.94052" lon="2.74293">
        <ele>57.8</ele>
        <time>2020-07-01T14:32:27Z</time>
      </trkpt>
      <trkpt lat="48.94051" lon="2.74293">
        <ele>57.8</ele>
        <time>2020-07-01T14:32:28Z</time>
      </trkpt>
      <trkpt lat="48.94048" lon="2.74292">
        <ele>57.7</ele>
        <time>2020-07-01T14:32:29Z</time>
      </trkpt>
      <trkpt lat="48.94046" lon="2.74291">
        <ele>57.6</ele>
        <time>2020-07-01T14:32:30Z</time>
      </trkpt>
      <trkpt lat="48.94044" lon="2.7429">
        <ele>57.6</ele>
        <time>2020-07-01T14:32:31Z</time>
      </trkpt>
      <trkpt lat="48.94042" lon="2.74285">
        <ele>57.5</ele>
        <time>2020-07-01T14:32:32Z</time>
      </trkpt>
      <trkpt lat="48.9404" lon="2.7428">
        <ele>57.4</ele>
        <time>2020-07-01T14:32:33Z</time>
      </trkpt>
      <trkpt lat="48.94039" lon="2.74271">
        <ele>56.8</ele>
        <time>2020-07-01T14:32:34Z</time>
      </trkpt>
      <trkpt lat="48.9404" lon="2.74263">
        <ele>56.6</ele>
        <time>2020-07-01T14:32:35Z</time>
      </trkpt>
      <trkpt lat="48.94041" lon="2.74255">
        <ele>56.4</ele>
        <time>2020-07-01T14:32:36Z</time>
      </trkpt>
      <trkpt lat="48.94042" lon="2.74246">
        <ele>56.2</ele>
        <time>2020-07-01T14:32:37Z</time>
      </trkpt>
      <trkpt lat="48.94044" lon="2.74238">
        <ele>55.9</ele>
        <time>2020-07-01T14:32:38Z</time>
      </trkpt>
      <trkpt lat="48.94045" lon="2.7423">
        <ele>55.7</ele>
        <time>2020-07-01T14:32:39Z</time>
      </trkpt>
      <trkpt lat="48.94047" lon="2.74222">
        <ele>55.4</ele>
        <time>2020-07-01T14:32:40Z</time>
      </trkpt>
      <trkpt lat="48.94048" lon="2.74213">
        <ele>55.1</ele>
        <time>2020-07-01T14:32:41Z</time>
      </trkpt>
      <trkpt lat="48.94051" lon="2.74205">
        <ele>54.9</ele>
        <time>2020-07-01T14:32:42Z</time>
      </trkpt>
      <trkpt lat="48.94054" lon="2.74196">
        <ele>54.6</ele>
        <time>2020-07-01T14:32:43Z</time>
      </trkpt>
      <trkpt lat="48.94057" lon="2.74187">
        <ele>54.3</ele>
        <time>2020-07-01T14:32:44Z</time>
      </trkpt>
      <trkpt lat="48.94059" lon="2.74178">
        <ele>54.1</ele>
        <time>2020-07-01T14:32:45Z</time>
      </trkpt>
      <trkpt lat="48.94062" lon="2.74168">
        <ele>53.8</ele>
        <time>2020-07-01T14:32:46Z</time>
      </trkpt>
      <trkpt lat="48.94065" lon="2.74159">
        <ele>53.6</ele>
        <time>2020-07-01T14:32:47Z</time>
      </trkpt>
      <trkpt lat="48.94067" lon="2.74149">
        <ele>53.4</ele>
        <time>2020-07-01T14:32:48Z</time>
      </trkpt>
      <trkpt lat="48.9407" lon="2.74141">
        <ele>53.1</ele>
        <time>2020-07-01T14:32:49Z</time>
      </trkpt>
      <trkpt lat="48.94073" lon="2.74132">
        <ele>53</ele>
        <time>2020-07-01T14:32:50Z</time>
      </trkpt>
      <trkpt lat="48.94076" lon="2.74122">
        <ele>52.9</ele>
        <time>2020-07-01T14:32:51Z</time>
      </trkpt>
      <trkpt lat="48.94078" lon="2.74113">
        <ele>52.7</ele>
        <time>2020-07-01T14:32:52Z</time>
      </trkpt>
      <trkpt lat="48.9408" lon="2.74103">
        <ele>52.6</ele>
        <time>2020-07-01T14:32:53Z</time>
      </trkpt>
      <trkpt lat="48.94082" lon="2.74094">
        <ele>52.5</ele>
        <time>2020-07-01T14:32:54Z</time>
      </trkpt>
      <trkpt lat="48.94085" lon="2.74085">
        <ele>52.4</ele>
        <time>2020-07-01T14:32:55Z</time>
      </trkpt>
      <trkpt lat="48.94087" lon="2.74076">
        <ele>52.3</ele>
        <time>2020-07-01T14:32:56Z</time>
      </trkpt>
      <trkpt lat="48.94089" lon="2.74067">
        <ele>52.1</ele>
        <time>2020-07-01T14:32:57Z</time>
      </trkpt>
      <trkpt lat="48.94091" lon="2.74058">
        <ele>52</ele>
        <time>2020-07-01T14:32:58Z</time>
      </trkpt>
      <trkpt lat="48.94093" lon="2.74049">
        <ele>51.9</ele>
        <time>2020-07-01T14:32:59Z</time>
      </trkpt>
      <trkpt lat="48.94094" lon="2.74039">
        <ele>51.8</ele>
        <time>2020-07-01T14:33:00Z</time>
      </trkpt>
      <trkpt lat="48.94096" lon="2.74029">
        <ele>51.6</ele>
        <time>2020-07-01T14:33:01Z</time>
      </trkpt>
      <trkpt lat="48.94098" lon="2.7402">
        <ele>51.5</ele>
        <time>2020-07-01T14:33:02Z</time>
      </trkpt>
      <trkpt lat="48.94099" lon="2.74009">
        <ele>51.4</ele>
        <time>2020-07-01T14:33:03Z</time>
      </trkpt>
      <trkpt lat="48.94101" lon="2.73999">
        <ele>51.3</ele>
        <time>2020-07-01T14:33:04Z</time>
      </trkpt>
      <trkpt lat="48.94102" lon="2.73989">
        <ele>51.1</ele>
        <time>2020-07-01T14:33:05Z</time>
      </trkpt>
      <trkpt lat="48.94103" lon="2.73978">
        <ele>51</ele>
        <time>2020-07-01T14:33:06Z</time>
      </trkpt>
      <trkpt lat="48.94103" lon="2.73967">
        <ele>50.8</ele>
        <time>2020-07-01T14:33:07Z</time>
      </trkpt>
      <trkpt lat="48.94104" lon="2.73957">
        <ele>50.7</ele>
        <time>2020-07-01T14:33:08Z</time>
      </trkpt>
      <trkpt lat="48.94105" lon="2.73946">
        <ele>50.6</ele>
        <time>2020-07-01T14:33:09Z</time>
      </trkpt>
      <trkpt lat="48.94105" lon="2.73935">
        <ele>50.6</ele>
        <time>2020-07-01T14:33:10Z</time>
      </trkpt>
      <trkpt lat="48.94106" lon="2.73924">
        <ele>50.6</ele>
        <time>2020-07-01T14:33:11Z</time>
      </trkpt>
      <trkpt lat="48.94107" lon="2.73914">
        <ele>50.7</ele>
        <time>2020-07-01T14:33:12Z</time>
      </trkpt>
      <trkpt lat="48.94107" lon="2.73904">
        <ele>50.9</ele>
        <time>2020-07-01T14:33:13Z</time>
      </trkpt>
      <trkpt lat="48.94108" lon="2.73895">
        <ele>51</ele>
        <time>2020-07-01T14:33:14Z</time>
      </trkpt>
      <trkpt lat="48.94109" lon="2.73885">
        <ele>51.2</ele>
        <time>2020-07-01T14:33:15Z</time>
      </trkpt>
      <trkpt lat="48.9411" lon="2.73876">
        <ele>51.5</ele>
        <time>2020-07-01T14:33:16Z</time>
      </trkpt>
      <trkpt lat="48.94109" lon="2.73867">
        <ele>51.7</ele>
        <time>2020-07-01T14:33:17Z</time>
      </trkpt>
      <trkpt lat="48.9411" lon="2.73858">
        <ele>51.9</ele>
        <time>2020-07-01T14:33:18Z</time>
      </trkpt>
      <trkpt lat="48.9411" lon="2.7385">
        <ele>52.1</ele>
        <time>2020-07-01T14:33:19Z</time>
      </trkpt>
      <trkpt lat="48.9411" lon="2.73841">
        <ele>52.3</ele>
        <time>2020-07-01T14:33:20Z</time>
      </trkpt>
      <trkpt lat="48.94111" lon="2.73833">
        <ele>52.4</ele>
        <time>2020-07-01T14:33:21Z</time>
      </trkpt>
      <trkpt lat="48.94111" lon="2.73825">
        <ele>52.6</ele>
        <time>2020-07-01T14:33:22Z</time>
      </trkpt>
      <trkpt lat="48.94112" lon="2.73817">
        <ele>52.8</ele>
        <time>2020-07-01T14:33:23Z</time>
      </trkpt>
      <trkpt lat="48.94112" lon="2.73809">
        <ele>52.9</ele>
        <time>2020-07-01T14:33:24Z</time>
      </trkpt>
      <trkpt lat="48.94112" lon="2.738">
        <ele>53.1</ele>
        <time>2020-07-01T14:33:25Z</time>
      </trkpt>
      <trkpt lat="48.94112" lon="2.73792">
        <ele>53.3</ele>
        <time>2020-07-01T14:33:26Z</time>
      </trkpt>
      <trkpt lat="48.94112" lon="2.73784">
        <ele>53.4</ele>
        <time>2020-07-01T14:33:27Z</time>
      </trkpt>
      <trkpt lat="48.94114" lon="2.73775">
        <ele>53.5</ele>
        <time>2020-07-01T14:33:28Z</time>
      </trkpt>
      <trkpt lat="48.94113" lon="2.73767">
        <ele>53.6</ele>
        <time>2020-07-01T14:33:29Z</time>
      </trkpt>
      <trkpt lat="48.94115" lon="2.73759">
        <ele>53.7</ele>
        <time>2020-07-01T14:33:30Z</time>
      </trkpt>
      <trkpt lat="48.94117" lon="2.7375">
        <ele>53.8</ele>
        <time>2020-07-01T14:33:31Z</time>
      </trkpt>
      <trkpt lat="48.94117" lon="2.73742">
        <ele>53.9</ele>
        <time>2020-07-01T14:33:32Z</time>
      </trkpt>
      <trkpt lat="48.94118" lon="2.73733">
        <ele>54</ele>
        <time>2020-07-01T14:33:33Z</time>
      </trkpt>
      <trkpt lat="48.94118" lon="2.73724">
        <ele>54.1</ele>
        <time>2020-07-01T14:33:34Z</time>
      </trkpt>
      <trkpt lat="48.94119" lon="2.73716">
        <ele>54.1</ele>
        <time>2020-07-01T14:33:35Z</time>
      </trkpt>
      <trkpt lat="48.9412" lon="2.73708">
        <ele>54.2</ele>
        <time>2020-07-01T14:33:36Z</time>
      </trkpt>
      <trkpt lat="48.9412" lon="2.73701">
        <ele>54.3</ele>
        <time>2020-07-01T14:33:37Z</time>
      </trkpt>
      <trkpt lat="48.94121" lon="2.73692">
        <ele>54.3</ele>
        <time>2020-07-01T14:33:38Z</time>
      </trkpt>
      <trkpt lat="48.94122" lon="2.73683">
        <ele>54.4</ele>
        <time>2020-07-01T14:33:39Z</time>
      </trkpt>
      <trkpt lat="48.94123" lon="2.73675">
        <ele>54.5</ele>
        <time>2020-07-01T14:33:40Z</time>
      </trkpt>
      <trkpt lat="48.94123" lon="2.73667">
        <ele>54.6</ele>
        <time>2020-07-01T14:33:41Z</time>
      </trkpt>
      <trkpt lat="48.94123" lon="2.73659">
        <ele>54.6</ele>
        <time>2020-07-01T14:33:42Z</time>
      </trkpt>
      <trkpt lat="48.94124" lon="2.7365">
        <ele>54.7</ele>
        <time>2020-07-01T14:33:43Z</time>
      </trkpt>
      <trkpt lat="48.94124" lon="2.73641">
        <ele>54.8</ele>
        <time>2020-07-01T14:33:44Z</time>
      </trkpt>
      <trkpt lat="48.94125" lon="2.73631">
        <ele>54.8</ele>
        <time>2020-07-01T14:33:45Z</time>
      </trkpt>
      <trkpt lat="48.94125" lon="2.73623">
        <ele>54.9</ele>
        <time>2020-07-01T14:33:46Z</time>
      </trkpt>
      <trkpt lat="48.94126" lon="2.73615">
        <ele>54.9</ele>
        <time>2020-07-01T14:33:47Z</time>
      </trkpt>
      <trkpt lat="48.94126" lon="2.73608">
        <ele>54.9</ele>
        <time>2020-07-01T14:33:48Z</time>
      </trkpt>
      <trkpt lat="48.94127" lon="2.73601">
        <ele>54.9</ele>
        <time>2020-07-01T14:33:49Z</time>
      </trkpt>
      <trkpt lat="48.94128" lon="2.73593">
        <ele>54.9</ele>
        <time>2020-07-01T14:33:50Z</time>
      </trkpt>
      <trkpt lat="48.9413" lon="2.73585">
        <ele>54.9</ele>
        <time>2020-07-01T14:33:51Z</time>
      </trkpt>
      <trkpt lat="48.94131" lon="2.73577">
        <ele>54.9</ele>
        <time>2020-07-01T14:33:52Z</time>
      </trkpt>
      <trkpt lat="48.94131" lon="2.7357">
        <ele>54.8</ele>
        <time>2020-07-01T14:33:53Z</time>
      </trkpt>
      <trkpt lat="48.94132" lon="2.73562">
        <ele>54.8</ele>
        <time>2020-07-01T14:33:54Z</time>
      </trkpt>
      <trkpt lat="48.94134" lon="2.73554">
        <ele>54.8</ele>
        <time>2020-07-01T14:33:55Z</time>
      </trkpt>
      <trkpt lat="48.94135" lon="2.73546">
        <ele>54.8</ele>
        <time>2020-07-01T14:33:56Z</time>
      </trkpt>
      <trkpt lat="48.94136" lon="2.73537">
        <ele>54.8</ele>
        <time>2020-07-01T14:33:57Z</time>
      </trkpt>
      <trkpt lat="48.94137" lon="2.73528">
        <ele>54.7</ele>
        <time>2020-07-01T14:33:58Z</time>
      </trkpt>
      <trkpt lat="48.94138" lon="2.73519">
        <ele>54.7</ele>
        <time>2020-07-01T14:33:59Z</time>
      </trkpt>
      <trkpt lat="48.94138" lon="2.7351">
        <ele>54.6</ele>
        <time>2020-07-01T14:34:00Z</time>
      </trkpt>
      <trkpt lat="48.94139" lon="2.73501">
        <ele>54.5</ele>
        <time>2020-07-01T14:34:01Z</time>
      </trkpt>
      <trkpt lat="48.94139" lon="2.73492">
        <ele>54.4</ele>
        <time>2020-07-01T14:34:02Z</time>
      </trkpt>
      <trkpt lat="48.94138" lon="2.73481">
        <ele>54.2</ele>
        <time>2020-07-01T14:34:03Z</time>
      </trkpt>
      <trkpt lat="48.94137" lon="2.7347">
        <ele>54.1</ele>
        <time>2020-07-01T14:34:04Z</time>
      </trkpt>
      <trkpt lat="48.94136" lon="2.73459">
        <ele>54</ele>
        <time>2020-07-01T14:34:05Z</time>
      </trkpt>
      <trkpt lat="48.94135" lon="2.7345">
        <ele>53.9</ele>
        <time>2020-07-01T14:34:06Z</time>
      </trkpt>
      <trkpt lat="48.94133" lon="2.73441">
        <ele>53.8</ele>
        <time>2020-07-01T14:34:07Z</time>
      </trkpt>
      <trkpt lat="48.94132" lon="2.73433">
        <ele>53.7</ele>
        <time>2020-07-01T14:34:08Z</time>
      </trkpt>
      <trkpt lat="48.94132" lon="2.73422">
        <ele>53.6</ele>
        <time>2020-07-01T14:34:09Z</time>
      </trkpt>
      <trkpt lat="48.94131" lon="2.73413">
        <ele>53.5</ele>
        <time>2020-07-01T14:34:10Z</time>
      </trkpt>
      <trkpt lat="48.94129" lon="2.73402">
        <ele>53.4</ele>
        <time>2020-07-01T14:34:11Z</time>
      </trkpt>
      <trkpt lat="48.94129" lon="2.73393">
        <ele>53.3</ele>
        <time>2020-07-01T14:34:12Z</time>
      </trkpt>
      <trkpt lat="48.94128" lon="2.73383">
        <ele>53.3</ele>
        <time>2020-07-01T14:34:13Z</time>
      </trkpt>
      <trkpt lat="48.94127" lon="2.73371">
        <ele>53.2</ele>
        <time>2020-07-01T14:34:14Z</time>
      </trkpt>
      <trkpt lat="48.94126" lon="2.7336">
        <ele>53.1</ele>
        <time>2020-07-01T14:34:15Z</time>
      </trkpt>
      <trkpt lat="48.94126" lon="2.73348">
        <ele>53</ele>
        <time>2020-07-01T14:34:16Z</time>
      </trkpt>
      <trkpt lat="48.94125" lon="2.73336">
        <ele>52.8</ele>
        <time>2020-07-01T14:34:17Z</time>
      </trkpt>
      <trkpt lat="48.94124" lon="2.73324">
        <ele>52.7</ele>
        <time>2020-07-01T14:34:18Z</time>
      </trkpt>
      <trkpt lat="48.94122" lon="2.73312">
        <ele>52.6</ele>
        <time>2020-07-01T14:34:19Z</time>
      </trkpt>
      <trkpt lat="48.94121" lon="2.73301">
        <ele>52.5</ele>
        <time>2020-07-01T14:34:20Z</time>
      </trkpt>
      <trkpt lat="48.94121" lon="2.7329">
        <ele>52.4</ele>
        <time>2020-07-01T14:34:21Z</time>
      </trkpt>
      <trkpt lat="48.94119" lon="2.73278">
        <ele>52.4</ele>
        <time>2020-07-01T14:34:22Z</time>
      </trkpt>
      <trkpt lat="48.94119" lon="2.73266">
        <ele>52.3</ele>
        <time>2020-07-01T14:34:23Z</time>
      </trkpt>
      <trkpt lat="48.94118" lon="2.73254">
        <ele>52.3</ele>
        <time>2020-07-01T14:34:24Z</time>
      </trkpt>
      <trkpt lat="48.94118" lon="2.73244">
        <ele>52.3</ele>
        <time>2020-07-01T14:34:25Z</time>
      </trkpt>
      <trkpt lat="48.94118" lon="2.73233">
        <ele>52.3</ele>
        <time>2020-07-01T14:34:26Z</time>
      </trkpt>
      <trkpt lat="48.94117" lon="2.73222">
        <ele>52.2</ele>
        <time>2020-07-01T14:34:27Z</time>
      </trkpt>
      <trkpt lat="48.94116" lon="2.7321">
        <ele>52.2</ele>
        <time>2020-07-01T14:34:28Z</time>
      </trkpt>
      <trkpt lat="48.94117" lon="2.73199">
        <ele>52.2</ele>
        <time>2020-07-01T14:34:29Z</time>
      </trkpt>
      <trkpt lat="48.94118" lon="2.73188">
        <ele>52.2</ele>
        <time>2020-07-01T14:34:30Z</time>
      </trkpt>
      <trkpt lat="48.94118" lon="2.73177">
        <ele>52.1</ele>
        <time>2020-07-01T14:34:31Z</time>
      </trkpt>
      <trkpt lat="48.94117" lon="2.73167">
        <ele>52.1</ele>
        <time>2020-07-01T14:34:32Z</time>
      </trkpt>
      <trkpt lat="48.94116" lon="2.73156">
        <ele>52.1</ele>
        <time>2020-07-01T14:34:33Z</time>
      </trkpt>
      <trkpt lat="48.94116" lon="2.73145">
        <ele>52.1</ele>
        <time>2020-07-01T14:34:34Z</time>
      </trkpt>
      <trkpt lat="48.94116" lon="2.73135">
        <ele>52.1</ele>
        <time>2020-07-01T14:34:35Z</time>
      </trkpt>
      <trkpt lat="48.94116" lon="2.73124">
        <ele>52.1</ele>
        <time>2020-07-01T14:34:36Z</time>
      </trkpt>
      <trkpt lat="48.94116" lon="2.73113">
        <ele>52.1</ele>
        <time>2020-07-01T14:34:37Z</time>
      </trkpt>
      <trkpt lat="48.94117" lon="2.73102">
        <ele>52.1</ele>
        <time>2020-07-01T14:34:38Z</time>
      </trkpt>
      <trkpt lat="48.94117" lon="2.73092">
        <ele>52.1</ele>
        <time>2020-07-01T14:34:39Z</time>
      </trkpt>
      <trkpt lat="48.94118" lon="2.73081">
        <ele>52.1</ele>
        <time>2020-07-01T14:34:40Z</time>
      </trkpt>
      <trkpt lat="48.94119" lon="2.73071">
        <ele>52.1</ele>
        <time>2020-07-01T14:34:41Z</time>
      </trkpt>
      <trkpt lat="48.94121" lon="2.73061">
        <ele>52.1</ele>
        <time>2020-07-01T14:34:42Z</time>
      </trkpt>
      <trkpt lat="48.94122" lon="2.73051">
        <ele>52.2</ele>
        <time>2020-07-01T14:34:43Z</time>
      </trkpt>
      <trkpt lat="48.94122" lon="2.7304">
        <ele>52.2</ele>
        <time>2020-07-01T14:34:44Z</time>
      </trkpt>
      <trkpt lat="48.94123" lon="2.7303">
        <ele>52.2</ele>
        <time>2020-07-01T14:34:45Z</time>
      </trkpt>
      <trkpt lat="48.94125" lon="2.73021">
        <ele>52.3</ele>
        <time>2020-07-01T14:34:46Z</time>
      </trkpt>
      <trkpt lat="48.94125" lon="2.7301">
        <ele>52.3</ele>
        <time>2020-07-01T14:34:47Z</time>
      </trkpt>
      <trkpt lat="48.94126" lon="2.73">
        <ele>52.3</ele>
        <time>2020-07-01T14:34:48Z</time>
      </trkpt>
      <trkpt lat="48.94126" lon="2.72989">
        <ele>52.4</ele>
        <time>2020-07-01T14:34:49Z</time>
      </trkpt>
      <trkpt lat="48.94127" lon="2.72979">
        <ele>52.4</ele>
        <time>2020-07-01T14:34:50Z</time>
      </trkpt>
      <trkpt lat="48.94129" lon="2.72969">
        <ele>52.5</ele>
        <time>2020-07-01T14:34:51Z</time>
      </trkpt>
      <trkpt lat="48.9413" lon="2.72958">
        <ele>52.5</ele>
        <time>2020-07-01T14:34:52Z</time>
      </trkpt>
      <trkpt lat="48.94132" lon="2.72948">
        <ele>52.6</ele>
        <time>2020-07-01T14:34:53Z</time>
      </trkpt>
      <trkpt lat="48.94133" lon="2.72938">
        <ele>52.6</ele>
        <time>2020-07-01T14:34:54Z</time>
      </trkpt>
      <trkpt lat="48.94135" lon="2.72927">
        <ele>52.6</ele>
        <time>2020-07-01T14:34:55Z</time>
      </trkpt>
      <trkpt lat="48.94136" lon="2.72917">
        <ele>52.6</ele>
        <time>2020-07-01T14:34:56Z</time>
      </trkpt>
      <trkpt lat="48.94138" lon="2.72907">
        <ele>52.6</ele>
        <time>2020-07-01T14:34:57Z</time>
      </trkpt>
      <trkpt lat="48.9414" lon="2.72897">
        <ele>52.6</ele>
        <time>2020-07-01T14:34:58Z</time>
      </trkpt>
      <trkpt lat="48.94141" lon="2.72887">
        <ele>52.6</ele>
        <time>2020-07-01T14:34:59Z</time>
      </trkpt>
      <trkpt lat="48.94143" lon="2.72878">
        <ele>52.6</ele>
        <time>2020-07-01T14:35:00Z</time>
      </trkpt>
      <trkpt lat="48.94144" lon="2.72868">
        <ele>52.6</ele>
        <time>2020-07-01T14:35:01Z</time>
      </trkpt>
      <trkpt lat="48.94146" lon="2.72859">
        <ele>52.6</ele>
        <time>2020-07-01T14:35:02Z</time>
      </trkpt>
      <trkpt lat="48.94149" lon="2.7285">
        <ele>52.6</ele>
        <time>2020-07-01T14:35:03Z</time>
      </trkpt>
      <trkpt lat="48.94151" lon="2.72841">
        <ele>52.6</ele>
        <time>2020-07-01T14:35:04Z</time>
      </trkpt>
      <trkpt lat="48.94154" lon="2.72832">
        <ele>52.6</ele>
        <time>2020-07-01T14:35:05Z</time>
      </trkpt>
      <trkpt lat="48.94156" lon="2.72823">
        <ele>52.5</ele>
        <time>2020-07-01T14:35:06Z</time>
      </trkpt>
      <trkpt lat="48.94159" lon="2.72814">
        <ele>52.5</ele>
        <time>2020-07-01T14:35:07Z</time>
      </trkpt>
      <trkpt lat="48.94161" lon="2.72805">
        <ele>52.5</ele>
        <time>2020-07-01T14:35:08Z</time>
      </trkpt>
      <trkpt lat="48.94163" lon="2.72797">
        <ele>52.4</ele>
        <time>2020-07-01T14:35:09Z</time>
      </trkpt>
      <trkpt lat="48.94165" lon="2.7279">
        <ele>52.3</ele>
        <time>2020-07-01T14:35:10Z</time>
      </trkpt>
      <trkpt lat="48.94167" lon="2.72783">
        <ele>52.3</ele>
        <time>2020-07-01T14:35:11Z</time>
      </trkpt>
      <trkpt lat="48.9417" lon="2.72775">
        <ele>52.2</ele>
        <time>2020-07-01T14:35:12Z</time>
      </trkpt>
      <trkpt lat="48.94172" lon="2.72768">
        <ele>52.1</ele>
        <time>2020-07-01T14:35:13Z</time>
      </trkpt>
      <trkpt lat="48.94174" lon="2.72761">
        <ele>52.1</ele>
        <time>2020-07-01T14:35:14Z</time>
      </trkpt>
      <trkpt lat="48.94176" lon="2.72754">
        <ele>52</ele>
        <time>2020-07-01T14:35:15Z</time>
      </trkpt>
      <trkpt lat="48.94178" lon="2.72747">
        <ele>51.9</ele>
        <time>2020-07-01T14:35:16Z</time>
      </trkpt>
      <trkpt lat="48.9418" lon="2.72739">
        <ele>51.8</ele>
        <time>2020-07-01T14:35:17Z</time>
      </trkpt>
      <trkpt lat="48.94181" lon="2.72731">
        <ele>51.6</ele>
        <time>2020-07-01T14:35:18Z</time>
      </trkpt>
      <trkpt lat="48.94183" lon="2.72723">
        <ele>51.5</ele>
        <time>2020-07-01T14:35:19Z</time>
      </trkpt>
      <trkpt lat="48.94184" lon="2.72717">
        <ele>51.5</ele>
        <time>2020-07-01T14:35:20Z</time>
      </trkpt>
      <trkpt lat="48.94186" lon="2.7271">
        <ele>51.4</ele>
        <time>2020-07-01T14:35:21Z</time>
      </trkpt>
      <trkpt lat="48.94187" lon="2.72703">
        <ele>51.3</ele>
        <time>2020-07-01T14:35:22Z</time>
      </trkpt>
      <trkpt lat="48.94187" lon="2.72696">
        <ele>51.2</ele>
        <time>2020-07-01T14:35:23Z</time>
      </trkpt>
      <trkpt lat="48.94187" lon="2.72689">
        <ele>51</ele>
        <time>2020-07-01T14:35:24Z</time>
      </trkpt>
      <trkpt lat="48.94188" lon="2.72682">
        <ele>50.9</ele>
        <time>2020-07-01T14:35:25Z</time>
      </trkpt>
      <trkpt lat="48.9419" lon="2.72675">
        <ele>50.8</ele>
        <time>2020-07-01T14:35:26Z</time>
      </trkpt>
      <trkpt lat="48.94191" lon="2.72669">
        <ele>50.7</ele>
        <time>2020-07-01T14:35:27Z</time>
      </trkpt>
      <trkpt lat="48.94193" lon="2.72662">
        <ele>50.5</ele>
        <time>2020-07-01T14:35:28Z</time>
      </trkpt>
      <trkpt lat="48.94194" lon="2.72655">
        <ele>50.4</ele>
        <time>2020-07-01T14:35:29Z</time>
      </trkpt>
      <trkpt lat="48.94194" lon="2.72648">
        <ele>50.2</ele>
        <time>2020-07-01T14:35:30Z</time>
      </trkpt>
      <trkpt lat="48.94195" lon="2.7264">
        <ele>50.1</ele>
        <time>2020-07-01T14:35:31Z</time>
      </trkpt>
      <trkpt lat="48.94195" lon="2.72633">
        <ele>49.9</ele>
        <time>2020-07-01T14:35:32Z</time>
      </trkpt>
      <trkpt lat="48.94196" lon="2.72625">
        <ele>49.8</ele>
        <time>2020-07-01T14:35:33Z</time>
      </trkpt>
      <trkpt lat="48.94196" lon="2.72617">
        <ele>49.6</ele>
        <time>2020-07-01T14:35:34Z</time>
      </trkpt>
      <trkpt lat="48.94197" lon="2.7261">
        <ele>49.5</ele>
        <time>2020-07-01T14:35:35Z</time>
      </trkpt>
      <trkpt lat="48.94198" lon="2.72602">
        <ele>49.3</ele>
        <time>2020-07-01T14:35:36Z</time>
      </trkpt>
      <trkpt lat="48.94198" lon="2.72595">
        <ele>49.1</ele>
        <time>2020-07-01T14:35:37Z</time>
      </trkpt>
      <trkpt lat="48.94198" lon="2.72589">
        <ele>49</ele>
        <time>2020-07-01T14:35:38Z</time>
      </trkpt>
      <trkpt lat="48.94199" lon="2.72584">
        <ele>48.9</ele>
        <time>2020-07-01T14:35:39Z</time>
      </trkpt>
      <trkpt lat="48.94199" lon="2.72579">
        <ele>48.8</ele>
        <time>2020-07-01T14:35:40Z</time>
      </trkpt>
      <trkpt lat="48.94199" lon="2.72578">
        <ele>48.8</ele>
        <time>2020-07-01T14:35:41Z</time>
      </trkpt>
      <trkpt lat="48.94199" lon="2.72574">
        <ele>48.7</ele>
        <time>2020-07-01T14:35:42Z</time>
      </trkpt>
      <trkpt lat="48.94199" lon="2.72573">
        <ele>48.7</ele>
        <time>2020-07-01T14:35:43Z</time>
      </trkpt>
      <trkpt lat="48.94199" lon="2.72567">
        <ele>48.6</ele>
        <time>2020-07-01T14:35:44Z</time>
      </trkpt>
      <trkpt lat="48.942" lon="2.72566">
        <ele>48.5</ele>
        <time>2020-07-01T14:35:45Z</time>
      </trkpt>
      <trkpt lat="48.94201" lon="2.72562">
        <ele>48.4</ele>
        <time>2020-07-01T14:35:46Z</time>
      </trkpt>
      <trkpt lat="48.94204" lon="2.7256">
        <ele>48.4</ele>
        <time>2020-07-01T14:35:47Z</time>
      </trkpt>
      <trkpt lat="48.94205" lon="2.72555">
        <ele>48.4</ele>
        <time>2020-07-01T14:35:48Z</time>
      </trkpt>
      <trkpt lat="48.94207" lon="2.72551">
        <ele>48.4</ele>
        <time>2020-07-01T14:35:49Z</time>
      </trkpt>
      <trkpt lat="48.94209" lon="2.72547">
        <ele>48.5</ele>
        <time>2020-07-01T14:35:50Z</time>
      </trkpt>
      <trkpt lat="48.94209" lon="2.72545">
        <ele>48.5</ele>
        <time>2020-07-01T14:35:51Z</time>
      </trkpt>
      <trkpt lat="48.94209" lon="2.72543">
        <ele>48.5</ele>
        <time>2020-07-01T14:35:52Z</time>
      </trkpt>
      <trkpt lat="48.94209" lon="2.72542">
        <ele>48.5</ele>
        <time>2020-07-01T14:35:53Z</time>
      </trkpt>
      <trkpt lat="48.94208" lon="2.72542">
        <ele>48.5</ele>
        <time>2020-07-01T14:35:54Z</time>
      </trkpt>
      <trkpt lat="48.94209" lon="2.72542">
        <ele>48.5</ele>
        <time>2020-07-01T14:35:55Z</time>
      </trkpt>
      <trkpt lat="48.94209" lon="2.72542">
        <ele>48.5</ele>
        <time>2020-07-01T14:35:56Z</time>
      </trkpt>
      <trkpt lat="48.94211" lon="2.72542">
        <ele>48.5</ele>
        <time>2020-07-01T14:35:57Z</time>
      </trkpt>
      <trkpt lat="48.94211" lon="2.72544">
        <ele>48.5</ele>
        <time>2020-07-01T14:35:58Z</time>
      </trkpt>
      <trkpt lat="48.94212" lon="2.72542">
        <ele>48.5</ele>
        <time>2020-07-01T14:35:59Z</time>
      </trkpt>
      <trkpt lat="48.94211" lon="2.72539">
        <ele>48.5</ele>
        <time>2020-07-01T14:36:00Z</time>
      </trkpt>
      <trkpt lat="48.94211" lon="2.72537">
        <ele>48.5</ele>
        <time>2020-07-01T14:36:01Z</time>
      </trkpt>
      <trkpt lat="48.9421" lon="2.72534">
        <ele>48.5</ele>
        <time>2020-07-01T14:36:02Z</time>
      </trkpt>
      <trkpt lat="48.9421" lon="2.72531">
        <ele>48.5</ele>
        <time>2020-07-01T14:36:03Z</time>
      </trkpt>
      <trkpt lat="48.94209" lon="2.72529">
        <ele>48.6</ele>
        <time>2020-07-01T14:39:20Z</time>
      </trkpt>
      <trkpt lat="48.94209" lon="2.72526">
        <ele>48.6</ele>
        <time>2020-07-01T14:39:21Z</time>
      </trkpt>
      <trkpt lat="48.94208" lon="2.72521">
        <ele>48.6</ele>
        <time>2020-07-01T14:39:22Z</time>
      </trkpt>
      <trkpt lat="48.94206" lon="2.72517">
        <ele>48.6</ele>
        <time>2020-07-01T14:39:23Z</time>
      </trkpt>
      <trkpt lat="48.94204" lon="2.72513">
        <ele>48.5</ele>
        <time>2020-07-01T14:39:24Z</time>
      </trkpt>
      <trkpt lat="48.942" lon="2.72509">
        <ele>48.5</ele>
        <time>2020-07-01T14:39:25Z</time>
      </trkpt>
      <trkpt lat="48.94196" lon="2.72505">
        <ele>48.4</ele>
        <time>2020-07-01T14:39:26Z</time>
      </trkpt>
      <trkpt lat="48.94192" lon="2.72503">
        <ele>48.4</ele>
        <time>2020-07-01T14:39:27Z</time>
      </trkpt>
      <trkpt lat="48.94186" lon="2.72502">
        <ele>48.4</ele>
        <time>2020-07-01T14:39:28Z</time>
      </trkpt>
      <trkpt lat="48.94181" lon="2.72503">
        <ele>48.2</ele>
        <time>2020-07-01T14:39:29Z</time>
      </trkpt>
      <trkpt lat="48.94176" lon="2.72506">
        <ele>48</ele>
        <time>2020-07-01T14:39:30Z</time>
      </trkpt>
      <trkpt lat="48.94172" lon="2.72512">
        <ele>47.7</ele>
        <time>2020-07-01T14:39:31Z</time>
      </trkpt>
      <trkpt lat="48.94167" lon="2.72517">
        <ele>47.5</ele>
        <time>2020-07-01T14:39:32Z</time>
      </trkpt>
      <trkpt lat="48.94163" lon="2.72523">
        <ele>47.1</ele>
        <time>2020-07-01T14:39:33Z</time>
      </trkpt>
      <trkpt lat="48.94158" lon="2.72528">
        <ele>47</ele>
        <time>2020-07-01T14:39:34Z</time>
      </trkpt>
      <trkpt lat="48.94154" lon="2.72533">
        <ele>46.9</ele>
        <time>2020-07-01T14:39:35Z</time>
      </trkpt>
      <trkpt lat="48.94149" lon="2.72537">
        <ele>46.7</ele>
        <time>2020-07-01T14:39:36Z</time>
      </trkpt>
      <trkpt lat="48.94142" lon="2.72539">
        <ele>46.6</ele>
        <time>2020-07-01T14:39:37Z</time>
      </trkpt>
      <trkpt lat="48.94136" lon="2.72542">
        <ele>46.5</ele>
        <time>2020-07-01T14:39:38Z</time>
      </trkpt>
      <trkpt lat="48.9413" lon="2.72546">
        <ele>46.3</ele>
        <time>2020-07-01T14:39:39Z</time>
      </trkpt>
      <trkpt lat="48.94123" lon="2.72549">
        <ele>46.2</ele>
        <time>2020-07-01T14:39:40Z</time>
      </trkpt>
      <trkpt lat="48.94117" lon="2.72553">
        <ele>46.1</ele>
        <time>2020-07-01T14:39:41Z</time>
      </trkpt>
      <trkpt lat="48.9411" lon="2.72556">
        <ele>46</ele>
        <time>2020-07-01T14:39:42Z</time>
      </trkpt>
      <trkpt lat="48.94104" lon="2.7256">
        <ele>45.9</ele>
        <time>2020-07-01T14:39:43Z</time>
      </trkpt>
      <trkpt lat="48.94098" lon="2.72564">
        <ele>45.8</ele>
        <time>2020-07-01T14:39:44Z</time>
      </trkpt>
      <trkpt lat="48.94092" lon="2.72568">
        <ele>45.7</ele>
        <time>2020-07-01T14:39:45Z</time>
      </trkpt>
      <trkpt lat="48.94085" lon="2.72572">
        <ele>45.7</ele>
        <time>2020-07-01T14:39:46Z</time>
      </trkpt>
      <trkpt lat="48.94079" lon="2.72576">
        <ele>45.7</ele>
        <time>2020-07-01T14:39:47Z</time>
      </trkpt>
      <trkpt lat="48.94073" lon="2.7258">
        <ele>45.7</ele>
        <time>2020-07-01T14:39:48Z</time>
      </trkpt>
      <trkpt lat="48.94067" lon="2.72584">
        <ele>45.7</ele>
        <time>2020-07-01T14:39:49Z</time>
      </trkpt>
      <trkpt lat="48.94061" lon="2.72588">
        <ele>45.7</ele>
        <time>2020-07-01T14:39:50Z</time>
      </trkpt>
      <trkpt lat="48.94054" lon="2.72592">
        <ele>45.7</ele>
        <time>2020-07-01T14:39:51Z</time>
      </trkpt>
      <trkpt lat="48.94048" lon="2.72596">
        <ele>45.7</ele>
        <time>2020-07-01T14:39:52Z</time>
      </trkpt>
      <trkpt lat="48.94041" lon="2.72599">
        <ele>45.7</ele>
        <time>2020-07-01T14:39:53Z</time>
      </trkpt>
      <trkpt lat="48.94035" lon="2.72602">
        <ele>45.7</ele>
        <time>2020-07-01T14:39:54Z</time>
      </trkpt>
      <trkpt lat="48.94028" lon="2.72605">
        <ele>45.8</ele>
        <time>2020-07-01T14:39:55Z</time>
      </trkpt>
      <trkpt lat="48.94022" lon="2.72609">
        <ele>45.9</ele>
        <time>2020-07-01T14:39:56Z</time>
      </trkpt>
      <trkpt lat="48.94016" lon="2.72613">
        <ele>46</ele>
        <time>2020-07-01T14:39:57Z</time>
      </trkpt>
      <trkpt lat="48.94009" lon="2.72617">
        <ele>46.1</ele>
        <time>2020-07-01T14:39:58Z</time>
      </trkpt>
      <trkpt lat="48.94002" lon="2.72621">
        <ele>46.3</ele>
        <time>2020-07-01T14:39:59Z</time>
      </trkpt>
      <trkpt lat="48.93995" lon="2.72625">
        <ele>46.4</ele>
        <time>2020-07-01T14:40:00Z</time>
      </trkpt>
      <trkpt lat="48.93988" lon="2.72629">
        <ele>46.6</ele>
        <time>2020-07-01T14:40:01Z</time>
      </trkpt>
      <trkpt lat="48.93981" lon="2.72633">
        <ele>46.7</ele>
        <time>2020-07-01T14:40:02Z</time>
      </trkpt>
      <trkpt lat="48.93975" lon="2.72637">
        <ele>46.9</ele>
        <time>2020-07-01T14:40:03Z</time>
      </trkpt>
      <trkpt lat="48.93968" lon="2.72641">
        <ele>47.1</ele>
        <time>2020-07-01T14:40:04Z</time>
      </trkpt>
      <trkpt lat="48.93961" lon="2.72645">
        <ele>47.2</ele>
        <time>2020-07-01T14:40:05Z</time>
      </trkpt>
      <trkpt lat="48.93955" lon="2.72649">
        <ele>47.3</ele>
        <time>2020-07-01T14:40:06Z</time>
      </trkpt>
      <trkpt lat="48.93948" lon="2.72653">
        <ele>47.5</ele>
        <time>2020-07-01T14:40:07Z</time>
      </trkpt>
      <trkpt lat="48.93942" lon="2.72658">
        <ele>47.7</ele>
        <time>2020-07-01T14:40:08Z</time>
      </trkpt>
      <trkpt lat="48.93935" lon="2.72662">
        <ele>47.8</ele>
        <time>2020-07-01T14:40:09Z</time>
      </trkpt>
      <trkpt lat="48.93929" lon="2.72666">
        <ele>48</ele>
        <time>2020-07-01T14:40:10Z</time>
      </trkpt>
      <trkpt lat="48.93923" lon="2.7267">
        <ele>48.2</ele>
        <time>2020-07-01T14:40:11Z</time>
      </trkpt>
      <trkpt lat="48.93916" lon="2.72674">
        <ele>48.4</ele>
        <time>2020-07-01T14:40:12Z</time>
      </trkpt>
      <trkpt lat="48.9391" lon="2.72678">
        <ele>48.6</ele>
        <time>2020-07-01T14:40:13Z</time>
      </trkpt>
      <trkpt lat="48.93904" lon="2.72681">
        <ele>48.9</ele>
        <time>2020-07-01T14:40:14Z</time>
      </trkpt>
      <trkpt lat="48.93898" lon="2.72685">
        <ele>49.1</ele>
        <time>2020-07-01T14:40:15Z</time>
      </trkpt>
      <trkpt lat="48.93892" lon="2.72689">
        <ele>49.2</ele>
        <time>2020-07-01T14:40:16Z</time>
      </trkpt>
      <trkpt lat="48.93886" lon="2.72692">
        <ele>49.4</ele>
        <time>2020-07-01T14:40:17Z</time>
      </trkpt>
      <trkpt lat="48.93881" lon="2.72698">
        <ele>49.6</ele>
        <time>2020-07-01T14:40:18Z</time>
      </trkpt>
      <trkpt lat="48.93875" lon="2.72701">
        <ele>49.7</ele>
        <time>2020-07-01T14:40:19Z</time>
      </trkpt>
      <trkpt lat="48.9387" lon="2.72704">
        <ele>49.9</ele>
        <time>2020-07-01T14:40:20Z</time>
      </trkpt>
      <trkpt lat="48.93864" lon="2.72706">
        <ele>50.2</ele>
        <time>2020-07-01T14:40:21Z</time>
      </trkpt>
      <trkpt lat="48.93858" lon="2.7271">
        <ele>50.4</ele>
        <time>2020-07-01T14:40:22Z</time>
      </trkpt>
      <trkpt lat="48.93852" lon="2.72713">
        <ele>50.5</ele>
        <time>2020-07-01T14:40:23Z</time>
      </trkpt>
      <trkpt lat="48.93846" lon="2.72715">
        <ele>50.7</ele>
        <time>2020-07-01T14:40:24Z</time>
      </trkpt>
      <trkpt lat="48.9384" lon="2.72718">
        <ele>50.9</ele>
        <time>2020-07-01T14:40:25Z</time>
      </trkpt>
      <trkpt lat="48.93835" lon="2.72721">
        <ele>51.1</ele>
        <time>2020-07-01T14:40:26Z</time>
      </trkpt>
      <trkpt lat="48.9383" lon="2.72724">
        <ele>51.2</ele>
        <time>2020-07-01T14:40:27Z</time>
      </trkpt>
      <trkpt lat="48.93825" lon="2.72727">
        <ele>51.4</ele>
        <time>2020-07-01T14:40:28Z</time>
      </trkpt>
      <trkpt lat="48.93819" lon="2.72729">
        <ele>51.5</ele>
        <time>2020-07-01T14:40:29Z</time>
      </trkpt>
      <trkpt lat="48.93814" lon="2.72732">
        <ele>51.7</ele>
        <time>2020-07-01T14:40:30Z</time>
      </trkpt>
      <trkpt lat="48.93809" lon="2.72734">
        <ele>51.8</ele>
        <time>2020-07-01T14:40:31Z</time>
      </trkpt>
      <trkpt lat="48.93804" lon="2.72736">
        <ele>52</ele>
        <time>2020-07-01T14:40:32Z</time>
      </trkpt>
      <trkpt lat="48.93799" lon="2.72739">
        <ele>52.1</ele>
        <time>2020-07-01T14:40:33Z</time>
      </trkpt>
      <trkpt lat="48.93793" lon="2.7274">
        <ele>52.2</ele>
        <time>2020-07-01T14:40:34Z</time>
      </trkpt>
      <trkpt lat="48.93788" lon="2.72743">
        <ele>52.3</ele>
        <time>2020-07-01T14:40:35Z</time>
      </trkpt>
      <trkpt lat="48.93782" lon="2.72745">
        <ele>52.5</ele>
        <time>2020-07-01T14:40:36Z</time>
      </trkpt>
      <trkpt lat="48.93777" lon="2.72747">
        <ele>52.6</ele>
        <time>2020-07-01T14:40:37Z</time>
      </trkpt>
      <trkpt lat="48.93771" lon="2.72748">
        <ele>52.7</ele>
        <time>2020-07-01T14:40:38Z</time>
      </trkpt>
      <trkpt lat="48.93766" lon="2.7275">
        <ele>52.8</ele>
        <time>2020-07-01T14:40:39Z</time>
      </trkpt>
      <trkpt lat="48.93761" lon="2.72751">
        <ele>52.9</ele>
        <time>2020-07-01T14:40:40Z</time>
      </trkpt>
      <trkpt lat="48.93756" lon="2.72752">
        <ele>53</ele>
        <time>2020-07-01T14:40:41Z</time>
      </trkpt>
      <trkpt lat="48.93751" lon="2.72753">
        <ele>53.1</ele>
        <time>2020-07-01T14:40:42Z</time>
      </trkpt>
      <trkpt lat="48.93746" lon="2.72754">
        <ele>53.1</ele>
        <time>2020-07-01T14:40:43Z</time>
      </trkpt>
      <trkpt lat="48.9374" lon="2.72756">
        <ele>53.2</ele>
        <time>2020-07-01T14:40:44Z</time>
      </trkpt>
      <trkpt lat="48.93735" lon="2.72758">
        <ele>53.3</ele>
        <time>2020-07-01T14:40:45Z</time>
      </trkpt>
      <trkpt lat="48.93729" lon="2.7276">
        <ele>53.3</ele>
        <time>2020-07-01T14:40:46Z</time>
      </trkpt>
      <trkpt lat="48.93724" lon="2.72761">
        <ele>53.4</ele>
        <time>2020-07-01T14:40:47Z</time>
      </trkpt>
      <trkpt lat="48.93718" lon="2.72763">
        <ele>53.5</ele>
        <time>2020-07-01T14:40:48Z</time>
      </trkpt>
      <trkpt lat="48.93712" lon="2.72764">
        <ele>53.6</ele>
        <time>2020-07-01T14:40:49Z</time>
      </trkpt>
      <trkpt lat="48.93706" lon="2.72765">
        <ele>53.7</ele>
        <time>2020-07-01T14:40:50Z</time>
      </trkpt>
      <trkpt lat="48.937" lon="2.72766">
        <ele>53.7</ele>
        <time>2020-07-01T14:40:51Z</time>
      </trkpt>
      <trkpt lat="48.93695" lon="2.72767">
        <ele>53.8</ele>
        <time>2020-07-01T14:40:52Z</time>
      </trkpt>
      <trkpt lat="48.93689" lon="2.72767">
        <ele>53.8</ele>
        <time>2020-07-01T14:40:53Z</time>
      </trkpt>
      <trkpt lat="48.93684" lon="2.72768">
        <ele>53.8</ele>
        <time>2020-07-01T14:40:54Z</time>
      </trkpt>
      <trkpt lat="48.93678" lon="2.72768">
        <ele>53.8</ele>
        <time>2020-07-01T14:40:55Z</time>
      </trkpt>
      <trkpt lat="48.93672" lon="2.72769">
        <ele>53.9</ele>
        <time>2020-07-01T14:40:56Z</time>
      </trkpt>
      <trkpt lat="48.93666" lon="2.72769">
        <ele>53.9</ele>
        <time>2020-07-01T14:40:57Z</time>
      </trkpt>
      <trkpt lat="48.9366" lon="2.72769">
        <ele>54</ele>
        <time>2020-07-01T14:40:58Z</time>
      </trkpt>
      <trkpt lat="48.93654" lon="2.72769">
        <ele>54.1</ele>
        <time>2020-07-01T14:40:59Z</time>
      </trkpt>
      <trkpt lat="48.93648" lon="2.7277">
        <ele>54.2</ele>
        <time>2020-07-01T14:41:00Z</time>
      </trkpt>
      <trkpt lat="48.93642" lon="2.72771">
        <ele>54.2</ele>
        <time>2020-07-01T14:41:01Z</time>
      </trkpt>
      <trkpt lat="48.93636" lon="2.72772">
        <ele>54.2</ele>
        <time>2020-07-01T14:41:02Z</time>
      </trkpt>
      <trkpt lat="48.9363" lon="2.72773">
        <ele>54.2</ele>
        <time>2020-07-01T14:41:03Z</time>
      </trkpt>
      <trkpt lat="48.93623" lon="2.72774">
        <ele>54.2</ele>
        <time>2020-07-01T14:41:04Z</time>
      </trkpt>
      <trkpt lat="48.93617" lon="2.72775">
        <ele>54.2</ele>
        <time>2020-07-01T14:41:05Z</time>
      </trkpt>
      <trkpt lat="48.93611" lon="2.72775">
        <ele>54.2</ele>
        <time>2020-07-01T14:41:06Z</time>
      </trkpt>
      <trkpt lat="48.93605" lon="2.72776">
        <ele>54.2</ele>
        <time>2020-07-01T14:41:07Z</time>
      </trkpt>
      <trkpt lat="48.93599" lon="2.72777">
        <ele>54.2</ele>
        <time>2020-07-01T14:41:08Z</time>
      </trkpt>
      <trkpt lat="48.93592" lon="2.72777">
        <ele>54.1</ele>
        <time>2020-07-01T14:41:09Z</time>
      </trkpt>
      <trkpt lat="48.93586" lon="2.72777">
        <ele>54.1</ele>
        <time>2020-07-01T14:41:10Z</time>
      </trkpt>
      <trkpt lat="48.93579" lon="2.72778">
        <ele>54</ele>
        <time>2020-07-01T14:41:11Z</time>
      </trkpt>
      <trkpt lat="48.93573" lon="2.72778">
        <ele>54</ele>
        <time>2020-07-01T14:41:12Z</time>
      </trkpt>
      <trkpt lat="48.93566" lon="2.72779">
        <ele>53.9</ele>
        <time>2020-07-01T14:41:13Z</time>
      </trkpt>
      <trkpt lat="48.9356" lon="2.7278">
        <ele>53.9</ele>
        <time>2020-07-01T14:41:14Z</time>
      </trkpt>
      <trkpt lat="48.93553" lon="2.7278">
        <ele>53.8</ele>
        <time>2020-07-01T14:41:15Z</time>
      </trkpt>
      <trkpt lat="48.93547" lon="2.72781">
        <ele>53.7</ele>
        <time>2020-07-01T14:41:16Z</time>
      </trkpt>
      <trkpt lat="48.9354" lon="2.72781">
        <ele>53.7</ele>
        <time>2020-07-01T14:41:17Z</time>
      </trkpt>
      <trkpt lat="48.93534" lon="2.72783">
        <ele>53.6</ele>
        <time>2020-07-01T14:41:18Z</time>
      </trkpt>
      <trkpt lat="48.93527" lon="2.72783">
        <ele>53.6</ele>
        <time>2020-07-01T14:41:19Z</time>
      </trkpt>
      <trkpt lat="48.9352" lon="2.72784">
        <ele>53.5</ele>
        <time>2020-07-01T14:41:20Z</time>
      </trkpt>
      <trkpt lat="48.93514" lon="2.72785">
        <ele>53.5</ele>
        <time>2020-07-01T14:41:21Z</time>
      </trkpt>
      <trkpt lat="48.93507" lon="2.72786">
        <ele>53.4</ele>
        <time>2020-07-01T14:41:22Z</time>
      </trkpt>
      <trkpt lat="48.935" lon="2.72786">
        <ele>53.3</ele>
        <time>2020-07-01T14:41:23Z</time>
      </trkpt>
      <trkpt lat="48.93493" lon="2.72787">
        <ele>53.2</ele>
        <time>2020-07-01T14:41:24Z</time>
      </trkpt>
      <trkpt lat="48.93486" lon="2.72787">
        <ele>53.1</ele>
        <time>2020-07-01T14:41:25Z</time>
      </trkpt>
      <trkpt lat="48.93479" lon="2.72788">
        <ele>53</ele>
        <time>2020-07-01T14:41:26Z</time>
      </trkpt>
      <trkpt lat="48.93472" lon="2.72788">
        <ele>52.9</ele>
        <time>2020-07-01T14:41:27Z</time>
      </trkpt>
      <trkpt lat="48.93465" lon="2.72789">
        <ele>52.9</ele>
        <time>2020-07-01T14:41:28Z</time>
      </trkpt>
      <trkpt lat="48.93458" lon="2.72789">
        <ele>52.8</ele>
        <time>2020-07-01T14:41:29Z</time>
      </trkpt>
      <trkpt lat="48.93451" lon="2.7279">
        <ele>52.7</ele>
        <time>2020-07-01T14:41:30Z</time>
      </trkpt>
      <trkpt lat="48.93444" lon="2.7279">
        <ele>52.6</ele>
        <time>2020-07-01T14:41:31Z</time>
      </trkpt>
      <trkpt lat="48.93436" lon="2.72791">
        <ele>52.5</ele>
        <time>2020-07-01T14:41:32Z</time>
      </trkpt>
      <trkpt lat="48.93429" lon="2.72792">
        <ele>52.4</ele>
        <time>2020-07-01T14:41:33Z</time>
      </trkpt>
      <trkpt lat="48.93422" lon="2.72793">
        <ele>52.3</ele>
        <time>2020-07-01T14:41:34Z</time>
      </trkpt>
      <trkpt lat="48.93414" lon="2.72794">
        <ele>52.2</ele>
        <time>2020-07-01T14:41:35Z</time>
      </trkpt>
      <trkpt lat="48.93407" lon="2.72794">
        <ele>52</ele>
        <time>2020-07-01T14:41:36Z</time>
      </trkpt>
      <trkpt lat="48.93399" lon="2.72795">
        <ele>51.8</ele>
        <time>2020-07-01T14:41:37Z</time>
      </trkpt>
      <trkpt lat="48.93392" lon="2.72796">
        <ele>51.6</ele>
        <time>2020-07-01T14:41:38Z</time>
      </trkpt>
      <trkpt lat="48.93384" lon="2.72797">
        <ele>51.4</ele>
        <time>2020-07-01T14:41:39Z</time>
      </trkpt>
      <trkpt lat="48.93377" lon="2.72798">
        <ele>51.2</ele>
        <time>2020-07-01T14:41:40Z</time>
      </trkpt>
      <trkpt lat="48.9337" lon="2.72798">
        <ele>51.1</ele>
        <time>2020-07-01T14:41:41Z</time>
      </trkpt>
      <trkpt lat="48.93363" lon="2.72798">
        <ele>50.9</ele>
        <time>2020-07-01T14:41:42Z</time>
      </trkpt>
      <trkpt lat="48.93355" lon="2.72799">
        <ele>50.7</ele>
        <time>2020-07-01T14:41:43Z</time>
      </trkpt>
      <trkpt lat="48.93348" lon="2.728">
        <ele>50.5</ele>
        <time>2020-07-01T14:41:44Z</time>
      </trkpt>
      <trkpt lat="48.93341" lon="2.728">
        <ele>50.3</ele>
        <time>2020-07-01T14:41:45Z</time>
      </trkpt>
      <trkpt lat="48.93334" lon="2.72801">
        <ele>50.1</ele>
        <time>2020-07-01T14:41:46Z</time>
      </trkpt>
      <trkpt lat="48.93327" lon="2.72802">
        <ele>49.9</ele>
        <time>2020-07-01T14:41:47Z</time>
      </trkpt>
      <trkpt lat="48.93319" lon="2.72802">
        <ele>49.7</ele>
        <time>2020-07-01T14:41:48Z</time>
      </trkpt>
      <trkpt lat="48.93312" lon="2.72803">
        <ele>49.6</ele>
        <time>2020-07-01T14:41:49Z</time>
      </trkpt>
      <trkpt lat="48.93305" lon="2.72803">
        <ele>49.4</ele>
        <time>2020-07-01T14:41:50Z</time>
      </trkpt>
      <trkpt lat="48.93297" lon="2.72803">
        <ele>49.3</ele>
        <time>2020-07-01T14:41:51Z</time>
      </trkpt>
      <trkpt lat="48.9329" lon="2.72803">
        <ele>49.1</ele>
        <time>2020-07-01T14:41:52Z</time>
      </trkpt>
      <trkpt lat="48.93283" lon="2.72803">
        <ele>48.8</ele>
        <time>2020-07-01T14:41:53Z</time>
      </trkpt>
      <trkpt lat="48.93275" lon="2.72803">
        <ele>48.6</ele>
        <time>2020-07-01T14:41:54Z</time>
      </trkpt>
      <trkpt lat="48.93268" lon="2.72803">
        <ele>48.3</ele>
        <time>2020-07-01T14:41:55Z</time>
      </trkpt>
      <trkpt lat="48.93261" lon="2.72804">
        <ele>48</ele>
        <time>2020-07-01T14:41:56Z</time>
      </trkpt>
      <trkpt lat="48.93253" lon="2.72804">
        <ele>47.8</ele>
        <time>2020-07-01T14:41:57Z</time>
      </trkpt>
      <trkpt lat="48.93245" lon="2.72804">
        <ele>47.5</ele>
        <time>2020-07-01T14:41:58Z</time>
      </trkpt>
      <trkpt lat="48.93238" lon="2.72803">
        <ele>47.2</ele>
        <time>2020-07-01T14:41:59Z</time>
      </trkpt>
      <trkpt lat="48.9323" lon="2.72803">
        <ele>47</ele>
        <time>2020-07-01T14:42:00Z</time>
      </trkpt>
      <trkpt lat="48.93223" lon="2.72802">
        <ele>46.7</ele>
        <time>2020-07-01T14:42:01Z</time>
      </trkpt>
      <trkpt lat="48.93216" lon="2.72799">
        <ele>46.4</ele>
        <time>2020-07-01T14:42:02Z</time>
      </trkpt>
      <trkpt lat="48.93209" lon="2.72794">
        <ele>46.2</ele>
        <time>2020-07-01T14:42:03Z</time>
      </trkpt>
      <trkpt lat="48.93205" lon="2.72787">
        <ele>45.9</ele>
        <time>2020-07-01T14:42:04Z</time>
      </trkpt>
      <trkpt lat="48.93202" lon="2.72778">
        <ele>45.7</ele>
        <time>2020-07-01T14:42:05Z</time>
      </trkpt>
      <trkpt lat="48.93201" lon="2.72769">
        <ele>45.4</ele>
        <time>2020-07-01T14:42:06Z</time>
      </trkpt>
      <trkpt lat="48.932" lon="2.72761">
        <ele>45.5</ele>
        <time>2020-07-01T14:42:07Z</time>
      </trkpt>
      <trkpt lat="48.932" lon="2.72755">
        <ele>45.5</ele>
        <time>2020-07-01T14:42:08Z</time>
      </trkpt>
      <trkpt lat="48.932" lon="2.7275">
        <ele>45.5</ele>
        <time>2020-07-01T14:42:09Z</time>
      </trkpt>
      <trkpt lat="48.932" lon="2.72748">
        <ele>45.6</ele>
        <time>2020-07-01T14:42:10Z</time>
      </trkpt>
      <trkpt lat="48.932" lon="2.72746">
        <ele>45.6</ele>
        <time>2020-07-01T14:42:11Z</time>
      </trkpt>
      <trkpt lat="48.93201" lon="2.72746">
        <ele>45.6</ele>
        <time>2020-07-01T14:42:12Z</time>
      </trkpt>
      <trkpt lat="48.93202" lon="2.72747">
        <ele>45.6</ele>
        <time>2020-07-01T14:42:13Z</time>
      </trkpt>
      <trkpt lat="48.93202" lon="2.72747">
        <ele>45.6</ele>
        <time>2020-07-01T14:42:14Z</time>
      </trkpt>
      <trkpt lat="48.93202" lon="2.72746">
        <ele>45.6</ele>
        <time>2020-07-01T14:42:15Z</time>
      </trkpt>
      <trkpt lat="48.93202" lon="2.72746">
        <ele>45.6</ele>
        <time>2020-07-01T14:42:16Z</time>
      </trkpt>
      <trkpt lat="48.93202" lon="2.72745">
        <ele>45.6</ele>
        <time>2020-07-01T14:42:17Z</time>
      </trkpt>
      <trkpt lat="48.93203" lon="2.72745">
        <ele>45.6</ele>
        <time>2020-07-01T14:42:18Z</time>
      </trkpt>
      <trkpt lat="48.93203" lon="2.72745">
        <ele>45.6</ele>
        <time>2020-07-01T14:42:19Z</time>
      </trkpt>
      <trkpt lat="48.93203" lon="2.72744">
        <ele>45.6</ele>
        <time>2020-07-01T14:42:20Z</time>
      </trkpt>
      <trkpt lat="48.93203" lon="2.72744">
        <ele>45.6</ele>
        <time>2020-07-01T14:42:21Z</time>
      </trkpt>
      <trkpt lat="48.93204" lon="2.72743">
        <ele>45.6</ele>
        <time>2020-07-01T14:42:22Z</time>
      </trkpt>
      <trkpt lat="48.93204" lon="2.72742">
        <ele>45.6</ele>
        <time>2020-07-01T14:42:23Z</time>
      </trkpt>
      <trkpt lat="48.93203" lon="2.7274">
        <ele>45.6</ele>
        <time>2020-07-01T14:42:24Z</time>
      </trkpt>
      <trkpt lat="48.93203" lon="2.72738">
        <ele>45.6</ele>
        <time>2020-07-01T14:42:25Z</time>
      </trkpt>
      <trkpt lat="48.93203" lon="2.72737">
        <ele>45.5</ele>
        <time>2020-07-01T14:42:26Z</time>
      </trkpt>
      <trkpt lat="48.93202" lon="2.72735">
        <ele>45.5</ele>
        <time>2020-07-01T14:42:27Z</time>
      </trkpt>
      <trkpt lat="48.93202" lon="2.72733">
        <ele>45.5</ele>
        <time>2020-07-01T14:43:11Z</time>
      </trkpt>
      <trkpt lat="48.93202" lon="2.72732">
        <ele>45.5</ele>
        <time>2020-07-01T14:43:12Z</time>
      </trkpt>
      <trkpt lat="48.93201" lon="2.72728">
        <ele>45.4</ele>
        <time>2020-07-01T14:43:13Z</time>
      </trkpt>
      <trkpt lat="48.93201" lon="2.72723">
        <ele>45.4</ele>
        <time>2020-07-01T14:43:14Z</time>
      </trkpt>
      <trkpt lat="48.93202" lon="2.72719">
        <ele>45.3</ele>
        <time>2020-07-01T14:43:15Z</time>
      </trkpt>
      <trkpt lat="48.93202" lon="2.72713">
        <ele>45.2</ele>
        <time>2020-07-01T14:43:16Z</time>
      </trkpt>
      <trkpt lat="48.93202" lon="2.72707">
        <ele>45.2</ele>
        <time>2020-07-01T14:43:17Z</time>
      </trkpt>
      <trkpt lat="48.93203" lon="2.72702">
        <ele>45.1</ele>
        <time>2020-07-01T14:43:18Z</time>
      </trkpt>
      <trkpt lat="48.93203" lon="2.72695">
        <ele>45.1</ele>
        <time>2020-07-01T14:43:19Z</time>
      </trkpt>
      <trkpt lat="48.93203" lon="2.72688">
        <ele>45</ele>
        <time>2020-07-01T14:43:20Z</time>
      </trkpt>
      <trkpt lat="48.93204" lon="2.72681">
        <ele>44.9</ele>
        <time>2020-07-01T14:43:21Z</time>
      </trkpt>
      <trkpt lat="48.93206" lon="2.72674">
        <ele>44.9</ele>
        <time>2020-07-01T14:43:22Z</time>
      </trkpt>
      <trkpt lat="48.93206" lon="2.72667">
        <ele>44.9</ele>
        <time>2020-07-01T14:43:23Z</time>
      </trkpt>
      <trkpt lat="48.93206" lon="2.7266">
        <ele>44.9</ele>
        <time>2020-07-01T14:43:24Z</time>
      </trkpt>
      <trkpt lat="48.93207" lon="2.72653">
        <ele>44.9</ele>
        <time>2020-07-01T14:43:25Z</time>
      </trkpt>
      <trkpt lat="48.93207" lon="2.72646">
        <ele>44.9</ele>
        <time>2020-07-01T14:43:26Z</time>
      </trkpt>
      <trkpt lat="48.93208" lon="2.7264">
        <ele>44.9</ele>
        <time>2020-07-01T14:43:27Z</time>
      </trkpt>
      <trkpt lat="48.93208" lon="2.72633">
        <ele>44.9</ele>
        <time>2020-07-01T14:43:28Z</time>
      </trkpt>
      <trkpt lat="48.93208" lon="2.72626">
        <ele>44.9</ele>
        <time>2020-07-01T14:43:29Z</time>
      </trkpt>
      <trkpt lat="48.93208" lon="2.72618">
        <ele>44.9</ele>
        <time>2020-07-01T14:43:30Z</time>
      </trkpt>
      <trkpt lat="48.93209" lon="2.7261">
        <ele>44.9</ele>
        <time>2020-07-01T14:43:31Z</time>
      </trkpt>
      <trkpt lat="48.93209" lon="2.72601">
        <ele>44.9</ele>
        <time>2020-07-01T14:43:32Z</time>
      </trkpt>
      <trkpt lat="48.9321" lon="2.72593">
        <ele>44.9</ele>
        <time>2020-07-01T14:43:33Z</time>
      </trkpt>
      <trkpt lat="48.93211" lon="2.72586">
        <ele>44.9</ele>
        <time>2020-07-01T14:43:34Z</time>
      </trkpt>
      <trkpt lat="48.93212" lon="2.72578">
        <ele>44.9</ele>
        <time>2020-07-01T14:43:35Z</time>
      </trkpt>
      <trkpt lat="48.93213" lon="2.7257">
        <ele>44.9</ele>
        <time>2020-07-01T14:43:36Z</time>
      </trkpt>
      <trkpt lat="48.93213" lon="2.72561">
        <ele>44.9</ele>
        <time>2020-07-01T14:43:37Z</time>
      </trkpt>
      <trkpt lat="48.93214" lon="2.72554">
        <ele>44.9</ele>
        <time>2020-07-01T14:43:38Z</time>
      </trkpt>
      <trkpt lat="48.93215" lon="2.72545">
        <ele>44.9</ele>
        <time>2020-07-01T14:43:39Z</time>
      </trkpt>
      <trkpt lat="48.93215" lon="2.72538">
        <ele>44.8</ele>
        <time>2020-07-01T14:43:40Z</time>
      </trkpt>
      <trkpt lat="48.93216" lon="2.72529">
        <ele>44.8</ele>
        <time>2020-07-01T14:43:41Z</time>
      </trkpt>
      <trkpt lat="48.93216" lon="2.72521">
        <ele>44.8</ele>
        <time>2020-07-01T14:43:42Z</time>
      </trkpt>
      <trkpt lat="48.93216" lon="2.72513">
        <ele>44.8</ele>
        <time>2020-07-01T14:43:43Z</time>
      </trkpt>
      <trkpt lat="48.93217" lon="2.72506">
        <ele>44.8</ele>
        <time>2020-07-01T14:43:44Z</time>
      </trkpt>
      <trkpt lat="48.93218" lon="2.72499">
        <ele>44.7</ele>
        <time>2020-07-01T14:43:45Z</time>
      </trkpt>
      <trkpt lat="48.93218" lon="2.72491">
        <ele>44.7</ele>
        <time>2020-07-01T14:43:46Z</time>
      </trkpt>
      <trkpt lat="48.93218" lon="2.72482">
        <ele>44.7</ele>
        <time>2020-07-01T14:43:47Z</time>
      </trkpt>
      <trkpt lat="48.93218" lon="2.72473">
        <ele>44.7</ele>
        <time>2020-07-01T14:43:48Z</time>
      </trkpt>
      <trkpt lat="48.93218" lon="2.72467">
        <ele>44.7</ele>
        <time>2020-07-01T14:43:49Z</time>
      </trkpt>
      <trkpt lat="48.93218" lon="2.72458">
        <ele>44.7</ele>
        <time>2020-07-01T14:43:50Z</time>
      </trkpt>
      <trkpt lat="48.93218" lon="2.72449">
        <ele>44.7</ele>
        <time>2020-07-01T14:43:51Z</time>
      </trkpt>
      <trkpt lat="48.93217" lon="2.72442">
        <ele>44.7</ele>
        <time>2020-07-01T14:43:52Z</time>
      </trkpt>
      <trkpt lat="48.93216" lon="2.72433">
        <ele>44.7</ele>
        <time>2020-07-01T14:43:53Z</time>
      </trkpt>
      <trkpt lat="48.93215" lon="2.72426">
        <ele>44.7</ele>
        <time>2020-07-01T14:43:54Z</time>
      </trkpt>
      <trkpt lat="48.93213" lon="2.72419">
        <ele>44.8</ele>
        <time>2020-07-01T14:43:55Z</time>
      </trkpt>
      <trkpt lat="48.93211" lon="2.72412">
        <ele>44.8</ele>
        <time>2020-07-01T14:43:56Z</time>
      </trkpt>
      <trkpt lat="48.93208" lon="2.72404">
        <ele>44.8</ele>
        <time>2020-07-01T14:43:57Z</time>
      </trkpt>
      <trkpt lat="48.93205" lon="2.72396">
        <ele>44.8</ele>
        <time>2020-07-01T14:43:58Z</time>
      </trkpt>
      <trkpt lat="48.93202" lon="2.72387">
        <ele>44.8</ele>
        <time>2020-07-01T14:43:59Z</time>
      </trkpt>
      <trkpt lat="48.93199" lon="2.72379">
        <ele>44.9</ele>
        <time>2020-07-01T14:44:00Z</time>
      </trkpt>
      <trkpt lat="48.93196" lon="2.72372">
        <ele>44.9</ele>
        <time>2020-07-01T14:44:01Z</time>
      </trkpt>
      <trkpt lat="48.93193" lon="2.72366">
        <ele>45</ele>
        <time>2020-07-01T14:44:02Z</time>
      </trkpt>
      <trkpt lat="48.9319" lon="2.72359">
        <ele>45</ele>
        <time>2020-07-01T14:44:03Z</time>
      </trkpt>
      <trkpt lat="48.93185" lon="2.72354">
        <ele>45</ele>
        <time>2020-07-01T14:44:04Z</time>
      </trkpt>
      <trkpt lat="48.93181" lon="2.72349">
        <ele>45.1</ele>
        <time>2020-07-01T14:44:05Z</time>
      </trkpt>
      <trkpt lat="48.93176" lon="2.72344">
        <ele>45.1</ele>
        <time>2020-07-01T14:44:06Z</time>
      </trkpt>
      <trkpt lat="48.93171" lon="2.72338">
        <ele>45.1</ele>
        <time>2020-07-01T14:44:07Z</time>
      </trkpt>
      <trkpt lat="48.93166" lon="2.72333">
        <ele>45.2</ele>
        <time>2020-07-01T14:44:08Z</time>
      </trkpt>
      <trkpt lat="48.93161" lon="2.72326">
        <ele>45.2</ele>
        <time>2020-07-01T14:44:09Z</time>
      </trkpt>
      <trkpt lat="48.93156" lon="2.72322">
        <ele>45.3</ele>
        <time>2020-07-01T14:44:10Z</time>
      </trkpt>
      <trkpt lat="48.93152" lon="2.72318">
        <ele>45.3</ele>
        <time>2020-07-01T14:44:11Z</time>
      </trkpt>
      <trkpt lat="48.93146" lon="2.72315">
        <ele>45</ele>
        <time>2020-07-01T14:44:12Z</time>
      </trkpt>
      <trkpt lat="48.93141" lon="2.72312">
        <ele>44.9</ele>
        <time>2020-07-01T14:44:13Z</time>
      </trkpt>
      <trkpt lat="48.93135" lon="2.72309">
        <ele>44.8</ele>
        <time>2020-07-01T14:44:14Z</time>
      </trkpt>
      <trkpt lat="48.9313" lon="2.72306">
        <ele>44.8</ele>
        <time>2020-07-01T14:44:15Z</time>
      </trkpt>
      <trkpt lat="48.93125" lon="2.72301">
        <ele>44.8</ele>
        <time>2020-07-01T14:44:16Z</time>
      </trkpt>
      <trkpt lat="48.9312" lon="2.72297">
        <ele>44.9</ele>
        <time>2020-07-01T14:44:17Z</time>
      </trkpt>
      <trkpt lat="48.93115" lon="2.72293">
        <ele>45</ele>
        <time>2020-07-01T14:44:18Z</time>
      </trkpt>
      <trkpt lat="48.93109" lon="2.72289">
        <ele>45.1</ele>
        <time>2020-07-01T14:44:19Z</time>
      </trkpt>
      <trkpt lat="48.93105" lon="2.72284">
        <ele>45.1</ele>
        <time>2020-07-01T14:44:20Z</time>
      </trkpt>
      <trkpt lat="48.931" lon="2.7228">
        <ele>45.2</ele>
        <time>2020-07-01T14:44:21Z</time>
      </trkpt>
      <trkpt lat="48.93096" lon="2.72278">
        <ele>45.3</ele>
        <time>2020-07-01T14:44:22Z</time>
      </trkpt>
      <trkpt lat="48.93091" lon="2.72276">
        <ele>45.3</ele>
        <time>2020-07-01T14:44:23Z</time>
      </trkpt>
      <trkpt lat="48.93087" lon="2.72274">
        <ele>45.4</ele>
        <time>2020-07-01T14:44:24Z</time>
      </trkpt>
      <trkpt lat="48.93082" lon="2.72271">
        <ele>45.5</ele>
        <time>2020-07-01T14:44:25Z</time>
      </trkpt>
      <trkpt lat="48.93077" lon="2.72267">
        <ele>45.5</ele>
        <time>2020-07-01T14:44:26Z</time>
      </trkpt>
      <trkpt lat="48.93072" lon="2.72263">
        <ele>45.6</ele>
        <time>2020-07-01T14:44:27Z</time>
      </trkpt>
      <trkpt lat="48.93067" lon="2.72259">
        <ele>45.7</ele>
        <time>2020-07-01T14:44:28Z</time>
      </trkpt>
      <trkpt lat="48.93063" lon="2.72255">
        <ele>45.7</ele>
        <time>2020-07-01T14:44:29Z</time>
      </trkpt>
      <trkpt lat="48.93058" lon="2.72252">
        <ele>45.8</ele>
        <time>2020-07-01T14:44:30Z</time>
      </trkpt>
      <trkpt lat="48.93053" lon="2.72249">
        <ele>45.9</ele>
        <time>2020-07-01T14:44:31Z</time>
      </trkpt>
      <trkpt lat="48.93049" lon="2.72245">
        <ele>46</ele>
        <time>2020-07-01T14:44:32Z</time>
      </trkpt>
      <trkpt lat="48.93045" lon="2.72241">
        <ele>46.1</ele>
        <time>2020-07-01T14:44:33Z</time>
      </trkpt>
      <trkpt lat="48.9304" lon="2.72238">
        <ele>46.2</ele>
        <time>2020-07-01T14:44:34Z</time>
      </trkpt>
      <trkpt lat="48.93035" lon="2.72234">
        <ele>46.3</ele>
        <time>2020-07-01T14:44:35Z</time>
      </trkpt>
      <trkpt lat="48.93031" lon="2.7223">
        <ele>46.4</ele>
        <time>2020-07-01T14:44:36Z</time>
      </trkpt>
      <trkpt lat="48.93026" lon="2.72225">
        <ele>46.5</ele>
        <time>2020-07-01T14:44:37Z</time>
      </trkpt>
      <trkpt lat="48.93021" lon="2.72221">
        <ele>46.6</ele>
        <time>2020-07-01T14:44:38Z</time>
      </trkpt>
      <trkpt lat="48.93017" lon="2.72216">
        <ele>46.6</ele>
        <time>2020-07-01T14:44:39Z</time>
      </trkpt>
      <trkpt lat="48.93013" lon="2.72213">
        <ele>46.7</ele>
        <time>2020-07-01T14:44:40Z</time>
      </trkpt>
      <trkpt lat="48.93008" lon="2.72211">
        <ele>46.8</ele>
        <time>2020-07-01T14:44:41Z</time>
      </trkpt>
      <trkpt lat="48.93003" lon="2.72207">
        <ele>46.9</ele>
        <time>2020-07-01T14:44:42Z</time>
      </trkpt>
      <trkpt lat="48.92998" lon="2.72203">
        <ele>47</ele>
        <time>2020-07-01T14:44:43Z</time>
      </trkpt>
      <trkpt lat="48.92994" lon="2.72199">
        <ele>47.1</ele>
        <time>2020-07-01T14:44:44Z</time>
      </trkpt>
      <trkpt lat="48.92989" lon="2.72195">
        <ele>47.2</ele>
        <time>2020-07-01T14:44:45Z</time>
      </trkpt>
      <trkpt lat="48.92984" lon="2.72191">
        <ele>47.3</ele>
        <time>2020-07-01T14:44:46Z</time>
      </trkpt>
      <trkpt lat="48.9298" lon="2.72187">
        <ele>47.4</ele>
        <time>2020-07-01T14:44:47Z</time>
      </trkpt>
      <trkpt lat="48.92975" lon="2.72182">
        <ele>47.4</ele>
        <time>2020-07-01T14:44:48Z</time>
      </trkpt>
      <trkpt lat="48.9297" lon="2.72178">
        <ele>47.5</ele>
        <time>2020-07-01T14:44:49Z</time>
      </trkpt>
      <trkpt lat="48.92966" lon="2.72173">
        <ele>47.6</ele>
        <time>2020-07-01T14:44:50Z</time>
      </trkpt>
      <trkpt lat="48.9296" lon="2.72171">
        <ele>47.7</ele>
        <time>2020-07-01T14:44:51Z</time>
      </trkpt>
      <trkpt lat="48.92955" lon="2.72166">
        <ele>47.8</ele>
        <time>2020-07-01T14:44:52Z</time>
      </trkpt>
      <trkpt lat="48.9295" lon="2.72163">
        <ele>47.9</ele>
        <time>2020-07-01T14:44:53Z</time>
      </trkpt>
      <trkpt lat="48.92946" lon="2.72159">
        <ele>48</ele>
        <time>2020-07-01T14:44:54Z</time>
      </trkpt>
      <trkpt lat="48.92942" lon="2.72156">
        <ele>48</ele>
        <time>2020-07-01T14:44:55Z</time>
      </trkpt>
      <trkpt lat="48.92937" lon="2.72153">
        <ele>48.1</ele>
        <time>2020-07-01T14:44:56Z</time>
      </trkpt>
      <trkpt lat="48.92933" lon="2.72149">
        <ele>48.2</ele>
        <time>2020-07-01T14:44:57Z</time>
      </trkpt>
      <trkpt lat="48.92929" lon="2.72145">
        <ele>48.3</ele>
        <time>2020-07-01T14:44:58Z</time>
      </trkpt>
      <trkpt lat="48.92924" lon="2.72142">
        <ele>48.4</ele>
        <time>2020-07-01T14:44:59Z</time>
      </trkpt>
      <trkpt lat="48.92919" lon="2.72138">
        <ele>48.6</ele>
        <time>2020-07-01T14:45:00Z</time>
      </trkpt>
      <trkpt lat="48.92915" lon="2.72133">
        <ele>48.7</ele>
        <time>2020-07-01T14:45:01Z</time>
      </trkpt>
      <trkpt lat="48.92911" lon="2.72129">
        <ele>48.9</ele>
        <time>2020-07-01T14:45:02Z</time>
      </trkpt>
      <trkpt lat="48.92906" lon="2.72125">
        <ele>49.1</ele>
        <time>2020-07-01T14:45:03Z</time>
      </trkpt>
      <trkpt lat="48.92902" lon="2.72123">
        <ele>49.2</ele>
        <time>2020-07-01T14:45:04Z</time>
      </trkpt>
      <trkpt lat="48.92898" lon="2.7212">
        <ele>49.4</ele>
        <time>2020-07-01T14:45:05Z</time>
      </trkpt>
      <trkpt lat="48.92895" lon="2.72118">
        <ele>49.6</ele>
        <time>2020-07-01T14:45:06Z</time>
      </trkpt>
      <trkpt lat="48.92892" lon="2.72115">
        <ele>49.7</ele>
        <time>2020-07-01T14:45:07Z</time>
      </trkpt>
      <trkpt lat="48.92891" lon="2.72111">
        <ele>49.8</ele>
        <time>2020-07-01T14:45:08Z</time>
      </trkpt>
      <trkpt lat="48.92891" lon="2.72106">
        <ele>49.8</ele>
        <time>2020-07-01T14:45:09Z</time>
      </trkpt>
      <trkpt lat="48.92893" lon="2.72101">
        <ele>49.8</ele>
        <time>2020-07-01T14:45:10Z</time>
      </trkpt>
      <trkpt lat="48.92895" lon="2.72095">
        <ele>49.8</ele>
        <time>2020-07-01T14:45:11Z</time>
      </trkpt>
      <trkpt lat="48.92897" lon="2.7209">
        <ele>49.8</ele>
        <time>2020-07-01T14:45:12Z</time>
      </trkpt>
      <trkpt lat="48.92899" lon="2.72083">
        <ele>49.8</ele>
        <time>2020-07-01T14:45:13Z</time>
      </trkpt>
      <trkpt lat="48.92902" lon="2.72076">
        <ele>49.9</ele>
        <time>2020-07-01T14:45:14Z</time>
      </trkpt>
      <trkpt lat="48.92904" lon="2.7207">
        <ele>49.9</ele>
        <time>2020-07-01T14:45:15Z</time>
      </trkpt>
      <trkpt lat="48.92906" lon="2.72063">
        <ele>50</ele>
        <time>2020-07-01T14:45:16Z</time>
      </trkpt>
      <trkpt lat="48.92909" lon="2.72055">
        <ele>50.1</ele>
        <time>2020-07-01T14:45:17Z</time>
      </trkpt>
      <trkpt lat="48.92911" lon="2.72049">
        <ele>50.1</ele>
        <time>2020-07-01T14:45:18Z</time>
      </trkpt>
      <trkpt lat="48.92913" lon="2.72042">
        <ele>50.2</ele>
        <time>2020-07-01T14:45:19Z</time>
      </trkpt>
      <trkpt lat="48.92914" lon="2.72036">
        <ele>50.3</ele>
        <time>2020-07-01T14:45:20Z</time>
      </trkpt>
      <trkpt lat="48.92916" lon="2.72029">
        <ele>50.3</ele>
        <time>2020-07-01T14:45:21Z</time>
      </trkpt>
      <trkpt lat="48.92919" lon="2.72023">
        <ele>50.4</ele>
        <time>2020-07-01T14:45:22Z</time>
      </trkpt>
      <trkpt lat="48.92921" lon="2.72017">
        <ele>50.5</ele>
        <time>2020-07-01T14:45:23Z</time>
      </trkpt>
      <trkpt lat="48.92924" lon="2.7201">
        <ele>50.6</ele>
        <time>2020-07-01T14:45:24Z</time>
      </trkpt>
      <trkpt lat="48.92928" lon="2.72004">
        <ele>50.7</ele>
        <time>2020-07-01T14:45:25Z</time>
      </trkpt>
      <trkpt lat="48.92931" lon="2.71998">
        <ele>50.7</ele>
        <time>2020-07-01T14:45:26Z</time>
      </trkpt>
      <trkpt lat="48.92933" lon="2.71992">
        <ele>50.8</ele>
        <time>2020-07-01T14:45:27Z</time>
      </trkpt>
      <trkpt lat="48.92935" lon="2.71986">
        <ele>50.8</ele>
        <time>2020-07-01T14:45:28Z</time>
      </trkpt>
      <trkpt lat="48.92937" lon="2.7198">
        <ele>50.9</ele>
        <time>2020-07-01T14:45:29Z</time>
      </trkpt>
      <trkpt lat="48.9294" lon="2.71974">
        <ele>50.9</ele>
        <time>2020-07-01T14:45:30Z</time>
      </trkpt>
      <trkpt lat="48.92942" lon="2.71968">
        <ele>51</ele>
        <time>2020-07-01T14:45:31Z</time>
      </trkpt>
      <trkpt lat="48.92944" lon="2.71963">
        <ele>51</ele>
        <time>2020-07-01T14:45:32Z</time>
      </trkpt>
      <trkpt lat="48.92947" lon="2.71959">
        <ele>51</ele>
        <time>2020-07-01T14:45:33Z</time>
      </trkpt>
      <trkpt lat="48.9295" lon="2.71954">
        <ele>51</ele>
        <time>2020-07-01T14:45:34Z</time>
      </trkpt>
      <trkpt lat="48.92952" lon="2.71952">
        <ele>51</ele>
        <time>2020-07-01T14:45:35Z</time>
      </trkpt>
      <trkpt lat="48.92955" lon="2.71949">
        <ele>51.1</ele>
        <time>2020-07-01T14:45:36Z</time>
      </trkpt>
      <trkpt lat="48.92959" lon="2.71948">
        <ele>51.1</ele>
        <time>2020-07-01T14:45:37Z</time>
      </trkpt>
      <trkpt lat="48.9296" lon="2.71949">
        <ele>51.1</ele>
        <time>2020-07-01T14:45:38Z</time>
      </trkpt>
      <trkpt lat="48.92964" lon="2.71951">
        <ele>51.1</ele>
        <time>2020-07-01T14:45:39Z</time>
      </trkpt>
      <trkpt lat="48.92968" lon="2.71953">
        <ele>51.1</ele>
        <time>2020-07-01T14:45:40Z</time>
      </trkpt>
      <trkpt lat="48.92973" lon="2.71955">
        <ele>51.1</ele>
        <time>2020-07-01T14:45:41Z</time>
      </trkpt>
      <trkpt lat="48.92978" lon="2.71957">
        <ele>51.1</ele>
        <time>2020-07-01T14:45:42Z</time>
      </trkpt>
      <trkpt lat="48.92983" lon="2.71959">
        <ele>51.1</ele>
        <time>2020-07-01T14:45:43Z</time>
      </trkpt>
      <trkpt lat="48.92988" lon="2.71961">
        <ele>51.2</ele>
        <time>2020-07-01T14:45:44Z</time>
      </trkpt>
      <trkpt lat="48.92993" lon="2.71961">
        <ele>51.2</ele>
        <time>2020-07-01T14:45:45Z</time>
      </trkpt>
      <trkpt lat="48.92999" lon="2.71962">
        <ele>51.3</ele>
        <time>2020-07-01T14:45:46Z</time>
      </trkpt>
      <trkpt lat="48.93004" lon="2.7196">
        <ele>51.3</ele>
        <time>2020-07-01T14:45:47Z</time>
      </trkpt>
      <trkpt lat="48.9301" lon="2.71958">
        <ele>51.5</ele>
        <time>2020-07-01T14:45:48Z</time>
      </trkpt>
      <trkpt lat="48.93014" lon="2.71956">
        <ele>51.5</ele>
        <time>2020-07-01T14:45:49Z</time>
      </trkpt>
      <trkpt lat="48.93017" lon="2.7195">
        <ele>51.7</ele>
        <time>2020-07-01T14:45:50Z</time>
      </trkpt>
      <trkpt lat="48.9302" lon="2.71944">
        <ele>51.8</ele>
        <time>2020-07-01T14:45:51Z</time>
      </trkpt>
      <trkpt lat="48.93023" lon="2.71937">
        <ele>51.9</ele>
        <time>2020-07-01T14:45:52Z</time>
      </trkpt>
      <trkpt lat="48.93025" lon="2.7193">
        <ele>52</ele>
        <time>2020-07-01T14:45:53Z</time>
      </trkpt>
      <trkpt lat="48.93027" lon="2.71925">
        <ele>52.1</ele>
        <time>2020-07-01T14:45:54Z</time>
      </trkpt>
      <trkpt lat="48.9303" lon="2.71919">
        <ele>52.2</ele>
        <time>2020-07-01T14:45:55Z</time>
      </trkpt>
      <trkpt lat="48.93033" lon="2.71912">
        <ele>52.3</ele>
        <time>2020-07-01T14:45:56Z</time>
      </trkpt>
      <trkpt lat="48.93034" lon="2.71904">
        <ele>52.5</ele>
        <time>2020-07-01T14:45:57Z</time>
      </trkpt>
      <trkpt lat="48.93036" lon="2.71898">
        <ele>52.6</ele>
        <time>2020-07-01T14:45:58Z</time>
      </trkpt>
      <trkpt lat="48.93038" lon="2.71889">
        <ele>52.7</ele>
        <time>2020-07-01T14:45:59Z</time>
      </trkpt>
      <trkpt lat="48.9304" lon="2.71882">
        <ele>52.8</ele>
        <time>2020-07-01T14:46:00Z</time>
      </trkpt>
      <trkpt lat="48.93042" lon="2.71875">
        <ele>52.9</ele>
        <time>2020-07-01T14:46:01Z</time>
      </trkpt>
      <trkpt lat="48.93044" lon="2.71868">
        <ele>52.9</ele>
        <time>2020-07-01T14:46:02Z</time>
      </trkpt>
      <trkpt lat="48.93046" lon="2.7186">
        <ele>53</ele>
        <time>2020-07-01T14:46:03Z</time>
      </trkpt>
      <trkpt lat="48.93047" lon="2.71854">
        <ele>53</ele>
        <time>2020-07-01T14:46:04Z</time>
      </trkpt>
      <trkpt lat="48.9305" lon="2.71848">
        <ele>53.1</ele>
        <time>2020-07-01T14:46:05Z</time>
      </trkpt>
      <trkpt lat="48.93052" lon="2.71842">
        <ele>53.3</ele>
        <time>2020-07-01T14:46:06Z</time>
      </trkpt>
      <trkpt lat="48.93053" lon="2.71837">
        <ele>53.4</ele>
        <time>2020-07-01T14:46:07Z</time>
      </trkpt>
      <trkpt lat="48.93055" lon="2.71831">
        <ele>53.5</ele>
        <time>2020-07-01T14:46:08Z</time>
      </trkpt>
      <trkpt lat="48.93057" lon="2.71825">
        <ele>53.6</ele>
        <time>2020-07-01T14:46:09Z</time>
      </trkpt>
      <trkpt lat="48.93059" lon="2.71819">
        <ele>53.8</ele>
        <time>2020-07-01T14:46:10Z</time>
      </trkpt>
      <trkpt lat="48.93061" lon="2.71812">
        <ele>53.9</ele>
        <time>2020-07-01T14:46:11Z</time>
      </trkpt>
      <trkpt lat="48.93065" lon="2.71807">
        <ele>54.1</ele>
        <time>2020-07-01T14:46:12Z</time>
      </trkpt>
      <trkpt lat="48.93066" lon="2.71801">
        <ele>54.2</ele>
        <time>2020-07-01T14:46:13Z</time>
      </trkpt>
      <trkpt lat="48.93068" lon="2.71796">
        <ele>54.3</ele>
        <time>2020-07-01T14:46:14Z</time>
      </trkpt>
      <trkpt lat="48.9307" lon="2.7179">
        <ele>54.4</ele>
        <time>2020-07-01T14:46:15Z</time>
      </trkpt>
      <trkpt lat="48.93073" lon="2.71787">
        <ele>54.5</ele>
        <time>2020-07-01T14:46:16Z</time>
      </trkpt>
      <trkpt lat="48.93075" lon="2.71782">
        <ele>54.6</ele>
        <time>2020-07-01T14:46:17Z</time>
      </trkpt>
      <trkpt lat="48.93078" lon="2.71776">
        <ele>54.7</ele>
        <time>2020-07-01T14:46:18Z</time>
      </trkpt>
      <trkpt lat="48.9308" lon="2.7177">
        <ele>54.8</ele>
        <time>2020-07-01T14:46:19Z</time>
      </trkpt>
      <trkpt lat="48.93083" lon="2.71763">
        <ele>54.9</ele>
        <time>2020-07-01T14:46:20Z</time>
      </trkpt>
      <trkpt lat="48.93085" lon="2.71758">
        <ele>54.9</ele>
        <time>2020-07-01T14:46:21Z</time>
      </trkpt>
      <trkpt lat="48.93087" lon="2.71753">
        <ele>55</ele>
        <time>2020-07-01T14:46:22Z</time>
      </trkpt>
      <trkpt lat="48.93089" lon="2.71748">
        <ele>55.1</ele>
        <time>2020-07-01T14:46:23Z</time>
      </trkpt>
      <trkpt lat="48.93092" lon="2.71742">
        <ele>55.2</ele>
        <time>2020-07-01T14:46:24Z</time>
      </trkpt>
      <trkpt lat="48.93094" lon="2.71738">
        <ele>55.3</ele>
        <time>2020-07-01T14:46:25Z</time>
      </trkpt>
      <trkpt lat="48.93097" lon="2.71733">
        <ele>55.4</ele>
        <time>2020-07-01T14:46:26Z</time>
      </trkpt>
      <trkpt lat="48.931" lon="2.71728">
        <ele>55.5</ele>
        <time>2020-07-01T14:46:27Z</time>
      </trkpt>
      <trkpt lat="48.93102" lon="2.71722">
        <ele>55.6</ele>
        <time>2020-07-01T14:46:28Z</time>
      </trkpt>
      <trkpt lat="48.93104" lon="2.71716">
        <ele>55.6</ele>
        <time>2020-07-01T14:46:29Z</time>
      </trkpt>
      <trkpt lat="48.93108" lon="2.71712">
        <ele>55.7</ele>
        <time>2020-07-01T14:46:30Z</time>
      </trkpt>
      <trkpt lat="48.93111" lon="2.71706">
        <ele>55.8</ele>
        <time>2020-07-01T14:46:31Z</time>
      </trkpt>
      <trkpt lat="48.93114" lon="2.717">
        <ele>55.9</ele>
        <time>2020-07-01T14:46:32Z</time>
      </trkpt>
      <trkpt lat="48.93116" lon="2.71694">
        <ele>56</ele>
        <time>2020-07-01T14:46:33Z</time>
      </trkpt>
      <trkpt lat="48.93118" lon="2.71688">
        <ele>56.1</ele>
        <time>2020-07-01T14:46:34Z</time>
      </trkpt>
      <trkpt lat="48.93121" lon="2.71682">
        <ele>56.2</ele>
        <time>2020-07-01T14:46:35Z</time>
      </trkpt>
      <trkpt lat="48.93123" lon="2.71677">
        <ele>56.3</ele>
        <time>2020-07-01T14:46:36Z</time>
      </trkpt>
      <trkpt lat="48.93124" lon="2.71671">
        <ele>56.4</ele>
        <time>2020-07-01T14:46:37Z</time>
      </trkpt>
      <trkpt lat="48.93127" lon="2.71665">
        <ele>56.5</ele>
        <time>2020-07-01T14:46:38Z</time>
      </trkpt>
      <trkpt lat="48.93129" lon="2.71659">
        <ele>56.6</ele>
        <time>2020-07-01T14:46:39Z</time>
      </trkpt>
      <trkpt lat="48.93131" lon="2.71654">
        <ele>56.6</ele>
        <time>2020-07-01T14:46:40Z</time>
      </trkpt>
      <trkpt lat="48.93134" lon="2.7165">
        <ele>56.7</ele>
        <time>2020-07-01T14:46:41Z</time>
      </trkpt>
      <trkpt lat="48.93136" lon="2.71643">
        <ele>56.8</ele>
        <time>2020-07-01T14:46:42Z</time>
      </trkpt>
      <trkpt lat="48.93139" lon="2.71638">
        <ele>56.9</ele>
        <time>2020-07-01T14:46:43Z</time>
      </trkpt>
      <trkpt lat="48.93142" lon="2.71632">
        <ele>57</ele>
        <time>2020-07-01T14:46:44Z</time>
      </trkpt>
      <trkpt lat="48.93145" lon="2.71626">
        <ele>57.1</ele>
        <time>2020-07-01T14:46:45Z</time>
      </trkpt>
      <trkpt lat="48.93148" lon="2.7162">
        <ele>57.2</ele>
        <time>2020-07-01T14:46:46Z</time>
      </trkpt>
      <trkpt lat="48.93152" lon="2.71614">
        <ele>57.2</ele>
        <time>2020-07-01T14:46:47Z</time>
      </trkpt>
      <trkpt lat="48.93154" lon="2.71607">
        <ele>57.3</ele>
        <time>2020-07-01T14:46:48Z</time>
      </trkpt>
      <trkpt lat="48.93156" lon="2.71601">
        <ele>57.4</ele>
        <time>2020-07-01T14:46:49Z</time>
      </trkpt>
      <trkpt lat="48.93159" lon="2.71595">
        <ele>57.5</ele>
        <time>2020-07-01T14:46:50Z</time>
      </trkpt>
      <trkpt lat="48.93161" lon="2.7159">
        <ele>57.6</ele>
        <time>2020-07-01T14:46:51Z</time>
      </trkpt>
      <trkpt lat="48.93163" lon="2.71585">
        <ele>57.7</ele>
        <time>2020-07-01T14:46:52Z</time>
      </trkpt>
      <trkpt lat="48.93166" lon="2.7158">
        <ele>57.9</ele>
        <time>2020-07-01T14:46:53Z</time>
      </trkpt>
      <trkpt lat="48.93168" lon="2.71575">
        <ele>58</ele>
        <time>2020-07-01T14:46:54Z</time>
      </trkpt>
      <trkpt lat="48.93171" lon="2.71569">
        <ele>58.1</ele>
        <time>2020-07-01T14:46:55Z</time>
      </trkpt>
      <trkpt lat="48.93173" lon="2.71564">
        <ele>58.3</ele>
        <time>2020-07-01T14:46:56Z</time>
      </trkpt>
      <trkpt lat="48.93175" lon="2.71559">
        <ele>58.4</ele>
        <time>2020-07-01T14:46:57Z</time>
      </trkpt>
      <trkpt lat="48.93177" lon="2.71554">
        <ele>58.5</ele>
        <time>2020-07-01T14:46:58Z</time>
      </trkpt>
      <trkpt lat="48.93179" lon="2.71549">
        <ele>58.7</ele>
        <time>2020-07-01T14:46:59Z</time>
      </trkpt>
      <trkpt lat="48.93181" lon="2.71545">
        <ele>58.8</ele>
        <time>2020-07-01T14:47:00Z</time>
      </trkpt>
      <trkpt lat="48.93183" lon="2.71539">
        <ele>58.9</ele>
        <time>2020-07-01T14:47:01Z</time>
      </trkpt>
      <trkpt lat="48.93186" lon="2.71535">
        <ele>59.1</ele>
        <time>2020-07-01T14:47:02Z</time>
      </trkpt>
      <trkpt lat="48.93189" lon="2.71531">
        <ele>59.3</ele>
        <time>2020-07-01T14:47:03Z</time>
      </trkpt>
      <trkpt lat="48.93191" lon="2.71526">
        <ele>59.4</ele>
        <time>2020-07-01T14:47:04Z</time>
      </trkpt>
      <trkpt lat="48.93193" lon="2.71521">
        <ele>59.6</ele>
        <time>2020-07-01T14:47:05Z</time>
      </trkpt>
      <trkpt lat="48.93195" lon="2.71516">
        <ele>59.7</ele>
        <time>2020-07-01T14:47:06Z</time>
      </trkpt>
      <trkpt lat="48.93198" lon="2.71512">
        <ele>59.9</ele>
        <time>2020-07-01T14:47:07Z</time>
      </trkpt>
      <trkpt lat="48.932" lon="2.71507">
        <ele>60</ele>
        <time>2020-07-01T14:47:08Z</time>
      </trkpt>
      <trkpt lat="48.93202" lon="2.71503">
        <ele>60.1</ele>
        <time>2020-07-01T14:47:09Z</time>
      </trkpt>
      <trkpt lat="48.93204" lon="2.71499">
        <ele>60.3</ele>
        <time>2020-07-01T14:47:10Z</time>
      </trkpt>
      <trkpt lat="48.93206" lon="2.71494">
        <ele>60.4</ele>
        <time>2020-07-01T14:47:11Z</time>
      </trkpt>
      <trkpt lat="48.93208" lon="2.7149">
        <ele>60.5</ele>
        <time>2020-07-01T14:47:12Z</time>
      </trkpt>
      <trkpt lat="48.9321" lon="2.71485">
        <ele>60.6</ele>
        <time>2020-07-01T14:47:13Z</time>
      </trkpt>
      <trkpt lat="48.93212" lon="2.71481">
        <ele>60.8</ele>
        <time>2020-07-01T14:47:14Z</time>
      </trkpt>
      <trkpt lat="48.93213" lon="2.71476">
        <ele>60.9</ele>
        <time>2020-07-01T14:47:15Z</time>
      </trkpt>
      <trkpt lat="48.93215" lon="2.71471">
        <ele>61.1</ele>
        <time>2020-07-01T14:47:16Z</time>
      </trkpt>
      <trkpt lat="48.93217" lon="2.71467">
        <ele>61.2</ele>
        <time>2020-07-01T14:47:17Z</time>
      </trkpt>
      <trkpt lat="48.93219" lon="2.71464">
        <ele>61.3</ele>
        <time>2020-07-01T14:47:18Z</time>
      </trkpt>
      <trkpt lat="48.93221" lon="2.71461">
        <ele>61.4</ele>
        <time>2020-07-01T14:47:19Z</time>
      </trkpt>
      <trkpt lat="48.93224" lon="2.71457">
        <ele>61.6</ele>
        <time>2020-07-01T14:47:20Z</time>
      </trkpt>
      <trkpt lat="48.93226" lon="2.71453">
        <ele>61.7</ele>
        <time>2020-07-01T14:47:21Z</time>
      </trkpt>
      <trkpt lat="48.93228" lon="2.71449">
        <ele>61.8</ele>
        <time>2020-07-01T14:47:22Z</time>
      </trkpt>
      <trkpt lat="48.9323" lon="2.71445">
        <ele>61.9</ele>
        <time>2020-07-01T14:47:23Z</time>
      </trkpt>
      <trkpt lat="48.93232" lon="2.71441">
        <ele>62</ele>
        <time>2020-07-01T14:47:24Z</time>
      </trkpt>
      <trkpt lat="48.93234" lon="2.71436">
        <ele>62.2</ele>
        <time>2020-07-01T14:47:25Z</time>
      </trkpt>
      <trkpt lat="48.93236" lon="2.71431">
        <ele>62.3</ele>
        <time>2020-07-01T14:47:26Z</time>
      </trkpt>
      <trkpt lat="48.93238" lon="2.71426">
        <ele>62.4</ele>
        <time>2020-07-01T14:47:27Z</time>
      </trkpt>
      <trkpt lat="48.9324" lon="2.71421">
        <ele>62.5</ele>
        <time>2020-07-01T14:47:28Z</time>
      </trkpt>
      <trkpt lat="48.93242" lon="2.71416">
        <ele>62.7</ele>
        <time>2020-07-01T14:47:29Z</time>
      </trkpt>
      <trkpt lat="48.93243" lon="2.71411">
        <ele>62.8</ele>
        <time>2020-07-01T14:47:30Z</time>
      </trkpt>
      <trkpt lat="48.93245" lon="2.71407">
        <ele>62.9</ele>
        <time>2020-07-01T14:47:31Z</time>
      </trkpt>
      <trkpt lat="48.93246" lon="2.71404">
        <ele>63</ele>
        <time>2020-07-01T14:47:32Z</time>
      </trkpt>
      <trkpt lat="48.93248" lon="2.714">
        <ele>63.1</ele>
        <time>2020-07-01T14:47:33Z</time>
      </trkpt>
      <trkpt lat="48.9325" lon="2.71397">
        <ele>63.2</ele>
        <time>2020-07-01T14:47:34Z</time>
      </trkpt>
      <trkpt lat="48.93252" lon="2.71393">
        <ele>63.3</ele>
        <time>2020-07-01T14:47:35Z</time>
      </trkpt>
      <trkpt lat="48.93253" lon="2.71389">
        <ele>63.4</ele>
        <time>2020-07-01T14:47:36Z</time>
      </trkpt>
      <trkpt lat="48.93255" lon="2.71385">
        <ele>63.5</ele>
        <time>2020-07-01T14:47:37Z</time>
      </trkpt>
      <trkpt lat="48.93257" lon="2.71382">
        <ele>63.6</ele>
        <time>2020-07-01T14:47:38Z</time>
      </trkpt>
      <trkpt lat="48.93259" lon="2.71377">
        <ele>63.7</ele>
        <time>2020-07-01T14:47:39Z</time>
      </trkpt>
      <trkpt lat="48.93261" lon="2.71372">
        <ele>63.8</ele>
        <time>2020-07-01T14:47:40Z</time>
      </trkpt>
      <trkpt lat="48.93262" lon="2.71368">
        <ele>63.9</ele>
        <time>2020-07-01T14:47:41Z</time>
      </trkpt>
      <trkpt lat="48.93264" lon="2.71364">
        <ele>64</ele>
        <time>2020-07-01T14:47:42Z</time>
      </trkpt>
      <trkpt lat="48.93266" lon="2.71358">
        <ele>64.1</ele>
        <time>2020-07-01T14:47:43Z</time>
      </trkpt>
      <trkpt lat="48.93268" lon="2.71353">
        <ele>64.2</ele>
        <time>2020-07-01T14:47:44Z</time>
      </trkpt>
      <trkpt lat="48.9327" lon="2.71349">
        <ele>64.3</ele>
        <time>2020-07-01T14:47:45Z</time>
      </trkpt>
      <trkpt lat="48.93271" lon="2.71345">
        <ele>64.4</ele>
        <time>2020-07-01T14:47:46Z</time>
      </trkpt>
      <trkpt lat="48.93274" lon="2.71341">
        <ele>64.5</ele>
        <time>2020-07-01T14:47:47Z</time>
      </trkpt>
      <trkpt lat="48.93276" lon="2.71337">
        <ele>64.6</ele>
        <time>2020-07-01T14:47:48Z</time>
      </trkpt>
      <trkpt lat="48.93278" lon="2.71333">
        <ele>64.7</ele>
        <time>2020-07-01T14:47:49Z</time>
      </trkpt>
      <trkpt lat="48.9328" lon="2.71328">
        <ele>64.8</ele>
        <time>2020-07-01T14:47:50Z</time>
      </trkpt>
      <trkpt lat="48.93282" lon="2.71324">
        <ele>64.9</ele>
        <time>2020-07-01T14:47:51Z</time>
      </trkpt>
      <trkpt lat="48.93284" lon="2.7132">
        <ele>64.9</ele>
        <time>2020-07-01T14:47:52Z</time>
      </trkpt>
      <trkpt lat="48.93286" lon="2.71316">
        <ele>65</ele>
        <time>2020-07-01T14:47:53Z</time>
      </trkpt>
      <trkpt lat="48.93288" lon="2.71312">
        <ele>65.1</ele>
        <time>2020-07-01T14:47:54Z</time>
      </trkpt>
      <trkpt lat="48.93289" lon="2.71309">
        <ele>65.2</ele>
        <time>2020-07-01T14:47:55Z</time>
      </trkpt>
      <trkpt lat="48.93292" lon="2.71305">
        <ele>65.3</ele>
        <time>2020-07-01T14:47:56Z</time>
      </trkpt>
      <trkpt lat="48.93294" lon="2.71301">
        <ele>65.3</ele>
        <time>2020-07-01T14:47:57Z</time>
      </trkpt>
      <trkpt lat="48.93296" lon="2.71296">
        <ele>65.4</ele>
        <time>2020-07-01T14:47:58Z</time>
      </trkpt>
      <trkpt lat="48.93298" lon="2.71292">
        <ele>65.5</ele>
        <time>2020-07-01T14:47:59Z</time>
      </trkpt>
      <trkpt lat="48.93299" lon="2.71288">
        <ele>65.5</ele>
        <time>2020-07-01T14:48:00Z</time>
      </trkpt>
      <trkpt lat="48.933" lon="2.71284">
        <ele>65.6</ele>
        <time>2020-07-01T14:48:01Z</time>
      </trkpt>
      <trkpt lat="48.93301" lon="2.7128">
        <ele>65.6</ele>
        <time>2020-07-01T14:48:02Z</time>
      </trkpt>
      <trkpt lat="48.93303" lon="2.71276">
        <ele>65.6</ele>
        <time>2020-07-01T14:48:03Z</time>
      </trkpt>
      <trkpt lat="48.93305" lon="2.71273">
        <ele>65.6</ele>
        <time>2020-07-01T14:48:04Z</time>
      </trkpt>
      <trkpt lat="48.93307" lon="2.7127">
        <ele>65.6</ele>
        <time>2020-07-01T14:48:05Z</time>
      </trkpt>
      <trkpt lat="48.93308" lon="2.71266">
        <ele>65.6</ele>
        <time>2020-07-01T14:48:06Z</time>
      </trkpt>
      <trkpt lat="48.93311" lon="2.71262">
        <ele>65.6</ele>
        <time>2020-07-01T14:48:07Z</time>
      </trkpt>
      <trkpt lat="48.93313" lon="2.71257">
        <ele>65.6</ele>
        <time>2020-07-01T14:48:08Z</time>
      </trkpt>
      <trkpt lat="48.93315" lon="2.71251">
        <ele>65.6</ele>
        <time>2020-07-01T14:48:09Z</time>
      </trkpt>
      <trkpt lat="48.93317" lon="2.71246">
        <ele>65.5</ele>
        <time>2020-07-01T14:48:10Z</time>
      </trkpt>
      <trkpt lat="48.93319" lon="2.71241">
        <ele>65.5</ele>
        <time>2020-07-01T14:48:11Z</time>
      </trkpt>
      <trkpt lat="48.93322" lon="2.71236">
        <ele>65.5</ele>
        <time>2020-07-01T14:48:12Z</time>
      </trkpt>
      <trkpt lat="48.93325" lon="2.7123">
        <ele>65.4</ele>
        <time>2020-07-01T14:48:13Z</time>
      </trkpt>
      <trkpt lat="48.93328" lon="2.71224">
        <ele>65.4</ele>
        <time>2020-07-01T14:48:14Z</time>
      </trkpt>
      <trkpt lat="48.93331" lon="2.71218">
        <ele>65.4</ele>
        <time>2020-07-01T14:48:15Z</time>
      </trkpt>
      <trkpt lat="48.93334" lon="2.71213">
        <ele>65.3</ele>
        <time>2020-07-01T14:48:16Z</time>
      </trkpt>
      <trkpt lat="48.93337" lon="2.71206">
        <ele>65.2</ele>
        <time>2020-07-01T14:48:17Z</time>
      </trkpt>
      <trkpt lat="48.9334" lon="2.712">
        <ele>65.2</ele>
        <time>2020-07-01T14:48:18Z</time>
      </trkpt>
      <trkpt lat="48.93343" lon="2.71193">
        <ele>65.1</ele>
        <time>2020-07-01T14:48:19Z</time>
      </trkpt>
      <trkpt lat="48.93346" lon="2.71186">
        <ele>65.1</ele>
        <time>2020-07-01T14:48:20Z</time>
      </trkpt>
      <trkpt lat="48.93349" lon="2.71179">
        <ele>65</ele>
        <time>2020-07-01T14:48:21Z</time>
      </trkpt>
      <trkpt lat="48.93352" lon="2.71173">
        <ele>64.9</ele>
        <time>2020-07-01T14:48:22Z</time>
      </trkpt>
      <trkpt lat="48.93355" lon="2.71166">
        <ele>64.9</ele>
        <time>2020-07-01T14:48:23Z</time>
      </trkpt>
      <trkpt lat="48.93358" lon="2.71159">
        <ele>64.8</ele>
        <time>2020-07-01T14:48:24Z</time>
      </trkpt>
      <trkpt lat="48.9336" lon="2.71153">
        <ele>64.7</ele>
        <time>2020-07-01T14:48:25Z</time>
      </trkpt>
      <trkpt lat="48.93364" lon="2.71145">
        <ele>64.7</ele>
        <time>2020-07-01T14:48:26Z</time>
      </trkpt>
      <trkpt lat="48.93367" lon="2.71138">
        <ele>64.6</ele>
        <time>2020-07-01T14:48:27Z</time>
      </trkpt>
      <trkpt lat="48.93369" lon="2.71131">
        <ele>64.6</ele>
        <time>2020-07-01T14:48:28Z</time>
      </trkpt>
      <trkpt lat="48.93372" lon="2.71124">
        <ele>64.5</ele>
        <time>2020-07-01T14:48:29Z</time>
      </trkpt>
      <trkpt lat="48.93375" lon="2.71118">
        <ele>64.5</ele>
        <time>2020-07-01T14:48:30Z</time>
      </trkpt>
      <trkpt lat="48.93378" lon="2.71112">
        <ele>64.5</ele>
        <time>2020-07-01T14:48:31Z</time>
      </trkpt>
      <trkpt lat="48.93382" lon="2.71106">
        <ele>64.4</ele>
        <time>2020-07-01T14:48:32Z</time>
      </trkpt>
      <trkpt lat="48.93384" lon="2.71099">
        <ele>64.4</ele>
        <time>2020-07-01T14:48:33Z</time>
      </trkpt>
      <trkpt lat="48.93387" lon="2.71093">
        <ele>64.4</ele>
        <time>2020-07-01T14:48:34Z</time>
      </trkpt>
      <trkpt lat="48.9339" lon="2.71086">
        <ele>64.4</ele>
        <time>2020-07-01T14:48:35Z</time>
      </trkpt>
      <trkpt lat="48.93392" lon="2.71081">
        <ele>64.4</ele>
        <time>2020-07-01T14:48:36Z</time>
      </trkpt>
      <trkpt lat="48.93395" lon="2.71074">
        <ele>64.4</ele>
        <time>2020-07-01T14:48:37Z</time>
      </trkpt>
      <trkpt lat="48.93398" lon="2.71068">
        <ele>64.4</ele>
        <time>2020-07-01T14:48:38Z</time>
      </trkpt>
      <trkpt lat="48.93401" lon="2.71061">
        <ele>64.4</ele>
        <time>2020-07-01T14:48:39Z</time>
      </trkpt>
      <trkpt lat="48.93403" lon="2.71054">
        <ele>64.5</ele>
        <time>2020-07-01T14:48:40Z</time>
      </trkpt>
      <trkpt lat="48.93407" lon="2.71047">
        <ele>64.5</ele>
        <time>2020-07-01T14:48:41Z</time>
      </trkpt>
      <trkpt lat="48.9341" lon="2.71041">
        <ele>64.6</ele>
        <time>2020-07-01T14:48:42Z</time>
      </trkpt>
      <trkpt lat="48.93412" lon="2.71035">
        <ele>64.6</ele>
        <time>2020-07-01T14:48:43Z</time>
      </trkpt>
      <trkpt lat="48.93415" lon="2.7103">
        <ele>64.6</ele>
        <time>2020-07-01T14:48:44Z</time>
      </trkpt>
      <trkpt lat="48.93418" lon="2.71023">
        <ele>64.7</ele>
        <time>2020-07-01T14:48:45Z</time>
      </trkpt>
      <trkpt lat="48.9342" lon="2.71018">
        <ele>64.7</ele>
        <time>2020-07-01T14:48:46Z</time>
      </trkpt>
      <trkpt lat="48.93423" lon="2.71011">
        <ele>64.8</ele>
        <time>2020-07-01T14:48:47Z</time>
      </trkpt>
      <trkpt lat="48.93426" lon="2.71006">
        <ele>64.8</ele>
        <time>2020-07-01T14:48:48Z</time>
      </trkpt>
      <trkpt lat="48.93429" lon="2.71">
        <ele>64.9</ele>
        <time>2020-07-01T14:48:49Z</time>
      </trkpt>
      <trkpt lat="48.93431" lon="2.70995">
        <ele>65</ele>
        <time>2020-07-01T14:48:50Z</time>
      </trkpt>
      <trkpt lat="48.93434" lon="2.70989">
        <ele>65</ele>
        <time>2020-07-01T14:48:51Z</time>
      </trkpt>
      <trkpt lat="48.93436" lon="2.70984">
        <ele>65.1</ele>
        <time>2020-07-01T14:48:52Z</time>
      </trkpt>
      <trkpt lat="48.93438" lon="2.70979">
        <ele>65.1</ele>
        <time>2020-07-01T14:48:53Z</time>
      </trkpt>
      <trkpt lat="48.9344" lon="2.70973">
        <ele>65.2</ele>
        <time>2020-07-01T14:48:54Z</time>
      </trkpt>
      <trkpt lat="48.93443" lon="2.70968">
        <ele>65.2</ele>
        <time>2020-07-01T14:48:55Z</time>
      </trkpt>
      <trkpt lat="48.93446" lon="2.70962">
        <ele>65.2</ele>
        <time>2020-07-01T14:48:56Z</time>
      </trkpt>
      <trkpt lat="48.93448" lon="2.70956">
        <ele>65.3</ele>
        <time>2020-07-01T14:48:57Z</time>
      </trkpt>
      <trkpt lat="48.93451" lon="2.70951">
        <ele>65.3</ele>
        <time>2020-07-01T14:48:58Z</time>
      </trkpt>
      <trkpt lat="48.93453" lon="2.70945">
        <ele>65.4</ele>
        <time>2020-07-01T14:48:59Z</time>
      </trkpt>
      <trkpt lat="48.93455" lon="2.70941">
        <ele>65.4</ele>
        <time>2020-07-01T14:49:00Z</time>
      </trkpt>
      <trkpt lat="48.93457" lon="2.70936">
        <ele>65.4</ele>
        <time>2020-07-01T14:49:01Z</time>
      </trkpt>
      <trkpt lat="48.9346" lon="2.7093">
        <ele>65.5</ele>
        <time>2020-07-01T14:49:02Z</time>
      </trkpt>
      <trkpt lat="48.93462" lon="2.70924">
        <ele>65.5</ele>
        <time>2020-07-01T14:49:03Z</time>
      </trkpt>
      <trkpt lat="48.93465" lon="2.70919">
        <ele>65.6</ele>
        <time>2020-07-01T14:49:04Z</time>
      </trkpt>
      <trkpt lat="48.93467" lon="2.70913">
        <ele>65.6</ele>
        <time>2020-07-01T14:49:05Z</time>
      </trkpt>
      <trkpt lat="48.93469" lon="2.70908">
        <ele>65.6</ele>
        <time>2020-07-01T14:49:06Z</time>
      </trkpt>
      <trkpt lat="48.93471" lon="2.70902">
        <ele>65.6</ele>
        <time>2020-07-01T14:49:07Z</time>
      </trkpt>
      <trkpt lat="48.93473" lon="2.70897">
        <ele>65.7</ele>
        <time>2020-07-01T14:49:08Z</time>
      </trkpt>
      <trkpt lat="48.93475" lon="2.70892">
        <ele>65.7</ele>
        <time>2020-07-01T14:49:09Z</time>
      </trkpt>
      <trkpt lat="48.93478" lon="2.70886">
        <ele>65.7</ele>
        <time>2020-07-01T14:49:10Z</time>
      </trkpt>
      <trkpt lat="48.9348" lon="2.70881">
        <ele>65.8</ele>
        <time>2020-07-01T14:49:11Z</time>
      </trkpt>
      <trkpt lat="48.93483" lon="2.70877">
        <ele>65.8</ele>
        <time>2020-07-01T14:49:12Z</time>
      </trkpt>
      <trkpt lat="48.93485" lon="2.70871">
        <ele>65.8</ele>
        <time>2020-07-01T14:49:13Z</time>
      </trkpt>
      <trkpt lat="48.93487" lon="2.70867">
        <ele>65.9</ele>
        <time>2020-07-01T14:49:14Z</time>
      </trkpt>
      <trkpt lat="48.9349" lon="2.70861">
        <ele>65.9</ele>
        <time>2020-07-01T14:49:15Z</time>
      </trkpt>
      <trkpt lat="48.93493" lon="2.70854">
        <ele>65.9</ele>
        <time>2020-07-01T14:49:16Z</time>
      </trkpt>
      <trkpt lat="48.93494" lon="2.70848">
        <ele>66</ele>
        <time>2020-07-01T14:49:17Z</time>
      </trkpt>
      <trkpt lat="48.93497" lon="2.70842">
        <ele>66</ele>
        <time>2020-07-01T14:49:18Z</time>
      </trkpt>
      <trkpt lat="48.935" lon="2.70837">
        <ele>66</ele>
        <time>2020-07-01T14:49:19Z</time>
      </trkpt>
      <trkpt lat="48.93502" lon="2.70832">
        <ele>66</ele>
        <time>2020-07-01T14:49:20Z</time>
      </trkpt>
      <trkpt lat="48.93504" lon="2.70827">
        <ele>66.1</ele>
        <time>2020-07-01T14:49:21Z</time>
      </trkpt>
      <trkpt lat="48.93507" lon="2.70821">
        <ele>66.1</ele>
        <time>2020-07-01T14:49:22Z</time>
      </trkpt>
      <trkpt lat="48.9351" lon="2.70815">
        <ele>66.1</ele>
        <time>2020-07-01T14:49:23Z</time>
      </trkpt>
      <trkpt lat="48.93512" lon="2.7081">
        <ele>66.1</ele>
        <time>2020-07-01T14:49:24Z</time>
      </trkpt>
      <trkpt lat="48.93515" lon="2.70805">
        <ele>66.2</ele>
        <time>2020-07-01T14:49:25Z</time>
      </trkpt>
      <trkpt lat="48.93517" lon="2.70799">
        <ele>66.2</ele>
        <time>2020-07-01T14:49:26Z</time>
      </trkpt>
      <trkpt lat="48.9352" lon="2.70793">
        <ele>66.2</ele>
        <time>2020-07-01T14:49:27Z</time>
      </trkpt>
      <trkpt lat="48.93522" lon="2.70788">
        <ele>66.2</ele>
        <time>2020-07-01T14:49:28Z</time>
      </trkpt>
      <trkpt lat="48.93524" lon="2.70782">
        <ele>66.3</ele>
        <time>2020-07-01T14:49:29Z</time>
      </trkpt>
      <trkpt lat="48.93527" lon="2.70777">
        <ele>66.3</ele>
        <time>2020-07-01T14:49:30Z</time>
      </trkpt>
      <trkpt lat="48.9353" lon="2.70771">
        <ele>66.3</ele>
        <time>2020-07-01T14:49:31Z</time>
      </trkpt>
      <trkpt lat="48.93533" lon="2.70765">
        <ele>66.4</ele>
        <time>2020-07-01T14:49:32Z</time>
      </trkpt>
      <trkpt lat="48.93535" lon="2.7076">
        <ele>66.4</ele>
        <time>2020-07-01T14:49:33Z</time>
      </trkpt>
      <trkpt lat="48.93538" lon="2.70755">
        <ele>66.5</ele>
        <time>2020-07-01T14:49:34Z</time>
      </trkpt>
      <trkpt lat="48.93541" lon="2.70749">
        <ele>66.5</ele>
        <time>2020-07-01T14:49:35Z</time>
      </trkpt>
      <trkpt lat="48.93543" lon="2.70743">
        <ele>66.5</ele>
        <time>2020-07-01T14:49:36Z</time>
      </trkpt>
      <trkpt lat="48.93546" lon="2.70738">
        <ele>66.6</ele>
        <time>2020-07-01T14:49:37Z</time>
      </trkpt>
      <trkpt lat="48.93548" lon="2.70731">
        <ele>66.6</ele>
        <time>2020-07-01T14:49:38Z</time>
      </trkpt>
      <trkpt lat="48.93551" lon="2.70726">
        <ele>66.7</ele>
        <time>2020-07-01T14:49:39Z</time>
      </trkpt>
      <trkpt lat="48.93553" lon="2.70721">
        <ele>66.7</ele>
        <time>2020-07-01T14:49:40Z</time>
      </trkpt>
      <trkpt lat="48.93556" lon="2.70715">
        <ele>66.8</ele>
        <time>2020-07-01T14:49:41Z</time>
      </trkpt>
      <trkpt lat="48.93558" lon="2.7071">
        <ele>66.8</ele>
        <time>2020-07-01T14:49:42Z</time>
      </trkpt>
      <trkpt lat="48.93561" lon="2.70704">
        <ele>66.8</ele>
        <time>2020-07-01T14:49:43Z</time>
      </trkpt>
      <trkpt lat="48.93563" lon="2.70698">
        <ele>66.8</ele>
        <time>2020-07-01T14:49:44Z</time>
      </trkpt>
      <trkpt lat="48.93566" lon="2.70692">
        <ele>66.7</ele>
        <time>2020-07-01T14:49:45Z</time>
      </trkpt>
      <trkpt lat="48.93568" lon="2.70687">
        <ele>66.7</ele>
        <time>2020-07-01T14:49:46Z</time>
      </trkpt>
      <trkpt lat="48.93571" lon="2.70682">
        <ele>66.7</ele>
        <time>2020-07-01T14:49:47Z</time>
      </trkpt>
      <trkpt lat="48.93574" lon="2.70676">
        <ele>66.7</ele>
        <time>2020-07-01T14:49:48Z</time>
      </trkpt>
      <trkpt lat="48.93576" lon="2.70669">
        <ele>66.6</ele>
        <time>2020-07-01T14:49:49Z</time>
      </trkpt>
      <trkpt lat="48.93579" lon="2.70663">
        <ele>66.6</ele>
        <time>2020-07-01T14:49:50Z</time>
      </trkpt>
      <trkpt lat="48.93581" lon="2.70658">
        <ele>66.5</ele>
        <time>2020-07-01T14:49:51Z</time>
      </trkpt>
      <trkpt lat="48.93584" lon="2.70652">
        <ele>66.4</ele>
        <time>2020-07-01T14:49:52Z</time>
      </trkpt>
      <trkpt lat="48.93587" lon="2.70646">
        <ele>66.3</ele>
        <time>2020-07-01T14:49:53Z</time>
      </trkpt>
      <trkpt lat="48.9359" lon="2.7064">
        <ele>66.2</ele>
        <time>2020-07-01T14:49:54Z</time>
      </trkpt>
      <trkpt lat="48.93592" lon="2.70634">
        <ele>66.1</ele>
        <time>2020-07-01T14:49:55Z</time>
      </trkpt>
      <trkpt lat="48.93595" lon="2.70627">
        <ele>65.9</ele>
        <time>2020-07-01T14:49:56Z</time>
      </trkpt>
      <trkpt lat="48.93598" lon="2.70621">
        <ele>65.8</ele>
        <time>2020-07-01T14:49:57Z</time>
      </trkpt>
      <trkpt lat="48.93602" lon="2.70614">
        <ele>65.7</ele>
        <time>2020-07-01T14:49:58Z</time>
      </trkpt>
      <trkpt lat="48.93605" lon="2.70607">
        <ele>65.5</ele>
        <time>2020-07-01T14:49:59Z</time>
      </trkpt>
      <trkpt lat="48.93608" lon="2.70599">
        <ele>65.4</ele>
        <time>2020-07-01T14:50:00Z</time>
      </trkpt>
      <trkpt lat="48.93611" lon="2.70592">
        <ele>65.2</ele>
        <time>2020-07-01T14:50:01Z</time>
      </trkpt>
      <trkpt lat="48.93615" lon="2.70584">
        <ele>65.1</ele>
        <time>2020-07-01T14:50:02Z</time>
      </trkpt>
      <trkpt lat="48.93618" lon="2.70576">
        <ele>64.9</ele>
        <time>2020-07-01T14:50:03Z</time>
      </trkpt>
      <trkpt lat="48.93621" lon="2.70569">
        <ele>64.8</ele>
        <time>2020-07-01T14:50:04Z</time>
      </trkpt>
      <trkpt lat="48.93624" lon="2.70562">
        <ele>64.7</ele>
        <time>2020-07-01T14:50:05Z</time>
      </trkpt>
      <trkpt lat="48.93627" lon="2.70555">
        <ele>64.5</ele>
        <time>2020-07-01T14:50:06Z</time>
      </trkpt>
      <trkpt lat="48.93631" lon="2.70547">
        <ele>64.4</ele>
        <time>2020-07-01T14:50:07Z</time>
      </trkpt>
      <trkpt lat="48.93635" lon="2.70539">
        <ele>64.2</ele>
        <time>2020-07-01T14:50:08Z</time>
      </trkpt>
      <trkpt lat="48.93639" lon="2.70532">
        <ele>64.1</ele>
        <time>2020-07-01T14:50:09Z</time>
      </trkpt>
      <trkpt lat="48.93642" lon="2.70524">
        <ele>64</ele>
        <time>2020-07-01T14:50:10Z</time>
      </trkpt>
      <trkpt lat="48.93645" lon="2.70516">
        <ele>63.8</ele>
        <time>2020-07-01T14:50:11Z</time>
      </trkpt>
      <trkpt lat="48.93649" lon="2.70508">
        <ele>63.7</ele>
        <time>2020-07-01T14:50:12Z</time>
      </trkpt>
      <trkpt lat="48.93653" lon="2.70501">
        <ele>63.6</ele>
        <time>2020-07-01T14:50:13Z</time>
      </trkpt>
      <trkpt lat="48.93656" lon="2.70493">
        <ele>63.6</ele>
        <time>2020-07-01T14:50:14Z</time>
      </trkpt>
      <trkpt lat="48.9366" lon="2.70483">
        <ele>63.4</ele>
        <time>2020-07-01T14:50:15Z</time>
      </trkpt>
      <trkpt lat="48.93664" lon="2.70475">
        <ele>63.3</ele>
        <time>2020-07-01T14:50:16Z</time>
      </trkpt>
      <trkpt lat="48.93668" lon="2.70467">
        <ele>63.2</ele>
        <time>2020-07-01T14:50:17Z</time>
      </trkpt>
      <trkpt lat="48.93672" lon="2.70458">
        <ele>63.1</ele>
        <time>2020-07-01T14:50:18Z</time>
      </trkpt>
      <trkpt lat="48.93676" lon="2.7045">
        <ele>63</ele>
        <time>2020-07-01T14:50:19Z</time>
      </trkpt>
      <trkpt lat="48.93679" lon="2.70441">
        <ele>63</ele>
        <time>2020-07-01T14:50:20Z</time>
      </trkpt>
      <trkpt lat="48.93683" lon="2.70433">
        <ele>63</ele>
        <time>2020-07-01T14:50:21Z</time>
      </trkpt>
      <trkpt lat="48.93687" lon="2.70425">
        <ele>63</ele>
        <time>2020-07-01T14:50:22Z</time>
      </trkpt>
      <trkpt lat="48.9369" lon="2.70417">
        <ele>63</ele>
        <time>2020-07-01T14:50:23Z</time>
      </trkpt>
      <trkpt lat="48.93694" lon="2.70409">
        <ele>63</ele>
        <time>2020-07-01T14:50:24Z</time>
      </trkpt>
      <trkpt lat="48.93697" lon="2.70402">
        <ele>63.1</ele>
        <time>2020-07-01T14:50:25Z</time>
      </trkpt>
      <trkpt lat="48.937" lon="2.70395">
        <ele>63.1</ele>
        <time>2020-07-01T14:50:26Z</time>
      </trkpt>
      <trkpt lat="48.93703" lon="2.70388">
        <ele>63.2</ele>
        <time>2020-07-01T14:50:27Z</time>
      </trkpt>
      <trkpt lat="48.93706" lon="2.70381">
        <ele>63.2</ele>
        <time>2020-07-01T14:50:28Z</time>
      </trkpt>
      <trkpt lat="48.93708" lon="2.70375">
        <ele>63.3</ele>
        <time>2020-07-01T14:50:29Z</time>
      </trkpt>
      <trkpt lat="48.93711" lon="2.70367">
        <ele>63.4</ele>
        <time>2020-07-01T14:50:30Z</time>
      </trkpt>
      <trkpt lat="48.93713" lon="2.70362">
        <ele>63.5</ele>
        <time>2020-07-01T14:50:31Z</time>
      </trkpt>
      <trkpt lat="48.93716" lon="2.70357">
        <ele>63.6</ele>
        <time>2020-07-01T14:50:32Z</time>
      </trkpt>
      <trkpt lat="48.9372" lon="2.70349">
        <ele>63.7</ele>
        <time>2020-07-01T14:50:33Z</time>
      </trkpt>
      <trkpt lat="48.93722" lon="2.70344">
        <ele>63.8</ele>
        <time>2020-07-01T14:50:34Z</time>
      </trkpt>
      <trkpt lat="48.93725" lon="2.70337">
        <ele>63.9</ele>
        <time>2020-07-01T14:50:35Z</time>
      </trkpt>
      <trkpt lat="48.93727" lon="2.70331">
        <ele>64</ele>
        <time>2020-07-01T14:50:36Z</time>
      </trkpt>
      <trkpt lat="48.9373" lon="2.70326">
        <ele>64.1</ele>
        <time>2020-07-01T14:50:37Z</time>
      </trkpt>
      <trkpt lat="48.93731" lon="2.70322">
        <ele>64.1</ele>
        <time>2020-07-01T14:50:38Z</time>
      </trkpt>
      <trkpt lat="48.93734" lon="2.70317">
        <ele>64.2</ele>
        <time>2020-07-01T14:50:39Z</time>
      </trkpt>
      <trkpt lat="48.93736" lon="2.70311">
        <ele>64.2</ele>
        <time>2020-07-01T14:50:40Z</time>
      </trkpt>
      <trkpt lat="48.93739" lon="2.70304">
        <ele>64.3</ele>
        <time>2020-07-01T14:50:41Z</time>
      </trkpt>
      <trkpt lat="48.93741" lon="2.70297">
        <ele>64.3</ele>
        <time>2020-07-01T14:50:42Z</time>
      </trkpt>
      <trkpt lat="48.93743" lon="2.70292">
        <ele>64.4</ele>
        <time>2020-07-01T14:50:43Z</time>
      </trkpt>
      <trkpt lat="48.93746" lon="2.70288">
        <ele>64.4</ele>
        <time>2020-07-01T14:50:44Z</time>
      </trkpt>
      <trkpt lat="48.93749" lon="2.7028">
        <ele>64.5</ele>
        <time>2020-07-01T14:50:45Z</time>
      </trkpt>
      <trkpt lat="48.93751" lon="2.70275">
        <ele>64.5</ele>
        <time>2020-07-01T14:50:46Z</time>
      </trkpt>
      <trkpt lat="48.93753" lon="2.7027">
        <ele>64.5</ele>
        <time>2020-07-01T14:50:47Z</time>
      </trkpt>
      <trkpt lat="48.93755" lon="2.70265">
        <ele>64.6</ele>
        <time>2020-07-01T14:50:48Z</time>
      </trkpt>
      <trkpt lat="48.93759" lon="2.70259">
        <ele>64.6</ele>
        <time>2020-07-01T14:50:49Z</time>
      </trkpt>
      <trkpt lat="48.93761" lon="2.70253">
        <ele>64.7</ele>
        <time>2020-07-01T14:50:50Z</time>
      </trkpt>
      <trkpt lat="48.93764" lon="2.70245">
        <ele>64.7</ele>
        <time>2020-07-01T14:50:51Z</time>
      </trkpt>
      <trkpt lat="48.93767" lon="2.70238">
        <ele>64.7</ele>
        <time>2020-07-01T14:50:52Z</time>
      </trkpt>
      <trkpt lat="48.9377" lon="2.70232">
        <ele>64.7</ele>
        <time>2020-07-01T14:50:53Z</time>
      </trkpt>
      <trkpt lat="48.93772" lon="2.70226">
        <ele>64.7</ele>
        <time>2020-07-01T14:50:54Z</time>
      </trkpt>
      <trkpt lat="48.93775" lon="2.7022">
        <ele>64.7</ele>
        <time>2020-07-01T14:50:55Z</time>
      </trkpt>
      <trkpt lat="48.93778" lon="2.70213">
        <ele>64.8</ele>
        <time>2020-07-01T14:50:56Z</time>
      </trkpt>
      <trkpt lat="48.93781" lon="2.70207">
        <ele>64.8</ele>
        <time>2020-07-01T14:50:57Z</time>
      </trkpt>
      <trkpt lat="48.93785" lon="2.702">
        <ele>64.8</ele>
        <time>2020-07-01T14:50:58Z</time>
      </trkpt>
      <trkpt lat="48.93788" lon="2.70194">
        <ele>64.8</ele>
        <time>2020-07-01T14:50:59Z</time>
      </trkpt>
      <trkpt lat="48.9379" lon="2.70187">
        <ele>64.9</ele>
        <time>2020-07-01T14:51:00Z</time>
      </trkpt>
      <trkpt lat="48.93793" lon="2.70181">
        <ele>64.9</ele>
        <time>2020-07-01T14:51:01Z</time>
      </trkpt>
      <trkpt lat="48.93795" lon="2.70173">
        <ele>64.9</ele>
        <time>2020-07-01T14:51:02Z</time>
      </trkpt>
      <trkpt lat="48.93798" lon="2.70166">
        <ele>64.9</ele>
        <time>2020-07-01T14:51:03Z</time>
      </trkpt>
      <trkpt lat="48.93801" lon="2.70158">
        <ele>65</ele>
        <time>2020-07-01T14:51:04Z</time>
      </trkpt>
      <trkpt lat="48.93803" lon="2.70153">
        <ele>65</ele>
        <time>2020-07-01T14:51:05Z</time>
      </trkpt>
      <trkpt lat="48.93806" lon="2.70147">
        <ele>65</ele>
        <time>2020-07-01T14:51:06Z</time>
      </trkpt>
      <trkpt lat="48.9381" lon="2.70141">
        <ele>65</ele>
        <time>2020-07-01T14:51:07Z</time>
      </trkpt>
      <trkpt lat="48.93812" lon="2.70135">
        <ele>65</ele>
        <time>2020-07-01T14:51:08Z</time>
      </trkpt>
      <trkpt lat="48.93815" lon="2.70128">
        <ele>65.1</ele>
        <time>2020-07-01T14:51:09Z</time>
      </trkpt>
      <trkpt lat="48.93818" lon="2.70122">
        <ele>65.1</ele>
        <time>2020-07-01T14:51:10Z</time>
      </trkpt>
      <trkpt lat="48.93821" lon="2.70115">
        <ele>65.1</ele>
        <time>2020-07-01T14:51:11Z</time>
      </trkpt>
      <trkpt lat="48.93824" lon="2.70108">
        <ele>65.1</ele>
        <time>2020-07-01T14:51:12Z</time>
      </trkpt>
      <trkpt lat="48.93828" lon="2.70101">
        <ele>65</ele>
        <time>2020-07-01T14:51:13Z</time>
      </trkpt>
      <trkpt lat="48.93832" lon="2.70095">
        <ele>64.9</ele>
        <time>2020-07-01T14:51:14Z</time>
      </trkpt>
      <trkpt lat="48.93835" lon="2.70089">
        <ele>64.8</ele>
        <time>2020-07-01T14:51:15Z</time>
      </trkpt>
      <trkpt lat="48.93839" lon="2.70081">
        <ele>64.7</ele>
        <time>2020-07-01T14:51:16Z</time>
      </trkpt>
      <trkpt lat="48.93843" lon="2.70075">
        <ele>64.7</ele>
        <time>2020-07-01T14:51:17Z</time>
      </trkpt>
      <trkpt lat="48.93845" lon="2.70069">
        <ele>64.6</ele>
        <time>2020-07-01T14:51:18Z</time>
      </trkpt>
      <trkpt lat="48.93848" lon="2.70063">
        <ele>64.6</ele>
        <time>2020-07-01T14:51:19Z</time>
      </trkpt>
      <trkpt lat="48.93851" lon="2.70056">
        <ele>64.5</ele>
        <time>2020-07-01T14:51:20Z</time>
      </trkpt>
      <trkpt lat="48.93854" lon="2.70047">
        <ele>64.5</ele>
        <time>2020-07-01T14:51:21Z</time>
      </trkpt>
      <trkpt lat="48.93857" lon="2.70041">
        <ele>64.4</ele>
        <time>2020-07-01T14:51:22Z</time>
      </trkpt>
      <trkpt lat="48.93859" lon="2.70034">
        <ele>64.3</ele>
        <time>2020-07-01T14:51:23Z</time>
      </trkpt>
      <trkpt lat="48.93862" lon="2.70028">
        <ele>64.3</ele>
        <time>2020-07-01T14:51:24Z</time>
      </trkpt>
      <trkpt lat="48.93865" lon="2.70021">
        <ele>64.2</ele>
        <time>2020-07-01T14:51:25Z</time>
      </trkpt>
      <trkpt lat="48.93869" lon="2.70013">
        <ele>64.1</ele>
        <time>2020-07-01T14:51:26Z</time>
      </trkpt>
      <trkpt lat="48.93871" lon="2.70007">
        <ele>64</ele>
        <time>2020-07-01T14:51:27Z</time>
      </trkpt>
      <trkpt lat="48.93874" lon="2.70001">
        <ele>63.8</ele>
        <time>2020-07-01T14:51:28Z</time>
      </trkpt>
      <trkpt lat="48.93877" lon="2.69993">
        <ele>63.7</ele>
        <time>2020-07-01T14:51:29Z</time>
      </trkpt>
      <trkpt lat="48.93881" lon="2.69986">
        <ele>63.5</ele>
        <time>2020-07-01T14:51:30Z</time>
      </trkpt>
      <trkpt lat="48.93884" lon="2.6998">
        <ele>63.3</ele>
        <time>2020-07-01T14:51:31Z</time>
      </trkpt>
      <trkpt lat="48.93887" lon="2.69973">
        <ele>63.1</ele>
        <time>2020-07-01T14:51:32Z</time>
      </trkpt>
      <trkpt lat="48.9389" lon="2.69966">
        <ele>63</ele>
        <time>2020-07-01T14:51:33Z</time>
      </trkpt>
      <trkpt lat="48.93893" lon="2.6996">
        <ele>62.8</ele>
        <time>2020-07-01T14:51:34Z</time>
      </trkpt>
      <trkpt lat="48.93897" lon="2.69952">
        <ele>62.6</ele>
        <time>2020-07-01T14:51:35Z</time>
      </trkpt>
      <trkpt lat="48.939" lon="2.69944">
        <ele>62.4</ele>
        <time>2020-07-01T14:51:36Z</time>
      </trkpt>
      <trkpt lat="48.93903" lon="2.69936">
        <ele>62.2</ele>
        <time>2020-07-01T14:51:37Z</time>
      </trkpt>
      <trkpt lat="48.93906" lon="2.69928">
        <ele>61.9</ele>
        <time>2020-07-01T14:51:38Z</time>
      </trkpt>
      <trkpt lat="48.9391" lon="2.69922">
        <ele>61.7</ele>
        <time>2020-07-01T14:51:39Z</time>
      </trkpt>
      <trkpt lat="48.93914" lon="2.69913">
        <ele>61.4</ele>
        <time>2020-07-01T14:51:40Z</time>
      </trkpt>
      <trkpt lat="48.93918" lon="2.69905">
        <ele>61.2</ele>
        <time>2020-07-01T14:51:41Z</time>
      </trkpt>
      <trkpt lat="48.93922" lon="2.69897">
        <ele>60.9</ele>
        <time>2020-07-01T14:51:42Z</time>
      </trkpt>
      <trkpt lat="48.93925" lon="2.69888">
        <ele>60.6</ele>
        <time>2020-07-01T14:51:43Z</time>
      </trkpt>
      <trkpt lat="48.93929" lon="2.69879">
        <ele>60.3</ele>
        <time>2020-07-01T14:51:44Z</time>
      </trkpt>
      <trkpt lat="48.93933" lon="2.6987">
        <ele>60</ele>
        <time>2020-07-01T14:51:45Z</time>
      </trkpt>
      <trkpt lat="48.93937" lon="2.6986">
        <ele>59.7</ele>
        <time>2020-07-01T14:51:46Z</time>
      </trkpt>
      <trkpt lat="48.93941" lon="2.69851">
        <ele>59.4</ele>
        <time>2020-07-01T14:51:47Z</time>
      </trkpt>
      <trkpt lat="48.93944" lon="2.69842">
        <ele>59</ele>
        <time>2020-07-01T14:51:48Z</time>
      </trkpt>
      <trkpt lat="48.93949" lon="2.69832">
        <ele>58.7</ele>
        <time>2020-07-01T14:51:49Z</time>
      </trkpt>
      <trkpt lat="48.93953" lon="2.69823">
        <ele>58.3</ele>
        <time>2020-07-01T14:51:50Z</time>
      </trkpt>
      <trkpt lat="48.93958" lon="2.69813">
        <ele>58</ele>
        <time>2020-07-01T14:51:51Z</time>
      </trkpt>
      <trkpt lat="48.93962" lon="2.69804">
        <ele>57.6</ele>
        <time>2020-07-01T14:51:52Z</time>
      </trkpt>
      <trkpt lat="48.93967" lon="2.69793">
        <ele>57.3</ele>
        <time>2020-07-01T14:51:53Z</time>
      </trkpt>
      <trkpt lat="48.93971" lon="2.69783">
        <ele>57</ele>
        <time>2020-07-01T14:51:54Z</time>
      </trkpt>
      <trkpt lat="48.93975" lon="2.69774">
        <ele>56.6</ele>
        <time>2020-07-01T14:51:55Z</time>
      </trkpt>
      <trkpt lat="48.93979" lon="2.69764">
        <ele>56.2</ele>
        <time>2020-07-01T14:51:56Z</time>
      </trkpt>
      <trkpt lat="48.93984" lon="2.69755">
        <ele>55.8</ele>
        <time>2020-07-01T14:51:57Z</time>
      </trkpt>
      <trkpt lat="48.93988" lon="2.69746">
        <ele>55.4</ele>
        <time>2020-07-01T14:51:58Z</time>
      </trkpt>
      <trkpt lat="48.93991" lon="2.69736">
        <ele>55</ele>
        <time>2020-07-01T14:51:59Z</time>
      </trkpt>
      <trkpt lat="48.93995" lon="2.69727">
        <ele>54.6</ele>
        <time>2020-07-01T14:52:00Z</time>
      </trkpt>
      <trkpt lat="48.93999" lon="2.69718">
        <ele>54.2</ele>
        <time>2020-07-01T14:52:01Z</time>
      </trkpt>
      <trkpt lat="48.94004" lon="2.6971">
        <ele>53.8</ele>
        <time>2020-07-01T14:52:02Z</time>
      </trkpt>
      <trkpt lat="48.94007" lon="2.697">
        <ele>53.5</ele>
        <time>2020-07-01T14:52:03Z</time>
      </trkpt>
      <trkpt lat="48.94011" lon="2.6969">
        <ele>53.1</ele>
        <time>2020-07-01T14:52:04Z</time>
      </trkpt>
      <trkpt lat="48.94015" lon="2.69681">
        <ele>52.8</ele>
        <time>2020-07-01T14:52:05Z</time>
      </trkpt>
      <trkpt lat="48.94019" lon="2.6967">
        <ele>52.4</ele>
        <time>2020-07-01T14:52:06Z</time>
      </trkpt>
      <trkpt lat="48.94023" lon="2.6966">
        <ele>52</ele>
        <time>2020-07-01T14:52:07Z</time>
      </trkpt>
      <trkpt lat="48.94027" lon="2.69651">
        <ele>51.6</ele>
        <time>2020-07-01T14:52:08Z</time>
      </trkpt>
      <trkpt lat="48.94031" lon="2.69641">
        <ele>51.2</ele>
        <time>2020-07-01T14:52:09Z</time>
      </trkpt>
      <trkpt lat="48.94035" lon="2.69632">
        <ele>50.9</ele>
        <time>2020-07-01T14:52:10Z</time>
      </trkpt>
      <trkpt lat="48.9404" lon="2.69623">
        <ele>50.6</ele>
        <time>2020-07-01T14:52:11Z</time>
      </trkpt>
      <trkpt lat="48.94044" lon="2.69613">
        <ele>50.3</ele>
        <time>2020-07-01T14:52:12Z</time>
      </trkpt>
      <trkpt lat="48.94047" lon="2.69603">
        <ele>50.1</ele>
        <time>2020-07-01T14:52:13Z</time>
      </trkpt>
      <trkpt lat="48.94051" lon="2.69593">
        <ele>49.8</ele>
        <time>2020-07-01T14:52:14Z</time>
      </trkpt>
      <trkpt lat="48.94054" lon="2.69582">
        <ele>49.6</ele>
        <time>2020-07-01T14:52:15Z</time>
      </trkpt>
      <trkpt lat="48.94056" lon="2.69572">
        <ele>49.4</ele>
        <time>2020-07-01T14:52:16Z</time>
      </trkpt>
      <trkpt lat="48.94059" lon="2.69562">
        <ele>49.3</ele>
        <time>2020-07-01T14:52:17Z</time>
      </trkpt>
      <trkpt lat="48.9406" lon="2.69552">
        <ele>49.2</ele>
        <time>2020-07-01T14:52:18Z</time>
      </trkpt>
      <trkpt lat="48.94061" lon="2.69544">
        <ele>49.2</ele>
        <time>2020-07-01T14:52:19Z</time>
      </trkpt>
      <trkpt lat="48.94062" lon="2.69537">
        <ele>49.2</ele>
        <time>2020-07-01T14:52:20Z</time>
      </trkpt>
      <trkpt lat="48.94063" lon="2.6953">
        <ele>49.1</ele>
        <time>2020-07-01T14:52:21Z</time>
      </trkpt>
      <trkpt lat="48.94063" lon="2.69524">
        <ele>49.1</ele>
        <time>2020-07-01T14:52:22Z</time>
      </trkpt>
      <trkpt lat="48.94063" lon="2.69519">
        <ele>49.1</ele>
        <time>2020-07-01T14:52:23Z</time>
      </trkpt>
      <trkpt lat="48.94063" lon="2.69514">
        <ele>49.1</ele>
        <time>2020-07-01T14:52:24Z</time>
      </trkpt>
      <trkpt lat="48.94062" lon="2.6951">
        <ele>49</ele>
        <time>2020-07-01T14:52:25Z</time>
      </trkpt>
      <trkpt lat="48.94061" lon="2.69505">
        <ele>49</ele>
        <time>2020-07-01T14:52:26Z</time>
      </trkpt>
      <trkpt lat="48.94061" lon="2.69504">
        <ele>49</ele>
        <time>2020-07-01T14:52:27Z</time>
      </trkpt>
      <trkpt lat="48.94061" lon="2.69503">
        <ele>49.1</ele>
        <time>2020-07-01T14:52:28Z</time>
      </trkpt>
      <trkpt lat="48.94062" lon="2.69503">
        <ele>49.1</ele>
        <time>2020-07-01T14:52:29Z</time>
      </trkpt>
      <trkpt lat="48.94063" lon="2.69504">
        <ele>49.1</ele>
        <time>2020-07-01T14:52:30Z</time>
      </trkpt>
      <trkpt lat="48.94062" lon="2.69504">
        <ele>49.1</ele>
        <time>2020-07-01T14:52:31Z</time>
      </trkpt>
      <trkpt lat="48.94061" lon="2.69504">
        <ele>49.1</ele>
        <time>2020-07-01T14:52:32Z</time>
      </trkpt>
      <trkpt lat="48.94061" lon="2.69503">
        <ele>49.1</ele>
        <time>2020-07-01T14:52:33Z</time>
      </trkpt>
      <trkpt lat="48.94061" lon="2.69503">
        <ele>49.1</ele>
        <time>2020-07-01T14:52:34Z</time>
      </trkpt>
      <trkpt lat="48.94061" lon="2.69503">
        <ele>49.1</ele>
        <time>2020-07-01T14:52:35Z</time>
      </trkpt>
      <trkpt lat="48.94059" lon="2.69503">
        <ele>49.1</ele>
        <time>2020-07-01T14:52:36Z</time>
      </trkpt>
      <trkpt lat="48.94059" lon="2.69502">
        <ele>49.1</ele>
        <time>2020-07-01T14:52:37Z</time>
      </trkpt>
      <trkpt lat="48.94058" lon="2.69502">
        <ele>49.1</ele>
        <time>2020-07-01T14:52:38Z</time>
      </trkpt>
      <trkpt lat="48.94063" lon="2.69494">
        <ele>49.1</ele>
        <time>2020-07-01T14:53:34Z</time>
      </trkpt>
      <trkpt lat="48.94063" lon="2.69491">
        <ele>49.1</ele>
        <time>2020-07-01T14:53:35Z</time>
      </trkpt>
      <trkpt lat="48.94063" lon="2.69486">
        <ele>49.1</ele>
        <time>2020-07-01T14:53:36Z</time>
      </trkpt>
      <trkpt lat="48.94063" lon="2.69485">
        <ele>49</ele>
        <time>2020-07-01T14:53:37Z</time>
      </trkpt>
      <trkpt lat="48.9406" lon="2.6948">
        <ele>49</ele>
        <time>2020-07-01T14:53:38Z</time>
      </trkpt>
      <trkpt lat="48.94059" lon="2.69478">
        <ele>48.9</ele>
        <time>2020-07-01T14:53:39Z</time>
      </trkpt>
      <trkpt lat="48.9406" lon="2.69472">
        <ele>48.9</ele>
        <time>2020-07-01T14:53:40Z</time>
      </trkpt>
      <trkpt lat="48.9406" lon="2.69469">
        <ele>48.8</ele>
        <time>2020-07-01T14:53:41Z</time>
      </trkpt>
      <trkpt lat="48.9406" lon="2.69464">
        <ele>48.8</ele>
        <time>2020-07-01T14:53:42Z</time>
      </trkpt>
      <trkpt lat="48.94061" lon="2.69459">
        <ele>48.7</ele>
        <time>2020-07-01T14:53:43Z</time>
      </trkpt>
      <trkpt lat="48.9406" lon="2.69453">
        <ele>48.6</ele>
        <time>2020-07-01T14:53:44Z</time>
      </trkpt>
      <trkpt lat="48.9406" lon="2.69447">
        <ele>48.5</ele>
        <time>2020-07-01T14:53:45Z</time>
      </trkpt>
      <trkpt lat="48.9406" lon="2.6944">
        <ele>48.4</ele>
        <time>2020-07-01T14:53:46Z</time>
      </trkpt>
      <trkpt lat="48.9406" lon="2.69433">
        <ele>48.3</ele>
        <time>2020-07-01T14:53:47Z</time>
      </trkpt>
      <trkpt lat="48.9406" lon="2.69427">
        <ele>48.3</ele>
        <time>2020-07-01T14:53:48Z</time>
      </trkpt>
      <trkpt lat="48.9406" lon="2.6942">
        <ele>48.2</ele>
        <time>2020-07-01T14:53:49Z</time>
      </trkpt>
      <trkpt lat="48.9406" lon="2.69414">
        <ele>48.2</ele>
        <time>2020-07-01T14:53:50Z</time>
      </trkpt>
      <trkpt lat="48.94061" lon="2.69407">
        <ele>48.1</ele>
        <time>2020-07-01T14:53:51Z</time>
      </trkpt>
      <trkpt lat="48.94061" lon="2.694">
        <ele>48.1</ele>
        <time>2020-07-01T14:53:52Z</time>
      </trkpt>
      <trkpt lat="48.94062" lon="2.69394">
        <ele>48.1</ele>
        <time>2020-07-01T14:53:53Z</time>
      </trkpt>
      <trkpt lat="48.94063" lon="2.69387">
        <ele>48</ele>
        <time>2020-07-01T14:53:54Z</time>
      </trkpt>
      <trkpt lat="48.94065" lon="2.69381">
        <ele>48</ele>
        <time>2020-07-01T14:53:55Z</time>
      </trkpt>
      <trkpt lat="48.94066" lon="2.69374">
        <ele>48</ele>
        <time>2020-07-01T14:53:56Z</time>
      </trkpt>
      <trkpt lat="48.94066" lon="2.69367">
        <ele>48</ele>
        <time>2020-07-01T14:53:57Z</time>
      </trkpt>
      <trkpt lat="48.94068" lon="2.69361">
        <ele>48</ele>
        <time>2020-07-01T14:53:58Z</time>
      </trkpt>
      <trkpt lat="48.94069" lon="2.69354">
        <ele>48</ele>
        <time>2020-07-01T14:53:59Z</time>
      </trkpt>
      <trkpt lat="48.94072" lon="2.69348">
        <ele>48</ele>
        <time>2020-07-01T14:54:00Z</time>
      </trkpt>
      <trkpt lat="48.94074" lon="2.69342">
        <ele>48</ele>
        <time>2020-07-01T14:54:01Z</time>
      </trkpt>
      <trkpt lat="48.94076" lon="2.69336">
        <ele>48</ele>
        <time>2020-07-01T14:54:02Z</time>
      </trkpt>
      <trkpt lat="48.94077" lon="2.69329">
        <ele>48</ele>
        <time>2020-07-01T14:54:03Z</time>
      </trkpt>
      <trkpt lat="48.94078" lon="2.69323">
        <ele>48</ele>
        <time>2020-07-01T14:54:04Z</time>
      </trkpt>
      <trkpt lat="48.94079" lon="2.69316">
        <ele>48</ele>
        <time>2020-07-01T14:54:05Z</time>
      </trkpt>
      <trkpt lat="48.94081" lon="2.6931">
        <ele>48</ele>
        <time>2020-07-01T14:54:06Z</time>
      </trkpt>
      <trkpt lat="48.94083" lon="2.69304">
        <ele>48</ele>
        <time>2020-07-01T14:54:07Z</time>
      </trkpt>
      <trkpt lat="48.94085" lon="2.69298">
        <ele>48.1</ele>
        <time>2020-07-01T14:54:08Z</time>
      </trkpt>
      <trkpt lat="48.94087" lon="2.69293">
        <ele>48.1</ele>
        <time>2020-07-01T14:54:09Z</time>
      </trkpt>
      <trkpt lat="48.94089" lon="2.69288">
        <ele>48.1</ele>
        <time>2020-07-01T14:54:10Z</time>
      </trkpt>
      <trkpt lat="48.94092" lon="2.69282">
        <ele>48.2</ele>
        <time>2020-07-01T14:54:11Z</time>
      </trkpt>
      <trkpt lat="48.94094" lon="2.69275">
        <ele>48.2</ele>
        <time>2020-07-01T14:54:12Z</time>
      </trkpt>
      <trkpt lat="48.94097" lon="2.6927">
        <ele>48.2</ele>
        <time>2020-07-01T14:54:13Z</time>
      </trkpt>
      <trkpt lat="48.941" lon="2.69265">
        <ele>48.2</ele>
        <time>2020-07-01T14:54:14Z</time>
      </trkpt>
      <trkpt lat="48.94103" lon="2.69259">
        <ele>48.2</ele>
        <time>2020-07-01T14:54:15Z</time>
      </trkpt>
      <trkpt lat="48.94106" lon="2.69255">
        <ele>48.3</ele>
        <time>2020-07-01T14:54:16Z</time>
      </trkpt>
      <trkpt lat="48.94108" lon="2.69249">
        <ele>48.3</ele>
        <time>2020-07-01T14:54:17Z</time>
      </trkpt>
      <trkpt lat="48.94112" lon="2.69245">
        <ele>48.4</ele>
        <time>2020-07-01T14:54:18Z</time>
      </trkpt>
      <trkpt lat="48.94115" lon="2.69242">
        <ele>48.4</ele>
        <time>2020-07-01T14:54:19Z</time>
      </trkpt>
      <trkpt lat="48.94119" lon="2.69237">
        <ele>48.5</ele>
        <time>2020-07-01T14:54:20Z</time>
      </trkpt>
      <trkpt lat="48.94122" lon="2.69233">
        <ele>48.5</ele>
        <time>2020-07-01T14:54:21Z</time>
      </trkpt>
      <trkpt lat="48.94127" lon="2.6923">
        <ele>48.5</ele>
        <time>2020-07-01T14:54:22Z</time>
      </trkpt>
      <trkpt lat="48.94131" lon="2.69229">
        <ele>48.6</ele>
        <time>2020-07-01T14:54:23Z</time>
      </trkpt>
      <trkpt lat="48.94135" lon="2.69226">
        <ele>48.6</ele>
        <time>2020-07-01T14:54:24Z</time>
      </trkpt>
      <trkpt lat="48.94138" lon="2.69223">
        <ele>48.6</ele>
        <time>2020-07-01T14:54:25Z</time>
      </trkpt>
      <trkpt lat="48.94141" lon="2.6922">
        <ele>48.6</ele>
        <time>2020-07-01T14:54:26Z</time>
      </trkpt>
      <trkpt lat="48.94145" lon="2.69217">
        <ele>48.6</ele>
        <time>2020-07-01T14:54:27Z</time>
      </trkpt>
      <trkpt lat="48.94148" lon="2.69213">
        <ele>48.6</ele>
        <time>2020-07-01T14:54:28Z</time>
      </trkpt>
      <trkpt lat="48.94151" lon="2.6921">
        <ele>48.6</ele>
        <time>2020-07-01T14:54:29Z</time>
      </trkpt>
      <trkpt lat="48.94155" lon="2.69207">
        <ele>48.6</ele>
        <time>2020-07-01T14:54:30Z</time>
      </trkpt>
      <trkpt lat="48.94158" lon="2.69204">
        <ele>48.6</ele>
        <time>2020-07-01T14:54:31Z</time>
      </trkpt>
      <trkpt lat="48.94161" lon="2.692">
        <ele>48.6</ele>
        <time>2020-07-01T14:54:32Z</time>
      </trkpt>
      <trkpt lat="48.94164" lon="2.69196">
        <ele>48.5</ele>
        <time>2020-07-01T14:54:33Z</time>
      </trkpt>
      <trkpt lat="48.94168" lon="2.69193">
        <ele>48.5</ele>
        <time>2020-07-01T14:54:34Z</time>
      </trkpt>
      <trkpt lat="48.94173" lon="2.69189">
        <ele>48.5</ele>
        <time>2020-07-01T14:54:35Z</time>
      </trkpt>
      <trkpt lat="48.94176" lon="2.69184">
        <ele>48.5</ele>
        <time>2020-07-01T14:54:36Z</time>
      </trkpt>
      <trkpt lat="48.94179" lon="2.69179">
        <ele>48.4</ele>
        <time>2020-07-01T14:54:37Z</time>
      </trkpt>
      <trkpt lat="48.94182" lon="2.69173">
        <ele>48.4</ele>
        <time>2020-07-01T14:54:38Z</time>
      </trkpt>
      <trkpt lat="48.94185" lon="2.69167">
        <ele>48.3</ele>
        <time>2020-07-01T14:54:39Z</time>
      </trkpt>
      <trkpt lat="48.94188" lon="2.69162">
        <ele>48.3</ele>
        <time>2020-07-01T14:54:40Z</time>
      </trkpt>
      <trkpt lat="48.94191" lon="2.69157">
        <ele>48.2</ele>
        <time>2020-07-01T14:54:41Z</time>
      </trkpt>
      <trkpt lat="48.94194" lon="2.69152">
        <ele>48.2</ele>
        <time>2020-07-01T14:54:42Z</time>
      </trkpt>
      <trkpt lat="48.94196" lon="2.69145">
        <ele>48.2</ele>
        <time>2020-07-01T14:54:43Z</time>
      </trkpt>
      <trkpt lat="48.94199" lon="2.6914">
        <ele>48.2</ele>
        <time>2020-07-01T14:54:44Z</time>
      </trkpt>
      <trkpt lat="48.94202" lon="2.69134">
        <ele>48.2</ele>
        <time>2020-07-01T14:54:45Z</time>
      </trkpt>
      <trkpt lat="48.94204" lon="2.69129">
        <ele>48.3</ele>
        <time>2020-07-01T14:54:46Z</time>
      </trkpt>
      <trkpt lat="48.94208" lon="2.69124">
        <ele>48.3</ele>
        <time>2020-07-01T14:54:47Z</time>
      </trkpt>
      <trkpt lat="48.94211" lon="2.69119">
        <ele>48.4</ele>
        <time>2020-07-01T14:54:48Z</time>
      </trkpt>
      <trkpt lat="48.94214" lon="2.6911">
        <ele>48.4</ele>
        <time>2020-07-01T14:54:49Z</time>
      </trkpt>
      <trkpt lat="48.94217" lon="2.69105">
        <ele>48.5</ele>
        <time>2020-07-01T14:54:50Z</time>
      </trkpt>
      <trkpt lat="48.94219" lon="2.691">
        <ele>48.5</ele>
        <time>2020-07-01T14:54:51Z</time>
      </trkpt>
      <trkpt lat="48.94222" lon="2.69095">
        <ele>48.6</ele>
        <time>2020-07-01T14:54:52Z</time>
      </trkpt>
      <trkpt lat="48.94225" lon="2.69091">
        <ele>48.6</ele>
        <time>2020-07-01T14:54:53Z</time>
      </trkpt>
      <trkpt lat="48.94227" lon="2.69086">
        <ele>48.6</ele>
        <time>2020-07-01T14:54:54Z</time>
      </trkpt>
      <trkpt lat="48.94229" lon="2.69081">
        <ele>48.7</ele>
        <time>2020-07-01T14:54:55Z</time>
      </trkpt>
      <trkpt lat="48.94232" lon="2.69077">
        <ele>48.7</ele>
        <time>2020-07-01T14:54:56Z</time>
      </trkpt>
      <trkpt lat="48.94234" lon="2.69073">
        <ele>48.8</ele>
        <time>2020-07-01T14:54:57Z</time>
      </trkpt>
      <trkpt lat="48.94236" lon="2.69069">
        <ele>48.8</ele>
        <time>2020-07-01T14:54:58Z</time>
      </trkpt>
      <trkpt lat="48.94238" lon="2.69065">
        <ele>48.9</ele>
        <time>2020-07-01T14:54:59Z</time>
      </trkpt>
      <trkpt lat="48.94242" lon="2.69063">
        <ele>49</ele>
        <time>2020-07-01T14:55:00Z</time>
      </trkpt>
      <trkpt lat="48.94243" lon="2.69058">
        <ele>49</ele>
        <time>2020-07-01T14:55:01Z</time>
      </trkpt>
      <trkpt lat="48.94246" lon="2.69056">
        <ele>49.1</ele>
        <time>2020-07-01T14:55:02Z</time>
      </trkpt>
      <trkpt lat="48.94248" lon="2.69052">
        <ele>49.2</ele>
        <time>2020-07-01T14:55:03Z</time>
      </trkpt>
      <trkpt lat="48.94249" lon="2.69051">
        <ele>49.2</ele>
        <time>2020-07-01T14:55:04Z</time>
      </trkpt>
      <trkpt lat="48.94254" lon="2.69056">
        <ele>49.3</ele>
        <time>2020-07-01T14:55:05Z</time>
      </trkpt>
      <trkpt lat="48.94257" lon="2.69054">
        <ele>49.4</ele>
        <time>2020-07-01T14:55:06Z</time>
      </trkpt>
      <trkpt lat="48.94258" lon="2.69052">
        <ele>49.5</ele>
        <time>2020-07-01T14:55:07Z</time>
      </trkpt>
      <trkpt lat="48.94261" lon="2.6905">
        <ele>49.6</ele>
        <time>2020-07-01T14:55:08Z</time>
      </trkpt>
      <trkpt lat="48.94263" lon="2.69047">
        <ele>49.7</ele>
        <time>2020-07-01T14:55:09Z</time>
      </trkpt>
      <trkpt lat="48.94267" lon="2.69044">
        <ele>49.8</ele>
        <time>2020-07-01T14:55:10Z</time>
      </trkpt>
      <trkpt lat="48.94268" lon="2.69039">
        <ele>49.9</ele>
        <time>2020-07-01T14:55:11Z</time>
      </trkpt>
      <trkpt lat="48.94271" lon="2.69034">
        <ele>50</ele>
        <time>2020-07-01T14:55:12Z</time>
      </trkpt>
      <trkpt lat="48.94273" lon="2.69029">
        <ele>50.1</ele>
        <time>2020-07-01T14:55:13Z</time>
      </trkpt>
      <trkpt lat="48.94278" lon="2.69025">
        <ele>50</ele>
        <time>2020-07-01T14:55:14Z</time>
      </trkpt>
      <trkpt lat="48.94282" lon="2.6902">
        <ele>50</ele>
        <time>2020-07-01T14:55:15Z</time>
      </trkpt>
      <trkpt lat="48.94284" lon="2.69015">
        <ele>49.9</ele>
        <time>2020-07-01T14:55:16Z</time>
      </trkpt>
      <trkpt lat="48.94288" lon="2.6901">
        <ele>49.8</ele>
        <time>2020-07-01T14:55:17Z</time>
      </trkpt>
      <trkpt lat="48.94292" lon="2.69006">
        <ele>49.8</ele>
        <time>2020-07-01T14:55:18Z</time>
      </trkpt>
      <trkpt lat="48.94295" lon="2.69001">
        <ele>49.7</ele>
        <time>2020-07-01T14:55:19Z</time>
      </trkpt>
      <trkpt lat="48.94299" lon="2.68996">
        <ele>49.7</ele>
        <time>2020-07-01T14:55:20Z</time>
      </trkpt>
      <trkpt lat="48.94303" lon="2.68991">
        <ele>49.7</ele>
        <time>2020-07-01T14:55:21Z</time>
      </trkpt>
      <trkpt lat="48.94306" lon="2.68987">
        <ele>49.6</ele>
        <time>2020-07-01T14:55:22Z</time>
      </trkpt>
      <trkpt lat="48.94308" lon="2.68981">
        <ele>49.6</ele>
        <time>2020-07-01T14:55:23Z</time>
      </trkpt>
      <trkpt lat="48.9431" lon="2.68975">
        <ele>49.6</ele>
        <time>2020-07-01T14:55:24Z</time>
      </trkpt>
      <trkpt lat="48.94313" lon="2.68969">
        <ele>49.6</ele>
        <time>2020-07-01T14:55:25Z</time>
      </trkpt>
      <trkpt lat="48.94316" lon="2.68963">
        <ele>49.6</ele>
        <time>2020-07-01T14:55:26Z</time>
      </trkpt>
      <trkpt lat="48.94319" lon="2.68954">
        <ele>49.6</ele>
        <time>2020-07-01T14:55:27Z</time>
      </trkpt>
      <trkpt lat="48.94322" lon="2.68948">
        <ele>49.6</ele>
        <time>2020-07-01T14:55:28Z</time>
      </trkpt>
      <trkpt lat="48.94326" lon="2.68938">
        <ele>49.7</ele>
        <time>2020-07-01T14:55:29Z</time>
      </trkpt>
      <trkpt lat="48.94331" lon="2.6893">
        <ele>49.7</ele>
        <time>2020-07-01T14:55:30Z</time>
      </trkpt>
      <trkpt lat="48.94334" lon="2.68919">
        <ele>49.8</ele>
        <time>2020-07-01T14:55:31Z</time>
      </trkpt>
      <trkpt lat="48.94337" lon="2.68906">
        <ele>49.9</ele>
        <time>2020-07-01T14:55:32Z</time>
      </trkpt>
      <trkpt lat="48.9434" lon="2.68894">
        <ele>50.1</ele>
        <time>2020-07-01T14:55:33Z</time>
      </trkpt>
      <trkpt lat="48.94341" lon="2.68882">
        <ele>50.2</ele>
        <time>2020-07-01T14:55:34Z</time>
      </trkpt>
      <trkpt lat="48.94342" lon="2.68872">
        <ele>50.3</ele>
        <time>2020-07-01T14:55:35Z</time>
      </trkpt>
      <trkpt lat="48.94343" lon="2.68863">
        <ele>50.3</ele>
        <time>2020-07-01T14:55:36Z</time>
      </trkpt>
      <trkpt lat="48.94345" lon="2.68856">
        <ele>50.3</ele>
        <time>2020-07-01T14:55:37Z</time>
      </trkpt>
      <trkpt lat="48.94346" lon="2.68849">
        <ele>50.3</ele>
        <time>2020-07-01T14:55:38Z</time>
      </trkpt>
      <trkpt lat="48.94348" lon="2.6884">
        <ele>50.2</ele>
        <time>2020-07-01T14:55:39Z</time>
      </trkpt>
      <trkpt lat="48.94348" lon="2.68833">
        <ele>50.2</ele>
        <time>2020-07-01T14:55:40Z</time>
      </trkpt>
      <trkpt lat="48.94349" lon="2.68826">
        <ele>50.1</ele>
        <time>2020-07-01T14:55:41Z</time>
      </trkpt>
      <trkpt lat="48.9435" lon="2.68819">
        <ele>50.1</ele>
        <time>2020-07-01T14:55:42Z</time>
      </trkpt>
      <trkpt lat="48.94352" lon="2.68814">
        <ele>50</ele>
        <time>2020-07-01T14:55:43Z</time>
      </trkpt>
      <trkpt lat="48.94353" lon="2.68807">
        <ele>49.9</ele>
        <time>2020-07-01T14:55:44Z</time>
      </trkpt>
      <trkpt lat="48.94354" lon="2.68801">
        <ele>49.9</ele>
        <time>2020-07-01T14:55:45Z</time>
      </trkpt>
      <trkpt lat="48.94355" lon="2.68797">
        <ele>49.9</ele>
        <time>2020-07-01T14:55:46Z</time>
      </trkpt>
      <trkpt lat="48.94356" lon="2.68792">
        <ele>49.8</ele>
        <time>2020-07-01T14:55:47Z</time>
      </trkpt>
      <trkpt lat="48.94358" lon="2.68785">
        <ele>49.8</ele>
        <time>2020-07-01T14:55:48Z</time>
      </trkpt>
      <trkpt lat="48.9436" lon="2.68779">
        <ele>49.8</ele>
        <time>2020-07-01T14:55:49Z</time>
      </trkpt>
      <trkpt lat="48.94362" lon="2.68771">
        <ele>49.7</ele>
        <time>2020-07-01T14:55:50Z</time>
      </trkpt>
      <trkpt lat="48.94364" lon="2.68765">
        <ele>49.7</ele>
        <time>2020-07-01T14:55:51Z</time>
      </trkpt>
      <trkpt lat="48.94365" lon="2.68757">
        <ele>49.7</ele>
        <time>2020-07-01T14:55:52Z</time>
      </trkpt>
      <trkpt lat="48.94366" lon="2.6875">
        <ele>49.7</ele>
        <time>2020-07-01T14:55:53Z</time>
      </trkpt>
      <trkpt lat="48.94367" lon="2.68742">
        <ele>49.8</ele>
        <time>2020-07-01T14:55:54Z</time>
      </trkpt>
      <trkpt lat="48.94368" lon="2.68733">
        <ele>49.8</ele>
        <time>2020-07-01T14:55:55Z</time>
      </trkpt>
      <trkpt lat="48.94369" lon="2.68725">
        <ele>49.9</ele>
        <time>2020-07-01T14:55:56Z</time>
      </trkpt>
      <trkpt lat="48.9437" lon="2.68717">
        <ele>50</ele>
        <time>2020-07-01T14:55:57Z</time>
      </trkpt>
      <trkpt lat="48.94372" lon="2.68709">
        <ele>50.1</ele>
        <time>2020-07-01T14:55:58Z</time>
      </trkpt>
      <trkpt lat="48.94374" lon="2.68702">
        <ele>50.2</ele>
        <time>2020-07-01T14:55:59Z</time>
      </trkpt>
      <trkpt lat="48.94375" lon="2.68694">
        <ele>50.3</ele>
        <time>2020-07-01T14:56:00Z</time>
      </trkpt>
      <trkpt lat="48.94377" lon="2.68688">
        <ele>50.4</ele>
        <time>2020-07-01T14:56:01Z</time>
      </trkpt>
      <trkpt lat="48.94378" lon="2.68681">
        <ele>50.6</ele>
        <time>2020-07-01T14:56:02Z</time>
      </trkpt>
      <trkpt lat="48.94378" lon="2.68672">
        <ele>50.7</ele>
        <time>2020-07-01T14:56:03Z</time>
      </trkpt>
      <trkpt lat="48.94378" lon="2.68665">
        <ele>50.8</ele>
        <time>2020-07-01T14:56:04Z</time>
      </trkpt>
      <trkpt lat="48.94379" lon="2.68656">
        <ele>51.1</ele>
        <time>2020-07-01T14:56:05Z</time>
      </trkpt>
      <trkpt lat="48.9438" lon="2.68648">
        <ele>51.2</ele>
        <time>2020-07-01T14:56:06Z</time>
      </trkpt>
      <trkpt lat="48.94381" lon="2.68642">
        <ele>51.2</ele>
        <time>2020-07-01T14:56:07Z</time>
      </trkpt>
      <trkpt lat="48.94382" lon="2.68635">
        <ele>51.3</ele>
        <time>2020-07-01T14:56:08Z</time>
      </trkpt>
      <trkpt lat="48.94383" lon="2.68629">
        <ele>51.4</ele>
        <time>2020-07-01T14:56:09Z</time>
      </trkpt>
      <trkpt lat="48.94384" lon="2.68623">
        <ele>51.5</ele>
        <time>2020-07-01T14:56:10Z</time>
      </trkpt>
      <trkpt lat="48.94385" lon="2.68617">
        <ele>51.6</ele>
        <time>2020-07-01T14:56:11Z</time>
      </trkpt>
      <trkpt lat="48.94386" lon="2.68611">
        <ele>51.7</ele>
        <time>2020-07-01T14:56:12Z</time>
      </trkpt>
      <trkpt lat="48.94388" lon="2.68605">
        <ele>51.8</ele>
        <time>2020-07-01T14:56:13Z</time>
      </trkpt>
      <trkpt lat="48.94389" lon="2.68601">
        <ele>51.9</ele>
        <time>2020-07-01T14:56:14Z</time>
      </trkpt>
      <trkpt lat="48.94391" lon="2.68595">
        <ele>52</ele>
        <time>2020-07-01T14:56:15Z</time>
      </trkpt>
      <trkpt lat="48.94392" lon="2.6859">
        <ele>52.1</ele>
        <time>2020-07-01T14:56:16Z</time>
      </trkpt>
      <trkpt lat="48.94393" lon="2.68584">
        <ele>52.5</ele>
        <time>2020-07-01T14:56:17Z</time>
      </trkpt>
      <trkpt lat="48.94394" lon="2.68579">
        <ele>52.7</ele>
        <time>2020-07-01T14:56:18Z</time>
      </trkpt>
      <trkpt lat="48.94395" lon="2.68575">
        <ele>52.9</ele>
        <time>2020-07-01T14:56:19Z</time>
      </trkpt>
      <trkpt lat="48.94395" lon="2.68567">
        <ele>53.2</ele>
        <time>2020-07-01T14:56:20Z</time>
      </trkpt>
      <trkpt lat="48.94396" lon="2.68561">
        <ele>53.5</ele>
        <time>2020-07-01T14:56:21Z</time>
      </trkpt>
      <trkpt lat="48.94397" lon="2.68556">
        <ele>53.6</ele>
        <time>2020-07-01T14:56:22Z</time>
      </trkpt>
      <trkpt lat="48.94399" lon="2.6855">
        <ele>53.9</ele>
        <time>2020-07-01T14:56:23Z</time>
      </trkpt>
      <trkpt lat="48.944" lon="2.68544">
        <ele>54.1</ele>
        <time>2020-07-01T14:56:24Z</time>
      </trkpt>
      <trkpt lat="48.94402" lon="2.68539">
        <ele>54.3</ele>
        <time>2020-07-01T14:56:25Z</time>
      </trkpt>
      <trkpt lat="48.94403" lon="2.68533">
        <ele>54.5</ele>
        <time>2020-07-01T14:56:26Z</time>
      </trkpt>
      <trkpt lat="48.94404" lon="2.68528">
        <ele>54.8</ele>
        <time>2020-07-01T14:56:27Z</time>
      </trkpt>
      <trkpt lat="48.94404" lon="2.68521">
        <ele>55</ele>
        <time>2020-07-01T14:56:28Z</time>
      </trkpt>
      <trkpt lat="48.94403" lon="2.68514">
        <ele>55.2</ele>
        <time>2020-07-01T14:56:29Z</time>
      </trkpt>
      <trkpt lat="48.94403" lon="2.6851">
        <ele>55.3</ele>
        <time>2020-07-01T14:56:30Z</time>
      </trkpt>
      <trkpt lat="48.94404" lon="2.68505">
        <ele>55.3</ele>
        <time>2020-07-01T14:56:31Z</time>
      </trkpt>
      <trkpt lat="48.94404" lon="2.68504">
        <ele>55.3</ele>
        <time>2020-07-01T14:56:32Z</time>
      </trkpt>
      <trkpt lat="48.94403" lon="2.68502">
        <ele>55.4</ele>
        <time>2020-07-01T14:56:33Z</time>
      </trkpt>
      <trkpt lat="48.94403" lon="2.68502">
        <ele>55.4</ele>
        <time>2020-07-01T14:56:34Z</time>
      </trkpt>
      <trkpt lat="48.94402" lon="2.68503">
        <ele>55.4</ele>
        <time>2020-07-01T14:56:35Z</time>
      </trkpt>
      <trkpt lat="48.94401" lon="2.68503">
        <ele>55.4</ele>
        <time>2020-07-01T14:56:36Z</time>
      </trkpt>
      <trkpt lat="48.94401" lon="2.68503">
        <ele>55.4</ele>
        <time>2020-07-01T14:56:37Z</time>
      </trkpt>
      <trkpt lat="48.944" lon="2.68502">
        <ele>55.5</ele>
        <time>2020-07-01T14:56:38Z</time>
      </trkpt>
      <trkpt lat="48.944" lon="2.68501">
        <ele>55.5</ele>
        <time>2020-07-01T14:56:39Z</time>
      </trkpt>
      <trkpt lat="48.944" lon="2.68501">
        <ele>55.5</ele>
        <time>2020-07-01T14:56:40Z</time>
      </trkpt>
      <trkpt lat="48.94399" lon="2.685">
        <ele>55.5</ele>
        <time>2020-07-01T14:56:41Z</time>
      </trkpt>
      <trkpt lat="48.94399" lon="2.685">
        <ele>55.5</ele>
        <time>2020-07-01T14:56:42Z</time>
      </trkpt>
      <trkpt lat="48.94399" lon="2.68499">
        <ele>55.5</ele>
        <time>2020-07-01T14:56:43Z</time>
      </trkpt>
      <trkpt lat="48.94398" lon="2.68499">
        <ele>55.5</ele>
        <time>2020-07-01T14:56:44Z</time>
      </trkpt>
      <trkpt lat="48.94398" lon="2.68498">
        <ele>55.6</ele>
        <time>2020-07-01T14:56:45Z</time>
      </trkpt>
      <trkpt lat="48.94398" lon="2.68498">
        <ele>55.6</ele>
        <time>2020-07-01T14:56:46Z</time>
      </trkpt>
      <trkpt lat="48.94398" lon="2.68497">
        <ele>55.6</ele>
        <time>2020-07-01T14:56:47Z</time>
      </trkpt>
      <trkpt lat="48.94397" lon="2.68497">
        <ele>55.6</ele>
        <time>2020-07-01T14:56:48Z</time>
      </trkpt>
      <trkpt lat="48.94397" lon="2.68496">
        <ele>55.6</ele>
        <time>2020-07-01T14:56:49Z</time>
      </trkpt>
      <trkpt lat="48.94397" lon="2.68496">
        <ele>55.6</ele>
        <time>2020-07-01T14:56:50Z</time>
      </trkpt>
      <trkpt lat="48.94396" lon="2.68495">
        <ele>55.7</ele>
        <time>2020-07-01T14:56:51Z</time>
      </trkpt>
      <trkpt lat="48.94396" lon="2.68494">
        <ele>55.7</ele>
        <time>2020-07-01T14:57:07Z</time>
      </trkpt>
      <trkpt lat="48.94396" lon="2.68494">
        <ele>55.7</ele>
        <time>2020-07-01T14:57:08Z</time>
      </trkpt>
      <trkpt lat="48.94396" lon="2.68493">
        <ele>55.7</ele>
        <time>2020-07-01T14:57:09Z</time>
      </trkpt>
      <trkpt lat="48.94392" lon="2.6849">
        <ele>55.8</ele>
        <time>2020-07-01T14:57:10Z</time>
      </trkpt>
      <trkpt lat="48.94391" lon="2.68489">
        <ele>55.9</ele>
        <time>2020-07-01T14:57:11Z</time>
      </trkpt>
      <trkpt lat="48.94388" lon="2.68486">
        <ele>56</ele>
        <time>2020-07-01T14:57:12Z</time>
      </trkpt>
      <trkpt lat="48.94385" lon="2.68483">
        <ele>56.1</ele>
        <time>2020-07-01T14:57:13Z</time>
      </trkpt>
      <trkpt lat="48.94381" lon="2.68478">
        <ele>56.3</ele>
        <time>2020-07-01T14:57:14Z</time>
      </trkpt>
      <trkpt lat="48.94378" lon="2.68475">
        <ele>56.4</ele>
        <time>2020-07-01T14:57:15Z</time>
      </trkpt>
      <trkpt lat="48.94376" lon="2.68471">
        <ele>56.5</ele>
        <time>2020-07-01T14:57:16Z</time>
      </trkpt>
      <trkpt lat="48.94372" lon="2.68468">
        <ele>56.6</ele>
        <time>2020-07-01T14:57:17Z</time>
      </trkpt>
      <trkpt lat="48.94369" lon="2.68465">
        <ele>56.8</ele>
        <time>2020-07-01T14:57:18Z</time>
      </trkpt>
      <trkpt lat="48.94364" lon="2.68462">
        <ele>56.9</ele>
        <time>2020-07-01T14:57:19Z</time>
      </trkpt>
      <trkpt lat="48.94362" lon="2.6846">
        <ele>56.9</ele>
        <time>2020-07-01T14:57:20Z</time>
      </trkpt>
      <trkpt lat="48.94361" lon="2.68459">
        <ele>57</ele>
        <time>2020-07-01T14:57:21Z</time>
      </trkpt>
      <trkpt lat="48.94361" lon="2.68458">
        <ele>57</ele>
        <time>2020-07-01T14:57:22Z</time>
      </trkpt>
      <trkpt lat="48.94359" lon="2.68454">
        <ele>57</ele>
        <time>2020-07-01T14:57:23Z</time>
      </trkpt>
      <trkpt lat="48.94359" lon="2.68452">
        <ele>57.1</ele>
        <time>2020-07-01T14:57:24Z</time>
      </trkpt>
      <trkpt lat="48.94357" lon="2.68449">
        <ele>57.2</ele>
        <time>2020-07-01T14:57:25Z</time>
      </trkpt>
      <trkpt lat="48.94355" lon="2.68446">
        <ele>57.2</ele>
        <time>2020-07-01T14:57:26Z</time>
      </trkpt>
      <trkpt lat="48.94352" lon="2.68443">
        <ele>57.3</ele>
        <time>2020-07-01T14:57:27Z</time>
      </trkpt>
      <trkpt lat="48.9435" lon="2.68439">
        <ele>57.3</ele>
        <time>2020-07-01T14:57:28Z</time>
      </trkpt>
      <trkpt lat="48.94347" lon="2.68433">
        <ele>57.4</ele>
        <time>2020-07-01T14:57:29Z</time>
      </trkpt>
      <trkpt lat="48.94345" lon="2.68427">
        <ele>57.5</ele>
        <time>2020-07-01T14:57:30Z</time>
      </trkpt>
      <trkpt lat="48.94342" lon="2.68422">
        <ele>57.5</ele>
        <time>2020-07-01T14:57:31Z</time>
      </trkpt>
      <trkpt lat="48.94339" lon="2.68417">
        <ele>57.6</ele>
        <time>2020-07-01T14:57:32Z</time>
      </trkpt>
      <trkpt lat="48.94335" lon="2.68412">
        <ele>57.6</ele>
        <time>2020-07-01T14:57:33Z</time>
      </trkpt>
      <trkpt lat="48.9433" lon="2.68406">
        <ele>57.7</ele>
        <time>2020-07-01T14:57:34Z</time>
      </trkpt>
      <trkpt lat="48.94325" lon="2.684">
        <ele>57.8</ele>
        <time>2020-07-01T14:57:35Z</time>
      </trkpt>
      <trkpt lat="48.94321" lon="2.68393">
        <ele>57.9</ele>
        <time>2020-07-01T14:57:36Z</time>
      </trkpt>
      <trkpt lat="48.94317" lon="2.68387">
        <ele>58</ele>
        <time>2020-07-01T14:57:37Z</time>
      </trkpt>
      <trkpt lat="48.94312" lon="2.6838">
        <ele>58.1</ele>
        <time>2020-07-01T14:57:38Z</time>
      </trkpt>
      <trkpt lat="48.94308" lon="2.68375">
        <ele>58.2</ele>
        <time>2020-07-01T14:57:39Z</time>
      </trkpt>
      <trkpt lat="48.94303" lon="2.68367">
        <ele>58.3</ele>
        <time>2020-07-01T14:57:40Z</time>
      </trkpt>
      <trkpt lat="48.943" lon="2.68361">
        <ele>58.4</ele>
        <time>2020-07-01T14:57:41Z</time>
      </trkpt>
      <trkpt lat="48.94295" lon="2.68353">
        <ele>58.5</ele>
        <time>2020-07-01T14:57:42Z</time>
      </trkpt>
      <trkpt lat="48.94289" lon="2.68346">
        <ele>58.6</ele>
        <time>2020-07-01T14:57:43Z</time>
      </trkpt>
      <trkpt lat="48.94284" lon="2.68339">
        <ele>58.7</ele>
        <time>2020-07-01T14:57:44Z</time>
      </trkpt>
      <trkpt lat="48.94279" lon="2.68331">
        <ele>58.9</ele>
        <time>2020-07-01T14:57:45Z</time>
      </trkpt>
      <trkpt lat="48.94275" lon="2.68324">
        <ele>59.1</ele>
        <time>2020-07-01T14:57:46Z</time>
      </trkpt>
      <trkpt lat="48.94271" lon="2.68318">
        <ele>59.2</ele>
        <time>2020-07-01T14:57:47Z</time>
      </trkpt>
      <trkpt lat="48.94267" lon="2.68313">
        <ele>59.4</ele>
        <time>2020-07-01T14:57:48Z</time>
      </trkpt>
      <trkpt lat="48.94263" lon="2.68306">
        <ele>59.5</ele>
        <time>2020-07-01T14:57:49Z</time>
      </trkpt>
      <trkpt lat="48.9426" lon="2.68299">
        <ele>59.7</ele>
        <time>2020-07-01T14:57:50Z</time>
      </trkpt>
      <trkpt lat="48.94254" lon="2.68292">
        <ele>59.9</ele>
        <time>2020-07-01T14:57:51Z</time>
      </trkpt>
      <trkpt lat="48.9425" lon="2.68286">
        <ele>60.1</ele>
        <time>2020-07-01T14:57:52Z</time>
      </trkpt>
      <trkpt lat="48.94245" lon="2.68279">
        <ele>60.4</ele>
        <time>2020-07-01T14:57:53Z</time>
      </trkpt>
      <trkpt lat="48.94243" lon="2.68273">
        <ele>60.5</ele>
        <time>2020-07-01T14:57:54Z</time>
      </trkpt>
      <trkpt lat="48.94239" lon="2.68267">
        <ele>60.8</ele>
        <time>2020-07-01T14:57:55Z</time>
      </trkpt>
      <trkpt lat="48.94235" lon="2.68262">
        <ele>61.2</ele>
        <time>2020-07-01T14:57:56Z</time>
      </trkpt>
      <trkpt lat="48.94232" lon="2.68257">
        <ele>61.6</ele>
        <time>2020-07-01T14:57:57Z</time>
      </trkpt>
      <trkpt lat="48.9423" lon="2.68252">
        <ele>61.9</ele>
        <time>2020-07-01T14:57:58Z</time>
      </trkpt>
      <trkpt lat="48.94227" lon="2.68248">
        <ele>62.3</ele>
        <time>2020-07-01T14:57:59Z</time>
      </trkpt>
      <trkpt lat="48.94224" lon="2.68243">
        <ele>62.6</ele>
        <time>2020-07-01T14:58:00Z</time>
      </trkpt>
      <trkpt lat="48.94222" lon="2.6824">
        <ele>62.8</ele>
        <time>2020-07-01T14:58:01Z</time>
      </trkpt>
      <trkpt lat="48.94217" lon="2.68234">
        <ele>61.9</ele>
        <time>2020-07-01T14:58:02Z</time>
      </trkpt>
      <trkpt lat="48.94214" lon="2.6823">
        <ele>62</ele>
        <time>2020-07-01T14:58:03Z</time>
      </trkpt>
      <trkpt lat="48.9421" lon="2.68224">
        <ele>62.1</ele>
        <time>2020-07-01T14:58:04Z</time>
      </trkpt>
      <trkpt lat="48.94208" lon="2.6822">
        <ele>62.2</ele>
        <time>2020-07-01T14:58:05Z</time>
      </trkpt>
      <trkpt lat="48.94203" lon="2.68214">
        <ele>62.4</ele>
        <time>2020-07-01T14:58:06Z</time>
      </trkpt>
      <trkpt lat="48.94199" lon="2.6821">
        <ele>62.5</ele>
        <time>2020-07-01T14:58:07Z</time>
      </trkpt>
      <trkpt lat="48.94197" lon="2.68204">
        <ele>62.6</ele>
        <time>2020-07-01T14:58:08Z</time>
      </trkpt>
      <trkpt lat="48.94195" lon="2.68199">
        <ele>62.8</ele>
        <time>2020-07-01T14:58:09Z</time>
      </trkpt>
      <trkpt lat="48.94191" lon="2.68196">
        <ele>63</ele>
        <time>2020-07-01T14:58:10Z</time>
      </trkpt>
      <trkpt lat="48.94187" lon="2.68192">
        <ele>63.3</ele>
        <time>2020-07-01T14:58:11Z</time>
      </trkpt>
      <trkpt lat="48.94186" lon="2.68187">
        <ele>63.4</ele>
        <time>2020-07-01T14:58:12Z</time>
      </trkpt>
      <trkpt lat="48.94183" lon="2.6818">
        <ele>63.7</ele>
        <time>2020-07-01T14:58:13Z</time>
      </trkpt>
      <trkpt lat="48.94181" lon="2.68175">
        <ele>63.9</ele>
        <time>2020-07-01T14:58:14Z</time>
      </trkpt>
      <trkpt lat="48.94177" lon="2.68167">
        <ele>64.1</ele>
        <time>2020-07-01T14:58:15Z</time>
      </trkpt>
      <trkpt lat="48.94176" lon="2.68163">
        <ele>64.3</ele>
        <time>2020-07-01T14:58:16Z</time>
      </trkpt>
      <trkpt lat="48.94175" lon="2.68158">
        <ele>64.4</ele>
        <time>2020-07-01T14:58:17Z</time>
      </trkpt>
      <trkpt lat="48.94172" lon="2.6815">
        <ele>64.7</ele>
        <time>2020-07-01T14:58:18Z</time>
      </trkpt>
      <trkpt lat="48.9417" lon="2.68144">
        <ele>64.9</ele>
        <time>2020-07-01T14:58:19Z</time>
      </trkpt>
      <trkpt lat="48.94169" lon="2.68139">
        <ele>65</ele>
        <time>2020-07-01T14:58:20Z</time>
      </trkpt>
      <trkpt lat="48.94167" lon="2.68133">
        <ele>65.2</ele>
        <time>2020-07-01T14:58:21Z</time>
      </trkpt>
      <trkpt lat="48.94166" lon="2.68129">
        <ele>65.3</ele>
        <time>2020-07-01T14:58:22Z</time>
      </trkpt>
      <trkpt lat="48.94164" lon="2.68124">
        <ele>65.4</ele>
        <time>2020-07-01T14:58:23Z</time>
      </trkpt>
      <trkpt lat="48.94163" lon="2.68121">
        <ele>65.5</ele>
        <time>2020-07-01T14:58:24Z</time>
      </trkpt>
      <trkpt lat="48.94163" lon="2.68116">
        <ele>65.6</ele>
        <time>2020-07-01T14:58:25Z</time>
      </trkpt>
      <trkpt lat="48.94162" lon="2.6811">
        <ele>65.8</ele>
        <time>2020-07-01T14:58:26Z</time>
      </trkpt>
      <trkpt lat="48.94158" lon="2.68101">
        <ele>66.1</ele>
        <time>2020-07-01T14:58:27Z</time>
      </trkpt>
      <trkpt lat="48.94159" lon="2.68096">
        <ele>66.3</ele>
        <time>2020-07-01T14:58:28Z</time>
      </trkpt>
      <trkpt lat="48.94158" lon="2.68091">
        <ele>66.3</ele>
        <time>2020-07-01T14:58:29Z</time>
      </trkpt>
      <trkpt lat="48.94157" lon="2.68086">
        <ele>66.5</ele>
        <time>2020-07-01T14:58:30Z</time>
      </trkpt>
      <trkpt lat="48.94154" lon="2.6808">
        <ele>66.6</ele>
        <time>2020-07-01T14:58:31Z</time>
      </trkpt>
      <trkpt lat="48.94152" lon="2.68075">
        <ele>66.7</ele>
        <time>2020-07-01T14:58:32Z</time>
      </trkpt>
      <trkpt lat="48.94149" lon="2.6807">
        <ele>66.8</ele>
        <time>2020-07-01T14:58:33Z</time>
      </trkpt>
      <trkpt lat="48.94146" lon="2.68065">
        <ele>66.9</ele>
        <time>2020-07-01T14:58:34Z</time>
      </trkpt>
      <trkpt lat="48.94144" lon="2.68059">
        <ele>67.1</ele>
        <time>2020-07-01T14:58:35Z</time>
      </trkpt>
      <trkpt lat="48.94142" lon="2.68055">
        <ele>67.2</ele>
        <time>2020-07-01T14:58:36Z</time>
      </trkpt>
      <trkpt lat="48.94138" lon="2.68049">
        <ele>67.3</ele>
        <time>2020-07-01T14:58:37Z</time>
      </trkpt>
      <trkpt lat="48.94136" lon="2.68044">
        <ele>67.5</ele>
        <time>2020-07-01T14:58:38Z</time>
      </trkpt>
      <trkpt lat="48.94132" lon="2.68038">
        <ele>67.7</ele>
        <time>2020-07-01T14:58:39Z</time>
      </trkpt>
      <trkpt lat="48.94128" lon="2.68032">
        <ele>67.8</ele>
        <time>2020-07-01T14:58:40Z</time>
      </trkpt>
      <trkpt lat="48.94124" lon="2.68026">
        <ele>68</ele>
        <time>2020-07-01T14:58:41Z</time>
      </trkpt>
      <trkpt lat="48.94122" lon="2.68021">
        <ele>68.1</ele>
        <time>2020-07-01T14:58:42Z</time>
      </trkpt>
      <trkpt lat="48.94119" lon="2.68015">
        <ele>68.2</ele>
        <time>2020-07-01T14:58:43Z</time>
      </trkpt>
      <trkpt lat="48.94115" lon="2.6801">
        <ele>68.4</ele>
        <time>2020-07-01T14:58:44Z</time>
      </trkpt>
      <trkpt lat="48.94113" lon="2.68005">
        <ele>68.5</ele>
        <time>2020-07-01T14:58:45Z</time>
      </trkpt>
      <trkpt lat="48.94109" lon="2.68">
        <ele>68.6</ele>
        <time>2020-07-01T14:58:46Z</time>
      </trkpt>
      <trkpt lat="48.94107" lon="2.67995">
        <ele>68.7</ele>
        <time>2020-07-01T14:58:47Z</time>
      </trkpt>
      <trkpt lat="48.94103" lon="2.67988">
        <ele>68.9</ele>
        <time>2020-07-01T14:58:48Z</time>
      </trkpt>
      <trkpt lat="48.941" lon="2.67982">
        <ele>69</ele>
        <time>2020-07-01T14:58:49Z</time>
      </trkpt>
      <trkpt lat="48.94098" lon="2.67977">
        <ele>69.1</ele>
        <time>2020-07-01T14:58:50Z</time>
      </trkpt>
      <trkpt lat="48.94095" lon="2.67972">
        <ele>69.2</ele>
        <time>2020-07-01T14:58:51Z</time>
      </trkpt>
      <trkpt lat="48.94092" lon="2.67967">
        <ele>69.3</ele>
        <time>2020-07-01T14:58:52Z</time>
      </trkpt>
      <trkpt lat="48.9409" lon="2.67962">
        <ele>69.4</ele>
        <time>2020-07-01T14:58:53Z</time>
      </trkpt>
      <trkpt lat="48.94087" lon="2.67956">
        <ele>69.5</ele>
        <time>2020-07-01T14:58:54Z</time>
      </trkpt>
      <trkpt lat="48.94084" lon="2.67951">
        <ele>69.6</ele>
        <time>2020-07-01T14:58:55Z</time>
      </trkpt>
      <trkpt lat="48.94082" lon="2.67945">
        <ele>69.7</ele>
        <time>2020-07-01T14:58:56Z</time>
      </trkpt>
      <trkpt lat="48.94078" lon="2.6794">
        <ele>69.7</ele>
        <time>2020-07-01T14:58:57Z</time>
      </trkpt>
      <trkpt lat="48.94074" lon="2.67935">
        <ele>69.8</ele>
        <time>2020-07-01T14:58:58Z</time>
      </trkpt>
      <trkpt lat="48.94071" lon="2.67931">
        <ele>69.9</ele>
        <time>2020-07-01T14:58:59Z</time>
      </trkpt>
      <trkpt lat="48.94069" lon="2.67926">
        <ele>69.9</ele>
        <time>2020-07-01T14:59:00Z</time>
      </trkpt>
      <trkpt lat="48.94065" lon="2.67919">
        <ele>70</ele>
        <time>2020-07-01T14:59:01Z</time>
      </trkpt>
      <trkpt lat="48.94062" lon="2.67913">
        <ele>70</ele>
        <time>2020-07-01T14:59:02Z</time>
      </trkpt>
      <trkpt lat="48.94059" lon="2.67907">
        <ele>70</ele>
        <time>2020-07-01T14:59:03Z</time>
      </trkpt>
      <trkpt lat="48.94056" lon="2.67902">
        <ele>70.1</ele>
        <time>2020-07-01T14:59:04Z</time>
      </trkpt>
      <trkpt lat="48.94053" lon="2.67896">
        <ele>70.2</ele>
        <time>2020-07-01T14:59:05Z</time>
      </trkpt>
      <trkpt lat="48.94049" lon="2.6789">
        <ele>70.3</ele>
        <time>2020-07-01T14:59:06Z</time>
      </trkpt>
      <trkpt lat="48.94046" lon="2.67887">
        <ele>70.3</ele>
        <time>2020-07-01T14:59:07Z</time>
      </trkpt>
      <trkpt lat="48.94043" lon="2.67883">
        <ele>70.4</ele>
        <time>2020-07-01T14:59:08Z</time>
      </trkpt>
      <trkpt lat="48.9404" lon="2.67878">
        <ele>70.5</ele>
        <time>2020-07-01T14:59:09Z</time>
      </trkpt>
      <trkpt lat="48.94037" lon="2.67874">
        <ele>70.6</ele>
        <time>2020-07-01T14:59:10Z</time>
      </trkpt>
      <trkpt lat="48.94034" lon="2.67868">
        <ele>70.6</ele>
        <time>2020-07-01T14:59:11Z</time>
      </trkpt>
      <trkpt lat="48.94031" lon="2.67864">
        <ele>70.7</ele>
        <time>2020-07-01T14:59:12Z</time>
      </trkpt>
      <trkpt lat="48.94029" lon="2.67861">
        <ele>70.7</ele>
        <time>2020-07-01T14:59:13Z</time>
      </trkpt>
      <trkpt lat="48.94027" lon="2.67858">
        <ele>70.6</ele>
        <time>2020-07-01T14:59:14Z</time>
      </trkpt>
      <trkpt lat="48.94027" lon="2.67852">
        <ele>70.6</ele>
        <time>2020-07-01T14:59:15Z</time>
      </trkpt>
      <trkpt lat="48.94027" lon="2.67849">
        <ele>70.6</ele>
        <time>2020-07-01T14:59:16Z</time>
      </trkpt>
      <trkpt lat="48.94027" lon="2.67846">
        <ele>70.6</ele>
        <time>2020-07-01T14:59:17Z</time>
      </trkpt>
      <trkpt lat="48.94026" lon="2.67845">
        <ele>70.6</ele>
        <time>2020-07-01T14:59:18Z</time>
      </trkpt>
      <trkpt lat="48.94025" lon="2.67845">
        <ele>70.6</ele>
        <time>2020-07-01T14:59:19Z</time>
      </trkpt>
      <trkpt lat="48.94025" lon="2.67845">
        <ele>70.6</ele>
        <time>2020-07-01T14:59:20Z</time>
      </trkpt>
      <trkpt lat="48.94025" lon="2.67846">
        <ele>70.6</ele>
        <time>2020-07-01T14:59:21Z</time>
      </trkpt>
      <trkpt lat="48.94025" lon="2.67846">
        <ele>70.6</ele>
        <time>2020-07-01T14:59:22Z</time>
      </trkpt>
      <trkpt lat="48.94025" lon="2.67846">
        <ele>70.6</ele>
        <time>2020-07-01T14:59:23Z</time>
      </trkpt>
      <trkpt lat="48.94027" lon="2.67846">
        <ele>70.6</ele>
        <time>2020-07-01T14:59:24Z</time>
      </trkpt>
      <trkpt lat="48.94026" lon="2.67845">
        <ele>70.6</ele>
        <time>2020-07-01T14:59:25Z</time>
      </trkpt>
      <trkpt lat="48.94027" lon="2.67845">
        <ele>70.6</ele>
        <time>2020-07-01T14:59:26Z</time>
      </trkpt>
      <trkpt lat="48.94029" lon="2.67844">
        <ele>70.6</ele>
        <time>2020-07-01T14:59:27Z</time>
      </trkpt>
      <trkpt lat="48.94031" lon="2.67848">
        <ele>70.6</ele>
        <time>2020-07-01T14:59:28Z</time>
      </trkpt>
      <trkpt lat="48.94033" lon="2.67851">
        <ele>70.6</ele>
        <time>2020-07-01T14:59:29Z</time>
      </trkpt>
      <trkpt lat="48.94035" lon="2.67855">
        <ele>70.6</ele>
        <time>2020-07-01T15:00:26Z</time>
      </trkpt>
      <trkpt lat="48.94036" lon="2.67859">
        <ele>70.5</ele>
        <time>2020-07-01T15:00:27Z</time>
      </trkpt>
      <trkpt lat="48.94036" lon="2.67861">
        <ele>70.5</ele>
        <time>2020-07-01T15:00:28Z</time>
      </trkpt>
      <trkpt lat="48.94036" lon="2.67864">
        <ele>70.5</ele>
        <time>2020-07-01T15:00:29Z</time>
      </trkpt>
      <trkpt lat="48.94036" lon="2.67867">
        <ele>70.5</ele>
        <time>2020-07-01T15:00:30Z</time>
      </trkpt>
      <trkpt lat="48.94036" lon="2.67869">
        <ele>70.5</ele>
        <time>2020-07-01T15:00:31Z</time>
      </trkpt>
      <trkpt lat="48.94035" lon="2.67871">
        <ele>70.4</ele>
        <time>2020-07-01T15:00:32Z</time>
      </trkpt>
      <trkpt lat="48.94035" lon="2.67872">
        <ele>70.4</ele>
        <time>2020-07-01T15:00:33Z</time>
      </trkpt>
      <trkpt lat="48.94035" lon="2.67873">
        <ele>70.4</ele>
        <time>2020-07-01T15:00:34Z</time>
      </trkpt>
      <trkpt lat="48.94035" lon="2.67874">
        <ele>70.4</ele>
        <time>2020-07-01T15:00:35Z</time>
      </trkpt>
      <trkpt lat="48.94035" lon="2.67875">
        <ele>70.4</ele>
        <time>2020-07-01T15:00:36Z</time>
      </trkpt>
      <trkpt lat="48.94035" lon="2.67876">
        <ele>70.4</ele>
        <time>2020-07-01T15:00:37Z</time>
      </trkpt>
      <trkpt lat="48.94036" lon="2.6788">
        <ele>70.4</ele>
        <time>2020-07-01T15:00:38Z</time>
      </trkpt>
      <trkpt lat="48.94037" lon="2.67882">
        <ele>70.3</ele>
        <time>2020-07-01T15:00:39Z</time>
      </trkpt>
      <trkpt lat="48.94039" lon="2.67886">
        <ele>70.3</ele>
        <time>2020-07-01T15:00:40Z</time>
      </trkpt>
      <trkpt lat="48.94042" lon="2.67891">
        <ele>70.2</ele>
        <time>2020-07-01T15:00:41Z</time>
      </trkpt>
      <trkpt lat="48.94044" lon="2.67895">
        <ele>70.2</ele>
        <time>2020-07-01T15:00:42Z</time>
      </trkpt>
      <trkpt lat="48.94047" lon="2.679">
        <ele>70.1</ele>
        <time>2020-07-01T15:00:43Z</time>
      </trkpt>
      <trkpt lat="48.9405" lon="2.67905">
        <ele>70.1</ele>
        <time>2020-07-01T15:00:44Z</time>
      </trkpt>
      <trkpt lat="48.94052" lon="2.6791">
        <ele>70.1</ele>
        <time>2020-07-01T15:00:45Z</time>
      </trkpt>
      <trkpt lat="48.94055" lon="2.67912">
        <ele>70</ele>
        <time>2020-07-01T15:00:46Z</time>
      </trkpt>
      <trkpt lat="48.94057" lon="2.67915">
        <ele>70</ele>
        <time>2020-07-01T15:00:47Z</time>
      </trkpt>
      <trkpt lat="48.94059" lon="2.67919">
        <ele>70</ele>
        <time>2020-07-01T15:00:48Z</time>
      </trkpt>
      <trkpt lat="48.94061" lon="2.67922">
        <ele>70</ele>
        <time>2020-07-01T15:00:49Z</time>
      </trkpt>
      <trkpt lat="48.94063" lon="2.67928">
        <ele>69.9</ele>
        <time>2020-07-01T15:00:50Z</time>
      </trkpt>
      <trkpt lat="48.94066" lon="2.67933">
        <ele>69.9</ele>
        <time>2020-07-01T15:00:51Z</time>
      </trkpt>
      <trkpt lat="48.94069" lon="2.67939">
        <ele>69.8</ele>
        <time>2020-07-01T15:00:52Z</time>
      </trkpt>
      <trkpt lat="48.94073" lon="2.67944">
        <ele>69.8</ele>
        <time>2020-07-01T15:00:53Z</time>
      </trkpt>
      <trkpt lat="48.94076" lon="2.67949">
        <ele>69.7</ele>
        <time>2020-07-01T15:00:54Z</time>
      </trkpt>
      <trkpt lat="48.94078" lon="2.67956">
        <ele>69.6</ele>
        <time>2020-07-01T15:00:55Z</time>
      </trkpt>
      <trkpt lat="48.94082" lon="2.67961">
        <ele>69.5</ele>
        <time>2020-07-01T15:00:56Z</time>
      </trkpt>
      <trkpt lat="48.94085" lon="2.67968">
        <ele>69.4</ele>
        <time>2020-07-01T15:00:57Z</time>
      </trkpt>
      <trkpt lat="48.94088" lon="2.67974">
        <ele>69.3</ele>
        <time>2020-07-01T15:00:58Z</time>
      </trkpt>
      <trkpt lat="48.94092" lon="2.6798">
        <ele>69.1</ele>
        <time>2020-07-01T15:00:59Z</time>
      </trkpt>
      <trkpt lat="48.94094" lon="2.67985">
        <ele>69</ele>
        <time>2020-07-01T15:01:00Z</time>
      </trkpt>
      <trkpt lat="48.94098" lon="2.67991">
        <ele>68.9</ele>
        <time>2020-07-01T15:01:01Z</time>
      </trkpt>
      <trkpt lat="48.94101" lon="2.67996">
        <ele>68.8</ele>
        <time>2020-07-01T15:01:02Z</time>
      </trkpt>
      <trkpt lat="48.94105" lon="2.68">
        <ele>68.7</ele>
        <time>2020-07-01T15:01:03Z</time>
      </trkpt>
      <trkpt lat="48.94108" lon="2.68007">
        <ele>68.5</ele>
        <time>2020-07-01T15:01:04Z</time>
      </trkpt>
      <trkpt lat="48.94111" lon="2.68013">
        <ele>68.4</ele>
        <time>2020-07-01T15:01:05Z</time>
      </trkpt>
      <trkpt lat="48.94115" lon="2.6802">
        <ele>68.2</ele>
        <time>2020-07-01T15:01:06Z</time>
      </trkpt>
      <trkpt lat="48.94118" lon="2.68027">
        <ele>68.1</ele>
        <time>2020-07-01T15:01:07Z</time>
      </trkpt>
      <trkpt lat="48.94122" lon="2.68034">
        <ele>67.9</ele>
        <time>2020-07-01T15:01:08Z</time>
      </trkpt>
      <trkpt lat="48.94126" lon="2.68041">
        <ele>67.7</ele>
        <time>2020-07-01T15:01:09Z</time>
      </trkpt>
      <trkpt lat="48.94131" lon="2.68048">
        <ele>67.5</ele>
        <time>2020-07-01T15:01:10Z</time>
      </trkpt>
      <trkpt lat="48.94136" lon="2.68058">
        <ele>67.2</ele>
        <time>2020-07-01T15:01:11Z</time>
      </trkpt>
      <trkpt lat="48.9414" lon="2.68065">
        <ele>67</ele>
        <time>2020-07-01T15:01:12Z</time>
      </trkpt>
      <trkpt lat="48.94144" lon="2.68072">
        <ele>66.9</ele>
        <time>2020-07-01T15:01:13Z</time>
      </trkpt>
      <trkpt lat="48.94149" lon="2.68084">
        <ele>66.6</ele>
        <time>2020-07-01T15:01:14Z</time>
      </trkpt>
      <trkpt lat="48.94153" lon="2.68095">
        <ele>66.3</ele>
        <time>2020-07-01T15:01:15Z</time>
      </trkpt>
      <trkpt lat="48.94157" lon="2.68103">
        <ele>66</ele>
        <time>2020-07-01T15:01:16Z</time>
      </trkpt>
      <trkpt lat="48.94161" lon="2.68113">
        <ele>65.7</ele>
        <time>2020-07-01T15:01:17Z</time>
      </trkpt>
      <trkpt lat="48.94165" lon="2.68124">
        <ele>65.3</ele>
        <time>2020-07-01T15:01:18Z</time>
      </trkpt>
      <trkpt lat="48.94169" lon="2.68134">
        <ele>65</ele>
        <time>2020-07-01T15:01:19Z</time>
      </trkpt>
      <trkpt lat="48.94172" lon="2.68145">
        <ele>64.7</ele>
        <time>2020-07-01T15:01:20Z</time>
      </trkpt>
      <trkpt lat="48.94176" lon="2.68158">
        <ele>64.3</ele>
        <time>2020-07-01T15:01:21Z</time>
      </trkpt>
      <trkpt lat="48.9418" lon="2.6817">
        <ele>64</ele>
        <time>2020-07-01T15:01:22Z</time>
      </trkpt>
      <trkpt lat="48.94184" lon="2.68181">
        <ele>63.6</ele>
        <time>2020-07-01T15:01:23Z</time>
      </trkpt>
      <trkpt lat="48.94187" lon="2.68191">
        <ele>63.2</ele>
        <time>2020-07-01T15:01:24Z</time>
      </trkpt>
      <trkpt lat="48.94192" lon="2.682">
        <ele>62.9</ele>
        <time>2020-07-01T15:01:25Z</time>
      </trkpt>
      <trkpt lat="48.94196" lon="2.68209">
        <ele>62.6</ele>
        <time>2020-07-01T15:01:26Z</time>
      </trkpt>
      <trkpt lat="48.94201" lon="2.68218">
        <ele>62.4</ele>
        <time>2020-07-01T15:01:27Z</time>
      </trkpt>
      <trkpt lat="48.94206" lon="2.68225">
        <ele>62.2</ele>
        <time>2020-07-01T15:01:28Z</time>
      </trkpt>
      <trkpt lat="48.94211" lon="2.68232">
        <ele>62</ele>
        <time>2020-07-01T15:01:29Z</time>
      </trkpt>
      <trkpt lat="48.94216" lon="2.68241">
        <ele>62.8</ele>
        <time>2020-07-01T15:01:30Z</time>
      </trkpt>
      <trkpt lat="48.94221" lon="2.68249">
        <ele>62.3</ele>
        <time>2020-07-01T15:01:31Z</time>
      </trkpt>
      <trkpt lat="48.94226" lon="2.68256">
        <ele>61.9</ele>
        <time>2020-07-01T15:01:32Z</time>
      </trkpt>
      <trkpt lat="48.94231" lon="2.68262">
        <ele>61.4</ele>
        <time>2020-07-01T15:01:33Z</time>
      </trkpt>
      <trkpt lat="48.94237" lon="2.68267">
        <ele>60.9</ele>
        <time>2020-07-01T15:01:34Z</time>
      </trkpt>
      <trkpt lat="48.94241" lon="2.68274">
        <ele>60.5</ele>
        <time>2020-07-01T15:01:35Z</time>
      </trkpt>
      <trkpt lat="48.94245" lon="2.68282">
        <ele>60.3</ele>
        <time>2020-07-01T15:01:36Z</time>
      </trkpt>
      <trkpt lat="48.94249" lon="2.6829">
        <ele>60.1</ele>
        <time>2020-07-01T15:01:37Z</time>
      </trkpt>
      <trkpt lat="48.94252" lon="2.68297">
        <ele>59.9</ele>
        <time>2020-07-01T15:01:38Z</time>
      </trkpt>
      <trkpt lat="48.94256" lon="2.68304">
        <ele>59.7</ele>
        <time>2020-07-01T15:01:39Z</time>
      </trkpt>
      <trkpt lat="48.94261" lon="2.68311">
        <ele>59.5</ele>
        <time>2020-07-01T15:01:40Z</time>
      </trkpt>
      <trkpt lat="48.94266" lon="2.6832">
        <ele>59.3</ele>
        <time>2020-07-01T15:01:41Z</time>
      </trkpt>
      <trkpt lat="48.94272" lon="2.68328">
        <ele>59.1</ele>
        <time>2020-07-01T15:01:42Z</time>
      </trkpt>
      <trkpt lat="48.94277" lon="2.68335">
        <ele>58.9</ele>
        <time>2020-07-01T15:01:43Z</time>
      </trkpt>
      <trkpt lat="48.94281" lon="2.68343">
        <ele>58.8</ele>
        <time>2020-07-01T15:01:44Z</time>
      </trkpt>
      <trkpt lat="48.94284" lon="2.68353">
        <ele>58.6</ele>
        <time>2020-07-01T15:01:45Z</time>
      </trkpt>
      <trkpt lat="48.94289" lon="2.68361">
        <ele>58.5</ele>
        <time>2020-07-01T15:01:46Z</time>
      </trkpt>
      <trkpt lat="48.94294" lon="2.68368">
        <ele>58.4</ele>
        <time>2020-07-01T15:01:47Z</time>
      </trkpt>
      <trkpt lat="48.94298" lon="2.68375">
        <ele>58.3</ele>
        <time>2020-07-01T15:01:48Z</time>
      </trkpt>
      <trkpt lat="48.94303" lon="2.68381">
        <ele>58.2</ele>
        <time>2020-07-01T15:01:49Z</time>
      </trkpt>
      <trkpt lat="48.94307" lon="2.68388">
        <ele>58.1</ele>
        <time>2020-07-01T15:01:50Z</time>
      </trkpt>
      <trkpt lat="48.94311" lon="2.68395">
        <ele>58</ele>
        <time>2020-07-01T15:01:51Z</time>
      </trkpt>
      <trkpt lat="48.94315" lon="2.68403">
        <ele>57.9</ele>
        <time>2020-07-01T15:01:52Z</time>
      </trkpt>
      <trkpt lat="48.9432" lon="2.68408">
        <ele>57.8</ele>
        <time>2020-07-01T15:01:53Z</time>
      </trkpt>
      <trkpt lat="48.94324" lon="2.68415">
        <ele>57.7</ele>
        <time>2020-07-01T15:01:54Z</time>
      </trkpt>
      <trkpt lat="48.94329" lon="2.68421">
        <ele>57.6</ele>
        <time>2020-07-01T15:01:55Z</time>
      </trkpt>
      <trkpt lat="48.94333" lon="2.68429">
        <ele>57.6</ele>
        <time>2020-07-01T15:01:56Z</time>
      </trkpt>
      <trkpt lat="48.94338" lon="2.68435">
        <ele>57.5</ele>
        <time>2020-07-01T15:01:57Z</time>
      </trkpt>
      <trkpt lat="48.94342" lon="2.68441">
        <ele>57.4</ele>
        <time>2020-07-01T15:01:58Z</time>
      </trkpt>
      <trkpt lat="48.94347" lon="2.68447">
        <ele>57.3</ele>
        <time>2020-07-01T15:01:59Z</time>
      </trkpt>
      <trkpt lat="48.94351" lon="2.68453">
        <ele>57.1</ele>
        <time>2020-07-01T15:02:00Z</time>
      </trkpt>
      <trkpt lat="48.94355" lon="2.68459">
        <ele>57</ele>
        <time>2020-07-01T15:02:01Z</time>
      </trkpt>
      <trkpt lat="48.94358" lon="2.68466">
        <ele>56.9</ele>
        <time>2020-07-01T15:02:02Z</time>
      </trkpt>
      <trkpt lat="48.94362" lon="2.68472">
        <ele>56.8</ele>
        <time>2020-07-01T15:02:03Z</time>
      </trkpt>
      <trkpt lat="48.94367" lon="2.68478">
        <ele>56.6</ele>
        <time>2020-07-01T15:02:04Z</time>
      </trkpt>
      <trkpt lat="48.94371" lon="2.68484">
        <ele>56.4</ele>
        <time>2020-07-01T15:02:05Z</time>
      </trkpt>
      <trkpt lat="48.94375" lon="2.68489">
        <ele>56.2</ele>
        <time>2020-07-01T15:02:06Z</time>
      </trkpt>
      <trkpt lat="48.94378" lon="2.68493">
        <ele>56.1</ele>
        <time>2020-07-01T15:02:07Z</time>
      </trkpt>
      <trkpt lat="48.94381" lon="2.68497">
        <ele>56</ele>
        <time>2020-07-01T15:02:08Z</time>
      </trkpt>
      <trkpt lat="48.94384" lon="2.68499">
        <ele>55.9</ele>
        <time>2020-07-01T15:02:09Z</time>
      </trkpt>
      <trkpt lat="48.94387" lon="2.68502">
        <ele>55.7</ele>
        <time>2020-07-01T15:02:10Z</time>
      </trkpt>
      <trkpt lat="48.94388" lon="2.68503">
        <ele>55.7</ele>
        <time>2020-07-01T15:02:11Z</time>
      </trkpt>
      <trkpt lat="48.94391" lon="2.68506">
        <ele>55.6</ele>
        <time>2020-07-01T15:02:12Z</time>
      </trkpt>
      <trkpt lat="48.94391" lon="2.68507">
        <ele>55.4</ele>
        <time>2020-07-01T15:02:13Z</time>
      </trkpt>
      <trkpt lat="48.94394" lon="2.68507">
        <ele>55.4</ele>
        <time>2020-07-01T15:02:14Z</time>
      </trkpt>
      <trkpt lat="48.94394" lon="2.68507">
        <ele>55.4</ele>
        <time>2020-07-01T15:02:15Z</time>
      </trkpt>
      <trkpt lat="48.94394" lon="2.68507">
        <ele>55.4</ele>
        <time>2020-07-01T15:02:16Z</time>
      </trkpt>
      <trkpt lat="48.94396" lon="2.68507">
        <ele>55.4</ele>
        <time>2020-07-01T15:02:17Z</time>
      </trkpt>
      <trkpt lat="48.94396" lon="2.68503">
        <ele>55.4</ele>
        <time>2020-07-01T15:02:18Z</time>
      </trkpt>
      <trkpt lat="48.94396" lon="2.68504">
        <ele>55.4</ele>
        <time>2020-07-01T15:02:19Z</time>
      </trkpt>
      <trkpt lat="48.94397" lon="2.68502">
        <ele>55.5</ele>
        <time>2020-07-01T15:02:20Z</time>
      </trkpt>
      <trkpt lat="48.94397" lon="2.685">
        <ele>55.5</ele>
        <time>2020-07-01T15:02:21Z</time>
      </trkpt>
      <trkpt lat="48.94397" lon="2.68499">
        <ele>55.5</ele>
        <time>2020-07-01T15:02:22Z</time>
      </trkpt>
      <trkpt lat="48.94398" lon="2.68498">
        <ele>55.5</ele>
        <time>2020-07-01T15:02:23Z</time>
      </trkpt>
      <trkpt lat="48.94399" lon="2.68496">
        <ele>55.5</ele>
        <time>2020-07-01T15:02:24Z</time>
      </trkpt>
      <trkpt lat="48.94399" lon="2.68495">
        <ele>55.5</ele>
        <time>2020-07-01T15:02:25Z</time>
      </trkpt>
      <trkpt lat="48.94399" lon="2.68494">
        <ele>55.5</ele>
        <time>2020-07-01T15:02:26Z</time>
      </trkpt>
      <trkpt lat="48.94401" lon="2.68492">
        <ele>55.5</ele>
        <time>2020-07-01T15:02:27Z</time>
      </trkpt>
      <trkpt lat="48.94402" lon="2.6849">
        <ele>55.5</ele>
        <time>2020-07-01T15:02:28Z</time>
      </trkpt>
      <trkpt lat="48.94405" lon="2.68489">
        <ele>55.5</ele>
        <time>2020-07-01T15:02:29Z</time>
      </trkpt>
      <trkpt lat="48.94406" lon="2.68488">
        <ele>55.5</ele>
        <time>2020-07-01T15:02:30Z</time>
      </trkpt>
      <trkpt lat="48.94409" lon="2.68485">
        <ele>55.5</ele>
        <time>2020-07-01T15:02:31Z</time>
      </trkpt>
      <trkpt lat="48.9441" lon="2.68484">
        <ele>55.5</ele>
        <time>2020-07-01T15:02:32Z</time>
      </trkpt>
      <trkpt lat="48.94412" lon="2.6848">
        <ele>55.4</ele>
        <time>2020-07-01T15:02:33Z</time>
      </trkpt>
      <trkpt lat="48.94414" lon="2.68478">
        <ele>55.4</ele>
        <time>2020-07-01T15:02:34Z</time>
      </trkpt>
      <trkpt lat="48.94415" lon="2.68475">
        <ele>55.4</ele>
        <time>2020-07-01T15:02:35Z</time>
      </trkpt>
      <trkpt lat="48.94418" lon="2.68471">
        <ele>55.4</ele>
        <time>2020-07-01T15:02:36Z</time>
      </trkpt>
      <trkpt lat="48.94419" lon="2.68469">
        <ele>55.4</ele>
        <time>2020-07-01T15:02:37Z</time>
      </trkpt>
      <trkpt lat="48.94421" lon="2.68465">
        <ele>55.3</ele>
        <time>2020-07-01T15:02:38Z</time>
      </trkpt>
      <trkpt lat="48.94422" lon="2.68463">
        <ele>55.3</ele>
        <time>2020-07-01T15:02:39Z</time>
      </trkpt>
      <trkpt lat="48.94425" lon="2.68462">
        <ele>55.3</ele>
        <time>2020-07-01T15:02:40Z</time>
      </trkpt>
      <trkpt lat="48.94426" lon="2.68462">
        <ele>55.3</ele>
        <time>2020-07-01T15:02:41Z</time>
      </trkpt>
      <trkpt lat="48.94427" lon="2.68461">
        <ele>55.3</ele>
        <time>2020-07-01T15:02:42Z</time>
      </trkpt>
      <trkpt lat="48.94428" lon="2.68459">
        <ele>55.3</ele>
        <time>2020-07-01T15:02:43Z</time>
      </trkpt>
      <trkpt lat="48.94429" lon="2.68454">
        <ele>55.3</ele>
        <time>2020-07-01T15:02:44Z</time>
      </trkpt>
      <trkpt lat="48.94429" lon="2.68453">
        <ele>55.2</ele>
        <time>2020-07-01T15:02:45Z</time>
      </trkpt>
      <trkpt lat="48.94431" lon="2.68447">
        <ele>55.2</ele>
        <time>2020-07-01T15:02:46Z</time>
      </trkpt>
      <trkpt lat="48.94433" lon="2.68444">
        <ele>55.2</ele>
        <time>2020-07-01T15:02:47Z</time>
      </trkpt>
      <trkpt lat="48.94435" lon="2.6844">
        <ele>55.1</ele>
        <time>2020-07-01T15:02:48Z</time>
      </trkpt>
      <trkpt lat="48.94437" lon="2.68435">
        <ele>55.1</ele>
        <time>2020-07-01T15:02:49Z</time>
      </trkpt>
      <trkpt lat="48.9444" lon="2.68431">
        <ele>55</ele>
        <time>2020-07-01T15:02:50Z</time>
      </trkpt>
      <trkpt lat="48.94443" lon="2.68426">
        <ele>55</ele>
        <time>2020-07-01T15:02:51Z</time>
      </trkpt>
      <trkpt lat="48.94445" lon="2.68422">
        <ele>54.9</ele>
        <time>2020-07-01T15:02:52Z</time>
      </trkpt>
      <trkpt lat="48.94447" lon="2.68419">
        <ele>54.9</ele>
        <time>2020-07-01T15:02:53Z</time>
      </trkpt>
      <trkpt lat="48.9445" lon="2.68416">
        <ele>54.8</ele>
        <time>2020-07-01T15:02:54Z</time>
      </trkpt>
      <trkpt lat="48.94453" lon="2.68411">
        <ele>54.8</ele>
        <time>2020-07-01T15:02:55Z</time>
      </trkpt>
      <trkpt lat="48.94456" lon="2.68408">
        <ele>54.7</ele>
        <time>2020-07-01T15:02:56Z</time>
      </trkpt>
      <trkpt lat="48.94459" lon="2.68405">
        <ele>54.7</ele>
        <time>2020-07-01T15:02:57Z</time>
      </trkpt>
      <trkpt lat="48.9446" lon="2.68404">
        <ele>54.6</ele>
        <time>2020-07-01T15:02:58Z</time>
      </trkpt>
      <trkpt lat="48.94462" lon="2.68401">
        <ele>54.6</ele>
        <time>2020-07-01T15:02:59Z</time>
      </trkpt>
      <trkpt lat="48.94463" lon="2.684">
        <ele>54.6</ele>
        <time>2020-07-01T15:03:00Z</time>
      </trkpt>
      <trkpt lat="48.94465" lon="2.68402">
        <ele>54.6</ele>
        <time>2020-07-01T15:03:01Z</time>
      </trkpt>
      <trkpt lat="48.94466" lon="2.68404">
        <ele>54.6</ele>
        <time>2020-07-01T15:03:02Z</time>
      </trkpt>
      <trkpt lat="48.94469" lon="2.68407">
        <ele>54.5</ele>
        <time>2020-07-01T15:03:03Z</time>
      </trkpt>
      <trkpt lat="48.94469" lon="2.68408">
        <ele>54.5</ele>
        <time>2020-07-01T15:03:04Z</time>
      </trkpt>
      <trkpt lat="48.94471" lon="2.68408">
        <ele>54.5</ele>
        <time>2020-07-01T15:03:05Z</time>
      </trkpt>
      <trkpt lat="48.94473" lon="2.68408">
        <ele>54.5</ele>
        <time>2020-07-01T15:03:06Z</time>
      </trkpt>
      <trkpt lat="48.94474" lon="2.68408">
        <ele>54.5</ele>
        <time>2020-07-01T15:03:07Z</time>
      </trkpt>
      <trkpt lat="48.94474" lon="2.68408">
        <ele>54.5</ele>
        <time>2020-07-01T15:03:08Z</time>
      </trkpt>
      <trkpt lat="48.94474" lon="2.68409">
        <ele>54.5</ele>
        <time>2020-07-01T15:03:09Z</time>
      </trkpt>
      <trkpt lat="48.94474" lon="2.68408">
        <ele>54.5</ele>
        <time>2020-07-01T15:03:10Z</time>
      </trkpt>
      <trkpt lat="48.94474" lon="2.68407">
        <ele>54.5</ele>
        <time>2020-07-01T15:03:11Z</time>
      </trkpt>
      <trkpt lat="48.94473" lon="2.68403">
        <ele>54.4</ele>
        <time>2020-07-01T15:03:12Z</time>
      </trkpt>
      <trkpt lat="48.94472" lon="2.68398">
        <ele>54.4</ele>
        <time>2020-07-01T15:03:13Z</time>
      </trkpt>
      <trkpt lat="48.94472" lon="2.68397">
        <ele>54.4</ele>
        <time>2020-07-01T15:03:14Z</time>
      </trkpt>
      <trkpt lat="48.94472" lon="2.68396">
        <ele>54.4</ele>
        <time>2020-07-01T15:03:15Z</time>
      </trkpt>
      <trkpt lat="48.94473" lon="2.68398">
        <ele>54.4</ele>
        <time>2020-07-01T15:03:16Z</time>
      </trkpt>
      <trkpt lat="48.94472" lon="2.68395">
        <ele>54.3</ele>
        <time>2020-07-01T15:03:17Z</time>
      </trkpt>
      <trkpt lat="48.9448" lon="2.68389">
        <ele>54.3</ele>
        <time>2020-07-01T15:03:26Z</time>
      </trkpt>
      <trkpt lat="48.94483" lon="2.68393">
        <ele>54.2</ele>
        <time>2020-07-01T15:03:27Z</time>
      </trkpt>
      <trkpt lat="48.94486" lon="2.68398">
        <ele>54.2</ele>
        <time>2020-07-01T15:03:28Z</time>
      </trkpt>
      <trkpt lat="48.9449" lon="2.68402">
        <ele>54.1</ele>
        <time>2020-07-01T15:03:29Z</time>
      </trkpt>
      <trkpt lat="48.94495" lon="2.68405">
        <ele>54.1</ele>
        <time>2020-07-01T15:03:30Z</time>
      </trkpt>
      <trkpt lat="48.94499" lon="2.68405">
        <ele>54.1</ele>
        <time>2020-07-01T15:03:31Z</time>
      </trkpt>
      <trkpt lat="48.94503" lon="2.68404">
        <ele>54.2</ele>
        <time>2020-07-01T15:03:32Z</time>
      </trkpt>
      <trkpt lat="48.94506" lon="2.68403">
        <ele>54.2</ele>
        <time>2020-07-01T15:03:33Z</time>
      </trkpt>
      <trkpt lat="48.9451" lon="2.68402">
        <ele>54.3</ele>
        <time>2020-07-01T15:03:34Z</time>
      </trkpt>
      <trkpt lat="48.94514" lon="2.68401">
        <ele>54.4</ele>
        <time>2020-07-01T15:03:35Z</time>
      </trkpt>
      <trkpt lat="48.94519" lon="2.68401">
        <ele>54.6</ele>
        <time>2020-07-01T15:03:36Z</time>
      </trkpt>
      <trkpt lat="48.94522" lon="2.68399">
        <ele>54.7</ele>
        <time>2020-07-01T15:03:37Z</time>
      </trkpt>
      <trkpt lat="48.94526" lon="2.68397">
        <ele>54.8</ele>
        <time>2020-07-01T15:03:38Z</time>
      </trkpt>
      <trkpt lat="48.9453" lon="2.68396">
        <ele>54.9</ele>
        <time>2020-07-01T15:03:39Z</time>
      </trkpt>
      <trkpt lat="48.94533" lon="2.68392">
        <ele>55</ele>
        <time>2020-07-01T15:03:40Z</time>
      </trkpt>
      <trkpt lat="48.94535" lon="2.68387">
        <ele>55.1</ele>
        <time>2020-07-01T15:03:41Z</time>
      </trkpt>
      <trkpt lat="48.94539" lon="2.68385">
        <ele>55.3</ele>
        <time>2020-07-01T15:03:42Z</time>
      </trkpt>
      <trkpt lat="48.94543" lon="2.68383">
        <ele>55.4</ele>
        <time>2020-07-01T15:03:43Z</time>
      </trkpt>
      <trkpt lat="48.94545" lon="2.6838">
        <ele>55.5</ele>
        <time>2020-07-01T15:03:44Z</time>
      </trkpt>
      <trkpt lat="48.94548" lon="2.68377">
        <ele>55.6</ele>
        <time>2020-07-01T15:03:45Z</time>
      </trkpt>
      <trkpt lat="48.94551" lon="2.68375">
        <ele>55.7</ele>
        <time>2020-07-01T15:03:46Z</time>
      </trkpt>
      <trkpt lat="48.94554" lon="2.68372">
        <ele>55.8</ele>
        <time>2020-07-01T15:03:47Z</time>
      </trkpt>
      <trkpt lat="48.94558" lon="2.6837">
        <ele>56</ele>
        <time>2020-07-01T15:03:48Z</time>
      </trkpt>
      <trkpt lat="48.94561" lon="2.68368">
        <ele>56.1</ele>
        <time>2020-07-01T15:03:49Z</time>
      </trkpt>
      <trkpt lat="48.94564" lon="2.68366">
        <ele>56.2</ele>
        <time>2020-07-01T15:03:50Z</time>
      </trkpt>
      <trkpt lat="48.94567" lon="2.68363">
        <ele>56.3</ele>
        <time>2020-07-01T15:03:51Z</time>
      </trkpt>
      <trkpt lat="48.94571" lon="2.68359">
        <ele>56.4</ele>
        <time>2020-07-01T15:03:52Z</time>
      </trkpt>
      <trkpt lat="48.94574" lon="2.68355">
        <ele>56.6</ele>
        <time>2020-07-01T15:03:53Z</time>
      </trkpt>
      <trkpt lat="48.94577" lon="2.68352">
        <ele>56.7</ele>
        <time>2020-07-01T15:03:54Z</time>
      </trkpt>
      <trkpt lat="48.9458" lon="2.68348">
        <ele>56.8</ele>
        <time>2020-07-01T15:03:55Z</time>
      </trkpt>
      <trkpt lat="48.94584" lon="2.68345">
        <ele>57</ele>
        <time>2020-07-01T15:03:56Z</time>
      </trkpt>
      <trkpt lat="48.94587" lon="2.68342">
        <ele>57.1</ele>
        <time>2020-07-01T15:03:57Z</time>
      </trkpt>
      <trkpt lat="48.94591" lon="2.6834">
        <ele>57.2</ele>
        <time>2020-07-01T15:03:58Z</time>
      </trkpt>
      <trkpt lat="48.94595" lon="2.6834">
        <ele>57.4</ele>
        <time>2020-07-01T15:03:59Z</time>
      </trkpt>
      <trkpt lat="48.94599" lon="2.68339">
        <ele>57.5</ele>
        <time>2020-07-01T15:04:00Z</time>
      </trkpt>
      <trkpt lat="48.94602" lon="2.68337">
        <ele>57.6</ele>
        <time>2020-07-01T15:04:01Z</time>
      </trkpt>
      <trkpt lat="48.94605" lon="2.68335">
        <ele>57.8</ele>
        <time>2020-07-01T15:04:02Z</time>
      </trkpt>
      <trkpt lat="48.94609" lon="2.68333">
        <ele>57.9</ele>
        <time>2020-07-01T15:04:03Z</time>
      </trkpt>
      <trkpt lat="48.94612" lon="2.68331">
        <ele>58</ele>
        <time>2020-07-01T15:04:04Z</time>
      </trkpt>
      <trkpt lat="48.94615" lon="2.68327">
        <ele>58.2</ele>
        <time>2020-07-01T15:04:05Z</time>
      </trkpt>
      <trkpt lat="48.94618" lon="2.68324">
        <ele>58.3</ele>
        <time>2020-07-01T15:04:06Z</time>
      </trkpt>
      <trkpt lat="48.94621" lon="2.68321">
        <ele>58.4</ele>
        <time>2020-07-01T15:04:07Z</time>
      </trkpt>
      <trkpt lat="48.94623" lon="2.68317">
        <ele>58.6</ele>
        <time>2020-07-01T15:04:08Z</time>
      </trkpt>
      <trkpt lat="48.94627" lon="2.68317">
        <ele>58.7</ele>
        <time>2020-07-01T15:04:09Z</time>
      </trkpt>
      <trkpt lat="48.9463" lon="2.68316">
        <ele>58.8</ele>
        <time>2020-07-01T15:04:10Z</time>
      </trkpt>
      <trkpt lat="48.94633" lon="2.68313">
        <ele>58.9</ele>
        <time>2020-07-01T15:04:11Z</time>
      </trkpt>
      <trkpt lat="48.94634" lon="2.68309">
        <ele>59.1</ele>
        <time>2020-07-01T15:04:12Z</time>
      </trkpt>
      <trkpt lat="48.94636" lon="2.68304">
        <ele>59.2</ele>
        <time>2020-07-01T15:04:13Z</time>
      </trkpt>
      <trkpt lat="48.94638" lon="2.68301">
        <ele>59.3</ele>
        <time>2020-07-01T15:04:14Z</time>
      </trkpt>
      <trkpt lat="48.94641" lon="2.68298">
        <ele>59.4</ele>
        <time>2020-07-01T15:04:15Z</time>
      </trkpt>
      <trkpt lat="48.94642" lon="2.68294">
        <ele>59.5</ele>
        <time>2020-07-01T15:04:16Z</time>
      </trkpt>
      <trkpt lat="48.94644" lon="2.6829">
        <ele>59.5</ele>
        <time>2020-07-01T15:04:17Z</time>
      </trkpt>
      <trkpt lat="48.94646" lon="2.68286">
        <ele>59.6</ele>
        <time>2020-07-01T15:04:18Z</time>
      </trkpt>
      <trkpt lat="48.94648" lon="2.68283">
        <ele>59.6</ele>
        <time>2020-07-01T15:04:19Z</time>
      </trkpt>
      <trkpt lat="48.94652" lon="2.68282">
        <ele>59.6</ele>
        <time>2020-07-01T15:04:20Z</time>
      </trkpt>
      <trkpt lat="48.94655" lon="2.6828">
        <ele>59.7</ele>
        <time>2020-07-01T15:04:21Z</time>
      </trkpt>
      <trkpt lat="48.94657" lon="2.68279">
        <ele>59.7</ele>
        <time>2020-07-01T15:04:22Z</time>
      </trkpt>
      <trkpt lat="48.94659" lon="2.68276">
        <ele>59.7</ele>
        <time>2020-07-01T15:04:23Z</time>
      </trkpt>
      <trkpt lat="48.94659" lon="2.68275">
        <ele>59.7</ele>
        <time>2020-07-01T15:04:24Z</time>
      </trkpt>
      <trkpt lat="48.94661" lon="2.68276">
        <ele>59.7</ele>
        <time>2020-07-01T15:04:25Z</time>
      </trkpt>
      <trkpt lat="48.94662" lon="2.68277">
        <ele>59.7</ele>
        <time>2020-07-01T15:04:26Z</time>
      </trkpt>
      <trkpt lat="48.94663" lon="2.68279">
        <ele>59.8</ele>
        <time>2020-07-01T15:04:27Z</time>
      </trkpt>
      <trkpt lat="48.94664" lon="2.6828">
        <ele>59.8</ele>
        <time>2020-07-01T15:04:28Z</time>
      </trkpt>
      <trkpt lat="48.94667" lon="2.68283">
        <ele>59.8</ele>
        <time>2020-07-01T15:04:29Z</time>
      </trkpt>
      <trkpt lat="48.94668" lon="2.68283">
        <ele>59.8</ele>
        <time>2020-07-01T15:04:30Z</time>
      </trkpt>
      <trkpt lat="48.94671" lon="2.68285">
        <ele>59.8</ele>
        <time>2020-07-01T15:04:31Z</time>
      </trkpt>
      <trkpt lat="48.94672" lon="2.68286">
        <ele>59.8</ele>
        <time>2020-07-01T15:04:32Z</time>
      </trkpt>
      <trkpt lat="48.94673" lon="2.68284">
        <ele>59.9</ele>
        <time>2020-07-01T15:04:33Z</time>
      </trkpt>
      <trkpt lat="48.94675" lon="2.68283">
        <ele>59.9</ele>
        <time>2020-07-01T15:04:34Z</time>
      </trkpt>
      <trkpt lat="48.94674" lon="2.68278">
        <ele>59.9</ele>
        <time>2020-07-01T15:04:35Z</time>
      </trkpt>
      <trkpt lat="48.94674" lon="2.68277">
        <ele>59.9</ele>
        <time>2020-07-01T15:04:36Z</time>
      </trkpt>
      <trkpt lat="48.94674" lon="2.68272">
        <ele>59.9</ele>
        <time>2020-07-01T15:04:37Z</time>
      </trkpt>
      <trkpt lat="48.94674" lon="2.68268">
        <ele>59.9</ele>
        <time>2020-07-01T15:04:38Z</time>
      </trkpt>
      <trkpt lat="48.94676" lon="2.68264">
        <ele>59.9</ele>
        <time>2020-07-01T15:04:39Z</time>
      </trkpt>
      <trkpt lat="48.94677" lon="2.68259">
        <ele>59.9</ele>
        <time>2020-07-01T15:04:40Z</time>
      </trkpt>
      <trkpt lat="48.94679" lon="2.68254">
        <ele>59.9</ele>
        <time>2020-07-01T15:04:41Z</time>
      </trkpt>
      <trkpt lat="48.94681" lon="2.6825">
        <ele>59.9</ele>
        <time>2020-07-01T15:04:42Z</time>
      </trkpt>
      <trkpt lat="48.94683" lon="2.68243">
        <ele>59.7</ele>
        <time>2020-07-01T15:04:43Z</time>
      </trkpt>
      <trkpt lat="48.94686" lon="2.68238">
        <ele>59.6</ele>
        <time>2020-07-01T15:04:44Z</time>
      </trkpt>
      <trkpt lat="48.94689" lon="2.68233">
        <ele>59.5</ele>
        <time>2020-07-01T15:04:45Z</time>
      </trkpt>
      <trkpt lat="48.94692" lon="2.68228">
        <ele>59.3</ele>
        <time>2020-07-01T15:04:46Z</time>
      </trkpt>
      <trkpt lat="48.94694" lon="2.68224">
        <ele>59.2</ele>
        <time>2020-07-01T15:04:47Z</time>
      </trkpt>
      <trkpt lat="48.94696" lon="2.68219">
        <ele>59</ele>
        <time>2020-07-01T15:04:48Z</time>
      </trkpt>
      <trkpt lat="48.947" lon="2.68214">
        <ele>58.8</ele>
        <time>2020-07-01T15:04:49Z</time>
      </trkpt>
      <trkpt lat="48.94703" lon="2.68209">
        <ele>58.6</ele>
        <time>2020-07-01T15:04:50Z</time>
      </trkpt>
      <trkpt lat="48.94707" lon="2.68205">
        <ele>58.4</ele>
        <time>2020-07-01T15:04:51Z</time>
      </trkpt>
      <trkpt lat="48.94711" lon="2.682">
        <ele>58.1</ele>
        <time>2020-07-01T15:04:52Z</time>
      </trkpt>
      <trkpt lat="48.94714" lon="2.68194">
        <ele>57.9</ele>
        <time>2020-07-01T15:04:53Z</time>
      </trkpt>
      <trkpt lat="48.94719" lon="2.68189">
        <ele>57.6</ele>
        <time>2020-07-01T15:04:54Z</time>
      </trkpt>
      <trkpt lat="48.94723" lon="2.68184">
        <ele>57.3</ele>
        <time>2020-07-01T15:04:55Z</time>
      </trkpt>
      <trkpt lat="48.94727" lon="2.68177">
        <ele>57</ele>
        <time>2020-07-01T15:04:56Z</time>
      </trkpt>
      <trkpt lat="48.94731" lon="2.6817">
        <ele>56.7</ele>
        <time>2020-07-01T15:04:57Z</time>
      </trkpt>
      <trkpt lat="48.94736" lon="2.68162">
        <ele>56.4</ele>
        <time>2020-07-01T15:04:58Z</time>
      </trkpt>
      <trkpt lat="48.9474" lon="2.68154">
        <ele>56.1</ele>
        <time>2020-07-01T15:04:59Z</time>
      </trkpt>
      <trkpt lat="48.94744" lon="2.68146">
        <ele>55.8</ele>
        <time>2020-07-01T15:05:00Z</time>
      </trkpt>
      <trkpt lat="48.94748" lon="2.68137">
        <ele>55.6</ele>
        <time>2020-07-01T15:05:01Z</time>
      </trkpt>
      <trkpt lat="48.94749" lon="2.68129">
        <ele>55.4</ele>
        <time>2020-07-01T15:05:02Z</time>
      </trkpt>
      <trkpt lat="48.94752" lon="2.68121">
        <ele>55.3</ele>
        <time>2020-07-01T15:05:03Z</time>
      </trkpt>
      <trkpt lat="48.94754" lon="2.68112">
        <ele>55.3</ele>
        <time>2020-07-01T15:05:04Z</time>
      </trkpt>
      <trkpt lat="48.94756" lon="2.68104">
        <ele>55.3</ele>
        <time>2020-07-01T15:05:05Z</time>
      </trkpt>
      <trkpt lat="48.94759" lon="2.68097">
        <ele>55.3</ele>
        <time>2020-07-01T15:05:06Z</time>
      </trkpt>
      <trkpt lat="48.94762" lon="2.68091">
        <ele>55.3</ele>
        <time>2020-07-01T15:05:07Z</time>
      </trkpt>
      <trkpt lat="48.94764" lon="2.68084">
        <ele>55.3</ele>
        <time>2020-07-01T15:05:08Z</time>
      </trkpt>
      <trkpt lat="48.94766" lon="2.68078">
        <ele>55.4</ele>
        <time>2020-07-01T15:05:09Z</time>
      </trkpt>
      <trkpt lat="48.94768" lon="2.68071">
        <ele>55.4</ele>
        <time>2020-07-01T15:05:10Z</time>
      </trkpt>
      <trkpt lat="48.94771" lon="2.68063">
        <ele>55.4</ele>
        <time>2020-07-01T15:05:11Z</time>
      </trkpt>
      <trkpt lat="48.94773" lon="2.68056">
        <ele>55.6</ele>
        <time>2020-07-01T15:05:12Z</time>
      </trkpt>
      <trkpt lat="48.94776" lon="2.68049">
        <ele>55.7</ele>
        <time>2020-07-01T15:05:13Z</time>
      </trkpt>
      <trkpt lat="48.94778" lon="2.68041">
        <ele>55.9</ele>
        <time>2020-07-01T15:05:14Z</time>
      </trkpt>
      <trkpt lat="48.9478" lon="2.68034">
        <ele>56</ele>
        <time>2020-07-01T15:05:15Z</time>
      </trkpt>
      <trkpt lat="48.94782" lon="2.68027">
        <ele>56.2</ele>
        <time>2020-07-01T15:05:16Z</time>
      </trkpt>
      <trkpt lat="48.94785" lon="2.68021">
        <ele>56.3</ele>
        <time>2020-07-01T15:05:17Z</time>
      </trkpt>
      <trkpt lat="48.94788" lon="2.68016">
        <ele>56.4</ele>
        <time>2020-07-01T15:05:18Z</time>
      </trkpt>
      <trkpt lat="48.94791" lon="2.6801">
        <ele>56.5</ele>
        <time>2020-07-01T15:05:19Z</time>
      </trkpt>
      <trkpt lat="48.94794" lon="2.68004">
        <ele>56.6</ele>
        <time>2020-07-01T15:05:20Z</time>
      </trkpt>
      <trkpt lat="48.94797" lon="2.67998">
        <ele>56.7</ele>
        <time>2020-07-01T15:05:21Z</time>
      </trkpt>
      <trkpt lat="48.94801" lon="2.67992">
        <ele>56.8</ele>
        <time>2020-07-01T15:05:22Z</time>
      </trkpt>
      <trkpt lat="48.94803" lon="2.67985">
        <ele>56.9</ele>
        <time>2020-07-01T15:05:23Z</time>
      </trkpt>
      <trkpt lat="48.94806" lon="2.67978">
        <ele>57</ele>
        <time>2020-07-01T15:05:24Z</time>
      </trkpt>
      <trkpt lat="48.9481" lon="2.67972">
        <ele>57</ele>
        <time>2020-07-01T15:05:25Z</time>
      </trkpt>
      <trkpt lat="48.94813" lon="2.67965">
        <ele>56.9</ele>
        <time>2020-07-01T15:05:26Z</time>
      </trkpt>
      <trkpt lat="48.94816" lon="2.67958">
        <ele>56.9</ele>
        <time>2020-07-01T15:05:27Z</time>
      </trkpt>
      <trkpt lat="48.9482" lon="2.67951">
        <ele>57</ele>
        <time>2020-07-01T15:05:28Z</time>
      </trkpt>
      <trkpt lat="48.94823" lon="2.67943">
        <ele>57</ele>
        <time>2020-07-01T15:05:29Z</time>
      </trkpt>
      <trkpt lat="48.94827" lon="2.67935">
        <ele>57</ele>
        <time>2020-07-01T15:05:30Z</time>
      </trkpt>
      <trkpt lat="48.9483" lon="2.67928">
        <ele>57</ele>
        <time>2020-07-01T15:05:31Z</time>
      </trkpt>
      <trkpt lat="48.94834" lon="2.67921">
        <ele>57</ele>
        <time>2020-07-01T15:05:32Z</time>
      </trkpt>
      <trkpt lat="48.94838" lon="2.67913">
        <ele>57.1</ele>
        <time>2020-07-01T15:05:33Z</time>
      </trkpt>
      <trkpt lat="48.94842" lon="2.67904">
        <ele>57.2</ele>
        <time>2020-07-01T15:05:34Z</time>
      </trkpt>
      <trkpt lat="48.94847" lon="2.67895">
        <ele>57.3</ele>
        <time>2020-07-01T15:05:35Z</time>
      </trkpt>
      <trkpt lat="48.94851" lon="2.67887">
        <ele>57.4</ele>
        <time>2020-07-01T15:05:36Z</time>
      </trkpt>
      <trkpt lat="48.94855" lon="2.67879">
        <ele>57.5</ele>
        <time>2020-07-01T15:05:37Z</time>
      </trkpt>
      <trkpt lat="48.94861" lon="2.67871">
        <ele>57.6</ele>
        <time>2020-07-01T15:05:38Z</time>
      </trkpt>
      <trkpt lat="48.94866" lon="2.67863">
        <ele>57.7</ele>
        <time>2020-07-01T15:05:39Z</time>
      </trkpt>
      <trkpt lat="48.94871" lon="2.67855">
        <ele>57.8</ele>
        <time>2020-07-01T15:05:40Z</time>
      </trkpt>
      <trkpt lat="48.94875" lon="2.6785">
        <ele>57.8</ele>
        <time>2020-07-01T15:05:41Z</time>
      </trkpt>
      <trkpt lat="48.94878" lon="2.67844">
        <ele>57.9</ele>
        <time>2020-07-01T15:05:42Z</time>
      </trkpt>
      <trkpt lat="48.94881" lon="2.67837">
        <ele>57.9</ele>
        <time>2020-07-01T15:05:43Z</time>
      </trkpt>
      <trkpt lat="48.94884" lon="2.67831">
        <ele>57.9</ele>
        <time>2020-07-01T15:05:44Z</time>
      </trkpt>
      <trkpt lat="48.94886" lon="2.67825">
        <ele>58</ele>
        <time>2020-07-01T15:05:45Z</time>
      </trkpt>
      <trkpt lat="48.9489" lon="2.67818">
        <ele>58</ele>
        <time>2020-07-01T15:05:46Z</time>
      </trkpt>
      <trkpt lat="48.94893" lon="2.67811">
        <ele>58.1</ele>
        <time>2020-07-01T15:05:47Z</time>
      </trkpt>
      <trkpt lat="48.94896" lon="2.67805">
        <ele>58.1</ele>
        <time>2020-07-01T15:05:48Z</time>
      </trkpt>
      <trkpt lat="48.94899" lon="2.67798">
        <ele>58.2</ele>
        <time>2020-07-01T15:05:49Z</time>
      </trkpt>
      <trkpt lat="48.94902" lon="2.67792">
        <ele>58.2</ele>
        <time>2020-07-01T15:05:50Z</time>
      </trkpt>
      <trkpt lat="48.94905" lon="2.67787">
        <ele>58.3</ele>
        <time>2020-07-01T15:05:51Z</time>
      </trkpt>
      <trkpt lat="48.94908" lon="2.67781">
        <ele>58.3</ele>
        <time>2020-07-01T15:05:52Z</time>
      </trkpt>
      <trkpt lat="48.94911" lon="2.67776">
        <ele>58.3</ele>
        <time>2020-07-01T15:05:53Z</time>
      </trkpt>
      <trkpt lat="48.94914" lon="2.6777">
        <ele>58.3</ele>
        <time>2020-07-01T15:05:54Z</time>
      </trkpt>
      <trkpt lat="48.94917" lon="2.67765">
        <ele>58.2</ele>
        <time>2020-07-01T15:05:55Z</time>
      </trkpt>
      <trkpt lat="48.9492" lon="2.67759">
        <ele>58.2</ele>
        <time>2020-07-01T15:05:56Z</time>
      </trkpt>
      <trkpt lat="48.94923" lon="2.67754">
        <ele>58.2</ele>
        <time>2020-07-01T15:05:57Z</time>
      </trkpt>
      <trkpt lat="48.94926" lon="2.67748">
        <ele>58.1</ele>
        <time>2020-07-01T15:05:58Z</time>
      </trkpt>
      <trkpt lat="48.9493" lon="2.67743">
        <ele>58.1</ele>
        <time>2020-07-01T15:05:59Z</time>
      </trkpt>
      <trkpt lat="48.94933" lon="2.67737">
        <ele>58.1</ele>
        <time>2020-07-01T15:06:00Z</time>
      </trkpt>
      <trkpt lat="48.94936" lon="2.6773">
        <ele>58</ele>
        <time>2020-07-01T15:06:01Z</time>
      </trkpt>
      <trkpt lat="48.94939" lon="2.67724">
        <ele>58</ele>
        <time>2020-07-01T15:06:02Z</time>
      </trkpt>
      <trkpt lat="48.94942" lon="2.67717">
        <ele>58</ele>
        <time>2020-07-01T15:06:03Z</time>
      </trkpt>
      <trkpt lat="48.94945" lon="2.6771">
        <ele>57.9</ele>
        <time>2020-07-01T15:06:04Z</time>
      </trkpt>
      <trkpt lat="48.9495" lon="2.67704">
        <ele>57.9</ele>
        <time>2020-07-01T15:06:05Z</time>
      </trkpt>
      <trkpt lat="48.94955" lon="2.67697">
        <ele>58</ele>
        <time>2020-07-01T15:06:06Z</time>
      </trkpt>
      <trkpt lat="48.94956" lon="2.6769">
        <ele>58</ele>
        <time>2020-07-01T15:06:07Z</time>
      </trkpt>
      <trkpt lat="48.94959" lon="2.67683">
        <ele>58.1</ele>
        <time>2020-07-01T15:06:08Z</time>
      </trkpt>
      <trkpt lat="48.94962" lon="2.67677">
        <ele>59.1</ele>
        <time>2020-07-01T15:06:09Z</time>
      </trkpt>
      <trkpt lat="48.94966" lon="2.6767">
        <ele>58.8</ele>
        <time>2020-07-01T15:06:10Z</time>
      </trkpt>
      <trkpt lat="48.94969" lon="2.67663">
        <ele>58.5</ele>
        <time>2020-07-01T15:06:11Z</time>
      </trkpt>
      <trkpt lat="48.9497" lon="2.67656">
        <ele>58.3</ele>
        <time>2020-07-01T15:06:12Z</time>
      </trkpt>
      <trkpt lat="48.94972" lon="2.67648">
        <ele>58</ele>
        <time>2020-07-01T15:06:13Z</time>
      </trkpt>
      <trkpt lat="48.94973" lon="2.6764">
        <ele>57.7</ele>
        <time>2020-07-01T15:06:14Z</time>
      </trkpt>
      <trkpt lat="48.94972" lon="2.67632">
        <ele>57.6</ele>
        <time>2020-07-01T15:06:15Z</time>
      </trkpt>
      <trkpt lat="48.94971" lon="2.67624">
        <ele>57.5</ele>
        <time>2020-07-01T15:06:16Z</time>
      </trkpt>
      <trkpt lat="48.94971" lon="2.67615">
        <ele>57.4</ele>
        <time>2020-07-01T15:06:17Z</time>
      </trkpt>
      <trkpt lat="48.94972" lon="2.67606">
        <ele>57.3</ele>
        <time>2020-07-01T15:06:18Z</time>
      </trkpt>
      <trkpt lat="48.94974" lon="2.67598">
        <ele>57.3</ele>
        <time>2020-07-01T15:06:19Z</time>
      </trkpt>
      <trkpt lat="48.94975" lon="2.6759">
        <ele>57.3</ele>
        <time>2020-07-01T15:06:20Z</time>
      </trkpt>
      <trkpt lat="48.94977" lon="2.67582">
        <ele>57.3</ele>
        <time>2020-07-01T15:06:21Z</time>
      </trkpt>
      <trkpt lat="48.94978" lon="2.67575">
        <ele>57.3</ele>
        <time>2020-07-01T15:06:22Z</time>
      </trkpt>
      <trkpt lat="48.94979" lon="2.67568">
        <ele>57.3</ele>
        <time>2020-07-01T15:06:23Z</time>
      </trkpt>
      <trkpt lat="48.94981" lon="2.67561">
        <ele>57.3</ele>
        <time>2020-07-01T15:06:24Z</time>
      </trkpt>
      <trkpt lat="48.94983" lon="2.67554">
        <ele>57.3</ele>
        <time>2020-07-01T15:06:25Z</time>
      </trkpt>
      <trkpt lat="48.94985" lon="2.67547">
        <ele>57.3</ele>
        <time>2020-07-01T15:06:26Z</time>
      </trkpt>
      <trkpt lat="48.94988" lon="2.6754">
        <ele>57.3</ele>
        <time>2020-07-01T15:06:27Z</time>
      </trkpt>
      <trkpt lat="48.94991" lon="2.67534">
        <ele>57.3</ele>
        <time>2020-07-01T15:06:28Z</time>
      </trkpt>
      <trkpt lat="48.94994" lon="2.67527">
        <ele>57.4</ele>
        <time>2020-07-01T15:06:29Z</time>
      </trkpt>
      <trkpt lat="48.94996" lon="2.6752">
        <ele>57.4</ele>
        <time>2020-07-01T15:06:30Z</time>
      </trkpt>
      <trkpt lat="48.94998" lon="2.67514">
        <ele>57.4</ele>
        <time>2020-07-01T15:06:31Z</time>
      </trkpt>
      <trkpt lat="48.95001" lon="2.67507">
        <ele>57.4</ele>
        <time>2020-07-01T15:06:32Z</time>
      </trkpt>
      <trkpt lat="48.95003" lon="2.675">
        <ele>57.4</ele>
        <time>2020-07-01T15:06:33Z</time>
      </trkpt>
      <trkpt lat="48.95005" lon="2.67493">
        <ele>57.4</ele>
        <time>2020-07-01T15:06:34Z</time>
      </trkpt>
      <trkpt lat="48.95008" lon="2.67486">
        <ele>57.4</ele>
        <time>2020-07-01T15:06:35Z</time>
      </trkpt>
      <trkpt lat="48.9501" lon="2.67479">
        <ele>57.5</ele>
        <time>2020-07-01T15:06:36Z</time>
      </trkpt>
      <trkpt lat="48.95012" lon="2.67471">
        <ele>57.5</ele>
        <time>2020-07-01T15:06:37Z</time>
      </trkpt>
      <trkpt lat="48.95015" lon="2.67464">
        <ele>57.5</ele>
        <time>2020-07-01T15:06:38Z</time>
      </trkpt>
      <trkpt lat="48.95018" lon="2.67457">
        <ele>57.5</ele>
        <time>2020-07-01T15:06:39Z</time>
      </trkpt>
      <trkpt lat="48.95022" lon="2.6745">
        <ele>57.5</ele>
        <time>2020-07-01T15:06:40Z</time>
      </trkpt>
      <trkpt lat="48.95026" lon="2.67444">
        <ele>57.5</ele>
        <time>2020-07-01T15:06:41Z</time>
      </trkpt>
      <trkpt lat="48.9503" lon="2.67439">
        <ele>57.6</ele>
        <time>2020-07-01T15:06:42Z</time>
      </trkpt>
      <trkpt lat="48.95034" lon="2.67433">
        <ele>57.6</ele>
        <time>2020-07-01T15:06:43Z</time>
      </trkpt>
      <trkpt lat="48.95038" lon="2.67427">
        <ele>57.6</ele>
        <time>2020-07-01T15:06:44Z</time>
      </trkpt>
      <trkpt lat="48.95041" lon="2.67421">
        <ele>57.6</ele>
        <time>2020-07-01T15:06:45Z</time>
      </trkpt>
      <trkpt lat="48.95045" lon="2.67415">
        <ele>57.7</ele>
        <time>2020-07-01T15:06:46Z</time>
      </trkpt>
      <trkpt lat="48.95049" lon="2.6741">
        <ele>57.6</ele>
        <time>2020-07-01T15:06:47Z</time>
      </trkpt>
      <trkpt lat="48.95053" lon="2.67405">
        <ele>57.6</ele>
        <time>2020-07-01T15:06:48Z</time>
      </trkpt>
      <trkpt lat="48.95057" lon="2.67399">
        <ele>57.6</ele>
        <time>2020-07-01T15:06:49Z</time>
      </trkpt>
      <trkpt lat="48.95061" lon="2.67394">
        <ele>57.6</ele>
        <time>2020-07-01T15:06:50Z</time>
      </trkpt>
      <trkpt lat="48.95066" lon="2.67388">
        <ele>57.5</ele>
        <time>2020-07-01T15:06:51Z</time>
      </trkpt>
      <trkpt lat="48.9507" lon="2.67382">
        <ele>57.5</ele>
        <time>2020-07-01T15:06:52Z</time>
      </trkpt>
      <trkpt lat="48.95075" lon="2.67375">
        <ele>57.4</ele>
        <time>2020-07-01T15:06:53Z</time>
      </trkpt>
      <trkpt lat="48.9508" lon="2.67369">
        <ele>57.4</ele>
        <time>2020-07-01T15:06:54Z</time>
      </trkpt>
      <trkpt lat="48.95084" lon="2.67362">
        <ele>57.4</ele>
        <time>2020-07-01T15:06:55Z</time>
      </trkpt>
      <trkpt lat="48.95089" lon="2.67356">
        <ele>57.4</ele>
        <time>2020-07-01T15:06:56Z</time>
      </trkpt>
      <trkpt lat="48.95093" lon="2.6735">
        <ele>57.3</ele>
        <time>2020-07-01T15:06:57Z</time>
      </trkpt>
      <trkpt lat="48.95098" lon="2.67344">
        <ele>57.3</ele>
        <time>2020-07-01T15:06:58Z</time>
      </trkpt>
      <trkpt lat="48.95103" lon="2.67337">
        <ele>57.2</ele>
        <time>2020-07-01T15:06:59Z</time>
      </trkpt>
      <trkpt lat="48.95108" lon="2.67331">
        <ele>57.1</ele>
        <time>2020-07-01T15:07:00Z</time>
      </trkpt>
      <trkpt lat="48.95113" lon="2.67326">
        <ele>57</ele>
        <time>2020-07-01T15:07:01Z</time>
      </trkpt>
      <trkpt lat="48.95118" lon="2.67321">
        <ele>56.9</ele>
        <time>2020-07-01T15:07:02Z</time>
      </trkpt>
      <trkpt lat="48.95124" lon="2.67315">
        <ele>56.8</ele>
        <time>2020-07-01T15:07:03Z</time>
      </trkpt>
      <trkpt lat="48.95128" lon="2.6731">
        <ele>56.8</ele>
        <time>2020-07-01T15:07:04Z</time>
      </trkpt>
      <trkpt lat="48.95133" lon="2.67305">
        <ele>56.7</ele>
        <time>2020-07-01T15:07:05Z</time>
      </trkpt>
      <trkpt lat="48.95137" lon="2.673">
        <ele>56.7</ele>
        <time>2020-07-01T15:07:06Z</time>
      </trkpt>
      <trkpt lat="48.95141" lon="2.67295">
        <ele>56.6</ele>
        <time>2020-07-01T15:07:07Z</time>
      </trkpt>
      <trkpt lat="48.95144" lon="2.67289">
        <ele>56.6</ele>
        <time>2020-07-01T15:07:08Z</time>
      </trkpt>
      <trkpt lat="48.95148" lon="2.67282">
        <ele>56.6</ele>
        <time>2020-07-01T15:07:09Z</time>
      </trkpt>
      <trkpt lat="48.95152" lon="2.67274">
        <ele>56.5</ele>
        <time>2020-07-01T15:07:10Z</time>
      </trkpt>
      <trkpt lat="48.95155" lon="2.67265">
        <ele>56.4</ele>
        <time>2020-07-01T15:07:11Z</time>
      </trkpt>
      <trkpt lat="48.95159" lon="2.67257">
        <ele>56.4</ele>
        <time>2020-07-01T15:07:12Z</time>
      </trkpt>
      <trkpt lat="48.95162" lon="2.67248">
        <ele>56.3</ele>
        <time>2020-07-01T15:07:13Z</time>
      </trkpt>
      <trkpt lat="48.95166" lon="2.6724">
        <ele>56.2</ele>
        <time>2020-07-01T15:07:14Z</time>
      </trkpt>
      <trkpt lat="48.9517" lon="2.67232">
        <ele>56.2</ele>
        <time>2020-07-01T15:07:15Z</time>
      </trkpt>
      <trkpt lat="48.95174" lon="2.67223">
        <ele>56.1</ele>
        <time>2020-07-01T15:07:16Z</time>
      </trkpt>
      <trkpt lat="48.95177" lon="2.67214">
        <ele>56.1</ele>
        <time>2020-07-01T15:07:17Z</time>
      </trkpt>
      <trkpt lat="48.95181" lon="2.67206">
        <ele>56</ele>
        <time>2020-07-01T15:07:18Z</time>
      </trkpt>
      <trkpt lat="48.95186" lon="2.67198">
        <ele>56</ele>
        <time>2020-07-01T15:07:19Z</time>
      </trkpt>
      <trkpt lat="48.9519" lon="2.6719">
        <ele>56</ele>
        <time>2020-07-01T15:07:20Z</time>
      </trkpt>
      <trkpt lat="48.95194" lon="2.67182">
        <ele>56</ele>
        <time>2020-07-01T15:07:21Z</time>
      </trkpt>
      <trkpt lat="48.95199" lon="2.67174">
        <ele>56</ele>
        <time>2020-07-01T15:07:22Z</time>
      </trkpt>
      <trkpt lat="48.95204" lon="2.67168">
        <ele>56</ele>
        <time>2020-07-01T15:07:23Z</time>
      </trkpt>
      <trkpt lat="48.95209" lon="2.67161">
        <ele>56</ele>
        <time>2020-07-01T15:07:24Z</time>
      </trkpt>
      <trkpt lat="48.95213" lon="2.67154">
        <ele>56</ele>
        <time>2020-07-01T15:07:25Z</time>
      </trkpt>
      <trkpt lat="48.95218" lon="2.67147">
        <ele>56</ele>
        <time>2020-07-01T15:07:26Z</time>
      </trkpt>
      <trkpt lat="48.95223" lon="2.67139">
        <ele>56</ele>
        <time>2020-07-01T15:07:27Z</time>
      </trkpt>
      <trkpt lat="48.95228" lon="2.67132">
        <ele>55.9</ele>
        <time>2020-07-01T15:07:28Z</time>
      </trkpt>
      <trkpt lat="48.95233" lon="2.67124">
        <ele>55.9</ele>
        <time>2020-07-01T15:07:29Z</time>
      </trkpt>
      <trkpt lat="48.95237" lon="2.67116">
        <ele>55.9</ele>
        <time>2020-07-01T15:07:30Z</time>
      </trkpt>
      <trkpt lat="48.95243" lon="2.67109">
        <ele>55.9</ele>
        <time>2020-07-01T15:07:31Z</time>
      </trkpt>
      <trkpt lat="48.95248" lon="2.67101">
        <ele>55.9</ele>
        <time>2020-07-01T15:07:32Z</time>
      </trkpt>
      <trkpt lat="48.95253" lon="2.67094">
        <ele>55.8</ele>
        <time>2020-07-01T15:07:33Z</time>
      </trkpt>
      <trkpt lat="48.95259" lon="2.67087">
        <ele>55.8</ele>
        <time>2020-07-01T15:07:34Z</time>
      </trkpt>
      <trkpt lat="48.95264" lon="2.67079">
        <ele>55.7</ele>
        <time>2020-07-01T15:07:35Z</time>
      </trkpt>
      <trkpt lat="48.95269" lon="2.67073">
        <ele>55.7</ele>
        <time>2020-07-01T15:07:36Z</time>
      </trkpt>
      <trkpt lat="48.95275" lon="2.67066">
        <ele>55.7</ele>
        <time>2020-07-01T15:07:37Z</time>
      </trkpt>
      <trkpt lat="48.9528" lon="2.67059">
        <ele>55.7</ele>
        <time>2020-07-01T15:07:38Z</time>
      </trkpt>
      <trkpt lat="48.95284" lon="2.67053">
        <ele>55.7</ele>
        <time>2020-07-01T15:07:39Z</time>
      </trkpt>
      <trkpt lat="48.95289" lon="2.67046">
        <ele>55.6</ele>
        <time>2020-07-01T15:07:40Z</time>
      </trkpt>
      <trkpt lat="48.95294" lon="2.6704">
        <ele>55.5</ele>
        <time>2020-07-01T15:07:41Z</time>
      </trkpt>
      <trkpt lat="48.95299" lon="2.67034">
        <ele>55.5</ele>
        <time>2020-07-01T15:07:42Z</time>
      </trkpt>
      <trkpt lat="48.95304" lon="2.67028">
        <ele>55.5</ele>
        <time>2020-07-01T15:07:43Z</time>
      </trkpt>
      <trkpt lat="48.95309" lon="2.67021">
        <ele>55.5</ele>
        <time>2020-07-01T15:07:44Z</time>
      </trkpt>
      <trkpt lat="48.95314" lon="2.67013">
        <ele>55.5</ele>
        <time>2020-07-01T15:07:45Z</time>
      </trkpt>
      <trkpt lat="48.9532" lon="2.67006">
        <ele>55.4</ele>
        <time>2020-07-01T15:07:46Z</time>
      </trkpt>
      <trkpt lat="48.95324" lon="2.66999">
        <ele>55.4</ele>
        <time>2020-07-01T15:07:47Z</time>
      </trkpt>
      <trkpt lat="48.95329" lon="2.66993">
        <ele>55.4</ele>
        <time>2020-07-01T15:07:48Z</time>
      </trkpt>
      <trkpt lat="48.95333" lon="2.66986">
        <ele>55.4</ele>
        <time>2020-07-01T15:07:49Z</time>
      </trkpt>
      <trkpt lat="48.95338" lon="2.66979">
        <ele>55.5</ele>
        <time>2020-07-01T15:07:50Z</time>
      </trkpt>
      <trkpt lat="48.95342" lon="2.66971">
        <ele>55.5</ele>
        <time>2020-07-01T15:07:51Z</time>
      </trkpt>
      <trkpt lat="48.95346" lon="2.66965">
        <ele>55.5</ele>
        <time>2020-07-01T15:07:52Z</time>
      </trkpt>
      <trkpt lat="48.9535" lon="2.66958">
        <ele>55.5</ele>
        <time>2020-07-01T15:07:53Z</time>
      </trkpt>
      <trkpt lat="48.95354" lon="2.66952">
        <ele>55.5</ele>
        <time>2020-07-01T15:07:54Z</time>
      </trkpt>
      <trkpt lat="48.95358" lon="2.66946">
        <ele>55.5</ele>
        <time>2020-07-01T15:07:55Z</time>
      </trkpt>
      <trkpt lat="48.95361" lon="2.6694">
        <ele>55.5</ele>
        <time>2020-07-01T15:07:56Z</time>
      </trkpt>
      <trkpt lat="48.95365" lon="2.66934">
        <ele>55.5</ele>
        <time>2020-07-01T15:07:57Z</time>
      </trkpt>
      <trkpt lat="48.95368" lon="2.66926">
        <ele>55.5</ele>
        <time>2020-07-01T15:07:58Z</time>
      </trkpt>
      <trkpt lat="48.95372" lon="2.66919">
        <ele>55.5</ele>
        <time>2020-07-01T15:07:59Z</time>
      </trkpt>
      <trkpt lat="48.95375" lon="2.66911">
        <ele>55.5</ele>
        <time>2020-07-01T15:08:00Z</time>
      </trkpt>
      <trkpt lat="48.95378" lon="2.66903">
        <ele>55.5</ele>
        <time>2020-07-01T15:08:01Z</time>
      </trkpt>
      <trkpt lat="48.95381" lon="2.66895">
        <ele>55.5</ele>
        <time>2020-07-01T15:08:02Z</time>
      </trkpt>
      <trkpt lat="48.95384" lon="2.66887">
        <ele>55.5</ele>
        <time>2020-07-01T15:08:03Z</time>
      </trkpt>
      <trkpt lat="48.95387" lon="2.66879">
        <ele>55.5</ele>
        <time>2020-07-01T15:08:04Z</time>
      </trkpt>
      <trkpt lat="48.95389" lon="2.6687">
        <ele>55.5</ele>
        <time>2020-07-01T15:08:05Z</time>
      </trkpt>
      <trkpt lat="48.95391" lon="2.66862">
        <ele>55.5</ele>
        <time>2020-07-01T15:08:06Z</time>
      </trkpt>
      <trkpt lat="48.95393" lon="2.66854">
        <ele>55.5</ele>
        <time>2020-07-01T15:08:07Z</time>
      </trkpt>
      <trkpt lat="48.95395" lon="2.66846">
        <ele>55.5</ele>
        <time>2020-07-01T15:08:08Z</time>
      </trkpt>
      <trkpt lat="48.95397" lon="2.66839">
        <ele>55.5</ele>
        <time>2020-07-01T15:08:09Z</time>
      </trkpt>
      <trkpt lat="48.95398" lon="2.66831">
        <ele>55.5</ele>
        <time>2020-07-01T15:08:10Z</time>
      </trkpt>
      <trkpt lat="48.954" lon="2.66823">
        <ele>55.4</ele>
        <time>2020-07-01T15:08:11Z</time>
      </trkpt>
      <trkpt lat="48.95401" lon="2.66815">
        <ele>55.4</ele>
        <time>2020-07-01T15:08:12Z</time>
      </trkpt>
      <trkpt lat="48.95402" lon="2.66808">
        <ele>55.5</ele>
        <time>2020-07-01T15:08:13Z</time>
      </trkpt>
      <trkpt lat="48.95403" lon="2.66802">
        <ele>55.5</ele>
        <time>2020-07-01T15:08:14Z</time>
      </trkpt>
      <trkpt lat="48.95405" lon="2.66798">
        <ele>55.5</ele>
        <time>2020-07-01T15:08:15Z</time>
      </trkpt>
      <trkpt lat="48.95407" lon="2.66793">
        <ele>55.5</ele>
        <time>2020-07-01T15:08:16Z</time>
      </trkpt>
      <trkpt lat="48.95409" lon="2.66788">
        <ele>55.5</ele>
        <time>2020-07-01T15:08:17Z</time>
      </trkpt>
      <trkpt lat="48.9541" lon="2.66783">
        <ele>55.5</ele>
        <time>2020-07-01T15:08:18Z</time>
      </trkpt>
      <trkpt lat="48.95412" lon="2.66776">
        <ele>55.5</ele>
        <time>2020-07-01T15:08:19Z</time>
      </trkpt>
      <trkpt lat="48.95413" lon="2.6677">
        <ele>55.5</ele>
        <time>2020-07-01T15:08:20Z</time>
      </trkpt>
      <trkpt lat="48.95415" lon="2.66763">
        <ele>55.5</ele>
        <time>2020-07-01T15:08:21Z</time>
      </trkpt>
      <trkpt lat="48.95418" lon="2.66757">
        <ele>55.6</ele>
        <time>2020-07-01T15:08:22Z</time>
      </trkpt>
      <trkpt lat="48.9542" lon="2.6675">
        <ele>55.6</ele>
        <time>2020-07-01T15:08:23Z</time>
      </trkpt>
      <trkpt lat="48.95422" lon="2.66742">
        <ele>55.6</ele>
        <time>2020-07-01T15:08:24Z</time>
      </trkpt>
      <trkpt lat="48.95424" lon="2.66735">
        <ele>55.7</ele>
        <time>2020-07-01T15:08:25Z</time>
      </trkpt>
      <trkpt lat="48.95426" lon="2.66727">
        <ele>55.7</ele>
        <time>2020-07-01T15:08:26Z</time>
      </trkpt>
      <trkpt lat="48.95428" lon="2.66719">
        <ele>55.8</ele>
        <time>2020-07-01T15:08:27Z</time>
      </trkpt>
      <trkpt lat="48.9543" lon="2.66712">
        <ele>55.9</ele>
        <time>2020-07-01T15:08:28Z</time>
      </trkpt>
      <trkpt lat="48.95432" lon="2.66704">
        <ele>55.9</ele>
        <time>2020-07-01T15:08:29Z</time>
      </trkpt>
      <trkpt lat="48.95434" lon="2.66697">
        <ele>55.9</ele>
        <time>2020-07-01T15:08:30Z</time>
      </trkpt>
      <trkpt lat="48.95437" lon="2.66689">
        <ele>55.9</ele>
        <time>2020-07-01T15:08:31Z</time>
      </trkpt>
      <trkpt lat="48.95439" lon="2.66682">
        <ele>55.9</ele>
        <time>2020-07-01T15:08:32Z</time>
      </trkpt>
      <trkpt lat="48.95441" lon="2.66674">
        <ele>55.9</ele>
        <time>2020-07-01T15:08:33Z</time>
      </trkpt>
      <trkpt lat="48.95443" lon="2.66667">
        <ele>55.9</ele>
        <time>2020-07-01T15:08:34Z</time>
      </trkpt>
      <trkpt lat="48.95445" lon="2.6666">
        <ele>56</ele>
        <time>2020-07-01T15:08:35Z</time>
      </trkpt>
      <trkpt lat="48.95446" lon="2.66653">
        <ele>56</ele>
        <time>2020-07-01T15:08:36Z</time>
      </trkpt>
      <trkpt lat="48.95448" lon="2.66647">
        <ele>56</ele>
        <time>2020-07-01T15:08:37Z</time>
      </trkpt>
      <trkpt lat="48.95449" lon="2.66641">
        <ele>56</ele>
        <time>2020-07-01T15:08:38Z</time>
      </trkpt>
      <trkpt lat="48.9545" lon="2.66636">
        <ele>56</ele>
        <time>2020-07-01T15:08:39Z</time>
      </trkpt>
      <trkpt lat="48.95451" lon="2.66631">
        <ele>56</ele>
        <time>2020-07-01T15:08:40Z</time>
      </trkpt>
      <trkpt lat="48.95453" lon="2.66625">
        <ele>56</ele>
        <time>2020-07-01T15:08:41Z</time>
      </trkpt>
      <trkpt lat="48.95455" lon="2.66619">
        <ele>56</ele>
        <time>2020-07-01T15:08:42Z</time>
      </trkpt>
      <trkpt lat="48.95457" lon="2.66613">
        <ele>56</ele>
        <time>2020-07-01T15:08:43Z</time>
      </trkpt>
      <trkpt lat="48.95459" lon="2.66607">
        <ele>56</ele>
        <time>2020-07-01T15:08:44Z</time>
      </trkpt>
      <trkpt lat="48.95462" lon="2.66602">
        <ele>55.8</ele>
        <time>2020-07-01T15:08:45Z</time>
      </trkpt>
      <trkpt lat="48.95465" lon="2.66598">
        <ele>55.8</ele>
        <time>2020-07-01T15:08:46Z</time>
      </trkpt>
      <trkpt lat="48.95467" lon="2.66595">
        <ele>55.7</ele>
        <time>2020-07-01T15:08:47Z</time>
      </trkpt>
      <trkpt lat="48.9547" lon="2.66592">
        <ele>55.6</ele>
        <time>2020-07-01T15:08:48Z</time>
      </trkpt>
      <trkpt lat="48.95473" lon="2.66589">
        <ele>55.6</ele>
        <time>2020-07-01T15:08:49Z</time>
      </trkpt>
      <trkpt lat="48.95475" lon="2.66586">
        <ele>55.5</ele>
        <time>2020-07-01T15:08:50Z</time>
      </trkpt>
      <trkpt lat="48.95477" lon="2.66583">
        <ele>55.5</ele>
        <time>2020-07-01T15:08:51Z</time>
      </trkpt>
      <trkpt lat="48.9548" lon="2.66579">
        <ele>55.4</ele>
        <time>2020-07-01T15:08:52Z</time>
      </trkpt>
      <trkpt lat="48.95481" lon="2.66578">
        <ele>55.4</ele>
        <time>2020-07-01T15:08:53Z</time>
      </trkpt>
      <trkpt lat="48.95484" lon="2.66576">
        <ele>55.4</ele>
        <time>2020-07-01T15:08:54Z</time>
      </trkpt>
      <trkpt lat="48.95486" lon="2.66575">
        <ele>55.3</ele>
        <time>2020-07-01T15:08:55Z</time>
      </trkpt>
      <trkpt lat="48.9549" lon="2.66574">
        <ele>55.3</ele>
        <time>2020-07-01T15:08:56Z</time>
      </trkpt>
      <trkpt lat="48.95494" lon="2.66574">
        <ele>55.2</ele>
        <time>2020-07-01T15:08:57Z</time>
      </trkpt>
      <trkpt lat="48.95499" lon="2.66573">
        <ele>55.2</ele>
        <time>2020-07-01T15:08:58Z</time>
      </trkpt>
      <trkpt lat="48.95503" lon="2.66573">
        <ele>55.2</ele>
        <time>2020-07-01T15:08:59Z</time>
      </trkpt>
      <trkpt lat="48.95508" lon="2.66572">
        <ele>55.2</ele>
        <time>2020-07-01T15:09:00Z</time>
      </trkpt>
      <trkpt lat="48.95513" lon="2.66571">
        <ele>55.2</ele>
        <time>2020-07-01T15:09:01Z</time>
      </trkpt>
      <trkpt lat="48.95518" lon="2.6657">
        <ele>55.2</ele>
        <time>2020-07-01T15:09:02Z</time>
      </trkpt>
      <trkpt lat="48.95523" lon="2.66569">
        <ele>55.2</ele>
        <time>2020-07-01T15:09:03Z</time>
      </trkpt>
      <trkpt lat="48.95529" lon="2.66568">
        <ele>55.2</ele>
        <time>2020-07-01T15:09:04Z</time>
      </trkpt>
      <trkpt lat="48.95534" lon="2.66566">
        <ele>55.2</ele>
        <time>2020-07-01T15:09:05Z</time>
      </trkpt>
      <trkpt lat="48.9554" lon="2.66565">
        <ele>55.2</ele>
        <time>2020-07-01T15:09:06Z</time>
      </trkpt>
      <trkpt lat="48.95546" lon="2.66563">
        <ele>55.2</ele>
        <time>2020-07-01T15:09:07Z</time>
      </trkpt>
      <trkpt lat="48.95551" lon="2.66562">
        <ele>55.2</ele>
        <time>2020-07-01T15:09:08Z</time>
      </trkpt>
      <trkpt lat="48.95557" lon="2.6656">
        <ele>55.3</ele>
        <time>2020-07-01T15:09:09Z</time>
      </trkpt>
      <trkpt lat="48.95562" lon="2.66558">
        <ele>55.3</ele>
        <time>2020-07-01T15:09:10Z</time>
      </trkpt>
      <trkpt lat="48.95567" lon="2.66557">
        <ele>55.4</ele>
        <time>2020-07-01T15:09:11Z</time>
      </trkpt>
      <trkpt lat="48.95573" lon="2.66555">
        <ele>55.4</ele>
        <time>2020-07-01T15:09:12Z</time>
      </trkpt>
      <trkpt lat="48.95579" lon="2.66553">
        <ele>55.4</ele>
        <time>2020-07-01T15:09:13Z</time>
      </trkpt>
      <trkpt lat="48.95586" lon="2.66552">
        <ele>55.5</ele>
        <time>2020-07-01T15:09:14Z</time>
      </trkpt>
      <trkpt lat="48.95593" lon="2.66551">
        <ele>55.5</ele>
        <time>2020-07-01T15:09:15Z</time>
      </trkpt>
      <trkpt lat="48.956" lon="2.66549">
        <ele>55.6</ele>
        <time>2020-07-01T15:09:16Z</time>
      </trkpt>
      <trkpt lat="48.95606" lon="2.66547">
        <ele>55.7</ele>
        <time>2020-07-01T15:09:17Z</time>
      </trkpt>
      <trkpt lat="48.95613" lon="2.66545">
        <ele>55.8</ele>
        <time>2020-07-01T15:09:18Z</time>
      </trkpt>
      <trkpt lat="48.95619" lon="2.66543">
        <ele>55.9</ele>
        <time>2020-07-01T15:09:19Z</time>
      </trkpt>
      <trkpt lat="48.95626" lon="2.66542">
        <ele>55.9</ele>
        <time>2020-07-01T15:09:20Z</time>
      </trkpt>
      <trkpt lat="48.95632" lon="2.6654">
        <ele>56</ele>
        <time>2020-07-01T15:09:21Z</time>
      </trkpt>
      <trkpt lat="48.95638" lon="2.66538">
        <ele>56.1</ele>
        <time>2020-07-01T15:09:22Z</time>
      </trkpt>
      <trkpt lat="48.95644" lon="2.66536">
        <ele>56.2</ele>
        <time>2020-07-01T15:09:23Z</time>
      </trkpt>
      <trkpt lat="48.95651" lon="2.66535">
        <ele>56.3</ele>
        <time>2020-07-01T15:09:24Z</time>
      </trkpt>
      <trkpt lat="48.95657" lon="2.66533">
        <ele>56.4</ele>
        <time>2020-07-01T15:09:25Z</time>
      </trkpt>
      <trkpt lat="48.95663" lon="2.66531">
        <ele>56.5</ele>
        <time>2020-07-01T15:09:26Z</time>
      </trkpt>
      <trkpt lat="48.95668" lon="2.6653">
        <ele>56.6</ele>
        <time>2020-07-01T15:09:27Z</time>
      </trkpt>
      <trkpt lat="48.95674" lon="2.66529">
        <ele>56.7</ele>
        <time>2020-07-01T15:09:28Z</time>
      </trkpt>
      <trkpt lat="48.95679" lon="2.66528">
        <ele>56.7</ele>
        <time>2020-07-01T15:09:29Z</time>
      </trkpt>
      <trkpt lat="48.95683" lon="2.66528">
        <ele>56.8</ele>
        <time>2020-07-01T15:09:30Z</time>
      </trkpt>
      <trkpt lat="48.95686" lon="2.66527">
        <ele>56.9</ele>
        <time>2020-07-01T15:09:31Z</time>
      </trkpt>
      <trkpt lat="48.9569" lon="2.66527">
        <ele>56.9</ele>
        <time>2020-07-01T15:09:32Z</time>
      </trkpt>
      <trkpt lat="48.9569" lon="2.66526">
        <ele>57</ele>
        <time>2020-07-01T15:09:33Z</time>
      </trkpt>
      <trkpt lat="48.95694" lon="2.66524">
        <ele>57</ele>
        <time>2020-07-01T15:09:34Z</time>
      </trkpt>
      <trkpt lat="48.95695" lon="2.66522">
        <ele>57</ele>
        <time>2020-07-01T15:09:35Z</time>
      </trkpt>
      <trkpt lat="48.95697" lon="2.66518">
        <ele>57</ele>
        <time>2020-07-01T15:09:36Z</time>
      </trkpt>
      <trkpt lat="48.957" lon="2.66514">
        <ele>57</ele>
        <time>2020-07-01T15:09:37Z</time>
      </trkpt>
      <trkpt lat="48.95703" lon="2.66509">
        <ele>57.1</ele>
        <time>2020-07-01T15:09:38Z</time>
      </trkpt>
      <trkpt lat="48.95704" lon="2.66503">
        <ele>57</ele>
        <time>2020-07-01T15:09:39Z</time>
      </trkpt>
      <trkpt lat="48.95703" lon="2.665">
        <ele>56.8</ele>
        <time>2020-07-01T15:09:40Z</time>
      </trkpt>
      <trkpt lat="48.95701" lon="2.66496">
        <ele>56.7</ele>
        <time>2020-07-01T15:09:41Z</time>
      </trkpt>
      <trkpt lat="48.957" lon="2.66495">
        <ele>56.6</ele>
        <time>2020-07-01T15:09:42Z</time>
      </trkpt>
      <trkpt lat="48.957" lon="2.66492">
        <ele>56.5</ele>
        <time>2020-07-01T15:09:43Z</time>
      </trkpt>
      <trkpt lat="48.95701" lon="2.66491">
        <ele>56.5</ele>
        <time>2020-07-01T15:09:44Z</time>
      </trkpt>
      <trkpt lat="48.95701" lon="2.6649">
        <ele>56.4</ele>
        <time>2020-07-01T15:09:45Z</time>
      </trkpt>
      <trkpt lat="48.95702" lon="2.66489">
        <ele>56.4</ele>
        <time>2020-07-01T15:09:46Z</time>
      </trkpt>
      <trkpt lat="48.95701" lon="2.66488">
        <ele>56.3</ele>
        <time>2020-07-01T15:09:47Z</time>
      </trkpt>
      <trkpt lat="48.957" lon="2.66487">
        <ele>56.3</ele>
        <time>2020-07-01T15:09:48Z</time>
      </trkpt>
      <trkpt lat="48.957" lon="2.66486">
        <ele>56.2</ele>
        <time>2020-07-01T15:09:49Z</time>
      </trkpt>
      <trkpt lat="48.95698" lon="2.66482">
        <ele>56</ele>
        <time>2020-07-01T15:09:50Z</time>
      </trkpt>
      <trkpt lat="48.95697" lon="2.6648">
        <ele>55.9</ele>
        <time>2020-07-01T15:09:51Z</time>
      </trkpt>
      <trkpt lat="48.95696" lon="2.66475">
        <ele>55.7</ele>
        <time>2020-07-01T15:09:52Z</time>
      </trkpt>
      <trkpt lat="48.95695" lon="2.6647">
        <ele>55.5</ele>
        <time>2020-07-01T15:09:53Z</time>
      </trkpt>
      <trkpt lat="48.95692" lon="2.66464">
        <ele>55.3</ele>
        <time>2020-07-01T15:09:54Z</time>
      </trkpt>
      <trkpt lat="48.9569" lon="2.66457">
        <ele>55.1</ele>
        <time>2020-07-01T15:09:55Z</time>
      </trkpt>
      <trkpt lat="48.95687" lon="2.6645">
        <ele>55</ele>
        <time>2020-07-01T15:09:56Z</time>
      </trkpt>
      <trkpt lat="48.95684" lon="2.66443">
        <ele>55</ele>
        <time>2020-07-01T15:09:57Z</time>
      </trkpt>
      <trkpt lat="48.95683" lon="2.66436">
        <ele>54.9</ele>
        <time>2020-07-01T15:09:58Z</time>
      </trkpt>
      <trkpt lat="48.95682" lon="2.66429">
        <ele>54.8</ele>
        <time>2020-07-01T15:09:59Z</time>
      </trkpt>
      <trkpt lat="48.95681" lon="2.66422">
        <ele>54.8</ele>
        <time>2020-07-01T15:10:00Z</time>
      </trkpt>
      <trkpt lat="48.95679" lon="2.66415">
        <ele>54.8</ele>
        <time>2020-07-01T15:10:01Z</time>
      </trkpt>
      <trkpt lat="48.95679" lon="2.66408">
        <ele>54.7</ele>
        <time>2020-07-01T15:10:02Z</time>
      </trkpt>
      <trkpt lat="48.95678" lon="2.66401">
        <ele>54.7</ele>
        <time>2020-07-01T15:10:03Z</time>
      </trkpt>
      <trkpt lat="48.95677" lon="2.66394">
        <ele>54.7</ele>
        <time>2020-07-01T15:10:04Z</time>
      </trkpt>
      <trkpt lat="48.95676" lon="2.66387">
        <ele>54.7</ele>
        <time>2020-07-01T15:10:05Z</time>
      </trkpt>
      <trkpt lat="48.95676" lon="2.6638">
        <ele>54.7</ele>
        <time>2020-07-01T15:10:06Z</time>
      </trkpt>
      <trkpt lat="48.95676" lon="2.66373">
        <ele>54.7</ele>
        <time>2020-07-01T15:10:07Z</time>
      </trkpt>
      <trkpt lat="48.95675" lon="2.66365">
        <ele>54.7</ele>
        <time>2020-07-01T15:10:08Z</time>
      </trkpt>
      <trkpt lat="48.95674" lon="2.66358">
        <ele>54.8</ele>
        <time>2020-07-01T15:10:09Z</time>
      </trkpt>
      <trkpt lat="48.95673" lon="2.6635">
        <ele>54.9</ele>
        <time>2020-07-01T15:10:10Z</time>
      </trkpt>
      <trkpt lat="48.95672" lon="2.66343">
        <ele>54.9</ele>
        <time>2020-07-01T15:10:11Z</time>
      </trkpt>
      <trkpt lat="48.95671" lon="2.66336">
        <ele>54.8</ele>
        <time>2020-07-01T15:10:12Z</time>
      </trkpt>
      <trkpt lat="48.95671" lon="2.66329">
        <ele>54.8</ele>
        <time>2020-07-01T15:10:13Z</time>
      </trkpt>
      <trkpt lat="48.9567" lon="2.66322">
        <ele>54.8</ele>
        <time>2020-07-01T15:10:14Z</time>
      </trkpt>
      <trkpt lat="48.9567" lon="2.66315">
        <ele>54.8</ele>
        <time>2020-07-01T15:10:15Z</time>
      </trkpt>
      <trkpt lat="48.95669" lon="2.66309">
        <ele>54.8</ele>
        <time>2020-07-01T15:10:16Z</time>
      </trkpt>
      <trkpt lat="48.95669" lon="2.66302">
        <ele>54.8</ele>
        <time>2020-07-01T15:10:17Z</time>
      </trkpt>
      <trkpt lat="48.95669" lon="2.66296">
        <ele>54.8</ele>
        <time>2020-07-01T15:10:18Z</time>
      </trkpt>
      <trkpt lat="48.95668" lon="2.66291">
        <ele>54.8</ele>
        <time>2020-07-01T15:10:19Z</time>
      </trkpt>
      <trkpt lat="48.95668" lon="2.66285">
        <ele>54.8</ele>
        <time>2020-07-01T15:10:20Z</time>
      </trkpt>
      <trkpt lat="48.95668" lon="2.66278">
        <ele>54.8</ele>
        <time>2020-07-01T15:10:21Z</time>
      </trkpt>
      <trkpt lat="48.95667" lon="2.66272">
        <ele>54.9</ele>
        <time>2020-07-01T15:10:22Z</time>
      </trkpt>
      <trkpt lat="48.95666" lon="2.66267">
        <ele>54.9</ele>
        <time>2020-07-01T15:10:23Z</time>
      </trkpt>
      <trkpt lat="48.95665" lon="2.66262">
        <ele>54.9</ele>
        <time>2020-07-01T15:10:24Z</time>
      </trkpt>
      <trkpt lat="48.95664" lon="2.66259">
        <ele>54.9</ele>
        <time>2020-07-01T15:10:25Z</time>
      </trkpt>
      <trkpt lat="48.95663" lon="2.66254">
        <ele>55</ele>
        <time>2020-07-01T15:10:26Z</time>
      </trkpt>
      <trkpt lat="48.95662" lon="2.6625">
        <ele>55</ele>
        <time>2020-07-01T15:10:27Z</time>
      </trkpt>
      <trkpt lat="48.95661" lon="2.66246">
        <ele>55</ele>
        <time>2020-07-01T15:10:28Z</time>
      </trkpt>
      <trkpt lat="48.9566" lon="2.66241">
        <ele>55</ele>
        <time>2020-07-01T15:10:29Z</time>
      </trkpt>
      <trkpt lat="48.95659" lon="2.66239">
        <ele>55</ele>
        <time>2020-07-01T15:10:30Z</time>
      </trkpt>
      <trkpt lat="48.95659" lon="2.66232">
        <ele>55</ele>
        <time>2020-07-01T15:10:31Z</time>
      </trkpt>
      <trkpt lat="48.95658" lon="2.6623">
        <ele>55</ele>
        <time>2020-07-01T15:10:32Z</time>
      </trkpt>
      <trkpt lat="48.95658" lon="2.66226">
        <ele>55</ele>
        <time>2020-07-01T15:10:33Z</time>
      </trkpt>
      <trkpt lat="48.95657" lon="2.66222">
        <ele>55</ele>
        <time>2020-07-01T15:10:34Z</time>
      </trkpt>
      <trkpt lat="48.95655" lon="2.66217">
        <ele>55</ele>
        <time>2020-07-01T15:10:35Z</time>
      </trkpt>
      <trkpt lat="48.95654" lon="2.66213">
        <ele>55</ele>
        <time>2020-07-01T15:10:36Z</time>
      </trkpt>
      <trkpt lat="48.95654" lon="2.66208">
        <ele>55</ele>
        <time>2020-07-01T15:10:37Z</time>
      </trkpt>
      <trkpt lat="48.95653" lon="2.66203">
        <ele>55</ele>
        <time>2020-07-01T15:10:38Z</time>
      </trkpt>
      <trkpt lat="48.95653" lon="2.66199">
        <ele>55</ele>
        <time>2020-07-01T15:10:39Z</time>
      </trkpt>
      <trkpt lat="48.95652" lon="2.66193">
        <ele>55</ele>
        <time>2020-07-01T15:10:40Z</time>
      </trkpt>
      <trkpt lat="48.95651" lon="2.66188">
        <ele>54.9</ele>
        <time>2020-07-01T15:10:41Z</time>
      </trkpt>
      <trkpt lat="48.9565" lon="2.66183">
        <ele>54.9</ele>
        <time>2020-07-01T15:10:42Z</time>
      </trkpt>
      <trkpt lat="48.95649" lon="2.66179">
        <ele>54.9</ele>
        <time>2020-07-01T15:10:43Z</time>
      </trkpt>
      <trkpt lat="48.95649" lon="2.66174">
        <ele>54.9</ele>
        <time>2020-07-01T15:10:44Z</time>
      </trkpt>
      <trkpt lat="48.95649" lon="2.66169">
        <ele>54.9</ele>
        <time>2020-07-01T15:10:45Z</time>
      </trkpt>
      <trkpt lat="48.95648" lon="2.66162">
        <ele>54.8</ele>
        <time>2020-07-01T15:10:46Z</time>
      </trkpt>
      <trkpt lat="48.95647" lon="2.66156">
        <ele>54.8</ele>
        <time>2020-07-01T15:10:47Z</time>
      </trkpt>
      <trkpt lat="48.95646" lon="2.6615">
        <ele>54.8</ele>
        <time>2020-07-01T15:10:48Z</time>
      </trkpt>
      <trkpt lat="48.95645" lon="2.66144">
        <ele>54.8</ele>
        <time>2020-07-01T15:10:49Z</time>
      </trkpt>
      <trkpt lat="48.95645" lon="2.66137">
        <ele>54.8</ele>
        <time>2020-07-01T15:10:50Z</time>
      </trkpt>
      <trkpt lat="48.95645" lon="2.66131">
        <ele>54.8</ele>
        <time>2020-07-01T15:10:51Z</time>
      </trkpt>
      <trkpt lat="48.95644" lon="2.66125">
        <ele>54.8</ele>
        <time>2020-07-01T15:10:52Z</time>
      </trkpt>
      <trkpt lat="48.95644" lon="2.66119">
        <ele>54.8</ele>
        <time>2020-07-01T15:10:53Z</time>
      </trkpt>
      <trkpt lat="48.95642" lon="2.66114">
        <ele>54.8</ele>
        <time>2020-07-01T15:10:54Z</time>
      </trkpt>
      <trkpt lat="48.95642" lon="2.66107">
        <ele>54.9</ele>
        <time>2020-07-01T15:10:55Z</time>
      </trkpt>
      <trkpt lat="48.95641" lon="2.66101">
        <ele>54.9</ele>
        <time>2020-07-01T15:10:56Z</time>
      </trkpt>
      <trkpt lat="48.9564" lon="2.66094">
        <ele>54.9</ele>
        <time>2020-07-01T15:10:57Z</time>
      </trkpt>
      <trkpt lat="48.9564" lon="2.66086">
        <ele>54.9</ele>
        <time>2020-07-01T15:10:58Z</time>
      </trkpt>
      <trkpt lat="48.95639" lon="2.66079">
        <ele>54.9</ele>
        <time>2020-07-01T15:10:59Z</time>
      </trkpt>
      <trkpt lat="48.95637" lon="2.66073">
        <ele>54.9</ele>
        <time>2020-07-01T15:11:00Z</time>
      </trkpt>
      <trkpt lat="48.95636" lon="2.66067">
        <ele>54.9</ele>
        <time>2020-07-01T15:11:01Z</time>
      </trkpt>
      <trkpt lat="48.95634" lon="2.66056">
        <ele>54.9</ele>
        <time>2020-07-01T15:11:02Z</time>
      </trkpt>
      <trkpt lat="48.95633" lon="2.66049">
        <ele>54.8</ele>
        <time>2020-07-01T15:11:03Z</time>
      </trkpt>
      <trkpt lat="48.95632" lon="2.66041">
        <ele>54.8</ele>
        <time>2020-07-01T15:11:04Z</time>
      </trkpt>
      <trkpt lat="48.95632" lon="2.66034">
        <ele>54.8</ele>
        <time>2020-07-01T15:11:05Z</time>
      </trkpt>
      <trkpt lat="48.95631" lon="2.66028">
        <ele>54.8</ele>
        <time>2020-07-01T15:11:06Z</time>
      </trkpt>
      <trkpt lat="48.9563" lon="2.66024">
        <ele>54.8</ele>
        <time>2020-07-01T15:11:07Z</time>
      </trkpt>
      <trkpt lat="48.95629" lon="2.66017">
        <ele>54.8</ele>
        <time>2020-07-01T15:11:08Z</time>
      </trkpt>
      <trkpt lat="48.95629" lon="2.66008">
        <ele>54.8</ele>
        <time>2020-07-01T15:11:09Z</time>
      </trkpt>
      <trkpt lat="48.95628" lon="2.66001">
        <ele>54.8</ele>
        <time>2020-07-01T15:11:10Z</time>
      </trkpt>
      <trkpt lat="48.95628" lon="2.65995">
        <ele>54.8</ele>
        <time>2020-07-01T15:11:11Z</time>
      </trkpt>
      <trkpt lat="48.95627" lon="2.65986">
        <ele>54.8</ele>
        <time>2020-07-01T15:11:12Z</time>
      </trkpt>
      <trkpt lat="48.95627" lon="2.65978">
        <ele>54.8</ele>
        <time>2020-07-01T15:11:13Z</time>
      </trkpt>
      <trkpt lat="48.95627" lon="2.65969">
        <ele>54.8</ele>
        <time>2020-07-01T15:11:14Z</time>
      </trkpt>
      <trkpt lat="48.95627" lon="2.65958">
        <ele>54.8</ele>
        <time>2020-07-01T15:11:15Z</time>
      </trkpt>
      <trkpt lat="48.95627" lon="2.65947">
        <ele>54.8</ele>
        <time>2020-07-01T15:11:16Z</time>
      </trkpt>
      <trkpt lat="48.95626" lon="2.65939">
        <ele>54.8</ele>
        <time>2020-07-01T15:11:17Z</time>
      </trkpt>
      <trkpt lat="48.95627" lon="2.65929">
        <ele>54.8</ele>
        <time>2020-07-01T15:11:18Z</time>
      </trkpt>
      <trkpt lat="48.95628" lon="2.65921">
        <ele>54.8</ele>
        <time>2020-07-01T15:11:19Z</time>
      </trkpt>
      <trkpt lat="48.95627" lon="2.65913">
        <ele>54.7</ele>
        <time>2020-07-01T15:11:20Z</time>
      </trkpt>
      <trkpt lat="48.95627" lon="2.65906">
        <ele>54.7</ele>
        <time>2020-07-01T15:11:21Z</time>
      </trkpt>
      <trkpt lat="48.95628" lon="2.65896">
        <ele>54.6</ele>
        <time>2020-07-01T15:11:22Z</time>
      </trkpt>
      <trkpt lat="48.95627" lon="2.65875">
        <ele>54.6</ele>
        <time>2020-07-01T15:11:23Z</time>
      </trkpt>
      <trkpt lat="48.95626" lon="2.65865">
        <ele>54.5</ele>
        <time>2020-07-01T15:11:24Z</time>
      </trkpt>
      <trkpt lat="48.95626" lon="2.65857">
        <ele>54.5</ele>
        <time>2020-07-01T15:11:25Z</time>
      </trkpt>
      <trkpt lat="48.95626" lon="2.6585">
        <ele>54.5</ele>
        <time>2020-07-01T15:11:26Z</time>
      </trkpt>
      <trkpt lat="48.95625" lon="2.65837">
        <ele>54.5</ele>
        <time>2020-07-01T15:11:27Z</time>
      </trkpt>
      <trkpt lat="48.95624" lon="2.65826">
        <ele>54.5</ele>
        <time>2020-07-01T15:11:28Z</time>
      </trkpt>
      <trkpt lat="48.95623" lon="2.65814">
        <ele>54.5</ele>
        <time>2020-07-01T15:11:29Z</time>
      </trkpt>
      <trkpt lat="48.95622" lon="2.65804">
        <ele>54.5</ele>
        <time>2020-07-01T15:11:30Z</time>
      </trkpt>
      <trkpt lat="48.95621" lon="2.65796">
        <ele>54.5</ele>
        <time>2020-07-01T15:11:31Z</time>
      </trkpt>
      <trkpt lat="48.95621" lon="2.65786">
        <ele>54.5</ele>
        <time>2020-07-01T15:11:32Z</time>
      </trkpt>
      <trkpt lat="48.9562" lon="2.65777">
        <ele>54.5</ele>
        <time>2020-07-01T15:11:33Z</time>
      </trkpt>
      <trkpt lat="48.95619" lon="2.65767">
        <ele>54.5</ele>
        <time>2020-07-01T15:11:34Z</time>
      </trkpt>
      <trkpt lat="48.95618" lon="2.65758">
        <ele>54.5</ele>
        <time>2020-07-01T15:11:35Z</time>
      </trkpt>
      <trkpt lat="48.95617" lon="2.65748">
        <ele>54.5</ele>
        <time>2020-07-01T15:11:36Z</time>
      </trkpt>
      <trkpt lat="48.95617" lon="2.65738">
        <ele>54.6</ele>
        <time>2020-07-01T15:11:37Z</time>
      </trkpt>
      <trkpt lat="48.95616" lon="2.65727">
        <ele>54.6</ele>
        <time>2020-07-01T15:11:38Z</time>
      </trkpt>
      <trkpt lat="48.95615" lon="2.65718">
        <ele>54.7</ele>
        <time>2020-07-01T15:11:39Z</time>
      </trkpt>
      <trkpt lat="48.95613" lon="2.65705">
        <ele>54.7</ele>
        <time>2020-07-01T15:11:40Z</time>
      </trkpt>
      <trkpt lat="48.95612" lon="2.65696">
        <ele>54.8</ele>
        <time>2020-07-01T15:11:41Z</time>
      </trkpt>
      <trkpt lat="48.95611" lon="2.65687">
        <ele>54.9</ele>
        <time>2020-07-01T15:11:42Z</time>
      </trkpt>
      <trkpt lat="48.9561" lon="2.65679">
        <ele>55</ele>
        <time>2020-07-01T15:11:43Z</time>
      </trkpt>
      <trkpt lat="48.9561" lon="2.65671">
        <ele>55.1</ele>
        <time>2020-07-01T15:11:44Z</time>
      </trkpt>
      <trkpt lat="48.95609" lon="2.65663">
        <ele>55.1</ele>
        <time>2020-07-01T15:11:45Z</time>
      </trkpt>
      <trkpt lat="48.95609" lon="2.65657">
        <ele>55.2</ele>
        <time>2020-07-01T15:11:46Z</time>
      </trkpt>
      <trkpt lat="48.95608" lon="2.6565">
        <ele>55.2</ele>
        <time>2020-07-01T15:11:47Z</time>
      </trkpt>
      <trkpt lat="48.95607" lon="2.65642">
        <ele>55.3</ele>
        <time>2020-07-01T15:11:48Z</time>
      </trkpt>
      <trkpt lat="48.95606" lon="2.65634">
        <ele>55.4</ele>
        <time>2020-07-01T15:11:49Z</time>
      </trkpt>
      <trkpt lat="48.95605" lon="2.65626">
        <ele>55.4</ele>
        <time>2020-07-01T15:11:50Z</time>
      </trkpt>
      <trkpt lat="48.95604" lon="2.65618">
        <ele>55.5</ele>
        <time>2020-07-01T15:11:51Z</time>
      </trkpt>
      <trkpt lat="48.95604" lon="2.65609">
        <ele>55.5</ele>
        <time>2020-07-01T15:11:52Z</time>
      </trkpt>
      <trkpt lat="48.95603" lon="2.65597">
        <ele>55.6</ele>
        <time>2020-07-01T15:11:53Z</time>
      </trkpt>
      <trkpt lat="48.95602" lon="2.65587">
        <ele>55.7</ele>
        <time>2020-07-01T15:11:54Z</time>
      </trkpt>
      <trkpt lat="48.95601" lon="2.65578">
        <ele>55.7</ele>
        <time>2020-07-01T15:11:55Z</time>
      </trkpt>
      <trkpt lat="48.956" lon="2.6557">
        <ele>55.7</ele>
        <time>2020-07-01T15:11:56Z</time>
      </trkpt>
      <trkpt lat="48.95599" lon="2.65562">
        <ele>55.8</ele>
        <time>2020-07-01T15:11:57Z</time>
      </trkpt>
      <trkpt lat="48.95599" lon="2.65554">
        <ele>55.9</ele>
        <time>2020-07-01T15:11:58Z</time>
      </trkpt>
      <trkpt lat="48.95598" lon="2.65546">
        <ele>55.9</ele>
        <time>2020-07-01T15:11:59Z</time>
      </trkpt>
      <trkpt lat="48.95597" lon="2.65537">
        <ele>55.9</ele>
        <time>2020-07-01T15:12:00Z</time>
      </trkpt>
      <trkpt lat="48.95597" lon="2.65529">
        <ele>55.9</ele>
        <time>2020-07-01T15:12:01Z</time>
      </trkpt>
      <trkpt lat="48.95596" lon="2.65519">
        <ele>55.9</ele>
        <time>2020-07-01T15:12:02Z</time>
      </trkpt>
      <trkpt lat="48.95595" lon="2.65509">
        <ele>55.8</ele>
        <time>2020-07-01T15:12:03Z</time>
      </trkpt>
      <trkpt lat="48.95594" lon="2.655">
        <ele>55.8</ele>
        <time>2020-07-01T15:12:04Z</time>
      </trkpt>
      <trkpt lat="48.95593" lon="2.65491">
        <ele>55.8</ele>
        <time>2020-07-01T15:12:05Z</time>
      </trkpt>
      <trkpt lat="48.95592" lon="2.65482">
        <ele>55.7</ele>
        <time>2020-07-01T15:12:06Z</time>
      </trkpt>
      <trkpt lat="48.95591" lon="2.65465">
        <ele>55.6</ele>
        <time>2020-07-01T15:12:07Z</time>
      </trkpt>
      <trkpt lat="48.95589" lon="2.65453">
        <ele>55.5</ele>
        <time>2020-07-01T15:12:08Z</time>
      </trkpt>
      <trkpt lat="48.95588" lon="2.65441">
        <ele>55.4</ele>
        <time>2020-07-01T15:12:09Z</time>
      </trkpt>
      <trkpt lat="48.95588" lon="2.65426">
        <ele>55.3</ele>
        <time>2020-07-01T15:12:10Z</time>
      </trkpt>
      <trkpt lat="48.95587" lon="2.65411">
        <ele>55.1</ele>
        <time>2020-07-01T15:12:11Z</time>
      </trkpt>
      <trkpt lat="48.95586" lon="2.65398">
        <ele>55</ele>
        <time>2020-07-01T15:12:12Z</time>
      </trkpt>
      <trkpt lat="48.95586" lon="2.65384">
        <ele>54.9</ele>
        <time>2020-07-01T15:12:13Z</time>
      </trkpt>
      <trkpt lat="48.95584" lon="2.65369">
        <ele>54.7</ele>
        <time>2020-07-01T15:12:14Z</time>
      </trkpt>
      <trkpt lat="48.95584" lon="2.65354">
        <ele>54.6</ele>
        <time>2020-07-01T15:12:15Z</time>
      </trkpt>
      <trkpt lat="48.95583" lon="2.65338">
        <ele>54.6</ele>
        <time>2020-07-01T15:12:16Z</time>
      </trkpt>
      <trkpt lat="48.95581" lon="2.65325">
        <ele>54.5</ele>
        <time>2020-07-01T15:12:17Z</time>
      </trkpt>
      <trkpt lat="48.9558" lon="2.65313">
        <ele>54.6</ele>
        <time>2020-07-01T15:12:18Z</time>
      </trkpt>
      <trkpt lat="48.95579" lon="2.65301">
        <ele>54.6</ele>
        <time>2020-07-01T15:12:19Z</time>
      </trkpt>
      <trkpt lat="48.95578" lon="2.6529">
        <ele>54.6</ele>
        <time>2020-07-01T15:12:20Z</time>
      </trkpt>
      <trkpt lat="48.95578" lon="2.65278">
        <ele>54.7</ele>
        <time>2020-07-01T15:12:21Z</time>
      </trkpt>
      <trkpt lat="48.95577" lon="2.65268">
        <ele>54.7</ele>
        <time>2020-07-01T15:12:22Z</time>
      </trkpt>
      <trkpt lat="48.95577" lon="2.6526">
        <ele>54.6</ele>
        <time>2020-07-01T15:12:23Z</time>
      </trkpt>
      <trkpt lat="48.95576" lon="2.6525">
        <ele>54.6</ele>
        <time>2020-07-01T15:12:24Z</time>
      </trkpt>
      <trkpt lat="48.95575" lon="2.65243">
        <ele>54.6</ele>
        <time>2020-07-01T15:12:25Z</time>
      </trkpt>
      <trkpt lat="48.95574" lon="2.65231">
        <ele>54.6</ele>
        <time>2020-07-01T15:12:26Z</time>
      </trkpt>
      <trkpt lat="48.95573" lon="2.65221">
        <ele>54.6</ele>
        <time>2020-07-01T15:12:27Z</time>
      </trkpt>
      <trkpt lat="48.95572" lon="2.65211">
        <ele>54.6</ele>
        <time>2020-07-01T15:12:28Z</time>
      </trkpt>
      <trkpt lat="48.95572" lon="2.652">
        <ele>54.6</ele>
        <time>2020-07-01T15:12:29Z</time>
      </trkpt>
      <trkpt lat="48.95571" lon="2.6519">
        <ele>54.7</ele>
        <time>2020-07-01T15:12:30Z</time>
      </trkpt>
      <trkpt lat="48.95571" lon="2.65181">
        <ele>54.7</ele>
        <time>2020-07-01T15:12:31Z</time>
      </trkpt>
      <trkpt lat="48.9557" lon="2.65172">
        <ele>54.7</ele>
        <time>2020-07-01T15:12:32Z</time>
      </trkpt>
      <trkpt lat="48.95569" lon="2.65163">
        <ele>54.7</ele>
        <time>2020-07-01T15:12:33Z</time>
      </trkpt>
      <trkpt lat="48.95568" lon="2.65153">
        <ele>54.6</ele>
        <time>2020-07-01T15:12:34Z</time>
      </trkpt>
      <trkpt lat="48.95567" lon="2.65143">
        <ele>54.6</ele>
        <time>2020-07-01T15:12:35Z</time>
      </trkpt>
      <trkpt lat="48.95567" lon="2.65133">
        <ele>54.6</ele>
        <time>2020-07-01T15:12:36Z</time>
      </trkpt>
      <trkpt lat="48.95566" lon="2.65123">
        <ele>54.6</ele>
        <time>2020-07-01T15:12:37Z</time>
      </trkpt>
      <trkpt lat="48.95565" lon="2.65113">
        <ele>54.5</ele>
        <time>2020-07-01T15:12:38Z</time>
      </trkpt>
      <trkpt lat="48.95564" lon="2.65103">
        <ele>54.5</ele>
        <time>2020-07-01T15:12:39Z</time>
      </trkpt>
      <trkpt lat="48.95563" lon="2.65094">
        <ele>54.5</ele>
        <time>2020-07-01T15:12:40Z</time>
      </trkpt>
      <trkpt lat="48.95563" lon="2.65084">
        <ele>54.5</ele>
        <time>2020-07-01T15:12:41Z</time>
      </trkpt>
      <trkpt lat="48.95562" lon="2.65075">
        <ele>54.5</ele>
        <time>2020-07-01T15:12:42Z</time>
      </trkpt>
      <trkpt lat="48.95562" lon="2.65065">
        <ele>54.4</ele>
        <time>2020-07-01T15:12:43Z</time>
      </trkpt>
      <trkpt lat="48.95561" lon="2.65054">
        <ele>54.3</ele>
        <time>2020-07-01T15:12:44Z</time>
      </trkpt>
      <trkpt lat="48.9556" lon="2.65043">
        <ele>54.3</ele>
        <time>2020-07-01T15:12:45Z</time>
      </trkpt>
      <trkpt lat="48.95559" lon="2.65032">
        <ele>54.2</ele>
        <time>2020-07-01T15:12:46Z</time>
      </trkpt>
      <trkpt lat="48.95557" lon="2.65018">
        <ele>54.3</ele>
        <time>2020-07-01T15:12:47Z</time>
      </trkpt>
      <trkpt lat="48.95556" lon="2.65006">
        <ele>54.4</ele>
        <time>2020-07-01T15:12:48Z</time>
      </trkpt>
      <trkpt lat="48.95556" lon="2.64997">
        <ele>54.6</ele>
        <time>2020-07-01T15:12:49Z</time>
      </trkpt>
      <trkpt lat="48.95555" lon="2.64988">
        <ele>54.7</ele>
        <time>2020-07-01T15:12:50Z</time>
      </trkpt>
      <trkpt lat="48.95554" lon="2.64976">
        <ele>54.8</ele>
        <time>2020-07-01T15:12:51Z</time>
      </trkpt>
      <trkpt lat="48.95553" lon="2.64965">
        <ele>54.8</ele>
        <time>2020-07-01T15:12:52Z</time>
      </trkpt>
      <trkpt lat="48.95552" lon="2.64955">
        <ele>54.9</ele>
        <time>2020-07-01T15:12:53Z</time>
      </trkpt>
      <trkpt lat="48.95551" lon="2.64944">
        <ele>54.9</ele>
        <time>2020-07-01T15:12:54Z</time>
      </trkpt>
      <trkpt lat="48.9555" lon="2.64934">
        <ele>55</ele>
        <time>2020-07-01T15:12:55Z</time>
      </trkpt>
      <trkpt lat="48.95548" lon="2.64923">
        <ele>55</ele>
        <time>2020-07-01T15:12:56Z</time>
      </trkpt>
      <trkpt lat="48.95547" lon="2.64913">
        <ele>55</ele>
        <time>2020-07-01T15:12:57Z</time>
      </trkpt>
      <trkpt lat="48.95546" lon="2.64903">
        <ele>55</ele>
        <time>2020-07-01T15:12:58Z</time>
      </trkpt>
      <trkpt lat="48.95545" lon="2.64893">
        <ele>55</ele>
        <time>2020-07-01T15:12:59Z</time>
      </trkpt>
      <trkpt lat="48.95544" lon="2.64882">
        <ele>55</ele>
        <time>2020-07-01T15:13:00Z</time>
      </trkpt>
      <trkpt lat="48.95542" lon="2.6487">
        <ele>55</ele>
        <time>2020-07-01T15:13:01Z</time>
      </trkpt>
      <trkpt lat="48.95541" lon="2.64859">
        <ele>54.9</ele>
        <time>2020-07-01T15:13:02Z</time>
      </trkpt>
      <trkpt lat="48.9554" lon="2.64848">
        <ele>54.9</ele>
        <time>2020-07-01T15:13:03Z</time>
      </trkpt>
      <trkpt lat="48.95539" lon="2.64837">
        <ele>54.9</ele>
        <time>2020-07-01T15:13:04Z</time>
      </trkpt>
      <trkpt lat="48.95538" lon="2.64826">
        <ele>54.9</ele>
        <time>2020-07-01T15:13:05Z</time>
      </trkpt>
      <trkpt lat="48.95537" lon="2.64815">
        <ele>54.9</ele>
        <time>2020-07-01T15:13:06Z</time>
      </trkpt>
      <trkpt lat="48.95536" lon="2.64805">
        <ele>54.9</ele>
        <time>2020-07-01T15:13:07Z</time>
      </trkpt>
      <trkpt lat="48.95536" lon="2.64796">
        <ele>54.9</ele>
        <time>2020-07-01T15:13:08Z</time>
      </trkpt>
      <trkpt lat="48.95535" lon="2.64786">
        <ele>54.9</ele>
        <time>2020-07-01T15:13:09Z</time>
      </trkpt>
      <trkpt lat="48.95534" lon="2.64775">
        <ele>54.9</ele>
        <time>2020-07-01T15:13:10Z</time>
      </trkpt>
      <trkpt lat="48.95533" lon="2.64763">
        <ele>54.8</ele>
        <time>2020-07-01T15:13:11Z</time>
      </trkpt>
      <trkpt lat="48.95532" lon="2.64752">
        <ele>54.8</ele>
        <time>2020-07-01T15:13:12Z</time>
      </trkpt>
      <trkpt lat="48.95531" lon="2.64741">
        <ele>54.7</ele>
        <time>2020-07-01T15:13:13Z</time>
      </trkpt>
      <trkpt lat="48.9553" lon="2.6473">
        <ele>54.7</ele>
        <time>2020-07-01T15:13:14Z</time>
      </trkpt>
      <trkpt lat="48.95529" lon="2.64719">
        <ele>54.6</ele>
        <time>2020-07-01T15:13:15Z</time>
      </trkpt>
      <trkpt lat="48.95528" lon="2.64708">
        <ele>54.6</ele>
        <time>2020-07-01T15:13:16Z</time>
      </trkpt>
      <trkpt lat="48.95527" lon="2.64698">
        <ele>54.5</ele>
        <time>2020-07-01T15:13:17Z</time>
      </trkpt>
      <trkpt lat="48.95526" lon="2.64687">
        <ele>54.5</ele>
        <time>2020-07-01T15:13:18Z</time>
      </trkpt>
      <trkpt lat="48.95525" lon="2.64677">
        <ele>54.6</ele>
        <time>2020-07-01T15:13:19Z</time>
      </trkpt>
      <trkpt lat="48.95524" lon="2.64666">
        <ele>54.6</ele>
        <time>2020-07-01T15:13:20Z</time>
      </trkpt>
      <trkpt lat="48.95524" lon="2.64656">
        <ele>54.6</ele>
        <time>2020-07-01T15:13:21Z</time>
      </trkpt>
      <trkpt lat="48.95523" lon="2.64646">
        <ele>54.6</ele>
        <time>2020-07-01T15:13:22Z</time>
      </trkpt>
      <trkpt lat="48.95521" lon="2.64636">
        <ele>54.6</ele>
        <time>2020-07-01T15:13:23Z</time>
      </trkpt>
      <trkpt lat="48.95521" lon="2.64626">
        <ele>54.5</ele>
        <time>2020-07-01T15:13:24Z</time>
      </trkpt>
      <trkpt lat="48.9552" lon="2.64615">
        <ele>54.5</ele>
        <time>2020-07-01T15:13:25Z</time>
      </trkpt>
      <trkpt lat="48.95519" lon="2.64604">
        <ele>54.4</ele>
        <time>2020-07-01T15:13:26Z</time>
      </trkpt>
      <trkpt lat="48.95518" lon="2.64593">
        <ele>54.4</ele>
        <time>2020-07-01T15:13:27Z</time>
      </trkpt>
      <trkpt lat="48.95517" lon="2.64581">
        <ele>54.4</ele>
        <time>2020-07-01T15:13:28Z</time>
      </trkpt>
      <trkpt lat="48.95517" lon="2.6457">
        <ele>54.4</ele>
        <time>2020-07-01T15:13:29Z</time>
      </trkpt>
      <trkpt lat="48.95515" lon="2.64559">
        <ele>54.5</ele>
        <time>2020-07-01T15:13:30Z</time>
      </trkpt>
      <trkpt lat="48.95514" lon="2.64548">
        <ele>54.5</ele>
        <time>2020-07-01T15:13:31Z</time>
      </trkpt>
      <trkpt lat="48.95513" lon="2.64537">
        <ele>54.6</ele>
        <time>2020-07-01T15:13:32Z</time>
      </trkpt>
      <trkpt lat="48.95512" lon="2.64526">
        <ele>54.6</ele>
        <time>2020-07-01T15:13:33Z</time>
      </trkpt>
      <trkpt lat="48.9551" lon="2.64515">
        <ele>54.6</ele>
        <time>2020-07-01T15:13:34Z</time>
      </trkpt>
      <trkpt lat="48.95508" lon="2.64504">
        <ele>54.6</ele>
        <time>2020-07-01T15:13:35Z</time>
      </trkpt>
      <trkpt lat="48.95507" lon="2.64492">
        <ele>54.6</ele>
        <time>2020-07-01T15:13:36Z</time>
      </trkpt>
      <trkpt lat="48.95505" lon="2.64481">
        <ele>54.6</ele>
        <time>2020-07-01T15:13:37Z</time>
      </trkpt>
      <trkpt lat="48.95504" lon="2.6447">
        <ele>54.6</ele>
        <time>2020-07-01T15:13:38Z</time>
      </trkpt>
      <trkpt lat="48.95502" lon="2.64459">
        <ele>54.6</ele>
        <time>2020-07-01T15:13:39Z</time>
      </trkpt>
      <trkpt lat="48.95501" lon="2.64448">
        <ele>54.6</ele>
        <time>2020-07-01T15:13:40Z</time>
      </trkpt>
      <trkpt lat="48.955" lon="2.64437">
        <ele>54.6</ele>
        <time>2020-07-01T15:13:41Z</time>
      </trkpt>
      <trkpt lat="48.95499" lon="2.64426">
        <ele>54.6</ele>
        <time>2020-07-01T15:13:42Z</time>
      </trkpt>
      <trkpt lat="48.95499" lon="2.64415">
        <ele>54.6</ele>
        <time>2020-07-01T15:13:43Z</time>
      </trkpt>
      <trkpt lat="48.95498" lon="2.64405">
        <ele>54.6</ele>
        <time>2020-07-01T15:13:44Z</time>
      </trkpt>
      <trkpt lat="48.95497" lon="2.64395">
        <ele>54.6</ele>
        <time>2020-07-01T15:13:45Z</time>
      </trkpt>
      <trkpt lat="48.95497" lon="2.64385">
        <ele>54.7</ele>
        <time>2020-07-01T15:13:46Z</time>
      </trkpt>
      <trkpt lat="48.95496" lon="2.64375">
        <ele>54.7</ele>
        <time>2020-07-01T15:13:47Z</time>
      </trkpt>
      <trkpt lat="48.95496" lon="2.64365">
        <ele>54.7</ele>
        <time>2020-07-01T15:13:48Z</time>
      </trkpt>
      <trkpt lat="48.95495" lon="2.64354">
        <ele>54.8</ele>
        <time>2020-07-01T15:13:49Z</time>
      </trkpt>
      <trkpt lat="48.95495" lon="2.64344">
        <ele>54.8</ele>
        <time>2020-07-01T15:13:50Z</time>
      </trkpt>
      <trkpt lat="48.95495" lon="2.64334">
        <ele>54.9</ele>
        <time>2020-07-01T15:13:51Z</time>
      </trkpt>
      <trkpt lat="48.95494" lon="2.64325">
        <ele>54.9</ele>
        <time>2020-07-01T15:13:52Z</time>
      </trkpt>
      <trkpt lat="48.95494" lon="2.64314">
        <ele>54.9</ele>
        <time>2020-07-01T15:13:53Z</time>
      </trkpt>
      <trkpt lat="48.95493" lon="2.64303">
        <ele>54.9</ele>
        <time>2020-07-01T15:13:54Z</time>
      </trkpt>
      <trkpt lat="48.95493" lon="2.64292">
        <ele>54.9</ele>
        <time>2020-07-01T15:13:55Z</time>
      </trkpt>
      <trkpt lat="48.95494" lon="2.64281">
        <ele>54.9</ele>
        <time>2020-07-01T15:13:56Z</time>
      </trkpt>
      <trkpt lat="48.95493" lon="2.6427">
        <ele>54.8</ele>
        <time>2020-07-01T15:13:57Z</time>
      </trkpt>
      <trkpt lat="48.95491" lon="2.64259">
        <ele>54.8</ele>
        <time>2020-07-01T15:13:58Z</time>
      </trkpt>
      <trkpt lat="48.95489" lon="2.64248">
        <ele>54.8</ele>
        <time>2020-07-01T15:13:59Z</time>
      </trkpt>
      <trkpt lat="48.95488" lon="2.64237">
        <ele>54.8</ele>
        <time>2020-07-01T15:14:00Z</time>
      </trkpt>
      <trkpt lat="48.95487" lon="2.64225">
        <ele>54.8</ele>
        <time>2020-07-01T15:14:01Z</time>
      </trkpt>
      <trkpt lat="48.95485" lon="2.64214">
        <ele>54.7</ele>
        <time>2020-07-01T15:14:02Z</time>
      </trkpt>
      <trkpt lat="48.95484" lon="2.64203">
        <ele>54.7</ele>
        <time>2020-07-01T15:14:03Z</time>
      </trkpt>
      <trkpt lat="48.95483" lon="2.64192">
        <ele>54.7</ele>
        <time>2020-07-01T15:14:04Z</time>
      </trkpt>
      <trkpt lat="48.95482" lon="2.6418">
        <ele>54.7</ele>
        <time>2020-07-01T15:14:05Z</time>
      </trkpt>
      <trkpt lat="48.9548" lon="2.64169">
        <ele>54.7</ele>
        <time>2020-07-01T15:14:06Z</time>
      </trkpt>
      <trkpt lat="48.9548" lon="2.64158">
        <ele>54.6</ele>
        <time>2020-07-01T15:14:07Z</time>
      </trkpt>
      <trkpt lat="48.9548" lon="2.64147">
        <ele>54.6</ele>
        <time>2020-07-01T15:14:08Z</time>
      </trkpt>
      <trkpt lat="48.95481" lon="2.64137">
        <ele>54.6</ele>
        <time>2020-07-01T15:14:09Z</time>
      </trkpt>
      <trkpt lat="48.9548" lon="2.64128">
        <ele>54.7</ele>
        <time>2020-07-01T15:14:10Z</time>
      </trkpt>
      <trkpt lat="48.9548" lon="2.64118">
        <ele>54.7</ele>
        <time>2020-07-01T15:14:11Z</time>
      </trkpt>
      <trkpt lat="48.9548" lon="2.64108">
        <ele>54.7</ele>
        <time>2020-07-01T15:14:12Z</time>
      </trkpt>
      <trkpt lat="48.95479" lon="2.64098">
        <ele>54.8</ele>
        <time>2020-07-01T15:14:13Z</time>
      </trkpt>
      <trkpt lat="48.95479" lon="2.64089">
        <ele>54.8</ele>
        <time>2020-07-01T15:14:14Z</time>
      </trkpt>
      <trkpt lat="48.95478" lon="2.64079">
        <ele>54.8</ele>
        <time>2020-07-01T15:14:15Z</time>
      </trkpt>
      <trkpt lat="48.95477" lon="2.64068">
        <ele>54.8</ele>
        <time>2020-07-01T15:14:16Z</time>
      </trkpt>
      <trkpt lat="48.95476" lon="2.64057">
        <ele>54.8</ele>
        <time>2020-07-01T15:14:17Z</time>
      </trkpt>
      <trkpt lat="48.95475" lon="2.64046">
        <ele>54.8</ele>
        <time>2020-07-01T15:14:18Z</time>
      </trkpt>
      <trkpt lat="48.95475" lon="2.64035">
        <ele>54.8</ele>
        <time>2020-07-01T15:14:19Z</time>
      </trkpt>
      <trkpt lat="48.95474" lon="2.64025">
        <ele>54.8</ele>
        <time>2020-07-01T15:14:20Z</time>
      </trkpt>
      <trkpt lat="48.95472" lon="2.64014">
        <ele>54.8</ele>
        <time>2020-07-01T15:14:21Z</time>
      </trkpt>
      <trkpt lat="48.95471" lon="2.64004">
        <ele>54.8</ele>
        <time>2020-07-01T15:14:22Z</time>
      </trkpt>
      <trkpt lat="48.95469" lon="2.63994">
        <ele>54.8</ele>
        <time>2020-07-01T15:14:23Z</time>
      </trkpt>
      <trkpt lat="48.95469" lon="2.63983">
        <ele>54.7</ele>
        <time>2020-07-01T15:14:24Z</time>
      </trkpt>
      <trkpt lat="48.95469" lon="2.63973">
        <ele>54.7</ele>
        <time>2020-07-01T15:14:25Z</time>
      </trkpt>
      <trkpt lat="48.95467" lon="2.63962">
        <ele>54.6</ele>
        <time>2020-07-01T15:14:26Z</time>
      </trkpt>
      <trkpt lat="48.95466" lon="2.6395">
        <ele>54.6</ele>
        <time>2020-07-01T15:14:27Z</time>
      </trkpt>
      <trkpt lat="48.95465" lon="2.63939">
        <ele>54.5</ele>
        <time>2020-07-01T15:14:28Z</time>
      </trkpt>
      <trkpt lat="48.95465" lon="2.63929">
        <ele>54.5</ele>
        <time>2020-07-01T15:14:29Z</time>
      </trkpt>
      <trkpt lat="48.95463" lon="2.63918">
        <ele>54.5</ele>
        <time>2020-07-01T15:14:30Z</time>
      </trkpt>
      <trkpt lat="48.95462" lon="2.63908">
        <ele>54.5</ele>
        <time>2020-07-01T15:14:31Z</time>
      </trkpt>
      <trkpt lat="48.9546" lon="2.63896">
        <ele>54.4</ele>
        <time>2020-07-01T15:14:32Z</time>
      </trkpt>
      <trkpt lat="48.95459" lon="2.63886">
        <ele>54.4</ele>
        <time>2020-07-01T15:14:33Z</time>
      </trkpt>
      <trkpt lat="48.95458" lon="2.63876">
        <ele>54.4</ele>
        <time>2020-07-01T15:14:34Z</time>
      </trkpt>
      <trkpt lat="48.95457" lon="2.63866">
        <ele>54.4</ele>
        <time>2020-07-01T15:14:35Z</time>
      </trkpt>
      <trkpt lat="48.95456" lon="2.63857">
        <ele>54.4</ele>
        <time>2020-07-01T15:14:36Z</time>
      </trkpt>
      <trkpt lat="48.95455" lon="2.63848">
        <ele>54.4</ele>
        <time>2020-07-01T15:14:37Z</time>
      </trkpt>
      <trkpt lat="48.95454" lon="2.63838">
        <ele>54.4</ele>
        <time>2020-07-01T15:14:38Z</time>
      </trkpt>
      <trkpt lat="48.95454" lon="2.63829">
        <ele>54.5</ele>
        <time>2020-07-01T15:14:39Z</time>
      </trkpt>
      <trkpt lat="48.95453" lon="2.6382">
        <ele>54.5</ele>
        <time>2020-07-01T15:14:40Z</time>
      </trkpt>
      <trkpt lat="48.95451" lon="2.63812">
        <ele>54.5</ele>
        <time>2020-07-01T15:14:41Z</time>
      </trkpt>
      <trkpt lat="48.9545" lon="2.63803">
        <ele>54.5</ele>
        <time>2020-07-01T15:14:42Z</time>
      </trkpt>
      <trkpt lat="48.95449" lon="2.63794">
        <ele>54.6</ele>
        <time>2020-07-01T15:14:43Z</time>
      </trkpt>
      <trkpt lat="48.95449" lon="2.63785">
        <ele>54.6</ele>
        <time>2020-07-01T15:14:44Z</time>
      </trkpt>
      <trkpt lat="48.95448" lon="2.63775">
        <ele>54.6</ele>
        <time>2020-07-01T15:14:45Z</time>
      </trkpt>
      <trkpt lat="48.95446" lon="2.63766">
        <ele>54.7</ele>
        <time>2020-07-01T15:14:46Z</time>
      </trkpt>
      <trkpt lat="48.95445" lon="2.63756">
        <ele>54.7</ele>
        <time>2020-07-01T15:14:47Z</time>
      </trkpt>
      <trkpt lat="48.95443" lon="2.63746">
        <ele>54.7</ele>
        <time>2020-07-01T15:14:48Z</time>
      </trkpt>
      <trkpt lat="48.95441" lon="2.63736">
        <ele>54.7</ele>
        <time>2020-07-01T15:14:49Z</time>
      </trkpt>
      <trkpt lat="48.95438" lon="2.63723">
        <ele>54.7</ele>
        <time>2020-07-01T15:14:50Z</time>
      </trkpt>
      <trkpt lat="48.95436" lon="2.63713">
        <ele>54.6</ele>
        <time>2020-07-01T15:14:51Z</time>
      </trkpt>
      <trkpt lat="48.95435" lon="2.63702">
        <ele>54.6</ele>
        <time>2020-07-01T15:14:52Z</time>
      </trkpt>
      <trkpt lat="48.95433" lon="2.63692">
        <ele>54.6</ele>
        <time>2020-07-01T15:14:53Z</time>
      </trkpt>
      <trkpt lat="48.95431" lon="2.6368">
        <ele>54.6</ele>
        <time>2020-07-01T15:14:54Z</time>
      </trkpt>
      <trkpt lat="48.9543" lon="2.63669">
        <ele>54.5</ele>
        <time>2020-07-01T15:14:55Z</time>
      </trkpt>
      <trkpt lat="48.95428" lon="2.63658">
        <ele>54.5</ele>
        <time>2020-07-01T15:14:56Z</time>
      </trkpt>
      <trkpt lat="48.95426" lon="2.63646">
        <ele>54.6</ele>
        <time>2020-07-01T15:14:57Z</time>
      </trkpt>
      <trkpt lat="48.95424" lon="2.63635">
        <ele>54.7</ele>
        <time>2020-07-01T15:14:58Z</time>
      </trkpt>
      <trkpt lat="48.95423" lon="2.63621">
        <ele>54.7</ele>
        <time>2020-07-01T15:14:59Z</time>
      </trkpt>
      <trkpt lat="48.95422" lon="2.63608">
        <ele>54.7</ele>
        <time>2020-07-01T15:15:00Z</time>
      </trkpt>
      <trkpt lat="48.95421" lon="2.63594">
        <ele>54.8</ele>
        <time>2020-07-01T15:15:01Z</time>
      </trkpt>
      <trkpt lat="48.9542" lon="2.63582">
        <ele>54.9</ele>
        <time>2020-07-01T15:15:02Z</time>
      </trkpt>
      <trkpt lat="48.95419" lon="2.63569">
        <ele>55</ele>
        <time>2020-07-01T15:15:03Z</time>
      </trkpt>
      <trkpt lat="48.95418" lon="2.63556">
        <ele>55.1</ele>
        <time>2020-07-01T15:15:04Z</time>
      </trkpt>
      <trkpt lat="48.95417" lon="2.63543">
        <ele>55.2</ele>
        <time>2020-07-01T15:15:05Z</time>
      </trkpt>
      <trkpt lat="48.95416" lon="2.63529">
        <ele>55.4</ele>
        <time>2020-07-01T15:15:06Z</time>
      </trkpt>
      <trkpt lat="48.95416" lon="2.63516">
        <ele>55.5</ele>
        <time>2020-07-01T15:15:07Z</time>
      </trkpt>
      <trkpt lat="48.95415" lon="2.63506">
        <ele>55.6</ele>
        <time>2020-07-01T15:15:08Z</time>
      </trkpt>
      <trkpt lat="48.95415" lon="2.63494">
        <ele>55.7</ele>
        <time>2020-07-01T15:15:09Z</time>
      </trkpt>
      <trkpt lat="48.95413" lon="2.63484">
        <ele>55.7</ele>
        <time>2020-07-01T15:15:10Z</time>
      </trkpt>
      <trkpt lat="48.95412" lon="2.6347">
        <ele>55.7</ele>
        <time>2020-07-01T15:15:11Z</time>
      </trkpt>
      <trkpt lat="48.95411" lon="2.63457">
        <ele>55.8</ele>
        <time>2020-07-01T15:15:12Z</time>
      </trkpt>
      <trkpt lat="48.9541" lon="2.63445">
        <ele>55.8</ele>
        <time>2020-07-01T15:15:13Z</time>
      </trkpt>
      <trkpt lat="48.95409" lon="2.63432">
        <ele>55.9</ele>
        <time>2020-07-01T15:15:14Z</time>
      </trkpt>
      <trkpt lat="48.95408" lon="2.63419">
        <ele>55.9</ele>
        <time>2020-07-01T15:15:15Z</time>
      </trkpt>
      <trkpt lat="48.95407" lon="2.63408">
        <ele>55.9</ele>
        <time>2020-07-01T15:15:16Z</time>
      </trkpt>
      <trkpt lat="48.95406" lon="2.63395">
        <ele>55.8</ele>
        <time>2020-07-01T15:15:17Z</time>
      </trkpt>
      <trkpt lat="48.95405" lon="2.63384">
        <ele>55.8</ele>
        <time>2020-07-01T15:15:18Z</time>
      </trkpt>
      <trkpt lat="48.95404" lon="2.63367">
        <ele>55.8</ele>
        <time>2020-07-01T15:15:19Z</time>
      </trkpt>
      <trkpt lat="48.95403" lon="2.63355">
        <ele>55.7</ele>
        <time>2020-07-01T15:15:20Z</time>
      </trkpt>
      <trkpt lat="48.95402" lon="2.63343">
        <ele>55.7</ele>
        <time>2020-07-01T15:15:21Z</time>
      </trkpt>
      <trkpt lat="48.95401" lon="2.63331">
        <ele>55.7</ele>
        <time>2020-07-01T15:15:22Z</time>
      </trkpt>
      <trkpt lat="48.954" lon="2.63319">
        <ele>55.6</ele>
        <time>2020-07-01T15:15:23Z</time>
      </trkpt>
      <trkpt lat="48.95399" lon="2.63308">
        <ele>55.6</ele>
        <time>2020-07-01T15:15:24Z</time>
      </trkpt>
      <trkpt lat="48.95399" lon="2.63298">
        <ele>55.6</ele>
        <time>2020-07-01T15:15:25Z</time>
      </trkpt>
      <trkpt lat="48.95398" lon="2.63286">
        <ele>55.6</ele>
        <time>2020-07-01T15:15:26Z</time>
      </trkpt>
      <trkpt lat="48.95398" lon="2.63274">
        <ele>55.6</ele>
        <time>2020-07-01T15:15:27Z</time>
      </trkpt>
      <trkpt lat="48.95397" lon="2.63263">
        <ele>55.6</ele>
        <time>2020-07-01T15:15:28Z</time>
      </trkpt>
      <trkpt lat="48.95396" lon="2.63253">
        <ele>55.6</ele>
        <time>2020-07-01T15:15:29Z</time>
      </trkpt>
      <trkpt lat="48.95395" lon="2.63243">
        <ele>55.5</ele>
        <time>2020-07-01T15:15:30Z</time>
      </trkpt>
      <trkpt lat="48.95394" lon="2.63233">
        <ele>55.5</ele>
        <time>2020-07-01T15:15:31Z</time>
      </trkpt>
      <trkpt lat="48.95392" lon="2.63221">
        <ele>55.5</ele>
        <time>2020-07-01T15:15:32Z</time>
      </trkpt>
      <trkpt lat="48.95391" lon="2.63209">
        <ele>55.5</ele>
        <time>2020-07-01T15:15:33Z</time>
      </trkpt>
      <trkpt lat="48.9539" lon="2.63198">
        <ele>55.5</ele>
        <time>2020-07-01T15:15:34Z</time>
      </trkpt>
      <trkpt lat="48.95389" lon="2.63187">
        <ele>55.4</ele>
        <time>2020-07-01T15:15:35Z</time>
      </trkpt>
      <trkpt lat="48.95389" lon="2.63176">
        <ele>55.4</ele>
        <time>2020-07-01T15:15:36Z</time>
      </trkpt>
      <trkpt lat="48.95388" lon="2.63163">
        <ele>55.4</ele>
        <time>2020-07-01T15:15:37Z</time>
      </trkpt>
      <trkpt lat="48.95387" lon="2.63151">
        <ele>55.4</ele>
        <time>2020-07-01T15:15:38Z</time>
      </trkpt>
      <trkpt lat="48.95386" lon="2.6314">
        <ele>55.4</ele>
        <time>2020-07-01T15:15:39Z</time>
      </trkpt>
      <trkpt lat="48.95384" lon="2.63129">
        <ele>55.4</ele>
        <time>2020-07-01T15:15:40Z</time>
      </trkpt>
      <trkpt lat="48.95383" lon="2.63117">
        <ele>55.4</ele>
        <time>2020-07-01T15:15:41Z</time>
      </trkpt>
      <trkpt lat="48.95381" lon="2.63106">
        <ele>55.4</ele>
        <time>2020-07-01T15:15:42Z</time>
      </trkpt>
      <trkpt lat="48.9538" lon="2.63095">
        <ele>55.4</ele>
        <time>2020-07-01T15:15:43Z</time>
      </trkpt>
      <trkpt lat="48.95379" lon="2.63086">
        <ele>55.3</ele>
        <time>2020-07-01T15:15:44Z</time>
      </trkpt>
      <trkpt lat="48.95378" lon="2.63077">
        <ele>55.3</ele>
        <time>2020-07-01T15:15:45Z</time>
      </trkpt>
      <trkpt lat="48.95376" lon="2.63067">
        <ele>55.3</ele>
        <time>2020-07-01T15:15:46Z</time>
      </trkpt>
      <trkpt lat="48.95375" lon="2.63058">
        <ele>55.3</ele>
        <time>2020-07-01T15:15:47Z</time>
      </trkpt>
      <trkpt lat="48.95374" lon="2.63046">
        <ele>55.2</ele>
        <time>2020-07-01T15:15:48Z</time>
      </trkpt>
      <trkpt lat="48.95373" lon="2.63035">
        <ele>55.2</ele>
        <time>2020-07-01T15:15:49Z</time>
      </trkpt>
      <trkpt lat="48.95372" lon="2.63025">
        <ele>55.2</ele>
        <time>2020-07-01T15:15:50Z</time>
      </trkpt>
      <trkpt lat="48.95371" lon="2.63014">
        <ele>55.2</ele>
        <time>2020-07-01T15:15:51Z</time>
      </trkpt>
      <trkpt lat="48.95369" lon="2.63003">
        <ele>55.2</ele>
        <time>2020-07-01T15:15:52Z</time>
      </trkpt>
      <trkpt lat="48.95369" lon="2.62993">
        <ele>55.2</ele>
        <time>2020-07-01T15:15:53Z</time>
      </trkpt>
      <trkpt lat="48.95368" lon="2.62981">
        <ele>55.2</ele>
        <time>2020-07-01T15:15:54Z</time>
      </trkpt>
      <trkpt lat="48.95367" lon="2.62971">
        <ele>55.3</ele>
        <time>2020-07-01T15:15:55Z</time>
      </trkpt>
      <trkpt lat="48.95366" lon="2.62961">
        <ele>55.3</ele>
        <time>2020-07-01T15:15:56Z</time>
      </trkpt>
      <trkpt lat="48.95365" lon="2.62952">
        <ele>55.4</ele>
        <time>2020-07-01T15:15:57Z</time>
      </trkpt>
      <trkpt lat="48.95365" lon="2.62944">
        <ele>55.4</ele>
        <time>2020-07-01T15:15:58Z</time>
      </trkpt>
      <trkpt lat="48.95365" lon="2.62935">
        <ele>55.5</ele>
        <time>2020-07-01T15:15:59Z</time>
      </trkpt>
      <trkpt lat="48.95363" lon="2.62927">
        <ele>55.5</ele>
        <time>2020-07-01T15:16:00Z</time>
      </trkpt>
      <trkpt lat="48.95363" lon="2.62919">
        <ele>55.6</ele>
        <time>2020-07-01T15:16:01Z</time>
      </trkpt>
      <trkpt lat="48.95362" lon="2.62912">
        <ele>55.6</ele>
        <time>2020-07-01T15:16:02Z</time>
      </trkpt>
      <trkpt lat="48.95362" lon="2.62902">
        <ele>55.6</ele>
        <time>2020-07-01T15:16:03Z</time>
      </trkpt>
      <trkpt lat="48.95361" lon="2.62893">
        <ele>55.5</ele>
        <time>2020-07-01T15:16:04Z</time>
      </trkpt>
      <trkpt lat="48.95361" lon="2.62885">
        <ele>55.5</ele>
        <time>2020-07-01T15:16:05Z</time>
      </trkpt>
      <trkpt lat="48.9536" lon="2.62874">
        <ele>55.5</ele>
        <time>2020-07-01T15:16:06Z</time>
      </trkpt>
      <trkpt lat="48.95358" lon="2.62862">
        <ele>55.4</ele>
        <time>2020-07-01T15:16:07Z</time>
      </trkpt>
      <trkpt lat="48.95357" lon="2.62849">
        <ele>55.3</ele>
        <time>2020-07-01T15:16:08Z</time>
      </trkpt>
      <trkpt lat="48.95355" lon="2.62835">
        <ele>55.3</ele>
        <time>2020-07-01T15:16:09Z</time>
      </trkpt>
      <trkpt lat="48.95354" lon="2.62825">
        <ele>55.2</ele>
        <time>2020-07-01T15:16:10Z</time>
      </trkpt>
      <trkpt lat="48.95352" lon="2.62814">
        <ele>55.2</ele>
        <time>2020-07-01T15:16:11Z</time>
      </trkpt>
      <trkpt lat="48.95351" lon="2.62805">
        <ele>55.2</ele>
        <time>2020-07-01T15:16:12Z</time>
      </trkpt>
      <trkpt lat="48.9535" lon="2.62796">
        <ele>55.2</ele>
        <time>2020-07-01T15:16:13Z</time>
      </trkpt>
      <trkpt lat="48.95349" lon="2.62788">
        <ele>55.2</ele>
        <time>2020-07-01T15:16:14Z</time>
      </trkpt>
      <trkpt lat="48.95348" lon="2.62781">
        <ele>55.1</ele>
        <time>2020-07-01T15:16:15Z</time>
      </trkpt>
      <trkpt lat="48.95348" lon="2.62773">
        <ele>55.1</ele>
        <time>2020-07-01T15:16:16Z</time>
      </trkpt>
      <trkpt lat="48.95348" lon="2.62766">
        <ele>55</ele>
        <time>2020-07-01T15:16:17Z</time>
      </trkpt>
      <trkpt lat="48.95349" lon="2.62758">
        <ele>54.9</ele>
        <time>2020-07-01T15:16:18Z</time>
      </trkpt>
      <trkpt lat="48.9535" lon="2.62747">
        <ele>54.8</ele>
        <time>2020-07-01T15:16:19Z</time>
      </trkpt>
      <trkpt lat="48.95349" lon="2.62736">
        <ele>54.8</ele>
        <time>2020-07-01T15:16:20Z</time>
      </trkpt>
      <trkpt lat="48.95348" lon="2.62728">
        <ele>54.8</ele>
        <time>2020-07-01T15:16:21Z</time>
      </trkpt>
      <trkpt lat="48.95347" lon="2.62717">
        <ele>54.8</ele>
        <time>2020-07-01T15:16:22Z</time>
      </trkpt>
      <trkpt lat="48.95347" lon="2.62705">
        <ele>54.8</ele>
        <time>2020-07-01T15:16:23Z</time>
      </trkpt>
      <trkpt lat="48.95346" lon="2.62693">
        <ele>54.8</ele>
        <time>2020-07-01T15:16:24Z</time>
      </trkpt>
      <trkpt lat="48.95346" lon="2.62683">
        <ele>54.8</ele>
        <time>2020-07-01T15:16:25Z</time>
      </trkpt>
      <trkpt lat="48.95345" lon="2.62674">
        <ele>54.8</ele>
        <time>2020-07-01T15:16:26Z</time>
      </trkpt>
      <trkpt lat="48.95344" lon="2.62664">
        <ele>54.8</ele>
        <time>2020-07-01T15:16:27Z</time>
      </trkpt>
      <trkpt lat="48.95343" lon="2.62653">
        <ele>54.8</ele>
        <time>2020-07-01T15:16:28Z</time>
      </trkpt>
      <trkpt lat="48.95343" lon="2.62642">
        <ele>54.8</ele>
        <time>2020-07-01T15:16:29Z</time>
      </trkpt>
      <trkpt lat="48.95342" lon="2.62632">
        <ele>54.8</ele>
        <time>2020-07-01T15:16:30Z</time>
      </trkpt>
      <trkpt lat="48.95341" lon="2.62621">
        <ele>54.7</ele>
        <time>2020-07-01T15:16:31Z</time>
      </trkpt>
      <trkpt lat="48.9534" lon="2.62612">
        <ele>54.7</ele>
        <time>2020-07-01T15:16:32Z</time>
      </trkpt>
      <trkpt lat="48.95339" lon="2.62602">
        <ele>54.7</ele>
        <time>2020-07-01T15:16:33Z</time>
      </trkpt>
      <trkpt lat="48.95338" lon="2.62591">
        <ele>54.7</ele>
        <time>2020-07-01T15:16:34Z</time>
      </trkpt>
      <trkpt lat="48.95337" lon="2.62581">
        <ele>54.7</ele>
        <time>2020-07-01T15:16:35Z</time>
      </trkpt>
      <trkpt lat="48.95336" lon="2.62569">
        <ele>54.7</ele>
        <time>2020-07-01T15:16:36Z</time>
      </trkpt>
      <trkpt lat="48.95335" lon="2.62558">
        <ele>54.8</ele>
        <time>2020-07-01T15:16:37Z</time>
      </trkpt>
      <trkpt lat="48.95333" lon="2.62547">
        <ele>54.9</ele>
        <time>2020-07-01T15:16:38Z</time>
      </trkpt>
      <trkpt lat="48.95332" lon="2.62536">
        <ele>54.9</ele>
        <time>2020-07-01T15:16:39Z</time>
      </trkpt>
      <trkpt lat="48.95332" lon="2.62525">
        <ele>55</ele>
        <time>2020-07-01T15:16:40Z</time>
      </trkpt>
      <trkpt lat="48.95331" lon="2.62515">
        <ele>55</ele>
        <time>2020-07-01T15:16:41Z</time>
      </trkpt>
      <trkpt lat="48.9533" lon="2.62505">
        <ele>55.1</ele>
        <time>2020-07-01T15:16:42Z</time>
      </trkpt>
      <trkpt lat="48.95329" lon="2.62495">
        <ele>55.2</ele>
        <time>2020-07-01T15:16:43Z</time>
      </trkpt>
      <trkpt lat="48.95328" lon="2.62485">
        <ele>55.3</ele>
        <time>2020-07-01T15:16:44Z</time>
      </trkpt>
      <trkpt lat="48.95327" lon="2.62474">
        <ele>55.3</ele>
        <time>2020-07-01T15:16:45Z</time>
      </trkpt>
      <trkpt lat="48.95326" lon="2.62464">
        <ele>55.3</ele>
        <time>2020-07-01T15:16:46Z</time>
      </trkpt>
      <trkpt lat="48.95325" lon="2.62453">
        <ele>55.4</ele>
        <time>2020-07-01T15:16:47Z</time>
      </trkpt>
      <trkpt lat="48.95323" lon="2.62442">
        <ele>55.5</ele>
        <time>2020-07-01T15:16:48Z</time>
      </trkpt>
      <trkpt lat="48.95322" lon="2.62431">
        <ele>55.5</ele>
        <time>2020-07-01T15:16:49Z</time>
      </trkpt>
      <trkpt lat="48.95321" lon="2.62421">
        <ele>55.7</ele>
        <time>2020-07-01T15:16:50Z</time>
      </trkpt>
      <trkpt lat="48.9532" lon="2.6241">
        <ele>55.9</ele>
        <time>2020-07-01T15:16:51Z</time>
      </trkpt>
      <trkpt lat="48.9532" lon="2.624">
        <ele>56.1</ele>
        <time>2020-07-01T15:16:52Z</time>
      </trkpt>
      <trkpt lat="48.95321" lon="2.6239">
        <ele>56.4</ele>
        <time>2020-07-01T15:16:53Z</time>
      </trkpt>
      <trkpt lat="48.95321" lon="2.62381">
        <ele>56.6</ele>
        <time>2020-07-01T15:16:54Z</time>
      </trkpt>
      <trkpt lat="48.95322" lon="2.62372">
        <ele>56.7</ele>
        <time>2020-07-01T15:16:55Z</time>
      </trkpt>
      <trkpt lat="48.95322" lon="2.62363">
        <ele>56.9</ele>
        <time>2020-07-01T15:16:56Z</time>
      </trkpt>
      <trkpt lat="48.95322" lon="2.62354">
        <ele>57.1</ele>
        <time>2020-07-01T15:16:57Z</time>
      </trkpt>
      <trkpt lat="48.95322" lon="2.62345">
        <ele>57.2</ele>
        <time>2020-07-01T15:16:58Z</time>
      </trkpt>
      <trkpt lat="48.95322" lon="2.62336">
        <ele>57.3</ele>
        <time>2020-07-01T15:16:59Z</time>
      </trkpt>
      <trkpt lat="48.95321" lon="2.62327">
        <ele>57.3</ele>
        <time>2020-07-01T15:17:00Z</time>
      </trkpt>
      <trkpt lat="48.95321" lon="2.62318">
        <ele>57.4</ele>
        <time>2020-07-01T15:17:01Z</time>
      </trkpt>
      <trkpt lat="48.9532" lon="2.62309">
        <ele>57.5</ele>
        <time>2020-07-01T15:17:02Z</time>
      </trkpt>
      <trkpt lat="48.95319" lon="2.623">
        <ele>57.5</ele>
        <time>2020-07-01T15:17:03Z</time>
      </trkpt>
      <trkpt lat="48.95318" lon="2.62291">
        <ele>57.6</ele>
        <time>2020-07-01T15:17:04Z</time>
      </trkpt>
      <trkpt lat="48.95317" lon="2.62282">
        <ele>57.6</ele>
        <time>2020-07-01T15:17:05Z</time>
      </trkpt>
      <trkpt lat="48.95316" lon="2.62272">
        <ele>57.6</ele>
        <time>2020-07-01T15:17:06Z</time>
      </trkpt>
      <trkpt lat="48.95315" lon="2.62262">
        <ele>57.6</ele>
        <time>2020-07-01T15:17:07Z</time>
      </trkpt>
      <trkpt lat="48.95315" lon="2.62252">
        <ele>57.6</ele>
        <time>2020-07-01T15:17:08Z</time>
      </trkpt>
      <trkpt lat="48.95314" lon="2.62242">
        <ele>57.6</ele>
        <time>2020-07-01T15:17:09Z</time>
      </trkpt>
      <trkpt lat="48.95312" lon="2.62232">
        <ele>57.6</ele>
        <time>2020-07-01T15:17:10Z</time>
      </trkpt>
      <trkpt lat="48.95311" lon="2.62222">
        <ele>57.6</ele>
        <time>2020-07-01T15:17:11Z</time>
      </trkpt>
      <trkpt lat="48.9531" lon="2.62213">
        <ele>57.6</ele>
        <time>2020-07-01T15:17:12Z</time>
      </trkpt>
      <trkpt lat="48.95309" lon="2.62203">
        <ele>57.6</ele>
        <time>2020-07-01T15:17:13Z</time>
      </trkpt>
      <trkpt lat="48.95308" lon="2.62194">
        <ele>57.6</ele>
        <time>2020-07-01T15:17:14Z</time>
      </trkpt>
      <trkpt lat="48.95307" lon="2.62185">
        <ele>57.5</ele>
        <time>2020-07-01T15:17:15Z</time>
      </trkpt>
      <trkpt lat="48.95306" lon="2.62175">
        <ele>57.5</ele>
        <time>2020-07-01T15:17:16Z</time>
      </trkpt>
      <trkpt lat="48.95305" lon="2.62165">
        <ele>57.5</ele>
        <time>2020-07-01T15:17:17Z</time>
      </trkpt>
      <trkpt lat="48.95303" lon="2.62151">
        <ele>57.5</ele>
        <time>2020-07-01T15:17:18Z</time>
      </trkpt>
      <trkpt lat="48.95302" lon="2.62142">
        <ele>57.4</ele>
        <time>2020-07-01T15:17:19Z</time>
      </trkpt>
      <trkpt lat="48.95301" lon="2.62132">
        <ele>57.5</ele>
        <time>2020-07-01T15:17:20Z</time>
      </trkpt>
      <trkpt lat="48.95299" lon="2.62122">
        <ele>57.5</ele>
        <time>2020-07-01T15:17:21Z</time>
      </trkpt>
      <trkpt lat="48.95298" lon="2.62111">
        <ele>57.6</ele>
        <time>2020-07-01T15:17:22Z</time>
      </trkpt>
      <trkpt lat="48.95298" lon="2.62099">
        <ele>57.7</ele>
        <time>2020-07-01T15:17:23Z</time>
      </trkpt>
      <trkpt lat="48.95297" lon="2.62087">
        <ele>57.8</ele>
        <time>2020-07-01T15:17:24Z</time>
      </trkpt>
      <trkpt lat="48.95296" lon="2.62077">
        <ele>57.8</ele>
        <time>2020-07-01T15:17:25Z</time>
      </trkpt>
      <trkpt lat="48.95295" lon="2.62067">
        <ele>57.8</ele>
        <time>2020-07-01T15:17:26Z</time>
      </trkpt>
      <trkpt lat="48.95294" lon="2.62057">
        <ele>57.8</ele>
        <time>2020-07-01T15:17:27Z</time>
      </trkpt>
      <trkpt lat="48.95292" lon="2.62047">
        <ele>57.8</ele>
        <time>2020-07-01T15:17:28Z</time>
      </trkpt>
      <trkpt lat="48.95291" lon="2.62037">
        <ele>57.8</ele>
        <time>2020-07-01T15:17:29Z</time>
      </trkpt>
      <trkpt lat="48.9529" lon="2.62025">
        <ele>57.7</ele>
        <time>2020-07-01T15:17:30Z</time>
      </trkpt>
      <trkpt lat="48.95289" lon="2.62016">
        <ele>57.6</ele>
        <time>2020-07-01T15:17:31Z</time>
      </trkpt>
      <trkpt lat="48.95289" lon="2.62007">
        <ele>57.5</ele>
        <time>2020-07-01T15:17:32Z</time>
      </trkpt>
      <trkpt lat="48.95287" lon="2.61997">
        <ele>57.3</ele>
        <time>2020-07-01T15:17:33Z</time>
      </trkpt>
      <trkpt lat="48.95285" lon="2.61986">
        <ele>57</ele>
        <time>2020-07-01T15:17:34Z</time>
      </trkpt>
      <trkpt lat="48.95282" lon="2.61974">
        <ele>56.8</ele>
        <time>2020-07-01T15:17:35Z</time>
      </trkpt>
      <trkpt lat="48.9528" lon="2.61964">
        <ele>56.5</ele>
        <time>2020-07-01T15:17:36Z</time>
      </trkpt>
      <trkpt lat="48.95278" lon="2.61953">
        <ele>56.3</ele>
        <time>2020-07-01T15:17:37Z</time>
      </trkpt>
      <trkpt lat="48.95275" lon="2.61941">
        <ele>56.1</ele>
        <time>2020-07-01T15:17:38Z</time>
      </trkpt>
      <trkpt lat="48.95273" lon="2.61929">
        <ele>56</ele>
        <time>2020-07-01T15:17:39Z</time>
      </trkpt>
      <trkpt lat="48.95271" lon="2.61917">
        <ele>55.9</ele>
        <time>2020-07-01T15:17:40Z</time>
      </trkpt>
      <trkpt lat="48.95269" lon="2.61905">
        <ele>55.9</ele>
        <time>2020-07-01T15:17:41Z</time>
      </trkpt>
      <trkpt lat="48.95267" lon="2.61893">
        <ele>55.9</ele>
        <time>2020-07-01T15:17:42Z</time>
      </trkpt>
      <trkpt lat="48.95265" lon="2.61882">
        <ele>55.9</ele>
        <time>2020-07-01T15:17:43Z</time>
      </trkpt>
      <trkpt lat="48.95263" lon="2.61872">
        <ele>56</ele>
        <time>2020-07-01T15:17:44Z</time>
      </trkpt>
      <trkpt lat="48.95262" lon="2.61861">
        <ele>56.1</ele>
        <time>2020-07-01T15:17:45Z</time>
      </trkpt>
      <trkpt lat="48.9526" lon="2.6185">
        <ele>56.2</ele>
        <time>2020-07-01T15:17:46Z</time>
      </trkpt>
      <trkpt lat="48.95258" lon="2.61839">
        <ele>56.3</ele>
        <time>2020-07-01T15:17:47Z</time>
      </trkpt>
      <trkpt lat="48.95256" lon="2.61828">
        <ele>56.4</ele>
        <time>2020-07-01T15:17:48Z</time>
      </trkpt>
      <trkpt lat="48.95254" lon="2.61818">
        <ele>56.5</ele>
        <time>2020-07-01T15:17:49Z</time>
      </trkpt>
      <trkpt lat="48.95252" lon="2.61808">
        <ele>56.5</ele>
        <time>2020-07-01T15:17:50Z</time>
      </trkpt>
      <trkpt lat="48.95249" lon="2.61798">
        <ele>56.6</ele>
        <time>2020-07-01T15:17:51Z</time>
      </trkpt>
      <trkpt lat="48.95247" lon="2.61788">
        <ele>56.6</ele>
        <time>2020-07-01T15:17:52Z</time>
      </trkpt>
      <trkpt lat="48.95244" lon="2.61778">
        <ele>56.6</ele>
        <time>2020-07-01T15:17:53Z</time>
      </trkpt>
      <trkpt lat="48.95242" lon="2.61767">
        <ele>56.6</ele>
        <time>2020-07-01T15:17:54Z</time>
      </trkpt>
      <trkpt lat="48.95239" lon="2.61757">
        <ele>56.6</ele>
        <time>2020-07-01T15:17:55Z</time>
      </trkpt>
      <trkpt lat="48.95235" lon="2.61747">
        <ele>56.5</ele>
        <time>2020-07-01T15:17:56Z</time>
      </trkpt>
      <trkpt lat="48.95233" lon="2.61737">
        <ele>56.5</ele>
        <time>2020-07-01T15:17:57Z</time>
      </trkpt>
      <trkpt lat="48.9523" lon="2.61727">
        <ele>56.5</ele>
        <time>2020-07-01T15:17:58Z</time>
      </trkpt>
      <trkpt lat="48.95227" lon="2.61716">
        <ele>56.5</ele>
        <time>2020-07-01T15:17:59Z</time>
      </trkpt>
      <trkpt lat="48.95223" lon="2.61707">
        <ele>56.6</ele>
        <time>2020-07-01T15:18:00Z</time>
      </trkpt>
      <trkpt lat="48.95219" lon="2.61698">
        <ele>56.7</ele>
        <time>2020-07-01T15:18:01Z</time>
      </trkpt>
      <trkpt lat="48.95216" lon="2.61688">
        <ele>56.7</ele>
        <time>2020-07-01T15:18:02Z</time>
      </trkpt>
      <trkpt lat="48.95213" lon="2.61679">
        <ele>56.8</ele>
        <time>2020-07-01T15:18:03Z</time>
      </trkpt>
      <trkpt lat="48.95209" lon="2.61669">
        <ele>56.9</ele>
        <time>2020-07-01T15:18:04Z</time>
      </trkpt>
      <trkpt lat="48.95205" lon="2.6166">
        <ele>56.9</ele>
        <time>2020-07-01T15:18:05Z</time>
      </trkpt>
      <trkpt lat="48.95201" lon="2.61652">
        <ele>56.9</ele>
        <time>2020-07-01T15:18:06Z</time>
      </trkpt>
      <trkpt lat="48.95197" lon="2.61644">
        <ele>56.9</ele>
        <time>2020-07-01T15:18:07Z</time>
      </trkpt>
      <trkpt lat="48.95193" lon="2.61636">
        <ele>56.9</ele>
        <time>2020-07-01T15:18:08Z</time>
      </trkpt>
      <trkpt lat="48.9519" lon="2.61627">
        <ele>56.8</ele>
        <time>2020-07-01T15:18:09Z</time>
      </trkpt>
      <trkpt lat="48.95186" lon="2.61618">
        <ele>56.8</ele>
        <time>2020-07-01T15:18:10Z</time>
      </trkpt>
      <trkpt lat="48.95181" lon="2.61609">
        <ele>56.7</ele>
        <time>2020-07-01T15:18:11Z</time>
      </trkpt>
      <trkpt lat="48.95177" lon="2.616">
        <ele>56.7</ele>
        <time>2020-07-01T15:18:12Z</time>
      </trkpt>
      <trkpt lat="48.95173" lon="2.61591">
        <ele>56.7</ele>
        <time>2020-07-01T15:18:13Z</time>
      </trkpt>
      <trkpt lat="48.95169" lon="2.61581">
        <ele>56.7</ele>
        <time>2020-07-01T15:18:14Z</time>
      </trkpt>
      <trkpt lat="48.95165" lon="2.61572">
        <ele>56.7</ele>
        <time>2020-07-01T15:18:15Z</time>
      </trkpt>
      <trkpt lat="48.95161" lon="2.61564">
        <ele>56.7</ele>
        <time>2020-07-01T15:18:16Z</time>
      </trkpt>
      <trkpt lat="48.95157" lon="2.61556">
        <ele>56.7</ele>
        <time>2020-07-01T15:18:17Z</time>
      </trkpt>
      <trkpt lat="48.95153" lon="2.61548">
        <ele>56.7</ele>
        <time>2020-07-01T15:18:18Z</time>
      </trkpt>
      <trkpt lat="48.9515" lon="2.6154">
        <ele>56.6</ele>
        <time>2020-07-01T15:18:19Z</time>
      </trkpt>
      <trkpt lat="48.95146" lon="2.61533">
        <ele>56.6</ele>
        <time>2020-07-01T15:18:20Z</time>
      </trkpt>
      <trkpt lat="48.95141" lon="2.61526">
        <ele>56.5</ele>
        <time>2020-07-01T15:18:21Z</time>
      </trkpt>
      <trkpt lat="48.95137" lon="2.6152">
        <ele>56.5</ele>
        <time>2020-07-01T15:18:22Z</time>
      </trkpt>
      <trkpt lat="48.95132" lon="2.61512">
        <ele>56.4</ele>
        <time>2020-07-01T15:18:23Z</time>
      </trkpt>
      <trkpt lat="48.95128" lon="2.61505">
        <ele>56.3</ele>
        <time>2020-07-01T15:18:24Z</time>
      </trkpt>
      <trkpt lat="48.95124" lon="2.61498">
        <ele>56.2</ele>
        <time>2020-07-01T15:18:25Z</time>
      </trkpt>
      <trkpt lat="48.9512" lon="2.61488">
        <ele>56.1</ele>
        <time>2020-07-01T15:18:26Z</time>
      </trkpt>
      <trkpt lat="48.95116" lon="2.61478">
        <ele>56.1</ele>
        <time>2020-07-01T15:18:27Z</time>
      </trkpt>
      <trkpt lat="48.95114" lon="2.61466">
        <ele>56.2</ele>
        <time>2020-07-01T15:18:28Z</time>
      </trkpt>
      <trkpt lat="48.95111" lon="2.61455">
        <ele>56.3</ele>
        <time>2020-07-01T15:18:29Z</time>
      </trkpt>
      <trkpt lat="48.95109" lon="2.61445">
        <ele>56.5</ele>
        <time>2020-07-01T15:18:30Z</time>
      </trkpt>
      <trkpt lat="48.95107" lon="2.61436">
        <ele>56.8</ele>
        <time>2020-07-01T15:18:31Z</time>
      </trkpt>
      <trkpt lat="48.95106" lon="2.61426">
        <ele>57</ele>
        <time>2020-07-01T15:18:32Z</time>
      </trkpt>
      <trkpt lat="48.95104" lon="2.61418">
        <ele>57.2</ele>
        <time>2020-07-01T15:18:33Z</time>
      </trkpt>
      <trkpt lat="48.95103" lon="2.61409">
        <ele>57.4</ele>
        <time>2020-07-01T15:18:34Z</time>
      </trkpt>
      <trkpt lat="48.95101" lon="2.614">
        <ele>57.7</ele>
        <time>2020-07-01T15:18:35Z</time>
      </trkpt>
      <trkpt lat="48.95099" lon="2.61393">
        <ele>57.9</ele>
        <time>2020-07-01T15:18:36Z</time>
      </trkpt>
      <trkpt lat="48.95097" lon="2.61385">
        <ele>58</ele>
        <time>2020-07-01T15:18:37Z</time>
      </trkpt>
      <trkpt lat="48.95095" lon="2.61378">
        <ele>58.1</ele>
        <time>2020-07-01T15:18:38Z</time>
      </trkpt>
      <trkpt lat="48.95094" lon="2.6137">
        <ele>58.1</ele>
        <time>2020-07-01T15:18:39Z</time>
      </trkpt>
      <trkpt lat="48.95092" lon="2.61362">
        <ele>58.2</ele>
        <time>2020-07-01T15:18:40Z</time>
      </trkpt>
      <trkpt lat="48.9509" lon="2.61354">
        <ele>58.2</ele>
        <time>2020-07-01T15:18:41Z</time>
      </trkpt>
      <trkpt lat="48.95089" lon="2.61346">
        <ele>58.2</ele>
        <time>2020-07-01T15:18:42Z</time>
      </trkpt>
      <trkpt lat="48.95088" lon="2.61339">
        <ele>58.3</ele>
        <time>2020-07-01T15:18:43Z</time>
      </trkpt>
      <trkpt lat="48.95087" lon="2.61331">
        <ele>58.3</ele>
        <time>2020-07-01T15:18:44Z</time>
      </trkpt>
      <trkpt lat="48.95086" lon="2.61323">
        <ele>58.3</ele>
        <time>2020-07-01T15:18:45Z</time>
      </trkpt>
      <trkpt lat="48.95086" lon="2.61315">
        <ele>58.3</ele>
        <time>2020-07-01T15:18:46Z</time>
      </trkpt>
      <trkpt lat="48.95086" lon="2.61306">
        <ele>58.4</ele>
        <time>2020-07-01T15:18:47Z</time>
      </trkpt>
      <trkpt lat="48.95086" lon="2.61297">
        <ele>58.4</ele>
        <time>2020-07-01T15:18:48Z</time>
      </trkpt>
      <trkpt lat="48.95085" lon="2.61287">
        <ele>58.4</ele>
        <time>2020-07-01T15:18:49Z</time>
      </trkpt>
      <trkpt lat="48.95085" lon="2.61278">
        <ele>58.5</ele>
        <time>2020-07-01T15:18:50Z</time>
      </trkpt>
      <trkpt lat="48.95085" lon="2.61269">
        <ele>58.5</ele>
        <time>2020-07-01T15:18:51Z</time>
      </trkpt>
      <trkpt lat="48.95085" lon="2.6126">
        <ele>58.5</ele>
        <time>2020-07-01T15:18:52Z</time>
      </trkpt>
      <trkpt lat="48.95085" lon="2.61252">
        <ele>58.5</ele>
        <time>2020-07-01T15:18:53Z</time>
      </trkpt>
      <trkpt lat="48.95085" lon="2.61243">
        <ele>58.6</ele>
        <time>2020-07-01T15:18:54Z</time>
      </trkpt>
      <trkpt lat="48.95085" lon="2.61235">
        <ele>58.6</ele>
        <time>2020-07-01T15:18:55Z</time>
      </trkpt>
      <trkpt lat="48.95085" lon="2.61226">
        <ele>58.6</ele>
        <time>2020-07-01T15:18:56Z</time>
      </trkpt>
      <trkpt lat="48.95086" lon="2.61217">
        <ele>58.6</ele>
        <time>2020-07-01T15:18:57Z</time>
      </trkpt>
      <trkpt lat="48.95087" lon="2.61208">
        <ele>58.5</ele>
        <time>2020-07-01T15:18:58Z</time>
      </trkpt>
      <trkpt lat="48.95088" lon="2.61199">
        <ele>58.5</ele>
        <time>2020-07-01T15:18:59Z</time>
      </trkpt>
      <trkpt lat="48.95089" lon="2.6119">
        <ele>58.5</ele>
        <time>2020-07-01T15:19:00Z</time>
      </trkpt>
      <trkpt lat="48.9509" lon="2.6118">
        <ele>58.5</ele>
        <time>2020-07-01T15:19:01Z</time>
      </trkpt>
      <trkpt lat="48.95092" lon="2.61171">
        <ele>58.5</ele>
        <time>2020-07-01T15:19:02Z</time>
      </trkpt>
      <trkpt lat="48.95093" lon="2.61161">
        <ele>58.5</ele>
        <time>2020-07-01T15:19:03Z</time>
      </trkpt>
      <trkpt lat="48.95096" lon="2.61152">
        <ele>58.5</ele>
        <time>2020-07-01T15:19:04Z</time>
      </trkpt>
      <trkpt lat="48.95097" lon="2.61144">
        <ele>58.6</ele>
        <time>2020-07-01T15:19:05Z</time>
      </trkpt>
      <trkpt lat="48.951" lon="2.61135">
        <ele>58.6</ele>
        <time>2020-07-01T15:19:06Z</time>
      </trkpt>
      <trkpt lat="48.95102" lon="2.61125">
        <ele>58.6</ele>
        <time>2020-07-01T15:19:07Z</time>
      </trkpt>
      <trkpt lat="48.95105" lon="2.61116">
        <ele>58.7</ele>
        <time>2020-07-01T15:19:08Z</time>
      </trkpt>
      <trkpt lat="48.95107" lon="2.61107">
        <ele>58.7</ele>
        <time>2020-07-01T15:19:09Z</time>
      </trkpt>
      <trkpt lat="48.95109" lon="2.61097">
        <ele>58.7</ele>
        <time>2020-07-01T15:19:10Z</time>
      </trkpt>
      <trkpt lat="48.95112" lon="2.61089">
        <ele>58.7</ele>
        <time>2020-07-01T15:19:11Z</time>
      </trkpt>
      <trkpt lat="48.95114" lon="2.6108">
        <ele>58.7</ele>
        <time>2020-07-01T15:19:12Z</time>
      </trkpt>
      <trkpt lat="48.95117" lon="2.61072">
        <ele>58.7</ele>
        <time>2020-07-01T15:19:13Z</time>
      </trkpt>
      <trkpt lat="48.95119" lon="2.61063">
        <ele>58.8</ele>
        <time>2020-07-01T15:19:14Z</time>
      </trkpt>
      <trkpt lat="48.95122" lon="2.61055">
        <ele>58.8</ele>
        <time>2020-07-01T15:19:15Z</time>
      </trkpt>
      <trkpt lat="48.95125" lon="2.61045">
        <ele>58.8</ele>
        <time>2020-07-01T15:19:16Z</time>
      </trkpt>
      <trkpt lat="48.95127" lon="2.61036">
        <ele>58.7</ele>
        <time>2020-07-01T15:19:17Z</time>
      </trkpt>
      <trkpt lat="48.9513" lon="2.61027">
        <ele>58.7</ele>
        <time>2020-07-01T15:19:18Z</time>
      </trkpt>
      <trkpt lat="48.95133" lon="2.61018">
        <ele>58.7</ele>
        <time>2020-07-01T15:19:19Z</time>
      </trkpt>
      <trkpt lat="48.95136" lon="2.61009">
        <ele>58.7</ele>
        <time>2020-07-01T15:19:20Z</time>
      </trkpt>
      <trkpt lat="48.95139" lon="2.61">
        <ele>58.7</ele>
        <time>2020-07-01T15:19:21Z</time>
      </trkpt>
      <trkpt lat="48.95141" lon="2.6099">
        <ele>58.7</ele>
        <time>2020-07-01T15:19:22Z</time>
      </trkpt>
      <trkpt lat="48.95144" lon="2.6098">
        <ele>58.7</ele>
        <time>2020-07-01T15:19:23Z</time>
      </trkpt>
      <trkpt lat="48.95146" lon="2.6097">
        <ele>58.7</ele>
        <time>2020-07-01T15:19:24Z</time>
      </trkpt>
      <trkpt lat="48.95149" lon="2.6096">
        <ele>58.7</ele>
        <time>2020-07-01T15:19:25Z</time>
      </trkpt>
      <trkpt lat="48.95152" lon="2.6095">
        <ele>58.7</ele>
        <time>2020-07-01T15:19:26Z</time>
      </trkpt>
      <trkpt lat="48.95155" lon="2.60939">
        <ele>58.6</ele>
        <time>2020-07-01T15:19:27Z</time>
      </trkpt>
      <trkpt lat="48.95158" lon="2.60929">
        <ele>58.6</ele>
        <time>2020-07-01T15:19:28Z</time>
      </trkpt>
      <trkpt lat="48.95161" lon="2.60918">
        <ele>58.6</ele>
        <time>2020-07-01T15:19:29Z</time>
      </trkpt>
      <trkpt lat="48.95164" lon="2.60907">
        <ele>58.5</ele>
        <time>2020-07-01T15:19:30Z</time>
      </trkpt>
      <trkpt lat="48.95166" lon="2.60896">
        <ele>58.5</ele>
        <time>2020-07-01T15:19:31Z</time>
      </trkpt>
      <trkpt lat="48.95168" lon="2.60885">
        <ele>58.4</ele>
        <time>2020-07-01T15:19:32Z</time>
      </trkpt>
      <trkpt lat="48.9517" lon="2.60874">
        <ele>58.4</ele>
        <time>2020-07-01T15:19:33Z</time>
      </trkpt>
      <trkpt lat="48.95172" lon="2.60863">
        <ele>58.3</ele>
        <time>2020-07-01T15:19:34Z</time>
      </trkpt>
      <trkpt lat="48.95174" lon="2.60852">
        <ele>58.3</ele>
        <time>2020-07-01T15:19:35Z</time>
      </trkpt>
      <trkpt lat="48.95177" lon="2.6084">
        <ele>58.3</ele>
        <time>2020-07-01T15:19:36Z</time>
      </trkpt>
      <trkpt lat="48.95179" lon="2.60829">
        <ele>58.2</ele>
        <time>2020-07-01T15:19:37Z</time>
      </trkpt>
      <trkpt lat="48.95181" lon="2.60819">
        <ele>58.2</ele>
        <time>2020-07-01T15:19:38Z</time>
      </trkpt>
      <trkpt lat="48.95184" lon="2.60808">
        <ele>58.2</ele>
        <time>2020-07-01T15:19:39Z</time>
      </trkpt>
      <trkpt lat="48.95186" lon="2.60798">
        <ele>58.3</ele>
        <time>2020-07-01T15:19:40Z</time>
      </trkpt>
      <trkpt lat="48.95188" lon="2.60788">
        <ele>58.3</ele>
        <time>2020-07-01T15:19:41Z</time>
      </trkpt>
      <trkpt lat="48.9519" lon="2.60778">
        <ele>58.4</ele>
        <time>2020-07-01T15:19:42Z</time>
      </trkpt>
      <trkpt lat="48.95192" lon="2.60768">
        <ele>58.4</ele>
        <time>2020-07-01T15:19:43Z</time>
      </trkpt>
      <trkpt lat="48.95194" lon="2.60759">
        <ele>58.4</ele>
        <time>2020-07-01T15:19:44Z</time>
      </trkpt>
      <trkpt lat="48.95196" lon="2.6075">
        <ele>58.5</ele>
        <time>2020-07-01T15:19:45Z</time>
      </trkpt>
      <trkpt lat="48.95198" lon="2.60742">
        <ele>58.5</ele>
        <time>2020-07-01T15:19:46Z</time>
      </trkpt>
      <trkpt lat="48.952" lon="2.60736">
        <ele>58.5</ele>
        <time>2020-07-01T15:19:47Z</time>
      </trkpt>
      <trkpt lat="48.95202" lon="2.6073">
        <ele>58.5</ele>
        <time>2020-07-01T15:19:48Z</time>
      </trkpt>
      <trkpt lat="48.95203" lon="2.60722">
        <ele>58.5</ele>
        <time>2020-07-01T15:19:49Z</time>
      </trkpt>
      <trkpt lat="48.95203" lon="2.60715">
        <ele>58.5</ele>
        <time>2020-07-01T15:19:50Z</time>
      </trkpt>
      <trkpt lat="48.95204" lon="2.60707">
        <ele>58.6</ele>
        <time>2020-07-01T15:19:51Z</time>
      </trkpt>
      <trkpt lat="48.95204" lon="2.60698">
        <ele>58.6</ele>
        <time>2020-07-01T15:19:52Z</time>
      </trkpt>
      <trkpt lat="48.95204" lon="2.60688">
        <ele>58.5</ele>
        <time>2020-07-01T15:19:53Z</time>
      </trkpt>
      <trkpt lat="48.95204" lon="2.60677">
        <ele>58.4</ele>
        <time>2020-07-01T15:19:54Z</time>
      </trkpt>
      <trkpt lat="48.95205" lon="2.60666">
        <ele>58.1</ele>
        <time>2020-07-01T15:19:55Z</time>
      </trkpt>
      <trkpt lat="48.95205" lon="2.60655">
        <ele>57.8</ele>
        <time>2020-07-01T15:19:56Z</time>
      </trkpt>
      <trkpt lat="48.95205" lon="2.60642">
        <ele>57.5</ele>
        <time>2020-07-01T15:19:57Z</time>
      </trkpt>
      <trkpt lat="48.95207" lon="2.60631">
        <ele>57.2</ele>
        <time>2020-07-01T15:19:58Z</time>
      </trkpt>
      <trkpt lat="48.9521" lon="2.60619">
        <ele>56.9</ele>
        <time>2020-07-01T15:19:59Z</time>
      </trkpt>
      <trkpt lat="48.95214" lon="2.6061">
        <ele>56.7</ele>
        <time>2020-07-01T15:20:00Z</time>
      </trkpt>
      <trkpt lat="48.9522" lon="2.60599">
        <ele>59.5</ele>
        <time>2020-07-01T15:20:01Z</time>
      </trkpt>
      <trkpt lat="48.95225" lon="2.6059">
        <ele>59.4</ele>
        <time>2020-07-01T15:20:02Z</time>
      </trkpt>
      <trkpt lat="48.95229" lon="2.60583">
        <ele>59.3</ele>
        <time>2020-07-01T15:20:03Z</time>
      </trkpt>
      <trkpt lat="48.95231" lon="2.60578">
        <ele>59.2</ele>
        <time>2020-07-01T15:20:04Z</time>
      </trkpt>
      <trkpt lat="48.95233" lon="2.60572">
        <ele>59.2</ele>
        <time>2020-07-01T15:20:05Z</time>
      </trkpt>
      <trkpt lat="48.95235" lon="2.60566">
        <ele>59.1</ele>
        <time>2020-07-01T15:20:06Z</time>
      </trkpt>
      <trkpt lat="48.95236" lon="2.60561">
        <ele>59</ele>
        <time>2020-07-01T15:20:07Z</time>
      </trkpt>
      <trkpt lat="48.95237" lon="2.60556">
        <ele>59</ele>
        <time>2020-07-01T15:20:08Z</time>
      </trkpt>
      <trkpt lat="48.95239" lon="2.60549">
        <ele>58.9</ele>
        <time>2020-07-01T15:20:09Z</time>
      </trkpt>
      <trkpt lat="48.9524" lon="2.60542">
        <ele>58.8</ele>
        <time>2020-07-01T15:20:10Z</time>
      </trkpt>
      <trkpt lat="48.95241" lon="2.60537">
        <ele>58.8</ele>
        <time>2020-07-01T15:20:11Z</time>
      </trkpt>
      <trkpt lat="48.95243" lon="2.60533">
        <ele>58.8</ele>
        <time>2020-07-01T15:20:12Z</time>
      </trkpt>
      <trkpt lat="48.95245" lon="2.60526">
        <ele>58.7</ele>
        <time>2020-07-01T15:20:13Z</time>
      </trkpt>
      <trkpt lat="48.95246" lon="2.60517">
        <ele>58.8</ele>
        <time>2020-07-01T15:20:14Z</time>
      </trkpt>
      <trkpt lat="48.95248" lon="2.60508">
        <ele>58.8</ele>
        <time>2020-07-01T15:20:15Z</time>
      </trkpt>
      <trkpt lat="48.9525" lon="2.605">
        <ele>58.8</ele>
        <time>2020-07-01T15:20:16Z</time>
      </trkpt>
      <trkpt lat="48.95252" lon="2.60491">
        <ele>58.8</ele>
        <time>2020-07-01T15:20:17Z</time>
      </trkpt>
      <trkpt lat="48.95254" lon="2.60481">
        <ele>58.8</ele>
        <time>2020-07-01T15:20:18Z</time>
      </trkpt>
      <trkpt lat="48.95255" lon="2.60472">
        <ele>58.7</ele>
        <time>2020-07-01T15:20:19Z</time>
      </trkpt>
      <trkpt lat="48.95256" lon="2.60463">
        <ele>58.7</ele>
        <time>2020-07-01T15:20:20Z</time>
      </trkpt>
      <trkpt lat="48.95257" lon="2.60453">
        <ele>58.7</ele>
        <time>2020-07-01T15:20:21Z</time>
      </trkpt>
      <trkpt lat="48.95258" lon="2.60444">
        <ele>58.7</ele>
        <time>2020-07-01T15:20:22Z</time>
      </trkpt>
      <trkpt lat="48.95259" lon="2.60434">
        <ele>58.8</ele>
        <time>2020-07-01T15:20:23Z</time>
      </trkpt>
      <trkpt lat="48.9526" lon="2.60425">
        <ele>58.9</ele>
        <time>2020-07-01T15:20:24Z</time>
      </trkpt>
      <trkpt lat="48.9526" lon="2.60415">
        <ele>58.9</ele>
        <time>2020-07-01T15:20:25Z</time>
      </trkpt>
      <trkpt lat="48.95261" lon="2.60406">
        <ele>59</ele>
        <time>2020-07-01T15:20:26Z</time>
      </trkpt>
      <trkpt lat="48.95262" lon="2.60397">
        <ele>59</ele>
        <time>2020-07-01T15:20:27Z</time>
      </trkpt>
      <trkpt lat="48.95263" lon="2.60388">
        <ele>59</ele>
        <time>2020-07-01T15:20:28Z</time>
      </trkpt>
      <trkpt lat="48.95263" lon="2.60379">
        <ele>59</ele>
        <time>2020-07-01T15:20:29Z</time>
      </trkpt>
      <trkpt lat="48.95263" lon="2.6037">
        <ele>59</ele>
        <time>2020-07-01T15:20:30Z</time>
      </trkpt>
      <trkpt lat="48.95262" lon="2.60361">
        <ele>58.9</ele>
        <time>2020-07-01T15:20:31Z</time>
      </trkpt>
      <trkpt lat="48.95262" lon="2.60352">
        <ele>58.8</ele>
        <time>2020-07-01T15:20:32Z</time>
      </trkpt>
      <trkpt lat="48.95261" lon="2.60343">
        <ele>58.6</ele>
        <time>2020-07-01T15:20:33Z</time>
      </trkpt>
      <trkpt lat="48.9526" lon="2.60334">
        <ele>58.4</ele>
        <time>2020-07-01T15:20:34Z</time>
      </trkpt>
      <trkpt lat="48.95258" lon="2.60324">
        <ele>58.1</ele>
        <time>2020-07-01T15:20:35Z</time>
      </trkpt>
      <trkpt lat="48.95255" lon="2.60313">
        <ele>57.7</ele>
        <time>2020-07-01T15:20:36Z</time>
      </trkpt>
      <trkpt lat="48.95253" lon="2.60302">
        <ele>57.3</ele>
        <time>2020-07-01T15:20:37Z</time>
      </trkpt>
      <trkpt lat="48.95251" lon="2.60291">
        <ele>57</ele>
        <time>2020-07-01T15:20:38Z</time>
      </trkpt>
      <trkpt lat="48.95249" lon="2.60279">
        <ele>56.6</ele>
        <time>2020-07-01T15:20:39Z</time>
      </trkpt>
      <trkpt lat="48.95247" lon="2.60268">
        <ele>56.3</ele>
        <time>2020-07-01T15:20:40Z</time>
      </trkpt>
      <trkpt lat="48.95244" lon="2.60256">
        <ele>56</ele>
        <time>2020-07-01T15:20:41Z</time>
      </trkpt>
      <trkpt lat="48.9524" lon="2.60245">
        <ele>55.9</ele>
        <time>2020-07-01T15:20:42Z</time>
      </trkpt>
      <trkpt lat="48.95238" lon="2.60234">
        <ele>55.8</ele>
        <time>2020-07-01T15:20:43Z</time>
      </trkpt>
      <trkpt lat="48.95237" lon="2.60223">
        <ele>55.8</ele>
        <time>2020-07-01T15:20:44Z</time>
      </trkpt>
      <trkpt lat="48.95236" lon="2.60213">
        <ele>55.8</ele>
        <time>2020-07-01T15:20:45Z</time>
      </trkpt>
      <trkpt lat="48.95237" lon="2.60205">
        <ele>55.9</ele>
        <time>2020-07-01T15:20:46Z</time>
      </trkpt>
      <trkpt lat="48.95237" lon="2.60199">
        <ele>56.2</ele>
        <time>2020-07-01T15:20:47Z</time>
      </trkpt>
      <trkpt lat="48.95237" lon="2.60193">
        <ele>56.5</ele>
        <time>2020-07-01T15:20:48Z</time>
      </trkpt>
      <trkpt lat="48.95237" lon="2.60187">
        <ele>56.7</ele>
        <time>2020-07-01T15:20:49Z</time>
      </trkpt>
      <trkpt lat="48.95236" lon="2.60182">
        <ele>57.1</ele>
        <time>2020-07-01T15:20:50Z</time>
      </trkpt>
      <trkpt lat="48.95236" lon="2.6018">
        <ele>57.2</ele>
        <time>2020-07-01T15:20:51Z</time>
      </trkpt>
      <trkpt lat="48.95235" lon="2.60175">
        <ele>57.5</ele>
        <time>2020-07-01T15:20:52Z</time>
      </trkpt>
      <trkpt lat="48.95235" lon="2.60173">
        <ele>57.6</ele>
        <time>2020-07-01T15:20:53Z</time>
      </trkpt>
      <trkpt lat="48.95235" lon="2.60171">
        <ele>57.8</ele>
        <time>2020-07-01T15:20:54Z</time>
      </trkpt>
      <trkpt lat="48.95235" lon="2.60169">
        <ele>57.9</ele>
        <time>2020-07-01T15:20:55Z</time>
      </trkpt>
      <trkpt lat="48.95235" lon="2.60167">
        <ele>58</ele>
        <time>2020-07-01T15:20:56Z</time>
      </trkpt>
      <trkpt lat="48.95236" lon="2.60165">
        <ele>58.2</ele>
        <time>2020-07-01T15:20:57Z</time>
      </trkpt>
      <trkpt lat="48.95235" lon="2.60164">
        <ele>58.3</ele>
        <time>2020-07-01T15:20:58Z</time>
      </trkpt>
      <trkpt lat="48.95235" lon="2.60161">
        <ele>58.5</ele>
        <time>2020-07-01T15:20:59Z</time>
      </trkpt>
      <trkpt lat="48.95235" lon="2.60159">
        <ele>60.5</ele>
        <time>2020-07-01T15:21:00Z</time>
      </trkpt>
      <trkpt lat="48.95234" lon="2.60158">
        <ele>60.5</ele>
        <time>2020-07-01T15:21:01Z</time>
      </trkpt>
      <trkpt lat="48.95231" lon="2.60159">
        <ele>60.5</ele>
        <time>2020-07-01T15:21:02Z</time>
      </trkpt>
      <trkpt lat="48.95228" lon="2.6016">
        <ele>60.6</ele>
        <time>2020-07-01T15:21:03Z</time>
      </trkpt>
      <trkpt lat="48.95225" lon="2.60161">
        <ele>60.7</ele>
        <time>2020-07-01T15:21:04Z</time>
      </trkpt>
      <trkpt lat="48.95221" lon="2.60162">
        <ele>60.7</ele>
        <time>2020-07-01T15:21:05Z</time>
      </trkpt>
      <trkpt lat="48.95217" lon="2.60163">
        <ele>60.8</ele>
        <time>2020-07-01T15:21:06Z</time>
      </trkpt>
      <trkpt lat="48.95214" lon="2.60164">
        <ele>60.8</ele>
        <time>2020-07-01T15:21:07Z</time>
      </trkpt>
      <trkpt lat="48.95211" lon="2.60164">
        <ele>60.8</ele>
        <time>2020-07-01T15:21:08Z</time>
      </trkpt>
      <trkpt lat="48.95208" lon="2.60163">
        <ele>60.8</ele>
        <time>2020-07-01T15:21:09Z</time>
      </trkpt>
      <trkpt lat="48.95205" lon="2.60164">
        <ele>60.8</ele>
        <time>2020-07-01T15:21:10Z</time>
      </trkpt>
      <trkpt lat="48.95202" lon="2.60164">
        <ele>60.8</ele>
        <time>2020-07-01T15:21:11Z</time>
      </trkpt>
      <trkpt lat="48.95198" lon="2.60163">
        <ele>60.8</ele>
        <time>2020-07-01T15:21:12Z</time>
      </trkpt>
      <trkpt lat="48.95196" lon="2.60161">
        <ele>60.8</ele>
        <time>2020-07-01T15:21:13Z</time>
      </trkpt>
      <trkpt lat="48.95196" lon="2.60159">
        <ele>60.8</ele>
        <time>2020-07-01T15:21:14Z</time>
      </trkpt>
      <trkpt lat="48.95196" lon="2.60158">
        <ele>60.6</ele>
        <time>2020-07-01T15:21:15Z</time>
      </trkpt>
      <trkpt lat="48.95197" lon="2.60152">
        <ele>60.2</ele>
        <time>2020-07-01T15:21:16Z</time>
      </trkpt>
      <trkpt lat="48.95197" lon="2.60145">
        <ele>59.7</ele>
        <time>2020-07-01T15:21:17Z</time>
      </trkpt>
      <trkpt lat="48.95196" lon="2.60137">
        <ele>59.1</ele>
        <time>2020-07-01T15:21:18Z</time>
      </trkpt>
      <trkpt lat="48.95195" lon="2.60129">
        <ele>58.6</ele>
        <time>2020-07-01T15:21:19Z</time>
      </trkpt>
      <trkpt lat="48.95194" lon="2.60121">
        <ele>58.1</ele>
        <time>2020-07-01T15:21:20Z</time>
      </trkpt>
      <trkpt lat="48.95193" lon="2.60113">
        <ele>57.8</ele>
        <time>2020-07-01T15:21:21Z</time>
      </trkpt>
      <trkpt lat="48.95191" lon="2.60105">
        <ele>57.5</ele>
        <time>2020-07-01T15:21:22Z</time>
      </trkpt>
      <trkpt lat="48.95188" lon="2.60096">
        <ele>57.5</ele>
        <time>2020-07-01T15:21:23Z</time>
      </trkpt>
      <trkpt lat="48.95186" lon="2.60088">
        <ele>57.5</ele>
        <time>2020-07-01T15:21:24Z</time>
      </trkpt>
      <trkpt lat="48.95184" lon="2.60082">
        <ele>57.7</ele>
        <time>2020-07-01T15:21:25Z</time>
      </trkpt>
      <trkpt lat="48.95182" lon="2.60078">
        <ele>57.8</ele>
        <time>2020-07-01T15:21:26Z</time>
      </trkpt>
      <trkpt lat="48.95179" lon="2.60076">
        <ele>57.9</ele>
        <time>2020-07-01T15:21:27Z</time>
      </trkpt>
      <trkpt lat="48.95177" lon="2.60072">
        <ele>58.1</ele>
        <time>2020-07-01T15:21:28Z</time>
      </trkpt>
      <trkpt lat="48.95177" lon="2.60071">
        <ele>58.1</ele>
        <time>2020-07-01T15:21:29Z</time>
      </trkpt>
      <trkpt lat="48.95175" lon="2.60067">
        <ele>58.3</ele>
        <time>2020-07-01T15:21:30Z</time>
      </trkpt>
      <trkpt lat="48.95175" lon="2.60065">
        <ele>58.4</ele>
        <time>2020-07-01T15:21:31Z</time>
      </trkpt>
      <trkpt lat="48.95174" lon="2.6006">
        <ele>58.5</ele>
        <time>2020-07-01T15:21:32Z</time>
      </trkpt>
      <trkpt lat="48.95173" lon="2.60059">
        <ele>58.6</ele>
        <time>2020-07-01T15:21:33Z</time>
      </trkpt>
      <trkpt lat="48.95173" lon="2.60054">
        <ele>58.8</ele>
        <time>2020-07-01T15:21:34Z</time>
      </trkpt>
      <trkpt lat="48.95172" lon="2.60052">
        <ele>58.8</ele>
        <time>2020-07-01T15:21:35Z</time>
      </trkpt>
      <trkpt lat="48.9517" lon="2.60048">
        <ele>59</ele>
        <time>2020-07-01T15:21:36Z</time>
      </trkpt>
      <trkpt lat="48.95169" lon="2.60046">
        <ele>59.1</ele>
        <time>2020-07-01T15:21:37Z</time>
      </trkpt>
      <trkpt lat="48.95167" lon="2.60042">
        <ele>59.2</ele>
        <time>2020-07-01T15:21:38Z</time>
      </trkpt>
      <trkpt lat="48.95165" lon="2.60037">
        <ele>59.3</ele>
        <time>2020-07-01T15:21:39Z</time>
      </trkpt>
      <trkpt lat="48.95164" lon="2.60033">
        <ele>59.4</ele>
        <time>2020-07-01T15:21:40Z</time>
      </trkpt>
      <trkpt lat="48.95161" lon="2.60029">
        <ele>59.4</ele>
        <time>2020-07-01T15:21:41Z</time>
      </trkpt>
      <trkpt lat="48.95159" lon="2.60025">
        <ele>59.5</ele>
        <time>2020-07-01T15:21:42Z</time>
      </trkpt>
      <trkpt lat="48.95157" lon="2.60021">
        <ele>59.5</ele>
        <time>2020-07-01T15:21:43Z</time>
      </trkpt>
      <trkpt lat="48.95156" lon="2.60015">
        <ele>59.6</ele>
        <time>2020-07-01T15:21:44Z</time>
      </trkpt>
      <trkpt lat="48.95153" lon="2.6001">
        <ele>59.6</ele>
        <time>2020-07-01T15:21:45Z</time>
      </trkpt>
      <trkpt lat="48.95151" lon="2.60006">
        <ele>59.6</ele>
        <time>2020-07-01T15:21:46Z</time>
      </trkpt>
      <trkpt lat="48.95151" lon="2.59999">
        <ele>59.7</ele>
        <time>2020-07-01T15:21:47Z</time>
      </trkpt>
      <trkpt lat="48.95149" lon="2.59994">
        <ele>59.7</ele>
        <time>2020-07-01T15:21:48Z</time>
      </trkpt>
      <trkpt lat="48.95146" lon="2.59989">
        <ele>59.7</ele>
        <time>2020-07-01T15:21:49Z</time>
      </trkpt>
      <trkpt lat="48.95145" lon="2.59984">
        <ele>59.7</ele>
        <time>2020-07-01T15:21:50Z</time>
      </trkpt>
      <trkpt lat="48.95144" lon="2.59978">
        <ele>59.7</ele>
        <time>2020-07-01T15:21:51Z</time>
      </trkpt>
      <trkpt lat="48.95143" lon="2.59972">
        <ele>59.7</ele>
        <time>2020-07-01T15:21:52Z</time>
      </trkpt>
      <trkpt lat="48.9514" lon="2.59966">
        <ele>59.7</ele>
        <time>2020-07-01T15:21:53Z</time>
      </trkpt>
      <trkpt lat="48.95138" lon="2.59961">
        <ele>59.7</ele>
        <time>2020-07-01T15:21:54Z</time>
      </trkpt>
      <trkpt lat="48.95137" lon="2.59954">
        <ele>59.7</ele>
        <time>2020-07-01T15:21:55Z</time>
      </trkpt>
      <trkpt lat="48.95135" lon="2.59947">
        <ele>59.8</ele>
        <time>2020-07-01T15:21:56Z</time>
      </trkpt>
      <trkpt lat="48.95132" lon="2.5994">
        <ele>59.8</ele>
        <time>2020-07-01T15:21:57Z</time>
      </trkpt>
      <trkpt lat="48.95131" lon="2.59934">
        <ele>59.8</ele>
        <time>2020-07-01T15:21:58Z</time>
      </trkpt>
      <trkpt lat="48.95129" lon="2.59928">
        <ele>59.8</ele>
        <time>2020-07-01T15:21:59Z</time>
      </trkpt>
      <trkpt lat="48.95126" lon="2.59922">
        <ele>59.8</ele>
        <time>2020-07-01T15:22:00Z</time>
      </trkpt>
      <trkpt lat="48.95123" lon="2.59915">
        <ele>59.8</ele>
        <time>2020-07-01T15:22:01Z</time>
      </trkpt>
      <trkpt lat="48.95121" lon="2.59908">
        <ele>59.9</ele>
        <time>2020-07-01T15:22:02Z</time>
      </trkpt>
      <trkpt lat="48.95118" lon="2.59902">
        <ele>59.9</ele>
        <time>2020-07-01T15:22:03Z</time>
      </trkpt>
      <trkpt lat="48.95115" lon="2.59895">
        <ele>59.9</ele>
        <time>2020-07-01T15:22:04Z</time>
      </trkpt>
      <trkpt lat="48.95112" lon="2.59888">
        <ele>59.9</ele>
        <time>2020-07-01T15:22:05Z</time>
      </trkpt>
      <trkpt lat="48.9511" lon="2.5988">
        <ele>59.9</ele>
        <time>2020-07-01T15:22:06Z</time>
      </trkpt>
      <trkpt lat="48.95108" lon="2.59872">
        <ele>60</ele>
        <time>2020-07-01T15:22:07Z</time>
      </trkpt>
      <trkpt lat="48.95106" lon="2.59865">
        <ele>60</ele>
        <time>2020-07-01T15:22:08Z</time>
      </trkpt>
      <trkpt lat="48.95104" lon="2.59858">
        <ele>60</ele>
        <time>2020-07-01T15:22:09Z</time>
      </trkpt>
      <trkpt lat="48.95102" lon="2.59851">
        <ele>60</ele>
        <time>2020-07-01T15:22:10Z</time>
      </trkpt>
      <trkpt lat="48.951" lon="2.59845">
        <ele>60</ele>
        <time>2020-07-01T15:22:11Z</time>
      </trkpt>
      <trkpt lat="48.95098" lon="2.59839">
        <ele>59.9</ele>
        <time>2020-07-01T15:22:12Z</time>
      </trkpt>
      <trkpt lat="48.95098" lon="2.59834">
        <ele>59.9</ele>
        <time>2020-07-01T15:22:13Z</time>
      </trkpt>
      <trkpt lat="48.95098" lon="2.59827">
        <ele>59.9</ele>
        <time>2020-07-01T15:22:14Z</time>
      </trkpt>
      <trkpt lat="48.95098" lon="2.59815">
        <ele>59.9</ele>
        <time>2020-07-01T15:22:15Z</time>
      </trkpt>
      <trkpt lat="48.95097" lon="2.598">
        <ele>59.8</ele>
        <time>2020-07-01T15:22:16Z</time>
      </trkpt>
      <trkpt lat="48.95094" lon="2.59787">
        <ele>59.7</ele>
        <time>2020-07-01T15:22:17Z</time>
      </trkpt>
      <trkpt lat="48.9509" lon="2.59774">
        <ele>59.5</ele>
        <time>2020-07-01T15:22:18Z</time>
      </trkpt>
      <trkpt lat="48.95087" lon="2.59764">
        <ele>59.1</ele>
        <time>2020-07-01T15:22:19Z</time>
      </trkpt>
      <trkpt lat="48.95084" lon="2.59754">
        <ele>58.6</ele>
        <time>2020-07-01T15:22:20Z</time>
      </trkpt>
      <trkpt lat="48.95081" lon="2.59743">
        <ele>58</ele>
        <time>2020-07-01T15:22:21Z</time>
      </trkpt>
      <trkpt lat="48.95078" lon="2.59731">
        <ele>57.5</ele>
        <time>2020-07-01T15:22:22Z</time>
      </trkpt>
      <trkpt lat="48.95075" lon="2.59719">
        <ele>57.1</ele>
        <time>2020-07-01T15:22:23Z</time>
      </trkpt>
      <trkpt lat="48.95072" lon="2.59707">
        <ele>56.9</ele>
        <time>2020-07-01T15:22:24Z</time>
      </trkpt>
      <trkpt lat="48.95068" lon="2.59693">
        <ele>56.8</ele>
        <time>2020-07-01T15:22:25Z</time>
      </trkpt>
      <trkpt lat="48.95064" lon="2.59679">
        <ele>56.7</ele>
        <time>2020-07-01T15:22:26Z</time>
      </trkpt>
      <trkpt lat="48.95061" lon="2.59667">
        <ele>56.6</ele>
        <time>2020-07-01T15:22:27Z</time>
      </trkpt>
      <trkpt lat="48.95057" lon="2.59654">
        <ele>56.5</ele>
        <time>2020-07-01T15:22:28Z</time>
      </trkpt>
      <trkpt lat="48.95054" lon="2.59637">
        <ele>56.3</ele>
        <time>2020-07-01T15:22:29Z</time>
      </trkpt>
      <trkpt lat="48.95051" lon="2.59621">
        <ele>56.2</ele>
        <time>2020-07-01T15:22:30Z</time>
      </trkpt>
      <trkpt lat="48.95048" lon="2.59608">
        <ele>56.1</ele>
        <time>2020-07-01T15:22:31Z</time>
      </trkpt>
      <trkpt lat="48.95045" lon="2.59595">
        <ele>56.1</ele>
        <time>2020-07-01T15:22:32Z</time>
      </trkpt>
      <trkpt lat="48.95042" lon="2.59578">
        <ele>56</ele>
        <time>2020-07-01T15:22:33Z</time>
      </trkpt>
      <trkpt lat="48.9504" lon="2.59565">
        <ele>55.9</ele>
        <time>2020-07-01T15:22:34Z</time>
      </trkpt>
      <trkpt lat="48.95037" lon="2.59553">
        <ele>55.9</ele>
        <time>2020-07-01T15:22:35Z</time>
      </trkpt>
      <trkpt lat="48.95035" lon="2.59542">
        <ele>55.9</ele>
        <time>2020-07-01T15:22:36Z</time>
      </trkpt>
      <trkpt lat="48.95032" lon="2.59531">
        <ele>55.9</ele>
        <time>2020-07-01T15:22:37Z</time>
      </trkpt>
      <trkpt lat="48.9503" lon="2.5952">
        <ele>55.9</ele>
        <time>2020-07-01T15:22:38Z</time>
      </trkpt>
      <trkpt lat="48.95028" lon="2.59509">
        <ele>55.8</ele>
        <time>2020-07-01T15:22:39Z</time>
      </trkpt>
      <trkpt lat="48.95024" lon="2.59494">
        <ele>55.8</ele>
        <time>2020-07-01T15:22:40Z</time>
      </trkpt>
      <trkpt lat="48.95021" lon="2.59482">
        <ele>55.6</ele>
        <time>2020-07-01T15:22:41Z</time>
      </trkpt>
      <trkpt lat="48.95017" lon="2.59468">
        <ele>55.5</ele>
        <time>2020-07-01T15:22:42Z</time>
      </trkpt>
      <trkpt lat="48.95013" lon="2.59455">
        <ele>55.3</ele>
        <time>2020-07-01T15:22:43Z</time>
      </trkpt>
      <trkpt lat="48.95009" lon="2.59442">
        <ele>55.1</ele>
        <time>2020-07-01T15:22:44Z</time>
      </trkpt>
      <trkpt lat="48.95005" lon="2.59429">
        <ele>55</ele>
        <time>2020-07-01T15:22:45Z</time>
      </trkpt>
      <trkpt lat="48.95" lon="2.5941">
        <ele>54.8</ele>
        <time>2020-07-01T15:22:46Z</time>
      </trkpt>
      <trkpt lat="48.94997" lon="2.59397">
        <ele>54.8</ele>
        <time>2020-07-01T15:22:47Z</time>
      </trkpt>
      <trkpt lat="48.94993" lon="2.59382">
        <ele>54.8</ele>
        <time>2020-07-01T15:22:48Z</time>
      </trkpt>
      <trkpt lat="48.9499" lon="2.59366">
        <ele>54.9</ele>
        <time>2020-07-01T15:22:49Z</time>
      </trkpt>
      <trkpt lat="48.94987" lon="2.59352">
        <ele>54.9</ele>
        <time>2020-07-01T15:22:50Z</time>
      </trkpt>
      <trkpt lat="48.94983" lon="2.59338">
        <ele>54.8</ele>
        <time>2020-07-01T15:22:51Z</time>
      </trkpt>
      <trkpt lat="48.9498" lon="2.59326">
        <ele>54.8</ele>
        <time>2020-07-01T15:22:52Z</time>
      </trkpt>
      <trkpt lat="48.94978" lon="2.59316">
        <ele>54.8</ele>
        <time>2020-07-01T15:22:53Z</time>
      </trkpt>
      <trkpt lat="48.94975" lon="2.59303">
        <ele>54.8</ele>
        <time>2020-07-01T15:22:54Z</time>
      </trkpt>
      <trkpt lat="48.94972" lon="2.59292">
        <ele>54.8</ele>
        <time>2020-07-01T15:22:55Z</time>
      </trkpt>
      <trkpt lat="48.9497" lon="2.5928">
        <ele>54.9</ele>
        <time>2020-07-01T15:22:56Z</time>
      </trkpt>
      <trkpt lat="48.94968" lon="2.59269">
        <ele>55</ele>
        <time>2020-07-01T15:22:57Z</time>
      </trkpt>
      <trkpt lat="48.94967" lon="2.59258">
        <ele>55.2</ele>
        <time>2020-07-01T15:22:58Z</time>
      </trkpt>
      <trkpt lat="48.94965" lon="2.59246">
        <ele>55.4</ele>
        <time>2020-07-01T15:22:59Z</time>
      </trkpt>
      <trkpt lat="48.94963" lon="2.59236">
        <ele>55.6</ele>
        <time>2020-07-01T15:23:00Z</time>
      </trkpt>
      <trkpt lat="48.94959" lon="2.59226">
        <ele>55.7</ele>
        <time>2020-07-01T15:23:01Z</time>
      </trkpt>
      <trkpt lat="48.94956" lon="2.59217">
        <ele>55.8</ele>
        <time>2020-07-01T15:23:02Z</time>
      </trkpt>
      <trkpt lat="48.94954" lon="2.59206">
        <ele>55.9</ele>
        <time>2020-07-01T15:23:03Z</time>
      </trkpt>
      <trkpt lat="48.94952" lon="2.59196">
        <ele>55.8</ele>
        <time>2020-07-01T15:23:04Z</time>
      </trkpt>
      <trkpt lat="48.9495" lon="2.59186">
        <ele>55.7</ele>
        <time>2020-07-01T15:23:05Z</time>
      </trkpt>
      <trkpt lat="48.94948" lon="2.59177">
        <ele>55.7</ele>
        <time>2020-07-01T15:23:06Z</time>
      </trkpt>
      <trkpt lat="48.94947" lon="2.59166">
        <ele>55.6</ele>
        <time>2020-07-01T15:23:07Z</time>
      </trkpt>
      <trkpt lat="48.94943" lon="2.59154">
        <ele>55.5</ele>
        <time>2020-07-01T15:23:08Z</time>
      </trkpt>
      <trkpt lat="48.9494" lon="2.59142">
        <ele>55.4</ele>
        <time>2020-07-01T15:23:09Z</time>
      </trkpt>
      <trkpt lat="48.94937" lon="2.5913">
        <ele>55.3</ele>
        <time>2020-07-01T15:23:10Z</time>
      </trkpt>
      <trkpt lat="48.94933" lon="2.59119">
        <ele>55.3</ele>
        <time>2020-07-01T15:23:11Z</time>
      </trkpt>
      <trkpt lat="48.94929" lon="2.59108">
        <ele>55.5</ele>
        <time>2020-07-01T15:23:12Z</time>
      </trkpt>
      <trkpt lat="48.94925" lon="2.59099">
        <ele>55.6</ele>
        <time>2020-07-01T15:23:13Z</time>
      </trkpt>
      <trkpt lat="48.9492" lon="2.59091">
        <ele>55.8</ele>
        <time>2020-07-01T15:23:14Z</time>
      </trkpt>
      <trkpt lat="48.94915" lon="2.59082">
        <ele>56</ele>
        <time>2020-07-01T15:23:15Z</time>
      </trkpt>
      <trkpt lat="48.94911" lon="2.59074">
        <ele>56.3</ele>
        <time>2020-07-01T15:23:16Z</time>
      </trkpt>
      <trkpt lat="48.94908" lon="2.59065">
        <ele>56.6</ele>
        <time>2020-07-01T15:23:17Z</time>
      </trkpt>
      <trkpt lat="48.94907" lon="2.59058">
        <ele>56.8</ele>
        <time>2020-07-01T15:23:18Z</time>
      </trkpt>
      <trkpt lat="48.94905" lon="2.5905">
        <ele>57.2</ele>
        <time>2020-07-01T15:23:19Z</time>
      </trkpt>
      <trkpt lat="48.94903" lon="2.59042">
        <ele>57.5</ele>
        <time>2020-07-01T15:23:20Z</time>
      </trkpt>
      <trkpt lat="48.949" lon="2.59033">
        <ele>57.9</ele>
        <time>2020-07-01T15:23:21Z</time>
      </trkpt>
      <trkpt lat="48.94898" lon="2.59026">
        <ele>58.3</ele>
        <time>2020-07-01T15:23:22Z</time>
      </trkpt>
      <trkpt lat="48.94896" lon="2.59019">
        <ele>58.7</ele>
        <time>2020-07-01T15:23:23Z</time>
      </trkpt>
      <trkpt lat="48.94895" lon="2.59012">
        <ele>59</ele>
        <time>2020-07-01T15:23:24Z</time>
      </trkpt>
      <trkpt lat="48.94894" lon="2.59008">
        <ele>59.3</ele>
        <time>2020-07-01T15:23:25Z</time>
      </trkpt>
      <trkpt lat="48.94894" lon="2.59004">
        <ele>59.5</ele>
        <time>2020-07-01T15:23:26Z</time>
      </trkpt>
      <trkpt lat="48.94893" lon="2.58999">
        <ele>59.7</ele>
        <time>2020-07-01T15:23:27Z</time>
      </trkpt>
      <trkpt lat="48.94892" lon="2.58995">
        <ele>59.9</ele>
        <time>2020-07-01T15:23:28Z</time>
      </trkpt>
      <trkpt lat="48.94892" lon="2.5899">
        <ele>60.1</ele>
        <time>2020-07-01T15:23:29Z</time>
      </trkpt>
      <trkpt lat="48.9489" lon="2.58983">
        <ele>60.4</ele>
        <time>2020-07-01T15:23:30Z</time>
      </trkpt>
      <trkpt lat="48.94889" lon="2.58978">
        <ele>60.6</ele>
        <time>2020-07-01T15:23:31Z</time>
      </trkpt>
      <trkpt lat="48.94888" lon="2.58974">
        <ele>60.8</ele>
        <time>2020-07-01T15:23:32Z</time>
      </trkpt>
      <trkpt lat="48.94886" lon="2.58967">
        <ele>61</ele>
        <time>2020-07-01T15:23:33Z</time>
      </trkpt>
      <trkpt lat="48.94884" lon="2.58963">
        <ele>61.2</ele>
        <time>2020-07-01T15:23:34Z</time>
      </trkpt>
      <trkpt lat="48.94884" lon="2.58958">
        <ele>61.3</ele>
        <time>2020-07-01T15:23:35Z</time>
      </trkpt>
      <trkpt lat="48.94883" lon="2.58953">
        <ele>61.5</ele>
        <time>2020-07-01T15:23:36Z</time>
      </trkpt>
      <trkpt lat="48.94882" lon="2.58947">
        <ele>61.6</ele>
        <time>2020-07-01T15:23:37Z</time>
      </trkpt>
      <trkpt lat="48.9488" lon="2.58942">
        <ele>61.7</ele>
        <time>2020-07-01T15:23:38Z</time>
      </trkpt>
      <trkpt lat="48.94877" lon="2.58936">
        <ele>61.9</ele>
        <time>2020-07-01T15:23:39Z</time>
      </trkpt>
      <trkpt lat="48.94876" lon="2.5893">
        <ele>61.9</ele>
        <time>2020-07-01T15:23:40Z</time>
      </trkpt>
      <trkpt lat="48.94874" lon="2.58925">
        <ele>62</ele>
        <time>2020-07-01T15:23:41Z</time>
      </trkpt>
      <trkpt lat="48.94872" lon="2.58919">
        <ele>62.1</ele>
        <time>2020-07-01T15:23:42Z</time>
      </trkpt>
      <trkpt lat="48.9487" lon="2.58913">
        <ele>62.1</ele>
        <time>2020-07-01T15:23:43Z</time>
      </trkpt>
      <trkpt lat="48.94868" lon="2.58907">
        <ele>62.2</ele>
        <time>2020-07-01T15:23:44Z</time>
      </trkpt>
      <trkpt lat="48.94867" lon="2.58902">
        <ele>62.2</ele>
        <time>2020-07-01T15:23:45Z</time>
      </trkpt>
      <trkpt lat="48.94864" lon="2.58896">
        <ele>62.3</ele>
        <time>2020-07-01T15:23:46Z</time>
      </trkpt>
      <trkpt lat="48.94863" lon="2.58889">
        <ele>62.3</ele>
        <time>2020-07-01T15:23:47Z</time>
      </trkpt>
      <trkpt lat="48.94862" lon="2.58885">
        <ele>62.3</ele>
        <time>2020-07-01T15:23:48Z</time>
      </trkpt>
      <trkpt lat="48.94861" lon="2.58879">
        <ele>62.4</ele>
        <time>2020-07-01T15:23:49Z</time>
      </trkpt>
      <trkpt lat="48.94858" lon="2.58871">
        <ele>62.4</ele>
        <time>2020-07-01T15:23:50Z</time>
      </trkpt>
      <trkpt lat="48.94856" lon="2.58863">
        <ele>62.5</ele>
        <time>2020-07-01T15:23:51Z</time>
      </trkpt>
      <trkpt lat="48.94853" lon="2.58857">
        <ele>62.5</ele>
        <time>2020-07-01T15:23:52Z</time>
      </trkpt>
      <trkpt lat="48.94849" lon="2.58851">
        <ele>62.5</ele>
        <time>2020-07-01T15:23:53Z</time>
      </trkpt>
      <trkpt lat="48.94846" lon="2.58846">
        <ele>62.5</ele>
        <time>2020-07-01T15:23:54Z</time>
      </trkpt>
      <trkpt lat="48.94843" lon="2.5884">
        <ele>62.5</ele>
        <time>2020-07-01T15:23:55Z</time>
      </trkpt>
      <trkpt lat="48.94839" lon="2.58835">
        <ele>62.5</ele>
        <time>2020-07-01T15:23:56Z</time>
      </trkpt>
      <trkpt lat="48.94836" lon="2.58829">
        <ele>62.5</ele>
        <time>2020-07-01T15:23:57Z</time>
      </trkpt>
      <trkpt lat="48.94834" lon="2.58823">
        <ele>62.5</ele>
        <time>2020-07-01T15:23:58Z</time>
      </trkpt>
      <trkpt lat="48.94833" lon="2.58817">
        <ele>62.5</ele>
        <time>2020-07-01T15:23:59Z</time>
      </trkpt>
      <trkpt lat="48.94832" lon="2.58801">
        <ele>62.5</ele>
        <time>2020-07-01T15:24:00Z</time>
      </trkpt>
      <trkpt lat="48.94829" lon="2.58789">
        <ele>62.4</ele>
        <time>2020-07-01T15:24:01Z</time>
      </trkpt>
      <trkpt lat="48.94829" lon="2.58777">
        <ele>62.3</ele>
        <time>2020-07-01T15:24:02Z</time>
      </trkpt>
      <trkpt lat="48.94827" lon="2.58766">
        <ele>62.1</ele>
        <time>2020-07-01T15:24:03Z</time>
      </trkpt>
      <trkpt lat="48.94825" lon="2.58757">
        <ele>61.9</ele>
        <time>2020-07-01T15:24:04Z</time>
      </trkpt>
      <trkpt lat="48.94822" lon="2.58747">
        <ele>61.6</ele>
        <time>2020-07-01T15:24:05Z</time>
      </trkpt>
      <trkpt lat="48.9482" lon="2.58739">
        <ele>61.3</ele>
        <time>2020-07-01T15:24:06Z</time>
      </trkpt>
      <trkpt lat="48.94816" lon="2.58729">
        <ele>60.9</ele>
        <time>2020-07-01T15:24:07Z</time>
      </trkpt>
      <trkpt lat="48.94812" lon="2.58718">
        <ele>60.4</ele>
        <time>2020-07-01T15:24:08Z</time>
      </trkpt>
      <trkpt lat="48.9481" lon="2.58709">
        <ele>60</ele>
        <time>2020-07-01T15:24:09Z</time>
      </trkpt>
      <trkpt lat="48.94808" lon="2.58697">
        <ele>59.5</ele>
        <time>2020-07-01T15:24:10Z</time>
      </trkpt>
      <trkpt lat="48.94805" lon="2.58684">
        <ele>58.9</ele>
        <time>2020-07-01T15:24:11Z</time>
      </trkpt>
      <trkpt lat="48.94802" lon="2.58671">
        <ele>58.4</ele>
        <time>2020-07-01T15:24:12Z</time>
      </trkpt>
      <trkpt lat="48.94799" lon="2.58658">
        <ele>57.9</ele>
        <time>2020-07-01T15:24:13Z</time>
      </trkpt>
      <trkpt lat="48.94797" lon="2.58646">
        <ele>57.6</ele>
        <time>2020-07-01T15:24:14Z</time>
      </trkpt>
      <trkpt lat="48.94796" lon="2.58632">
        <ele>57.3</ele>
        <time>2020-07-01T15:24:15Z</time>
      </trkpt>
      <trkpt lat="48.94796" lon="2.58617">
        <ele>57.1</ele>
        <time>2020-07-01T15:24:16Z</time>
      </trkpt>
      <trkpt lat="48.94797" lon="2.58608">
        <ele>57.1</ele>
        <time>2020-07-01T15:24:17Z</time>
      </trkpt>
      <trkpt lat="48.94798" lon="2.58598">
        <ele>57</ele>
        <time>2020-07-01T15:24:18Z</time>
      </trkpt>
      <trkpt lat="48.94796" lon="2.58585">
        <ele>57.1</ele>
        <time>2020-07-01T15:24:19Z</time>
      </trkpt>
      <trkpt lat="48.94795" lon="2.58575">
        <ele>57.2</ele>
        <time>2020-07-01T15:24:20Z</time>
      </trkpt>
      <trkpt lat="48.94794" lon="2.58566">
        <ele>57.3</ele>
        <time>2020-07-01T15:24:21Z</time>
      </trkpt>
      <trkpt lat="48.94793" lon="2.58559">
        <ele>57.4</ele>
        <time>2020-07-01T15:24:22Z</time>
      </trkpt>
      <trkpt lat="48.94792" lon="2.5855">
        <ele>57.5</ele>
        <time>2020-07-01T15:24:23Z</time>
      </trkpt>
      <trkpt lat="48.9479" lon="2.58539">
        <ele>57.7</ele>
        <time>2020-07-01T15:24:24Z</time>
      </trkpt>
      <trkpt lat="48.94788" lon="2.58528">
        <ele>57.9</ele>
        <time>2020-07-01T15:24:25Z</time>
      </trkpt>
      <trkpt lat="48.94786" lon="2.58518">
        <ele>58</ele>
        <time>2020-07-01T15:24:26Z</time>
      </trkpt>
      <trkpt lat="48.94783" lon="2.58509">
        <ele>58.1</ele>
        <time>2020-07-01T15:24:27Z</time>
      </trkpt>
      <trkpt lat="48.9478" lon="2.58499">
        <ele>58.2</ele>
        <time>2020-07-01T15:24:28Z</time>
      </trkpt>
      <trkpt lat="48.94776" lon="2.58487">
        <ele>58.4</ele>
        <time>2020-07-01T15:24:29Z</time>
      </trkpt>
      <trkpt lat="48.94772" lon="2.58475">
        <ele>58.6</ele>
        <time>2020-07-01T15:24:30Z</time>
      </trkpt>
      <trkpt lat="48.94768" lon="2.58464">
        <ele>58.8</ele>
        <time>2020-07-01T15:24:31Z</time>
      </trkpt>
      <trkpt lat="48.94765" lon="2.58456">
        <ele>59</ele>
        <time>2020-07-01T15:24:32Z</time>
      </trkpt>
      <trkpt lat="48.94761" lon="2.58447">
        <ele>59.2</ele>
        <time>2020-07-01T15:24:33Z</time>
      </trkpt>
      <trkpt lat="48.94758" lon="2.58439">
        <ele>59.4</ele>
        <time>2020-07-01T15:24:34Z</time>
      </trkpt>
      <trkpt lat="48.94754" lon="2.58431">
        <ele>59.5</ele>
        <time>2020-07-01T15:24:35Z</time>
      </trkpt>
      <trkpt lat="48.9475" lon="2.58424">
        <ele>59.6</ele>
        <time>2020-07-01T15:24:36Z</time>
      </trkpt>
      <trkpt lat="48.94748" lon="2.58417">
        <ele>59.7</ele>
        <time>2020-07-01T15:24:37Z</time>
      </trkpt>
      <trkpt lat="48.94746" lon="2.58411">
        <ele>59.7</ele>
        <time>2020-07-01T15:24:38Z</time>
      </trkpt>
      <trkpt lat="48.94744" lon="2.58406">
        <ele>59.7</ele>
        <time>2020-07-01T15:24:39Z</time>
      </trkpt>
      <trkpt lat="48.94744" lon="2.58399">
        <ele>59.7</ele>
        <time>2020-07-01T15:24:40Z</time>
      </trkpt>
      <trkpt lat="48.94743" lon="2.5839">
        <ele>59.6</ele>
        <time>2020-07-01T15:24:41Z</time>
      </trkpt>
      <trkpt lat="48.94743" lon="2.5838">
        <ele>59.5</ele>
        <time>2020-07-01T15:24:42Z</time>
      </trkpt>
      <trkpt lat="48.94742" lon="2.5837">
        <ele>59.5</ele>
        <time>2020-07-01T15:24:43Z</time>
      </trkpt>
      <trkpt lat="48.9474" lon="2.58361">
        <ele>59.5</ele>
        <time>2020-07-01T15:24:44Z</time>
      </trkpt>
      <trkpt lat="48.94739" lon="2.58351">
        <ele>59.6</ele>
        <time>2020-07-01T15:24:45Z</time>
      </trkpt>
      <trkpt lat="48.94737" lon="2.58342">
        <ele>59.8</ele>
        <time>2020-07-01T15:24:46Z</time>
      </trkpt>
      <trkpt lat="48.94735" lon="2.58335">
        <ele>60</ele>
        <time>2020-07-01T15:24:47Z</time>
      </trkpt>
      <trkpt lat="48.94732" lon="2.58329">
        <ele>60.4</ele>
        <time>2020-07-01T15:24:48Z</time>
      </trkpt>
      <trkpt lat="48.94729" lon="2.58323">
        <ele>60.7</ele>
        <time>2020-07-01T15:24:49Z</time>
      </trkpt>
      <trkpt lat="48.94726" lon="2.58317">
        <ele>61</ele>
        <time>2020-07-01T15:24:50Z</time>
      </trkpt>
      <trkpt lat="48.94723" lon="2.5831">
        <ele>61.4</ele>
        <time>2020-07-01T15:24:51Z</time>
      </trkpt>
      <trkpt lat="48.9472" lon="2.58303">
        <ele>61.8</ele>
        <time>2020-07-01T15:24:52Z</time>
      </trkpt>
      <trkpt lat="48.94719" lon="2.58298">
        <ele>62</ele>
        <time>2020-07-01T15:24:53Z</time>
      </trkpt>
      <trkpt lat="48.94718" lon="2.58294">
        <ele>62.3</ele>
        <time>2020-07-01T15:24:54Z</time>
      </trkpt>
      <trkpt lat="48.94716" lon="2.58288">
        <ele>62.5</ele>
        <time>2020-07-01T15:24:55Z</time>
      </trkpt>
      <trkpt lat="48.94714" lon="2.58283">
        <ele>62.7</ele>
        <time>2020-07-01T15:24:56Z</time>
      </trkpt>
      <trkpt lat="48.94712" lon="2.58277">
        <ele>62.8</ele>
        <time>2020-07-01T15:24:57Z</time>
      </trkpt>
      <trkpt lat="48.9471" lon="2.58273">
        <ele>62.9</ele>
        <time>2020-07-01T15:24:58Z</time>
      </trkpt>
      <trkpt lat="48.94709" lon="2.58268">
        <ele>63</ele>
        <time>2020-07-01T15:24:59Z</time>
      </trkpt>
      <trkpt lat="48.94708" lon="2.58264">
        <ele>63.1</ele>
        <time>2020-07-01T15:25:00Z</time>
      </trkpt>
      <trkpt lat="48.94707" lon="2.58259">
        <ele>63.1</ele>
        <time>2020-07-01T15:25:01Z</time>
      </trkpt>
      <trkpt lat="48.94706" lon="2.58254">
        <ele>63.2</ele>
        <time>2020-07-01T15:25:02Z</time>
      </trkpt>
      <trkpt lat="48.94704" lon="2.58249">
        <ele>63.2</ele>
        <time>2020-07-01T15:25:03Z</time>
      </trkpt>
      <trkpt lat="48.94703" lon="2.58241">
        <ele>63.3</ele>
        <time>2020-07-01T15:25:04Z</time>
      </trkpt>
      <trkpt lat="48.94701" lon="2.58235">
        <ele>63.3</ele>
        <time>2020-07-01T15:25:05Z</time>
      </trkpt>
      <trkpt lat="48.947" lon="2.58227">
        <ele>63.3</ele>
        <time>2020-07-01T15:25:06Z</time>
      </trkpt>
      <trkpt lat="48.94699" lon="2.5822">
        <ele>63.3</ele>
        <time>2020-07-01T15:25:07Z</time>
      </trkpt>
      <trkpt lat="48.94697" lon="2.58212">
        <ele>63.3</ele>
        <time>2020-07-01T15:25:08Z</time>
      </trkpt>
      <trkpt lat="48.94695" lon="2.58206">
        <ele>63.3</ele>
        <time>2020-07-01T15:25:09Z</time>
      </trkpt>
      <trkpt lat="48.94694" lon="2.582">
        <ele>63.3</ele>
        <time>2020-07-01T15:25:10Z</time>
      </trkpt>
      <trkpt lat="48.94692" lon="2.58193">
        <ele>63.3</ele>
        <time>2020-07-01T15:25:11Z</time>
      </trkpt>
      <trkpt lat="48.9469" lon="2.58186">
        <ele>63.3</ele>
        <time>2020-07-01T15:25:12Z</time>
      </trkpt>
      <trkpt lat="48.94688" lon="2.5818">
        <ele>63.3</ele>
        <time>2020-07-01T15:25:13Z</time>
      </trkpt>
      <trkpt lat="48.94687" lon="2.58171">
        <ele>63.3</ele>
        <time>2020-07-01T15:25:14Z</time>
      </trkpt>
      <trkpt lat="48.94685" lon="2.58161">
        <ele>63.3</ele>
        <time>2020-07-01T15:25:15Z</time>
      </trkpt>
      <trkpt lat="48.94683" lon="2.58152">
        <ele>63.3</ele>
        <time>2020-07-01T15:25:16Z</time>
      </trkpt>
      <trkpt lat="48.94681" lon="2.58143">
        <ele>63.2</ele>
        <time>2020-07-01T15:25:17Z</time>
      </trkpt>
      <trkpt lat="48.94678" lon="2.58134">
        <ele>63.2</ele>
        <time>2020-07-01T15:25:18Z</time>
      </trkpt>
      <trkpt lat="48.94676" lon="2.58126">
        <ele>63.2</ele>
        <time>2020-07-01T15:25:19Z</time>
      </trkpt>
      <trkpt lat="48.94674" lon="2.58119">
        <ele>63.1</ele>
        <time>2020-07-01T15:25:20Z</time>
      </trkpt>
      <trkpt lat="48.94671" lon="2.58112">
        <ele>63.1</ele>
        <time>2020-07-01T15:25:21Z</time>
      </trkpt>
      <trkpt lat="48.94668" lon="2.58105">
        <ele>63.1</ele>
        <time>2020-07-01T15:25:22Z</time>
      </trkpt>
      <trkpt lat="48.94666" lon="2.58097">
        <ele>63.1</ele>
        <time>2020-07-01T15:25:23Z</time>
      </trkpt>
      <trkpt lat="48.94665" lon="2.5809">
        <ele>63.1</ele>
        <time>2020-07-01T15:25:24Z</time>
      </trkpt>
      <trkpt lat="48.94662" lon="2.58083">
        <ele>63.1</ele>
        <time>2020-07-01T15:25:25Z</time>
      </trkpt>
      <trkpt lat="48.9466" lon="2.58074">
        <ele>63.1</ele>
        <time>2020-07-01T15:25:26Z</time>
      </trkpt>
      <trkpt lat="48.94657" lon="2.58066">
        <ele>63.2</ele>
        <time>2020-07-01T15:25:27Z</time>
      </trkpt>
      <trkpt lat="48.94655" lon="2.58059">
        <ele>63.2</ele>
        <time>2020-07-01T15:25:28Z</time>
      </trkpt>
      <trkpt lat="48.94652" lon="2.58049">
        <ele>63.2</ele>
        <time>2020-07-01T15:25:29Z</time>
      </trkpt>
      <trkpt lat="48.94648" lon="2.5804">
        <ele>63.2</ele>
        <time>2020-07-01T15:25:30Z</time>
      </trkpt>
      <trkpt lat="48.94646" lon="2.58032">
        <ele>63.3</ele>
        <time>2020-07-01T15:25:31Z</time>
      </trkpt>
      <trkpt lat="48.94644" lon="2.58024">
        <ele>63.3</ele>
        <time>2020-07-01T15:25:32Z</time>
      </trkpt>
      <trkpt lat="48.94642" lon="2.58018">
        <ele>63.3</ele>
        <time>2020-07-01T15:25:33Z</time>
      </trkpt>
      <trkpt lat="48.94641" lon="2.58011">
        <ele>63.3</ele>
        <time>2020-07-01T15:25:34Z</time>
      </trkpt>
      <trkpt lat="48.9464" lon="2.58004">
        <ele>63.3</ele>
        <time>2020-07-01T15:25:35Z</time>
      </trkpt>
      <trkpt lat="48.94638" lon="2.57997">
        <ele>63.3</ele>
        <time>2020-07-01T15:25:36Z</time>
      </trkpt>
      <trkpt lat="48.94636" lon="2.57988">
        <ele>63.3</ele>
        <time>2020-07-01T15:25:37Z</time>
      </trkpt>
      <trkpt lat="48.94634" lon="2.57979">
        <ele>63.3</ele>
        <time>2020-07-01T15:25:38Z</time>
      </trkpt>
      <trkpt lat="48.9463" lon="2.57971">
        <ele>63.2</ele>
        <time>2020-07-01T15:25:39Z</time>
      </trkpt>
      <trkpt lat="48.94625" lon="2.57963">
        <ele>63.2</ele>
        <time>2020-07-01T15:25:40Z</time>
      </trkpt>
      <trkpt lat="48.94622" lon="2.57955">
        <ele>63.2</ele>
        <time>2020-07-01T15:25:41Z</time>
      </trkpt>
      <trkpt lat="48.94617" lon="2.57947">
        <ele>63.2</ele>
        <time>2020-07-01T15:25:42Z</time>
      </trkpt>
      <trkpt lat="48.94614" lon="2.57937">
        <ele>63.2</ele>
        <time>2020-07-01T15:25:43Z</time>
      </trkpt>
      <trkpt lat="48.94612" lon="2.57927">
        <ele>63.2</ele>
        <time>2020-07-01T15:25:44Z</time>
      </trkpt>
      <trkpt lat="48.94611" lon="2.57918">
        <ele>63.1</ele>
        <time>2020-07-01T15:25:45Z</time>
      </trkpt>
      <trkpt lat="48.9461" lon="2.57909">
        <ele>63.1</ele>
        <time>2020-07-01T15:25:46Z</time>
      </trkpt>
      <trkpt lat="48.94608" lon="2.579">
        <ele>63.1</ele>
        <time>2020-07-01T15:25:47Z</time>
      </trkpt>
      <trkpt lat="48.94606" lon="2.57889">
        <ele>63.1</ele>
        <time>2020-07-01T15:25:48Z</time>
      </trkpt>
      <trkpt lat="48.94603" lon="2.5788">
        <ele>63.1</ele>
        <time>2020-07-01T15:25:49Z</time>
      </trkpt>
      <trkpt lat="48.94601" lon="2.5787">
        <ele>63.1</ele>
        <time>2020-07-01T15:25:50Z</time>
      </trkpt>
      <trkpt lat="48.94598" lon="2.5786">
        <ele>63</ele>
        <time>2020-07-01T15:25:51Z</time>
      </trkpt>
      <trkpt lat="48.94596" lon="2.5785">
        <ele>63</ele>
        <time>2020-07-01T15:25:52Z</time>
      </trkpt>
      <trkpt lat="48.94593" lon="2.5784">
        <ele>63</ele>
        <time>2020-07-01T15:25:53Z</time>
      </trkpt>
      <trkpt lat="48.9459" lon="2.57831">
        <ele>62.9</ele>
        <time>2020-07-01T15:25:54Z</time>
      </trkpt>
      <trkpt lat="48.94588" lon="2.57825">
        <ele>62.9</ele>
        <time>2020-07-01T15:25:55Z</time>
      </trkpt>
      <trkpt lat="48.94586" lon="2.57817">
        <ele>62.9</ele>
        <time>2020-07-01T15:25:56Z</time>
      </trkpt>
      <trkpt lat="48.94584" lon="2.5781">
        <ele>62.8</ele>
        <time>2020-07-01T15:25:57Z</time>
      </trkpt>
      <trkpt lat="48.94583" lon="2.57802">
        <ele>62.8</ele>
        <time>2020-07-01T15:25:58Z</time>
      </trkpt>
      <trkpt lat="48.94581" lon="2.57794">
        <ele>62.7</ele>
        <time>2020-07-01T15:25:59Z</time>
      </trkpt>
      <trkpt lat="48.9458" lon="2.57783">
        <ele>62.7</ele>
        <time>2020-07-01T15:26:00Z</time>
      </trkpt>
      <trkpt lat="48.94579" lon="2.5777">
        <ele>62.6</ele>
        <time>2020-07-01T15:26:01Z</time>
      </trkpt>
      <trkpt lat="48.94579" lon="2.57761">
        <ele>62.6</ele>
        <time>2020-07-01T15:26:02Z</time>
      </trkpt>
      <trkpt lat="48.94577" lon="2.57752">
        <ele>62.6</ele>
        <time>2020-07-01T15:26:03Z</time>
      </trkpt>
      <trkpt lat="48.94575" lon="2.57742">
        <ele>62.6</ele>
        <time>2020-07-01T15:26:04Z</time>
      </trkpt>
      <trkpt lat="48.94573" lon="2.57732">
        <ele>62.5</ele>
        <time>2020-07-01T15:26:05Z</time>
      </trkpt>
      <trkpt lat="48.94571" lon="2.57724">
        <ele>62.5</ele>
        <time>2020-07-01T15:26:06Z</time>
      </trkpt>
      <trkpt lat="48.94568" lon="2.57715">
        <ele>62.5</ele>
        <time>2020-07-01T15:26:07Z</time>
      </trkpt>
      <trkpt lat="48.94566" lon="2.57708">
        <ele>62.5</ele>
        <time>2020-07-01T15:26:08Z</time>
      </trkpt>
      <trkpt lat="48.94563" lon="2.57699">
        <ele>62.5</ele>
        <time>2020-07-01T15:26:09Z</time>
      </trkpt>
      <trkpt lat="48.94561" lon="2.5769">
        <ele>62.5</ele>
        <time>2020-07-01T15:26:10Z</time>
      </trkpt>
      <trkpt lat="48.9456" lon="2.57681">
        <ele>62.4</ele>
        <time>2020-07-01T15:26:11Z</time>
      </trkpt>
      <trkpt lat="48.9456" lon="2.57672">
        <ele>62.4</ele>
        <time>2020-07-01T15:26:12Z</time>
      </trkpt>
      <trkpt lat="48.94559" lon="2.57664">
        <ele>62.4</ele>
        <time>2020-07-01T15:26:13Z</time>
      </trkpt>
      <trkpt lat="48.94557" lon="2.57655">
        <ele>62.4</ele>
        <time>2020-07-01T15:26:14Z</time>
      </trkpt>
      <trkpt lat="48.94554" lon="2.57646">
        <ele>62.4</ele>
        <time>2020-07-01T15:26:15Z</time>
      </trkpt>
      <trkpt lat="48.9455" lon="2.57633">
        <ele>62.3</ele>
        <time>2020-07-01T15:26:16Z</time>
      </trkpt>
      <trkpt lat="48.94547" lon="2.57621">
        <ele>62.1</ele>
        <time>2020-07-01T15:26:17Z</time>
      </trkpt>
      <trkpt lat="48.94544" lon="2.57612">
        <ele>62.1</ele>
        <time>2020-07-01T15:26:18Z</time>
      </trkpt>
      <trkpt lat="48.94542" lon="2.57604">
        <ele>62.1</ele>
        <time>2020-07-01T15:26:19Z</time>
      </trkpt>
      <trkpt lat="48.9454" lon="2.57595">
        <ele>62.1</ele>
        <time>2020-07-01T15:26:20Z</time>
      </trkpt>
      <trkpt lat="48.94538" lon="2.57586">
        <ele>62</ele>
        <time>2020-07-01T15:26:21Z</time>
      </trkpt>
      <trkpt lat="48.94536" lon="2.57577">
        <ele>62</ele>
        <time>2020-07-01T15:26:22Z</time>
      </trkpt>
      <trkpt lat="48.94534" lon="2.57566">
        <ele>61.9</ele>
        <time>2020-07-01T15:26:23Z</time>
      </trkpt>
      <trkpt lat="48.94532" lon="2.57557">
        <ele>61.9</ele>
        <time>2020-07-01T15:26:24Z</time>
      </trkpt>
      <trkpt lat="48.94531" lon="2.57548">
        <ele>61.8</ele>
        <time>2020-07-01T15:26:25Z</time>
      </trkpt>
      <trkpt lat="48.94529" lon="2.5754">
        <ele>61.7</ele>
        <time>2020-07-01T15:26:26Z</time>
      </trkpt>
      <trkpt lat="48.94527" lon="2.57532">
        <ele>61.6</ele>
        <time>2020-07-01T15:26:27Z</time>
      </trkpt>
      <trkpt lat="48.94526" lon="2.57525">
        <ele>61.5</ele>
        <time>2020-07-01T15:26:28Z</time>
      </trkpt>
      <trkpt lat="48.94525" lon="2.57518">
        <ele>61.3</ele>
        <time>2020-07-01T15:26:29Z</time>
      </trkpt>
      <trkpt lat="48.94524" lon="2.57509">
        <ele>61.1</ele>
        <time>2020-07-01T15:26:30Z</time>
      </trkpt>
      <trkpt lat="48.94521" lon="2.57498">
        <ele>60.7</ele>
        <time>2020-07-01T15:26:31Z</time>
      </trkpt>
      <trkpt lat="48.9452" lon="2.5749">
        <ele>60.4</ele>
        <time>2020-07-01T15:26:32Z</time>
      </trkpt>
      <trkpt lat="48.94517" lon="2.57479">
        <ele>59.9</ele>
        <time>2020-07-01T15:26:33Z</time>
      </trkpt>
      <trkpt lat="48.94515" lon="2.57468">
        <ele>59.5</ele>
        <time>2020-07-01T15:26:34Z</time>
      </trkpt>
      <trkpt lat="48.94513" lon="2.57457">
        <ele>59</ele>
        <time>2020-07-01T15:26:35Z</time>
      </trkpt>
      <trkpt lat="48.94512" lon="2.57444">
        <ele>58.7</ele>
        <time>2020-07-01T15:26:36Z</time>
      </trkpt>
      <trkpt lat="48.94507" lon="2.57432">
        <ele>58.4</ele>
        <time>2020-07-01T15:26:37Z</time>
      </trkpt>
      <trkpt lat="48.94501" lon="2.5742">
        <ele>58.4</ele>
        <time>2020-07-01T15:26:38Z</time>
      </trkpt>
      <trkpt lat="48.94496" lon="2.5741">
        <ele>58.5</ele>
        <time>2020-07-01T15:26:39Z</time>
      </trkpt>
      <trkpt lat="48.94492" lon="2.57401">
        <ele>58.8</ele>
        <time>2020-07-01T15:26:40Z</time>
      </trkpt>
      <trkpt lat="48.94489" lon="2.57393">
        <ele>59.1</ele>
        <time>2020-07-01T15:26:41Z</time>
      </trkpt>
      <trkpt lat="48.94489" lon="2.57383">
        <ele>59.5</ele>
        <time>2020-07-01T15:26:42Z</time>
      </trkpt>
      <trkpt lat="48.94488" lon="2.57374">
        <ele>59.8</ele>
        <time>2020-07-01T15:26:43Z</time>
      </trkpt>
      <trkpt lat="48.94486" lon="2.57365">
        <ele>60.1</ele>
        <time>2020-07-01T15:26:44Z</time>
      </trkpt>
      <trkpt lat="48.94483" lon="2.57353">
        <ele>60.4</ele>
        <time>2020-07-01T15:26:45Z</time>
      </trkpt>
      <trkpt lat="48.94481" lon="2.57344">
        <ele>60.6</ele>
        <time>2020-07-01T15:26:46Z</time>
      </trkpt>
      <trkpt lat="48.94479" lon="2.5734">
        <ele>60.7</ele>
        <time>2020-07-01T15:26:47Z</time>
      </trkpt>
      <trkpt lat="48.94478" lon="2.57333">
        <ele>60.8</ele>
        <time>2020-07-01T15:26:48Z</time>
      </trkpt>
      <trkpt lat="48.94476" lon="2.57326">
        <ele>60.9</ele>
        <time>2020-07-01T15:26:49Z</time>
      </trkpt>
      <trkpt lat="48.94474" lon="2.5732">
        <ele>60.9</ele>
        <time>2020-07-01T15:26:50Z</time>
      </trkpt>
      <trkpt lat="48.94472" lon="2.57313">
        <ele>61</ele>
        <time>2020-07-01T15:26:51Z</time>
      </trkpt>
      <trkpt lat="48.94471" lon="2.57307">
        <ele>61</ele>
        <time>2020-07-01T15:26:52Z</time>
      </trkpt>
      <trkpt lat="48.94469" lon="2.57303">
        <ele>61</ele>
        <time>2020-07-01T15:26:53Z</time>
      </trkpt>
      <trkpt lat="48.94467" lon="2.57297">
        <ele>61</ele>
        <time>2020-07-01T15:26:54Z</time>
      </trkpt>
      <trkpt lat="48.94464" lon="2.5729">
        <ele>61</ele>
        <time>2020-07-01T15:26:55Z</time>
      </trkpt>
      <trkpt lat="48.94462" lon="2.57281">
        <ele>61</ele>
        <time>2020-07-01T15:26:56Z</time>
      </trkpt>
      <trkpt lat="48.9446" lon="2.57274">
        <ele>61</ele>
        <time>2020-07-01T15:26:57Z</time>
      </trkpt>
      <trkpt lat="48.94459" lon="2.57267">
        <ele>60.9</ele>
        <time>2020-07-01T15:26:58Z</time>
      </trkpt>
      <trkpt lat="48.94457" lon="2.57259">
        <ele>60.9</ele>
        <time>2020-07-01T15:26:59Z</time>
      </trkpt>
      <trkpt lat="48.94455" lon="2.57252">
        <ele>60.9</ele>
        <time>2020-07-01T15:27:00Z</time>
      </trkpt>
      <trkpt lat="48.94454" lon="2.57244">
        <ele>60.8</ele>
        <time>2020-07-01T15:27:01Z</time>
      </trkpt>
      <trkpt lat="48.94452" lon="2.57236">
        <ele>60.8</ele>
        <time>2020-07-01T15:27:02Z</time>
      </trkpt>
      <trkpt lat="48.94451" lon="2.5723">
        <ele>60.8</ele>
        <time>2020-07-01T15:27:03Z</time>
      </trkpt>
      <trkpt lat="48.94448" lon="2.57221">
        <ele>60.7</ele>
        <time>2020-07-01T15:27:04Z</time>
      </trkpt>
      <trkpt lat="48.94445" lon="2.57214">
        <ele>60.7</ele>
        <time>2020-07-01T15:27:05Z</time>
      </trkpt>
      <trkpt lat="48.94443" lon="2.57206">
        <ele>60.7</ele>
        <time>2020-07-01T15:27:06Z</time>
      </trkpt>
      <trkpt lat="48.9444" lon="2.57197">
        <ele>60.7</ele>
        <time>2020-07-01T15:27:07Z</time>
      </trkpt>
      <trkpt lat="48.94438" lon="2.57188">
        <ele>60.6</ele>
        <time>2020-07-01T15:27:08Z</time>
      </trkpt>
      <trkpt lat="48.94437" lon="2.57179">
        <ele>60.6</ele>
        <time>2020-07-01T15:27:09Z</time>
      </trkpt>
      <trkpt lat="48.94435" lon="2.57172">
        <ele>60.6</ele>
        <time>2020-07-01T15:27:10Z</time>
      </trkpt>
      <trkpt lat="48.94433" lon="2.57162">
        <ele>60.5</ele>
        <time>2020-07-01T15:27:11Z</time>
      </trkpt>
      <trkpt lat="48.94431" lon="2.57152">
        <ele>60.4</ele>
        <time>2020-07-01T15:27:12Z</time>
      </trkpt>
      <trkpt lat="48.94429" lon="2.57143">
        <ele>60.4</ele>
        <time>2020-07-01T15:27:13Z</time>
      </trkpt>
      <trkpt lat="48.94426" lon="2.57133">
        <ele>60.3</ele>
        <time>2020-07-01T15:27:14Z</time>
      </trkpt>
      <trkpt lat="48.94423" lon="2.57123">
        <ele>60.2</ele>
        <time>2020-07-01T15:27:15Z</time>
      </trkpt>
      <trkpt lat="48.94421" lon="2.57114">
        <ele>60.2</ele>
        <time>2020-07-01T15:27:16Z</time>
      </trkpt>
      <trkpt lat="48.94419" lon="2.57103">
        <ele>60.1</ele>
        <time>2020-07-01T15:27:17Z</time>
      </trkpt>
      <trkpt lat="48.94417" lon="2.57094">
        <ele>60.1</ele>
        <time>2020-07-01T15:27:18Z</time>
      </trkpt>
      <trkpt lat="48.94415" lon="2.57085">
        <ele>60.1</ele>
        <time>2020-07-01T15:27:19Z</time>
      </trkpt>
      <trkpt lat="48.94412" lon="2.57076">
        <ele>60</ele>
        <time>2020-07-01T15:27:20Z</time>
      </trkpt>
      <trkpt lat="48.94411" lon="2.57067">
        <ele>59.9</ele>
        <time>2020-07-01T15:27:21Z</time>
      </trkpt>
      <trkpt lat="48.94408" lon="2.57059">
        <ele>59.7</ele>
        <time>2020-07-01T15:27:22Z</time>
      </trkpt>
      <trkpt lat="48.94407" lon="2.57049">
        <ele>59.4</ele>
        <time>2020-07-01T15:27:23Z</time>
      </trkpt>
      <trkpt lat="48.94405" lon="2.57039">
        <ele>59.1</ele>
        <time>2020-07-01T15:27:24Z</time>
      </trkpt>
      <trkpt lat="48.94403" lon="2.57029">
        <ele>58.8</ele>
        <time>2020-07-01T15:27:25Z</time>
      </trkpt>
      <trkpt lat="48.944" lon="2.5702">
        <ele>58.6</ele>
        <time>2020-07-01T15:27:26Z</time>
      </trkpt>
      <trkpt lat="48.94399" lon="2.57009">
        <ele>58.3</ele>
        <time>2020-07-01T15:27:27Z</time>
      </trkpt>
      <trkpt lat="48.94397" lon="2.56998">
        <ele>58</ele>
        <time>2020-07-01T15:27:28Z</time>
      </trkpt>
      <trkpt lat="48.94396" lon="2.56986">
        <ele>57.7</ele>
        <time>2020-07-01T15:27:29Z</time>
      </trkpt>
      <trkpt lat="48.94395" lon="2.56976">
        <ele>57.4</ele>
        <time>2020-07-01T15:27:30Z</time>
      </trkpt>
      <trkpt lat="48.94394" lon="2.56968">
        <ele>57.2</ele>
        <time>2020-07-01T15:27:31Z</time>
      </trkpt>
      <trkpt lat="48.94393" lon="2.56962">
        <ele>57.1</ele>
        <time>2020-07-01T15:27:32Z</time>
      </trkpt>
      <trkpt lat="48.94393" lon="2.56961">
        <ele>57</ele>
        <time>2020-07-01T15:27:33Z</time>
      </trkpt>
      <trkpt lat="48.94393" lon="2.56956">
        <ele>56.9</ele>
        <time>2020-07-01T15:27:34Z</time>
      </trkpt>
      <trkpt lat="48.94393" lon="2.56954">
        <ele>56.8</ele>
        <time>2020-07-01T15:27:35Z</time>
      </trkpt>
      <trkpt lat="48.94391" lon="2.5695">
        <ele>56.7</ele>
        <time>2020-07-01T15:27:36Z</time>
      </trkpt>
      <trkpt lat="48.94391" lon="2.56949">
        <ele>56.6</ele>
        <time>2020-07-01T15:27:37Z</time>
      </trkpt>
      <trkpt lat="48.9439" lon="2.56945">
        <ele>56.5</ele>
        <time>2020-07-01T15:27:38Z</time>
      </trkpt>
      <trkpt lat="48.94388" lon="2.5694">
        <ele>56.5</ele>
        <time>2020-07-01T15:27:39Z</time>
      </trkpt>
      <trkpt lat="48.94388" lon="2.56939">
        <ele>56.6</ele>
        <time>2020-07-01T15:27:40Z</time>
      </trkpt>
      <trkpt lat="48.94385" lon="2.56937">
        <ele>57</ele>
        <time>2020-07-01T15:27:41Z</time>
      </trkpt>
      <trkpt lat="48.94384" lon="2.56936">
        <ele>57.1</ele>
        <time>2020-07-01T15:27:42Z</time>
      </trkpt>
      <trkpt lat="48.94383" lon="2.56935">
        <ele>57.4</ele>
        <time>2020-07-01T15:27:43Z</time>
      </trkpt>
      <trkpt lat="48.94381" lon="2.56933">
        <ele>57.6</ele>
        <time>2020-07-01T15:27:44Z</time>
      </trkpt>
      <trkpt lat="48.94381" lon="2.56931">
        <ele>57.7</ele>
        <time>2020-07-01T15:27:45Z</time>
      </trkpt>
      <trkpt lat="48.9438" lon="2.5693">
        <ele>57.8</ele>
        <time>2020-07-01T15:27:46Z</time>
      </trkpt>
      <trkpt lat="48.94379" lon="2.5693">
        <ele>58</ele>
        <time>2020-07-01T15:27:47Z</time>
      </trkpt>
      <trkpt lat="48.94378" lon="2.56928">
        <ele>58.2</ele>
        <time>2020-07-01T15:27:48Z</time>
      </trkpt>
      <trkpt lat="48.94378" lon="2.56928">
        <ele>58.2</ele>
        <time>2020-07-01T15:27:49Z</time>
      </trkpt>
      <trkpt lat="48.94378" lon="2.56927">
        <ele>58.3</ele>
        <time>2020-07-01T15:27:50Z</time>
      </trkpt>
      <trkpt lat="48.94378" lon="2.56926">
        <ele>58.5</ele>
        <time>2020-07-01T15:27:51Z</time>
      </trkpt>
      <trkpt lat="48.94378" lon="2.56922">
        <ele>58.8</ele>
        <time>2020-07-01T15:27:52Z</time>
      </trkpt>
      <trkpt lat="48.94378" lon="2.5692">
        <ele>58.9</ele>
        <time>2020-07-01T15:27:53Z</time>
      </trkpt>
      <trkpt lat="48.94378" lon="2.56919">
        <ele>59.1</ele>
        <time>2020-07-01T15:27:54Z</time>
      </trkpt>
      <trkpt lat="48.94378" lon="2.56916">
        <ele>59.3</ele>
        <time>2020-07-01T15:27:55Z</time>
      </trkpt>
      <trkpt lat="48.94378" lon="2.56916">
        <ele>59.3</ele>
        <time>2020-07-01T15:27:56Z</time>
      </trkpt>
      <trkpt lat="48.94378" lon="2.56914">
        <ele>59.5</ele>
        <time>2020-07-01T15:27:57Z</time>
      </trkpt>
      <trkpt lat="48.94378" lon="2.56913">
        <ele>59.6</ele>
        <time>2020-07-01T15:27:58Z</time>
      </trkpt>
      <trkpt lat="48.94377" lon="2.56914">
        <ele>59.6</ele>
        <time>2020-07-01T15:27:59Z</time>
      </trkpt>
      <trkpt lat="48.94376" lon="2.56914">
        <ele>59.8</ele>
        <time>2020-07-01T15:28:00Z</time>
      </trkpt>
      <trkpt lat="48.94375" lon="2.56913">
        <ele>60</ele>
        <time>2020-07-01T15:28:01Z</time>
      </trkpt>
      <trkpt lat="48.94373" lon="2.56912">
        <ele>60.2</ele>
        <time>2020-07-01T15:28:02Z</time>
      </trkpt>
      <trkpt lat="48.94372" lon="2.5691">
        <ele>60.4</ele>
        <time>2020-07-01T15:28:03Z</time>
      </trkpt>
      <trkpt lat="48.9437" lon="2.56907">
        <ele>60.7</ele>
        <time>2020-07-01T15:28:04Z</time>
      </trkpt>
      <trkpt lat="48.94369" lon="2.56907">
        <ele>60.8</ele>
        <time>2020-07-01T15:28:05Z</time>
      </trkpt>
      <trkpt lat="48.94367" lon="2.56904">
        <ele>61.2</ele>
        <time>2020-07-01T15:28:06Z</time>
      </trkpt>
      <trkpt lat="48.94366" lon="2.56902">
        <ele>61.3</ele>
        <time>2020-07-01T15:28:07Z</time>
      </trkpt>
      <trkpt lat="48.94366" lon="2.56901">
        <ele>61.4</ele>
        <time>2020-07-01T15:28:08Z</time>
      </trkpt>
      <trkpt lat="48.94365" lon="2.56898">
        <ele>61.6</ele>
        <time>2020-07-01T15:28:09Z</time>
      </trkpt>
      <trkpt lat="48.94364" lon="2.56893">
        <ele>61.5</ele>
        <time>2020-07-01T15:28:10Z</time>
      </trkpt>
      <trkpt lat="48.94363" lon="2.56892">
        <ele>61.5</ele>
        <time>2020-07-01T15:28:11Z</time>
      </trkpt>
      <trkpt lat="48.94362" lon="2.56891">
        <ele>61.5</ele>
        <time>2020-07-01T15:28:12Z</time>
      </trkpt>
      <trkpt lat="48.94362" lon="2.56889">
        <ele>61.5</ele>
        <time>2020-07-01T15:28:13Z</time>
      </trkpt>
      <trkpt lat="48.94362" lon="2.56887">
        <ele>61.4</ele>
        <time>2020-07-01T15:28:14Z</time>
      </trkpt>
      <trkpt lat="48.94362" lon="2.56884">
        <ele>61.4</ele>
        <time>2020-07-01T15:28:15Z</time>
      </trkpt>
      <trkpt lat="48.94362" lon="2.56883">
        <ele>61.4</ele>
        <time>2020-07-01T15:28:16Z</time>
      </trkpt>
      <trkpt lat="48.94363" lon="2.56882">
        <ele>61.4</ele>
        <time>2020-07-01T15:28:17Z</time>
      </trkpt>
      <trkpt lat="48.94362" lon="2.56879">
        <ele>61.4</ele>
        <time>2020-07-01T15:28:18Z</time>
      </trkpt>
      <trkpt lat="48.94362" lon="2.56878">
        <ele>61.4</ele>
        <time>2020-07-01T15:28:19Z</time>
      </trkpt>
      <trkpt lat="48.94362" lon="2.56878">
        <ele>61.3</ele>
        <time>2020-07-01T15:28:20Z</time>
      </trkpt>
      <trkpt lat="48.94362" lon="2.56877">
        <ele>61.3</ele>
        <time>2020-07-01T15:28:21Z</time>
      </trkpt>
      <trkpt lat="48.94362" lon="2.56876">
        <ele>61.3</ele>
        <time>2020-07-01T15:28:22Z</time>
      </trkpt>
      <trkpt lat="48.94363" lon="2.56877">
        <ele>61.3</ele>
        <time>2020-07-01T15:28:23Z</time>
      </trkpt>
      <trkpt lat="48.94362" lon="2.56877">
        <ele>61.3</ele>
        <time>2020-07-01T15:28:24Z</time>
      </trkpt>
      <trkpt lat="48.94362" lon="2.56879">
        <ele>61.3</ele>
        <time>2020-07-01T15:28:25Z</time>
      </trkpt>
      <trkpt lat="48.94363" lon="2.56879">
        <ele>61.3</ele>
        <time>2020-07-01T15:28:26Z</time>
      </trkpt>
      <trkpt lat="48.94363" lon="2.56879">
        <ele>61.3</ele>
        <time>2020-07-01T15:28:27Z</time>
      </trkpt>
      <trkpt lat="48.94363" lon="2.56879">
        <ele>61.3</ele>
        <time>2020-07-01T15:28:28Z</time>
      </trkpt>
      <trkpt lat="48.94363" lon="2.5688">
        <ele>61.2</ele>
        <time>2020-07-01T15:28:29Z</time>
      </trkpt>
      <trkpt lat="48.94363" lon="2.5688">
        <ele>61.2</ele>
        <time>2020-07-01T15:28:30Z</time>
      </trkpt>
      <trkpt lat="48.94363" lon="2.5688">
        <ele>61.2</ele>
        <time>2020-07-01T15:28:31Z</time>
      </trkpt>
      <trkpt lat="48.94363" lon="2.56883">
        <ele>61.2</ele>
        <time>2020-07-01T15:28:38Z</time>
      </trkpt>
      <trkpt lat="48.94364" lon="2.56885">
        <ele>61.2</ele>
        <time>2020-07-01T15:28:39Z</time>
      </trkpt>
      <trkpt lat="48.94365" lon="2.56887">
        <ele>61.3</ele>
        <time>2020-07-01T15:28:40Z</time>
      </trkpt>
      <trkpt lat="48.94365" lon="2.56889">
        <ele>61.3</ele>
        <time>2020-07-01T15:28:41Z</time>
      </trkpt>
      <trkpt lat="48.94365" lon="2.5689">
        <ele>61.3</ele>
        <time>2020-07-01T15:28:42Z</time>
      </trkpt>
      <trkpt lat="48.94365" lon="2.56892">
        <ele>61.4</ele>
        <time>2020-07-01T15:28:43Z</time>
      </trkpt>
      <trkpt lat="48.94365" lon="2.56894">
        <ele>61.5</ele>
        <time>2020-07-01T15:28:44Z</time>
      </trkpt>
      <trkpt lat="48.94365" lon="2.56896">
        <ele>61.5</ele>
        <time>2020-07-01T15:28:45Z</time>
      </trkpt>
      <trkpt lat="48.94365" lon="2.56899">
        <ele>61.6</ele>
        <time>2020-07-01T15:28:46Z</time>
      </trkpt>
      <trkpt lat="48.94367" lon="2.56901">
        <ele>61.3</ele>
        <time>2020-07-01T15:28:47Z</time>
      </trkpt>
      <trkpt lat="48.94367" lon="2.56903">
        <ele>61.2</ele>
        <time>2020-07-01T15:28:48Z</time>
      </trkpt>
      <trkpt lat="48.94369" lon="2.56907">
        <ele>60.8</ele>
        <time>2020-07-01T15:28:49Z</time>
      </trkpt>
      <trkpt lat="48.94371" lon="2.56911">
        <ele>60.4</ele>
        <time>2020-07-01T15:28:50Z</time>
      </trkpt>
      <trkpt lat="48.94371" lon="2.56912">
        <ele>60.3</ele>
        <time>2020-07-01T15:28:51Z</time>
      </trkpt>
      <trkpt lat="48.94372" lon="2.56913">
        <ele>60.1</ele>
        <time>2020-07-01T15:28:52Z</time>
      </trkpt>
      <trkpt lat="48.94373" lon="2.56916">
        <ele>59.8</ele>
        <time>2020-07-01T15:28:53Z</time>
      </trkpt>
      <trkpt lat="48.94375" lon="2.56919">
        <ele>59.4</ele>
        <time>2020-07-01T15:28:54Z</time>
      </trkpt>
      <trkpt lat="48.94376" lon="2.5692">
        <ele>59.2</ele>
        <time>2020-07-01T15:28:55Z</time>
      </trkpt>
      <trkpt lat="48.94377" lon="2.56922">
        <ele>59</ele>
        <time>2020-07-01T15:28:56Z</time>
      </trkpt>
      <trkpt lat="48.94378" lon="2.56924">
        <ele>58.7</ele>
        <time>2020-07-01T15:28:57Z</time>
      </trkpt>
      <trkpt lat="48.9438" lon="2.56924">
        <ele>58.5</ele>
        <time>2020-07-01T15:28:58Z</time>
      </trkpt>
      <trkpt lat="48.94381" lon="2.56926">
        <ele>55.9</ele>
        <time>2020-07-01T15:28:59Z</time>
      </trkpt>
      <trkpt lat="48.94382" lon="2.56928">
        <ele>55.9</ele>
        <time>2020-07-01T15:29:00Z</time>
      </trkpt>
      <trkpt lat="48.94383" lon="2.5693">
        <ele>55.8</ele>
        <time>2020-07-01T15:29:01Z</time>
      </trkpt>
      <trkpt lat="48.94384" lon="2.56931">
        <ele>55.8</ele>
        <time>2020-07-01T15:29:02Z</time>
      </trkpt>
      <trkpt lat="48.94384" lon="2.5693">
        <ele>55.8</ele>
        <time>2020-07-01T15:29:03Z</time>
      </trkpt>
      <trkpt lat="48.94384" lon="2.56925">
        <ele>55.7</ele>
        <time>2020-07-01T15:29:04Z</time>
      </trkpt>
      <trkpt lat="48.94384" lon="2.56919">
        <ele>55.6</ele>
        <time>2020-07-01T15:29:05Z</time>
      </trkpt>
      <trkpt lat="48.94383" lon="2.56912">
        <ele>55.6</ele>
        <time>2020-07-01T15:29:06Z</time>
      </trkpt>
      <trkpt lat="48.94382" lon="2.56906">
        <ele>55.5</ele>
        <time>2020-07-01T15:29:07Z</time>
      </trkpt>
      <trkpt lat="48.94382" lon="2.56899">
        <ele>55.4</ele>
        <time>2020-07-01T15:29:08Z</time>
      </trkpt>
      <trkpt lat="48.94381" lon="2.56893">
        <ele>55.3</ele>
        <time>2020-07-01T15:29:09Z</time>
      </trkpt>
      <trkpt lat="48.9438" lon="2.56887">
        <ele>55.3</ele>
        <time>2020-07-01T15:29:10Z</time>
      </trkpt>
      <trkpt lat="48.94381" lon="2.56881">
        <ele>55.2</ele>
        <time>2020-07-01T15:29:11Z</time>
      </trkpt>
      <trkpt lat="48.9438" lon="2.56876">
        <ele>55.2</ele>
        <time>2020-07-01T15:29:12Z</time>
      </trkpt>
      <trkpt lat="48.9438" lon="2.56875">
        <ele>55.2</ele>
        <time>2020-07-01T15:29:13Z</time>
      </trkpt>
      <trkpt lat="48.94379" lon="2.56871">
        <ele>55.2</ele>
        <time>2020-07-01T15:29:14Z</time>
      </trkpt>
      <trkpt lat="48.94379" lon="2.56869">
        <ele>55.2</ele>
        <time>2020-07-01T15:29:15Z</time>
      </trkpt>
      <trkpt lat="48.94379" lon="2.56863">
        <ele>55.2</ele>
        <time>2020-07-01T15:29:16Z</time>
      </trkpt>
      <trkpt lat="48.94378" lon="2.56861">
        <ele>55.1</ele>
        <time>2020-07-01T15:29:17Z</time>
      </trkpt>
      <trkpt lat="48.94375" lon="2.56857">
        <ele>55.1</ele>
        <time>2020-07-01T15:29:18Z</time>
      </trkpt>
      <trkpt lat="48.94373" lon="2.56851">
        <ele>55.1</ele>
        <time>2020-07-01T15:29:19Z</time>
      </trkpt>
      <trkpt lat="48.9437" lon="2.56846">
        <ele>55.1</ele>
        <time>2020-07-01T15:29:20Z</time>
      </trkpt>
      <trkpt lat="48.94368" lon="2.5684">
        <ele>55.1</ele>
        <time>2020-07-01T15:29:21Z</time>
      </trkpt>
      <trkpt lat="48.94366" lon="2.56834">
        <ele>55.1</ele>
        <time>2020-07-01T15:29:22Z</time>
      </trkpt>
      <trkpt lat="48.94363" lon="2.56827">
        <ele>55.2</ele>
        <time>2020-07-01T15:29:23Z</time>
      </trkpt>
      <trkpt lat="48.94361" lon="2.5682">
        <ele>55.2</ele>
        <time>2020-07-01T15:29:24Z</time>
      </trkpt>
      <trkpt lat="48.9436" lon="2.56814">
        <ele>55.3</ele>
        <time>2020-07-01T15:29:25Z</time>
      </trkpt>
      <trkpt lat="48.94358" lon="2.56809">
        <ele>55.3</ele>
        <time>2020-07-01T15:29:26Z</time>
      </trkpt>
      <trkpt lat="48.94356" lon="2.56805">
        <ele>55.5</ele>
        <time>2020-07-01T15:29:27Z</time>
      </trkpt>
      <trkpt lat="48.94354" lon="2.568">
        <ele>55.6</ele>
        <time>2020-07-01T15:29:28Z</time>
      </trkpt>
      <trkpt lat="48.94352" lon="2.56795">
        <ele>55.7</ele>
        <time>2020-07-01T15:29:29Z</time>
      </trkpt>
      <trkpt lat="48.9435" lon="2.5679">
        <ele>55.9</ele>
        <time>2020-07-01T15:29:30Z</time>
      </trkpt>
      <trkpt lat="48.94348" lon="2.56785">
        <ele>56</ele>
        <time>2020-07-01T15:29:31Z</time>
      </trkpt>
      <trkpt lat="48.94347" lon="2.56781">
        <ele>56.2</ele>
        <time>2020-07-01T15:29:32Z</time>
      </trkpt>
      <trkpt lat="48.94346" lon="2.56776">
        <ele>56.3</ele>
        <time>2020-07-01T15:29:33Z</time>
      </trkpt>
      <trkpt lat="48.94345" lon="2.56774">
        <ele>56.4</ele>
        <time>2020-07-01T15:29:34Z</time>
      </trkpt>
      <trkpt lat="48.94344" lon="2.56771">
        <ele>56.5</ele>
        <time>2020-07-01T15:29:35Z</time>
      </trkpt>
      <trkpt lat="48.94343" lon="2.56766">
        <ele>56.7</ele>
        <time>2020-07-01T15:29:36Z</time>
      </trkpt>
      <trkpt lat="48.94342" lon="2.56761">
        <ele>56.9</ele>
        <time>2020-07-01T15:29:37Z</time>
      </trkpt>
      <trkpt lat="48.9434" lon="2.56756">
        <ele>57.1</ele>
        <time>2020-07-01T15:29:38Z</time>
      </trkpt>
      <trkpt lat="48.94339" lon="2.56751">
        <ele>57.3</ele>
        <time>2020-07-01T15:29:39Z</time>
      </trkpt>
      <trkpt lat="48.94338" lon="2.56746">
        <ele>57.6</ele>
        <time>2020-07-01T15:29:40Z</time>
      </trkpt>
      <trkpt lat="48.94337" lon="2.56743">
        <ele>57.7</ele>
        <time>2020-07-01T15:29:41Z</time>
      </trkpt>
      <trkpt lat="48.94335" lon="2.56738">
        <ele>57.9</ele>
        <time>2020-07-01T15:29:42Z</time>
      </trkpt>
      <trkpt lat="48.94334" lon="2.56734">
        <ele>58.1</ele>
        <time>2020-07-01T15:29:43Z</time>
      </trkpt>
      <trkpt lat="48.94333" lon="2.56728">
        <ele>58.4</ele>
        <time>2020-07-01T15:29:44Z</time>
      </trkpt>
      <trkpt lat="48.94333" lon="2.56725">
        <ele>58.5</ele>
        <time>2020-07-01T15:29:45Z</time>
      </trkpt>
      <trkpt lat="48.94332" lon="2.56721">
        <ele>58.7</ele>
        <time>2020-07-01T15:29:46Z</time>
      </trkpt>
      <trkpt lat="48.9433" lon="2.56716">
        <ele>58.9</ele>
        <time>2020-07-01T15:29:47Z</time>
      </trkpt>
      <trkpt lat="48.94328" lon="2.56711">
        <ele>59.2</ele>
        <time>2020-07-01T15:29:48Z</time>
      </trkpt>
      <trkpt lat="48.94328" lon="2.5671">
        <ele>59.2</ele>
        <time>2020-07-01T15:29:49Z</time>
      </trkpt>
      <trkpt lat="48.94326" lon="2.56705">
        <ele>59.5</ele>
        <time>2020-07-01T15:29:50Z</time>
      </trkpt>
      <trkpt lat="48.94326" lon="2.56703">
        <ele>59.5</ele>
        <time>2020-07-01T15:29:51Z</time>
      </trkpt>
      <trkpt lat="48.94324" lon="2.56698">
        <ele>59.8</ele>
        <time>2020-07-01T15:29:52Z</time>
      </trkpt>
      <trkpt lat="48.94324" lon="2.56696">
        <ele>59.8</ele>
        <time>2020-07-01T15:29:53Z</time>
      </trkpt>
      <trkpt lat="48.94323" lon="2.56694">
        <ele>59.9</ele>
        <time>2020-07-01T15:29:54Z</time>
      </trkpt>
      <trkpt lat="48.94322" lon="2.56692">
        <ele>60</ele>
        <time>2020-07-01T15:29:55Z</time>
      </trkpt>
      <trkpt lat="48.9432" lon="2.56688">
        <ele>60.3</ele>
        <time>2020-07-01T15:29:56Z</time>
      </trkpt>
      <trkpt lat="48.94319" lon="2.56687">
        <ele>60.3</ele>
        <time>2020-07-01T15:29:57Z</time>
      </trkpt>
      <trkpt lat="48.94317" lon="2.56682">
        <ele>60.6</ele>
        <time>2020-07-01T15:29:58Z</time>
      </trkpt>
      <trkpt lat="48.94316" lon="2.5668">
        <ele>60.6</ele>
        <time>2020-07-01T15:29:59Z</time>
      </trkpt>
      <trkpt lat="48.94315" lon="2.56676">
        <ele>60.8</ele>
        <time>2020-07-01T15:30:00Z</time>
      </trkpt>
      <trkpt lat="48.94315" lon="2.56674">
        <ele>60.9</ele>
        <time>2020-07-01T15:30:01Z</time>
      </trkpt>
      <trkpt lat="48.94313" lon="2.56669">
        <ele>61.1</ele>
        <time>2020-07-01T15:30:02Z</time>
      </trkpt>
      <trkpt lat="48.94312" lon="2.56665">
        <ele>61.3</ele>
        <time>2020-07-01T15:30:03Z</time>
      </trkpt>
      <trkpt lat="48.94311" lon="2.5666">
        <ele>61.5</ele>
        <time>2020-07-01T15:30:04Z</time>
      </trkpt>
      <trkpt lat="48.9431" lon="2.56659">
        <ele>61.6</ele>
        <time>2020-07-01T15:30:05Z</time>
      </trkpt>
      <trkpt lat="48.94308" lon="2.56654">
        <ele>61.8</ele>
        <time>2020-07-01T15:30:06Z</time>
      </trkpt>
      <trkpt lat="48.94307" lon="2.56653">
        <ele>61.9</ele>
        <time>2020-07-01T15:30:07Z</time>
      </trkpt>
      <trkpt lat="48.94305" lon="2.56649">
        <ele>62.1</ele>
        <time>2020-07-01T15:30:08Z</time>
      </trkpt>
      <trkpt lat="48.94303" lon="2.56645">
        <ele>62.2</ele>
        <time>2020-07-01T15:30:09Z</time>
      </trkpt>
      <trkpt lat="48.94301" lon="2.56641">
        <ele>62.4</ele>
        <time>2020-07-01T15:30:10Z</time>
      </trkpt>
      <trkpt lat="48.943" lon="2.56637">
        <ele>62.6</ele>
        <time>2020-07-01T15:30:11Z</time>
      </trkpt>
      <trkpt lat="48.94299" lon="2.56632">
        <ele>62.8</ele>
        <time>2020-07-01T15:30:12Z</time>
      </trkpt>
      <trkpt lat="48.94298" lon="2.56631">
        <ele>62.8</ele>
        <time>2020-07-01T15:30:13Z</time>
      </trkpt>
      <trkpt lat="48.94296" lon="2.56627">
        <ele>63</ele>
        <time>2020-07-01T15:30:14Z</time>
      </trkpt>
      <trkpt lat="48.94295" lon="2.56626">
        <ele>63</ele>
        <time>2020-07-01T15:30:15Z</time>
      </trkpt>
      <trkpt lat="48.94293" lon="2.56623">
        <ele>63.2</ele>
        <time>2020-07-01T15:30:16Z</time>
      </trkpt>
      <trkpt lat="48.94291" lon="2.5662">
        <ele>63.4</ele>
        <time>2020-07-01T15:30:17Z</time>
      </trkpt>
      <trkpt lat="48.9429" lon="2.56615">
        <ele>63.6</ele>
        <time>2020-07-01T15:30:18Z</time>
      </trkpt>
      <trkpt lat="48.94287" lon="2.56611">
        <ele>63.8</ele>
        <time>2020-07-01T15:30:19Z</time>
      </trkpt>
      <trkpt lat="48.94285" lon="2.56606">
        <ele>64.1</ele>
        <time>2020-07-01T15:30:20Z</time>
      </trkpt>
      <trkpt lat="48.94284" lon="2.56605">
        <ele>64.2</ele>
        <time>2020-07-01T15:30:21Z</time>
      </trkpt>
      <trkpt lat="48.94282" lon="2.56601">
        <ele>64.5</ele>
        <time>2020-07-01T15:30:22Z</time>
      </trkpt>
      <trkpt lat="48.94281" lon="2.56597">
        <ele>64.7</ele>
        <time>2020-07-01T15:30:23Z</time>
      </trkpt>
      <trkpt lat="48.94281" lon="2.56595">
        <ele>64.8</ele>
        <time>2020-07-01T15:30:24Z</time>
      </trkpt>
      <trkpt lat="48.94279" lon="2.5659">
        <ele>65.1</ele>
        <time>2020-07-01T15:30:25Z</time>
      </trkpt>
      <trkpt lat="48.94279" lon="2.56589">
        <ele>65.2</ele>
        <time>2020-07-01T15:30:26Z</time>
      </trkpt>
      <trkpt lat="48.94277" lon="2.56585">
        <ele>65.4</ele>
        <time>2020-07-01T15:30:27Z</time>
      </trkpt>
      <trkpt lat="48.94276" lon="2.56585">
        <ele>65.5</ele>
        <time>2020-07-01T15:30:28Z</time>
      </trkpt>
      <trkpt lat="48.94275" lon="2.56584">
        <ele>65.6</ele>
        <time>2020-07-01T15:30:29Z</time>
      </trkpt>
      <trkpt lat="48.94272" lon="2.56582">
        <ele>65.9</ele>
        <time>2020-07-01T15:30:30Z</time>
      </trkpt>
      <trkpt lat="48.94271" lon="2.56582">
        <ele>66</ele>
        <time>2020-07-01T15:30:31Z</time>
      </trkpt>
      <trkpt lat="48.94268" lon="2.56581">
        <ele>66.3</ele>
        <time>2020-07-01T15:30:32Z</time>
      </trkpt>
      <trkpt lat="48.94267" lon="2.5658">
        <ele>66.4</ele>
        <time>2020-07-01T15:30:33Z</time>
      </trkpt>
      <trkpt lat="48.94264" lon="2.56579">
        <ele>66.7</ele>
        <time>2020-07-01T15:30:34Z</time>
      </trkpt>
      <trkpt lat="48.94262" lon="2.56578">
        <ele>66.9</ele>
        <time>2020-07-01T15:30:35Z</time>
      </trkpt>
      <trkpt lat="48.94259" lon="2.56576">
        <ele>67.2</ele>
        <time>2020-07-01T15:30:36Z</time>
      </trkpt>
      <trkpt lat="48.94258" lon="2.56576">
        <ele>67.3</ele>
        <time>2020-07-01T15:30:37Z</time>
      </trkpt>
      <trkpt lat="48.94257" lon="2.56574">
        <ele>67.4</ele>
        <time>2020-07-01T15:30:38Z</time>
      </trkpt>
      <trkpt lat="48.94255" lon="2.56573">
        <ele>67.5</ele>
        <time>2020-07-01T15:30:39Z</time>
      </trkpt>
      <trkpt lat="48.94252" lon="2.56568">
        <ele>67.8</ele>
        <time>2020-07-01T15:30:40Z</time>
      </trkpt>
      <trkpt lat="48.94251" lon="2.56567">
        <ele>67.9</ele>
        <time>2020-07-01T15:30:41Z</time>
      </trkpt>
      <trkpt lat="48.94246" lon="2.5656">
        <ele>68.5</ele>
        <time>2020-07-01T15:30:42Z</time>
      </trkpt>
      <trkpt lat="48.94241" lon="2.56555">
        <ele>68.5</ele>
        <time>2020-07-01T15:30:43Z</time>
      </trkpt>
      <trkpt lat="48.94237" lon="2.56553">
        <ele>68.4</ele>
        <time>2020-07-01T15:30:44Z</time>
      </trkpt>
      <trkpt lat="48.94232" lon="2.5655">
        <ele>68.3</ele>
        <time>2020-07-01T15:30:45Z</time>
      </trkpt>
      <trkpt lat="48.94228" lon="2.56547">
        <ele>68.1</ele>
        <time>2020-07-01T15:30:46Z</time>
      </trkpt>
      <trkpt lat="48.94222" lon="2.56545">
        <ele>67.7</ele>
        <time>2020-07-01T15:30:47Z</time>
      </trkpt>
      <trkpt lat="48.94217" lon="2.56545">
        <ele>67.3</ele>
        <time>2020-07-01T15:30:48Z</time>
      </trkpt>
      <trkpt lat="48.94212" lon="2.56545">
        <ele>67</ele>
        <time>2020-07-01T15:30:49Z</time>
      </trkpt>
      <trkpt lat="48.94209" lon="2.56545">
        <ele>66.7</ele>
        <time>2020-07-01T15:30:50Z</time>
      </trkpt>
      <trkpt lat="48.94206" lon="2.56544">
        <ele>66.5</ele>
        <time>2020-07-01T15:30:51Z</time>
      </trkpt>
      <trkpt lat="48.94202" lon="2.56539">
        <ele>66.2</ele>
        <time>2020-07-01T15:30:52Z</time>
      </trkpt>
      <trkpt lat="48.94199" lon="2.56531">
        <ele>65.8</ele>
        <time>2020-07-01T15:30:53Z</time>
      </trkpt>
      <trkpt lat="48.94196" lon="2.56524">
        <ele>65.6</ele>
        <time>2020-07-01T15:30:54Z</time>
      </trkpt>
      <trkpt lat="48.94194" lon="2.56517">
        <ele>65.4</ele>
        <time>2020-07-01T15:30:55Z</time>
      </trkpt>
      <trkpt lat="48.94191" lon="2.5651">
        <ele>65.1</ele>
        <time>2020-07-01T15:30:56Z</time>
      </trkpt>
      <trkpt lat="48.94188" lon="2.565">
        <ele>65</ele>
        <time>2020-07-01T15:30:57Z</time>
      </trkpt>
      <trkpt lat="48.94186" lon="2.56493">
        <ele>64.9</ele>
        <time>2020-07-01T15:30:58Z</time>
      </trkpt>
      <trkpt lat="48.94185" lon="2.56486">
        <ele>64.8</ele>
        <time>2020-07-01T15:30:59Z</time>
      </trkpt>
      <trkpt lat="48.94183" lon="2.56481">
        <ele>64.7</ele>
        <time>2020-07-01T15:31:00Z</time>
      </trkpt>
      <trkpt lat="48.9418" lon="2.56476">
        <ele>64.6</ele>
        <time>2020-07-01T15:31:01Z</time>
      </trkpt>
      <trkpt lat="48.94178" lon="2.5647">
        <ele>64.6</ele>
        <time>2020-07-01T15:31:02Z</time>
      </trkpt>
      <trkpt lat="48.94177" lon="2.56464">
        <ele>64.5</ele>
        <time>2020-07-01T15:31:03Z</time>
      </trkpt>
      <trkpt lat="48.94175" lon="2.56457">
        <ele>64.4</ele>
        <time>2020-07-01T15:31:04Z</time>
      </trkpt>
      <trkpt lat="48.94173" lon="2.56452">
        <ele>64.4</ele>
        <time>2020-07-01T15:31:05Z</time>
      </trkpt>
      <trkpt lat="48.94171" lon="2.56445">
        <ele>64.3</ele>
        <time>2020-07-01T15:31:06Z</time>
      </trkpt>
      <trkpt lat="48.9417" lon="2.56437">
        <ele>64.3</ele>
        <time>2020-07-01T15:31:07Z</time>
      </trkpt>
      <trkpt lat="48.94168" lon="2.56429">
        <ele>64.2</ele>
        <time>2020-07-01T15:31:08Z</time>
      </trkpt>
      <trkpt lat="48.94164" lon="2.56418">
        <ele>64.1</ele>
        <time>2020-07-01T15:31:09Z</time>
      </trkpt>
      <trkpt lat="48.9416" lon="2.56405">
        <ele>64</ele>
        <time>2020-07-01T15:31:10Z</time>
      </trkpt>
      <trkpt lat="48.94156" lon="2.56392">
        <ele>64</ele>
        <time>2020-07-01T15:31:11Z</time>
      </trkpt>
      <trkpt lat="48.94152" lon="2.56379">
        <ele>63.9</ele>
        <time>2020-07-01T15:31:12Z</time>
      </trkpt>
      <trkpt lat="48.9415" lon="2.56368">
        <ele>63.8</ele>
        <time>2020-07-01T15:31:13Z</time>
      </trkpt>
      <trkpt lat="48.94149" lon="2.56359">
        <ele>63.8</ele>
        <time>2020-07-01T15:31:14Z</time>
      </trkpt>
      <trkpt lat="48.94147" lon="2.5635">
        <ele>63.8</ele>
        <time>2020-07-01T15:31:15Z</time>
      </trkpt>
      <trkpt lat="48.94146" lon="2.5634">
        <ele>63.7</ele>
        <time>2020-07-01T15:31:16Z</time>
      </trkpt>
      <trkpt lat="48.94142" lon="2.56331">
        <ele>63.7</ele>
        <time>2020-07-01T15:31:17Z</time>
      </trkpt>
      <trkpt lat="48.94139" lon="2.56326">
        <ele>63.7</ele>
        <time>2020-07-01T15:31:18Z</time>
      </trkpt>
      <trkpt lat="48.94136" lon="2.56317">
        <ele>63.6</ele>
        <time>2020-07-01T15:31:19Z</time>
      </trkpt>
      <trkpt lat="48.94132" lon="2.56308">
        <ele>63.6</ele>
        <time>2020-07-01T15:31:20Z</time>
      </trkpt>
      <trkpt lat="48.94129" lon="2.56298">
        <ele>63.6</ele>
        <time>2020-07-01T15:31:21Z</time>
      </trkpt>
      <trkpt lat="48.94127" lon="2.56289">
        <ele>63.5</ele>
        <time>2020-07-01T15:31:22Z</time>
      </trkpt>
      <trkpt lat="48.94125" lon="2.5628">
        <ele>63.5</ele>
        <time>2020-07-01T15:31:23Z</time>
      </trkpt>
      <trkpt lat="48.94122" lon="2.56271">
        <ele>63.5</ele>
        <time>2020-07-01T15:31:24Z</time>
      </trkpt>
      <trkpt lat="48.94119" lon="2.56261">
        <ele>63.5</ele>
        <time>2020-07-01T15:31:25Z</time>
      </trkpt>
      <trkpt lat="48.94116" lon="2.56252">
        <ele>63.4</ele>
        <time>2020-07-01T15:31:26Z</time>
      </trkpt>
      <trkpt lat="48.94113" lon="2.56245">
        <ele>63.4</ele>
        <time>2020-07-01T15:31:27Z</time>
      </trkpt>
      <trkpt lat="48.94112" lon="2.56237">
        <ele>63.4</ele>
        <time>2020-07-01T15:31:28Z</time>
      </trkpt>
      <trkpt lat="48.94111" lon="2.56229">
        <ele>63.3</ele>
        <time>2020-07-01T15:31:29Z</time>
      </trkpt>
      <trkpt lat="48.94108" lon="2.56222">
        <ele>63.3</ele>
        <time>2020-07-01T15:31:30Z</time>
      </trkpt>
      <trkpt lat="48.94106" lon="2.56215">
        <ele>63.3</ele>
        <time>2020-07-01T15:31:31Z</time>
      </trkpt>
      <trkpt lat="48.94103" lon="2.56207">
        <ele>63.2</ele>
        <time>2020-07-01T15:31:32Z</time>
      </trkpt>
      <trkpt lat="48.941" lon="2.56199">
        <ele>63.2</ele>
        <time>2020-07-01T15:31:33Z</time>
      </trkpt>
      <trkpt lat="48.94098" lon="2.56192">
        <ele>63.2</ele>
        <time>2020-07-01T15:31:34Z</time>
      </trkpt>
      <trkpt lat="48.94094" lon="2.56184">
        <ele>63.2</ele>
        <time>2020-07-01T15:31:35Z</time>
      </trkpt>
      <trkpt lat="48.94092" lon="2.56175">
        <ele>63.2</ele>
        <time>2020-07-01T15:31:36Z</time>
      </trkpt>
      <trkpt lat="48.94092" lon="2.56164">
        <ele>63.1</ele>
        <time>2020-07-01T15:31:37Z</time>
      </trkpt>
      <trkpt lat="48.94091" lon="2.56154">
        <ele>63.1</ele>
        <time>2020-07-01T15:31:38Z</time>
      </trkpt>
      <trkpt lat="48.9409" lon="2.56144">
        <ele>63.1</ele>
        <time>2020-07-01T15:31:39Z</time>
      </trkpt>
      <trkpt lat="48.94088" lon="2.56134">
        <ele>63.1</ele>
        <time>2020-07-01T15:31:40Z</time>
      </trkpt>
      <trkpt lat="48.94086" lon="2.56124">
        <ele>63.1</ele>
        <time>2020-07-01T15:31:41Z</time>
      </trkpt>
      <trkpt lat="48.94083" lon="2.56114">
        <ele>63.1</ele>
        <time>2020-07-01T15:31:42Z</time>
      </trkpt>
      <trkpt lat="48.94081" lon="2.56104">
        <ele>63.1</ele>
        <time>2020-07-01T15:31:43Z</time>
      </trkpt>
      <trkpt lat="48.94079" lon="2.56094">
        <ele>63.1</ele>
        <time>2020-07-01T15:31:44Z</time>
      </trkpt>
      <trkpt lat="48.94076" lon="2.56083">
        <ele>63.1</ele>
        <time>2020-07-01T15:31:45Z</time>
      </trkpt>
      <trkpt lat="48.94074" lon="2.56074">
        <ele>63.1</ele>
        <time>2020-07-01T15:31:46Z</time>
      </trkpt>
      <trkpt lat="48.94072" lon="2.56063">
        <ele>63.1</ele>
        <time>2020-07-01T15:31:47Z</time>
      </trkpt>
      <trkpt lat="48.9407" lon="2.56054">
        <ele>63.1</ele>
        <time>2020-07-01T15:31:48Z</time>
      </trkpt>
      <trkpt lat="48.94068" lon="2.56044">
        <ele>63</ele>
        <time>2020-07-01T15:31:49Z</time>
      </trkpt>
      <trkpt lat="48.94065" lon="2.56034">
        <ele>63</ele>
        <time>2020-07-01T15:31:50Z</time>
      </trkpt>
      <trkpt lat="48.94063" lon="2.56026">
        <ele>63</ele>
        <time>2020-07-01T15:31:51Z</time>
      </trkpt>
      <trkpt lat="48.94061" lon="2.56017">
        <ele>63</ele>
        <time>2020-07-01T15:31:52Z</time>
      </trkpt>
      <trkpt lat="48.94059" lon="2.5601">
        <ele>63</ele>
        <time>2020-07-01T15:31:53Z</time>
      </trkpt>
      <trkpt lat="48.94056" lon="2.55998">
        <ele>63</ele>
        <time>2020-07-01T15:31:54Z</time>
      </trkpt>
      <trkpt lat="48.94053" lon="2.55987">
        <ele>63</ele>
        <time>2020-07-01T15:31:55Z</time>
      </trkpt>
      <trkpt lat="48.9405" lon="2.55977">
        <ele>63</ele>
        <time>2020-07-01T15:31:56Z</time>
      </trkpt>
      <trkpt lat="48.94048" lon="2.55967">
        <ele>63</ele>
        <time>2020-07-01T15:31:57Z</time>
      </trkpt>
      <trkpt lat="48.94045" lon="2.55955">
        <ele>62.9</ele>
        <time>2020-07-01T15:31:58Z</time>
      </trkpt>
      <trkpt lat="48.94042" lon="2.55946">
        <ele>62.9</ele>
        <time>2020-07-01T15:31:59Z</time>
      </trkpt>
      <trkpt lat="48.9404" lon="2.55937">
        <ele>62.9</ele>
        <time>2020-07-01T15:32:00Z</time>
      </trkpt>
      <trkpt lat="48.94037" lon="2.55926">
        <ele>62.9</ele>
        <time>2020-07-01T15:32:01Z</time>
      </trkpt>
      <trkpt lat="48.94034" lon="2.55918">
        <ele>62.9</ele>
        <time>2020-07-01T15:32:02Z</time>
      </trkpt>
      <trkpt lat="48.94031" lon="2.55908">
        <ele>62.9</ele>
        <time>2020-07-01T15:32:03Z</time>
      </trkpt>
      <trkpt lat="48.94029" lon="2.559">
        <ele>62.8</ele>
        <time>2020-07-01T15:32:04Z</time>
      </trkpt>
      <trkpt lat="48.94026" lon="2.55892">
        <ele>62.8</ele>
        <time>2020-07-01T15:32:05Z</time>
      </trkpt>
      <trkpt lat="48.94023" lon="2.55882">
        <ele>62.9</ele>
        <time>2020-07-01T15:32:06Z</time>
      </trkpt>
      <trkpt lat="48.9402" lon="2.55871">
        <ele>62.9</ele>
        <time>2020-07-01T15:32:07Z</time>
      </trkpt>
      <trkpt lat="48.9402" lon="2.55863">
        <ele>62.9</ele>
        <time>2020-07-01T15:32:08Z</time>
      </trkpt>
      <trkpt lat="48.94018" lon="2.55853">
        <ele>62.9</ele>
        <time>2020-07-01T15:32:09Z</time>
      </trkpt>
      <trkpt lat="48.94016" lon="2.55844">
        <ele>62.9</ele>
        <time>2020-07-01T15:32:10Z</time>
      </trkpt>
      <trkpt lat="48.94014" lon="2.55835">
        <ele>62.9</ele>
        <time>2020-07-01T15:32:11Z</time>
      </trkpt>
      <trkpt lat="48.94012" lon="2.55826">
        <ele>62.9</ele>
        <time>2020-07-01T15:32:12Z</time>
      </trkpt>
      <trkpt lat="48.9401" lon="2.55816">
        <ele>62.9</ele>
        <time>2020-07-01T15:32:13Z</time>
      </trkpt>
      <trkpt lat="48.94008" lon="2.55808">
        <ele>62.9</ele>
        <time>2020-07-01T15:32:14Z</time>
      </trkpt>
      <trkpt lat="48.94007" lon="2.55801">
        <ele>62.9</ele>
        <time>2020-07-01T15:32:15Z</time>
      </trkpt>
      <trkpt lat="48.94004" lon="2.55792">
        <ele>62.9</ele>
        <time>2020-07-01T15:32:16Z</time>
      </trkpt>
      <trkpt lat="48.94002" lon="2.55783">
        <ele>62.8</ele>
        <time>2020-07-01T15:32:17Z</time>
      </trkpt>
      <trkpt lat="48.94001" lon="2.55774">
        <ele>62.8</ele>
        <time>2020-07-01T15:32:18Z</time>
      </trkpt>
      <trkpt lat="48.93999" lon="2.55765">
        <ele>62.8</ele>
        <time>2020-07-01T15:32:19Z</time>
      </trkpt>
      <trkpt lat="48.93997" lon="2.55755">
        <ele>62.8</ele>
        <time>2020-07-01T15:32:20Z</time>
      </trkpt>
      <trkpt lat="48.93995" lon="2.55745">
        <ele>62.8</ele>
        <time>2020-07-01T15:32:21Z</time>
      </trkpt>
      <trkpt lat="48.93992" lon="2.55735">
        <ele>62.8</ele>
        <time>2020-07-01T15:32:22Z</time>
      </trkpt>
      <trkpt lat="48.93989" lon="2.55725">
        <ele>62.8</ele>
        <time>2020-07-01T15:32:23Z</time>
      </trkpt>
      <trkpt lat="48.93987" lon="2.55714">
        <ele>62.8</ele>
        <time>2020-07-01T15:32:24Z</time>
      </trkpt>
      <trkpt lat="48.93986" lon="2.55704">
        <ele>62.8</ele>
        <time>2020-07-01T15:32:25Z</time>
      </trkpt>
      <trkpt lat="48.93984" lon="2.55694">
        <ele>62.8</ele>
        <time>2020-07-01T15:32:26Z</time>
      </trkpt>
      <trkpt lat="48.93981" lon="2.55685">
        <ele>62.8</ele>
        <time>2020-07-01T15:32:27Z</time>
      </trkpt>
      <trkpt lat="48.93978" lon="2.55676">
        <ele>62.8</ele>
        <time>2020-07-01T15:32:28Z</time>
      </trkpt>
      <trkpt lat="48.93976" lon="2.55667">
        <ele>62.9</ele>
        <time>2020-07-01T15:32:29Z</time>
      </trkpt>
      <trkpt lat="48.93973" lon="2.55657">
        <ele>62.9</ele>
        <time>2020-07-01T15:32:30Z</time>
      </trkpt>
      <trkpt lat="48.93969" lon="2.55648">
        <ele>62.9</ele>
        <time>2020-07-01T15:32:31Z</time>
      </trkpt>
      <trkpt lat="48.93967" lon="2.5564">
        <ele>62.9</ele>
        <time>2020-07-01T15:32:32Z</time>
      </trkpt>
      <trkpt lat="48.93964" lon="2.55631">
        <ele>62.9</ele>
        <time>2020-07-01T15:32:33Z</time>
      </trkpt>
      <trkpt lat="48.93962" lon="2.55621">
        <ele>62.9</ele>
        <time>2020-07-01T15:32:34Z</time>
      </trkpt>
      <trkpt lat="48.9396" lon="2.55613">
        <ele>62.9</ele>
        <time>2020-07-01T15:32:35Z</time>
      </trkpt>
      <trkpt lat="48.93956" lon="2.55603">
        <ele>63</ele>
        <time>2020-07-01T15:32:36Z</time>
      </trkpt>
      <trkpt lat="48.93953" lon="2.55595">
        <ele>63</ele>
        <time>2020-07-01T15:32:37Z</time>
      </trkpt>
      <trkpt lat="48.93951" lon="2.55585">
        <ele>63</ele>
        <time>2020-07-01T15:32:38Z</time>
      </trkpt>
      <trkpt lat="48.93949" lon="2.55575">
        <ele>63</ele>
        <time>2020-07-01T15:32:39Z</time>
      </trkpt>
      <trkpt lat="48.93946" lon="2.55564">
        <ele>63</ele>
        <time>2020-07-01T15:32:40Z</time>
      </trkpt>
      <trkpt lat="48.93944" lon="2.55553">
        <ele>62.9</ele>
        <time>2020-07-01T15:32:41Z</time>
      </trkpt>
      <trkpt lat="48.93942" lon="2.55544">
        <ele>62.9</ele>
        <time>2020-07-01T15:32:42Z</time>
      </trkpt>
      <trkpt lat="48.9394" lon="2.55535">
        <ele>62.9</ele>
        <time>2020-07-01T15:32:43Z</time>
      </trkpt>
      <trkpt lat="48.93938" lon="2.55526">
        <ele>62.9</ele>
        <time>2020-07-01T15:32:44Z</time>
      </trkpt>
      <trkpt lat="48.93935" lon="2.55516">
        <ele>62.9</ele>
        <time>2020-07-01T15:32:45Z</time>
      </trkpt>
      <trkpt lat="48.93933" lon="2.55505">
        <ele>62.9</ele>
        <time>2020-07-01T15:32:46Z</time>
      </trkpt>
      <trkpt lat="48.9393" lon="2.55494">
        <ele>62.9</ele>
        <time>2020-07-01T15:32:47Z</time>
      </trkpt>
      <trkpt lat="48.93928" lon="2.55483">
        <ele>62.9</ele>
        <time>2020-07-01T15:32:48Z</time>
      </trkpt>
      <trkpt lat="48.93925" lon="2.55472">
        <ele>62.8</ele>
        <time>2020-07-01T15:32:49Z</time>
      </trkpt>
      <trkpt lat="48.93923" lon="2.55463">
        <ele>62.8</ele>
        <time>2020-07-01T15:32:50Z</time>
      </trkpt>
      <trkpt lat="48.93921" lon="2.55452">
        <ele>62.8</ele>
        <time>2020-07-01T15:32:51Z</time>
      </trkpt>
      <trkpt lat="48.93919" lon="2.55443">
        <ele>62.8</ele>
        <time>2020-07-01T15:32:52Z</time>
      </trkpt>
      <trkpt lat="48.93916" lon="2.55434">
        <ele>62.8</ele>
        <time>2020-07-01T15:32:53Z</time>
      </trkpt>
      <trkpt lat="48.93912" lon="2.55424">
        <ele>62.8</ele>
        <time>2020-07-01T15:32:54Z</time>
      </trkpt>
      <trkpt lat="48.93911" lon="2.55415">
        <ele>62.8</ele>
        <time>2020-07-01T15:32:55Z</time>
      </trkpt>
      <trkpt lat="48.93909" lon="2.55406">
        <ele>62.8</ele>
        <time>2020-07-01T15:32:56Z</time>
      </trkpt>
      <trkpt lat="48.93907" lon="2.55397">
        <ele>62.8</ele>
        <time>2020-07-01T15:32:57Z</time>
      </trkpt>
      <trkpt lat="48.93905" lon="2.55387">
        <ele>62.8</ele>
        <time>2020-07-01T15:32:58Z</time>
      </trkpt>
      <trkpt lat="48.93903" lon="2.55376">
        <ele>62.8</ele>
        <time>2020-07-01T15:32:59Z</time>
      </trkpt>
      <trkpt lat="48.93902" lon="2.55365">
        <ele>62.8</ele>
        <time>2020-07-01T15:33:00Z</time>
      </trkpt>
      <trkpt lat="48.93901" lon="2.55354">
        <ele>62.8</ele>
        <time>2020-07-01T15:33:01Z</time>
      </trkpt>
      <trkpt lat="48.93897" lon="2.55345">
        <ele>62.7</ele>
        <time>2020-07-01T15:33:02Z</time>
      </trkpt>
      <trkpt lat="48.93895" lon="2.55336">
        <ele>62.7</ele>
        <time>2020-07-01T15:33:03Z</time>
      </trkpt>
      <trkpt lat="48.93893" lon="2.55326">
        <ele>62.7</ele>
        <time>2020-07-01T15:33:04Z</time>
      </trkpt>
      <trkpt lat="48.9389" lon="2.55316">
        <ele>62.7</ele>
        <time>2020-07-01T15:33:05Z</time>
      </trkpt>
      <trkpt lat="48.93888" lon="2.55306">
        <ele>62.7</ele>
        <time>2020-07-01T15:33:06Z</time>
      </trkpt>
      <trkpt lat="48.93886" lon="2.55297">
        <ele>62.6</ele>
        <time>2020-07-01T15:33:07Z</time>
      </trkpt>
      <trkpt lat="48.93883" lon="2.55288">
        <ele>62.6</ele>
        <time>2020-07-01T15:33:08Z</time>
      </trkpt>
      <trkpt lat="48.9388" lon="2.55278">
        <ele>62.6</ele>
        <time>2020-07-01T15:33:09Z</time>
      </trkpt>
      <trkpt lat="48.93878" lon="2.55266">
        <ele>62.5</ele>
        <time>2020-07-01T15:33:10Z</time>
      </trkpt>
      <trkpt lat="48.93876" lon="2.55255">
        <ele>62.4</ele>
        <time>2020-07-01T15:33:11Z</time>
      </trkpt>
      <trkpt lat="48.93874" lon="2.55244">
        <ele>62.4</ele>
        <time>2020-07-01T15:33:12Z</time>
      </trkpt>
      <trkpt lat="48.93874" lon="2.55234">
        <ele>62.4</ele>
        <time>2020-07-01T15:33:13Z</time>
      </trkpt>
      <trkpt lat="48.93872" lon="2.55225">
        <ele>62.3</ele>
        <time>2020-07-01T15:33:14Z</time>
      </trkpt>
      <trkpt lat="48.93869" lon="2.55215">
        <ele>62.3</ele>
        <time>2020-07-01T15:33:15Z</time>
      </trkpt>
      <trkpt lat="48.93867" lon="2.55204">
        <ele>62.3</ele>
        <time>2020-07-01T15:33:16Z</time>
      </trkpt>
      <trkpt lat="48.93863" lon="2.55192">
        <ele>62.2</ele>
        <time>2020-07-01T15:33:17Z</time>
      </trkpt>
      <trkpt lat="48.93861" lon="2.55182">
        <ele>62.2</ele>
        <time>2020-07-01T15:33:18Z</time>
      </trkpt>
      <trkpt lat="48.93859" lon="2.55173">
        <ele>62.2</ele>
        <time>2020-07-01T15:33:19Z</time>
      </trkpt>
      <trkpt lat="48.93856" lon="2.55166">
        <ele>62.2</ele>
        <time>2020-07-01T15:33:20Z</time>
      </trkpt>
      <trkpt lat="48.93854" lon="2.55157">
        <ele>62.1</ele>
        <time>2020-07-01T15:33:21Z</time>
      </trkpt>
      <trkpt lat="48.93852" lon="2.55147">
        <ele>62.1</ele>
        <time>2020-07-01T15:33:22Z</time>
      </trkpt>
      <trkpt lat="48.9385" lon="2.55138">
        <ele>62.1</ele>
        <time>2020-07-01T15:33:23Z</time>
      </trkpt>
      <trkpt lat="48.93848" lon="2.55128">
        <ele>62.1</ele>
        <time>2020-07-01T15:33:24Z</time>
      </trkpt>
      <trkpt lat="48.93847" lon="2.55119">
        <ele>62.1</ele>
        <time>2020-07-01T15:33:25Z</time>
      </trkpt>
      <trkpt lat="48.93846" lon="2.5511">
        <ele>62</ele>
        <time>2020-07-01T15:33:26Z</time>
      </trkpt>
      <trkpt lat="48.93844" lon="2.55101">
        <ele>62</ele>
        <time>2020-07-01T15:33:27Z</time>
      </trkpt>
      <trkpt lat="48.93841" lon="2.55092">
        <ele>62</ele>
        <time>2020-07-01T15:33:28Z</time>
      </trkpt>
      <trkpt lat="48.93839" lon="2.55082">
        <ele>61.9</ele>
        <time>2020-07-01T15:33:29Z</time>
      </trkpt>
      <trkpt lat="48.93838" lon="2.55072">
        <ele>61.9</ele>
        <time>2020-07-01T15:33:30Z</time>
      </trkpt>
      <trkpt lat="48.93836" lon="2.55062">
        <ele>61.9</ele>
        <time>2020-07-01T15:33:31Z</time>
      </trkpt>
      <trkpt lat="48.93834" lon="2.55053">
        <ele>61.8</ele>
        <time>2020-07-01T15:33:32Z</time>
      </trkpt>
      <trkpt lat="48.93832" lon="2.55044">
        <ele>61.8</ele>
        <time>2020-07-01T15:33:33Z</time>
      </trkpt>
      <trkpt lat="48.9383" lon="2.55033">
        <ele>61.8</ele>
        <time>2020-07-01T15:33:34Z</time>
      </trkpt>
      <trkpt lat="48.93826" lon="2.55022">
        <ele>61.8</ele>
        <time>2020-07-01T15:33:35Z</time>
      </trkpt>
      <trkpt lat="48.93824" lon="2.55013">
        <ele>61.8</ele>
        <time>2020-07-01T15:33:36Z</time>
      </trkpt>
      <trkpt lat="48.93821" lon="2.55004">
        <ele>61.8</ele>
        <time>2020-07-01T15:33:37Z</time>
      </trkpt>
      <trkpt lat="48.93819" lon="2.54995">
        <ele>61.8</ele>
        <time>2020-07-01T15:33:38Z</time>
      </trkpt>
      <trkpt lat="48.93817" lon="2.54987">
        <ele>61.7</ele>
        <time>2020-07-01T15:33:39Z</time>
      </trkpt>
      <trkpt lat="48.93814" lon="2.54979">
        <ele>61.7</ele>
        <time>2020-07-01T15:33:40Z</time>
      </trkpt>
      <trkpt lat="48.93812" lon="2.5497">
        <ele>61.7</ele>
        <time>2020-07-01T15:33:41Z</time>
      </trkpt>
      <trkpt lat="48.93811" lon="2.54961">
        <ele>61.6</ele>
        <time>2020-07-01T15:33:42Z</time>
      </trkpt>
      <trkpt lat="48.93809" lon="2.54953">
        <ele>61.6</ele>
        <time>2020-07-01T15:33:43Z</time>
      </trkpt>
      <trkpt lat="48.93807" lon="2.54944">
        <ele>61.5</ele>
        <time>2020-07-01T15:33:44Z</time>
      </trkpt>
      <trkpt lat="48.93806" lon="2.54936">
        <ele>61.5</ele>
        <time>2020-07-01T15:33:45Z</time>
      </trkpt>
      <trkpt lat="48.93805" lon="2.54927">
        <ele>61.4</ele>
        <time>2020-07-01T15:33:46Z</time>
      </trkpt>
      <trkpt lat="48.93803" lon="2.54918">
        <ele>61.4</ele>
        <time>2020-07-01T15:33:47Z</time>
      </trkpt>
      <trkpt lat="48.93801" lon="2.54909">
        <ele>61.4</ele>
        <time>2020-07-01T15:33:48Z</time>
      </trkpt>
      <trkpt lat="48.938" lon="2.54899">
        <ele>61.4</ele>
        <time>2020-07-01T15:33:49Z</time>
      </trkpt>
      <trkpt lat="48.93797" lon="2.54889">
        <ele>61.3</ele>
        <time>2020-07-01T15:33:50Z</time>
      </trkpt>
      <trkpt lat="48.93794" lon="2.54881">
        <ele>61.3</ele>
        <time>2020-07-01T15:33:51Z</time>
      </trkpt>
      <trkpt lat="48.93792" lon="2.54873">
        <ele>61.3</ele>
        <time>2020-07-01T15:33:52Z</time>
      </trkpt>
      <trkpt lat="48.9379" lon="2.54865">
        <ele>61.3</ele>
        <time>2020-07-01T15:33:53Z</time>
      </trkpt>
      <trkpt lat="48.93788" lon="2.54856">
        <ele>61.3</ele>
        <time>2020-07-01T15:33:54Z</time>
      </trkpt>
      <trkpt lat="48.93787" lon="2.54849">
        <ele>61.3</ele>
        <time>2020-07-01T15:33:55Z</time>
      </trkpt>
      <trkpt lat="48.93786" lon="2.54841">
        <ele>61.3</ele>
        <time>2020-07-01T15:33:56Z</time>
      </trkpt>
      <trkpt lat="48.93786" lon="2.54833">
        <ele>61.3</ele>
        <time>2020-07-01T15:33:57Z</time>
      </trkpt>
      <trkpt lat="48.93786" lon="2.54826">
        <ele>61.3</ele>
        <time>2020-07-01T15:33:58Z</time>
      </trkpt>
      <trkpt lat="48.93787" lon="2.5482">
        <ele>61.3</ele>
        <time>2020-07-01T15:33:59Z</time>
      </trkpt>
      <trkpt lat="48.9379" lon="2.54815">
        <ele>61.3</ele>
        <time>2020-07-01T15:34:00Z</time>
      </trkpt>
      <trkpt lat="48.93793" lon="2.54811">
        <ele>61.3</ele>
        <time>2020-07-01T15:34:01Z</time>
      </trkpt>
      <trkpt lat="48.93797" lon="2.54808">
        <ele>61.3</ele>
        <time>2020-07-01T15:34:02Z</time>
      </trkpt>
      <trkpt lat="48.938" lon="2.54805">
        <ele>61.3</ele>
        <time>2020-07-01T15:34:03Z</time>
      </trkpt>
      <trkpt lat="48.93803" lon="2.54801">
        <ele>61.3</ele>
        <time>2020-07-01T15:34:04Z</time>
      </trkpt>
      <trkpt lat="48.93807" lon="2.54796">
        <ele>61.3</ele>
        <time>2020-07-01T15:34:05Z</time>
      </trkpt>
      <trkpt lat="48.93812" lon="2.54791">
        <ele>61.2</ele>
        <time>2020-07-01T15:34:06Z</time>
      </trkpt>
      <trkpt lat="48.93817" lon="2.54783">
        <ele>61.2</ele>
        <time>2020-07-01T15:34:07Z</time>
      </trkpt>
      <trkpt lat="48.93821" lon="2.54776">
        <ele>61.2</ele>
        <time>2020-07-01T15:34:08Z</time>
      </trkpt>
      <trkpt lat="48.93823" lon="2.54769">
        <ele>61.2</ele>
        <time>2020-07-01T15:34:09Z</time>
      </trkpt>
      <trkpt lat="48.93824" lon="2.5476">
        <ele>61.3</ele>
        <time>2020-07-01T15:34:10Z</time>
      </trkpt>
      <trkpt lat="48.93824" lon="2.54755">
        <ele>61.3</ele>
        <time>2020-07-01T15:34:11Z</time>
      </trkpt>
      <trkpt lat="48.93822" lon="2.5475">
        <ele>61.4</ele>
        <time>2020-07-01T15:34:12Z</time>
      </trkpt>
      <trkpt lat="48.9382" lon="2.54745">
        <ele>61.4</ele>
        <time>2020-07-01T15:34:13Z</time>
      </trkpt>
      <trkpt lat="48.93818" lon="2.54739">
        <ele>61.5</ele>
        <time>2020-07-01T15:34:14Z</time>
      </trkpt>
      <trkpt lat="48.93816" lon="2.54733">
        <ele>61.5</ele>
        <time>2020-07-01T15:34:15Z</time>
      </trkpt>
      <trkpt lat="48.93815" lon="2.54726">
        <ele>61.6</ele>
        <time>2020-07-01T15:34:16Z</time>
      </trkpt>
      <trkpt lat="48.93813" lon="2.5472">
        <ele>61.6</ele>
        <time>2020-07-01T15:34:17Z</time>
      </trkpt>
      <trkpt lat="48.93811" lon="2.54711">
        <ele>61.6</ele>
        <time>2020-07-01T15:34:18Z</time>
      </trkpt>
      <trkpt lat="48.93809" lon="2.54703">
        <ele>61.6</ele>
        <time>2020-07-01T15:34:19Z</time>
      </trkpt>
      <trkpt lat="48.93807" lon="2.54695">
        <ele>61.6</ele>
        <time>2020-07-01T15:34:20Z</time>
      </trkpt>
      <trkpt lat="48.93805" lon="2.54686">
        <ele>61.7</ele>
        <time>2020-07-01T15:34:21Z</time>
      </trkpt>
      <trkpt lat="48.93803" lon="2.54676">
        <ele>61.7</ele>
        <time>2020-07-01T15:34:22Z</time>
      </trkpt>
      <trkpt lat="48.93801" lon="2.54668">
        <ele>61.7</ele>
        <time>2020-07-01T15:34:23Z</time>
      </trkpt>
      <trkpt lat="48.93797" lon="2.54659">
        <ele>61.6</ele>
        <time>2020-07-01T15:34:24Z</time>
      </trkpt>
      <trkpt lat="48.93795" lon="2.5465">
        <ele>61.6</ele>
        <time>2020-07-01T15:34:25Z</time>
      </trkpt>
      <trkpt lat="48.93792" lon="2.5464">
        <ele>61.5</ele>
        <time>2020-07-01T15:34:26Z</time>
      </trkpt>
      <trkpt lat="48.93788" lon="2.54629">
        <ele>61.5</ele>
        <time>2020-07-01T15:34:27Z</time>
      </trkpt>
      <trkpt lat="48.93785" lon="2.54618">
        <ele>61.5</ele>
        <time>2020-07-01T15:34:28Z</time>
      </trkpt>
      <trkpt lat="48.93782" lon="2.54608">
        <ele>61.5</ele>
        <time>2020-07-01T15:34:29Z</time>
      </trkpt>
      <trkpt lat="48.93779" lon="2.54598">
        <ele>61.4</ele>
        <time>2020-07-01T15:34:30Z</time>
      </trkpt>
      <trkpt lat="48.93777" lon="2.54589">
        <ele>61.4</ele>
        <time>2020-07-01T15:34:31Z</time>
      </trkpt>
      <trkpt lat="48.93775" lon="2.54581">
        <ele>61.4</ele>
        <time>2020-07-01T15:34:32Z</time>
      </trkpt>
      <trkpt lat="48.93773" lon="2.54573">
        <ele>61.4</ele>
        <time>2020-07-01T15:34:33Z</time>
      </trkpt>
      <trkpt lat="48.93771" lon="2.54563">
        <ele>61.4</ele>
        <time>2020-07-01T15:34:34Z</time>
      </trkpt>
      <trkpt lat="48.93768" lon="2.54553">
        <ele>61.4</ele>
        <time>2020-07-01T15:34:35Z</time>
      </trkpt>
      <trkpt lat="48.93767" lon="2.54543">
        <ele>61.4</ele>
        <time>2020-07-01T15:34:36Z</time>
      </trkpt>
      <trkpt lat="48.93766" lon="2.54533">
        <ele>61.4</ele>
        <time>2020-07-01T15:34:37Z</time>
      </trkpt>
      <trkpt lat="48.93765" lon="2.54525">
        <ele>61.4</ele>
        <time>2020-07-01T15:34:38Z</time>
      </trkpt>
      <trkpt lat="48.93764" lon="2.54516">
        <ele>61.4</ele>
        <time>2020-07-01T15:34:39Z</time>
      </trkpt>
      <trkpt lat="48.93762" lon="2.54508">
        <ele>61.4</ele>
        <time>2020-07-01T15:34:40Z</time>
      </trkpt>
      <trkpt lat="48.93761" lon="2.54499">
        <ele>61.4</ele>
        <time>2020-07-01T15:34:41Z</time>
      </trkpt>
      <trkpt lat="48.93758" lon="2.5449">
        <ele>61.4</ele>
        <time>2020-07-01T15:34:42Z</time>
      </trkpt>
      <trkpt lat="48.93757" lon="2.54482">
        <ele>61.4</ele>
        <time>2020-07-01T15:34:43Z</time>
      </trkpt>
      <trkpt lat="48.93755" lon="2.54473">
        <ele>61.4</ele>
        <time>2020-07-01T15:34:44Z</time>
      </trkpt>
      <trkpt lat="48.93753" lon="2.54465">
        <ele>61.4</ele>
        <time>2020-07-01T15:34:45Z</time>
      </trkpt>
      <trkpt lat="48.93751" lon="2.54454">
        <ele>61.3</ele>
        <time>2020-07-01T15:34:46Z</time>
      </trkpt>
      <trkpt lat="48.93747" lon="2.54442">
        <ele>61.3</ele>
        <time>2020-07-01T15:34:47Z</time>
      </trkpt>
      <trkpt lat="48.93745" lon="2.54432">
        <ele>61.3</ele>
        <time>2020-07-01T15:34:48Z</time>
      </trkpt>
      <trkpt lat="48.93742" lon="2.54423">
        <ele>61.2</ele>
        <time>2020-07-01T15:34:49Z</time>
      </trkpt>
      <trkpt lat="48.93739" lon="2.54412">
        <ele>61.2</ele>
        <time>2020-07-01T15:34:50Z</time>
      </trkpt>
      <trkpt lat="48.93736" lon="2.54403">
        <ele>61.1</ele>
        <time>2020-07-01T15:34:51Z</time>
      </trkpt>
      <trkpt lat="48.93733" lon="2.54394">
        <ele>61.1</ele>
        <time>2020-07-01T15:34:52Z</time>
      </trkpt>
      <trkpt lat="48.9373" lon="2.54385">
        <ele>61.1</ele>
        <time>2020-07-01T15:34:53Z</time>
      </trkpt>
      <trkpt lat="48.93727" lon="2.54377">
        <ele>61.1</ele>
        <time>2020-07-01T15:34:54Z</time>
      </trkpt>
      <trkpt lat="48.93725" lon="2.54368">
        <ele>61.1</ele>
        <time>2020-07-01T15:34:55Z</time>
      </trkpt>
      <trkpt lat="48.93723" lon="2.5436">
        <ele>61.1</ele>
        <time>2020-07-01T15:34:56Z</time>
      </trkpt>
      <trkpt lat="48.9372" lon="2.5435">
        <ele>61.1</ele>
        <time>2020-07-01T15:34:57Z</time>
      </trkpt>
      <trkpt lat="48.93717" lon="2.54341">
        <ele>61</ele>
        <time>2020-07-01T15:34:58Z</time>
      </trkpt>
      <trkpt lat="48.93714" lon="2.54331">
        <ele>61</ele>
        <time>2020-07-01T15:34:59Z</time>
      </trkpt>
      <trkpt lat="48.93712" lon="2.54321">
        <ele>60.9</ele>
        <time>2020-07-01T15:35:00Z</time>
      </trkpt>
      <trkpt lat="48.93709" lon="2.54311">
        <ele>60.8</ele>
        <time>2020-07-01T15:35:01Z</time>
      </trkpt>
      <trkpt lat="48.93705" lon="2.54301">
        <ele>60.7</ele>
        <time>2020-07-01T15:35:02Z</time>
      </trkpt>
      <trkpt lat="48.93702" lon="2.5429">
        <ele>60.7</ele>
        <time>2020-07-01T15:35:03Z</time>
      </trkpt>
      <trkpt lat="48.93699" lon="2.54278">
        <ele>60.8</ele>
        <time>2020-07-01T15:35:04Z</time>
      </trkpt>
      <trkpt lat="48.93697" lon="2.54268">
        <ele>60.8</ele>
        <time>2020-07-01T15:35:05Z</time>
      </trkpt>
      <trkpt lat="48.93696" lon="2.5426">
        <ele>60.9</ele>
        <time>2020-07-01T15:35:06Z</time>
      </trkpt>
      <trkpt lat="48.93694" lon="2.5425">
        <ele>60.9</ele>
        <time>2020-07-01T15:35:07Z</time>
      </trkpt>
      <trkpt lat="48.93691" lon="2.54242">
        <ele>60.9</ele>
        <time>2020-07-01T15:35:08Z</time>
      </trkpt>
      <trkpt lat="48.9369" lon="2.54233">
        <ele>60.9</ele>
        <time>2020-07-01T15:35:09Z</time>
      </trkpt>
      <trkpt lat="48.93688" lon="2.54225">
        <ele>60.9</ele>
        <time>2020-07-01T15:35:10Z</time>
      </trkpt>
      <trkpt lat="48.93687" lon="2.54216">
        <ele>60.9</ele>
        <time>2020-07-01T15:35:11Z</time>
      </trkpt>
      <trkpt lat="48.93686" lon="2.54206">
        <ele>60.9</ele>
        <time>2020-07-01T15:35:12Z</time>
      </trkpt>
      <trkpt lat="48.93683" lon="2.54197">
        <ele>60.9</ele>
        <time>2020-07-01T15:35:13Z</time>
      </trkpt>
      <trkpt lat="48.93681" lon="2.54189">
        <ele>60.9</ele>
        <time>2020-07-01T15:35:14Z</time>
      </trkpt>
      <trkpt lat="48.93679" lon="2.54181">
        <ele>61</ele>
        <time>2020-07-01T15:35:15Z</time>
      </trkpt>
      <trkpt lat="48.93678" lon="2.54172">
        <ele>61</ele>
        <time>2020-07-01T15:35:16Z</time>
      </trkpt>
      <trkpt lat="48.93676" lon="2.54163">
        <ele>61</ele>
        <time>2020-07-01T15:35:17Z</time>
      </trkpt>
      <trkpt lat="48.93675" lon="2.54153">
        <ele>61</ele>
        <time>2020-07-01T15:35:18Z</time>
      </trkpt>
      <trkpt lat="48.93673" lon="2.54145">
        <ele>61</ele>
        <time>2020-07-01T15:35:19Z</time>
      </trkpt>
      <trkpt lat="48.93671" lon="2.54135">
        <ele>61</ele>
        <time>2020-07-01T15:35:20Z</time>
      </trkpt>
      <trkpt lat="48.93669" lon="2.54125">
        <ele>61.1</ele>
        <time>2020-07-01T15:35:21Z</time>
      </trkpt>
      <trkpt lat="48.93666" lon="2.54116">
        <ele>61.1</ele>
        <time>2020-07-01T15:35:22Z</time>
      </trkpt>
      <trkpt lat="48.93663" lon="2.54108">
        <ele>61.2</ele>
        <time>2020-07-01T15:35:23Z</time>
      </trkpt>
      <trkpt lat="48.93661" lon="2.541">
        <ele>61.3</ele>
        <time>2020-07-01T15:35:24Z</time>
      </trkpt>
      <trkpt lat="48.93657" lon="2.54092">
        <ele>61.3</ele>
        <time>2020-07-01T15:35:25Z</time>
      </trkpt>
      <trkpt lat="48.93654" lon="2.54085">
        <ele>61.3</ele>
        <time>2020-07-01T15:35:26Z</time>
      </trkpt>
      <trkpt lat="48.93651" lon="2.54077">
        <ele>61.3</ele>
        <time>2020-07-01T15:35:27Z</time>
      </trkpt>
      <trkpt lat="48.93649" lon="2.54067">
        <ele>61.3</ele>
        <time>2020-07-01T15:35:28Z</time>
      </trkpt>
      <trkpt lat="48.93648" lon="2.5406">
        <ele>61.3</ele>
        <time>2020-07-01T15:35:29Z</time>
      </trkpt>
      <trkpt lat="48.93645" lon="2.5405">
        <ele>61.2</ele>
        <time>2020-07-01T15:35:30Z</time>
      </trkpt>
      <trkpt lat="48.93642" lon="2.54039">
        <ele>61.1</ele>
        <time>2020-07-01T15:35:31Z</time>
      </trkpt>
      <trkpt lat="48.93639" lon="2.54028">
        <ele>61</ele>
        <time>2020-07-01T15:35:32Z</time>
      </trkpt>
      <trkpt lat="48.93637" lon="2.54018">
        <ele>60.9</ele>
        <time>2020-07-01T15:35:33Z</time>
      </trkpt>
      <trkpt lat="48.93636" lon="2.5401">
        <ele>60.8</ele>
        <time>2020-07-01T15:35:34Z</time>
      </trkpt>
      <trkpt lat="48.93634" lon="2.53998">
        <ele>60.6</ele>
        <time>2020-07-01T15:35:35Z</time>
      </trkpt>
      <trkpt lat="48.93634" lon="2.53988">
        <ele>60.4</ele>
        <time>2020-07-01T15:35:36Z</time>
      </trkpt>
      <trkpt lat="48.93631" lon="2.53981">
        <ele>60.2</ele>
        <time>2020-07-01T15:35:37Z</time>
      </trkpt>
      <trkpt lat="48.93628" lon="2.53971">
        <ele>60</ele>
        <time>2020-07-01T15:35:38Z</time>
      </trkpt>
      <trkpt lat="48.93624" lon="2.53962">
        <ele>59.7</ele>
        <time>2020-07-01T15:35:39Z</time>
      </trkpt>
      <trkpt lat="48.93621" lon="2.53954">
        <ele>59.5</ele>
        <time>2020-07-01T15:35:40Z</time>
      </trkpt>
      <trkpt lat="48.93618" lon="2.53942">
        <ele>59.3</ele>
        <time>2020-07-01T15:35:41Z</time>
      </trkpt>
      <trkpt lat="48.93614" lon="2.5393">
        <ele>59</ele>
        <time>2020-07-01T15:35:42Z</time>
      </trkpt>
      <trkpt lat="48.9361" lon="2.5392">
        <ele>58.8</ele>
        <time>2020-07-01T15:35:43Z</time>
      </trkpt>
      <trkpt lat="48.93607" lon="2.53909">
        <ele>58.5</ele>
        <time>2020-07-01T15:35:44Z</time>
      </trkpt>
      <trkpt lat="48.93605" lon="2.539">
        <ele>58.3</ele>
        <time>2020-07-01T15:35:45Z</time>
      </trkpt>
      <trkpt lat="48.93603" lon="2.53891">
        <ele>58.3</ele>
        <time>2020-07-01T15:35:46Z</time>
      </trkpt>
      <trkpt lat="48.93601" lon="2.53878">
        <ele>58.4</ele>
        <time>2020-07-01T15:35:47Z</time>
      </trkpt>
      <trkpt lat="48.93599" lon="2.53866">
        <ele>58.4</ele>
        <time>2020-07-01T15:35:48Z</time>
      </trkpt>
      <trkpt lat="48.93598" lon="2.53854">
        <ele>58.3</ele>
        <time>2020-07-01T15:35:49Z</time>
      </trkpt>
      <trkpt lat="48.93596" lon="2.53843">
        <ele>58.3</ele>
        <time>2020-07-01T15:35:50Z</time>
      </trkpt>
      <trkpt lat="48.93593" lon="2.53832">
        <ele>58.3</ele>
        <time>2020-07-01T15:35:51Z</time>
      </trkpt>
      <trkpt lat="48.93591" lon="2.53822">
        <ele>58.3</ele>
        <time>2020-07-01T15:35:52Z</time>
      </trkpt>
      <trkpt lat="48.93589" lon="2.53813">
        <ele>58.3</ele>
        <time>2020-07-01T15:35:53Z</time>
      </trkpt>
      <trkpt lat="48.93587" lon="2.53804">
        <ele>58.4</ele>
        <time>2020-07-01T15:35:54Z</time>
      </trkpt>
      <trkpt lat="48.93585" lon="2.53793">
        <ele>58.4</ele>
        <time>2020-07-01T15:35:55Z</time>
      </trkpt>
      <trkpt lat="48.93583" lon="2.53783">
        <ele>58.5</ele>
        <time>2020-07-01T15:35:56Z</time>
      </trkpt>
      <trkpt lat="48.93581" lon="2.53773">
        <ele>58.6</ele>
        <time>2020-07-01T15:35:57Z</time>
      </trkpt>
      <trkpt lat="48.93579" lon="2.53762">
        <ele>58.6</ele>
        <time>2020-07-01T15:35:58Z</time>
      </trkpt>
      <trkpt lat="48.93578" lon="2.53752">
        <ele>58.6</ele>
        <time>2020-07-01T15:35:59Z</time>
      </trkpt>
      <trkpt lat="48.93575" lon="2.53739">
        <ele>58.6</ele>
        <time>2020-07-01T15:36:00Z</time>
      </trkpt>
      <trkpt lat="48.93572" lon="2.53727">
        <ele>58.6</ele>
        <time>2020-07-01T15:36:01Z</time>
      </trkpt>
      <trkpt lat="48.93569" lon="2.53718">
        <ele>58.5</ele>
        <time>2020-07-01T15:36:02Z</time>
      </trkpt>
      <trkpt lat="48.93566" lon="2.53706">
        <ele>58.5</ele>
        <time>2020-07-01T15:36:03Z</time>
      </trkpt>
      <trkpt lat="48.93564" lon="2.53696">
        <ele>58.6</ele>
        <time>2020-07-01T15:36:04Z</time>
      </trkpt>
      <trkpt lat="48.93561" lon="2.53687">
        <ele>58.6</ele>
        <time>2020-07-01T15:36:05Z</time>
      </trkpt>
      <trkpt lat="48.93558" lon="2.53676">
        <ele>58.6</ele>
        <time>2020-07-01T15:36:06Z</time>
      </trkpt>
      <trkpt lat="48.93555" lon="2.53665">
        <ele>58.6</ele>
        <time>2020-07-01T15:36:07Z</time>
      </trkpt>
      <trkpt lat="48.93553" lon="2.53655">
        <ele>58.6</ele>
        <time>2020-07-01T15:36:08Z</time>
      </trkpt>
      <trkpt lat="48.93551" lon="2.53644">
        <ele>58.6</ele>
        <time>2020-07-01T15:36:09Z</time>
      </trkpt>
      <trkpt lat="48.93548" lon="2.53633">
        <ele>58.6</ele>
        <time>2020-07-01T15:36:10Z</time>
      </trkpt>
      <trkpt lat="48.93546" lon="2.53622">
        <ele>58.6</ele>
        <time>2020-07-01T15:36:11Z</time>
      </trkpt>
      <trkpt lat="48.93544" lon="2.53614">
        <ele>58.5</ele>
        <time>2020-07-01T15:36:12Z</time>
      </trkpt>
      <trkpt lat="48.93543" lon="2.53606">
        <ele>58.4</ele>
        <time>2020-07-01T15:36:13Z</time>
      </trkpt>
      <trkpt lat="48.9354" lon="2.53598">
        <ele>58.3</ele>
        <time>2020-07-01T15:36:14Z</time>
      </trkpt>
      <trkpt lat="48.93538" lon="2.5359">
        <ele>58.2</ele>
        <time>2020-07-01T15:36:15Z</time>
      </trkpt>
      <trkpt lat="48.93536" lon="2.53582">
        <ele>58</ele>
        <time>2020-07-01T15:36:16Z</time>
      </trkpt>
      <trkpt lat="48.93534" lon="2.53574">
        <ele>57.8</ele>
        <time>2020-07-01T15:36:17Z</time>
      </trkpt>
      <trkpt lat="48.93532" lon="2.53566">
        <ele>57.5</ele>
        <time>2020-07-01T15:36:18Z</time>
      </trkpt>
      <trkpt lat="48.9353" lon="2.53558">
        <ele>57.2</ele>
        <time>2020-07-01T15:36:19Z</time>
      </trkpt>
      <trkpt lat="48.93528" lon="2.53549">
        <ele>56.9</ele>
        <time>2020-07-01T15:36:20Z</time>
      </trkpt>
      <trkpt lat="48.93527" lon="2.53541">
        <ele>56.7</ele>
        <time>2020-07-01T15:36:21Z</time>
      </trkpt>
      <trkpt lat="48.93525" lon="2.53533">
        <ele>56.4</ele>
        <time>2020-07-01T15:36:22Z</time>
      </trkpt>
      <trkpt lat="48.93525" lon="2.53526">
        <ele>56.2</ele>
        <time>2020-07-01T15:36:23Z</time>
      </trkpt>
      <trkpt lat="48.93525" lon="2.53517">
        <ele>55.8</ele>
        <time>2020-07-01T15:36:24Z</time>
      </trkpt>
      <trkpt lat="48.93526" lon="2.53509">
        <ele>55.8</ele>
        <time>2020-07-01T15:36:25Z</time>
      </trkpt>
      <trkpt lat="48.93525" lon="2.53501">
        <ele>55.7</ele>
        <time>2020-07-01T15:36:26Z</time>
      </trkpt>
      <trkpt lat="48.93523" lon="2.53493">
        <ele>55.6</ele>
        <time>2020-07-01T15:36:27Z</time>
      </trkpt>
      <trkpt lat="48.93521" lon="2.53486">
        <ele>55.6</ele>
        <time>2020-07-01T15:36:28Z</time>
      </trkpt>
      <trkpt lat="48.9352" lon="2.53478">
        <ele>55.5</ele>
        <time>2020-07-01T15:36:29Z</time>
      </trkpt>
      <trkpt lat="48.93519" lon="2.5347">
        <ele>55.4</ele>
        <time>2020-07-01T15:36:30Z</time>
      </trkpt>
      <trkpt lat="48.93516" lon="2.53462">
        <ele>55.4</ele>
        <time>2020-07-01T15:36:31Z</time>
      </trkpt>
      <trkpt lat="48.93514" lon="2.53453">
        <ele>55.4</ele>
        <time>2020-07-01T15:36:32Z</time>
      </trkpt>
      <trkpt lat="48.93512" lon="2.53445">
        <ele>55.4</ele>
        <time>2020-07-01T15:36:33Z</time>
      </trkpt>
      <trkpt lat="48.93509" lon="2.53437">
        <ele>55.3</ele>
        <time>2020-07-01T15:36:34Z</time>
      </trkpt>
      <trkpt lat="48.93507" lon="2.53429">
        <ele>55.3</ele>
        <time>2020-07-01T15:36:35Z</time>
      </trkpt>
      <trkpt lat="48.93504" lon="2.5342">
        <ele>55.2</ele>
        <time>2020-07-01T15:36:36Z</time>
      </trkpt>
      <trkpt lat="48.93502" lon="2.53412">
        <ele>55.2</ele>
        <time>2020-07-01T15:36:37Z</time>
      </trkpt>
      <trkpt lat="48.935" lon="2.53403">
        <ele>55.1</ele>
        <time>2020-07-01T15:36:38Z</time>
      </trkpt>
      <trkpt lat="48.93499" lon="2.53395">
        <ele>55.1</ele>
        <time>2020-07-01T15:36:39Z</time>
      </trkpt>
      <trkpt lat="48.93497" lon="2.53387">
        <ele>55</ele>
        <time>2020-07-01T15:36:40Z</time>
      </trkpt>
      <trkpt lat="48.93496" lon="2.53379">
        <ele>55</ele>
        <time>2020-07-01T15:36:41Z</time>
      </trkpt>
      <trkpt lat="48.93494" lon="2.53372">
        <ele>55.1</ele>
        <time>2020-07-01T15:36:42Z</time>
      </trkpt>
      <trkpt lat="48.93492" lon="2.53366">
        <ele>55.1</ele>
        <time>2020-07-01T15:36:43Z</time>
      </trkpt>
      <trkpt lat="48.93489" lon="2.53359">
        <ele>55.1</ele>
        <time>2020-07-01T15:36:44Z</time>
      </trkpt>
      <trkpt lat="48.93486" lon="2.53352">
        <ele>55.4</ele>
        <time>2020-07-01T15:36:45Z</time>
      </trkpt>
      <trkpt lat="48.93483" lon="2.53346">
        <ele>55.6</ele>
        <time>2020-07-01T15:36:46Z</time>
      </trkpt>
      <trkpt lat="48.93481" lon="2.53339">
        <ele>55.7</ele>
        <time>2020-07-01T15:36:47Z</time>
      </trkpt>
      <trkpt lat="48.93479" lon="2.53333">
        <ele>55.9</ele>
        <time>2020-07-01T15:36:48Z</time>
      </trkpt>
      <trkpt lat="48.93477" lon="2.53327">
        <ele>56.1</ele>
        <time>2020-07-01T15:36:49Z</time>
      </trkpt>
      <trkpt lat="48.93475" lon="2.53322">
        <ele>56.2</ele>
        <time>2020-07-01T15:36:50Z</time>
      </trkpt>
      <trkpt lat="48.93474" lon="2.53317">
        <ele>56.3</ele>
        <time>2020-07-01T15:36:51Z</time>
      </trkpt>
      <trkpt lat="48.93473" lon="2.53312">
        <ele>56.4</ele>
        <time>2020-07-01T15:36:52Z</time>
      </trkpt>
      <trkpt lat="48.93471" lon="2.53307">
        <ele>56.6</ele>
        <time>2020-07-01T15:36:53Z</time>
      </trkpt>
      <trkpt lat="48.9347" lon="2.53302">
        <ele>56.7</ele>
        <time>2020-07-01T15:36:54Z</time>
      </trkpt>
      <trkpt lat="48.93469" lon="2.53297">
        <ele>56.9</ele>
        <time>2020-07-01T15:36:55Z</time>
      </trkpt>
      <trkpt lat="48.93468" lon="2.53292">
        <ele>57</ele>
        <time>2020-07-01T15:36:56Z</time>
      </trkpt>
      <trkpt lat="48.93466" lon="2.53287">
        <ele>57.1</ele>
        <time>2020-07-01T15:36:57Z</time>
      </trkpt>
      <trkpt lat="48.93464" lon="2.53283">
        <ele>57.2</ele>
        <time>2020-07-01T15:36:58Z</time>
      </trkpt>
      <trkpt lat="48.93462" lon="2.53279">
        <ele>57.3</ele>
        <time>2020-07-01T15:36:59Z</time>
      </trkpt>
      <trkpt lat="48.93461" lon="2.53274">
        <ele>57.4</ele>
        <time>2020-07-01T15:37:00Z</time>
      </trkpt>
      <trkpt lat="48.9346" lon="2.53269">
        <ele>57.5</ele>
        <time>2020-07-01T15:37:01Z</time>
      </trkpt>
      <trkpt lat="48.93458" lon="2.53264">
        <ele>57.6</ele>
        <time>2020-07-01T15:37:02Z</time>
      </trkpt>
      <trkpt lat="48.93456" lon="2.53258">
        <ele>57.6</ele>
        <time>2020-07-01T15:37:03Z</time>
      </trkpt>
      <trkpt lat="48.93455" lon="2.53251">
        <ele>57.7</ele>
        <time>2020-07-01T15:37:04Z</time>
      </trkpt>
      <trkpt lat="48.93453" lon="2.53244">
        <ele>57.7</ele>
        <time>2020-07-01T15:37:05Z</time>
      </trkpt>
      <trkpt lat="48.93452" lon="2.53236">
        <ele>57.7</ele>
        <time>2020-07-01T15:37:06Z</time>
      </trkpt>
      <trkpt lat="48.9345" lon="2.53228">
        <ele>57.7</ele>
        <time>2020-07-01T15:37:07Z</time>
      </trkpt>
      <trkpt lat="48.93449" lon="2.5322">
        <ele>57.7</ele>
        <time>2020-07-01T15:37:08Z</time>
      </trkpt>
      <trkpt lat="48.93447" lon="2.53213">
        <ele>57.7</ele>
        <time>2020-07-01T15:37:09Z</time>
      </trkpt>
      <trkpt lat="48.93446" lon="2.53206">
        <ele>57.7</ele>
        <time>2020-07-01T15:37:10Z</time>
      </trkpt>
      <trkpt lat="48.93443" lon="2.53199">
        <ele>57.6</ele>
        <time>2020-07-01T15:37:11Z</time>
      </trkpt>
      <trkpt lat="48.93442" lon="2.53192">
        <ele>57.6</ele>
        <time>2020-07-01T15:37:12Z</time>
      </trkpt>
      <trkpt lat="48.9344" lon="2.53184">
        <ele>57.6</ele>
        <time>2020-07-01T15:37:13Z</time>
      </trkpt>
      <trkpt lat="48.93438" lon="2.53177">
        <ele>57.6</ele>
        <time>2020-07-01T15:37:14Z</time>
      </trkpt>
      <trkpt lat="48.93437" lon="2.53169">
        <ele>57.6</ele>
        <time>2020-07-01T15:37:15Z</time>
      </trkpt>
      <trkpt lat="48.93435" lon="2.53162">
        <ele>57.5</ele>
        <time>2020-07-01T15:37:16Z</time>
      </trkpt>
      <trkpt lat="48.93432" lon="2.53154">
        <ele>57.5</ele>
        <time>2020-07-01T15:37:17Z</time>
      </trkpt>
      <trkpt lat="48.9343" lon="2.53146">
        <ele>57.5</ele>
        <time>2020-07-01T15:37:18Z</time>
      </trkpt>
      <trkpt lat="48.93429" lon="2.53137">
        <ele>57.4</ele>
        <time>2020-07-01T15:37:19Z</time>
      </trkpt>
      <trkpt lat="48.93427" lon="2.53128">
        <ele>57.4</ele>
        <time>2020-07-01T15:37:20Z</time>
      </trkpt>
      <trkpt lat="48.93426" lon="2.53119">
        <ele>57.3</ele>
        <time>2020-07-01T15:37:21Z</time>
      </trkpt>
      <trkpt lat="48.93423" lon="2.53111">
        <ele>57.3</ele>
        <time>2020-07-01T15:37:22Z</time>
      </trkpt>
      <trkpt lat="48.93421" lon="2.53102">
        <ele>57.2</ele>
        <time>2020-07-01T15:37:23Z</time>
      </trkpt>
      <trkpt lat="48.9342" lon="2.53094">
        <ele>57.2</ele>
        <time>2020-07-01T15:37:24Z</time>
      </trkpt>
      <trkpt lat="48.93417" lon="2.53085">
        <ele>57.1</ele>
        <time>2020-07-01T15:37:25Z</time>
      </trkpt>
      <trkpt lat="48.93415" lon="2.53077">
        <ele>57</ele>
        <time>2020-07-01T15:37:26Z</time>
      </trkpt>
      <trkpt lat="48.93411" lon="2.53068">
        <ele>56.9</ele>
        <time>2020-07-01T15:37:27Z</time>
      </trkpt>
      <trkpt lat="48.93409" lon="2.5306">
        <ele>56.9</ele>
        <time>2020-07-01T15:37:28Z</time>
      </trkpt>
      <trkpt lat="48.93406" lon="2.53051">
        <ele>56.8</ele>
        <time>2020-07-01T15:37:29Z</time>
      </trkpt>
      <trkpt lat="48.93403" lon="2.53042">
        <ele>56.7</ele>
        <time>2020-07-01T15:37:30Z</time>
      </trkpt>
      <trkpt lat="48.934" lon="2.53033">
        <ele>56.7</ele>
        <time>2020-07-01T15:37:31Z</time>
      </trkpt>
      <trkpt lat="48.93398" lon="2.53024">
        <ele>56.6</ele>
        <time>2020-07-01T15:37:32Z</time>
      </trkpt>
      <trkpt lat="48.93396" lon="2.53014">
        <ele>56.5</ele>
        <time>2020-07-01T15:37:33Z</time>
      </trkpt>
      <trkpt lat="48.93393" lon="2.53005">
        <ele>56.4</ele>
        <time>2020-07-01T15:37:34Z</time>
      </trkpt>
      <trkpt lat="48.93391" lon="2.52996">
        <ele>56.3</ele>
        <time>2020-07-01T15:37:35Z</time>
      </trkpt>
      <trkpt lat="48.93389" lon="2.52986">
        <ele>56.3</ele>
        <time>2020-07-01T15:37:36Z</time>
      </trkpt>
      <trkpt lat="48.93387" lon="2.52977">
        <ele>56.2</ele>
        <time>2020-07-01T15:37:37Z</time>
      </trkpt>
      <trkpt lat="48.93385" lon="2.52968">
        <ele>56.2</ele>
        <time>2020-07-01T15:37:38Z</time>
      </trkpt>
      <trkpt lat="48.93382" lon="2.52959">
        <ele>56.1</ele>
        <time>2020-07-01T15:37:39Z</time>
      </trkpt>
      <trkpt lat="48.9338" lon="2.5295">
        <ele>56</ele>
        <time>2020-07-01T15:37:40Z</time>
      </trkpt>
      <trkpt lat="48.93377" lon="2.5294">
        <ele>55.9</ele>
        <time>2020-07-01T15:37:41Z</time>
      </trkpt>
      <trkpt lat="48.93374" lon="2.52931">
        <ele>55.8</ele>
        <time>2020-07-01T15:37:42Z</time>
      </trkpt>
      <trkpt lat="48.93372" lon="2.52921">
        <ele>55.7</ele>
        <time>2020-07-01T15:37:43Z</time>
      </trkpt>
      <trkpt lat="48.93368" lon="2.52912">
        <ele>55.6</ele>
        <time>2020-07-01T15:37:44Z</time>
      </trkpt>
      <trkpt lat="48.93365" lon="2.52902">
        <ele>55.5</ele>
        <time>2020-07-01T15:37:45Z</time>
      </trkpt>
      <trkpt lat="48.93363" lon="2.52893">
        <ele>55.5</ele>
        <time>2020-07-01T15:37:46Z</time>
      </trkpt>
      <trkpt lat="48.9336" lon="2.52884">
        <ele>55.4</ele>
        <time>2020-07-01T15:37:47Z</time>
      </trkpt>
      <trkpt lat="48.93357" lon="2.52876">
        <ele>55.3</ele>
        <time>2020-07-01T15:37:48Z</time>
      </trkpt>
      <trkpt lat="48.93355" lon="2.52866">
        <ele>55.3</ele>
        <time>2020-07-01T15:37:49Z</time>
      </trkpt>
      <trkpt lat="48.93355" lon="2.52857">
        <ele>55.2</ele>
        <time>2020-07-01T15:37:50Z</time>
      </trkpt>
      <trkpt lat="48.93353" lon="2.52848">
        <ele>55.2</ele>
        <time>2020-07-01T15:37:51Z</time>
      </trkpt>
      <trkpt lat="48.93351" lon="2.52838">
        <ele>55.2</ele>
        <time>2020-07-01T15:37:52Z</time>
      </trkpt>
      <trkpt lat="48.93348" lon="2.52828">
        <ele>55.1</ele>
        <time>2020-07-01T15:37:53Z</time>
      </trkpt>
      <trkpt lat="48.93345" lon="2.52819">
        <ele>55.1</ele>
        <time>2020-07-01T15:37:54Z</time>
      </trkpt>
      <trkpt lat="48.9334" lon="2.5281">
        <ele>55</ele>
        <time>2020-07-01T15:37:55Z</time>
      </trkpt>
      <trkpt lat="48.93338" lon="2.528">
        <ele>54.9</ele>
        <time>2020-07-01T15:37:56Z</time>
      </trkpt>
      <trkpt lat="48.93337" lon="2.52789">
        <ele>54.9</ele>
        <time>2020-07-01T15:37:57Z</time>
      </trkpt>
      <trkpt lat="48.93335" lon="2.52778">
        <ele>54.8</ele>
        <time>2020-07-01T15:37:58Z</time>
      </trkpt>
      <trkpt lat="48.93333" lon="2.52768">
        <ele>54.7</ele>
        <time>2020-07-01T15:37:59Z</time>
      </trkpt>
      <trkpt lat="48.9333" lon="2.52758">
        <ele>54.6</ele>
        <time>2020-07-01T15:38:00Z</time>
      </trkpt>
      <trkpt lat="48.93327" lon="2.52748">
        <ele>54.5</ele>
        <time>2020-07-01T15:38:01Z</time>
      </trkpt>
      <trkpt lat="48.93325" lon="2.52738">
        <ele>54.5</ele>
        <time>2020-07-01T15:38:02Z</time>
      </trkpt>
      <trkpt lat="48.93323" lon="2.52728">
        <ele>54.5</ele>
        <time>2020-07-01T15:38:03Z</time>
      </trkpt>
      <trkpt lat="48.93321" lon="2.52719">
        <ele>54.5</ele>
        <time>2020-07-01T15:38:04Z</time>
      </trkpt>
      <trkpt lat="48.93318" lon="2.5271">
        <ele>54.5</ele>
        <time>2020-07-01T15:38:05Z</time>
      </trkpt>
      <trkpt lat="48.93316" lon="2.52701">
        <ele>54.5</ele>
        <time>2020-07-01T15:38:06Z</time>
      </trkpt>
      <trkpt lat="48.93313" lon="2.52692">
        <ele>54.5</ele>
        <time>2020-07-01T15:38:07Z</time>
      </trkpt>
      <trkpt lat="48.93309" lon="2.52684">
        <ele>54.5</ele>
        <time>2020-07-01T15:38:08Z</time>
      </trkpt>
      <trkpt lat="48.93305" lon="2.52677">
        <ele>54.5</ele>
        <time>2020-07-01T15:38:09Z</time>
      </trkpt>
      <trkpt lat="48.93301" lon="2.5267">
        <ele>54.7</ele>
        <time>2020-07-01T15:38:10Z</time>
      </trkpt>
      <trkpt lat="48.93297" lon="2.52663">
        <ele>54.8</ele>
        <time>2020-07-01T15:38:11Z</time>
      </trkpt>
      <trkpt lat="48.93294" lon="2.52654">
        <ele>54.9</ele>
        <time>2020-07-01T15:38:12Z</time>
      </trkpt>
      <trkpt lat="48.93292" lon="2.52645">
        <ele>54.9</ele>
        <time>2020-07-01T15:38:13Z</time>
      </trkpt>
      <trkpt lat="48.93289" lon="2.52636">
        <ele>55</ele>
        <time>2020-07-01T15:38:14Z</time>
      </trkpt>
      <trkpt lat="48.93286" lon="2.52626">
        <ele>55</ele>
        <time>2020-07-01T15:38:15Z</time>
      </trkpt>
      <trkpt lat="48.93284" lon="2.52617">
        <ele>55</ele>
        <time>2020-07-01T15:38:16Z</time>
      </trkpt>
      <trkpt lat="48.93282" lon="2.52608">
        <ele>55.1</ele>
        <time>2020-07-01T15:38:17Z</time>
      </trkpt>
      <trkpt lat="48.9328" lon="2.52599">
        <ele>55.1</ele>
        <time>2020-07-01T15:38:18Z</time>
      </trkpt>
      <trkpt lat="48.93278" lon="2.52589">
        <ele>55.1</ele>
        <time>2020-07-01T15:38:19Z</time>
      </trkpt>
      <trkpt lat="48.93275" lon="2.52581">
        <ele>55</ele>
        <time>2020-07-01T15:38:20Z</time>
      </trkpt>
      <trkpt lat="48.93272" lon="2.52572">
        <ele>55</ele>
        <time>2020-07-01T15:38:21Z</time>
      </trkpt>
      <trkpt lat="48.9327" lon="2.52563">
        <ele>55</ele>
        <time>2020-07-01T15:38:22Z</time>
      </trkpt>
      <trkpt lat="48.93267" lon="2.52554">
        <ele>54.9</ele>
        <time>2020-07-01T15:38:23Z</time>
      </trkpt>
      <trkpt lat="48.93266" lon="2.52544">
        <ele>54.9</ele>
        <time>2020-07-01T15:38:24Z</time>
      </trkpt>
      <trkpt lat="48.93264" lon="2.52534">
        <ele>54.8</ele>
        <time>2020-07-01T15:38:25Z</time>
      </trkpt>
      <trkpt lat="48.93263" lon="2.52526">
        <ele>54.8</ele>
        <time>2020-07-01T15:38:26Z</time>
      </trkpt>
      <trkpt lat="48.93263" lon="2.52517">
        <ele>54.7</ele>
        <time>2020-07-01T15:38:27Z</time>
      </trkpt>
      <trkpt lat="48.93263" lon="2.52509">
        <ele>54.6</ele>
        <time>2020-07-01T15:38:28Z</time>
      </trkpt>
      <trkpt lat="48.93263" lon="2.525">
        <ele>54.5</ele>
        <time>2020-07-01T15:38:29Z</time>
      </trkpt>
      <trkpt lat="48.93265" lon="2.52492">
        <ele>54.4</ele>
        <time>2020-07-01T15:38:30Z</time>
      </trkpt>
      <trkpt lat="48.93266" lon="2.52483">
        <ele>54.3</ele>
        <time>2020-07-01T15:38:31Z</time>
      </trkpt>
      <trkpt lat="48.93264" lon="2.52475">
        <ele>54.3</ele>
        <time>2020-07-01T15:38:32Z</time>
      </trkpt>
      <trkpt lat="48.93262" lon="2.52467">
        <ele>54.2</ele>
        <time>2020-07-01T15:38:33Z</time>
      </trkpt>
      <trkpt lat="48.93259" lon="2.5246">
        <ele>54.2</ele>
        <time>2020-07-01T15:38:34Z</time>
      </trkpt>
      <trkpt lat="48.93257" lon="2.52452">
        <ele>54.1</ele>
        <time>2020-07-01T15:38:35Z</time>
      </trkpt>
      <trkpt lat="48.93254" lon="2.52443">
        <ele>54.1</ele>
        <time>2020-07-01T15:38:36Z</time>
      </trkpt>
      <trkpt lat="48.93252" lon="2.52435">
        <ele>54</ele>
        <time>2020-07-01T15:38:37Z</time>
      </trkpt>
      <trkpt lat="48.9325" lon="2.52425">
        <ele>54</ele>
        <time>2020-07-01T15:38:38Z</time>
      </trkpt>
      <trkpt lat="48.93248" lon="2.52415">
        <ele>54</ele>
        <time>2020-07-01T15:38:39Z</time>
      </trkpt>
      <trkpt lat="48.93245" lon="2.52405">
        <ele>54</ele>
        <time>2020-07-01T15:38:40Z</time>
      </trkpt>
      <trkpt lat="48.93242" lon="2.52393">
        <ele>54</ele>
        <time>2020-07-01T15:38:41Z</time>
      </trkpt>
      <trkpt lat="48.93239" lon="2.52382">
        <ele>54</ele>
        <time>2020-07-01T15:38:42Z</time>
      </trkpt>
      <trkpt lat="48.93235" lon="2.52373">
        <ele>54</ele>
        <time>2020-07-01T15:38:43Z</time>
      </trkpt>
      <trkpt lat="48.93233" lon="2.52362">
        <ele>54</ele>
        <time>2020-07-01T15:38:44Z</time>
      </trkpt>
      <trkpt lat="48.93231" lon="2.52351">
        <ele>54</ele>
        <time>2020-07-01T15:38:45Z</time>
      </trkpt>
      <trkpt lat="48.93228" lon="2.5234">
        <ele>54</ele>
        <time>2020-07-01T15:38:46Z</time>
      </trkpt>
      <trkpt lat="48.93225" lon="2.52329">
        <ele>54.1</ele>
        <time>2020-07-01T15:38:47Z</time>
      </trkpt>
      <trkpt lat="48.93222" lon="2.52319">
        <ele>54.1</ele>
        <time>2020-07-01T15:38:48Z</time>
      </trkpt>
      <trkpt lat="48.93218" lon="2.52309">
        <ele>54.1</ele>
        <time>2020-07-01T15:38:49Z</time>
      </trkpt>
      <trkpt lat="48.93215" lon="2.52298">
        <ele>54.1</ele>
        <time>2020-07-01T15:38:50Z</time>
      </trkpt>
      <trkpt lat="48.93211" lon="2.52288">
        <ele>54.1</ele>
        <time>2020-07-01T15:38:51Z</time>
      </trkpt>
      <trkpt lat="48.93208" lon="2.52278">
        <ele>54.1</ele>
        <time>2020-07-01T15:38:52Z</time>
      </trkpt>
      <trkpt lat="48.93205" lon="2.52268">
        <ele>54.1</ele>
        <time>2020-07-01T15:38:53Z</time>
      </trkpt>
      <trkpt lat="48.93202" lon="2.52257">
        <ele>54.2</ele>
        <time>2020-07-01T15:38:54Z</time>
      </trkpt>
      <trkpt lat="48.93198" lon="2.52247">
        <ele>54.1</ele>
        <time>2020-07-01T15:38:55Z</time>
      </trkpt>
      <trkpt lat="48.93195" lon="2.52237">
        <ele>54.1</ele>
        <time>2020-07-01T15:38:56Z</time>
      </trkpt>
      <trkpt lat="48.93192" lon="2.52227">
        <ele>54.1</ele>
        <time>2020-07-01T15:38:57Z</time>
      </trkpt>
      <trkpt lat="48.93188" lon="2.52218">
        <ele>54.1</ele>
        <time>2020-07-01T15:38:58Z</time>
      </trkpt>
      <trkpt lat="48.93184" lon="2.52209">
        <ele>54.1</ele>
        <time>2020-07-01T15:38:59Z</time>
      </trkpt>
      <trkpt lat="48.93179" lon="2.522">
        <ele>54.1</ele>
        <time>2020-07-01T15:39:00Z</time>
      </trkpt>
      <trkpt lat="48.93175" lon="2.52191">
        <ele>54.1</ele>
        <time>2020-07-01T15:39:01Z</time>
      </trkpt>
      <trkpt lat="48.93171" lon="2.52182">
        <ele>54.1</ele>
        <time>2020-07-01T15:39:02Z</time>
      </trkpt>
      <trkpt lat="48.93166" lon="2.52172">
        <ele>54.2</ele>
        <time>2020-07-01T15:39:03Z</time>
      </trkpt>
      <trkpt lat="48.93161" lon="2.52163">
        <ele>54.2</ele>
        <time>2020-07-01T15:39:04Z</time>
      </trkpt>
      <trkpt lat="48.93156" lon="2.52155">
        <ele>54.2</ele>
        <time>2020-07-01T15:39:05Z</time>
      </trkpt>
      <trkpt lat="48.93152" lon="2.52147">
        <ele>54.2</ele>
        <time>2020-07-01T15:39:06Z</time>
      </trkpt>
      <trkpt lat="48.93148" lon="2.52138">
        <ele>54.3</ele>
        <time>2020-07-01T15:39:07Z</time>
      </trkpt>
      <trkpt lat="48.93143" lon="2.52131">
        <ele>54.3</ele>
        <time>2020-07-01T15:39:08Z</time>
      </trkpt>
      <trkpt lat="48.93139" lon="2.52122">
        <ele>54.3</ele>
        <time>2020-07-01T15:39:09Z</time>
      </trkpt>
      <trkpt lat="48.93134" lon="2.52114">
        <ele>54.3</ele>
        <time>2020-07-01T15:39:10Z</time>
      </trkpt>
      <trkpt lat="48.9313" lon="2.52106">
        <ele>54.3</ele>
        <time>2020-07-01T15:39:11Z</time>
      </trkpt>
      <trkpt lat="48.93125" lon="2.52098">
        <ele>54.4</ele>
        <time>2020-07-01T15:39:12Z</time>
      </trkpt>
      <trkpt lat="48.93121" lon="2.5209">
        <ele>54.4</ele>
        <time>2020-07-01T15:39:13Z</time>
      </trkpt>
      <trkpt lat="48.93116" lon="2.52083">
        <ele>54.4</ele>
        <time>2020-07-01T15:39:14Z</time>
      </trkpt>
      <trkpt lat="48.93111" lon="2.52075">
        <ele>54.4</ele>
        <time>2020-07-01T15:39:15Z</time>
      </trkpt>
      <trkpt lat="48.93105" lon="2.52068">
        <ele>54.5</ele>
        <time>2020-07-01T15:39:16Z</time>
      </trkpt>
      <trkpt lat="48.931" lon="2.52061">
        <ele>54.5</ele>
        <time>2020-07-01T15:39:17Z</time>
      </trkpt>
      <trkpt lat="48.93095" lon="2.52053">
        <ele>54.5</ele>
        <time>2020-07-01T15:39:18Z</time>
      </trkpt>
      <trkpt lat="48.9309" lon="2.52044">
        <ele>54.5</ele>
        <time>2020-07-01T15:39:19Z</time>
      </trkpt>
      <trkpt lat="48.93085" lon="2.52036">
        <ele>54.5</ele>
        <time>2020-07-01T15:39:20Z</time>
      </trkpt>
      <trkpt lat="48.93079" lon="2.5203">
        <ele>54.5</ele>
        <time>2020-07-01T15:39:21Z</time>
      </trkpt>
      <trkpt lat="48.93073" lon="2.52024">
        <ele>54.5</ele>
        <time>2020-07-01T15:39:22Z</time>
      </trkpt>
      <trkpt lat="48.93067" lon="2.52017">
        <ele>54.5</ele>
        <time>2020-07-01T15:39:23Z</time>
      </trkpt>
      <trkpt lat="48.93061" lon="2.52011">
        <ele>54.5</ele>
        <time>2020-07-01T15:39:24Z</time>
      </trkpt>
      <trkpt lat="48.93055" lon="2.52005">
        <ele>54.5</ele>
        <time>2020-07-01T15:39:25Z</time>
      </trkpt>
      <trkpt lat="48.9305" lon="2.51998">
        <ele>54.5</ele>
        <time>2020-07-01T15:39:26Z</time>
      </trkpt>
      <trkpt lat="48.93044" lon="2.51992">
        <ele>54.6</ele>
        <time>2020-07-01T15:39:27Z</time>
      </trkpt>
      <trkpt lat="48.93038" lon="2.51986">
        <ele>54.6</ele>
        <time>2020-07-01T15:39:28Z</time>
      </trkpt>
      <trkpt lat="48.93032" lon="2.5198">
        <ele>54.6</ele>
        <time>2020-07-01T15:39:29Z</time>
      </trkpt>
      <trkpt lat="48.93027" lon="2.51973">
        <ele>54.6</ele>
        <time>2020-07-01T15:39:30Z</time>
      </trkpt>
      <trkpt lat="48.93021" lon="2.51967">
        <ele>54.6</ele>
        <time>2020-07-01T15:39:31Z</time>
      </trkpt>
      <trkpt lat="48.93015" lon="2.5196">
        <ele>54.6</ele>
        <time>2020-07-01T15:39:32Z</time>
      </trkpt>
      <trkpt lat="48.9301" lon="2.51954">
        <ele>54.6</ele>
        <time>2020-07-01T15:39:33Z</time>
      </trkpt>
      <trkpt lat="48.93005" lon="2.51947">
        <ele>54.6</ele>
        <time>2020-07-01T15:39:34Z</time>
      </trkpt>
      <trkpt lat="48.92999" lon="2.51941">
        <ele>54.6</ele>
        <time>2020-07-01T15:39:35Z</time>
      </trkpt>
      <trkpt lat="48.92994" lon="2.51935">
        <ele>54.6</ele>
        <time>2020-07-01T15:39:36Z</time>
      </trkpt>
      <trkpt lat="48.92988" lon="2.51929">
        <ele>54.6</ele>
        <time>2020-07-01T15:39:37Z</time>
      </trkpt>
      <trkpt lat="48.92982" lon="2.51923">
        <ele>54.6</ele>
        <time>2020-07-01T15:39:38Z</time>
      </trkpt>
      <trkpt lat="48.92977" lon="2.51917">
        <ele>54.5</ele>
        <time>2020-07-01T15:39:39Z</time>
      </trkpt>
      <trkpt lat="48.92971" lon="2.51911">
        <ele>54.5</ele>
        <time>2020-07-01T15:39:40Z</time>
      </trkpt>
      <trkpt lat="48.92966" lon="2.51905">
        <ele>54.5</ele>
        <time>2020-07-01T15:39:41Z</time>
      </trkpt>
      <trkpt lat="48.9296" lon="2.51899">
        <ele>54.4</ele>
        <time>2020-07-01T15:39:42Z</time>
      </trkpt>
      <trkpt lat="48.92955" lon="2.51893">
        <ele>54.4</ele>
        <time>2020-07-01T15:39:43Z</time>
      </trkpt>
      <trkpt lat="48.9295" lon="2.51887">
        <ele>54.4</ele>
        <time>2020-07-01T15:39:44Z</time>
      </trkpt>
      <trkpt lat="48.92944" lon="2.51882">
        <ele>54.3</ele>
        <time>2020-07-01T15:39:45Z</time>
      </trkpt>
      <trkpt lat="48.9294" lon="2.51877">
        <ele>54.3</ele>
        <time>2020-07-01T15:39:46Z</time>
      </trkpt>
      <trkpt lat="48.92935" lon="2.51872">
        <ele>54.3</ele>
        <time>2020-07-01T15:39:47Z</time>
      </trkpt>
      <trkpt lat="48.92931" lon="2.51866">
        <ele>54.2</ele>
        <time>2020-07-01T15:39:48Z</time>
      </trkpt>
      <trkpt lat="48.92926" lon="2.51862">
        <ele>54.2</ele>
        <time>2020-07-01T15:39:49Z</time>
      </trkpt>
      <trkpt lat="48.92921" lon="2.51858">
        <ele>54.2</ele>
        <time>2020-07-01T15:39:50Z</time>
      </trkpt>
      <trkpt lat="48.92917" lon="2.51855">
        <ele>54.2</ele>
        <time>2020-07-01T15:39:51Z</time>
      </trkpt>
      <trkpt lat="48.92914" lon="2.51851">
        <ele>54.2</ele>
        <time>2020-07-01T15:39:52Z</time>
      </trkpt>
      <trkpt lat="48.92912" lon="2.51846">
        <ele>54.1</ele>
        <time>2020-07-01T15:39:53Z</time>
      </trkpt>
      <trkpt lat="48.9291" lon="2.51838">
        <ele>54.1</ele>
        <time>2020-07-01T15:39:54Z</time>
      </trkpt>
      <trkpt lat="48.92906" lon="2.51832">
        <ele>54.1</ele>
        <time>2020-07-01T15:39:55Z</time>
      </trkpt>
      <trkpt lat="48.92901" lon="2.51829">
        <ele>54.1</ele>
        <time>2020-07-01T15:39:56Z</time>
      </trkpt>
      <trkpt lat="48.92897" lon="2.51825">
        <ele>54.2</ele>
        <time>2020-07-01T15:39:57Z</time>
      </trkpt>
      <trkpt lat="48.92892" lon="2.51821">
        <ele>54.2</ele>
        <time>2020-07-01T15:39:58Z</time>
      </trkpt>
      <trkpt lat="48.92888" lon="2.51816">
        <ele>54.2</ele>
        <time>2020-07-01T15:39:59Z</time>
      </trkpt>
      <trkpt lat="48.92882" lon="2.51812">
        <ele>54.3</ele>
        <time>2020-07-01T15:40:00Z</time>
      </trkpt>
      <trkpt lat="48.92877" lon="2.51808">
        <ele>54.3</ele>
        <time>2020-07-01T15:40:01Z</time>
      </trkpt>
      <trkpt lat="48.92873" lon="2.51804">
        <ele>54.4</ele>
        <time>2020-07-01T15:40:02Z</time>
      </trkpt>
      <trkpt lat="48.92869" lon="2.518">
        <ele>54.4</ele>
        <time>2020-07-01T15:40:03Z</time>
      </trkpt>
      <trkpt lat="48.92865" lon="2.51796">
        <ele>54.6</ele>
        <time>2020-07-01T15:40:04Z</time>
      </trkpt>
      <trkpt lat="48.92861" lon="2.51792">
        <ele>54.7</ele>
        <time>2020-07-01T15:40:05Z</time>
      </trkpt>
      <trkpt lat="48.92857" lon="2.51786">
        <ele>54.9</ele>
        <time>2020-07-01T15:40:06Z</time>
      </trkpt>
      <trkpt lat="48.92854" lon="2.51781">
        <ele>55.1</ele>
        <time>2020-07-01T15:40:07Z</time>
      </trkpt>
      <trkpt lat="48.9285" lon="2.51777">
        <ele>55.2</ele>
        <time>2020-07-01T15:40:08Z</time>
      </trkpt>
      <trkpt lat="48.92847" lon="2.51773">
        <ele>55.4</ele>
        <time>2020-07-01T15:40:09Z</time>
      </trkpt>
      <trkpt lat="48.92844" lon="2.5177">
        <ele>55.5</ele>
        <time>2020-07-01T15:40:10Z</time>
      </trkpt>
      <trkpt lat="48.92841" lon="2.51766">
        <ele>55.6</ele>
        <time>2020-07-01T15:40:11Z</time>
      </trkpt>
      <trkpt lat="48.92838" lon="2.51764">
        <ele>55.7</ele>
        <time>2020-07-01T15:40:12Z</time>
      </trkpt>
      <trkpt lat="48.92836" lon="2.51761">
        <ele>55.8</ele>
        <time>2020-07-01T15:40:13Z</time>
      </trkpt>
      <trkpt lat="48.92833" lon="2.51757">
        <ele>55.9</ele>
        <time>2020-07-01T15:40:14Z</time>
      </trkpt>
      <trkpt lat="48.92829" lon="2.51755">
        <ele>56.2</ele>
        <time>2020-07-01T15:40:15Z</time>
      </trkpt>
      <trkpt lat="48.92825" lon="2.51754">
        <ele>56.3</ele>
        <time>2020-07-01T15:40:16Z</time>
      </trkpt>
      <trkpt lat="48.9282" lon="2.51752">
        <ele>56.4</ele>
        <time>2020-07-01T15:40:17Z</time>
      </trkpt>
      <trkpt lat="48.92817" lon="2.51749">
        <ele>56.4</ele>
        <time>2020-07-01T15:40:18Z</time>
      </trkpt>
      <trkpt lat="48.92813" lon="2.51744">
        <ele>56.5</ele>
        <time>2020-07-01T15:40:19Z</time>
      </trkpt>
      <trkpt lat="48.92811" lon="2.5174">
        <ele>56.5</ele>
        <time>2020-07-01T15:40:20Z</time>
      </trkpt>
      <trkpt lat="48.92808" lon="2.51736">
        <ele>56.6</ele>
        <time>2020-07-01T15:40:21Z</time>
      </trkpt>
      <trkpt lat="48.92806" lon="2.51733">
        <ele>56.6</ele>
        <time>2020-07-01T15:40:22Z</time>
      </trkpt>
      <trkpt lat="48.92803" lon="2.5173">
        <ele>56.6</ele>
        <time>2020-07-01T15:40:23Z</time>
      </trkpt>
      <trkpt lat="48.928" lon="2.51729">
        <ele>56.6</ele>
        <time>2020-07-01T15:40:24Z</time>
      </trkpt>
      <trkpt lat="48.92796" lon="2.51727">
        <ele>56.5</ele>
        <time>2020-07-01T15:40:25Z</time>
      </trkpt>
      <trkpt lat="48.92793" lon="2.51723">
        <ele>56.5</ele>
        <time>2020-07-01T15:40:26Z</time>
      </trkpt>
      <trkpt lat="48.9279" lon="2.51719">
        <ele>56.4</ele>
        <time>2020-07-01T15:40:27Z</time>
      </trkpt>
      <trkpt lat="48.92786" lon="2.51716">
        <ele>56.4</ele>
        <time>2020-07-01T15:40:28Z</time>
      </trkpt>
      <trkpt lat="48.92781" lon="2.51711">
        <ele>56.3</ele>
        <time>2020-07-01T15:40:29Z</time>
      </trkpt>
      <trkpt lat="48.92777" lon="2.51705">
        <ele>56.3</ele>
        <time>2020-07-01T15:40:30Z</time>
      </trkpt>
      <trkpt lat="48.92772" lon="2.51699">
        <ele>56.4</ele>
        <time>2020-07-01T15:40:31Z</time>
      </trkpt>
      <trkpt lat="48.92767" lon="2.51695">
        <ele>56.5</ele>
        <time>2020-07-01T15:40:32Z</time>
      </trkpt>
      <trkpt lat="48.92763" lon="2.51691">
        <ele>56.6</ele>
        <time>2020-07-01T15:40:33Z</time>
      </trkpt>
      <trkpt lat="48.92758" lon="2.51688">
        <ele>56.8</ele>
        <time>2020-07-01T15:40:34Z</time>
      </trkpt>
      <trkpt lat="48.92754" lon="2.51683">
        <ele>56.9</ele>
        <time>2020-07-01T15:40:35Z</time>
      </trkpt>
      <trkpt lat="48.9275" lon="2.51677">
        <ele>57</ele>
        <time>2020-07-01T15:40:36Z</time>
      </trkpt>
      <trkpt lat="48.92746" lon="2.51671">
        <ele>57.1</ele>
        <time>2020-07-01T15:40:37Z</time>
      </trkpt>
      <trkpt lat="48.92742" lon="2.51666">
        <ele>57.2</ele>
        <time>2020-07-01T15:40:38Z</time>
      </trkpt>
      <trkpt lat="48.92738" lon="2.51662">
        <ele>57.3</ele>
        <time>2020-07-01T15:40:39Z</time>
      </trkpt>
      <trkpt lat="48.92734" lon="2.51657">
        <ele>57.3</ele>
        <time>2020-07-01T15:40:40Z</time>
      </trkpt>
      <trkpt lat="48.9273" lon="2.51653">
        <ele>57.4</ele>
        <time>2020-07-01T15:40:41Z</time>
      </trkpt>
      <trkpt lat="48.92726" lon="2.51648">
        <ele>57.5</ele>
        <time>2020-07-01T15:40:42Z</time>
      </trkpt>
      <trkpt lat="48.92723" lon="2.51642">
        <ele>57.5</ele>
        <time>2020-07-01T15:40:43Z</time>
      </trkpt>
      <trkpt lat="48.9272" lon="2.51636">
        <ele>57.5</ele>
        <time>2020-07-01T15:40:44Z</time>
      </trkpt>
      <trkpt lat="48.92715" lon="2.51631">
        <ele>57.5</ele>
        <time>2020-07-01T15:40:45Z</time>
      </trkpt>
      <trkpt lat="48.92711" lon="2.51624">
        <ele>57.6</ele>
        <time>2020-07-01T15:40:46Z</time>
      </trkpt>
      <trkpt lat="48.92705" lon="2.5162">
        <ele>57.6</ele>
        <time>2020-07-01T15:40:47Z</time>
      </trkpt>
      <trkpt lat="48.927" lon="2.51615">
        <ele>57.6</ele>
        <time>2020-07-01T15:40:48Z</time>
      </trkpt>
      <trkpt lat="48.92695" lon="2.51609">
        <ele>57.6</ele>
        <time>2020-07-01T15:40:49Z</time>
      </trkpt>
      <trkpt lat="48.9269" lon="2.51604">
        <ele>57.7</ele>
        <time>2020-07-01T15:40:50Z</time>
      </trkpt>
      <trkpt lat="48.92685" lon="2.51598">
        <ele>57.7</ele>
        <time>2020-07-01T15:40:51Z</time>
      </trkpt>
      <trkpt lat="48.9268" lon="2.51591">
        <ele>57.8</ele>
        <time>2020-07-01T15:40:52Z</time>
      </trkpt>
      <trkpt lat="48.92675" lon="2.51584">
        <ele>57.8</ele>
        <time>2020-07-01T15:40:53Z</time>
      </trkpt>
      <trkpt lat="48.9267" lon="2.51577">
        <ele>57.8</ele>
        <time>2020-07-01T15:40:54Z</time>
      </trkpt>
      <trkpt lat="48.92663" lon="2.51573">
        <ele>57.8</ele>
        <time>2020-07-01T15:40:55Z</time>
      </trkpt>
      <trkpt lat="48.92658" lon="2.51567">
        <ele>57.9</ele>
        <time>2020-07-01T15:40:56Z</time>
      </trkpt>
      <trkpt lat="48.92652" lon="2.51562">
        <ele>57.9</ele>
        <time>2020-07-01T15:40:57Z</time>
      </trkpt>
      <trkpt lat="48.92646" lon="2.51557">
        <ele>57.9</ele>
        <time>2020-07-01T15:40:58Z</time>
      </trkpt>
      <trkpt lat="48.92641" lon="2.51553">
        <ele>57.9</ele>
        <time>2020-07-01T15:40:59Z</time>
      </trkpt>
      <trkpt lat="48.92635" lon="2.51549">
        <ele>58</ele>
        <time>2020-07-01T15:41:00Z</time>
      </trkpt>
      <trkpt lat="48.92629" lon="2.51544">
        <ele>58</ele>
        <time>2020-07-01T15:41:01Z</time>
      </trkpt>
      <trkpt lat="48.92624" lon="2.5154">
        <ele>58</ele>
        <time>2020-07-01T15:41:02Z</time>
      </trkpt>
      <trkpt lat="48.92618" lon="2.51535">
        <ele>58</ele>
        <time>2020-07-01T15:41:03Z</time>
      </trkpt>
      <trkpt lat="48.92612" lon="2.5153">
        <ele>58</ele>
        <time>2020-07-01T15:41:04Z</time>
      </trkpt>
      <trkpt lat="48.92607" lon="2.51522">
        <ele>58.1</ele>
        <time>2020-07-01T15:41:05Z</time>
      </trkpt>
      <trkpt lat="48.92601" lon="2.51515">
        <ele>58.1</ele>
        <time>2020-07-01T15:41:06Z</time>
      </trkpt>
      <trkpt lat="48.92596" lon="2.51506">
        <ele>58.1</ele>
        <time>2020-07-01T15:41:07Z</time>
      </trkpt>
      <trkpt lat="48.92589" lon="2.51499">
        <ele>58.2</ele>
        <time>2020-07-01T15:41:08Z</time>
      </trkpt>
      <trkpt lat="48.92582" lon="2.51493">
        <ele>58.2</ele>
        <time>2020-07-01T15:41:09Z</time>
      </trkpt>
      <trkpt lat="48.92575" lon="2.51488">
        <ele>58.2</ele>
        <time>2020-07-01T15:41:10Z</time>
      </trkpt>
      <trkpt lat="48.92568" lon="2.51481">
        <ele>58.3</ele>
        <time>2020-07-01T15:41:11Z</time>
      </trkpt>
      <trkpt lat="48.92562" lon="2.51476">
        <ele>58.3</ele>
        <time>2020-07-01T15:41:12Z</time>
      </trkpt>
      <trkpt lat="48.92556" lon="2.5147">
        <ele>58.3</ele>
        <time>2020-07-01T15:41:13Z</time>
      </trkpt>
      <trkpt lat="48.9255" lon="2.51463">
        <ele>58.4</ele>
        <time>2020-07-01T15:41:14Z</time>
      </trkpt>
      <trkpt lat="48.92544" lon="2.51456">
        <ele>58.4</ele>
        <time>2020-07-01T15:41:15Z</time>
      </trkpt>
      <trkpt lat="48.92538" lon="2.51449">
        <ele>58.4</ele>
        <time>2020-07-01T15:41:16Z</time>
      </trkpt>
      <trkpt lat="48.92533" lon="2.51442">
        <ele>58.4</ele>
        <time>2020-07-01T15:41:17Z</time>
      </trkpt>
      <trkpt lat="48.92527" lon="2.51437">
        <ele>58.4</ele>
        <time>2020-07-01T15:41:18Z</time>
      </trkpt>
      <trkpt lat="48.92522" lon="2.51431">
        <ele>58.4</ele>
        <time>2020-07-01T15:41:19Z</time>
      </trkpt>
      <trkpt lat="48.92515" lon="2.51425">
        <ele>58.4</ele>
        <time>2020-07-01T15:41:20Z</time>
      </trkpt>
      <trkpt lat="48.92509" lon="2.51418">
        <ele>58.3</ele>
        <time>2020-07-01T15:41:21Z</time>
      </trkpt>
      <trkpt lat="48.92503" lon="2.51413">
        <ele>58.1</ele>
        <time>2020-07-01T15:41:22Z</time>
      </trkpt>
      <trkpt lat="48.92498" lon="2.51407">
        <ele>58</ele>
        <time>2020-07-01T15:41:23Z</time>
      </trkpt>
      <trkpt lat="48.92494" lon="2.51402">
        <ele>58</ele>
        <time>2020-07-01T15:41:24Z</time>
      </trkpt>
      <trkpt lat="48.92489" lon="2.51397">
        <ele>58</ele>
        <time>2020-07-01T15:41:25Z</time>
      </trkpt>
      <trkpt lat="48.92484" lon="2.51392">
        <ele>57.9</ele>
        <time>2020-07-01T15:41:26Z</time>
      </trkpt>
      <trkpt lat="48.9248" lon="2.51388">
        <ele>57.9</ele>
        <time>2020-07-01T15:41:27Z</time>
      </trkpt>
      <trkpt lat="48.92476" lon="2.51383">
        <ele>57.9</ele>
        <time>2020-07-01T15:41:28Z</time>
      </trkpt>
      <trkpt lat="48.92472" lon="2.51378">
        <ele>57.9</ele>
        <time>2020-07-01T15:41:29Z</time>
      </trkpt>
      <trkpt lat="48.92467" lon="2.51374">
        <ele>57.9</ele>
        <time>2020-07-01T15:41:30Z</time>
      </trkpt>
      <trkpt lat="48.92464" lon="2.51368">
        <ele>57.8</ele>
        <time>2020-07-01T15:41:31Z</time>
      </trkpt>
      <trkpt lat="48.9246" lon="2.51364">
        <ele>57.8</ele>
        <time>2020-07-01T15:41:32Z</time>
      </trkpt>
      <trkpt lat="48.92456" lon="2.51361">
        <ele>57.8</ele>
        <time>2020-07-01T15:41:33Z</time>
      </trkpt>
      <trkpt lat="48.92454" lon="2.51358">
        <ele>57.8</ele>
        <time>2020-07-01T15:41:34Z</time>
      </trkpt>
      <trkpt lat="48.92451" lon="2.51355">
        <ele>57.8</ele>
        <time>2020-07-01T15:41:35Z</time>
      </trkpt>
      <trkpt lat="48.9245" lon="2.51354">
        <ele>57.8</ele>
        <time>2020-07-01T15:41:36Z</time>
      </trkpt>
      <trkpt lat="48.92449" lon="2.51353">
        <ele>57.8</ele>
        <time>2020-07-01T15:41:37Z</time>
      </trkpt>
      <trkpt lat="48.92448" lon="2.51352">
        <ele>57.8</ele>
        <time>2020-07-01T15:41:38Z</time>
      </trkpt>
      <trkpt lat="48.92448" lon="2.51352">
        <ele>57.8</ele>
        <time>2020-07-01T15:41:39Z</time>
      </trkpt>
      <trkpt lat="48.92447" lon="2.51351">
        <ele>57.8</ele>
        <time>2020-07-01T15:41:40Z</time>
      </trkpt>
      <trkpt lat="48.92446" lon="2.5135">
        <ele>57.8</ele>
        <time>2020-07-01T15:41:41Z</time>
      </trkpt>
      <trkpt lat="48.92446" lon="2.51348">
        <ele>57.8</ele>
        <time>2020-07-01T15:41:42Z</time>
      </trkpt>
      <trkpt lat="48.92447" lon="2.51346">
        <ele>57.8</ele>
        <time>2020-07-01T15:41:43Z</time>
      </trkpt>
      <trkpt lat="48.92446" lon="2.51345">
        <ele>57.8</ele>
        <time>2020-07-01T15:41:44Z</time>
      </trkpt>
      <trkpt lat="48.92445" lon="2.51344">
        <ele>57.8</ele>
        <time>2020-07-01T15:41:45Z</time>
      </trkpt>
      <trkpt lat="48.92444" lon="2.51343">
        <ele>57.8</ele>
        <time>2020-07-01T15:41:46Z</time>
      </trkpt>
      <trkpt lat="48.92443" lon="2.51342">
        <ele>57.8</ele>
        <time>2020-07-01T15:41:47Z</time>
      </trkpt>
      <trkpt lat="48.92443" lon="2.51341">
        <ele>57.8</ele>
        <time>2020-07-01T15:41:48Z</time>
      </trkpt>
      <trkpt lat="48.92443" lon="2.5134">
        <ele>57.8</ele>
        <time>2020-07-01T15:41:49Z</time>
      </trkpt>
      <trkpt lat="48.92443" lon="2.51339">
        <ele>57.8</ele>
        <time>2020-07-01T15:41:50Z</time>
      </trkpt>
      <trkpt lat="48.92443" lon="2.51339">
        <ele>57.8</ele>
        <time>2020-07-01T15:41:51Z</time>
      </trkpt>
      <trkpt lat="48.92442" lon="2.51338">
        <ele>57.8</ele>
        <time>2020-07-01T15:41:52Z</time>
      </trkpt>
      <trkpt lat="48.92443" lon="2.51337">
        <ele>57.8</ele>
        <time>2020-07-01T15:41:53Z</time>
      </trkpt>
      <trkpt lat="48.92443" lon="2.51335">
        <ele>57.8</ele>
        <time>2020-07-01T15:41:54Z</time>
      </trkpt>
      <trkpt lat="48.92443" lon="2.51333">
        <ele>57.7</ele>
        <time>2020-07-01T15:41:55Z</time>
      </trkpt>
      <trkpt lat="48.92443" lon="2.51332">
        <ele>57.7</ele>
        <time>2020-07-01T15:41:56Z</time>
      </trkpt>
      <trkpt lat="48.92443" lon="2.51331">
        <ele>57.7</ele>
        <time>2020-07-01T15:41:57Z</time>
      </trkpt>
      <trkpt lat="48.92442" lon="2.51332">
        <ele>57.7</ele>
        <time>2020-07-01T15:41:58Z</time>
      </trkpt>
      <trkpt lat="48.92442" lon="2.51332">
        <ele>57.7</ele>
        <time>2020-07-01T15:41:59Z</time>
      </trkpt>
      <trkpt lat="48.92412" lon="2.51305">
        <ele>56.7</ele>
        <time>2020-07-01T15:44:46Z</time>
      </trkpt>
      <trkpt lat="48.9241" lon="2.51302">
        <ele>56.5</ele>
        <time>2020-07-01T15:44:47Z</time>
      </trkpt>
      <trkpt lat="48.92407" lon="2.513">
        <ele>56.3</ele>
        <time>2020-07-01T15:44:48Z</time>
      </trkpt>
      <trkpt lat="48.92404" lon="2.51298">
        <ele>56.1</ele>
        <time>2020-07-01T15:44:49Z</time>
      </trkpt>
      <trkpt lat="48.92401" lon="2.51295">
        <ele>55.9</ele>
        <time>2020-07-01T15:44:50Z</time>
      </trkpt>
      <trkpt lat="48.92398" lon="2.51294">
        <ele>55.7</ele>
        <time>2020-07-01T15:44:51Z</time>
      </trkpt>
      <trkpt lat="48.92397" lon="2.51294">
        <ele>55.6</ele>
        <time>2020-07-01T15:44:52Z</time>
      </trkpt>
      <trkpt lat="48.92395" lon="2.51293">
        <ele>55.5</ele>
        <time>2020-07-01T15:44:53Z</time>
      </trkpt>
      <trkpt lat="48.92394" lon="2.51291">
        <ele>55.5</ele>
        <time>2020-07-01T15:44:54Z</time>
      </trkpt>
      <trkpt lat="48.92393" lon="2.51289">
        <ele>55.4</ele>
        <time>2020-07-01T15:44:55Z</time>
      </trkpt>
      <trkpt lat="48.92391" lon="2.51287">
        <ele>55.3</ele>
        <time>2020-07-01T15:44:56Z</time>
      </trkpt>
      <trkpt lat="48.9239" lon="2.51283">
        <ele>54.9</ele>
        <time>2020-07-01T15:44:57Z</time>
      </trkpt>
      <trkpt lat="48.92389" lon="2.51282">
        <ele>54.9</ele>
        <time>2020-07-01T15:44:58Z</time>
      </trkpt>
      <trkpt lat="48.92387" lon="2.51278">
        <ele>54.9</ele>
        <time>2020-07-01T15:44:59Z</time>
      </trkpt>
      <trkpt lat="48.92386" lon="2.51276">
        <ele>54.9</ele>
        <time>2020-07-01T15:45:00Z</time>
      </trkpt>
      <trkpt lat="48.92383" lon="2.51272">
        <ele>55</ele>
        <time>2020-07-01T15:45:01Z</time>
      </trkpt>
      <trkpt lat="48.92382" lon="2.5127">
        <ele>55</ele>
        <time>2020-07-01T15:45:02Z</time>
      </trkpt>
      <trkpt lat="48.92379" lon="2.51267">
        <ele>55.1</ele>
        <time>2020-07-01T15:45:03Z</time>
      </trkpt>
      <trkpt lat="48.92376" lon="2.51265">
        <ele>55.1</ele>
        <time>2020-07-01T15:45:04Z</time>
      </trkpt>
      <trkpt lat="48.92374" lon="2.51262">
        <ele>55.2</ele>
        <time>2020-07-01T15:45:05Z</time>
      </trkpt>
      <trkpt lat="48.92371" lon="2.51258">
        <ele>55.2</ele>
        <time>2020-07-01T15:45:06Z</time>
      </trkpt>
      <trkpt lat="48.92368" lon="2.51252">
        <ele>55.3</ele>
        <time>2020-07-01T15:45:07Z</time>
      </trkpt>
      <trkpt lat="48.92364" lon="2.51247">
        <ele>55.4</ele>
        <time>2020-07-01T15:45:08Z</time>
      </trkpt>
      <trkpt lat="48.9236" lon="2.51242">
        <ele>55.4</ele>
        <time>2020-07-01T15:45:09Z</time>
      </trkpt>
      <trkpt lat="48.92355" lon="2.51236">
        <ele>55.4</ele>
        <time>2020-07-01T15:45:10Z</time>
      </trkpt>
      <trkpt lat="48.92351" lon="2.5123">
        <ele>55.5</ele>
        <time>2020-07-01T15:45:11Z</time>
      </trkpt>
      <trkpt lat="48.92347" lon="2.51225">
        <ele>55.5</ele>
        <time>2020-07-01T15:45:12Z</time>
      </trkpt>
      <trkpt lat="48.92343" lon="2.5122">
        <ele>55.5</ele>
        <time>2020-07-01T15:45:13Z</time>
      </trkpt>
      <trkpt lat="48.92339" lon="2.51215">
        <ele>55.6</ele>
        <time>2020-07-01T15:45:14Z</time>
      </trkpt>
      <trkpt lat="48.92334" lon="2.5121">
        <ele>55.6</ele>
        <time>2020-07-01T15:45:15Z</time>
      </trkpt>
      <trkpt lat="48.9233" lon="2.51205">
        <ele>55.7</ele>
        <time>2020-07-01T15:45:16Z</time>
      </trkpt>
      <trkpt lat="48.92325" lon="2.51199">
        <ele>55.7</ele>
        <time>2020-07-01T15:45:17Z</time>
      </trkpt>
      <trkpt lat="48.92319" lon="2.51192">
        <ele>55.7</ele>
        <time>2020-07-01T15:45:18Z</time>
      </trkpt>
      <trkpt lat="48.92314" lon="2.51187">
        <ele>55.8</ele>
        <time>2020-07-01T15:45:19Z</time>
      </trkpt>
      <trkpt lat="48.92307" lon="2.5118">
        <ele>55.8</ele>
        <time>2020-07-01T15:45:20Z</time>
      </trkpt>
      <trkpt lat="48.92301" lon="2.51175">
        <ele>55.8</ele>
        <time>2020-07-01T15:45:21Z</time>
      </trkpt>
      <trkpt lat="48.92295" lon="2.51169">
        <ele>55.8</ele>
        <time>2020-07-01T15:45:22Z</time>
      </trkpt>
      <trkpt lat="48.9229" lon="2.51164">
        <ele>55.7</ele>
        <time>2020-07-01T15:45:23Z</time>
      </trkpt>
      <trkpt lat="48.92285" lon="2.51159">
        <ele>55.6</ele>
        <time>2020-07-01T15:45:24Z</time>
      </trkpt>
      <trkpt lat="48.92279" lon="2.51152">
        <ele>55.5</ele>
        <time>2020-07-01T15:45:25Z</time>
      </trkpt>
      <trkpt lat="48.92273" lon="2.51147">
        <ele>55.5</ele>
        <time>2020-07-01T15:45:26Z</time>
      </trkpt>
      <trkpt lat="48.92268" lon="2.51142">
        <ele>55.4</ele>
        <time>2020-07-01T15:45:27Z</time>
      </trkpt>
      <trkpt lat="48.92262" lon="2.51135">
        <ele>55.3</ele>
        <time>2020-07-01T15:45:28Z</time>
      </trkpt>
      <trkpt lat="48.92255" lon="2.51126">
        <ele>55.3</ele>
        <time>2020-07-01T15:45:29Z</time>
      </trkpt>
      <trkpt lat="48.92249" lon="2.5112">
        <ele>55.3</ele>
        <time>2020-07-01T15:45:30Z</time>
      </trkpt>
      <trkpt lat="48.92244" lon="2.51116">
        <ele>55.4</ele>
        <time>2020-07-01T15:45:31Z</time>
      </trkpt>
      <trkpt lat="48.92241" lon="2.51112">
        <ele>55.5</ele>
        <time>2020-07-01T15:45:32Z</time>
      </trkpt>
      <trkpt lat="48.92237" lon="2.51109">
        <ele>55.6</ele>
        <time>2020-07-01T15:45:33Z</time>
      </trkpt>
      <trkpt lat="48.92234" lon="2.51106">
        <ele>55.6</ele>
        <time>2020-07-01T15:45:34Z</time>
      </trkpt>
      <trkpt lat="48.92231" lon="2.51103">
        <ele>55.6</ele>
        <time>2020-07-01T15:45:35Z</time>
      </trkpt>
      <trkpt lat="48.92229" lon="2.51099">
        <ele>55.7</ele>
        <time>2020-07-01T15:45:36Z</time>
      </trkpt>
      <trkpt lat="48.92226" lon="2.51096">
        <ele>55.7</ele>
        <time>2020-07-01T15:45:37Z</time>
      </trkpt>
      <trkpt lat="48.92223" lon="2.51092">
        <ele>55.7</ele>
        <time>2020-07-01T15:45:38Z</time>
      </trkpt>
      <trkpt lat="48.9222" lon="2.51089">
        <ele>55.7</ele>
        <time>2020-07-01T15:45:39Z</time>
      </trkpt>
      <trkpt lat="48.92216" lon="2.51085">
        <ele>55.7</ele>
        <time>2020-07-01T15:45:40Z</time>
      </trkpt>
      <trkpt lat="48.92212" lon="2.51081">
        <ele>55.7</ele>
        <time>2020-07-01T15:45:41Z</time>
      </trkpt>
      <trkpt lat="48.92209" lon="2.51076">
        <ele>55.7</ele>
        <time>2020-07-01T15:45:42Z</time>
      </trkpt>
      <trkpt lat="48.92205" lon="2.51072">
        <ele>55.8</ele>
        <time>2020-07-01T15:45:43Z</time>
      </trkpt>
      <trkpt lat="48.92199" lon="2.51066">
        <ele>55.8</ele>
        <time>2020-07-01T15:45:44Z</time>
      </trkpt>
      <trkpt lat="48.92194" lon="2.51062">
        <ele>55.8</ele>
        <time>2020-07-01T15:45:45Z</time>
      </trkpt>
      <trkpt lat="48.9219" lon="2.51058">
        <ele>55.8</ele>
        <time>2020-07-01T15:45:46Z</time>
      </trkpt>
      <trkpt lat="48.92185" lon="2.51052">
        <ele>55.7</ele>
        <time>2020-07-01T15:45:47Z</time>
      </trkpt>
      <trkpt lat="48.92181" lon="2.51048">
        <ele>55.7</ele>
        <time>2020-07-01T15:45:48Z</time>
      </trkpt>
      <trkpt lat="48.92176" lon="2.51043">
        <ele>55.7</ele>
        <time>2020-07-01T15:45:49Z</time>
      </trkpt>
      <trkpt lat="48.92172" lon="2.51038">
        <ele>55.7</ele>
        <time>2020-07-01T15:45:50Z</time>
      </trkpt>
      <trkpt lat="48.92166" lon="2.51031">
        <ele>55.7</ele>
        <time>2020-07-01T15:45:51Z</time>
      </trkpt>
      <trkpt lat="48.92162" lon="2.51026">
        <ele>55.7</ele>
        <time>2020-07-01T15:45:52Z</time>
      </trkpt>
      <trkpt lat="48.92158" lon="2.51022">
        <ele>55.6</ele>
        <time>2020-07-01T15:45:53Z</time>
      </trkpt>
      <trkpt lat="48.92153" lon="2.51017">
        <ele>55.6</ele>
        <time>2020-07-01T15:45:54Z</time>
      </trkpt>
      <trkpt lat="48.92148" lon="2.51012">
        <ele>55.6</ele>
        <time>2020-07-01T15:45:55Z</time>
      </trkpt>
      <trkpt lat="48.92144" lon="2.51008">
        <ele>55.6</ele>
        <time>2020-07-01T15:45:56Z</time>
      </trkpt>
      <trkpt lat="48.92139" lon="2.51003">
        <ele>55.6</ele>
        <time>2020-07-01T15:45:57Z</time>
      </trkpt>
      <trkpt lat="48.92133" lon="2.50997">
        <ele>55.6</ele>
        <time>2020-07-01T15:45:58Z</time>
      </trkpt>
      <trkpt lat="48.92129" lon="2.50992">
        <ele>55.6</ele>
        <time>2020-07-01T15:45:59Z</time>
      </trkpt>
      <trkpt lat="48.92124" lon="2.50987">
        <ele>55.6</ele>
        <time>2020-07-01T15:46:00Z</time>
      </trkpt>
      <trkpt lat="48.92119" lon="2.50982">
        <ele>55.6</ele>
        <time>2020-07-01T15:46:01Z</time>
      </trkpt>
      <trkpt lat="48.92113" lon="2.50974">
        <ele>55.6</ele>
        <time>2020-07-01T15:46:02Z</time>
      </trkpt>
      <trkpt lat="48.92108" lon="2.50968">
        <ele>55.6</ele>
        <time>2020-07-01T15:46:03Z</time>
      </trkpt>
      <trkpt lat="48.92105" lon="2.50962">
        <ele>55.5</ele>
        <time>2020-07-01T15:46:04Z</time>
      </trkpt>
      <trkpt lat="48.92101" lon="2.50957">
        <ele>55.5</ele>
        <time>2020-07-01T15:46:05Z</time>
      </trkpt>
      <trkpt lat="48.92096" lon="2.50951">
        <ele>55.5</ele>
        <time>2020-07-01T15:46:06Z</time>
      </trkpt>
      <trkpt lat="48.92092" lon="2.50947">
        <ele>55.5</ele>
        <time>2020-07-01T15:46:07Z</time>
      </trkpt>
      <trkpt lat="48.92088" lon="2.50942">
        <ele>55.5</ele>
        <time>2020-07-01T15:46:08Z</time>
      </trkpt>
      <trkpt lat="48.92082" lon="2.50936">
        <ele>55.5</ele>
        <time>2020-07-01T15:46:09Z</time>
      </trkpt>
      <trkpt lat="48.92076" lon="2.50931">
        <ele>55.5</ele>
        <time>2020-07-01T15:46:10Z</time>
      </trkpt>
      <trkpt lat="48.9207" lon="2.50924">
        <ele>55.4</ele>
        <time>2020-07-01T15:46:11Z</time>
      </trkpt>
      <trkpt lat="48.92066" lon="2.5092">
        <ele>55.4</ele>
        <time>2020-07-01T15:46:12Z</time>
      </trkpt>
      <trkpt lat="48.92063" lon="2.50916">
        <ele>55.3</ele>
        <time>2020-07-01T15:46:13Z</time>
      </trkpt>
      <trkpt lat="48.92061" lon="2.50913">
        <ele>55.2</ele>
        <time>2020-07-01T15:46:14Z</time>
      </trkpt>
      <trkpt lat="48.92058" lon="2.5091">
        <ele>55.2</ele>
        <time>2020-07-01T15:46:15Z</time>
      </trkpt>
      <trkpt lat="48.92055" lon="2.50905">
        <ele>55</ele>
        <time>2020-07-01T15:46:16Z</time>
      </trkpt>
      <trkpt lat="48.92053" lon="2.50901">
        <ele>55</ele>
        <time>2020-07-01T15:46:17Z</time>
      </trkpt>
      <trkpt lat="48.92052" lon="2.50897">
        <ele>54.9</ele>
        <time>2020-07-01T15:46:18Z</time>
      </trkpt>
      <trkpt lat="48.9205" lon="2.50895">
        <ele>54.8</ele>
        <time>2020-07-01T15:46:19Z</time>
      </trkpt>
      <trkpt lat="48.92047" lon="2.50892">
        <ele>54.7</ele>
        <time>2020-07-01T15:46:20Z</time>
      </trkpt>
      <trkpt lat="48.92043" lon="2.50886">
        <ele>54.6</ele>
        <time>2020-07-01T15:46:21Z</time>
      </trkpt>
      <trkpt lat="48.92039" lon="2.50883">
        <ele>54.5</ele>
        <time>2020-07-01T15:46:22Z</time>
      </trkpt>
      <trkpt lat="48.92034" lon="2.50881">
        <ele>54.4</ele>
        <time>2020-07-01T15:46:23Z</time>
      </trkpt>
      <trkpt lat="48.9203" lon="2.50878">
        <ele>54.4</ele>
        <time>2020-07-01T15:46:24Z</time>
      </trkpt>
      <trkpt lat="48.92027" lon="2.50877">
        <ele>54.5</ele>
        <time>2020-07-01T15:46:25Z</time>
      </trkpt>
      <trkpt lat="48.92024" lon="2.50876">
        <ele>54.5</ele>
        <time>2020-07-01T15:46:26Z</time>
      </trkpt>
      <trkpt lat="48.92021" lon="2.50873">
        <ele>54.6</ele>
        <time>2020-07-01T15:46:27Z</time>
      </trkpt>
      <trkpt lat="48.92018" lon="2.50869">
        <ele>54.6</ele>
        <time>2020-07-01T15:46:28Z</time>
      </trkpt>
      <trkpt lat="48.92015" lon="2.50866">
        <ele>54.7</ele>
        <time>2020-07-01T15:46:29Z</time>
      </trkpt>
      <trkpt lat="48.92013" lon="2.50863">
        <ele>54.7</ele>
        <time>2020-07-01T15:46:30Z</time>
      </trkpt>
      <trkpt lat="48.9201" lon="2.5086">
        <ele>54.8</ele>
        <time>2020-07-01T15:46:31Z</time>
      </trkpt>
      <trkpt lat="48.92009" lon="2.50859">
        <ele>54.8</ele>
        <time>2020-07-01T15:46:32Z</time>
      </trkpt>
      <trkpt lat="48.92006" lon="2.50856">
        <ele>54.8</ele>
        <time>2020-07-01T15:46:33Z</time>
      </trkpt>
      <trkpt lat="48.92005" lon="2.50855">
        <ele>54.8</ele>
        <time>2020-07-01T15:46:34Z</time>
      </trkpt>
      <trkpt lat="48.92002" lon="2.50852">
        <ele>54.8</ele>
        <time>2020-07-01T15:46:35Z</time>
      </trkpt>
      <trkpt lat="48.91998" lon="2.50848">
        <ele>54.9</ele>
        <time>2020-07-01T15:46:36Z</time>
      </trkpt>
      <trkpt lat="48.91996" lon="2.50845">
        <ele>54.9</ele>
        <time>2020-07-01T15:46:37Z</time>
      </trkpt>
      <trkpt lat="48.91993" lon="2.50841">
        <ele>54.9</ele>
        <time>2020-07-01T15:46:38Z</time>
      </trkpt>
      <trkpt lat="48.9199" lon="2.50837">
        <ele>55</ele>
        <time>2020-07-01T15:46:39Z</time>
      </trkpt>
      <trkpt lat="48.91987" lon="2.50833">
        <ele>55</ele>
        <time>2020-07-01T15:46:40Z</time>
      </trkpt>
      <trkpt lat="48.91984" lon="2.50828">
        <ele>55</ele>
        <time>2020-07-01T15:46:41Z</time>
      </trkpt>
      <trkpt lat="48.91981" lon="2.50824">
        <ele>55</ele>
        <time>2020-07-01T15:46:42Z</time>
      </trkpt>
      <trkpt lat="48.91977" lon="2.50819">
        <ele>55.1</ele>
        <time>2020-07-01T15:46:43Z</time>
      </trkpt>
      <trkpt lat="48.91973" lon="2.50814">
        <ele>55.1</ele>
        <time>2020-07-01T15:46:44Z</time>
      </trkpt>
      <trkpt lat="48.9197" lon="2.5081">
        <ele>55.1</ele>
        <time>2020-07-01T15:46:45Z</time>
      </trkpt>
      <trkpt lat="48.91967" lon="2.50806">
        <ele>55.1</ele>
        <time>2020-07-01T15:46:46Z</time>
      </trkpt>
      <trkpt lat="48.91963" lon="2.50802">
        <ele>55.1</ele>
        <time>2020-07-01T15:46:47Z</time>
      </trkpt>
      <trkpt lat="48.91959" lon="2.50798">
        <ele>55.1</ele>
        <time>2020-07-01T15:46:48Z</time>
      </trkpt>
      <trkpt lat="48.91956" lon="2.50794">
        <ele>55.1</ele>
        <time>2020-07-01T15:46:49Z</time>
      </trkpt>
      <trkpt lat="48.91952" lon="2.50791">
        <ele>55.1</ele>
        <time>2020-07-01T15:46:50Z</time>
      </trkpt>
      <trkpt lat="48.91949" lon="2.50787">
        <ele>55.1</ele>
        <time>2020-07-01T15:46:51Z</time>
      </trkpt>
      <trkpt lat="48.91945" lon="2.50783">
        <ele>55.1</ele>
        <time>2020-07-01T15:46:52Z</time>
      </trkpt>
      <trkpt lat="48.91941" lon="2.50778">
        <ele>55.1</ele>
        <time>2020-07-01T15:46:53Z</time>
      </trkpt>
      <trkpt lat="48.91938" lon="2.50773">
        <ele>55.1</ele>
        <time>2020-07-01T15:46:54Z</time>
      </trkpt>
      <trkpt lat="48.91934" lon="2.50769">
        <ele>55.1</ele>
        <time>2020-07-01T15:46:55Z</time>
      </trkpt>
      <trkpt lat="48.9193" lon="2.50764">
        <ele>55.1</ele>
        <time>2020-07-01T15:46:56Z</time>
      </trkpt>
      <trkpt lat="48.91926" lon="2.5076">
        <ele>55.1</ele>
        <time>2020-07-01T15:46:57Z</time>
      </trkpt>
      <trkpt lat="48.91923" lon="2.50756">
        <ele>55.1</ele>
        <time>2020-07-01T15:46:58Z</time>
      </trkpt>
      <trkpt lat="48.91919" lon="2.50752">
        <ele>55.1</ele>
        <time>2020-07-01T15:46:59Z</time>
      </trkpt>
      <trkpt lat="48.91914" lon="2.50747">
        <ele>55.1</ele>
        <time>2020-07-01T15:47:00Z</time>
      </trkpt>
      <trkpt lat="48.91911" lon="2.50744">
        <ele>55.1</ele>
        <time>2020-07-01T15:47:01Z</time>
      </trkpt>
      <trkpt lat="48.91907" lon="2.5074">
        <ele>55.1</ele>
        <time>2020-07-01T15:47:02Z</time>
      </trkpt>
      <trkpt lat="48.91903" lon="2.50736">
        <ele>55.1</ele>
        <time>2020-07-01T15:47:03Z</time>
      </trkpt>
      <trkpt lat="48.919" lon="2.50731">
        <ele>55.1</ele>
        <time>2020-07-01T15:47:04Z</time>
      </trkpt>
      <trkpt lat="48.91896" lon="2.50728">
        <ele>55.1</ele>
        <time>2020-07-01T15:47:05Z</time>
      </trkpt>
      <trkpt lat="48.91891" lon="2.50724">
        <ele>55.1</ele>
        <time>2020-07-01T15:47:06Z</time>
      </trkpt>
      <trkpt lat="48.91887" lon="2.5072">
        <ele>55.1</ele>
        <time>2020-07-01T15:47:07Z</time>
      </trkpt>
      <trkpt lat="48.91882" lon="2.50716">
        <ele>55</ele>
        <time>2020-07-01T15:47:08Z</time>
      </trkpt>
      <trkpt lat="48.91878" lon="2.50714">
        <ele>54.9</ele>
        <time>2020-07-01T15:47:09Z</time>
      </trkpt>
      <trkpt lat="48.91875" lon="2.50713">
        <ele>54.8</ele>
        <time>2020-07-01T15:47:10Z</time>
      </trkpt>
      <trkpt lat="48.91872" lon="2.5071">
        <ele>54.8</ele>
        <time>2020-07-01T15:47:11Z</time>
      </trkpt>
      <trkpt lat="48.91868" lon="2.50706">
        <ele>54.7</ele>
        <time>2020-07-01T15:47:12Z</time>
      </trkpt>
      <trkpt lat="48.91864" lon="2.50701">
        <ele>54.7</ele>
        <time>2020-07-01T15:47:13Z</time>
      </trkpt>
      <trkpt lat="48.91859" lon="2.50697">
        <ele>54.6</ele>
        <time>2020-07-01T15:47:14Z</time>
      </trkpt>
      <trkpt lat="48.91854" lon="2.50691">
        <ele>54.6</ele>
        <time>2020-07-01T15:47:15Z</time>
      </trkpt>
      <trkpt lat="48.91849" lon="2.50686">
        <ele>54.6</ele>
        <time>2020-07-01T15:47:16Z</time>
      </trkpt>
      <trkpt lat="48.91845" lon="2.5068">
        <ele>54.6</ele>
        <time>2020-07-01T15:47:17Z</time>
      </trkpt>
      <trkpt lat="48.9184" lon="2.50674">
        <ele>54.7</ele>
        <time>2020-07-01T15:47:18Z</time>
      </trkpt>
      <trkpt lat="48.91836" lon="2.5067">
        <ele>54.7</ele>
        <time>2020-07-01T15:47:19Z</time>
      </trkpt>
      <trkpt lat="48.91832" lon="2.50665">
        <ele>54.7</ele>
        <time>2020-07-01T15:47:20Z</time>
      </trkpt>
      <trkpt lat="48.91827" lon="2.5066">
        <ele>54.8</ele>
        <time>2020-07-01T15:47:21Z</time>
      </trkpt>
      <trkpt lat="48.91823" lon="2.50655">
        <ele>54.8</ele>
        <time>2020-07-01T15:47:22Z</time>
      </trkpt>
      <trkpt lat="48.91818" lon="2.50648">
        <ele>54.8</ele>
        <time>2020-07-01T15:47:23Z</time>
      </trkpt>
      <trkpt lat="48.91814" lon="2.50643">
        <ele>54.8</ele>
        <time>2020-07-01T15:47:24Z</time>
      </trkpt>
      <trkpt lat="48.91811" lon="2.50638">
        <ele>54.8</ele>
        <time>2020-07-01T15:47:25Z</time>
      </trkpt>
      <trkpt lat="48.91807" lon="2.50634">
        <ele>54.8</ele>
        <time>2020-07-01T15:47:26Z</time>
      </trkpt>
      <trkpt lat="48.91803" lon="2.50629">
        <ele>54.8</ele>
        <time>2020-07-01T15:47:27Z</time>
      </trkpt>
      <trkpt lat="48.91798" lon="2.50624">
        <ele>54.8</ele>
        <time>2020-07-01T15:47:28Z</time>
      </trkpt>
      <trkpt lat="48.91793" lon="2.50617">
        <ele>54.8</ele>
        <time>2020-07-01T15:47:29Z</time>
      </trkpt>
      <trkpt lat="48.91788" lon="2.50612">
        <ele>54.8</ele>
        <time>2020-07-01T15:47:30Z</time>
      </trkpt>
      <trkpt lat="48.91783" lon="2.50606">
        <ele>54.8</ele>
        <time>2020-07-01T15:47:31Z</time>
      </trkpt>
      <trkpt lat="48.91778" lon="2.50602">
        <ele>54.9</ele>
        <time>2020-07-01T15:47:32Z</time>
      </trkpt>
      <trkpt lat="48.91772" lon="2.50597">
        <ele>54.9</ele>
        <time>2020-07-01T15:47:33Z</time>
      </trkpt>
      <trkpt lat="48.91768" lon="2.50593">
        <ele>54.9</ele>
        <time>2020-07-01T15:47:34Z</time>
      </trkpt>
      <trkpt lat="48.91763" lon="2.50588">
        <ele>54.9</ele>
        <time>2020-07-01T15:47:35Z</time>
      </trkpt>
      <trkpt lat="48.91758" lon="2.50583">
        <ele>54.9</ele>
        <time>2020-07-01T15:47:36Z</time>
      </trkpt>
      <trkpt lat="48.91753" lon="2.50578">
        <ele>54.9</ele>
        <time>2020-07-01T15:47:37Z</time>
      </trkpt>
      <trkpt lat="48.91749" lon="2.50573">
        <ele>54.9</ele>
        <time>2020-07-01T15:47:38Z</time>
      </trkpt>
      <trkpt lat="48.91743" lon="2.50567">
        <ele>54.8</ele>
        <time>2020-07-01T15:47:39Z</time>
      </trkpt>
      <trkpt lat="48.91738" lon="2.50562">
        <ele>54.8</ele>
        <time>2020-07-01T15:47:40Z</time>
      </trkpt>
      <trkpt lat="48.91733" lon="2.50554">
        <ele>54.8</ele>
        <time>2020-07-01T15:47:41Z</time>
      </trkpt>
      <trkpt lat="48.91728" lon="2.5055">
        <ele>54.8</ele>
        <time>2020-07-01T15:47:42Z</time>
      </trkpt>
      <trkpt lat="48.91723" lon="2.50547">
        <ele>54.8</ele>
        <time>2020-07-01T15:47:43Z</time>
      </trkpt>
      <trkpt lat="48.91719" lon="2.50545">
        <ele>54.8</ele>
        <time>2020-07-01T15:47:44Z</time>
      </trkpt>
      <trkpt lat="48.91717" lon="2.50543">
        <ele>54.8</ele>
        <time>2020-07-01T15:47:45Z</time>
      </trkpt>
      <trkpt lat="48.91713" lon="2.50539">
        <ele>54.8</ele>
        <time>2020-07-01T15:47:46Z</time>
      </trkpt>
      <trkpt lat="48.91709" lon="2.50535">
        <ele>54.8</ele>
        <time>2020-07-01T15:47:47Z</time>
      </trkpt>
      <trkpt lat="48.91705" lon="2.5053">
        <ele>54.8</ele>
        <time>2020-07-01T15:47:48Z</time>
      </trkpt>
      <trkpt lat="48.91702" lon="2.50527">
        <ele>54.8</ele>
        <time>2020-07-01T15:47:49Z</time>
      </trkpt>
      <trkpt lat="48.91699" lon="2.50524">
        <ele>54.8</ele>
        <time>2020-07-01T15:47:50Z</time>
      </trkpt>
      <trkpt lat="48.91696" lon="2.50521">
        <ele>54.8</ele>
        <time>2020-07-01T15:47:51Z</time>
      </trkpt>
      <trkpt lat="48.91692" lon="2.50515">
        <ele>54.8</ele>
        <time>2020-07-01T15:47:52Z</time>
      </trkpt>
      <trkpt lat="48.91688" lon="2.50509">
        <ele>54.7</ele>
        <time>2020-07-01T15:47:53Z</time>
      </trkpt>
      <trkpt lat="48.91684" lon="2.50502">
        <ele>54.7</ele>
        <time>2020-07-01T15:47:54Z</time>
      </trkpt>
      <trkpt lat="48.91679" lon="2.50496">
        <ele>54.7</ele>
        <time>2020-07-01T15:47:55Z</time>
      </trkpt>
      <trkpt lat="48.91674" lon="2.5049">
        <ele>54.6</ele>
        <time>2020-07-01T15:47:56Z</time>
      </trkpt>
      <trkpt lat="48.9167" lon="2.50486">
        <ele>54.6</ele>
        <time>2020-07-01T15:47:57Z</time>
      </trkpt>
      <trkpt lat="48.91665" lon="2.50482">
        <ele>54.6</ele>
        <time>2020-07-01T15:47:58Z</time>
      </trkpt>
      <trkpt lat="48.91661" lon="2.50478">
        <ele>54.6</ele>
        <time>2020-07-01T15:47:59Z</time>
      </trkpt>
      <trkpt lat="48.91656" lon="2.50472">
        <ele>54.6</ele>
        <time>2020-07-01T15:48:00Z</time>
      </trkpt>
      <trkpt lat="48.9165" lon="2.50467">
        <ele>54.5</ele>
        <time>2020-07-01T15:48:01Z</time>
      </trkpt>
      <trkpt lat="48.91646" lon="2.50462">
        <ele>54.5</ele>
        <time>2020-07-01T15:48:02Z</time>
      </trkpt>
      <trkpt lat="48.91641" lon="2.50457">
        <ele>54.5</ele>
        <time>2020-07-01T15:48:03Z</time>
      </trkpt>
      <trkpt lat="48.91636" lon="2.50451">
        <ele>54.5</ele>
        <time>2020-07-01T15:48:04Z</time>
      </trkpt>
      <trkpt lat="48.91632" lon="2.50446">
        <ele>54.4</ele>
        <time>2020-07-01T15:48:05Z</time>
      </trkpt>
      <trkpt lat="48.91627" lon="2.50441">
        <ele>54.3</ele>
        <time>2020-07-01T15:48:06Z</time>
      </trkpt>
      <trkpt lat="48.91623" lon="2.50435">
        <ele>54.3</ele>
        <time>2020-07-01T15:48:07Z</time>
      </trkpt>
      <trkpt lat="48.91622" lon="2.50428">
        <ele>54.3</ele>
        <time>2020-07-01T15:48:08Z</time>
      </trkpt>
      <trkpt lat="48.91619" lon="2.50424">
        <ele>54.3</ele>
        <time>2020-07-01T15:48:09Z</time>
      </trkpt>
      <trkpt lat="48.91616" lon="2.50421">
        <ele>54.3</ele>
        <time>2020-07-01T15:48:10Z</time>
      </trkpt>
      <trkpt lat="48.91613" lon="2.50418">
        <ele>54.3</ele>
        <time>2020-07-01T15:48:11Z</time>
      </trkpt>
      <trkpt lat="48.91609" lon="2.50415">
        <ele>54.3</ele>
        <time>2020-07-01T15:48:12Z</time>
      </trkpt>
      <trkpt lat="48.91606" lon="2.50411">
        <ele>54.2</ele>
        <time>2020-07-01T15:48:13Z</time>
      </trkpt>
      <trkpt lat="48.91602" lon="2.50407">
        <ele>54.2</ele>
        <time>2020-07-01T15:48:14Z</time>
      </trkpt>
      <trkpt lat="48.91597" lon="2.50402">
        <ele>54.2</ele>
        <time>2020-07-01T15:48:15Z</time>
      </trkpt>
      <trkpt lat="48.91593" lon="2.50398">
        <ele>54.2</ele>
        <time>2020-07-01T15:48:16Z</time>
      </trkpt>
      <trkpt lat="48.91588" lon="2.50393">
        <ele>54.1</ele>
        <time>2020-07-01T15:48:17Z</time>
      </trkpt>
      <trkpt lat="48.91583" lon="2.50387">
        <ele>54.1</ele>
        <time>2020-07-01T15:48:18Z</time>
      </trkpt>
      <trkpt lat="48.91579" lon="2.50381">
        <ele>54.1</ele>
        <time>2020-07-01T15:48:19Z</time>
      </trkpt>
      <trkpt lat="48.91575" lon="2.50374">
        <ele>54.1</ele>
        <time>2020-07-01T15:48:20Z</time>
      </trkpt>
      <trkpt lat="48.9157" lon="2.50367">
        <ele>54.1</ele>
        <time>2020-07-01T15:48:21Z</time>
      </trkpt>
      <trkpt lat="48.91564" lon="2.50361">
        <ele>54.1</ele>
        <time>2020-07-01T15:48:22Z</time>
      </trkpt>
      <trkpt lat="48.91558" lon="2.50356">
        <ele>54.1</ele>
        <time>2020-07-01T15:48:23Z</time>
      </trkpt>
      <trkpt lat="48.91553" lon="2.5035">
        <ele>54</ele>
        <time>2020-07-01T15:48:24Z</time>
      </trkpt>
      <trkpt lat="48.91547" lon="2.50344">
        <ele>54</ele>
        <time>2020-07-01T15:48:25Z</time>
      </trkpt>
      <trkpt lat="48.91541" lon="2.50338">
        <ele>54</ele>
        <time>2020-07-01T15:48:26Z</time>
      </trkpt>
      <trkpt lat="48.91535" lon="2.50333">
        <ele>54</ele>
        <time>2020-07-01T15:48:27Z</time>
      </trkpt>
      <trkpt lat="48.9153" lon="2.50328">
        <ele>53.9</ele>
        <time>2020-07-01T15:48:28Z</time>
      </trkpt>
      <trkpt lat="48.91525" lon="2.50323">
        <ele>53.9</ele>
        <time>2020-07-01T15:48:29Z</time>
      </trkpt>
      <trkpt lat="48.9152" lon="2.50316">
        <ele>53.9</ele>
        <time>2020-07-01T15:48:30Z</time>
      </trkpt>
      <trkpt lat="48.91516" lon="2.50312">
        <ele>53.9</ele>
        <time>2020-07-01T15:48:31Z</time>
      </trkpt>
      <trkpt lat="48.91511" lon="2.50307">
        <ele>53.9</ele>
        <time>2020-07-01T15:48:32Z</time>
      </trkpt>
      <trkpt lat="48.91507" lon="2.50302">
        <ele>53.8</ele>
        <time>2020-07-01T15:48:33Z</time>
      </trkpt>
      <trkpt lat="48.91501" lon="2.50296">
        <ele>53.8</ele>
        <time>2020-07-01T15:48:34Z</time>
      </trkpt>
      <trkpt lat="48.91496" lon="2.50289">
        <ele>53.8</ele>
        <time>2020-07-01T15:48:35Z</time>
      </trkpt>
      <trkpt lat="48.91492" lon="2.50284">
        <ele>53.8</ele>
        <time>2020-07-01T15:48:36Z</time>
      </trkpt>
      <trkpt lat="48.91488" lon="2.50279">
        <ele>53.8</ele>
        <time>2020-07-01T15:48:37Z</time>
      </trkpt>
      <trkpt lat="48.91485" lon="2.50276">
        <ele>53.8</ele>
        <time>2020-07-01T15:48:38Z</time>
      </trkpt>
      <trkpt lat="48.91481" lon="2.50272">
        <ele>53.8</ele>
        <time>2020-07-01T15:48:39Z</time>
      </trkpt>
      <trkpt lat="48.91477" lon="2.50268">
        <ele>53.8</ele>
        <time>2020-07-01T15:48:40Z</time>
      </trkpt>
      <trkpt lat="48.91474" lon="2.50263">
        <ele>53.8</ele>
        <time>2020-07-01T15:48:41Z</time>
      </trkpt>
      <trkpt lat="48.91471" lon="2.50259">
        <ele>53.8</ele>
        <time>2020-07-01T15:48:42Z</time>
      </trkpt>
      <trkpt lat="48.91469" lon="2.50254">
        <ele>53.8</ele>
        <time>2020-07-01T15:48:43Z</time>
      </trkpt>
      <trkpt lat="48.91467" lon="2.50248">
        <ele>53.8</ele>
        <time>2020-07-01T15:48:44Z</time>
      </trkpt>
      <trkpt lat="48.91465" lon="2.50241">
        <ele>53.8</ele>
        <time>2020-07-01T15:48:45Z</time>
      </trkpt>
      <trkpt lat="48.91462" lon="2.50236">
        <ele>53.8</ele>
        <time>2020-07-01T15:48:46Z</time>
      </trkpt>
      <trkpt lat="48.9146" lon="2.50231">
        <ele>53.8</ele>
        <time>2020-07-01T15:48:47Z</time>
      </trkpt>
      <trkpt lat="48.91457" lon="2.50227">
        <ele>53.8</ele>
        <time>2020-07-01T15:48:48Z</time>
      </trkpt>
      <trkpt lat="48.91453" lon="2.50224">
        <ele>53.8</ele>
        <time>2020-07-01T15:48:49Z</time>
      </trkpt>
      <trkpt lat="48.91449" lon="2.50222">
        <ele>53.9</ele>
        <time>2020-07-01T15:48:50Z</time>
      </trkpt>
      <trkpt lat="48.91444" lon="2.50218">
        <ele>53.9</ele>
        <time>2020-07-01T15:48:51Z</time>
      </trkpt>
      <trkpt lat="48.91438" lon="2.50214">
        <ele>53.9</ele>
        <time>2020-07-01T15:48:52Z</time>
      </trkpt>
      <trkpt lat="48.91434" lon="2.50207">
        <ele>53.8</ele>
        <time>2020-07-01T15:48:53Z</time>
      </trkpt>
      <trkpt lat="48.9143" lon="2.50204">
        <ele>53.8</ele>
        <time>2020-07-01T15:48:54Z</time>
      </trkpt>
      <trkpt lat="48.91425" lon="2.50201">
        <ele>53.7</ele>
        <time>2020-07-01T15:48:55Z</time>
      </trkpt>
      <trkpt lat="48.91422" lon="2.50198">
        <ele>53.7</ele>
        <time>2020-07-01T15:48:56Z</time>
      </trkpt>
      <trkpt lat="48.91418" lon="2.50194">
        <ele>53.7</ele>
        <time>2020-07-01T15:48:57Z</time>
      </trkpt>
      <trkpt lat="48.91414" lon="2.5019">
        <ele>53.7</ele>
        <time>2020-07-01T15:48:58Z</time>
      </trkpt>
      <trkpt lat="48.9141" lon="2.50186">
        <ele>53.7</ele>
        <time>2020-07-01T15:48:59Z</time>
      </trkpt>
      <trkpt lat="48.91406" lon="2.50182">
        <ele>53.7</ele>
        <time>2020-07-01T15:49:00Z</time>
      </trkpt>
      <trkpt lat="48.91402" lon="2.50177">
        <ele>53.7</ele>
        <time>2020-07-01T15:49:01Z</time>
      </trkpt>
      <trkpt lat="48.91398" lon="2.50173">
        <ele>53.7</ele>
        <time>2020-07-01T15:49:02Z</time>
      </trkpt>
      <trkpt lat="48.91394" lon="2.50168">
        <ele>53.7</ele>
        <time>2020-07-01T15:49:03Z</time>
      </trkpt>
      <trkpt lat="48.91389" lon="2.50162">
        <ele>53.7</ele>
        <time>2020-07-01T15:49:04Z</time>
      </trkpt>
      <trkpt lat="48.91384" lon="2.50159">
        <ele>53.7</ele>
        <time>2020-07-01T15:49:05Z</time>
      </trkpt>
      <trkpt lat="48.9138" lon="2.50153">
        <ele>53.7</ele>
        <time>2020-07-01T15:49:06Z</time>
      </trkpt>
      <trkpt lat="48.91375" lon="2.50149">
        <ele>53.7</ele>
        <time>2020-07-01T15:49:07Z</time>
      </trkpt>
      <trkpt lat="48.91371" lon="2.50146">
        <ele>53.7</ele>
        <time>2020-07-01T15:49:08Z</time>
      </trkpt>
      <trkpt lat="48.91367" lon="2.50142">
        <ele>53.7</ele>
        <time>2020-07-01T15:49:09Z</time>
      </trkpt>
      <trkpt lat="48.91364" lon="2.50137">
        <ele>53.7</ele>
        <time>2020-07-01T15:49:10Z</time>
      </trkpt>
      <trkpt lat="48.91359" lon="2.50133">
        <ele>53.7</ele>
        <time>2020-07-01T15:49:11Z</time>
      </trkpt>
      <trkpt lat="48.91355" lon="2.50127">
        <ele>53.7</ele>
        <time>2020-07-01T15:49:12Z</time>
      </trkpt>
      <trkpt lat="48.91351" lon="2.50121">
        <ele>53.7</ele>
        <time>2020-07-01T15:49:13Z</time>
      </trkpt>
      <trkpt lat="48.91346" lon="2.50115">
        <ele>53.7</ele>
        <time>2020-07-01T15:49:14Z</time>
      </trkpt>
      <trkpt lat="48.91342" lon="2.50111">
        <ele>53.7</ele>
        <time>2020-07-01T15:49:15Z</time>
      </trkpt>
      <trkpt lat="48.91337" lon="2.50106">
        <ele>53.8</ele>
        <time>2020-07-01T15:49:16Z</time>
      </trkpt>
      <trkpt lat="48.91331" lon="2.501">
        <ele>53.8</ele>
        <time>2020-07-01T15:49:17Z</time>
      </trkpt>
      <trkpt lat="48.91326" lon="2.50096">
        <ele>53.8</ele>
        <time>2020-07-01T15:49:18Z</time>
      </trkpt>
      <trkpt lat="48.91322" lon="2.50091">
        <ele>53.7</ele>
        <time>2020-07-01T15:49:19Z</time>
      </trkpt>
      <trkpt lat="48.91318" lon="2.50086">
        <ele>53.7</ele>
        <time>2020-07-01T15:49:20Z</time>
      </trkpt>
      <trkpt lat="48.91314" lon="2.50082">
        <ele>53.8</ele>
        <time>2020-07-01T15:49:21Z</time>
      </trkpt>
      <trkpt lat="48.91311" lon="2.50077">
        <ele>53.8</ele>
        <time>2020-07-01T15:49:22Z</time>
      </trkpt>
      <trkpt lat="48.91308" lon="2.50072">
        <ele>53.8</ele>
        <time>2020-07-01T15:49:23Z</time>
      </trkpt>
      <trkpt lat="48.91304" lon="2.50067">
        <ele>53.8</ele>
        <time>2020-07-01T15:49:24Z</time>
      </trkpt>
      <trkpt lat="48.913" lon="2.50061">
        <ele>53.8</ele>
        <time>2020-07-01T15:49:25Z</time>
      </trkpt>
      <trkpt lat="48.91296" lon="2.50055">
        <ele>53.7</ele>
        <time>2020-07-01T15:49:26Z</time>
      </trkpt>
      <trkpt lat="48.91291" lon="2.5005">
        <ele>53.7</ele>
        <time>2020-07-01T15:49:27Z</time>
      </trkpt>
      <trkpt lat="48.91285" lon="2.50045">
        <ele>53.8</ele>
        <time>2020-07-01T15:49:28Z</time>
      </trkpt>
      <trkpt lat="48.91279" lon="2.50039">
        <ele>53.8</ele>
        <time>2020-07-01T15:49:29Z</time>
      </trkpt>
      <trkpt lat="48.91275" lon="2.50035">
        <ele>53.8</ele>
        <time>2020-07-01T15:49:30Z</time>
      </trkpt>
      <trkpt lat="48.91271" lon="2.50031">
        <ele>53.8</ele>
        <time>2020-07-01T15:49:31Z</time>
      </trkpt>
      <trkpt lat="48.91267" lon="2.50025">
        <ele>53.8</ele>
        <time>2020-07-01T15:49:32Z</time>
      </trkpt>
      <trkpt lat="48.91262" lon="2.50017">
        <ele>53.8</ele>
        <time>2020-07-01T15:49:33Z</time>
      </trkpt>
      <trkpt lat="48.91257" lon="2.50011">
        <ele>53.8</ele>
        <time>2020-07-01T15:49:34Z</time>
      </trkpt>
      <trkpt lat="48.91252" lon="2.50004">
        <ele>53.8</ele>
        <time>2020-07-01T15:49:35Z</time>
      </trkpt>
      <trkpt lat="48.91248" lon="2.50002">
        <ele>53.8</ele>
        <time>2020-07-01T15:49:36Z</time>
      </trkpt>
      <trkpt lat="48.91243" lon="2.49997">
        <ele>53.8</ele>
        <time>2020-07-01T15:49:37Z</time>
      </trkpt>
      <trkpt lat="48.91238" lon="2.49992">
        <ele>53.8</ele>
        <time>2020-07-01T15:49:38Z</time>
      </trkpt>
      <trkpt lat="48.91233" lon="2.49988">
        <ele>53.8</ele>
        <time>2020-07-01T15:49:39Z</time>
      </trkpt>
      <trkpt lat="48.91228" lon="2.49982">
        <ele>53.8</ele>
        <time>2020-07-01T15:49:40Z</time>
      </trkpt>
      <trkpt lat="48.91223" lon="2.49975">
        <ele>53.9</ele>
        <time>2020-07-01T15:49:41Z</time>
      </trkpt>
      <trkpt lat="48.91219" lon="2.4997">
        <ele>53.9</ele>
        <time>2020-07-01T15:49:42Z</time>
      </trkpt>
      <trkpt lat="48.91214" lon="2.49964">
        <ele>53.9</ele>
        <time>2020-07-01T15:49:43Z</time>
      </trkpt>
      <trkpt lat="48.91208" lon="2.49959">
        <ele>53.9</ele>
        <time>2020-07-01T15:49:44Z</time>
      </trkpt>
      <trkpt lat="48.91201" lon="2.49952">
        <ele>54</ele>
        <time>2020-07-01T15:49:45Z</time>
      </trkpt>
      <trkpt lat="48.91195" lon="2.49945">
        <ele>54</ele>
        <time>2020-07-01T15:49:46Z</time>
      </trkpt>
      <trkpt lat="48.9119" lon="2.49938">
        <ele>54</ele>
        <time>2020-07-01T15:49:47Z</time>
      </trkpt>
      <trkpt lat="48.91185" lon="2.49929">
        <ele>54</ele>
        <time>2020-07-01T15:49:48Z</time>
      </trkpt>
      <trkpt lat="48.91179" lon="2.49922">
        <ele>53.9</ele>
        <time>2020-07-01T15:49:49Z</time>
      </trkpt>
      <trkpt lat="48.91172" lon="2.49915">
        <ele>53.9</ele>
        <time>2020-07-01T15:49:50Z</time>
      </trkpt>
      <trkpt lat="48.91166" lon="2.49907">
        <ele>53.9</ele>
        <time>2020-07-01T15:49:51Z</time>
      </trkpt>
      <trkpt lat="48.91161" lon="2.499">
        <ele>53.9</ele>
        <time>2020-07-01T15:49:52Z</time>
      </trkpt>
      <trkpt lat="48.91156" lon="2.49893">
        <ele>54</ele>
        <time>2020-07-01T15:49:53Z</time>
      </trkpt>
      <trkpt lat="48.91151" lon="2.49886">
        <ele>54</ele>
        <time>2020-07-01T15:49:54Z</time>
      </trkpt>
      <trkpt lat="48.91147" lon="2.4988">
        <ele>54.1</ele>
        <time>2020-07-01T15:49:55Z</time>
      </trkpt>
      <trkpt lat="48.91142" lon="2.49873">
        <ele>54.1</ele>
        <time>2020-07-01T15:49:56Z</time>
      </trkpt>
      <trkpt lat="48.91138" lon="2.49866">
        <ele>54.2</ele>
        <time>2020-07-01T15:49:57Z</time>
      </trkpt>
      <trkpt lat="48.91134" lon="2.4986">
        <ele>54.2</ele>
        <time>2020-07-01T15:49:58Z</time>
      </trkpt>
      <trkpt lat="48.91129" lon="2.49853">
        <ele>54.1</ele>
        <time>2020-07-01T15:49:59Z</time>
      </trkpt>
      <trkpt lat="48.91126" lon="2.49846">
        <ele>53.9</ele>
        <time>2020-07-01T15:50:00Z</time>
      </trkpt>
      <trkpt lat="48.91123" lon="2.49839">
        <ele>53.8</ele>
        <time>2020-07-01T15:50:01Z</time>
      </trkpt>
      <trkpt lat="48.91118" lon="2.49832">
        <ele>53.8</ele>
        <time>2020-07-01T15:50:02Z</time>
      </trkpt>
      <trkpt lat="48.91114" lon="2.49825">
        <ele>53.8</ele>
        <time>2020-07-01T15:50:03Z</time>
      </trkpt>
      <trkpt lat="48.91109" lon="2.49819">
        <ele>53.7</ele>
        <time>2020-07-01T15:50:04Z</time>
      </trkpt>
      <trkpt lat="48.91104" lon="2.49811">
        <ele>53.7</ele>
        <time>2020-07-01T15:50:05Z</time>
      </trkpt>
      <trkpt lat="48.91098" lon="2.49804">
        <ele>53.7</ele>
        <time>2020-07-01T15:50:06Z</time>
      </trkpt>
      <trkpt lat="48.91094" lon="2.49798">
        <ele>53.7</ele>
        <time>2020-07-01T15:50:07Z</time>
      </trkpt>
      <trkpt lat="48.91088" lon="2.4979">
        <ele>53.8</ele>
        <time>2020-07-01T15:50:08Z</time>
      </trkpt>
      <trkpt lat="48.91084" lon="2.49783">
        <ele>53.9</ele>
        <time>2020-07-01T15:50:09Z</time>
      </trkpt>
      <trkpt lat="48.9108" lon="2.49775">
        <ele>53.9</ele>
        <time>2020-07-01T15:50:10Z</time>
      </trkpt>
      <trkpt lat="48.91076" lon="2.49767">
        <ele>53.9</ele>
        <time>2020-07-01T15:50:11Z</time>
      </trkpt>
      <trkpt lat="48.91073" lon="2.49759">
        <ele>53.9</ele>
        <time>2020-07-01T15:50:12Z</time>
      </trkpt>
      <trkpt lat="48.91068" lon="2.4975">
        <ele>53.9</ele>
        <time>2020-07-01T15:50:13Z</time>
      </trkpt>
      <trkpt lat="48.91064" lon="2.49745">
        <ele>53.9</ele>
        <time>2020-07-01T15:50:14Z</time>
      </trkpt>
      <trkpt lat="48.91062" lon="2.49738">
        <ele>54</ele>
        <time>2020-07-01T15:50:15Z</time>
      </trkpt>
      <trkpt lat="48.91059" lon="2.4973">
        <ele>54</ele>
        <time>2020-07-01T15:50:16Z</time>
      </trkpt>
      <trkpt lat="48.91056" lon="2.49722">
        <ele>54</ele>
        <time>2020-07-01T15:50:17Z</time>
      </trkpt>
      <trkpt lat="48.91053" lon="2.49714">
        <ele>54</ele>
        <time>2020-07-01T15:50:18Z</time>
      </trkpt>
      <trkpt lat="48.91049" lon="2.49705">
        <ele>54</ele>
        <time>2020-07-01T15:50:19Z</time>
      </trkpt>
      <trkpt lat="48.91046" lon="2.49698">
        <ele>53.9</ele>
        <time>2020-07-01T15:50:20Z</time>
      </trkpt>
      <trkpt lat="48.91042" lon="2.49689">
        <ele>53.9</ele>
        <time>2020-07-01T15:50:21Z</time>
      </trkpt>
      <trkpt lat="48.91039" lon="2.4968">
        <ele>53.9</ele>
        <time>2020-07-01T15:50:22Z</time>
      </trkpt>
      <trkpt lat="48.91036" lon="2.49671">
        <ele>53.9</ele>
        <time>2020-07-01T15:50:23Z</time>
      </trkpt>
      <trkpt lat="48.91033" lon="2.49661">
        <ele>53.9</ele>
        <time>2020-07-01T15:50:24Z</time>
      </trkpt>
      <trkpt lat="48.9103" lon="2.49653">
        <ele>53.9</ele>
        <time>2020-07-01T15:50:25Z</time>
      </trkpt>
      <trkpt lat="48.91027" lon="2.49645">
        <ele>53.8</ele>
        <time>2020-07-01T15:50:26Z</time>
      </trkpt>
      <trkpt lat="48.91024" lon="2.49635">
        <ele>53.8</ele>
        <time>2020-07-01T15:50:27Z</time>
      </trkpt>
      <trkpt lat="48.91022" lon="2.49627">
        <ele>53.7</ele>
        <time>2020-07-01T15:50:28Z</time>
      </trkpt>
      <trkpt lat="48.9102" lon="2.49618">
        <ele>53.7</ele>
        <time>2020-07-01T15:50:29Z</time>
      </trkpt>
      <trkpt lat="48.91018" lon="2.49609">
        <ele>53.7</ele>
        <time>2020-07-01T15:50:30Z</time>
      </trkpt>
      <trkpt lat="48.91016" lon="2.49599">
        <ele>53.7</ele>
        <time>2020-07-01T15:50:31Z</time>
      </trkpt>
      <trkpt lat="48.91014" lon="2.49589">
        <ele>53.7</ele>
        <time>2020-07-01T15:50:32Z</time>
      </trkpt>
      <trkpt lat="48.91012" lon="2.49581">
        <ele>53.7</ele>
        <time>2020-07-01T15:50:33Z</time>
      </trkpt>
      <trkpt lat="48.9101" lon="2.49573">
        <ele>53.7</ele>
        <time>2020-07-01T15:50:34Z</time>
      </trkpt>
      <trkpt lat="48.91008" lon="2.49566">
        <ele>53.7</ele>
        <time>2020-07-01T15:50:35Z</time>
      </trkpt>
      <trkpt lat="48.91005" lon="2.49561">
        <ele>53.7</ele>
        <time>2020-07-01T15:50:36Z</time>
      </trkpt>
      <trkpt lat="48.91003" lon="2.49556">
        <ele>53.7</ele>
        <time>2020-07-01T15:50:37Z</time>
      </trkpt>
      <trkpt lat="48.91002" lon="2.49551">
        <ele>53.7</ele>
        <time>2020-07-01T15:50:38Z</time>
      </trkpt>
      <trkpt lat="48.91002" lon="2.49544">
        <ele>53.6</ele>
        <time>2020-07-01T15:50:39Z</time>
      </trkpt>
      <trkpt lat="48.91005" lon="2.49538">
        <ele>53.6</ele>
        <time>2020-07-01T15:50:40Z</time>
      </trkpt>
      <trkpt lat="48.91005" lon="2.49529">
        <ele>53.6</ele>
        <time>2020-07-01T15:50:41Z</time>
      </trkpt>
      <trkpt lat="48.91004" lon="2.49523">
        <ele>53.6</ele>
        <time>2020-07-01T15:50:42Z</time>
      </trkpt>
      <trkpt lat="48.91002" lon="2.49516">
        <ele>53.6</ele>
        <time>2020-07-01T15:50:43Z</time>
      </trkpt>
      <trkpt lat="48.91" lon="2.49507">
        <ele>53.6</ele>
        <time>2020-07-01T15:50:44Z</time>
      </trkpt>
      <trkpt lat="48.91" lon="2.49497">
        <ele>53.6</ele>
        <time>2020-07-01T15:50:45Z</time>
      </trkpt>
      <trkpt lat="48.90999" lon="2.49487">
        <ele>53.5</ele>
        <time>2020-07-01T15:50:46Z</time>
      </trkpt>
      <trkpt lat="48.90998" lon="2.49478">
        <ele>53.5</ele>
        <time>2020-07-01T15:50:47Z</time>
      </trkpt>
      <trkpt lat="48.90999" lon="2.49469">
        <ele>53.5</ele>
        <time>2020-07-01T15:50:48Z</time>
      </trkpt>
      <trkpt lat="48.90996" lon="2.4946">
        <ele>53.5</ele>
        <time>2020-07-01T15:50:49Z</time>
      </trkpt>
      <trkpt lat="48.90994" lon="2.49452">
        <ele>53.5</ele>
        <time>2020-07-01T15:50:50Z</time>
      </trkpt>
      <trkpt lat="48.90993" lon="2.49444">
        <ele>53.5</ele>
        <time>2020-07-01T15:50:51Z</time>
      </trkpt>
      <trkpt lat="48.90991" lon="2.49437">
        <ele>53.5</ele>
        <time>2020-07-01T15:50:52Z</time>
      </trkpt>
      <trkpt lat="48.90987" lon="2.49429">
        <ele>53.5</ele>
        <time>2020-07-01T15:50:53Z</time>
      </trkpt>
      <trkpt lat="48.90988" lon="2.49423">
        <ele>53.5</ele>
        <time>2020-07-01T15:50:54Z</time>
      </trkpt>
      <trkpt lat="48.90985" lon="2.49416">
        <ele>53.5</ele>
        <time>2020-07-01T15:50:55Z</time>
      </trkpt>
      <trkpt lat="48.90982" lon="2.49407">
        <ele>53.5</ele>
        <time>2020-07-01T15:50:56Z</time>
      </trkpt>
      <trkpt lat="48.9098" lon="2.49399">
        <ele>53.5</ele>
        <time>2020-07-01T15:50:57Z</time>
      </trkpt>
      <trkpt lat="48.90978" lon="2.49391">
        <ele>53.5</ele>
        <time>2020-07-01T15:50:58Z</time>
      </trkpt>
      <trkpt lat="48.90976" lon="2.49383">
        <ele>53.5</ele>
        <time>2020-07-01T15:50:59Z</time>
      </trkpt>
      <trkpt lat="48.90974" lon="2.49375">
        <ele>53.5</ele>
        <time>2020-07-01T15:51:00Z</time>
      </trkpt>
      <trkpt lat="48.90972" lon="2.49366">
        <ele>53.6</ele>
        <time>2020-07-01T15:51:01Z</time>
      </trkpt>
      <trkpt lat="48.90969" lon="2.49358">
        <ele>53.6</ele>
        <time>2020-07-01T15:51:02Z</time>
      </trkpt>
      <trkpt lat="48.90968" lon="2.49351">
        <ele>53.6</ele>
        <time>2020-07-01T15:51:03Z</time>
      </trkpt>
      <trkpt lat="48.90966" lon="2.49344">
        <ele>53.6</ele>
        <time>2020-07-01T15:51:04Z</time>
      </trkpt>
      <trkpt lat="48.90964" lon="2.49337">
        <ele>53.6</ele>
        <time>2020-07-01T15:51:05Z</time>
      </trkpt>
      <trkpt lat="48.90962" lon="2.49329">
        <ele>53.5</ele>
        <time>2020-07-01T15:51:06Z</time>
      </trkpt>
      <trkpt lat="48.9096" lon="2.4932">
        <ele>53.5</ele>
        <time>2020-07-01T15:51:07Z</time>
      </trkpt>
      <trkpt lat="48.90957" lon="2.49311">
        <ele>53.5</ele>
        <time>2020-07-01T15:51:08Z</time>
      </trkpt>
      <trkpt lat="48.90955" lon="2.49302">
        <ele>53.5</ele>
        <time>2020-07-01T15:51:09Z</time>
      </trkpt>
      <trkpt lat="48.90953" lon="2.49293">
        <ele>53.6</ele>
        <time>2020-07-01T15:51:10Z</time>
      </trkpt>
      <trkpt lat="48.90952" lon="2.49285">
        <ele>53.6</ele>
        <time>2020-07-01T15:51:11Z</time>
      </trkpt>
      <trkpt lat="48.90951" lon="2.49276">
        <ele>53.6</ele>
        <time>2020-07-01T15:51:12Z</time>
      </trkpt>
      <trkpt lat="48.9095" lon="2.49269">
        <ele>53.5</ele>
        <time>2020-07-01T15:51:13Z</time>
      </trkpt>
      <trkpt lat="48.90948" lon="2.49261">
        <ele>53.5</ele>
        <time>2020-07-01T15:51:14Z</time>
      </trkpt>
      <trkpt lat="48.90946" lon="2.49254">
        <ele>53.5</ele>
        <time>2020-07-01T15:51:15Z</time>
      </trkpt>
      <trkpt lat="48.90945" lon="2.49246">
        <ele>53.5</ele>
        <time>2020-07-01T15:51:16Z</time>
      </trkpt>
      <trkpt lat="48.90944" lon="2.49238">
        <ele>53.5</ele>
        <time>2020-07-01T15:51:17Z</time>
      </trkpt>
      <trkpt lat="48.90943" lon="2.49232">
        <ele>53.5</ele>
        <time>2020-07-01T15:51:18Z</time>
      </trkpt>
      <trkpt lat="48.90942" lon="2.49226">
        <ele>53.5</ele>
        <time>2020-07-01T15:51:19Z</time>
      </trkpt>
      <trkpt lat="48.9094" lon="2.49219">
        <ele>53.4</ele>
        <time>2020-07-01T15:51:20Z</time>
      </trkpt>
      <trkpt lat="48.90939" lon="2.49212">
        <ele>53.4</ele>
        <time>2020-07-01T15:51:21Z</time>
      </trkpt>
      <trkpt lat="48.90938" lon="2.49205">
        <ele>53.4</ele>
        <time>2020-07-01T15:51:22Z</time>
      </trkpt>
      <trkpt lat="48.90936" lon="2.49198">
        <ele>53.4</ele>
        <time>2020-07-01T15:51:23Z</time>
      </trkpt>
      <trkpt lat="48.90934" lon="2.4919">
        <ele>53.4</ele>
        <time>2020-07-01T15:51:24Z</time>
      </trkpt>
      <trkpt lat="48.90933" lon="2.49183">
        <ele>53.4</ele>
        <time>2020-07-01T15:51:25Z</time>
      </trkpt>
      <trkpt lat="48.90931" lon="2.49175">
        <ele>53.3</ele>
        <time>2020-07-01T15:51:26Z</time>
      </trkpt>
      <trkpt lat="48.9093" lon="2.49168">
        <ele>53.3</ele>
        <time>2020-07-01T15:51:27Z</time>
      </trkpt>
      <trkpt lat="48.90929" lon="2.4916">
        <ele>53.3</ele>
        <time>2020-07-01T15:51:28Z</time>
      </trkpt>
      <trkpt lat="48.90927" lon="2.49152">
        <ele>53.4</ele>
        <time>2020-07-01T15:51:29Z</time>
      </trkpt>
      <trkpt lat="48.90926" lon="2.49145">
        <ele>53.4</ele>
        <time>2020-07-01T15:51:30Z</time>
      </trkpt>
      <trkpt lat="48.90925" lon="2.49138">
        <ele>53.4</ele>
        <time>2020-07-01T15:51:31Z</time>
      </trkpt>
      <trkpt lat="48.90924" lon="2.49131">
        <ele>53.4</ele>
        <time>2020-07-01T15:51:32Z</time>
      </trkpt>
      <trkpt lat="48.90924" lon="2.49122">
        <ele>53.4</ele>
        <time>2020-07-01T15:51:33Z</time>
      </trkpt>
      <trkpt lat="48.90925" lon="2.49115">
        <ele>53.5</ele>
        <time>2020-07-01T15:51:34Z</time>
      </trkpt>
      <trkpt lat="48.90927" lon="2.49109">
        <ele>53.5</ele>
        <time>2020-07-01T15:51:35Z</time>
      </trkpt>
      <trkpt lat="48.90929" lon="2.49103">
        <ele>53.5</ele>
        <time>2020-07-01T15:51:36Z</time>
      </trkpt>
      <trkpt lat="48.90927" lon="2.49095">
        <ele>53.5</ele>
        <time>2020-07-01T15:51:37Z</time>
      </trkpt>
      <trkpt lat="48.90925" lon="2.49087">
        <ele>53.5</ele>
        <time>2020-07-01T15:51:38Z</time>
      </trkpt>
      <trkpt lat="48.90924" lon="2.4908">
        <ele>53.5</ele>
        <time>2020-07-01T15:51:39Z</time>
      </trkpt>
      <trkpt lat="48.90922" lon="2.49072">
        <ele>53.5</ele>
        <time>2020-07-01T15:51:40Z</time>
      </trkpt>
      <trkpt lat="48.90921" lon="2.49065">
        <ele>53.6</ele>
        <time>2020-07-01T15:51:41Z</time>
      </trkpt>
      <trkpt lat="48.9092" lon="2.49057">
        <ele>53.6</ele>
        <time>2020-07-01T15:51:42Z</time>
      </trkpt>
      <trkpt lat="48.90918" lon="2.49048">
        <ele>53.5</ele>
        <time>2020-07-01T15:51:43Z</time>
      </trkpt>
      <trkpt lat="48.90917" lon="2.49037">
        <ele>53.5</ele>
        <time>2020-07-01T15:51:44Z</time>
      </trkpt>
      <trkpt lat="48.90915" lon="2.49029">
        <ele>53.5</ele>
        <time>2020-07-01T15:51:45Z</time>
      </trkpt>
      <trkpt lat="48.90913" lon="2.4902">
        <ele>53.5</ele>
        <time>2020-07-01T15:51:46Z</time>
      </trkpt>
      <trkpt lat="48.90911" lon="2.49011">
        <ele>53.5</ele>
        <time>2020-07-01T15:51:47Z</time>
      </trkpt>
      <trkpt lat="48.90909" lon="2.49004">
        <ele>53.5</ele>
        <time>2020-07-01T15:51:48Z</time>
      </trkpt>
      <trkpt lat="48.90906" lon="2.48996">
        <ele>53.5</ele>
        <time>2020-07-01T15:51:49Z</time>
      </trkpt>
      <trkpt lat="48.90905" lon="2.48989">
        <ele>53.5</ele>
        <time>2020-07-01T15:51:50Z</time>
      </trkpt>
      <trkpt lat="48.90905" lon="2.48984">
        <ele>53.5</ele>
        <time>2020-07-01T15:51:51Z</time>
      </trkpt>
      <trkpt lat="48.90905" lon="2.48981">
        <ele>53.5</ele>
        <time>2020-07-01T15:51:52Z</time>
      </trkpt>
      <trkpt lat="48.90904" lon="2.48974">
        <ele>53.5</ele>
        <time>2020-07-01T15:51:53Z</time>
      </trkpt>
      <trkpt lat="48.90903" lon="2.48966">
        <ele>53.4</ele>
        <time>2020-07-01T15:51:54Z</time>
      </trkpt>
      <trkpt lat="48.90902" lon="2.48959">
        <ele>53.4</ele>
        <time>2020-07-01T15:51:55Z</time>
      </trkpt>
      <trkpt lat="48.90901" lon="2.48951">
        <ele>53.4</ele>
        <time>2020-07-01T15:51:56Z</time>
      </trkpt>
      <trkpt lat="48.90899" lon="2.48943">
        <ele>53.4</ele>
        <time>2020-07-01T15:51:57Z</time>
      </trkpt>
      <trkpt lat="48.90897" lon="2.48932">
        <ele>53.4</ele>
        <time>2020-07-01T15:51:58Z</time>
      </trkpt>
      <trkpt lat="48.90894" lon="2.48923">
        <ele>53.4</ele>
        <time>2020-07-01T15:51:59Z</time>
      </trkpt>
      <trkpt lat="48.90892" lon="2.48916">
        <ele>53.4</ele>
        <time>2020-07-01T15:52:00Z</time>
      </trkpt>
      <trkpt lat="48.90889" lon="2.48907">
        <ele>53.4</ele>
        <time>2020-07-01T15:52:01Z</time>
      </trkpt>
      <trkpt lat="48.90887" lon="2.48898">
        <ele>53.4</ele>
        <time>2020-07-01T15:52:02Z</time>
      </trkpt>
      <trkpt lat="48.90886" lon="2.48889">
        <ele>53.4</ele>
        <time>2020-07-01T15:52:03Z</time>
      </trkpt>
      <trkpt lat="48.90884" lon="2.48881">
        <ele>53.4</ele>
        <time>2020-07-01T15:52:04Z</time>
      </trkpt>
      <trkpt lat="48.90883" lon="2.48872">
        <ele>53.5</ele>
        <time>2020-07-01T15:52:05Z</time>
      </trkpt>
      <trkpt lat="48.90882" lon="2.48864">
        <ele>53.5</ele>
        <time>2020-07-01T15:52:06Z</time>
      </trkpt>
      <trkpt lat="48.90881" lon="2.48855">
        <ele>53.5</ele>
        <time>2020-07-01T15:52:07Z</time>
      </trkpt>
      <trkpt lat="48.9088" lon="2.48846">
        <ele>53.5</ele>
        <time>2020-07-01T15:52:08Z</time>
      </trkpt>
      <trkpt lat="48.90878" lon="2.48838">
        <ele>53.5</ele>
        <time>2020-07-01T15:52:09Z</time>
      </trkpt>
      <trkpt lat="48.90877" lon="2.48831">
        <ele>53.5</ele>
        <time>2020-07-01T15:52:10Z</time>
      </trkpt>
      <trkpt lat="48.90875" lon="2.48823">
        <ele>53.5</ele>
        <time>2020-07-01T15:52:11Z</time>
      </trkpt>
      <trkpt lat="48.90873" lon="2.48815">
        <ele>53.4</ele>
        <time>2020-07-01T15:52:12Z</time>
      </trkpt>
      <trkpt lat="48.90871" lon="2.48806">
        <ele>53.4</ele>
        <time>2020-07-01T15:52:13Z</time>
      </trkpt>
      <trkpt lat="48.90868" lon="2.48799">
        <ele>53.4</ele>
        <time>2020-07-01T15:52:14Z</time>
      </trkpt>
      <trkpt lat="48.90866" lon="2.4879">
        <ele>53.4</ele>
        <time>2020-07-01T15:52:15Z</time>
      </trkpt>
      <trkpt lat="48.90864" lon="2.48781">
        <ele>53.5</ele>
        <time>2020-07-01T15:52:16Z</time>
      </trkpt>
      <trkpt lat="48.90864" lon="2.48773">
        <ele>53.5</ele>
        <time>2020-07-01T15:52:17Z</time>
      </trkpt>
      <trkpt lat="48.90863" lon="2.48765">
        <ele>53.5</ele>
        <time>2020-07-01T15:52:18Z</time>
      </trkpt>
      <trkpt lat="48.90861" lon="2.48757">
        <ele>53.5</ele>
        <time>2020-07-01T15:52:19Z</time>
      </trkpt>
      <trkpt lat="48.90861" lon="2.4875">
        <ele>53.5</ele>
        <time>2020-07-01T15:52:20Z</time>
      </trkpt>
      <trkpt lat="48.90859" lon="2.48743">
        <ele>53.5</ele>
        <time>2020-07-01T15:52:21Z</time>
      </trkpt>
      <trkpt lat="48.90858" lon="2.48736">
        <ele>53.5</ele>
        <time>2020-07-01T15:52:22Z</time>
      </trkpt>
      <trkpt lat="48.90856" lon="2.48727">
        <ele>53.5</ele>
        <time>2020-07-01T15:52:23Z</time>
      </trkpt>
      <trkpt lat="48.90853" lon="2.48718">
        <ele>53.5</ele>
        <time>2020-07-01T15:52:24Z</time>
      </trkpt>
      <trkpt lat="48.9085" lon="2.48709">
        <ele>53.5</ele>
        <time>2020-07-01T15:52:25Z</time>
      </trkpt>
      <trkpt lat="48.90848" lon="2.48699">
        <ele>53.4</ele>
        <time>2020-07-01T15:52:26Z</time>
      </trkpt>
      <trkpt lat="48.90847" lon="2.48691">
        <ele>53.4</ele>
        <time>2020-07-01T15:52:27Z</time>
      </trkpt>
      <trkpt lat="48.90848" lon="2.48683">
        <ele>53.4</ele>
        <time>2020-07-01T15:52:28Z</time>
      </trkpt>
      <trkpt lat="48.90846" lon="2.48677">
        <ele>53.4</ele>
        <time>2020-07-01T15:52:29Z</time>
      </trkpt>
      <trkpt lat="48.90844" lon="2.4867">
        <ele>53.5</ele>
        <time>2020-07-01T15:52:30Z</time>
      </trkpt>
      <trkpt lat="48.90842" lon="2.48662">
        <ele>53.5</ele>
        <time>2020-07-01T15:52:31Z</time>
      </trkpt>
      <trkpt lat="48.90839" lon="2.48653">
        <ele>53.5</ele>
        <time>2020-07-01T15:52:32Z</time>
      </trkpt>
      <trkpt lat="48.90836" lon="2.48645">
        <ele>53.5</ele>
        <time>2020-07-01T15:52:33Z</time>
      </trkpt>
      <trkpt lat="48.90834" lon="2.48637">
        <ele>53.5</ele>
        <time>2020-07-01T15:52:34Z</time>
      </trkpt>
      <trkpt lat="48.90837" lon="2.48628">
        <ele>53.5</ele>
        <time>2020-07-01T15:52:35Z</time>
      </trkpt>
      <trkpt lat="48.90835" lon="2.48619">
        <ele>53.5</ele>
        <time>2020-07-01T15:52:36Z</time>
      </trkpt>
      <trkpt lat="48.90832" lon="2.48611">
        <ele>53.5</ele>
        <time>2020-07-01T15:52:37Z</time>
      </trkpt>
      <trkpt lat="48.90828" lon="2.48602">
        <ele>53.5</ele>
        <time>2020-07-01T15:52:38Z</time>
      </trkpt>
      <trkpt lat="48.90826" lon="2.48593">
        <ele>53.5</ele>
        <time>2020-07-01T15:52:39Z</time>
      </trkpt>
      <trkpt lat="48.90824" lon="2.48584">
        <ele>53.5</ele>
        <time>2020-07-01T15:52:40Z</time>
      </trkpt>
      <trkpt lat="48.90822" lon="2.48576">
        <ele>53.4</ele>
        <time>2020-07-01T15:52:41Z</time>
      </trkpt>
      <trkpt lat="48.90822" lon="2.48567">
        <ele>53.4</ele>
        <time>2020-07-01T15:52:42Z</time>
      </trkpt>
      <trkpt lat="48.9082" lon="2.48559">
        <ele>53.4</ele>
        <time>2020-07-01T15:52:43Z</time>
      </trkpt>
      <trkpt lat="48.90818" lon="2.48552">
        <ele>53.4</ele>
        <time>2020-07-01T15:52:44Z</time>
      </trkpt>
      <trkpt lat="48.90817" lon="2.48544">
        <ele>53.4</ele>
        <time>2020-07-01T15:52:45Z</time>
      </trkpt>
      <trkpt lat="48.90816" lon="2.48535">
        <ele>53.4</ele>
        <time>2020-07-01T15:52:46Z</time>
      </trkpt>
      <trkpt lat="48.90814" lon="2.48528">
        <ele>53.4</ele>
        <time>2020-07-01T15:52:47Z</time>
      </trkpt>
      <trkpt lat="48.90812" lon="2.48521">
        <ele>53.5</ele>
        <time>2020-07-01T15:52:48Z</time>
      </trkpt>
      <trkpt lat="48.9081" lon="2.48513">
        <ele>53.5</ele>
        <time>2020-07-01T15:52:49Z</time>
      </trkpt>
      <trkpt lat="48.90808" lon="2.48504">
        <ele>53.5</ele>
        <time>2020-07-01T15:52:50Z</time>
      </trkpt>
      <trkpt lat="48.90805" lon="2.48494">
        <ele>53.5</ele>
        <time>2020-07-01T15:52:51Z</time>
      </trkpt>
      <trkpt lat="48.90801" lon="2.48485">
        <ele>53.5</ele>
        <time>2020-07-01T15:52:52Z</time>
      </trkpt>
      <trkpt lat="48.90799" lon="2.48476">
        <ele>53.5</ele>
        <time>2020-07-01T15:52:53Z</time>
      </trkpt>
      <trkpt lat="48.90796" lon="2.48468">
        <ele>53.5</ele>
        <time>2020-07-01T15:52:54Z</time>
      </trkpt>
      <trkpt lat="48.90795" lon="2.48459">
        <ele>53.5</ele>
        <time>2020-07-01T15:52:55Z</time>
      </trkpt>
      <trkpt lat="48.90793" lon="2.4845">
        <ele>53.5</ele>
        <time>2020-07-01T15:52:56Z</time>
      </trkpt>
      <trkpt lat="48.90793" lon="2.48443">
        <ele>53.5</ele>
        <time>2020-07-01T15:52:57Z</time>
      </trkpt>
      <trkpt lat="48.90792" lon="2.48434">
        <ele>53.5</ele>
        <time>2020-07-01T15:52:58Z</time>
      </trkpt>
      <trkpt lat="48.90791" lon="2.48425">
        <ele>53.5</ele>
        <time>2020-07-01T15:52:59Z</time>
      </trkpt>
      <trkpt lat="48.9079" lon="2.48416">
        <ele>53.5</ele>
        <time>2020-07-01T15:53:00Z</time>
      </trkpt>
      <trkpt lat="48.90788" lon="2.48406">
        <ele>53.5</ele>
        <time>2020-07-01T15:53:01Z</time>
      </trkpt>
      <trkpt lat="48.90786" lon="2.48397">
        <ele>53.5</ele>
        <time>2020-07-01T15:53:02Z</time>
      </trkpt>
      <trkpt lat="48.90784" lon="2.48388">
        <ele>53.5</ele>
        <time>2020-07-01T15:53:03Z</time>
      </trkpt>
      <trkpt lat="48.90783" lon="2.4838">
        <ele>53.5</ele>
        <time>2020-07-01T15:53:04Z</time>
      </trkpt>
      <trkpt lat="48.90781" lon="2.48371">
        <ele>53.5</ele>
        <time>2020-07-01T15:53:05Z</time>
      </trkpt>
      <trkpt lat="48.9078" lon="2.48363">
        <ele>53.5</ele>
        <time>2020-07-01T15:53:06Z</time>
      </trkpt>
      <trkpt lat="48.90778" lon="2.48354">
        <ele>53.5</ele>
        <time>2020-07-01T15:53:07Z</time>
      </trkpt>
      <trkpt lat="48.90776" lon="2.48345">
        <ele>53.5</ele>
        <time>2020-07-01T15:53:08Z</time>
      </trkpt>
      <trkpt lat="48.90774" lon="2.48336">
        <ele>53.5</ele>
        <time>2020-07-01T15:53:09Z</time>
      </trkpt>
      <trkpt lat="48.90772" lon="2.48328">
        <ele>53.5</ele>
        <time>2020-07-01T15:53:10Z</time>
      </trkpt>
      <trkpt lat="48.90771" lon="2.48319">
        <ele>53.4</ele>
        <time>2020-07-01T15:53:11Z</time>
      </trkpt>
      <trkpt lat="48.90769" lon="2.4831">
        <ele>53.4</ele>
        <time>2020-07-01T15:53:12Z</time>
      </trkpt>
      <trkpt lat="48.90767" lon="2.48301">
        <ele>53.4</ele>
        <time>2020-07-01T15:53:13Z</time>
      </trkpt>
      <trkpt lat="48.90765" lon="2.48292">
        <ele>53.4</ele>
        <time>2020-07-01T15:53:14Z</time>
      </trkpt>
      <trkpt lat="48.90763" lon="2.48284">
        <ele>53.4</ele>
        <time>2020-07-01T15:53:15Z</time>
      </trkpt>
      <trkpt lat="48.90762" lon="2.48276">
        <ele>53.5</ele>
        <time>2020-07-01T15:53:16Z</time>
      </trkpt>
      <trkpt lat="48.9076" lon="2.48266">
        <ele>53.5</ele>
        <time>2020-07-01T15:53:17Z</time>
      </trkpt>
      <trkpt lat="48.90759" lon="2.48258">
        <ele>53.5</ele>
        <time>2020-07-01T15:53:18Z</time>
      </trkpt>
      <trkpt lat="48.90758" lon="2.48248">
        <ele>53.5</ele>
        <time>2020-07-01T15:53:19Z</time>
      </trkpt>
      <trkpt lat="48.90757" lon="2.48239">
        <ele>53.5</ele>
        <time>2020-07-01T15:53:20Z</time>
      </trkpt>
      <trkpt lat="48.90755" lon="2.4823">
        <ele>53.5</ele>
        <time>2020-07-01T15:53:21Z</time>
      </trkpt>
      <trkpt lat="48.9075" lon="2.4822">
        <ele>53.5</ele>
        <time>2020-07-01T15:53:22Z</time>
      </trkpt>
      <trkpt lat="48.90748" lon="2.48212">
        <ele>53.5</ele>
        <time>2020-07-01T15:53:23Z</time>
      </trkpt>
      <trkpt lat="48.90746" lon="2.48203">
        <ele>53.5</ele>
        <time>2020-07-01T15:53:24Z</time>
      </trkpt>
      <trkpt lat="48.90745" lon="2.48194">
        <ele>53.5</ele>
        <time>2020-07-01T15:53:25Z</time>
      </trkpt>
      <trkpt lat="48.90743" lon="2.48185">
        <ele>53.5</ele>
        <time>2020-07-01T15:53:26Z</time>
      </trkpt>
      <trkpt lat="48.90742" lon="2.48175">
        <ele>53.5</ele>
        <time>2020-07-01T15:53:27Z</time>
      </trkpt>
      <trkpt lat="48.90736" lon="2.48167">
        <ele>53.5</ele>
        <time>2020-07-01T15:53:28Z</time>
      </trkpt>
      <trkpt lat="48.90734" lon="2.48159">
        <ele>53.5</ele>
        <time>2020-07-01T15:53:29Z</time>
      </trkpt>
      <trkpt lat="48.90732" lon="2.48151">
        <ele>53.5</ele>
        <time>2020-07-01T15:53:30Z</time>
      </trkpt>
      <trkpt lat="48.90729" lon="2.48143">
        <ele>53.5</ele>
        <time>2020-07-01T15:53:31Z</time>
      </trkpt>
      <trkpt lat="48.90726" lon="2.48132">
        <ele>53.5</ele>
        <time>2020-07-01T15:53:32Z</time>
      </trkpt>
      <trkpt lat="48.90725" lon="2.48123">
        <ele>53.5</ele>
        <time>2020-07-01T15:53:33Z</time>
      </trkpt>
      <trkpt lat="48.90721" lon="2.48114">
        <ele>53.4</ele>
        <time>2020-07-01T15:53:34Z</time>
      </trkpt>
      <trkpt lat="48.9072" lon="2.48106">
        <ele>53.4</ele>
        <time>2020-07-01T15:53:35Z</time>
      </trkpt>
      <trkpt lat="48.90718" lon="2.48098">
        <ele>53.4</ele>
        <time>2020-07-01T15:53:36Z</time>
      </trkpt>
      <trkpt lat="48.90717" lon="2.48091">
        <ele>53.4</ele>
        <time>2020-07-01T15:53:37Z</time>
      </trkpt>
      <trkpt lat="48.90717" lon="2.48084">
        <ele>53.4</ele>
        <time>2020-07-01T15:53:38Z</time>
      </trkpt>
      <trkpt lat="48.90716" lon="2.48077">
        <ele>53.4</ele>
        <time>2020-07-01T15:53:39Z</time>
      </trkpt>
      <trkpt lat="48.90715" lon="2.48068">
        <ele>53.5</ele>
        <time>2020-07-01T15:53:40Z</time>
      </trkpt>
      <trkpt lat="48.90714" lon="2.48062">
        <ele>53.6</ele>
        <time>2020-07-01T15:53:41Z</time>
      </trkpt>
      <trkpt lat="48.90713" lon="2.48055">
        <ele>53.5</ele>
        <time>2020-07-01T15:53:42Z</time>
      </trkpt>
      <trkpt lat="48.90713" lon="2.48049">
        <ele>53.5</ele>
        <time>2020-07-01T15:53:43Z</time>
      </trkpt>
      <trkpt lat="48.90712" lon="2.48041">
        <ele>53.5</ele>
        <time>2020-07-01T15:53:44Z</time>
      </trkpt>
      <trkpt lat="48.90711" lon="2.48032">
        <ele>53.5</ele>
        <time>2020-07-01T15:53:45Z</time>
      </trkpt>
      <trkpt lat="48.90711" lon="2.48022">
        <ele>53.5</ele>
        <time>2020-07-01T15:53:46Z</time>
      </trkpt>
      <trkpt lat="48.9071" lon="2.48012">
        <ele>53.5</ele>
        <time>2020-07-01T15:53:47Z</time>
      </trkpt>
      <trkpt lat="48.90709" lon="2.48002">
        <ele>53.5</ele>
        <time>2020-07-01T15:53:48Z</time>
      </trkpt>
      <trkpt lat="48.90706" lon="2.47993">
        <ele>53.5</ele>
        <time>2020-07-01T15:53:49Z</time>
      </trkpt>
      <trkpt lat="48.90705" lon="2.47983">
        <ele>53.5</ele>
        <time>2020-07-01T15:53:50Z</time>
      </trkpt>
      <trkpt lat="48.90703" lon="2.47975">
        <ele>53.5</ele>
        <time>2020-07-01T15:53:51Z</time>
      </trkpt>
      <trkpt lat="48.907" lon="2.47968">
        <ele>53.5</ele>
        <time>2020-07-01T15:53:52Z</time>
      </trkpt>
      <trkpt lat="48.90698" lon="2.47959">
        <ele>53.5</ele>
        <time>2020-07-01T15:53:53Z</time>
      </trkpt>
      <trkpt lat="48.90695" lon="2.4795">
        <ele>53.5</ele>
        <time>2020-07-01T15:53:54Z</time>
      </trkpt>
      <trkpt lat="48.90694" lon="2.47942">
        <ele>53.5</ele>
        <time>2020-07-01T15:53:55Z</time>
      </trkpt>
      <trkpt lat="48.90692" lon="2.47932">
        <ele>53.5</ele>
        <time>2020-07-01T15:53:56Z</time>
      </trkpt>
      <trkpt lat="48.90691" lon="2.47923">
        <ele>53.5</ele>
        <time>2020-07-01T15:53:57Z</time>
      </trkpt>
      <trkpt lat="48.9069" lon="2.47915">
        <ele>53.5</ele>
        <time>2020-07-01T15:53:58Z</time>
      </trkpt>
      <trkpt lat="48.90689" lon="2.47906">
        <ele>53.5</ele>
        <time>2020-07-01T15:53:59Z</time>
      </trkpt>
      <trkpt lat="48.90686" lon="2.47897">
        <ele>53.5</ele>
        <time>2020-07-01T15:54:00Z</time>
      </trkpt>
      <trkpt lat="48.90683" lon="2.47886">
        <ele>53.6</ele>
        <time>2020-07-01T15:54:01Z</time>
      </trkpt>
      <trkpt lat="48.9068" lon="2.47876">
        <ele>53.6</ele>
        <time>2020-07-01T15:54:02Z</time>
      </trkpt>
      <trkpt lat="48.90678" lon="2.47866">
        <ele>53.7</ele>
        <time>2020-07-01T15:54:03Z</time>
      </trkpt>
      <trkpt lat="48.90676" lon="2.47857">
        <ele>53.7</ele>
        <time>2020-07-01T15:54:04Z</time>
      </trkpt>
      <trkpt lat="48.90675" lon="2.47848">
        <ele>53.7</ele>
        <time>2020-07-01T15:54:05Z</time>
      </trkpt>
      <trkpt lat="48.90673" lon="2.47839">
        <ele>53.7</ele>
        <time>2020-07-01T15:54:06Z</time>
      </trkpt>
      <trkpt lat="48.90671" lon="2.4783">
        <ele>53.8</ele>
        <time>2020-07-01T15:54:07Z</time>
      </trkpt>
      <trkpt lat="48.90664" lon="2.47819">
        <ele>53.8</ele>
        <time>2020-07-01T15:54:08Z</time>
      </trkpt>
      <trkpt lat="48.90662" lon="2.47809">
        <ele>53.8</ele>
        <time>2020-07-01T15:54:09Z</time>
      </trkpt>
      <trkpt lat="48.9066" lon="2.47801">
        <ele>53.8</ele>
        <time>2020-07-01T15:54:10Z</time>
      </trkpt>
      <trkpt lat="48.90658" lon="2.47793">
        <ele>53.8</ele>
        <time>2020-07-01T15:54:11Z</time>
      </trkpt>
      <trkpt lat="48.90657" lon="2.47784">
        <ele>53.8</ele>
        <time>2020-07-01T15:54:12Z</time>
      </trkpt>
      <trkpt lat="48.90658" lon="2.47778">
        <ele>53.8</ele>
        <time>2020-07-01T15:54:13Z</time>
      </trkpt>
      <trkpt lat="48.90658" lon="2.4777">
        <ele>53.8</ele>
        <time>2020-07-01T15:54:14Z</time>
      </trkpt>
      <trkpt lat="48.90657" lon="2.4776">
        <ele>53.8</ele>
        <time>2020-07-01T15:54:15Z</time>
      </trkpt>
      <trkpt lat="48.90655" lon="2.4775">
        <ele>53.8</ele>
        <time>2020-07-01T15:54:16Z</time>
      </trkpt>
      <trkpt lat="48.90653" lon="2.47741">
        <ele>53.8</ele>
        <time>2020-07-01T15:54:17Z</time>
      </trkpt>
      <trkpt lat="48.90651" lon="2.47731">
        <ele>53.8</ele>
        <time>2020-07-01T15:54:18Z</time>
      </trkpt>
      <trkpt lat="48.90648" lon="2.47722">
        <ele>53.8</ele>
        <time>2020-07-01T15:54:19Z</time>
      </trkpt>
      <trkpt lat="48.90646" lon="2.47713">
        <ele>53.8</ele>
        <time>2020-07-01T15:54:20Z</time>
      </trkpt>
      <trkpt lat="48.90644" lon="2.47703">
        <ele>53.8</ele>
        <time>2020-07-01T15:54:21Z</time>
      </trkpt>
      <trkpt lat="48.90642" lon="2.47695">
        <ele>53.8</ele>
        <time>2020-07-01T15:54:22Z</time>
      </trkpt>
      <trkpt lat="48.90641" lon="2.47686">
        <ele>53.8</ele>
        <time>2020-07-01T15:54:23Z</time>
      </trkpt>
      <trkpt lat="48.90639" lon="2.47676">
        <ele>53.8</ele>
        <time>2020-07-01T15:54:24Z</time>
      </trkpt>
      <trkpt lat="48.90637" lon="2.47667">
        <ele>53.8</ele>
        <time>2020-07-01T15:54:25Z</time>
      </trkpt>
      <trkpt lat="48.90635" lon="2.47656">
        <ele>53.9</ele>
        <time>2020-07-01T15:54:26Z</time>
      </trkpt>
      <trkpt lat="48.90633" lon="2.47646">
        <ele>53.9</ele>
        <time>2020-07-01T15:54:27Z</time>
      </trkpt>
      <trkpt lat="48.90631" lon="2.47636">
        <ele>53.9</ele>
        <time>2020-07-01T15:54:28Z</time>
      </trkpt>
      <trkpt lat="48.90627" lon="2.47624">
        <ele>53.9</ele>
        <time>2020-07-01T15:54:29Z</time>
      </trkpt>
      <trkpt lat="48.90625" lon="2.47615">
        <ele>53.9</ele>
        <time>2020-07-01T15:54:30Z</time>
      </trkpt>
      <trkpt lat="48.90624" lon="2.47608">
        <ele>53.9</ele>
        <time>2020-07-01T15:54:31Z</time>
      </trkpt>
      <trkpt lat="48.90622" lon="2.47599">
        <ele>53.9</ele>
        <time>2020-07-01T15:54:32Z</time>
      </trkpt>
      <trkpt lat="48.9062" lon="2.4759">
        <ele>54</ele>
        <time>2020-07-01T15:54:33Z</time>
      </trkpt>
      <trkpt lat="48.90619" lon="2.47581">
        <ele>54</ele>
        <time>2020-07-01T15:54:34Z</time>
      </trkpt>
      <trkpt lat="48.90617" lon="2.47572">
        <ele>54</ele>
        <time>2020-07-01T15:54:35Z</time>
      </trkpt>
      <trkpt lat="48.90614" lon="2.47561">
        <ele>54.1</ele>
        <time>2020-07-01T15:54:36Z</time>
      </trkpt>
      <trkpt lat="48.90612" lon="2.47553">
        <ele>54.1</ele>
        <time>2020-07-01T15:54:37Z</time>
      </trkpt>
      <trkpt lat="48.9061" lon="2.47545">
        <ele>54.1</ele>
        <time>2020-07-01T15:54:38Z</time>
      </trkpt>
      <trkpt lat="48.90609" lon="2.47538">
        <ele>54.2</ele>
        <time>2020-07-01T15:54:39Z</time>
      </trkpt>
      <trkpt lat="48.90608" lon="2.4753">
        <ele>54.2</ele>
        <time>2020-07-01T15:54:40Z</time>
      </trkpt>
      <trkpt lat="48.90605" lon="2.47519">
        <ele>54.2</ele>
        <time>2020-07-01T15:54:41Z</time>
      </trkpt>
      <trkpt lat="48.90603" lon="2.4751">
        <ele>54.2</ele>
        <time>2020-07-01T15:54:42Z</time>
      </trkpt>
      <trkpt lat="48.90601" lon="2.47501">
        <ele>54.3</ele>
        <time>2020-07-01T15:54:43Z</time>
      </trkpt>
      <trkpt lat="48.90599" lon="2.47494">
        <ele>54.4</ele>
        <time>2020-07-01T15:54:44Z</time>
      </trkpt>
      <trkpt lat="48.90596" lon="2.47487">
        <ele>54.5</ele>
        <time>2020-07-01T15:54:45Z</time>
      </trkpt>
      <trkpt lat="48.90594" lon="2.4748">
        <ele>54.7</ele>
        <time>2020-07-01T15:54:46Z</time>
      </trkpt>
      <trkpt lat="48.90591" lon="2.47471">
        <ele>54.9</ele>
        <time>2020-07-01T15:54:47Z</time>
      </trkpt>
      <trkpt lat="48.90589" lon="2.47463">
        <ele>55.2</ele>
        <time>2020-07-01T15:54:48Z</time>
      </trkpt>
      <trkpt lat="48.90586" lon="2.47454">
        <ele>55.5</ele>
        <time>2020-07-01T15:54:49Z</time>
      </trkpt>
      <trkpt lat="48.90585" lon="2.47445">
        <ele>55.9</ele>
        <time>2020-07-01T15:54:50Z</time>
      </trkpt>
      <trkpt lat="48.90584" lon="2.47438">
        <ele>56.2</ele>
        <time>2020-07-01T15:54:51Z</time>
      </trkpt>
      <trkpt lat="48.90582" lon="2.47432">
        <ele>56.4</ele>
        <time>2020-07-01T15:54:52Z</time>
      </trkpt>
      <trkpt lat="48.9058" lon="2.47427">
        <ele>56.7</ele>
        <time>2020-07-01T15:54:53Z</time>
      </trkpt>
      <trkpt lat="48.90579" lon="2.47422">
        <ele>56.9</ele>
        <time>2020-07-01T15:54:54Z</time>
      </trkpt>
      <trkpt lat="48.90577" lon="2.47419">
        <ele>57.1</ele>
        <time>2020-07-01T15:54:55Z</time>
      </trkpt>
      <trkpt lat="48.90577" lon="2.47415">
        <ele>57.3</ele>
        <time>2020-07-01T15:54:56Z</time>
      </trkpt>
      <trkpt lat="48.90578" lon="2.47411">
        <ele>57.5</ele>
        <time>2020-07-01T15:54:57Z</time>
      </trkpt>
      <trkpt lat="48.90578" lon="2.47409">
        <ele>57.6</ele>
        <time>2020-07-01T15:54:58Z</time>
      </trkpt>
      <trkpt lat="48.9058" lon="2.47404">
        <ele>57.9</ele>
        <time>2020-07-01T15:54:59Z</time>
      </trkpt>
      <trkpt lat="48.90581" lon="2.47402">
        <ele>57.9</ele>
        <time>2020-07-01T15:55:00Z</time>
      </trkpt>
      <trkpt lat="48.90584" lon="2.47398">
        <ele>58</ele>
        <time>2020-07-01T15:55:01Z</time>
      </trkpt>
      <trkpt lat="48.90585" lon="2.47396">
        <ele>58.1</ele>
        <time>2020-07-01T15:55:02Z</time>
      </trkpt>
      <trkpt lat="48.90588" lon="2.47393">
        <ele>58.1</ele>
        <time>2020-07-01T15:55:03Z</time>
      </trkpt>
      <trkpt lat="48.9059" lon="2.4739">
        <ele>58.1</ele>
        <time>2020-07-01T15:55:04Z</time>
      </trkpt>
      <trkpt lat="48.90593" lon="2.47388">
        <ele>58.1</ele>
        <time>2020-07-01T15:55:05Z</time>
      </trkpt>
      <trkpt lat="48.90597" lon="2.47385">
        <ele>58.1</ele>
        <time>2020-07-01T15:55:06Z</time>
      </trkpt>
      <trkpt lat="48.90599" lon="2.47383">
        <ele>58.1</ele>
        <time>2020-07-01T15:55:07Z</time>
      </trkpt>
      <trkpt lat="48.90601" lon="2.4738">
        <ele>58.1</ele>
        <time>2020-07-01T15:55:08Z</time>
      </trkpt>
      <trkpt lat="48.90604" lon="2.47376">
        <ele>58</ele>
        <time>2020-07-01T15:55:09Z</time>
      </trkpt>
      <trkpt lat="48.90605" lon="2.47372">
        <ele>57.7</ele>
        <time>2020-07-01T15:55:10Z</time>
      </trkpt>
      <trkpt lat="48.90606" lon="2.4737">
        <ele>57.6</ele>
        <time>2020-07-01T15:55:11Z</time>
      </trkpt>
      <trkpt lat="48.90606" lon="2.47365">
        <ele>57.4</ele>
        <time>2020-07-01T15:55:12Z</time>
      </trkpt>
      <trkpt lat="48.90604" lon="2.47358">
        <ele>57.1</ele>
        <time>2020-07-01T15:55:13Z</time>
      </trkpt>
      <trkpt lat="48.90602" lon="2.4735">
        <ele>56.7</ele>
        <time>2020-07-01T15:55:14Z</time>
      </trkpt>
      <trkpt lat="48.906" lon="2.47342">
        <ele>56.3</ele>
        <time>2020-07-01T15:55:15Z</time>
      </trkpt>
      <trkpt lat="48.90599" lon="2.47335">
        <ele>56</ele>
        <time>2020-07-01T15:55:16Z</time>
      </trkpt>
      <trkpt lat="48.90597" lon="2.47326">
        <ele>55.6</ele>
        <time>2020-07-01T15:55:17Z</time>
      </trkpt>
      <trkpt lat="48.90595" lon="2.47316">
        <ele>55.2</ele>
        <time>2020-07-01T15:55:18Z</time>
      </trkpt>
      <trkpt lat="48.90594" lon="2.47305">
        <ele>54.8</ele>
        <time>2020-07-01T15:55:19Z</time>
      </trkpt>
      <trkpt lat="48.90592" lon="2.47296">
        <ele>54.5</ele>
        <time>2020-07-01T15:55:20Z</time>
      </trkpt>
      <trkpt lat="48.9059" lon="2.47287">
        <ele>54.4</ele>
        <time>2020-07-01T15:55:21Z</time>
      </trkpt>
      <trkpt lat="48.90588" lon="2.47279">
        <ele>54.2</ele>
        <time>2020-07-01T15:55:22Z</time>
      </trkpt>
      <trkpt lat="48.90585" lon="2.4727">
        <ele>54.1</ele>
        <time>2020-07-01T15:55:23Z</time>
      </trkpt>
      <trkpt lat="48.90582" lon="2.47258">
        <ele>54</ele>
        <time>2020-07-01T15:55:24Z</time>
      </trkpt>
      <trkpt lat="48.90579" lon="2.47248">
        <ele>53.9</ele>
        <time>2020-07-01T15:55:25Z</time>
      </trkpt>
      <trkpt lat="48.90577" lon="2.47237">
        <ele>53.8</ele>
        <time>2020-07-01T15:55:26Z</time>
      </trkpt>
      <trkpt lat="48.90575" lon="2.47228">
        <ele>53.8</ele>
        <time>2020-07-01T15:55:27Z</time>
      </trkpt>
      <trkpt lat="48.90572" lon="2.47217">
        <ele>53.8</ele>
        <time>2020-07-01T15:55:28Z</time>
      </trkpt>
      <trkpt lat="48.90571" lon="2.47207">
        <ele>53.7</ele>
        <time>2020-07-01T15:55:29Z</time>
      </trkpt>
      <trkpt lat="48.90569" lon="2.47198">
        <ele>53.7</ele>
        <time>2020-07-01T15:55:30Z</time>
      </trkpt>
      <trkpt lat="48.90568" lon="2.4719">
        <ele>53.7</ele>
        <time>2020-07-01T15:55:31Z</time>
      </trkpt>
      <trkpt lat="48.90567" lon="2.47181">
        <ele>53.7</ele>
        <time>2020-07-01T15:55:32Z</time>
      </trkpt>
      <trkpt lat="48.90565" lon="2.47172">
        <ele>53.7</ele>
        <time>2020-07-01T15:55:33Z</time>
      </trkpt>
      <trkpt lat="48.90563" lon="2.47163">
        <ele>53.7</ele>
        <time>2020-07-01T15:55:34Z</time>
      </trkpt>
      <trkpt lat="48.90562" lon="2.47153">
        <ele>53.7</ele>
        <time>2020-07-01T15:55:35Z</time>
      </trkpt>
      <trkpt lat="48.9056" lon="2.47143">
        <ele>53.7</ele>
        <time>2020-07-01T15:55:36Z</time>
      </trkpt>
      <trkpt lat="48.90557" lon="2.47133">
        <ele>53.7</ele>
        <time>2020-07-01T15:55:37Z</time>
      </trkpt>
      <trkpt lat="48.90554" lon="2.47125">
        <ele>53.7</ele>
        <time>2020-07-01T15:55:38Z</time>
      </trkpt>
      <trkpt lat="48.90551" lon="2.47116">
        <ele>53.6</ele>
        <time>2020-07-01T15:55:39Z</time>
      </trkpt>
      <trkpt lat="48.90549" lon="2.47107">
        <ele>53.6</ele>
        <time>2020-07-01T15:55:40Z</time>
      </trkpt>
      <trkpt lat="48.90548" lon="2.47097">
        <ele>53.6</ele>
        <time>2020-07-01T15:55:41Z</time>
      </trkpt>
      <trkpt lat="48.90546" lon="2.47088">
        <ele>53.5</ele>
        <time>2020-07-01T15:55:42Z</time>
      </trkpt>
      <trkpt lat="48.90544" lon="2.47078">
        <ele>53.5</ele>
        <time>2020-07-01T15:55:43Z</time>
      </trkpt>
      <trkpt lat="48.90542" lon="2.47069">
        <ele>53.5</ele>
        <time>2020-07-01T15:55:44Z</time>
      </trkpt>
      <trkpt lat="48.9054" lon="2.4706">
        <ele>53.5</ele>
        <time>2020-07-01T15:55:45Z</time>
      </trkpt>
      <trkpt lat="48.90538" lon="2.47051">
        <ele>53.5</ele>
        <time>2020-07-01T15:55:46Z</time>
      </trkpt>
      <trkpt lat="48.90537" lon="2.47043">
        <ele>53.5</ele>
        <time>2020-07-01T15:55:47Z</time>
      </trkpt>
      <trkpt lat="48.90535" lon="2.47034">
        <ele>53.4</ele>
        <time>2020-07-01T15:55:48Z</time>
      </trkpt>
      <trkpt lat="48.90534" lon="2.47027">
        <ele>53.4</ele>
        <time>2020-07-01T15:55:49Z</time>
      </trkpt>
      <trkpt lat="48.90532" lon="2.47014">
        <ele>53.4</ele>
        <time>2020-07-01T15:55:50Z</time>
      </trkpt>
      <trkpt lat="48.90532" lon="2.4701">
        <ele>53.4</ele>
        <time>2020-07-01T15:55:51Z</time>
      </trkpt>
      <trkpt lat="48.90529" lon="2.47">
        <ele>53.4</ele>
        <time>2020-07-01T15:55:52Z</time>
      </trkpt>
      <trkpt lat="48.90528" lon="2.46994">
        <ele>53.4</ele>
        <time>2020-07-01T15:55:53Z</time>
      </trkpt>
      <trkpt lat="48.90526" lon="2.46987">
        <ele>53.4</ele>
        <time>2020-07-01T15:55:54Z</time>
      </trkpt>
      <trkpt lat="48.90523" lon="2.46981">
        <ele>53.4</ele>
        <time>2020-07-01T15:55:55Z</time>
      </trkpt>
      <trkpt lat="48.9052" lon="2.46972">
        <ele>53.4</ele>
        <time>2020-07-01T15:55:56Z</time>
      </trkpt>
      <trkpt lat="48.90519" lon="2.46962">
        <ele>53.4</ele>
        <time>2020-07-01T15:55:57Z</time>
      </trkpt>
      <trkpt lat="48.90518" lon="2.46951">
        <ele>53.4</ele>
        <time>2020-07-01T15:55:58Z</time>
      </trkpt>
      <trkpt lat="48.90519" lon="2.46941">
        <ele>53.4</ele>
        <time>2020-07-01T15:55:59Z</time>
      </trkpt>
      <trkpt lat="48.90518" lon="2.46931">
        <ele>53.4</ele>
        <time>2020-07-01T15:56:00Z</time>
      </trkpt>
      <trkpt lat="48.90517" lon="2.46923">
        <ele>53.4</ele>
        <time>2020-07-01T15:56:01Z</time>
      </trkpt>
      <trkpt lat="48.90516" lon="2.46915">
        <ele>53.4</ele>
        <time>2020-07-01T15:56:02Z</time>
      </trkpt>
      <trkpt lat="48.90515" lon="2.46907">
        <ele>53.5</ele>
        <time>2020-07-01T15:56:03Z</time>
      </trkpt>
      <trkpt lat="48.90513" lon="2.46899">
        <ele>53.5</ele>
        <time>2020-07-01T15:56:04Z</time>
      </trkpt>
      <trkpt lat="48.90511" lon="2.46891">
        <ele>53.5</ele>
        <time>2020-07-01T15:56:05Z</time>
      </trkpt>
      <trkpt lat="48.9051" lon="2.46883">
        <ele>53.5</ele>
        <time>2020-07-01T15:56:06Z</time>
      </trkpt>
      <trkpt lat="48.90506" lon="2.46874">
        <ele>53.5</ele>
        <time>2020-07-01T15:56:07Z</time>
      </trkpt>
      <trkpt lat="48.90503" lon="2.46864">
        <ele>53.5</ele>
        <time>2020-07-01T15:56:08Z</time>
      </trkpt>
      <trkpt lat="48.90501" lon="2.46854">
        <ele>53.5</ele>
        <time>2020-07-01T15:56:09Z</time>
      </trkpt>
      <trkpt lat="48.90499" lon="2.46845">
        <ele>53.5</ele>
        <time>2020-07-01T15:56:10Z</time>
      </trkpt>
      <trkpt lat="48.90497" lon="2.46836">
        <ele>53.5</ele>
        <time>2020-07-01T15:56:11Z</time>
      </trkpt>
      <trkpt lat="48.90497" lon="2.46828">
        <ele>53.5</ele>
        <time>2020-07-01T15:56:12Z</time>
      </trkpt>
      <trkpt lat="48.90495" lon="2.4682">
        <ele>53.5</ele>
        <time>2020-07-01T15:56:13Z</time>
      </trkpt>
      <trkpt lat="48.90493" lon="2.46812">
        <ele>53.5</ele>
        <time>2020-07-01T15:56:14Z</time>
      </trkpt>
      <trkpt lat="48.90491" lon="2.46802">
        <ele>53.5</ele>
        <time>2020-07-01T15:56:15Z</time>
      </trkpt>
      <trkpt lat="48.9049" lon="2.46794">
        <ele>53.6</ele>
        <time>2020-07-01T15:56:16Z</time>
      </trkpt>
      <trkpt lat="48.90488" lon="2.46785">
        <ele>53.6</ele>
        <time>2020-07-01T15:56:17Z</time>
      </trkpt>
      <trkpt lat="48.90486" lon="2.46776">
        <ele>53.6</ele>
        <time>2020-07-01T15:56:18Z</time>
      </trkpt>
      <trkpt lat="48.90483" lon="2.46766">
        <ele>53.6</ele>
        <time>2020-07-01T15:56:19Z</time>
      </trkpt>
      <trkpt lat="48.90482" lon="2.46757">
        <ele>53.6</ele>
        <time>2020-07-01T15:56:20Z</time>
      </trkpt>
      <trkpt lat="48.9048" lon="2.46749">
        <ele>53.6</ele>
        <time>2020-07-01T15:56:21Z</time>
      </trkpt>
      <trkpt lat="48.90479" lon="2.46739">
        <ele>53.6</ele>
        <time>2020-07-01T15:56:22Z</time>
      </trkpt>
      <trkpt lat="48.90478" lon="2.46731">
        <ele>53.7</ele>
        <time>2020-07-01T15:56:23Z</time>
      </trkpt>
      <trkpt lat="48.90476" lon="2.46722">
        <ele>53.7</ele>
        <time>2020-07-01T15:56:24Z</time>
      </trkpt>
      <trkpt lat="48.90475" lon="2.46712">
        <ele>53.7</ele>
        <time>2020-07-01T15:56:25Z</time>
      </trkpt>
      <trkpt lat="48.90472" lon="2.46702">
        <ele>53.7</ele>
        <time>2020-07-01T15:56:26Z</time>
      </trkpt>
      <trkpt lat="48.90471" lon="2.46693">
        <ele>53.8</ele>
        <time>2020-07-01T15:56:27Z</time>
      </trkpt>
      <trkpt lat="48.9047" lon="2.46685">
        <ele>53.8</ele>
        <time>2020-07-01T15:56:28Z</time>
      </trkpt>
      <trkpt lat="48.90468" lon="2.46676">
        <ele>53.8</ele>
        <time>2020-07-01T15:56:29Z</time>
      </trkpt>
      <trkpt lat="48.90467" lon="2.46668">
        <ele>53.8</ele>
        <time>2020-07-01T15:56:30Z</time>
      </trkpt>
      <trkpt lat="48.90465" lon="2.4666">
        <ele>53.8</ele>
        <time>2020-07-01T15:56:31Z</time>
      </trkpt>
      <trkpt lat="48.90464" lon="2.46651">
        <ele>53.8</ele>
        <time>2020-07-01T15:56:32Z</time>
      </trkpt>
      <trkpt lat="48.90461" lon="2.46641">
        <ele>53.8</ele>
        <time>2020-07-01T15:56:33Z</time>
      </trkpt>
      <trkpt lat="48.9046" lon="2.46632">
        <ele>53.9</ele>
        <time>2020-07-01T15:56:34Z</time>
      </trkpt>
      <trkpt lat="48.90458" lon="2.46623">
        <ele>53.9</ele>
        <time>2020-07-01T15:56:35Z</time>
      </trkpt>
      <trkpt lat="48.90456" lon="2.46612">
        <ele>53.9</ele>
        <time>2020-07-01T15:56:36Z</time>
      </trkpt>
      <trkpt lat="48.90454" lon="2.46603">
        <ele>53.9</ele>
        <time>2020-07-01T15:56:37Z</time>
      </trkpt>
      <trkpt lat="48.90452" lon="2.46594">
        <ele>53.9</ele>
        <time>2020-07-01T15:56:38Z</time>
      </trkpt>
      <trkpt lat="48.90449" lon="2.46588">
        <ele>53.9</ele>
        <time>2020-07-01T15:56:39Z</time>
      </trkpt>
      <trkpt lat="48.90448" lon="2.46581">
        <ele>53.9</ele>
        <time>2020-07-01T15:56:40Z</time>
      </trkpt>
      <trkpt lat="48.90447" lon="2.46575">
        <ele>54</ele>
        <time>2020-07-01T15:56:41Z</time>
      </trkpt>
      <trkpt lat="48.90447" lon="2.4657">
        <ele>54</ele>
        <time>2020-07-01T15:56:42Z</time>
      </trkpt>
      <trkpt lat="48.90445" lon="2.46563">
        <ele>54</ele>
        <time>2020-07-01T15:56:43Z</time>
      </trkpt>
      <trkpt lat="48.90443" lon="2.46554">
        <ele>54.1</ele>
        <time>2020-07-01T15:56:44Z</time>
      </trkpt>
      <trkpt lat="48.9044" lon="2.46546">
        <ele>54.1</ele>
        <time>2020-07-01T15:56:45Z</time>
      </trkpt>
      <trkpt lat="48.90436" lon="2.46538">
        <ele>54.1</ele>
        <time>2020-07-01T15:56:46Z</time>
      </trkpt>
      <trkpt lat="48.90433" lon="2.46529">
        <ele>54</ele>
        <time>2020-07-01T15:56:47Z</time>
      </trkpt>
      <trkpt lat="48.90431" lon="2.46518">
        <ele>53.9</ele>
        <time>2020-07-01T15:56:48Z</time>
      </trkpt>
      <trkpt lat="48.90429" lon="2.46505">
        <ele>53.8</ele>
        <time>2020-07-01T15:56:49Z</time>
      </trkpt>
      <trkpt lat="48.90426" lon="2.46495">
        <ele>53.8</ele>
        <time>2020-07-01T15:56:50Z</time>
      </trkpt>
      <trkpt lat="48.90425" lon="2.46485">
        <ele>53.8</ele>
        <time>2020-07-01T15:56:51Z</time>
      </trkpt>
      <trkpt lat="48.90425" lon="2.46479">
        <ele>53.8</ele>
        <time>2020-07-01T15:56:52Z</time>
      </trkpt>
      <trkpt lat="48.90426" lon="2.46473">
        <ele>53.9</ele>
        <time>2020-07-01T15:56:53Z</time>
      </trkpt>
      <trkpt lat="48.90424" lon="2.46463">
        <ele>53.9</ele>
        <time>2020-07-01T15:56:54Z</time>
      </trkpt>
      <trkpt lat="48.90422" lon="2.46453">
        <ele>54</ele>
        <time>2020-07-01T15:56:55Z</time>
      </trkpt>
      <trkpt lat="48.9042" lon="2.46445">
        <ele>54</ele>
        <time>2020-07-01T15:56:56Z</time>
      </trkpt>
      <trkpt lat="48.90419" lon="2.46438">
        <ele>54.1</ele>
        <time>2020-07-01T15:56:57Z</time>
      </trkpt>
      <trkpt lat="48.90417" lon="2.46429">
        <ele>54.1</ele>
        <time>2020-07-01T15:56:58Z</time>
      </trkpt>
      <trkpt lat="48.90416" lon="2.4642">
        <ele>54.1</ele>
        <time>2020-07-01T15:56:59Z</time>
      </trkpt>
      <trkpt lat="48.90415" lon="2.4641">
        <ele>54.1</ele>
        <time>2020-07-01T15:57:00Z</time>
      </trkpt>
      <trkpt lat="48.90413" lon="2.464">
        <ele>54.1</ele>
        <time>2020-07-01T15:57:01Z</time>
      </trkpt>
      <trkpt lat="48.90412" lon="2.4639">
        <ele>54.1</ele>
        <time>2020-07-01T15:57:02Z</time>
      </trkpt>
      <trkpt lat="48.9041" lon="2.46381">
        <ele>54.1</ele>
        <time>2020-07-01T15:57:03Z</time>
      </trkpt>
      <trkpt lat="48.90407" lon="2.46371">
        <ele>54.1</ele>
        <time>2020-07-01T15:57:04Z</time>
      </trkpt>
      <trkpt lat="48.90406" lon="2.46365">
        <ele>54.1</ele>
        <time>2020-07-01T15:57:05Z</time>
      </trkpt>
      <trkpt lat="48.90404" lon="2.46356">
        <ele>54.1</ele>
        <time>2020-07-01T15:57:06Z</time>
      </trkpt>
      <trkpt lat="48.90402" lon="2.46348">
        <ele>54.2</ele>
        <time>2020-07-01T15:57:07Z</time>
      </trkpt>
      <trkpt lat="48.90399" lon="2.46339">
        <ele>54.2</ele>
        <time>2020-07-01T15:57:08Z</time>
      </trkpt>
      <trkpt lat="48.90397" lon="2.4633">
        <ele>54.2</ele>
        <time>2020-07-01T15:57:09Z</time>
      </trkpt>
      <trkpt lat="48.90395" lon="2.46321">
        <ele>54.2</ele>
        <time>2020-07-01T15:57:10Z</time>
      </trkpt>
      <trkpt lat="48.90393" lon="2.46311">
        <ele>54.2</ele>
        <time>2020-07-01T15:57:11Z</time>
      </trkpt>
      <trkpt lat="48.90391" lon="2.46302">
        <ele>54.2</ele>
        <time>2020-07-01T15:57:12Z</time>
      </trkpt>
      <trkpt lat="48.9039" lon="2.46292">
        <ele>54.2</ele>
        <time>2020-07-01T15:57:13Z</time>
      </trkpt>
      <trkpt lat="48.90388" lon="2.46284">
        <ele>54.2</ele>
        <time>2020-07-01T15:57:14Z</time>
      </trkpt>
      <trkpt lat="48.90386" lon="2.46275">
        <ele>54.2</ele>
        <time>2020-07-01T15:57:15Z</time>
      </trkpt>
      <trkpt lat="48.90384" lon="2.46266">
        <ele>54.2</ele>
        <time>2020-07-01T15:57:16Z</time>
      </trkpt>
      <trkpt lat="48.90382" lon="2.46257">
        <ele>54.1</ele>
        <time>2020-07-01T15:57:17Z</time>
      </trkpt>
      <trkpt lat="48.9038" lon="2.46248">
        <ele>54.1</ele>
        <time>2020-07-01T15:57:18Z</time>
      </trkpt>
      <trkpt lat="48.90378" lon="2.46237">
        <ele>54.1</ele>
        <time>2020-07-01T15:57:19Z</time>
      </trkpt>
      <trkpt lat="48.90376" lon="2.46226">
        <ele>54.1</ele>
        <time>2020-07-01T15:57:20Z</time>
      </trkpt>
      <trkpt lat="48.90374" lon="2.46217">
        <ele>54.1</ele>
        <time>2020-07-01T15:57:21Z</time>
      </trkpt>
      <trkpt lat="48.90372" lon="2.46208">
        <ele>54.1</ele>
        <time>2020-07-01T15:57:22Z</time>
      </trkpt>
      <trkpt lat="48.90369" lon="2.46199">
        <ele>54.1</ele>
        <time>2020-07-01T15:57:23Z</time>
      </trkpt>
      <trkpt lat="48.90367" lon="2.46189">
        <ele>54.1</ele>
        <time>2020-07-01T15:57:24Z</time>
      </trkpt>
      <trkpt lat="48.90365" lon="2.46179">
        <ele>54.1</ele>
        <time>2020-07-01T15:57:25Z</time>
      </trkpt>
      <trkpt lat="48.90362" lon="2.46171">
        <ele>54.2</ele>
        <time>2020-07-01T15:57:26Z</time>
      </trkpt>
      <trkpt lat="48.9036" lon="2.46163">
        <ele>54.2</ele>
        <time>2020-07-01T15:57:27Z</time>
      </trkpt>
      <trkpt lat="48.90357" lon="2.46154">
        <ele>54.1</ele>
        <time>2020-07-01T15:57:28Z</time>
      </trkpt>
      <trkpt lat="48.90355" lon="2.46145">
        <ele>54.1</ele>
        <time>2020-07-01T15:57:29Z</time>
      </trkpt>
      <trkpt lat="48.90353" lon="2.46137">
        <ele>54.1</ele>
        <time>2020-07-01T15:57:30Z</time>
      </trkpt>
      <trkpt lat="48.90351" lon="2.46127">
        <ele>54.1</ele>
        <time>2020-07-01T15:57:31Z</time>
      </trkpt>
      <trkpt lat="48.90348" lon="2.46117">
        <ele>54.1</ele>
        <time>2020-07-01T15:57:32Z</time>
      </trkpt>
      <trkpt lat="48.90347" lon="2.46108">
        <ele>54.1</ele>
        <time>2020-07-01T15:57:33Z</time>
      </trkpt>
      <trkpt lat="48.90344" lon="2.46097">
        <ele>54</ele>
        <time>2020-07-01T15:57:34Z</time>
      </trkpt>
      <trkpt lat="48.90343" lon="2.46087">
        <ele>54</ele>
        <time>2020-07-01T15:57:35Z</time>
      </trkpt>
      <trkpt lat="48.90342" lon="2.46079">
        <ele>54</ele>
        <time>2020-07-01T15:57:36Z</time>
      </trkpt>
      <trkpt lat="48.9034" lon="2.46069">
        <ele>54.1</ele>
        <time>2020-07-01T15:57:37Z</time>
      </trkpt>
      <trkpt lat="48.90339" lon="2.46061">
        <ele>54.1</ele>
        <time>2020-07-01T15:57:38Z</time>
      </trkpt>
      <trkpt lat="48.90337" lon="2.46052">
        <ele>54.1</ele>
        <time>2020-07-01T15:57:39Z</time>
      </trkpt>
      <trkpt lat="48.90335" lon="2.46043">
        <ele>54.1</ele>
        <time>2020-07-01T15:57:40Z</time>
      </trkpt>
      <trkpt lat="48.90335" lon="2.46035">
        <ele>54.1</ele>
        <time>2020-07-01T15:57:41Z</time>
      </trkpt>
      <trkpt lat="48.90333" lon="2.46026">
        <ele>54.1</ele>
        <time>2020-07-01T15:57:42Z</time>
      </trkpt>
      <trkpt lat="48.90331" lon="2.46016">
        <ele>54.1</ele>
        <time>2020-07-01T15:57:43Z</time>
      </trkpt>
      <trkpt lat="48.90329" lon="2.46007">
        <ele>54.1</ele>
        <time>2020-07-01T15:57:44Z</time>
      </trkpt>
      <trkpt lat="48.90328" lon="2.45997">
        <ele>54.1</ele>
        <time>2020-07-01T15:57:45Z</time>
      </trkpt>
      <trkpt lat="48.90326" lon="2.45987">
        <ele>54</ele>
        <time>2020-07-01T15:57:46Z</time>
      </trkpt>
      <trkpt lat="48.90324" lon="2.45978">
        <ele>54</ele>
        <time>2020-07-01T15:57:47Z</time>
      </trkpt>
      <trkpt lat="48.90322" lon="2.45969">
        <ele>54</ele>
        <time>2020-07-01T15:57:48Z</time>
      </trkpt>
      <trkpt lat="48.9032" lon="2.45959">
        <ele>54</ele>
        <time>2020-07-01T15:57:49Z</time>
      </trkpt>
      <trkpt lat="48.90318" lon="2.4595">
        <ele>54</ele>
        <time>2020-07-01T15:57:50Z</time>
      </trkpt>
      <trkpt lat="48.90316" lon="2.4594">
        <ele>54.1</ele>
        <time>2020-07-01T15:57:51Z</time>
      </trkpt>
      <trkpt lat="48.90314" lon="2.45931">
        <ele>54.1</ele>
        <time>2020-07-01T15:57:52Z</time>
      </trkpt>
      <trkpt lat="48.90312" lon="2.45921">
        <ele>54.1</ele>
        <time>2020-07-01T15:57:53Z</time>
      </trkpt>
      <trkpt lat="48.90311" lon="2.45914">
        <ele>54.1</ele>
        <time>2020-07-01T15:57:54Z</time>
      </trkpt>
      <trkpt lat="48.9031" lon="2.45906">
        <ele>54.1</ele>
        <time>2020-07-01T15:57:55Z</time>
      </trkpt>
      <trkpt lat="48.90308" lon="2.45897">
        <ele>54.1</ele>
        <time>2020-07-01T15:57:56Z</time>
      </trkpt>
      <trkpt lat="48.90307" lon="2.45889">
        <ele>54.1</ele>
        <time>2020-07-01T15:57:57Z</time>
      </trkpt>
      <trkpt lat="48.90305" lon="2.4588">
        <ele>54.1</ele>
        <time>2020-07-01T15:57:58Z</time>
      </trkpt>
      <trkpt lat="48.90303" lon="2.45871">
        <ele>54.1</ele>
        <time>2020-07-01T15:57:59Z</time>
      </trkpt>
      <trkpt lat="48.90301" lon="2.45862">
        <ele>54.1</ele>
        <time>2020-07-01T15:58:00Z</time>
      </trkpt>
      <trkpt lat="48.90299" lon="2.45853">
        <ele>54.1</ele>
        <time>2020-07-01T15:58:01Z</time>
      </trkpt>
      <trkpt lat="48.90297" lon="2.45844">
        <ele>54.1</ele>
        <time>2020-07-01T15:58:02Z</time>
      </trkpt>
      <trkpt lat="48.90296" lon="2.45836">
        <ele>54.1</ele>
        <time>2020-07-01T15:58:03Z</time>
      </trkpt>
      <trkpt lat="48.90295" lon="2.45827">
        <ele>54</ele>
        <time>2020-07-01T15:58:04Z</time>
      </trkpt>
      <trkpt lat="48.90293" lon="2.45818">
        <ele>54</ele>
        <time>2020-07-01T15:58:05Z</time>
      </trkpt>
      <trkpt lat="48.90292" lon="2.45811">
        <ele>54</ele>
        <time>2020-07-01T15:58:06Z</time>
      </trkpt>
      <trkpt lat="48.9029" lon="2.458">
        <ele>54</ele>
        <time>2020-07-01T15:58:07Z</time>
      </trkpt>
      <trkpt lat="48.90288" lon="2.4579">
        <ele>53.9</ele>
        <time>2020-07-01T15:58:08Z</time>
      </trkpt>
      <trkpt lat="48.90287" lon="2.45782">
        <ele>53.9</ele>
        <time>2020-07-01T15:58:09Z</time>
      </trkpt>
      <trkpt lat="48.90285" lon="2.45773">
        <ele>53.9</ele>
        <time>2020-07-01T15:58:10Z</time>
      </trkpt>
      <trkpt lat="48.90283" lon="2.45764">
        <ele>53.9</ele>
        <time>2020-07-01T15:58:11Z</time>
      </trkpt>
      <trkpt lat="48.90281" lon="2.45753">
        <ele>53.9</ele>
        <time>2020-07-01T15:58:12Z</time>
      </trkpt>
      <trkpt lat="48.90279" lon="2.45744">
        <ele>53.9</ele>
        <time>2020-07-01T15:58:13Z</time>
      </trkpt>
      <trkpt lat="48.90277" lon="2.45735">
        <ele>53.9</ele>
        <time>2020-07-01T15:58:14Z</time>
      </trkpt>
      <trkpt lat="48.90275" lon="2.45725">
        <ele>53.9</ele>
        <time>2020-07-01T15:58:15Z</time>
      </trkpt>
      <trkpt lat="48.90273" lon="2.45716">
        <ele>53.9</ele>
        <time>2020-07-01T15:58:16Z</time>
      </trkpt>
      <trkpt lat="48.90272" lon="2.45707">
        <ele>53.9</ele>
        <time>2020-07-01T15:58:17Z</time>
      </trkpt>
      <trkpt lat="48.9027" lon="2.45698">
        <ele>53.9</ele>
        <time>2020-07-01T15:58:18Z</time>
      </trkpt>
      <trkpt lat="48.90269" lon="2.4569">
        <ele>53.9</ele>
        <time>2020-07-01T15:58:19Z</time>
      </trkpt>
      <trkpt lat="48.90267" lon="2.45682">
        <ele>53.9</ele>
        <time>2020-07-01T15:58:20Z</time>
      </trkpt>
      <trkpt lat="48.90265" lon="2.45673">
        <ele>53.9</ele>
        <time>2020-07-01T15:58:21Z</time>
      </trkpt>
      <trkpt lat="48.90263" lon="2.45664">
        <ele>54</ele>
        <time>2020-07-01T15:58:22Z</time>
      </trkpt>
      <trkpt lat="48.90261" lon="2.45655">
        <ele>54</ele>
        <time>2020-07-01T15:58:23Z</time>
      </trkpt>
      <trkpt lat="48.90259" lon="2.45646">
        <ele>54</ele>
        <time>2020-07-01T15:58:24Z</time>
      </trkpt>
      <trkpt lat="48.90257" lon="2.45637">
        <ele>54.1</ele>
        <time>2020-07-01T15:58:25Z</time>
      </trkpt>
      <trkpt lat="48.90255" lon="2.45627">
        <ele>54.1</ele>
        <time>2020-07-01T15:58:26Z</time>
      </trkpt>
      <trkpt lat="48.90253" lon="2.45618">
        <ele>54.1</ele>
        <time>2020-07-01T15:58:27Z</time>
      </trkpt>
      <trkpt lat="48.90251" lon="2.45609">
        <ele>54.1</ele>
        <time>2020-07-01T15:58:28Z</time>
      </trkpt>
      <trkpt lat="48.90249" lon="2.456">
        <ele>54.1</ele>
        <time>2020-07-01T15:58:29Z</time>
      </trkpt>
      <trkpt lat="48.90248" lon="2.45591">
        <ele>54.1</ele>
        <time>2020-07-01T15:58:30Z</time>
      </trkpt>
      <trkpt lat="48.90246" lon="2.45582">
        <ele>54.1</ele>
        <time>2020-07-01T15:58:31Z</time>
      </trkpt>
      <trkpt lat="48.90244" lon="2.45573">
        <ele>54.1</ele>
        <time>2020-07-01T15:58:32Z</time>
      </trkpt>
      <trkpt lat="48.90242" lon="2.45565">
        <ele>54.1</ele>
        <time>2020-07-01T15:58:33Z</time>
      </trkpt>
      <trkpt lat="48.90241" lon="2.45556">
        <ele>54.1</ele>
        <time>2020-07-01T15:58:34Z</time>
      </trkpt>
      <trkpt lat="48.9024" lon="2.45548">
        <ele>54.1</ele>
        <time>2020-07-01T15:58:35Z</time>
      </trkpt>
      <trkpt lat="48.90239" lon="2.45539">
        <ele>54.1</ele>
        <time>2020-07-01T15:58:36Z</time>
      </trkpt>
      <trkpt lat="48.90238" lon="2.4553">
        <ele>54</ele>
        <time>2020-07-01T15:58:37Z</time>
      </trkpt>
      <trkpt lat="48.90236" lon="2.45521">
        <ele>54</ele>
        <time>2020-07-01T15:58:38Z</time>
      </trkpt>
      <trkpt lat="48.90235" lon="2.45512">
        <ele>54</ele>
        <time>2020-07-01T15:58:39Z</time>
      </trkpt>
      <trkpt lat="48.90233" lon="2.45502">
        <ele>54.1</ele>
        <time>2020-07-01T15:58:40Z</time>
      </trkpt>
      <trkpt lat="48.90232" lon="2.45495">
        <ele>54.1</ele>
        <time>2020-07-01T15:58:41Z</time>
      </trkpt>
      <trkpt lat="48.9023" lon="2.45485">
        <ele>54.1</ele>
        <time>2020-07-01T15:58:42Z</time>
      </trkpt>
      <trkpt lat="48.90228" lon="2.45475">
        <ele>54.1</ele>
        <time>2020-07-01T15:58:43Z</time>
      </trkpt>
      <trkpt lat="48.90226" lon="2.45467">
        <ele>54.1</ele>
        <time>2020-07-01T15:58:44Z</time>
      </trkpt>
      <trkpt lat="48.90224" lon="2.45459">
        <ele>54.1</ele>
        <time>2020-07-01T15:58:45Z</time>
      </trkpt>
      <trkpt lat="48.90223" lon="2.45451">
        <ele>54.2</ele>
        <time>2020-07-01T15:58:46Z</time>
      </trkpt>
      <trkpt lat="48.90221" lon="2.45442">
        <ele>54.3</ele>
        <time>2020-07-01T15:58:47Z</time>
      </trkpt>
      <trkpt lat="48.90219" lon="2.45433">
        <ele>54.3</ele>
        <time>2020-07-01T15:58:48Z</time>
      </trkpt>
      <trkpt lat="48.90217" lon="2.45424">
        <ele>54.3</ele>
        <time>2020-07-01T15:58:49Z</time>
      </trkpt>
      <trkpt lat="48.90215" lon="2.45414">
        <ele>54.3</ele>
        <time>2020-07-01T15:58:50Z</time>
      </trkpt>
      <trkpt lat="48.90214" lon="2.45404">
        <ele>54.3</ele>
        <time>2020-07-01T15:58:51Z</time>
      </trkpt>
      <trkpt lat="48.90212" lon="2.45396">
        <ele>54.3</ele>
        <time>2020-07-01T15:58:52Z</time>
      </trkpt>
      <trkpt lat="48.9021" lon="2.45387">
        <ele>54.3</ele>
        <time>2020-07-01T15:58:53Z</time>
      </trkpt>
      <trkpt lat="48.90208" lon="2.45379">
        <ele>54.3</ele>
        <time>2020-07-01T15:58:54Z</time>
      </trkpt>
      <trkpt lat="48.90206" lon="2.4537">
        <ele>54.3</ele>
        <time>2020-07-01T15:58:55Z</time>
      </trkpt>
      <trkpt lat="48.90205" lon="2.45361">
        <ele>54.3</ele>
        <time>2020-07-01T15:58:56Z</time>
      </trkpt>
      <trkpt lat="48.90203" lon="2.45353">
        <ele>54.3</ele>
        <time>2020-07-01T15:58:57Z</time>
      </trkpt>
      <trkpt lat="48.90202" lon="2.45345">
        <ele>54.2</ele>
        <time>2020-07-01T15:58:58Z</time>
      </trkpt>
      <trkpt lat="48.902" lon="2.45337">
        <ele>54.2</ele>
        <time>2020-07-01T15:58:59Z</time>
      </trkpt>
      <trkpt lat="48.90198" lon="2.45328">
        <ele>54.2</ele>
        <time>2020-07-01T15:59:00Z</time>
      </trkpt>
      <trkpt lat="48.90197" lon="2.45319">
        <ele>54.2</ele>
        <time>2020-07-01T15:59:01Z</time>
      </trkpt>
      <trkpt lat="48.90196" lon="2.4531">
        <ele>54.2</ele>
        <time>2020-07-01T15:59:02Z</time>
      </trkpt>
      <trkpt lat="48.90194" lon="2.453">
        <ele>54.2</ele>
        <time>2020-07-01T15:59:03Z</time>
      </trkpt>
      <trkpt lat="48.90191" lon="2.45289">
        <ele>54.2</ele>
        <time>2020-07-01T15:59:04Z</time>
      </trkpt>
      <trkpt lat="48.90189" lon="2.45281">
        <ele>54.2</ele>
        <time>2020-07-01T15:59:05Z</time>
      </trkpt>
      <trkpt lat="48.90187" lon="2.45271">
        <ele>54.2</ele>
        <time>2020-07-01T15:59:06Z</time>
      </trkpt>
      <trkpt lat="48.90185" lon="2.45262">
        <ele>54.2</ele>
        <time>2020-07-01T15:59:07Z</time>
      </trkpt>
      <trkpt lat="48.90182" lon="2.45251">
        <ele>54.2</ele>
        <time>2020-07-01T15:59:08Z</time>
      </trkpt>
      <trkpt lat="48.9018" lon="2.45242">
        <ele>54.1</ele>
        <time>2020-07-01T15:59:09Z</time>
      </trkpt>
      <trkpt lat="48.90178" lon="2.45233">
        <ele>54.1</ele>
        <time>2020-07-01T15:59:10Z</time>
      </trkpt>
      <trkpt lat="48.90176" lon="2.45225">
        <ele>54.1</ele>
        <time>2020-07-01T15:59:11Z</time>
      </trkpt>
      <trkpt lat="48.90174" lon="2.45216">
        <ele>54.1</ele>
        <time>2020-07-01T15:59:12Z</time>
      </trkpt>
      <trkpt lat="48.90171" lon="2.45205">
        <ele>54.1</ele>
        <time>2020-07-01T15:59:13Z</time>
      </trkpt>
      <trkpt lat="48.90169" lon="2.45196">
        <ele>54.1</ele>
        <time>2020-07-01T15:59:14Z</time>
      </trkpt>
      <trkpt lat="48.90166" lon="2.45186">
        <ele>54.1</ele>
        <time>2020-07-01T15:59:15Z</time>
      </trkpt>
      <trkpt lat="48.90165" lon="2.45178">
        <ele>54.1</ele>
        <time>2020-07-01T15:59:16Z</time>
      </trkpt>
      <trkpt lat="48.90163" lon="2.45168">
        <ele>54.1</ele>
        <time>2020-07-01T15:59:17Z</time>
      </trkpt>
      <trkpt lat="48.90161" lon="2.45158">
        <ele>54.1</ele>
        <time>2020-07-01T15:59:18Z</time>
      </trkpt>
      <trkpt lat="48.90159" lon="2.45148">
        <ele>54.1</ele>
        <time>2020-07-01T15:59:19Z</time>
      </trkpt>
      <trkpt lat="48.90157" lon="2.45138">
        <ele>54.1</ele>
        <time>2020-07-01T15:59:20Z</time>
      </trkpt>
      <trkpt lat="48.90154" lon="2.45128">
        <ele>54.1</ele>
        <time>2020-07-01T15:59:21Z</time>
      </trkpt>
      <trkpt lat="48.90152" lon="2.4512">
        <ele>54.1</ele>
        <time>2020-07-01T15:59:22Z</time>
      </trkpt>
      <trkpt lat="48.9015" lon="2.45112">
        <ele>54.1</ele>
        <time>2020-07-01T15:59:23Z</time>
      </trkpt>
      <trkpt lat="48.90148" lon="2.45102">
        <ele>54.1</ele>
        <time>2020-07-01T15:59:24Z</time>
      </trkpt>
      <trkpt lat="48.90147" lon="2.45094">
        <ele>54.1</ele>
        <time>2020-07-01T15:59:25Z</time>
      </trkpt>
      <trkpt lat="48.90145" lon="2.45084">
        <ele>54.1</ele>
        <time>2020-07-01T15:59:26Z</time>
      </trkpt>
      <trkpt lat="48.90144" lon="2.45075">
        <ele>54.1</ele>
        <time>2020-07-01T15:59:27Z</time>
      </trkpt>
      <trkpt lat="48.90143" lon="2.45065">
        <ele>54.2</ele>
        <time>2020-07-01T15:59:28Z</time>
      </trkpt>
      <trkpt lat="48.90142" lon="2.45056">
        <ele>54.2</ele>
        <time>2020-07-01T15:59:29Z</time>
      </trkpt>
      <trkpt lat="48.90141" lon="2.45048">
        <ele>54.2</ele>
        <time>2020-07-01T15:59:30Z</time>
      </trkpt>
      <trkpt lat="48.90139" lon="2.4504">
        <ele>54.1</ele>
        <time>2020-07-01T15:59:31Z</time>
      </trkpt>
      <trkpt lat="48.90137" lon="2.45031">
        <ele>54.1</ele>
        <time>2020-07-01T15:59:32Z</time>
      </trkpt>
      <trkpt lat="48.90136" lon="2.45025">
        <ele>54.1</ele>
        <time>2020-07-01T15:59:33Z</time>
      </trkpt>
      <trkpt lat="48.90134" lon="2.45015">
        <ele>54</ele>
        <time>2020-07-01T15:59:34Z</time>
      </trkpt>
      <trkpt lat="48.90132" lon="2.45006">
        <ele>54</ele>
        <time>2020-07-01T15:59:35Z</time>
      </trkpt>
      <trkpt lat="48.9013" lon="2.44998">
        <ele>53.9</ele>
        <time>2020-07-01T15:59:36Z</time>
      </trkpt>
      <trkpt lat="48.90127" lon="2.44988">
        <ele>53.9</ele>
        <time>2020-07-01T15:59:37Z</time>
      </trkpt>
      <trkpt lat="48.90125" lon="2.4498">
        <ele>53.9</ele>
        <time>2020-07-01T15:59:38Z</time>
      </trkpt>
      <trkpt lat="48.90122" lon="2.44969">
        <ele>53.9</ele>
        <time>2020-07-01T15:59:39Z</time>
      </trkpt>
      <trkpt lat="48.90119" lon="2.4496">
        <ele>53.8</ele>
        <time>2020-07-01T15:59:40Z</time>
      </trkpt>
      <trkpt lat="48.90117" lon="2.44951">
        <ele>53.8</ele>
        <time>2020-07-01T15:59:41Z</time>
      </trkpt>
      <trkpt lat="48.90115" lon="2.4494">
        <ele>53.7</ele>
        <time>2020-07-01T15:59:42Z</time>
      </trkpt>
      <trkpt lat="48.90112" lon="2.44931">
        <ele>53.7</ele>
        <time>2020-07-01T15:59:43Z</time>
      </trkpt>
      <trkpt lat="48.9011" lon="2.44922">
        <ele>53.6</ele>
        <time>2020-07-01T15:59:44Z</time>
      </trkpt>
      <trkpt lat="48.90108" lon="2.44912">
        <ele>53.6</ele>
        <time>2020-07-01T15:59:45Z</time>
      </trkpt>
      <trkpt lat="48.90106" lon="2.44902">
        <ele>53.6</ele>
        <time>2020-07-01T15:59:46Z</time>
      </trkpt>
      <trkpt lat="48.90104" lon="2.44892">
        <ele>53.6</ele>
        <time>2020-07-01T15:59:47Z</time>
      </trkpt>
      <trkpt lat="48.90102" lon="2.44883">
        <ele>53.7</ele>
        <time>2020-07-01T15:59:48Z</time>
      </trkpt>
      <trkpt lat="48.901" lon="2.44873">
        <ele>53.7</ele>
        <time>2020-07-01T15:59:49Z</time>
      </trkpt>
      <trkpt lat="48.90099" lon="2.44864">
        <ele>53.7</ele>
        <time>2020-07-01T15:59:50Z</time>
      </trkpt>
      <trkpt lat="48.90097" lon="2.44854">
        <ele>53.7</ele>
        <time>2020-07-01T15:59:51Z</time>
      </trkpt>
      <trkpt lat="48.90095" lon="2.44844">
        <ele>53.7</ele>
        <time>2020-07-01T15:59:52Z</time>
      </trkpt>
      <trkpt lat="48.90092" lon="2.44835">
        <ele>53.6</ele>
        <time>2020-07-01T15:59:53Z</time>
      </trkpt>
      <trkpt lat="48.90089" lon="2.44826">
        <ele>53.6</ele>
        <time>2020-07-01T15:59:54Z</time>
      </trkpt>
      <trkpt lat="48.90087" lon="2.44815">
        <ele>53.6</ele>
        <time>2020-07-01T15:59:55Z</time>
      </trkpt>
      <trkpt lat="48.90085" lon="2.44806">
        <ele>53.5</ele>
        <time>2020-07-01T15:59:56Z</time>
      </trkpt>
      <trkpt lat="48.90083" lon="2.44798">
        <ele>53.5</ele>
        <time>2020-07-01T15:59:57Z</time>
      </trkpt>
      <trkpt lat="48.90081" lon="2.44789">
        <ele>53.5</ele>
        <time>2020-07-01T15:59:58Z</time>
      </trkpt>
      <trkpt lat="48.90079" lon="2.44779">
        <ele>53.5</ele>
        <time>2020-07-01T15:59:59Z</time>
      </trkpt>
      <trkpt lat="48.90077" lon="2.4477">
        <ele>53.5</ele>
        <time>2020-07-01T16:00:00Z</time>
      </trkpt>
      <trkpt lat="48.90076" lon="2.44761">
        <ele>53.5</ele>
        <time>2020-07-01T16:00:01Z</time>
      </trkpt>
      <trkpt lat="48.90074" lon="2.44752">
        <ele>53.5</ele>
        <time>2020-07-01T16:00:02Z</time>
      </trkpt>
      <trkpt lat="48.90072" lon="2.44743">
        <ele>53.6</ele>
        <time>2020-07-01T16:00:03Z</time>
      </trkpt>
      <trkpt lat="48.9007" lon="2.44733">
        <ele>53.6</ele>
        <time>2020-07-01T16:00:04Z</time>
      </trkpt>
      <trkpt lat="48.90069" lon="2.44723">
        <ele>53.6</ele>
        <time>2020-07-01T16:00:05Z</time>
      </trkpt>
      <trkpt lat="48.90067" lon="2.44714">
        <ele>53.7</ele>
        <time>2020-07-01T16:00:06Z</time>
      </trkpt>
      <trkpt lat="48.90066" lon="2.44704">
        <ele>53.7</ele>
        <time>2020-07-01T16:00:07Z</time>
      </trkpt>
      <trkpt lat="48.90064" lon="2.44694">
        <ele>53.7</ele>
        <time>2020-07-01T16:00:08Z</time>
      </trkpt>
      <trkpt lat="48.90063" lon="2.44686">
        <ele>53.7</ele>
        <time>2020-07-01T16:00:09Z</time>
      </trkpt>
      <trkpt lat="48.90062" lon="2.44677">
        <ele>53.7</ele>
        <time>2020-07-01T16:00:10Z</time>
      </trkpt>
      <trkpt lat="48.90062" lon="2.4467">
        <ele>53.7</ele>
        <time>2020-07-01T16:00:11Z</time>
      </trkpt>
      <trkpt lat="48.90061" lon="2.44661">
        <ele>53.7</ele>
        <time>2020-07-01T16:00:12Z</time>
      </trkpt>
      <trkpt lat="48.90061" lon="2.44654">
        <ele>53.7</ele>
        <time>2020-07-01T16:00:13Z</time>
      </trkpt>
      <trkpt lat="48.9006" lon="2.44645">
        <ele>53.7</ele>
        <time>2020-07-01T16:00:14Z</time>
      </trkpt>
      <trkpt lat="48.90059" lon="2.44636">
        <ele>53.7</ele>
        <time>2020-07-01T16:00:15Z</time>
      </trkpt>
      <trkpt lat="48.90057" lon="2.44626">
        <ele>53.7</ele>
        <time>2020-07-01T16:00:16Z</time>
      </trkpt>
      <trkpt lat="48.90056" lon="2.44616">
        <ele>53.8</ele>
        <time>2020-07-01T16:00:17Z</time>
      </trkpt>
      <trkpt lat="48.90054" lon="2.44607">
        <ele>53.8</ele>
        <time>2020-07-01T16:00:18Z</time>
      </trkpt>
      <trkpt lat="48.90052" lon="2.44599">
        <ele>53.8</ele>
        <time>2020-07-01T16:00:19Z</time>
      </trkpt>
      <trkpt lat="48.90049" lon="2.44593">
        <ele>53.8</ele>
        <time>2020-07-01T16:00:20Z</time>
      </trkpt>
      <trkpt lat="48.90045" lon="2.44585">
        <ele>53.8</ele>
        <time>2020-07-01T16:00:21Z</time>
      </trkpt>
      <trkpt lat="48.90041" lon="2.44576">
        <ele>53.8</ele>
        <time>2020-07-01T16:00:22Z</time>
      </trkpt>
      <trkpt lat="48.90039" lon="2.44568">
        <ele>53.8</ele>
        <time>2020-07-01T16:00:23Z</time>
      </trkpt>
      <trkpt lat="48.90036" lon="2.4456">
        <ele>53.8</ele>
        <time>2020-07-01T16:00:24Z</time>
      </trkpt>
      <trkpt lat="48.90034" lon="2.44552">
        <ele>53.8</ele>
        <time>2020-07-01T16:00:25Z</time>
      </trkpt>
      <trkpt lat="48.90031" lon="2.44543">
        <ele>53.8</ele>
        <time>2020-07-01T16:00:26Z</time>
      </trkpt>
      <trkpt lat="48.90028" lon="2.44535">
        <ele>53.8</ele>
        <time>2020-07-01T16:00:27Z</time>
      </trkpt>
      <trkpt lat="48.90026" lon="2.44526">
        <ele>53.8</ele>
        <time>2020-07-01T16:00:28Z</time>
      </trkpt>
      <trkpt lat="48.90024" lon="2.44517">
        <ele>53.8</ele>
        <time>2020-07-01T16:00:29Z</time>
      </trkpt>
      <trkpt lat="48.90022" lon="2.44508">
        <ele>53.8</ele>
        <time>2020-07-01T16:00:30Z</time>
      </trkpt>
      <trkpt lat="48.9002" lon="2.445">
        <ele>53.8</ele>
        <time>2020-07-01T16:00:31Z</time>
      </trkpt>
      <trkpt lat="48.90018" lon="2.44492">
        <ele>53.9</ele>
        <time>2020-07-01T16:00:32Z</time>
      </trkpt>
      <trkpt lat="48.90017" lon="2.44485">
        <ele>53.9</ele>
        <time>2020-07-01T16:00:33Z</time>
      </trkpt>
      <trkpt lat="48.90015" lon="2.44477">
        <ele>53.9</ele>
        <time>2020-07-01T16:00:34Z</time>
      </trkpt>
      <trkpt lat="48.90013" lon="2.44468">
        <ele>53.9</ele>
        <time>2020-07-01T16:00:35Z</time>
      </trkpt>
      <trkpt lat="48.90011" lon="2.44461">
        <ele>53.9</ele>
        <time>2020-07-01T16:00:36Z</time>
      </trkpt>
      <trkpt lat="48.9001" lon="2.44453">
        <ele>53.9</ele>
        <time>2020-07-01T16:00:37Z</time>
      </trkpt>
      <trkpt lat="48.90008" lon="2.44446">
        <ele>53.9</ele>
        <time>2020-07-01T16:00:38Z</time>
      </trkpt>
      <trkpt lat="48.90007" lon="2.44437">
        <ele>53.9</ele>
        <time>2020-07-01T16:00:39Z</time>
      </trkpt>
      <trkpt lat="48.90005" lon="2.44428">
        <ele>53.9</ele>
        <time>2020-07-01T16:00:40Z</time>
      </trkpt>
      <trkpt lat="48.90004" lon="2.44419">
        <ele>53.9</ele>
        <time>2020-07-01T16:00:41Z</time>
      </trkpt>
      <trkpt lat="48.90002" lon="2.44409">
        <ele>53.9</ele>
        <time>2020-07-01T16:00:42Z</time>
      </trkpt>
      <trkpt lat="48.90001" lon="2.44402">
        <ele>53.9</ele>
        <time>2020-07-01T16:00:43Z</time>
      </trkpt>
      <trkpt lat="48.9" lon="2.44395">
        <ele>53.9</ele>
        <time>2020-07-01T16:00:44Z</time>
      </trkpt>
      <trkpt lat="48.89999" lon="2.44388">
        <ele>54</ele>
        <time>2020-07-01T16:00:45Z</time>
      </trkpt>
      <trkpt lat="48.89998" lon="2.4438">
        <ele>54</ele>
        <time>2020-07-01T16:00:46Z</time>
      </trkpt>
      <trkpt lat="48.89997" lon="2.44372">
        <ele>54</ele>
        <time>2020-07-01T16:00:47Z</time>
      </trkpt>
      <trkpt lat="48.89996" lon="2.44364">
        <ele>54.1</ele>
        <time>2020-07-01T16:00:48Z</time>
      </trkpt>
      <trkpt lat="48.89994" lon="2.44356">
        <ele>54.1</ele>
        <time>2020-07-01T16:00:49Z</time>
      </trkpt>
      <trkpt lat="48.89993" lon="2.44349">
        <ele>54.1</ele>
        <time>2020-07-01T16:00:50Z</time>
      </trkpt>
      <trkpt lat="48.89992" lon="2.44342">
        <ele>54.1</ele>
        <time>2020-07-01T16:00:51Z</time>
      </trkpt>
      <trkpt lat="48.8999" lon="2.44333">
        <ele>54.2</ele>
        <time>2020-07-01T16:00:52Z</time>
      </trkpt>
      <trkpt lat="48.89988" lon="2.44323">
        <ele>54.2</ele>
        <time>2020-07-01T16:00:53Z</time>
      </trkpt>
      <trkpt lat="48.89986" lon="2.44314">
        <ele>54.2</ele>
        <time>2020-07-01T16:00:54Z</time>
      </trkpt>
      <trkpt lat="48.89984" lon="2.44306">
        <ele>54.2</ele>
        <time>2020-07-01T16:00:55Z</time>
      </trkpt>
      <trkpt lat="48.89983" lon="2.44298">
        <ele>54.2</ele>
        <time>2020-07-01T16:00:56Z</time>
      </trkpt>
      <trkpt lat="48.89981" lon="2.44289">
        <ele>54.1</ele>
        <time>2020-07-01T16:00:57Z</time>
      </trkpt>
      <trkpt lat="48.89979" lon="2.44281">
        <ele>54.1</ele>
        <time>2020-07-01T16:00:58Z</time>
      </trkpt>
      <trkpt lat="48.89977" lon="2.44272">
        <ele>54.1</ele>
        <time>2020-07-01T16:00:59Z</time>
      </trkpt>
      <trkpt lat="48.89975" lon="2.44263">
        <ele>54.1</ele>
        <time>2020-07-01T16:01:00Z</time>
      </trkpt>
      <trkpt lat="48.89974" lon="2.44255">
        <ele>54.2</ele>
        <time>2020-07-01T16:01:01Z</time>
      </trkpt>
      <trkpt lat="48.89972" lon="2.44246">
        <ele>54.2</ele>
        <time>2020-07-01T16:01:02Z</time>
      </trkpt>
      <trkpt lat="48.8997" lon="2.44237">
        <ele>54.2</ele>
        <time>2020-07-01T16:01:03Z</time>
      </trkpt>
      <trkpt lat="48.89968" lon="2.44229">
        <ele>54.2</ele>
        <time>2020-07-01T16:01:04Z</time>
      </trkpt>
      <trkpt lat="48.89965" lon="2.44219">
        <ele>54.3</ele>
        <time>2020-07-01T16:01:05Z</time>
      </trkpt>
      <trkpt lat="48.89964" lon="2.44211">
        <ele>54.3</ele>
        <time>2020-07-01T16:01:06Z</time>
      </trkpt>
      <trkpt lat="48.89962" lon="2.44203">
        <ele>54.3</ele>
        <time>2020-07-01T16:01:07Z</time>
      </trkpt>
      <trkpt lat="48.89961" lon="2.44193">
        <ele>54.3</ele>
        <time>2020-07-01T16:01:08Z</time>
      </trkpt>
      <trkpt lat="48.89958" lon="2.44188">
        <ele>54.3</ele>
        <time>2020-07-01T16:01:09Z</time>
      </trkpt>
      <trkpt lat="48.89956" lon="2.44181">
        <ele>54.3</ele>
        <time>2020-07-01T16:01:10Z</time>
      </trkpt>
      <trkpt lat="48.89954" lon="2.44175">
        <ele>54.3</ele>
        <time>2020-07-01T16:01:11Z</time>
      </trkpt>
      <trkpt lat="48.89952" lon="2.44169">
        <ele>54.3</ele>
        <time>2020-07-01T16:01:12Z</time>
      </trkpt>
      <trkpt lat="48.8995" lon="2.44161">
        <ele>54.3</ele>
        <time>2020-07-01T16:01:13Z</time>
      </trkpt>
      <trkpt lat="48.89948" lon="2.44153">
        <ele>54.3</ele>
        <time>2020-07-01T16:01:14Z</time>
      </trkpt>
      <trkpt lat="48.89946" lon="2.4414">
        <ele>54.3</ele>
        <time>2020-07-01T16:01:15Z</time>
      </trkpt>
      <trkpt lat="48.89944" lon="2.44129">
        <ele>54.3</ele>
        <time>2020-07-01T16:01:16Z</time>
      </trkpt>
      <trkpt lat="48.89942" lon="2.44119">
        <ele>54.3</ele>
        <time>2020-07-01T16:01:17Z</time>
      </trkpt>
      <trkpt lat="48.8994" lon="2.44108">
        <ele>54.3</ele>
        <time>2020-07-01T16:01:18Z</time>
      </trkpt>
      <trkpt lat="48.89938" lon="2.441">
        <ele>54.3</ele>
        <time>2020-07-01T16:01:19Z</time>
      </trkpt>
      <trkpt lat="48.89936" lon="2.44091">
        <ele>54.3</ele>
        <time>2020-07-01T16:01:20Z</time>
      </trkpt>
      <trkpt lat="48.89935" lon="2.44084">
        <ele>54.3</ele>
        <time>2020-07-01T16:01:21Z</time>
      </trkpt>
      <trkpt lat="48.89933" lon="2.44075">
        <ele>54.3</ele>
        <time>2020-07-01T16:01:22Z</time>
      </trkpt>
      <trkpt lat="48.89931" lon="2.44066">
        <ele>54.3</ele>
        <time>2020-07-01T16:01:23Z</time>
      </trkpt>
      <trkpt lat="48.89928" lon="2.44056">
        <ele>54.3</ele>
        <time>2020-07-01T16:01:24Z</time>
      </trkpt>
      <trkpt lat="48.89925" lon="2.44047">
        <ele>54.3</ele>
        <time>2020-07-01T16:01:25Z</time>
      </trkpt>
      <trkpt lat="48.89924" lon="2.44039">
        <ele>54.3</ele>
        <time>2020-07-01T16:01:26Z</time>
      </trkpt>
      <trkpt lat="48.89922" lon="2.4403">
        <ele>54.3</ele>
        <time>2020-07-01T16:01:27Z</time>
      </trkpt>
      <trkpt lat="48.8992" lon="2.44022">
        <ele>54.2</ele>
        <time>2020-07-01T16:01:28Z</time>
      </trkpt>
      <trkpt lat="48.89921" lon="2.44014">
        <ele>54.2</ele>
        <time>2020-07-01T16:01:29Z</time>
      </trkpt>
      <trkpt lat="48.89921" lon="2.44005">
        <ele>54.2</ele>
        <time>2020-07-01T16:01:30Z</time>
      </trkpt>
      <trkpt lat="48.89921" lon="2.43997">
        <ele>54.2</ele>
        <time>2020-07-01T16:01:31Z</time>
      </trkpt>
      <trkpt lat="48.89919" lon="2.4399">
        <ele>54.2</ele>
        <time>2020-07-01T16:01:32Z</time>
      </trkpt>
      <trkpt lat="48.89917" lon="2.43981">
        <ele>54.2</ele>
        <time>2020-07-01T16:01:33Z</time>
      </trkpt>
      <trkpt lat="48.89915" lon="2.43972">
        <ele>54.2</ele>
        <time>2020-07-01T16:01:34Z</time>
      </trkpt>
      <trkpt lat="48.89912" lon="2.43961">
        <ele>54.2</ele>
        <time>2020-07-01T16:01:35Z</time>
      </trkpt>
      <trkpt lat="48.8991" lon="2.43949">
        <ele>54.2</ele>
        <time>2020-07-01T16:01:36Z</time>
      </trkpt>
      <trkpt lat="48.89909" lon="2.4394">
        <ele>54.2</ele>
        <time>2020-07-01T16:01:37Z</time>
      </trkpt>
      <trkpt lat="48.89907" lon="2.43931">
        <ele>54.2</ele>
        <time>2020-07-01T16:01:38Z</time>
      </trkpt>
      <trkpt lat="48.89905" lon="2.43922">
        <ele>54.2</ele>
        <time>2020-07-01T16:01:39Z</time>
      </trkpt>
      <trkpt lat="48.89903" lon="2.43913">
        <ele>54.2</ele>
        <time>2020-07-01T16:01:40Z</time>
      </trkpt>
      <trkpt lat="48.89902" lon="2.43905">
        <ele>54.2</ele>
        <time>2020-07-01T16:01:41Z</time>
      </trkpt>
      <trkpt lat="48.899" lon="2.43897">
        <ele>54.3</ele>
        <time>2020-07-01T16:01:42Z</time>
      </trkpt>
      <trkpt lat="48.89898" lon="2.43889">
        <ele>54.3</ele>
        <time>2020-07-01T16:01:43Z</time>
      </trkpt>
      <trkpt lat="48.89896" lon="2.4388">
        <ele>54.3</ele>
        <time>2020-07-01T16:01:44Z</time>
      </trkpt>
      <trkpt lat="48.89894" lon="2.4387">
        <ele>54.3</ele>
        <time>2020-07-01T16:01:45Z</time>
      </trkpt>
      <trkpt lat="48.89892" lon="2.43861">
        <ele>54.2</ele>
        <time>2020-07-01T16:01:46Z</time>
      </trkpt>
      <trkpt lat="48.8989" lon="2.43853">
        <ele>54.2</ele>
        <time>2020-07-01T16:01:47Z</time>
      </trkpt>
      <trkpt lat="48.89887" lon="2.43843">
        <ele>54.2</ele>
        <time>2020-07-01T16:01:48Z</time>
      </trkpt>
      <trkpt lat="48.89886" lon="2.43834">
        <ele>54.2</ele>
        <time>2020-07-01T16:01:49Z</time>
      </trkpt>
      <trkpt lat="48.89884" lon="2.43824">
        <ele>54.2</ele>
        <time>2020-07-01T16:01:50Z</time>
      </trkpt>
      <trkpt lat="48.89883" lon="2.43817">
        <ele>54.2</ele>
        <time>2020-07-01T16:01:51Z</time>
      </trkpt>
      <trkpt lat="48.89881" lon="2.43808">
        <ele>54.2</ele>
        <time>2020-07-01T16:01:52Z</time>
      </trkpt>
      <trkpt lat="48.89879" lon="2.43799">
        <ele>54.2</ele>
        <time>2020-07-01T16:01:53Z</time>
      </trkpt>
      <trkpt lat="48.89877" lon="2.43791">
        <ele>54.2</ele>
        <time>2020-07-01T16:01:54Z</time>
      </trkpt>
      <trkpt lat="48.89875" lon="2.43782">
        <ele>54.2</ele>
        <time>2020-07-01T16:01:55Z</time>
      </trkpt>
      <trkpt lat="48.89874" lon="2.43774">
        <ele>54.2</ele>
        <time>2020-07-01T16:01:56Z</time>
      </trkpt>
      <trkpt lat="48.89872" lon="2.43765">
        <ele>54.2</ele>
        <time>2020-07-01T16:01:57Z</time>
      </trkpt>
      <trkpt lat="48.89871" lon="2.43756">
        <ele>54.2</ele>
        <time>2020-07-01T16:01:58Z</time>
      </trkpt>
      <trkpt lat="48.89869" lon="2.43746">
        <ele>54.2</ele>
        <time>2020-07-01T16:01:59Z</time>
      </trkpt>
      <trkpt lat="48.89867" lon="2.43735">
        <ele>54.2</ele>
        <time>2020-07-01T16:02:00Z</time>
      </trkpt>
      <trkpt lat="48.89866" lon="2.43725">
        <ele>54.2</ele>
        <time>2020-07-01T16:02:01Z</time>
      </trkpt>
      <trkpt lat="48.89864" lon="2.43716">
        <ele>54.2</ele>
        <time>2020-07-01T16:02:02Z</time>
      </trkpt>
      <trkpt lat="48.89862" lon="2.43706">
        <ele>54.2</ele>
        <time>2020-07-01T16:02:03Z</time>
      </trkpt>
      <trkpt lat="48.8986" lon="2.43698">
        <ele>54.2</ele>
        <time>2020-07-01T16:02:04Z</time>
      </trkpt>
      <trkpt lat="48.89858" lon="2.43691">
        <ele>54.2</ele>
        <time>2020-07-01T16:02:05Z</time>
      </trkpt>
      <trkpt lat="48.89856" lon="2.43685">
        <ele>54.2</ele>
        <time>2020-07-01T16:02:06Z</time>
      </trkpt>
      <trkpt lat="48.89854" lon="2.43678">
        <ele>54.3</ele>
        <time>2020-07-01T16:02:07Z</time>
      </trkpt>
      <trkpt lat="48.89852" lon="2.43671">
        <ele>54.3</ele>
        <time>2020-07-01T16:02:08Z</time>
      </trkpt>
      <trkpt lat="48.8985" lon="2.43664">
        <ele>54.2</ele>
        <time>2020-07-01T16:02:09Z</time>
      </trkpt>
      <trkpt lat="48.89849" lon="2.43655">
        <ele>54.2</ele>
        <time>2020-07-01T16:02:10Z</time>
      </trkpt>
      <trkpt lat="48.89848" lon="2.43642">
        <ele>54.2</ele>
        <time>2020-07-01T16:02:11Z</time>
      </trkpt>
      <trkpt lat="48.89847" lon="2.43633">
        <ele>54.1</ele>
        <time>2020-07-01T16:02:12Z</time>
      </trkpt>
      <trkpt lat="48.89846" lon="2.43624">
        <ele>54.1</ele>
        <time>2020-07-01T16:02:13Z</time>
      </trkpt>
      <trkpt lat="48.89844" lon="2.43616">
        <ele>54</ele>
        <time>2020-07-01T16:02:14Z</time>
      </trkpt>
      <trkpt lat="48.89842" lon="2.43608">
        <ele>54</ele>
        <time>2020-07-01T16:02:15Z</time>
      </trkpt>
      <trkpt lat="48.8984" lon="2.43599">
        <ele>54</ele>
        <time>2020-07-01T16:02:16Z</time>
      </trkpt>
      <trkpt lat="48.89838" lon="2.43592">
        <ele>54</ele>
        <time>2020-07-01T16:02:17Z</time>
      </trkpt>
      <trkpt lat="48.89837" lon="2.43585">
        <ele>54</ele>
        <time>2020-07-01T16:02:18Z</time>
      </trkpt>
      <trkpt lat="48.89835" lon="2.43578">
        <ele>54</ele>
        <time>2020-07-01T16:02:19Z</time>
      </trkpt>
      <trkpt lat="48.89834" lon="2.43571">
        <ele>54</ele>
        <time>2020-07-01T16:02:20Z</time>
      </trkpt>
      <trkpt lat="48.89832" lon="2.43564">
        <ele>54</ele>
        <time>2020-07-01T16:02:21Z</time>
      </trkpt>
      <trkpt lat="48.8983" lon="2.43557">
        <ele>54</ele>
        <time>2020-07-01T16:02:22Z</time>
      </trkpt>
      <trkpt lat="48.89826" lon="2.43542">
        <ele>53.9</ele>
        <time>2020-07-01T16:02:23Z</time>
      </trkpt>
      <trkpt lat="48.89824" lon="2.43533">
        <ele>53.9</ele>
        <time>2020-07-01T16:02:24Z</time>
      </trkpt>
      <trkpt lat="48.89823" lon="2.43524">
        <ele>53.8</ele>
        <time>2020-07-01T16:02:25Z</time>
      </trkpt>
      <trkpt lat="48.89821" lon="2.43515">
        <ele>53.8</ele>
        <time>2020-07-01T16:02:26Z</time>
      </trkpt>
      <trkpt lat="48.8982" lon="2.43506">
        <ele>53.8</ele>
        <time>2020-07-01T16:02:27Z</time>
      </trkpt>
      <trkpt lat="48.89818" lon="2.43497">
        <ele>53.8</ele>
        <time>2020-07-01T16:02:28Z</time>
      </trkpt>
      <trkpt lat="48.89816" lon="2.43488">
        <ele>53.8</ele>
        <time>2020-07-01T16:02:29Z</time>
      </trkpt>
      <trkpt lat="48.89815" lon="2.43479">
        <ele>53.8</ele>
        <time>2020-07-01T16:02:32Z</time>
      </trkpt>
      <trkpt lat="48.89815" lon="2.43464">
        <ele>53.9</ele>
        <time>2020-07-01T16:02:33Z</time>
      </trkpt>
      <trkpt lat="48.89814" lon="2.43453">
        <ele>53.9</ele>
        <time>2020-07-01T16:02:34Z</time>
      </trkpt>
      <trkpt lat="48.89815" lon="2.4344">
        <ele>53.9</ele>
        <time>2020-07-01T16:02:35Z</time>
      </trkpt>
      <trkpt lat="48.89813" lon="2.43433">
        <ele>53.9</ele>
        <time>2020-07-01T16:02:36Z</time>
      </trkpt>
      <trkpt lat="48.89812" lon="2.43426">
        <ele>54</ele>
        <time>2020-07-01T16:02:37Z</time>
      </trkpt>
      <trkpt lat="48.8981" lon="2.43417">
        <ele>54</ele>
        <time>2020-07-01T16:02:38Z</time>
      </trkpt>
      <trkpt lat="48.89808" lon="2.43409">
        <ele>54.1</ele>
        <time>2020-07-01T16:02:39Z</time>
      </trkpt>
      <trkpt lat="48.89807" lon="2.43401">
        <ele>54.1</ele>
        <time>2020-07-01T16:02:40Z</time>
      </trkpt>
      <trkpt lat="48.89805" lon="2.43393">
        <ele>54.1</ele>
        <time>2020-07-01T16:02:41Z</time>
      </trkpt>
      <trkpt lat="48.89803" lon="2.43384">
        <ele>54.1</ele>
        <time>2020-07-01T16:02:42Z</time>
      </trkpt>
      <trkpt lat="48.89801" lon="2.43376">
        <ele>54</ele>
        <time>2020-07-01T16:02:43Z</time>
      </trkpt>
      <trkpt lat="48.89799" lon="2.43368">
        <ele>54</ele>
        <time>2020-07-01T16:02:44Z</time>
      </trkpt>
      <trkpt lat="48.89796" lon="2.43359">
        <ele>54</ele>
        <time>2020-07-01T16:02:45Z</time>
      </trkpt>
      <trkpt lat="48.89795" lon="2.4335">
        <ele>54</ele>
        <time>2020-07-01T16:02:46Z</time>
      </trkpt>
      <trkpt lat="48.89793" lon="2.43341">
        <ele>54</ele>
        <time>2020-07-01T16:02:47Z</time>
      </trkpt>
      <trkpt lat="48.89792" lon="2.43332">
        <ele>54</ele>
        <time>2020-07-01T16:02:48Z</time>
      </trkpt>
      <trkpt lat="48.8979" lon="2.43323">
        <ele>54</ele>
        <time>2020-07-01T16:02:49Z</time>
      </trkpt>
      <trkpt lat="48.89788" lon="2.43314">
        <ele>54.1</ele>
        <time>2020-07-01T16:02:50Z</time>
      </trkpt>
      <trkpt lat="48.89787" lon="2.43304">
        <ele>54.1</ele>
        <time>2020-07-01T16:02:51Z</time>
      </trkpt>
      <trkpt lat="48.89784" lon="2.43294">
        <ele>54.1</ele>
        <time>2020-07-01T16:02:52Z</time>
      </trkpt>
      <trkpt lat="48.89783" lon="2.43285">
        <ele>54.2</ele>
        <time>2020-07-01T16:02:53Z</time>
      </trkpt>
      <trkpt lat="48.89781" lon="2.43276">
        <ele>54.2</ele>
        <time>2020-07-01T16:02:54Z</time>
      </trkpt>
      <trkpt lat="48.89779" lon="2.43267">
        <ele>54.2</ele>
        <time>2020-07-01T16:02:55Z</time>
      </trkpt>
      <trkpt lat="48.89777" lon="2.43258">
        <ele>54.2</ele>
        <time>2020-07-01T16:02:56Z</time>
      </trkpt>
      <trkpt lat="48.89776" lon="2.4325">
        <ele>54.2</ele>
        <time>2020-07-01T16:02:57Z</time>
      </trkpt>
      <trkpt lat="48.89775" lon="2.43243">
        <ele>54.2</ele>
        <time>2020-07-01T16:02:58Z</time>
      </trkpt>
      <trkpt lat="48.89773" lon="2.43235">
        <ele>54.1</ele>
        <time>2020-07-01T16:02:59Z</time>
      </trkpt>
      <trkpt lat="48.89772" lon="2.43227">
        <ele>54.1</ele>
        <time>2020-07-01T16:03:00Z</time>
      </trkpt>
      <trkpt lat="48.89771" lon="2.43218">
        <ele>54.1</ele>
        <time>2020-07-01T16:03:01Z</time>
      </trkpt>
      <trkpt lat="48.8977" lon="2.43209">
        <ele>54.1</ele>
        <time>2020-07-01T16:03:02Z</time>
      </trkpt>
      <trkpt lat="48.89768" lon="2.43199">
        <ele>54.1</ele>
        <time>2020-07-01T16:03:03Z</time>
      </trkpt>
      <trkpt lat="48.89766" lon="2.4319">
        <ele>54.2</ele>
        <time>2020-07-01T16:03:04Z</time>
      </trkpt>
      <trkpt lat="48.89765" lon="2.43184">
        <ele>54.2</ele>
        <time>2020-07-01T16:03:05Z</time>
      </trkpt>
      <trkpt lat="48.89763" lon="2.43176">
        <ele>54.2</ele>
        <time>2020-07-01T16:03:06Z</time>
      </trkpt>
      <trkpt lat="48.89762" lon="2.43168">
        <ele>54.2</ele>
        <time>2020-07-01T16:03:07Z</time>
      </trkpt>
      <trkpt lat="48.8976" lon="2.43161">
        <ele>54.2</ele>
        <time>2020-07-01T16:03:08Z</time>
      </trkpt>
      <trkpt lat="48.89758" lon="2.43153">
        <ele>54.2</ele>
        <time>2020-07-01T16:03:09Z</time>
      </trkpt>
      <trkpt lat="48.89756" lon="2.43144">
        <ele>54.2</ele>
        <time>2020-07-01T16:03:10Z</time>
      </trkpt>
      <trkpt lat="48.89754" lon="2.43135">
        <ele>54.2</ele>
        <time>2020-07-01T16:03:11Z</time>
      </trkpt>
      <trkpt lat="48.89752" lon="2.43127">
        <ele>54.2</ele>
        <time>2020-07-01T16:03:12Z</time>
      </trkpt>
      <trkpt lat="48.8975" lon="2.43118">
        <ele>54.2</ele>
        <time>2020-07-01T16:03:13Z</time>
      </trkpt>
      <trkpt lat="48.89749" lon="2.43109">
        <ele>54.2</ele>
        <time>2020-07-01T16:03:14Z</time>
      </trkpt>
      <trkpt lat="48.89748" lon="2.431">
        <ele>54.2</ele>
        <time>2020-07-01T16:03:15Z</time>
      </trkpt>
      <trkpt lat="48.89746" lon="2.43091">
        <ele>54.3</ele>
        <time>2020-07-01T16:03:16Z</time>
      </trkpt>
      <trkpt lat="48.89745" lon="2.43082">
        <ele>54.2</ele>
        <time>2020-07-01T16:03:17Z</time>
      </trkpt>
      <trkpt lat="48.89743" lon="2.43073">
        <ele>54.2</ele>
        <time>2020-07-01T16:03:18Z</time>
      </trkpt>
      <trkpt lat="48.89742" lon="2.43063">
        <ele>54.2</ele>
        <time>2020-07-01T16:03:19Z</time>
      </trkpt>
      <trkpt lat="48.8974" lon="2.43055">
        <ele>54.2</ele>
        <time>2020-07-01T16:03:20Z</time>
      </trkpt>
      <trkpt lat="48.8974" lon="2.43047">
        <ele>54.2</ele>
        <time>2020-07-01T16:03:21Z</time>
      </trkpt>
      <trkpt lat="48.89739" lon="2.4304">
        <ele>54.2</ele>
        <time>2020-07-01T16:03:22Z</time>
      </trkpt>
      <trkpt lat="48.89737" lon="2.43031">
        <ele>54.2</ele>
        <time>2020-07-01T16:03:23Z</time>
      </trkpt>
      <trkpt lat="48.89736" lon="2.43022">
        <ele>54.2</ele>
        <time>2020-07-01T16:03:24Z</time>
      </trkpt>
      <trkpt lat="48.89734" lon="2.43013">
        <ele>54.2</ele>
        <time>2020-07-01T16:03:25Z</time>
      </trkpt>
      <trkpt lat="48.89732" lon="2.43004">
        <ele>54.2</ele>
        <time>2020-07-01T16:03:26Z</time>
      </trkpt>
      <trkpt lat="48.8973" lon="2.42994">
        <ele>54.2</ele>
        <time>2020-07-01T16:03:27Z</time>
      </trkpt>
      <trkpt lat="48.89727" lon="2.42984">
        <ele>54.2</ele>
        <time>2020-07-01T16:03:28Z</time>
      </trkpt>
      <trkpt lat="48.89725" lon="2.42975">
        <ele>54.3</ele>
        <time>2020-07-01T16:03:29Z</time>
      </trkpt>
      <trkpt lat="48.89722" lon="2.42965">
        <ele>54.3</ele>
        <time>2020-07-01T16:03:30Z</time>
      </trkpt>
      <trkpt lat="48.8972" lon="2.42956">
        <ele>54.3</ele>
        <time>2020-07-01T16:03:31Z</time>
      </trkpt>
      <trkpt lat="48.89718" lon="2.42949">
        <ele>54.3</ele>
        <time>2020-07-01T16:03:32Z</time>
      </trkpt>
      <trkpt lat="48.89715" lon="2.42938">
        <ele>54.4</ele>
        <time>2020-07-01T16:03:33Z</time>
      </trkpt>
      <trkpt lat="48.89713" lon="2.42929">
        <ele>54.4</ele>
        <time>2020-07-01T16:03:34Z</time>
      </trkpt>
      <trkpt lat="48.89711" lon="2.42921">
        <ele>54.4</ele>
        <time>2020-07-01T16:03:35Z</time>
      </trkpt>
      <trkpt lat="48.89709" lon="2.42912">
        <ele>54.4</ele>
        <time>2020-07-01T16:03:36Z</time>
      </trkpt>
      <trkpt lat="48.89709" lon="2.42904">
        <ele>54.4</ele>
        <time>2020-07-01T16:03:37Z</time>
      </trkpt>
      <trkpt lat="48.89708" lon="2.42896">
        <ele>54.4</ele>
        <time>2020-07-01T16:03:38Z</time>
      </trkpt>
      <trkpt lat="48.89707" lon="2.42887">
        <ele>54.5</ele>
        <time>2020-07-01T16:03:39Z</time>
      </trkpt>
      <trkpt lat="48.89706" lon="2.42878">
        <ele>54.5</ele>
        <time>2020-07-01T16:03:40Z</time>
      </trkpt>
      <trkpt lat="48.89704" lon="2.4287">
        <ele>54.5</ele>
        <time>2020-07-01T16:03:41Z</time>
      </trkpt>
      <trkpt lat="48.89703" lon="2.42865">
        <ele>54.5</ele>
        <time>2020-07-01T16:03:42Z</time>
      </trkpt>
      <trkpt lat="48.897" lon="2.42856">
        <ele>54.5</ele>
        <time>2020-07-01T16:03:43Z</time>
      </trkpt>
      <trkpt lat="48.89698" lon="2.42847">
        <ele>54.5</ele>
        <time>2020-07-01T16:03:44Z</time>
      </trkpt>
      <trkpt lat="48.89695" lon="2.42837">
        <ele>54.5</ele>
        <time>2020-07-01T16:03:45Z</time>
      </trkpt>
      <trkpt lat="48.89693" lon="2.42827">
        <ele>54.5</ele>
        <time>2020-07-01T16:03:46Z</time>
      </trkpt>
      <trkpt lat="48.89691" lon="2.42819">
        <ele>54.5</ele>
        <time>2020-07-01T16:03:47Z</time>
      </trkpt>
      <trkpt lat="48.89689" lon="2.4281">
        <ele>54.5</ele>
        <time>2020-07-01T16:03:48Z</time>
      </trkpt>
      <trkpt lat="48.89688" lon="2.42801">
        <ele>54.5</ele>
        <time>2020-07-01T16:03:49Z</time>
      </trkpt>
      <trkpt lat="48.89686" lon="2.42792">
        <ele>54.6</ele>
        <time>2020-07-01T16:03:50Z</time>
      </trkpt>
      <trkpt lat="48.89685" lon="2.42784">
        <ele>54.6</ele>
        <time>2020-07-01T16:03:51Z</time>
      </trkpt>
      <trkpt lat="48.89684" lon="2.42774">
        <ele>54.6</ele>
        <time>2020-07-01T16:03:52Z</time>
      </trkpt>
      <trkpt lat="48.89683" lon="2.42766">
        <ele>54.6</ele>
        <time>2020-07-01T16:03:53Z</time>
      </trkpt>
      <trkpt lat="48.89682" lon="2.42757">
        <ele>54.7</ele>
        <time>2020-07-01T16:03:54Z</time>
      </trkpt>
      <trkpt lat="48.89679" lon="2.42751">
        <ele>54.7</ele>
        <time>2020-07-01T16:03:55Z</time>
      </trkpt>
      <trkpt lat="48.89678" lon="2.42741">
        <ele>54.7</ele>
        <time>2020-07-01T16:03:56Z</time>
      </trkpt>
      <trkpt lat="48.89677" lon="2.42733">
        <ele>54.7</ele>
        <time>2020-07-01T16:03:57Z</time>
      </trkpt>
      <trkpt lat="48.89675" lon="2.42725">
        <ele>54.7</ele>
        <time>2020-07-01T16:03:58Z</time>
      </trkpt>
      <trkpt lat="48.89672" lon="2.42715">
        <ele>54.7</ele>
        <time>2020-07-01T16:03:59Z</time>
      </trkpt>
      <trkpt lat="48.8967" lon="2.42708">
        <ele>54.7</ele>
        <time>2020-07-01T16:04:00Z</time>
      </trkpt>
      <trkpt lat="48.89667" lon="2.427">
        <ele>54.7</ele>
        <time>2020-07-01T16:04:01Z</time>
      </trkpt>
      <trkpt lat="48.89664" lon="2.42692">
        <ele>54.7</ele>
        <time>2020-07-01T16:04:02Z</time>
      </trkpt>
      <trkpt lat="48.89662" lon="2.42683">
        <ele>54.7</ele>
        <time>2020-07-01T16:04:03Z</time>
      </trkpt>
      <trkpt lat="48.8966" lon="2.42674">
        <ele>54.7</ele>
        <time>2020-07-01T16:04:04Z</time>
      </trkpt>
      <trkpt lat="48.89658" lon="2.42662">
        <ele>54.7</ele>
        <time>2020-07-01T16:04:05Z</time>
      </trkpt>
      <trkpt lat="48.89656" lon="2.42653">
        <ele>54.6</ele>
        <time>2020-07-01T16:04:06Z</time>
      </trkpt>
      <trkpt lat="48.89654" lon="2.42644">
        <ele>54.6</ele>
        <time>2020-07-01T16:04:07Z</time>
      </trkpt>
      <trkpt lat="48.89653" lon="2.42634">
        <ele>54.6</ele>
        <time>2020-07-01T16:04:08Z</time>
      </trkpt>
      <trkpt lat="48.8965" lon="2.42627">
        <ele>54.6</ele>
        <time>2020-07-01T16:04:09Z</time>
      </trkpt>
      <trkpt lat="48.8965" lon="2.42621">
        <ele>54.6</ele>
        <time>2020-07-01T16:04:10Z</time>
      </trkpt>
      <trkpt lat="48.8965" lon="2.42612">
        <ele>54.6</ele>
        <time>2020-07-01T16:04:11Z</time>
      </trkpt>
      <trkpt lat="48.89649" lon="2.42603">
        <ele>54.6</ele>
        <time>2020-07-01T16:04:12Z</time>
      </trkpt>
      <trkpt lat="48.8965" lon="2.42598">
        <ele>54.6</ele>
        <time>2020-07-01T16:04:13Z</time>
      </trkpt>
      <trkpt lat="48.89651" lon="2.42592">
        <ele>54.6</ele>
        <time>2020-07-01T16:04:14Z</time>
      </trkpt>
      <trkpt lat="48.8965" lon="2.42586">
        <ele>54.6</ele>
        <time>2020-07-01T16:04:15Z</time>
      </trkpt>
      <trkpt lat="48.89638" lon="2.42587">
        <ele>54.7</ele>
        <time>2020-07-01T16:04:16Z</time>
      </trkpt>
      <trkpt lat="48.89638" lon="2.4258">
        <ele>54.7</ele>
        <time>2020-07-01T16:04:17Z</time>
      </trkpt>
      <trkpt lat="48.89638" lon="2.42571">
        <ele>54.7</ele>
        <time>2020-07-01T16:04:18Z</time>
      </trkpt>
      <trkpt lat="48.89639" lon="2.42562">
        <ele>54.7</ele>
        <time>2020-07-01T16:04:19Z</time>
      </trkpt>
      <trkpt lat="48.89641" lon="2.42556">
        <ele>54.7</ele>
        <time>2020-07-01T16:04:20Z</time>
      </trkpt>
      <trkpt lat="48.89644" lon="2.4255">
        <ele>54.7</ele>
        <time>2020-07-01T16:04:21Z</time>
      </trkpt>
      <trkpt lat="48.89649" lon="2.42544">
        <ele>54.7</ele>
        <time>2020-07-01T16:04:22Z</time>
      </trkpt>
      <trkpt lat="48.89653" lon="2.42538">
        <ele>54.7</ele>
        <time>2020-07-01T16:04:23Z</time>
      </trkpt>
      <trkpt lat="48.89655" lon="2.42534">
        <ele>54.7</ele>
        <time>2020-07-01T16:04:24Z</time>
      </trkpt>
      <trkpt lat="48.89659" lon="2.4253">
        <ele>54.6</ele>
        <time>2020-07-01T16:04:25Z</time>
      </trkpt>
      <trkpt lat="48.89661" lon="2.42524">
        <ele>54.5</ele>
        <time>2020-07-01T16:04:26Z</time>
      </trkpt>
      <trkpt lat="48.89663" lon="2.42519">
        <ele>54.4</ele>
        <time>2020-07-01T16:04:27Z</time>
      </trkpt>
      <trkpt lat="48.89664" lon="2.42513">
        <ele>54.3</ele>
        <time>2020-07-01T16:04:28Z</time>
      </trkpt>
      <trkpt lat="48.89665" lon="2.42504">
        <ele>54</ele>
        <time>2020-07-01T16:04:29Z</time>
      </trkpt>
      <trkpt lat="48.89665" lon="2.42497">
        <ele>53.8</ele>
        <time>2020-07-01T16:04:30Z</time>
      </trkpt>
      <trkpt lat="48.89666" lon="2.4249">
        <ele>53.7</ele>
        <time>2020-07-01T16:04:31Z</time>
      </trkpt>
      <trkpt lat="48.89667" lon="2.42481">
        <ele>53.5</ele>
        <time>2020-07-01T16:04:32Z</time>
      </trkpt>
      <trkpt lat="48.89667" lon="2.4247">
        <ele>53.3</ele>
        <time>2020-07-01T16:04:33Z</time>
      </trkpt>
      <trkpt lat="48.89667" lon="2.42459">
        <ele>53.2</ele>
        <time>2020-07-01T16:04:34Z</time>
      </trkpt>
      <trkpt lat="48.89667" lon="2.42449">
        <ele>53.2</ele>
        <time>2020-07-01T16:04:35Z</time>
      </trkpt>
      <trkpt lat="48.89668" lon="2.42439">
        <ele>53.1</ele>
        <time>2020-07-01T16:04:36Z</time>
      </trkpt>
      <trkpt lat="48.89668" lon="2.4243">
        <ele>53</ele>
        <time>2020-07-01T16:04:37Z</time>
      </trkpt>
      <trkpt lat="48.89668" lon="2.4242">
        <ele>53</ele>
        <time>2020-07-01T16:04:38Z</time>
      </trkpt>
      <trkpt lat="48.89668" lon="2.42409">
        <ele>52.9</ele>
        <time>2020-07-01T16:04:39Z</time>
      </trkpt>
      <trkpt lat="48.89668" lon="2.42397">
        <ele>52.8</ele>
        <time>2020-07-01T16:04:40Z</time>
      </trkpt>
      <trkpt lat="48.89669" lon="2.42387">
        <ele>52.6</ele>
        <time>2020-07-01T16:04:41Z</time>
      </trkpt>
      <trkpt lat="48.89668" lon="2.42377">
        <ele>52.5</ele>
        <time>2020-07-01T16:04:42Z</time>
      </trkpt>
      <trkpt lat="48.89668" lon="2.42368">
        <ele>52.5</ele>
        <time>2020-07-01T16:04:43Z</time>
      </trkpt>
      <trkpt lat="48.89666" lon="2.42358">
        <ele>52.4</ele>
        <time>2020-07-01T16:04:44Z</time>
      </trkpt>
      <trkpt lat="48.89665" lon="2.42348">
        <ele>52.3</ele>
        <time>2020-07-01T16:04:45Z</time>
      </trkpt>
      <trkpt lat="48.89665" lon="2.42338">
        <ele>52.3</ele>
        <time>2020-07-01T16:04:46Z</time>
      </trkpt>
      <trkpt lat="48.89666" lon="2.42329">
        <ele>52.2</ele>
        <time>2020-07-01T16:04:47Z</time>
      </trkpt>
      <trkpt lat="48.89666" lon="2.42318">
        <ele>52.2</ele>
        <time>2020-07-01T16:04:48Z</time>
      </trkpt>
      <trkpt lat="48.89666" lon="2.42307">
        <ele>52.1</ele>
        <time>2020-07-01T16:04:49Z</time>
      </trkpt>
      <trkpt lat="48.89665" lon="2.42296">
        <ele>52.1</ele>
        <time>2020-07-01T16:04:50Z</time>
      </trkpt>
      <trkpt lat="48.89665" lon="2.42285">
        <ele>52.1</ele>
        <time>2020-07-01T16:04:51Z</time>
      </trkpt>
      <trkpt lat="48.89665" lon="2.42275">
        <ele>52</ele>
        <time>2020-07-01T16:04:52Z</time>
      </trkpt>
      <trkpt lat="48.89665" lon="2.42264">
        <ele>51.9</ele>
        <time>2020-07-01T16:04:53Z</time>
      </trkpt>
      <trkpt lat="48.89665" lon="2.42253">
        <ele>51.9</ele>
        <time>2020-07-01T16:04:54Z</time>
      </trkpt>
      <trkpt lat="48.89665" lon="2.42243">
        <ele>51.8</ele>
        <time>2020-07-01T16:04:55Z</time>
      </trkpt>
      <trkpt lat="48.89665" lon="2.42233">
        <ele>51.8</ele>
        <time>2020-07-01T16:04:56Z</time>
      </trkpt>
      <trkpt lat="48.89665" lon="2.42222">
        <ele>51.8</ele>
        <time>2020-07-01T16:04:57Z</time>
      </trkpt>
      <trkpt lat="48.89664" lon="2.42212">
        <ele>51.8</ele>
        <time>2020-07-01T16:04:58Z</time>
      </trkpt>
      <trkpt lat="48.89664" lon="2.42202">
        <ele>51.8</ele>
        <time>2020-07-01T16:04:59Z</time>
      </trkpt>
      <trkpt lat="48.89664" lon="2.42192">
        <ele>51.9</ele>
        <time>2020-07-01T16:05:00Z</time>
      </trkpt>
      <trkpt lat="48.89664" lon="2.42183">
        <ele>51.9</ele>
        <time>2020-07-01T16:05:01Z</time>
      </trkpt>
      <trkpt lat="48.89663" lon="2.42178">
        <ele>51.9</ele>
        <time>2020-07-01T16:05:02Z</time>
      </trkpt>
      <trkpt lat="48.89663" lon="2.42171">
        <ele>51.9</ele>
        <time>2020-07-01T16:05:03Z</time>
      </trkpt>
      <trkpt lat="48.89663" lon="2.42163">
        <ele>52</ele>
        <time>2020-07-01T16:05:04Z</time>
      </trkpt>
      <trkpt lat="48.89663" lon="2.42153">
        <ele>52</ele>
        <time>2020-07-01T16:05:05Z</time>
      </trkpt>
      <trkpt lat="48.89664" lon="2.4214">
        <ele>52.1</ele>
        <time>2020-07-01T16:05:06Z</time>
      </trkpt>
      <trkpt lat="48.89665" lon="2.42131">
        <ele>52.1</ele>
        <time>2020-07-01T16:05:07Z</time>
      </trkpt>
      <trkpt lat="48.89664" lon="2.42123">
        <ele>52.1</ele>
        <time>2020-07-01T16:05:08Z</time>
      </trkpt>
      <trkpt lat="48.89664" lon="2.42113">
        <ele>52.2</ele>
        <time>2020-07-01T16:05:09Z</time>
      </trkpt>
      <trkpt lat="48.89664" lon="2.42109">
        <ele>52.2</ele>
        <time>2020-07-01T16:05:10Z</time>
      </trkpt>
      <trkpt lat="48.89664" lon="2.42102">
        <ele>52.2</ele>
        <time>2020-07-01T16:05:11Z</time>
      </trkpt>
      <trkpt lat="48.89664" lon="2.42094">
        <ele>52.2</ele>
        <time>2020-07-01T16:05:12Z</time>
      </trkpt>
      <trkpt lat="48.89664" lon="2.42085">
        <ele>52.2</ele>
        <time>2020-07-01T16:05:13Z</time>
      </trkpt>
      <trkpt lat="48.89663" lon="2.42076">
        <ele>52.2</ele>
        <time>2020-07-01T16:05:14Z</time>
      </trkpt>
      <trkpt lat="48.89663" lon="2.42067">
        <ele>52.2</ele>
        <time>2020-07-01T16:05:15Z</time>
      </trkpt>
      <trkpt lat="48.89662" lon="2.42059">
        <ele>52.2</ele>
        <time>2020-07-01T16:05:16Z</time>
      </trkpt>
      <trkpt lat="48.89662" lon="2.4205">
        <ele>52.2</ele>
        <time>2020-07-01T16:05:17Z</time>
      </trkpt>
      <trkpt lat="48.89662" lon="2.42041">
        <ele>52.2</ele>
        <time>2020-07-01T16:05:18Z</time>
      </trkpt>
      <trkpt lat="48.89662" lon="2.42032">
        <ele>52.2</ele>
        <time>2020-07-01T16:05:19Z</time>
      </trkpt>
      <trkpt lat="48.89663" lon="2.42025">
        <ele>52.3</ele>
        <time>2020-07-01T16:05:20Z</time>
      </trkpt>
      <trkpt lat="48.89663" lon="2.42017">
        <ele>52.3</ele>
        <time>2020-07-01T16:05:21Z</time>
      </trkpt>
      <trkpt lat="48.89664" lon="2.42007">
        <ele>52.3</ele>
        <time>2020-07-01T16:05:22Z</time>
      </trkpt>
      <trkpt lat="48.89664" lon="2.41997">
        <ele>52.3</ele>
        <time>2020-07-01T16:05:23Z</time>
      </trkpt>
      <trkpt lat="48.89663" lon="2.41988">
        <ele>52.3</ele>
        <time>2020-07-01T16:05:24Z</time>
      </trkpt>
      <trkpt lat="48.89663" lon="2.4198">
        <ele>52.3</ele>
        <time>2020-07-01T16:05:25Z</time>
      </trkpt>
      <trkpt lat="48.89663" lon="2.41971">
        <ele>52.4</ele>
        <time>2020-07-01T16:05:26Z</time>
      </trkpt>
      <trkpt lat="48.89662" lon="2.41963">
        <ele>52.4</ele>
        <time>2020-07-01T16:05:27Z</time>
      </trkpt>
      <trkpt lat="48.89661" lon="2.41955">
        <ele>52.4</ele>
        <time>2020-07-01T16:05:28Z</time>
      </trkpt>
      <trkpt lat="48.89659" lon="2.41946">
        <ele>52.4</ele>
        <time>2020-07-01T16:05:29Z</time>
      </trkpt>
      <trkpt lat="48.89658" lon="2.41938">
        <ele>52.4</ele>
        <time>2020-07-01T16:05:30Z</time>
      </trkpt>
      <trkpt lat="48.89658" lon="2.4193">
        <ele>52.4</ele>
        <time>2020-07-01T16:05:31Z</time>
      </trkpt>
      <trkpt lat="48.89658" lon="2.41923">
        <ele>52.4</ele>
        <time>2020-07-01T16:05:32Z</time>
      </trkpt>
      <trkpt lat="48.89659" lon="2.41917">
        <ele>52.4</ele>
        <time>2020-07-01T16:05:33Z</time>
      </trkpt>
      <trkpt lat="48.89659" lon="2.41909">
        <ele>52.4</ele>
        <time>2020-07-01T16:05:34Z</time>
      </trkpt>
      <trkpt lat="48.89659" lon="2.41898">
        <ele>52.4</ele>
        <time>2020-07-01T16:05:35Z</time>
      </trkpt>
      <trkpt lat="48.8966" lon="2.41888">
        <ele>52.4</ele>
        <time>2020-07-01T16:05:36Z</time>
      </trkpt>
      <trkpt lat="48.8966" lon="2.41878">
        <ele>52.5</ele>
        <time>2020-07-01T16:05:37Z</time>
      </trkpt>
      <trkpt lat="48.89661" lon="2.41869">
        <ele>52.5</ele>
        <time>2020-07-01T16:05:38Z</time>
      </trkpt>
      <trkpt lat="48.89661" lon="2.41862">
        <ele>52.5</ele>
        <time>2020-07-01T16:05:39Z</time>
      </trkpt>
      <trkpt lat="48.8966" lon="2.41852">
        <ele>52.5</ele>
        <time>2020-07-01T16:05:40Z</time>
      </trkpt>
      <trkpt lat="48.89659" lon="2.41844">
        <ele>52.4</ele>
        <time>2020-07-01T16:05:41Z</time>
      </trkpt>
      <trkpt lat="48.89659" lon="2.41835">
        <ele>52.4</ele>
        <time>2020-07-01T16:05:42Z</time>
      </trkpt>
      <trkpt lat="48.89659" lon="2.41828">
        <ele>52.4</ele>
        <time>2020-07-01T16:05:43Z</time>
      </trkpt>
      <trkpt lat="48.89659" lon="2.41821">
        <ele>52.4</ele>
        <time>2020-07-01T16:05:44Z</time>
      </trkpt>
      <trkpt lat="48.89659" lon="2.41814">
        <ele>52.4</ele>
        <time>2020-07-01T16:05:45Z</time>
      </trkpt>
      <trkpt lat="48.8966" lon="2.4181">
        <ele>52.4</ele>
        <time>2020-07-01T16:05:46Z</time>
      </trkpt>
      <trkpt lat="48.89661" lon="2.41805">
        <ele>52.3</ele>
        <time>2020-07-01T16:05:47Z</time>
      </trkpt>
      <trkpt lat="48.89661" lon="2.41804">
        <ele>52.3</ele>
        <time>2020-07-01T16:05:48Z</time>
      </trkpt>
      <trkpt lat="48.89661" lon="2.418">
        <ele>52.3</ele>
        <time>2020-07-01T16:05:49Z</time>
      </trkpt>
      <trkpt lat="48.89661" lon="2.41793">
        <ele>52.3</ele>
        <time>2020-07-01T16:05:50Z</time>
      </trkpt>
      <trkpt lat="48.89662" lon="2.41791">
        <ele>52.3</ele>
        <time>2020-07-01T16:05:51Z</time>
      </trkpt>
      <trkpt lat="48.89661" lon="2.41786">
        <ele>52.3</ele>
        <time>2020-07-01T16:05:52Z</time>
      </trkpt>
      <trkpt lat="48.89661" lon="2.4178">
        <ele>52.3</ele>
        <time>2020-07-01T16:05:53Z</time>
      </trkpt>
      <trkpt lat="48.89661" lon="2.41773">
        <ele>52.3</ele>
        <time>2020-07-01T16:05:54Z</time>
      </trkpt>
      <trkpt lat="48.89661" lon="2.41766">
        <ele>52.3</ele>
        <time>2020-07-01T16:05:55Z</time>
      </trkpt>
      <trkpt lat="48.8966" lon="2.41759">
        <ele>52.3</ele>
        <time>2020-07-01T16:05:56Z</time>
      </trkpt>
      <trkpt lat="48.8966" lon="2.41752">
        <ele>52.3</ele>
        <time>2020-07-01T16:05:57Z</time>
      </trkpt>
      <trkpt lat="48.89657" lon="2.41746">
        <ele>52.2</ele>
        <time>2020-07-01T16:05:58Z</time>
      </trkpt>
      <trkpt lat="48.89655" lon="2.41737">
        <ele>52.2</ele>
        <time>2020-07-01T16:05:59Z</time>
      </trkpt>
      <trkpt lat="48.89655" lon="2.41731">
        <ele>52.1</ele>
        <time>2020-07-01T16:06:00Z</time>
      </trkpt>
      <trkpt lat="48.89654" lon="2.41723">
        <ele>52.1</ele>
        <time>2020-07-01T16:06:01Z</time>
      </trkpt>
      <trkpt lat="48.89654" lon="2.41715">
        <ele>52.1</ele>
        <time>2020-07-01T16:06:02Z</time>
      </trkpt>
      <trkpt lat="48.89654" lon="2.41706">
        <ele>52</ele>
        <time>2020-07-01T16:06:03Z</time>
      </trkpt>
      <trkpt lat="48.89652" lon="2.41701">
        <ele>52</ele>
        <time>2020-07-01T16:06:04Z</time>
      </trkpt>
      <trkpt lat="48.89652" lon="2.41693">
        <ele>52</ele>
        <time>2020-07-01T16:06:05Z</time>
      </trkpt>
      <trkpt lat="48.89651" lon="2.41687">
        <ele>52</ele>
        <time>2020-07-01T16:06:06Z</time>
      </trkpt>
      <trkpt lat="48.8965" lon="2.41679">
        <ele>51.9</ele>
        <time>2020-07-01T16:06:07Z</time>
      </trkpt>
      <trkpt lat="48.8965" lon="2.4167">
        <ele>51.9</ele>
        <time>2020-07-01T16:06:08Z</time>
      </trkpt>
      <trkpt lat="48.8965" lon="2.41662">
        <ele>51.9</ele>
        <time>2020-07-01T16:06:09Z</time>
      </trkpt>
      <trkpt lat="48.8965" lon="2.41653">
        <ele>51.9</ele>
        <time>2020-07-01T16:06:10Z</time>
      </trkpt>
      <trkpt lat="48.8965" lon="2.41644">
        <ele>51.8</ele>
        <time>2020-07-01T16:06:11Z</time>
      </trkpt>
      <trkpt lat="48.89649" lon="2.41635">
        <ele>51.8</ele>
        <time>2020-07-01T16:06:12Z</time>
      </trkpt>
      <trkpt lat="48.89647" lon="2.41626">
        <ele>51.7</ele>
        <time>2020-07-01T16:06:13Z</time>
      </trkpt>
      <trkpt lat="48.89647" lon="2.41618">
        <ele>51.7</ele>
        <time>2020-07-01T16:06:14Z</time>
      </trkpt>
      <trkpt lat="48.89646" lon="2.41609">
        <ele>51.7</ele>
        <time>2020-07-01T16:06:15Z</time>
      </trkpt>
      <trkpt lat="48.89646" lon="2.41601">
        <ele>51.7</ele>
        <time>2020-07-01T16:06:16Z</time>
      </trkpt>
      <trkpt lat="48.89646" lon="2.41591">
        <ele>51.8</ele>
        <time>2020-07-01T16:06:17Z</time>
      </trkpt>
      <trkpt lat="48.89646" lon="2.41584">
        <ele>51.8</ele>
        <time>2020-07-01T16:06:18Z</time>
      </trkpt>
      <trkpt lat="48.89646" lon="2.41578">
        <ele>51.8</ele>
        <time>2020-07-01T16:06:19Z</time>
      </trkpt>
      <trkpt lat="48.89646" lon="2.4157">
        <ele>51.8</ele>
        <time>2020-07-01T16:06:20Z</time>
      </trkpt>
      <trkpt lat="48.89645" lon="2.41563">
        <ele>51.8</ele>
        <time>2020-07-01T16:06:21Z</time>
      </trkpt>
      <trkpt lat="48.89644" lon="2.41557">
        <ele>51.8</ele>
        <time>2020-07-01T16:06:22Z</time>
      </trkpt>
      <trkpt lat="48.89643" lon="2.4155">
        <ele>51.9</ele>
        <time>2020-07-01T16:06:23Z</time>
      </trkpt>
      <trkpt lat="48.89642" lon="2.41544">
        <ele>51.9</ele>
        <time>2020-07-01T16:06:24Z</time>
      </trkpt>
      <trkpt lat="48.89642" lon="2.41538">
        <ele>52</ele>
        <time>2020-07-01T16:06:25Z</time>
      </trkpt>
      <trkpt lat="48.89642" lon="2.41531">
        <ele>52</ele>
        <time>2020-07-01T16:06:26Z</time>
      </trkpt>
      <trkpt lat="48.89641" lon="2.41526">
        <ele>52</ele>
        <time>2020-07-01T16:06:27Z</time>
      </trkpt>
      <trkpt lat="48.89637" lon="2.41518">
        <ele>52</ele>
        <time>2020-07-01T16:06:28Z</time>
      </trkpt>
      <trkpt lat="48.89633" lon="2.41515">
        <ele>52</ele>
        <time>2020-07-01T16:06:29Z</time>
      </trkpt>
      <trkpt lat="48.8963" lon="2.41514">
        <ele>52</ele>
        <time>2020-07-01T16:06:30Z</time>
      </trkpt>
      <trkpt lat="48.89626" lon="2.41512">
        <ele>52</ele>
        <time>2020-07-01T16:06:31Z</time>
      </trkpt>
      <trkpt lat="48.89622" lon="2.41512">
        <ele>52</ele>
        <time>2020-07-01T16:06:32Z</time>
      </trkpt>
      <trkpt lat="48.89618" lon="2.41511">
        <ele>52</ele>
        <time>2020-07-01T16:06:33Z</time>
      </trkpt>
      <trkpt lat="48.89612" lon="2.41509">
        <ele>52</ele>
        <time>2020-07-01T16:06:34Z</time>
      </trkpt>
      <trkpt lat="48.89608" lon="2.41509">
        <ele>52.1</ele>
        <time>2020-07-01T16:06:35Z</time>
      </trkpt>
      <trkpt lat="48.89606" lon="2.41509">
        <ele>52.1</ele>
        <time>2020-07-01T16:06:36Z</time>
      </trkpt>
      <trkpt lat="48.89601" lon="2.41508">
        <ele>52.2</ele>
        <time>2020-07-01T16:06:37Z</time>
      </trkpt>
      <trkpt lat="48.89597" lon="2.41507">
        <ele>52.4</ele>
        <time>2020-07-01T16:06:38Z</time>
      </trkpt>
      <trkpt lat="48.89593" lon="2.41506">
        <ele>52.5</ele>
        <time>2020-07-01T16:06:39Z</time>
      </trkpt>
      <trkpt lat="48.89588" lon="2.41506">
        <ele>52.6</ele>
        <time>2020-07-01T16:06:40Z</time>
      </trkpt>
      <trkpt lat="48.89584" lon="2.41505">
        <ele>52.7</ele>
        <time>2020-07-01T16:06:41Z</time>
      </trkpt>
      <trkpt lat="48.8958" lon="2.41504">
        <ele>52.8</ele>
        <time>2020-07-01T16:06:42Z</time>
      </trkpt>
      <trkpt lat="48.89575" lon="2.41502">
        <ele>53</ele>
        <time>2020-07-01T16:06:43Z</time>
      </trkpt>
      <trkpt lat="48.8957" lon="2.41501">
        <ele>53.2</ele>
        <time>2020-07-01T16:06:44Z</time>
      </trkpt>
      <trkpt lat="48.89565" lon="2.41498">
        <ele>53.4</ele>
        <time>2020-07-01T16:06:45Z</time>
      </trkpt>
      <trkpt lat="48.89561" lon="2.41496">
        <ele>53.5</ele>
        <time>2020-07-01T16:06:46Z</time>
      </trkpt>
      <trkpt lat="48.89558" lon="2.41494">
        <ele>53.6</ele>
        <time>2020-07-01T16:06:47Z</time>
      </trkpt>
      <trkpt lat="48.89556" lon="2.41493">
        <ele>53.7</ele>
        <time>2020-07-01T16:06:48Z</time>
      </trkpt>
      <trkpt lat="48.89551" lon="2.41492">
        <ele>53.9</ele>
        <time>2020-07-01T16:06:49Z</time>
      </trkpt>
      <trkpt lat="48.89548" lon="2.41491">
        <ele>54</ele>
        <time>2020-07-01T16:06:50Z</time>
      </trkpt>
      <trkpt lat="48.89546" lon="2.4149">
        <ele>54.1</ele>
        <time>2020-07-01T16:06:51Z</time>
      </trkpt>
      <trkpt lat="48.89545" lon="2.41489">
        <ele>54.1</ele>
        <time>2020-07-01T16:06:52Z</time>
      </trkpt>
      <trkpt lat="48.89544" lon="2.41489">
        <ele>54.2</ele>
        <time>2020-07-01T16:06:53Z</time>
      </trkpt>
      <trkpt lat="48.8954" lon="2.41487">
        <ele>54.4</ele>
        <time>2020-07-01T16:06:54Z</time>
      </trkpt>
      <trkpt lat="48.89536" lon="2.41485">
        <ele>54.5</ele>
        <time>2020-07-01T16:06:55Z</time>
      </trkpt>
      <trkpt lat="48.89535" lon="2.41486">
        <ele>54.6</ele>
        <time>2020-07-01T16:06:56Z</time>
      </trkpt>
      <trkpt lat="48.89537" lon="2.41485">
        <ele>54.6</ele>
        <time>2020-07-01T16:06:57Z</time>
      </trkpt>
      <trkpt lat="48.89534" lon="2.41481">
        <ele>54.6</ele>
        <time>2020-07-01T16:06:58Z</time>
      </trkpt>
      <trkpt lat="48.89533" lon="2.41475">
        <ele>54.6</ele>
        <time>2020-07-01T16:06:59Z</time>
      </trkpt>
      <trkpt lat="48.89533" lon="2.41469">
        <ele>54.6</ele>
        <time>2020-07-01T16:07:00Z</time>
      </trkpt>
      <trkpt lat="48.89532" lon="2.41463">
        <ele>54.6</ele>
        <time>2020-07-01T16:07:01Z</time>
      </trkpt>
      <trkpt lat="48.89532" lon="2.41459">
        <ele>54.6</ele>
        <time>2020-07-01T16:07:02Z</time>
      </trkpt>
      <trkpt lat="48.89531" lon="2.41451">
        <ele>54.6</ele>
        <time>2020-07-01T16:07:03Z</time>
      </trkpt>
      <trkpt lat="48.89526" lon="2.41448">
        <ele>54.6</ele>
        <time>2020-07-01T16:07:04Z</time>
      </trkpt>
      <trkpt lat="48.89524" lon="2.41441">
        <ele>54.6</ele>
        <time>2020-07-01T16:07:05Z</time>
      </trkpt>
      <trkpt lat="48.89524" lon="2.41431">
        <ele>54.7</ele>
        <time>2020-07-01T16:07:06Z</time>
      </trkpt>
      <trkpt lat="48.89524" lon="2.41425">
        <ele>54.7</ele>
        <time>2020-07-01T16:07:07Z</time>
      </trkpt>
      <trkpt lat="48.89524" lon="2.4142">
        <ele>54.7</ele>
        <time>2020-07-01T16:07:08Z</time>
      </trkpt>
      <trkpt lat="48.89524" lon="2.41415">
        <ele>54.7</ele>
        <time>2020-07-01T16:07:09Z</time>
      </trkpt>
      <trkpt lat="48.89523" lon="2.41408">
        <ele>54.7</ele>
        <time>2020-07-01T16:07:10Z</time>
      </trkpt>
      <trkpt lat="48.89523" lon="2.41398">
        <ele>54.7</ele>
        <time>2020-07-01T16:07:11Z</time>
      </trkpt>
      <trkpt lat="48.89518" lon="2.41387">
        <ele>54.7</ele>
        <time>2020-07-01T16:07:12Z</time>
      </trkpt>
      <trkpt lat="48.89517" lon="2.41376">
        <ele>54.7</ele>
        <time>2020-07-01T16:07:13Z</time>
      </trkpt>
      <trkpt lat="48.89517" lon="2.41367">
        <ele>54.7</ele>
        <time>2020-07-01T16:07:14Z</time>
      </trkpt>
      <trkpt lat="48.89517" lon="2.41359">
        <ele>54.7</ele>
        <time>2020-07-01T16:07:15Z</time>
      </trkpt>
      <trkpt lat="48.89516" lon="2.41354">
        <ele>54.7</ele>
        <time>2020-07-01T16:07:16Z</time>
      </trkpt>
      <trkpt lat="48.89516" lon="2.41352">
        <ele>54.7</ele>
        <time>2020-07-01T16:07:17Z</time>
      </trkpt>
      <trkpt lat="48.89514" lon="2.41346">
        <ele>54.7</ele>
        <time>2020-07-01T16:07:18Z</time>
      </trkpt>
      <trkpt lat="48.89514" lon="2.41339">
        <ele>54.6</ele>
        <time>2020-07-01T16:07:19Z</time>
      </trkpt>
      <trkpt lat="48.89514" lon="2.41327">
        <ele>54.6</ele>
        <time>2020-07-01T16:07:20Z</time>
      </trkpt>
      <trkpt lat="48.89514" lon="2.41321">
        <ele>54.6</ele>
        <time>2020-07-01T16:07:21Z</time>
      </trkpt>
      <trkpt lat="48.89514" lon="2.41313">
        <ele>54.6</ele>
        <time>2020-07-01T16:07:22Z</time>
      </trkpt>
      <trkpt lat="48.89515" lon="2.41305">
        <ele>54.5</ele>
        <time>2020-07-01T16:07:23Z</time>
      </trkpt>
      <trkpt lat="48.89514" lon="2.41295">
        <ele>54.5</ele>
        <time>2020-07-01T16:07:24Z</time>
      </trkpt>
      <trkpt lat="48.89512" lon="2.41285">
        <ele>54.4</ele>
        <time>2020-07-01T16:07:25Z</time>
      </trkpt>
      <trkpt lat="48.89512" lon="2.41274">
        <ele>54.4</ele>
        <time>2020-07-01T16:07:26Z</time>
      </trkpt>
      <trkpt lat="48.89511" lon="2.41265">
        <ele>54.5</ele>
        <time>2020-07-01T16:07:27Z</time>
      </trkpt>
      <trkpt lat="48.89511" lon="2.41256">
        <ele>54.5</ele>
        <time>2020-07-01T16:07:28Z</time>
      </trkpt>
      <trkpt lat="48.89511" lon="2.41249">
        <ele>54.5</ele>
        <time>2020-07-01T16:07:29Z</time>
      </trkpt>
      <trkpt lat="48.8951" lon="2.41242">
        <ele>54.6</ele>
        <time>2020-07-01T16:07:30Z</time>
      </trkpt>
      <trkpt lat="48.8951" lon="2.41234">
        <ele>54.6</ele>
        <time>2020-07-01T16:07:31Z</time>
      </trkpt>
      <trkpt lat="48.89509" lon="2.41228">
        <ele>54.6</ele>
        <time>2020-07-01T16:07:32Z</time>
      </trkpt>
      <trkpt lat="48.8951" lon="2.41221">
        <ele>54.7</ele>
        <time>2020-07-01T16:07:33Z</time>
      </trkpt>
      <trkpt lat="48.8951" lon="2.41212">
        <ele>54.7</ele>
        <time>2020-07-01T16:07:34Z</time>
      </trkpt>
      <trkpt lat="48.8951" lon="2.41204">
        <ele>54.7</ele>
        <time>2020-07-01T16:07:35Z</time>
      </trkpt>
      <trkpt lat="48.89511" lon="2.41195">
        <ele>54.7</ele>
        <time>2020-07-01T16:07:36Z</time>
      </trkpt>
      <trkpt lat="48.89512" lon="2.41186">
        <ele>54.7</ele>
        <time>2020-07-01T16:07:37Z</time>
      </trkpt>
      <trkpt lat="48.89512" lon="2.41177">
        <ele>54.8</ele>
        <time>2020-07-01T16:07:38Z</time>
      </trkpt>
      <trkpt lat="48.89512" lon="2.41168">
        <ele>54.8</ele>
        <time>2020-07-01T16:07:39Z</time>
      </trkpt>
      <trkpt lat="48.89513" lon="2.41159">
        <ele>54.8</ele>
        <time>2020-07-01T16:07:40Z</time>
      </trkpt>
      <trkpt lat="48.89514" lon="2.41151">
        <ele>54.8</ele>
        <time>2020-07-01T16:07:41Z</time>
      </trkpt>
      <trkpt lat="48.89514" lon="2.41145">
        <ele>54.8</ele>
        <time>2020-07-01T16:07:42Z</time>
      </trkpt>
      <trkpt lat="48.89513" lon="2.4114">
        <ele>54.8</ele>
        <time>2020-07-01T16:07:43Z</time>
      </trkpt>
      <trkpt lat="48.89515" lon="2.41133">
        <ele>54.8</ele>
        <time>2020-07-01T16:07:44Z</time>
      </trkpt>
      <trkpt lat="48.89516" lon="2.41128">
        <ele>54.8</ele>
        <time>2020-07-01T16:07:45Z</time>
      </trkpt>
      <trkpt lat="48.89517" lon="2.41121">
        <ele>54.8</ele>
        <time>2020-07-01T16:07:46Z</time>
      </trkpt>
      <trkpt lat="48.89518" lon="2.41111">
        <ele>54.8</ele>
        <time>2020-07-01T16:07:47Z</time>
      </trkpt>
      <trkpt lat="48.89519" lon="2.41102">
        <ele>54.8</ele>
        <time>2020-07-01T16:07:48Z</time>
      </trkpt>
      <trkpt lat="48.89519" lon="2.41092">
        <ele>54.8</ele>
        <time>2020-07-01T16:07:49Z</time>
      </trkpt>
      <trkpt lat="48.89519" lon="2.41083">
        <ele>54.8</ele>
        <time>2020-07-01T16:07:50Z</time>
      </trkpt>
      <trkpt lat="48.8952" lon="2.41076">
        <ele>54.8</ele>
        <time>2020-07-01T16:07:51Z</time>
      </trkpt>
      <trkpt lat="48.89522" lon="2.41068">
        <ele>54.8</ele>
        <time>2020-07-01T16:07:52Z</time>
      </trkpt>
      <trkpt lat="48.89523" lon="2.41059">
        <ele>54.8</ele>
        <time>2020-07-01T16:07:53Z</time>
      </trkpt>
      <trkpt lat="48.89522" lon="2.41049">
        <ele>54.8</ele>
        <time>2020-07-01T16:07:54Z</time>
      </trkpt>
      <trkpt lat="48.89523" lon="2.41042">
        <ele>54.8</ele>
        <time>2020-07-01T16:07:55Z</time>
      </trkpt>
      <trkpt lat="48.89523" lon="2.41033">
        <ele>54.8</ele>
        <time>2020-07-01T16:07:56Z</time>
      </trkpt>
      <trkpt lat="48.89525" lon="2.41024">
        <ele>54.8</ele>
        <time>2020-07-01T16:07:57Z</time>
      </trkpt>
      <trkpt lat="48.89524" lon="2.41015">
        <ele>54.8</ele>
        <time>2020-07-01T16:07:58Z</time>
      </trkpt>
      <trkpt lat="48.89523" lon="2.41005">
        <ele>54.9</ele>
        <time>2020-07-01T16:07:59Z</time>
      </trkpt>
      <trkpt lat="48.89522" lon="2.40998">
        <ele>54.9</ele>
        <time>2020-07-01T16:08:00Z</time>
      </trkpt>
      <trkpt lat="48.89521" lon="2.4099">
        <ele>54.9</ele>
        <time>2020-07-01T16:08:01Z</time>
      </trkpt>
      <trkpt lat="48.89521" lon="2.40982">
        <ele>55</ele>
        <time>2020-07-01T16:08:02Z</time>
      </trkpt>
      <trkpt lat="48.89521" lon="2.40975">
        <ele>55</ele>
        <time>2020-07-01T16:08:03Z</time>
      </trkpt>
      <trkpt lat="48.89522" lon="2.40967">
        <ele>55</ele>
        <time>2020-07-01T16:08:04Z</time>
      </trkpt>
      <trkpt lat="48.89523" lon="2.40958">
        <ele>55</ele>
        <time>2020-07-01T16:08:05Z</time>
      </trkpt>
      <trkpt lat="48.89524" lon="2.40949">
        <ele>55</ele>
        <time>2020-07-01T16:08:06Z</time>
      </trkpt>
      <trkpt lat="48.89525" lon="2.40936">
        <ele>54.9</ele>
        <time>2020-07-01T16:08:07Z</time>
      </trkpt>
      <trkpt lat="48.89527" lon="2.40925">
        <ele>55</ele>
        <time>2020-07-01T16:08:08Z</time>
      </trkpt>
      <trkpt lat="48.89527" lon="2.40921">
        <ele>55</ele>
        <time>2020-07-01T16:08:09Z</time>
      </trkpt>
      <trkpt lat="48.89528" lon="2.40913">
        <ele>55</ele>
        <time>2020-07-01T16:08:10Z</time>
      </trkpt>
      <trkpt lat="48.89528" lon="2.40904">
        <ele>55</ele>
        <time>2020-07-01T16:08:11Z</time>
      </trkpt>
      <trkpt lat="48.89529" lon="2.40895">
        <ele>55</ele>
        <time>2020-07-01T16:08:12Z</time>
      </trkpt>
      <trkpt lat="48.8953" lon="2.40885">
        <ele>55</ele>
        <time>2020-07-01T16:08:13Z</time>
      </trkpt>
      <trkpt lat="48.89531" lon="2.40876">
        <ele>55</ele>
        <time>2020-07-01T16:08:14Z</time>
      </trkpt>
      <trkpt lat="48.89532" lon="2.40867">
        <ele>55</ele>
        <time>2020-07-01T16:08:15Z</time>
      </trkpt>
      <trkpt lat="48.89533" lon="2.40857">
        <ele>55</ele>
        <time>2020-07-01T16:08:16Z</time>
      </trkpt>
      <trkpt lat="48.89533" lon="2.4085">
        <ele>55.1</ele>
        <time>2020-07-01T16:08:17Z</time>
      </trkpt>
      <trkpt lat="48.89534" lon="2.40841">
        <ele>55.1</ele>
        <time>2020-07-01T16:08:18Z</time>
      </trkpt>
      <trkpt lat="48.89535" lon="2.40833">
        <ele>55.1</ele>
        <time>2020-07-01T16:08:19Z</time>
      </trkpt>
      <trkpt lat="48.89537" lon="2.40824">
        <ele>55.1</ele>
        <time>2020-07-01T16:08:20Z</time>
      </trkpt>
      <trkpt lat="48.89538" lon="2.40816">
        <ele>55</ele>
        <time>2020-07-01T16:08:21Z</time>
      </trkpt>
      <trkpt lat="48.8954" lon="2.40808">
        <ele>55</ele>
        <time>2020-07-01T16:08:22Z</time>
      </trkpt>
      <trkpt lat="48.89541" lon="2.40799">
        <ele>55</ele>
        <time>2020-07-01T16:08:23Z</time>
      </trkpt>
      <trkpt lat="48.89543" lon="2.40791">
        <ele>55</ele>
        <time>2020-07-01T16:08:24Z</time>
      </trkpt>
      <trkpt lat="48.89544" lon="2.40783">
        <ele>55</ele>
        <time>2020-07-01T16:08:25Z</time>
      </trkpt>
      <trkpt lat="48.89544" lon="2.40775">
        <ele>55</ele>
        <time>2020-07-01T16:08:26Z</time>
      </trkpt>
      <trkpt lat="48.89545" lon="2.40769">
        <ele>55.1</ele>
        <time>2020-07-01T16:08:27Z</time>
      </trkpt>
      <trkpt lat="48.89546" lon="2.40761">
        <ele>55.1</ele>
        <time>2020-07-01T16:08:28Z</time>
      </trkpt>
      <trkpt lat="48.89547" lon="2.40754">
        <ele>55.1</ele>
        <time>2020-07-01T16:08:29Z</time>
      </trkpt>
      <trkpt lat="48.89547" lon="2.40748">
        <ele>55.1</ele>
        <time>2020-07-01T16:08:30Z</time>
      </trkpt>
      <trkpt lat="48.89548" lon="2.40743">
        <ele>55.1</ele>
        <time>2020-07-01T16:08:31Z</time>
      </trkpt>
      <trkpt lat="48.89548" lon="2.40737">
        <ele>55.1</ele>
        <time>2020-07-01T16:08:32Z</time>
      </trkpt>
      <trkpt lat="48.89549" lon="2.40733">
        <ele>55.2</ele>
        <time>2020-07-01T16:08:33Z</time>
      </trkpt>
      <trkpt lat="48.8955" lon="2.40729">
        <ele>55.2</ele>
        <time>2020-07-01T16:08:34Z</time>
      </trkpt>
      <trkpt lat="48.89551" lon="2.40726">
        <ele>55.2</ele>
        <time>2020-07-01T16:08:35Z</time>
      </trkpt>
      <trkpt lat="48.89552" lon="2.40724">
        <ele>55.2</ele>
        <time>2020-07-01T16:08:36Z</time>
      </trkpt>
      <trkpt lat="48.89552" lon="2.40722">
        <ele>55.2</ele>
        <time>2020-07-01T16:08:37Z</time>
      </trkpt>
      <trkpt lat="48.89553" lon="2.40721">
        <ele>55.2</ele>
        <time>2020-07-01T16:08:38Z</time>
      </trkpt>
      <trkpt lat="48.89554" lon="2.40718">
        <ele>55.3</ele>
        <time>2020-07-01T16:08:39Z</time>
      </trkpt>
      <trkpt lat="48.89554" lon="2.40715">
        <ele>55.3</ele>
        <time>2020-07-01T16:08:40Z</time>
      </trkpt>
      <trkpt lat="48.89554" lon="2.40715">
        <ele>55.3</ele>
        <time>2020-07-01T16:08:41Z</time>
      </trkpt>
      <trkpt lat="48.89554" lon="2.40715">
        <ele>55.3</ele>
        <time>2020-07-01T16:08:42Z</time>
      </trkpt>
      <trkpt lat="48.89554" lon="2.40716">
        <ele>55.3</ele>
        <time>2020-07-01T16:08:43Z</time>
      </trkpt>
      <trkpt lat="48.89554" lon="2.40716">
        <ele>55.3</ele>
        <time>2020-07-01T16:08:44Z</time>
      </trkpt>
      <trkpt lat="48.89554" lon="2.40717">
        <ele>55.3</ele>
        <time>2020-07-01T16:08:45Z</time>
      </trkpt>
      <trkpt lat="48.89553" lon="2.40717">
        <ele>55.3</ele>
        <time>2020-07-01T16:08:46Z</time>
      </trkpt>
      <trkpt lat="48.89553" lon="2.40716">
        <ele>55.3</ele>
        <time>2020-07-01T16:08:47Z</time>
      </trkpt>
      <trkpt lat="48.89554" lon="2.40715">
        <ele>55.3</ele>
        <time>2020-07-01T16:08:48Z</time>
      </trkpt>
      <trkpt lat="48.89554" lon="2.40715">
        <ele>55.3</ele>
        <time>2020-07-01T16:08:49Z</time>
      </trkpt>
      <trkpt lat="48.89553" lon="2.40716">
        <ele>55.3</ele>
        <time>2020-07-01T16:08:50Z</time>
      </trkpt>
      <trkpt lat="48.89553" lon="2.40717">
        <ele>55.3</ele>
        <time>2020-07-01T16:08:51Z</time>
      </trkpt>
      <trkpt lat="48.89552" lon="2.40716">
        <ele>55.3</ele>
        <time>2020-07-01T16:08:52Z</time>
      </trkpt>
      <trkpt lat="48.89552" lon="2.40715">
        <ele>55.3</ele>
        <time>2020-07-01T16:08:53Z</time>
      </trkpt>
      <trkpt lat="48.89552" lon="2.40716">
        <ele>55.3</ele>
        <time>2020-07-01T16:08:54Z</time>
      </trkpt>
      <trkpt lat="48.89552" lon="2.40717">
        <ele>55.3</ele>
        <time>2020-07-01T16:08:55Z</time>
      </trkpt>
      <trkpt lat="48.89552" lon="2.40719">
        <ele>55.4</ele>
        <time>2020-07-01T16:08:56Z</time>
      </trkpt>
      <trkpt lat="48.89552" lon="2.40719">
        <ele>55.4</ele>
        <time>2020-07-01T16:08:57Z</time>
      </trkpt>
      <trkpt lat="48.89551" lon="2.40719">
        <ele>55.4</ele>
        <time>2020-07-01T16:08:58Z</time>
      </trkpt>
      <trkpt lat="48.89551" lon="2.40719">
        <ele>55.4</ele>
        <time>2020-07-01T16:08:59Z</time>
      </trkpt>
      <trkpt lat="48.89551" lon="2.40718">
        <ele>55.4</ele>
        <time>2020-07-01T16:09:00Z</time>
      </trkpt>
      <trkpt lat="48.89551" lon="2.40718">
        <ele>55.4</ele>
        <time>2020-07-01T16:09:01Z</time>
      </trkpt>
      <trkpt lat="48.89551" lon="2.40718">
        <ele>55.4</ele>
        <time>2020-07-01T16:10:03Z</time>
      </trkpt>
      <trkpt lat="48.89551" lon="2.40717">
        <ele>55.4</ele>
        <time>2020-07-01T16:10:04Z</time>
      </trkpt>
      <trkpt lat="48.8955" lon="2.40721">
        <ele>55.4</ele>
        <time>2020-07-01T16:10:05Z</time>
      </trkpt>
      <trkpt lat="48.89549" lon="2.40726">
        <ele>55.4</ele>
        <time>2020-07-01T16:10:06Z</time>
      </trkpt>
      <trkpt lat="48.89547" lon="2.40732">
        <ele>55.5</ele>
        <time>2020-07-01T16:10:07Z</time>
      </trkpt>
      <trkpt lat="48.89545" lon="2.40738">
        <ele>55.4</ele>
        <time>2020-07-01T16:10:08Z</time>
      </trkpt>
      <trkpt lat="48.89544" lon="2.40745">
        <ele>55.4</ele>
        <time>2020-07-01T16:10:09Z</time>
      </trkpt>
      <trkpt lat="48.89542" lon="2.4075">
        <ele>55.3</ele>
        <time>2020-07-01T16:10:10Z</time>
      </trkpt>
      <trkpt lat="48.89541" lon="2.40756">
        <ele>55.3</ele>
        <time>2020-07-01T16:10:11Z</time>
      </trkpt>
      <trkpt lat="48.89539" lon="2.40762">
        <ele>55.3</ele>
        <time>2020-07-01T16:10:12Z</time>
      </trkpt>
      <trkpt lat="48.89538" lon="2.40766">
        <ele>55.2</ele>
        <time>2020-07-01T16:10:13Z</time>
      </trkpt>
      <trkpt lat="48.89537" lon="2.40771">
        <ele>55.2</ele>
        <time>2020-07-01T16:10:14Z</time>
      </trkpt>
      <trkpt lat="48.89537" lon="2.40776">
        <ele>55.2</ele>
        <time>2020-07-01T16:10:15Z</time>
      </trkpt>
      <trkpt lat="48.89537" lon="2.4078">
        <ele>55.1</ele>
        <time>2020-07-01T16:10:16Z</time>
      </trkpt>
      <trkpt lat="48.89537" lon="2.40785">
        <ele>55.1</ele>
        <time>2020-07-01T16:10:17Z</time>
      </trkpt>
      <trkpt lat="48.89537" lon="2.4079">
        <ele>55.1</ele>
        <time>2020-07-01T16:10:18Z</time>
      </trkpt>
      <trkpt lat="48.89537" lon="2.40795">
        <ele>55.1</ele>
        <time>2020-07-01T16:10:19Z</time>
      </trkpt>
      <trkpt lat="48.89536" lon="2.40801">
        <ele>55.1</ele>
        <time>2020-07-01T16:10:20Z</time>
      </trkpt>
      <trkpt lat="48.89535" lon="2.40802">
        <ele>55.1</ele>
        <time>2020-07-01T16:10:21Z</time>
      </trkpt>
      <trkpt lat="48.89534" lon="2.40806">
        <ele>55</ele>
        <time>2020-07-01T16:10:22Z</time>
      </trkpt>
      <trkpt lat="48.89534" lon="2.40811">
        <ele>55</ele>
        <time>2020-07-01T16:10:23Z</time>
      </trkpt>
      <trkpt lat="48.89535" lon="2.40816">
        <ele>55</ele>
        <time>2020-07-01T16:10:24Z</time>
      </trkpt>
      <trkpt lat="48.89535" lon="2.40817">
        <ele>55</ele>
        <time>2020-07-01T16:10:25Z</time>
      </trkpt>
      <trkpt lat="48.89536" lon="2.40818">
        <ele>55</ele>
        <time>2020-07-01T16:10:26Z</time>
      </trkpt>
      <trkpt lat="48.89537" lon="2.40819">
        <ele>55</ele>
        <time>2020-07-01T16:10:27Z</time>
      </trkpt>
      <trkpt lat="48.89537" lon="2.40821">
        <ele>55</ele>
        <time>2020-07-01T16:10:28Z</time>
      </trkpt>
      <trkpt lat="48.89538" lon="2.40822">
        <ele>55</ele>
        <time>2020-07-01T16:10:29Z</time>
      </trkpt>
      <trkpt lat="48.89538" lon="2.40822">
        <ele>55</ele>
        <time>2020-07-01T16:10:30Z</time>
      </trkpt>
      <trkpt lat="48.89538" lon="2.40823">
        <ele>55</ele>
        <time>2020-07-01T16:10:31Z</time>
      </trkpt>
      <trkpt lat="48.89538" lon="2.40823">
        <ele>55</ele>
        <time>2020-07-01T16:10:32Z</time>
      </trkpt>
      <trkpt lat="48.89539" lon="2.40824">
        <ele>55</ele>
        <time>2020-07-01T16:10:33Z</time>
      </trkpt>
      <trkpt lat="48.89539" lon="2.40825">
        <ele>55</ele>
        <time>2020-07-01T16:10:34Z</time>
      </trkpt>
      <trkpt lat="48.8954" lon="2.40825">
        <ele>55</ele>
        <time>2020-07-01T16:10:35Z</time>
      </trkpt>
      <trkpt lat="48.8954" lon="2.40825">
        <ele>55</ele>
        <time>2020-07-01T16:10:36Z</time>
      </trkpt>
      <trkpt lat="48.89541" lon="2.40826">
        <ele>55</ele>
        <time>2020-07-01T16:10:37Z</time>
      </trkpt>
      <trkpt lat="48.8954" lon="2.40827">
        <ele>55</ele>
        <time>2020-07-01T16:10:38Z</time>
      </trkpt>
      <trkpt lat="48.89541" lon="2.40829">
        <ele>55</ele>
        <time>2020-07-01T16:10:39Z</time>
      </trkpt>
      <trkpt lat="48.89541" lon="2.4083">
        <ele>55</ele>
        <time>2020-07-01T16:10:40Z</time>
      </trkpt>
      <trkpt lat="48.89541" lon="2.40831">
        <ele>55</ele>
        <time>2020-07-01T16:10:41Z</time>
      </trkpt>
      <trkpt lat="48.89541" lon="2.40832">
        <ele>55</ele>
        <time>2020-07-01T16:10:42Z</time>
      </trkpt>
      <trkpt lat="48.89541" lon="2.40832">
        <ele>55</ele>
        <time>2020-07-01T16:10:43Z</time>
      </trkpt>
      <trkpt lat="48.89542" lon="2.40831">
        <ele>55</ele>
        <time>2020-07-01T16:10:44Z</time>
      </trkpt>
      <trkpt lat="48.89542" lon="2.40832">
        <ele>55</ele>
        <time>2020-07-01T16:10:45Z</time>
      </trkpt>
      <trkpt lat="48.89542" lon="2.40833">
        <ele>55</ele>
        <time>2020-07-01T16:10:46Z</time>
      </trkpt>
      <trkpt lat="48.89542" lon="2.40835">
        <ele>55</ele>
        <time>2020-07-01T16:10:47Z</time>
      </trkpt>
      <trkpt lat="48.89541" lon="2.40837">
        <ele>55</ele>
        <time>2020-07-01T16:10:48Z</time>
      </trkpt>
      <trkpt lat="48.89541" lon="2.40843">
        <ele>55</ele>
        <time>2020-07-01T16:10:49Z</time>
      </trkpt>
      <trkpt lat="48.8954" lon="2.40845">
        <ele>55</ele>
        <time>2020-07-01T16:10:50Z</time>
      </trkpt>
      <trkpt lat="48.89539" lon="2.40849">
        <ele>55.1</ele>
        <time>2020-07-01T16:10:51Z</time>
      </trkpt>
      <trkpt lat="48.89538" lon="2.40853">
        <ele>55.1</ele>
        <time>2020-07-01T16:10:52Z</time>
      </trkpt>
      <trkpt lat="48.89537" lon="2.40857">
        <ele>55.1</ele>
        <time>2020-07-01T16:10:53Z</time>
      </trkpt>
      <trkpt lat="48.89536" lon="2.40861">
        <ele>55.1</ele>
        <time>2020-07-01T16:10:54Z</time>
      </trkpt>
      <trkpt lat="48.89536" lon="2.40866">
        <ele>55.1</ele>
        <time>2020-07-01T16:10:55Z</time>
      </trkpt>
      <trkpt lat="48.89535" lon="2.40871">
        <ele>55.1</ele>
        <time>2020-07-01T16:10:56Z</time>
      </trkpt>
      <trkpt lat="48.89536" lon="2.40877">
        <ele>55</ele>
        <time>2020-07-01T16:10:57Z</time>
      </trkpt>
      <trkpt lat="48.89535" lon="2.40883">
        <ele>55</ele>
        <time>2020-07-01T16:10:58Z</time>
      </trkpt>
      <trkpt lat="48.89538" lon="2.4089">
        <ele>55</ele>
        <time>2020-07-01T16:10:59Z</time>
      </trkpt>
      <trkpt lat="48.89537" lon="2.40898">
        <ele>55</ele>
        <time>2020-07-01T16:11:00Z</time>
      </trkpt>
      <trkpt lat="48.89537" lon="2.40905">
        <ele>55</ele>
        <time>2020-07-01T16:11:01Z</time>
      </trkpt>
      <trkpt lat="48.89537" lon="2.40913">
        <ele>55</ele>
        <time>2020-07-01T16:11:02Z</time>
      </trkpt>
      <trkpt lat="48.89534" lon="2.40919">
        <ele>55</ele>
        <time>2020-07-01T16:11:03Z</time>
      </trkpt>
      <trkpt lat="48.8953" lon="2.40926">
        <ele>55</ele>
        <time>2020-07-01T16:11:04Z</time>
      </trkpt>
      <trkpt lat="48.89528" lon="2.40934">
        <ele>55</ele>
        <time>2020-07-01T16:11:05Z</time>
      </trkpt>
      <trkpt lat="48.89528" lon="2.40941">
        <ele>54.9</ele>
        <time>2020-07-01T16:11:06Z</time>
      </trkpt>
      <trkpt lat="48.89528" lon="2.40945">
        <ele>55</ele>
        <time>2020-07-01T16:11:07Z</time>
      </trkpt>
      <trkpt lat="48.89527" lon="2.40952">
        <ele>55</ele>
        <time>2020-07-01T16:11:08Z</time>
      </trkpt>
      <trkpt lat="48.89527" lon="2.40954">
        <ele>55</ele>
        <time>2020-07-01T16:11:09Z</time>
      </trkpt>
      <trkpt lat="48.89527" lon="2.40959">
        <ele>59.9</ele>
        <time>2020-07-01T16:11:10Z</time>
      </trkpt>
      <trkpt lat="48.89526" lon="2.40959">
        <ele>59.9</ele>
        <time>2020-07-01T16:11:11Z</time>
      </trkpt>
      <trkpt lat="48.89527" lon="2.40962">
        <ele>59.9</ele>
        <time>2020-07-01T16:11:12Z</time>
      </trkpt>
      <trkpt lat="48.89527" lon="2.40964">
        <ele>60</ele>
        <time>2020-07-01T16:11:13Z</time>
      </trkpt>
      <trkpt lat="48.89526" lon="2.40967">
        <ele>60</ele>
        <time>2020-07-01T16:11:14Z</time>
      </trkpt>
      <trkpt lat="48.89524" lon="2.40967">
        <ele>60</ele>
        <time>2020-07-01T16:11:15Z</time>
      </trkpt>
      <trkpt lat="48.89523" lon="2.40967">
        <ele>60</ele>
        <time>2020-07-01T16:11:16Z</time>
      </trkpt>
      <trkpt lat="48.8952" lon="2.40967">
        <ele>59.9</ele>
        <time>2020-07-01T16:11:17Z</time>
      </trkpt>
      <trkpt lat="48.89517" lon="2.40967">
        <ele>59.9</ele>
        <time>2020-07-01T16:11:18Z</time>
      </trkpt>
      <trkpt lat="48.89514" lon="2.40967">
        <ele>59.8</ele>
        <time>2020-07-01T16:11:19Z</time>
      </trkpt>
      <trkpt lat="48.89511" lon="2.40966">
        <ele>59.7</ele>
        <time>2020-07-01T16:11:20Z</time>
      </trkpt>
      <trkpt lat="48.89507" lon="2.40967">
        <ele>59.6</ele>
        <time>2020-07-01T16:11:21Z</time>
      </trkpt>
      <trkpt lat="48.89503" lon="2.40967">
        <ele>59.4</ele>
        <time>2020-07-01T16:11:22Z</time>
      </trkpt>
      <trkpt lat="48.89499" lon="2.40966">
        <ele>59.3</ele>
        <time>2020-07-01T16:11:23Z</time>
      </trkpt>
      <trkpt lat="48.89495" lon="2.40964">
        <ele>59.3</ele>
        <time>2020-07-01T16:11:24Z</time>
      </trkpt>
      <trkpt lat="48.8949" lon="2.40964">
        <ele>59.2</ele>
        <time>2020-07-01T16:11:25Z</time>
      </trkpt>
      <trkpt lat="48.89485" lon="2.40962">
        <ele>59.2</ele>
        <time>2020-07-01T16:11:26Z</time>
      </trkpt>
      <trkpt lat="48.8948" lon="2.40961">
        <ele>59.1</ele>
        <time>2020-07-01T16:11:27Z</time>
      </trkpt>
      <trkpt lat="48.89474" lon="2.4096">
        <ele>58.9</ele>
        <time>2020-07-01T16:11:28Z</time>
      </trkpt>
      <trkpt lat="48.89468" lon="2.4096">
        <ele>58.8</ele>
        <time>2020-07-01T16:11:29Z</time>
      </trkpt>
      <trkpt lat="48.89462" lon="2.4096">
        <ele>58.6</ele>
        <time>2020-07-01T16:11:30Z</time>
      </trkpt>
      <trkpt lat="48.89456" lon="2.40961">
        <ele>58.4</ele>
        <time>2020-07-01T16:11:31Z</time>
      </trkpt>
      <trkpt lat="48.89449" lon="2.40962">
        <ele>58.3</ele>
        <time>2020-07-01T16:11:32Z</time>
      </trkpt>
      <trkpt lat="48.89441" lon="2.40963">
        <ele>58.1</ele>
        <time>2020-07-01T16:11:33Z</time>
      </trkpt>
      <trkpt lat="48.89433" lon="2.40963">
        <ele>57.9</ele>
        <time>2020-07-01T16:11:34Z</time>
      </trkpt>
      <trkpt lat="48.89426" lon="2.40963">
        <ele>57.7</ele>
        <time>2020-07-01T16:11:35Z</time>
      </trkpt>
      <trkpt lat="48.8942" lon="2.40962">
        <ele>57.6</ele>
        <time>2020-07-01T16:11:36Z</time>
      </trkpt>
      <trkpt lat="48.89415" lon="2.4096">
        <ele>57.5</ele>
        <time>2020-07-01T16:11:37Z</time>
      </trkpt>
      <trkpt lat="48.89411" lon="2.40959">
        <ele>57.4</ele>
        <time>2020-07-01T16:11:38Z</time>
      </trkpt>
      <trkpt lat="48.89405" lon="2.40959">
        <ele>57.3</ele>
        <time>2020-07-01T16:11:39Z</time>
      </trkpt>
      <trkpt lat="48.89402" lon="2.40957">
        <ele>57.2</ele>
        <time>2020-07-01T16:11:40Z</time>
      </trkpt>
      <trkpt lat="48.89395" lon="2.40957">
        <ele>57</ele>
        <time>2020-07-01T16:11:41Z</time>
      </trkpt>
      <trkpt lat="48.89391" lon="2.40958">
        <ele>57</ele>
        <time>2020-07-01T16:11:42Z</time>
      </trkpt>
      <trkpt lat="48.89388" lon="2.40959">
        <ele>56.9</ele>
        <time>2020-07-01T16:11:43Z</time>
      </trkpt>
      <trkpt lat="48.89387" lon="2.40959">
        <ele>56.9</ele>
        <time>2020-07-01T16:11:44Z</time>
      </trkpt>
      <trkpt lat="48.89384" lon="2.40961">
        <ele>56.8</ele>
        <time>2020-07-01T16:11:45Z</time>
      </trkpt>
      <trkpt lat="48.89383" lon="2.40961">
        <ele>56.8</ele>
        <time>2020-07-01T16:11:46Z</time>
      </trkpt>
      <trkpt lat="48.89382" lon="2.40961">
        <ele>56.8</ele>
        <time>2020-07-01T16:11:47Z</time>
      </trkpt>
      <trkpt lat="48.89381" lon="2.40962">
        <ele>56.8</ele>
        <time>2020-07-01T16:11:48Z</time>
      </trkpt>
      <trkpt lat="48.89382" lon="2.40961">
        <ele>56.8</ele>
        <time>2020-07-01T16:11:49Z</time>
      </trkpt>
      <trkpt lat="48.89383" lon="2.40962">
        <ele>56.7</ele>
        <time>2020-07-01T16:11:50Z</time>
      </trkpt>
      <trkpt lat="48.89384" lon="2.40963">
        <ele>56.7</ele>
        <time>2020-07-01T16:11:51Z</time>
      </trkpt>
      <trkpt lat="48.89384" lon="2.40962">
        <ele>56.7</ele>
        <time>2020-07-01T16:11:52Z</time>
      </trkpt>
      <trkpt lat="48.89384" lon="2.40963">
        <ele>56.7</ele>
        <time>2020-07-01T16:11:53Z</time>
      </trkpt>
      <trkpt lat="48.89384" lon="2.40963">
        <ele>56.7</ele>
        <time>2020-07-01T16:11:54Z</time>
      </trkpt>
      <trkpt lat="48.89384" lon="2.40963">
        <ele>56.7</ele>
        <time>2020-07-01T16:11:55Z</time>
      </trkpt>
      <trkpt lat="48.89376" lon="2.40962">
        <ele>56.5</ele>
        <time>2020-07-01T16:12:02Z</time>
      </trkpt>
      <trkpt lat="48.89372" lon="2.40962">
        <ele>56.6</ele>
        <time>2020-07-01T16:12:03Z</time>
      </trkpt>
      <trkpt lat="48.89369" lon="2.4096">
        <ele>56.6</ele>
        <time>2020-07-01T16:12:04Z</time>
      </trkpt>
      <trkpt lat="48.89365" lon="2.40959">
        <ele>56.7</ele>
        <time>2020-07-01T16:12:05Z</time>
      </trkpt>
      <trkpt lat="48.89362" lon="2.40959">
        <ele>56.7</ele>
        <time>2020-07-01T16:12:06Z</time>
      </trkpt>
      <trkpt lat="48.89358" lon="2.40959">
        <ele>56.7</ele>
        <time>2020-07-01T16:12:07Z</time>
      </trkpt>
      <trkpt lat="48.89353" lon="2.40957">
        <ele>56.7</ele>
        <time>2020-07-01T16:12:08Z</time>
      </trkpt>
      <trkpt lat="48.89349" lon="2.40956">
        <ele>56.7</ele>
        <time>2020-07-01T16:12:09Z</time>
      </trkpt>
      <trkpt lat="48.89345" lon="2.40956">
        <ele>56.7</ele>
        <time>2020-07-01T16:12:10Z</time>
      </trkpt>
      <trkpt lat="48.89343" lon="2.40957">
        <ele>56.7</ele>
        <time>2020-07-01T16:12:11Z</time>
      </trkpt>
      <trkpt lat="48.89338" lon="2.40954">
        <ele>56.7</ele>
        <time>2020-07-01T16:12:12Z</time>
      </trkpt>
      <trkpt lat="48.89333" lon="2.40954">
        <ele>56.7</ele>
        <time>2020-07-01T16:12:13Z</time>
      </trkpt>
      <trkpt lat="48.89328" lon="2.40954">
        <ele>56.8</ele>
        <time>2020-07-01T16:12:14Z</time>
      </trkpt>
      <trkpt lat="48.89323" lon="2.40953">
        <ele>56.8</ele>
        <time>2020-07-01T16:12:15Z</time>
      </trkpt>
      <trkpt lat="48.89318" lon="2.40952">
        <ele>56.8</ele>
        <time>2020-07-01T16:12:16Z</time>
      </trkpt>
      <trkpt lat="48.89313" lon="2.40952">
        <ele>56.9</ele>
        <time>2020-07-01T16:12:17Z</time>
      </trkpt>
      <trkpt lat="48.89308" lon="2.40951">
        <ele>56.9</ele>
        <time>2020-07-01T16:12:18Z</time>
      </trkpt>
      <trkpt lat="48.89304" lon="2.4095">
        <ele>57</ele>
        <time>2020-07-01T16:12:19Z</time>
      </trkpt>
      <trkpt lat="48.893" lon="2.40948">
        <ele>57</ele>
        <time>2020-07-01T16:12:20Z</time>
      </trkpt>
      <trkpt lat="48.89296" lon="2.40947">
        <ele>57.1</ele>
        <time>2020-07-01T16:12:21Z</time>
      </trkpt>
      <trkpt lat="48.89293" lon="2.40946">
        <ele>57.1</ele>
        <time>2020-07-01T16:12:22Z</time>
      </trkpt>
      <trkpt lat="48.89288" lon="2.40944">
        <ele>57.2</ele>
        <time>2020-07-01T16:12:23Z</time>
      </trkpt>
      <trkpt lat="48.89283" lon="2.40945">
        <ele>57.3</ele>
        <time>2020-07-01T16:12:24Z</time>
      </trkpt>
      <trkpt lat="48.8928" lon="2.40947">
        <ele>57.3</ele>
        <time>2020-07-01T16:12:25Z</time>
      </trkpt>
      <trkpt lat="48.89277" lon="2.40947">
        <ele>57.4</ele>
        <time>2020-07-01T16:12:26Z</time>
      </trkpt>
      <trkpt lat="48.89273" lon="2.40946">
        <ele>57.5</ele>
        <time>2020-07-01T16:12:27Z</time>
      </trkpt>
      <trkpt lat="48.89271" lon="2.40946">
        <ele>57.5</ele>
        <time>2020-07-01T16:12:28Z</time>
      </trkpt>
      <trkpt lat="48.8927" lon="2.40946">
        <ele>57.5</ele>
        <time>2020-07-01T16:12:29Z</time>
      </trkpt>
      <trkpt lat="48.89268" lon="2.40945">
        <ele>57.6</ele>
        <time>2020-07-01T16:12:30Z</time>
      </trkpt>
      <trkpt lat="48.89264" lon="2.40944">
        <ele>57.6</ele>
        <time>2020-07-01T16:12:31Z</time>
      </trkpt>
      <trkpt lat="48.89263" lon="2.40943">
        <ele>57.7</ele>
        <time>2020-07-01T16:12:32Z</time>
      </trkpt>
      <trkpt lat="48.89261" lon="2.40942">
        <ele>57.7</ele>
        <time>2020-07-01T16:12:33Z</time>
      </trkpt>
      <trkpt lat="48.89259" lon="2.40941">
        <ele>57.7</ele>
        <time>2020-07-01T16:12:34Z</time>
      </trkpt>
      <trkpt lat="48.89257" lon="2.40939">
        <ele>58.2</ele>
        <time>2020-07-01T16:12:35Z</time>
      </trkpt>
      <trkpt lat="48.89254" lon="2.40934">
        <ele>58.2</ele>
        <time>2020-07-01T16:12:36Z</time>
      </trkpt>
      <trkpt lat="48.89254" lon="2.40931">
        <ele>58.2</ele>
        <time>2020-07-01T16:12:37Z</time>
      </trkpt>
      <trkpt lat="48.89253" lon="2.40925">
        <ele>58.2</ele>
        <time>2020-07-01T16:12:38Z</time>
      </trkpt>
      <trkpt lat="48.89252" lon="2.4092">
        <ele>58.2</ele>
        <time>2020-07-01T16:12:39Z</time>
      </trkpt>
      <trkpt lat="48.8925" lon="2.40914">
        <ele>58.2</ele>
        <time>2020-07-01T16:12:40Z</time>
      </trkpt>
      <trkpt lat="48.89248" lon="2.40908">
        <ele>58.2</ele>
        <time>2020-07-01T16:12:41Z</time>
      </trkpt>
      <trkpt lat="48.89247" lon="2.40903">
        <ele>58.2</ele>
        <time>2020-07-01T16:12:42Z</time>
      </trkpt>
      <trkpt lat="48.89244" lon="2.40899">
        <ele>58.2</ele>
        <time>2020-07-01T16:12:43Z</time>
      </trkpt>
      <trkpt lat="48.89243" lon="2.40894">
        <ele>58.2</ele>
        <time>2020-07-01T16:12:44Z</time>
      </trkpt>
      <trkpt lat="48.89241" lon="2.40888">
        <ele>58.2</ele>
        <time>2020-07-01T16:12:45Z</time>
      </trkpt>
      <trkpt lat="48.8924" lon="2.40882">
        <ele>58.2</ele>
        <time>2020-07-01T16:12:46Z</time>
      </trkpt>
      <trkpt lat="48.89239" lon="2.40876">
        <ele>58.2</ele>
        <time>2020-07-01T16:12:47Z</time>
      </trkpt>
      <trkpt lat="48.89238" lon="2.4087">
        <ele>58.2</ele>
        <time>2020-07-01T16:12:48Z</time>
      </trkpt>
      <trkpt lat="48.89235" lon="2.40864">
        <ele>58.2</ele>
        <time>2020-07-01T16:12:49Z</time>
      </trkpt>
      <trkpt lat="48.89232" lon="2.40855">
        <ele>58.2</ele>
        <time>2020-07-01T16:12:50Z</time>
      </trkpt>
      <trkpt lat="48.8923" lon="2.40847">
        <ele>58.3</ele>
        <time>2020-07-01T16:12:51Z</time>
      </trkpt>
      <trkpt lat="48.89229" lon="2.40841">
        <ele>58.3</ele>
        <time>2020-07-01T16:12:52Z</time>
      </trkpt>
      <trkpt lat="48.89228" lon="2.40834">
        <ele>58.4</ele>
        <time>2020-07-01T16:12:53Z</time>
      </trkpt>
      <trkpt lat="48.89226" lon="2.40827">
        <ele>58.4</ele>
        <time>2020-07-01T16:12:54Z</time>
      </trkpt>
      <trkpt lat="48.89224" lon="2.4082">
        <ele>58.5</ele>
        <time>2020-07-01T16:12:55Z</time>
      </trkpt>
      <trkpt lat="48.89223" lon="2.40814">
        <ele>58.5</ele>
        <time>2020-07-01T16:12:56Z</time>
      </trkpt>
      <trkpt lat="48.89222" lon="2.40807">
        <ele>58.5</ele>
        <time>2020-07-01T16:12:57Z</time>
      </trkpt>
      <trkpt lat="48.89221" lon="2.408">
        <ele>58.6</ele>
        <time>2020-07-01T16:12:58Z</time>
      </trkpt>
      <trkpt lat="48.8922" lon="2.40792">
        <ele>58.6</ele>
        <time>2020-07-01T16:12:59Z</time>
      </trkpt>
      <trkpt lat="48.89218" lon="2.40783">
        <ele>58.7</ele>
        <time>2020-07-01T16:13:00Z</time>
      </trkpt>
      <trkpt lat="48.89216" lon="2.40776">
        <ele>58.7</ele>
        <time>2020-07-01T16:13:01Z</time>
      </trkpt>
      <trkpt lat="48.89214" lon="2.4077">
        <ele>58.7</ele>
        <time>2020-07-01T16:13:02Z</time>
      </trkpt>
      <trkpt lat="48.89214" lon="2.40762">
        <ele>58.8</ele>
        <time>2020-07-01T16:13:03Z</time>
      </trkpt>
      <trkpt lat="48.89214" lon="2.40754">
        <ele>58.8</ele>
        <time>2020-07-01T16:13:04Z</time>
      </trkpt>
      <trkpt lat="48.89213" lon="2.40748">
        <ele>58.8</ele>
        <time>2020-07-01T16:13:05Z</time>
      </trkpt>
      <trkpt lat="48.89212" lon="2.4074">
        <ele>58.8</ele>
        <time>2020-07-01T16:13:06Z</time>
      </trkpt>
      <trkpt lat="48.89212" lon="2.40732">
        <ele>58.9</ele>
        <time>2020-07-01T16:13:07Z</time>
      </trkpt>
      <trkpt lat="48.89211" lon="2.40725">
        <ele>58.9</ele>
        <time>2020-07-01T16:13:08Z</time>
      </trkpt>
      <trkpt lat="48.89209" lon="2.40718">
        <ele>58.9</ele>
        <time>2020-07-01T16:13:09Z</time>
      </trkpt>
      <trkpt lat="48.89207" lon="2.40711">
        <ele>59</ele>
        <time>2020-07-01T16:13:10Z</time>
      </trkpt>
      <trkpt lat="48.89206" lon="2.40703">
        <ele>59</ele>
        <time>2020-07-01T16:13:11Z</time>
      </trkpt>
      <trkpt lat="48.89206" lon="2.40696">
        <ele>59</ele>
        <time>2020-07-01T16:13:12Z</time>
      </trkpt>
      <trkpt lat="48.89206" lon="2.40686">
        <ele>59.1</ele>
        <time>2020-07-01T16:13:13Z</time>
      </trkpt>
      <trkpt lat="48.89205" lon="2.40679">
        <ele>59.2</ele>
        <time>2020-07-01T16:13:14Z</time>
      </trkpt>
      <trkpt lat="48.89202" lon="2.40672">
        <ele>59.2</ele>
        <time>2020-07-01T16:13:15Z</time>
      </trkpt>
      <trkpt lat="48.89201" lon="2.40663">
        <ele>59.3</ele>
        <time>2020-07-01T16:13:16Z</time>
      </trkpt>
      <trkpt lat="48.89201" lon="2.40655">
        <ele>59.3</ele>
        <time>2020-07-01T16:13:17Z</time>
      </trkpt>
      <trkpt lat="48.89199" lon="2.40646">
        <ele>59.3</ele>
        <time>2020-07-01T16:13:18Z</time>
      </trkpt>
      <trkpt lat="48.89198" lon="2.40639">
        <ele>59.4</ele>
        <time>2020-07-01T16:13:19Z</time>
      </trkpt>
      <trkpt lat="48.89195" lon="2.40631">
        <ele>59.4</ele>
        <time>2020-07-01T16:13:20Z</time>
      </trkpt>
      <trkpt lat="48.89192" lon="2.40625">
        <ele>59.4</ele>
        <time>2020-07-01T16:13:21Z</time>
      </trkpt>
      <trkpt lat="48.89191" lon="2.40618">
        <ele>59.5</ele>
        <time>2020-07-01T16:13:22Z</time>
      </trkpt>
      <trkpt lat="48.89189" lon="2.40613">
        <ele>59.5</ele>
        <time>2020-07-01T16:13:23Z</time>
      </trkpt>
      <trkpt lat="48.89187" lon="2.40607">
        <ele>59.6</ele>
        <time>2020-07-01T16:13:24Z</time>
      </trkpt>
      <trkpt lat="48.89184" lon="2.40603">
        <ele>59.6</ele>
        <time>2020-07-01T16:13:25Z</time>
      </trkpt>
      <trkpt lat="48.89181" lon="2.406">
        <ele>59.6</ele>
        <time>2020-07-01T16:13:26Z</time>
      </trkpt>
      <trkpt lat="48.89177" lon="2.40596">
        <ele>59.8</ele>
        <time>2020-07-01T16:13:27Z</time>
      </trkpt>
      <trkpt lat="48.89173" lon="2.40593">
        <ele>59.8</ele>
        <time>2020-07-01T16:13:28Z</time>
      </trkpt>
      <trkpt lat="48.8917" lon="2.4059">
        <ele>59.8</ele>
        <time>2020-07-01T16:13:29Z</time>
      </trkpt>
      <trkpt lat="48.89168" lon="2.40586">
        <ele>59.8</ele>
        <time>2020-07-01T16:13:30Z</time>
      </trkpt>
      <trkpt lat="48.89168" lon="2.40585">
        <ele>59.8</ele>
        <time>2020-07-01T16:13:31Z</time>
      </trkpt>
      <trkpt lat="48.89167" lon="2.40583">
        <ele>59.8</ele>
        <time>2020-07-01T16:13:32Z</time>
      </trkpt>
      <trkpt lat="48.89166" lon="2.4058">
        <ele>59.8</ele>
        <time>2020-07-01T16:13:33Z</time>
      </trkpt>
      <trkpt lat="48.89166" lon="2.40576">
        <ele>59.8</ele>
        <time>2020-07-01T16:13:34Z</time>
      </trkpt>
      <trkpt lat="48.89165" lon="2.40574">
        <ele>59.7</ele>
        <time>2020-07-01T16:13:35Z</time>
      </trkpt>
      <trkpt lat="48.89163" lon="2.40569">
        <ele>59.7</ele>
        <time>2020-07-01T16:13:36Z</time>
      </trkpt>
      <trkpt lat="48.89163" lon="2.40564">
        <ele>59.7</ele>
        <time>2020-07-01T16:13:37Z</time>
      </trkpt>
      <trkpt lat="48.89162" lon="2.40556">
        <ele>59.7</ele>
        <time>2020-07-01T16:13:38Z</time>
      </trkpt>
      <trkpt lat="48.89162" lon="2.40549">
        <ele>59.7</ele>
        <time>2020-07-01T16:13:39Z</time>
      </trkpt>
      <trkpt lat="48.89162" lon="2.40542">
        <ele>59.7</ele>
        <time>2020-07-01T16:13:40Z</time>
      </trkpt>
      <trkpt lat="48.89162" lon="2.40532">
        <ele>59.8</ele>
        <time>2020-07-01T16:13:41Z</time>
      </trkpt>
      <trkpt lat="48.8916" lon="2.40526">
        <ele>59.8</ele>
        <time>2020-07-01T16:13:42Z</time>
      </trkpt>
      <trkpt lat="48.89159" lon="2.40519">
        <ele>59.8</ele>
        <time>2020-07-01T16:13:43Z</time>
      </trkpt>
      <trkpt lat="48.89159" lon="2.40511">
        <ele>59.9</ele>
        <time>2020-07-01T16:13:44Z</time>
      </trkpt>
      <trkpt lat="48.89157" lon="2.40502">
        <ele>60</ele>
        <time>2020-07-01T16:13:45Z</time>
      </trkpt>
      <trkpt lat="48.89156" lon="2.40494">
        <ele>60</ele>
        <time>2020-07-01T16:13:46Z</time>
      </trkpt>
      <trkpt lat="48.89154" lon="2.40485">
        <ele>59.9</ele>
        <time>2020-07-01T16:13:47Z</time>
      </trkpt>
      <trkpt lat="48.89153" lon="2.40478">
        <ele>59.8</ele>
        <time>2020-07-01T16:13:48Z</time>
      </trkpt>
      <trkpt lat="48.89152" lon="2.4047">
        <ele>59.8</ele>
        <time>2020-07-01T16:13:49Z</time>
      </trkpt>
      <trkpt lat="48.8915" lon="2.4046">
        <ele>59.8</ele>
        <time>2020-07-01T16:13:50Z</time>
      </trkpt>
      <trkpt lat="48.89148" lon="2.40451">
        <ele>59.8</ele>
        <time>2020-07-01T16:13:51Z</time>
      </trkpt>
      <trkpt lat="48.89145" lon="2.40442">
        <ele>59.8</ele>
        <time>2020-07-01T16:13:52Z</time>
      </trkpt>
      <trkpt lat="48.89144" lon="2.40434">
        <ele>59.9</ele>
        <time>2020-07-01T16:13:53Z</time>
      </trkpt>
      <trkpt lat="48.89142" lon="2.40427">
        <ele>59.9</ele>
        <time>2020-07-01T16:13:54Z</time>
      </trkpt>
      <trkpt lat="48.89142" lon="2.40419">
        <ele>59.9</ele>
        <time>2020-07-01T16:13:55Z</time>
      </trkpt>
      <trkpt lat="48.89141" lon="2.40411">
        <ele>59.9</ele>
        <time>2020-07-01T16:13:56Z</time>
      </trkpt>
      <trkpt lat="48.89139" lon="2.40403">
        <ele>60</ele>
        <time>2020-07-01T16:13:57Z</time>
      </trkpt>
      <trkpt lat="48.89138" lon="2.40395">
        <ele>60</ele>
        <time>2020-07-01T16:13:58Z</time>
      </trkpt>
      <trkpt lat="48.89136" lon="2.40387">
        <ele>60.1</ele>
        <time>2020-07-01T16:13:59Z</time>
      </trkpt>
      <trkpt lat="48.89135" lon="2.4038">
        <ele>60.1</ele>
        <time>2020-07-01T16:14:00Z</time>
      </trkpt>
      <trkpt lat="48.89134" lon="2.40373">
        <ele>60.2</ele>
        <time>2020-07-01T16:14:01Z</time>
      </trkpt>
      <trkpt lat="48.89133" lon="2.40366">
        <ele>60.4</ele>
        <time>2020-07-01T16:14:02Z</time>
      </trkpt>
      <trkpt lat="48.89131" lon="2.40359">
        <ele>60.5</ele>
        <time>2020-07-01T16:14:03Z</time>
      </trkpt>
      <trkpt lat="48.8913" lon="2.40351">
        <ele>60.7</ele>
        <time>2020-07-01T16:14:04Z</time>
      </trkpt>
      <trkpt lat="48.89128" lon="2.40344">
        <ele>60.8</ele>
        <time>2020-07-01T16:14:05Z</time>
      </trkpt>
      <trkpt lat="48.89126" lon="2.40336">
        <ele>60.9</ele>
        <time>2020-07-01T16:14:06Z</time>
      </trkpt>
      <trkpt lat="48.89123" lon="2.40329">
        <ele>61</ele>
        <time>2020-07-01T16:14:07Z</time>
      </trkpt>
      <trkpt lat="48.89123" lon="2.40321">
        <ele>61.1</ele>
        <time>2020-07-01T16:14:08Z</time>
      </trkpt>
      <trkpt lat="48.89122" lon="2.40312">
        <ele>61.3</ele>
        <time>2020-07-01T16:14:09Z</time>
      </trkpt>
      <trkpt lat="48.89121" lon="2.40306">
        <ele>61.4</ele>
        <time>2020-07-01T16:14:10Z</time>
      </trkpt>
      <trkpt lat="48.89121" lon="2.40299">
        <ele>61.5</ele>
        <time>2020-07-01T16:14:11Z</time>
      </trkpt>
      <trkpt lat="48.89121" lon="2.40295">
        <ele>61.6</ele>
        <time>2020-07-01T16:14:12Z</time>
      </trkpt>
      <trkpt lat="48.8912" lon="2.40292">
        <ele>61.6</ele>
        <time>2020-07-01T16:14:13Z</time>
      </trkpt>
      <trkpt lat="48.89119" lon="2.4029">
        <ele>61.6</ele>
        <time>2020-07-01T16:14:14Z</time>
      </trkpt>
      <trkpt lat="48.8912" lon="2.40288">
        <ele>61.7</ele>
        <time>2020-07-01T16:14:15Z</time>
      </trkpt>
      <trkpt lat="48.8912" lon="2.40288">
        <ele>61.7</ele>
        <time>2020-07-01T16:14:16Z</time>
      </trkpt>
      <trkpt lat="48.8912" lon="2.40288">
        <ele>61.7</ele>
        <time>2020-07-01T16:14:17Z</time>
      </trkpt>
      <trkpt lat="48.8912" lon="2.40287">
        <ele>61.7</ele>
        <time>2020-07-01T16:14:18Z</time>
      </trkpt>
      <trkpt lat="48.8912" lon="2.40286">
        <ele>61.7</ele>
        <time>2020-07-01T16:14:19Z</time>
      </trkpt>
      <trkpt lat="48.89121" lon="2.40284">
        <ele>61.8</ele>
        <time>2020-07-01T16:14:20Z</time>
      </trkpt>
      <trkpt lat="48.89121" lon="2.40282">
        <ele>61.8</ele>
        <time>2020-07-01T16:14:21Z</time>
      </trkpt>
      <trkpt lat="48.89122" lon="2.4028">
        <ele>61.8</ele>
        <time>2020-07-01T16:14:22Z</time>
      </trkpt>
      <trkpt lat="48.89123" lon="2.40278">
        <ele>61.9</ele>
        <time>2020-07-01T16:14:23Z</time>
      </trkpt>
      <trkpt lat="48.89124" lon="2.40274">
        <ele>62</ele>
        <time>2020-07-01T16:14:24Z</time>
      </trkpt>
      <trkpt lat="48.89125" lon="2.40269">
        <ele>62</ele>
        <time>2020-07-01T16:14:25Z</time>
      </trkpt>
      <trkpt lat="48.89126" lon="2.40268">
        <ele>62</ele>
        <time>2020-07-01T16:14:26Z</time>
      </trkpt>
      <trkpt lat="48.89127" lon="2.40265">
        <ele>62.1</ele>
        <time>2020-07-01T16:14:27Z</time>
      </trkpt>
      <trkpt lat="48.89128" lon="2.40263">
        <ele>62.1</ele>
        <time>2020-07-01T16:14:28Z</time>
      </trkpt>
      <trkpt lat="48.89128" lon="2.40262">
        <ele>62.1</ele>
        <time>2020-07-01T16:14:29Z</time>
      </trkpt>
      <trkpt lat="48.89129" lon="2.4026">
        <ele>62.1</ele>
        <time>2020-07-01T16:14:30Z</time>
      </trkpt>
      <trkpt lat="48.89128" lon="2.40259">
        <ele>62.2</ele>
        <time>2020-07-01T16:14:31Z</time>
      </trkpt>
      <trkpt lat="48.89127" lon="2.40257">
        <ele>62.2</ele>
        <time>2020-07-01T16:14:32Z</time>
      </trkpt>
      <trkpt lat="48.89127" lon="2.40255">
        <ele>62.2</ele>
        <time>2020-07-01T16:14:33Z</time>
      </trkpt>
      <trkpt lat="48.89126" lon="2.40254">
        <ele>62.2</ele>
        <time>2020-07-01T16:14:34Z</time>
      </trkpt>
      <trkpt lat="48.89125" lon="2.40253">
        <ele>62.2</ele>
        <time>2020-07-01T16:14:35Z</time>
      </trkpt>
      <trkpt lat="48.89124" lon="2.40252">
        <ele>62.2</ele>
        <time>2020-07-01T16:14:36Z</time>
      </trkpt>
      <trkpt lat="48.89123" lon="2.4025">
        <ele>62.2</ele>
        <time>2020-07-01T16:14:37Z</time>
      </trkpt>
      <trkpt lat="48.89122" lon="2.40248">
        <ele>62.2</ele>
        <time>2020-07-01T16:14:38Z</time>
      </trkpt>
      <trkpt lat="48.8912" lon="2.40246">
        <ele>62.2</ele>
        <time>2020-07-01T16:14:39Z</time>
      </trkpt>
      <trkpt lat="48.89118" lon="2.40243">
        <ele>62.2</ele>
        <time>2020-07-01T16:14:40Z</time>
      </trkpt>
      <trkpt lat="48.89117" lon="2.40243">
        <ele>62.2</ele>
        <time>2020-07-01T16:14:41Z</time>
      </trkpt>
      <trkpt lat="48.89115" lon="2.40238">
        <ele>62.3</ele>
        <time>2020-07-01T16:14:42Z</time>
      </trkpt>
      <trkpt lat="48.89115" lon="2.40236">
        <ele>62.3</ele>
        <time>2020-07-01T16:14:43Z</time>
      </trkpt>
      <trkpt lat="48.89114" lon="2.40232">
        <ele>62.3</ele>
        <time>2020-07-01T16:14:44Z</time>
      </trkpt>
      <trkpt lat="48.89114" lon="2.40227">
        <ele>62.3</ele>
        <time>2020-07-01T16:14:45Z</time>
      </trkpt>
      <trkpt lat="48.89114" lon="2.40223">
        <ele>62.3</ele>
        <time>2020-07-01T16:14:46Z</time>
      </trkpt>
      <trkpt lat="48.89114" lon="2.40221">
        <ele>62.3</ele>
        <time>2020-07-01T16:14:47Z</time>
      </trkpt>
      <trkpt lat="48.89113" lon="2.40216">
        <ele>62.3</ele>
        <time>2020-07-01T16:14:48Z</time>
      </trkpt>
      <trkpt lat="48.89112" lon="2.40212">
        <ele>62.4</ele>
        <time>2020-07-01T16:14:49Z</time>
      </trkpt>
      <trkpt lat="48.89111" lon="2.40208">
        <ele>62.4</ele>
        <time>2020-07-01T16:14:50Z</time>
      </trkpt>
      <trkpt lat="48.8911" lon="2.40202">
        <ele>62.4</ele>
        <time>2020-07-01T16:14:51Z</time>
      </trkpt>
      <trkpt lat="48.89109" lon="2.40199">
        <ele>62.4</ele>
        <time>2020-07-01T16:14:52Z</time>
      </trkpt>
      <trkpt lat="48.89108" lon="2.40192">
        <ele>62.4</ele>
        <time>2020-07-01T16:14:53Z</time>
      </trkpt>
      <trkpt lat="48.89107" lon="2.40185">
        <ele>62.4</ele>
        <time>2020-07-01T16:14:54Z</time>
      </trkpt>
      <trkpt lat="48.89106" lon="2.40178">
        <ele>62.4</ele>
        <time>2020-07-01T16:14:55Z</time>
      </trkpt>
      <trkpt lat="48.89104" lon="2.40172">
        <ele>62.4</ele>
        <time>2020-07-01T16:14:56Z</time>
      </trkpt>
      <trkpt lat="48.89101" lon="2.40166">
        <ele>62.4</ele>
        <time>2020-07-01T16:14:57Z</time>
      </trkpt>
      <trkpt lat="48.89101" lon="2.40159">
        <ele>62.3</ele>
        <time>2020-07-01T16:14:58Z</time>
      </trkpt>
      <trkpt lat="48.891" lon="2.40151">
        <ele>62.3</ele>
        <time>2020-07-01T16:14:59Z</time>
      </trkpt>
      <trkpt lat="48.89097" lon="2.40145">
        <ele>62.3</ele>
        <time>2020-07-01T16:15:00Z</time>
      </trkpt>
      <trkpt lat="48.89095" lon="2.40137">
        <ele>62.3</ele>
        <time>2020-07-01T16:15:01Z</time>
      </trkpt>
      <trkpt lat="48.89095" lon="2.40129">
        <ele>62.3</ele>
        <time>2020-07-01T16:15:02Z</time>
      </trkpt>
      <trkpt lat="48.89094" lon="2.40123">
        <ele>62.3</ele>
        <time>2020-07-01T16:15:03Z</time>
      </trkpt>
      <trkpt lat="48.89093" lon="2.40116">
        <ele>62.3</ele>
        <time>2020-07-01T16:15:04Z</time>
      </trkpt>
      <trkpt lat="48.89091" lon="2.40111">
        <ele>62.3</ele>
        <time>2020-07-01T16:15:05Z</time>
      </trkpt>
      <trkpt lat="48.8909" lon="2.40104">
        <ele>62.3</ele>
        <time>2020-07-01T16:15:06Z</time>
      </trkpt>
      <trkpt lat="48.89089" lon="2.40099">
        <ele>62.3</ele>
        <time>2020-07-01T16:15:07Z</time>
      </trkpt>
      <trkpt lat="48.89088" lon="2.40094">
        <ele>62.2</ele>
        <time>2020-07-01T16:15:08Z</time>
      </trkpt>
      <trkpt lat="48.89088" lon="2.40089">
        <ele>62.2</ele>
        <time>2020-07-01T16:15:09Z</time>
      </trkpt>
      <trkpt lat="48.89089" lon="2.40088">
        <ele>62.2</ele>
        <time>2020-07-01T16:15:10Z</time>
      </trkpt>
      <trkpt lat="48.89088" lon="2.40089">
        <ele>62.2</ele>
        <time>2020-07-01T16:15:11Z</time>
      </trkpt>
      <trkpt lat="48.89088" lon="2.40088">
        <ele>62.2</ele>
        <time>2020-07-01T16:15:12Z</time>
      </trkpt>
      <trkpt lat="48.89088" lon="2.40084">
        <ele>62.2</ele>
        <time>2020-07-01T16:15:13Z</time>
      </trkpt>
      <trkpt lat="48.89085" lon="2.40079">
        <ele>62.2</ele>
        <time>2020-07-01T16:15:14Z</time>
      </trkpt>
      <trkpt lat="48.89084" lon="2.40077">
        <ele>62.2</ele>
        <time>2020-07-01T16:15:15Z</time>
      </trkpt>
      <trkpt lat="48.89082" lon="2.40073">
        <ele>62.2</ele>
        <time>2020-07-01T16:15:16Z</time>
      </trkpt>
      <trkpt lat="48.8908" lon="2.40066">
        <ele>62.1</ele>
        <time>2020-07-01T16:15:17Z</time>
      </trkpt>
      <trkpt lat="48.89078" lon="2.4006">
        <ele>62</ele>
        <time>2020-07-01T16:15:18Z</time>
      </trkpt>
      <trkpt lat="48.89076" lon="2.40052">
        <ele>61.9</ele>
        <time>2020-07-01T16:15:19Z</time>
      </trkpt>
      <trkpt lat="48.89074" lon="2.40044">
        <ele>61.8</ele>
        <time>2020-07-01T16:15:20Z</time>
      </trkpt>
      <trkpt lat="48.89074" lon="2.40036">
        <ele>61.7</ele>
        <time>2020-07-01T16:15:21Z</time>
      </trkpt>
      <trkpt lat="48.89073" lon="2.40027">
        <ele>61.5</ele>
        <time>2020-07-01T16:15:22Z</time>
      </trkpt>
      <trkpt lat="48.89071" lon="2.40017">
        <ele>61.4</ele>
        <time>2020-07-01T16:15:23Z</time>
      </trkpt>
      <trkpt lat="48.89069" lon="2.40009">
        <ele>61.3</ele>
        <time>2020-07-01T16:15:24Z</time>
      </trkpt>
      <trkpt lat="48.89067" lon="2.40001">
        <ele>61.1</ele>
        <time>2020-07-01T16:15:25Z</time>
      </trkpt>
      <trkpt lat="48.89065" lon="2.39992">
        <ele>61</ele>
        <time>2020-07-01T16:15:26Z</time>
      </trkpt>
      <trkpt lat="48.89063" lon="2.39983">
        <ele>60.9</ele>
        <time>2020-07-01T16:15:27Z</time>
      </trkpt>
      <trkpt lat="48.89061" lon="2.39974">
        <ele>60.8</ele>
        <time>2020-07-01T16:15:28Z</time>
      </trkpt>
      <trkpt lat="48.89059" lon="2.39965">
        <ele>60.8</ele>
        <time>2020-07-01T16:15:29Z</time>
      </trkpt>
      <trkpt lat="48.89058" lon="2.39957">
        <ele>60.7</ele>
        <time>2020-07-01T16:15:30Z</time>
      </trkpt>
      <trkpt lat="48.89057" lon="2.39949">
        <ele>60.7</ele>
        <time>2020-07-01T16:15:31Z</time>
      </trkpt>
      <trkpt lat="48.89056" lon="2.39941">
        <ele>60.7</ele>
        <time>2020-07-01T16:15:32Z</time>
      </trkpt>
      <trkpt lat="48.89053" lon="2.39934">
        <ele>60.7</ele>
        <time>2020-07-01T16:15:33Z</time>
      </trkpt>
      <trkpt lat="48.89053" lon="2.3993">
        <ele>60.7</ele>
        <time>2020-07-01T16:15:34Z</time>
      </trkpt>
      <trkpt lat="48.89055" lon="2.39924">
        <ele>60.7</ele>
        <time>2020-07-01T16:15:35Z</time>
      </trkpt>
      <trkpt lat="48.89057" lon="2.39919">
        <ele>60.7</ele>
        <time>2020-07-01T16:15:36Z</time>
      </trkpt>
      <trkpt lat="48.89056" lon="2.39912">
        <ele>60.6</ele>
        <time>2020-07-01T16:15:37Z</time>
      </trkpt>
      <trkpt lat="48.89056" lon="2.39904">
        <ele>60.6</ele>
        <time>2020-07-01T16:15:38Z</time>
      </trkpt>
      <trkpt lat="48.89055" lon="2.39897">
        <ele>60.6</ele>
        <time>2020-07-01T16:15:39Z</time>
      </trkpt>
      <trkpt lat="48.89054" lon="2.39893">
        <ele>60.6</ele>
        <time>2020-07-01T16:15:40Z</time>
      </trkpt>
      <trkpt lat="48.89052" lon="2.39892">
        <ele>60.6</ele>
        <time>2020-07-01T16:15:41Z</time>
      </trkpt>
      <trkpt lat="48.89052" lon="2.39891">
        <ele>60.6</ele>
        <time>2020-07-01T16:15:42Z</time>
      </trkpt>
      <trkpt lat="48.89051" lon="2.39891">
        <ele>60.5</ele>
        <time>2020-07-01T16:15:43Z</time>
      </trkpt>
      <trkpt lat="48.89051" lon="2.3989">
        <ele>60.5</ele>
        <time>2020-07-01T16:15:44Z</time>
      </trkpt>
      <trkpt lat="48.89051" lon="2.3989">
        <ele>60.5</ele>
        <time>2020-07-01T16:15:45Z</time>
      </trkpt>
      <trkpt lat="48.89051" lon="2.3989">
        <ele>60.5</ele>
        <time>2020-07-01T16:15:46Z</time>
      </trkpt>
      <trkpt lat="48.8905" lon="2.39889">
        <ele>60.5</ele>
        <time>2020-07-01T16:15:47Z</time>
      </trkpt>
      <trkpt lat="48.8905" lon="2.39889">
        <ele>60.5</ele>
        <time>2020-07-01T16:15:48Z</time>
      </trkpt>
      <trkpt lat="48.8905" lon="2.39889">
        <ele>60.5</ele>
        <time>2020-07-01T16:15:49Z</time>
      </trkpt>
      <trkpt lat="48.8905" lon="2.39889">
        <ele>60.5</ele>
        <time>2020-07-01T16:15:50Z</time>
      </trkpt>
      <trkpt lat="48.8905" lon="2.39888">
        <ele>60.5</ele>
        <time>2020-07-01T16:15:51Z</time>
      </trkpt>
      <trkpt lat="48.8905" lon="2.39888">
        <ele>60.5</ele>
        <time>2020-07-01T16:15:52Z</time>
      </trkpt>
      <trkpt lat="48.8905" lon="2.39888">
        <ele>60.5</ele>
        <time>2020-07-01T16:15:53Z</time>
      </trkpt>
      <trkpt lat="48.8905" lon="2.39887">
        <ele>60.5</ele>
        <time>2020-07-01T16:15:54Z</time>
      </trkpt>
      <trkpt lat="48.8905" lon="2.39887">
        <ele>60.5</ele>
        <time>2020-07-01T16:15:55Z</time>
      </trkpt>
      <trkpt lat="48.8905" lon="2.39887">
        <ele>60.5</ele>
        <time>2020-07-01T16:15:56Z</time>
      </trkpt>
      <trkpt lat="48.8905" lon="2.39887">
        <ele>60.5</ele>
        <time>2020-07-01T16:15:57Z</time>
      </trkpt>
      <trkpt lat="48.8905" lon="2.39886">
        <ele>60.5</ele>
        <time>2020-07-01T16:15:58Z</time>
      </trkpt>
      <trkpt lat="48.8905" lon="2.39886">
        <ele>60.5</ele>
        <time>2020-07-01T16:15:59Z</time>
      </trkpt>
      <trkpt lat="48.89049" lon="2.39886">
        <ele>60.5</ele>
        <time>2020-07-01T16:16:00Z</time>
      </trkpt>
      <trkpt lat="48.89049" lon="2.39885">
        <ele>60.5</ele>
        <time>2020-07-01T16:16:01Z</time>
      </trkpt>
      <trkpt lat="48.89049" lon="2.39881">
        <ele>60.6</ele>
        <time>2020-07-01T16:16:02Z</time>
      </trkpt>
      <trkpt lat="48.89047" lon="2.39876">
        <ele>60.5</ele>
        <time>2020-07-01T16:16:03Z</time>
      </trkpt>
      <trkpt lat="48.89047" lon="2.39874">
        <ele>60.5</ele>
        <time>2020-07-01T16:16:04Z</time>
      </trkpt>
      <trkpt lat="48.89046" lon="2.39868">
        <ele>60.4</ele>
        <time>2020-07-01T16:16:05Z</time>
      </trkpt>
      <trkpt lat="48.89045" lon="2.39862">
        <ele>60.4</ele>
        <time>2020-07-01T16:16:06Z</time>
      </trkpt>
      <trkpt lat="48.89042" lon="2.39855">
        <ele>60.4</ele>
        <time>2020-07-01T16:16:07Z</time>
      </trkpt>
      <trkpt lat="48.8904" lon="2.39848">
        <ele>60.4</ele>
        <time>2020-07-01T16:16:08Z</time>
      </trkpt>
      <trkpt lat="48.89037" lon="2.39841">
        <ele>60.4</ele>
        <time>2020-07-01T16:16:09Z</time>
      </trkpt>
      <trkpt lat="48.89035" lon="2.39832">
        <ele>60.4</ele>
        <time>2020-07-01T16:16:10Z</time>
      </trkpt>
      <trkpt lat="48.89034" lon="2.39822">
        <ele>60.4</ele>
        <time>2020-07-01T16:16:11Z</time>
      </trkpt>
      <trkpt lat="48.89032" lon="2.39812">
        <ele>60.4</ele>
        <time>2020-07-01T16:16:12Z</time>
      </trkpt>
      <trkpt lat="48.89031" lon="2.39803">
        <ele>60.4</ele>
        <time>2020-07-01T16:16:13Z</time>
      </trkpt>
      <trkpt lat="48.89028" lon="2.39793">
        <ele>60.4</ele>
        <time>2020-07-01T16:16:14Z</time>
      </trkpt>
      <trkpt lat="48.89025" lon="2.39783">
        <ele>60.4</ele>
        <time>2020-07-01T16:16:15Z</time>
      </trkpt>
      <trkpt lat="48.89022" lon="2.39774">
        <ele>60.3</ele>
        <time>2020-07-01T16:16:16Z</time>
      </trkpt>
      <trkpt lat="48.8902" lon="2.39764">
        <ele>60.3</ele>
        <time>2020-07-01T16:16:17Z</time>
      </trkpt>
      <trkpt lat="48.89018" lon="2.39755">
        <ele>60.3</ele>
        <time>2020-07-01T16:16:18Z</time>
      </trkpt>
      <trkpt lat="48.89015" lon="2.39745">
        <ele>60.4</ele>
        <time>2020-07-01T16:16:19Z</time>
      </trkpt>
      <trkpt lat="48.89013" lon="2.39736">
        <ele>60.5</ele>
        <time>2020-07-01T16:16:20Z</time>
      </trkpt>
      <trkpt lat="48.89011" lon="2.39728">
        <ele>60.5</ele>
        <time>2020-07-01T16:16:21Z</time>
      </trkpt>
      <trkpt lat="48.89009" lon="2.39721">
        <ele>60.6</ele>
        <time>2020-07-01T16:16:22Z</time>
      </trkpt>
      <trkpt lat="48.89007" lon="2.39715">
        <ele>60.6</ele>
        <time>2020-07-01T16:16:23Z</time>
      </trkpt>
      <trkpt lat="48.89005" lon="2.39708">
        <ele>60.7</ele>
        <time>2020-07-01T16:16:24Z</time>
      </trkpt>
      <trkpt lat="48.89003" lon="2.39702">
        <ele>60.7</ele>
        <time>2020-07-01T16:16:25Z</time>
      </trkpt>
      <trkpt lat="48.89001" lon="2.39696">
        <ele>60.8</ele>
        <time>2020-07-01T16:16:26Z</time>
      </trkpt>
      <trkpt lat="48.88997" lon="2.39689">
        <ele>60.9</ele>
        <time>2020-07-01T16:16:27Z</time>
      </trkpt>
      <trkpt lat="48.88995" lon="2.39681">
        <ele>60.9</ele>
        <time>2020-07-01T16:16:28Z</time>
      </trkpt>
      <trkpt lat="48.88994" lon="2.39673">
        <ele>61</ele>
        <time>2020-07-01T16:16:29Z</time>
      </trkpt>
      <trkpt lat="48.88992" lon="2.39665">
        <ele>61.1</ele>
        <time>2020-07-01T16:16:30Z</time>
      </trkpt>
      <trkpt lat="48.88989" lon="2.39657">
        <ele>61.1</ele>
        <time>2020-07-01T16:16:31Z</time>
      </trkpt>
      <trkpt lat="48.88986" lon="2.39649">
        <ele>61.2</ele>
        <time>2020-07-01T16:16:32Z</time>
      </trkpt>
      <trkpt lat="48.88984" lon="2.39642">
        <ele>61.3</ele>
        <time>2020-07-01T16:16:33Z</time>
      </trkpt>
      <trkpt lat="48.88982" lon="2.39635">
        <ele>61.4</ele>
        <time>2020-07-01T16:16:34Z</time>
      </trkpt>
      <trkpt lat="48.8898" lon="2.39628">
        <ele>61.4</ele>
        <time>2020-07-01T16:16:35Z</time>
      </trkpt>
      <trkpt lat="48.88978" lon="2.39622">
        <ele>61.5</ele>
        <time>2020-07-01T16:16:36Z</time>
      </trkpt>
      <trkpt lat="48.88977" lon="2.39616">
        <ele>61.5</ele>
        <time>2020-07-01T16:16:37Z</time>
      </trkpt>
      <trkpt lat="48.88975" lon="2.39612">
        <ele>61.6</ele>
        <time>2020-07-01T16:16:38Z</time>
      </trkpt>
      <trkpt lat="48.88973" lon="2.39604">
        <ele>61.7</ele>
        <time>2020-07-01T16:16:39Z</time>
      </trkpt>
      <trkpt lat="48.88971" lon="2.396">
        <ele>61.7</ele>
        <time>2020-07-01T16:16:40Z</time>
      </trkpt>
      <trkpt lat="48.88971" lon="2.39595">
        <ele>61.7</ele>
        <time>2020-07-01T16:16:41Z</time>
      </trkpt>
      <trkpt lat="48.8897" lon="2.39593">
        <ele>61.8</ele>
        <time>2020-07-01T16:16:42Z</time>
      </trkpt>
      <trkpt lat="48.8897" lon="2.39591">
        <ele>61.8</ele>
        <time>2020-07-01T16:16:43Z</time>
      </trkpt>
      <trkpt lat="48.88969" lon="2.39587">
        <ele>61.8</ele>
        <time>2020-07-01T16:16:44Z</time>
      </trkpt>
      <trkpt lat="48.88968" lon="2.39583">
        <ele>61.8</ele>
        <time>2020-07-01T16:16:45Z</time>
      </trkpt>
      <trkpt lat="48.88968" lon="2.39582">
        <ele>61.8</ele>
        <time>2020-07-01T16:16:46Z</time>
      </trkpt>
      <trkpt lat="48.88967" lon="2.39581">
        <ele>61.8</ele>
        <time>2020-07-01T16:16:47Z</time>
      </trkpt>
      <trkpt lat="48.88966" lon="2.39578">
        <ele>61.8</ele>
        <time>2020-07-01T16:16:48Z</time>
      </trkpt>
      <trkpt lat="48.88966" lon="2.39576">
        <ele>61.9</ele>
        <time>2020-07-01T16:16:49Z</time>
      </trkpt>
      <trkpt lat="48.88964" lon="2.39575">
        <ele>61.9</ele>
        <time>2020-07-01T16:16:50Z</time>
      </trkpt>
      <trkpt lat="48.88961" lon="2.39573">
        <ele>61.9</ele>
        <time>2020-07-01T16:16:51Z</time>
      </trkpt>
      <trkpt lat="48.88958" lon="2.39569">
        <ele>62</ele>
        <time>2020-07-01T16:16:52Z</time>
      </trkpt>
      <trkpt lat="48.88956" lon="2.39566">
        <ele>62</ele>
        <time>2020-07-01T16:16:53Z</time>
      </trkpt>
      <trkpt lat="48.88954" lon="2.39563">
        <ele>61.9</ele>
        <time>2020-07-01T16:16:54Z</time>
      </trkpt>
      <trkpt lat="48.88952" lon="2.39558">
        <ele>61.7</ele>
        <time>2020-07-01T16:16:55Z</time>
      </trkpt>
      <trkpt lat="48.8895" lon="2.39552">
        <ele>61.6</ele>
        <time>2020-07-01T16:16:56Z</time>
      </trkpt>
      <trkpt lat="48.88949" lon="2.39547">
        <ele>61.5</ele>
        <time>2020-07-01T16:16:57Z</time>
      </trkpt>
      <trkpt lat="48.88948" lon="2.39541">
        <ele>61.5</ele>
        <time>2020-07-01T16:16:58Z</time>
      </trkpt>
      <trkpt lat="48.88946" lon="2.39534">
        <ele>61.5</ele>
        <time>2020-07-01T16:16:59Z</time>
      </trkpt>
      <trkpt lat="48.88944" lon="2.39529">
        <ele>61.7</ele>
        <time>2020-07-01T16:17:00Z</time>
      </trkpt>
      <trkpt lat="48.88943" lon="2.39524">
        <ele>61.7</ele>
        <time>2020-07-01T16:17:01Z</time>
      </trkpt>
      <trkpt lat="48.88941" lon="2.39518">
        <ele>61.6</ele>
        <time>2020-07-01T16:17:02Z</time>
      </trkpt>
      <trkpt lat="48.88939" lon="2.39512">
        <ele>61.6</ele>
        <time>2020-07-01T16:17:03Z</time>
      </trkpt>
      <trkpt lat="48.88937" lon="2.39507">
        <ele>61.6</ele>
        <time>2020-07-01T16:17:04Z</time>
      </trkpt>
      <trkpt lat="48.88935" lon="2.39501">
        <ele>61.5</ele>
        <time>2020-07-01T16:17:05Z</time>
      </trkpt>
      <trkpt lat="48.88934" lon="2.39496">
        <ele>61.5</ele>
        <time>2020-07-01T16:17:06Z</time>
      </trkpt>
      <trkpt lat="48.88933" lon="2.39491">
        <ele>61.5</ele>
        <time>2020-07-01T16:17:07Z</time>
      </trkpt>
      <trkpt lat="48.88932" lon="2.39486">
        <ele>61.5</ele>
        <time>2020-07-01T16:17:08Z</time>
      </trkpt>
      <trkpt lat="48.8893" lon="2.39479">
        <ele>61.4</ele>
        <time>2020-07-01T16:17:09Z</time>
      </trkpt>
      <trkpt lat="48.88928" lon="2.39472">
        <ele>61.2</ele>
        <time>2020-07-01T16:17:10Z</time>
      </trkpt>
      <trkpt lat="48.88925" lon="2.39464">
        <ele>60.9</ele>
        <time>2020-07-01T16:17:11Z</time>
      </trkpt>
      <trkpt lat="48.88923" lon="2.39457">
        <ele>60.7</ele>
        <time>2020-07-01T16:17:12Z</time>
      </trkpt>
      <trkpt lat="48.88921" lon="2.39449">
        <ele>60.5</ele>
        <time>2020-07-01T16:17:13Z</time>
      </trkpt>
      <trkpt lat="48.88919" lon="2.39443">
        <ele>60.4</ele>
        <time>2020-07-01T16:17:14Z</time>
      </trkpt>
      <trkpt lat="48.88916" lon="2.39436">
        <ele>60.2</ele>
        <time>2020-07-01T16:17:15Z</time>
      </trkpt>
      <trkpt lat="48.88913" lon="2.39428">
        <ele>60</ele>
        <time>2020-07-01T16:17:16Z</time>
      </trkpt>
      <trkpt lat="48.8891" lon="2.3942">
        <ele>59.8</ele>
        <time>2020-07-01T16:17:17Z</time>
      </trkpt>
      <trkpt lat="48.88908" lon="2.39411">
        <ele>59.6</ele>
        <time>2020-07-01T16:17:18Z</time>
      </trkpt>
      <trkpt lat="48.88905" lon="2.39403">
        <ele>59.4</ele>
        <time>2020-07-01T16:17:19Z</time>
      </trkpt>
      <trkpt lat="48.88901" lon="2.39392">
        <ele>59.2</ele>
        <time>2020-07-01T16:17:20Z</time>
      </trkpt>
      <trkpt lat="48.88898" lon="2.39383">
        <ele>59.1</ele>
        <time>2020-07-01T16:17:21Z</time>
      </trkpt>
      <trkpt lat="48.88894" lon="2.39373">
        <ele>58.9</ele>
        <time>2020-07-01T16:17:22Z</time>
      </trkpt>
      <trkpt lat="48.88892" lon="2.39365">
        <ele>58.8</ele>
        <time>2020-07-01T16:17:23Z</time>
      </trkpt>
      <trkpt lat="48.8889" lon="2.39355">
        <ele>58.5</ele>
        <time>2020-07-01T16:17:24Z</time>
      </trkpt>
      <trkpt lat="48.88888" lon="2.39345">
        <ele>58.4</ele>
        <time>2020-07-01T16:17:25Z</time>
      </trkpt>
      <trkpt lat="48.88886" lon="2.39334">
        <ele>58.2</ele>
        <time>2020-07-01T16:17:26Z</time>
      </trkpt>
      <trkpt lat="48.88884" lon="2.39322">
        <ele>57.9</ele>
        <time>2020-07-01T16:17:27Z</time>
      </trkpt>
      <trkpt lat="48.88882" lon="2.39311">
        <ele>57.7</ele>
        <time>2020-07-01T16:17:28Z</time>
      </trkpt>
      <trkpt lat="48.88881" lon="2.393">
        <ele>57.7</ele>
        <time>2020-07-01T16:17:29Z</time>
      </trkpt>
      <trkpt lat="48.88878" lon="2.39289">
        <ele>57.6</ele>
        <time>2020-07-01T16:17:30Z</time>
      </trkpt>
      <trkpt lat="48.88876" lon="2.39279">
        <ele>57.6</ele>
        <time>2020-07-01T16:17:31Z</time>
      </trkpt>
      <trkpt lat="48.88874" lon="2.3927">
        <ele>57.5</ele>
        <time>2020-07-01T16:17:32Z</time>
      </trkpt>
      <trkpt lat="48.88871" lon="2.39258">
        <ele>57.4</ele>
        <time>2020-07-01T16:17:33Z</time>
      </trkpt>
      <trkpt lat="48.88868" lon="2.39247">
        <ele>57.3</ele>
        <time>2020-07-01T16:17:34Z</time>
      </trkpt>
      <trkpt lat="48.88865" lon="2.39235">
        <ele>57.2</ele>
        <time>2020-07-01T16:17:35Z</time>
      </trkpt>
      <trkpt lat="48.88863" lon="2.39226">
        <ele>57.2</ele>
        <time>2020-07-01T16:17:36Z</time>
      </trkpt>
      <trkpt lat="48.8886" lon="2.39217">
        <ele>57.2</ele>
        <time>2020-07-01T16:17:37Z</time>
      </trkpt>
      <trkpt lat="48.88858" lon="2.39208">
        <ele>57.2</ele>
        <time>2020-07-01T16:17:38Z</time>
      </trkpt>
      <trkpt lat="48.88855" lon="2.392">
        <ele>57.2</ele>
        <time>2020-07-01T16:17:39Z</time>
      </trkpt>
      <trkpt lat="48.88853" lon="2.39193">
        <ele>57.2</ele>
        <time>2020-07-01T16:17:40Z</time>
      </trkpt>
      <trkpt lat="48.88851" lon="2.39186">
        <ele>57.3</ele>
        <time>2020-07-01T16:17:41Z</time>
      </trkpt>
      <trkpt lat="48.8885" lon="2.3918">
        <ele>57.3</ele>
        <time>2020-07-01T16:17:42Z</time>
      </trkpt>
      <trkpt lat="48.88848" lon="2.39176">
        <ele>57.3</ele>
        <time>2020-07-01T16:17:43Z</time>
      </trkpt>
      <trkpt lat="48.88847" lon="2.3917">
        <ele>57.4</ele>
        <time>2020-07-01T16:17:44Z</time>
      </trkpt>
      <trkpt lat="48.88845" lon="2.39166">
        <ele>57.4</ele>
        <time>2020-07-01T16:17:45Z</time>
      </trkpt>
      <trkpt lat="48.88844" lon="2.39163">
        <ele>57.4</ele>
        <time>2020-07-01T16:17:46Z</time>
      </trkpt>
      <trkpt lat="48.88842" lon="2.39155">
        <ele>57.4</ele>
        <time>2020-07-01T16:17:47Z</time>
      </trkpt>
      <trkpt lat="48.88839" lon="2.39148">
        <ele>57.4</ele>
        <time>2020-07-01T16:17:48Z</time>
      </trkpt>
      <trkpt lat="48.88837" lon="2.39143">
        <ele>57.4</ele>
        <time>2020-07-01T16:17:49Z</time>
      </trkpt>
      <trkpt lat="48.88835" lon="2.39136">
        <ele>57.4</ele>
        <time>2020-07-01T16:17:50Z</time>
      </trkpt>
      <trkpt lat="48.88834" lon="2.3913">
        <ele>57.4</ele>
        <time>2020-07-01T16:17:51Z</time>
      </trkpt>
      <trkpt lat="48.88833" lon="2.39124">
        <ele>57.4</ele>
        <time>2020-07-01T16:17:52Z</time>
      </trkpt>
      <trkpt lat="48.88831" lon="2.39117">
        <ele>57.4</ele>
        <time>2020-07-01T16:17:53Z</time>
      </trkpt>
      <trkpt lat="48.8883" lon="2.39109">
        <ele>57.5</ele>
        <time>2020-07-01T16:17:54Z</time>
      </trkpt>
      <trkpt lat="48.88829" lon="2.39103">
        <ele>57.5</ele>
        <time>2020-07-01T16:17:55Z</time>
      </trkpt>
      <trkpt lat="48.88827" lon="2.39096">
        <ele>57.5</ele>
        <time>2020-07-01T16:17:56Z</time>
      </trkpt>
      <trkpt lat="48.88826" lon="2.3909">
        <ele>57.5</ele>
        <time>2020-07-01T16:17:57Z</time>
      </trkpt>
      <trkpt lat="48.88824" lon="2.39085">
        <ele>57.5</ele>
        <time>2020-07-01T16:17:58Z</time>
      </trkpt>
      <trkpt lat="48.88824" lon="2.39078">
        <ele>57.5</ele>
        <time>2020-07-01T16:17:59Z</time>
      </trkpt>
      <trkpt lat="48.88823" lon="2.39073">
        <ele>57.5</ele>
        <time>2020-07-01T16:18:00Z</time>
      </trkpt>
      <trkpt lat="48.88822" lon="2.39067">
        <ele>57.5</ele>
        <time>2020-07-01T16:18:01Z</time>
      </trkpt>
      <trkpt lat="48.88821" lon="2.39062">
        <ele>57.5</ele>
        <time>2020-07-01T16:18:02Z</time>
      </trkpt>
      <trkpt lat="48.88819" lon="2.39057">
        <ele>57.5</ele>
        <time>2020-07-01T16:18:03Z</time>
      </trkpt>
      <trkpt lat="48.88817" lon="2.39053">
        <ele>57.5</ele>
        <time>2020-07-01T16:18:04Z</time>
      </trkpt>
      <trkpt lat="48.88816" lon="2.39052">
        <ele>57.5</ele>
        <time>2020-07-01T16:18:05Z</time>
      </trkpt>
      <trkpt lat="48.88815" lon="2.39048">
        <ele>57.5</ele>
        <time>2020-07-01T16:18:06Z</time>
      </trkpt>
      <trkpt lat="48.88813" lon="2.39044">
        <ele>57.5</ele>
        <time>2020-07-01T16:18:07Z</time>
      </trkpt>
      <trkpt lat="48.88812" lon="2.39039">
        <ele>57.5</ele>
        <time>2020-07-01T16:18:08Z</time>
      </trkpt>
      <trkpt lat="48.8881" lon="2.39035">
        <ele>57.6</ele>
        <time>2020-07-01T16:18:09Z</time>
      </trkpt>
      <trkpt lat="48.88808" lon="2.39029">
        <ele>57.6</ele>
        <time>2020-07-01T16:18:10Z</time>
      </trkpt>
      <trkpt lat="48.88807" lon="2.39025">
        <ele>57.6</ele>
        <time>2020-07-01T16:18:11Z</time>
      </trkpt>
      <trkpt lat="48.88806" lon="2.3902">
        <ele>57.6</ele>
        <time>2020-07-01T16:18:12Z</time>
      </trkpt>
      <trkpt lat="48.88805" lon="2.39013">
        <ele>57.6</ele>
        <time>2020-07-01T16:18:13Z</time>
      </trkpt>
      <trkpt lat="48.88804" lon="2.39007">
        <ele>57.6</ele>
        <time>2020-07-01T16:18:14Z</time>
      </trkpt>
      <trkpt lat="48.88804" lon="2.39002">
        <ele>57.6</ele>
        <time>2020-07-01T16:18:15Z</time>
      </trkpt>
      <trkpt lat="48.88803" lon="2.38997">
        <ele>57.6</ele>
        <time>2020-07-01T16:18:16Z</time>
      </trkpt>
      <trkpt lat="48.88802" lon="2.38991">
        <ele>57.6</ele>
        <time>2020-07-01T16:18:17Z</time>
      </trkpt>
      <trkpt lat="48.88801" lon="2.38984">
        <ele>57.6</ele>
        <time>2020-07-01T16:18:18Z</time>
      </trkpt>
      <trkpt lat="48.888" lon="2.38982">
        <ele>57.6</ele>
        <time>2020-07-01T16:18:19Z</time>
      </trkpt>
      <trkpt lat="48.88799" lon="2.38976">
        <ele>57.7</ele>
        <time>2020-07-01T16:18:20Z</time>
      </trkpt>
      <trkpt lat="48.88798" lon="2.3897">
        <ele>57.7</ele>
        <time>2020-07-01T16:18:21Z</time>
      </trkpt>
      <trkpt lat="48.88795" lon="2.38965">
        <ele>57.7</ele>
        <time>2020-07-01T16:18:22Z</time>
      </trkpt>
      <trkpt lat="48.88794" lon="2.38963">
        <ele>57.7</ele>
        <time>2020-07-01T16:18:23Z</time>
      </trkpt>
      <trkpt lat="48.88793" lon="2.38959">
        <ele>57.7</ele>
        <time>2020-07-01T16:18:24Z</time>
      </trkpt>
      <trkpt lat="48.88792" lon="2.38954">
        <ele>57.7</ele>
        <time>2020-07-01T16:18:25Z</time>
      </trkpt>
      <trkpt lat="48.88792" lon="2.3895">
        <ele>57.7</ele>
        <time>2020-07-01T16:18:26Z</time>
      </trkpt>
      <trkpt lat="48.88792" lon="2.38945">
        <ele>57.7</ele>
        <time>2020-07-01T16:18:27Z</time>
      </trkpt>
      <trkpt lat="48.88791" lon="2.3894">
        <ele>57.7</ele>
        <time>2020-07-01T16:18:28Z</time>
      </trkpt>
      <trkpt lat="48.8879" lon="2.38934">
        <ele>57.7</ele>
        <time>2020-07-01T16:18:29Z</time>
      </trkpt>
      <trkpt lat="48.88788" lon="2.38927">
        <ele>57.7</ele>
        <time>2020-07-01T16:18:30Z</time>
      </trkpt>
      <trkpt lat="48.88787" lon="2.38922">
        <ele>57.7</ele>
        <time>2020-07-01T16:18:31Z</time>
      </trkpt>
      <trkpt lat="48.88786" lon="2.38917">
        <ele>57.7</ele>
        <time>2020-07-01T16:18:32Z</time>
      </trkpt>
      <trkpt lat="48.88786" lon="2.38916">
        <ele>57.7</ele>
        <time>2020-07-01T16:18:33Z</time>
      </trkpt>
      <trkpt lat="48.88785" lon="2.38913">
        <ele>57.7</ele>
        <time>2020-07-01T16:18:34Z</time>
      </trkpt>
      <trkpt lat="48.88784" lon="2.38911">
        <ele>57.7</ele>
        <time>2020-07-01T16:18:35Z</time>
      </trkpt>
      <trkpt lat="48.88782" lon="2.38906">
        <ele>57.7</ele>
        <time>2020-07-01T16:18:36Z</time>
      </trkpt>
      <trkpt lat="48.88781" lon="2.38904">
        <ele>57.7</ele>
        <time>2020-07-01T16:18:37Z</time>
      </trkpt>
      <trkpt lat="48.8878" lon="2.389">
        <ele>57.7</ele>
        <time>2020-07-01T16:18:38Z</time>
      </trkpt>
      <trkpt lat="48.88778" lon="2.38894">
        <ele>57.7</ele>
        <time>2020-07-01T16:18:39Z</time>
      </trkpt>
      <trkpt lat="48.88777" lon="2.38888">
        <ele>57.7</ele>
        <time>2020-07-01T16:18:40Z</time>
      </trkpt>
      <trkpt lat="48.88777" lon="2.38884">
        <ele>57.7</ele>
        <time>2020-07-01T16:18:41Z</time>
      </trkpt>
      <trkpt lat="48.88776" lon="2.38878">
        <ele>57.7</ele>
        <time>2020-07-01T16:18:42Z</time>
      </trkpt>
      <trkpt lat="48.88775" lon="2.38875">
        <ele>57.7</ele>
        <time>2020-07-01T16:18:43Z</time>
      </trkpt>
      <trkpt lat="48.88772" lon="2.38869">
        <ele>57.7</ele>
        <time>2020-07-01T16:18:44Z</time>
      </trkpt>
      <trkpt lat="48.8877" lon="2.38861">
        <ele>57.8</ele>
        <time>2020-07-01T16:18:45Z</time>
      </trkpt>
      <trkpt lat="48.88768" lon="2.38853">
        <ele>57.8</ele>
        <time>2020-07-01T16:18:46Z</time>
      </trkpt>
      <trkpt lat="48.88767" lon="2.38847">
        <ele>57.8</ele>
        <time>2020-07-01T16:18:47Z</time>
      </trkpt>
      <trkpt lat="48.88766" lon="2.38841">
        <ele>57.9</ele>
        <time>2020-07-01T16:18:48Z</time>
      </trkpt>
      <trkpt lat="48.88764" lon="2.38835">
        <ele>57.9</ele>
        <time>2020-07-01T16:18:49Z</time>
      </trkpt>
      <trkpt lat="48.88763" lon="2.3883">
        <ele>57.9</ele>
        <time>2020-07-01T16:18:50Z</time>
      </trkpt>
      <trkpt lat="48.88763" lon="2.38825">
        <ele>57.9</ele>
        <time>2020-07-01T16:18:51Z</time>
      </trkpt>
      <trkpt lat="48.88762" lon="2.3882">
        <ele>58</ele>
        <time>2020-07-01T16:18:52Z</time>
      </trkpt>
      <trkpt lat="48.88762" lon="2.38814">
        <ele>58</ele>
        <time>2020-07-01T16:18:53Z</time>
      </trkpt>
      <trkpt lat="48.8876" lon="2.38804">
        <ele>58.1</ele>
        <time>2020-07-01T16:18:54Z</time>
      </trkpt>
      <trkpt lat="48.88757" lon="2.38795">
        <ele>58.2</ele>
        <time>2020-07-01T16:18:55Z</time>
      </trkpt>
      <trkpt lat="48.88755" lon="2.38786">
        <ele>58.2</ele>
        <time>2020-07-01T16:18:56Z</time>
      </trkpt>
      <trkpt lat="48.88754" lon="2.38778">
        <ele>58.3</ele>
        <time>2020-07-01T16:18:57Z</time>
      </trkpt>
      <trkpt lat="48.88752" lon="2.3877">
        <ele>58.3</ele>
        <time>2020-07-01T16:18:58Z</time>
      </trkpt>
      <trkpt lat="48.88749" lon="2.38763">
        <ele>58.3</ele>
        <time>2020-07-01T16:18:59Z</time>
      </trkpt>
      <trkpt lat="48.88748" lon="2.38755">
        <ele>58.4</ele>
        <time>2020-07-01T16:19:00Z</time>
      </trkpt>
      <trkpt lat="48.88745" lon="2.38748">
        <ele>58.5</ele>
        <time>2020-07-01T16:19:01Z</time>
      </trkpt>
      <trkpt lat="48.88742" lon="2.3874">
        <ele>58.5</ele>
        <time>2020-07-01T16:19:02Z</time>
      </trkpt>
      <trkpt lat="48.88738" lon="2.38733">
        <ele>58.6</ele>
        <time>2020-07-01T16:19:03Z</time>
      </trkpt>
      <trkpt lat="48.88735" lon="2.38725">
        <ele>58.7</ele>
        <time>2020-07-01T16:19:04Z</time>
      </trkpt>
      <trkpt lat="48.88732" lon="2.38719">
        <ele>58.7</ele>
        <time>2020-07-01T16:19:05Z</time>
      </trkpt>
      <trkpt lat="48.88729" lon="2.38713">
        <ele>58.8</ele>
        <time>2020-07-01T16:19:06Z</time>
      </trkpt>
      <trkpt lat="48.88725" lon="2.38705">
        <ele>58.9</ele>
        <time>2020-07-01T16:19:07Z</time>
      </trkpt>
      <trkpt lat="48.88723" lon="2.38696">
        <ele>58.9</ele>
        <time>2020-07-01T16:19:08Z</time>
      </trkpt>
      <trkpt lat="48.88721" lon="2.38688">
        <ele>59</ele>
        <time>2020-07-01T16:19:09Z</time>
      </trkpt>
      <trkpt lat="48.88719" lon="2.38684">
        <ele>59</ele>
        <time>2020-07-01T16:19:10Z</time>
      </trkpt>
      <trkpt lat="48.88718" lon="2.38683">
        <ele>59.1</ele>
        <time>2020-07-01T16:19:11Z</time>
      </trkpt>
      <trkpt lat="48.88716" lon="2.38681">
        <ele>59.1</ele>
        <time>2020-07-01T16:19:12Z</time>
      </trkpt>
      <trkpt lat="48.88714" lon="2.38677">
        <ele>59</ele>
        <time>2020-07-01T16:19:13Z</time>
      </trkpt>
      <trkpt lat="48.88711" lon="2.38671">
        <ele>59.1</ele>
        <time>2020-07-01T16:19:14Z</time>
      </trkpt>
      <trkpt lat="48.88709" lon="2.38668">
        <ele>59.1</ele>
        <time>2020-07-01T16:19:15Z</time>
      </trkpt>
      <trkpt lat="48.88706" lon="2.38664">
        <ele>59.2</ele>
        <time>2020-07-01T16:19:16Z</time>
      </trkpt>
      <trkpt lat="48.88703" lon="2.3866">
        <ele>59.2</ele>
        <time>2020-07-01T16:19:17Z</time>
      </trkpt>
      <trkpt lat="48.887" lon="2.38653">
        <ele>59.3</ele>
        <time>2020-07-01T16:19:18Z</time>
      </trkpt>
      <trkpt lat="48.88699" lon="2.38647">
        <ele>59.3</ele>
        <time>2020-07-01T16:19:19Z</time>
      </trkpt>
      <trkpt lat="48.88697" lon="2.38642">
        <ele>59.3</ele>
        <time>2020-07-01T16:19:20Z</time>
      </trkpt>
      <trkpt lat="48.88696" lon="2.38638">
        <ele>59.3</ele>
        <time>2020-07-01T16:19:21Z</time>
      </trkpt>
      <trkpt lat="48.88693" lon="2.3863">
        <ele>59.4</ele>
        <time>2020-07-01T16:19:22Z</time>
      </trkpt>
      <trkpt lat="48.8869" lon="2.38622">
        <ele>59.5</ele>
        <time>2020-07-01T16:19:23Z</time>
      </trkpt>
      <trkpt lat="48.88689" lon="2.38617">
        <ele>59.5</ele>
        <time>2020-07-01T16:19:24Z</time>
      </trkpt>
      <trkpt lat="48.88688" lon="2.38612">
        <ele>59.5</ele>
        <time>2020-07-01T16:19:25Z</time>
      </trkpt>
      <trkpt lat="48.88687" lon="2.38604">
        <ele>59.6</ele>
        <time>2020-07-01T16:19:26Z</time>
      </trkpt>
      <trkpt lat="48.88684" lon="2.38596">
        <ele>59.6</ele>
        <time>2020-07-01T16:19:27Z</time>
      </trkpt>
      <trkpt lat="48.88682" lon="2.38591">
        <ele>59.7</ele>
        <time>2020-07-01T16:19:28Z</time>
      </trkpt>
      <trkpt lat="48.8868" lon="2.38585">
        <ele>59.7</ele>
        <time>2020-07-01T16:19:29Z</time>
      </trkpt>
      <trkpt lat="48.88678" lon="2.38579">
        <ele>59.7</ele>
        <time>2020-07-01T16:19:30Z</time>
      </trkpt>
      <trkpt lat="48.88676" lon="2.38572">
        <ele>59.8</ele>
        <time>2020-07-01T16:19:31Z</time>
      </trkpt>
      <trkpt lat="48.88675" lon="2.38566">
        <ele>59.8</ele>
        <time>2020-07-01T16:19:32Z</time>
      </trkpt>
      <trkpt lat="48.88675" lon="2.38558">
        <ele>59.8</ele>
        <time>2020-07-01T16:19:33Z</time>
      </trkpt>
      <trkpt lat="48.88674" lon="2.38553">
        <ele>59.9</ele>
        <time>2020-07-01T16:19:34Z</time>
      </trkpt>
      <trkpt lat="48.88672" lon="2.38547">
        <ele>59.9</ele>
        <time>2020-07-01T16:19:35Z</time>
      </trkpt>
      <trkpt lat="48.88669" lon="2.38542">
        <ele>59.9</ele>
        <time>2020-07-01T16:19:36Z</time>
      </trkpt>
      <trkpt lat="48.88668" lon="2.38532">
        <ele>60</ele>
        <time>2020-07-01T16:19:37Z</time>
      </trkpt>
      <trkpt lat="48.88667" lon="2.38522">
        <ele>60.1</ele>
        <time>2020-07-01T16:19:38Z</time>
      </trkpt>
      <trkpt lat="48.88666" lon="2.38514">
        <ele>60.1</ele>
        <time>2020-07-01T16:19:39Z</time>
      </trkpt>
      <trkpt lat="48.88665" lon="2.3851">
        <ele>60.1</ele>
        <time>2020-07-01T16:19:40Z</time>
      </trkpt>
      <trkpt lat="48.88663" lon="2.38506">
        <ele>60.2</ele>
        <time>2020-07-01T16:19:41Z</time>
      </trkpt>
      <trkpt lat="48.88661" lon="2.385">
        <ele>60.2</ele>
        <time>2020-07-01T16:19:42Z</time>
      </trkpt>
      <trkpt lat="48.88659" lon="2.38495">
        <ele>60.2</ele>
        <time>2020-07-01T16:19:43Z</time>
      </trkpt>
      <trkpt lat="48.88657" lon="2.38492">
        <ele>60.2</ele>
        <time>2020-07-01T16:19:44Z</time>
      </trkpt>
      <trkpt lat="48.88654" lon="2.38487">
        <ele>60.2</ele>
        <time>2020-07-01T16:19:45Z</time>
      </trkpt>
      <trkpt lat="48.88656" lon="2.3848">
        <ele>60.1</ele>
        <time>2020-07-01T16:19:46Z</time>
      </trkpt>
      <trkpt lat="48.88655" lon="2.38474">
        <ele>60.1</ele>
        <time>2020-07-01T16:19:47Z</time>
      </trkpt>
      <trkpt lat="48.88653" lon="2.38464">
        <ele>60.1</ele>
        <time>2020-07-01T16:19:48Z</time>
      </trkpt>
      <trkpt lat="48.88652" lon="2.38455">
        <ele>60.1</ele>
        <time>2020-07-01T16:19:49Z</time>
      </trkpt>
      <trkpt lat="48.88651" lon="2.38445">
        <ele>59.9</ele>
        <time>2020-07-01T16:19:50Z</time>
      </trkpt>
      <trkpt lat="48.88649" lon="2.38436">
        <ele>59.9</ele>
        <time>2020-07-01T16:19:51Z</time>
      </trkpt>
      <trkpt lat="48.88648" lon="2.38429">
        <ele>59.9</ele>
        <time>2020-07-01T16:19:52Z</time>
      </trkpt>
      <trkpt lat="48.88646" lon="2.38421">
        <ele>59.8</ele>
        <time>2020-07-01T16:19:53Z</time>
      </trkpt>
      <trkpt lat="48.88643" lon="2.38411">
        <ele>59.8</ele>
        <time>2020-07-01T16:19:54Z</time>
      </trkpt>
      <trkpt lat="48.88641" lon="2.384">
        <ele>59.7</ele>
        <time>2020-07-01T16:19:55Z</time>
      </trkpt>
      <trkpt lat="48.88639" lon="2.38389">
        <ele>59.6</ele>
        <time>2020-07-01T16:19:56Z</time>
      </trkpt>
      <trkpt lat="48.88635" lon="2.38379">
        <ele>59.6</ele>
        <time>2020-07-01T16:19:57Z</time>
      </trkpt>
      <trkpt lat="48.88632" lon="2.38371">
        <ele>59.5</ele>
        <time>2020-07-01T16:19:58Z</time>
      </trkpt>
      <trkpt lat="48.88629" lon="2.38361">
        <ele>59.4</ele>
        <time>2020-07-01T16:19:59Z</time>
      </trkpt>
      <trkpt lat="48.88627" lon="2.38353">
        <ele>59.4</ele>
        <time>2020-07-01T16:20:00Z</time>
      </trkpt>
      <trkpt lat="48.88624" lon="2.38345">
        <ele>59.4</ele>
        <time>2020-07-01T16:20:01Z</time>
      </trkpt>
      <trkpt lat="48.88621" lon="2.38336">
        <ele>59.4</ele>
        <time>2020-07-01T16:20:02Z</time>
      </trkpt>
      <trkpt lat="48.88618" lon="2.38328">
        <ele>59.4</ele>
        <time>2020-07-01T16:20:03Z</time>
      </trkpt>
      <trkpt lat="48.88615" lon="2.3832">
        <ele>59.4</ele>
        <time>2020-07-01T16:20:04Z</time>
      </trkpt>
      <trkpt lat="48.88613" lon="2.38311">
        <ele>59.4</ele>
        <time>2020-07-01T16:20:05Z</time>
      </trkpt>
      <trkpt lat="48.88612" lon="2.383">
        <ele>59.4</ele>
        <time>2020-07-01T16:20:06Z</time>
      </trkpt>
      <trkpt lat="48.88611" lon="2.3829">
        <ele>59.3</ele>
        <time>2020-07-01T16:20:07Z</time>
      </trkpt>
      <trkpt lat="48.88611" lon="2.38283">
        <ele>59.3</ele>
        <time>2020-07-01T16:20:08Z</time>
      </trkpt>
      <trkpt lat="48.88611" lon="2.38277">
        <ele>59.2</ele>
        <time>2020-07-01T16:20:09Z</time>
      </trkpt>
      <trkpt lat="48.8861" lon="2.38271">
        <ele>59.2</ele>
        <time>2020-07-01T16:20:10Z</time>
      </trkpt>
      <trkpt lat="48.88608" lon="2.38264">
        <ele>59.2</ele>
        <time>2020-07-01T16:20:11Z</time>
      </trkpt>
      <trkpt lat="48.88607" lon="2.38259">
        <ele>59.2</ele>
        <time>2020-07-01T16:20:12Z</time>
      </trkpt>
      <trkpt lat="48.88606" lon="2.38256">
        <ele>59.2</ele>
        <time>2020-07-01T16:20:13Z</time>
      </trkpt>
      <trkpt lat="48.88605" lon="2.38251">
        <ele>59.1</ele>
        <time>2020-07-01T16:20:14Z</time>
      </trkpt>
      <trkpt lat="48.88603" lon="2.38247">
        <ele>59.1</ele>
        <time>2020-07-01T16:20:15Z</time>
      </trkpt>
      <trkpt lat="48.88602" lon="2.38242">
        <ele>59.1</ele>
        <time>2020-07-01T16:20:16Z</time>
      </trkpt>
      <trkpt lat="48.88602" lon="2.38238">
        <ele>59.1</ele>
        <time>2020-07-01T16:20:17Z</time>
      </trkpt>
      <trkpt lat="48.88601" lon="2.38234">
        <ele>59.1</ele>
        <time>2020-07-01T16:20:18Z</time>
      </trkpt>
      <trkpt lat="48.88601" lon="2.38234">
        <ele>59.1</ele>
        <time>2020-07-01T16:20:19Z</time>
      </trkpt>
      <trkpt lat="48.88601" lon="2.38233">
        <ele>59.1</ele>
        <time>2020-07-01T16:20:20Z</time>
      </trkpt>
      <trkpt lat="48.88601" lon="2.38233">
        <ele>59.1</ele>
        <time>2020-07-01T16:20:21Z</time>
      </trkpt>
      <trkpt lat="48.88601" lon="2.38232">
        <ele>59.1</ele>
        <time>2020-07-01T16:20:22Z</time>
      </trkpt>
      <trkpt lat="48.886" lon="2.38232">
        <ele>59.1</ele>
        <time>2020-07-01T16:20:23Z</time>
      </trkpt>
      <trkpt lat="48.886" lon="2.38231">
        <ele>59.1</ele>
        <time>2020-07-01T16:20:24Z</time>
      </trkpt>
      <trkpt lat="48.886" lon="2.38231">
        <ele>59.1</ele>
        <time>2020-07-01T16:20:25Z</time>
      </trkpt>
      <trkpt lat="48.886" lon="2.3823">
        <ele>59.1</ele>
        <time>2020-07-01T16:20:26Z</time>
      </trkpt>
      <trkpt lat="48.886" lon="2.3823">
        <ele>59.1</ele>
        <time>2020-07-01T16:20:27Z</time>
      </trkpt>
      <trkpt lat="48.886" lon="2.38229">
        <ele>59.1</ele>
        <time>2020-07-01T16:20:28Z</time>
      </trkpt>
      <trkpt lat="48.88598" lon="2.38224">
        <ele>59</ele>
        <time>2020-07-01T16:20:29Z</time>
      </trkpt>
      <trkpt lat="48.88596" lon="2.38219">
        <ele>59</ele>
        <time>2020-07-01T16:20:30Z</time>
      </trkpt>
      <trkpt lat="48.88595" lon="2.38214">
        <ele>59</ele>
        <time>2020-07-01T16:20:31Z</time>
      </trkpt>
      <trkpt lat="48.88593" lon="2.3821">
        <ele>59</ele>
        <time>2020-07-01T16:20:32Z</time>
      </trkpt>
      <trkpt lat="48.88592" lon="2.38206">
        <ele>59</ele>
        <time>2020-07-01T16:20:33Z</time>
      </trkpt>
      <trkpt lat="48.8859" lon="2.38201">
        <ele>58.9</ele>
        <time>2020-07-01T16:20:34Z</time>
      </trkpt>
      <trkpt lat="48.88589" lon="2.38196">
        <ele>58.9</ele>
        <time>2020-07-01T16:20:35Z</time>
      </trkpt>
      <trkpt lat="48.88587" lon="2.3819">
        <ele>58.9</ele>
        <time>2020-07-01T16:20:36Z</time>
      </trkpt>
      <trkpt lat="48.88586" lon="2.38182">
        <ele>58.8</ele>
        <time>2020-07-01T16:20:37Z</time>
      </trkpt>
      <trkpt lat="48.88584" lon="2.38176">
        <ele>58.8</ele>
        <time>2020-07-01T16:20:38Z</time>
      </trkpt>
      <trkpt lat="48.88582" lon="2.38169">
        <ele>58.8</ele>
        <time>2020-07-01T16:20:39Z</time>
      </trkpt>
      <trkpt lat="48.88579" lon="2.3816">
        <ele>58.8</ele>
        <time>2020-07-01T16:20:40Z</time>
      </trkpt>
      <trkpt lat="48.88577" lon="2.38153">
        <ele>58.7</ele>
        <time>2020-07-01T16:20:41Z</time>
      </trkpt>
      <trkpt lat="48.88574" lon="2.38144">
        <ele>58.7</ele>
        <time>2020-07-01T16:20:42Z</time>
      </trkpt>
      <trkpt lat="48.88573" lon="2.38136">
        <ele>58.7</ele>
        <time>2020-07-01T16:20:43Z</time>
      </trkpt>
      <trkpt lat="48.88572" lon="2.38128">
        <ele>58.7</ele>
        <time>2020-07-01T16:20:44Z</time>
      </trkpt>
      <trkpt lat="48.8857" lon="2.3812">
        <ele>58.7</ele>
        <time>2020-07-01T16:20:45Z</time>
      </trkpt>
      <trkpt lat="48.88568" lon="2.38112">
        <ele>58.7</ele>
        <time>2020-07-01T16:20:46Z</time>
      </trkpt>
      <trkpt lat="48.88567" lon="2.38104">
        <ele>58.7</ele>
        <time>2020-07-01T16:20:47Z</time>
      </trkpt>
      <trkpt lat="48.88565" lon="2.38098">
        <ele>58.7</ele>
        <time>2020-07-01T16:20:48Z</time>
      </trkpt>
      <trkpt lat="48.88563" lon="2.3809">
        <ele>58.6</ele>
        <time>2020-07-01T16:20:49Z</time>
      </trkpt>
      <trkpt lat="48.8856" lon="2.38081">
        <ele>58.6</ele>
        <time>2020-07-01T16:20:50Z</time>
      </trkpt>
      <trkpt lat="48.88558" lon="2.38075">
        <ele>58.5</ele>
        <time>2020-07-01T16:20:51Z</time>
      </trkpt>
      <trkpt lat="48.88555" lon="2.38066">
        <ele>58.5</ele>
        <time>2020-07-01T16:20:52Z</time>
      </trkpt>
      <trkpt lat="48.88553" lon="2.38057">
        <ele>58.5</ele>
        <time>2020-07-01T16:20:53Z</time>
      </trkpt>
      <trkpt lat="48.88551" lon="2.3805">
        <ele>58.4</ele>
        <time>2020-07-01T16:20:54Z</time>
      </trkpt>
      <trkpt lat="48.88548" lon="2.38041">
        <ele>58.4</ele>
        <time>2020-07-01T16:20:55Z</time>
      </trkpt>
      <trkpt lat="48.88545" lon="2.38032">
        <ele>58.4</ele>
        <time>2020-07-01T16:20:56Z</time>
      </trkpt>
      <trkpt lat="48.88543" lon="2.38025">
        <ele>58.4</ele>
        <time>2020-07-01T16:20:57Z</time>
      </trkpt>
      <trkpt lat="48.88542" lon="2.38017">
        <ele>58.3</ele>
        <time>2020-07-01T16:20:58Z</time>
      </trkpt>
      <trkpt lat="48.8854" lon="2.38008">
        <ele>58.3</ele>
        <time>2020-07-01T16:20:59Z</time>
      </trkpt>
      <trkpt lat="48.88538" lon="2.37999">
        <ele>58.3</ele>
        <time>2020-07-01T16:21:00Z</time>
      </trkpt>
      <trkpt lat="48.88536" lon="2.37989">
        <ele>58.3</ele>
        <time>2020-07-01T16:21:01Z</time>
      </trkpt>
      <trkpt lat="48.88534" lon="2.37982">
        <ele>58.3</ele>
        <time>2020-07-01T16:21:02Z</time>
      </trkpt>
      <trkpt lat="48.88532" lon="2.37973">
        <ele>58.3</ele>
        <time>2020-07-01T16:21:03Z</time>
      </trkpt>
      <trkpt lat="48.8853" lon="2.37964">
        <ele>58.4</ele>
        <time>2020-07-01T16:21:04Z</time>
      </trkpt>
      <trkpt lat="48.88528" lon="2.37953">
        <ele>58.4</ele>
        <time>2020-07-01T16:21:05Z</time>
      </trkpt>
      <trkpt lat="48.88525" lon="2.37946">
        <ele>58.4</ele>
        <time>2020-07-01T16:21:06Z</time>
      </trkpt>
      <trkpt lat="48.88523" lon="2.37939">
        <ele>58.4</ele>
        <time>2020-07-01T16:21:07Z</time>
      </trkpt>
      <trkpt lat="48.8852" lon="2.37932">
        <ele>58.5</ele>
        <time>2020-07-01T16:21:08Z</time>
      </trkpt>
      <trkpt lat="48.88517" lon="2.37925">
        <ele>58.4</ele>
        <time>2020-07-01T16:21:09Z</time>
      </trkpt>
      <trkpt lat="48.88514" lon="2.37917">
        <ele>58.4</ele>
        <time>2020-07-01T16:21:10Z</time>
      </trkpt>
      <trkpt lat="48.88511" lon="2.37909">
        <ele>58.4</ele>
        <time>2020-07-01T16:21:11Z</time>
      </trkpt>
      <trkpt lat="48.88508" lon="2.37899">
        <ele>58.4</ele>
        <time>2020-07-01T16:21:12Z</time>
      </trkpt>
      <trkpt lat="48.88506" lon="2.3789">
        <ele>58.4</ele>
        <time>2020-07-01T16:21:13Z</time>
      </trkpt>
      <trkpt lat="48.88504" lon="2.37879">
        <ele>58.3</ele>
        <time>2020-07-01T16:21:14Z</time>
      </trkpt>
      <trkpt lat="48.88502" lon="2.37869">
        <ele>58.3</ele>
        <time>2020-07-01T16:21:15Z</time>
      </trkpt>
      <trkpt lat="48.885" lon="2.37859">
        <ele>58.3</ele>
        <time>2020-07-01T16:21:16Z</time>
      </trkpt>
      <trkpt lat="48.88497" lon="2.37848">
        <ele>58.3</ele>
        <time>2020-07-01T16:21:17Z</time>
      </trkpt>
      <trkpt lat="48.88495" lon="2.37838">
        <ele>58.2</ele>
        <time>2020-07-01T16:21:18Z</time>
      </trkpt>
      <trkpt lat="48.88493" lon="2.37827">
        <ele>58.1</ele>
        <time>2020-07-01T16:21:19Z</time>
      </trkpt>
      <trkpt lat="48.8849" lon="2.37817">
        <ele>58.1</ele>
        <time>2020-07-01T16:21:20Z</time>
      </trkpt>
      <trkpt lat="48.88487" lon="2.37806">
        <ele>58</ele>
        <time>2020-07-01T16:21:21Z</time>
      </trkpt>
      <trkpt lat="48.88483" lon="2.37796">
        <ele>58</ele>
        <time>2020-07-01T16:21:22Z</time>
      </trkpt>
      <trkpt lat="48.8848" lon="2.37786">
        <ele>57.9</ele>
        <time>2020-07-01T16:21:23Z</time>
      </trkpt>
      <trkpt lat="48.88477" lon="2.37775">
        <ele>57.9</ele>
        <time>2020-07-01T16:21:24Z</time>
      </trkpt>
      <trkpt lat="48.88475" lon="2.37764">
        <ele>57.9</ele>
        <time>2020-07-01T16:21:25Z</time>
      </trkpt>
      <trkpt lat="48.88473" lon="2.37755">
        <ele>58</ele>
        <time>2020-07-01T16:21:26Z</time>
      </trkpt>
      <trkpt lat="48.88471" lon="2.37745">
        <ele>58</ele>
        <time>2020-07-01T16:21:27Z</time>
      </trkpt>
      <trkpt lat="48.8847" lon="2.37734">
        <ele>58</ele>
        <time>2020-07-01T16:21:28Z</time>
      </trkpt>
      <trkpt lat="48.88469" lon="2.37723">
        <ele>58.1</ele>
        <time>2020-07-01T16:21:29Z</time>
      </trkpt>
      <trkpt lat="48.88468" lon="2.37715">
        <ele>58.1</ele>
        <time>2020-07-01T16:21:30Z</time>
      </trkpt>
      <trkpt lat="48.88467" lon="2.37706">
        <ele>58.2</ele>
        <time>2020-07-01T16:21:31Z</time>
      </trkpt>
      <trkpt lat="48.88465" lon="2.37695">
        <ele>58.3</ele>
        <time>2020-07-01T16:21:32Z</time>
      </trkpt>
      <trkpt lat="48.88462" lon="2.37683">
        <ele>58.4</ele>
        <time>2020-07-01T16:21:33Z</time>
      </trkpt>
      <trkpt lat="48.88459" lon="2.37673">
        <ele>58.4</ele>
        <time>2020-07-01T16:21:34Z</time>
      </trkpt>
      <trkpt lat="48.88457" lon="2.37664">
        <ele>58.5</ele>
        <time>2020-07-01T16:21:35Z</time>
      </trkpt>
      <trkpt lat="48.88453" lon="2.37656">
        <ele>58.5</ele>
        <time>2020-07-01T16:21:36Z</time>
      </trkpt>
      <trkpt lat="48.8845" lon="2.37648">
        <ele>58.5</ele>
        <time>2020-07-01T16:21:37Z</time>
      </trkpt>
      <trkpt lat="48.88447" lon="2.37641">
        <ele>58.5</ele>
        <time>2020-07-01T16:21:38Z</time>
      </trkpt>
      <trkpt lat="48.88443" lon="2.37634">
        <ele>58.6</ele>
        <time>2020-07-01T16:21:39Z</time>
      </trkpt>
      <trkpt lat="48.8844" lon="2.37627">
        <ele>58.6</ele>
        <time>2020-07-01T16:21:40Z</time>
      </trkpt>
      <trkpt lat="48.88437" lon="2.37621">
        <ele>58.6</ele>
        <time>2020-07-01T16:21:41Z</time>
      </trkpt>
      <trkpt lat="48.88434" lon="2.37612">
        <ele>58.6</ele>
        <time>2020-07-01T16:21:42Z</time>
      </trkpt>
      <trkpt lat="48.88431" lon="2.37603">
        <ele>58.6</ele>
        <time>2020-07-01T16:21:43Z</time>
      </trkpt>
      <trkpt lat="48.88431" lon="2.3759">
        <ele>58.6</ele>
        <time>2020-07-01T16:21:44Z</time>
      </trkpt>
      <trkpt lat="48.8843" lon="2.37581">
        <ele>58.6</ele>
        <time>2020-07-01T16:21:45Z</time>
      </trkpt>
      <trkpt lat="48.88429" lon="2.37574">
        <ele>58.7</ele>
        <time>2020-07-01T16:21:46Z</time>
      </trkpt>
      <trkpt lat="48.88426" lon="2.37568">
        <ele>58.7</ele>
        <time>2020-07-01T16:21:47Z</time>
      </trkpt>
      <trkpt lat="48.88423" lon="2.37562">
        <ele>58.7</ele>
        <time>2020-07-01T16:21:48Z</time>
      </trkpt>
      <trkpt lat="48.88421" lon="2.37557">
        <ele>58.7</ele>
        <time>2020-07-01T16:21:49Z</time>
      </trkpt>
      <trkpt lat="48.8842" lon="2.37552">
        <ele>58.7</ele>
        <time>2020-07-01T16:21:50Z</time>
      </trkpt>
      <trkpt lat="48.88418" lon="2.37548">
        <ele>58.7</ele>
        <time>2020-07-01T16:21:51Z</time>
      </trkpt>
      <trkpt lat="48.88416" lon="2.37542">
        <ele>58.7</ele>
        <time>2020-07-01T16:21:52Z</time>
      </trkpt>
      <trkpt lat="48.88416" lon="2.37538">
        <ele>58.8</ele>
        <time>2020-07-01T16:21:53Z</time>
      </trkpt>
      <trkpt lat="48.88414" lon="2.37529">
        <ele>58.8</ele>
        <time>2020-07-01T16:21:54Z</time>
      </trkpt>
      <trkpt lat="48.88411" lon="2.37519">
        <ele>58.8</ele>
        <time>2020-07-01T16:21:55Z</time>
      </trkpt>
      <trkpt lat="48.88409" lon="2.37509">
        <ele>58.9</ele>
        <time>2020-07-01T16:21:56Z</time>
      </trkpt>
      <trkpt lat="48.88407" lon="2.37501">
        <ele>58.9</ele>
        <time>2020-07-01T16:21:57Z</time>
      </trkpt>
      <trkpt lat="48.88405" lon="2.37491">
        <ele>59</ele>
        <time>2020-07-01T16:21:58Z</time>
      </trkpt>
      <trkpt lat="48.88403" lon="2.37482">
        <ele>59</ele>
        <time>2020-07-01T16:21:59Z</time>
      </trkpt>
      <trkpt lat="48.88402" lon="2.37474">
        <ele>59.1</ele>
        <time>2020-07-01T16:22:00Z</time>
      </trkpt>
      <trkpt lat="48.88401" lon="2.37464">
        <ele>59.1</ele>
        <time>2020-07-01T16:22:01Z</time>
      </trkpt>
      <trkpt lat="48.88398" lon="2.37456">
        <ele>59.1</ele>
        <time>2020-07-01T16:22:02Z</time>
      </trkpt>
      <trkpt lat="48.88396" lon="2.37449">
        <ele>59.1</ele>
        <time>2020-07-01T16:22:03Z</time>
      </trkpt>
      <trkpt lat="48.88394" lon="2.37443">
        <ele>59.1</ele>
        <time>2020-07-01T16:22:04Z</time>
      </trkpt>
      <trkpt lat="48.88393" lon="2.37436">
        <ele>59.1</ele>
        <time>2020-07-01T16:22:05Z</time>
      </trkpt>
      <trkpt lat="48.88392" lon="2.37431">
        <ele>59.1</ele>
        <time>2020-07-01T16:22:06Z</time>
      </trkpt>
      <trkpt lat="48.8839" lon="2.37423">
        <ele>59.1</ele>
        <time>2020-07-01T16:22:07Z</time>
      </trkpt>
      <trkpt lat="48.88388" lon="2.37417">
        <ele>59.1</ele>
        <time>2020-07-01T16:22:08Z</time>
      </trkpt>
      <trkpt lat="48.88386" lon="2.37413">
        <ele>59.1</ele>
        <time>2020-07-01T16:22:09Z</time>
      </trkpt>
      <trkpt lat="48.88384" lon="2.37406">
        <ele>59.1</ele>
        <time>2020-07-01T16:22:10Z</time>
      </trkpt>
      <trkpt lat="48.88383" lon="2.37401">
        <ele>59</ele>
        <time>2020-07-01T16:22:11Z</time>
      </trkpt>
      <trkpt lat="48.88381" lon="2.37396">
        <ele>59</ele>
        <time>2020-07-01T16:22:12Z</time>
      </trkpt>
      <trkpt lat="48.8838" lon="2.37391">
        <ele>59</ele>
        <time>2020-07-01T16:22:13Z</time>
      </trkpt>
      <trkpt lat="48.88377" lon="2.37385">
        <ele>59</ele>
        <time>2020-07-01T16:22:14Z</time>
      </trkpt>
      <trkpt lat="48.88374" lon="2.37378">
        <ele>58.9</ele>
        <time>2020-07-01T16:22:15Z</time>
      </trkpt>
      <trkpt lat="48.88371" lon="2.37372">
        <ele>58.9</ele>
        <time>2020-07-01T16:22:16Z</time>
      </trkpt>
      <trkpt lat="48.88368" lon="2.37365">
        <ele>58.9</ele>
        <time>2020-07-01T16:22:17Z</time>
      </trkpt>
      <trkpt lat="48.88366" lon="2.37358">
        <ele>58.9</ele>
        <time>2020-07-01T16:22:18Z</time>
      </trkpt>
      <trkpt lat="48.88363" lon="2.3735">
        <ele>58.8</ele>
        <time>2020-07-01T16:22:19Z</time>
      </trkpt>
      <trkpt lat="48.88362" lon="2.37342">
        <ele>58.8</ele>
        <time>2020-07-01T16:22:20Z</time>
      </trkpt>
      <trkpt lat="48.88359" lon="2.37335">
        <ele>58.8</ele>
        <time>2020-07-01T16:22:21Z</time>
      </trkpt>
      <trkpt lat="48.88356" lon="2.37325">
        <ele>58.8</ele>
        <time>2020-07-01T16:22:22Z</time>
      </trkpt>
      <trkpt lat="48.88354" lon="2.37315">
        <ele>58.7</ele>
        <time>2020-07-01T16:22:23Z</time>
      </trkpt>
      <trkpt lat="48.88352" lon="2.37308">
        <ele>58.7</ele>
        <time>2020-07-01T16:22:24Z</time>
      </trkpt>
      <trkpt lat="48.88349" lon="2.37298">
        <ele>58.7</ele>
        <time>2020-07-01T16:22:25Z</time>
      </trkpt>
      <trkpt lat="48.88346" lon="2.37289">
        <ele>58.6</ele>
        <time>2020-07-01T16:22:26Z</time>
      </trkpt>
      <trkpt lat="48.88342" lon="2.37279">
        <ele>58.6</ele>
        <time>2020-07-01T16:22:27Z</time>
      </trkpt>
      <trkpt lat="48.88339" lon="2.37269">
        <ele>58.5</ele>
        <time>2020-07-01T16:22:28Z</time>
      </trkpt>
      <trkpt lat="48.88336" lon="2.37259">
        <ele>58.5</ele>
        <time>2020-07-01T16:22:29Z</time>
      </trkpt>
      <trkpt lat="48.88334" lon="2.37251">
        <ele>58.4</ele>
        <time>2020-07-01T16:22:30Z</time>
      </trkpt>
      <trkpt lat="48.88332" lon="2.37241">
        <ele>58.4</ele>
        <time>2020-07-01T16:22:31Z</time>
      </trkpt>
      <trkpt lat="48.8833" lon="2.37232">
        <ele>58.3</ele>
        <time>2020-07-01T16:22:32Z</time>
      </trkpt>
      <trkpt lat="48.88327" lon="2.37223">
        <ele>58.3</ele>
        <time>2020-07-01T16:22:33Z</time>
      </trkpt>
      <trkpt lat="48.88325" lon="2.37216">
        <ele>58.2</ele>
        <time>2020-07-01T16:22:34Z</time>
      </trkpt>
      <trkpt lat="48.88322" lon="2.37207">
        <ele>58.2</ele>
        <time>2020-07-01T16:22:35Z</time>
      </trkpt>
      <trkpt lat="48.88319" lon="2.37199">
        <ele>58.2</ele>
        <time>2020-07-01T16:22:36Z</time>
      </trkpt>
      <trkpt lat="48.88317" lon="2.37191">
        <ele>58.2</ele>
        <time>2020-07-01T16:22:37Z</time>
      </trkpt>
      <trkpt lat="48.88315" lon="2.37183">
        <ele>58.1</ele>
        <time>2020-07-01T16:22:38Z</time>
      </trkpt>
      <trkpt lat="48.88314" lon="2.37178">
        <ele>58.1</ele>
        <time>2020-07-01T16:22:39Z</time>
      </trkpt>
      <trkpt lat="48.88312" lon="2.37173">
        <ele>58.1</ele>
        <time>2020-07-01T16:22:40Z</time>
      </trkpt>
      <trkpt lat="48.8831" lon="2.37164">
        <ele>58.1</ele>
        <time>2020-07-01T16:22:41Z</time>
      </trkpt>
      <trkpt lat="48.88308" lon="2.37157">
        <ele>58.1</ele>
        <time>2020-07-01T16:22:42Z</time>
      </trkpt>
      <trkpt lat="48.88306" lon="2.37151">
        <ele>58.1</ele>
        <time>2020-07-01T16:22:43Z</time>
      </trkpt>
      <trkpt lat="48.88304" lon="2.37145">
        <ele>58.1</ele>
        <time>2020-07-01T16:22:44Z</time>
      </trkpt>
      <trkpt lat="48.88303" lon="2.37138">
        <ele>58</ele>
        <time>2020-07-01T16:22:45Z</time>
      </trkpt>
      <trkpt lat="48.88303" lon="2.3713">
        <ele>58</ele>
        <time>2020-07-01T16:22:46Z</time>
      </trkpt>
      <trkpt lat="48.88302" lon="2.37124">
        <ele>58</ele>
        <time>2020-07-01T16:22:47Z</time>
      </trkpt>
      <trkpt lat="48.88302" lon="2.3712">
        <ele>58</ele>
        <time>2020-07-01T16:22:48Z</time>
      </trkpt>
      <trkpt lat="48.88303" lon="2.37115">
        <ele>58</ele>
        <time>2020-07-01T16:22:49Z</time>
      </trkpt>
      <trkpt lat="48.88302" lon="2.37111">
        <ele>58</ele>
        <time>2020-07-01T16:22:50Z</time>
      </trkpt>
      <trkpt lat="48.88301" lon="2.37107">
        <ele>58</ele>
        <time>2020-07-01T16:22:51Z</time>
      </trkpt>
      <trkpt lat="48.88301" lon="2.37106">
        <ele>58</ele>
        <time>2020-07-01T16:22:52Z</time>
      </trkpt>
      <trkpt lat="48.883" lon="2.37105">
        <ele>58</ele>
        <time>2020-07-01T16:22:53Z</time>
      </trkpt>
      <trkpt lat="48.883" lon="2.37105">
        <ele>58</ele>
        <time>2020-07-01T16:22:54Z</time>
      </trkpt>
      <trkpt lat="48.88299" lon="2.37105">
        <ele>58</ele>
        <time>2020-07-01T16:22:55Z</time>
      </trkpt>
      <trkpt lat="48.88298" lon="2.37104">
        <ele>58</ele>
        <time>2020-07-01T16:22:56Z</time>
      </trkpt>
      <trkpt lat="48.88298" lon="2.37104">
        <ele>58</ele>
        <time>2020-07-01T16:22:57Z</time>
      </trkpt>
      <trkpt lat="48.88298" lon="2.37104">
        <ele>58</ele>
        <time>2020-07-01T16:22:58Z</time>
      </trkpt>
      <trkpt lat="48.88298" lon="2.37103">
        <ele>58</ele>
        <time>2020-07-01T16:22:59Z</time>
      </trkpt>
      <trkpt lat="48.883" lon="2.37102">
        <ele>58</ele>
        <time>2020-07-01T16:23:00Z</time>
      </trkpt>
      <trkpt lat="48.88299" lon="2.371">
        <ele>58</ele>
        <time>2020-07-01T16:23:01Z</time>
      </trkpt>
      <trkpt lat="48.883" lon="2.37098">
        <ele>58</ele>
        <time>2020-07-01T16:23:02Z</time>
      </trkpt>
      <trkpt lat="48.883" lon="2.37096">
        <ele>58</ele>
        <time>2020-07-01T16:23:03Z</time>
      </trkpt>
      <trkpt lat="48.883" lon="2.37092">
        <ele>58</ele>
        <time>2020-07-01T16:23:04Z</time>
      </trkpt>
      <trkpt lat="48.883" lon="2.3709">
        <ele>58</ele>
        <time>2020-07-01T16:23:05Z</time>
      </trkpt>
      <trkpt lat="48.883" lon="2.37087">
        <ele>58</ele>
        <time>2020-07-01T16:23:06Z</time>
      </trkpt>
      <trkpt lat="48.88299" lon="2.37085">
        <ele>58</ele>
        <time>2020-07-01T16:23:07Z</time>
      </trkpt>
      <trkpt lat="48.88298" lon="2.3708">
        <ele>58</ele>
        <time>2020-07-01T16:23:08Z</time>
      </trkpt>
      <trkpt lat="48.88297" lon="2.37078">
        <ele>57.9</ele>
        <time>2020-07-01T16:23:09Z</time>
      </trkpt>
      <trkpt lat="48.88297" lon="2.37073">
        <ele>57.9</ele>
        <time>2020-07-01T16:23:10Z</time>
      </trkpt>
      <trkpt lat="48.88296" lon="2.37072">
        <ele>57.9</ele>
        <time>2020-07-01T16:23:11Z</time>
      </trkpt>
      <trkpt lat="48.88295" lon="2.37068">
        <ele>57.9</ele>
        <time>2020-07-01T16:23:12Z</time>
      </trkpt>
      <trkpt lat="48.88293" lon="2.37065">
        <ele>57.8</ele>
        <time>2020-07-01T16:23:13Z</time>
      </trkpt>
      <trkpt lat="48.88292" lon="2.37061">
        <ele>57.8</ele>
        <time>2020-07-01T16:23:14Z</time>
      </trkpt>
      <trkpt lat="48.88292" lon="2.3706">
        <ele>57.8</ele>
        <time>2020-07-01T16:23:15Z</time>
      </trkpt>
      <trkpt lat="48.8829" lon="2.37056">
        <ele>57.8</ele>
        <time>2020-07-01T16:23:16Z</time>
      </trkpt>
      <trkpt lat="48.8829" lon="2.37055">
        <ele>57.8</ele>
        <time>2020-07-01T16:23:17Z</time>
      </trkpt>
      <trkpt lat="48.88289" lon="2.37052">
        <ele>57.8</ele>
        <time>2020-07-01T16:23:18Z</time>
      </trkpt>
      <trkpt lat="48.88288" lon="2.3705">
        <ele>57.8</ele>
        <time>2020-07-01T16:23:19Z</time>
      </trkpt>
      <trkpt lat="48.88286" lon="2.37047">
        <ele>57.8</ele>
        <time>2020-07-01T16:23:20Z</time>
      </trkpt>
      <trkpt lat="48.88285" lon="2.37045">
        <ele>57.9</ele>
        <time>2020-07-01T16:23:21Z</time>
      </trkpt>
      <trkpt lat="48.88284" lon="2.37041">
        <ele>57.9</ele>
        <time>2020-07-01T16:23:22Z</time>
      </trkpt>
      <trkpt lat="48.88284" lon="2.3704">
        <ele>57.9</ele>
        <time>2020-07-01T16:23:23Z</time>
      </trkpt>
      <trkpt lat="48.88283" lon="2.37037">
        <ele>57.9</ele>
        <time>2020-07-01T16:23:24Z</time>
      </trkpt>
      <trkpt lat="48.88282" lon="2.37036">
        <ele>58</ele>
        <time>2020-07-01T16:23:25Z</time>
      </trkpt>
      <trkpt lat="48.8828" lon="2.37033">
        <ele>58</ele>
        <time>2020-07-01T16:23:26Z</time>
      </trkpt>
      <trkpt lat="48.88279" lon="2.37031">
        <ele>58</ele>
        <time>2020-07-01T16:23:27Z</time>
      </trkpt>
      <trkpt lat="48.88279" lon="2.37027">
        <ele>58</ele>
        <time>2020-07-01T16:23:28Z</time>
      </trkpt>
      <trkpt lat="48.88277" lon="2.37023">
        <ele>58</ele>
        <time>2020-07-01T16:23:29Z</time>
      </trkpt>
      <trkpt lat="48.88276" lon="2.37022">
        <ele>58</ele>
        <time>2020-07-01T16:23:30Z</time>
      </trkpt>
      <trkpt lat="48.88275" lon="2.37017">
        <ele>58</ele>
        <time>2020-07-01T16:23:31Z</time>
      </trkpt>
      <trkpt lat="48.88275" lon="2.37015">
        <ele>58</ele>
        <time>2020-07-01T16:23:32Z</time>
      </trkpt>
      <trkpt lat="48.88274" lon="2.3701">
        <ele>58</ele>
        <time>2020-07-01T16:23:33Z</time>
      </trkpt>
      <trkpt lat="48.88274" lon="2.37008">
        <ele>58</ele>
        <time>2020-07-01T16:23:34Z</time>
      </trkpt>
      <trkpt lat="48.88275" lon="2.37004">
        <ele>58</ele>
        <time>2020-07-01T16:23:35Z</time>
      </trkpt>
      <trkpt lat="48.88275" lon="2.37">
        <ele>58</ele>
        <time>2020-07-01T16:23:36Z</time>
      </trkpt>
      <trkpt lat="48.88275" lon="2.36994">
        <ele>58</ele>
        <time>2020-07-01T16:23:37Z</time>
      </trkpt>
      <trkpt lat="48.88274" lon="2.36989">
        <ele>58</ele>
        <time>2020-07-01T16:23:38Z</time>
      </trkpt>
      <trkpt lat="48.88273" lon="2.36982">
        <ele>58</ele>
        <time>2020-07-01T16:23:39Z</time>
      </trkpt>
      <trkpt lat="48.88271" lon="2.36976">
        <ele>57.9</ele>
        <time>2020-07-01T16:23:40Z</time>
      </trkpt>
      <trkpt lat="48.8827" lon="2.3697">
        <ele>57.9</ele>
        <time>2020-07-01T16:23:41Z</time>
      </trkpt>
      <trkpt lat="48.88269" lon="2.36963">
        <ele>57.8</ele>
        <time>2020-07-01T16:23:42Z</time>
      </trkpt>
      <trkpt lat="48.88264" lon="2.36956">
        <ele>57.7</ele>
        <time>2020-07-01T16:23:43Z</time>
      </trkpt>
      <trkpt lat="48.88262" lon="2.36949">
        <ele>57.6</ele>
        <time>2020-07-01T16:23:44Z</time>
      </trkpt>
      <trkpt lat="48.8826" lon="2.36943">
        <ele>57.6</ele>
        <time>2020-07-01T16:23:45Z</time>
      </trkpt>
      <trkpt lat="48.88258" lon="2.36937">
        <ele>57.5</ele>
        <time>2020-07-01T16:23:46Z</time>
      </trkpt>
      <trkpt lat="48.88256" lon="2.36931">
        <ele>57.4</ele>
        <time>2020-07-01T16:23:47Z</time>
      </trkpt>
      <trkpt lat="48.88256" lon="2.36926">
        <ele>57.3</ele>
        <time>2020-07-01T16:23:48Z</time>
      </trkpt>
      <trkpt lat="48.88254" lon="2.36921">
        <ele>57.3</ele>
        <time>2020-07-01T16:23:49Z</time>
      </trkpt>
      <trkpt lat="48.88254" lon="2.36916">
        <ele>57.2</ele>
        <time>2020-07-01T16:23:50Z</time>
      </trkpt>
      <trkpt lat="48.88254" lon="2.36912">
        <ele>57.4</ele>
        <time>2020-07-01T16:23:51Z</time>
      </trkpt>
      <trkpt lat="48.88254" lon="2.36909">
        <ele>57.4</ele>
        <time>2020-07-01T16:23:52Z</time>
      </trkpt>
      <trkpt lat="48.88253" lon="2.36908">
        <ele>57.4</ele>
        <time>2020-07-01T16:23:53Z</time>
      </trkpt>
      <trkpt lat="48.88249" lon="2.36908">
        <ele>57.5</ele>
        <time>2020-07-01T16:23:54Z</time>
      </trkpt>
      <trkpt lat="48.88247" lon="2.36909">
        <ele>57.6</ele>
        <time>2020-07-01T16:23:55Z</time>
      </trkpt>
      <trkpt lat="48.88245" lon="2.36909">
        <ele>57.6</ele>
        <time>2020-07-01T16:23:56Z</time>
      </trkpt>
      <trkpt lat="48.88245" lon="2.36909">
        <ele>57.6</ele>
        <time>2020-07-01T16:23:57Z</time>
      </trkpt>
      <trkpt lat="48.88245" lon="2.36909">
        <ele>57.6</ele>
        <time>2020-07-01T16:23:58Z</time>
      </trkpt>
      <trkpt lat="48.88244" lon="2.36909">
        <ele>57.6</ele>
        <time>2020-07-01T16:23:59Z</time>
      </trkpt>
      <trkpt lat="48.88244" lon="2.36909">
        <ele>57.6</ele>
        <time>2020-07-01T16:24:00Z</time>
      </trkpt>
      <trkpt lat="48.88244" lon="2.36909">
        <ele>57.6</ele>
        <time>2020-07-01T16:24:01Z</time>
      </trkpt>
      <trkpt lat="48.88245" lon="2.36907">
        <ele>57.7</ele>
        <time>2020-07-01T16:24:02Z</time>
      </trkpt>
      <trkpt lat="48.88245" lon="2.36905">
        <ele>57.7</ele>
        <time>2020-07-01T16:24:03Z</time>
      </trkpt>
      <trkpt lat="48.88246" lon="2.36902">
        <ele>57.7</ele>
        <time>2020-07-01T16:24:04Z</time>
      </trkpt>
      <trkpt lat="48.88245" lon="2.36901">
        <ele>57.8</ele>
        <time>2020-07-01T16:24:05Z</time>
      </trkpt>
      <trkpt lat="48.88245" lon="2.36899">
        <ele>57.8</ele>
        <time>2020-07-01T16:24:06Z</time>
      </trkpt>
      <trkpt lat="48.88244" lon="2.36897">
        <ele>57.8</ele>
        <time>2020-07-01T16:24:07Z</time>
      </trkpt>
      <trkpt lat="48.88244" lon="2.36895">
        <ele>57.8</ele>
        <time>2020-07-01T16:24:23Z</time>
      </trkpt>
      <trkpt lat="48.88243" lon="2.36893">
        <ele>57.9</ele>
        <time>2020-07-01T16:24:24Z</time>
      </trkpt>
      <trkpt lat="48.88241" lon="2.36888">
        <ele>57.9</ele>
        <time>2020-07-01T16:24:25Z</time>
      </trkpt>
      <trkpt lat="48.88239" lon="2.36882">
        <ele>57.9</ele>
        <time>2020-07-01T16:24:26Z</time>
      </trkpt>
      <trkpt lat="48.88237" lon="2.36875">
        <ele>57.9</ele>
        <time>2020-07-01T16:24:27Z</time>
      </trkpt>
      <trkpt lat="48.88235" lon="2.36867">
        <ele>57.8</ele>
        <time>2020-07-01T16:24:28Z</time>
      </trkpt>
      <trkpt lat="48.88234" lon="2.36858">
        <ele>57.8</ele>
        <time>2020-07-01T16:24:29Z</time>
      </trkpt>
      <trkpt lat="48.88232" lon="2.36849">
        <ele>57.8</ele>
        <time>2020-07-01T16:24:30Z</time>
      </trkpt>
      <trkpt lat="48.8823" lon="2.36841">
        <ele>57.7</ele>
        <time>2020-07-01T16:24:31Z</time>
      </trkpt>
      <trkpt lat="48.88228" lon="2.36833">
        <ele>57.7</ele>
        <time>2020-07-01T16:24:32Z</time>
      </trkpt>
      <trkpt lat="48.88226" lon="2.36824">
        <ele>57.7</ele>
        <time>2020-07-01T16:24:33Z</time>
      </trkpt>
      <trkpt lat="48.88224" lon="2.36816">
        <ele>57.6</ele>
        <time>2020-07-01T16:24:34Z</time>
      </trkpt>
      <trkpt lat="48.88221" lon="2.36807">
        <ele>57.6</ele>
        <time>2020-07-01T16:24:35Z</time>
      </trkpt>
      <trkpt lat="48.88219" lon="2.36799">
        <ele>57.6</ele>
        <time>2020-07-01T16:24:36Z</time>
      </trkpt>
      <trkpt lat="48.88218" lon="2.36791">
        <ele>57.6</ele>
        <time>2020-07-01T16:24:37Z</time>
      </trkpt>
      <trkpt lat="48.88215" lon="2.36784">
        <ele>57.6</ele>
        <time>2020-07-01T16:24:38Z</time>
      </trkpt>
      <trkpt lat="48.88214" lon="2.36776">
        <ele>57.6</ele>
        <time>2020-07-01T16:24:39Z</time>
      </trkpt>
      <trkpt lat="48.88212" lon="2.3677">
        <ele>57.6</ele>
        <time>2020-07-01T16:24:40Z</time>
      </trkpt>
      <trkpt lat="48.8821" lon="2.36762">
        <ele>57.6</ele>
        <time>2020-07-01T16:24:41Z</time>
      </trkpt>
      <trkpt lat="48.88206" lon="2.36756">
        <ele>57.6</ele>
        <time>2020-07-01T16:24:42Z</time>
      </trkpt>
      <trkpt lat="48.88203" lon="2.3675">
        <ele>57.6</ele>
        <time>2020-07-01T16:24:43Z</time>
      </trkpt>
      <trkpt lat="48.88201" lon="2.36742">
        <ele>57.6</ele>
        <time>2020-07-01T16:24:44Z</time>
      </trkpt>
      <trkpt lat="48.88199" lon="2.36735">
        <ele>57.6</ele>
        <time>2020-07-01T16:24:45Z</time>
      </trkpt>
      <trkpt lat="48.88199" lon="2.36727">
        <ele>57.6</ele>
        <time>2020-07-01T16:24:46Z</time>
      </trkpt>
      <trkpt lat="48.88197" lon="2.3672">
        <ele>57.6</ele>
        <time>2020-07-01T16:24:47Z</time>
      </trkpt>
      <trkpt lat="48.88195" lon="2.36713">
        <ele>57.6</ele>
        <time>2020-07-01T16:24:48Z</time>
      </trkpt>
      <trkpt lat="48.88194" lon="2.36705">
        <ele>57.6</ele>
        <time>2020-07-01T16:24:49Z</time>
      </trkpt>
      <trkpt lat="48.88192" lon="2.36698">
        <ele>57.6</ele>
        <time>2020-07-01T16:24:50Z</time>
      </trkpt>
      <trkpt lat="48.88189" lon="2.36691">
        <ele>57.6</ele>
        <time>2020-07-01T16:24:51Z</time>
      </trkpt>
      <trkpt lat="48.88188" lon="2.36685">
        <ele>57.5</ele>
        <time>2020-07-01T16:24:52Z</time>
      </trkpt>
      <trkpt lat="48.88187" lon="2.36677">
        <ele>57.5</ele>
        <time>2020-07-01T16:24:53Z</time>
      </trkpt>
      <trkpt lat="48.88186" lon="2.3667">
        <ele>57.5</ele>
        <time>2020-07-01T16:24:54Z</time>
      </trkpt>
      <trkpt lat="48.88185" lon="2.36663">
        <ele>57.5</ele>
        <time>2020-07-01T16:24:55Z</time>
      </trkpt>
      <trkpt lat="48.88184" lon="2.36656">
        <ele>57.5</ele>
        <time>2020-07-01T16:24:56Z</time>
      </trkpt>
      <trkpt lat="48.88182" lon="2.3665">
        <ele>57.5</ele>
        <time>2020-07-01T16:24:57Z</time>
      </trkpt>
      <trkpt lat="48.88179" lon="2.36643">
        <ele>57.6</ele>
        <time>2020-07-01T16:24:58Z</time>
      </trkpt>
      <trkpt lat="48.88177" lon="2.36636">
        <ele>57.6</ele>
        <time>2020-07-01T16:24:59Z</time>
      </trkpt>
      <trkpt lat="48.88174" lon="2.36628">
        <ele>57.6</ele>
        <time>2020-07-01T16:25:00Z</time>
      </trkpt>
      <trkpt lat="48.88171" lon="2.36621">
        <ele>57.6</ele>
        <time>2020-07-01T16:25:01Z</time>
      </trkpt>
      <trkpt lat="48.8817" lon="2.36613">
        <ele>57.6</ele>
        <time>2020-07-01T16:25:02Z</time>
      </trkpt>
      <trkpt lat="48.88168" lon="2.36605">
        <ele>57.6</ele>
        <time>2020-07-01T16:25:03Z</time>
      </trkpt>
      <trkpt lat="48.88167" lon="2.36596">
        <ele>57.6</ele>
        <time>2020-07-01T16:25:04Z</time>
      </trkpt>
      <trkpt lat="48.88165" lon="2.36589">
        <ele>57.6</ele>
        <time>2020-07-01T16:25:05Z</time>
      </trkpt>
      <trkpt lat="48.88162" lon="2.36583">
        <ele>57.6</ele>
        <time>2020-07-01T16:25:06Z</time>
      </trkpt>
      <trkpt lat="48.88159" lon="2.36577">
        <ele>57.7</ele>
        <time>2020-07-01T16:25:07Z</time>
      </trkpt>
      <trkpt lat="48.88157" lon="2.36571">
        <ele>57.7</ele>
        <time>2020-07-01T16:25:08Z</time>
      </trkpt>
      <trkpt lat="48.88156" lon="2.36562">
        <ele>57.8</ele>
        <time>2020-07-01T16:25:09Z</time>
      </trkpt>
      <trkpt lat="48.88155" lon="2.36555">
        <ele>57.9</ele>
        <time>2020-07-01T16:25:10Z</time>
      </trkpt>
      <trkpt lat="48.88155" lon="2.36547">
        <ele>57.9</ele>
        <time>2020-07-01T16:25:11Z</time>
      </trkpt>
      <trkpt lat="48.88155" lon="2.36539">
        <ele>58</ele>
        <time>2020-07-01T16:25:12Z</time>
      </trkpt>
      <trkpt lat="48.88154" lon="2.36532">
        <ele>58.1</ele>
        <time>2020-07-01T16:25:13Z</time>
      </trkpt>
      <trkpt lat="48.88152" lon="2.36525">
        <ele>58.2</ele>
        <time>2020-07-01T16:25:14Z</time>
      </trkpt>
      <trkpt lat="48.88149" lon="2.36519">
        <ele>58.2</ele>
        <time>2020-07-01T16:25:15Z</time>
      </trkpt>
      <trkpt lat="48.88147" lon="2.36511">
        <ele>58.3</ele>
        <time>2020-07-01T16:25:16Z</time>
      </trkpt>
      <trkpt lat="48.88146" lon="2.36504">
        <ele>58.3</ele>
        <time>2020-07-01T16:25:17Z</time>
      </trkpt>
      <trkpt lat="48.88145" lon="2.36498">
        <ele>58.4</ele>
        <time>2020-07-01T16:25:18Z</time>
      </trkpt>
      <trkpt lat="48.88146" lon="2.36494">
        <ele>58.4</ele>
        <time>2020-07-01T16:25:19Z</time>
      </trkpt>
      <trkpt lat="48.88146" lon="2.36489">
        <ele>58.4</ele>
        <time>2020-07-01T16:25:20Z</time>
      </trkpt>
      <trkpt lat="48.88144" lon="2.36486">
        <ele>58.4</ele>
        <time>2020-07-01T16:25:21Z</time>
      </trkpt>
      <trkpt lat="48.88143" lon="2.36485">
        <ele>58.4</ele>
        <time>2020-07-01T16:25:22Z</time>
      </trkpt>
      <trkpt lat="48.88145" lon="2.36483">
        <ele>58.4</ele>
        <time>2020-07-01T16:25:23Z</time>
      </trkpt>
      <trkpt lat="48.88145" lon="2.36482">
        <ele>58.4</ele>
        <time>2020-07-01T16:25:24Z</time>
      </trkpt>
      <trkpt lat="48.88144" lon="2.36482">
        <ele>58.4</ele>
        <time>2020-07-01T16:25:25Z</time>
      </trkpt>
      <trkpt lat="48.88144" lon="2.36482">
        <ele>58.4</ele>
        <time>2020-07-01T16:25:26Z</time>
      </trkpt>
      <trkpt lat="48.88145" lon="2.3648">
        <ele>58.4</ele>
        <time>2020-07-01T16:25:27Z</time>
      </trkpt>
      <trkpt lat="48.88146" lon="2.3648">
        <ele>58.5</ele>
        <time>2020-07-01T16:25:28Z</time>
      </trkpt>
      <trkpt lat="48.88146" lon="2.36479">
        <ele>58.5</ele>
        <time>2020-07-01T16:25:29Z</time>
      </trkpt>
      <trkpt lat="48.88146" lon="2.36478">
        <ele>58.5</ele>
        <time>2020-07-01T16:25:30Z</time>
      </trkpt>
      <trkpt lat="48.88147" lon="2.36477">
        <ele>58.5</ele>
        <time>2020-07-01T16:25:31Z</time>
      </trkpt>
      <trkpt lat="48.88147" lon="2.36475">
        <ele>58.5</ele>
        <time>2020-07-01T16:25:32Z</time>
      </trkpt>
      <trkpt lat="48.88146" lon="2.36475">
        <ele>58.5</ele>
        <time>2020-07-01T16:25:33Z</time>
      </trkpt>
      <trkpt lat="48.88146" lon="2.36474">
        <ele>58.5</ele>
        <time>2020-07-01T16:25:34Z</time>
      </trkpt>
      <trkpt lat="48.88146" lon="2.36474">
        <ele>58.5</ele>
        <time>2020-07-01T16:25:35Z</time>
      </trkpt>
      <trkpt lat="48.88145" lon="2.36473">
        <ele>58.5</ele>
        <time>2020-07-01T16:25:36Z</time>
      </trkpt>
      <trkpt lat="48.88145" lon="2.36473">
        <ele>58.5</ele>
        <time>2020-07-01T16:25:37Z</time>
      </trkpt>
      <trkpt lat="48.88144" lon="2.36468">
        <ele>58.7</ele>
        <time>2020-07-01T16:25:38Z</time>
      </trkpt>
      <trkpt lat="48.88144" lon="2.36466">
        <ele>58.7</ele>
        <time>2020-07-01T16:25:39Z</time>
      </trkpt>
      <trkpt lat="48.88142" lon="2.36463">
        <ele>58.7</ele>
        <time>2020-07-01T16:25:40Z</time>
      </trkpt>
      <trkpt lat="48.88141" lon="2.36458">
        <ele>58.7</ele>
        <time>2020-07-01T16:25:41Z</time>
      </trkpt>
      <trkpt lat="48.88138" lon="2.36453">
        <ele>58.7</ele>
        <time>2020-07-01T16:25:42Z</time>
      </trkpt>
      <trkpt lat="48.88135" lon="2.36448">
        <ele>58.7</ele>
        <time>2020-07-01T16:25:43Z</time>
      </trkpt>
      <trkpt lat="48.88132" lon="2.36442">
        <ele>58.7</ele>
        <time>2020-07-01T16:25:44Z</time>
      </trkpt>
      <trkpt lat="48.88129" lon="2.36436">
        <ele>58.7</ele>
        <time>2020-07-01T16:25:45Z</time>
      </trkpt>
      <trkpt lat="48.88125" lon="2.3643">
        <ele>58.7</ele>
        <time>2020-07-01T16:25:46Z</time>
      </trkpt>
      <trkpt lat="48.88122" lon="2.36422">
        <ele>58.6</ele>
        <time>2020-07-01T16:25:47Z</time>
      </trkpt>
      <trkpt lat="48.88119" lon="2.36413">
        <ele>58.6</ele>
        <time>2020-07-01T16:25:48Z</time>
      </trkpt>
      <trkpt lat="48.88116" lon="2.36406">
        <ele>58.6</ele>
        <time>2020-07-01T16:25:49Z</time>
      </trkpt>
      <trkpt lat="48.88113" lon="2.36399">
        <ele>58.7</ele>
        <time>2020-07-01T16:25:50Z</time>
      </trkpt>
      <trkpt lat="48.8811" lon="2.36391">
        <ele>58.7</ele>
        <time>2020-07-01T16:25:51Z</time>
      </trkpt>
      <trkpt lat="48.88108" lon="2.36384">
        <ele>58.7</ele>
        <time>2020-07-01T16:25:52Z</time>
      </trkpt>
      <trkpt lat="48.88105" lon="2.36377">
        <ele>58.7</ele>
        <time>2020-07-01T16:25:53Z</time>
      </trkpt>
      <trkpt lat="48.88103" lon="2.36368">
        <ele>58.7</ele>
        <time>2020-07-01T16:25:54Z</time>
      </trkpt>
      <trkpt lat="48.881" lon="2.3636">
        <ele>58.7</ele>
        <time>2020-07-01T16:25:55Z</time>
      </trkpt>
      <trkpt lat="48.88098" lon="2.36353">
        <ele>58.8</ele>
        <time>2020-07-01T16:25:56Z</time>
      </trkpt>
      <trkpt lat="48.88097" lon="2.36345">
        <ele>58.8</ele>
        <time>2020-07-01T16:25:57Z</time>
      </trkpt>
      <trkpt lat="48.88095" lon="2.36337">
        <ele>58.8</ele>
        <time>2020-07-01T16:25:58Z</time>
      </trkpt>
      <trkpt lat="48.88094" lon="2.36329">
        <ele>58.8</ele>
        <time>2020-07-01T16:25:59Z</time>
      </trkpt>
      <trkpt lat="48.88092" lon="2.36323">
        <ele>58.8</ele>
        <time>2020-07-01T16:26:00Z</time>
      </trkpt>
      <trkpt lat="48.88092" lon="2.36316">
        <ele>58.9</ele>
        <time>2020-07-01T16:26:01Z</time>
      </trkpt>
      <trkpt lat="48.8809" lon="2.3631">
        <ele>58.9</ele>
        <time>2020-07-01T16:26:02Z</time>
      </trkpt>
      <trkpt lat="48.88088" lon="2.36303">
        <ele>58.9</ele>
        <time>2020-07-01T16:26:03Z</time>
      </trkpt>
      <trkpt lat="48.88087" lon="2.36297">
        <ele>58.9</ele>
        <time>2020-07-01T16:26:04Z</time>
      </trkpt>
      <trkpt lat="48.88086" lon="2.3629">
        <ele>59</ele>
        <time>2020-07-01T16:26:05Z</time>
      </trkpt>
      <trkpt lat="48.88086" lon="2.36284">
        <ele>59</ele>
        <time>2020-07-01T16:26:06Z</time>
      </trkpt>
      <trkpt lat="48.88084" lon="2.36279">
        <ele>59</ele>
        <time>2020-07-01T16:26:07Z</time>
      </trkpt>
      <trkpt lat="48.88084" lon="2.36279">
        <ele>59</ele>
        <time>2020-07-01T16:26:08Z</time>
      </trkpt>
      <trkpt lat="48.88084" lon="2.36279">
        <ele>59</ele>
        <time>2020-07-01T16:26:09Z</time>
      </trkpt>
      <trkpt lat="48.88084" lon="2.36278">
        <ele>59</ele>
        <time>2020-07-01T16:26:10Z</time>
      </trkpt>
      <trkpt lat="48.88083" lon="2.36278">
        <ele>59</ele>
        <time>2020-07-01T16:26:11Z</time>
      </trkpt>
      <trkpt lat="48.88082" lon="2.36277">
        <ele>59</ele>
        <time>2020-07-01T16:26:12Z</time>
      </trkpt>
      <trkpt lat="48.88082" lon="2.36275">
        <ele>59.1</ele>
        <time>2020-07-01T16:26:13Z</time>
      </trkpt>
      <trkpt lat="48.88082" lon="2.36274">
        <ele>59.1</ele>
        <time>2020-07-01T16:26:14Z</time>
      </trkpt>
      <trkpt lat="48.88082" lon="2.36272">
        <ele>59.1</ele>
        <time>2020-07-01T16:26:15Z</time>
      </trkpt>
      <trkpt lat="48.88083" lon="2.3627">
        <ele>59.1</ele>
        <time>2020-07-01T16:26:16Z</time>
      </trkpt>
      <trkpt lat="48.88082" lon="2.36269">
        <ele>59.1</ele>
        <time>2020-07-01T16:26:17Z</time>
      </trkpt>
      <trkpt lat="48.88083" lon="2.36267">
        <ele>59.1</ele>
        <time>2020-07-01T16:26:18Z</time>
      </trkpt>
      <trkpt lat="48.88083" lon="2.36266">
        <ele>59.1</ele>
        <time>2020-07-01T16:26:19Z</time>
      </trkpt>
      <trkpt lat="48.88082" lon="2.36265">
        <ele>59.1</ele>
        <time>2020-07-01T16:26:20Z</time>
      </trkpt>
      <trkpt lat="48.88082" lon="2.36262">
        <ele>59.1</ele>
        <time>2020-07-01T16:26:21Z</time>
      </trkpt>
      <trkpt lat="48.88082" lon="2.36261">
        <ele>59.1</ele>
        <time>2020-07-01T16:26:22Z</time>
      </trkpt>
      <trkpt lat="48.88081" lon="2.36259">
        <ele>59.1</ele>
        <time>2020-07-01T16:26:23Z</time>
      </trkpt>
      <trkpt lat="48.88081" lon="2.36257">
        <ele>59.1</ele>
        <time>2020-07-01T16:26:24Z</time>
      </trkpt>
      <trkpt lat="48.8808" lon="2.36256">
        <ele>59.1</ele>
        <time>2020-07-01T16:26:25Z</time>
      </trkpt>
      <trkpt lat="48.88079" lon="2.36253">
        <ele>59.1</ele>
        <time>2020-07-01T16:26:26Z</time>
      </trkpt>
      <trkpt lat="48.88078" lon="2.36252">
        <ele>59.1</ele>
        <time>2020-07-01T16:26:27Z</time>
      </trkpt>
      <trkpt lat="48.88077" lon="2.3625">
        <ele>59.2</ele>
        <time>2020-07-01T16:26:28Z</time>
      </trkpt>
      <trkpt lat="48.88075" lon="2.36248">
        <ele>59.2</ele>
        <time>2020-07-01T16:26:29Z</time>
      </trkpt>
      <trkpt lat="48.88072" lon="2.36245">
        <ele>59.2</ele>
        <time>2020-07-01T16:26:30Z</time>
      </trkpt>
      <trkpt lat="48.8807" lon="2.36244">
        <ele>59.2</ele>
        <time>2020-07-01T16:26:31Z</time>
      </trkpt>
      <trkpt lat="48.88068" lon="2.36241">
        <ele>59.2</ele>
        <time>2020-07-01T16:26:32Z</time>
      </trkpt>
      <trkpt lat="48.88065" lon="2.3624">
        <ele>59.2</ele>
        <time>2020-07-01T16:26:33Z</time>
      </trkpt>
      <trkpt lat="48.88064" lon="2.3624">
        <ele>59.2</ele>
        <time>2020-07-01T16:26:34Z</time>
      </trkpt>
      <trkpt lat="48.88061" lon="2.36238">
        <ele>59.1</ele>
        <time>2020-07-01T16:26:35Z</time>
      </trkpt>
      <trkpt lat="48.88058" lon="2.36235">
        <ele>59.1</ele>
        <time>2020-07-01T16:26:36Z</time>
      </trkpt>
      <trkpt lat="48.88052" lon="2.36237">
        <ele>58.9</ele>
        <time>2020-07-01T16:26:37Z</time>
      </trkpt>
      <trkpt lat="48.88049" lon="2.36235">
        <ele>58.8</ele>
        <time>2020-07-01T16:26:38Z</time>
      </trkpt>
      <trkpt lat="48.88045" lon="2.36234">
        <ele>58.7</ele>
        <time>2020-07-01T16:26:39Z</time>
      </trkpt>
      <trkpt lat="48.88039" lon="2.36232">
        <ele>58.5</ele>
        <time>2020-07-01T16:26:40Z</time>
      </trkpt>
      <trkpt lat="48.88035" lon="2.36231">
        <ele>58.4</ele>
        <time>2020-07-01T16:26:41Z</time>
      </trkpt>
      <trkpt lat="48.88031" lon="2.36232">
        <ele>58.2</ele>
        <time>2020-07-01T16:26:42Z</time>
      </trkpt>
      <trkpt lat="48.88027" lon="2.3623">
        <ele>58</ele>
        <time>2020-07-01T16:26:43Z</time>
      </trkpt>
      <trkpt lat="48.88021" lon="2.3623">
        <ele>57.8</ele>
        <time>2020-07-01T16:26:44Z</time>
      </trkpt>
      <trkpt lat="48.88016" lon="2.36228">
        <ele>57.7</ele>
        <time>2020-07-01T16:26:45Z</time>
      </trkpt>
      <trkpt lat="48.88012" lon="2.36228">
        <ele>57.6</ele>
        <time>2020-07-01T16:26:46Z</time>
      </trkpt>
      <trkpt lat="48.88006" lon="2.36229">
        <ele>57.4</ele>
        <time>2020-07-01T16:26:47Z</time>
      </trkpt>
      <trkpt lat="48.88" lon="2.3623">
        <ele>57.2</ele>
        <time>2020-07-01T16:26:48Z</time>
      </trkpt>
      <trkpt lat="48.87994" lon="2.3623">
        <ele>57</ele>
        <time>2020-07-01T16:26:49Z</time>
      </trkpt>
      <trkpt lat="48.87989" lon="2.3623">
        <ele>56.8</ele>
        <time>2020-07-01T16:26:50Z</time>
      </trkpt>
      <trkpt lat="48.87983" lon="2.3623">
        <ele>56.6</ele>
        <time>2020-07-01T16:26:51Z</time>
      </trkpt>
      <trkpt lat="48.87977" lon="2.36231">
        <ele>56.4</ele>
        <time>2020-07-01T16:26:52Z</time>
      </trkpt>
      <trkpt lat="48.87971" lon="2.36232">
        <ele>56.2</ele>
        <time>2020-07-01T16:26:53Z</time>
      </trkpt>
      <trkpt lat="48.87965" lon="2.36233">
        <ele>56</ele>
        <time>2020-07-01T16:26:54Z</time>
      </trkpt>
      <trkpt lat="48.8796" lon="2.36234">
        <ele>55.9</ele>
        <time>2020-07-01T16:26:55Z</time>
      </trkpt>
      <trkpt lat="48.87955" lon="2.36234">
        <ele>55.8</ele>
        <time>2020-07-01T16:26:56Z</time>
      </trkpt>
      <trkpt lat="48.8795" lon="2.36235">
        <ele>55.6</ele>
        <time>2020-07-01T16:26:57Z</time>
      </trkpt>
      <trkpt lat="48.87945" lon="2.36236">
        <ele>55.5</ele>
        <time>2020-07-01T16:26:58Z</time>
      </trkpt>
      <trkpt lat="48.87939" lon="2.36237">
        <ele>55.3</ele>
        <time>2020-07-01T16:26:59Z</time>
      </trkpt>
      <trkpt lat="48.87934" lon="2.36238">
        <ele>55.2</ele>
        <time>2020-07-01T16:27:00Z</time>
      </trkpt>
      <trkpt lat="48.87929" lon="2.36239">
        <ele>55.1</ele>
        <time>2020-07-01T16:27:01Z</time>
      </trkpt>
      <trkpt lat="48.87924" lon="2.3624">
        <ele>55</ele>
        <time>2020-07-01T16:27:02Z</time>
      </trkpt>
      <trkpt lat="48.87918" lon="2.36239">
        <ele>54.9</ele>
        <time>2020-07-01T16:27:03Z</time>
      </trkpt>
      <trkpt lat="48.87912" lon="2.36236">
        <ele>54.8</ele>
        <time>2020-07-01T16:27:04Z</time>
      </trkpt>
      <trkpt lat="48.87907" lon="2.36235">
        <ele>54.8</ele>
        <time>2020-07-01T16:27:05Z</time>
      </trkpt>
      <trkpt lat="48.87901" lon="2.36231">
        <ele>54.7</ele>
        <time>2020-07-01T16:27:06Z</time>
      </trkpt>
      <trkpt lat="48.87897" lon="2.36229">
        <ele>54.6</ele>
        <time>2020-07-01T16:27:07Z</time>
      </trkpt>
      <trkpt lat="48.87893" lon="2.36226">
        <ele>54.5</ele>
        <time>2020-07-01T16:27:08Z</time>
      </trkpt>
      <trkpt lat="48.87888" lon="2.36222">
        <ele>54.5</ele>
        <time>2020-07-01T16:27:09Z</time>
      </trkpt>
      <trkpt lat="48.87884" lon="2.36218">
        <ele>54.6</ele>
        <time>2020-07-01T16:27:10Z</time>
      </trkpt>
      <trkpt lat="48.87879" lon="2.36213">
        <ele>54.5</ele>
        <time>2020-07-01T16:27:11Z</time>
      </trkpt>
      <trkpt lat="48.87876" lon="2.36207">
        <ele>54.5</ele>
        <time>2020-07-01T16:27:12Z</time>
      </trkpt>
      <trkpt lat="48.87872" lon="2.36203">
        <ele>54.5</ele>
        <time>2020-07-01T16:27:13Z</time>
      </trkpt>
      <trkpt lat="48.87869" lon="2.36201">
        <ele>54.5</ele>
        <time>2020-07-01T16:27:14Z</time>
      </trkpt>
      <trkpt lat="48.87866" lon="2.36199">
        <ele>54.5</ele>
        <time>2020-07-01T16:27:15Z</time>
      </trkpt>
      <trkpt lat="48.87862" lon="2.36198">
        <ele>54.5</ele>
        <time>2020-07-01T16:27:16Z</time>
      </trkpt>
      <trkpt lat="48.87859" lon="2.36196">
        <ele>54.5</ele>
        <time>2020-07-01T16:27:17Z</time>
      </trkpt>
      <trkpt lat="48.87857" lon="2.3619">
        <ele>54.4</ele>
        <time>2020-07-01T16:27:18Z</time>
      </trkpt>
      <trkpt lat="48.87853" lon="2.36189">
        <ele>54.4</ele>
        <time>2020-07-01T16:27:19Z</time>
      </trkpt>
      <trkpt lat="48.87849" lon="2.36188">
        <ele>54.4</ele>
        <time>2020-07-01T16:27:20Z</time>
      </trkpt>
      <trkpt lat="48.87845" lon="2.36187">
        <ele>54.3</ele>
        <time>2020-07-01T16:27:21Z</time>
      </trkpt>
      <trkpt lat="48.87842" lon="2.36185">
        <ele>54.3</ele>
        <time>2020-07-01T16:27:22Z</time>
      </trkpt>
      <trkpt lat="48.87838" lon="2.36182">
        <ele>54.3</ele>
        <time>2020-07-01T16:27:23Z</time>
      </trkpt>
      <trkpt lat="48.87833" lon="2.36179">
        <ele>54.2</ele>
        <time>2020-07-01T16:27:24Z</time>
      </trkpt>
      <trkpt lat="48.87829" lon="2.36176">
        <ele>54.2</ele>
        <time>2020-07-01T16:27:25Z</time>
      </trkpt>
      <trkpt lat="48.87824" lon="2.36173">
        <ele>54.2</ele>
        <time>2020-07-01T16:27:26Z</time>
      </trkpt>
      <trkpt lat="48.87819" lon="2.36169">
        <ele>54.1</ele>
        <time>2020-07-01T16:27:27Z</time>
      </trkpt>
      <trkpt lat="48.87813" lon="2.36167">
        <ele>54.1</ele>
        <time>2020-07-01T16:27:28Z</time>
      </trkpt>
      <trkpt lat="48.87808" lon="2.36164">
        <ele>54</ele>
        <time>2020-07-01T16:27:29Z</time>
      </trkpt>
      <trkpt lat="48.87802" lon="2.36161">
        <ele>54</ele>
        <time>2020-07-01T16:27:30Z</time>
      </trkpt>
      <trkpt lat="48.87797" lon="2.36157">
        <ele>54</ele>
        <time>2020-07-01T16:27:31Z</time>
      </trkpt>
      <trkpt lat="48.87791" lon="2.36154">
        <ele>53.9</ele>
        <time>2020-07-01T16:27:32Z</time>
      </trkpt>
      <trkpt lat="48.87785" lon="2.36152">
        <ele>53.9</ele>
        <time>2020-07-01T16:27:33Z</time>
      </trkpt>
      <trkpt lat="48.8778" lon="2.36149">
        <ele>53.9</ele>
        <time>2020-07-01T16:27:34Z</time>
      </trkpt>
      <trkpt lat="48.87775" lon="2.36145">
        <ele>53.9</ele>
        <time>2020-07-01T16:27:35Z</time>
      </trkpt>
      <trkpt lat="48.87769" lon="2.36142">
        <ele>53.9</ele>
        <time>2020-07-01T16:27:36Z</time>
      </trkpt>
      <trkpt lat="48.87764" lon="2.36138">
        <ele>53.8</ele>
        <time>2020-07-01T16:27:37Z</time>
      </trkpt>
      <trkpt lat="48.87758" lon="2.36135">
        <ele>53.8</ele>
        <time>2020-07-01T16:27:38Z</time>
      </trkpt>
      <trkpt lat="48.87753" lon="2.36132">
        <ele>53.8</ele>
        <time>2020-07-01T16:27:39Z</time>
      </trkpt>
      <trkpt lat="48.87747" lon="2.3613">
        <ele>53.7</ele>
        <time>2020-07-01T16:27:40Z</time>
      </trkpt>
      <trkpt lat="48.87742" lon="2.36126">
        <ele>53.6</ele>
        <time>2020-07-01T16:27:41Z</time>
      </trkpt>
      <trkpt lat="48.87738" lon="2.36125">
        <ele>53.5</ele>
        <time>2020-07-01T16:27:42Z</time>
      </trkpt>
      <trkpt lat="48.87733" lon="2.36122">
        <ele>53.4</ele>
        <time>2020-07-01T16:27:43Z</time>
      </trkpt>
      <trkpt lat="48.87728" lon="2.36121">
        <ele>53.3</ele>
        <time>2020-07-01T16:27:44Z</time>
      </trkpt>
      <trkpt lat="48.87724" lon="2.36118">
        <ele>53.2</ele>
        <time>2020-07-01T16:27:45Z</time>
      </trkpt>
      <trkpt lat="48.87719" lon="2.36114">
        <ele>53.1</ele>
        <time>2020-07-01T16:27:46Z</time>
      </trkpt>
      <trkpt lat="48.87715" lon="2.36107">
        <ele>53</ele>
        <time>2020-07-01T16:27:47Z</time>
      </trkpt>
      <trkpt lat="48.8771" lon="2.36103">
        <ele>52.9</ele>
        <time>2020-07-01T16:27:48Z</time>
      </trkpt>
      <trkpt lat="48.87705" lon="2.36099">
        <ele>52.8</ele>
        <time>2020-07-01T16:27:49Z</time>
      </trkpt>
      <trkpt lat="48.87699" lon="2.36096">
        <ele>52.7</ele>
        <time>2020-07-01T16:27:50Z</time>
      </trkpt>
      <trkpt lat="48.87693" lon="2.36093">
        <ele>52.6</ele>
        <time>2020-07-01T16:27:51Z</time>
      </trkpt>
      <trkpt lat="48.87689" lon="2.36089">
        <ele>52.4</ele>
        <time>2020-07-01T16:27:52Z</time>
      </trkpt>
      <trkpt lat="48.87683" lon="2.36085">
        <ele>52.3</ele>
        <time>2020-07-01T16:27:53Z</time>
      </trkpt>
      <trkpt lat="48.87677" lon="2.36081">
        <ele>52.1</ele>
        <time>2020-07-01T16:27:54Z</time>
      </trkpt>
      <trkpt lat="48.87671" lon="2.36077">
        <ele>51.9</ele>
        <time>2020-07-01T16:27:55Z</time>
      </trkpt>
      <trkpt lat="48.87665" lon="2.36074">
        <ele>51.7</ele>
        <time>2020-07-01T16:27:56Z</time>
      </trkpt>
      <trkpt lat="48.87658" lon="2.3607">
        <ele>51.5</ele>
        <time>2020-07-01T16:27:57Z</time>
      </trkpt>
      <trkpt lat="48.87651" lon="2.36068">
        <ele>51.3</ele>
        <time>2020-07-01T16:27:58Z</time>
      </trkpt>
      <trkpt lat="48.87645" lon="2.36065">
        <ele>51.1</ele>
        <time>2020-07-01T16:27:59Z</time>
      </trkpt>
      <trkpt lat="48.87638" lon="2.36062">
        <ele>51</ele>
        <time>2020-07-01T16:28:00Z</time>
      </trkpt>
      <trkpt lat="48.87632" lon="2.36058">
        <ele>50.9</ele>
        <time>2020-07-01T16:28:01Z</time>
      </trkpt>
      <trkpt lat="48.87626" lon="2.36054">
        <ele>50.8</ele>
        <time>2020-07-01T16:28:02Z</time>
      </trkpt>
      <trkpt lat="48.87621" lon="2.36051">
        <ele>50.8</ele>
        <time>2020-07-01T16:28:03Z</time>
      </trkpt>
      <trkpt lat="48.87616" lon="2.36048">
        <ele>50.7</ele>
        <time>2020-07-01T16:28:04Z</time>
      </trkpt>
      <trkpt lat="48.87612" lon="2.36044">
        <ele>50.6</ele>
        <time>2020-07-01T16:28:05Z</time>
      </trkpt>
      <trkpt lat="48.87609" lon="2.3604">
        <ele>50.6</ele>
        <time>2020-07-01T16:28:06Z</time>
      </trkpt>
      <trkpt lat="48.87605" lon="2.36036">
        <ele>50.6</ele>
        <time>2020-07-01T16:28:07Z</time>
      </trkpt>
      <trkpt lat="48.87602" lon="2.36031">
        <ele>50.6</ele>
        <time>2020-07-01T16:28:08Z</time>
      </trkpt>
      <trkpt lat="48.876" lon="2.36025">
        <ele>50.6</ele>
        <time>2020-07-01T16:28:09Z</time>
      </trkpt>
      <trkpt lat="48.876" lon="2.3602">
        <ele>50.7</ele>
        <time>2020-07-01T16:28:10Z</time>
      </trkpt>
      <trkpt lat="48.87599" lon="2.36014">
        <ele>50.7</ele>
        <time>2020-07-01T16:28:11Z</time>
      </trkpt>
      <trkpt lat="48.87599" lon="2.36007">
        <ele>50.8</ele>
        <time>2020-07-01T16:28:12Z</time>
      </trkpt>
      <trkpt lat="48.87599" lon="2.36001">
        <ele>50.9</ele>
        <time>2020-07-01T16:28:13Z</time>
      </trkpt>
      <trkpt lat="48.87599" lon="2.35994">
        <ele>51</ele>
        <time>2020-07-01T16:28:14Z</time>
      </trkpt>
      <trkpt lat="48.876" lon="2.35987">
        <ele>51.1</ele>
        <time>2020-07-01T16:28:15Z</time>
      </trkpt>
      <trkpt lat="48.87601" lon="2.3598">
        <ele>51.2</ele>
        <time>2020-07-01T16:28:16Z</time>
      </trkpt>
      <trkpt lat="48.87602" lon="2.35974">
        <ele>51.3</ele>
        <time>2020-07-01T16:28:17Z</time>
      </trkpt>
      <trkpt lat="48.87603" lon="2.35968">
        <ele>51.4</ele>
        <time>2020-07-01T16:28:18Z</time>
      </trkpt>
      <trkpt lat="48.87604" lon="2.35961">
        <ele>51.5</ele>
        <time>2020-07-01T16:28:19Z</time>
      </trkpt>
      <trkpt lat="48.87605" lon="2.35955">
        <ele>51.6</ele>
        <time>2020-07-01T16:28:20Z</time>
      </trkpt>
      <trkpt lat="48.87606" lon="2.35948">
        <ele>51.6</ele>
        <time>2020-07-01T16:28:21Z</time>
      </trkpt>
      <trkpt lat="48.87607" lon="2.35941">
        <ele>51.6</ele>
        <time>2020-07-01T16:28:22Z</time>
      </trkpt>
      <trkpt lat="48.87609" lon="2.35932">
        <ele>51.6</ele>
        <time>2020-07-01T16:28:23Z</time>
      </trkpt>
      <trkpt lat="48.8761" lon="2.35923">
        <ele>51.5</ele>
        <time>2020-07-01T16:28:24Z</time>
      </trkpt>
      <trkpt lat="48.87612" lon="2.35915">
        <ele>51.5</ele>
        <time>2020-07-01T16:28:25Z</time>
      </trkpt>
      <trkpt lat="48.87614" lon="2.35907">
        <ele>51.5</ele>
        <time>2020-07-01T16:28:26Z</time>
      </trkpt>
      <trkpt lat="48.87615" lon="2.35899">
        <ele>51.5</ele>
        <time>2020-07-01T16:28:27Z</time>
      </trkpt>
      <trkpt lat="48.87615" lon="2.3589">
        <ele>51.5</ele>
        <time>2020-07-01T16:28:28Z</time>
      </trkpt>
      <trkpt lat="48.87616" lon="2.35883">
        <ele>51.5</ele>
        <time>2020-07-01T16:28:29Z</time>
      </trkpt>
      <trkpt lat="48.87617" lon="2.35876">
        <ele>51.5</ele>
        <time>2020-07-01T16:28:30Z</time>
      </trkpt>
      <trkpt lat="48.87618" lon="2.3587">
        <ele>51.5</ele>
        <time>2020-07-01T16:28:31Z</time>
      </trkpt>
      <trkpt lat="48.87619" lon="2.35864">
        <ele>51.6</ele>
        <time>2020-07-01T16:28:32Z</time>
      </trkpt>
      <trkpt lat="48.8762" lon="2.35858">
        <ele>51.6</ele>
        <time>2020-07-01T16:28:33Z</time>
      </trkpt>
      <trkpt lat="48.8762" lon="2.35853">
        <ele>51.6</ele>
        <time>2020-07-01T16:28:34Z</time>
      </trkpt>
      <trkpt lat="48.87619" lon="2.35849">
        <ele>51.6</ele>
        <time>2020-07-01T16:28:35Z</time>
      </trkpt>
      <trkpt lat="48.87618" lon="2.35844">
        <ele>51.8</ele>
        <time>2020-07-01T16:28:36Z</time>
      </trkpt>
      <trkpt lat="48.87617" lon="2.35843">
        <ele>51.8</ele>
        <time>2020-07-01T16:28:37Z</time>
      </trkpt>
      <trkpt lat="48.87614" lon="2.3584">
        <ele>51.9</ele>
        <time>2020-07-01T16:28:38Z</time>
      </trkpt>
      <trkpt lat="48.87613" lon="2.35839">
        <ele>51.9</ele>
        <time>2020-07-01T16:28:39Z</time>
      </trkpt>
      <trkpt lat="48.8761" lon="2.35837">
        <ele>51.8</ele>
        <time>2020-07-01T16:28:40Z</time>
      </trkpt>
      <trkpt lat="48.87607" lon="2.35834">
        <ele>51.8</ele>
        <time>2020-07-01T16:28:41Z</time>
      </trkpt>
      <trkpt lat="48.87603" lon="2.35831">
        <ele>51.6</ele>
        <time>2020-07-01T16:28:42Z</time>
      </trkpt>
      <trkpt lat="48.87599" lon="2.35827">
        <ele>51.5</ele>
        <time>2020-07-01T16:28:43Z</time>
      </trkpt>
      <trkpt lat="48.87595" lon="2.35825">
        <ele>51.3</ele>
        <time>2020-07-01T16:28:44Z</time>
      </trkpt>
      <trkpt lat="48.87592" lon="2.35822">
        <ele>51.2</ele>
        <time>2020-07-01T16:28:45Z</time>
      </trkpt>
      <trkpt lat="48.87589" lon="2.35819">
        <ele>51.1</ele>
        <time>2020-07-01T16:28:46Z</time>
      </trkpt>
      <trkpt lat="48.87585" lon="2.35815">
        <ele>50.9</ele>
        <time>2020-07-01T16:28:47Z</time>
      </trkpt>
      <trkpt lat="48.87581" lon="2.35812">
        <ele>50.8</ele>
        <time>2020-07-01T16:28:48Z</time>
      </trkpt>
      <trkpt lat="48.87578" lon="2.3581">
        <ele>50.7</ele>
        <time>2020-07-01T16:28:49Z</time>
      </trkpt>
      <trkpt lat="48.87573" lon="2.35808">
        <ele>50.6</ele>
        <time>2020-07-01T16:28:50Z</time>
      </trkpt>
      <trkpt lat="48.87568" lon="2.35805">
        <ele>50.5</ele>
        <time>2020-07-01T16:28:51Z</time>
      </trkpt>
      <trkpt lat="48.87563" lon="2.35802">
        <ele>50.4</ele>
        <time>2020-07-01T16:28:52Z</time>
      </trkpt>
      <trkpt lat="48.87559" lon="2.35799">
        <ele>50.3</ele>
        <time>2020-07-01T16:28:53Z</time>
      </trkpt>
      <trkpt lat="48.87555" lon="2.35795">
        <ele>50.3</ele>
        <time>2020-07-01T16:28:54Z</time>
      </trkpt>
      <trkpt lat="48.8755" lon="2.35792">
        <ele>50.2</ele>
        <time>2020-07-01T16:28:55Z</time>
      </trkpt>
      <trkpt lat="48.87544" lon="2.35788">
        <ele>50.1</ele>
        <time>2020-07-01T16:28:56Z</time>
      </trkpt>
      <trkpt lat="48.8754" lon="2.35784">
        <ele>50</ele>
        <time>2020-07-01T16:28:57Z</time>
      </trkpt>
      <trkpt lat="48.87535" lon="2.35782">
        <ele>49.9</ele>
        <time>2020-07-01T16:28:58Z</time>
      </trkpt>
      <trkpt lat="48.8753" lon="2.35779">
        <ele>49.7</ele>
        <time>2020-07-01T16:28:59Z</time>
      </trkpt>
      <trkpt lat="48.87526" lon="2.35776">
        <ele>49.6</ele>
        <time>2020-07-01T16:29:00Z</time>
      </trkpt>
      <trkpt lat="48.87521" lon="2.35775">
        <ele>49.5</ele>
        <time>2020-07-01T16:29:01Z</time>
      </trkpt>
      <trkpt lat="48.87516" lon="2.35774">
        <ele>49.4</ele>
        <time>2020-07-01T16:29:02Z</time>
      </trkpt>
      <trkpt lat="48.87512" lon="2.35772">
        <ele>49.3</ele>
        <time>2020-07-01T16:29:03Z</time>
      </trkpt>
      <trkpt lat="48.87507" lon="2.35771">
        <ele>49.3</ele>
        <time>2020-07-01T16:29:04Z</time>
      </trkpt>
      <trkpt lat="48.87502" lon="2.3577">
        <ele>49.2</ele>
        <time>2020-07-01T16:29:05Z</time>
      </trkpt>
      <trkpt lat="48.87497" lon="2.35769">
        <ele>49.1</ele>
        <time>2020-07-01T16:29:06Z</time>
      </trkpt>
      <trkpt lat="48.87493" lon="2.35768">
        <ele>49.1</ele>
        <time>2020-07-01T16:29:07Z</time>
      </trkpt>
      <trkpt lat="48.87488" lon="2.35765">
        <ele>49</ele>
        <time>2020-07-01T16:29:08Z</time>
      </trkpt>
      <trkpt lat="48.87483" lon="2.35765">
        <ele>49</ele>
        <time>2020-07-01T16:29:09Z</time>
      </trkpt>
      <trkpt lat="48.87479" lon="2.35763">
        <ele>48.9</ele>
        <time>2020-07-01T16:29:10Z</time>
      </trkpt>
      <trkpt lat="48.87475" lon="2.35762">
        <ele>48.9</ele>
        <time>2020-07-01T16:29:11Z</time>
      </trkpt>
      <trkpt lat="48.87473" lon="2.35756">
        <ele>49</ele>
        <time>2020-07-01T16:29:12Z</time>
      </trkpt>
      <trkpt lat="48.87469" lon="2.35752">
        <ele>49.1</ele>
        <time>2020-07-01T16:29:13Z</time>
      </trkpt>
      <trkpt lat="48.87466" lon="2.35745">
        <ele>49.1</ele>
        <time>2020-07-01T16:29:14Z</time>
      </trkpt>
      <trkpt lat="48.87462" lon="2.35738">
        <ele>49</ele>
        <time>2020-07-01T16:29:15Z</time>
      </trkpt>
      <trkpt lat="48.87459" lon="2.35731">
        <ele>48.8</ele>
        <time>2020-07-01T16:29:16Z</time>
      </trkpt>
      <trkpt lat="48.87456" lon="2.35725">
        <ele>48.6</ele>
        <time>2020-07-01T16:29:17Z</time>
      </trkpt>
      <trkpt lat="48.87452" lon="2.3572">
        <ele>48.5</ele>
        <time>2020-07-01T16:29:18Z</time>
      </trkpt>
      <trkpt lat="48.87448" lon="2.35716">
        <ele>48.5</ele>
        <time>2020-07-01T16:29:19Z</time>
      </trkpt>
      <trkpt lat="48.87443" lon="2.35714">
        <ele>48.3</ele>
        <time>2020-07-01T16:29:20Z</time>
      </trkpt>
      <trkpt lat="48.87439" lon="2.3571">
        <ele>48.2</ele>
        <time>2020-07-01T16:29:21Z</time>
      </trkpt>
      <trkpt lat="48.87436" lon="2.35708">
        <ele>48.1</ele>
        <time>2020-07-01T16:29:22Z</time>
      </trkpt>
      <trkpt lat="48.87434" lon="2.35705">
        <ele>48</ele>
        <time>2020-07-01T16:29:23Z</time>
      </trkpt>
      <trkpt lat="48.87432" lon="2.35702">
        <ele>48</ele>
        <time>2020-07-01T16:29:24Z</time>
      </trkpt>
      <trkpt lat="48.87431" lon="2.35702">
        <ele>47.9</ele>
        <time>2020-07-01T16:29:25Z</time>
      </trkpt>
      <trkpt lat="48.87427" lon="2.35701">
        <ele>47.8</ele>
        <time>2020-07-01T16:29:26Z</time>
      </trkpt>
      <trkpt lat="48.87426" lon="2.35701">
        <ele>47.8</ele>
        <time>2020-07-01T16:29:27Z</time>
      </trkpt>
      <trkpt lat="48.87423" lon="2.35702">
        <ele>47.7</ele>
        <time>2020-07-01T16:29:28Z</time>
      </trkpt>
      <trkpt lat="48.87421" lon="2.35698">
        <ele>47.6</ele>
        <time>2020-07-01T16:29:29Z</time>
      </trkpt>
      <trkpt lat="48.87419" lon="2.35697">
        <ele>47.6</ele>
        <time>2020-07-01T16:29:30Z</time>
      </trkpt>
      <trkpt lat="48.87415" lon="2.35694">
        <ele>47.5</ele>
        <time>2020-07-01T16:29:31Z</time>
      </trkpt>
      <trkpt lat="48.87411" lon="2.35692">
        <ele>47.3</ele>
        <time>2020-07-01T16:29:32Z</time>
      </trkpt>
      <trkpt lat="48.87406" lon="2.35688">
        <ele>47.2</ele>
        <time>2020-07-01T16:29:33Z</time>
      </trkpt>
      <trkpt lat="48.87401" lon="2.35685">
        <ele>47.1</ele>
        <time>2020-07-01T16:29:34Z</time>
      </trkpt>
      <trkpt lat="48.87397" lon="2.35685">
        <ele>47</ele>
        <time>2020-07-01T16:29:35Z</time>
      </trkpt>
      <trkpt lat="48.87392" lon="2.35682">
        <ele>46.8</ele>
        <time>2020-07-01T16:29:36Z</time>
      </trkpt>
      <trkpt lat="48.87387" lon="2.35677">
        <ele>46.5</ele>
        <time>2020-07-01T16:29:37Z</time>
      </trkpt>
      <trkpt lat="48.87382" lon="2.35674">
        <ele>46.4</ele>
        <time>2020-07-01T16:29:38Z</time>
      </trkpt>
      <trkpt lat="48.87376" lon="2.35672">
        <ele>46.3</ele>
        <time>2020-07-01T16:29:39Z</time>
      </trkpt>
      <trkpt lat="48.8737" lon="2.35669">
        <ele>46.2</ele>
        <time>2020-07-01T16:29:40Z</time>
      </trkpt>
      <trkpt lat="48.87364" lon="2.35667">
        <ele>46.1</ele>
        <time>2020-07-01T16:29:41Z</time>
      </trkpt>
      <trkpt lat="48.87359" lon="2.35665">
        <ele>45.9</ele>
        <time>2020-07-01T16:29:42Z</time>
      </trkpt>
      <trkpt lat="48.87355" lon="2.35663">
        <ele>45.8</ele>
        <time>2020-07-01T16:29:43Z</time>
      </trkpt>
      <trkpt lat="48.8735" lon="2.35659">
        <ele>45.7</ele>
        <time>2020-07-01T16:29:44Z</time>
      </trkpt>
      <trkpt lat="48.87344" lon="2.35657">
        <ele>45.5</ele>
        <time>2020-07-01T16:29:45Z</time>
      </trkpt>
      <trkpt lat="48.87339" lon="2.35653">
        <ele>45.4</ele>
        <time>2020-07-01T16:29:46Z</time>
      </trkpt>
      <trkpt lat="48.87332" lon="2.3565">
        <ele>45.2</ele>
        <time>2020-07-01T16:29:47Z</time>
      </trkpt>
      <trkpt lat="48.87327" lon="2.35648">
        <ele>45.2</ele>
        <time>2020-07-01T16:29:48Z</time>
      </trkpt>
      <trkpt lat="48.87322" lon="2.35644">
        <ele>45.1</ele>
        <time>2020-07-01T16:29:49Z</time>
      </trkpt>
      <trkpt lat="48.87316" lon="2.35641">
        <ele>45</ele>
        <time>2020-07-01T16:29:50Z</time>
      </trkpt>
      <trkpt lat="48.87312" lon="2.35638">
        <ele>44.9</ele>
        <time>2020-07-01T16:29:51Z</time>
      </trkpt>
      <trkpt lat="48.87306" lon="2.35634">
        <ele>44.8</ele>
        <time>2020-07-01T16:29:52Z</time>
      </trkpt>
      <trkpt lat="48.87301" lon="2.35631">
        <ele>44.7</ele>
        <time>2020-07-01T16:29:53Z</time>
      </trkpt>
      <trkpt lat="48.87297" lon="2.35629">
        <ele>44.7</ele>
        <time>2020-07-01T16:29:54Z</time>
      </trkpt>
      <trkpt lat="48.87292" lon="2.35626">
        <ele>44.6</ele>
        <time>2020-07-01T16:29:55Z</time>
      </trkpt>
      <trkpt lat="48.87287" lon="2.35623">
        <ele>44.6</ele>
        <time>2020-07-01T16:29:56Z</time>
      </trkpt>
      <trkpt lat="48.87283" lon="2.35619">
        <ele>44.5</ele>
        <time>2020-07-01T16:29:57Z</time>
      </trkpt>
      <trkpt lat="48.87278" lon="2.35617">
        <ele>44.5</ele>
        <time>2020-07-01T16:29:58Z</time>
      </trkpt>
      <trkpt lat="48.87274" lon="2.35614">
        <ele>44.5</ele>
        <time>2020-07-01T16:29:59Z</time>
      </trkpt>
      <trkpt lat="48.8727" lon="2.35611">
        <ele>44.5</ele>
        <time>2020-07-01T16:30:00Z</time>
      </trkpt>
      <trkpt lat="48.87266" lon="2.35608">
        <ele>44.4</ele>
        <time>2020-07-01T16:30:01Z</time>
      </trkpt>
      <trkpt lat="48.87263" lon="2.35605">
        <ele>44.4</ele>
        <time>2020-07-01T16:30:02Z</time>
      </trkpt>
      <trkpt lat="48.8726" lon="2.35604">
        <ele>44.4</ele>
        <time>2020-07-01T16:30:03Z</time>
      </trkpt>
      <trkpt lat="48.87257" lon="2.35601">
        <ele>44.4</ele>
        <time>2020-07-01T16:30:04Z</time>
      </trkpt>
      <trkpt lat="48.87253" lon="2.35599">
        <ele>44.4</ele>
        <time>2020-07-01T16:30:05Z</time>
      </trkpt>
      <trkpt lat="48.87249" lon="2.35596">
        <ele>44.4</ele>
        <time>2020-07-01T16:30:06Z</time>
      </trkpt>
      <trkpt lat="48.87245" lon="2.35595">
        <ele>44.3</ele>
        <time>2020-07-01T16:30:07Z</time>
      </trkpt>
      <trkpt lat="48.8724" lon="2.35592">
        <ele>44.3</ele>
        <time>2020-07-01T16:30:08Z</time>
      </trkpt>
      <trkpt lat="48.87235" lon="2.35591">
        <ele>44.3</ele>
        <time>2020-07-01T16:30:09Z</time>
      </trkpt>
      <trkpt lat="48.87231" lon="2.35588">
        <ele>44.3</ele>
        <time>2020-07-01T16:30:10Z</time>
      </trkpt>
      <trkpt lat="48.87226" lon="2.35586">
        <ele>44.3</ele>
        <time>2020-07-01T16:30:11Z</time>
      </trkpt>
      <trkpt lat="48.87222" lon="2.35583">
        <ele>44.2</ele>
        <time>2020-07-01T16:30:12Z</time>
      </trkpt>
      <trkpt lat="48.87216" lon="2.3558">
        <ele>44.2</ele>
        <time>2020-07-01T16:30:13Z</time>
      </trkpt>
      <trkpt lat="48.87212" lon="2.35579">
        <ele>44.1</ele>
        <time>2020-07-01T16:30:14Z</time>
      </trkpt>
      <trkpt lat="48.87207" lon="2.35577">
        <ele>44</ele>
        <time>2020-07-01T16:30:15Z</time>
      </trkpt>
      <trkpt lat="48.87203" lon="2.35575">
        <ele>44</ele>
        <time>2020-07-01T16:30:16Z</time>
      </trkpt>
      <trkpt lat="48.87197" lon="2.35572">
        <ele>43.9</ele>
        <time>2020-07-01T16:30:17Z</time>
      </trkpt>
      <trkpt lat="48.87192" lon="2.3557">
        <ele>43.8</ele>
        <time>2020-07-01T16:30:18Z</time>
      </trkpt>
      <trkpt lat="48.87187" lon="2.35566">
        <ele>43.7</ele>
        <time>2020-07-01T16:30:19Z</time>
      </trkpt>
      <trkpt lat="48.87182" lon="2.35562">
        <ele>43.6</ele>
        <time>2020-07-01T16:30:20Z</time>
      </trkpt>
      <trkpt lat="48.87176" lon="2.35556">
        <ele>43.6</ele>
        <time>2020-07-01T16:30:21Z</time>
      </trkpt>
      <trkpt lat="48.8717" lon="2.35553">
        <ele>43.5</ele>
        <time>2020-07-01T16:30:22Z</time>
      </trkpt>
      <trkpt lat="48.87163" lon="2.35551">
        <ele>43.5</ele>
        <time>2020-07-01T16:30:23Z</time>
      </trkpt>
      <trkpt lat="48.87158" lon="2.35547">
        <ele>43.5</ele>
        <time>2020-07-01T16:30:24Z</time>
      </trkpt>
      <trkpt lat="48.87152" lon="2.35544">
        <ele>43.5</ele>
        <time>2020-07-01T16:30:25Z</time>
      </trkpt>
      <trkpt lat="48.87146" lon="2.35541">
        <ele>43.5</ele>
        <time>2020-07-01T16:30:26Z</time>
      </trkpt>
      <trkpt lat="48.87141" lon="2.35538">
        <ele>43.5</ele>
        <time>2020-07-01T16:30:27Z</time>
      </trkpt>
      <trkpt lat="48.87136" lon="2.35534">
        <ele>43.5</ele>
        <time>2020-07-01T16:30:28Z</time>
      </trkpt>
      <trkpt lat="48.87131" lon="2.3553">
        <ele>43.5</ele>
        <time>2020-07-01T16:30:29Z</time>
      </trkpt>
      <trkpt lat="48.87124" lon="2.35529">
        <ele>43.5</ele>
        <time>2020-07-01T16:30:30Z</time>
      </trkpt>
      <trkpt lat="48.87119" lon="2.35525">
        <ele>43.5</ele>
        <time>2020-07-01T16:30:31Z</time>
      </trkpt>
      <trkpt lat="48.87113" lon="2.35522">
        <ele>43.6</ele>
        <time>2020-07-01T16:30:32Z</time>
      </trkpt>
      <trkpt lat="48.87108" lon="2.3552">
        <ele>43.7</ele>
        <time>2020-07-01T16:30:33Z</time>
      </trkpt>
      <trkpt lat="48.87103" lon="2.35518">
        <ele>43.7</ele>
        <time>2020-07-01T16:30:34Z</time>
      </trkpt>
      <trkpt lat="48.87098" lon="2.35517">
        <ele>43.7</ele>
        <time>2020-07-01T16:30:35Z</time>
      </trkpt>
      <trkpt lat="48.87094" lon="2.35514">
        <ele>43.7</ele>
        <time>2020-07-01T16:30:36Z</time>
      </trkpt>
      <trkpt lat="48.87091" lon="2.35512">
        <ele>43.8</ele>
        <time>2020-07-01T16:30:37Z</time>
      </trkpt>
      <trkpt lat="48.87087" lon="2.35509">
        <ele>43.8</ele>
        <time>2020-07-01T16:30:38Z</time>
      </trkpt>
      <trkpt lat="48.87083" lon="2.35507">
        <ele>43.8</ele>
        <time>2020-07-01T16:30:39Z</time>
      </trkpt>
      <trkpt lat="48.8708" lon="2.35503">
        <ele>43.8</ele>
        <time>2020-07-01T16:30:40Z</time>
      </trkpt>
      <trkpt lat="48.87076" lon="2.355">
        <ele>43.9</ele>
        <time>2020-07-01T16:30:41Z</time>
      </trkpt>
      <trkpt lat="48.87072" lon="2.35501">
        <ele>43.9</ele>
        <time>2020-07-01T16:30:42Z</time>
      </trkpt>
      <trkpt lat="48.87068" lon="2.35499">
        <ele>43.9</ele>
        <time>2020-07-01T16:30:43Z</time>
      </trkpt>
      <trkpt lat="48.87065" lon="2.35497">
        <ele>43.9</ele>
        <time>2020-07-01T16:30:44Z</time>
      </trkpt>
      <trkpt lat="48.87061" lon="2.35494">
        <ele>44</ele>
        <time>2020-07-01T16:30:45Z</time>
      </trkpt>
      <trkpt lat="48.87057" lon="2.35493">
        <ele>43.9</ele>
        <time>2020-07-01T16:30:46Z</time>
      </trkpt>
      <trkpt lat="48.87052" lon="2.35491">
        <ele>43.9</ele>
        <time>2020-07-01T16:30:47Z</time>
      </trkpt>
      <trkpt lat="48.87048" lon="2.35489">
        <ele>43.9</ele>
        <time>2020-07-01T16:30:48Z</time>
      </trkpt>
      <trkpt lat="48.87043" lon="2.35487">
        <ele>43.9</ele>
        <time>2020-07-01T16:30:49Z</time>
      </trkpt>
      <trkpt lat="48.87038" lon="2.35485">
        <ele>43.9</ele>
        <time>2020-07-01T16:30:50Z</time>
      </trkpt>
      <trkpt lat="48.87034" lon="2.35482">
        <ele>43.9</ele>
        <time>2020-07-01T16:30:51Z</time>
      </trkpt>
      <trkpt lat="48.87029" lon="2.35478">
        <ele>43.9</ele>
        <time>2020-07-01T16:30:52Z</time>
      </trkpt>
      <trkpt lat="48.87025" lon="2.35475">
        <ele>44</ele>
        <time>2020-07-01T16:30:53Z</time>
      </trkpt>
      <trkpt lat="48.8702" lon="2.35472">
        <ele>44</ele>
        <time>2020-07-01T16:30:54Z</time>
      </trkpt>
      <trkpt lat="48.87015" lon="2.35468">
        <ele>44.1</ele>
        <time>2020-07-01T16:30:55Z</time>
      </trkpt>
      <trkpt lat="48.87012" lon="2.35464">
        <ele>44.1</ele>
        <time>2020-07-01T16:30:56Z</time>
      </trkpt>
      <trkpt lat="48.87008" lon="2.35462">
        <ele>44.1</ele>
        <time>2020-07-01T16:30:57Z</time>
      </trkpt>
      <trkpt lat="48.87005" lon="2.35461">
        <ele>44.2</ele>
        <time>2020-07-01T16:30:58Z</time>
      </trkpt>
      <trkpt lat="48.87002" lon="2.35459">
        <ele>44.2</ele>
        <time>2020-07-01T16:30:59Z</time>
      </trkpt>
      <trkpt lat="48.86999" lon="2.35455">
        <ele>44.2</ele>
        <time>2020-07-01T16:31:00Z</time>
      </trkpt>
      <trkpt lat="48.86995" lon="2.35452">
        <ele>44.3</ele>
        <time>2020-07-01T16:31:01Z</time>
      </trkpt>
      <trkpt lat="48.86992" lon="2.35449">
        <ele>44.3</ele>
        <time>2020-07-01T16:31:02Z</time>
      </trkpt>
      <trkpt lat="48.86989" lon="2.35448">
        <ele>44.3</ele>
        <time>2020-07-01T16:31:03Z</time>
      </trkpt>
      <trkpt lat="48.86986" lon="2.3545">
        <ele>44.4</ele>
        <time>2020-07-01T16:31:04Z</time>
      </trkpt>
      <trkpt lat="48.86984" lon="2.35452">
        <ele>44.4</ele>
        <time>2020-07-01T16:31:05Z</time>
      </trkpt>
      <trkpt lat="48.86983" lon="2.3545">
        <ele>44.4</ele>
        <time>2020-07-01T16:31:06Z</time>
      </trkpt>
      <trkpt lat="48.86981" lon="2.3545">
        <ele>44.4</ele>
        <time>2020-07-01T16:31:07Z</time>
      </trkpt>
      <trkpt lat="48.86981" lon="2.35447">
        <ele>44.5</ele>
        <time>2020-07-01T16:31:08Z</time>
      </trkpt>
      <trkpt lat="48.8698" lon="2.35445">
        <ele>44.5</ele>
        <time>2020-07-01T16:31:09Z</time>
      </trkpt>
      <trkpt lat="48.8698" lon="2.35444">
        <ele>44.5</ele>
        <time>2020-07-01T16:31:10Z</time>
      </trkpt>
      <trkpt lat="48.8698" lon="2.35442">
        <ele>44.5</ele>
        <time>2020-07-01T16:31:11Z</time>
      </trkpt>
      <trkpt lat="48.86978" lon="2.35445">
        <ele>44.5</ele>
        <time>2020-07-01T16:31:12Z</time>
      </trkpt>
      <trkpt lat="48.86977" lon="2.35443">
        <ele>44.5</ele>
        <time>2020-07-01T16:31:13Z</time>
      </trkpt>
      <trkpt lat="48.86977" lon="2.35442">
        <ele>44.6</ele>
        <time>2020-07-01T16:31:14Z</time>
      </trkpt>
      <trkpt lat="48.86976" lon="2.3544">
        <ele>44.6</ele>
        <time>2020-07-01T16:31:15Z</time>
      </trkpt>
      <trkpt lat="48.86975" lon="2.35437">
        <ele>44.6</ele>
        <time>2020-07-01T16:31:16Z</time>
      </trkpt>
      <trkpt lat="48.86975" lon="2.35431">
        <ele>44.7</ele>
        <time>2020-07-01T16:31:17Z</time>
      </trkpt>
      <trkpt lat="48.86975" lon="2.35429">
        <ele>44.7</ele>
        <time>2020-07-01T16:31:18Z</time>
      </trkpt>
      <trkpt lat="48.86975" lon="2.35425">
        <ele>44.7</ele>
        <time>2020-07-01T16:31:19Z</time>
      </trkpt>
      <trkpt lat="48.86975" lon="2.3542">
        <ele>44.7</ele>
        <time>2020-07-01T16:31:20Z</time>
      </trkpt>
      <trkpt lat="48.86975" lon="2.35415">
        <ele>44.7</ele>
        <time>2020-07-01T16:31:21Z</time>
      </trkpt>
      <trkpt lat="48.86976" lon="2.35409">
        <ele>44.7</ele>
        <time>2020-07-01T16:31:22Z</time>
      </trkpt>
      <trkpt lat="48.86976" lon="2.35402">
        <ele>44.5</ele>
        <time>2020-07-01T16:31:23Z</time>
      </trkpt>
      <trkpt lat="48.86977" lon="2.35395">
        <ele>44.4</ele>
        <time>2020-07-01T16:31:24Z</time>
      </trkpt>
      <trkpt lat="48.86978" lon="2.35388">
        <ele>44.2</ele>
        <time>2020-07-01T16:31:25Z</time>
      </trkpt>
      <trkpt lat="48.86979" lon="2.3538">
        <ele>43.9</ele>
        <time>2020-07-01T16:31:26Z</time>
      </trkpt>
      <trkpt lat="48.8698" lon="2.35374">
        <ele>43.8</ele>
        <time>2020-07-01T16:31:27Z</time>
      </trkpt>
      <trkpt lat="48.86979" lon="2.35369">
        <ele>43.3</ele>
        <time>2020-07-01T16:31:28Z</time>
      </trkpt>
      <trkpt lat="48.86978" lon="2.35364">
        <ele>43.2</ele>
        <time>2020-07-01T16:31:29Z</time>
      </trkpt>
      <trkpt lat="48.86977" lon="2.35359">
        <ele>43</ele>
        <time>2020-07-01T16:31:30Z</time>
      </trkpt>
      <trkpt lat="48.86977" lon="2.35357">
        <ele>43.1</ele>
        <time>2020-07-01T16:31:31Z</time>
      </trkpt>
      <trkpt lat="48.86977" lon="2.35352">
        <ele>43</ele>
        <time>2020-07-01T16:31:32Z</time>
      </trkpt>
      <trkpt lat="48.86977" lon="2.35348">
        <ele>42.9</ele>
        <time>2020-07-01T16:31:33Z</time>
      </trkpt>
      <trkpt lat="48.86978" lon="2.35343">
        <ele>42.7</ele>
        <time>2020-07-01T16:31:34Z</time>
      </trkpt>
      <trkpt lat="48.86978" lon="2.35341">
        <ele>42.8</ele>
        <time>2020-07-01T16:31:35Z</time>
      </trkpt>
      <trkpt lat="48.86977" lon="2.35336">
        <ele>42.8</ele>
        <time>2020-07-01T16:31:36Z</time>
      </trkpt>
      <trkpt lat="48.86976" lon="2.35335">
        <ele>42.9</ele>
        <time>2020-07-01T16:31:37Z</time>
      </trkpt>
      <trkpt lat="48.86976" lon="2.35334">
        <ele>43</ele>
        <time>2020-07-01T16:31:38Z</time>
      </trkpt>
      <trkpt lat="48.86974" lon="2.35331">
        <ele>43</ele>
        <time>2020-07-01T16:31:39Z</time>
      </trkpt>
      <trkpt lat="48.86974" lon="2.35331">
        <ele>43.1</ele>
        <time>2020-07-01T16:31:40Z</time>
      </trkpt>
      <trkpt lat="48.86974" lon="2.3533">
        <ele>43.3</ele>
        <time>2020-07-01T16:31:41Z</time>
      </trkpt>
      <trkpt lat="48.86973" lon="2.35329">
        <ele>43.4</ele>
        <time>2020-07-01T16:31:42Z</time>
      </trkpt>
      <trkpt lat="48.86972" lon="2.35327">
        <ele>43.5</ele>
        <time>2020-07-01T16:31:43Z</time>
      </trkpt>
      <trkpt lat="48.86971" lon="2.35327">
        <ele>43.6</ele>
        <time>2020-07-01T16:31:44Z</time>
      </trkpt>
      <trkpt lat="48.86971" lon="2.35327">
        <ele>43.7</ele>
        <time>2020-07-01T16:31:45Z</time>
      </trkpt>
      <trkpt lat="48.8697" lon="2.35326">
        <ele>43.8</ele>
        <time>2020-07-01T16:31:46Z</time>
      </trkpt>
      <trkpt lat="48.8697" lon="2.35326">
        <ele>43.9</ele>
        <time>2020-07-01T16:31:47Z</time>
      </trkpt>
      <trkpt lat="48.8697" lon="2.35325">
        <ele>44.1</ele>
        <time>2020-07-01T16:31:48Z</time>
      </trkpt>
      <trkpt lat="48.86971" lon="2.35323">
        <ele>44.2</ele>
        <time>2020-07-01T16:31:49Z</time>
      </trkpt>
      <trkpt lat="48.86972" lon="2.35322">
        <ele>44.4</ele>
        <time>2020-07-01T16:31:50Z</time>
      </trkpt>
      <trkpt lat="48.86973" lon="2.35321">
        <ele>44.5</ele>
        <time>2020-07-01T16:31:51Z</time>
      </trkpt>
      <trkpt lat="48.86973" lon="2.3532">
        <ele>44.6</ele>
        <time>2020-07-01T16:31:52Z</time>
      </trkpt>
      <trkpt lat="48.86972" lon="2.3532">
        <ele>44.7</ele>
        <time>2020-07-01T16:31:53Z</time>
      </trkpt>
      <trkpt lat="48.86971" lon="2.35321">
        <ele>44.8</ele>
        <time>2020-07-01T16:31:54Z</time>
      </trkpt>
      <trkpt lat="48.8697" lon="2.35322">
        <ele>44.8</ele>
        <time>2020-07-01T16:31:55Z</time>
      </trkpt>
      <trkpt lat="48.86969" lon="2.35323">
        <ele>44.9</ele>
        <time>2020-07-01T16:31:56Z</time>
      </trkpt>
      <trkpt lat="48.86968" lon="2.35324">
        <ele>45</ele>
        <time>2020-07-01T16:31:57Z</time>
      </trkpt>
      <trkpt lat="48.86967" lon="2.35325">
        <ele>45.1</ele>
        <time>2020-07-01T16:31:58Z</time>
      </trkpt>
      <trkpt lat="48.86966" lon="2.35326">
        <ele>45.1</ele>
        <time>2020-07-01T16:31:59Z</time>
      </trkpt>
      <trkpt lat="48.86965" lon="2.35327">
        <ele>45.2</ele>
        <time>2020-07-01T16:32:00Z</time>
      </trkpt>
      <trkpt lat="48.86964" lon="2.35328">
        <ele>45.3</ele>
        <time>2020-07-01T16:32:01Z</time>
      </trkpt>
      <trkpt lat="48.86963" lon="2.35329">
        <ele>45.4</ele>
        <time>2020-07-01T16:32:44Z</time>
      </trkpt>
      <trkpt lat="48.86962" lon="2.3533">
        <ele>45.5</ele>
        <time>2020-07-01T16:32:45Z</time>
      </trkpt>
      <trkpt lat="48.86959" lon="2.35338">
        <ele>45.6</ele>
        <time>2020-07-01T16:32:46Z</time>
      </trkpt>
      <trkpt lat="48.86957" lon="2.35346">
        <ele>45.5</ele>
        <time>2020-07-01T16:32:47Z</time>
      </trkpt>
      <trkpt lat="48.86953" lon="2.35355">
        <ele>45.5</ele>
        <time>2020-07-01T16:32:48Z</time>
      </trkpt>
      <trkpt lat="48.86952" lon="2.35362">
        <ele>45.5</ele>
        <time>2020-07-01T16:32:49Z</time>
      </trkpt>
      <trkpt lat="48.8695" lon="2.35368">
        <ele>45.4</ele>
        <time>2020-07-01T16:32:50Z</time>
      </trkpt>
      <trkpt lat="48.86948" lon="2.35373">
        <ele>45.4</ele>
        <time>2020-07-01T16:32:51Z</time>
      </trkpt>
      <trkpt lat="48.86947" lon="2.35378">
        <ele>45.4</ele>
        <time>2020-07-01T16:32:52Z</time>
      </trkpt>
      <trkpt lat="48.86944" lon="2.35384">
        <ele>45.4</ele>
        <time>2020-07-01T16:32:53Z</time>
      </trkpt>
      <trkpt lat="48.86942" lon="2.35389">
        <ele>45.4</ele>
        <time>2020-07-01T16:32:54Z</time>
      </trkpt>
      <trkpt lat="48.8694" lon="2.35392">
        <ele>45.4</ele>
        <time>2020-07-01T16:32:55Z</time>
      </trkpt>
      <trkpt lat="48.86938" lon="2.35398">
        <ele>45.4</ele>
        <time>2020-07-01T16:32:56Z</time>
      </trkpt>
      <trkpt lat="48.86937" lon="2.354">
        <ele>45.4</ele>
        <time>2020-07-01T16:32:57Z</time>
      </trkpt>
      <trkpt lat="48.86934" lon="2.35404">
        <ele>45.4</ele>
        <time>2020-07-01T16:32:58Z</time>
      </trkpt>
      <trkpt lat="48.86932" lon="2.35408">
        <ele>45.4</ele>
        <time>2020-07-01T16:32:59Z</time>
      </trkpt>
      <trkpt lat="48.86931" lon="2.3541">
        <ele>45.3</ele>
        <time>2020-07-01T16:33:00Z</time>
      </trkpt>
      <trkpt lat="48.86929" lon="2.35411">
        <ele>45.3</ele>
        <time>2020-07-01T16:33:01Z</time>
      </trkpt>
      <trkpt lat="48.86928" lon="2.35412">
        <ele>45.3</ele>
        <time>2020-07-01T16:33:02Z</time>
      </trkpt>
      <trkpt lat="48.86925" lon="2.35412">
        <ele>45.3</ele>
        <time>2020-07-01T16:33:03Z</time>
      </trkpt>
      <trkpt lat="48.86922" lon="2.3541">
        <ele>45.3</ele>
        <time>2020-07-01T16:33:04Z</time>
      </trkpt>
      <trkpt lat="48.8692" lon="2.35409">
        <ele>45.2</ele>
        <time>2020-07-01T16:33:05Z</time>
      </trkpt>
      <trkpt lat="48.86917" lon="2.35407">
        <ele>45.2</ele>
        <time>2020-07-01T16:33:06Z</time>
      </trkpt>
      <trkpt lat="48.86913" lon="2.35405">
        <ele>45.1</ele>
        <time>2020-07-01T16:33:07Z</time>
      </trkpt>
      <trkpt lat="48.86908" lon="2.35402">
        <ele>45</ele>
        <time>2020-07-01T16:33:08Z</time>
      </trkpt>
      <trkpt lat="48.86903" lon="2.35399">
        <ele>44.9</ele>
        <time>2020-07-01T16:33:09Z</time>
      </trkpt>
      <trkpt lat="48.86897" lon="2.35397">
        <ele>44.8</ele>
        <time>2020-07-01T16:33:10Z</time>
      </trkpt>
      <trkpt lat="48.86892" lon="2.35396">
        <ele>44.8</ele>
        <time>2020-07-01T16:33:11Z</time>
      </trkpt>
      <trkpt lat="48.86887" lon="2.35395">
        <ele>44.8</ele>
        <time>2020-07-01T16:33:12Z</time>
      </trkpt>
      <trkpt lat="48.86882" lon="2.35392">
        <ele>44.7</ele>
        <time>2020-07-01T16:33:13Z</time>
      </trkpt>
      <trkpt lat="48.86876" lon="2.35388">
        <ele>44.7</ele>
        <time>2020-07-01T16:33:14Z</time>
      </trkpt>
      <trkpt lat="48.86871" lon="2.35383">
        <ele>44.7</ele>
        <time>2020-07-01T16:33:15Z</time>
      </trkpt>
      <trkpt lat="48.86867" lon="2.35379">
        <ele>44.7</ele>
        <time>2020-07-01T16:33:16Z</time>
      </trkpt>
      <trkpt lat="48.86862" lon="2.35376">
        <ele>44.6</ele>
        <time>2020-07-01T16:33:17Z</time>
      </trkpt>
      <trkpt lat="48.86856" lon="2.3537">
        <ele>44.6</ele>
        <time>2020-07-01T16:33:18Z</time>
      </trkpt>
      <trkpt lat="48.8685" lon="2.35367">
        <ele>44.5</ele>
        <time>2020-07-01T16:33:19Z</time>
      </trkpt>
      <trkpt lat="48.86844" lon="2.35365">
        <ele>44.5</ele>
        <time>2020-07-01T16:33:20Z</time>
      </trkpt>
      <trkpt lat="48.86839" lon="2.35362">
        <ele>44.4</ele>
        <time>2020-07-01T16:33:21Z</time>
      </trkpt>
      <trkpt lat="48.86833" lon="2.35359">
        <ele>44.4</ele>
        <time>2020-07-01T16:33:22Z</time>
      </trkpt>
      <trkpt lat="48.86829" lon="2.35356">
        <ele>44.4</ele>
        <time>2020-07-01T16:33:23Z</time>
      </trkpt>
      <trkpt lat="48.86824" lon="2.35354">
        <ele>44.4</ele>
        <time>2020-07-01T16:33:24Z</time>
      </trkpt>
      <trkpt lat="48.86817" lon="2.35351">
        <ele>44.3</ele>
        <time>2020-07-01T16:33:25Z</time>
      </trkpt>
      <trkpt lat="48.86812" lon="2.35348">
        <ele>44.3</ele>
        <time>2020-07-01T16:33:26Z</time>
      </trkpt>
      <trkpt lat="48.86806" lon="2.35345">
        <ele>44.3</ele>
        <time>2020-07-01T16:33:27Z</time>
      </trkpt>
      <trkpt lat="48.868" lon="2.35342">
        <ele>44.3</ele>
        <time>2020-07-01T16:33:28Z</time>
      </trkpt>
      <trkpt lat="48.86794" lon="2.35338">
        <ele>44.3</ele>
        <time>2020-07-01T16:33:29Z</time>
      </trkpt>
      <trkpt lat="48.86789" lon="2.35336">
        <ele>44.3</ele>
        <time>2020-07-01T16:33:30Z</time>
      </trkpt>
      <trkpt lat="48.86783" lon="2.35332">
        <ele>44.2</ele>
        <time>2020-07-01T16:33:31Z</time>
      </trkpt>
      <trkpt lat="48.86777" lon="2.35328">
        <ele>44.2</ele>
        <time>2020-07-01T16:33:32Z</time>
      </trkpt>
      <trkpt lat="48.86771" lon="2.35327">
        <ele>44.2</ele>
        <time>2020-07-01T16:33:33Z</time>
      </trkpt>
      <trkpt lat="48.86766" lon="2.35324">
        <ele>44.2</ele>
        <time>2020-07-01T16:33:34Z</time>
      </trkpt>
      <trkpt lat="48.86761" lon="2.35322">
        <ele>44.1</ele>
        <time>2020-07-01T16:33:35Z</time>
      </trkpt>
      <trkpt lat="48.86755" lon="2.35319">
        <ele>44.1</ele>
        <time>2020-07-01T16:33:36Z</time>
      </trkpt>
      <trkpt lat="48.86749" lon="2.35315">
        <ele>44.1</ele>
        <time>2020-07-01T16:33:37Z</time>
      </trkpt>
      <trkpt lat="48.86744" lon="2.35311">
        <ele>44.1</ele>
        <time>2020-07-01T16:33:38Z</time>
      </trkpt>
      <trkpt lat="48.86738" lon="2.35307">
        <ele>44.1</ele>
        <time>2020-07-01T16:33:39Z</time>
      </trkpt>
      <trkpt lat="48.86733" lon="2.35304">
        <ele>44.2</ele>
        <time>2020-07-01T16:33:40Z</time>
      </trkpt>
      <trkpt lat="48.86726" lon="2.35302">
        <ele>44.2</ele>
        <time>2020-07-01T16:33:41Z</time>
      </trkpt>
      <trkpt lat="48.86719" lon="2.35299">
        <ele>44.3</ele>
        <time>2020-07-01T16:33:42Z</time>
      </trkpt>
      <trkpt lat="48.86714" lon="2.35296">
        <ele>44.3</ele>
        <time>2020-07-01T16:33:43Z</time>
      </trkpt>
      <trkpt lat="48.86707" lon="2.35291">
        <ele>44.3</ele>
        <time>2020-07-01T16:33:44Z</time>
      </trkpt>
      <trkpt lat="48.86702" lon="2.35289">
        <ele>44.4</ele>
        <time>2020-07-01T16:33:45Z</time>
      </trkpt>
      <trkpt lat="48.86696" lon="2.35286">
        <ele>44.4</ele>
        <time>2020-07-01T16:33:46Z</time>
      </trkpt>
      <trkpt lat="48.8669" lon="2.35284">
        <ele>44.4</ele>
        <time>2020-07-01T16:33:47Z</time>
      </trkpt>
      <trkpt lat="48.86686" lon="2.35281">
        <ele>44.5</ele>
        <time>2020-07-01T16:33:48Z</time>
      </trkpt>
      <trkpt lat="48.8668" lon="2.35277">
        <ele>44.6</ele>
        <time>2020-07-01T16:33:49Z</time>
      </trkpt>
      <trkpt lat="48.86675" lon="2.35274">
        <ele>44.7</ele>
        <time>2020-07-01T16:33:50Z</time>
      </trkpt>
      <trkpt lat="48.86669" lon="2.3527">
        <ele>44.7</ele>
        <time>2020-07-01T16:33:51Z</time>
      </trkpt>
      <trkpt lat="48.86663" lon="2.35266">
        <ele>44.8</ele>
        <time>2020-07-01T16:33:52Z</time>
      </trkpt>
      <trkpt lat="48.86657" lon="2.35263">
        <ele>44.8</ele>
        <time>2020-07-01T16:33:53Z</time>
      </trkpt>
      <trkpt lat="48.86651" lon="2.3526">
        <ele>44.8</ele>
        <time>2020-07-01T16:33:54Z</time>
      </trkpt>
      <trkpt lat="48.86645" lon="2.35258">
        <ele>44.9</ele>
        <time>2020-07-01T16:33:55Z</time>
      </trkpt>
      <trkpt lat="48.8664" lon="2.35255">
        <ele>44.9</ele>
        <time>2020-07-01T16:33:56Z</time>
      </trkpt>
      <trkpt lat="48.86636" lon="2.35252">
        <ele>45</ele>
        <time>2020-07-01T16:33:57Z</time>
      </trkpt>
      <trkpt lat="48.86631" lon="2.3525">
        <ele>45</ele>
        <time>2020-07-01T16:33:58Z</time>
      </trkpt>
      <trkpt lat="48.86625" lon="2.35247">
        <ele>45.1</ele>
        <time>2020-07-01T16:33:59Z</time>
      </trkpt>
      <trkpt lat="48.8662" lon="2.35245">
        <ele>45.1</ele>
        <time>2020-07-01T16:34:00Z</time>
      </trkpt>
      <trkpt lat="48.86615" lon="2.35242">
        <ele>45.1</ele>
        <time>2020-07-01T16:34:01Z</time>
      </trkpt>
      <trkpt lat="48.86609" lon="2.35239">
        <ele>45.1</ele>
        <time>2020-07-01T16:34:02Z</time>
      </trkpt>
      <trkpt lat="48.86603" lon="2.35235">
        <ele>45.1</ele>
        <time>2020-07-01T16:34:03Z</time>
      </trkpt>
      <trkpt lat="48.86599" lon="2.35233">
        <ele>45.1</ele>
        <time>2020-07-01T16:34:04Z</time>
      </trkpt>
      <trkpt lat="48.86593" lon="2.3523">
        <ele>45.1</ele>
        <time>2020-07-01T16:34:05Z</time>
      </trkpt>
      <trkpt lat="48.86586" lon="2.35226">
        <ele>45</ele>
        <time>2020-07-01T16:34:06Z</time>
      </trkpt>
      <trkpt lat="48.8658" lon="2.35222">
        <ele>44.9</ele>
        <time>2020-07-01T16:34:07Z</time>
      </trkpt>
      <trkpt lat="48.86574" lon="2.35217">
        <ele>44.8</ele>
        <time>2020-07-01T16:34:08Z</time>
      </trkpt>
      <trkpt lat="48.86569" lon="2.35215">
        <ele>44.7</ele>
        <time>2020-07-01T16:34:09Z</time>
      </trkpt>
      <trkpt lat="48.86566" lon="2.35212">
        <ele>44.7</ele>
        <time>2020-07-01T16:34:10Z</time>
      </trkpt>
      <trkpt lat="48.86561" lon="2.3521">
        <ele>44.6</ele>
        <time>2020-07-01T16:34:11Z</time>
      </trkpt>
      <trkpt lat="48.86557" lon="2.35207">
        <ele>44.6</ele>
        <time>2020-07-01T16:34:12Z</time>
      </trkpt>
      <trkpt lat="48.86554" lon="2.35205">
        <ele>44.6</ele>
        <time>2020-07-01T16:34:13Z</time>
      </trkpt>
      <trkpt lat="48.8655" lon="2.35203">
        <ele>44.5</ele>
        <time>2020-07-01T16:34:14Z</time>
      </trkpt>
      <trkpt lat="48.86548" lon="2.35202">
        <ele>44.5</ele>
        <time>2020-07-01T16:34:15Z</time>
      </trkpt>
      <trkpt lat="48.86544" lon="2.35199">
        <ele>44.5</ele>
        <time>2020-07-01T16:34:16Z</time>
      </trkpt>
      <trkpt lat="48.86541" lon="2.35197">
        <ele>44.5</ele>
        <time>2020-07-01T16:34:17Z</time>
      </trkpt>
      <trkpt lat="48.8654" lon="2.35197">
        <ele>44.5</ele>
        <time>2020-07-01T16:34:18Z</time>
      </trkpt>
      <trkpt lat="48.86536" lon="2.35194">
        <ele>44.4</ele>
        <time>2020-07-01T16:34:19Z</time>
      </trkpt>
      <trkpt lat="48.86534" lon="2.35192">
        <ele>44.4</ele>
        <time>2020-07-01T16:34:20Z</time>
      </trkpt>
      <trkpt lat="48.86532" lon="2.35189">
        <ele>44.4</ele>
        <time>2020-07-01T16:34:21Z</time>
      </trkpt>
      <trkpt lat="48.86529" lon="2.35187">
        <ele>44.4</ele>
        <time>2020-07-01T16:34:22Z</time>
      </trkpt>
      <trkpt lat="48.86525" lon="2.35184">
        <ele>44.4</ele>
        <time>2020-07-01T16:34:23Z</time>
      </trkpt>
      <trkpt lat="48.86523" lon="2.35183">
        <ele>44.4</ele>
        <time>2020-07-01T16:34:24Z</time>
      </trkpt>
      <trkpt lat="48.86518" lon="2.35182">
        <ele>44.4</ele>
        <time>2020-07-01T16:34:25Z</time>
      </trkpt>
      <trkpt lat="48.86514" lon="2.3518">
        <ele>44.4</ele>
        <time>2020-07-01T16:34:26Z</time>
      </trkpt>
      <trkpt lat="48.86509" lon="2.35179">
        <ele>44.4</ele>
        <time>2020-07-01T16:34:27Z</time>
      </trkpt>
      <trkpt lat="48.86502" lon="2.35178">
        <ele>44.5</ele>
        <time>2020-07-01T16:34:28Z</time>
      </trkpt>
      <trkpt lat="48.86498" lon="2.35177">
        <ele>44.5</ele>
        <time>2020-07-01T16:34:29Z</time>
      </trkpt>
      <trkpt lat="48.86493" lon="2.35175">
        <ele>44.6</ele>
        <time>2020-07-01T16:34:30Z</time>
      </trkpt>
      <trkpt lat="48.86488" lon="2.35172">
        <ele>44.6</ele>
        <time>2020-07-01T16:34:31Z</time>
      </trkpt>
      <trkpt lat="48.86485" lon="2.3517">
        <ele>44.6</ele>
        <time>2020-07-01T16:34:32Z</time>
      </trkpt>
      <trkpt lat="48.86482" lon="2.35168">
        <ele>44.7</ele>
        <time>2020-07-01T16:34:33Z</time>
      </trkpt>
      <trkpt lat="48.86478" lon="2.35166">
        <ele>44.7</ele>
        <time>2020-07-01T16:34:34Z</time>
      </trkpt>
      <trkpt lat="48.86476" lon="2.35166">
        <ele>44.7</ele>
        <time>2020-07-01T16:34:35Z</time>
      </trkpt>
      <trkpt lat="48.86472" lon="2.35164">
        <ele>44.8</ele>
        <time>2020-07-01T16:34:36Z</time>
      </trkpt>
      <trkpt lat="48.86472" lon="2.35164">
        <ele>44.8</ele>
        <time>2020-07-01T16:34:37Z</time>
      </trkpt>
      <trkpt lat="48.86469" lon="2.35164">
        <ele>44.8</ele>
        <time>2020-07-01T16:34:38Z</time>
      </trkpt>
      <trkpt lat="48.86466" lon="2.35162">
        <ele>44.8</ele>
        <time>2020-07-01T16:34:39Z</time>
      </trkpt>
      <trkpt lat="48.86465" lon="2.35161">
        <ele>44.8</ele>
        <time>2020-07-01T16:34:40Z</time>
      </trkpt>
      <trkpt lat="48.86463" lon="2.3516">
        <ele>44.8</ele>
        <time>2020-07-01T16:34:41Z</time>
      </trkpt>
      <trkpt lat="48.86461" lon="2.35157">
        <ele>44.9</ele>
        <time>2020-07-01T16:34:42Z</time>
      </trkpt>
      <trkpt lat="48.86458" lon="2.35155">
        <ele>44.9</ele>
        <time>2020-07-01T16:34:43Z</time>
      </trkpt>
      <trkpt lat="48.86457" lon="2.35153">
        <ele>44.9</ele>
        <time>2020-07-01T16:34:44Z</time>
      </trkpt>
      <trkpt lat="48.86454" lon="2.35152">
        <ele>44.9</ele>
        <time>2020-07-01T16:34:45Z</time>
      </trkpt>
      <trkpt lat="48.86453" lon="2.35151">
        <ele>44.9</ele>
        <time>2020-07-01T16:34:46Z</time>
      </trkpt>
      <trkpt lat="48.8645" lon="2.3515">
        <ele>44.9</ele>
        <time>2020-07-01T16:34:47Z</time>
      </trkpt>
      <trkpt lat="48.86447" lon="2.35144">
        <ele>45</ele>
        <time>2020-07-01T16:34:48Z</time>
      </trkpt>
      <trkpt lat="48.86446" lon="2.35142">
        <ele>45</ele>
        <time>2020-07-01T16:34:49Z</time>
      </trkpt>
      <trkpt lat="48.86445" lon="2.35138">
        <ele>45</ele>
        <time>2020-07-01T16:34:50Z</time>
      </trkpt>
      <trkpt lat="48.8644" lon="2.35135">
        <ele>45.1</ele>
        <time>2020-07-01T16:34:51Z</time>
      </trkpt>
      <trkpt lat="48.86438" lon="2.3513">
        <ele>45</ele>
        <time>2020-07-01T16:34:52Z</time>
      </trkpt>
      <trkpt lat="48.86438" lon="2.35124">
        <ele>45</ele>
        <time>2020-07-01T16:34:53Z</time>
      </trkpt>
      <trkpt lat="48.86438" lon="2.35119">
        <ele>45</ele>
        <time>2020-07-01T16:34:54Z</time>
      </trkpt>
      <trkpt lat="48.86437" lon="2.35117">
        <ele>45</ele>
        <time>2020-07-01T16:34:55Z</time>
      </trkpt>
      <trkpt lat="48.86435" lon="2.35111">
        <ele>44.9</ele>
        <time>2020-07-01T16:34:56Z</time>
      </trkpt>
      <trkpt lat="48.86434" lon="2.35109">
        <ele>44.9</ele>
        <time>2020-07-01T16:34:57Z</time>
      </trkpt>
      <trkpt lat="48.86431" lon="2.35105">
        <ele>44.9</ele>
        <time>2020-07-01T16:34:58Z</time>
      </trkpt>
      <trkpt lat="48.86426" lon="2.351">
        <ele>44.8</ele>
        <time>2020-07-01T16:34:59Z</time>
      </trkpt>
      <trkpt lat="48.86424" lon="2.35093">
        <ele>44.8</ele>
        <time>2020-07-01T16:35:00Z</time>
      </trkpt>
      <trkpt lat="48.86422" lon="2.35085">
        <ele>44.7</ele>
        <time>2020-07-01T16:35:01Z</time>
      </trkpt>
      <trkpt lat="48.8642" lon="2.35076">
        <ele>44.7</ele>
        <time>2020-07-01T16:35:02Z</time>
      </trkpt>
      <trkpt lat="48.86418" lon="2.35063">
        <ele>44.6</ele>
        <time>2020-07-01T16:35:03Z</time>
      </trkpt>
      <trkpt lat="48.86416" lon="2.35049">
        <ele>44.6</ele>
        <time>2020-07-01T16:35:04Z</time>
      </trkpt>
      <trkpt lat="48.86415" lon="2.35035">
        <ele>44.7</ele>
        <time>2020-07-01T16:35:05Z</time>
      </trkpt>
      <trkpt lat="48.86412" lon="2.35026">
        <ele>44.8</ele>
        <time>2020-07-01T16:35:06Z</time>
      </trkpt>
      <trkpt lat="48.86411" lon="2.35016">
        <ele>44.9</ele>
        <time>2020-07-01T16:35:07Z</time>
      </trkpt>
      <trkpt lat="48.86409" lon="2.35007">
        <ele>45</ele>
        <time>2020-07-01T16:35:08Z</time>
      </trkpt>
      <trkpt lat="48.86407" lon="2.34998">
        <ele>45</ele>
        <time>2020-07-01T16:35:09Z</time>
      </trkpt>
      <trkpt lat="48.86406" lon="2.34988">
        <ele>45</ele>
        <time>2020-07-01T16:35:10Z</time>
      </trkpt>
      <trkpt lat="48.86404" lon="2.34979">
        <ele>45</ele>
        <time>2020-07-01T16:35:11Z</time>
      </trkpt>
      <trkpt lat="48.86402" lon="2.34972">
        <ele>45</ele>
        <time>2020-07-01T16:35:12Z</time>
      </trkpt>
      <trkpt lat="48.86399" lon="2.34967">
        <ele>45</ele>
        <time>2020-07-01T16:35:13Z</time>
      </trkpt>
      <trkpt lat="48.86397" lon="2.34961">
        <ele>45</ele>
        <time>2020-07-01T16:35:14Z</time>
      </trkpt>
      <trkpt lat="48.86395" lon="2.34954">
        <ele>45.1</ele>
        <time>2020-07-01T16:35:15Z</time>
      </trkpt>
      <trkpt lat="48.86393" lon="2.34948">
        <ele>45.1</ele>
        <time>2020-07-01T16:35:16Z</time>
      </trkpt>
      <trkpt lat="48.86391" lon="2.34942">
        <ele>45.1</ele>
        <time>2020-07-01T16:35:17Z</time>
      </trkpt>
      <trkpt lat="48.8639" lon="2.34937">
        <ele>45.1</ele>
        <time>2020-07-01T16:35:18Z</time>
      </trkpt>
      <trkpt lat="48.86389" lon="2.34932">
        <ele>45.1</ele>
        <time>2020-07-01T16:35:19Z</time>
      </trkpt>
      <trkpt lat="48.86388" lon="2.34929">
        <ele>45.3</ele>
        <time>2020-07-01T16:35:20Z</time>
      </trkpt>
      <trkpt lat="48.86388" lon="2.34924">
        <ele>45.3</ele>
        <time>2020-07-01T16:35:21Z</time>
      </trkpt>
      <trkpt lat="48.86386" lon="2.34919">
        <ele>45.3</ele>
        <time>2020-07-01T16:35:22Z</time>
      </trkpt>
      <trkpt lat="48.86386" lon="2.34916">
        <ele>45.3</ele>
        <time>2020-07-01T16:35:23Z</time>
      </trkpt>
      <trkpt lat="48.86385" lon="2.34912">
        <ele>45.3</ele>
        <time>2020-07-01T16:35:24Z</time>
      </trkpt>
      <trkpt lat="48.86384" lon="2.34906">
        <ele>45.4</ele>
        <time>2020-07-01T16:35:25Z</time>
      </trkpt>
      <trkpt lat="48.86383" lon="2.34901">
        <ele>45.4</ele>
        <time>2020-07-01T16:35:26Z</time>
      </trkpt>
      <trkpt lat="48.86383" lon="2.34897">
        <ele>45.1</ele>
        <time>2020-07-01T16:35:27Z</time>
      </trkpt>
      <trkpt lat="48.86382" lon="2.3489">
        <ele>44.9</ele>
        <time>2020-07-01T16:35:28Z</time>
      </trkpt>
      <trkpt lat="48.86381" lon="2.34881">
        <ele>44.7</ele>
        <time>2020-07-01T16:35:29Z</time>
      </trkpt>
      <trkpt lat="48.86382" lon="2.34873">
        <ele>44.6</ele>
        <time>2020-07-01T16:35:30Z</time>
      </trkpt>
      <trkpt lat="48.86381" lon="2.34869">
        <ele>44.5</ele>
        <time>2020-07-01T16:35:31Z</time>
      </trkpt>
      <trkpt lat="48.86379" lon="2.34865">
        <ele>44.5</ele>
        <time>2020-07-01T16:35:32Z</time>
      </trkpt>
      <trkpt lat="48.86376" lon="2.3486">
        <ele>44.4</ele>
        <time>2020-07-01T16:35:33Z</time>
      </trkpt>
      <trkpt lat="48.86374" lon="2.34854">
        <ele>44.4</ele>
        <time>2020-07-01T16:35:34Z</time>
      </trkpt>
      <trkpt lat="48.86371" lon="2.34849">
        <ele>44.4</ele>
        <time>2020-07-01T16:35:35Z</time>
      </trkpt>
      <trkpt lat="48.8637" lon="2.34844">
        <ele>44.3</ele>
        <time>2020-07-01T16:35:36Z</time>
      </trkpt>
      <trkpt lat="48.86367" lon="2.3484">
        <ele>44.3</ele>
        <time>2020-07-01T16:35:37Z</time>
      </trkpt>
      <trkpt lat="48.86366" lon="2.34838">
        <ele>44.3</ele>
        <time>2020-07-01T16:35:38Z</time>
      </trkpt>
      <trkpt lat="48.86365" lon="2.34834">
        <ele>44.3</ele>
        <time>2020-07-01T16:35:39Z</time>
      </trkpt>
      <trkpt lat="48.86363" lon="2.34827">
        <ele>44.3</ele>
        <time>2020-07-01T16:35:40Z</time>
      </trkpt>
      <trkpt lat="48.8636" lon="2.34817">
        <ele>44.2</ele>
        <time>2020-07-01T16:35:41Z</time>
      </trkpt>
      <trkpt lat="48.86358" lon="2.3481">
        <ele>44.1</ele>
        <time>2020-07-01T16:35:42Z</time>
      </trkpt>
      <trkpt lat="48.86358" lon="2.34801">
        <ele>44.1</ele>
        <time>2020-07-01T16:35:43Z</time>
      </trkpt>
      <trkpt lat="48.86357" lon="2.34793">
        <ele>44</ele>
        <time>2020-07-01T16:35:44Z</time>
      </trkpt>
      <trkpt lat="48.86356" lon="2.34785">
        <ele>44</ele>
        <time>2020-07-01T16:35:45Z</time>
      </trkpt>
      <trkpt lat="48.86354" lon="2.34777">
        <ele>43.9</ele>
        <time>2020-07-01T16:35:46Z</time>
      </trkpt>
      <trkpt lat="48.86353" lon="2.34768">
        <ele>43.9</ele>
        <time>2020-07-01T16:35:47Z</time>
      </trkpt>
      <trkpt lat="48.86352" lon="2.3476">
        <ele>43.8</ele>
        <time>2020-07-01T16:35:48Z</time>
      </trkpt>
      <trkpt lat="48.8635" lon="2.34753">
        <ele>43.8</ele>
        <time>2020-07-01T16:35:49Z</time>
      </trkpt>
      <trkpt lat="48.86347" lon="2.34746">
        <ele>43.8</ele>
        <time>2020-07-01T16:35:50Z</time>
      </trkpt>
      <trkpt lat="48.86345" lon="2.34738">
        <ele>43.8</ele>
        <time>2020-07-01T16:35:51Z</time>
      </trkpt>
      <trkpt lat="48.86342" lon="2.34731">
        <ele>43.9</ele>
        <time>2020-07-01T16:35:52Z</time>
      </trkpt>
      <trkpt lat="48.86341" lon="2.34724">
        <ele>43.9</ele>
        <time>2020-07-01T16:35:53Z</time>
      </trkpt>
      <trkpt lat="48.86339" lon="2.34718">
        <ele>44</ele>
        <time>2020-07-01T16:35:54Z</time>
      </trkpt>
      <trkpt lat="48.86337" lon="2.34711">
        <ele>44.1</ele>
        <time>2020-07-01T16:35:55Z</time>
      </trkpt>
      <trkpt lat="48.86336" lon="2.34703">
        <ele>44.1</ele>
        <time>2020-07-01T16:35:56Z</time>
      </trkpt>
      <trkpt lat="48.86335" lon="2.34695">
        <ele>44.2</ele>
        <time>2020-07-01T16:35:57Z</time>
      </trkpt>
      <trkpt lat="48.86334" lon="2.34687">
        <ele>44.3</ele>
        <time>2020-07-01T16:35:58Z</time>
      </trkpt>
      <trkpt lat="48.86333" lon="2.34682">
        <ele>44.3</ele>
        <time>2020-07-01T16:35:59Z</time>
      </trkpt>
      <trkpt lat="48.86333" lon="2.34676">
        <ele>44.4</ele>
        <time>2020-07-01T16:36:00Z</time>
      </trkpt>
      <trkpt lat="48.86332" lon="2.34675">
        <ele>44.4</ele>
        <time>2020-07-01T16:36:01Z</time>
      </trkpt>
      <trkpt lat="48.86331" lon="2.3467">
        <ele>44.5</ele>
        <time>2020-07-01T16:36:02Z</time>
      </trkpt>
      <trkpt lat="48.86331" lon="2.34668">
        <ele>44.5</ele>
        <time>2020-07-01T16:36:03Z</time>
      </trkpt>
      <trkpt lat="48.8633" lon="2.34663">
        <ele>44.5</ele>
        <time>2020-07-01T16:36:04Z</time>
      </trkpt>
      <trkpt lat="48.8633" lon="2.34661">
        <ele>44.6</ele>
        <time>2020-07-01T16:36:05Z</time>
      </trkpt>
      <trkpt lat="48.86329" lon="2.3466">
        <ele>44.6</ele>
        <time>2020-07-01T16:36:06Z</time>
      </trkpt>
      <trkpt lat="48.86328" lon="2.34657">
        <ele>44.6</ele>
        <time>2020-07-01T16:36:07Z</time>
      </trkpt>
      <trkpt lat="48.86328" lon="2.34657">
        <ele>44.6</ele>
        <time>2020-07-01T16:36:08Z</time>
      </trkpt>
      <trkpt lat="48.86328" lon="2.34656">
        <ele>44.6</ele>
        <time>2020-07-01T16:36:09Z</time>
      </trkpt>
      <trkpt lat="48.86327" lon="2.34654">
        <ele>44.7</ele>
        <time>2020-07-01T16:36:10Z</time>
      </trkpt>
      <trkpt lat="48.86325" lon="2.34649">
        <ele>44.7</ele>
        <time>2020-07-01T16:36:11Z</time>
      </trkpt>
      <trkpt lat="48.86325" lon="2.34647">
        <ele>44.8</ele>
        <time>2020-07-01T16:36:12Z</time>
      </trkpt>
      <trkpt lat="48.86324" lon="2.34643">
        <ele>44.8</ele>
        <time>2020-07-01T16:36:13Z</time>
      </trkpt>
      <trkpt lat="48.86324" lon="2.34642">
        <ele>44.8</ele>
        <time>2020-07-01T16:36:14Z</time>
      </trkpt>
      <trkpt lat="48.86322" lon="2.34637">
        <ele>44.9</ele>
        <time>2020-07-01T16:36:15Z</time>
      </trkpt>
      <trkpt lat="48.86322" lon="2.34637">
        <ele>44.9</ele>
        <time>2020-07-01T16:36:16Z</time>
      </trkpt>
      <trkpt lat="48.86319" lon="2.34633">
        <ele>45</ele>
        <time>2020-07-01T16:36:17Z</time>
      </trkpt>
      <trkpt lat="48.86319" lon="2.34629">
        <ele>45.1</ele>
        <time>2020-07-01T16:36:18Z</time>
      </trkpt>
      <trkpt lat="48.86321" lon="2.34618">
        <ele>45.4</ele>
        <time>2020-07-01T16:36:19Z</time>
      </trkpt>
      <trkpt lat="48.86323" lon="2.34609">
        <ele>45.5</ele>
        <time>2020-07-01T16:36:20Z</time>
      </trkpt>
      <trkpt lat="48.86325" lon="2.34603">
        <ele>45.5</ele>
        <time>2020-07-01T16:36:21Z</time>
      </trkpt>
      <trkpt lat="48.86328" lon="2.34599">
        <ele>45.5</ele>
        <time>2020-07-01T16:36:22Z</time>
      </trkpt>
      <trkpt lat="48.86329" lon="2.34598">
        <ele>45.4</ele>
        <time>2020-07-01T16:36:23Z</time>
      </trkpt>
      <trkpt lat="48.86334" lon="2.34593">
        <ele>45.4</ele>
        <time>2020-07-01T16:36:24Z</time>
      </trkpt>
      <trkpt lat="48.86339" lon="2.34588">
        <ele>45.4</ele>
        <time>2020-07-01T16:36:25Z</time>
      </trkpt>
      <trkpt lat="48.86342" lon="2.34584">
        <ele>45.4</ele>
        <time>2020-07-01T16:36:26Z</time>
      </trkpt>
      <trkpt lat="48.86346" lon="2.34581">
        <ele>45.4</ele>
        <time>2020-07-01T16:36:27Z</time>
      </trkpt>
      <trkpt lat="48.8635" lon="2.34579">
        <ele>45.4</ele>
        <time>2020-07-01T16:36:28Z</time>
      </trkpt>
      <trkpt lat="48.86353" lon="2.34577">
        <ele>45.4</ele>
        <time>2020-07-01T16:36:29Z</time>
      </trkpt>
      <trkpt lat="48.86356" lon="2.34575">
        <ele>45.4</ele>
        <time>2020-07-01T16:36:30Z</time>
      </trkpt>
      <trkpt lat="48.86359" lon="2.34572">
        <ele>45.4</ele>
        <time>2020-07-01T16:36:31Z</time>
      </trkpt>
      <trkpt lat="48.86362" lon="2.3457">
        <ele>45.4</ele>
        <time>2020-07-01T16:36:32Z</time>
      </trkpt>
      <trkpt lat="48.86365" lon="2.34568">
        <ele>45.4</ele>
        <time>2020-07-01T16:36:33Z</time>
      </trkpt>
      <trkpt lat="48.86367" lon="2.34567">
        <ele>45.4</ele>
        <time>2020-07-01T16:36:34Z</time>
      </trkpt>
      <trkpt lat="48.86369" lon="2.34566">
        <ele>45.4</ele>
        <time>2020-07-01T16:36:35Z</time>
      </trkpt>
      <trkpt lat="48.8637" lon="2.34565">
        <ele>45.4</ele>
        <time>2020-07-01T16:36:36Z</time>
      </trkpt>
      <trkpt lat="48.8637" lon="2.34562">
        <ele>45.4</ele>
        <time>2020-07-01T16:36:37Z</time>
      </trkpt>
      <trkpt lat="48.8637" lon="2.34561">
        <ele>45.4</ele>
        <time>2020-07-01T16:36:38Z</time>
      </trkpt>
      <trkpt lat="48.86371" lon="2.34559">
        <ele>45.4</ele>
        <time>2020-07-01T16:36:39Z</time>
      </trkpt>
      <trkpt lat="48.86371" lon="2.34559">
        <ele>45.4</ele>
        <time>2020-07-01T16:36:40Z</time>
      </trkpt>
      <trkpt lat="48.86371" lon="2.34558">
        <ele>45.4</ele>
        <time>2020-07-01T16:36:41Z</time>
      </trkpt>
      <trkpt lat="48.86371" lon="2.34559">
        <ele>45.4</ele>
        <time>2020-07-01T16:36:42Z</time>
      </trkpt>
      <trkpt lat="48.86371" lon="2.34559">
        <ele>45.4</ele>
        <time>2020-07-01T16:36:43Z</time>
      </trkpt>
      <trkpt lat="48.86371" lon="2.3456">
        <ele>45.4</ele>
        <time>2020-07-01T16:36:44Z</time>
      </trkpt>
      <trkpt lat="48.86372" lon="2.3456">
        <ele>45.4</ele>
        <time>2020-07-01T16:36:45Z</time>
      </trkpt>
      <trkpt lat="48.86373" lon="2.34559">
        <ele>45.4</ele>
        <time>2020-07-01T16:36:46Z</time>
      </trkpt>
      <trkpt lat="48.86373" lon="2.34559">
        <ele>45.4</ele>
        <time>2020-07-01T16:36:47Z</time>
      </trkpt>
      <trkpt lat="48.86374" lon="2.34559">
        <ele>45.4</ele>
        <time>2020-07-01T16:36:48Z</time>
      </trkpt>
      <trkpt lat="48.86374" lon="2.34559">
        <ele>45.4</ele>
        <time>2020-07-01T16:36:49Z</time>
      </trkpt>
      <trkpt lat="48.86374" lon="2.34559">
        <ele>45.4</ele>
        <time>2020-07-01T16:36:50Z</time>
      </trkpt>
      <trkpt lat="48.86374" lon="2.34559">
        <ele>45.4</ele>
        <time>2020-07-01T16:36:51Z</time>
      </trkpt>
      <trkpt lat="48.86374" lon="2.34558">
        <ele>45.4</ele>
        <time>2020-07-01T16:36:52Z</time>
      </trkpt>
      <trkpt lat="48.86374" lon="2.34558">
        <ele>45.4</ele>
        <time>2020-07-01T16:36:53Z</time>
      </trkpt>
      <trkpt lat="48.86374" lon="2.34559">
        <ele>45.4</ele>
        <time>2020-07-01T16:36:54Z</time>
      </trkpt>
      <trkpt lat="48.86374" lon="2.34559">
        <ele>45.4</ele>
        <time>2020-07-01T16:36:55Z</time>
      </trkpt>
      <trkpt lat="48.86383" lon="2.34567">
        <ele>45.4</ele>
        <time>2020-07-01T16:44:22Z</time>
      </trkpt>
      <trkpt lat="48.86383" lon="2.34566">
        <ele>45.4</ele>
        <time>2020-07-01T16:44:23Z</time>
      </trkpt>
      <trkpt lat="48.86383" lon="2.34566">
        <ele>45.4</ele>
        <time>2020-07-01T16:44:24Z</time>
      </trkpt>
      <trkpt lat="48.86383" lon="2.34565">
        <ele>45.4</ele>
        <time>2020-07-01T16:44:25Z</time>
      </trkpt>
      <trkpt lat="48.86384" lon="2.34565">
        <ele>45.4</ele>
        <time>2020-07-01T16:44:26Z</time>
      </trkpt>
      <trkpt lat="48.86384" lon="2.34565">
        <ele>45.4</ele>
        <time>2020-07-01T16:44:27Z</time>
      </trkpt>
      <trkpt lat="48.86383" lon="2.34564">
        <ele>45.4</ele>
        <time>2020-07-01T16:44:28Z</time>
      </trkpt>
      <trkpt lat="48.86383" lon="2.34564">
        <ele>45.4</ele>
        <time>2020-07-01T16:44:29Z</time>
      </trkpt>
      <trkpt lat="48.86383" lon="2.34564">
        <ele>45.4</ele>
        <time>2020-07-01T16:44:30Z</time>
      </trkpt>
      <trkpt lat="48.86384" lon="2.34564">
        <ele>45.4</ele>
        <time>2020-07-01T16:44:31Z</time>
      </trkpt>
      <trkpt lat="48.86384" lon="2.34565">
        <ele>45.4</ele>
        <time>2020-07-01T16:44:32Z</time>
      </trkpt>
      <trkpt lat="48.86384" lon="2.34565">
        <ele>45.4</ele>
        <time>2020-07-01T16:44:33Z</time>
      </trkpt>
      <trkpt lat="48.86384" lon="2.34564">
        <ele>45.4</ele>
        <time>2020-07-01T16:44:34Z</time>
      </trkpt>
      <trkpt lat="48.86384" lon="2.34564">
        <ele>45.4</ele>
        <time>2020-07-01T16:44:35Z</time>
      </trkpt>
      <trkpt lat="48.86384" lon="2.34564">
        <ele>45.4</ele>
        <time>2020-07-01T16:44:36Z</time>
      </trkpt>
      <trkpt lat="48.86384" lon="2.34564">
        <ele>45.4</ele>
        <time>2020-07-01T16:44:37Z</time>
      </trkpt>
      <trkpt lat="48.86384" lon="2.34564">
        <ele>45.4</ele>
        <time>2020-07-01T16:44:38Z</time>
      </trkpt>
      <trkpt lat="48.86384" lon="2.34563">
        <ele>45.4</ele>
        <time>2020-07-01T16:44:39Z</time>
      </trkpt>
      <trkpt lat="48.86384" lon="2.34563">
        <ele>45.4</ele>
        <time>2020-07-01T16:44:40Z</time>
      </trkpt>
      <trkpt lat="48.86384" lon="2.34562">
        <ele>45.4</ele>
        <time>2020-07-01T16:44:41Z</time>
      </trkpt>
      <trkpt lat="48.86384" lon="2.34562">
        <ele>45.4</ele>
        <time>2020-07-01T16:44:42Z</time>
      </trkpt>
      <trkpt lat="48.86384" lon="2.34561">
        <ele>45.4</ele>
        <time>2020-07-01T16:44:43Z</time>
      </trkpt>
      <trkpt lat="48.86384" lon="2.34561">
        <ele>45.4</ele>
        <time>2020-07-01T16:44:44Z</time>
      </trkpt>
      <trkpt lat="48.86383" lon="2.34561">
        <ele>45.4</ele>
        <time>2020-07-01T16:44:45Z</time>
      </trkpt>
      <trkpt lat="48.86383" lon="2.34561">
        <ele>45.4</ele>
        <time>2020-07-01T16:44:46Z</time>
      </trkpt>
      <trkpt lat="48.86383" lon="2.3456">
        <ele>45.4</ele>
        <time>2020-07-01T16:44:47Z</time>
      </trkpt>
      <trkpt lat="48.86383" lon="2.34561">
        <ele>45.4</ele>
        <time>2020-07-01T16:44:48Z</time>
      </trkpt>
      <trkpt lat="48.86383" lon="2.34561">
        <ele>45.4</ele>
        <time>2020-07-01T16:44:49Z</time>
      </trkpt>
      <trkpt lat="48.86383" lon="2.34561">
        <ele>45.4</ele>
        <time>2020-07-01T16:44:50Z</time>
      </trkpt>
      <trkpt lat="48.86383" lon="2.34561">
        <ele>45.4</ele>
        <time>2020-07-01T16:44:51Z</time>
      </trkpt>
      <trkpt lat="48.86383" lon="2.34561">
        <ele>45.4</ele>
        <time>2020-07-01T16:44:52Z</time>
      </trkpt>
      <trkpt lat="48.86383" lon="2.3456">
        <ele>45.4</ele>
        <time>2020-07-01T16:44:53Z</time>
      </trkpt>
      <trkpt lat="48.86383" lon="2.34559">
        <ele>45.4</ele>
        <time>2020-07-01T16:44:54Z</time>
      </trkpt>
      <trkpt lat="48.86383" lon="2.34559">
        <ele>45.4</ele>
        <time>2020-07-01T16:44:55Z</time>
      </trkpt>
      <trkpt lat="48.86364" lon="2.34567">
        <ele>45.4</ele>
        <time>2020-07-01T16:48:45Z</time>
      </trkpt>
      <trkpt lat="48.86363" lon="2.34567">
        <ele>45.4</ele>
        <time>2020-07-01T16:48:46Z</time>
      </trkpt>
      <trkpt lat="48.8636" lon="2.34567">
        <ele>45.4</ele>
        <time>2020-07-01T16:48:47Z</time>
      </trkpt>
      <trkpt lat="48.86358" lon="2.34569">
        <ele>45.4</ele>
        <time>2020-07-01T16:48:48Z</time>
      </trkpt>
      <trkpt lat="48.86357" lon="2.3457">
        <ele>45.4</ele>
        <time>2020-07-01T16:48:49Z</time>
      </trkpt>
      <trkpt lat="48.86354" lon="2.34572">
        <ele>45.4</ele>
        <time>2020-07-01T16:48:50Z</time>
      </trkpt>
      <trkpt lat="48.86353" lon="2.34573">
        <ele>45.4</ele>
        <time>2020-07-01T16:48:51Z</time>
      </trkpt>
      <trkpt lat="48.8635" lon="2.34576">
        <ele>45.4</ele>
        <time>2020-07-01T16:48:52Z</time>
      </trkpt>
      <trkpt lat="48.86349" lon="2.34577">
        <ele>45.4</ele>
        <time>2020-07-01T16:48:53Z</time>
      </trkpt>
      <trkpt lat="48.86346" lon="2.34578">
        <ele>45.4</ele>
        <time>2020-07-01T16:48:54Z</time>
      </trkpt>
      <trkpt lat="48.86345" lon="2.34578">
        <ele>45.4</ele>
        <time>2020-07-01T16:48:55Z</time>
      </trkpt>
      <trkpt lat="48.86343" lon="2.3458">
        <ele>45.4</ele>
        <time>2020-07-01T16:48:56Z</time>
      </trkpt>
      <trkpt lat="48.86342" lon="2.34581">
        <ele>45.4</ele>
        <time>2020-07-01T16:48:57Z</time>
      </trkpt>
      <trkpt lat="48.8634" lon="2.34583">
        <ele>45.4</ele>
        <time>2020-07-01T16:48:58Z</time>
      </trkpt>
      <trkpt lat="48.8634" lon="2.34584">
        <ele>45.4</ele>
        <time>2020-07-01T16:48:59Z</time>
      </trkpt>
      <trkpt lat="48.86338" lon="2.34586">
        <ele>45.4</ele>
        <time>2020-07-01T16:49:00Z</time>
      </trkpt>
      <trkpt lat="48.86337" lon="2.34587">
        <ele>45.4</ele>
        <time>2020-07-01T16:49:01Z</time>
      </trkpt>
      <trkpt lat="48.86336" lon="2.34589">
        <ele>45.4</ele>
        <time>2020-07-01T16:49:02Z</time>
      </trkpt>
      <trkpt lat="48.86335" lon="2.3459">
        <ele>45.4</ele>
        <time>2020-07-01T16:49:03Z</time>
      </trkpt>
      <trkpt lat="48.86335" lon="2.34591">
        <ele>45.4</ele>
        <time>2020-07-01T16:49:04Z</time>
      </trkpt>
      <trkpt lat="48.86334" lon="2.34591">
        <ele>45.4</ele>
        <time>2020-07-01T16:49:05Z</time>
      </trkpt>
      <trkpt lat="48.86332" lon="2.34594">
        <ele>45.4</ele>
        <time>2020-07-01T16:49:06Z</time>
      </trkpt>
      <trkpt lat="48.86331" lon="2.34595">
        <ele>45.4</ele>
        <time>2020-07-01T16:49:07Z</time>
      </trkpt>
      <trkpt lat="48.86329" lon="2.34598">
        <ele>45.4</ele>
        <time>2020-07-01T16:49:08Z</time>
      </trkpt>
      <trkpt lat="48.86328" lon="2.346">
        <ele>45.4</ele>
        <time>2020-07-01T16:49:09Z</time>
      </trkpt>
      <trkpt lat="48.86326" lon="2.34603">
        <ele>45.6</ele>
        <time>2020-07-01T16:49:10Z</time>
      </trkpt>
      <trkpt lat="48.86325" lon="2.34604">
        <ele>45.6</ele>
        <time>2020-07-01T16:49:11Z</time>
      </trkpt>
      <trkpt lat="48.86322" lon="2.34605">
        <ele>45.6</ele>
        <time>2020-07-01T16:49:12Z</time>
      </trkpt>
      <trkpt lat="48.86321" lon="2.34606">
        <ele>45.6</ele>
        <time>2020-07-01T16:49:13Z</time>
      </trkpt>
      <trkpt lat="48.86318" lon="2.34606">
        <ele>45.6</ele>
        <time>2020-07-01T16:49:14Z</time>
      </trkpt>
      <trkpt lat="48.86316" lon="2.34606">
        <ele>45.7</ele>
        <time>2020-07-01T16:49:15Z</time>
      </trkpt>
      <trkpt lat="48.86314" lon="2.34603">
        <ele>45.8</ele>
        <time>2020-07-01T16:49:16Z</time>
      </trkpt>
      <trkpt lat="48.86314" lon="2.34601">
        <ele>45.8</ele>
        <time>2020-07-01T16:49:17Z</time>
      </trkpt>
      <trkpt lat="48.86312" lon="2.34598">
        <ele>45.8</ele>
        <time>2020-07-01T16:49:18Z</time>
      </trkpt>
      <trkpt lat="48.86311" lon="2.34596">
        <ele>45.9</ele>
        <time>2020-07-01T16:49:19Z</time>
      </trkpt>
      <trkpt lat="48.86311" lon="2.34591">
        <ele>45.9</ele>
        <time>2020-07-01T16:49:20Z</time>
      </trkpt>
      <trkpt lat="48.86308" lon="2.34586">
        <ele>46</ele>
        <time>2020-07-01T16:49:21Z</time>
      </trkpt>
      <trkpt lat="48.86308" lon="2.34579">
        <ele>46</ele>
        <time>2020-07-01T16:49:22Z</time>
      </trkpt>
      <trkpt lat="48.86308" lon="2.34572">
        <ele>46</ele>
        <time>2020-07-01T16:49:23Z</time>
      </trkpt>
      <trkpt lat="48.86308" lon="2.34565">
        <ele>45.9</ele>
        <time>2020-07-01T16:49:24Z</time>
      </trkpt>
      <trkpt lat="48.86307" lon="2.3456">
        <ele>45.9</ele>
        <time>2020-07-01T16:49:25Z</time>
      </trkpt>
      <trkpt lat="48.86308" lon="2.34555">
        <ele>45.8</ele>
        <time>2020-07-01T16:49:26Z</time>
      </trkpt>
      <trkpt lat="48.8631" lon="2.34549">
        <ele>45.8</ele>
        <time>2020-07-01T16:49:27Z</time>
      </trkpt>
      <trkpt lat="48.8631" lon="2.34545">
        <ele>45.7</ele>
        <time>2020-07-01T16:49:28Z</time>
      </trkpt>
      <trkpt lat="48.8631" lon="2.3454">
        <ele>45.7</ele>
        <time>2020-07-01T16:49:29Z</time>
      </trkpt>
      <trkpt lat="48.8631" lon="2.34534">
        <ele>45.6</ele>
        <time>2020-07-01T16:49:30Z</time>
      </trkpt>
      <trkpt lat="48.8631" lon="2.34529">
        <ele>45.6</ele>
        <time>2020-07-01T16:49:31Z</time>
      </trkpt>
      <trkpt lat="48.86311" lon="2.34524">
        <ele>45.6</ele>
        <time>2020-07-01T16:49:32Z</time>
      </trkpt>
      <trkpt lat="48.86312" lon="2.3452">
        <ele>45.5</ele>
        <time>2020-07-01T16:49:33Z</time>
      </trkpt>
      <trkpt lat="48.86312" lon="2.34515">
        <ele>45.5</ele>
        <time>2020-07-01T16:49:34Z</time>
      </trkpt>
      <trkpt lat="48.86313" lon="2.34509">
        <ele>45.4</ele>
        <time>2020-07-01T16:49:35Z</time>
      </trkpt>
      <trkpt lat="48.86317" lon="2.34506">
        <ele>45.4</ele>
        <time>2020-07-01T16:49:36Z</time>
      </trkpt>
      <trkpt lat="48.86319" lon="2.34502">
        <ele>45.4</ele>
        <time>2020-07-01T16:49:37Z</time>
      </trkpt>
      <trkpt lat="48.86322" lon="2.34498">
        <ele>45.4</ele>
        <time>2020-07-01T16:49:38Z</time>
      </trkpt>
      <trkpt lat="48.86324" lon="2.34492">
        <ele>45.4</ele>
        <time>2020-07-01T16:49:39Z</time>
      </trkpt>
      <trkpt lat="48.86326" lon="2.34487">
        <ele>45.5</ele>
        <time>2020-07-01T16:49:40Z</time>
      </trkpt>
      <trkpt lat="48.86328" lon="2.3448">
        <ele>45.5</ele>
        <time>2020-07-01T16:49:41Z</time>
      </trkpt>
      <trkpt lat="48.86329" lon="2.34473">
        <ele>45.5</ele>
        <time>2020-07-01T16:49:42Z</time>
      </trkpt>
      <trkpt lat="48.86331" lon="2.34467">
        <ele>45.5</ele>
        <time>2020-07-01T16:49:43Z</time>
      </trkpt>
      <trkpt lat="48.86333" lon="2.34462">
        <ele>45.5</ele>
        <time>2020-07-01T16:49:44Z</time>
      </trkpt>
      <trkpt lat="48.86334" lon="2.34457">
        <ele>45.5</ele>
        <time>2020-07-01T16:49:45Z</time>
      </trkpt>
      <trkpt lat="48.86335" lon="2.34452">
        <ele>45.5</ele>
        <time>2020-07-01T16:49:46Z</time>
      </trkpt>
      <trkpt lat="48.86335" lon="2.34446">
        <ele>45.5</ele>
        <time>2020-07-01T16:49:47Z</time>
      </trkpt>
      <trkpt lat="48.86336" lon="2.3444">
        <ele>45.5</ele>
        <time>2020-07-01T16:49:48Z</time>
      </trkpt>
      <trkpt lat="48.86336" lon="2.34434">
        <ele>45.5</ele>
        <time>2020-07-01T16:49:49Z</time>
      </trkpt>
      <trkpt lat="48.86335" lon="2.34428">
        <ele>45.5</ele>
        <time>2020-07-01T16:49:50Z</time>
      </trkpt>
      <trkpt lat="48.86334" lon="2.34424">
        <ele>45.5</ele>
        <time>2020-07-01T16:49:51Z</time>
      </trkpt>
      <trkpt lat="48.86334" lon="2.34418">
        <ele>45.5</ele>
        <time>2020-07-01T16:49:52Z</time>
      </trkpt>
      <trkpt lat="48.86334" lon="2.34416">
        <ele>45.5</ele>
        <time>2020-07-01T16:49:53Z</time>
      </trkpt>
      <trkpt lat="48.86333" lon="2.34411">
        <ele>45.5</ele>
        <time>2020-07-01T16:49:54Z</time>
      </trkpt>
      <trkpt lat="48.86333" lon="2.34409">
        <ele>45.5</ele>
        <time>2020-07-01T16:49:55Z</time>
      </trkpt>
      <trkpt lat="48.86333" lon="2.34406">
        <ele>45.5</ele>
        <time>2020-07-01T16:49:56Z</time>
      </trkpt>
      <trkpt lat="48.86333" lon="2.34404">
        <ele>45.4</ele>
        <time>2020-07-01T16:49:57Z</time>
      </trkpt>
      <trkpt lat="48.86333" lon="2.34401">
        <ele>45.4</ele>
        <time>2020-07-01T16:49:58Z</time>
      </trkpt>
      <trkpt lat="48.86334" lon="2.34399">
        <ele>45.4</ele>
        <time>2020-07-01T16:49:59Z</time>
      </trkpt>
      <trkpt lat="48.86334" lon="2.34398">
        <ele>45.4</ele>
        <time>2020-07-01T16:50:00Z</time>
      </trkpt>
      <trkpt lat="48.86336" lon="2.34395">
        <ele>45.3</ele>
        <time>2020-07-01T16:50:01Z</time>
      </trkpt>
      <trkpt lat="48.86337" lon="2.34394">
        <ele>45.3</ele>
        <time>2020-07-01T16:50:02Z</time>
      </trkpt>
      <trkpt lat="48.86338" lon="2.34392">
        <ele>45.3</ele>
        <time>2020-07-01T16:50:03Z</time>
      </trkpt>
      <trkpt lat="48.86339" lon="2.34391">
        <ele>45.3</ele>
        <time>2020-07-01T16:50:04Z</time>
      </trkpt>
      <trkpt lat="48.8634" lon="2.34389">
        <ele>45.3</ele>
        <time>2020-07-01T16:50:05Z</time>
      </trkpt>
      <trkpt lat="48.86341" lon="2.34387">
        <ele>45.2</ele>
        <time>2020-07-01T16:50:06Z</time>
      </trkpt>
      <trkpt lat="48.86342" lon="2.34385">
        <ele>45.2</ele>
        <time>2020-07-01T16:50:07Z</time>
      </trkpt>
      <trkpt lat="48.86343" lon="2.34383">
        <ele>45.2</ele>
        <time>2020-07-01T16:50:08Z</time>
      </trkpt>
      <trkpt lat="48.86344" lon="2.34382">
        <ele>45.2</ele>
        <time>2020-07-01T16:50:09Z</time>
      </trkpt>
      <trkpt lat="48.86345" lon="2.3438">
        <ele>45.2</ele>
        <time>2020-07-01T16:50:10Z</time>
      </trkpt>
      <trkpt lat="48.86346" lon="2.34378">
        <ele>45.1</ele>
        <time>2020-07-01T16:50:11Z</time>
      </trkpt>
      <trkpt lat="48.86346" lon="2.34377">
        <ele>45.1</ele>
        <time>2020-07-01T16:50:12Z</time>
      </trkpt>
      <trkpt lat="48.86347" lon="2.34375">
        <ele>45.1</ele>
        <time>2020-07-01T16:50:13Z</time>
      </trkpt>
      <trkpt lat="48.86347" lon="2.34374">
        <ele>45.1</ele>
        <time>2020-07-01T16:50:14Z</time>
      </trkpt>
      <trkpt lat="48.86348" lon="2.34372">
        <ele>45.1</ele>
        <time>2020-07-01T16:50:15Z</time>
      </trkpt>
      <trkpt lat="48.86348" lon="2.34371">
        <ele>45.1</ele>
        <time>2020-07-01T16:50:16Z</time>
      </trkpt>
      <trkpt lat="48.86349" lon="2.3437">
        <ele>45.1</ele>
        <time>2020-07-01T16:50:17Z</time>
      </trkpt>
      <trkpt lat="48.8635" lon="2.34368">
        <ele>45.1</ele>
        <time>2020-07-01T16:50:18Z</time>
      </trkpt>
      <trkpt lat="48.8635" lon="2.34367">
        <ele>45.1</ele>
        <time>2020-07-01T16:50:19Z</time>
      </trkpt>
      <trkpt lat="48.86351" lon="2.34365">
        <ele>45.1</ele>
        <time>2020-07-01T16:50:20Z</time>
      </trkpt>
      <trkpt lat="48.86352" lon="2.34364">
        <ele>45.1</ele>
        <time>2020-07-01T16:50:21Z</time>
      </trkpt>
      <trkpt lat="48.86353" lon="2.34361">
        <ele>45.1</ele>
        <time>2020-07-01T16:50:22Z</time>
      </trkpt>
      <trkpt lat="48.86353" lon="2.3436">
        <ele>45.1</ele>
        <time>2020-07-01T16:50:23Z</time>
      </trkpt>
      <trkpt lat="48.86354" lon="2.34358">
        <ele>45.1</ele>
        <time>2020-07-01T16:50:24Z</time>
      </trkpt>
      <trkpt lat="48.86355" lon="2.34354">
        <ele>45.1</ele>
        <time>2020-07-01T16:50:25Z</time>
      </trkpt>
      <trkpt lat="48.86356" lon="2.34349">
        <ele>45.1</ele>
        <time>2020-07-01T16:50:26Z</time>
      </trkpt>
      <trkpt lat="48.86356" lon="2.34347">
        <ele>45.1</ele>
        <time>2020-07-01T16:50:27Z</time>
      </trkpt>
      <trkpt lat="48.86357" lon="2.34342">
        <ele>45</ele>
        <time>2020-07-01T16:50:28Z</time>
      </trkpt>
      <trkpt lat="48.86357" lon="2.34337">
        <ele>45</ele>
        <time>2020-07-01T16:50:29Z</time>
      </trkpt>
      <trkpt lat="48.86357" lon="2.34333">
        <ele>45</ele>
        <time>2020-07-01T16:50:30Z</time>
      </trkpt>
      <trkpt lat="48.86358" lon="2.34329">
        <ele>45</ele>
        <time>2020-07-01T16:50:31Z</time>
      </trkpt>
      <trkpt lat="48.86359" lon="2.34323">
        <ele>45</ele>
        <time>2020-07-01T16:50:32Z</time>
      </trkpt>
      <trkpt lat="48.8636" lon="2.34322">
        <ele>45</ele>
        <time>2020-07-01T16:50:33Z</time>
      </trkpt>
      <trkpt lat="48.8636" lon="2.34319">
        <ele>45</ele>
        <time>2020-07-01T16:50:34Z</time>
      </trkpt>
      <trkpt lat="48.86361" lon="2.34316">
        <ele>45</ele>
        <time>2020-07-01T16:50:35Z</time>
      </trkpt>
      <trkpt lat="48.86361" lon="2.34314">
        <ele>45.1</ele>
        <time>2020-07-01T16:50:36Z</time>
      </trkpt>
      <trkpt lat="48.86362" lon="2.34312">
        <ele>45.1</ele>
        <time>2020-07-01T16:50:37Z</time>
      </trkpt>
      <trkpt lat="48.86363" lon="2.3431">
        <ele>45.1</ele>
        <time>2020-07-01T16:50:38Z</time>
      </trkpt>
      <trkpt lat="48.86363" lon="2.34308">
        <ele>45.1</ele>
        <time>2020-07-01T16:50:39Z</time>
      </trkpt>
      <trkpt lat="48.86364" lon="2.34306">
        <ele>45.1</ele>
        <time>2020-07-01T16:50:40Z</time>
      </trkpt>
      <trkpt lat="48.86365" lon="2.34304">
        <ele>45.1</ele>
        <time>2020-07-01T16:50:41Z</time>
      </trkpt>
      <trkpt lat="48.86366" lon="2.34301">
        <ele>45.1</ele>
        <time>2020-07-01T16:50:42Z</time>
      </trkpt>
      <trkpt lat="48.86366" lon="2.34299">
        <ele>45.1</ele>
        <time>2020-07-01T16:50:43Z</time>
      </trkpt>
      <trkpt lat="48.86366" lon="2.34298">
        <ele>45.2</ele>
        <time>2020-07-01T16:50:44Z</time>
      </trkpt>
      <trkpt lat="48.86367" lon="2.34296">
        <ele>45.2</ele>
        <time>2020-07-01T16:50:45Z</time>
      </trkpt>
      <trkpt lat="48.86367" lon="2.34295">
        <ele>45.2</ele>
        <time>2020-07-01T16:50:46Z</time>
      </trkpt>
      <trkpt lat="48.86368" lon="2.34292">
        <ele>45.2</ele>
        <time>2020-07-01T16:50:47Z</time>
      </trkpt>
      <trkpt lat="48.86368" lon="2.3429">
        <ele>45.2</ele>
        <time>2020-07-01T16:50:48Z</time>
      </trkpt>
      <trkpt lat="48.86369" lon="2.34288">
        <ele>45.2</ele>
        <time>2020-07-01T16:50:49Z</time>
      </trkpt>
      <trkpt lat="48.86369" lon="2.34286">
        <ele>45.2</ele>
        <time>2020-07-01T16:50:50Z</time>
      </trkpt>
      <trkpt lat="48.8637" lon="2.34283">
        <ele>45.2</ele>
        <time>2020-07-01T16:50:51Z</time>
      </trkpt>
      <trkpt lat="48.8637" lon="2.34282">
        <ele>45.2</ele>
        <time>2020-07-01T16:50:52Z</time>
      </trkpt>
      <trkpt lat="48.86371" lon="2.34281">
        <ele>45.2</ele>
        <time>2020-07-01T16:50:53Z</time>
      </trkpt>
      <trkpt lat="48.86372" lon="2.34281">
        <ele>45.2</ele>
        <time>2020-07-01T16:50:54Z</time>
      </trkpt>
      <trkpt lat="48.86372" lon="2.34282">
        <ele>45.2</ele>
        <time>2020-07-01T16:50:55Z</time>
      </trkpt>
      <trkpt lat="48.86374" lon="2.34282">
        <ele>45.2</ele>
        <time>2020-07-01T16:50:56Z</time>
      </trkpt>
      <trkpt lat="48.86373" lon="2.34279">
        <ele>45.2</ele>
        <time>2020-07-01T16:50:57Z</time>
      </trkpt>
      <trkpt lat="48.86372" lon="2.34278">
        <ele>45.2</ele>
        <time>2020-07-01T16:50:58Z</time>
      </trkpt>
      <trkpt lat="48.86372" lon="2.34276">
        <ele>45.2</ele>
        <time>2020-07-01T16:50:59Z</time>
      </trkpt>
      <trkpt lat="48.86371" lon="2.34272">
        <ele>45.2</ele>
        <time>2020-07-01T16:51:00Z</time>
      </trkpt>
      <trkpt lat="48.86371" lon="2.34271">
        <ele>45.4</ele>
        <time>2020-07-01T16:51:01Z</time>
      </trkpt>
      <trkpt lat="48.86373" lon="2.34265">
        <ele>45.5</ele>
        <time>2020-07-01T16:51:02Z</time>
      </trkpt>
      <trkpt lat="48.86374" lon="2.34263">
        <ele>45.5</ele>
        <time>2020-07-01T16:51:03Z</time>
      </trkpt>
      <trkpt lat="48.86375" lon="2.3426">
        <ele>45.5</ele>
        <time>2020-07-01T16:51:04Z</time>
      </trkpt>
      <trkpt lat="48.86377" lon="2.34255">
        <ele>45.6</ele>
        <time>2020-07-01T16:51:05Z</time>
      </trkpt>
      <trkpt lat="48.86378" lon="2.34253">
        <ele>45.6</ele>
        <time>2020-07-01T16:51:06Z</time>
      </trkpt>
      <trkpt lat="48.8638" lon="2.34249">
        <ele>45.7</ele>
        <time>2020-07-01T16:51:07Z</time>
      </trkpt>
      <trkpt lat="48.86381" lon="2.34247">
        <ele>45.7</ele>
        <time>2020-07-01T16:51:08Z</time>
      </trkpt>
      <trkpt lat="48.86382" lon="2.34246">
        <ele>45.7</ele>
        <time>2020-07-01T16:51:09Z</time>
      </trkpt>
      <trkpt lat="48.86383" lon="2.34242">
        <ele>45.8</ele>
        <time>2020-07-01T16:51:10Z</time>
      </trkpt>
      <trkpt lat="48.86383" lon="2.34241">
        <ele>45.9</ele>
        <time>2020-07-01T16:51:11Z</time>
      </trkpt>
      <trkpt lat="48.86384" lon="2.3424">
        <ele>45.9</ele>
        <time>2020-07-01T16:51:12Z</time>
      </trkpt>
      <trkpt lat="48.86384" lon="2.3424">
        <ele>45.9</ele>
        <time>2020-07-01T16:51:13Z</time>
      </trkpt>
      <trkpt lat="48.86385" lon="2.34239">
        <ele>45.9</ele>
        <time>2020-07-01T16:51:14Z</time>
      </trkpt>
      <trkpt lat="48.86385" lon="2.34238">
        <ele>45.9</ele>
        <time>2020-07-01T16:51:15Z</time>
      </trkpt>
      <trkpt lat="48.86385" lon="2.34237">
        <ele>45.9</ele>
        <time>2020-07-01T16:51:16Z</time>
      </trkpt>
      <trkpt lat="48.86384" lon="2.34236">
        <ele>45.9</ele>
        <time>2020-07-01T16:51:17Z</time>
      </trkpt>
      <trkpt lat="48.86384" lon="2.34235">
        <ele>45.9</ele>
        <time>2020-07-01T16:51:18Z</time>
      </trkpt>
      <trkpt lat="48.86382" lon="2.34236">
        <ele>46</ele>
        <time>2020-07-01T16:51:19Z</time>
      </trkpt>
      <trkpt lat="48.86382" lon="2.34236">
        <ele>46</ele>
        <time>2020-07-01T16:51:20Z</time>
      </trkpt>
      <trkpt lat="48.86381" lon="2.34235">
        <ele>46</ele>
        <time>2020-07-01T16:51:21Z</time>
      </trkpt>
      <trkpt lat="48.86381" lon="2.34235">
        <ele>46</ele>
        <time>2020-07-01T16:51:22Z</time>
      </trkpt>
      <trkpt lat="48.8638" lon="2.34235">
        <ele>46</ele>
        <time>2020-07-01T16:51:23Z</time>
      </trkpt>
      <trkpt lat="48.8638" lon="2.34235">
        <ele>46</ele>
        <time>2020-07-01T16:51:24Z</time>
      </trkpt>
      <trkpt lat="48.86379" lon="2.34234">
        <ele>46</ele>
        <time>2020-07-01T16:51:25Z</time>
      </trkpt>
      <trkpt lat="48.86378" lon="2.34234">
        <ele>46</ele>
        <time>2020-07-01T16:51:26Z</time>
      </trkpt>
      <trkpt lat="48.86376" lon="2.34232">
        <ele>46</ele>
        <time>2020-07-01T16:51:27Z</time>
      </trkpt>
      <trkpt lat="48.86375" lon="2.34231">
        <ele>46</ele>
        <time>2020-07-01T16:51:28Z</time>
      </trkpt>
      <trkpt lat="48.86374" lon="2.3423">
        <ele>46</ele>
        <time>2020-07-01T16:51:29Z</time>
      </trkpt>
      <trkpt lat="48.86371" lon="2.34226">
        <ele>46</ele>
        <time>2020-07-01T16:51:30Z</time>
      </trkpt>
      <trkpt lat="48.86369" lon="2.34224">
        <ele>46</ele>
        <time>2020-07-01T16:51:31Z</time>
      </trkpt>
      <trkpt lat="48.86366" lon="2.3422">
        <ele>46</ele>
        <time>2020-07-01T16:51:32Z</time>
      </trkpt>
      <trkpt lat="48.86362" lon="2.34217">
        <ele>46</ele>
        <time>2020-07-01T16:51:33Z</time>
      </trkpt>
      <trkpt lat="48.86359" lon="2.34214">
        <ele>46.1</ele>
        <time>2020-07-01T16:51:34Z</time>
      </trkpt>
      <trkpt lat="48.86355" lon="2.34213">
        <ele>46.1</ele>
        <time>2020-07-01T16:51:35Z</time>
      </trkpt>
      <trkpt lat="48.86352" lon="2.34211">
        <ele>46.1</ele>
        <time>2020-07-01T16:51:36Z</time>
      </trkpt>
      <trkpt lat="48.86349" lon="2.34208">
        <ele>46.1</ele>
        <time>2020-07-01T16:51:37Z</time>
      </trkpt>
      <trkpt lat="48.86346" lon="2.34207">
        <ele>46.1</ele>
        <time>2020-07-01T16:51:38Z</time>
      </trkpt>
      <trkpt lat="48.86343" lon="2.34206">
        <ele>46.1</ele>
        <time>2020-07-01T16:51:39Z</time>
      </trkpt>
      <trkpt lat="48.86341" lon="2.34205">
        <ele>46.2</ele>
        <time>2020-07-01T16:51:40Z</time>
      </trkpt>
      <trkpt lat="48.86338" lon="2.34203">
        <ele>46.2</ele>
        <time>2020-07-01T16:51:41Z</time>
      </trkpt>
      <trkpt lat="48.86335" lon="2.34201">
        <ele>46.2</ele>
        <time>2020-07-01T16:51:42Z</time>
      </trkpt>
      <trkpt lat="48.86332" lon="2.34199">
        <ele>46.2</ele>
        <time>2020-07-01T16:51:43Z</time>
      </trkpt>
      <trkpt lat="48.86329" lon="2.34197">
        <ele>46.3</ele>
        <time>2020-07-01T16:51:44Z</time>
      </trkpt>
      <trkpt lat="48.86327" lon="2.34194">
        <ele>46.3</ele>
        <time>2020-07-01T16:51:45Z</time>
      </trkpt>
      <trkpt lat="48.86324" lon="2.3419">
        <ele>46.3</ele>
        <time>2020-07-01T16:51:46Z</time>
      </trkpt>
      <trkpt lat="48.86322" lon="2.34186">
        <ele>46.3</ele>
        <time>2020-07-01T16:51:47Z</time>
      </trkpt>
      <trkpt lat="48.8632" lon="2.34182">
        <ele>46.3</ele>
        <time>2020-07-01T16:51:48Z</time>
      </trkpt>
      <trkpt lat="48.86318" lon="2.34177">
        <ele>45.9</ele>
        <time>2020-07-01T16:51:49Z</time>
      </trkpt>
      <trkpt lat="48.86318" lon="2.34172">
        <ele>45.9</ele>
        <time>2020-07-01T16:51:50Z</time>
      </trkpt>
      <trkpt lat="48.86317" lon="2.34171">
        <ele>45.9</ele>
        <time>2020-07-01T16:51:51Z</time>
      </trkpt>
      <trkpt lat="48.86316" lon="2.34166">
        <ele>45.9</ele>
        <time>2020-07-01T16:51:52Z</time>
      </trkpt>
      <trkpt lat="48.86315" lon="2.34165">
        <ele>45.9</ele>
        <time>2020-07-01T16:51:53Z</time>
      </trkpt>
      <trkpt lat="48.86313" lon="2.34161">
        <ele>45.9</ele>
        <time>2020-07-01T16:51:54Z</time>
      </trkpt>
      <trkpt lat="48.86312" lon="2.3416">
        <ele>45.9</ele>
        <time>2020-07-01T16:51:55Z</time>
      </trkpt>
      <trkpt lat="48.86311" lon="2.34158">
        <ele>45.8</ele>
        <time>2020-07-01T16:51:56Z</time>
      </trkpt>
      <trkpt lat="48.86311" lon="2.34157">
        <ele>45.8</ele>
        <time>2020-07-01T16:51:57Z</time>
      </trkpt>
      <trkpt lat="48.8631" lon="2.34156">
        <ele>45.7</ele>
        <time>2020-07-01T16:51:58Z</time>
      </trkpt>
      <trkpt lat="48.8631" lon="2.34155">
        <ele>45.7</ele>
        <time>2020-07-01T16:51:59Z</time>
      </trkpt>
      <trkpt lat="48.86308" lon="2.34155">
        <ele>45.7</ele>
        <time>2020-07-01T16:52:00Z</time>
      </trkpt>
      <trkpt lat="48.86308" lon="2.34153">
        <ele>45.7</ele>
        <time>2020-07-01T16:52:01Z</time>
      </trkpt>
      <trkpt lat="48.86305" lon="2.3415">
        <ele>45.6</ele>
        <time>2020-07-01T16:52:02Z</time>
      </trkpt>
      <trkpt lat="48.86304" lon="2.34148">
        <ele>45.6</ele>
        <time>2020-07-01T16:52:03Z</time>
      </trkpt>
      <trkpt lat="48.86301" lon="2.34144">
        <ele>45.5</ele>
        <time>2020-07-01T16:52:04Z</time>
      </trkpt>
      <trkpt lat="48.86299" lon="2.34141">
        <ele>45.5</ele>
        <time>2020-07-01T16:52:05Z</time>
      </trkpt>
      <trkpt lat="48.86298" lon="2.34136">
        <ele>45.4</ele>
        <time>2020-07-01T16:52:06Z</time>
      </trkpt>
      <trkpt lat="48.86297" lon="2.34131">
        <ele>45.3</ele>
        <time>2020-07-01T16:52:07Z</time>
      </trkpt>
      <trkpt lat="48.86295" lon="2.34126">
        <ele>45.3</ele>
        <time>2020-07-01T16:52:08Z</time>
      </trkpt>
      <trkpt lat="48.86293" lon="2.34121">
        <ele>45.2</ele>
        <time>2020-07-01T16:52:09Z</time>
      </trkpt>
      <trkpt lat="48.86291" lon="2.34115">
        <ele>45.2</ele>
        <time>2020-07-01T16:52:10Z</time>
      </trkpt>
      <trkpt lat="48.8629" lon="2.34109">
        <ele>45.1</ele>
        <time>2020-07-01T16:52:11Z</time>
      </trkpt>
      <trkpt lat="48.86288" lon="2.34104">
        <ele>45.1</ele>
        <time>2020-07-01T16:52:12Z</time>
      </trkpt>
      <trkpt lat="48.86287" lon="2.341">
        <ele>45</ele>
        <time>2020-07-01T16:52:13Z</time>
      </trkpt>
      <trkpt lat="48.86285" lon="2.34095">
        <ele>45</ele>
        <time>2020-07-01T16:52:14Z</time>
      </trkpt>
      <trkpt lat="48.86283" lon="2.3409">
        <ele>44.9</ele>
        <time>2020-07-01T16:52:15Z</time>
      </trkpt>
      <trkpt lat="48.8628" lon="2.34086">
        <ele>44.9</ele>
        <time>2020-07-01T16:52:16Z</time>
      </trkpt>
      <trkpt lat="48.86277" lon="2.34082">
        <ele>44.8</ele>
        <time>2020-07-01T16:52:17Z</time>
      </trkpt>
      <trkpt lat="48.86276" lon="2.34081">
        <ele>44.8</ele>
        <time>2020-07-01T16:52:18Z</time>
      </trkpt>
      <trkpt lat="48.86273" lon="2.34077">
        <ele>44.7</ele>
        <time>2020-07-01T16:52:19Z</time>
      </trkpt>
      <trkpt lat="48.86272" lon="2.34076">
        <ele>44.7</ele>
        <time>2020-07-01T16:52:20Z</time>
      </trkpt>
      <trkpt lat="48.86269" lon="2.34072">
        <ele>44.7</ele>
        <time>2020-07-01T16:52:21Z</time>
      </trkpt>
      <trkpt lat="48.86267" lon="2.34069">
        <ele>44.6</ele>
        <time>2020-07-01T16:52:22Z</time>
      </trkpt>
      <trkpt lat="48.86265" lon="2.34065">
        <ele>44.6</ele>
        <time>2020-07-01T16:52:23Z</time>
      </trkpt>
      <trkpt lat="48.86263" lon="2.34061">
        <ele>44.6</ele>
        <time>2020-07-01T16:52:24Z</time>
      </trkpt>
      <trkpt lat="48.86261" lon="2.34058">
        <ele>44.5</ele>
        <time>2020-07-01T16:52:25Z</time>
      </trkpt>
      <trkpt lat="48.86258" lon="2.34054">
        <ele>44.5</ele>
        <time>2020-07-01T16:52:26Z</time>
      </trkpt>
      <trkpt lat="48.86256" lon="2.34049">
        <ele>44.4</ele>
        <time>2020-07-01T16:52:27Z</time>
      </trkpt>
      <trkpt lat="48.86254" lon="2.34044">
        <ele>44.4</ele>
        <time>2020-07-01T16:52:28Z</time>
      </trkpt>
      <trkpt lat="48.86252" lon="2.3404">
        <ele>44.3</ele>
        <time>2020-07-01T16:52:29Z</time>
      </trkpt>
      <trkpt lat="48.8625" lon="2.34035">
        <ele>44.3</ele>
        <time>2020-07-01T16:52:30Z</time>
      </trkpt>
      <trkpt lat="48.86248" lon="2.3403">
        <ele>44.2</ele>
        <time>2020-07-01T16:52:31Z</time>
      </trkpt>
      <trkpt lat="48.86245" lon="2.34024">
        <ele>44.2</ele>
        <time>2020-07-01T16:52:32Z</time>
      </trkpt>
      <trkpt lat="48.86243" lon="2.34019">
        <ele>44.2</ele>
        <time>2020-07-01T16:52:33Z</time>
      </trkpt>
      <trkpt lat="48.86241" lon="2.34014">
        <ele>44.1</ele>
        <time>2020-07-01T16:52:34Z</time>
      </trkpt>
      <trkpt lat="48.8624" lon="2.34008">
        <ele>44.1</ele>
        <time>2020-07-01T16:52:35Z</time>
      </trkpt>
      <trkpt lat="48.86237" lon="2.34002">
        <ele>44.1</ele>
        <time>2020-07-01T16:52:36Z</time>
      </trkpt>
      <trkpt lat="48.86236" lon="2.33996">
        <ele>44.1</ele>
        <time>2020-07-01T16:52:37Z</time>
      </trkpt>
      <trkpt lat="48.86231" lon="2.33988">
        <ele>44</ele>
        <time>2020-07-01T16:52:38Z</time>
      </trkpt>
      <trkpt lat="48.86229" lon="2.33982">
        <ele>44</ele>
        <time>2020-07-01T16:52:39Z</time>
      </trkpt>
      <trkpt lat="48.86225" lon="2.3398">
        <ele>44</ele>
        <time>2020-07-01T16:52:40Z</time>
      </trkpt>
      <trkpt lat="48.86222" lon="2.33975">
        <ele>44</ele>
        <time>2020-07-01T16:52:41Z</time>
      </trkpt>
      <trkpt lat="48.86221" lon="2.33971">
        <ele>44</ele>
        <time>2020-07-01T16:52:42Z</time>
      </trkpt>
      <trkpt lat="48.8622" lon="2.33967">
        <ele>44.1</ele>
        <time>2020-07-01T16:52:43Z</time>
      </trkpt>
      <trkpt lat="48.86219" lon="2.33962">
        <ele>44.1</ele>
        <time>2020-07-01T16:52:44Z</time>
      </trkpt>
      <trkpt lat="48.86218" lon="2.33961">
        <ele>43.7</ele>
        <time>2020-07-01T16:52:45Z</time>
      </trkpt>
      <trkpt lat="48.86218" lon="2.33955">
        <ele>43.7</ele>
        <time>2020-07-01T16:52:46Z</time>
      </trkpt>
      <trkpt lat="48.86219" lon="2.33953">
        <ele>43.7</ele>
        <time>2020-07-01T16:52:47Z</time>
      </trkpt>
      <trkpt lat="48.86219" lon="2.33947">
        <ele>43.6</ele>
        <time>2020-07-01T16:52:48Z</time>
      </trkpt>
      <trkpt lat="48.86218" lon="2.33945">
        <ele>43.6</ele>
        <time>2020-07-01T16:52:49Z</time>
      </trkpt>
      <trkpt lat="48.86216" lon="2.3394">
        <ele>43.5</ele>
        <time>2020-07-01T16:52:50Z</time>
      </trkpt>
      <trkpt lat="48.86215" lon="2.33938">
        <ele>43.5</ele>
        <time>2020-07-01T16:52:51Z</time>
      </trkpt>
      <trkpt lat="48.86212" lon="2.33937">
        <ele>43.4</ele>
        <time>2020-07-01T16:52:52Z</time>
      </trkpt>
      <trkpt lat="48.86209" lon="2.33936">
        <ele>43.4</ele>
        <time>2020-07-01T16:52:53Z</time>
      </trkpt>
      <trkpt lat="48.86205" lon="2.33935">
        <ele>43.4</ele>
        <time>2020-07-01T16:52:54Z</time>
      </trkpt>
      <trkpt lat="48.86204" lon="2.33934">
        <ele>43.3</ele>
        <time>2020-07-01T16:52:55Z</time>
      </trkpt>
      <trkpt lat="48.86202" lon="2.33932">
        <ele>43.3</ele>
        <time>2020-07-01T16:52:56Z</time>
      </trkpt>
      <trkpt lat="48.86199" lon="2.3393">
        <ele>43.3</ele>
        <time>2020-07-01T16:52:57Z</time>
      </trkpt>
      <trkpt lat="48.86198" lon="2.3393">
        <ele>43.3</ele>
        <time>2020-07-01T16:52:58Z</time>
      </trkpt>
      <trkpt lat="48.86194" lon="2.33928">
        <ele>43.1</ele>
        <time>2020-07-01T16:52:59Z</time>
      </trkpt>
      <trkpt lat="48.86193" lon="2.33927">
        <ele>43.1</ele>
        <time>2020-07-01T16:53:00Z</time>
      </trkpt>
      <trkpt lat="48.8619" lon="2.33926">
        <ele>43</ele>
        <time>2020-07-01T16:53:01Z</time>
      </trkpt>
      <trkpt lat="48.86187" lon="2.33924">
        <ele>42.9</ele>
        <time>2020-07-01T16:53:02Z</time>
      </trkpt>
      <trkpt lat="48.86184" lon="2.33923">
        <ele>42.8</ele>
        <time>2020-07-01T16:53:03Z</time>
      </trkpt>
      <trkpt lat="48.86181" lon="2.33921">
        <ele>42.7</ele>
        <time>2020-07-01T16:53:04Z</time>
      </trkpt>
      <trkpt lat="48.8618" lon="2.3392">
        <ele>42.7</ele>
        <time>2020-07-01T16:53:05Z</time>
      </trkpt>
      <trkpt lat="48.86178" lon="2.33919">
        <ele>42.6</ele>
        <time>2020-07-01T16:53:06Z</time>
      </trkpt>
      <trkpt lat="48.86177" lon="2.33919">
        <ele>42.6</ele>
        <time>2020-07-01T16:53:07Z</time>
      </trkpt>
      <trkpt lat="48.86173" lon="2.33918">
        <ele>42.5</ele>
        <time>2020-07-01T16:53:08Z</time>
      </trkpt>
      <trkpt lat="48.86171" lon="2.33918">
        <ele>42.4</ele>
        <time>2020-07-01T16:53:09Z</time>
      </trkpt>
      <trkpt lat="48.86169" lon="2.33914">
        <ele>42.3</ele>
        <time>2020-07-01T16:53:10Z</time>
      </trkpt>
      <trkpt lat="48.86168" lon="2.33909">
        <ele>42.2</ele>
        <time>2020-07-01T16:53:11Z</time>
      </trkpt>
      <trkpt lat="48.86167" lon="2.33904">
        <ele>42.1</ele>
        <time>2020-07-01T16:53:12Z</time>
      </trkpt>
      <trkpt lat="48.86167" lon="2.33903">
        <ele>42.1</ele>
        <time>2020-07-01T16:53:13Z</time>
      </trkpt>
      <trkpt lat="48.86167" lon="2.33902">
        <ele>42.1</ele>
        <time>2020-07-01T16:53:14Z</time>
      </trkpt>
      <trkpt lat="48.86166" lon="2.33902">
        <ele>42</ele>
        <time>2020-07-01T16:53:15Z</time>
      </trkpt>
      <trkpt lat="48.86166" lon="2.33902">
        <ele>42</ele>
        <time>2020-07-01T16:53:16Z</time>
      </trkpt>
      <trkpt lat="48.86166" lon="2.33901">
        <ele>42</ele>
        <time>2020-07-01T16:53:17Z</time>
      </trkpt>
      <trkpt lat="48.86166" lon="2.33902">
        <ele>42</ele>
        <time>2020-07-01T16:53:18Z</time>
      </trkpt>
      <trkpt lat="48.86166" lon="2.33901">
        <ele>42</ele>
        <time>2020-07-01T16:53:19Z</time>
      </trkpt>
      <trkpt lat="48.86166" lon="2.33901">
        <ele>42</ele>
        <time>2020-07-01T16:53:20Z</time>
      </trkpt>
      <trkpt lat="48.86166" lon="2.33901">
        <ele>42</ele>
        <time>2020-07-01T16:53:21Z</time>
      </trkpt>
      <trkpt lat="48.86166" lon="2.33901">
        <ele>42</ele>
        <time>2020-07-01T16:53:22Z</time>
      </trkpt>
      <trkpt lat="48.86166" lon="2.33901">
        <ele>42</ele>
        <time>2020-07-01T16:53:23Z</time>
      </trkpt>
      <trkpt lat="48.86166" lon="2.33901">
        <ele>42</ele>
        <time>2020-07-01T16:53:24Z</time>
      </trkpt>
      <trkpt lat="48.86166" lon="2.33901">
        <ele>42</ele>
        <time>2020-07-01T16:53:25Z</time>
      </trkpt>
      <trkpt lat="48.86166" lon="2.33901">
        <ele>42</ele>
        <time>2020-07-01T16:53:26Z</time>
      </trkpt>
      <trkpt lat="48.86157" lon="2.33892">
        <ele>41.6</ele>
        <time>2020-07-01T16:54:02Z</time>
      </trkpt>
      <trkpt lat="48.86158" lon="2.33888">
        <ele>41.6</ele>
        <time>2020-07-01T16:54:03Z</time>
      </trkpt>
      <trkpt lat="48.8616" lon="2.33882">
        <ele>41.6</ele>
        <time>2020-07-01T16:54:04Z</time>
      </trkpt>
      <trkpt lat="48.8616" lon="2.3388">
        <ele>41.6</ele>
        <time>2020-07-01T16:54:05Z</time>
      </trkpt>
      <trkpt lat="48.86162" lon="2.33876">
        <ele>41.6</ele>
        <time>2020-07-01T16:54:06Z</time>
      </trkpt>
      <trkpt lat="48.86164" lon="2.3387">
        <ele>41.6</ele>
        <time>2020-07-01T16:54:07Z</time>
      </trkpt>
      <trkpt lat="48.86166" lon="2.33863">
        <ele>41.5</ele>
        <time>2020-07-01T16:54:08Z</time>
      </trkpt>
      <trkpt lat="48.86168" lon="2.33856">
        <ele>41.5</ele>
        <time>2020-07-01T16:54:09Z</time>
      </trkpt>
      <trkpt lat="48.86169" lon="2.33847">
        <ele>41.5</ele>
        <time>2020-07-01T16:54:10Z</time>
      </trkpt>
      <trkpt lat="48.86172" lon="2.33839">
        <ele>41.4</ele>
        <time>2020-07-01T16:54:11Z</time>
      </trkpt>
      <trkpt lat="48.86174" lon="2.3383">
        <ele>41.4</ele>
        <time>2020-07-01T16:54:12Z</time>
      </trkpt>
      <trkpt lat="48.86177" lon="2.33819">
        <ele>41.3</ele>
        <time>2020-07-01T16:54:13Z</time>
      </trkpt>
      <trkpt lat="48.8618" lon="2.3381">
        <ele>41.2</ele>
        <time>2020-07-01T16:54:14Z</time>
      </trkpt>
      <trkpt lat="48.86183" lon="2.33801">
        <ele>41.2</ele>
        <time>2020-07-01T16:54:15Z</time>
      </trkpt>
      <trkpt lat="48.86186" lon="2.33792">
        <ele>41.1</ele>
        <time>2020-07-01T16:54:16Z</time>
      </trkpt>
      <trkpt lat="48.8619" lon="2.33782">
        <ele>41.1</ele>
        <time>2020-07-01T16:54:17Z</time>
      </trkpt>
      <trkpt lat="48.86193" lon="2.33773">
        <ele>41.1</ele>
        <time>2020-07-01T16:54:18Z</time>
      </trkpt>
      <trkpt lat="48.86195" lon="2.3376">
        <ele>41</ele>
        <time>2020-07-01T16:54:19Z</time>
      </trkpt>
      <trkpt lat="48.86198" lon="2.33749">
        <ele>41</ele>
        <time>2020-07-01T16:54:20Z</time>
      </trkpt>
      <trkpt lat="48.86202" lon="2.33741">
        <ele>40.9</ele>
        <time>2020-07-01T16:54:21Z</time>
      </trkpt>
      <trkpt lat="48.86205" lon="2.3373">
        <ele>40.9</ele>
        <time>2020-07-01T16:54:22Z</time>
      </trkpt>
      <trkpt lat="48.86209" lon="2.3372">
        <ele>40.9</ele>
        <time>2020-07-01T16:54:23Z</time>
      </trkpt>
      <trkpt lat="48.86213" lon="2.3371">
        <ele>40.8</ele>
        <time>2020-07-01T16:54:24Z</time>
      </trkpt>
      <trkpt lat="48.86216" lon="2.33701">
        <ele>40.8</ele>
        <time>2020-07-01T16:54:25Z</time>
      </trkpt>
      <trkpt lat="48.86219" lon="2.33692">
        <ele>40.8</ele>
        <time>2020-07-01T16:54:26Z</time>
      </trkpt>
      <trkpt lat="48.86221" lon="2.33683">
        <ele>40.8</ele>
        <time>2020-07-01T16:54:27Z</time>
      </trkpt>
      <trkpt lat="48.86224" lon="2.33679">
        <ele>40.8</ele>
        <time>2020-07-01T16:54:28Z</time>
      </trkpt>
      <trkpt lat="48.86229" lon="2.33678">
        <ele>40.8</ele>
        <time>2020-07-01T16:54:29Z</time>
      </trkpt>
      <trkpt lat="48.86231" lon="2.33674">
        <ele>40.8</ele>
        <time>2020-07-01T16:54:30Z</time>
      </trkpt>
      <trkpt lat="48.86233" lon="2.33668">
        <ele>40.8</ele>
        <time>2020-07-01T16:54:31Z</time>
      </trkpt>
      <trkpt lat="48.86236" lon="2.33662">
        <ele>40.8</ele>
        <time>2020-07-01T16:54:32Z</time>
      </trkpt>
      <trkpt lat="48.86237" lon="2.33658">
        <ele>40.8</ele>
        <time>2020-07-01T16:54:33Z</time>
      </trkpt>
      <trkpt lat="48.86239" lon="2.33652">
        <ele>40.8</ele>
        <time>2020-07-01T16:54:34Z</time>
      </trkpt>
      <trkpt lat="48.86245" lon="2.33646">
        <ele>40.8</ele>
        <time>2020-07-01T16:54:35Z</time>
      </trkpt>
      <trkpt lat="48.86248" lon="2.33639">
        <ele>40.8</ele>
        <time>2020-07-01T16:54:36Z</time>
      </trkpt>
      <trkpt lat="48.8625" lon="2.33632">
        <ele>40.8</ele>
        <time>2020-07-01T16:54:37Z</time>
      </trkpt>
      <trkpt lat="48.86252" lon="2.33625">
        <ele>40.8</ele>
        <time>2020-07-01T16:54:38Z</time>
      </trkpt>
      <trkpt lat="48.86254" lon="2.33619">
        <ele>40.9</ele>
        <time>2020-07-01T16:54:39Z</time>
      </trkpt>
      <trkpt lat="48.86256" lon="2.33613">
        <ele>40.9</ele>
        <time>2020-07-01T16:54:40Z</time>
      </trkpt>
      <trkpt lat="48.8626" lon="2.33605">
        <ele>41</ele>
        <time>2020-07-01T16:54:41Z</time>
      </trkpt>
      <trkpt lat="48.86263" lon="2.33595">
        <ele>41.1</ele>
        <time>2020-07-01T16:54:42Z</time>
      </trkpt>
      <trkpt lat="48.86266" lon="2.33587">
        <ele>41.2</ele>
        <time>2020-07-01T16:54:43Z</time>
      </trkpt>
      <trkpt lat="48.86268" lon="2.33579">
        <ele>41.2</ele>
        <time>2020-07-01T16:54:44Z</time>
      </trkpt>
      <trkpt lat="48.8627" lon="2.33572">
        <ele>41.3</ele>
        <time>2020-07-01T16:54:45Z</time>
      </trkpt>
      <trkpt lat="48.86269" lon="2.33567">
        <ele>41.3</ele>
        <time>2020-07-01T16:54:46Z</time>
      </trkpt>
      <trkpt lat="48.8627" lon="2.33562">
        <ele>41.4</ele>
        <time>2020-07-01T16:54:47Z</time>
      </trkpt>
      <trkpt lat="48.86271" lon="2.33556">
        <ele>41.4</ele>
        <time>2020-07-01T16:54:48Z</time>
      </trkpt>
      <trkpt lat="48.86271" lon="2.33551">
        <ele>41.5</ele>
        <time>2020-07-01T16:54:49Z</time>
      </trkpt>
      <trkpt lat="48.86271" lon="2.33549">
        <ele>41.5</ele>
        <time>2020-07-01T16:54:50Z</time>
      </trkpt>
      <trkpt lat="48.86272" lon="2.33546">
        <ele>41.5</ele>
        <time>2020-07-01T16:54:51Z</time>
      </trkpt>
      <trkpt lat="48.86271" lon="2.33544">
        <ele>41.6</ele>
        <time>2020-07-01T16:54:52Z</time>
      </trkpt>
      <trkpt lat="48.86271" lon="2.33542">
        <ele>41.6</ele>
        <time>2020-07-01T16:54:53Z</time>
      </trkpt>
      <trkpt lat="48.86271" lon="2.3354">
        <ele>41.6</ele>
        <time>2020-07-01T16:54:54Z</time>
      </trkpt>
      <trkpt lat="48.86274" lon="2.33537">
        <ele>41.6</ele>
        <time>2020-07-01T16:54:55Z</time>
      </trkpt>
      <trkpt lat="48.86274" lon="2.33535">
        <ele>41.7</ele>
        <time>2020-07-01T16:54:56Z</time>
      </trkpt>
      <trkpt lat="48.86273" lon="2.33535">
        <ele>41.7</ele>
        <time>2020-07-01T16:54:57Z</time>
      </trkpt>
      <trkpt lat="48.86273" lon="2.33535">
        <ele>41.7</ele>
        <time>2020-07-01T16:54:58Z</time>
      </trkpt>
      <trkpt lat="48.86273" lon="2.33535">
        <ele>41.7</ele>
        <time>2020-07-01T16:54:59Z</time>
      </trkpt>
      <trkpt lat="48.86272" lon="2.33535">
        <ele>41.7</ele>
        <time>2020-07-01T16:55:00Z</time>
      </trkpt>
      <trkpt lat="48.86273" lon="2.33535">
        <ele>41.7</ele>
        <time>2020-07-01T16:55:01Z</time>
      </trkpt>
      <trkpt lat="48.86273" lon="2.33534">
        <ele>41.7</ele>
        <time>2020-07-01T16:55:02Z</time>
      </trkpt>
      <trkpt lat="48.86274" lon="2.33534">
        <ele>41.7</ele>
        <time>2020-07-01T16:55:03Z</time>
      </trkpt>
      <trkpt lat="48.86274" lon="2.33533">
        <ele>41.7</ele>
        <time>2020-07-01T16:55:04Z</time>
      </trkpt>
      <trkpt lat="48.86274" lon="2.33533">
        <ele>41.7</ele>
        <time>2020-07-01T16:55:05Z</time>
      </trkpt>
      <trkpt lat="48.86274" lon="2.33533">
        <ele>41.7</ele>
        <time>2020-07-01T16:55:06Z</time>
      </trkpt>
      <trkpt lat="48.86274" lon="2.33532">
        <ele>41.7</ele>
        <time>2020-07-01T16:55:07Z</time>
      </trkpt>
      <trkpt lat="48.86274" lon="2.33532">
        <ele>43.2</ele>
        <time>2020-07-01T16:55:08Z</time>
      </trkpt>
      <trkpt lat="48.86272" lon="2.33522">
        <ele>43.4</ele>
        <time>2020-07-01T16:55:29Z</time>
      </trkpt>
      <trkpt lat="48.86272" lon="2.3352">
        <ele>43.5</ele>
        <time>2020-07-01T16:55:30Z</time>
      </trkpt>
      <trkpt lat="48.86273" lon="2.33515">
        <ele>43.5</ele>
        <time>2020-07-01T16:55:31Z</time>
      </trkpt>
      <trkpt lat="48.86273" lon="2.33513">
        <ele>43.6</ele>
        <time>2020-07-01T16:55:32Z</time>
      </trkpt>
      <trkpt lat="48.86275" lon="2.33504">
        <ele>43.5</ele>
        <time>2020-07-01T16:55:33Z</time>
      </trkpt>
      <trkpt lat="48.86278" lon="2.33494">
        <ele>43.3</ele>
        <time>2020-07-01T16:55:34Z</time>
      </trkpt>
      <trkpt lat="48.86279" lon="2.33484">
        <ele>43.3</ele>
        <time>2020-07-01T16:55:35Z</time>
      </trkpt>
      <trkpt lat="48.86283" lon="2.33473">
        <ele>43.2</ele>
        <time>2020-07-01T16:55:36Z</time>
      </trkpt>
      <trkpt lat="48.86285" lon="2.33462">
        <ele>43.1</ele>
        <time>2020-07-01T16:55:37Z</time>
      </trkpt>
      <trkpt lat="48.86287" lon="2.3345">
        <ele>43.1</ele>
        <time>2020-07-01T16:55:38Z</time>
      </trkpt>
      <trkpt lat="48.86291" lon="2.33438">
        <ele>43.1</ele>
        <time>2020-07-01T16:55:39Z</time>
      </trkpt>
      <trkpt lat="48.86294" lon="2.33425">
        <ele>43</ele>
        <time>2020-07-01T16:55:40Z</time>
      </trkpt>
      <trkpt lat="48.86298" lon="2.33412">
        <ele>43</ele>
        <time>2020-07-01T16:55:41Z</time>
      </trkpt>
      <trkpt lat="48.86302" lon="2.334">
        <ele>42.9</ele>
        <time>2020-07-01T16:55:42Z</time>
      </trkpt>
      <trkpt lat="48.86306" lon="2.33388">
        <ele>42.8</ele>
        <time>2020-07-01T16:55:43Z</time>
      </trkpt>
      <trkpt lat="48.86311" lon="2.33379">
        <ele>42.8</ele>
        <time>2020-07-01T16:55:44Z</time>
      </trkpt>
      <trkpt lat="48.86314" lon="2.33368">
        <ele>42.7</ele>
        <time>2020-07-01T16:55:45Z</time>
      </trkpt>
      <trkpt lat="48.86322" lon="2.33363">
        <ele>42.7</ele>
        <time>2020-07-01T16:55:46Z</time>
      </trkpt>
      <trkpt lat="48.86326" lon="2.33351">
        <ele>42.7</ele>
        <time>2020-07-01T16:55:47Z</time>
      </trkpt>
      <trkpt lat="48.86329" lon="2.33338">
        <ele>42.6</ele>
        <time>2020-07-01T16:55:48Z</time>
      </trkpt>
      <trkpt lat="48.86331" lon="2.33327">
        <ele>42.6</ele>
        <time>2020-07-01T16:55:49Z</time>
      </trkpt>
      <trkpt lat="48.86334" lon="2.33315">
        <ele>42.6</ele>
        <time>2020-07-01T16:55:50Z</time>
      </trkpt>
      <trkpt lat="48.86336" lon="2.33304">
        <ele>42.6</ele>
        <time>2020-07-01T16:55:51Z</time>
      </trkpt>
      <trkpt lat="48.86339" lon="2.33291">
        <ele>42.5</ele>
        <time>2020-07-01T16:55:52Z</time>
      </trkpt>
      <trkpt lat="48.86342" lon="2.33278">
        <ele>42.5</ele>
        <time>2020-07-01T16:55:53Z</time>
      </trkpt>
      <trkpt lat="48.86345" lon="2.33266">
        <ele>42.5</ele>
        <time>2020-07-01T16:55:54Z</time>
      </trkpt>
      <trkpt lat="48.86348" lon="2.33256">
        <ele>42.5</ele>
        <time>2020-07-01T16:55:55Z</time>
      </trkpt>
      <trkpt lat="48.86351" lon="2.33248">
        <ele>42.5</ele>
        <time>2020-07-01T16:55:56Z</time>
      </trkpt>
      <trkpt lat="48.86353" lon="2.33241">
        <ele>42.5</ele>
        <time>2020-07-01T16:55:57Z</time>
      </trkpt>
      <trkpt lat="48.86356" lon="2.33232">
        <ele>42.6</ele>
        <time>2020-07-01T16:55:58Z</time>
      </trkpt>
      <trkpt lat="48.8636" lon="2.33224">
        <ele>42.7</ele>
        <time>2020-07-01T16:55:59Z</time>
      </trkpt>
      <trkpt lat="48.86362" lon="2.33214">
        <ele>42.5</ele>
        <time>2020-07-01T16:56:00Z</time>
      </trkpt>
      <trkpt lat="48.86365" lon="2.33206">
        <ele>42.5</ele>
        <time>2020-07-01T16:56:01Z</time>
      </trkpt>
      <trkpt lat="48.86369" lon="2.33199">
        <ele>42.4</ele>
        <time>2020-07-01T16:56:02Z</time>
      </trkpt>
      <trkpt lat="48.86372" lon="2.33192">
        <ele>42.3</ele>
        <time>2020-07-01T16:56:03Z</time>
      </trkpt>
      <trkpt lat="48.86377" lon="2.33185">
        <ele>42.2</ele>
        <time>2020-07-01T16:56:04Z</time>
      </trkpt>
      <trkpt lat="48.86382" lon="2.33179">
        <ele>42.1</ele>
        <time>2020-07-01T16:56:05Z</time>
      </trkpt>
      <trkpt lat="48.86384" lon="2.33172">
        <ele>42</ele>
        <time>2020-07-01T16:56:06Z</time>
      </trkpt>
      <trkpt lat="48.86386" lon="2.33165">
        <ele>41.9</ele>
        <time>2020-07-01T16:56:07Z</time>
      </trkpt>
      <trkpt lat="48.8639" lon="2.33155">
        <ele>41.8</ele>
        <time>2020-07-01T16:56:08Z</time>
      </trkpt>
      <trkpt lat="48.86393" lon="2.33145">
        <ele>41.8</ele>
        <time>2020-07-01T16:56:09Z</time>
      </trkpt>
      <trkpt lat="48.86397" lon="2.33137">
        <ele>41.8</ele>
        <time>2020-07-01T16:56:10Z</time>
      </trkpt>
      <trkpt lat="48.864" lon="2.33129">
        <ele>41.8</ele>
        <time>2020-07-01T16:56:11Z</time>
      </trkpt>
      <trkpt lat="48.86402" lon="2.33119">
        <ele>41.8</ele>
        <time>2020-07-01T16:56:12Z</time>
      </trkpt>
      <trkpt lat="48.86405" lon="2.33109">
        <ele>41.8</ele>
        <time>2020-07-01T16:56:13Z</time>
      </trkpt>
      <trkpt lat="48.86408" lon="2.331">
        <ele>41.8</ele>
        <time>2020-07-01T16:56:14Z</time>
      </trkpt>
      <trkpt lat="48.86411" lon="2.33091">
        <ele>41.8</ele>
        <time>2020-07-01T16:56:15Z</time>
      </trkpt>
      <trkpt lat="48.86414" lon="2.3308">
        <ele>41.8</ele>
        <time>2020-07-01T16:56:16Z</time>
      </trkpt>
      <trkpt lat="48.86417" lon="2.3307">
        <ele>41.8</ele>
        <time>2020-07-01T16:56:17Z</time>
      </trkpt>
      <trkpt lat="48.86421" lon="2.33061">
        <ele>41.8</ele>
        <time>2020-07-01T16:56:18Z</time>
      </trkpt>
      <trkpt lat="48.86423" lon="2.3305">
        <ele>41.7</ele>
        <time>2020-07-01T16:56:19Z</time>
      </trkpt>
      <trkpt lat="48.86423" lon="2.33038">
        <ele>41.8</ele>
        <time>2020-07-01T16:56:20Z</time>
      </trkpt>
      <trkpt lat="48.86425" lon="2.33026">
        <ele>41.8</ele>
        <time>2020-07-01T16:56:21Z</time>
      </trkpt>
      <trkpt lat="48.86427" lon="2.33016">
        <ele>41.8</ele>
        <time>2020-07-01T16:56:22Z</time>
      </trkpt>
      <trkpt lat="48.8643" lon="2.33004">
        <ele>41.9</ele>
        <time>2020-07-01T16:56:23Z</time>
      </trkpt>
      <trkpt lat="48.86432" lon="2.32994">
        <ele>41.8</ele>
        <time>2020-07-01T16:56:24Z</time>
      </trkpt>
      <trkpt lat="48.86435" lon="2.32986">
        <ele>41.8</ele>
        <time>2020-07-01T16:56:25Z</time>
      </trkpt>
      <trkpt lat="48.86438" lon="2.32978">
        <ele>41.7</ele>
        <time>2020-07-01T16:56:26Z</time>
      </trkpt>
      <trkpt lat="48.86441" lon="2.32968">
        <ele>41.7</ele>
        <time>2020-07-01T16:56:27Z</time>
      </trkpt>
      <trkpt lat="48.86444" lon="2.32959">
        <ele>41.7</ele>
        <time>2020-07-01T16:56:28Z</time>
      </trkpt>
      <trkpt lat="48.86447" lon="2.32948">
        <ele>41.6</ele>
        <time>2020-07-01T16:56:29Z</time>
      </trkpt>
      <trkpt lat="48.86451" lon="2.32938">
        <ele>41.6</ele>
        <time>2020-07-01T16:56:30Z</time>
      </trkpt>
      <trkpt lat="48.86455" lon="2.32928">
        <ele>41.5</ele>
        <time>2020-07-01T16:56:31Z</time>
      </trkpt>
      <trkpt lat="48.86458" lon="2.32919">
        <ele>41.5</ele>
        <time>2020-07-01T16:56:32Z</time>
      </trkpt>
      <trkpt lat="48.86464" lon="2.32912">
        <ele>41.5</ele>
        <time>2020-07-01T16:56:33Z</time>
      </trkpt>
      <trkpt lat="48.86469" lon="2.32901">
        <ele>41.5</ele>
        <time>2020-07-01T16:56:34Z</time>
      </trkpt>
      <trkpt lat="48.86473" lon="2.32891">
        <ele>41.4</ele>
        <time>2020-07-01T16:56:35Z</time>
      </trkpt>
      <trkpt lat="48.86477" lon="2.32883">
        <ele>41.4</ele>
        <time>2020-07-01T16:56:36Z</time>
      </trkpt>
      <trkpt lat="48.86481" lon="2.32875">
        <ele>41.4</ele>
        <time>2020-07-01T16:56:37Z</time>
      </trkpt>
      <trkpt lat="48.86485" lon="2.32865">
        <ele>41.4</ele>
        <time>2020-07-01T16:56:38Z</time>
      </trkpt>
      <trkpt lat="48.86488" lon="2.32855">
        <ele>41.4</ele>
        <time>2020-07-01T16:56:39Z</time>
      </trkpt>
      <trkpt lat="48.86492" lon="2.32845">
        <ele>41.4</ele>
        <time>2020-07-01T16:56:40Z</time>
      </trkpt>
      <trkpt lat="48.86496" lon="2.32834">
        <ele>41.3</ele>
        <time>2020-07-01T16:56:41Z</time>
      </trkpt>
      <trkpt lat="48.86499" lon="2.32823">
        <ele>41.3</ele>
        <time>2020-07-01T16:56:42Z</time>
      </trkpt>
      <trkpt lat="48.86502" lon="2.32812">
        <ele>41.3</ele>
        <time>2020-07-01T16:56:43Z</time>
      </trkpt>
      <trkpt lat="48.86505" lon="2.32802">
        <ele>41.2</ele>
        <time>2020-07-01T16:56:44Z</time>
      </trkpt>
      <trkpt lat="48.86508" lon="2.32791">
        <ele>41.2</ele>
        <time>2020-07-01T16:56:45Z</time>
      </trkpt>
      <trkpt lat="48.86511" lon="2.32779">
        <ele>41.2</ele>
        <time>2020-07-01T16:56:46Z</time>
      </trkpt>
      <trkpt lat="48.86514" lon="2.32769">
        <ele>41.2</ele>
        <time>2020-07-01T16:56:47Z</time>
      </trkpt>
      <trkpt lat="48.86518" lon="2.3276">
        <ele>41.2</ele>
        <time>2020-07-01T16:56:48Z</time>
      </trkpt>
      <trkpt lat="48.86522" lon="2.3275">
        <ele>41.2</ele>
        <time>2020-07-01T16:56:49Z</time>
      </trkpt>
      <trkpt lat="48.86526" lon="2.3274">
        <ele>41.2</ele>
        <time>2020-07-01T16:56:50Z</time>
      </trkpt>
      <trkpt lat="48.86529" lon="2.32729">
        <ele>41.2</ele>
        <time>2020-07-01T16:56:51Z</time>
      </trkpt>
      <trkpt lat="48.86532" lon="2.32718">
        <ele>41.1</ele>
        <time>2020-07-01T16:56:52Z</time>
      </trkpt>
      <trkpt lat="48.86536" lon="2.32708">
        <ele>41.1</ele>
        <time>2020-07-01T16:56:53Z</time>
      </trkpt>
      <trkpt lat="48.8654" lon="2.32698">
        <ele>41.1</ele>
        <time>2020-07-01T16:56:54Z</time>
      </trkpt>
      <trkpt lat="48.86542" lon="2.32687">
        <ele>41</ele>
        <time>2020-07-01T16:56:55Z</time>
      </trkpt>
      <trkpt lat="48.86545" lon="2.32676">
        <ele>41</ele>
        <time>2020-07-01T16:56:56Z</time>
      </trkpt>
      <trkpt lat="48.86548" lon="2.32667">
        <ele>41</ele>
        <time>2020-07-01T16:56:57Z</time>
      </trkpt>
      <trkpt lat="48.86551" lon="2.32657">
        <ele>40.9</ele>
        <time>2020-07-01T16:56:58Z</time>
      </trkpt>
      <trkpt lat="48.86554" lon="2.32645">
        <ele>40.9</ele>
        <time>2020-07-01T16:56:59Z</time>
      </trkpt>
      <trkpt lat="48.86557" lon="2.32635">
        <ele>40.9</ele>
        <time>2020-07-01T16:57:00Z</time>
      </trkpt>
      <trkpt lat="48.86561" lon="2.32625">
        <ele>40.9</ele>
        <time>2020-07-01T16:57:01Z</time>
      </trkpt>
      <trkpt lat="48.86565" lon="2.32615">
        <ele>40.8</ele>
        <time>2020-07-01T16:57:02Z</time>
      </trkpt>
      <trkpt lat="48.86568" lon="2.32605">
        <ele>40.8</ele>
        <time>2020-07-01T16:57:03Z</time>
      </trkpt>
      <trkpt lat="48.86572" lon="2.32596">
        <ele>40.8</ele>
        <time>2020-07-01T16:57:04Z</time>
      </trkpt>
      <trkpt lat="48.86575" lon="2.32586">
        <ele>40.8</ele>
        <time>2020-07-01T16:57:05Z</time>
      </trkpt>
      <trkpt lat="48.86578" lon="2.32577">
        <ele>40.9</ele>
        <time>2020-07-01T16:57:06Z</time>
      </trkpt>
      <trkpt lat="48.86581" lon="2.32568">
        <ele>40.9</ele>
        <time>2020-07-01T16:57:07Z</time>
      </trkpt>
      <trkpt lat="48.86584" lon="2.32557">
        <ele>40.9</ele>
        <time>2020-07-01T16:57:08Z</time>
      </trkpt>
      <trkpt lat="48.86586" lon="2.32546">
        <ele>41</ele>
        <time>2020-07-01T16:57:09Z</time>
      </trkpt>
      <trkpt lat="48.86588" lon="2.32536">
        <ele>41</ele>
        <time>2020-07-01T16:57:10Z</time>
      </trkpt>
      <trkpt lat="48.86592" lon="2.32526">
        <ele>40.9</ele>
        <time>2020-07-01T16:57:11Z</time>
      </trkpt>
      <trkpt lat="48.86596" lon="2.32517">
        <ele>40.9</ele>
        <time>2020-07-01T16:57:12Z</time>
      </trkpt>
      <trkpt lat="48.866" lon="2.32509">
        <ele>40.9</ele>
        <time>2020-07-01T16:57:13Z</time>
      </trkpt>
      <trkpt lat="48.86603" lon="2.32501">
        <ele>40.9</ele>
        <time>2020-07-01T16:57:14Z</time>
      </trkpt>
      <trkpt lat="48.86605" lon="2.32493">
        <ele>40.9</ele>
        <time>2020-07-01T16:57:15Z</time>
      </trkpt>
      <trkpt lat="48.86608" lon="2.32486">
        <ele>40.8</ele>
        <time>2020-07-01T16:57:16Z</time>
      </trkpt>
      <trkpt lat="48.86611" lon="2.32477">
        <ele>40.8</ele>
        <time>2020-07-01T16:57:17Z</time>
      </trkpt>
      <trkpt lat="48.86614" lon="2.32466">
        <ele>40.8</ele>
        <time>2020-07-01T16:57:18Z</time>
      </trkpt>
      <trkpt lat="48.86617" lon="2.32457">
        <ele>40.8</ele>
        <time>2020-07-01T16:57:19Z</time>
      </trkpt>
      <trkpt lat="48.86621" lon="2.32447">
        <ele>40.7</ele>
        <time>2020-07-01T16:57:20Z</time>
      </trkpt>
      <trkpt lat="48.86623" lon="2.32439">
        <ele>40.7</ele>
        <time>2020-07-01T16:57:21Z</time>
      </trkpt>
      <trkpt lat="48.86626" lon="2.32431">
        <ele>40.7</ele>
        <time>2020-07-01T16:57:22Z</time>
      </trkpt>
      <trkpt lat="48.86628" lon="2.32423">
        <ele>40.7</ele>
        <time>2020-07-01T16:57:23Z</time>
      </trkpt>
      <trkpt lat="48.86631" lon="2.32415">
        <ele>40.7</ele>
        <time>2020-07-01T16:57:24Z</time>
      </trkpt>
      <trkpt lat="48.86633" lon="2.32406">
        <ele>40.7</ele>
        <time>2020-07-01T16:57:25Z</time>
      </trkpt>
      <trkpt lat="48.86635" lon="2.32398">
        <ele>40.7</ele>
        <time>2020-07-01T16:57:26Z</time>
      </trkpt>
      <trkpt lat="48.86636" lon="2.32391">
        <ele>40.6</ele>
        <time>2020-07-01T16:57:27Z</time>
      </trkpt>
      <trkpt lat="48.86638" lon="2.32383">
        <ele>40.6</ele>
        <time>2020-07-01T16:57:28Z</time>
      </trkpt>
      <trkpt lat="48.8664" lon="2.32376">
        <ele>40.6</ele>
        <time>2020-07-01T16:57:29Z</time>
      </trkpt>
      <trkpt lat="48.86642" lon="2.32369">
        <ele>40.6</ele>
        <time>2020-07-01T16:57:30Z</time>
      </trkpt>
      <trkpt lat="48.86644" lon="2.32361">
        <ele>40.7</ele>
        <time>2020-07-01T16:57:31Z</time>
      </trkpt>
      <trkpt lat="48.86644" lon="2.32353">
        <ele>40.7</ele>
        <time>2020-07-01T16:57:32Z</time>
      </trkpt>
      <trkpt lat="48.86643" lon="2.32344">
        <ele>40.9</ele>
        <time>2020-07-01T16:57:33Z</time>
      </trkpt>
      <trkpt lat="48.86643" lon="2.32337">
        <ele>40.8</ele>
        <time>2020-07-01T16:57:34Z</time>
      </trkpt>
      <trkpt lat="48.86643" lon="2.32328">
        <ele>40.8</ele>
        <time>2020-07-01T16:57:35Z</time>
      </trkpt>
      <trkpt lat="48.86643" lon="2.32319">
        <ele>40.8</ele>
        <time>2020-07-01T16:57:36Z</time>
      </trkpt>
      <trkpt lat="48.86644" lon="2.32311">
        <ele>40.8</ele>
        <time>2020-07-01T16:57:37Z</time>
      </trkpt>
      <trkpt lat="48.86644" lon="2.32302">
        <ele>40.8</ele>
        <time>2020-07-01T16:57:38Z</time>
      </trkpt>
      <trkpt lat="48.86645" lon="2.32293">
        <ele>40.8</ele>
        <time>2020-07-01T16:57:39Z</time>
      </trkpt>
      <trkpt lat="48.86646" lon="2.32285">
        <ele>40.8</ele>
        <time>2020-07-01T16:57:40Z</time>
      </trkpt>
      <trkpt lat="48.86647" lon="2.32277">
        <ele>40.8</ele>
        <time>2020-07-01T16:57:41Z</time>
      </trkpt>
      <trkpt lat="48.86649" lon="2.3227">
        <ele>40.7</ele>
        <time>2020-07-01T16:57:42Z</time>
      </trkpt>
      <trkpt lat="48.8665" lon="2.32263">
        <ele>40.7</ele>
        <time>2020-07-01T16:57:43Z</time>
      </trkpt>
      <trkpt lat="48.86652" lon="2.32257">
        <ele>40.7</ele>
        <time>2020-07-01T16:57:44Z</time>
      </trkpt>
      <trkpt lat="48.86653" lon="2.32251">
        <ele>40.7</ele>
        <time>2020-07-01T16:57:45Z</time>
      </trkpt>
      <trkpt lat="48.86654" lon="2.32246">
        <ele>40.7</ele>
        <time>2020-07-01T16:57:46Z</time>
      </trkpt>
      <trkpt lat="48.86655" lon="2.32242">
        <ele>40.7</ele>
        <time>2020-07-01T16:57:47Z</time>
      </trkpt>
      <trkpt lat="48.86656" lon="2.32238">
        <ele>40.7</ele>
        <time>2020-07-01T16:57:48Z</time>
      </trkpt>
      <trkpt lat="48.86657" lon="2.32234">
        <ele>40.7</ele>
        <time>2020-07-01T16:57:49Z</time>
      </trkpt>
      <trkpt lat="48.86656" lon="2.32228">
        <ele>40.7</ele>
        <time>2020-07-01T16:57:50Z</time>
      </trkpt>
      <trkpt lat="48.86654" lon="2.32225">
        <ele>40.7</ele>
        <time>2020-07-01T16:57:51Z</time>
      </trkpt>
      <trkpt lat="48.86653" lon="2.32224">
        <ele>40.7</ele>
        <time>2020-07-01T16:57:52Z</time>
      </trkpt>
      <trkpt lat="48.8665" lon="2.32222">
        <ele>40.7</ele>
        <time>2020-07-01T16:57:53Z</time>
      </trkpt>
      <trkpt lat="48.86648" lon="2.32219">
        <ele>40.7</ele>
        <time>2020-07-01T16:57:54Z</time>
      </trkpt>
      <trkpt lat="48.86645" lon="2.32217">
        <ele>40.6</ele>
        <time>2020-07-01T16:57:55Z</time>
      </trkpt>
      <trkpt lat="48.86644" lon="2.32216">
        <ele>40.6</ele>
        <time>2020-07-01T16:57:56Z</time>
      </trkpt>
      <trkpt lat="48.86642" lon="2.32213">
        <ele>40.5</ele>
        <time>2020-07-01T16:57:57Z</time>
      </trkpt>
      <trkpt lat="48.86641" lon="2.32212">
        <ele>40.5</ele>
        <time>2020-07-01T16:57:58Z</time>
      </trkpt>
      <trkpt lat="48.86639" lon="2.32208">
        <ele>40.4</ele>
        <time>2020-07-01T16:57:59Z</time>
      </trkpt>
      <trkpt lat="48.86639" lon="2.32207">
        <ele>40.4</ele>
        <time>2020-07-01T16:58:00Z</time>
      </trkpt>
      <trkpt lat="48.86638" lon="2.32205">
        <ele>40.3</ele>
        <time>2020-07-01T16:58:01Z</time>
      </trkpt>
      <trkpt lat="48.86637" lon="2.32204">
        <ele>40.3</ele>
        <time>2020-07-01T16:58:02Z</time>
      </trkpt>
      <trkpt lat="48.86637" lon="2.32203">
        <ele>40.3</ele>
        <time>2020-07-01T16:58:03Z</time>
      </trkpt>
      <trkpt lat="48.86636" lon="2.32203">
        <ele>40.2</ele>
        <time>2020-07-01T16:58:04Z</time>
      </trkpt>
      <trkpt lat="48.86635" lon="2.32202">
        <ele>40.2</ele>
        <time>2020-07-01T16:58:05Z</time>
      </trkpt>
      <trkpt lat="48.86634" lon="2.32201">
        <ele>40.2</ele>
        <time>2020-07-01T16:58:06Z</time>
      </trkpt>
      <trkpt lat="48.86633" lon="2.32197">
        <ele>40.1</ele>
        <time>2020-07-01T16:58:07Z</time>
      </trkpt>
      <trkpt lat="48.86632" lon="2.32196">
        <ele>40.1</ele>
        <time>2020-07-01T16:58:08Z</time>
      </trkpt>
      <trkpt lat="48.8663" lon="2.32192">
        <ele>40</ele>
        <time>2020-07-01T16:58:09Z</time>
      </trkpt>
      <trkpt lat="48.86629" lon="2.3219">
        <ele>39.9</ele>
        <time>2020-07-01T16:58:10Z</time>
      </trkpt>
      <trkpt lat="48.86628" lon="2.32185">
        <ele>39.8</ele>
        <time>2020-07-01T16:58:11Z</time>
      </trkpt>
      <trkpt lat="48.86628" lon="2.32183">
        <ele>39.8</ele>
        <time>2020-07-01T16:58:12Z</time>
      </trkpt>
      <trkpt lat="48.86626" lon="2.32179">
        <ele>39.7</ele>
        <time>2020-07-01T16:58:13Z</time>
      </trkpt>
      <trkpt lat="48.86625" lon="2.32174">
        <ele>39.7</ele>
        <time>2020-07-01T16:58:14Z</time>
      </trkpt>
      <trkpt lat="48.86624" lon="2.32168">
        <ele>39.6</ele>
        <time>2020-07-01T16:58:15Z</time>
      </trkpt>
      <trkpt lat="48.86622" lon="2.32162">
        <ele>39.5</ele>
        <time>2020-07-01T16:58:16Z</time>
      </trkpt>
      <trkpt lat="48.8662" lon="2.32157">
        <ele>39.4</ele>
        <time>2020-07-01T16:58:17Z</time>
      </trkpt>
      <trkpt lat="48.8662" lon="2.32149">
        <ele>39.3</ele>
        <time>2020-07-01T16:58:18Z</time>
      </trkpt>
      <trkpt lat="48.86619" lon="2.32142">
        <ele>39.2</ele>
        <time>2020-07-01T16:58:19Z</time>
      </trkpt>
      <trkpt lat="48.86618" lon="2.32134">
        <ele>39.3</ele>
        <time>2020-07-01T16:58:20Z</time>
      </trkpt>
      <trkpt lat="48.86615" lon="2.32127">
        <ele>39.3</ele>
        <time>2020-07-01T16:58:21Z</time>
      </trkpt>
      <trkpt lat="48.86613" lon="2.3212">
        <ele>39.3</ele>
        <time>2020-07-01T16:58:22Z</time>
      </trkpt>
      <trkpt lat="48.8661" lon="2.32113">
        <ele>39.3</ele>
        <time>2020-07-01T16:58:23Z</time>
      </trkpt>
      <trkpt lat="48.86606" lon="2.32106">
        <ele>39.4</ele>
        <time>2020-07-01T16:58:24Z</time>
      </trkpt>
      <trkpt lat="48.86602" lon="2.321">
        <ele>39.4</ele>
        <time>2020-07-01T16:58:25Z</time>
      </trkpt>
      <trkpt lat="48.86598" lon="2.32093">
        <ele>39.4</ele>
        <time>2020-07-01T16:58:26Z</time>
      </trkpt>
      <trkpt lat="48.86594" lon="2.32086">
        <ele>39.5</ele>
        <time>2020-07-01T16:58:27Z</time>
      </trkpt>
      <trkpt lat="48.86591" lon="2.3208">
        <ele>39.5</ele>
        <time>2020-07-01T16:58:28Z</time>
      </trkpt>
      <trkpt lat="48.86588" lon="2.32075">
        <ele>39</ele>
        <time>2020-07-01T16:58:29Z</time>
      </trkpt>
      <trkpt lat="48.86584" lon="2.32069">
        <ele>38.9</ele>
        <time>2020-07-01T16:58:30Z</time>
      </trkpt>
      <trkpt lat="48.86581" lon="2.32063">
        <ele>38.7</ele>
        <time>2020-07-01T16:58:31Z</time>
      </trkpt>
      <trkpt lat="48.86579" lon="2.32057">
        <ele>38.6</ele>
        <time>2020-07-01T16:58:32Z</time>
      </trkpt>
      <trkpt lat="48.86577" lon="2.32052">
        <ele>38.5</ele>
        <time>2020-07-01T16:58:33Z</time>
      </trkpt>
      <trkpt lat="48.86577" lon="2.32048">
        <ele>38.4</ele>
        <time>2020-07-01T16:58:34Z</time>
      </trkpt>
      <trkpt lat="48.86579" lon="2.32043">
        <ele>38.3</ele>
        <time>2020-07-01T16:58:35Z</time>
      </trkpt>
      <trkpt lat="48.86581" lon="2.32039">
        <ele>38.2</ele>
        <time>2020-07-01T16:58:36Z</time>
      </trkpt>
      <trkpt lat="48.86583" lon="2.32035">
        <ele>38.2</ele>
        <time>2020-07-01T16:58:37Z</time>
      </trkpt>
      <trkpt lat="48.86585" lon="2.32032">
        <ele>38.1</ele>
        <time>2020-07-01T16:58:38Z</time>
      </trkpt>
      <trkpt lat="48.86586" lon="2.32028">
        <ele>38.1</ele>
        <time>2020-07-01T16:58:39Z</time>
      </trkpt>
      <trkpt lat="48.86587" lon="2.32024">
        <ele>38.1</ele>
        <time>2020-07-01T16:58:40Z</time>
      </trkpt>
      <trkpt lat="48.8659" lon="2.32022">
        <ele>38</ele>
        <time>2020-07-01T16:58:41Z</time>
      </trkpt>
      <trkpt lat="48.86593" lon="2.32017">
        <ele>38.1</ele>
        <time>2020-07-01T16:58:42Z</time>
      </trkpt>
      <trkpt lat="48.86593" lon="2.32015">
        <ele>38.1</ele>
        <time>2020-07-01T16:58:43Z</time>
      </trkpt>
      <trkpt lat="48.86595" lon="2.32012">
        <ele>38.2</ele>
        <time>2020-07-01T16:58:44Z</time>
      </trkpt>
      <trkpt lat="48.86597" lon="2.32007">
        <ele>38.3</ele>
        <time>2020-07-01T16:58:45Z</time>
      </trkpt>
      <trkpt lat="48.866" lon="2.32004">
        <ele>39.5</ele>
        <time>2020-07-01T16:58:46Z</time>
      </trkpt>
      <trkpt lat="48.86602" lon="2.32">
        <ele>39.5</ele>
        <time>2020-07-01T16:58:47Z</time>
      </trkpt>
      <trkpt lat="48.86603" lon="2.31999">
        <ele>39.5</ele>
        <time>2020-07-01T16:58:48Z</time>
      </trkpt>
      <trkpt lat="48.86606" lon="2.31996">
        <ele>39.5</ele>
        <time>2020-07-01T16:58:49Z</time>
      </trkpt>
      <trkpt lat="48.86607" lon="2.31994">
        <ele>39.5</ele>
        <time>2020-07-01T16:58:50Z</time>
      </trkpt>
      <trkpt lat="48.86609" lon="2.3199">
        <ele>39.5</ele>
        <time>2020-07-01T16:58:51Z</time>
      </trkpt>
      <trkpt lat="48.8661" lon="2.31989">
        <ele>39.5</ele>
        <time>2020-07-01T16:58:52Z</time>
      </trkpt>
      <trkpt lat="48.86609" lon="2.31987">
        <ele>39.5</ele>
        <time>2020-07-01T16:58:53Z</time>
      </trkpt>
      <trkpt lat="48.86609" lon="2.31987">
        <ele>39.5</ele>
        <time>2020-07-01T16:58:54Z</time>
      </trkpt>
      <trkpt lat="48.86609" lon="2.31986">
        <ele>39.5</ele>
        <time>2020-07-01T16:58:55Z</time>
      </trkpt>
      <trkpt lat="48.86609" lon="2.31986">
        <ele>39.5</ele>
        <time>2020-07-01T16:58:56Z</time>
      </trkpt>
      <trkpt lat="48.86609" lon="2.31986">
        <ele>39.5</ele>
        <time>2020-07-01T16:58:57Z</time>
      </trkpt>
      <trkpt lat="48.86609" lon="2.31986">
        <ele>39.5</ele>
        <time>2020-07-01T16:58:58Z</time>
      </trkpt>
      <trkpt lat="48.86608" lon="2.31984">
        <ele>39.5</ele>
        <time>2020-07-01T16:58:59Z</time>
      </trkpt>
      <trkpt lat="48.86608" lon="2.31983">
        <ele>39.5</ele>
        <time>2020-07-01T16:59:00Z</time>
      </trkpt>
      <trkpt lat="48.86608" lon="2.31983">
        <ele>39.5</ele>
        <time>2020-07-01T16:59:01Z</time>
      </trkpt>
      <trkpt lat="48.86608" lon="2.31983">
        <ele>39.5</ele>
        <time>2020-07-01T16:59:02Z</time>
      </trkpt>
      <trkpt lat="48.86608" lon="2.31983">
        <ele>39.5</ele>
        <time>2020-07-01T16:59:03Z</time>
      </trkpt>
      <trkpt lat="48.86608" lon="2.31982">
        <ele>39.5</ele>
        <time>2020-07-01T16:59:04Z</time>
      </trkpt>
      <trkpt lat="48.86608" lon="2.31964">
        <ele>39.4</ele>
        <time>2020-07-01T17:05:01Z</time>
      </trkpt>
      <trkpt lat="48.86608" lon="2.31962">
        <ele>39.4</ele>
        <time>2020-07-01T17:05:02Z</time>
      </trkpt>
      <trkpt lat="48.86609" lon="2.31957">
        <ele>39.4</ele>
        <time>2020-07-01T17:05:03Z</time>
      </trkpt>
      <trkpt lat="48.86609" lon="2.31955">
        <ele>39.4</ele>
        <time>2020-07-01T17:05:04Z</time>
      </trkpt>
      <trkpt lat="48.86611" lon="2.3195">
        <ele>39.4</ele>
        <time>2020-07-01T17:05:05Z</time>
      </trkpt>
      <trkpt lat="48.86612" lon="2.31948">
        <ele>39.4</ele>
        <time>2020-07-01T17:05:06Z</time>
      </trkpt>
      <trkpt lat="48.86612" lon="2.31944">
        <ele>39.5</ele>
        <time>2020-07-01T17:05:07Z</time>
      </trkpt>
      <trkpt lat="48.86614" lon="2.3194">
        <ele>39.5</ele>
        <time>2020-07-01T17:05:08Z</time>
      </trkpt>
      <trkpt lat="48.86615" lon="2.31934">
        <ele>39.5</ele>
        <time>2020-07-01T17:05:09Z</time>
      </trkpt>
      <trkpt lat="48.86615" lon="2.31932">
        <ele>39.5</ele>
        <time>2020-07-01T17:05:10Z</time>
      </trkpt>
      <trkpt lat="48.86617" lon="2.31929">
        <ele>39.5</ele>
        <time>2020-07-01T17:05:11Z</time>
      </trkpt>
      <trkpt lat="48.86619" lon="2.31925">
        <ele>39.5</ele>
        <time>2020-07-01T17:05:12Z</time>
      </trkpt>
      <trkpt lat="48.86621" lon="2.31921">
        <ele>39.5</ele>
        <time>2020-07-01T17:05:13Z</time>
      </trkpt>
      <trkpt lat="48.86622" lon="2.31916">
        <ele>39.5</ele>
        <time>2020-07-01T17:05:14Z</time>
      </trkpt>
      <trkpt lat="48.86624" lon="2.31912">
        <ele>39.5</ele>
        <time>2020-07-01T17:05:15Z</time>
      </trkpt>
      <trkpt lat="48.86625" lon="2.31909">
        <ele>39.5</ele>
        <time>2020-07-01T17:05:16Z</time>
      </trkpt>
      <trkpt lat="48.86626" lon="2.31905">
        <ele>39.5</ele>
        <time>2020-07-01T17:05:17Z</time>
      </trkpt>
      <trkpt lat="48.86627" lon="2.31901">
        <ele>39.5</ele>
        <time>2020-07-01T17:05:18Z</time>
      </trkpt>
      <trkpt lat="48.86629" lon="2.31897">
        <ele>39.6</ele>
        <time>2020-07-01T17:05:19Z</time>
      </trkpt>
      <trkpt lat="48.86631" lon="2.31893">
        <ele>39.6</ele>
        <time>2020-07-01T17:05:20Z</time>
      </trkpt>
      <trkpt lat="48.86633" lon="2.31889">
        <ele>39.6</ele>
        <time>2020-07-01T17:05:21Z</time>
      </trkpt>
      <trkpt lat="48.86634" lon="2.31884">
        <ele>39.6</ele>
        <time>2020-07-01T17:05:22Z</time>
      </trkpt>
      <trkpt lat="48.86636" lon="2.3188">
        <ele>39.6</ele>
        <time>2020-07-01T17:05:23Z</time>
      </trkpt>
      <trkpt lat="48.86637" lon="2.31875">
        <ele>39.6</ele>
        <time>2020-07-01T17:05:24Z</time>
      </trkpt>
      <trkpt lat="48.86638" lon="2.31871">
        <ele>39.6</ele>
        <time>2020-07-01T17:05:25Z</time>
      </trkpt>
      <trkpt lat="48.8664" lon="2.31866">
        <ele>39.6</ele>
        <time>2020-07-01T17:05:26Z</time>
      </trkpt>
      <trkpt lat="48.86641" lon="2.31862">
        <ele>39.6</ele>
        <time>2020-07-01T17:05:27Z</time>
      </trkpt>
      <trkpt lat="48.86643" lon="2.31857">
        <ele>39.6</ele>
        <time>2020-07-01T17:05:28Z</time>
      </trkpt>
      <trkpt lat="48.86644" lon="2.31853">
        <ele>39.6</ele>
        <time>2020-07-01T17:05:29Z</time>
      </trkpt>
      <trkpt lat="48.86645" lon="2.31846">
        <ele>39.6</ele>
        <time>2020-07-01T17:05:30Z</time>
      </trkpt>
      <trkpt lat="48.86648" lon="2.31841">
        <ele>39.6</ele>
        <time>2020-07-01T17:05:31Z</time>
      </trkpt>
      <trkpt lat="48.86649" lon="2.31836">
        <ele>39.6</ele>
        <time>2020-07-01T17:05:32Z</time>
      </trkpt>
      <trkpt lat="48.86651" lon="2.3183">
        <ele>39.7</ele>
        <time>2020-07-01T17:05:33Z</time>
      </trkpt>
      <trkpt lat="48.86652" lon="2.31824">
        <ele>39.7</ele>
        <time>2020-07-01T17:05:34Z</time>
      </trkpt>
      <trkpt lat="48.86653" lon="2.31819">
        <ele>39.7</ele>
        <time>2020-07-01T17:05:35Z</time>
      </trkpt>
      <trkpt lat="48.86655" lon="2.31814">
        <ele>39.7</ele>
        <time>2020-07-01T17:05:36Z</time>
      </trkpt>
      <trkpt lat="48.86658" lon="2.31809">
        <ele>39.7</ele>
        <time>2020-07-01T17:05:37Z</time>
      </trkpt>
      <trkpt lat="48.8666" lon="2.31804">
        <ele>39.7</ele>
        <time>2020-07-01T17:05:38Z</time>
      </trkpt>
      <trkpt lat="48.86661" lon="2.31799">
        <ele>39.8</ele>
        <time>2020-07-01T17:05:39Z</time>
      </trkpt>
      <trkpt lat="48.86662" lon="2.31794">
        <ele>39.8</ele>
        <time>2020-07-01T17:05:40Z</time>
      </trkpt>
      <trkpt lat="48.86664" lon="2.3179">
        <ele>39.8</ele>
        <time>2020-07-01T17:05:41Z</time>
      </trkpt>
      <trkpt lat="48.86666" lon="2.31786">
        <ele>39.8</ele>
        <time>2020-07-01T17:05:42Z</time>
      </trkpt>
      <trkpt lat="48.86668" lon="2.31782">
        <ele>39.8</ele>
        <time>2020-07-01T17:05:43Z</time>
      </trkpt>
      <trkpt lat="48.8667" lon="2.31777">
        <ele>39.8</ele>
        <time>2020-07-01T17:05:44Z</time>
      </trkpt>
      <trkpt lat="48.86672" lon="2.31772">
        <ele>39.8</ele>
        <time>2020-07-01T17:05:45Z</time>
      </trkpt>
      <trkpt lat="48.86674" lon="2.31766">
        <ele>39.8</ele>
        <time>2020-07-01T17:05:46Z</time>
      </trkpt>
      <trkpt lat="48.86676" lon="2.31761">
        <ele>39.8</ele>
        <time>2020-07-01T17:05:47Z</time>
      </trkpt>
      <trkpt lat="48.86678" lon="2.31754">
        <ele>39.9</ele>
        <time>2020-07-01T17:05:48Z</time>
      </trkpt>
      <trkpt lat="48.8668" lon="2.31748">
        <ele>39.9</ele>
        <time>2020-07-01T17:05:49Z</time>
      </trkpt>
      <trkpt lat="48.86681" lon="2.31742">
        <ele>39.9</ele>
        <time>2020-07-01T17:05:50Z</time>
      </trkpt>
      <trkpt lat="48.86681" lon="2.31736">
        <ele>39.9</ele>
        <time>2020-07-01T17:05:51Z</time>
      </trkpt>
      <trkpt lat="48.86682" lon="2.31731">
        <ele>39.9</ele>
        <time>2020-07-01T17:05:52Z</time>
      </trkpt>
      <trkpt lat="48.86683" lon="2.31727">
        <ele>39.9</ele>
        <time>2020-07-01T17:05:53Z</time>
      </trkpt>
      <trkpt lat="48.86684" lon="2.31721">
        <ele>39.9</ele>
        <time>2020-07-01T17:05:54Z</time>
      </trkpt>
      <trkpt lat="48.86686" lon="2.31715">
        <ele>39.9</ele>
        <time>2020-07-01T17:05:55Z</time>
      </trkpt>
      <trkpt lat="48.86687" lon="2.31709">
        <ele>39.9</ele>
        <time>2020-07-01T17:05:56Z</time>
      </trkpt>
      <trkpt lat="48.86688" lon="2.31704">
        <ele>39.9</ele>
        <time>2020-07-01T17:05:57Z</time>
      </trkpt>
      <trkpt lat="48.8669" lon="2.31699">
        <ele>39.9</ele>
        <time>2020-07-01T17:05:58Z</time>
      </trkpt>
      <trkpt lat="48.86692" lon="2.31693">
        <ele>39.9</ele>
        <time>2020-07-01T17:05:59Z</time>
      </trkpt>
      <trkpt lat="48.86693" lon="2.31689">
        <ele>39.9</ele>
        <time>2020-07-01T17:06:00Z</time>
      </trkpt>
      <trkpt lat="48.86694" lon="2.31685">
        <ele>39.9</ele>
        <time>2020-07-01T17:06:01Z</time>
      </trkpt>
      <trkpt lat="48.86695" lon="2.31681">
        <ele>40</ele>
        <time>2020-07-01T17:06:02Z</time>
      </trkpt>
      <trkpt lat="48.86697" lon="2.31677">
        <ele>40</ele>
        <time>2020-07-01T17:06:03Z</time>
      </trkpt>
      <trkpt lat="48.86698" lon="2.31672">
        <ele>40</ele>
        <time>2020-07-01T17:06:04Z</time>
      </trkpt>
      <trkpt lat="48.867" lon="2.31667">
        <ele>40.1</ele>
        <time>2020-07-01T17:06:05Z</time>
      </trkpt>
      <trkpt lat="48.86701" lon="2.31662">
        <ele>40.1</ele>
        <time>2020-07-01T17:06:06Z</time>
      </trkpt>
      <trkpt lat="48.86702" lon="2.31657">
        <ele>40.1</ele>
        <time>2020-07-01T17:06:07Z</time>
      </trkpt>
      <trkpt lat="48.86704" lon="2.31652">
        <ele>40.2</ele>
        <time>2020-07-01T17:06:08Z</time>
      </trkpt>
      <trkpt lat="48.86706" lon="2.31648">
        <ele>40.3</ele>
        <time>2020-07-01T17:06:09Z</time>
      </trkpt>
      <trkpt lat="48.86708" lon="2.31644">
        <ele>40.3</ele>
        <time>2020-07-01T17:06:10Z</time>
      </trkpt>
      <trkpt lat="48.86709" lon="2.31639">
        <ele>40.3</ele>
        <time>2020-07-01T17:06:11Z</time>
      </trkpt>
      <trkpt lat="48.8671" lon="2.31635">
        <ele>40.4</ele>
        <time>2020-07-01T17:06:12Z</time>
      </trkpt>
      <trkpt lat="48.86711" lon="2.31631">
        <ele>40.4</ele>
        <time>2020-07-01T17:06:13Z</time>
      </trkpt>
      <trkpt lat="48.86713" lon="2.31627">
        <ele>40.4</ele>
        <time>2020-07-01T17:06:14Z</time>
      </trkpt>
      <trkpt lat="48.86714" lon="2.31621">
        <ele>40.4</ele>
        <time>2020-07-01T17:06:15Z</time>
      </trkpt>
      <trkpt lat="48.86715" lon="2.31616">
        <ele>40.4</ele>
        <time>2020-07-01T17:06:16Z</time>
      </trkpt>
      <trkpt lat="48.86716" lon="2.3161">
        <ele>40.4</ele>
        <time>2020-07-01T17:06:17Z</time>
      </trkpt>
      <trkpt lat="48.86716" lon="2.31608">
        <ele>40.4</ele>
        <time>2020-07-01T17:06:18Z</time>
      </trkpt>
      <trkpt lat="48.86718" lon="2.31602">
        <ele>40.4</ele>
        <time>2020-07-01T17:06:19Z</time>
      </trkpt>
      <trkpt lat="48.8672" lon="2.31597">
        <ele>40.4</ele>
        <time>2020-07-01T17:06:20Z</time>
      </trkpt>
      <trkpt lat="48.86722" lon="2.31592">
        <ele>40.4</ele>
        <time>2020-07-01T17:06:21Z</time>
      </trkpt>
      <trkpt lat="48.86723" lon="2.31588">
        <ele>40.4</ele>
        <time>2020-07-01T17:06:22Z</time>
      </trkpt>
      <trkpt lat="48.86725" lon="2.31583">
        <ele>40.4</ele>
        <time>2020-07-01T17:06:23Z</time>
      </trkpt>
      <trkpt lat="48.86726" lon="2.31578">
        <ele>40.4</ele>
        <time>2020-07-01T17:06:24Z</time>
      </trkpt>
      <trkpt lat="48.86727" lon="2.31573">
        <ele>40.4</ele>
        <time>2020-07-01T17:06:25Z</time>
      </trkpt>
      <trkpt lat="48.86729" lon="2.31568">
        <ele>40.4</ele>
        <time>2020-07-01T17:06:26Z</time>
      </trkpt>
      <trkpt lat="48.86729" lon="2.31566">
        <ele>40.4</ele>
        <time>2020-07-01T17:06:27Z</time>
      </trkpt>
      <trkpt lat="48.86732" lon="2.3156">
        <ele>40.4</ele>
        <time>2020-07-01T17:06:28Z</time>
      </trkpt>
      <trkpt lat="48.86734" lon="2.31554">
        <ele>40.4</ele>
        <time>2020-07-01T17:06:29Z</time>
      </trkpt>
      <trkpt lat="48.86736" lon="2.31548">
        <ele>40.4</ele>
        <time>2020-07-01T17:06:30Z</time>
      </trkpt>
      <trkpt lat="48.86738" lon="2.31542">
        <ele>40.4</ele>
        <time>2020-07-01T17:06:31Z</time>
      </trkpt>
      <trkpt lat="48.8674" lon="2.31535">
        <ele>40.4</ele>
        <time>2020-07-01T17:06:32Z</time>
      </trkpt>
      <trkpt lat="48.86741" lon="2.31529">
        <ele>40.4</ele>
        <time>2020-07-01T17:06:33Z</time>
      </trkpt>
      <trkpt lat="48.86744" lon="2.31522">
        <ele>40.4</ele>
        <time>2020-07-01T17:06:34Z</time>
      </trkpt>
      <trkpt lat="48.86745" lon="2.31516">
        <ele>40.4</ele>
        <time>2020-07-01T17:06:35Z</time>
      </trkpt>
      <trkpt lat="48.86746" lon="2.31509">
        <ele>40.4</ele>
        <time>2020-07-01T17:06:36Z</time>
      </trkpt>
      <trkpt lat="48.86748" lon="2.31503">
        <ele>40.4</ele>
        <time>2020-07-01T17:06:37Z</time>
      </trkpt>
      <trkpt lat="48.8675" lon="2.31497">
        <ele>40.4</ele>
        <time>2020-07-01T17:06:38Z</time>
      </trkpt>
      <trkpt lat="48.86752" lon="2.31491">
        <ele>40.4</ele>
        <time>2020-07-01T17:06:39Z</time>
      </trkpt>
      <trkpt lat="48.86755" lon="2.31485">
        <ele>40.4</ele>
        <time>2020-07-01T17:06:40Z</time>
      </trkpt>
      <trkpt lat="48.86757" lon="2.31479">
        <ele>40.5</ele>
        <time>2020-07-01T17:06:41Z</time>
      </trkpt>
      <trkpt lat="48.86758" lon="2.31473">
        <ele>40.5</ele>
        <time>2020-07-01T17:06:42Z</time>
      </trkpt>
      <trkpt lat="48.8676" lon="2.31468">
        <ele>40.5</ele>
        <time>2020-07-01T17:06:43Z</time>
      </trkpt>
      <trkpt lat="48.86763" lon="2.31464">
        <ele>40.5</ele>
        <time>2020-07-01T17:06:44Z</time>
      </trkpt>
      <trkpt lat="48.86764" lon="2.31459">
        <ele>40.5</ele>
        <time>2020-07-01T17:06:45Z</time>
      </trkpt>
      <trkpt lat="48.86766" lon="2.31454">
        <ele>40.5</ele>
        <time>2020-07-01T17:06:46Z</time>
      </trkpt>
      <trkpt lat="48.86768" lon="2.3145">
        <ele>40.5</ele>
        <time>2020-07-01T17:06:47Z</time>
      </trkpt>
      <trkpt lat="48.8677" lon="2.31446">
        <ele>40.5</ele>
        <time>2020-07-01T17:06:48Z</time>
      </trkpt>
      <trkpt lat="48.86772" lon="2.3144">
        <ele>40.5</ele>
        <time>2020-07-01T17:06:49Z</time>
      </trkpt>
      <trkpt lat="48.86774" lon="2.31436">
        <ele>40.5</ele>
        <time>2020-07-01T17:06:50Z</time>
      </trkpt>
      <trkpt lat="48.86775" lon="2.31432">
        <ele>40.5</ele>
        <time>2020-07-01T17:06:51Z</time>
      </trkpt>
      <trkpt lat="48.86777" lon="2.31428">
        <ele>40.6</ele>
        <time>2020-07-01T17:06:52Z</time>
      </trkpt>
      <trkpt lat="48.86778" lon="2.31424">
        <ele>40.6</ele>
        <time>2020-07-01T17:06:53Z</time>
      </trkpt>
      <trkpt lat="48.8678" lon="2.3142">
        <ele>40.6</ele>
        <time>2020-07-01T17:06:54Z</time>
      </trkpt>
      <trkpt lat="48.86782" lon="2.31415">
        <ele>40.6</ele>
        <time>2020-07-01T17:06:55Z</time>
      </trkpt>
      <trkpt lat="48.86784" lon="2.3141">
        <ele>40.6</ele>
        <time>2020-07-01T17:06:56Z</time>
      </trkpt>
      <trkpt lat="48.86785" lon="2.31403">
        <ele>40.6</ele>
        <time>2020-07-01T17:06:57Z</time>
      </trkpt>
      <trkpt lat="48.86786" lon="2.31396">
        <ele>40.6</ele>
        <time>2020-07-01T17:06:58Z</time>
      </trkpt>
      <trkpt lat="48.86787" lon="2.31389">
        <ele>40.6</ele>
        <time>2020-07-01T17:06:59Z</time>
      </trkpt>
      <trkpt lat="48.86788" lon="2.31382">
        <ele>40.6</ele>
        <time>2020-07-01T17:07:00Z</time>
      </trkpt>
      <trkpt lat="48.8679" lon="2.31376">
        <ele>40.6</ele>
        <time>2020-07-01T17:07:01Z</time>
      </trkpt>
      <trkpt lat="48.86792" lon="2.3137">
        <ele>40.6</ele>
        <time>2020-07-01T17:07:02Z</time>
      </trkpt>
      <trkpt lat="48.86793" lon="2.31364">
        <ele>40.6</ele>
        <time>2020-07-01T17:07:03Z</time>
      </trkpt>
      <trkpt lat="48.86795" lon="2.31359">
        <ele>40.6</ele>
        <time>2020-07-01T17:07:04Z</time>
      </trkpt>
      <trkpt lat="48.86797" lon="2.31353">
        <ele>40.6</ele>
        <time>2020-07-01T17:07:05Z</time>
      </trkpt>
      <trkpt lat="48.86799" lon="2.31347">
        <ele>40.6</ele>
        <time>2020-07-01T17:07:06Z</time>
      </trkpt>
      <trkpt lat="48.868" lon="2.31341">
        <ele>40.6</ele>
        <time>2020-07-01T17:07:07Z</time>
      </trkpt>
      <trkpt lat="48.86801" lon="2.31335">
        <ele>40.6</ele>
        <time>2020-07-01T17:07:08Z</time>
      </trkpt>
      <trkpt lat="48.86803" lon="2.31329">
        <ele>40.6</ele>
        <time>2020-07-01T17:07:09Z</time>
      </trkpt>
      <trkpt lat="48.86805" lon="2.31323">
        <ele>40.6</ele>
        <time>2020-07-01T17:07:10Z</time>
      </trkpt>
      <trkpt lat="48.86806" lon="2.31318">
        <ele>40.6</ele>
        <time>2020-07-01T17:07:11Z</time>
      </trkpt>
      <trkpt lat="48.86807" lon="2.31314">
        <ele>40.6</ele>
        <time>2020-07-01T17:07:12Z</time>
      </trkpt>
      <trkpt lat="48.86808" lon="2.31307">
        <ele>40.6</ele>
        <time>2020-07-01T17:07:13Z</time>
      </trkpt>
      <trkpt lat="48.8681" lon="2.31301">
        <ele>40.6</ele>
        <time>2020-07-01T17:07:14Z</time>
      </trkpt>
      <trkpt lat="48.86812" lon="2.31295">
        <ele>40.6</ele>
        <time>2020-07-01T17:07:15Z</time>
      </trkpt>
      <trkpt lat="48.86814" lon="2.3129">
        <ele>40.6</ele>
        <time>2020-07-01T17:07:16Z</time>
      </trkpt>
      <trkpt lat="48.86816" lon="2.31284">
        <ele>40.6</ele>
        <time>2020-07-01T17:07:17Z</time>
      </trkpt>
      <trkpt lat="48.86817" lon="2.31277">
        <ele>40.6</ele>
        <time>2020-07-01T17:07:18Z</time>
      </trkpt>
      <trkpt lat="48.8682" lon="2.3127">
        <ele>40.6</ele>
        <time>2020-07-01T17:07:19Z</time>
      </trkpt>
      <trkpt lat="48.86822" lon="2.31263">
        <ele>40.6</ele>
        <time>2020-07-01T17:07:20Z</time>
      </trkpt>
      <trkpt lat="48.86824" lon="2.31257">
        <ele>40.6</ele>
        <time>2020-07-01T17:07:21Z</time>
      </trkpt>
      <trkpt lat="48.86828" lon="2.31253">
        <ele>40.6</ele>
        <time>2020-07-01T17:07:22Z</time>
      </trkpt>
      <trkpt lat="48.8683" lon="2.31247">
        <ele>40.6</ele>
        <time>2020-07-01T17:07:23Z</time>
      </trkpt>
      <trkpt lat="48.86832" lon="2.31239">
        <ele>40.6</ele>
        <time>2020-07-01T17:07:24Z</time>
      </trkpt>
      <trkpt lat="48.86834" lon="2.31231">
        <ele>40.5</ele>
        <time>2020-07-01T17:07:25Z</time>
      </trkpt>
      <trkpt lat="48.86836" lon="2.31224">
        <ele>40.5</ele>
        <time>2020-07-01T17:07:26Z</time>
      </trkpt>
      <trkpt lat="48.86838" lon="2.31218">
        <ele>40.5</ele>
        <time>2020-07-01T17:07:27Z</time>
      </trkpt>
      <trkpt lat="48.8684" lon="2.31211">
        <ele>40.6</ele>
        <time>2020-07-01T17:07:28Z</time>
      </trkpt>
      <trkpt lat="48.86842" lon="2.31203">
        <ele>40.6</ele>
        <time>2020-07-01T17:07:29Z</time>
      </trkpt>
      <trkpt lat="48.86844" lon="2.31196">
        <ele>40.6</ele>
        <time>2020-07-01T17:07:30Z</time>
      </trkpt>
      <trkpt lat="48.86846" lon="2.3119">
        <ele>40.7</ele>
        <time>2020-07-01T17:07:31Z</time>
      </trkpt>
      <trkpt lat="48.86848" lon="2.31183">
        <ele>40.7</ele>
        <time>2020-07-01T17:07:32Z</time>
      </trkpt>
      <trkpt lat="48.8685" lon="2.31176">
        <ele>40.7</ele>
        <time>2020-07-01T17:07:33Z</time>
      </trkpt>
      <trkpt lat="48.86851" lon="2.31169">
        <ele>40.8</ele>
        <time>2020-07-01T17:07:34Z</time>
      </trkpt>
      <trkpt lat="48.86853" lon="2.31162">
        <ele>40.8</ele>
        <time>2020-07-01T17:07:35Z</time>
      </trkpt>
      <trkpt lat="48.86855" lon="2.31157">
        <ele>40.8</ele>
        <time>2020-07-01T17:07:36Z</time>
      </trkpt>
      <trkpt lat="48.86857" lon="2.31151">
        <ele>40.9</ele>
        <time>2020-07-01T17:07:37Z</time>
      </trkpt>
      <trkpt lat="48.8686" lon="2.31144">
        <ele>40.9</ele>
        <time>2020-07-01T17:07:38Z</time>
      </trkpt>
      <trkpt lat="48.86862" lon="2.31137">
        <ele>41</ele>
        <time>2020-07-01T17:07:39Z</time>
      </trkpt>
      <trkpt lat="48.86864" lon="2.31129">
        <ele>41</ele>
        <time>2020-07-01T17:07:40Z</time>
      </trkpt>
      <trkpt lat="48.86867" lon="2.31122">
        <ele>41.1</ele>
        <time>2020-07-01T17:07:41Z</time>
      </trkpt>
      <trkpt lat="48.86869" lon="2.31116">
        <ele>41.1</ele>
        <time>2020-07-01T17:07:42Z</time>
      </trkpt>
      <trkpt lat="48.8687" lon="2.31111">
        <ele>41.2</ele>
        <time>2020-07-01T17:07:43Z</time>
      </trkpt>
      <trkpt lat="48.8687" lon="2.31106">
        <ele>41.2</ele>
        <time>2020-07-01T17:07:44Z</time>
      </trkpt>
      <trkpt lat="48.86871" lon="2.31105">
        <ele>41.2</ele>
        <time>2020-07-01T17:07:45Z</time>
      </trkpt>
      <trkpt lat="48.86871" lon="2.31103">
        <ele>41.2</ele>
        <time>2020-07-01T17:07:46Z</time>
      </trkpt>
      <trkpt lat="48.86872" lon="2.31102">
        <ele>41.2</ele>
        <time>2020-07-01T17:07:47Z</time>
      </trkpt>
      <trkpt lat="48.86873" lon="2.31102">
        <ele>41.2</ele>
        <time>2020-07-01T17:07:48Z</time>
      </trkpt>
      <trkpt lat="48.86874" lon="2.31101">
        <ele>41.2</ele>
        <time>2020-07-01T17:07:49Z</time>
      </trkpt>
      <trkpt lat="48.86874" lon="2.31101">
        <ele>41.2</ele>
        <time>2020-07-01T17:07:50Z</time>
      </trkpt>
      <trkpt lat="48.86874" lon="2.31101">
        <ele>41.2</ele>
        <time>2020-07-01T17:07:51Z</time>
      </trkpt>
      <trkpt lat="48.86874" lon="2.311">
        <ele>41.2</ele>
        <time>2020-07-01T17:07:52Z</time>
      </trkpt>
      <trkpt lat="48.86875" lon="2.311">
        <ele>41.3</ele>
        <time>2020-07-01T17:07:53Z</time>
      </trkpt>
      <trkpt lat="48.86875" lon="2.311">
        <ele>41.3</ele>
        <time>2020-07-01T17:07:54Z</time>
      </trkpt>
      <trkpt lat="48.86875" lon="2.31099">
        <ele>41.3</ele>
        <time>2020-07-01T17:07:55Z</time>
      </trkpt>
      <trkpt lat="48.86875" lon="2.31099">
        <ele>41.3</ele>
        <time>2020-07-01T17:07:56Z</time>
      </trkpt>
      <trkpt lat="48.86877" lon="2.31095">
        <ele>41.3</ele>
        <time>2020-07-01T17:07:57Z</time>
      </trkpt>
      <trkpt lat="48.86878" lon="2.31094">
        <ele>41.3</ele>
        <time>2020-07-01T17:07:58Z</time>
      </trkpt>
      <trkpt lat="48.8688" lon="2.3109">
        <ele>41.3</ele>
        <time>2020-07-01T17:07:59Z</time>
      </trkpt>
      <trkpt lat="48.86881" lon="2.31087">
        <ele>41.4</ele>
        <time>2020-07-01T17:08:00Z</time>
      </trkpt>
      <trkpt lat="48.86884" lon="2.31081">
        <ele>41.4</ele>
        <time>2020-07-01T17:08:01Z</time>
      </trkpt>
      <trkpt lat="48.86885" lon="2.31079">
        <ele>41.4</ele>
        <time>2020-07-01T17:08:02Z</time>
      </trkpt>
      <trkpt lat="48.86887" lon="2.31074">
        <ele>41.5</ele>
        <time>2020-07-01T17:08:03Z</time>
      </trkpt>
      <trkpt lat="48.86889" lon="2.3107">
        <ele>41.5</ele>
        <time>2020-07-01T17:08:04Z</time>
      </trkpt>
      <trkpt lat="48.8689" lon="2.31066">
        <ele>41.5</ele>
        <time>2020-07-01T17:08:05Z</time>
      </trkpt>
      <trkpt lat="48.86891" lon="2.3106">
        <ele>41.6</ele>
        <time>2020-07-01T17:08:06Z</time>
      </trkpt>
      <trkpt lat="48.86892" lon="2.31058">
        <ele>41.6</ele>
        <time>2020-07-01T17:08:07Z</time>
      </trkpt>
      <trkpt lat="48.86892" lon="2.31056">
        <ele>41.6</ele>
        <time>2020-07-01T17:08:08Z</time>
      </trkpt>
      <trkpt lat="48.86892" lon="2.31051">
        <ele>41.7</ele>
        <time>2020-07-01T17:08:09Z</time>
      </trkpt>
      <trkpt lat="48.86893" lon="2.3105">
        <ele>41.7</ele>
        <time>2020-07-01T17:08:10Z</time>
      </trkpt>
      <trkpt lat="48.86895" lon="2.31046">
        <ele>41.7</ele>
        <time>2020-07-01T17:08:11Z</time>
      </trkpt>
      <trkpt lat="48.86896" lon="2.31046">
        <ele>41.7</ele>
        <time>2020-07-01T17:08:12Z</time>
      </trkpt>
      <trkpt lat="48.86897" lon="2.31045">
        <ele>41.7</ele>
        <time>2020-07-01T17:08:13Z</time>
      </trkpt>
      <trkpt lat="48.86897" lon="2.31043">
        <ele>41.7</ele>
        <time>2020-07-01T17:08:14Z</time>
      </trkpt>
      <trkpt lat="48.86896" lon="2.31043">
        <ele>41.7</ele>
        <time>2020-07-01T17:08:15Z</time>
      </trkpt>
      <trkpt lat="48.86896" lon="2.31043">
        <ele>41.7</ele>
        <time>2020-07-01T17:08:16Z</time>
      </trkpt>
      <trkpt lat="48.86896" lon="2.31042">
        <ele>41.7</ele>
        <time>2020-07-01T17:08:17Z</time>
      </trkpt>
      <trkpt lat="48.86897" lon="2.31041">
        <ele>41.7</ele>
        <time>2020-07-01T17:08:18Z</time>
      </trkpt>
      <trkpt lat="48.86899" lon="2.3104">
        <ele>41.7</ele>
        <time>2020-07-01T17:08:19Z</time>
      </trkpt>
      <trkpt lat="48.869" lon="2.31038">
        <ele>41.7</ele>
        <time>2020-07-01T17:08:20Z</time>
      </trkpt>
      <trkpt lat="48.86902" lon="2.31034">
        <ele>41.8</ele>
        <time>2020-07-01T17:08:21Z</time>
      </trkpt>
      <trkpt lat="48.86903" lon="2.31033">
        <ele>41.8</ele>
        <time>2020-07-01T17:08:22Z</time>
      </trkpt>
      <trkpt lat="48.86905" lon="2.31029">
        <ele>41.9</ele>
        <time>2020-07-01T17:08:23Z</time>
      </trkpt>
      <trkpt lat="48.86906" lon="2.31025">
        <ele>41.9</ele>
        <time>2020-07-01T17:08:24Z</time>
      </trkpt>
      <trkpt lat="48.86907" lon="2.3102">
        <ele>41.9</ele>
        <time>2020-07-01T17:08:25Z</time>
      </trkpt>
      <trkpt lat="48.86909" lon="2.31014">
        <ele>42</ele>
        <time>2020-07-01T17:08:26Z</time>
      </trkpt>
      <trkpt lat="48.8691" lon="2.31009">
        <ele>42.2</ele>
        <time>2020-07-01T17:08:27Z</time>
      </trkpt>
      <trkpt lat="48.86912" lon="2.31003">
        <ele>42.2</ele>
        <time>2020-07-01T17:08:28Z</time>
      </trkpt>
      <trkpt lat="48.86915" lon="2.30994">
        <ele>42.3</ele>
        <time>2020-07-01T17:08:29Z</time>
      </trkpt>
      <trkpt lat="48.86917" lon="2.30986">
        <ele>42.3</ele>
        <time>2020-07-01T17:08:30Z</time>
      </trkpt>
      <trkpt lat="48.86919" lon="2.30978">
        <ele>42.3</ele>
        <time>2020-07-01T17:08:31Z</time>
      </trkpt>
      <trkpt lat="48.86921" lon="2.30971">
        <ele>42.4</ele>
        <time>2020-07-01T17:08:32Z</time>
      </trkpt>
      <trkpt lat="48.86923" lon="2.30965">
        <ele>42.4</ele>
        <time>2020-07-01T17:08:33Z</time>
      </trkpt>
      <trkpt lat="48.86925" lon="2.30958">
        <ele>42.4</ele>
        <time>2020-07-01T17:08:34Z</time>
      </trkpt>
      <trkpt lat="48.86927" lon="2.30952">
        <ele>42.4</ele>
        <time>2020-07-01T17:08:35Z</time>
      </trkpt>
      <trkpt lat="48.86929" lon="2.30945">
        <ele>42.4</ele>
        <time>2020-07-01T17:08:36Z</time>
      </trkpt>
      <trkpt lat="48.86931" lon="2.30938">
        <ele>42.4</ele>
        <time>2020-07-01T17:08:37Z</time>
      </trkpt>
      <trkpt lat="48.86933" lon="2.30931">
        <ele>42.5</ele>
        <time>2020-07-01T17:08:38Z</time>
      </trkpt>
      <trkpt lat="48.86934" lon="2.30925">
        <ele>42.5</ele>
        <time>2020-07-01T17:08:39Z</time>
      </trkpt>
      <trkpt lat="48.86936" lon="2.30919">
        <ele>42.4</ele>
        <time>2020-07-01T17:08:40Z</time>
      </trkpt>
      <trkpt lat="48.86938" lon="2.30913">
        <ele>42.4</ele>
        <time>2020-07-01T17:08:41Z</time>
      </trkpt>
      <trkpt lat="48.86939" lon="2.30907">
        <ele>42.4</ele>
        <time>2020-07-01T17:08:42Z</time>
      </trkpt>
      <trkpt lat="48.8694" lon="2.309">
        <ele>42.4</ele>
        <time>2020-07-01T17:08:43Z</time>
      </trkpt>
      <trkpt lat="48.86941" lon="2.30894">
        <ele>42.5</ele>
        <time>2020-07-01T17:08:44Z</time>
      </trkpt>
      <trkpt lat="48.86943" lon="2.30888">
        <ele>42.5</ele>
        <time>2020-07-01T17:08:45Z</time>
      </trkpt>
      <trkpt lat="48.86945" lon="2.30882">
        <ele>42.5</ele>
        <time>2020-07-01T17:08:46Z</time>
      </trkpt>
      <trkpt lat="48.86947" lon="2.30874">
        <ele>42.6</ele>
        <time>2020-07-01T17:08:47Z</time>
      </trkpt>
      <trkpt lat="48.86949" lon="2.30867">
        <ele>42.6</ele>
        <time>2020-07-01T17:08:48Z</time>
      </trkpt>
      <trkpt lat="48.8695" lon="2.3086">
        <ele>42.6</ele>
        <time>2020-07-01T17:08:49Z</time>
      </trkpt>
      <trkpt lat="48.86952" lon="2.30854">
        <ele>42.7</ele>
        <time>2020-07-01T17:08:50Z</time>
      </trkpt>
      <trkpt lat="48.86954" lon="2.30848">
        <ele>42.7</ele>
        <time>2020-07-01T17:08:51Z</time>
      </trkpt>
      <trkpt lat="48.86956" lon="2.3084">
        <ele>42.7</ele>
        <time>2020-07-01T17:08:52Z</time>
      </trkpt>
      <trkpt lat="48.86959" lon="2.30832">
        <ele>42.7</ele>
        <time>2020-07-01T17:08:53Z</time>
      </trkpt>
      <trkpt lat="48.86961" lon="2.30826">
        <ele>42.8</ele>
        <time>2020-07-01T17:08:54Z</time>
      </trkpt>
      <trkpt lat="48.86964" lon="2.30819">
        <ele>42.8</ele>
        <time>2020-07-01T17:08:55Z</time>
      </trkpt>
      <trkpt lat="48.86967" lon="2.30811">
        <ele>42.8</ele>
        <time>2020-07-01T17:08:56Z</time>
      </trkpt>
      <trkpt lat="48.86969" lon="2.30803">
        <ele>42.9</ele>
        <time>2020-07-01T17:08:57Z</time>
      </trkpt>
      <trkpt lat="48.86972" lon="2.30795">
        <ele>43</ele>
        <time>2020-07-01T17:08:58Z</time>
      </trkpt>
      <trkpt lat="48.86974" lon="2.30787">
        <ele>43</ele>
        <time>2020-07-01T17:08:59Z</time>
      </trkpt>
      <trkpt lat="48.86977" lon="2.3078">
        <ele>43.1</ele>
        <time>2020-07-01T17:09:00Z</time>
      </trkpt>
      <trkpt lat="48.86979" lon="2.30772">
        <ele>43.2</ele>
        <time>2020-07-01T17:09:01Z</time>
      </trkpt>
      <trkpt lat="48.86981" lon="2.30765">
        <ele>43.3</ele>
        <time>2020-07-01T17:09:02Z</time>
      </trkpt>
      <trkpt lat="48.86984" lon="2.30758">
        <ele>43.3</ele>
        <time>2020-07-01T17:09:03Z</time>
      </trkpt>
      <trkpt lat="48.86987" lon="2.30752">
        <ele>43.4</ele>
        <time>2020-07-01T17:09:04Z</time>
      </trkpt>
      <trkpt lat="48.8699" lon="2.30746">
        <ele>43.4</ele>
        <time>2020-07-01T17:09:05Z</time>
      </trkpt>
      <trkpt lat="48.86992" lon="2.30741">
        <ele>43.5</ele>
        <time>2020-07-01T17:09:06Z</time>
      </trkpt>
      <trkpt lat="48.86993" lon="2.30737">
        <ele>43.5</ele>
        <time>2020-07-01T17:09:07Z</time>
      </trkpt>
      <trkpt lat="48.86995" lon="2.30733">
        <ele>43.5</ele>
        <time>2020-07-01T17:09:08Z</time>
      </trkpt>
      <trkpt lat="48.86997" lon="2.30729">
        <ele>43.5</ele>
        <time>2020-07-01T17:09:09Z</time>
      </trkpt>
      <trkpt lat="48.86998" lon="2.30728">
        <ele>43.5</ele>
        <time>2020-07-01T17:09:10Z</time>
      </trkpt>
      <trkpt lat="48.86998" lon="2.30725">
        <ele>43.5</ele>
        <time>2020-07-01T17:09:11Z</time>
      </trkpt>
      <trkpt lat="48.86998" lon="2.30724">
        <ele>43.5</ele>
        <time>2020-07-01T17:09:12Z</time>
      </trkpt>
      <trkpt lat="48.86998" lon="2.30722">
        <ele>43.5</ele>
        <time>2020-07-01T17:09:13Z</time>
      </trkpt>
      <trkpt lat="48.86998" lon="2.30721">
        <ele>43.5</ele>
        <time>2020-07-01T17:09:14Z</time>
      </trkpt>
      <trkpt lat="48.86999" lon="2.30718">
        <ele>43.5</ele>
        <time>2020-07-01T17:09:15Z</time>
      </trkpt>
      <trkpt lat="48.86999" lon="2.30716">
        <ele>43.5</ele>
        <time>2020-07-01T17:09:16Z</time>
      </trkpt>
      <trkpt lat="48.86999" lon="2.30713">
        <ele>43.5</ele>
        <time>2020-07-01T17:09:17Z</time>
      </trkpt>
      <trkpt lat="48.87" lon="2.30708">
        <ele>43.8</ele>
        <time>2020-07-01T17:09:18Z</time>
      </trkpt>
      <trkpt lat="48.87001" lon="2.30706">
        <ele>43.8</ele>
        <time>2020-07-01T17:09:19Z</time>
      </trkpt>
      <trkpt lat="48.87002" lon="2.30702">
        <ele>43.9</ele>
        <time>2020-07-01T17:09:20Z</time>
      </trkpt>
      <trkpt lat="48.87003" lon="2.30697">
        <ele>44</ele>
        <time>2020-07-01T17:09:21Z</time>
      </trkpt>
      <trkpt lat="48.87004" lon="2.30692">
        <ele>44.2</ele>
        <time>2020-07-01T17:09:22Z</time>
      </trkpt>
      <trkpt lat="48.87006" lon="2.30686">
        <ele>44.2</ele>
        <time>2020-07-01T17:09:23Z</time>
      </trkpt>
      <trkpt lat="48.87008" lon="2.30682">
        <ele>44.3</ele>
        <time>2020-07-01T17:09:24Z</time>
      </trkpt>
      <trkpt lat="48.87011" lon="2.30676">
        <ele>44.4</ele>
        <time>2020-07-01T17:09:25Z</time>
      </trkpt>
      <trkpt lat="48.87014" lon="2.3067">
        <ele>44.5</ele>
        <time>2020-07-01T17:09:26Z</time>
      </trkpt>
      <trkpt lat="48.87016" lon="2.30666">
        <ele>44.5</ele>
        <time>2020-07-01T17:09:27Z</time>
      </trkpt>
      <trkpt lat="48.87018" lon="2.30662">
        <ele>44.5</ele>
        <time>2020-07-01T17:09:28Z</time>
      </trkpt>
      <trkpt lat="48.8702" lon="2.30657">
        <ele>44.5</ele>
        <time>2020-07-01T17:09:29Z</time>
      </trkpt>
      <trkpt lat="48.87023" lon="2.30651">
        <ele>44.6</ele>
        <time>2020-07-01T17:09:30Z</time>
      </trkpt>
      <trkpt lat="48.87025" lon="2.30646">
        <ele>44.6</ele>
        <time>2020-07-01T17:09:31Z</time>
      </trkpt>
      <trkpt lat="48.87026" lon="2.3064">
        <ele>44.7</ele>
        <time>2020-07-01T17:09:32Z</time>
      </trkpt>
      <trkpt lat="48.87028" lon="2.30634">
        <ele>44.7</ele>
        <time>2020-07-01T17:09:33Z</time>
      </trkpt>
      <trkpt lat="48.8703" lon="2.30628">
        <ele>44.8</ele>
        <time>2020-07-01T17:09:34Z</time>
      </trkpt>
      <trkpt lat="48.87032" lon="2.30623">
        <ele>44.8</ele>
        <time>2020-07-01T17:09:35Z</time>
      </trkpt>
      <trkpt lat="48.87034" lon="2.30617">
        <ele>44.9</ele>
        <time>2020-07-01T17:09:36Z</time>
      </trkpt>
      <trkpt lat="48.87036" lon="2.30612">
        <ele>45</ele>
        <time>2020-07-01T17:09:37Z</time>
      </trkpt>
      <trkpt lat="48.87038" lon="2.30607">
        <ele>45</ele>
        <time>2020-07-01T17:09:38Z</time>
      </trkpt>
      <trkpt lat="48.87039" lon="2.30602">
        <ele>45.1</ele>
        <time>2020-07-01T17:09:39Z</time>
      </trkpt>
      <trkpt lat="48.87041" lon="2.30597">
        <ele>45.2</ele>
        <time>2020-07-01T17:09:40Z</time>
      </trkpt>
      <trkpt lat="48.87043" lon="2.30592">
        <ele>45.3</ele>
        <time>2020-07-01T17:09:41Z</time>
      </trkpt>
      <trkpt lat="48.87046" lon="2.30587">
        <ele>45.4</ele>
        <time>2020-07-01T17:09:42Z</time>
      </trkpt>
      <trkpt lat="48.87046" lon="2.30581">
        <ele>45.4</ele>
        <time>2020-07-01T17:09:43Z</time>
      </trkpt>
      <trkpt lat="48.87048" lon="2.30576">
        <ele>45.5</ele>
        <time>2020-07-01T17:09:44Z</time>
      </trkpt>
      <trkpt lat="48.87048" lon="2.30568">
        <ele>45.6</ele>
        <time>2020-07-01T17:09:45Z</time>
      </trkpt>
      <trkpt lat="48.87049" lon="2.30563">
        <ele>45.7</ele>
        <time>2020-07-01T17:09:46Z</time>
      </trkpt>
      <trkpt lat="48.87051" lon="2.30557">
        <ele>45.9</ele>
        <time>2020-07-01T17:09:47Z</time>
      </trkpt>
      <trkpt lat="48.87052" lon="2.30551">
        <ele>46</ele>
        <time>2020-07-01T17:09:48Z</time>
      </trkpt>
      <trkpt lat="48.87053" lon="2.30546">
        <ele>46.1</ele>
        <time>2020-07-01T17:09:49Z</time>
      </trkpt>
      <trkpt lat="48.87054" lon="2.30542">
        <ele>46.2</ele>
        <time>2020-07-01T17:09:50Z</time>
      </trkpt>
      <trkpt lat="48.87055" lon="2.30536">
        <ele>46.3</ele>
        <time>2020-07-01T17:09:51Z</time>
      </trkpt>
      <trkpt lat="48.87056" lon="2.3053">
        <ele>46.4</ele>
        <time>2020-07-01T17:09:52Z</time>
      </trkpt>
      <trkpt lat="48.87058" lon="2.30524">
        <ele>46.4</ele>
        <time>2020-07-01T17:09:53Z</time>
      </trkpt>
      <trkpt lat="48.8706" lon="2.30518">
        <ele>46.5</ele>
        <time>2020-07-01T17:09:54Z</time>
      </trkpt>
      <trkpt lat="48.87063" lon="2.30512">
        <ele>46.5</ele>
        <time>2020-07-01T17:09:55Z</time>
      </trkpt>
      <trkpt lat="48.87065" lon="2.30507">
        <ele>46.5</ele>
        <time>2020-07-01T17:09:56Z</time>
      </trkpt>
      <trkpt lat="48.87068" lon="2.305">
        <ele>46.6</ele>
        <time>2020-07-01T17:09:57Z</time>
      </trkpt>
      <trkpt lat="48.8707" lon="2.30495">
        <ele>46.7</ele>
        <time>2020-07-01T17:09:58Z</time>
      </trkpt>
      <trkpt lat="48.87071" lon="2.30491">
        <ele>46.8</ele>
        <time>2020-07-01T17:09:59Z</time>
      </trkpt>
      <trkpt lat="48.87072" lon="2.30486">
        <ele>46.8</ele>
        <time>2020-07-01T17:10:00Z</time>
      </trkpt>
      <trkpt lat="48.87074" lon="2.30481">
        <ele>46.9</ele>
        <time>2020-07-01T17:10:01Z</time>
      </trkpt>
      <trkpt lat="48.87076" lon="2.30475">
        <ele>47</ele>
        <time>2020-07-01T17:10:02Z</time>
      </trkpt>
      <trkpt lat="48.87078" lon="2.3047">
        <ele>47.1</ele>
        <time>2020-07-01T17:10:03Z</time>
      </trkpt>
      <trkpt lat="48.87081" lon="2.30464">
        <ele>47.2</ele>
        <time>2020-07-01T17:10:04Z</time>
      </trkpt>
      <trkpt lat="48.87083" lon="2.3046">
        <ele>47.3</ele>
        <time>2020-07-01T17:10:05Z</time>
      </trkpt>
      <trkpt lat="48.87085" lon="2.30453">
        <ele>47.3</ele>
        <time>2020-07-01T17:10:06Z</time>
      </trkpt>
      <trkpt lat="48.87087" lon="2.30447">
        <ele>47.4</ele>
        <time>2020-07-01T17:10:07Z</time>
      </trkpt>
      <trkpt lat="48.8709" lon="2.3044">
        <ele>47.6</ele>
        <time>2020-07-01T17:10:08Z</time>
      </trkpt>
      <trkpt lat="48.87092" lon="2.30433">
        <ele>47.7</ele>
        <time>2020-07-01T17:10:09Z</time>
      </trkpt>
      <trkpt lat="48.87095" lon="2.30427">
        <ele>47.8</ele>
        <time>2020-07-01T17:10:10Z</time>
      </trkpt>
      <trkpt lat="48.87097" lon="2.30422">
        <ele>47.9</ele>
        <time>2020-07-01T17:10:11Z</time>
      </trkpt>
      <trkpt lat="48.87099" lon="2.30416">
        <ele>48</ele>
        <time>2020-07-01T17:10:12Z</time>
      </trkpt>
      <trkpt lat="48.87101" lon="2.3041">
        <ele>48.1</ele>
        <time>2020-07-01T17:10:13Z</time>
      </trkpt>
      <trkpt lat="48.87103" lon="2.30406">
        <ele>48.2</ele>
        <time>2020-07-01T17:10:14Z</time>
      </trkpt>
      <trkpt lat="48.87105" lon="2.30399">
        <ele>48.3</ele>
        <time>2020-07-01T17:10:15Z</time>
      </trkpt>
      <trkpt lat="48.87107" lon="2.30393">
        <ele>48.4</ele>
        <time>2020-07-01T17:10:16Z</time>
      </trkpt>
      <trkpt lat="48.87108" lon="2.30387">
        <ele>48.5</ele>
        <time>2020-07-01T17:10:17Z</time>
      </trkpt>
      <trkpt lat="48.8711" lon="2.30381">
        <ele>48.7</ele>
        <time>2020-07-01T17:10:18Z</time>
      </trkpt>
      <trkpt lat="48.87112" lon="2.30374">
        <ele>48.8</ele>
        <time>2020-07-01T17:10:19Z</time>
      </trkpt>
      <trkpt lat="48.87114" lon="2.30367">
        <ele>48.8</ele>
        <time>2020-07-01T17:10:20Z</time>
      </trkpt>
      <trkpt lat="48.87116" lon="2.30362">
        <ele>48.9</ele>
        <time>2020-07-01T17:10:21Z</time>
      </trkpt>
      <trkpt lat="48.87119" lon="2.30355">
        <ele>49</ele>
        <time>2020-07-01T17:10:22Z</time>
      </trkpt>
      <trkpt lat="48.87121" lon="2.30348">
        <ele>49.2</ele>
        <time>2020-07-01T17:10:23Z</time>
      </trkpt>
      <trkpt lat="48.87123" lon="2.30341">
        <ele>49.4</ele>
        <time>2020-07-01T17:10:24Z</time>
      </trkpt>
      <trkpt lat="48.87125" lon="2.30334">
        <ele>49.5</ele>
        <time>2020-07-01T17:10:25Z</time>
      </trkpt>
      <trkpt lat="48.87127" lon="2.30328">
        <ele>49.6</ele>
        <time>2020-07-01T17:10:26Z</time>
      </trkpt>
      <trkpt lat="48.87129" lon="2.30322">
        <ele>49.8</ele>
        <time>2020-07-01T17:10:27Z</time>
      </trkpt>
      <trkpt lat="48.87131" lon="2.30316">
        <ele>49.9</ele>
        <time>2020-07-01T17:10:28Z</time>
      </trkpt>
      <trkpt lat="48.87133" lon="2.30311">
        <ele>50</ele>
        <time>2020-07-01T17:10:29Z</time>
      </trkpt>
      <trkpt lat="48.87135" lon="2.30306">
        <ele>50.1</ele>
        <time>2020-07-01T17:10:30Z</time>
      </trkpt>
      <trkpt lat="48.87136" lon="2.30302">
        <ele>50.2</ele>
        <time>2020-07-01T17:10:31Z</time>
      </trkpt>
      <trkpt lat="48.87138" lon="2.30296">
        <ele>50.3</ele>
        <time>2020-07-01T17:10:32Z</time>
      </trkpt>
      <trkpt lat="48.8714" lon="2.30291">
        <ele>50.4</ele>
        <time>2020-07-01T17:10:33Z</time>
      </trkpt>
      <trkpt lat="48.87142" lon="2.30285">
        <ele>50.5</ele>
        <time>2020-07-01T17:10:34Z</time>
      </trkpt>
      <trkpt lat="48.87144" lon="2.30279">
        <ele>50.6</ele>
        <time>2020-07-01T17:10:35Z</time>
      </trkpt>
      <trkpt lat="48.87146" lon="2.30273">
        <ele>50.7</ele>
        <time>2020-07-01T17:10:36Z</time>
      </trkpt>
      <trkpt lat="48.87148" lon="2.30266">
        <ele>50.7</ele>
        <time>2020-07-01T17:10:37Z</time>
      </trkpt>
      <trkpt lat="48.8715" lon="2.3026">
        <ele>50.8</ele>
        <time>2020-07-01T17:10:38Z</time>
      </trkpt>
      <trkpt lat="48.8715" lon="2.30253">
        <ele>50.9</ele>
        <time>2020-07-01T17:10:39Z</time>
      </trkpt>
      <trkpt lat="48.87152" lon="2.30249">
        <ele>50.9</ele>
        <time>2020-07-01T17:10:40Z</time>
      </trkpt>
      <trkpt lat="48.87154" lon="2.30243">
        <ele>51</ele>
        <time>2020-07-01T17:10:41Z</time>
      </trkpt>
      <trkpt lat="48.87157" lon="2.30237">
        <ele>51.1</ele>
        <time>2020-07-01T17:10:42Z</time>
      </trkpt>
      <trkpt lat="48.87159" lon="2.30231">
        <ele>51.2</ele>
        <time>2020-07-01T17:10:43Z</time>
      </trkpt>
      <trkpt lat="48.87161" lon="2.30225">
        <ele>51.3</ele>
        <time>2020-07-01T17:10:44Z</time>
      </trkpt>
      <trkpt lat="48.87162" lon="2.30218">
        <ele>51.4</ele>
        <time>2020-07-01T17:10:45Z</time>
      </trkpt>
      <trkpt lat="48.87163" lon="2.30212">
        <ele>51.5</ele>
        <time>2020-07-01T17:10:46Z</time>
      </trkpt>
      <trkpt lat="48.87164" lon="2.30206">
        <ele>51.6</ele>
        <time>2020-07-01T17:10:47Z</time>
      </trkpt>
      <trkpt lat="48.87166" lon="2.302">
        <ele>51.8</ele>
        <time>2020-07-01T17:10:48Z</time>
      </trkpt>
      <trkpt lat="48.87168" lon="2.30193">
        <ele>51.9</ele>
        <time>2020-07-01T17:10:49Z</time>
      </trkpt>
      <trkpt lat="48.8717" lon="2.30186">
        <ele>52.1</ele>
        <time>2020-07-01T17:10:50Z</time>
      </trkpt>
      <trkpt lat="48.87172" lon="2.3018">
        <ele>52.3</ele>
        <time>2020-07-01T17:10:51Z</time>
      </trkpt>
      <trkpt lat="48.87173" lon="2.30173">
        <ele>52.4</ele>
        <time>2020-07-01T17:10:52Z</time>
      </trkpt>
      <trkpt lat="48.87175" lon="2.30167">
        <ele>52.6</ele>
        <time>2020-07-01T17:10:53Z</time>
      </trkpt>
      <trkpt lat="48.87176" lon="2.30162">
        <ele>52.8</ele>
        <time>2020-07-01T17:10:54Z</time>
      </trkpt>
      <trkpt lat="48.87178" lon="2.30158">
        <ele>52.9</ele>
        <time>2020-07-01T17:10:55Z</time>
      </trkpt>
      <trkpt lat="48.8718" lon="2.30154">
        <ele>53.1</ele>
        <time>2020-07-01T17:10:56Z</time>
      </trkpt>
      <trkpt lat="48.87183" lon="2.30148">
        <ele>53.3</ele>
        <time>2020-07-01T17:10:57Z</time>
      </trkpt>
      <trkpt lat="48.87185" lon="2.30144">
        <ele>53.4</ele>
        <time>2020-07-01T17:10:58Z</time>
      </trkpt>
      <trkpt lat="48.87186" lon="2.30138">
        <ele>53.6</ele>
        <time>2020-07-01T17:10:59Z</time>
      </trkpt>
      <trkpt lat="48.87188" lon="2.30134">
        <ele>53.7</ele>
        <time>2020-07-01T17:11:00Z</time>
      </trkpt>
      <trkpt lat="48.87189" lon="2.30127">
        <ele>54</ele>
        <time>2020-07-01T17:11:01Z</time>
      </trkpt>
      <trkpt lat="48.87191" lon="2.30122">
        <ele>54.1</ele>
        <time>2020-07-01T17:11:02Z</time>
      </trkpt>
      <trkpt lat="48.87193" lon="2.30118">
        <ele>54.1</ele>
        <time>2020-07-01T17:11:03Z</time>
      </trkpt>
      <trkpt lat="48.87194" lon="2.30113">
        <ele>54.1</ele>
        <time>2020-07-01T17:11:04Z</time>
      </trkpt>
      <trkpt lat="48.87195" lon="2.30107">
        <ele>54.5</ele>
        <time>2020-07-01T17:11:05Z</time>
      </trkpt>
      <trkpt lat="48.87195" lon="2.30101">
        <ele>54.7</ele>
        <time>2020-07-01T17:11:06Z</time>
      </trkpt>
      <trkpt lat="48.87197" lon="2.30093">
        <ele>54.8</ele>
        <time>2020-07-01T17:11:07Z</time>
      </trkpt>
      <trkpt lat="48.87199" lon="2.30087">
        <ele>54.9</ele>
        <time>2020-07-01T17:11:08Z</time>
      </trkpt>
      <trkpt lat="48.872" lon="2.3008">
        <ele>55.1</ele>
        <time>2020-07-01T17:11:09Z</time>
      </trkpt>
      <trkpt lat="48.87201" lon="2.30075">
        <ele>55.2</ele>
        <time>2020-07-01T17:11:10Z</time>
      </trkpt>
      <trkpt lat="48.87202" lon="2.30068">
        <ele>55.4</ele>
        <time>2020-07-01T17:11:11Z</time>
      </trkpt>
      <trkpt lat="48.87202" lon="2.30062">
        <ele>55.5</ele>
        <time>2020-07-01T17:11:12Z</time>
      </trkpt>
      <trkpt lat="48.87204" lon="2.30056">
        <ele>55.6</ele>
        <time>2020-07-01T17:11:13Z</time>
      </trkpt>
      <trkpt lat="48.87205" lon="2.30049">
        <ele>55.8</ele>
        <time>2020-07-01T17:11:14Z</time>
      </trkpt>
      <trkpt lat="48.87207" lon="2.30042">
        <ele>56</ele>
        <time>2020-07-01T17:11:15Z</time>
      </trkpt>
      <trkpt lat="48.87209" lon="2.30035">
        <ele>56</ele>
        <time>2020-07-01T17:11:16Z</time>
      </trkpt>
      <trkpt lat="48.8721" lon="2.30029">
        <ele>56</ele>
        <time>2020-07-01T17:11:17Z</time>
      </trkpt>
      <trkpt lat="48.87213" lon="2.30022">
        <ele>56.3</ele>
        <time>2020-07-01T17:11:18Z</time>
      </trkpt>
      <trkpt lat="48.87216" lon="2.30015">
        <ele>56.4</ele>
        <time>2020-07-01T17:11:19Z</time>
      </trkpt>
      <trkpt lat="48.87219" lon="2.30009">
        <ele>56.6</ele>
        <time>2020-07-01T17:11:20Z</time>
      </trkpt>
      <trkpt lat="48.87222" lon="2.30003">
        <ele>56.7</ele>
        <time>2020-07-01T17:11:21Z</time>
      </trkpt>
      <trkpt lat="48.87224" lon="2.29996">
        <ele>56.9</ele>
        <time>2020-07-01T17:11:22Z</time>
      </trkpt>
      <trkpt lat="48.87226" lon="2.29989">
        <ele>57</ele>
        <time>2020-07-01T17:11:23Z</time>
      </trkpt>
      <trkpt lat="48.87228" lon="2.29981">
        <ele>57.2</ele>
        <time>2020-07-01T17:11:24Z</time>
      </trkpt>
      <trkpt lat="48.8723" lon="2.29974">
        <ele>57.4</ele>
        <time>2020-07-01T17:11:25Z</time>
      </trkpt>
      <trkpt lat="48.87232" lon="2.29966">
        <ele>57.6</ele>
        <time>2020-07-01T17:11:26Z</time>
      </trkpt>
      <trkpt lat="48.87233" lon="2.29958">
        <ele>57.7</ele>
        <time>2020-07-01T17:11:27Z</time>
      </trkpt>
      <trkpt lat="48.87235" lon="2.2995">
        <ele>57.8</ele>
        <time>2020-07-01T17:11:28Z</time>
      </trkpt>
      <trkpt lat="48.87238" lon="2.29943">
        <ele>57.9</ele>
        <time>2020-07-01T17:11:29Z</time>
      </trkpt>
      <trkpt lat="48.8724" lon="2.29938">
        <ele>58</ele>
        <time>2020-07-01T17:11:30Z</time>
      </trkpt>
      <trkpt lat="48.87242" lon="2.29931">
        <ele>58.1</ele>
        <time>2020-07-01T17:11:31Z</time>
      </trkpt>
      <trkpt lat="48.87245" lon="2.29924">
        <ele>58.2</ele>
        <time>2020-07-01T17:11:32Z</time>
      </trkpt>
      <trkpt lat="48.87245" lon="2.2992">
        <ele>58.3</ele>
        <time>2020-07-01T17:11:33Z</time>
      </trkpt>
      <trkpt lat="48.87247" lon="2.29914">
        <ele>58.4</ele>
        <time>2020-07-01T17:11:34Z</time>
      </trkpt>
      <trkpt lat="48.87248" lon="2.29909">
        <ele>58.5</ele>
        <time>2020-07-01T17:11:35Z</time>
      </trkpt>
      <trkpt lat="48.8725" lon="2.29904">
        <ele>58.6</ele>
        <time>2020-07-01T17:11:36Z</time>
      </trkpt>
      <trkpt lat="48.87253" lon="2.29899">
        <ele>58.7</ele>
        <time>2020-07-01T17:11:37Z</time>
      </trkpt>
      <trkpt lat="48.87254" lon="2.29894">
        <ele>58.8</ele>
        <time>2020-07-01T17:11:38Z</time>
      </trkpt>
      <trkpt lat="48.87256" lon="2.29889">
        <ele>59</ele>
        <time>2020-07-01T17:11:39Z</time>
      </trkpt>
      <trkpt lat="48.87257" lon="2.29885">
        <ele>59</ele>
        <time>2020-07-01T17:11:40Z</time>
      </trkpt>
      <trkpt lat="48.87258" lon="2.29879">
        <ele>59.1</ele>
        <time>2020-07-01T17:11:41Z</time>
      </trkpt>
      <trkpt lat="48.87259" lon="2.29877">
        <ele>59.2</ele>
        <time>2020-07-01T17:11:42Z</time>
      </trkpt>
      <trkpt lat="48.87259" lon="2.29872">
        <ele>59.2</ele>
        <time>2020-07-01T17:11:43Z</time>
      </trkpt>
      <trkpt lat="48.8726" lon="2.29867">
        <ele>59.4</ele>
        <time>2020-07-01T17:11:44Z</time>
      </trkpt>
      <trkpt lat="48.8726" lon="2.29865">
        <ele>59.4</ele>
        <time>2020-07-01T17:11:45Z</time>
      </trkpt>
      <trkpt lat="48.87261" lon="2.2986">
        <ele>59.5</ele>
        <time>2020-07-01T17:11:46Z</time>
      </trkpt>
      <trkpt lat="48.87262" lon="2.29858">
        <ele>59.5</ele>
        <time>2020-07-01T17:11:47Z</time>
      </trkpt>
      <trkpt lat="48.87263" lon="2.29853">
        <ele>59.6</ele>
        <time>2020-07-01T17:11:48Z</time>
      </trkpt>
      <trkpt lat="48.87266" lon="2.29848">
        <ele>59.7</ele>
        <time>2020-07-01T17:11:49Z</time>
      </trkpt>
      <trkpt lat="48.87268" lon="2.29844">
        <ele>59.8</ele>
        <time>2020-07-01T17:11:50Z</time>
      </trkpt>
      <trkpt lat="48.87269" lon="2.2984">
        <ele>59.9</ele>
        <time>2020-07-01T17:11:51Z</time>
      </trkpt>
      <trkpt lat="48.87271" lon="2.29835">
        <ele>60</ele>
        <time>2020-07-01T17:11:52Z</time>
      </trkpt>
      <trkpt lat="48.87271" lon="2.29833">
        <ele>60</ele>
        <time>2020-07-01T17:11:53Z</time>
      </trkpt>
      <trkpt lat="48.87272" lon="2.29828">
        <ele>60.1</ele>
        <time>2020-07-01T17:11:54Z</time>
      </trkpt>
      <trkpt lat="48.87273" lon="2.29822">
        <ele>60.2</ele>
        <time>2020-07-01T17:11:55Z</time>
      </trkpt>
      <trkpt lat="48.87273" lon="2.29816">
        <ele>60.3</ele>
        <time>2020-07-01T17:11:56Z</time>
      </trkpt>
      <trkpt lat="48.87274" lon="2.29811">
        <ele>60.3</ele>
        <time>2020-07-01T17:11:57Z</time>
      </trkpt>
      <trkpt lat="48.87276" lon="2.29806">
        <ele>60.4</ele>
        <time>2020-07-01T17:11:58Z</time>
      </trkpt>
      <trkpt lat="48.87279" lon="2.29802">
        <ele>60.5</ele>
        <time>2020-07-01T17:11:59Z</time>
      </trkpt>
      <trkpt lat="48.87282" lon="2.298">
        <ele>60.6</ele>
        <time>2020-07-01T17:12:00Z</time>
      </trkpt>
      <trkpt lat="48.87284" lon="2.29795">
        <ele>60.8</ele>
        <time>2020-07-01T17:12:01Z</time>
      </trkpt>
      <trkpt lat="48.87287" lon="2.29791">
        <ele>60.9</ele>
        <time>2020-07-01T17:12:02Z</time>
      </trkpt>
      <trkpt lat="48.87289" lon="2.2979">
        <ele>60.9</ele>
        <time>2020-07-01T17:12:03Z</time>
      </trkpt>
      <trkpt lat="48.8729" lon="2.29787">
        <ele>61</ele>
        <time>2020-07-01T17:12:04Z</time>
      </trkpt>
      <trkpt lat="48.87292" lon="2.29783">
        <ele>61.1</ele>
        <time>2020-07-01T17:12:05Z</time>
      </trkpt>
      <trkpt lat="48.87293" lon="2.29778">
        <ele>61.2</ele>
        <time>2020-07-01T17:12:06Z</time>
      </trkpt>
      <trkpt lat="48.87296" lon="2.29775">
        <ele>61.3</ele>
        <time>2020-07-01T17:12:07Z</time>
      </trkpt>
      <trkpt lat="48.87298" lon="2.29772">
        <ele>61.5</ele>
        <time>2020-07-01T17:12:08Z</time>
      </trkpt>
      <trkpt lat="48.87299" lon="2.29771">
        <ele>61.5</ele>
        <time>2020-07-01T17:12:09Z</time>
      </trkpt>
      <trkpt lat="48.873" lon="2.29765">
        <ele>61.6</ele>
        <time>2020-07-01T17:12:10Z</time>
      </trkpt>
      <trkpt lat="48.87301" lon="2.29763">
        <ele>61.7</ele>
        <time>2020-07-01T17:12:11Z</time>
      </trkpt>
      <trkpt lat="48.87301" lon="2.29758">
        <ele>61.8</ele>
        <time>2020-07-01T17:12:12Z</time>
      </trkpt>
      <trkpt lat="48.87302" lon="2.29754">
        <ele>61.8</ele>
        <time>2020-07-01T17:12:13Z</time>
      </trkpt>
      <trkpt lat="48.87304" lon="2.29749">
        <ele>62</ele>
        <time>2020-07-01T17:12:14Z</time>
      </trkpt>
      <trkpt lat="48.87307" lon="2.29744">
        <ele>62.1</ele>
        <time>2020-07-01T17:12:15Z</time>
      </trkpt>
      <trkpt lat="48.87308" lon="2.29738">
        <ele>62.2</ele>
        <time>2020-07-01T17:12:16Z</time>
      </trkpt>
      <trkpt lat="48.87311" lon="2.29734">
        <ele>62.3</ele>
        <time>2020-07-01T17:12:17Z</time>
      </trkpt>
      <trkpt lat="48.87312" lon="2.29728">
        <ele>62.4</ele>
        <time>2020-07-01T17:12:18Z</time>
      </trkpt>
      <trkpt lat="48.87314" lon="2.29725">
        <ele>62.5</ele>
        <time>2020-07-01T17:12:19Z</time>
      </trkpt>
      <trkpt lat="48.87315" lon="2.2972">
        <ele>62.6</ele>
        <time>2020-07-01T17:12:20Z</time>
      </trkpt>
      <trkpt lat="48.87316" lon="2.29714">
        <ele>62.6</ele>
        <time>2020-07-01T17:12:21Z</time>
      </trkpt>
      <trkpt lat="48.87317" lon="2.29707">
        <ele>62.7</ele>
        <time>2020-07-01T17:12:22Z</time>
      </trkpt>
      <trkpt lat="48.87319" lon="2.297">
        <ele>62.7</ele>
        <time>2020-07-01T17:12:23Z</time>
      </trkpt>
      <trkpt lat="48.8732" lon="2.29694">
        <ele>62.8</ele>
        <time>2020-07-01T17:12:24Z</time>
      </trkpt>
      <trkpt lat="48.87322" lon="2.29688">
        <ele>62.8</ele>
        <time>2020-07-01T17:12:25Z</time>
      </trkpt>
      <trkpt lat="48.87324" lon="2.29684">
        <ele>62.9</ele>
        <time>2020-07-01T17:12:26Z</time>
      </trkpt>
      <trkpt lat="48.87326" lon="2.29678">
        <ele>63</ele>
        <time>2020-07-01T17:12:27Z</time>
      </trkpt>
      <trkpt lat="48.87328" lon="2.29671">
        <ele>63.1</ele>
        <time>2020-07-01T17:12:28Z</time>
      </trkpt>
      <trkpt lat="48.8733" lon="2.29666">
        <ele>63.2</ele>
        <time>2020-07-01T17:12:29Z</time>
      </trkpt>
      <trkpt lat="48.87331" lon="2.29661">
        <ele>63.2</ele>
        <time>2020-07-01T17:12:30Z</time>
      </trkpt>
      <trkpt lat="48.87332" lon="2.29656">
        <ele>63.3</ele>
        <time>2020-07-01T17:12:31Z</time>
      </trkpt>
      <trkpt lat="48.87334" lon="2.29651">
        <ele>63.3</ele>
        <time>2020-07-01T17:12:32Z</time>
      </trkpt>
      <trkpt lat="48.87336" lon="2.29646">
        <ele>63.4</ele>
        <time>2020-07-01T17:12:33Z</time>
      </trkpt>
      <trkpt lat="48.87338" lon="2.29642">
        <ele>63.4</ele>
        <time>2020-07-01T17:12:34Z</time>
      </trkpt>
      <trkpt lat="48.8734" lon="2.29638">
        <ele>63.4</ele>
        <time>2020-07-01T17:12:35Z</time>
      </trkpt>
      <trkpt lat="48.87342" lon="2.29632">
        <ele>63.4</ele>
        <time>2020-07-01T17:12:36Z</time>
      </trkpt>
      <trkpt lat="48.87344" lon="2.29627">
        <ele>63.5</ele>
        <time>2020-07-01T17:12:37Z</time>
      </trkpt>
      <trkpt lat="48.87347" lon="2.29623">
        <ele>63.5</ele>
        <time>2020-07-01T17:12:38Z</time>
      </trkpt>
      <trkpt lat="48.87349" lon="2.29618">
        <ele>63.5</ele>
        <time>2020-07-01T17:12:39Z</time>
      </trkpt>
      <trkpt lat="48.8735" lon="2.29614">
        <ele>63.6</ele>
        <time>2020-07-01T17:12:40Z</time>
      </trkpt>
      <trkpt lat="48.87352" lon="2.2961">
        <ele>63.6</ele>
        <time>2020-07-01T17:12:41Z</time>
      </trkpt>
      <trkpt lat="48.87353" lon="2.29609">
        <ele>63.6</ele>
        <time>2020-07-01T17:12:42Z</time>
      </trkpt>
      <trkpt lat="48.87355" lon="2.29607">
        <ele>63.6</ele>
        <time>2020-07-01T17:12:43Z</time>
      </trkpt>
      <trkpt lat="48.87358" lon="2.29609">
        <ele>63.7</ele>
        <time>2020-07-01T17:12:44Z</time>
      </trkpt>
      <trkpt lat="48.87361" lon="2.29612">
        <ele>63.7</ele>
        <time>2020-07-01T17:12:45Z</time>
      </trkpt>
      <trkpt lat="48.87364" lon="2.29611">
        <ele>63.7</ele>
        <time>2020-07-01T17:12:46Z</time>
      </trkpt>
      <trkpt lat="48.87367" lon="2.2961">
        <ele>63.7</ele>
        <time>2020-07-01T17:12:47Z</time>
      </trkpt>
      <trkpt lat="48.8737" lon="2.29609">
        <ele>63.7</ele>
        <time>2020-07-01T17:12:48Z</time>
      </trkpt>
      <trkpt lat="48.87374" lon="2.29607">
        <ele>63.7</ele>
        <time>2020-07-01T17:12:49Z</time>
      </trkpt>
      <trkpt lat="48.87377" lon="2.29607">
        <ele>63.7</ele>
        <time>2020-07-01T17:12:50Z</time>
      </trkpt>
      <trkpt lat="48.87381" lon="2.29606">
        <ele>63.7</ele>
        <time>2020-07-01T17:12:51Z</time>
      </trkpt>
      <trkpt lat="48.87382" lon="2.29605">
        <ele>63.7</ele>
        <time>2020-07-01T17:12:52Z</time>
      </trkpt>
      <trkpt lat="48.87386" lon="2.29604">
        <ele>63.7</ele>
        <time>2020-07-01T17:12:53Z</time>
      </trkpt>
      <trkpt lat="48.87389" lon="2.29601">
        <ele>63.7</ele>
        <time>2020-07-01T17:12:54Z</time>
      </trkpt>
      <trkpt lat="48.87393" lon="2.296">
        <ele>63.7</ele>
        <time>2020-07-01T17:12:55Z</time>
      </trkpt>
      <trkpt lat="48.87396" lon="2.29599">
        <ele>63.7</ele>
        <time>2020-07-01T17:12:56Z</time>
      </trkpt>
      <trkpt lat="48.87399" lon="2.29597">
        <ele>63.7</ele>
        <time>2020-07-01T17:12:57Z</time>
      </trkpt>
      <trkpt lat="48.87403" lon="2.29595">
        <ele>63.7</ele>
        <time>2020-07-01T17:12:58Z</time>
      </trkpt>
      <trkpt lat="48.87406" lon="2.29592">
        <ele>63.6</ele>
        <time>2020-07-01T17:12:59Z</time>
      </trkpt>
      <trkpt lat="48.8741" lon="2.2959">
        <ele>63.6</ele>
        <time>2020-07-01T17:13:00Z</time>
      </trkpt>
      <trkpt lat="48.87415" lon="2.29586">
        <ele>63.6</ele>
        <time>2020-07-01T17:13:01Z</time>
      </trkpt>
      <trkpt lat="48.87419" lon="2.29582">
        <ele>63.6</ele>
        <time>2020-07-01T17:13:02Z</time>
      </trkpt>
      <trkpt lat="48.87423" lon="2.29578">
        <ele>63.6</ele>
        <time>2020-07-01T17:13:03Z</time>
      </trkpt>
      <trkpt lat="48.87426" lon="2.29573">
        <ele>63.6</ele>
        <time>2020-07-01T17:13:04Z</time>
      </trkpt>
      <trkpt lat="48.87428" lon="2.29567">
        <ele>63.6</ele>
        <time>2020-07-01T17:13:05Z</time>
      </trkpt>
      <trkpt lat="48.87432" lon="2.29561">
        <ele>63.6</ele>
        <time>2020-07-01T17:13:06Z</time>
      </trkpt>
      <trkpt lat="48.87434" lon="2.29555">
        <ele>63.6</ele>
        <time>2020-07-01T17:13:07Z</time>
      </trkpt>
      <trkpt lat="48.87438" lon="2.2955">
        <ele>63.6</ele>
        <time>2020-07-01T17:13:08Z</time>
      </trkpt>
      <trkpt lat="48.87441" lon="2.29543">
        <ele>63.6</ele>
        <time>2020-07-01T17:13:09Z</time>
      </trkpt>
      <trkpt lat="48.87442" lon="2.29537">
        <ele>63.6</ele>
        <time>2020-07-01T17:13:10Z</time>
      </trkpt>
      <trkpt lat="48.87444" lon="2.29531">
        <ele>63.6</ele>
        <time>2020-07-01T17:13:11Z</time>
      </trkpt>
      <trkpt lat="48.87445" lon="2.29526">
        <ele>63.6</ele>
        <time>2020-07-01T17:13:12Z</time>
      </trkpt>
      <trkpt lat="48.87446" lon="2.29522">
        <ele>63.6</ele>
        <time>2020-07-01T17:13:13Z</time>
      </trkpt>
      <trkpt lat="48.87446" lon="2.29517">
        <ele>63.6</ele>
        <time>2020-07-01T17:13:14Z</time>
      </trkpt>
      <trkpt lat="48.87448" lon="2.29513">
        <ele>63.6</ele>
        <time>2020-07-01T17:13:15Z</time>
      </trkpt>
      <trkpt lat="48.87449" lon="2.29506">
        <ele>63.6</ele>
        <time>2020-07-01T17:13:16Z</time>
      </trkpt>
      <trkpt lat="48.87451" lon="2.29501">
        <ele>63.6</ele>
        <time>2020-07-01T17:13:17Z</time>
      </trkpt>
      <trkpt lat="48.87453" lon="2.29494">
        <ele>63.6</ele>
        <time>2020-07-01T17:13:18Z</time>
      </trkpt>
      <trkpt lat="48.87453" lon="2.29489">
        <ele>63.6</ele>
        <time>2020-07-01T17:13:19Z</time>
      </trkpt>
      <trkpt lat="48.87452" lon="2.29483">
        <ele>63.6</ele>
        <time>2020-07-01T17:13:20Z</time>
      </trkpt>
      <trkpt lat="48.8745" lon="2.29476">
        <ele>63.7</ele>
        <time>2020-07-01T17:13:21Z</time>
      </trkpt>
      <trkpt lat="48.87448" lon="2.29471">
        <ele>63.7</ele>
        <time>2020-07-01T17:13:22Z</time>
      </trkpt>
      <trkpt lat="48.87447" lon="2.29466">
        <ele>63.7</ele>
        <time>2020-07-01T17:13:23Z</time>
      </trkpt>
      <trkpt lat="48.87444" lon="2.2946">
        <ele>63.7</ele>
        <time>2020-07-01T17:13:24Z</time>
      </trkpt>
      <trkpt lat="48.87441" lon="2.29455">
        <ele>63.7</ele>
        <time>2020-07-01T17:13:25Z</time>
      </trkpt>
      <trkpt lat="48.87438" lon="2.29449">
        <ele>63.7</ele>
        <time>2020-07-01T17:13:26Z</time>
      </trkpt>
      <trkpt lat="48.87434" lon="2.29444">
        <ele>63.7</ele>
        <time>2020-07-01T17:13:27Z</time>
      </trkpt>
      <trkpt lat="48.87431" lon="2.29438">
        <ele>63.7</ele>
        <time>2020-07-01T17:13:28Z</time>
      </trkpt>
      <trkpt lat="48.87429" lon="2.29433">
        <ele>63.7</ele>
        <time>2020-07-01T17:13:29Z</time>
      </trkpt>
      <trkpt lat="48.87426" lon="2.29428">
        <ele>63.7</ele>
        <time>2020-07-01T17:13:30Z</time>
      </trkpt>
      <trkpt lat="48.87422" lon="2.29424">
        <ele>63.7</ele>
        <time>2020-07-01T17:13:31Z</time>
      </trkpt>
      <trkpt lat="48.87419" lon="2.2942">
        <ele>63.7</ele>
        <time>2020-07-01T17:13:32Z</time>
      </trkpt>
      <trkpt lat="48.87415" lon="2.29417">
        <ele>63.6</ele>
        <time>2020-07-01T17:13:33Z</time>
      </trkpt>
      <trkpt lat="48.87412" lon="2.29415">
        <ele>63.6</ele>
        <time>2020-07-01T17:13:34Z</time>
      </trkpt>
      <trkpt lat="48.87409" lon="2.29414">
        <ele>63.6</ele>
        <time>2020-07-01T17:13:35Z</time>
      </trkpt>
      <trkpt lat="48.87404" lon="2.29412">
        <ele>63.7</ele>
        <time>2020-07-01T17:13:36Z</time>
      </trkpt>
      <trkpt lat="48.874" lon="2.2941">
        <ele>63.7</ele>
        <time>2020-07-01T17:13:37Z</time>
      </trkpt>
      <trkpt lat="48.87397" lon="2.29404">
        <ele>63.7</ele>
        <time>2020-07-01T17:13:38Z</time>
      </trkpt>
      <trkpt lat="48.87393" lon="2.29402">
        <ele>63.7</ele>
        <time>2020-07-01T17:13:39Z</time>
      </trkpt>
      <trkpt lat="48.87389" lon="2.29401">
        <ele>63.7</ele>
        <time>2020-07-01T17:13:40Z</time>
      </trkpt>
      <trkpt lat="48.87385" lon="2.29401">
        <ele>63.7</ele>
        <time>2020-07-01T17:13:41Z</time>
      </trkpt>
      <trkpt lat="48.8738" lon="2.294">
        <ele>63.7</ele>
        <time>2020-07-01T17:13:42Z</time>
      </trkpt>
      <trkpt lat="48.87376" lon="2.294">
        <ele>63.7</ele>
        <time>2020-07-01T17:13:43Z</time>
      </trkpt>
      <trkpt lat="48.8737" lon="2.29401">
        <ele>63.7</ele>
        <time>2020-07-01T17:13:44Z</time>
      </trkpt>
      <trkpt lat="48.87365" lon="2.29401">
        <ele>63.7</ele>
        <time>2020-07-01T17:13:45Z</time>
      </trkpt>
      <trkpt lat="48.8736" lon="2.29403">
        <ele>63.7</ele>
        <time>2020-07-01T17:13:46Z</time>
      </trkpt>
      <trkpt lat="48.87355" lon="2.29405">
        <ele>63.7</ele>
        <time>2020-07-01T17:13:47Z</time>
      </trkpt>
      <trkpt lat="48.87351" lon="2.29407">
        <ele>63.7</ele>
        <time>2020-07-01T17:13:48Z</time>
      </trkpt>
      <trkpt lat="48.87346" lon="2.2941">
        <ele>63.7</ele>
        <time>2020-07-01T17:13:49Z</time>
      </trkpt>
      <trkpt lat="48.87342" lon="2.29413">
        <ele>63.7</ele>
        <time>2020-07-01T17:13:50Z</time>
      </trkpt>
      <trkpt lat="48.87338" lon="2.29415">
        <ele>64</ele>
        <time>2020-07-01T17:13:51Z</time>
      </trkpt>
      <trkpt lat="48.87335" lon="2.29414">
        <ele>64</ele>
        <time>2020-07-01T17:13:52Z</time>
      </trkpt>
      <trkpt lat="48.87332" lon="2.29417">
        <ele>64.1</ele>
        <time>2020-07-01T17:13:53Z</time>
      </trkpt>
      <trkpt lat="48.87331" lon="2.29417">
        <ele>64.1</ele>
        <time>2020-07-01T17:13:54Z</time>
      </trkpt>
      <trkpt lat="48.8733" lon="2.29417">
        <ele>64.1</ele>
        <time>2020-07-01T17:13:55Z</time>
      </trkpt>
      <trkpt lat="48.87329" lon="2.29416">
        <ele>64.1</ele>
        <time>2020-07-01T17:13:56Z</time>
      </trkpt>
      <trkpt lat="48.87328" lon="2.29416">
        <ele>64.1</ele>
        <time>2020-07-01T17:13:57Z</time>
      </trkpt>
      <trkpt lat="48.87328" lon="2.29415">
        <ele>64.2</ele>
        <time>2020-07-01T17:13:58Z</time>
      </trkpt>
      <trkpt lat="48.87327" lon="2.29415">
        <ele>64.2</ele>
        <time>2020-07-01T17:13:59Z</time>
      </trkpt>
      <trkpt lat="48.87326" lon="2.29414">
        <ele>64.2</ele>
        <time>2020-07-01T17:14:00Z</time>
      </trkpt>
      <trkpt lat="48.87326" lon="2.29414">
        <ele>64.2</ele>
        <time>2020-07-01T17:14:01Z</time>
      </trkpt>
      <trkpt lat="48.87325" lon="2.29413">
        <ele>64.2</ele>
        <time>2020-07-01T17:14:02Z</time>
      </trkpt>
      <trkpt lat="48.87324" lon="2.29413">
        <ele>64.2</ele>
        <time>2020-07-01T17:14:03Z</time>
      </trkpt>
      <trkpt lat="48.87324" lon="2.29412">
        <ele>64.2</ele>
        <time>2020-07-01T17:14:04Z</time>
      </trkpt>
      <trkpt lat="48.87323" lon="2.29412">
        <ele>64.2</ele>
        <time>2020-07-01T17:14:05Z</time>
      </trkpt>
      <trkpt lat="48.87322" lon="2.29411">
        <ele>64.2</ele>
        <time>2020-07-01T17:14:06Z</time>
      </trkpt>
      <trkpt lat="48.87322" lon="2.29411">
        <ele>64.3</ele>
        <time>2020-07-01T17:14:07Z</time>
      </trkpt>
      <trkpt lat="48.87321" lon="2.2941">
        <ele>64.3</ele>
        <time>2020-07-01T17:14:08Z</time>
      </trkpt>
      <trkpt lat="48.8732" lon="2.2941">
        <ele>64.3</ele>
        <time>2020-07-01T17:15:26Z</time>
      </trkpt>
      <trkpt lat="48.8732" lon="2.29409">
        <ele>64.3</ele>
        <time>2020-07-01T17:15:27Z</time>
      </trkpt>
      <trkpt lat="48.87319" lon="2.29409">
        <ele>64.3</ele>
        <time>2020-07-01T17:15:28Z</time>
      </trkpt>
      <trkpt lat="48.87318" lon="2.29409">
        <ele>64.3</ele>
        <time>2020-07-01T17:15:29Z</time>
      </trkpt>
      <trkpt lat="48.87318" lon="2.29408">
        <ele>64.3</ele>
        <time>2020-07-01T17:15:30Z</time>
      </trkpt>
      <trkpt lat="48.87317" lon="2.29408">
        <ele>64.4</ele>
        <time>2020-07-01T17:15:31Z</time>
      </trkpt>
      <trkpt lat="48.87316" lon="2.29407">
        <ele>64.4</ele>
        <time>2020-07-01T17:15:32Z</time>
      </trkpt>
      <trkpt lat="48.87316" lon="2.29407">
        <ele>64.4</ele>
        <time>2020-07-01T17:15:33Z</time>
      </trkpt>
      <trkpt lat="48.87317" lon="2.29407">
        <ele>64.4</ele>
        <time>2020-07-01T17:15:34Z</time>
      </trkpt>
      <trkpt lat="48.87317" lon="2.29407">
        <ele>64.4</ele>
        <time>2020-07-01T17:15:35Z</time>
      </trkpt>
      <trkpt lat="48.87317" lon="2.29407">
        <ele>64.4</ele>
        <time>2020-07-01T17:15:36Z</time>
      </trkpt>
      <trkpt lat="48.87318" lon="2.29407">
        <ele>64.4</ele>
        <time>2020-07-01T17:15:37Z</time>
      </trkpt>
      <trkpt lat="48.87318" lon="2.29407">
        <ele>64.4</ele>
        <time>2020-07-01T17:15:38Z</time>
      </trkpt>
      <trkpt lat="48.87319" lon="2.29407">
        <ele>64.4</ele>
        <time>2020-07-01T17:15:39Z</time>
      </trkpt>
      <trkpt lat="48.87319" lon="2.29407">
        <ele>64.4</ele>
        <time>2020-07-01T17:15:40Z</time>
      </trkpt>
      <trkpt lat="48.8732" lon="2.29407">
        <ele>64.4</ele>
        <time>2020-07-01T17:15:41Z</time>
      </trkpt>
      <trkpt lat="48.8732" lon="2.29407">
        <ele>64.5</ele>
        <time>2020-07-01T17:15:42Z</time>
      </trkpt>
      <trkpt lat="48.8732" lon="2.29407">
        <ele>64.5</ele>
        <time>2020-07-01T17:15:43Z</time>
      </trkpt>
      <trkpt lat="48.87321" lon="2.29406">
        <ele>64.5</ele>
        <time>2020-07-01T17:15:44Z</time>
      </trkpt>
      <trkpt lat="48.87321" lon="2.29406">
        <ele>64.5</ele>
        <time>2020-07-01T17:15:45Z</time>
      </trkpt>
      <trkpt lat="48.87321" lon="2.29406">
        <ele>64.5</ele>
        <time>2020-07-01T17:15:46Z</time>
      </trkpt>
      <trkpt lat="48.87321" lon="2.29406">
        <ele>64.5</ele>
        <time>2020-07-01T17:15:47Z</time>
      </trkpt>
      <trkpt lat="48.87321" lon="2.29405">
        <ele>64.5</ele>
        <time>2020-07-01T17:15:48Z</time>
      </trkpt>
      <trkpt lat="48.87316" lon="2.29395">
        <ele>64.6</ele>
        <time>2020-07-01T17:16:52Z</time>
      </trkpt>
      <trkpt lat="48.87316" lon="2.29395">
        <ele>64.7</ele>
        <time>2020-07-01T17:16:53Z</time>
      </trkpt>
      <trkpt lat="48.87317" lon="2.29394">
        <ele>64.7</ele>
        <time>2020-07-01T17:16:54Z</time>
      </trkpt>
      <trkpt lat="48.87317" lon="2.29394">
        <ele>64.7</ele>
        <time>2020-07-01T17:16:55Z</time>
      </trkpt>
      <trkpt lat="48.87317" lon="2.29393">
        <ele>64.7</ele>
        <time>2020-07-01T17:16:56Z</time>
      </trkpt>
      <trkpt lat="48.87317" lon="2.29394">
        <ele>64.7</ele>
        <time>2020-07-01T17:16:57Z</time>
      </trkpt>
      <trkpt lat="48.87317" lon="2.29393">
        <ele>64.7</ele>
        <time>2020-07-01T17:16:58Z</time>
      </trkpt>
      <trkpt lat="48.87317" lon="2.29393">
        <ele>64.7</ele>
        <time>2020-07-01T17:16:59Z</time>
      </trkpt>
      <trkpt lat="48.87317" lon="2.29393">
        <ele>64.7</ele>
        <time>2020-07-01T17:17:00Z</time>
      </trkpt>
      <trkpt lat="48.87317" lon="2.29392">
        <ele>64.7</ele>
        <time>2020-07-01T17:17:01Z</time>
      </trkpt>
      <trkpt lat="48.87317" lon="2.29391">
        <ele>64.7</ele>
        <time>2020-07-01T17:17:02Z</time>
      </trkpt>
      <trkpt lat="48.87316" lon="2.2939">
        <ele>64.7</ele>
        <time>2020-07-01T17:17:03Z</time>
      </trkpt>
      <trkpt lat="48.87316" lon="2.29389">
        <ele>64.7</ele>
        <time>2020-07-01T17:17:04Z</time>
      </trkpt>
      <trkpt lat="48.87316" lon="2.29386">
        <ele>64.8</ele>
        <time>2020-07-01T17:17:05Z</time>
      </trkpt>
      <trkpt lat="48.87316" lon="2.29384">
        <ele>64.8</ele>
        <time>2020-07-01T17:17:06Z</time>
      </trkpt>
      <trkpt lat="48.87316" lon="2.29382">
        <ele>64.8</ele>
        <time>2020-07-01T17:17:07Z</time>
      </trkpt>
      <trkpt lat="48.87316" lon="2.29381">
        <ele>64.8</ele>
        <time>2020-07-01T17:17:08Z</time>
      </trkpt>
      <trkpt lat="48.87316" lon="2.2938">
        <ele>64.9</ele>
        <time>2020-07-01T17:17:09Z</time>
      </trkpt>
      <trkpt lat="48.87316" lon="2.29379">
        <ele>64.9</ele>
        <time>2020-07-01T17:17:10Z</time>
      </trkpt>
      <trkpt lat="48.87315" lon="2.29379">
        <ele>64.9</ele>
        <time>2020-07-01T17:17:11Z</time>
      </trkpt>
      <trkpt lat="48.87315" lon="2.29377">
        <ele>64.9</ele>
        <time>2020-07-01T17:17:12Z</time>
      </trkpt>
      <trkpt lat="48.87314" lon="2.29376">
        <ele>64.9</ele>
        <time>2020-07-01T17:17:13Z</time>
      </trkpt>
      <trkpt lat="48.87313" lon="2.29375">
        <ele>64.9</ele>
        <time>2020-07-01T17:17:14Z</time>
      </trkpt>
      <trkpt lat="48.87312" lon="2.29375">
        <ele>64.9</ele>
        <time>2020-07-01T17:17:15Z</time>
      </trkpt>
      <trkpt lat="48.87312" lon="2.29374">
        <ele>64.9</ele>
        <time>2020-07-01T17:17:16Z</time>
      </trkpt>
      <trkpt lat="48.87312" lon="2.29374">
        <ele>64.9</ele>
        <time>2020-07-01T17:17:17Z</time>
      </trkpt>
      <trkpt lat="48.87311" lon="2.29373">
        <ele>64.9</ele>
        <time>2020-07-01T17:17:18Z</time>
      </trkpt>
      <trkpt lat="48.8731" lon="2.29372">
        <ele>64.9</ele>
        <time>2020-07-01T17:17:19Z</time>
      </trkpt>
      <trkpt lat="48.87309" lon="2.29372">
        <ele>64.9</ele>
        <time>2020-07-01T17:17:20Z</time>
      </trkpt>
      <trkpt lat="48.87309" lon="2.29372">
        <ele>64.9</ele>
        <time>2020-07-01T17:17:21Z</time>
      </trkpt>
      <trkpt lat="48.87309" lon="2.29371">
        <ele>64.9</ele>
        <time>2020-07-01T17:17:22Z</time>
      </trkpt>
      <trkpt lat="48.87308" lon="2.29371">
        <ele>64.9</ele>
        <time>2020-07-01T17:17:23Z</time>
      </trkpt>
      <trkpt lat="48.87308" lon="2.2937">
        <ele>64.8</ele>
        <time>2020-07-01T17:17:24Z</time>
      </trkpt>
      <trkpt lat="48.87308" lon="2.29368">
        <ele>64.8</ele>
        <time>2020-07-01T17:17:25Z</time>
      </trkpt>
      <trkpt lat="48.87307" lon="2.29367">
        <ele>64.8</ele>
        <time>2020-07-01T17:17:26Z</time>
      </trkpt>
      <trkpt lat="48.87307" lon="2.29365">
        <ele>64.8</ele>
        <time>2020-07-01T17:17:27Z</time>
      </trkpt>
      <trkpt lat="48.87307" lon="2.29364">
        <ele>64.8</ele>
        <time>2020-07-01T17:17:28Z</time>
      </trkpt>
      <trkpt lat="48.87307" lon="2.29363">
        <ele>64.8</ele>
        <time>2020-07-01T17:17:29Z</time>
      </trkpt>
      <trkpt lat="48.87307" lon="2.29362">
        <ele>64.8</ele>
        <time>2020-07-01T17:17:30Z</time>
      </trkpt>
      <trkpt lat="48.87307" lon="2.2936">
        <ele>64.8</ele>
        <time>2020-07-01T17:17:31Z</time>
      </trkpt>
      <trkpt lat="48.87307" lon="2.29359">
        <ele>64.8</ele>
        <time>2020-07-01T17:17:32Z</time>
      </trkpt>
      <trkpt lat="48.87307" lon="2.29358">
        <ele>64.8</ele>
        <time>2020-07-01T17:17:33Z</time>
      </trkpt>
      <trkpt lat="48.87306" lon="2.29357">
        <ele>64.8</ele>
        <time>2020-07-01T17:17:34Z</time>
      </trkpt>
      <trkpt lat="48.87306" lon="2.29357">
        <ele>64.8</ele>
        <time>2020-07-01T17:17:35Z</time>
      </trkpt>
      <trkpt lat="48.87305" lon="2.29357">
        <ele>64.8</ele>
        <time>2020-07-01T17:17:36Z</time>
      </trkpt>
      <trkpt lat="48.87306" lon="2.29357">
        <ele>64.7</ele>
        <time>2020-07-01T17:17:37Z</time>
      </trkpt>
      <trkpt lat="48.87303" lon="2.29358">
        <ele>64.7</ele>
        <time>2020-07-01T17:17:38Z</time>
      </trkpt>
      <trkpt lat="48.87304" lon="2.29358">
        <ele>64.7</ele>
        <time>2020-07-01T17:17:39Z</time>
      </trkpt>
      <trkpt lat="48.87304" lon="2.29359">
        <ele>64.7</ele>
        <time>2020-07-01T17:17:40Z</time>
      </trkpt>
      <trkpt lat="48.87303" lon="2.29359">
        <ele>64.7</ele>
        <time>2020-07-01T17:17:41Z</time>
      </trkpt>
      <trkpt lat="48.87303" lon="2.29359">
        <ele>64.7</ele>
        <time>2020-07-01T17:17:42Z</time>
      </trkpt>
      <trkpt lat="48.87303" lon="2.29359">
        <ele>64.7</ele>
        <time>2020-07-01T17:17:43Z</time>
      </trkpt>
      <trkpt lat="48.87303" lon="2.29358">
        <ele>64.7</ele>
        <time>2020-07-01T17:17:44Z</time>
      </trkpt>
      <trkpt lat="48.87302" lon="2.29357">
        <ele>64.7</ele>
        <time>2020-07-01T17:17:45Z</time>
      </trkpt>
      <trkpt lat="48.87302" lon="2.29357">
        <ele>64.7</ele>
        <time>2020-07-01T17:17:46Z</time>
      </trkpt>
      <trkpt lat="48.87302" lon="2.29354">
        <ele>64.7</ele>
        <time>2020-07-01T17:17:47Z</time>
      </trkpt>
      <trkpt lat="48.87302" lon="2.29352">
        <ele>64.7</ele>
        <time>2020-07-01T17:17:48Z</time>
      </trkpt>
      <trkpt lat="48.87301" lon="2.29351">
        <ele>64.7</ele>
        <time>2020-07-01T17:17:49Z</time>
      </trkpt>
      <trkpt lat="48.87301" lon="2.2935">
        <ele>64.6</ele>
        <time>2020-07-01T17:17:50Z</time>
      </trkpt>
      <trkpt lat="48.873" lon="2.29349">
        <ele>64.6</ele>
        <time>2020-07-01T17:17:51Z</time>
      </trkpt>
      <trkpt lat="48.873" lon="2.29349">
        <ele>64.6</ele>
        <time>2020-07-01T17:17:52Z</time>
      </trkpt>
      <trkpt lat="48.873" lon="2.29349">
        <ele>64.6</ele>
        <time>2020-07-01T17:17:53Z</time>
      </trkpt>
      <trkpt lat="48.87299" lon="2.29348">
        <ele>64.6</ele>
        <time>2020-07-01T17:17:54Z</time>
      </trkpt>
      <trkpt lat="48.87299" lon="2.29347">
        <ele>64.6</ele>
        <time>2020-07-01T17:17:55Z</time>
      </trkpt>
      <trkpt lat="48.87299" lon="2.29346">
        <ele>64.6</ele>
        <time>2020-07-01T17:17:56Z</time>
      </trkpt>
      <trkpt lat="48.87299" lon="2.29345">
        <ele>64.6</ele>
        <time>2020-07-01T17:17:57Z</time>
      </trkpt>
      <trkpt lat="48.87299" lon="2.29343">
        <ele>64.6</ele>
        <time>2020-07-01T17:17:58Z</time>
      </trkpt>
      <trkpt lat="48.87299" lon="2.29341">
        <ele>64.6</ele>
        <time>2020-07-01T17:17:59Z</time>
      </trkpt>
      <trkpt lat="48.87298" lon="2.29339">
        <ele>64.6</ele>
        <time>2020-07-01T17:18:00Z</time>
      </trkpt>
      <trkpt lat="48.87298" lon="2.29339">
        <ele>64.6</ele>
        <time>2020-07-01T17:18:01Z</time>
      </trkpt>
      <trkpt lat="48.87297" lon="2.29338">
        <ele>64.6</ele>
        <time>2020-07-01T17:18:02Z</time>
      </trkpt>
      <trkpt lat="48.87297" lon="2.29337">
        <ele>64.6</ele>
        <time>2020-07-01T17:18:03Z</time>
      </trkpt>
      <trkpt lat="48.87297" lon="2.29337">
        <ele>64.6</ele>
        <time>2020-07-01T17:18:04Z</time>
      </trkpt>
      <trkpt lat="48.87297" lon="2.29336">
        <ele>64.6</ele>
        <time>2020-07-01T17:18:05Z</time>
      </trkpt>
      <trkpt lat="48.87297" lon="2.29335">
        <ele>64.6</ele>
        <time>2020-07-01T17:18:06Z</time>
      </trkpt>
      <trkpt lat="48.87297" lon="2.29335">
        <ele>64.6</ele>
        <time>2020-07-01T17:18:07Z</time>
      </trkpt>
      <trkpt lat="48.87298" lon="2.29335">
        <ele>64.5</ele>
        <time>2020-07-01T17:18:08Z</time>
      </trkpt>
      <trkpt lat="48.87298" lon="2.29334">
        <ele>64.5</ele>
        <time>2020-07-01T17:18:09Z</time>
      </trkpt>
      <trkpt lat="48.87298" lon="2.29334">
        <ele>64.5</ele>
        <time>2020-07-01T17:18:10Z</time>
      </trkpt>
      <trkpt lat="48.87299" lon="2.29333">
        <ele>64.5</ele>
        <time>2020-07-01T17:18:11Z</time>
      </trkpt>
      <trkpt lat="48.87299" lon="2.29333">
        <ele>64.5</ele>
        <time>2020-07-01T17:18:12Z</time>
      </trkpt>
      <trkpt lat="48.87298" lon="2.29332">
        <ele>64.5</ele>
        <time>2020-07-01T17:18:13Z</time>
      </trkpt>
      <trkpt lat="48.87298" lon="2.2933">
        <ele>64.5</ele>
        <time>2020-07-01T17:18:14Z</time>
      </trkpt>
      <trkpt lat="48.87297" lon="2.29328">
        <ele>64.5</ele>
        <time>2020-07-01T17:18:15Z</time>
      </trkpt>
      <trkpt lat="48.87298" lon="2.29328">
        <ele>64.5</ele>
        <time>2020-07-01T17:18:16Z</time>
      </trkpt>
      <trkpt lat="48.87298" lon="2.29327">
        <ele>64.5</ele>
        <time>2020-07-01T17:18:17Z</time>
      </trkpt>
      <trkpt lat="48.87298" lon="2.29327">
        <ele>64.5</ele>
        <time>2020-07-01T17:18:18Z</time>
      </trkpt>
      <trkpt lat="48.87298" lon="2.29326">
        <ele>64.5</ele>
        <time>2020-07-01T17:18:19Z</time>
      </trkpt>
      <trkpt lat="48.87297" lon="2.29322">
        <ele>64.5</ele>
        <time>2020-07-01T17:18:20Z</time>
      </trkpt>
      <trkpt lat="48.87296" lon="2.29321">
        <ele>64.5</ele>
        <time>2020-07-01T17:18:21Z</time>
      </trkpt>
      <trkpt lat="48.87296" lon="2.29319">
        <ele>64.5</ele>
        <time>2020-07-01T17:18:22Z</time>
      </trkpt>
      <trkpt lat="48.87296" lon="2.29317">
        <ele>64.4</ele>
        <time>2020-07-01T17:18:23Z</time>
      </trkpt>
      <trkpt lat="48.87295" lon="2.29316">
        <ele>64.4</ele>
        <time>2020-07-01T17:18:24Z</time>
      </trkpt>
      <trkpt lat="48.87295" lon="2.29315">
        <ele>64.4</ele>
        <time>2020-07-01T17:18:25Z</time>
      </trkpt>
      <trkpt lat="48.87294" lon="2.29313">
        <ele>64.5</ele>
        <time>2020-07-01T17:18:26Z</time>
      </trkpt>
      <trkpt lat="48.87293" lon="2.29312">
        <ele>64.6</ele>
        <time>2020-07-01T17:18:27Z</time>
      </trkpt>
      <trkpt lat="48.87293" lon="2.29311">
        <ele>64.6</ele>
        <time>2020-07-01T17:18:28Z</time>
      </trkpt>
      <trkpt lat="48.87293" lon="2.29311">
        <ele>64.6</ele>
        <time>2020-07-01T17:18:29Z</time>
      </trkpt>
      <trkpt lat="48.87293" lon="2.2931">
        <ele>64.6</ele>
        <time>2020-07-01T17:18:30Z</time>
      </trkpt>
      <trkpt lat="48.87293" lon="2.29308">
        <ele>64.6</ele>
        <time>2020-07-01T17:18:31Z</time>
      </trkpt>
      <trkpt lat="48.87295" lon="2.29308">
        <ele>64.7</ele>
        <time>2020-07-01T17:18:32Z</time>
      </trkpt>
      <trkpt lat="48.87295" lon="2.29307">
        <ele>64.7</ele>
        <time>2020-07-01T17:18:33Z</time>
      </trkpt>
      <trkpt lat="48.87295" lon="2.29305">
        <ele>64.7</ele>
        <time>2020-07-01T17:18:34Z</time>
      </trkpt>
      <trkpt lat="48.87296" lon="2.29302">
        <ele>64.8</ele>
        <time>2020-07-01T17:18:35Z</time>
      </trkpt>
      <trkpt lat="48.87296" lon="2.293">
        <ele>64.8</ele>
        <time>2020-07-01T17:18:36Z</time>
      </trkpt>
      <trkpt lat="48.87297" lon="2.29299">
        <ele>64.8</ele>
        <time>2020-07-01T17:18:37Z</time>
      </trkpt>
      <trkpt lat="48.87297" lon="2.29296">
        <ele>64.8</ele>
        <time>2020-07-01T17:18:38Z</time>
      </trkpt>
      <trkpt lat="48.87297" lon="2.29295">
        <ele>64.9</ele>
        <time>2020-07-01T17:18:39Z</time>
      </trkpt>
      <trkpt lat="48.87298" lon="2.29292">
        <ele>64.9</ele>
        <time>2020-07-01T17:18:40Z</time>
      </trkpt>
      <trkpt lat="48.87298" lon="2.2929">
        <ele>64.9</ele>
        <time>2020-07-01T17:18:41Z</time>
      </trkpt>
      <trkpt lat="48.87298" lon="2.29289">
        <ele>64.9</ele>
        <time>2020-07-01T17:18:42Z</time>
      </trkpt>
      <trkpt lat="48.87299" lon="2.29287">
        <ele>65</ele>
        <time>2020-07-01T17:18:43Z</time>
      </trkpt>
      <trkpt lat="48.87299" lon="2.29285">
        <ele>65</ele>
        <time>2020-07-01T17:18:44Z</time>
      </trkpt>
      <trkpt lat="48.87299" lon="2.29285">
        <ele>65</ele>
        <time>2020-07-01T17:18:45Z</time>
      </trkpt>
      <trkpt lat="48.87299" lon="2.29284">
        <ele>65</ele>
        <time>2020-07-01T17:18:46Z</time>
      </trkpt>
      <trkpt lat="48.87299" lon="2.29281">
        <ele>65</ele>
        <time>2020-07-01T17:18:47Z</time>
      </trkpt>
      <trkpt lat="48.87299" lon="2.2928">
        <ele>65</ele>
        <time>2020-07-01T17:18:48Z</time>
      </trkpt>
      <trkpt lat="48.873" lon="2.29278">
        <ele>65.1</ele>
        <time>2020-07-01T17:18:49Z</time>
      </trkpt>
      <trkpt lat="48.87299" lon="2.29277">
        <ele>65.1</ele>
        <time>2020-07-01T17:18:50Z</time>
      </trkpt>
      <trkpt lat="48.87299" lon="2.29275">
        <ele>65.1</ele>
        <time>2020-07-01T17:18:51Z</time>
      </trkpt>
      <trkpt lat="48.87299" lon="2.29275">
        <ele>65.1</ele>
        <time>2020-07-01T17:18:52Z</time>
      </trkpt>
      <trkpt lat="48.87299" lon="2.29274">
        <ele>65.1</ele>
        <time>2020-07-01T17:18:53Z</time>
      </trkpt>
      <trkpt lat="48.87299" lon="2.29274">
        <ele>65.1</ele>
        <time>2020-07-01T17:18:54Z</time>
      </trkpt>
      <trkpt lat="48.87299" lon="2.29273">
        <ele>65.1</ele>
        <time>2020-07-01T17:18:55Z</time>
      </trkpt>
      <trkpt lat="48.87299" lon="2.29273">
        <ele>65.1</ele>
        <time>2020-07-01T17:18:56Z</time>
      </trkpt>
      <trkpt lat="48.87299" lon="2.29272">
        <ele>65.1</ele>
        <time>2020-07-01T17:18:57Z</time>
      </trkpt>
      <trkpt lat="48.873" lon="2.29271">
        <ele>65.2</ele>
        <time>2020-07-01T17:18:58Z</time>
      </trkpt>
      <trkpt lat="48.873" lon="2.2927">
        <ele>65.2</ele>
        <time>2020-07-01T17:18:59Z</time>
      </trkpt>
      <trkpt lat="48.873" lon="2.29269">
        <ele>65.2</ele>
        <time>2020-07-01T17:19:00Z</time>
      </trkpt>
      <trkpt lat="48.873" lon="2.29268">
        <ele>65.2</ele>
        <time>2020-07-01T17:19:01Z</time>
      </trkpt>
      <trkpt lat="48.873" lon="2.29267">
        <ele>65.2</ele>
        <time>2020-07-01T17:19:02Z</time>
      </trkpt>
      <trkpt lat="48.873" lon="2.29266">
        <ele>65.2</ele>
        <time>2020-07-01T17:19:03Z</time>
      </trkpt>
      <trkpt lat="48.873" lon="2.29266">
        <ele>65.2</ele>
        <time>2020-07-01T17:19:04Z</time>
      </trkpt>
      <trkpt lat="48.873" lon="2.29265">
        <ele>65.2</ele>
        <time>2020-07-01T17:19:05Z</time>
      </trkpt>
      <trkpt lat="48.873" lon="2.29263">
        <ele>65.3</ele>
        <time>2020-07-01T17:19:06Z</time>
      </trkpt>
      <trkpt lat="48.87299" lon="2.29262">
        <ele>65.3</ele>
        <time>2020-07-01T17:19:07Z</time>
      </trkpt>
      <trkpt lat="48.87299" lon="2.29259">
        <ele>65.3</ele>
        <time>2020-07-01T17:19:08Z</time>
      </trkpt>
      <trkpt lat="48.87298" lon="2.29257">
        <ele>65.3</ele>
        <time>2020-07-01T17:19:09Z</time>
      </trkpt>
      <trkpt lat="48.87297" lon="2.29256">
        <ele>65.4</ele>
        <time>2020-07-01T17:19:10Z</time>
      </trkpt>
      <trkpt lat="48.87297" lon="2.29253">
        <ele>65.4</ele>
        <time>2020-07-01T17:19:11Z</time>
      </trkpt>
      <trkpt lat="48.87296" lon="2.29251">
        <ele>65.4</ele>
        <time>2020-07-01T17:19:12Z</time>
      </trkpt>
      <trkpt lat="48.87296" lon="2.2925">
        <ele>65.4</ele>
        <time>2020-07-01T17:19:13Z</time>
      </trkpt>
      <trkpt lat="48.87295" lon="2.2925">
        <ele>65.5</ele>
        <time>2020-07-01T17:19:14Z</time>
      </trkpt>
      <trkpt lat="48.87294" lon="2.29248">
        <ele>65.5</ele>
        <time>2020-07-01T17:19:15Z</time>
      </trkpt>
      <trkpt lat="48.87293" lon="2.29247">
        <ele>65.5</ele>
        <time>2020-07-01T17:19:16Z</time>
      </trkpt>
      <trkpt lat="48.87292" lon="2.29247">
        <ele>65.5</ele>
        <time>2020-07-01T17:19:17Z</time>
      </trkpt>
      <trkpt lat="48.87292" lon="2.29246">
        <ele>65.5</ele>
        <time>2020-07-01T17:19:18Z</time>
      </trkpt>
      <trkpt lat="48.87291" lon="2.29245">
        <ele>65.6</ele>
        <time>2020-07-01T17:19:19Z</time>
      </trkpt>
      <trkpt lat="48.8729" lon="2.29244">
        <ele>65.6</ele>
        <time>2020-07-01T17:19:20Z</time>
      </trkpt>
      <trkpt lat="48.8729" lon="2.29243">
        <ele>65.6</ele>
        <time>2020-07-01T17:19:21Z</time>
      </trkpt>
      <trkpt lat="48.8729" lon="2.29242">
        <ele>65.6</ele>
        <time>2020-07-01T17:19:22Z</time>
      </trkpt>
      <trkpt lat="48.8729" lon="2.2924">
        <ele>65.6</ele>
        <time>2020-07-01T17:19:23Z</time>
      </trkpt>
      <trkpt lat="48.87289" lon="2.29238">
        <ele>65.6</ele>
        <time>2020-07-01T17:19:24Z</time>
      </trkpt>
      <trkpt lat="48.87289" lon="2.29237">
        <ele>65.7</ele>
        <time>2020-07-01T17:19:25Z</time>
      </trkpt>
      <trkpt lat="48.87289" lon="2.29236">
        <ele>65.7</ele>
        <time>2020-07-01T17:19:26Z</time>
      </trkpt>
      <trkpt lat="48.87289" lon="2.29236">
        <ele>65.7</ele>
        <time>2020-07-01T17:19:27Z</time>
      </trkpt>
      <trkpt lat="48.87288" lon="2.29235">
        <ele>65.7</ele>
        <time>2020-07-01T17:19:28Z</time>
      </trkpt>
      <trkpt lat="48.87288" lon="2.29235">
        <ele>65.7</ele>
        <time>2020-07-01T17:19:29Z</time>
      </trkpt>
      <trkpt lat="48.87288" lon="2.29236">
        <ele>65.7</ele>
        <time>2020-07-01T17:19:30Z</time>
      </trkpt>
      <trkpt lat="48.87288" lon="2.29235">
        <ele>65.7</ele>
        <time>2020-07-01T17:19:31Z</time>
      </trkpt>
      <trkpt lat="48.87288" lon="2.29234">
        <ele>65.7</ele>
        <time>2020-07-01T17:19:32Z</time>
      </trkpt>
      <trkpt lat="48.87288" lon="2.29234">
        <ele>65.7</ele>
        <time>2020-07-01T17:19:33Z</time>
      </trkpt>
      <trkpt lat="48.87287" lon="2.29234">
        <ele>65.8</ele>
        <time>2020-07-01T17:19:34Z</time>
      </trkpt>
      <trkpt lat="48.87286" lon="2.29236">
        <ele>65.8</ele>
        <time>2020-07-01T17:19:35Z</time>
      </trkpt>
      <trkpt lat="48.87285" lon="2.29235">
        <ele>65.8</ele>
        <time>2020-07-01T17:19:36Z</time>
      </trkpt>
      <trkpt lat="48.87284" lon="2.29235">
        <ele>65.8</ele>
        <time>2020-07-01T17:19:37Z</time>
      </trkpt>
      <trkpt lat="48.87284" lon="2.29233">
        <ele>65.9</ele>
        <time>2020-07-01T17:19:38Z</time>
      </trkpt>
      <trkpt lat="48.87284" lon="2.29232">
        <ele>65.9</ele>
        <time>2020-07-01T17:19:39Z</time>
      </trkpt>
      <trkpt lat="48.87284" lon="2.29231">
        <ele>65.9</ele>
        <time>2020-07-01T17:19:40Z</time>
      </trkpt>
      <trkpt lat="48.87284" lon="2.2923">
        <ele>65.9</ele>
        <time>2020-07-01T17:19:41Z</time>
      </trkpt>
      <trkpt lat="48.87284" lon="2.29227">
        <ele>65.9</ele>
        <time>2020-07-01T17:19:42Z</time>
      </trkpt>
      <trkpt lat="48.87284" lon="2.29227">
        <ele>65.9</ele>
        <time>2020-07-01T17:19:43Z</time>
      </trkpt>
      <trkpt lat="48.87285" lon="2.29224">
        <ele>66</ele>
        <time>2020-07-01T17:19:44Z</time>
      </trkpt>
      <trkpt lat="48.87285" lon="2.29223">
        <ele>66</ele>
        <time>2020-07-01T17:19:45Z</time>
      </trkpt>
      <trkpt lat="48.87285" lon="2.29222">
        <ele>66</ele>
        <time>2020-07-01T17:19:46Z</time>
      </trkpt>
      <trkpt lat="48.87285" lon="2.29221">
        <ele>66</ele>
        <time>2020-07-01T17:19:47Z</time>
      </trkpt>
      <trkpt lat="48.87285" lon="2.29218">
        <ele>66.1</ele>
        <time>2020-07-01T17:19:48Z</time>
      </trkpt>
      <trkpt lat="48.87286" lon="2.29216">
        <ele>66.1</ele>
        <time>2020-07-01T17:19:49Z</time>
      </trkpt>
      <trkpt lat="48.87286" lon="2.29216">
        <ele>66.1</ele>
        <time>2020-07-01T17:19:50Z</time>
      </trkpt>
      <trkpt lat="48.87286" lon="2.29216">
        <ele>66.1</ele>
        <time>2020-07-01T17:19:51Z</time>
      </trkpt>
      <trkpt lat="48.87285" lon="2.29215">
        <ele>66.1</ele>
        <time>2020-07-01T17:19:52Z</time>
      </trkpt>
      <trkpt lat="48.87285" lon="2.29215">
        <ele>66.1</ele>
        <time>2020-07-01T17:19:53Z</time>
      </trkpt>
      <trkpt lat="48.87284" lon="2.29213">
        <ele>66.1</ele>
        <time>2020-07-01T17:19:54Z</time>
      </trkpt>
      <trkpt lat="48.87284" lon="2.29212">
        <ele>66.1</ele>
        <time>2020-07-01T17:19:55Z</time>
      </trkpt>
      <trkpt lat="48.87284" lon="2.29212">
        <ele>66.2</ele>
        <time>2020-07-01T17:19:56Z</time>
      </trkpt>
      <trkpt lat="48.87283" lon="2.29211">
        <ele>66.2</ele>
        <time>2020-07-01T17:19:57Z</time>
      </trkpt>
      <trkpt lat="48.87283" lon="2.29209">
        <ele>66.2</ele>
        <time>2020-07-01T17:19:58Z</time>
      </trkpt>
      <trkpt lat="48.87282" lon="2.29208">
        <ele>66.2</ele>
        <time>2020-07-01T17:19:59Z</time>
      </trkpt>
      <trkpt lat="48.87281" lon="2.29207">
        <ele>66.2</ele>
        <time>2020-07-01T17:20:00Z</time>
      </trkpt>
      <trkpt lat="48.87281" lon="2.29206">
        <ele>66.2</ele>
        <time>2020-07-01T17:20:01Z</time>
      </trkpt>
      <trkpt lat="48.8728" lon="2.29205">
        <ele>66.3</ele>
        <time>2020-07-01T17:20:02Z</time>
      </trkpt>
      <trkpt lat="48.8728" lon="2.29205">
        <ele>66.3</ele>
        <time>2020-07-01T17:20:03Z</time>
      </trkpt>
      <trkpt lat="48.87279" lon="2.29204">
        <ele>66.3</ele>
        <time>2020-07-01T17:20:04Z</time>
      </trkpt>
      <trkpt lat="48.87279" lon="2.29202">
        <ele>66.3</ele>
        <time>2020-07-01T17:20:05Z</time>
      </trkpt>
      <trkpt lat="48.87279" lon="2.29199">
        <ele>66.3</ele>
        <time>2020-07-01T17:20:06Z</time>
      </trkpt>
      <trkpt lat="48.87277" lon="2.29197">
        <ele>66.4</ele>
        <time>2020-07-01T17:20:07Z</time>
      </trkpt>
      <trkpt lat="48.87277" lon="2.29196">
        <ele>66.4</ele>
        <time>2020-07-01T17:20:08Z</time>
      </trkpt>
      <trkpt lat="48.87276" lon="2.29194">
        <ele>66.4</ele>
        <time>2020-07-01T17:20:09Z</time>
      </trkpt>
      <trkpt lat="48.87274" lon="2.29192">
        <ele>66.4</ele>
        <time>2020-07-01T17:20:10Z</time>
      </trkpt>
      <trkpt lat="48.87273" lon="2.29192">
        <ele>66.5</ele>
        <time>2020-07-01T17:20:11Z</time>
      </trkpt>
      <trkpt lat="48.87272" lon="2.29189">
        <ele>66.5</ele>
        <time>2020-07-01T17:20:12Z</time>
      </trkpt>
      <trkpt lat="48.87271" lon="2.29187">
        <ele>66.5</ele>
        <time>2020-07-01T17:20:13Z</time>
      </trkpt>
      <trkpt lat="48.87271" lon="2.29186">
        <ele>66.5</ele>
        <time>2020-07-01T17:20:14Z</time>
      </trkpt>
      <trkpt lat="48.8727" lon="2.29182">
        <ele>66.6</ele>
        <time>2020-07-01T17:20:15Z</time>
      </trkpt>
      <trkpt lat="48.87269" lon="2.29181">
        <ele>66.6</ele>
        <time>2020-07-01T17:20:16Z</time>
      </trkpt>
      <trkpt lat="48.87268" lon="2.29178">
        <ele>66.6</ele>
        <time>2020-07-01T17:20:17Z</time>
      </trkpt>
      <trkpt lat="48.87267" lon="2.29177">
        <ele>66.6</ele>
        <time>2020-07-01T17:20:18Z</time>
      </trkpt>
      <trkpt lat="48.87265" lon="2.29173">
        <ele>66.7</ele>
        <time>2020-07-01T17:20:19Z</time>
      </trkpt>
      <trkpt lat="48.87264" lon="2.29172">
        <ele>66.7</ele>
        <time>2020-07-01T17:20:20Z</time>
      </trkpt>
      <trkpt lat="48.87263" lon="2.2917">
        <ele>66.7</ele>
        <time>2020-07-01T17:20:21Z</time>
      </trkpt>
      <trkpt lat="48.87262" lon="2.29169">
        <ele>66.7</ele>
        <time>2020-07-01T17:20:22Z</time>
      </trkpt>
      <trkpt lat="48.87262" lon="2.29168">
        <ele>66.7</ele>
        <time>2020-07-01T17:20:23Z</time>
      </trkpt>
      <trkpt lat="48.8726" lon="2.29164">
        <ele>66.8</ele>
        <time>2020-07-01T17:20:24Z</time>
      </trkpt>
      <trkpt lat="48.87259" lon="2.29163">
        <ele>66.8</ele>
        <time>2020-07-01T17:20:25Z</time>
      </trkpt>
      <trkpt lat="48.87257" lon="2.2916">
        <ele>66.8</ele>
        <time>2020-07-01T17:20:26Z</time>
      </trkpt>
      <trkpt lat="48.87255" lon="2.29157">
        <ele>66.8</ele>
        <time>2020-07-01T17:20:27Z</time>
      </trkpt>
      <trkpt lat="48.87255" lon="2.29156">
        <ele>66.9</ele>
        <time>2020-07-01T17:20:28Z</time>
      </trkpt>
      <trkpt lat="48.87254" lon="2.29154">
        <ele>66.9</ele>
        <time>2020-07-01T17:20:29Z</time>
      </trkpt>
      <trkpt lat="48.87254" lon="2.29153">
        <ele>66.9</ele>
        <time>2020-07-01T17:20:30Z</time>
      </trkpt>
      <trkpt lat="48.87253" lon="2.29152">
        <ele>66.9</ele>
        <time>2020-07-01T17:20:31Z</time>
      </trkpt>
      <trkpt lat="48.87251" lon="2.29149">
        <ele>66.9</ele>
        <time>2020-07-01T17:20:32Z</time>
      </trkpt>
      <trkpt lat="48.87251" lon="2.29148">
        <ele>67</ele>
        <time>2020-07-01T17:20:33Z</time>
      </trkpt>
      <trkpt lat="48.8725" lon="2.29146">
        <ele>67</ele>
        <time>2020-07-01T17:20:34Z</time>
      </trkpt>
      <trkpt lat="48.87249" lon="2.29143">
        <ele>67</ele>
        <time>2020-07-01T17:20:35Z</time>
      </trkpt>
      <trkpt lat="48.87249" lon="2.29142">
        <ele>67</ele>
        <time>2020-07-01T17:20:36Z</time>
      </trkpt>
      <trkpt lat="48.87248" lon="2.29141">
        <ele>67</ele>
        <time>2020-07-01T17:20:37Z</time>
      </trkpt>
      <trkpt lat="48.87247" lon="2.2914">
        <ele>67</ele>
        <time>2020-07-01T17:20:38Z</time>
      </trkpt>
      <trkpt lat="48.87246" lon="2.29139">
        <ele>67.1</ele>
        <time>2020-07-01T17:20:39Z</time>
      </trkpt>
      <trkpt lat="48.87245" lon="2.29138">
        <ele>67.1</ele>
        <time>2020-07-01T17:20:40Z</time>
      </trkpt>
      <trkpt lat="48.87243" lon="2.29135">
        <ele>67.1</ele>
        <time>2020-07-01T17:20:41Z</time>
      </trkpt>
      <trkpt lat="48.87242" lon="2.29134">
        <ele>67.1</ele>
        <time>2020-07-01T17:20:42Z</time>
      </trkpt>
      <trkpt lat="48.87241" lon="2.29132">
        <ele>67.2</ele>
        <time>2020-07-01T17:20:43Z</time>
      </trkpt>
      <trkpt lat="48.8724" lon="2.29131">
        <ele>67.2</ele>
        <time>2020-07-01T17:20:44Z</time>
      </trkpt>
      <trkpt lat="48.87238" lon="2.29129">
        <ele>67.2</ele>
        <time>2020-07-01T17:20:45Z</time>
      </trkpt>
      <trkpt lat="48.87237" lon="2.29128">
        <ele>67.2</ele>
        <time>2020-07-01T17:20:46Z</time>
      </trkpt>
      <trkpt lat="48.87236" lon="2.29127">
        <ele>67.2</ele>
        <time>2020-07-01T17:20:47Z</time>
      </trkpt>
      <trkpt lat="48.87235" lon="2.29126">
        <ele>67.2</ele>
        <time>2020-07-01T17:20:48Z</time>
      </trkpt>
      <trkpt lat="48.87235" lon="2.29125">
        <ele>67.2</ele>
        <time>2020-07-01T17:20:49Z</time>
      </trkpt>
      <trkpt lat="48.87234" lon="2.29123">
        <ele>67.3</ele>
        <time>2020-07-01T17:20:50Z</time>
      </trkpt>
      <trkpt lat="48.87233" lon="2.29122">
        <ele>67.3</ele>
        <time>2020-07-01T17:20:51Z</time>
      </trkpt>
      <trkpt lat="48.87233" lon="2.29121">
        <ele>67.3</ele>
        <time>2020-07-01T17:20:52Z</time>
      </trkpt>
      <trkpt lat="48.87232" lon="2.2912">
        <ele>67.3</ele>
        <time>2020-07-01T17:20:53Z</time>
      </trkpt>
      <trkpt lat="48.87231" lon="2.29117">
        <ele>67.3</ele>
        <time>2020-07-01T17:20:54Z</time>
      </trkpt>
      <trkpt lat="48.87231" lon="2.29116">
        <ele>67.3</ele>
        <time>2020-07-01T17:20:55Z</time>
      </trkpt>
      <trkpt lat="48.87231" lon="2.29115">
        <ele>67.3</ele>
        <time>2020-07-01T17:20:56Z</time>
      </trkpt>
      <trkpt lat="48.8723" lon="2.29112">
        <ele>67.3</ele>
        <time>2020-07-01T17:20:57Z</time>
      </trkpt>
      <trkpt lat="48.87229" lon="2.29111">
        <ele>67.4</ele>
        <time>2020-07-01T17:20:58Z</time>
      </trkpt>
      <trkpt lat="48.87228" lon="2.29109">
        <ele>67.4</ele>
        <time>2020-07-01T17:20:59Z</time>
      </trkpt>
      <trkpt lat="48.87227" lon="2.29108">
        <ele>67.4</ele>
        <time>2020-07-01T17:21:00Z</time>
      </trkpt>
      <trkpt lat="48.87227" lon="2.29107">
        <ele>67.4</ele>
        <time>2020-07-01T17:21:01Z</time>
      </trkpt>
      <trkpt lat="48.87227" lon="2.29107">
        <ele>67.4</ele>
        <time>2020-07-01T17:21:02Z</time>
      </trkpt>
      <trkpt lat="48.87226" lon="2.29106">
        <ele>67.4</ele>
        <time>2020-07-01T17:21:03Z</time>
      </trkpt>
      <trkpt lat="48.87225" lon="2.29104">
        <ele>67.4</ele>
        <time>2020-07-01T17:21:04Z</time>
      </trkpt>
      <trkpt lat="48.87223" lon="2.29099">
        <ele>67.5</ele>
        <time>2020-07-01T17:21:05Z</time>
      </trkpt>
      <trkpt lat="48.87223" lon="2.29098">
        <ele>67.5</ele>
        <time>2020-07-01T17:21:06Z</time>
      </trkpt>
      <trkpt lat="48.87222" lon="2.29096">
        <ele>67.5</ele>
        <time>2020-07-01T17:21:07Z</time>
      </trkpt>
      <trkpt lat="48.87222" lon="2.29095">
        <ele>67.5</ele>
        <time>2020-07-01T17:21:08Z</time>
      </trkpt>
      <trkpt lat="48.87222" lon="2.29094">
        <ele>67.5</ele>
        <time>2020-07-01T17:21:09Z</time>
      </trkpt>
      <trkpt lat="48.87221" lon="2.29093">
        <ele>67.5</ele>
        <time>2020-07-01T17:21:10Z</time>
      </trkpt>
      <trkpt lat="48.87221" lon="2.29091">
        <ele>67.5</ele>
        <time>2020-07-01T17:21:11Z</time>
      </trkpt>
      <trkpt lat="48.87221" lon="2.29091">
        <ele>67.5</ele>
        <time>2020-07-01T17:21:12Z</time>
      </trkpt>
      <trkpt lat="48.8722" lon="2.2909">
        <ele>67.5</ele>
        <time>2020-07-01T17:21:13Z</time>
      </trkpt>
      <trkpt lat="48.8722" lon="2.29089">
        <ele>67.5</ele>
        <time>2020-07-01T17:21:14Z</time>
      </trkpt>
      <trkpt lat="48.8722" lon="2.29088">
        <ele>67.5</ele>
        <time>2020-07-01T17:21:15Z</time>
      </trkpt>
      <trkpt lat="48.8722" lon="2.29087">
        <ele>67.6</ele>
        <time>2020-07-01T17:21:16Z</time>
      </trkpt>
      <trkpt lat="48.8722" lon="2.29087">
        <ele>67.6</ele>
        <time>2020-07-01T17:21:17Z</time>
      </trkpt>
      <trkpt lat="48.87219" lon="2.29087">
        <ele>67.6</ele>
        <time>2020-07-01T17:21:18Z</time>
      </trkpt>
      <trkpt lat="48.87219" lon="2.29087">
        <ele>67.6</ele>
        <time>2020-07-01T17:21:19Z</time>
      </trkpt>
      <trkpt lat="48.87218" lon="2.29088">
        <ele>67.6</ele>
        <time>2020-07-01T17:21:20Z</time>
      </trkpt>
      <trkpt lat="48.87218" lon="2.29088">
        <ele>67.6</ele>
        <time>2020-07-01T17:21:21Z</time>
      </trkpt>
      <trkpt lat="48.87218" lon="2.29088">
        <ele>67.6</ele>
        <time>2020-07-01T17:21:22Z</time>
      </trkpt>
      <trkpt lat="48.87218" lon="2.29088">
        <ele>67.6</ele>
        <time>2020-07-01T17:21:23Z</time>
      </trkpt>
      <trkpt lat="48.87217" lon="2.29088">
        <ele>67.6</ele>
        <time>2020-07-01T17:21:24Z</time>
      </trkpt>
      <trkpt lat="48.87217" lon="2.29087">
        <ele>67.6</ele>
        <time>2020-07-01T17:21:25Z</time>
      </trkpt>
      <trkpt lat="48.87217" lon="2.29087">
        <ele>67.6</ele>
        <time>2020-07-01T17:21:26Z</time>
      </trkpt>
      <trkpt lat="48.87216" lon="2.29087">
        <ele>67.6</ele>
        <time>2020-07-01T17:21:27Z</time>
      </trkpt>
      <trkpt lat="48.87216" lon="2.29086">
        <ele>67.6</ele>
        <time>2020-07-01T17:21:28Z</time>
      </trkpt>
      <trkpt lat="48.87216" lon="2.29086">
        <ele>67.6</ele>
        <time>2020-07-01T17:21:29Z</time>
      </trkpt>
      <trkpt lat="48.87216" lon="2.29086">
        <ele>67.6</ele>
        <time>2020-07-01T17:21:30Z</time>
      </trkpt>
      <trkpt lat="48.87215" lon="2.29086">
        <ele>67.6</ele>
        <time>2020-07-01T17:21:31Z</time>
      </trkpt>
      <trkpt lat="48.87215" lon="2.29085">
        <ele>67.6</ele>
        <time>2020-07-01T17:21:32Z</time>
      </trkpt>
      <trkpt lat="48.87215" lon="2.29085">
        <ele>67.6</ele>
        <time>2020-07-01T17:21:33Z</time>
      </trkpt>
      <trkpt lat="48.87215" lon="2.29085">
        <ele>67.6</ele>
        <time>2020-07-01T17:21:34Z</time>
      </trkpt>
      <trkpt lat="48.87214" lon="2.29085">
        <ele>67.6</ele>
        <time>2020-07-01T17:21:35Z</time>
      </trkpt>
      <trkpt lat="48.87214" lon="2.29084">
        <ele>67.6</ele>
        <time>2020-07-01T17:21:36Z</time>
      </trkpt>
      <trkpt lat="48.87214" lon="2.29084">
        <ele>67.6</ele>
        <time>2020-07-01T17:21:37Z</time>
      </trkpt>
      <trkpt lat="48.87214" lon="2.29086">
        <ele>67.6</ele>
        <time>2020-07-01T17:21:38Z</time>
      </trkpt>
      <trkpt lat="48.87214" lon="2.29087">
        <ele>67.6</ele>
        <time>2020-07-01T17:21:39Z</time>
      </trkpt>
      <trkpt lat="48.87214" lon="2.29088">
        <ele>67.6</ele>
        <time>2020-07-01T17:21:40Z</time>
      </trkpt>
      <trkpt lat="48.87214" lon="2.29089">
        <ele>67.6</ele>
        <time>2020-07-01T17:21:41Z</time>
      </trkpt>
      <trkpt lat="48.87214" lon="2.2909">
        <ele>67.7</ele>
        <time>2020-07-01T17:21:42Z</time>
      </trkpt>
      <trkpt lat="48.87215" lon="2.29091">
        <ele>67.7</ele>
        <time>2020-07-01T17:21:43Z</time>
      </trkpt>
      <trkpt lat="48.87215" lon="2.29091">
        <ele>67.7</ele>
        <time>2020-07-01T17:21:44Z</time>
      </trkpt>
      <trkpt lat="48.87216" lon="2.29092">
        <ele>67.7</ele>
        <time>2020-07-01T17:21:45Z</time>
      </trkpt>
      <trkpt lat="48.87216" lon="2.29092">
        <ele>67.7</ele>
        <time>2020-07-01T17:21:46Z</time>
      </trkpt>
      <trkpt lat="48.87216" lon="2.29092">
        <ele>67.7</ele>
        <time>2020-07-01T17:21:47Z</time>
      </trkpt>
      <trkpt lat="48.87216" lon="2.29092">
        <ele>67.7</ele>
        <time>2020-07-01T17:21:48Z</time>
      </trkpt>
      <trkpt lat="48.87216" lon="2.29092">
        <ele>67.7</ele>
        <time>2020-07-01T17:21:49Z</time>
      </trkpt>
      <trkpt lat="48.87216" lon="2.29092">
        <ele>67.7</ele>
        <time>2020-07-01T17:21:50Z</time>
      </trkpt>
      <trkpt lat="48.87216" lon="2.29093">
        <ele>67.7</ele>
        <time>2020-07-01T17:21:51Z</time>
      </trkpt>
      <trkpt lat="48.87216" lon="2.29093">
        <ele>67.7</ele>
        <time>2020-07-01T17:21:52Z</time>
      </trkpt>
      <trkpt lat="48.87216" lon="2.29094">
        <ele>67.7</ele>
        <time>2020-07-01T17:21:53Z</time>
      </trkpt>
      <trkpt lat="48.87216" lon="2.29094">
        <ele>67.7</ele>
        <time>2020-07-01T17:21:54Z</time>
      </trkpt>
      <trkpt lat="48.87208" lon="2.29072">
        <ele>67.8</ele>
        <time>2020-07-01T17:30:52Z</time>
      </trkpt>
      <trkpt lat="48.87209" lon="2.29072">
        <ele>67.8</ele>
        <time>2020-07-01T17:30:53Z</time>
      </trkpt>
      <trkpt lat="48.8721" lon="2.29073">
        <ele>67.8</ele>
        <time>2020-07-01T17:30:54Z</time>
      </trkpt>
      <trkpt lat="48.8721" lon="2.29072">
        <ele>67.8</ele>
        <time>2020-07-01T17:30:55Z</time>
      </trkpt>
      <trkpt lat="48.87211" lon="2.29072">
        <ele>67.8</ele>
        <time>2020-07-01T17:30:56Z</time>
      </trkpt>
      <trkpt lat="48.87211" lon="2.29072">
        <ele>67.8</ele>
        <time>2020-07-01T17:30:57Z</time>
      </trkpt>
      <trkpt lat="48.87211" lon="2.29072">
        <ele>67.8</ele>
        <time>2020-07-01T17:30:58Z</time>
      </trkpt>
      <trkpt lat="48.87212" lon="2.29072">
        <ele>67.8</ele>
        <time>2020-07-01T17:30:59Z</time>
      </trkpt>
      <trkpt lat="48.87212" lon="2.29072">
        <ele>67.8</ele>
        <time>2020-07-01T17:31:00Z</time>
      </trkpt>
      <trkpt lat="48.87213" lon="2.29072">
        <ele>67.8</ele>
        <time>2020-07-01T17:31:01Z</time>
      </trkpt>
      <trkpt lat="48.87213" lon="2.29072">
        <ele>67.8</ele>
        <time>2020-07-01T17:31:02Z</time>
      </trkpt>
      <trkpt lat="48.87213" lon="2.29071">
        <ele>67.8</ele>
        <time>2020-07-01T17:31:03Z</time>
      </trkpt>
      <trkpt lat="48.87213" lon="2.29071">
        <ele>67.8</ele>
        <time>2020-07-01T17:31:04Z</time>
      </trkpt>
      <trkpt lat="48.87214" lon="2.2907">
        <ele>67.8</ele>
        <time>2020-07-01T17:31:05Z</time>
      </trkpt>
      <trkpt lat="48.87214" lon="2.2907">
        <ele>67.8</ele>
        <time>2020-07-01T17:31:06Z</time>
      </trkpt>
      <trkpt lat="48.87214" lon="2.2907">
        <ele>67.8</ele>
        <time>2020-07-01T17:31:07Z</time>
      </trkpt>
      <trkpt lat="48.87215" lon="2.2907">
        <ele>67.8</ele>
        <time>2020-07-01T17:31:08Z</time>
      </trkpt>
      <trkpt lat="48.87215" lon="2.2907">
        <ele>67.8</ele>
        <time>2020-07-01T17:31:09Z</time>
      </trkpt>
      <trkpt lat="48.87215" lon="2.29069">
        <ele>67.8</ele>
        <time>2020-07-01T17:31:10Z</time>
      </trkpt>
      <trkpt lat="48.87215" lon="2.29069">
        <ele>67.8</ele>
        <time>2020-07-01T17:31:11Z</time>
      </trkpt>
      <trkpt lat="48.87215" lon="2.29068">
        <ele>67.8</ele>
        <time>2020-07-01T17:31:12Z</time>
      </trkpt>
      <trkpt lat="48.87214" lon="2.29072">
        <ele>67.8</ele>
        <time>2020-07-01T17:31:13Z</time>
      </trkpt>
      <trkpt lat="48.87213" lon="2.29073">
        <ele>67.8</ele>
        <time>2020-07-01T17:31:14Z</time>
      </trkpt>
      <trkpt lat="48.87212" lon="2.29077">
        <ele>67.8</ele>
        <time>2020-07-01T17:31:15Z</time>
      </trkpt>
      <trkpt lat="48.87212" lon="2.29078">
        <ele>67.7</ele>
        <time>2020-07-01T17:31:16Z</time>
      </trkpt>
      <trkpt lat="48.87212" lon="2.29079">
        <ele>67.7</ele>
        <time>2020-07-01T17:31:17Z</time>
      </trkpt>
      <trkpt lat="48.87212" lon="2.2908">
        <ele>67.7</ele>
        <time>2020-07-01T17:31:18Z</time>
      </trkpt>
      <trkpt lat="48.87211" lon="2.29081">
        <ele>67.7</ele>
        <time>2020-07-01T17:31:19Z</time>
      </trkpt>
      <trkpt lat="48.87211" lon="2.29083">
        <ele>67.7</ele>
        <time>2020-07-01T17:31:20Z</time>
      </trkpt>
      <trkpt lat="48.87211" lon="2.29084">
        <ele>67.7</ele>
        <time>2020-07-01T17:31:21Z</time>
      </trkpt>
      <trkpt lat="48.87211" lon="2.29085">
        <ele>67.7</ele>
        <time>2020-07-01T17:31:22Z</time>
      </trkpt>
      <trkpt lat="48.87211" lon="2.29086">
        <ele>67.7</ele>
        <time>2020-07-01T17:31:23Z</time>
      </trkpt>
      <trkpt lat="48.8721" lon="2.29088">
        <ele>67.7</ele>
        <time>2020-07-01T17:31:24Z</time>
      </trkpt>
      <trkpt lat="48.8721" lon="2.29088">
        <ele>67.7</ele>
        <time>2020-07-01T17:31:25Z</time>
      </trkpt>
      <trkpt lat="48.8721" lon="2.29088">
        <ele>67.7</ele>
        <time>2020-07-01T17:31:26Z</time>
      </trkpt>
      <trkpt lat="48.87211" lon="2.29087">
        <ele>67.7</ele>
        <time>2020-07-01T17:31:27Z</time>
      </trkpt>
      <trkpt lat="48.87211" lon="2.29087">
        <ele>67.7</ele>
        <time>2020-07-01T17:31:28Z</time>
      </trkpt>
      <trkpt lat="48.87211" lon="2.29086">
        <ele>67.7</ele>
        <time>2020-07-01T17:31:29Z</time>
      </trkpt>
      <trkpt lat="48.87211" lon="2.29086">
        <ele>67.7</ele>
        <time>2020-07-01T17:31:30Z</time>
      </trkpt>
      <trkpt lat="48.87211" lon="2.29085">
        <ele>67.7</ele>
        <time>2020-07-01T17:31:31Z</time>
      </trkpt>
      <trkpt lat="48.87211" lon="2.29085">
        <ele>67.7</ele>
        <time>2020-07-01T17:31:32Z</time>
      </trkpt>
      <trkpt lat="48.87211" lon="2.29084">
        <ele>67.7</ele>
        <time>2020-07-01T17:31:33Z</time>
      </trkpt>
      <trkpt lat="48.87211" lon="2.29084">
        <ele>67.7</ele>
        <time>2020-07-01T17:31:34Z</time>
      </trkpt>
      <trkpt lat="48.87212" lon="2.29083">
        <ele>67.7</ele>
        <time>2020-07-01T17:31:35Z</time>
      </trkpt>
      <trkpt lat="48.87212" lon="2.29082">
        <ele>67.7</ele>
        <time>2020-07-01T17:31:36Z</time>
      </trkpt>
      <trkpt lat="48.87211" lon="2.29083">
        <ele>67.7</ele>
        <time>2020-07-01T17:31:37Z</time>
      </trkpt>
      <trkpt lat="48.87211" lon="2.29083">
        <ele>67.7</ele>
        <time>2020-07-01T17:31:38Z</time>
      </trkpt>
      <trkpt lat="48.87212" lon="2.29082">
        <ele>67.7</ele>
        <time>2020-07-01T17:31:39Z</time>
      </trkpt>
      <trkpt lat="48.87212" lon="2.29083">
        <ele>67.7</ele>
        <time>2020-07-01T17:31:40Z</time>
      </trkpt>
      <trkpt lat="48.87213" lon="2.29084">
        <ele>67.7</ele>
        <time>2020-07-01T17:31:41Z</time>
      </trkpt>
      <trkpt lat="48.87213" lon="2.29083">
        <ele>67.7</ele>
        <time>2020-07-01T17:31:42Z</time>
      </trkpt>
      <trkpt lat="48.87213" lon="2.29083">
        <ele>67.7</ele>
        <time>2020-07-01T17:31:43Z</time>
      </trkpt>
      <trkpt lat="48.87213" lon="2.29083">
        <ele>67.7</ele>
        <time>2020-07-01T17:31:44Z</time>
      </trkpt>
      <trkpt lat="48.87212" lon="2.29084">
        <ele>67.7</ele>
        <time>2020-07-01T17:31:45Z</time>
      </trkpt>
      <trkpt lat="48.87214" lon="2.29083">
        <ele>67.7</ele>
        <time>2020-07-01T17:31:46Z</time>
      </trkpt>
      <trkpt lat="48.87215" lon="2.29082">
        <ele>67.7</ele>
        <time>2020-07-01T17:31:47Z</time>
      </trkpt>
      <trkpt lat="48.87215" lon="2.29082">
        <ele>67.7</ele>
        <time>2020-07-01T17:31:48Z</time>
      </trkpt>
      <trkpt lat="48.87215" lon="2.29082">
        <ele>67.7</ele>
        <time>2020-07-01T17:31:49Z</time>
      </trkpt>
      <trkpt lat="48.87215" lon="2.29082">
        <ele>67.7</ele>
        <time>2020-07-01T17:31:50Z</time>
      </trkpt>
      <trkpt lat="48.8722" lon="2.29084">
        <ele>67.7</ele>
        <time>2020-07-01T17:34:57Z</time>
      </trkpt>
      <trkpt lat="48.87221" lon="2.29085">
        <ele>67.7</ele>
        <time>2020-07-01T17:34:58Z</time>
      </trkpt>
      <trkpt lat="48.87221" lon="2.29085">
        <ele>67.7</ele>
        <time>2020-07-01T17:34:59Z</time>
      </trkpt>
      <trkpt lat="48.87222" lon="2.29086">
        <ele>67.7</ele>
        <time>2020-07-01T17:35:00Z</time>
      </trkpt>
      <trkpt lat="48.87222" lon="2.29087">
        <ele>67.6</ele>
        <time>2020-07-01T17:35:01Z</time>
      </trkpt>
      <trkpt lat="48.87223" lon="2.29089">
        <ele>67.6</ele>
        <time>2020-07-01T17:35:02Z</time>
      </trkpt>
      <trkpt lat="48.87223" lon="2.29091">
        <ele>67.6</ele>
        <time>2020-07-01T17:35:03Z</time>
      </trkpt>
      <trkpt lat="48.87223" lon="2.29094">
        <ele>67.6</ele>
        <time>2020-07-01T17:35:04Z</time>
      </trkpt>
      <trkpt lat="48.87223" lon="2.29095">
        <ele>67.6</ele>
        <time>2020-07-01T17:35:05Z</time>
      </trkpt>
      <trkpt lat="48.87223" lon="2.29096">
        <ele>67.6</ele>
        <time>2020-07-01T17:35:06Z</time>
      </trkpt>
      <trkpt lat="48.87223" lon="2.29099">
        <ele>67.6</ele>
        <time>2020-07-01T17:35:07Z</time>
      </trkpt>
      <trkpt lat="48.87223" lon="2.291">
        <ele>67.6</ele>
        <time>2020-07-01T17:35:08Z</time>
      </trkpt>
      <trkpt lat="48.87224" lon="2.29101">
        <ele>67.6</ele>
        <time>2020-07-01T17:35:09Z</time>
      </trkpt>
    </trkseg>
  </trk>
</gpx>